<?xml version="1.0" encoding="UTF-8"?>
<gpx creator="Garmin Connect" version="1.1"
  xsi:schemaLocation="http://www.topografix.com/GPX/1/1 http://www.topografix.com/GPX/11.xsd"
  xmlns:ns3="http://www.garmin.com/xmlschemas/TrackPointExtension/v1"
  xmlns="http://www.topografix.com/GPX/1/1"
  xmlns:xsi="http://www.w3.org/2001/XMLSchema-instance" xmlns:ns2="http://www.garmin.com/xmlschemas/GpxExtensions/v3">
  <metadata>
    <link href="connect.garmin.com">
      <text>Garmin Connect</text>
    </link>
    <time>2026-08-13T05:58:25.000Z</time>
  </metadata>
  <trk>
    <name>Buzet-sur-Tarn Course à pied</name>
    <type>running</type>
    <trkseg>
      <trkpt lat="43.76309989951550960540771484375" lon="1.581208817660808563232421875">
        <ele>162.600006103515625</ele>
        <time>2026-08-13T05:58:25.000Z</time>
        <extensions>
          <ns3:TrackPointExtension>
            <ns3:hr>81</ns3:hr>
            <ns3:cad>0</ns3:cad>
          </ns3:TrackPointExtension>
        </extensions>
      </trkpt>
      <trkpt lat="43.76308196224272251129150390625" lon="1.581200771033763885498046875">
        <ele>162.600006103515625</ele>
        <time>2026-08-13T05:58:26.000Z</time>
        <extensions>
          <ns3:TrackPointExtension>
            <ns3:hr>82</ns3:hr>
            <ns3:cad>0</ns3:cad>
          </ns3:TrackPointExtension>
        </extensions>
      </trkpt>
      <trkpt lat="43.76307726837694644927978515625" lon="1.58120068721473217010498046875">
        <ele>162.600006103515625</ele>
        <time>2026-08-13T05:58:27.000Z</time>
        <extensions>
          <ns3:TrackPointExtension>
            <ns3:hr>82</ns3:hr>
            <ns3:cad>0</ns3:cad>
          </ns3:TrackPointExtension>
        </extensions>
      </trkpt>
      <trkpt lat="43.76307592727243900299072265625" lon="1.58119909465312957763671875">
        <ele>162.399993896484375</ele>
        <time>2026-08-13T05:58:28.000Z</time>
        <extensions>
          <ns3:TrackPointExtension>
            <ns3:hr>82</ns3:hr>
            <ns3:cad>0</ns3:cad>
          </ns3:TrackPointExtension>
        </extensions>
      </trkpt>
      <trkpt lat="43.76308028586208820343017578125" lon="1.58120580017566680908203125">
        <ele>162.399993896484375</ele>
        <time>2026-08-13T05:58:29.000Z</time>
        <extensions>
          <ns3:TrackPointExtension>
            <ns3:hr>83</ns3:hr>
            <ns3:cad>0</ns3:cad>
          </ns3:TrackPointExtension>
        </extensions>
      </trkpt>
      <trkpt lat="43.76307911239564418792724609375" lon="1.5812126733362674713134765625">
        <ele>162.399993896484375</ele>
        <time>2026-08-13T05:58:30.000Z</time>
        <extensions>
          <ns3:TrackPointExtension>
            <ns3:hr>83</ns3:hr>
            <ns3:cad>0</ns3:cad>
          </ns3:TrackPointExtension>
        </extensions>
      </trkpt>
      <trkpt lat="43.7630853988230228424072265625" lon="1.58121275715529918670654296875">
        <ele>162.399993896484375</ele>
        <time>2026-08-13T05:58:31.000Z</time>
        <extensions>
          <ns3:TrackPointExtension>
            <ns3:hr>84</ns3:hr>
            <ns3:cad>0</ns3:cad>
          </ns3:TrackPointExtension>
        </extensions>
      </trkpt>
      <trkpt lat="43.7630887515842914581298828125" lon="1.5812166966497898101806640625">
        <ele>162.399993896484375</ele>
        <time>2026-08-13T05:58:32.000Z</time>
        <extensions>
          <ns3:TrackPointExtension>
            <ns3:hr>84</ns3:hr>
            <ns3:cad>0</ns3:cad>
          </ns3:TrackPointExtension>
        </extensions>
      </trkpt>
      <trkpt lat="43.763091266155242919921875" lon="1.581217534840106964111328125">
        <ele>162.399993896484375</ele>
        <time>2026-08-13T05:58:33.000Z</time>
        <extensions>
          <ns3:TrackPointExtension>
            <ns3:hr>85</ns3:hr>
            <ns3:cad>0</ns3:cad>
          </ns3:TrackPointExtension>
        </extensions>
      </trkpt>
      <trkpt lat="43.7630941160023212432861328125" lon="1.58121711574494838714599609375">
        <ele>162.1999969482421875</ele>
        <time>2026-08-13T05:58:34.000Z</time>
        <extensions>
          <ns3:TrackPointExtension>
            <ns3:hr>85</ns3:hr>
            <ns3:cad>0</ns3:cad>
          </ns3:TrackPointExtension>
        </extensions>
      </trkpt>
      <trkpt lat="43.7630984745919704437255859375" lon="1.581212170422077178955078125">
        <ele>162.1999969482421875</ele>
        <time>2026-08-13T05:58:35.000Z</time>
        <extensions>
          <ns3:TrackPointExtension>
            <ns3:hr>85</ns3:hr>
            <ns3:cad>0</ns3:cad>
          </ns3:TrackPointExtension>
        </extensions>
      </trkpt>
      <trkpt lat="43.7631068564951419830322265625" lon="1.58120655454695224761962890625">
        <ele>162</ele>
        <time>2026-08-13T05:58:36.000Z</time>
        <extensions>
          <ns3:TrackPointExtension>
            <ns3:hr>86</ns3:hr>
            <ns3:cad>0</ns3:cad>
          </ns3:TrackPointExtension>
        </extensions>
      </trkpt>
      <trkpt lat="43.76311113126575946807861328125" lon="1.581205464899539947509765625">
        <ele>162</ele>
        <time>2026-08-13T05:58:37.000Z</time>
        <extensions>
          <ns3:TrackPointExtension>
            <ns3:hr>86</ns3:hr>
            <ns3:cad>0</ns3:cad>
          </ns3:TrackPointExtension>
        </extensions>
      </trkpt>
      <trkpt lat="43.76311247237026691436767578125" lon="1.58120177686214447021484375">
        <ele>162</ele>
        <time>2026-08-13T05:58:38.000Z</time>
        <extensions>
          <ns3:TrackPointExtension>
            <ns3:hr>86</ns3:hr>
            <ns3:cad>0</ns3:cad>
          </ns3:TrackPointExtension>
        </extensions>
      </trkpt>
      <trkpt lat="43.76311766915023326873779296875" lon="1.58120311796665191650390625">
        <ele>162.1999969482421875</ele>
        <time>2026-08-13T05:58:39.000Z</time>
        <extensions>
          <ns3:TrackPointExtension>
            <ns3:hr>87</ns3:hr>
            <ns3:cad>0</ns3:cad>
          </ns3:TrackPointExtension>
        </extensions>
      </trkpt>
      <trkpt lat="43.76311875879764556884765625" lon="1.58120051957666873931884765625">
        <ele>162.1999969482421875</ele>
        <time>2026-08-13T05:58:40.000Z</time>
        <extensions>
          <ns3:TrackPointExtension>
            <ns3:hr>87</ns3:hr>
            <ns3:cad>0</ns3:cad>
          </ns3:TrackPointExtension>
        </extensions>
      </trkpt>
      <trkpt lat="43.76311917789280414581298828125" lon="1.58120152540504932403564453125">
        <ele>162.1999969482421875</ele>
        <time>2026-08-13T05:58:41.000Z</time>
        <extensions>
          <ns3:TrackPointExtension>
            <ns3:hr>87</ns3:hr>
            <ns3:cad>0</ns3:cad>
          </ns3:TrackPointExtension>
        </extensions>
      </trkpt>
      <trkpt lat="43.76312009990215301513671875" lon="1.58119984902441501617431640625">
        <ele>162.1999969482421875</ele>
        <time>2026-08-13T05:58:42.000Z</time>
        <extensions>
          <ns3:TrackPointExtension>
            <ns3:hr>88</ns3:hr>
            <ns3:cad>0</ns3:cad>
          </ns3:TrackPointExtension>
        </extensions>
      </trkpt>
      <trkpt lat="43.76311716623604297637939453125" lon="1.581195406615734100341796875">
        <ele>162.1999969482421875</ele>
        <time>2026-08-13T05:58:43.000Z</time>
        <extensions>
          <ns3:TrackPointExtension>
            <ns3:hr>88</ns3:hr>
            <ns3:cad>0</ns3:cad>
          </ns3:TrackPointExtension>
        </extensions>
      </trkpt>
      <trkpt lat="43.76311146654188632965087890625" lon="1.58119515515863895416259765625">
        <ele>162.1999969482421875</ele>
        <time>2026-08-13T05:58:44.000Z</time>
        <extensions>
          <ns3:TrackPointExtension>
            <ns3:hr>88</ns3:hr>
            <ns3:cad>0</ns3:cad>
          </ns3:TrackPointExtension>
        </extensions>
      </trkpt>
      <trkpt lat="43.7631102092564105987548828125" lon="1.58119481988251209259033203125">
        <ele>162.1999969482421875</ele>
        <time>2026-08-13T05:58:45.000Z</time>
        <extensions>
          <ns3:TrackPointExtension>
            <ns3:hr>88</ns3:hr>
            <ns3:cad>0</ns3:cad>
          </ns3:TrackPointExtension>
        </extensions>
      </trkpt>
      <trkpt lat="43.7631081975996494293212890625" lon="1.5811838395893573760986328125">
        <ele>162.1999969482421875</ele>
        <time>2026-08-13T05:58:46.000Z</time>
        <extensions>
          <ns3:TrackPointExtension>
            <ns3:hr>89</ns3:hr>
            <ns3:cad>0</ns3:cad>
          </ns3:TrackPointExtension>
        </extensions>
      </trkpt>
      <trkpt lat="43.76310811378061771392822265625" lon="1.58118274994194507598876953125">
        <ele>162.1999969482421875</ele>
        <time>2026-08-13T05:58:47.000Z</time>
        <extensions>
          <ns3:TrackPointExtension>
            <ns3:hr>89</ns3:hr>
            <ns3:cad>0</ns3:cad>
          </ns3:TrackPointExtension>
        </extensions>
      </trkpt>
      <trkpt lat="43.76311046071350574493408203125" lon="1.5811690874397754669189453125">
        <ele>162.1999969482421875</ele>
        <time>2026-08-13T05:58:48.000Z</time>
        <extensions>
          <ns3:TrackPointExtension>
            <ns3:hr>90</ns3:hr>
            <ns3:cad>0</ns3:cad>
          </ns3:TrackPointExtension>
        </extensions>
      </trkpt>
      <trkpt lat="43.763109035789966583251953125" lon="1.58115693368017673492431640625">
        <ele>162.1999969482421875</ele>
        <time>2026-08-13T05:58:49.000Z</time>
        <extensions>
          <ns3:TrackPointExtension>
            <ns3:hr>90</ns3:hr>
            <ns3:cad>0</ns3:cad>
          </ns3:TrackPointExtension>
        </extensions>
      </trkpt>
      <trkpt lat="43.76310828141868114471435546875" lon="1.58114654012024402618408203125">
        <ele>162.1999969482421875</ele>
        <time>2026-08-13T05:58:50.000Z</time>
        <extensions>
          <ns3:TrackPointExtension>
            <ns3:hr>90</ns3:hr>
            <ns3:cad>0</ns3:cad>
          </ns3:TrackPointExtension>
        </extensions>
      </trkpt>
      <trkpt lat="43.763111047446727752685546875" lon="1.581135056912899017333984375">
        <ele>162.1999969482421875</ele>
        <time>2026-08-13T05:58:51.000Z</time>
        <extensions>
          <ns3:TrackPointExtension>
            <ns3:hr>91</ns3:hr>
            <ns3:cad>0</ns3:cad>
          </ns3:TrackPointExtension>
        </extensions>
      </trkpt>
      <trkpt lat="43.76311314292252063751220703125" lon="1.58112189732491970062255859375">
        <ele>162.1999969482421875</ele>
        <time>2026-08-13T05:58:52.000Z</time>
        <extensions>
          <ns3:TrackPointExtension>
            <ns3:hr>91</ns3:hr>
            <ns3:cad>0</ns3:cad>
          </ns3:TrackPointExtension>
        </extensions>
      </trkpt>
      <trkpt lat="43.7631165795028209686279296875" lon="1.58110664226114749908447265625">
        <ele>162.1999969482421875</ele>
        <time>2026-08-13T05:58:53.000Z</time>
        <extensions>
          <ns3:TrackPointExtension>
            <ns3:hr>90</ns3:hr>
            <ns3:cad>0</ns3:cad>
          </ns3:TrackPointExtension>
        </extensions>
      </trkpt>
      <trkpt lat="43.76311783678829669952392578125" lon="1.5810943208634853363037109375">
        <ele>162.1999969482421875</ele>
        <time>2026-08-13T05:58:54.000Z</time>
        <extensions>
          <ns3:TrackPointExtension>
            <ns3:hr>90</ns3:hr>
            <ns3:cad>0</ns3:cad>
          </ns3:TrackPointExtension>
        </extensions>
      </trkpt>
      <trkpt lat="43.76311800442636013031005859375" lon="1.5810849331319332122802734375">
        <ele>162.1999969482421875</ele>
        <time>2026-08-13T05:58:55.000Z</time>
        <extensions>
          <ns3:TrackPointExtension>
            <ns3:hr>90</ns3:hr>
            <ns3:cad>47</ns3:cad>
          </ns3:TrackPointExtension>
        </extensions>
      </trkpt>
      <trkpt lat="43.76311716623604297637939453125" lon="1.581076048314571380615234375">
        <ele>162.1999969482421875</ele>
        <time>2026-08-13T05:58:56.000Z</time>
        <extensions>
          <ns3:TrackPointExtension>
            <ns3:hr>90</ns3:hr>
            <ns3:cad>47</ns3:cad>
          </ns3:TrackPointExtension>
        </extensions>
      </trkpt>
      <trkpt lat="43.7631175853312015533447265625" lon="1.58106305636465549468994140625">
        <ele>162.1999969482421875</ele>
        <time>2026-08-13T05:58:57.000Z</time>
        <extensions>
          <ns3:TrackPointExtension>
            <ns3:hr>90</ns3:hr>
            <ns3:cad>48</ns3:cad>
          </ns3:TrackPointExtension>
        </extensions>
      </trkpt>
      <trkpt lat="43.76311850734055042266845703125" lon="1.58105048350989818572998046875">
        <ele>162.399993896484375</ele>
        <time>2026-08-13T05:58:58.000Z</time>
        <extensions>
          <ns3:TrackPointExtension>
            <ns3:hr>90</ns3:hr>
            <ns3:cad>48</ns3:cad>
          </ns3:TrackPointExtension>
        </extensions>
      </trkpt>
      <trkpt lat="43.7631189264357089996337890625" lon="1.58103992231190204620361328125">
        <ele>162.399993896484375</ele>
        <time>2026-08-13T05:58:59.000Z</time>
        <extensions>
          <ns3:TrackPointExtension>
            <ns3:hr>90</ns3:hr>
            <ns3:cad>47</ns3:cad>
          </ns3:TrackPointExtension>
        </extensions>
      </trkpt>
      <trkpt lat="43.76312009990215301513671875" lon="1.58103053458034992218017578125">
        <ele>162.399993896484375</ele>
        <time>2026-08-13T05:59:00.000Z</time>
        <extensions>
          <ns3:TrackPointExtension>
            <ns3:hr>90</ns3:hr>
            <ns3:cad>43</ns3:cad>
          </ns3:TrackPointExtension>
        </extensions>
      </trkpt>
      <trkpt lat="43.7631145678460597991943359375" lon="1.58101460896432399749755859375">
        <ele>162.399993896484375</ele>
        <time>2026-08-13T05:59:01.000Z</time>
        <extensions>
          <ns3:TrackPointExtension>
            <ns3:hr>91</ns3:hr>
            <ns3:cad>43</ns3:cad>
          </ns3:TrackPointExtension>
        </extensions>
      </trkpt>
      <trkpt lat="43.7631112150847911834716796875" lon="1.58100337721407413482666015625">
        <ele>162.399993896484375</ele>
        <time>2026-08-13T05:59:02.000Z</time>
        <extensions>
          <ns3:TrackPointExtension>
            <ns3:hr>91</ns3:hr>
            <ns3:cad>43</ns3:cad>
          </ns3:TrackPointExtension>
        </extensions>
      </trkpt>
      <trkpt lat="43.7631075270473957061767578125" lon="1.5809910558164119720458984375">
        <ele>162.600006103515625</ele>
        <time>2026-08-13T05:59:03.000Z</time>
        <extensions>
          <ns3:TrackPointExtension>
            <ns3:hr>91</ns3:hr>
            <ns3:cad>43</ns3:cad>
          </ns3:TrackPointExtension>
        </extensions>
      </trkpt>
      <trkpt lat="43.7631028331816196441650390625" lon="1.5809833444654941558837890625">
        <ele>162.600006103515625</ele>
        <time>2026-08-13T05:59:04.000Z</time>
        <extensions>
          <ns3:TrackPointExtension>
            <ns3:hr>91</ns3:hr>
            <ns3:cad>44</ns3:cad>
          </ns3:TrackPointExtension>
        </extensions>
      </trkpt>
      <trkpt lat="43.7631014920771121978759765625" lon="1.58097445964813232421875">
        <ele>162.600006103515625</ele>
        <time>2026-08-13T05:59:05.000Z</time>
        <extensions>
          <ns3:TrackPointExtension>
            <ns3:hr>91</ns3:hr>
            <ns3:cad>44</ns3:cad>
          </ns3:TrackPointExtension>
        </extensions>
      </trkpt>
      <trkpt lat="43.7631008215248584747314453125" lon="1.58096171915531158447265625">
        <ele>162.600006103515625</ele>
        <time>2026-08-13T05:59:06.000Z</time>
        <extensions>
          <ns3:TrackPointExtension>
            <ns3:hr>91</ns3:hr>
            <ns3:cad>44</ns3:cad>
          </ns3:TrackPointExtension>
        </extensions>
      </trkpt>
      <trkpt lat="43.76309730112552642822265625" lon="1.58094956539571285247802734375">
        <ele>162.600006103515625</ele>
        <time>2026-08-13T05:59:07.000Z</time>
        <extensions>
          <ns3:TrackPointExtension>
            <ns3:hr>91</ns3:hr>
            <ns3:cad>43</ns3:cad>
          </ns3:TrackPointExtension>
        </extensions>
      </trkpt>
      <trkpt lat="43.7630931101739406585693359375" lon="1.58093699254095554351806640625">
        <ele>162.600006103515625</ele>
        <time>2026-08-13T05:59:08.000Z</time>
        <extensions>
          <ns3:TrackPointExtension>
            <ns3:hr>92</ns3:hr>
            <ns3:cad>43</ns3:cad>
          </ns3:TrackPointExtension>
        </extensions>
      </trkpt>
      <trkpt lat="43.76309721730649471282958984375" lon="1.58091972582042217254638671875">
        <ele>162.8000030517578125</ele>
        <time>2026-08-13T05:59:09.000Z</time>
        <extensions>
          <ns3:TrackPointExtension>
            <ns3:hr>92</ns3:hr>
            <ns3:cad>43</ns3:cad>
          </ns3:TrackPointExtension>
        </extensions>
      </trkpt>
      <trkpt lat="43.763098306953907012939453125" lon="1.580911092460155487060546875">
        <ele>162.8000030517578125</ele>
        <time>2026-08-13T05:59:10.000Z</time>
        <extensions>
          <ns3:TrackPointExtension>
            <ns3:hr>92</ns3:hr>
            <ns3:cad>45</ns3:cad>
          </ns3:TrackPointExtension>
        </extensions>
      </trkpt>
      <trkpt lat="43.76310124062001705169677734375" lon="1.58090271055698394775390625">
        <ele>162.8000030517578125</ele>
        <time>2026-08-13T05:59:11.000Z</time>
        <extensions>
          <ns3:TrackPointExtension>
            <ns3:hr>92</ns3:hr>
            <ns3:cad>45</ns3:cad>
          </ns3:TrackPointExtension>
        </extensions>
      </trkpt>
      <trkpt lat="43.763100989162921905517578125" lon="1.5809005312621593475341796875">
        <ele>163</ele>
        <time>2026-08-13T05:59:12.000Z</time>
        <extensions>
          <ns3:TrackPointExtension>
            <ns3:hr>93</ns3:hr>
            <ns3:cad>45</ns3:cad>
          </ns3:TrackPointExtension>
        </extensions>
      </trkpt>
      <trkpt lat="43.76310090534389019012451171875" lon="1.58089072443544864654541015625">
        <ele>163</ele>
        <time>2026-08-13T05:59:13.000Z</time>
        <extensions>
          <ns3:TrackPointExtension>
            <ns3:hr>92</ns3:hr>
            <ns3:cad>45</ns3:cad>
          </ns3:TrackPointExtension>
        </extensions>
      </trkpt>
      <trkpt lat="43.76309872604906558990478515625" lon="1.5808841027319431304931640625">
        <ele>163</ele>
        <time>2026-08-13T05:59:14.000Z</time>
        <extensions>
          <ns3:TrackPointExtension>
            <ns3:hr>92</ns3:hr>
            <ns3:cad>45</ns3:cad>
          </ns3:TrackPointExtension>
        </extensions>
      </trkpt>
      <trkpt lat="43.76309554092586040496826171875" lon="1.580870859324932098388671875">
        <ele>162.8000030517578125</ele>
        <time>2026-08-13T05:59:15.000Z</time>
        <extensions>
          <ns3:TrackPointExtension>
            <ns3:hr>92</ns3:hr>
            <ns3:cad>41</ns3:cad>
          </ns3:TrackPointExtension>
        </extensions>
      </trkpt>
      <trkpt lat="43.763094283640384674072265625" lon="1.580859124660491943359375">
        <ele>162.8000030517578125</ele>
        <time>2026-08-13T05:59:16.000Z</time>
        <extensions>
          <ns3:TrackPointExtension>
            <ns3:hr>90</ns3:hr>
            <ns3:cad>41</ns3:cad>
          </ns3:TrackPointExtension>
        </extensions>
      </trkpt>
      <trkpt lat="43.76309939660131931304931640625" lon="1.5808482281863689422607421875">
        <ele>162.8000030517578125</ele>
        <time>2026-08-13T05:59:17.000Z</time>
        <extensions>
          <ns3:TrackPointExtension>
            <ns3:hr>89</ns3:hr>
            <ns3:cad>41</ns3:cad>
          </ns3:TrackPointExtension>
        </extensions>
      </trkpt>
      <trkpt lat="43.763101994991302490234375" lon="1.58083238638937473297119140625">
        <ele>162.8000030517578125</ele>
        <time>2026-08-13T05:59:18.000Z</time>
        <extensions>
          <ns3:TrackPointExtension>
            <ns3:hr>89</ns3:hr>
            <ns3:cad>42</ns3:cad>
          </ns3:TrackPointExtension>
        </extensions>
      </trkpt>
      <trkpt lat="43.76309956423938274383544921875" lon="1.58082534559071063995361328125">
        <ele>162.8000030517578125</ele>
        <time>2026-08-13T05:59:19.000Z</time>
        <extensions>
          <ns3:TrackPointExtension>
            <ns3:hr>87</ns3:hr>
            <ns3:cad>43</ns3:cad>
          </ns3:TrackPointExtension>
        </extensions>
      </trkpt>
      <trkpt lat="43.7631018273532390594482421875" lon="1.5808136947453022003173828125">
        <ele>162.8000030517578125</ele>
        <time>2026-08-13T05:59:20.000Z</time>
        <extensions>
          <ns3:TrackPointExtension>
            <ns3:hr>86</ns3:hr>
            <ns3:cad>43</ns3:cad>
          </ns3:TrackPointExtension>
        </extensions>
      </trkpt>
      <trkpt lat="43.7631045095622539520263671875" lon="1.58080539666116237640380859375">
        <ele>162.8000030517578125</ele>
        <time>2026-08-13T05:59:21.000Z</time>
        <extensions>
          <ns3:TrackPointExtension>
            <ns3:hr>85</ns3:hr>
            <ns3:cad>43</ns3:cad>
          </ns3:TrackPointExtension>
        </extensions>
      </trkpt>
      <trkpt lat="43.76310660503804683685302734375" lon="1.5808014571666717529296875">
        <ele>162.8000030517578125</ele>
        <time>2026-08-13T05:59:22.000Z</time>
        <extensions>
          <ns3:TrackPointExtension>
            <ns3:hr>85</ns3:hr>
            <ns3:cad>43</ns3:cad>
          </ns3:TrackPointExtension>
        </extensions>
      </trkpt>
      <trkpt lat="43.76311331056058406829833984375" lon="1.58079382963478565216064453125">
        <ele>162.8000030517578125</ele>
        <time>2026-08-13T05:59:23.000Z</time>
        <extensions>
          <ns3:TrackPointExtension>
            <ns3:hr>84</ns3:hr>
            <ns3:cad>43</ns3:cad>
          </ns3:TrackPointExtension>
        </extensions>
      </trkpt>
      <trkpt lat="43.7631169147789478302001953125" lon="1.58078963868319988250732421875">
        <ele>162.8000030517578125</ele>
        <time>2026-08-13T05:59:24.000Z</time>
        <extensions>
          <ns3:TrackPointExtension>
            <ns3:hr>84</ns3:hr>
            <ns3:cad>43</ns3:cad>
          </ns3:TrackPointExtension>
        </extensions>
      </trkpt>
      <trkpt lat="43.76312085427343845367431640625" lon="1.580781675875186920166015625">
        <ele>163</ele>
        <time>2026-08-13T05:59:25.000Z</time>
        <extensions>
          <ns3:TrackPointExtension>
            <ns3:hr>85</ns3:hr>
            <ns3:cad>0</ns3:cad>
          </ns3:TrackPointExtension>
        </extensions>
      </trkpt>
      <trkpt lat="43.76312403939664363861083984375" lon="1.5807701088488101959228515625">
        <ele>163</ele>
        <time>2026-08-13T05:59:26.000Z</time>
        <extensions>
          <ns3:TrackPointExtension>
            <ns3:hr>85</ns3:hr>
            <ns3:cad>0</ns3:cad>
          </ns3:TrackPointExtension>
        </extensions>
      </trkpt>
      <trkpt lat="43.7631276436150074005126953125" lon="1.5807603858411312103271484375">
        <ele>163</ele>
        <time>2026-08-13T05:59:27.000Z</time>
        <extensions>
          <ns3:TrackPointExtension>
            <ns3:hr>85</ns3:hr>
            <ns3:cad>0</ns3:cad>
          </ns3:TrackPointExtension>
        </extensions>
      </trkpt>
      <trkpt lat="43.76312957145273685455322265625" lon="1.5807526744902133941650390625">
        <ele>163</ele>
        <time>2026-08-13T05:59:28.000Z</time>
        <extensions>
          <ns3:TrackPointExtension>
            <ns3:hr>85</ns3:hr>
            <ns3:cad>0</ns3:cad>
          </ns3:TrackPointExtension>
        </extensions>
      </trkpt>
      <trkpt lat="43.76313275657594203948974609375" lon="1.58074270002543926239013671875">
        <ele>163</ele>
        <time>2026-08-13T05:59:29.000Z</time>
        <extensions>
          <ns3:TrackPointExtension>
            <ns3:hr>86</ns3:hr>
            <ns3:cad>70</ns3:cad>
          </ns3:TrackPointExtension>
        </extensions>
      </trkpt>
      <trkpt lat="43.7631355226039886474609375" lon="1.58073398284614086151123046875">
        <ele>163</ele>
        <time>2026-08-13T05:59:30.000Z</time>
        <extensions>
          <ns3:TrackPointExtension>
            <ns3:hr>86</ns3:hr>
            <ns3:cad>70</ns3:cad>
          </ns3:TrackPointExtension>
        </extensions>
      </trkpt>
      <trkpt lat="43.7631370313465595245361328125" lon="1.58072878606617450714111328125">
        <ele>163</ele>
        <time>2026-08-13T05:59:31.000Z</time>
        <extensions>
          <ns3:TrackPointExtension>
            <ns3:hr>86</ns3:hr>
            <ns3:cad>70</ns3:cad>
          </ns3:TrackPointExtension>
        </extensions>
      </trkpt>
      <trkpt lat="43.763137869536876678466796875" lon="1.58071017824113368988037109375">
        <ele>162.8000030517578125</ele>
        <time>2026-08-13T05:59:32.000Z</time>
        <extensions>
          <ns3:TrackPointExtension>
            <ns3:hr>87</ns3:hr>
            <ns3:cad>70</ns3:cad>
          </ns3:TrackPointExtension>
        </extensions>
      </trkpt>
      <trkpt lat="43.76313929446041584014892578125" lon="1.58069710247218608856201171875">
        <ele>162.8000030517578125</ele>
        <time>2026-08-13T05:59:33.000Z</time>
        <extensions>
          <ns3:TrackPointExtension>
            <ns3:hr>87</ns3:hr>
            <ns3:cad>70</ns3:cad>
          </ns3:TrackPointExtension>
        </extensions>
      </trkpt>
      <trkpt lat="43.76313996501266956329345703125" lon="1.5806869603693485260009765625">
        <ele>162.600006103515625</ele>
        <time>2026-08-13T05:59:34.000Z</time>
        <extensions>
          <ns3:TrackPointExtension>
            <ns3:hr>87</ns3:hr>
            <ns3:cad>70</ns3:cad>
          </ns3:TrackPointExtension>
        </extensions>
      </trkpt>
      <trkpt lat="43.76313887536525726318359375" lon="1.5806809253990650177001953125">
        <ele>162.600006103515625</ele>
        <time>2026-08-13T05:59:35.000Z</time>
        <extensions>
          <ns3:TrackPointExtension>
            <ns3:hr>86</ns3:hr>
            <ns3:cad>0</ns3:cad>
          </ns3:TrackPointExtension>
        </extensions>
      </trkpt>
      <trkpt lat="43.763138540089130401611328125" lon="1.5806722082197666168212890625">
        <ele>162.8000030517578125</ele>
        <time>2026-08-13T05:59:36.000Z</time>
        <extensions>
          <ns3:TrackPointExtension>
            <ns3:hr>85</ns3:hr>
            <ns3:cad>0</ns3:cad>
          </ns3:TrackPointExtension>
        </extensions>
      </trkpt>
      <trkpt lat="43.7631380371749401092529296875" lon="1.58065569587051868438720703125">
        <ele>162.8000030517578125</ele>
        <time>2026-08-13T05:59:37.000Z</time>
        <extensions>
          <ns3:TrackPointExtension>
            <ns3:hr>85</ns3:hr>
            <ns3:cad>0</ns3:cad>
          </ns3:TrackPointExtension>
        </extensions>
      </trkpt>
      <trkpt lat="43.76313711516559123992919921875" lon="1.580644883215427398681640625">
        <ele>162.8000030517578125</ele>
        <time>2026-08-13T05:59:38.000Z</time>
        <extensions>
          <ns3:TrackPointExtension>
            <ns3:hr>84</ns3:hr>
            <ns3:cad>0</ns3:cad>
          </ns3:TrackPointExtension>
        </extensions>
      </trkpt>
      <trkpt lat="43.76313862390816211700439453125" lon="1.5806351602077484130859375">
        <ele>162.8000030517578125</ele>
        <time>2026-08-13T05:59:39.000Z</time>
        <extensions>
          <ns3:TrackPointExtension>
            <ns3:hr>84</ns3:hr>
            <ns3:cad>0</ns3:cad>
          </ns3:TrackPointExtension>
        </extensions>
      </trkpt>
      <trkpt lat="43.7631408870220184326171875" lon="1.580622084438800811767578125">
        <ele>162.8000030517578125</ele>
        <time>2026-08-13T05:59:40.000Z</time>
        <extensions>
          <ns3:TrackPointExtension>
            <ns3:hr>84</ns3:hr>
            <ns3:cad>0</ns3:cad>
          </ns3:TrackPointExtension>
        </extensions>
      </trkpt>
      <trkpt lat="43.76314281485974788665771484375" lon="1.58060708083212375640869140625">
        <ele>162.8000030517578125</ele>
        <time>2026-08-13T05:59:41.000Z</time>
        <extensions>
          <ns3:TrackPointExtension>
            <ns3:hr>84</ns3:hr>
            <ns3:cad>0</ns3:cad>
          </ns3:TrackPointExtension>
        </extensions>
      </trkpt>
      <trkpt lat="43.763144575059413909912109375" lon="1.58059568144381046295166015625">
        <ele>162.8000030517578125</ele>
        <time>2026-08-13T05:59:42.000Z</time>
        <extensions>
          <ns3:TrackPointExtension>
            <ns3:hr>83</ns3:hr>
            <ns3:cad>0</ns3:cad>
          </ns3:TrackPointExtension>
        </extensions>
      </trkpt>
      <trkpt lat="43.76314717344939708709716796875" lon="1.58058444969356060028076171875">
        <ele>162.8000030517578125</ele>
        <time>2026-08-13T05:59:43.000Z</time>
        <extensions>
          <ns3:TrackPointExtension>
            <ns3:hr>83</ns3:hr>
            <ns3:cad>44</ns3:cad>
          </ns3:TrackPointExtension>
        </extensions>
      </trkpt>
      <trkpt lat="43.76315186731517314910888671875" lon="1.58056835643947124481201171875">
        <ele>162.8000030517578125</ele>
        <time>2026-08-13T05:59:44.000Z</time>
        <extensions>
          <ns3:TrackPointExtension>
            <ns3:hr>83</ns3:hr>
            <ns3:cad>44</ns3:cad>
          </ns3:TrackPointExtension>
        </extensions>
      </trkpt>
      <trkpt lat="43.76315488480031490325927734375" lon="1.5805575437843799591064453125">
        <ele>162.8000030517578125</ele>
        <time>2026-08-13T05:59:45.000Z</time>
        <extensions>
          <ns3:TrackPointExtension>
            <ns3:hr>83</ns3:hr>
            <ns3:cad>44</ns3:cad>
          </ns3:TrackPointExtension>
        </extensions>
      </trkpt>
      <trkpt lat="43.7631569802761077880859375" lon="1.58054572530090808868408203125">
        <ele>162.8000030517578125</ele>
        <time>2026-08-13T05:59:46.000Z</time>
        <extensions>
          <ns3:TrackPointExtension>
            <ns3:hr>82</ns3:hr>
            <ns3:cad>42</ns3:cad>
          </ns3:TrackPointExtension>
        </extensions>
      </trkpt>
      <trkpt lat="43.7631591595709323883056640625" lon="1.58053650520741939544677734375">
        <ele>162.8000030517578125</ele>
        <time>2026-08-13T05:59:47.000Z</time>
        <extensions>
          <ns3:TrackPointExtension>
            <ns3:hr>83</ns3:hr>
            <ns3:cad>0</ns3:cad>
          </ns3:TrackPointExtension>
        </extensions>
      </trkpt>
      <trkpt lat="43.76316008158028125762939453125" lon="1.5805216692388057708740234375">
        <ele>162.8000030517578125</ele>
        <time>2026-08-13T05:59:48.000Z</time>
        <extensions>
          <ns3:TrackPointExtension>
            <ns3:hr>83</ns3:hr>
            <ns3:cad>0</ns3:cad>
          </ns3:TrackPointExtension>
        </extensions>
      </trkpt>
      <trkpt lat="43.76316259615123271942138671875" lon="1.58050783909857273101806640625">
        <ele>162.8000030517578125</ele>
        <time>2026-08-13T05:59:49.000Z</time>
        <extensions>
          <ns3:TrackPointExtension>
            <ns3:hr>83</ns3:hr>
            <ns3:cad>0</ns3:cad>
          </ns3:TrackPointExtension>
        </extensions>
      </trkpt>
      <trkpt lat="43.763159327208995819091796875" lon="1.58050264231860637664794921875">
        <ele>162.8000030517578125</ele>
        <time>2026-08-13T05:59:50.000Z</time>
        <extensions>
          <ns3:TrackPointExtension>
            <ns3:hr>82</ns3:hr>
            <ns3:cad>45</ns3:cad>
          </ns3:TrackPointExtension>
        </extensions>
      </trkpt>
      <trkpt lat="43.76315924338996410369873046875" lon="1.58048755489289760589599609375">
        <ele>162.8000030517578125</ele>
        <time>2026-08-13T05:59:51.000Z</time>
        <extensions>
          <ns3:TrackPointExtension>
            <ns3:hr>83</ns3:hr>
            <ns3:cad>45</ns3:cad>
          </ns3:TrackPointExtension>
        </extensions>
      </trkpt>
      <trkpt lat="43.7631621770560741424560546875" lon="1.580480597913265228271484375">
        <ele>163</ele>
        <time>2026-08-13T05:59:52.000Z</time>
        <extensions>
          <ns3:TrackPointExtension>
            <ns3:hr>83</ns3:hr>
            <ns3:cad>45</ns3:cad>
          </ns3:TrackPointExtension>
        </extensions>
      </trkpt>
      <trkpt lat="43.7631688825786113739013671875" lon="1.5804690308868885040283203125">
        <ele>163</ele>
        <time>2026-08-13T05:59:53.000Z</time>
        <extensions>
          <ns3:TrackPointExtension>
            <ns3:hr>83</ns3:hr>
            <ns3:cad>79</ns3:cad>
          </ns3:TrackPointExtension>
        </extensions>
      </trkpt>
      <trkpt lat="43.76317366026341915130615234375" lon="1.58045754767954349517822265625">
        <ele>163.1999969482421875</ele>
        <time>2026-08-13T05:59:54.000Z</time>
        <extensions>
          <ns3:TrackPointExtension>
            <ns3:hr>83</ns3:hr>
            <ns3:cad>79</ns3:cad>
          </ns3:TrackPointExtension>
        </extensions>
      </trkpt>
      <trkpt lat="43.7631730735301971435546875" lon="1.5804492495954036712646484375">
        <ele>163.1999969482421875</ele>
        <time>2026-08-13T05:59:55.000Z</time>
        <extensions>
          <ns3:TrackPointExtension>
            <ns3:hr>83</ns3:hr>
            <ns3:cad>79</ns3:cad>
          </ns3:TrackPointExtension>
        </extensions>
      </trkpt>
      <trkpt lat="43.7631829641759395599365234375" lon="1.5804536081850528717041015625">
        <ele>163.1999969482421875</ele>
        <time>2026-08-13T05:59:56.000Z</time>
        <extensions>
          <ns3:TrackPointExtension>
            <ns3:hr>83</ns3:hr>
            <ns3:cad>79</ns3:cad>
          </ns3:TrackPointExtension>
        </extensions>
      </trkpt>
      <trkpt lat="43.76317785121500492095947265625" lon="1.5804462321102619171142578125">
        <ele>163.1999969482421875</ele>
        <time>2026-08-13T05:59:57.000Z</time>
        <extensions>
          <ns3:TrackPointExtension>
            <ns3:hr>84</ns3:hr>
            <ns3:cad>79</ns3:cad>
          </ns3:TrackPointExtension>
        </extensions>
      </trkpt>
      <trkpt lat="43.76318044960498809814453125" lon="1.58045251853764057159423828125">
        <ele>163</ele>
        <time>2026-08-13T05:59:58.000Z</time>
        <extensions>
          <ns3:TrackPointExtension>
            <ns3:hr>84</ns3:hr>
            <ns3:cad>0</ns3:cad>
          </ns3:TrackPointExtension>
        </extensions>
      </trkpt>
      <trkpt lat="43.7631809525191783905029296875" lon="1.58045235089957714080810546875">
        <ele>163</ele>
        <time>2026-08-13T05:59:59.000Z</time>
        <extensions>
          <ns3:TrackPointExtension>
            <ns3:hr>84</ns3:hr>
            <ns3:cad>0</ns3:cad>
          </ns3:TrackPointExtension>
        </extensions>
      </trkpt>
      <trkpt lat="43.76318086870014667510986328125" lon="1.58045268617570400238037109375">
        <ele>163</ele>
        <time>2026-08-13T06:00:00.000Z</time>
        <extensions>
          <ns3:TrackPointExtension>
            <ns3:hr>84</ns3:hr>
            <ns3:cad>0</ns3:cad>
          </ns3:TrackPointExtension>
        </extensions>
      </trkpt>
      <trkpt lat="43.76317433081567287445068359375" lon="1.58044916577637195587158203125">
        <ele>163</ele>
        <time>2026-08-13T06:00:01.000Z</time>
        <extensions>
          <ns3:TrackPointExtension>
            <ns3:hr>84</ns3:hr>
            <ns3:cad>50</ns3:cad>
          </ns3:TrackPointExtension>
        </extensions>
      </trkpt>
      <trkpt lat="43.76317013986408710479736328125" lon="1.58044715411961078643798828125">
        <ele>163</ele>
        <time>2026-08-13T06:00:02.000Z</time>
        <extensions>
          <ns3:TrackPointExtension>
            <ns3:hr>84</ns3:hr>
            <ns3:cad>50</ns3:cad>
          </ns3:TrackPointExtension>
        </extensions>
      </trkpt>
      <trkpt lat="43.763172738254070281982421875" lon="1.5804365091025829315185546875">
        <ele>163</ele>
        <time>2026-08-13T06:00:03.000Z</time>
        <extensions>
          <ns3:TrackPointExtension>
            <ns3:hr>84</ns3:hr>
            <ns3:cad>50</ns3:cad>
          </ns3:TrackPointExtension>
        </extensions>
      </trkpt>
      <trkpt lat="43.7631742469966411590576171875" lon="1.58042804338037967681884765625">
        <ele>163</ele>
        <time>2026-08-13T06:00:04.000Z</time>
        <extensions>
          <ns3:TrackPointExtension>
            <ns3:hr>84</ns3:hr>
            <ns3:cad>0</ns3:cad>
          </ns3:TrackPointExtension>
        </extensions>
      </trkpt>
      <trkpt lat="43.7631762586534023284912109375" lon="1.580416895449161529541015625">
        <ele>163</ele>
        <time>2026-08-13T06:00:05.000Z</time>
        <extensions>
          <ns3:TrackPointExtension>
            <ns3:hr>84</ns3:hr>
            <ns3:cad>0</ns3:cad>
          </ns3:TrackPointExtension>
        </extensions>
      </trkpt>
      <trkpt lat="43.76317818649113178253173828125" lon="1.5804111957550048828125">
        <ele>162.8000030517578125</ele>
        <time>2026-08-13T06:00:06.000Z</time>
        <extensions>
          <ns3:TrackPointExtension>
            <ns3:hr>84</ns3:hr>
            <ns3:cad>0</ns3:cad>
          </ns3:TrackPointExtension>
        </extensions>
      </trkpt>
      <trkpt lat="43.763179779052734375" lon="1.58041044138371944427490234375">
        <ele>162.8000030517578125</ele>
        <time>2026-08-13T06:00:07.000Z</time>
        <extensions>
          <ns3:TrackPointExtension>
            <ns3:hr>84</ns3:hr>
            <ns3:cad>0</ns3:cad>
          </ns3:TrackPointExtension>
        </extensions>
      </trkpt>
      <trkpt lat="43.7631816230714321136474609375" lon="1.58040893264114856719970703125">
        <ele>162.8000030517578125</ele>
        <time>2026-08-13T06:00:08.000Z</time>
        <extensions>
          <ns3:TrackPointExtension>
            <ns3:hr>84</ns3:hr>
            <ns3:cad>0</ns3:cad>
          </ns3:TrackPointExtension>
        </extensions>
      </trkpt>
      <trkpt lat="43.76318271271884441375732421875" lon="1.5804090164601802825927734375">
        <ele>162.8000030517578125</ele>
        <time>2026-08-13T06:00:09.000Z</time>
        <extensions>
          <ns3:TrackPointExtension>
            <ns3:hr>84</ns3:hr>
            <ns3:cad>0</ns3:cad>
          </ns3:TrackPointExtension>
        </extensions>
      </trkpt>
      <trkpt lat="43.76318187452852725982666015625" lon="1.5804086811840534210205078125">
        <ele>162.8000030517578125</ele>
        <time>2026-08-13T06:00:10.000Z</time>
        <extensions>
          <ns3:TrackPointExtension>
            <ns3:hr>85</ns3:hr>
            <ns3:cad>0</ns3:cad>
          </ns3:TrackPointExtension>
        </extensions>
      </trkpt>
      <trkpt lat="43.7631836347281932830810546875" lon="1.5804086811840534210205078125">
        <ele>162.8000030517578125</ele>
        <time>2026-08-13T06:00:11.000Z</time>
        <extensions>
          <ns3:TrackPointExtension>
            <ns3:hr>85</ns3:hr>
            <ns3:cad>0</ns3:cad>
          </ns3:TrackPointExtension>
        </extensions>
      </trkpt>
      <trkpt lat="43.76318153925240039825439453125" lon="1.5804073400795459747314453125">
        <ele>162.8000030517578125</ele>
        <time>2026-08-13T06:00:12.000Z</time>
        <extensions>
          <ns3:TrackPointExtension>
            <ns3:hr>85</ns3:hr>
            <ns3:cad>0</ns3:cad>
          </ns3:TrackPointExtension>
        </extensions>
      </trkpt>
      <trkpt lat="43.7631769292056560516357421875" lon="1.5804004669189453125">
        <ele>163</ele>
        <time>2026-08-13T06:00:13.000Z</time>
        <extensions>
          <ns3:TrackPointExtension>
            <ns3:hr>86</ns3:hr>
            <ns3:cad>0</ns3:cad>
          </ns3:TrackPointExtension>
        </extensions>
      </trkpt>
      <trkpt lat="43.76317801885306835174560546875" lon="1.58039837144315242767333984375">
        <ele>163</ele>
        <time>2026-08-13T06:00:14.000Z</time>
        <extensions>
          <ns3:TrackPointExtension>
            <ns3:hr>86</ns3:hr>
            <ns3:cad>0</ns3:cad>
          </ns3:TrackPointExtension>
        </extensions>
      </trkpt>
      <trkpt lat="43.7631779350340366363525390625" lon="1.58039845526218414306640625">
        <ele>163.1999969482421875</ele>
        <time>2026-08-13T06:00:15.000Z</time>
        <extensions>
          <ns3:TrackPointExtension>
            <ns3:hr>86</ns3:hr>
            <ns3:cad>0</ns3:cad>
          </ns3:TrackPointExtension>
        </extensions>
      </trkpt>
      <trkpt lat="43.7631779350340366363525390625" lon="1.58039845526218414306640625">
        <ele>163.1999969482421875</ele>
        <time>2026-08-13T06:00:16.000Z</time>
        <extensions>
          <ns3:TrackPointExtension>
            <ns3:hr>86</ns3:hr>
            <ns3:cad>0</ns3:cad>
          </ns3:TrackPointExtension>
        </extensions>
      </trkpt>
      <trkpt lat="43.7631779350340366363525390625" lon="1.58039845526218414306640625">
        <ele>163.1999969482421875</ele>
        <time>2026-08-13T06:00:17.000Z</time>
        <extensions>
          <ns3:TrackPointExtension>
            <ns3:hr>82</ns3:hr>
            <ns3:cad>0</ns3:cad>
          </ns3:TrackPointExtension>
        </extensions>
      </trkpt>
      <trkpt lat="43.7631779350340366363525390625" lon="1.58039845526218414306640625">
        <ele>163.1999969482421875</ele>
        <time>2026-08-13T06:00:18.000Z</time>
        <extensions>
          <ns3:TrackPointExtension>
            <ns3:hr>78</ns3:hr>
            <ns3:cad>0</ns3:cad>
          </ns3:TrackPointExtension>
        </extensions>
      </trkpt>
      <trkpt lat="43.76317852176725864410400390625" lon="1.580398790538311004638671875">
        <ele>163</ele>
        <time>2026-08-13T06:00:19.000Z</time>
        <extensions>
          <ns3:TrackPointExtension>
            <ns3:hr>77</ns3:hr>
            <ns3:cad>0</ns3:cad>
          </ns3:TrackPointExtension>
        </extensions>
      </trkpt>
      <trkpt lat="43.76318053342401981353759765625" lon="1.58038294874131679534912109375">
        <ele>163</ele>
        <time>2026-08-13T06:00:20.000Z</time>
        <extensions>
          <ns3:TrackPointExtension>
            <ns3:hr>76</ns3:hr>
            <ns3:cad>0</ns3:cad>
          </ns3:TrackPointExtension>
        </extensions>
      </trkpt>
      <trkpt lat="43.76318522728979587554931640625" lon="1.58037163317203521728515625">
        <ele>163</ele>
        <time>2026-08-13T06:00:21.000Z</time>
        <extensions>
          <ns3:TrackPointExtension>
            <ns3:hr>76</ns3:hr>
            <ns3:cad>0</ns3:cad>
          </ns3:TrackPointExtension>
        </extensions>
      </trkpt>
      <trkpt lat="43.76318589784204959869384765625" lon="1.5803654305636882781982421875">
        <ele>163</ele>
        <time>2026-08-13T06:00:22.000Z</time>
        <extensions>
          <ns3:TrackPointExtension>
            <ns3:hr>76</ns3:hr>
            <ns3:cad>0</ns3:cad>
          </ns3:TrackPointExtension>
        </extensions>
      </trkpt>
      <trkpt lat="43.7631829641759395599365234375" lon="1.5803562104701995849609375">
        <ele>163</ele>
        <time>2026-08-13T06:00:23.000Z</time>
        <extensions>
          <ns3:TrackPointExtension>
            <ns3:hr>76</ns3:hr>
            <ns3:cad>0</ns3:cad>
          </ns3:TrackPointExtension>
        </extensions>
      </trkpt>
      <trkpt lat="43.76318103633821010589599609375" lon="1.58034103922545909881591796875">
        <ele>163</ele>
        <time>2026-08-13T06:00:24.000Z</time>
        <extensions>
          <ns3:TrackPointExtension>
            <ns3:hr>76</ns3:hr>
            <ns3:cad>0</ns3:cad>
          </ns3:TrackPointExtension>
        </extensions>
      </trkpt>
      <trkpt lat="43.7631812877953052520751953125" lon="1.58033047802746295928955078125">
        <ele>163.1999969482421875</ele>
        <time>2026-08-13T06:00:25.000Z</time>
        <extensions>
          <ns3:TrackPointExtension>
            <ns3:hr>77</ns3:hr>
            <ns3:cad>0</ns3:cad>
          </ns3:TrackPointExtension>
        </extensions>
      </trkpt>
      <trkpt lat="43.763180114328861236572265625" lon="1.58032377250492572784423828125">
        <ele>163.1999969482421875</ele>
        <time>2026-08-13T06:00:26.000Z</time>
        <extensions>
          <ns3:TrackPointExtension>
            <ns3:hr>76</ns3:hr>
            <ns3:cad>0</ns3:cad>
          </ns3:TrackPointExtension>
        </extensions>
      </trkpt>
      <trkpt lat="43.7631826288998126983642578125" lon="1.58031036145985126495361328125">
        <ele>163.1999969482421875</ele>
        <time>2026-08-13T06:00:27.000Z</time>
        <extensions>
          <ns3:TrackPointExtension>
            <ns3:hr>76</ns3:hr>
            <ns3:cad>0</ns3:cad>
          </ns3:TrackPointExtension>
        </extensions>
      </trkpt>
      <trkpt lat="43.7631846405565738677978515625" lon="1.58029854297637939453125">
        <ele>163.399993896484375</ele>
        <time>2026-08-13T06:00:28.000Z</time>
        <extensions>
          <ns3:TrackPointExtension>
            <ns3:hr>77</ns3:hr>
            <ns3:cad>43</ns3:cad>
          </ns3:TrackPointExtension>
        </extensions>
      </trkpt>
      <trkpt lat="43.763187825679779052734375" lon="1.580285131931304931640625">
        <ele>163.399993896484375</ele>
        <time>2026-08-13T06:00:29.000Z</time>
        <extensions>
          <ns3:TrackPointExtension>
            <ns3:hr>76</ns3:hr>
            <ns3:cad>43</ns3:cad>
          </ns3:TrackPointExtension>
        </extensions>
      </trkpt>
      <trkpt lat="43.7631905078887939453125" lon="1.58027348108589649200439453125">
        <ele>163.399993896484375</ele>
        <time>2026-08-13T06:00:30.000Z</time>
        <extensions>
          <ns3:TrackPointExtension>
            <ns3:hr>76</ns3:hr>
            <ns3:cad>43</ns3:cad>
          </ns3:TrackPointExtension>
        </extensions>
      </trkpt>
      <trkpt lat="43.76319176517426967620849609375" lon="1.58026208169758319854736328125">
        <ele>163.399993896484375</ele>
        <time>2026-08-13T06:00:31.000Z</time>
        <extensions>
          <ns3:TrackPointExtension>
            <ns3:hr>77</ns3:hr>
            <ns3:cad>41</ns3:cad>
          </ns3:TrackPointExtension>
        </extensions>
      </trkpt>
      <trkpt lat="43.763188831508159637451171875" lon="1.58024431206285953521728515625">
        <ele>163.399993896484375</ele>
        <time>2026-08-13T06:00:32.000Z</time>
        <extensions>
          <ns3:TrackPointExtension>
            <ns3:hr>76</ns3:hr>
            <ns3:cad>41</ns3:cad>
          </ns3:TrackPointExtension>
        </extensions>
      </trkpt>
      <trkpt lat="43.76318757422268390655517578125" lon="1.58023358322679996490478515625">
        <ele>163.399993896484375</ele>
        <time>2026-08-13T06:00:33.000Z</time>
        <extensions>
          <ns3:TrackPointExtension>
            <ns3:hr>76</ns3:hr>
            <ns3:cad>41</ns3:cad>
          </ns3:TrackPointExtension>
        </extensions>
      </trkpt>
      <trkpt lat="43.76318640075623989105224609375" lon="1.580224446952342987060546875">
        <ele>163.600006103515625</ele>
        <time>2026-08-13T06:00:34.000Z</time>
        <extensions>
          <ns3:TrackPointExtension>
            <ns3:hr>77</ns3:hr>
            <ns3:cad>47</ns3:cad>
          </ns3:TrackPointExtension>
        </extensions>
      </trkpt>
      <trkpt lat="43.76318824477493762969970703125" lon="1.58022084273397922515869140625">
        <ele>163.600006103515625</ele>
        <time>2026-08-13T06:00:35.000Z</time>
        <extensions>
          <ns3:TrackPointExtension>
            <ns3:hr>77</ns3:hr>
            <ns3:cad>47</ns3:cad>
          </ns3:TrackPointExtension>
        </extensions>
      </trkpt>
      <trkpt lat="43.7631943635642528533935546875" lon="1.58020139671862125396728515625">
        <ele>163.600006103515625</ele>
        <time>2026-08-13T06:00:36.000Z</time>
        <extensions>
          <ns3:TrackPointExtension>
            <ns3:hr>77</ns3:hr>
            <ns3:cad>47</ns3:cad>
          </ns3:TrackPointExtension>
        </extensions>
      </trkpt>
      <trkpt lat="43.763201236724853515625" lon="1.58018580637872219085693359375">
        <ele>163.8000030517578125</ele>
        <time>2026-08-13T06:00:37.000Z</time>
        <extensions>
          <ns3:TrackPointExtension>
            <ns3:hr>77</ns3:hr>
            <ns3:cad>47</ns3:cad>
          </ns3:TrackPointExtension>
        </extensions>
      </trkpt>
      <trkpt lat="43.7632079422473907470703125" lon="1.58016971312463283538818359375">
        <ele>163.600006103515625</ele>
        <time>2026-08-13T06:00:38.000Z</time>
        <extensions>
          <ns3:TrackPointExtension>
            <ns3:hr>77</ns3:hr>
            <ns3:cad>45</ns3:cad>
          </ns3:TrackPointExtension>
        </extensions>
      </trkpt>
      <trkpt lat="43.76321255229413509368896484375" lon="1.5801605768501758575439453125">
        <ele>163.600006103515625</ele>
        <time>2026-08-13T06:00:39.000Z</time>
        <extensions>
          <ns3:TrackPointExtension>
            <ns3:hr>77</ns3:hr>
            <ns3:cad>45</ns3:cad>
          </ns3:TrackPointExtension>
        </extensions>
      </trkpt>
      <trkpt lat="43.7632186710834503173828125" lon="1.58014909364283084869384765625">
        <ele>163.8000030517578125</ele>
        <time>2026-08-13T06:00:40.000Z</time>
        <extensions>
          <ns3:TrackPointExtension>
            <ns3:hr>78</ns3:hr>
            <ns3:cad>45</ns3:cad>
          </ns3:TrackPointExtension>
        </extensions>
      </trkpt>
      <trkpt lat="43.76322160474956035614013671875" lon="1.58013618551194667816162109375">
        <ele>163.8000030517578125</ele>
        <time>2026-08-13T06:00:41.000Z</time>
        <extensions>
          <ns3:TrackPointExtension>
            <ns3:hr>78</ns3:hr>
            <ns3:cad>45</ns3:cad>
          </ns3:TrackPointExtension>
        </extensions>
      </trkpt>
      <trkpt lat="43.76322613097727298736572265625" lon="1.58012210391461849212646484375">
        <ele>163.8000030517578125</ele>
        <time>2026-08-13T06:00:42.000Z</time>
        <extensions>
          <ns3:TrackPointExtension>
            <ns3:hr>78</ns3:hr>
            <ns3:cad>45</ns3:cad>
          </ns3:TrackPointExtension>
        </extensions>
      </trkpt>
      <trkpt lat="43.7632356025278568267822265625" lon="1.580108106136322021484375">
        <ele>163.8000030517578125</ele>
        <time>2026-08-13T06:00:43.000Z</time>
        <extensions>
          <ns3:TrackPointExtension>
            <ns3:hr>79</ns3:hr>
            <ns3:cad>44</ns3:cad>
          </ns3:TrackPointExtension>
        </extensions>
      </trkpt>
      <trkpt lat="43.7632459960877895355224609375" lon="1.58009410835802555084228515625">
        <ele>163.8000030517578125</ele>
        <time>2026-08-13T06:00:44.000Z</time>
        <extensions>
          <ns3:TrackPointExtension>
            <ns3:hr>79</ns3:hr>
            <ns3:cad>44</ns3:cad>
          </ns3:TrackPointExtension>
        </extensions>
      </trkpt>
      <trkpt lat="43.76325379125773906707763671875" lon="1.58007818274199962615966796875">
        <ele>164</ele>
        <time>2026-08-13T06:00:45.000Z</time>
        <extensions>
          <ns3:TrackPointExtension>
            <ns3:hr>79</ns3:hr>
            <ns3:cad>44</ns3:cad>
          </ns3:TrackPointExtension>
        </extensions>
      </trkpt>
      <trkpt lat="43.76325747929513454437255859375" lon="1.58006410114467144012451171875">
        <ele>164</ele>
        <time>2026-08-13T06:00:46.000Z</time>
        <extensions>
          <ns3:TrackPointExtension>
            <ns3:hr>79</ns3:hr>
            <ns3:cad>46</ns3:cad>
          </ns3:TrackPointExtension>
        </extensions>
      </trkpt>
      <trkpt lat="43.76326083205640316009521484375" lon="1.5800522826611995697021484375">
        <ele>164</ele>
        <time>2026-08-13T06:00:47.000Z</time>
        <extensions>
          <ns3:TrackPointExtension>
            <ns3:hr>78</ns3:hr>
            <ns3:cad>46</ns3:cad>
          </ns3:TrackPointExtension>
        </extensions>
      </trkpt>
      <trkpt lat="43.76326535828411579132080078125" lon="1.58003945834934711456298828125">
        <ele>164</ele>
        <time>2026-08-13T06:00:48.000Z</time>
        <extensions>
          <ns3:TrackPointExtension>
            <ns3:hr>79</ns3:hr>
            <ns3:cad>45</ns3:cad>
          </ns3:TrackPointExtension>
        </extensions>
      </trkpt>
      <trkpt lat="43.7632667832076549530029296875" lon="1.580027639865875244140625">
        <ele>164</ele>
        <time>2026-08-13T06:00:49.000Z</time>
        <extensions>
          <ns3:TrackPointExtension>
            <ns3:hr>79</ns3:hr>
            <ns3:cad>45</ns3:cad>
          </ns3:TrackPointExtension>
        </extensions>
      </trkpt>
      <trkpt lat="43.7632687948644161224365234375" lon="1.580021940171718597412109375">
        <ele>164</ele>
        <time>2026-08-13T06:00:50.000Z</time>
        <extensions>
          <ns3:TrackPointExtension>
            <ns3:hr>80</ns3:hr>
            <ns3:cad>45</ns3:cad>
          </ns3:TrackPointExtension>
        </extensions>
      </trkpt>
      <trkpt lat="43.76326854340732097625732421875" lon="1.58001355826854705810546875">
        <ele>164</ele>
        <time>2026-08-13T06:00:51.000Z</time>
        <extensions>
          <ns3:TrackPointExtension>
            <ns3:hr>80</ns3:hr>
            <ns3:cad>45</ns3:cad>
          </ns3:TrackPointExtension>
        </extensions>
      </trkpt>
      <trkpt lat="43.76327055506408214569091796875" lon="1.58000509254634380340576171875">
        <ele>164</ele>
        <time>2026-08-13T06:00:52.000Z</time>
        <extensions>
          <ns3:TrackPointExtension>
            <ns3:hr>80</ns3:hr>
            <ns3:cad>0</ns3:cad>
          </ns3:TrackPointExtension>
        </extensions>
      </trkpt>
      <trkpt lat="43.763273656368255615234375" lon="1.57999880611896514892578125">
        <ele>164</ele>
        <time>2026-08-13T06:00:53.000Z</time>
        <extensions>
          <ns3:TrackPointExtension>
            <ns3:hr>81</ns3:hr>
            <ns3:cad>0</ns3:cad>
          </ns3:TrackPointExtension>
        </extensions>
      </trkpt>
      <trkpt lat="43.76327726058661937713623046875" lon="1.5799915976822376251220703125">
        <ele>164.1999969482421875</ele>
        <time>2026-08-13T06:00:54.000Z</time>
        <extensions>
          <ns3:TrackPointExtension>
            <ns3:hr>81</ns3:hr>
            <ns3:cad>41</ns3:cad>
          </ns3:TrackPointExtension>
        </extensions>
      </trkpt>
      <trkpt lat="43.763281367719173431396484375" lon="1.57998363487422466278076171875">
        <ele>164.1999969482421875</ele>
        <time>2026-08-13T06:00:55.000Z</time>
        <extensions>
          <ns3:TrackPointExtension>
            <ns3:hr>82</ns3:hr>
            <ns3:cad>41</ns3:cad>
          </ns3:TrackPointExtension>
        </extensions>
      </trkpt>
      <trkpt lat="43.763286061584949493408203125" lon="1.5799753367900848388671875">
        <ele>164.399993896484375</ele>
        <time>2026-08-13T06:00:56.000Z</time>
        <extensions>
          <ns3:TrackPointExtension>
            <ns3:hr>83</ns3:hr>
            <ns3:cad>41</ns3:cad>
          </ns3:TrackPointExtension>
        </extensions>
      </trkpt>
      <trkpt lat="43.763290084898471832275390625" lon="1.57997039146721363067626953125">
        <ele>164.399993896484375</ele>
        <time>2026-08-13T06:00:57.000Z</time>
        <extensions>
          <ns3:TrackPointExtension>
            <ns3:hr>84</ns3:hr>
            <ns3:cad>41</ns3:cad>
          </ns3:TrackPointExtension>
        </extensions>
      </trkpt>
      <trkpt lat="43.76329444348812103271484375" lon="1.5799516998231410980224609375">
        <ele>164.399993896484375</ele>
        <time>2026-08-13T06:00:58.000Z</time>
        <extensions>
          <ns3:TrackPointExtension>
            <ns3:hr>85</ns3:hr>
            <ns3:cad>41</ns3:cad>
          </ns3:TrackPointExtension>
        </extensions>
      </trkpt>
      <trkpt lat="43.76329444348812103271484375" lon="1.5799423120915889739990234375">
        <ele>164.399993896484375</ele>
        <time>2026-08-13T06:00:59.000Z</time>
        <extensions>
          <ns3:TrackPointExtension>
            <ns3:hr>86</ns3:hr>
            <ns3:cad>44</ns3:cad>
          </ns3:TrackPointExtension>
        </extensions>
      </trkpt>
      <trkpt lat="43.76329578459262847900390625" lon="1.5799389593303203582763671875">
        <ele>164.399993896484375</ele>
        <time>2026-08-13T06:01:00.000Z</time>
        <extensions>
          <ns3:TrackPointExtension>
            <ns3:hr>87</ns3:hr>
            <ns3:cad>44</ns3:cad>
          </ns3:TrackPointExtension>
        </extensions>
      </trkpt>
      <trkpt lat="43.76329620368778705596923828125" lon="1.5799235366284847259521484375">
        <ele>164.399993896484375</ele>
        <time>2026-08-13T06:01:01.000Z</time>
        <extensions>
          <ns3:TrackPointExtension>
            <ns3:hr>87</ns3:hr>
            <ns3:cad>41</ns3:cad>
          </ns3:TrackPointExtension>
        </extensions>
      </trkpt>
      <trkpt lat="43.763297460973262786865234375" lon="1.57990987412631511688232421875">
        <ele>164.399993896484375</ele>
        <time>2026-08-13T06:01:02.000Z</time>
        <extensions>
          <ns3:TrackPointExtension>
            <ns3:hr>88</ns3:hr>
            <ns3:cad>41</ns3:cad>
          </ns3:TrackPointExtension>
        </extensions>
      </trkpt>
      <trkpt lat="43.763298131525516510009765625" lon="1.57990090548992156982421875">
        <ele>164.399993896484375</ele>
        <time>2026-08-13T06:01:03.000Z</time>
        <extensions>
          <ns3:TrackPointExtension>
            <ns3:hr>88</ns3:hr>
            <ns3:cad>41</ns3:cad>
          </ns3:TrackPointExtension>
        </extensions>
      </trkpt>
      <trkpt lat="43.76330156810581684112548828125" lon="1.57989026047289371490478515625">
        <ele>164.399993896484375</ele>
        <time>2026-08-13T06:01:04.000Z</time>
        <extensions>
          <ns3:TrackPointExtension>
            <ns3:hr>88</ns3:hr>
            <ns3:cad>48</ns3:cad>
          </ns3:TrackPointExtension>
        </extensions>
      </trkpt>
      <trkpt lat="43.7633053399622440338134765625" lon="1.5798789449036121368408203125">
        <ele>164.399993896484375</ele>
        <time>2026-08-13T06:01:05.000Z</time>
        <extensions>
          <ns3:TrackPointExtension>
            <ns3:hr>88</ns3:hr>
            <ns3:cad>48</ns3:cad>
          </ns3:TrackPointExtension>
        </extensions>
      </trkpt>
      <trkpt lat="43.76330785453319549560546875" lon="1.57986603677272796630859375">
        <ele>164.399993896484375</ele>
        <time>2026-08-13T06:01:06.000Z</time>
        <extensions>
          <ns3:TrackPointExtension>
            <ns3:hr>88</ns3:hr>
            <ns3:cad>48</ns3:cad>
          </ns3:TrackPointExtension>
        </extensions>
      </trkpt>
      <trkpt lat="43.76330877654254436492919921875" lon="1.57985807396471500396728515625">
        <ele>164.399993896484375</ele>
        <time>2026-08-13T06:01:07.000Z</time>
        <extensions>
          <ns3:TrackPointExtension>
            <ns3:hr>89</ns3:hr>
            <ns3:cad>41</ns3:cad>
          </ns3:TrackPointExtension>
        </extensions>
      </trkpt>
      <trkpt lat="43.7633123807609081268310546875" lon="1.579839885234832763671875">
        <ele>164.399993896484375</ele>
        <time>2026-08-13T06:01:08.000Z</time>
        <extensions>
          <ns3:TrackPointExtension>
            <ns3:hr>88</ns3:hr>
            <ns3:cad>41</ns3:cad>
          </ns3:TrackPointExtension>
        </extensions>
      </trkpt>
      <trkpt lat="43.76330978237092494964599609375" lon="1.57982974313199520111083984375">
        <ele>164.399993896484375</ele>
        <time>2026-08-13T06:01:09.000Z</time>
        <extensions>
          <ns3:TrackPointExtension>
            <ns3:hr>89</ns3:hr>
            <ns3:cad>0</ns3:cad>
          </ns3:TrackPointExtension>
        </extensions>
      </trkpt>
      <trkpt lat="43.76331548206508159637451171875" lon="1.57982018776237964630126953125">
        <ele>164.399993896484375</ele>
        <time>2026-08-13T06:01:10.000Z</time>
        <extensions>
          <ns3:TrackPointExtension>
            <ns3:hr>89</ns3:hr>
            <ns3:cad>0</ns3:cad>
          </ns3:TrackPointExtension>
        </extensions>
      </trkpt>
      <trkpt lat="43.763320930302143096923828125" lon="1.57981130294501781463623046875">
        <ele>164.399993896484375</ele>
        <time>2026-08-13T06:01:11.000Z</time>
        <extensions>
          <ns3:TrackPointExtension>
            <ns3:hr>89</ns3:hr>
            <ns3:cad>41</ns3:cad>
          </ns3:TrackPointExtension>
        </extensions>
      </trkpt>
      <trkpt lat="43.76332269050180912017822265625" lon="1.5798011608421802520751953125">
        <ele>164.399993896484375</ele>
        <time>2026-08-13T06:01:12.000Z</time>
        <extensions>
          <ns3:TrackPointExtension>
            <ns3:hr>90</ns3:hr>
            <ns3:cad>41</ns3:cad>
          </ns3:TrackPointExtension>
        </extensions>
      </trkpt>
      <trkpt lat="43.76332470215857028961181640625" lon="1.57979495823383331298828125">
        <ele>164.399993896484375</ele>
        <time>2026-08-13T06:01:13.000Z</time>
        <extensions>
          <ns3:TrackPointExtension>
            <ns3:hr>91</ns3:hr>
            <ns3:cad>41</ns3:cad>
          </ns3:TrackPointExtension>
        </extensions>
      </trkpt>
      <trkpt lat="43.7633284740149974822998046875" lon="1.57978431321680545806884765625">
        <ele>164.399993896484375</ele>
        <time>2026-08-13T06:01:14.000Z</time>
        <extensions>
          <ns3:TrackPointExtension>
            <ns3:hr>91</ns3:hr>
            <ns3:cad>41</ns3:cad>
          </ns3:TrackPointExtension>
        </extensions>
      </trkpt>
      <trkpt lat="43.7633313238620758056640625" lon="1.57977190800011157989501953125">
        <ele>164.399993896484375</ele>
        <time>2026-08-13T06:01:15.000Z</time>
        <extensions>
          <ns3:TrackPointExtension>
            <ns3:hr>91</ns3:hr>
            <ns3:cad>0</ns3:cad>
          </ns3:TrackPointExtension>
        </extensions>
      </trkpt>
      <trkpt lat="43.76333576627075672149658203125" lon="1.579761765897274017333984375">
        <ele>164.600006103515625</ele>
        <time>2026-08-13T06:01:16.000Z</time>
        <extensions>
          <ns3:TrackPointExtension>
            <ns3:hr>91</ns3:hr>
            <ns3:cad>0</ns3:cad>
          </ns3:TrackPointExtension>
        </extensions>
      </trkpt>
      <trkpt lat="43.7633418850600719451904296875" lon="1.579750366508960723876953125">
        <ele>164.600006103515625</ele>
        <time>2026-08-13T06:01:17.000Z</time>
        <extensions>
          <ns3:TrackPointExtension>
            <ns3:hr>92</ns3:hr>
            <ns3:cad>0</ns3:cad>
          </ns3:TrackPointExtension>
        </extensions>
      </trkpt>
      <trkpt lat="43.76334783621132373809814453125" lon="1.5797361172735691070556640625">
        <ele>164.600006103515625</ele>
        <time>2026-08-13T06:01:18.000Z</time>
        <extensions>
          <ns3:TrackPointExtension>
            <ns3:hr>92</ns3:hr>
            <ns3:cad>0</ns3:cad>
          </ns3:TrackPointExtension>
        </extensions>
      </trkpt>
      <trkpt lat="43.7633526138961315155029296875" lon="1.579727232456207275390625">
        <ele>164.600006103515625</ele>
        <time>2026-08-13T06:01:19.000Z</time>
        <extensions>
          <ns3:TrackPointExtension>
            <ns3:hr>92</ns3:hr>
            <ns3:cad>0</ns3:cad>
          </ns3:TrackPointExtension>
        </extensions>
      </trkpt>
      <trkpt lat="43.76335906796157360076904296875" lon="1.5797136537730693817138671875">
        <ele>164.600006103515625</ele>
        <time>2026-08-13T06:01:20.000Z</time>
        <extensions>
          <ns3:TrackPointExtension>
            <ns3:hr>92</ns3:hr>
            <ns3:cad>0</ns3:cad>
          </ns3:TrackPointExtension>
        </extensions>
      </trkpt>
      <trkpt lat="43.76336476765573024749755859375" lon="1.57970108091831207275390625">
        <ele>164.600006103515625</ele>
        <time>2026-08-13T06:01:21.000Z</time>
        <extensions>
          <ns3:TrackPointExtension>
            <ns3:hr>91</ns3:hr>
            <ns3:cad>0</ns3:cad>
          </ns3:TrackPointExtension>
        </extensions>
      </trkpt>
      <trkpt lat="43.76336962915956974029541015625" lon="1.57969311811029911041259765625">
        <ele>164.600006103515625</ele>
        <time>2026-08-13T06:01:22.000Z</time>
        <extensions>
          <ns3:TrackPointExtension>
            <ns3:hr>92</ns3:hr>
            <ns3:cad>0</ns3:cad>
          </ns3:TrackPointExtension>
        </extensions>
      </trkpt>
      <trkpt lat="43.76337331719696521759033203125" lon="1.57969169318675994873046875">
        <ele>164.600006103515625</ele>
        <time>2026-08-13T06:01:23.000Z</time>
        <extensions>
          <ns3:TrackPointExtension>
            <ns3:hr>92</ns3:hr>
            <ns3:cad>0</ns3:cad>
          </ns3:TrackPointExtension>
        </extensions>
      </trkpt>
      <trkpt lat="43.7633848004043102264404296875" lon="1.5796764381229877471923828125">
        <ele>164.8000030517578125</ele>
        <time>2026-08-13T06:01:24.000Z</time>
        <extensions>
          <ns3:TrackPointExtension>
            <ns3:hr>91</ns3:hr>
            <ns3:cad>0</ns3:cad>
          </ns3:TrackPointExtension>
        </extensions>
      </trkpt>
      <trkpt lat="43.7633876502513885498046875" lon="1.57966897822916507720947265625">
        <ele>164.8000030517578125</ele>
        <time>2026-08-13T06:01:25.000Z</time>
        <extensions>
          <ns3:TrackPointExtension>
            <ns3:hr>91</ns3:hr>
            <ns3:cad>0</ns3:cad>
          </ns3:TrackPointExtension>
        </extensions>
      </trkpt>
      <trkpt lat="43.763395361602306365966796875" lon="1.57965950667858123779296875">
        <ele>164.8000030517578125</ele>
        <time>2026-08-13T06:01:26.000Z</time>
        <extensions>
          <ns3:TrackPointExtension>
            <ns3:hr>90</ns3:hr>
            <ns3:cad>41</ns3:cad>
          </ns3:TrackPointExtension>
        </extensions>
      </trkpt>
      <trkpt lat="43.76340215094387531280517578125" lon="1.57965070568025112152099609375">
        <ele>164.8000030517578125</ele>
        <time>2026-08-13T06:01:27.000Z</time>
        <extensions>
          <ns3:TrackPointExtension>
            <ns3:hr>90</ns3:hr>
            <ns3:cad>41</ns3:cad>
          </ns3:TrackPointExtension>
        </extensions>
      </trkpt>
      <trkpt lat="43.7634116224944591522216796875" lon="1.57963762991130352020263671875">
        <ele>164.8000030517578125</ele>
        <time>2026-08-13T06:01:28.000Z</time>
        <extensions>
          <ns3:TrackPointExtension>
            <ns3:hr>90</ns3:hr>
            <ns3:cad>41</ns3:cad>
          </ns3:TrackPointExtension>
        </extensions>
      </trkpt>
      <trkpt lat="43.763417489826679229736328125" lon="1.5796291641891002655029296875">
        <ele>164.8000030517578125</ele>
        <time>2026-08-13T06:01:29.000Z</time>
        <extensions>
          <ns3:TrackPointExtension>
            <ns3:hr>91</ns3:hr>
            <ns3:cad>40</ns3:cad>
          </ns3:TrackPointExtension>
        </extensions>
      </trkpt>
      <trkpt lat="43.763420842587947845458984375" lon="1.57962388359010219573974609375">
        <ele>164.8000030517578125</ele>
        <time>2026-08-13T06:01:30.000Z</time>
        <extensions>
          <ns3:TrackPointExtension>
            <ns3:hr>90</ns3:hr>
            <ns3:cad>40</ns3:cad>
          </ns3:TrackPointExtension>
        </extensions>
      </trkpt>
      <trkpt lat="43.7634179927408695220947265625" lon="1.5796006657183170318603515625">
        <ele>164.8000030517578125</ele>
        <time>2026-08-13T06:01:31.000Z</time>
        <extensions>
          <ns3:TrackPointExtension>
            <ns3:hr>90</ns3:hr>
            <ns3:cad>40</ns3:cad>
          </ns3:TrackPointExtension>
        </extensions>
      </trkpt>
      <trkpt lat="43.76341908238828182220458984375" lon="1.57959454692900180816650390625">
        <ele>165</ele>
        <time>2026-08-13T06:01:32.000Z</time>
        <extensions>
          <ns3:TrackPointExtension>
            <ns3:hr>91</ns3:hr>
            <ns3:cad>75</ns3:cad>
          </ns3:TrackPointExtension>
        </extensions>
      </trkpt>
      <trkpt lat="43.7634223513305187225341796875" lon="1.5795828960835933685302734375">
        <ele>165</ele>
        <time>2026-08-13T06:01:33.000Z</time>
        <extensions>
          <ns3:TrackPointExtension>
            <ns3:hr>90</ns3:hr>
            <ns3:cad>75</ns3:cad>
          </ns3:TrackPointExtension>
        </extensions>
      </trkpt>
      <trkpt lat="43.7634225189685821533203125" lon="1.57957258634269237518310546875">
        <ele>165</ele>
        <time>2026-08-13T06:01:34.000Z</time>
        <extensions>
          <ns3:TrackPointExtension>
            <ns3:hr>90</ns3:hr>
            <ns3:cad>75</ns3:cad>
          </ns3:TrackPointExtension>
        </extensions>
      </trkpt>
      <trkpt lat="43.763423524796962738037109375" lon="1.5795631147921085357666015625">
        <ele>165</ele>
        <time>2026-08-13T06:01:35.000Z</time>
        <extensions>
          <ns3:TrackPointExtension>
            <ns3:hr>90</ns3:hr>
            <ns3:cad>72</ns3:cad>
          </ns3:TrackPointExtension>
        </extensions>
      </trkpt>
      <trkpt lat="43.76342243514955043792724609375" lon="1.579553224146366119384765625">
        <ele>165</ele>
        <time>2026-08-13T06:01:36.000Z</time>
        <extensions>
          <ns3:TrackPointExtension>
            <ns3:hr>90</ns3:hr>
            <ns3:cad>72</ns3:cad>
          </ns3:TrackPointExtension>
        </extensions>
      </trkpt>
      <trkpt lat="43.7634223513305187225341796875" lon="1.5795419923961162567138671875">
        <ele>165.1999969482421875</ele>
        <time>2026-08-13T06:01:37.000Z</time>
        <extensions>
          <ns3:TrackPointExtension>
            <ns3:hr>89</ns3:hr>
            <ns3:cad>72</ns3:cad>
          </ns3:TrackPointExtension>
        </extensions>
      </trkpt>
      <trkpt lat="43.76341992057859897613525390625" lon="1.5795275755226612091064453125">
        <ele>165.1999969482421875</ele>
        <time>2026-08-13T06:01:38.000Z</time>
        <extensions>
          <ns3:TrackPointExtension>
            <ns3:hr>90</ns3:hr>
            <ns3:cad>72</ns3:cad>
          </ns3:TrackPointExtension>
        </extensions>
      </trkpt>
      <trkpt lat="43.763418160378932952880859375" lon="1.5795131586492061614990234375">
        <ele>165.1999969482421875</ele>
        <time>2026-08-13T06:01:39.000Z</time>
        <extensions>
          <ns3:TrackPointExtension>
            <ns3:hr>89</ns3:hr>
            <ns3:cad>43</ns3:cad>
          </ns3:TrackPointExtension>
        </extensions>
      </trkpt>
      <trkpt lat="43.76342075876891613006591796875" lon="1.57950687222182750701904296875">
        <ele>165.1999969482421875</ele>
        <time>2026-08-13T06:01:40.000Z</time>
        <extensions>
          <ns3:TrackPointExtension>
            <ns3:hr>89</ns3:hr>
            <ns3:cad>43</ns3:cad>
          </ns3:TrackPointExtension>
        </extensions>
      </trkpt>
      <trkpt lat="43.76342662610113620758056640625" lon="1.5794917009770870208740234375">
        <ele>165.1999969482421875</ele>
        <time>2026-08-13T06:01:41.000Z</time>
        <extensions>
          <ns3:TrackPointExtension>
            <ns3:hr>89</ns3:hr>
            <ns3:cad>43</ns3:cad>
          </ns3:TrackPointExtension>
        </extensions>
      </trkpt>
      <trkpt lat="43.76343215815722942352294921875" lon="1.57947619445621967315673828125">
        <ele>165.1999969482421875</ele>
        <time>2026-08-13T06:01:42.000Z</time>
        <extensions>
          <ns3:TrackPointExtension>
            <ns3:hr>89</ns3:hr>
            <ns3:cad>47</ns3:cad>
          </ns3:TrackPointExtension>
        </extensions>
      </trkpt>
      <trkpt lat="43.76343433745205402374267578125" lon="1.5794657170772552490234375">
        <ele>165</ele>
        <time>2026-08-13T06:01:43.000Z</time>
        <extensions>
          <ns3:TrackPointExtension>
            <ns3:hr>90</ns3:hr>
            <ns3:cad>47</ns3:cad>
          </ns3:TrackPointExtension>
        </extensions>
      </trkpt>
      <trkpt lat="43.76343668438494205474853515625" lon="1.57945490442216396331787109375">
        <ele>165</ele>
        <time>2026-08-13T06:01:44.000Z</time>
        <extensions>
          <ns3:TrackPointExtension>
            <ns3:hr>90</ns3:hr>
            <ns3:cad>44</ns3:cad>
          </ns3:TrackPointExtension>
        </extensions>
      </trkpt>
      <trkpt lat="43.7634444795548915863037109375" lon="1.57944048754870891571044921875">
        <ele>165</ele>
        <time>2026-08-13T06:01:45.000Z</time>
        <extensions>
          <ns3:TrackPointExtension>
            <ns3:hr>91</ns3:hr>
            <ns3:cad>0</ns3:cad>
          </ns3:TrackPointExtension>
        </extensions>
      </trkpt>
      <trkpt lat="43.7634508498013019561767578125" lon="1.57942690886557102203369140625">
        <ele>165</ele>
        <time>2026-08-13T06:01:46.000Z</time>
        <extensions>
          <ns3:TrackPointExtension>
            <ns3:hr>91</ns3:hr>
            <ns3:cad>0</ns3:cad>
          </ns3:TrackPointExtension>
        </extensions>
      </trkpt>
      <trkpt lat="43.76345445401966571807861328125" lon="1.57941752113401889801025390625">
        <ele>165</ele>
        <time>2026-08-13T06:01:47.000Z</time>
        <extensions>
          <ns3:TrackPointExtension>
            <ns3:hr>91</ns3:hr>
            <ns3:cad>44</ns3:cad>
          </ns3:TrackPointExtension>
        </extensions>
      </trkpt>
      <trkpt lat="43.7634600698947906494140625" lon="1.57941031269729137420654296875">
        <ele>165</ele>
        <time>2026-08-13T06:01:48.000Z</time>
        <extensions>
          <ns3:TrackPointExtension>
            <ns3:hr>91</ns3:hr>
            <ns3:cad>44</ns3:cad>
          </ns3:TrackPointExtension>
        </extensions>
      </trkpt>
      <trkpt lat="43.76346635632216930389404296875" lon="1.57940142787992954254150390625">
        <ele>165</ele>
        <time>2026-08-13T06:01:49.000Z</time>
        <extensions>
          <ns3:TrackPointExtension>
            <ns3:hr>91</ns3:hr>
            <ns3:cad>45</ns3:cad>
          </ns3:TrackPointExtension>
        </extensions>
      </trkpt>
      <trkpt lat="43.76347054727375507354736328125" lon="1.579390950500965118408203125">
        <ele>165</ele>
        <time>2026-08-13T06:01:50.000Z</time>
        <extensions>
          <ns3:TrackPointExtension>
            <ns3:hr>91</ns3:hr>
            <ns3:cad>45</ns3:cad>
          </ns3:TrackPointExtension>
        </extensions>
      </trkpt>
      <trkpt lat="43.7634746544063091278076171875" lon="1.57937929965555667877197265625">
        <ele>165</ele>
        <time>2026-08-13T06:01:51.000Z</time>
        <extensions>
          <ns3:TrackPointExtension>
            <ns3:hr>91</ns3:hr>
            <ns3:cad>46</ns3:cad>
          </ns3:TrackPointExtension>
        </extensions>
      </trkpt>
      <trkpt lat="43.76347674988210201263427734375" lon="1.579376198351383209228515625">
        <ele>165</ele>
        <time>2026-08-13T06:01:52.000Z</time>
        <extensions>
          <ns3:TrackPointExtension>
            <ns3:hr>91</ns3:hr>
            <ns3:cad>46</ns3:cad>
          </ns3:TrackPointExtension>
        </extensions>
      </trkpt>
      <trkpt lat="43.76348664052784442901611328125" lon="1.5793619491159915924072265625">
        <ele>165</ele>
        <time>2026-08-13T06:01:53.000Z</time>
        <extensions>
          <ns3:TrackPointExtension>
            <ns3:hr>91</ns3:hr>
            <ns3:cad>46</ns3:cad>
          </ns3:TrackPointExtension>
        </extensions>
      </trkpt>
      <trkpt lat="43.763493262231349945068359375" lon="1.579346023499965667724609375">
        <ele>165</ele>
        <time>2026-08-13T06:01:54.000Z</time>
        <extensions>
          <ns3:TrackPointExtension>
            <ns3:hr>91</ns3:hr>
            <ns3:cad>46</ns3:cad>
          </ns3:TrackPointExtension>
        </extensions>
      </trkpt>
      <trkpt lat="43.7634994648396968841552734375" lon="1.57933764159679412841796875">
        <ele>165</ele>
        <time>2026-08-13T06:01:55.000Z</time>
        <extensions>
          <ns3:TrackPointExtension>
            <ns3:hr>91</ns3:hr>
            <ns3:cad>46</ns3:cad>
          </ns3:TrackPointExtension>
        </extensions>
      </trkpt>
      <trkpt lat="43.7635021470487117767333984375" lon="1.57933118753135204315185546875">
        <ele>165</ele>
        <time>2026-08-13T06:01:56.000Z</time>
        <extensions>
          <ns3:TrackPointExtension>
            <ns3:hr>90</ns3:hr>
            <ns3:cad>46</ns3:cad>
          </ns3:TrackPointExtension>
        </extensions>
      </trkpt>
      <trkpt lat="43.76351078040897846221923828125" lon="1.57931459136307239532470703125">
        <ele>165.1999969482421875</ele>
        <time>2026-08-13T06:01:57.000Z</time>
        <extensions>
          <ns3:TrackPointExtension>
            <ns3:hr>90</ns3:hr>
            <ns3:cad>44</ns3:cad>
          </ns3:TrackPointExtension>
        </extensions>
      </trkpt>
      <trkpt lat="43.76351597718894481658935546875" lon="1.5793022699654102325439453125">
        <ele>165.1999969482421875</ele>
        <time>2026-08-13T06:01:58.000Z</time>
        <extensions>
          <ns3:TrackPointExtension>
            <ns3:hr>90</ns3:hr>
            <ns3:cad>43</ns3:cad>
          </ns3:TrackPointExtension>
        </extensions>
      </trkpt>
      <trkpt lat="43.763520084321498870849609375" lon="1.579296402633190155029296875">
        <ele>165.1999969482421875</ele>
        <time>2026-08-13T06:01:59.000Z</time>
        <extensions>
          <ns3:TrackPointExtension>
            <ns3:hr>90</ns3:hr>
            <ns3:cad>42</ns3:cad>
          </ns3:TrackPointExtension>
        </extensions>
      </trkpt>
      <trkpt lat="43.763526119291782379150390625" lon="1.57928575761616230010986328125">
        <ele>165.1999969482421875</ele>
        <time>2026-08-13T06:02:00.000Z</time>
        <extensions>
          <ns3:TrackPointExtension>
            <ns3:hr>90</ns3:hr>
            <ns3:cad>0</ns3:cad>
          </ns3:TrackPointExtension>
        </extensions>
      </trkpt>
      <trkpt lat="43.763534836471080780029296875" lon="1.57927234657108783721923828125">
        <ele>165.1999969482421875</ele>
        <time>2026-08-13T06:02:01.000Z</time>
        <extensions>
          <ns3:TrackPointExtension>
            <ns3:hr>90</ns3:hr>
            <ns3:cad>0</ns3:cad>
          </ns3:TrackPointExtension>
        </extensions>
      </trkpt>
      <trkpt lat="43.7635386921465396881103515625" lon="1.57926295883953571319580078125">
        <ele>165.1999969482421875</ele>
        <time>2026-08-13T06:02:02.000Z</time>
        <extensions>
          <ns3:TrackPointExtension>
            <ns3:hr>91</ns3:hr>
            <ns3:cad>0</ns3:cad>
          </ns3:TrackPointExtension>
        </extensions>
      </trkpt>
      <trkpt lat="43.76354011707007884979248046875" lon="1.57925725914537906646728515625">
        <ele>165</ele>
        <time>2026-08-13T06:02:03.000Z</time>
        <extensions>
          <ns3:TrackPointExtension>
            <ns3:hr>90</ns3:hr>
            <ns3:cad>0</ns3:cad>
          </ns3:TrackPointExtension>
        </extensions>
      </trkpt>
      <trkpt lat="43.7635450623929500579833984375" lon="1.579246781766414642333984375">
        <ele>165</ele>
        <time>2026-08-13T06:02:04.000Z</time>
        <extensions>
          <ns3:TrackPointExtension>
            <ns3:hr>90</ns3:hr>
            <ns3:cad>0</ns3:cad>
          </ns3:TrackPointExtension>
        </extensions>
      </trkpt>
      <trkpt lat="43.76355034299194812774658203125" lon="1.579234711825847625732421875">
        <ele>165.1999969482421875</ele>
        <time>2026-08-13T06:02:05.000Z</time>
        <extensions>
          <ns3:TrackPointExtension>
            <ns3:hr>90</ns3:hr>
            <ns3:cad>43</ns3:cad>
          </ns3:TrackPointExtension>
        </extensions>
      </trkpt>
      <trkpt lat="43.76355436630547046661376953125" lon="1.579221300780773162841796875">
        <ele>165.1999969482421875</ele>
        <time>2026-08-13T06:02:06.000Z</time>
        <extensions>
          <ns3:TrackPointExtension>
            <ns3:hr>89</ns3:hr>
            <ns3:cad>44</ns3:cad>
          </ns3:TrackPointExtension>
        </extensions>
      </trkpt>
      <trkpt lat="43.763560317456722259521484375" lon="1.5792087279260158538818359375">
        <ele>165.1999969482421875</ele>
        <time>2026-08-13T06:02:07.000Z</time>
        <extensions>
          <ns3:TrackPointExtension>
            <ns3:hr>88</ns3:hr>
            <ns3:cad>44</ns3:cad>
          </ns3:TrackPointExtension>
        </extensions>
      </trkpt>
      <trkpt lat="43.76356593333184719085693359375" lon="1.57919607125222682952880859375">
        <ele>165</ele>
        <time>2026-08-13T06:02:08.000Z</time>
        <extensions>
          <ns3:TrackPointExtension>
            <ns3:hr>87</ns3:hr>
            <ns3:cad>43</ns3:cad>
          </ns3:TrackPointExtension>
        </extensions>
      </trkpt>
      <trkpt lat="43.76357263885438442230224609375" lon="1.57918634824454784393310546875">
        <ele>165</ele>
        <time>2026-08-13T06:02:09.000Z</time>
        <extensions>
          <ns3:TrackPointExtension>
            <ns3:hr>87</ns3:hr>
            <ns3:cad>43</ns3:cad>
          </ns3:TrackPointExtension>
        </extensions>
      </trkpt>
      <trkpt lat="43.76357397995889186859130859375" lon="1.579179726541042327880859375">
        <ele>165</ele>
        <time>2026-08-13T06:02:10.000Z</time>
        <extensions>
          <ns3:TrackPointExtension>
            <ns3:hr>87</ns3:hr>
            <ns3:cad>42</ns3:cad>
          </ns3:TrackPointExtension>
        </extensions>
      </trkpt>
      <trkpt lat="43.76358068548142910003662109375" lon="1.57916237600147724151611328125">
        <ele>165.1999969482421875</ele>
        <time>2026-08-13T06:02:11.000Z</time>
        <extensions>
          <ns3:TrackPointExtension>
            <ns3:hr>86</ns3:hr>
            <ns3:cad>42</ns3:cad>
          </ns3:TrackPointExtension>
        </extensions>
      </trkpt>
      <trkpt lat="43.763584457337856292724609375" lon="1.579149551689624786376953125">
        <ele>165.1999969482421875</ele>
        <time>2026-08-13T06:02:12.000Z</time>
        <extensions>
          <ns3:TrackPointExtension>
            <ns3:hr>86</ns3:hr>
            <ns3:cad>42</ns3:cad>
          </ns3:TrackPointExtension>
        </extensions>
      </trkpt>
      <trkpt lat="43.76358537934720516204833984375" lon="1.5791399963200092315673828125">
        <ele>165.1999969482421875</ele>
        <time>2026-08-13T06:02:13.000Z</time>
        <extensions>
          <ns3:TrackPointExtension>
            <ns3:hr>86</ns3:hr>
            <ns3:cad>42</ns3:cad>
          </ns3:TrackPointExtension>
        </extensions>
      </trkpt>
      <trkpt lat="43.7635866366326808929443359375" lon="1.57912884838879108428955078125">
        <ele>165.1999969482421875</ele>
        <time>2026-08-13T06:02:14.000Z</time>
        <extensions>
          <ns3:TrackPointExtension>
            <ns3:hr>87</ns3:hr>
            <ns3:cad>42</ns3:cad>
          </ns3:TrackPointExtension>
        </extensions>
      </trkpt>
      <trkpt lat="43.7635950185358524322509765625" lon="1.57912214286625385284423828125">
        <ele>165.1999969482421875</ele>
        <time>2026-08-13T06:02:15.000Z</time>
        <extensions>
          <ns3:TrackPointExtension>
            <ns3:hr>86</ns3:hr>
            <ns3:cad>42</ns3:cad>
          </ns3:TrackPointExtension>
        </extensions>
      </trkpt>
      <trkpt lat="43.76360113732516765594482421875" lon="1.5791116654872894287109375">
        <ele>165.1999969482421875</ele>
        <time>2026-08-13T06:02:16.000Z</time>
        <extensions>
          <ns3:TrackPointExtension>
            <ns3:hr>86</ns3:hr>
            <ns3:cad>43</ns3:cad>
          </ns3:TrackPointExtension>
        </extensions>
      </trkpt>
      <trkpt lat="43.7636084295809268951416015625" lon="1.57910336740314960479736328125">
        <ele>165.1999969482421875</ele>
        <time>2026-08-13T06:02:17.000Z</time>
        <extensions>
          <ns3:TrackPointExtension>
            <ns3:hr>87</ns3:hr>
            <ns3:cad>43</ns3:cad>
          </ns3:TrackPointExtension>
        </extensions>
      </trkpt>
      <trkpt lat="43.7636111117899417877197265625" lon="1.579095236957073211669921875">
        <ele>165.1999969482421875</ele>
        <time>2026-08-13T06:02:18.000Z</time>
        <extensions>
          <ns3:TrackPointExtension>
            <ns3:hr>86</ns3:hr>
            <ns3:cad>44</ns3:cad>
          </ns3:TrackPointExtension>
        </extensions>
      </trkpt>
      <trkpt lat="43.763615973293781280517578125" lon="1.57907612621784210205078125">
        <ele>165.1999969482421875</ele>
        <time>2026-08-13T06:02:19.000Z</time>
        <extensions>
          <ns3:TrackPointExtension>
            <ns3:hr>86</ns3:hr>
            <ns3:cad>45</ns3:cad>
          </ns3:TrackPointExtension>
        </extensions>
      </trkpt>
      <trkpt lat="43.7636196613311767578125" lon="1.57906363718211650848388671875">
        <ele>165.1999969482421875</ele>
        <time>2026-08-13T06:02:20.000Z</time>
        <extensions>
          <ns3:TrackPointExtension>
            <ns3:hr>85</ns3:hr>
            <ns3:cad>45</ns3:cad>
          </ns3:TrackPointExtension>
        </extensions>
      </trkpt>
      <trkpt lat="43.7636194936931133270263671875" lon="1.5790581889450550079345703125">
        <ele>165.1999969482421875</ele>
        <time>2026-08-13T06:02:21.000Z</time>
        <extensions>
          <ns3:TrackPointExtension>
            <ns3:hr>84</ns3:hr>
            <ns3:cad>44</ns3:cad>
          </ns3:TrackPointExtension>
        </extensions>
      </trkpt>
      <trkpt lat="43.7636255286633968353271484375" lon="1.57904352061450481414794921875">
        <ele>165.1999969482421875</ele>
        <time>2026-08-13T06:02:22.000Z</time>
        <extensions>
          <ns3:TrackPointExtension>
            <ns3:hr>84</ns3:hr>
            <ns3:cad>42</ns3:cad>
          </ns3:TrackPointExtension>
        </extensions>
      </trkpt>
      <trkpt lat="43.76362997107207775115966796875" lon="1.5790365636348724365234375">
        <ele>165.399993896484375</ele>
        <time>2026-08-13T06:02:23.000Z</time>
        <extensions>
          <ns3:TrackPointExtension>
            <ns3:hr>84</ns3:hr>
            <ns3:cad>41</ns3:cad>
          </ns3:TrackPointExtension>
        </extensions>
      </trkpt>
      <trkpt lat="43.7636308930814266204833984375" lon="1.57902809791266918182373046875">
        <ele>165.1999969482421875</ele>
        <time>2026-08-13T06:02:24.000Z</time>
        <extensions>
          <ns3:TrackPointExtension>
            <ns3:hr>84</ns3:hr>
            <ns3:cad>41</ns3:cad>
          </ns3:TrackPointExtension>
        </extensions>
      </trkpt>
      <trkpt lat="43.76363600604236125946044921875" lon="1.57901586033403873443603515625">
        <ele>165.1999969482421875</ele>
        <time>2026-08-13T06:02:25.000Z</time>
        <extensions>
          <ns3:TrackPointExtension>
            <ns3:hr>84</ns3:hr>
            <ns3:cad>41</ns3:cad>
          </ns3:TrackPointExtension>
        </extensions>
      </trkpt>
      <trkpt lat="43.76364002935588359832763671875" lon="1.5790058858692646026611328125">
        <ele>165.1999969482421875</ele>
        <time>2026-08-13T06:02:26.000Z</time>
        <extensions>
          <ns3:TrackPointExtension>
            <ns3:hr>84</ns3:hr>
            <ns3:cad>77</ns3:cad>
          </ns3:TrackPointExtension>
        </extensions>
      </trkpt>
      <trkpt lat="43.763642795383930206298828125" lon="1.578996665775775909423828125">
        <ele>165.1999969482421875</ele>
        <time>2026-08-13T06:02:27.000Z</time>
        <extensions>
          <ns3:TrackPointExtension>
            <ns3:hr>83</ns3:hr>
            <ns3:cad>77</ns3:cad>
          </ns3:TrackPointExtension>
        </extensions>
      </trkpt>
      <trkpt lat="43.7636443041265010833740234375" lon="1.5789827518165111541748046875">
        <ele>165.399993896484375</ele>
        <time>2026-08-13T06:02:28.000Z</time>
        <extensions>
          <ns3:TrackPointExtension>
            <ns3:hr>83</ns3:hr>
            <ns3:cad>77</ns3:cad>
          </ns3:TrackPointExtension>
        </extensions>
      </trkpt>
      <trkpt lat="43.76364321447908878326416015625" lon="1.5789673291146755218505859375">
        <ele>165.399993896484375</ele>
        <time>2026-08-13T06:02:29.000Z</time>
        <extensions>
          <ns3:TrackPointExtension>
            <ns3:hr>83</ns3:hr>
            <ns3:cad>41</ns3:cad>
          </ns3:TrackPointExtension>
        </extensions>
      </trkpt>
      <trkpt lat="43.7636439688503742218017578125" lon="1.57895316369831562042236328125">
        <ele>165.399993896484375</ele>
        <time>2026-08-13T06:02:30.000Z</time>
        <extensions>
          <ns3:TrackPointExtension>
            <ns3:hr>82</ns3:hr>
            <ns3:cad>41</ns3:cad>
          </ns3:TrackPointExtension>
        </extensions>
      </trkpt>
      <trkpt lat="43.76364489085972309112548828125" lon="1.57894528470933437347412109375">
        <ele>165.399993896484375</ele>
        <time>2026-08-13T06:02:31.000Z</time>
        <extensions>
          <ns3:TrackPointExtension>
            <ns3:hr>82</ns3:hr>
            <ns3:cad>41</ns3:cad>
          </ns3:TrackPointExtension>
        </extensions>
      </trkpt>
      <trkpt lat="43.76364975236356258392333984375" lon="1.57892852090299129486083984375">
        <ele>165.399993896484375</ele>
        <time>2026-08-13T06:02:32.000Z</time>
        <extensions>
          <ns3:TrackPointExtension>
            <ns3:hr>82</ns3:hr>
            <ns3:cad>43</ns3:cad>
          </ns3:TrackPointExtension>
        </extensions>
      </trkpt>
      <trkpt lat="43.763652853667736053466796875" lon="1.57891293056309223175048828125">
        <ele>165.399993896484375</ele>
        <time>2026-08-13T06:02:33.000Z</time>
        <extensions>
          <ns3:TrackPointExtension>
            <ns3:hr>82</ns3:hr>
            <ns3:cad>43</ns3:cad>
          </ns3:TrackPointExtension>
        </extensions>
      </trkpt>
      <trkpt lat="43.763655535876750946044921875" lon="1.57890019007027149200439453125">
        <ele>165.399993896484375</ele>
        <time>2026-08-13T06:02:34.000Z</time>
        <extensions>
          <ns3:TrackPointExtension>
            <ns3:hr>83</ns3:hr>
            <ns3:cad>43</ns3:cad>
          </ns3:TrackPointExtension>
        </extensions>
      </trkpt>
      <trkpt lat="43.7636597268283367156982421875" lon="1.5788892097771167755126953125">
        <ele>165.399993896484375</ele>
        <time>2026-08-13T06:02:35.000Z</time>
        <extensions>
          <ns3:TrackPointExtension>
            <ns3:hr>82</ns3:hr>
            <ns3:cad>43</ns3:cad>
          </ns3:TrackPointExtension>
        </extensions>
      </trkpt>
      <trkpt lat="43.76366735436022281646728515625" lon="1.578879989683628082275390625">
        <ele>165.399993896484375</ele>
        <time>2026-08-13T06:02:36.000Z</time>
        <extensions>
          <ns3:TrackPointExtension>
            <ns3:hr>82</ns3:hr>
            <ns3:cad>43</ns3:cad>
          </ns3:TrackPointExtension>
        </extensions>
      </trkpt>
      <trkpt lat="43.76367171294987201690673828125" lon="1.57887093722820281982421875">
        <ele>165.399993896484375</ele>
        <time>2026-08-13T06:02:37.000Z</time>
        <extensions>
          <ns3:TrackPointExtension>
            <ns3:hr>82</ns3:hr>
            <ns3:cad>43</ns3:cad>
          </ns3:TrackPointExtension>
        </extensions>
      </trkpt>
      <trkpt lat="43.76367439515888690948486328125" lon="1.57886062748730182647705078125">
        <ele>165.399993896484375</ele>
        <time>2026-08-13T06:02:38.000Z</time>
        <extensions>
          <ns3:TrackPointExtension>
            <ns3:hr>83</ns3:hr>
            <ns3:cad>43</ns3:cad>
          </ns3:TrackPointExtension>
        </extensions>
      </trkpt>
      <trkpt lat="43.76367724500596523284912109375" lon="1.578851155936717987060546875">
        <ele>165.399993896484375</ele>
        <time>2026-08-13T06:02:39.000Z</time>
        <extensions>
          <ns3:TrackPointExtension>
            <ns3:hr>82</ns3:hr>
            <ns3:cad>43</ns3:cad>
          </ns3:TrackPointExtension>
        </extensions>
      </trkpt>
      <trkpt lat="43.7636852078139781951904296875" lon="1.578833721578121185302734375">
        <ele>165.399993896484375</ele>
        <time>2026-08-13T06:02:40.000Z</time>
        <extensions>
          <ns3:TrackPointExtension>
            <ns3:hr>82</ns3:hr>
            <ns3:cad>46</ns3:cad>
          </ns3:TrackPointExtension>
        </extensions>
      </trkpt>
      <trkpt lat="43.76368730328977108001708984375" lon="1.57881519757211208343505859375">
        <ele>165.399993896484375</ele>
        <time>2026-08-13T06:02:41.000Z</time>
        <extensions>
          <ns3:TrackPointExtension>
            <ns3:hr>82</ns3:hr>
            <ns3:cad>46</ns3:cad>
          </ns3:TrackPointExtension>
        </extensions>
      </trkpt>
      <trkpt lat="43.7636912427842617034912109375" lon="1.57880580984055995941162109375">
        <ele>165.399993896484375</ele>
        <time>2026-08-13T06:02:42.000Z</time>
        <extensions>
          <ns3:TrackPointExtension>
            <ns3:hr>82</ns3:hr>
            <ns3:cad>46</ns3:cad>
          </ns3:TrackPointExtension>
        </extensions>
      </trkpt>
      <trkpt lat="43.763692080974578857421875" lon="1.5787978470325469970703125">
        <ele>165.399993896484375</ele>
        <time>2026-08-13T06:02:43.000Z</time>
        <extensions>
          <ns3:TrackPointExtension>
            <ns3:hr>82</ns3:hr>
            <ns3:cad>46</ns3:cad>
          </ns3:TrackPointExtension>
        </extensions>
      </trkpt>
      <trkpt lat="43.76369887031614780426025390625" lon="1.5787809155881404876708984375">
        <ele>165.399993896484375</ele>
        <time>2026-08-13T06:02:44.000Z</time>
        <extensions>
          <ns3:TrackPointExtension>
            <ns3:hr>82</ns3:hr>
            <ns3:cad>46</ns3:cad>
          </ns3:TrackPointExtension>
        </extensions>
      </trkpt>
      <trkpt lat="43.76370222307741641998291015625" lon="1.578763984143733978271484375">
        <ele>165.399993896484375</ele>
        <time>2026-08-13T06:02:45.000Z</time>
        <extensions>
          <ns3:TrackPointExtension>
            <ns3:hr>82</ns3:hr>
            <ns3:cad>46</ns3:cad>
          </ns3:TrackPointExtension>
        </extensions>
      </trkpt>
      <trkpt lat="43.763706497848033905029296875" lon="1.57875099219381809234619140625">
        <ele>165.399993896484375</ele>
        <time>2026-08-13T06:02:46.000Z</time>
        <extensions>
          <ns3:TrackPointExtension>
            <ns3:hr>82</ns3:hr>
            <ns3:cad>46</ns3:cad>
          </ns3:TrackPointExtension>
        </extensions>
      </trkpt>
      <trkpt lat="43.76370859332382678985595703125" lon="1.57874261029064655303955078125">
        <ele>165.399993896484375</ele>
        <time>2026-08-13T06:02:47.000Z</time>
        <extensions>
          <ns3:TrackPointExtension>
            <ns3:hr>83</ns3:hr>
            <ns3:cad>45</ns3:cad>
          </ns3:TrackPointExtension>
        </extensions>
      </trkpt>
      <trkpt lat="43.76371085643768310546875" lon="1.5787252597510814666748046875">
        <ele>165.399993896484375</ele>
        <time>2026-08-13T06:02:48.000Z</time>
        <extensions>
          <ns3:TrackPointExtension>
            <ns3:hr>83</ns3:hr>
            <ns3:cad>45</ns3:cad>
          </ns3:TrackPointExtension>
        </extensions>
      </trkpt>
      <trkpt lat="43.763714544475078582763671875" lon="1.57870774157345294952392578125">
        <ele>165.399993896484375</ele>
        <time>2026-08-13T06:02:49.000Z</time>
        <extensions>
          <ns3:TrackPointExtension>
            <ns3:hr>83</ns3:hr>
            <ns3:cad>45</ns3:cad>
          </ns3:TrackPointExtension>
        </extensions>
      </trkpt>
      <trkpt lat="43.7637137062847614288330078125" lon="1.57869433052837848663330078125">
        <ele>165.399993896484375</ele>
        <time>2026-08-13T06:02:50.000Z</time>
        <extensions>
          <ns3:TrackPointExtension>
            <ns3:hr>84</ns3:hr>
            <ns3:cad>47</ns3:cad>
          </ns3:TrackPointExtension>
        </extensions>
      </trkpt>
      <trkpt lat="43.7637147121131420135498046875" lon="1.57868376933038234710693359375">
        <ele>165.399993896484375</ele>
        <time>2026-08-13T06:02:51.000Z</time>
        <extensions>
          <ns3:TrackPointExtension>
            <ns3:hr>84</ns3:hr>
            <ns3:cad>47</ns3:cad>
          </ns3:TrackPointExtension>
        </extensions>
      </trkpt>
      <trkpt lat="43.763716220855712890625" lon="1.57867111265659332275390625">
        <ele>165.399993896484375</ele>
        <time>2026-08-13T06:02:52.000Z</time>
        <extensions>
          <ns3:TrackPointExtension>
            <ns3:hr>84</ns3:hr>
            <ns3:cad>47</ns3:cad>
          </ns3:TrackPointExtension>
        </extensions>
      </trkpt>
      <trkpt lat="43.76371915452182292938232421875" lon="1.5786551870405673980712890625">
        <ele>165.399993896484375</ele>
        <time>2026-08-13T06:02:53.000Z</time>
        <extensions>
          <ns3:TrackPointExtension>
            <ns3:hr>84</ns3:hr>
            <ns3:cad>47</ns3:cad>
          </ns3:TrackPointExtension>
        </extensions>
      </trkpt>
      <trkpt lat="43.76371663995087146759033203125" lon="1.57864068634808063507080078125">
        <ele>165.399993896484375</ele>
        <time>2026-08-13T06:02:54.000Z</time>
        <extensions>
          <ns3:TrackPointExtension>
            <ns3:hr>84</ns3:hr>
            <ns3:cad>47</ns3:cad>
          </ns3:TrackPointExtension>
        </extensions>
      </trkpt>
      <trkpt lat="43.76371915452182292938232421875" lon="1.57862878404557704925537109375">
        <ele>165.399993896484375</ele>
        <time>2026-08-13T06:02:55.000Z</time>
        <extensions>
          <ns3:TrackPointExtension>
            <ns3:hr>84</ns3:hr>
            <ns3:cad>47</ns3:cad>
          </ns3:TrackPointExtension>
        </extensions>
      </trkpt>
      <trkpt lat="43.7637187354266643524169921875" lon="1.57861922867596149444580078125">
        <ele>165.399993896484375</ele>
        <time>2026-08-13T06:02:56.000Z</time>
        <extensions>
          <ns3:TrackPointExtension>
            <ns3:hr>83</ns3:hr>
            <ns3:cad>47</ns3:cad>
          </ns3:TrackPointExtension>
        </extensions>
      </trkpt>
      <trkpt lat="43.76371747814118862152099609375" lon="1.57860397361218929290771484375">
        <ele>165.399993896484375</ele>
        <time>2026-08-13T06:02:57.000Z</time>
        <extensions>
          <ns3:TrackPointExtension>
            <ns3:hr>83</ns3:hr>
            <ns3:cad>47</ns3:cad>
          </ns3:TrackPointExtension>
        </extensions>
      </trkpt>
      <trkpt lat="43.76371546648442745208740234375" lon="1.57859257422387599945068359375">
        <ele>165.399993896484375</ele>
        <time>2026-08-13T06:02:58.000Z</time>
        <extensions>
          <ns3:TrackPointExtension>
            <ns3:hr>83</ns3:hr>
            <ns3:cad>46</ns3:cad>
          </ns3:TrackPointExtension>
        </extensions>
      </trkpt>
      <trkpt lat="43.76371362246572971343994140625" lon="1.57858184538781642913818359375">
        <ele>165.399993896484375</ele>
        <time>2026-08-13T06:02:59.000Z</time>
        <extensions>
          <ns3:TrackPointExtension>
            <ns3:hr>83</ns3:hr>
            <ns3:cad>46</ns3:cad>
          </ns3:TrackPointExtension>
        </extensions>
      </trkpt>
      <trkpt lat="43.76371161080896854400634765625" lon="1.57857648096978664398193359375">
        <ele>165.399993896484375</ele>
        <time>2026-08-13T06:03:00.000Z</time>
        <extensions>
          <ns3:TrackPointExtension>
            <ns3:hr>82</ns3:hr>
            <ns3:cad>46</ns3:cad>
          </ns3:TrackPointExtension>
        </extensions>
      </trkpt>
      <trkpt lat="43.7637070007622241973876953125" lon="1.578560806810855865478515625">
        <ele>165.399993896484375</ele>
        <time>2026-08-13T06:03:01.000Z</time>
        <extensions>
          <ns3:TrackPointExtension>
            <ns3:hr>83</ns3:hr>
            <ns3:cad>45</ns3:cad>
          </ns3:TrackPointExtension>
        </extensions>
      </trkpt>
      <trkpt lat="43.763705156743526458740234375" lon="1.57854496501386165618896484375">
        <ele>165.399993896484375</ele>
        <time>2026-08-13T06:03:02.000Z</time>
        <extensions>
          <ns3:TrackPointExtension>
            <ns3:hr>82</ns3:hr>
            <ns3:cad>45</ns3:cad>
          </ns3:TrackPointExtension>
        </extensions>
      </trkpt>
      <trkpt lat="43.7637053243815898895263671875" lon="1.5785318054258823394775390625">
        <ele>165.399993896484375</ele>
        <time>2026-08-13T06:03:03.000Z</time>
        <extensions>
          <ns3:TrackPointExtension>
            <ns3:hr>82</ns3:hr>
            <ns3:cad>45</ns3:cad>
          </ns3:TrackPointExtension>
        </extensions>
      </trkpt>
      <trkpt lat="43.76370289362967014312744140625" lon="1.57852333970367908477783203125">
        <ele>165.399993896484375</ele>
        <time>2026-08-13T06:03:04.000Z</time>
        <extensions>
          <ns3:TrackPointExtension>
            <ns3:hr>82</ns3:hr>
            <ns3:cad>46</ns3:cad>
          </ns3:TrackPointExtension>
        </extensions>
      </trkpt>
      <trkpt lat="43.763701133430004119873046875" lon="1.578505821526050567626953125">
        <ele>165.399993896484375</ele>
        <time>2026-08-13T06:03:05.000Z</time>
        <extensions>
          <ns3:TrackPointExtension>
            <ns3:hr>83</ns3:hr>
            <ns3:cad>46</ns3:cad>
          </ns3:TrackPointExtension>
        </extensions>
      </trkpt>
      <trkpt lat="43.76369786448776721954345703125" lon="1.5784898959100246429443359375">
        <ele>165.399993896484375</ele>
        <time>2026-08-13T06:03:06.000Z</time>
        <extensions>
          <ns3:TrackPointExtension>
            <ns3:hr>82</ns3:hr>
            <ns3:cad>46</ns3:cad>
          </ns3:TrackPointExtension>
        </extensions>
      </trkpt>
      <trkpt lat="43.76369476318359375" lon="1.5784768201410770416259765625">
        <ele>165.399993896484375</ele>
        <time>2026-08-13T06:03:07.000Z</time>
        <extensions>
          <ns3:TrackPointExtension>
            <ns3:hr>82</ns3:hr>
            <ns3:cad>46</ns3:cad>
          </ns3:TrackPointExtension>
        </extensions>
      </trkpt>
      <trkpt lat="43.76369752921164035797119140625" lon="1.57846533693373203277587890625">
        <ele>165.399993896484375</ele>
        <time>2026-08-13T06:03:08.000Z</time>
        <extensions>
          <ns3:TrackPointExtension>
            <ns3:hr>82</ns3:hr>
            <ns3:cad>45</ns3:cad>
          </ns3:TrackPointExtension>
        </extensions>
      </trkpt>
      <trkpt lat="43.76369677484035491943359375" lon="1.57845192588865756988525390625">
        <ele>165.399993896484375</ele>
        <time>2026-08-13T06:03:09.000Z</time>
        <extensions>
          <ns3:TrackPointExtension>
            <ns3:hr>82</ns3:hr>
            <ns3:cad>45</ns3:cad>
          </ns3:TrackPointExtension>
        </extensions>
      </trkpt>
      <trkpt lat="43.76369400881230831146240234375" lon="1.57842912711203098297119140625">
        <ele>165.399993896484375</ele>
        <time>2026-08-13T06:03:10.000Z</time>
        <extensions>
          <ns3:TrackPointExtension>
            <ns3:hr>82</ns3:hr>
            <ns3:cad>45</ns3:cad>
          </ns3:TrackPointExtension>
        </extensions>
      </trkpt>
      <trkpt lat="43.76369434408843517303466796875" lon="1.57841990701854228973388671875">
        <ele>165.399993896484375</ele>
        <time>2026-08-13T06:03:11.000Z</time>
        <extensions>
          <ns3:TrackPointExtension>
            <ns3:hr>82</ns3:hr>
            <ns3:cad>45</ns3:cad>
          </ns3:TrackPointExtension>
        </extensions>
      </trkpt>
      <trkpt lat="43.7636987864971160888671875" lon="1.57840481959283351898193359375">
        <ele>165.399993896484375</ele>
        <time>2026-08-13T06:03:12.000Z</time>
        <extensions>
          <ns3:TrackPointExtension>
            <ns3:hr>82</ns3:hr>
            <ns3:cad>45</ns3:cad>
          </ns3:TrackPointExtension>
        </extensions>
      </trkpt>
      <trkpt lat="43.76370012760162353515625" lon="1.57839241437613964080810546875">
        <ele>165.399993896484375</ele>
        <time>2026-08-13T06:03:13.000Z</time>
        <extensions>
          <ns3:TrackPointExtension>
            <ns3:hr>82</ns3:hr>
            <ns3:cad>45</ns3:cad>
          </ns3:TrackPointExtension>
        </extensions>
      </trkpt>
      <trkpt lat="43.76370172016322612762451171875" lon="1.57837648876011371612548828125">
        <ele>165.399993896484375</ele>
        <time>2026-08-13T06:03:14.000Z</time>
        <extensions>
          <ns3:TrackPointExtension>
            <ns3:hr>82</ns3:hr>
            <ns3:cad>45</ns3:cad>
          </ns3:TrackPointExtension>
        </extensions>
      </trkpt>
      <trkpt lat="43.76370079815387725830078125" lon="1.57836307771503925323486328125">
        <ele>165.399993896484375</ele>
        <time>2026-08-13T06:03:15.000Z</time>
        <extensions>
          <ns3:TrackPointExtension>
            <ns3:hr>82</ns3:hr>
            <ns3:cad>45</ns3:cad>
          </ns3:TrackPointExtension>
        </extensions>
      </trkpt>
      <trkpt lat="43.76369954086840152740478515625" lon="1.57835151068866252899169921875">
        <ele>165.1999969482421875</ele>
        <time>2026-08-13T06:03:16.000Z</time>
        <extensions>
          <ns3:TrackPointExtension>
            <ns3:hr>82</ns3:hr>
            <ns3:cad>45</ns3:cad>
          </ns3:TrackPointExtension>
        </extensions>
      </trkpt>
      <trkpt lat="43.76369719393551349639892578125" lon="1.57834120094776153564453125">
        <ele>165.1999969482421875</ele>
        <time>2026-08-13T06:03:17.000Z</time>
        <extensions>
          <ns3:TrackPointExtension>
            <ns3:hr>82</ns3:hr>
            <ns3:cad>45</ns3:cad>
          </ns3:TrackPointExtension>
        </extensions>
      </trkpt>
      <trkpt lat="43.7636925838887691497802734375" lon="1.5783229283988475799560546875">
        <ele>165.1999969482421875</ele>
        <time>2026-08-13T06:03:18.000Z</time>
        <extensions>
          <ns3:TrackPointExtension>
            <ns3:hr>82</ns3:hr>
            <ns3:cad>45</ns3:cad>
          </ns3:TrackPointExtension>
        </extensions>
      </trkpt>
      <trkpt lat="43.76368881203234195709228515625" lon="1.57830859534442424774169921875">
        <ele>165.1999969482421875</ele>
        <time>2026-08-13T06:03:19.000Z</time>
        <extensions>
          <ns3:TrackPointExtension>
            <ns3:hr>82</ns3:hr>
            <ns3:cad>47</ns3:cad>
          </ns3:TrackPointExtension>
        </extensions>
      </trkpt>
      <trkpt lat="43.76368965022265911102294921875" lon="1.57830004580318927764892578125">
        <ele>165.1999969482421875</ele>
        <time>2026-08-13T06:03:20.000Z</time>
        <extensions>
          <ns3:TrackPointExtension>
            <ns3:hr>82</ns3:hr>
            <ns3:cad>47</ns3:cad>
          </ns3:TrackPointExtension>
        </extensions>
      </trkpt>
      <trkpt lat="43.76368763856589794158935546875" lon="1.578285880386829376220703125">
        <ele>165.1999969482421875</ele>
        <time>2026-08-13T06:03:21.000Z</time>
        <extensions>
          <ns3:TrackPointExtension>
            <ns3:hr>82</ns3:hr>
            <ns3:cad>44</ns3:cad>
          </ns3:TrackPointExtension>
        </extensions>
      </trkpt>
      <trkpt lat="43.76368344761431217193603515625" lon="1.578265763819217681884765625">
        <ele>165.1999969482421875</ele>
        <time>2026-08-13T06:03:22.000Z</time>
        <extensions>
          <ns3:TrackPointExtension>
            <ns3:hr>81</ns3:hr>
            <ns3:cad>43</ns3:cad>
          </ns3:TrackPointExtension>
        </extensions>
      </trkpt>
      <trkpt lat="43.76367934048175811767578125" lon="1.5782548673450946807861328125">
        <ele>165.1999969482421875</ele>
        <time>2026-08-13T06:03:23.000Z</time>
        <extensions>
          <ns3:TrackPointExtension>
            <ns3:hr>82</ns3:hr>
            <ns3:cad>43</ns3:cad>
          </ns3:TrackPointExtension>
        </extensions>
      </trkpt>
      <trkpt lat="43.76367774792015552520751953125" lon="1.578247658908367156982421875">
        <ele>165.1999969482421875</ele>
        <time>2026-08-13T06:03:24.000Z</time>
        <extensions>
          <ns3:TrackPointExtension>
            <ns3:hr>82</ns3:hr>
            <ns3:cad>44</ns3:cad>
          </ns3:TrackPointExtension>
        </extensions>
      </trkpt>
      <trkpt lat="43.7636771611869335174560546875" lon="1.57823349349200725555419921875">
        <ele>165.1999969482421875</ele>
        <time>2026-08-13T06:03:25.000Z</time>
        <extensions>
          <ns3:TrackPointExtension>
            <ns3:hr>82</ns3:hr>
            <ns3:cad>44</ns3:cad>
          </ns3:TrackPointExtension>
        </extensions>
      </trkpt>
      <trkpt lat="43.76367590390145778656005859375" lon="1.57822050154209136962890625">
        <ele>165.1999969482421875</ele>
        <time>2026-08-13T06:03:26.000Z</time>
        <extensions>
          <ns3:TrackPointExtension>
            <ns3:hr>82</ns3:hr>
            <ns3:cad>44</ns3:cad>
          </ns3:TrackPointExtension>
        </extensions>
      </trkpt>
      <trkpt lat="43.76367456279695034027099609375" lon="1.5782096050679683685302734375">
        <ele>165.1999969482421875</ele>
        <time>2026-08-13T06:03:27.000Z</time>
        <extensions>
          <ns3:TrackPointExtension>
            <ns3:hr>82</ns3:hr>
            <ns3:cad>44</ns3:cad>
          </ns3:TrackPointExtension>
        </extensions>
      </trkpt>
      <trkpt lat="43.763670958578586578369140625" lon="1.57820382155478000640869140625">
        <ele>165.1999969482421875</ele>
        <time>2026-08-13T06:03:28.000Z</time>
        <extensions>
          <ns3:TrackPointExtension>
            <ns3:hr>83</ns3:hr>
            <ns3:cad>44</ns3:cad>
          </ns3:TrackPointExtension>
        </extensions>
      </trkpt>
      <trkpt lat="43.7636667676270008087158203125" lon="1.57818831503391265869140625">
        <ele>165.1999969482421875</ele>
        <time>2026-08-13T06:03:29.000Z</time>
        <extensions>
          <ns3:TrackPointExtension>
            <ns3:hr>83</ns3:hr>
            <ns3:cad>44</ns3:cad>
          </ns3:TrackPointExtension>
        </extensions>
      </trkpt>
      <trkpt lat="43.7636625766754150390625" lon="1.5781728923320770263671875">
        <ele>165.1999969482421875</ele>
        <time>2026-08-13T06:03:30.000Z</time>
        <extensions>
          <ns3:TrackPointExtension>
            <ns3:hr>83</ns3:hr>
            <ns3:cad>44</ns3:cad>
          </ns3:TrackPointExtension>
        </extensions>
      </trkpt>
      <trkpt lat="43.763661570847034454345703125" lon="1.57815973274409770965576171875">
        <ele>165.1999969482421875</ele>
        <time>2026-08-13T06:03:31.000Z</time>
        <extensions>
          <ns3:TrackPointExtension>
            <ns3:hr>84</ns3:hr>
            <ns3:cad>44</ns3:cad>
          </ns3:TrackPointExtension>
        </extensions>
      </trkpt>
      <trkpt lat="43.7636590562760829925537109375" lon="1.57814866863191127777099609375">
        <ele>165.1999969482421875</ele>
        <time>2026-08-13T06:03:32.000Z</time>
        <extensions>
          <ns3:TrackPointExtension>
            <ns3:hr>84</ns3:hr>
            <ns3:cad>45</ns3:cad>
          </ns3:TrackPointExtension>
        </extensions>
      </trkpt>
      <trkpt lat="43.76365779899060726165771484375" lon="1.5781267918646335601806640625">
        <ele>165.399993896484375</ele>
        <time>2026-08-13T06:03:33.000Z</time>
        <extensions>
          <ns3:TrackPointExtension>
            <ns3:hr>84</ns3:hr>
            <ns3:cad>45</ns3:cad>
          </ns3:TrackPointExtension>
        </extensions>
      </trkpt>
      <trkpt lat="43.7636560387909412384033203125" lon="1.57811095006763935089111328125">
        <ele>165.399993896484375</ele>
        <time>2026-08-13T06:03:34.000Z</time>
        <extensions>
          <ns3:TrackPointExtension>
            <ns3:hr>84</ns3:hr>
            <ns3:cad>45</ns3:cad>
          </ns3:TrackPointExtension>
        </extensions>
      </trkpt>
      <trkpt lat="43.7636546976864337921142578125" lon="1.57810072414577007293701171875">
        <ele>165.399993896484375</ele>
        <time>2026-08-13T06:03:35.000Z</time>
        <extensions>
          <ns3:TrackPointExtension>
            <ns3:hr>84</ns3:hr>
            <ns3:cad>45</ns3:cad>
          </ns3:TrackPointExtension>
        </extensions>
      </trkpt>
      <trkpt lat="43.7636540271341800689697265625" lon="1.57808773219585418701171875">
        <ele>165.399993896484375</ele>
        <time>2026-08-13T06:03:36.000Z</time>
        <extensions>
          <ns3:TrackPointExtension>
            <ns3:hr>85</ns3:hr>
            <ns3:cad>44</ns3:cad>
          </ns3:TrackPointExtension>
        </extensions>
      </trkpt>
      <trkpt lat="43.763654194772243499755859375" lon="1.5780684538185596466064453125">
        <ele>165.399993896484375</ele>
        <time>2026-08-13T06:03:37.000Z</time>
        <extensions>
          <ns3:TrackPointExtension>
            <ns3:hr>85</ns3:hr>
            <ns3:cad>44</ns3:cad>
          </ns3:TrackPointExtension>
        </extensions>
      </trkpt>
      <trkpt lat="43.76365914009511470794677734375" lon="1.57805730588734149932861328125">
        <ele>165.1999969482421875</ele>
        <time>2026-08-13T06:03:38.000Z</time>
        <extensions>
          <ns3:TrackPointExtension>
            <ns3:hr>85</ns3:hr>
            <ns3:cad>44</ns3:cad>
          </ns3:TrackPointExtension>
        </extensions>
      </trkpt>
      <trkpt lat="43.76365846954286098480224609375" lon="1.57803718931972980499267578125">
        <ele>165.1999969482421875</ele>
        <time>2026-08-13T06:03:39.000Z</time>
        <extensions>
          <ns3:TrackPointExtension>
            <ns3:hr>85</ns3:hr>
            <ns3:cad>44</ns3:cad>
          </ns3:TrackPointExtension>
        </extensions>
      </trkpt>
      <trkpt lat="43.76365721225738525390625" lon="1.57802294008433818817138671875">
        <ele>165.399993896484375</ele>
        <time>2026-08-13T06:03:40.000Z</time>
        <extensions>
          <ns3:TrackPointExtension>
            <ns3:hr>85</ns3:hr>
            <ns3:cad>44</ns3:cad>
          </ns3:TrackPointExtension>
        </extensions>
      </trkpt>
      <trkpt lat="43.76365779899060726165771484375" lon="1.5780134685337543487548828125">
        <ele>165.399993896484375</ele>
        <time>2026-08-13T06:03:41.000Z</time>
        <extensions>
          <ns3:TrackPointExtension>
            <ns3:hr>84</ns3:hr>
            <ns3:cad>44</ns3:cad>
          </ns3:TrackPointExtension>
        </extensions>
      </trkpt>
      <trkpt lat="43.76366056501865386962890625" lon="1.578000225126743316650390625">
        <ele>165.399993896484375</ele>
        <time>2026-08-13T06:03:42.000Z</time>
        <extensions>
          <ns3:TrackPointExtension>
            <ns3:hr>84</ns3:hr>
            <ns3:cad>44</ns3:cad>
          </ns3:TrackPointExtension>
        </extensions>
      </trkpt>
      <trkpt lat="43.763664923608303070068359375" lon="1.57799385488033294677734375">
        <ele>165.399993896484375</ele>
        <time>2026-08-13T06:03:43.000Z</time>
        <extensions>
          <ns3:TrackPointExtension>
            <ns3:hr>84</ns3:hr>
            <ns3:cad>46</ns3:cad>
          </ns3:TrackPointExtension>
        </extensions>
      </trkpt>
      <trkpt lat="43.7636687792837619781494140625" lon="1.57798488624393939971923828125">
        <ele>165.399993896484375</ele>
        <time>2026-08-13T06:03:44.000Z</time>
        <extensions>
          <ns3:TrackPointExtension>
            <ns3:hr>84</ns3:hr>
            <ns3:cad>46</ns3:cad>
          </ns3:TrackPointExtension>
        </extensions>
      </trkpt>
      <trkpt lat="43.763674311339855194091796875" lon="1.57797348685562610626220703125">
        <ele>165.399993896484375</ele>
        <time>2026-08-13T06:03:45.000Z</time>
        <extensions>
          <ns3:TrackPointExtension>
            <ns3:hr>84</ns3:hr>
            <ns3:cad>46</ns3:cad>
          </ns3:TrackPointExtension>
        </extensions>
      </trkpt>
      <trkpt lat="43.7636788375675678253173828125" lon="1.577962003648281097412109375">
        <ele>165.399993896484375</ele>
        <time>2026-08-13T06:03:46.000Z</time>
        <extensions>
          <ns3:TrackPointExtension>
            <ns3:hr>83</ns3:hr>
            <ns3:cad>44</ns3:cad>
          </ns3:TrackPointExtension>
        </extensions>
      </trkpt>
      <trkpt lat="43.7636821903288364410400390625" lon="1.57795454375445842742919921875">
        <ele>165.399993896484375</ele>
        <time>2026-08-13T06:03:47.000Z</time>
        <extensions>
          <ns3:TrackPointExtension>
            <ns3:hr>84</ns3:hr>
            <ns3:cad>41</ns3:cad>
          </ns3:TrackPointExtension>
        </extensions>
      </trkpt>
      <trkpt lat="43.76368629746139049530029296875" lon="1.57794582657516002655029296875">
        <ele>165.1999969482421875</ele>
        <time>2026-08-13T06:03:48.000Z</time>
        <extensions>
          <ns3:TrackPointExtension>
            <ns3:hr>84</ns3:hr>
            <ns3:cad>40</ns3:cad>
          </ns3:TrackPointExtension>
        </extensions>
      </trkpt>
      <trkpt lat="43.7636952660977840423583984375" lon="1.57792956568300724029541015625">
        <ele>165.1999969482421875</ele>
        <time>2026-08-13T06:03:49.000Z</time>
        <extensions>
          <ns3:TrackPointExtension>
            <ns3:hr>84</ns3:hr>
            <ns3:cad>40</ns3:cad>
          </ns3:TrackPointExtension>
        </extensions>
      </trkpt>
      <trkpt lat="43.7636979483067989349365234375" lon="1.57791397534310817718505859375">
        <ele>165.1999969482421875</ele>
        <time>2026-08-13T06:03:50.000Z</time>
        <extensions>
          <ns3:TrackPointExtension>
            <ns3:hr>84</ns3:hr>
            <ns3:cad>40</ns3:cad>
          </ns3:TrackPointExtension>
        </extensions>
      </trkpt>
      <trkpt lat="43.76370356418192386627197265625" lon="1.57790257595479488372802734375">
        <ele>165</ele>
        <time>2026-08-13T06:03:51.000Z</time>
        <extensions>
          <ns3:TrackPointExtension>
            <ns3:hr>84</ns3:hr>
            <ns3:cad>40</ns3:cad>
          </ns3:TrackPointExtension>
        </extensions>
      </trkpt>
      <trkpt lat="43.76370859332382678985595703125" lon="1.5778894163668155670166015625">
        <ele>165</ele>
        <time>2026-08-13T06:03:52.000Z</time>
        <extensions>
          <ns3:TrackPointExtension>
            <ns3:hr>84</ns3:hr>
            <ns3:cad>48</ns3:cad>
          </ns3:TrackPointExtension>
        </extensions>
      </trkpt>
      <trkpt lat="43.76371630467474460601806640625" lon="1.57787759788334369659423828125">
        <ele>165</ele>
        <time>2026-08-13T06:03:53.000Z</time>
        <extensions>
          <ns3:TrackPointExtension>
            <ns3:hr>85</ns3:hr>
            <ns3:cad>48</ns3:cad>
          </ns3:TrackPointExtension>
        </extensions>
      </trkpt>
      <trkpt lat="43.7637237645685672760009765625" lon="1.57786703668534755706787109375">
        <ele>165</ele>
        <time>2026-08-13T06:03:54.000Z</time>
        <extensions>
          <ns3:TrackPointExtension>
            <ns3:hr>85</ns3:hr>
            <ns3:cad>48</ns3:cad>
          </ns3:TrackPointExtension>
        </extensions>
      </trkpt>
      <trkpt lat="43.76373005099594593048095703125" lon="1.5778644382953643798828125">
        <ele>165</ele>
        <time>2026-08-13T06:03:55.000Z</time>
        <extensions>
          <ns3:TrackPointExtension>
            <ns3:hr>85</ns3:hr>
            <ns3:cad>48</ns3:cad>
          </ns3:TrackPointExtension>
        </extensions>
      </trkpt>
      <trkpt lat="43.76373491249978542327880859375" lon="1.5778563916683197021484375">
        <ele>165</ele>
        <time>2026-08-13T06:03:56.000Z</time>
        <extensions>
          <ns3:TrackPointExtension>
            <ns3:hr>85</ns3:hr>
            <ns3:cad>48</ns3:cad>
          </ns3:TrackPointExtension>
        </extensions>
      </trkpt>
      <trkpt lat="43.7637418694794178009033203125" lon="1.57784440554678440093994140625">
        <ele>165</ele>
        <time>2026-08-13T06:03:57.000Z</time>
        <extensions>
          <ns3:TrackPointExtension>
            <ns3:hr>84</ns3:hr>
            <ns3:cad>44</ns3:cad>
          </ns3:TrackPointExtension>
        </extensions>
      </trkpt>
      <trkpt lat="43.763744048774242401123046875" lon="1.57783116213977336883544921875">
        <ele>165</ele>
        <time>2026-08-13T06:03:58.000Z</time>
        <extensions>
          <ns3:TrackPointExtension>
            <ns3:hr>84</ns3:hr>
            <ns3:cad>44</ns3:cad>
          </ns3:TrackPointExtension>
        </extensions>
      </trkpt>
      <trkpt lat="43.7637448869645595550537109375" lon="1.57782353460788726806640625">
        <ele>165</ele>
        <time>2026-08-13T06:03:59.000Z</time>
        <extensions>
          <ns3:TrackPointExtension>
            <ns3:hr>84</ns3:hr>
            <ns3:cad>44</ns3:cad>
          </ns3:TrackPointExtension>
        </extensions>
      </trkpt>
      <trkpt lat="43.76374463550746440887451171875" lon="1.57781414687633514404296875">
        <ele>165</ele>
        <time>2026-08-13T06:04:00.000Z</time>
        <extensions>
          <ns3:TrackPointExtension>
            <ns3:hr>84</ns3:hr>
            <ns3:cad>43</ns3:cad>
          </ns3:TrackPointExtension>
        </extensions>
      </trkpt>
      <trkpt lat="43.76374077983200550079345703125" lon="1.57780744135379791259765625">
        <ele>165.1999969482421875</ele>
        <time>2026-08-13T06:04:01.000Z</time>
        <extensions>
          <ns3:TrackPointExtension>
            <ns3:hr>84</ns3:hr>
            <ns3:cad>0</ns3:cad>
          </ns3:TrackPointExtension>
        </extensions>
      </trkpt>
      <trkpt lat="43.76373977400362491607666015625" lon="1.5777992270886898040771484375">
        <ele>165.1999969482421875</ele>
        <time>2026-08-13T06:04:02.000Z</time>
        <extensions>
          <ns3:TrackPointExtension>
            <ns3:hr>84</ns3:hr>
            <ns3:cad>0</ns3:cad>
          </ns3:TrackPointExtension>
        </extensions>
      </trkpt>
      <trkpt lat="43.7637395225465297698974609375" lon="1.57778891734778881072998046875">
        <ele>165.1999969482421875</ele>
        <time>2026-08-13T06:04:03.000Z</time>
        <extensions>
          <ns3:TrackPointExtension>
            <ns3:hr>84</ns3:hr>
            <ns3:cad>0</ns3:cad>
          </ns3:TrackPointExtension>
        </extensions>
      </trkpt>
      <trkpt lat="43.76373298466205596923828125" lon="1.57777869142591953277587890625">
        <ele>165.1999969482421875</ele>
        <time>2026-08-13T06:04:04.000Z</time>
        <extensions>
          <ns3:TrackPointExtension>
            <ns3:hr>84</ns3:hr>
            <ns3:cad>43</ns3:cad>
          </ns3:TrackPointExtension>
        </extensions>
      </trkpt>
      <trkpt lat="43.7637274526059627532958984375" lon="1.57776947133243083953857421875">
        <ele>165.1999969482421875</ele>
        <time>2026-08-13T06:04:05.000Z</time>
        <extensions>
          <ns3:TrackPointExtension>
            <ns3:hr>84</ns3:hr>
            <ns3:cad>43</ns3:cad>
          </ns3:TrackPointExtension>
        </extensions>
      </trkpt>
      <trkpt lat="43.76372250728309154510498046875" lon="1.577772907912731170654296875">
        <ele>165.1999969482421875</ele>
        <time>2026-08-13T06:04:06.000Z</time>
        <extensions>
          <ns3:TrackPointExtension>
            <ns3:hr>83</ns3:hr>
            <ns3:cad>43</ns3:cad>
          </ns3:TrackPointExtension>
        </extensions>
      </trkpt>
      <trkpt lat="43.7637130357325077056884765625" lon="1.57775555737316608428955078125">
        <ele>165.1999969482421875</ele>
        <time>2026-08-13T06:04:07.000Z</time>
        <extensions>
          <ns3:TrackPointExtension>
            <ns3:hr>84</ns3:hr>
            <ns3:cad>43</ns3:cad>
          </ns3:TrackPointExtension>
        </extensions>
      </trkpt>
      <trkpt lat="43.76370741985738277435302734375" lon="1.57774315215647220611572265625">
        <ele>165.1999969482421875</ele>
        <time>2026-08-13T06:04:08.000Z</time>
        <extensions>
          <ns3:TrackPointExtension>
            <ns3:hr>84</ns3:hr>
            <ns3:cad>77</ns3:cad>
          </ns3:TrackPointExtension>
        </extensions>
      </trkpt>
      <trkpt lat="43.76370222307741641998291015625" lon="1.57773007638752460479736328125">
        <ele>165.1999969482421875</ele>
        <time>2026-08-13T06:04:09.000Z</time>
        <extensions>
          <ns3:TrackPointExtension>
            <ns3:hr>84</ns3:hr>
            <ns3:cad>77</ns3:cad>
          </ns3:TrackPointExtension>
        </extensions>
      </trkpt>
      <trkpt lat="43.7636976130306720733642578125" lon="1.577717252075672149658203125">
        <ele>165.399993896484375</ele>
        <time>2026-08-13T06:04:10.000Z</time>
        <extensions>
          <ns3:TrackPointExtension>
            <ns3:hr>85</ns3:hr>
            <ns3:cad>77</ns3:cad>
          </ns3:TrackPointExtension>
        </extensions>
      </trkpt>
      <trkpt lat="43.76369115896522998809814453125" lon="1.57770560123026371002197265625">
        <ele>165.399993896484375</ele>
        <time>2026-08-13T06:04:11.000Z</time>
        <extensions>
          <ns3:TrackPointExtension>
            <ns3:hr>86</ns3:hr>
            <ns3:cad>77</ns3:cad>
          </ns3:TrackPointExtension>
        </extensions>
      </trkpt>
      <trkpt lat="43.76368227414786815643310546875" lon="1.5776919387280941009521484375">
        <ele>165.600006103515625</ele>
        <time>2026-08-13T06:04:12.000Z</time>
        <extensions>
          <ns3:TrackPointExtension>
            <ns3:hr>86</ns3:hr>
            <ns3:cad>77</ns3:cad>
          </ns3:TrackPointExtension>
        </extensions>
      </trkpt>
      <trkpt lat="43.76367825083434581756591796875" lon="1.5776808746159076690673828125">
        <ele>165.600006103515625</ele>
        <time>2026-08-13T06:04:13.000Z</time>
        <extensions>
          <ns3:TrackPointExtension>
            <ns3:hr>86</ns3:hr>
            <ns3:cad>46</ns3:cad>
          </ns3:TrackPointExtension>
        </extensions>
      </trkpt>
      <trkpt lat="43.76367137767374515533447265625" lon="1.577669642865657806396484375">
        <ele>165.600006103515625</ele>
        <time>2026-08-13T06:04:14.000Z</time>
        <extensions>
          <ns3:TrackPointExtension>
            <ns3:hr>87</ns3:hr>
            <ns3:cad>46</ns3:cad>
          </ns3:TrackPointExtension>
        </extensions>
      </trkpt>
      <trkpt lat="43.7636687792837619781494140625" lon="1.57766033895313739776611328125">
        <ele>165.600006103515625</ele>
        <time>2026-08-13T06:04:15.000Z</time>
        <extensions>
          <ns3:TrackPointExtension>
            <ns3:hr>87</ns3:hr>
            <ns3:cad>46</ns3:cad>
          </ns3:TrackPointExtension>
        </extensions>
      </trkpt>
      <trkpt lat="43.7636627443134784698486328125" lon="1.57765011303126811981201171875">
        <ele>165.600006103515625</ele>
        <time>2026-08-13T06:04:16.000Z</time>
        <extensions>
          <ns3:TrackPointExtension>
            <ns3:hr>87</ns3:hr>
            <ns3:cad>47</ns3:cad>
          </ns3:TrackPointExtension>
        </extensions>
      </trkpt>
      <trkpt lat="43.76365545205771923065185546875" lon="1.5776362828910350799560546875">
        <ele>165.600006103515625</ele>
        <time>2026-08-13T06:04:17.000Z</time>
        <extensions>
          <ns3:TrackPointExtension>
            <ns3:hr>87</ns3:hr>
            <ns3:cad>47</ns3:cad>
          </ns3:TrackPointExtension>
        </extensions>
      </trkpt>
      <trkpt lat="43.7636505067348480224609375" lon="1.577629409730434417724609375">
        <ele>165.399993896484375</ele>
        <time>2026-08-13T06:04:18.000Z</time>
        <extensions>
          <ns3:TrackPointExtension>
            <ns3:hr>88</ns3:hr>
            <ns3:cad>47</ns3:cad>
          </ns3:TrackPointExtension>
        </extensions>
      </trkpt>
      <trkpt lat="43.7636451423168182373046875" lon="1.57761457376182079315185546875">
        <ele>165.399993896484375</ele>
        <time>2026-08-13T06:04:19.000Z</time>
        <extensions>
          <ns3:TrackPointExtension>
            <ns3:hr>88</ns3:hr>
            <ns3:cad>47</ns3:cad>
          </ns3:TrackPointExtension>
        </extensions>
      </trkpt>
      <trkpt lat="43.7636382691562175750732421875" lon="1.5775997377932071685791015625">
        <ele>165.399993896484375</ele>
        <time>2026-08-13T06:04:20.000Z</time>
        <extensions>
          <ns3:TrackPointExtension>
            <ns3:hr>89</ns3:hr>
            <ns3:cad>47</ns3:cad>
          </ns3:TrackPointExtension>
        </extensions>
      </trkpt>
      <trkpt lat="43.7636375986039638519287109375" lon="1.57758892513811588287353515625">
        <ele>165.399993896484375</ele>
        <time>2026-08-13T06:04:21.000Z</time>
        <extensions>
          <ns3:TrackPointExtension>
            <ns3:hr>89</ns3:hr>
            <ns3:cad>45</ns3:cad>
          </ns3:TrackPointExtension>
        </extensions>
      </trkpt>
      <trkpt lat="43.76363466493785381317138671875" lon="1.577567718923091888427734375">
        <ele>165.399993896484375</ele>
        <time>2026-08-13T06:04:22.000Z</time>
        <extensions>
          <ns3:TrackPointExtension>
            <ns3:hr>90</ns3:hr>
            <ns3:cad>45</ns3:cad>
          </ns3:TrackPointExtension>
        </extensions>
      </trkpt>
      <trkpt lat="43.763631395995616912841796875" lon="1.5775551460683345794677734375">
        <ele>165.600006103515625</ele>
        <time>2026-08-13T06:04:23.000Z</time>
        <extensions>
          <ns3:TrackPointExtension>
            <ns3:hr>91</ns3:hr>
            <ns3:cad>44</ns3:cad>
          </ns3:TrackPointExtension>
        </extensions>
      </trkpt>
      <trkpt lat="43.76362343318760395050048828125" lon="1.5775400586426258087158203125">
        <ele>165.600006103515625</ele>
        <time>2026-08-13T06:04:24.000Z</time>
        <extensions>
          <ns3:TrackPointExtension>
            <ns3:hr>92</ns3:hr>
            <ns3:cad>43</ns3:cad>
          </ns3:TrackPointExtension>
        </extensions>
      </trkpt>
      <trkpt lat="43.76361890695989131927490234375" lon="1.57753025181591510772705078125">
        <ele>165.600006103515625</ele>
        <time>2026-08-13T06:04:25.000Z</time>
        <extensions>
          <ns3:TrackPointExtension>
            <ns3:hr>91</ns3:hr>
            <ns3:cad>43</ns3:cad>
          </ns3:TrackPointExtension>
        </extensions>
      </trkpt>
      <trkpt lat="43.76361488364636898040771484375" lon="1.57752421684563159942626953125">
        <ele>165.600006103515625</ele>
        <time>2026-08-13T06:04:26.000Z</time>
        <extensions>
          <ns3:TrackPointExtension>
            <ns3:hr>91</ns3:hr>
            <ns3:cad>43</ns3:cad>
          </ns3:TrackPointExtension>
        </extensions>
      </trkpt>
      <trkpt lat="43.7636102735996246337890625" lon="1.57750896178185939788818359375">
        <ele>165.600006103515625</ele>
        <time>2026-08-13T06:04:27.000Z</time>
        <extensions>
          <ns3:TrackPointExtension>
            <ns3:hr>90</ns3:hr>
            <ns3:cad>43</ns3:cad>
          </ns3:TrackPointExtension>
        </extensions>
      </trkpt>
      <trkpt lat="43.7636030651628971099853515625" lon="1.57750594429671764373779296875">
        <ele>165.600006103515625</ele>
        <time>2026-08-13T06:04:28.000Z</time>
        <extensions>
          <ns3:TrackPointExtension>
            <ns3:hr>88</ns3:hr>
            <ns3:cad>43</ns3:cad>
          </ns3:TrackPointExtension>
        </extensions>
      </trkpt>
      <trkpt lat="43.76359962858259677886962890625" lon="1.5774958021938800811767578125">
        <ele>165.600006103515625</ele>
        <time>2026-08-13T06:04:29.000Z</time>
        <extensions>
          <ns3:TrackPointExtension>
            <ns3:hr>87</ns3:hr>
            <ns3:cad>43</ns3:cad>
          </ns3:TrackPointExtension>
        </extensions>
      </trkpt>
      <trkpt lat="43.76359677873551845550537109375" lon="1.5774833969771862030029296875">
        <ele>165.600006103515625</ele>
        <time>2026-08-13T06:04:30.000Z</time>
        <extensions>
          <ns3:TrackPointExtension>
            <ns3:hr>87</ns3:hr>
            <ns3:cad>0</ns3:cad>
          </ns3:TrackPointExtension>
        </extensions>
      </trkpt>
      <trkpt lat="43.76359325833618640899658203125" lon="1.5774669684469699859619140625">
        <ele>165.8000030517578125</ele>
        <time>2026-08-13T06:04:31.000Z</time>
        <extensions>
          <ns3:TrackPointExtension>
            <ns3:hr>87</ns3:hr>
            <ns3:cad>0</ns3:cad>
          </ns3:TrackPointExtension>
        </extensions>
      </trkpt>
      <trkpt lat="43.76358957029879093170166015625" lon="1.57745615579187870025634765625">
        <ele>165.8000030517578125</ele>
        <time>2026-08-13T06:04:32.000Z</time>
        <extensions>
          <ns3:TrackPointExtension>
            <ns3:hr>87</ns3:hr>
            <ns3:cad>0</ns3:cad>
          </ns3:TrackPointExtension>
        </extensions>
      </trkpt>
      <trkpt lat="43.76358604989945888519287109375" lon="1.57744358293712139129638671875">
        <ele>165.8000030517578125</ele>
        <time>2026-08-13T06:04:33.000Z</time>
        <extensions>
          <ns3:TrackPointExtension>
            <ns3:hr>87</ns3:hr>
            <ns3:cad>79</ns3:cad>
          </ns3:TrackPointExtension>
        </extensions>
      </trkpt>
      <trkpt lat="43.76357397995889186859130859375" lon="1.5774460136890411376953125">
        <ele>165.8000030517578125</ele>
        <time>2026-08-13T06:04:34.000Z</time>
        <extensions>
          <ns3:TrackPointExtension>
            <ns3:hr>87</ns3:hr>
            <ns3:cad>79</ns3:cad>
          </ns3:TrackPointExtension>
        </extensions>
      </trkpt>
      <trkpt lat="43.76356610096991062164306640625" lon="1.57743872143328189849853515625">
        <ele>166</ele>
        <time>2026-08-13T06:04:35.000Z</time>
        <extensions>
          <ns3:TrackPointExtension>
            <ns3:hr>87</ns3:hr>
            <ns3:cad>75</ns3:cad>
          </ns3:TrackPointExtension>
        </extensions>
      </trkpt>
      <trkpt lat="43.76355864107608795166015625" lon="1.57742933370172977447509765625">
        <ele>166</ele>
        <time>2026-08-13T06:04:36.000Z</time>
        <extensions>
          <ns3:TrackPointExtension>
            <ns3:hr>87</ns3:hr>
            <ns3:cad>75</ns3:cad>
          </ns3:TrackPointExtension>
        </extensions>
      </trkpt>
      <trkpt lat="43.76355034299194812774658203125" lon="1.57741994597017765045166015625">
        <ele>166</ele>
        <time>2026-08-13T06:04:37.000Z</time>
        <extensions>
          <ns3:TrackPointExtension>
            <ns3:hr>88</ns3:hr>
            <ns3:cad>75</ns3:cad>
          </ns3:TrackPointExtension>
        </extensions>
      </trkpt>
      <trkpt lat="43.76354296691715717315673828125" lon="1.5774042718112468719482421875">
        <ele>166</ele>
        <time>2026-08-13T06:04:38.000Z</time>
        <extensions>
          <ns3:TrackPointExtension>
            <ns3:hr>88</ns3:hr>
            <ns3:cad>75</ns3:cad>
          </ns3:TrackPointExtension>
        </extensions>
      </trkpt>
      <trkpt lat="43.763537518680095672607421875" lon="1.57739396207034587860107421875">
        <ele>166</ele>
        <time>2026-08-13T06:04:39.000Z</time>
        <extensions>
          <ns3:TrackPointExtension>
            <ns3:hr>88</ns3:hr>
            <ns3:cad>75</ns3:cad>
          </ns3:TrackPointExtension>
        </extensions>
      </trkpt>
      <trkpt lat="43.7635326571762561798095703125" lon="1.5773787908256053924560546875">
        <ele>166.1999969482421875</ele>
        <time>2026-08-13T06:04:40.000Z</time>
        <extensions>
          <ns3:TrackPointExtension>
            <ns3:hr>88</ns3:hr>
            <ns3:cad>75</ns3:cad>
          </ns3:TrackPointExtension>
        </extensions>
      </trkpt>
      <trkpt lat="43.76352570019662380218505859375" lon="1.5773670561611652374267578125">
        <ele>166.1999969482421875</ele>
        <time>2026-08-13T06:04:41.000Z</time>
        <extensions>
          <ns3:TrackPointExtension>
            <ns3:hr>88</ns3:hr>
            <ns3:cad>75</ns3:cad>
          </ns3:TrackPointExtension>
        </extensions>
      </trkpt>
      <trkpt lat="43.763516731560230255126953125" lon="1.5773516334593296051025390625">
        <ele>166.1999969482421875</ele>
        <time>2026-08-13T06:04:42.000Z</time>
        <extensions>
          <ns3:TrackPointExtension>
            <ns3:hr>89</ns3:hr>
            <ns3:cad>41</ns3:cad>
          </ns3:TrackPointExtension>
        </extensions>
      </trkpt>
      <trkpt lat="43.7635135464370250701904296875" lon="1.5773414075374603271484375">
        <ele>166.1999969482421875</ele>
        <time>2026-08-13T06:04:43.000Z</time>
        <extensions>
          <ns3:TrackPointExtension>
            <ns3:hr>89</ns3:hr>
            <ns3:cad>41</ns3:cad>
          </ns3:TrackPointExtension>
        </extensions>
      </trkpt>
      <trkpt lat="43.76351145096123218536376953125" lon="1.5773358754813671112060546875">
        <ele>166.399993896484375</ele>
        <time>2026-08-13T06:04:44.000Z</time>
        <extensions>
          <ns3:TrackPointExtension>
            <ns3:hr>90</ns3:hr>
            <ns3:cad>42</ns3:cad>
          </ns3:TrackPointExtension>
        </extensions>
      </trkpt>
      <trkpt lat="43.76351010985672473907470703125" lon="1.57731969840824604034423828125">
        <ele>166.399993896484375</ele>
        <time>2026-08-13T06:04:45.000Z</time>
        <extensions>
          <ns3:TrackPointExtension>
            <ns3:hr>90</ns3:hr>
            <ns3:cad>42</ns3:cad>
          </ns3:TrackPointExtension>
        </extensions>
      </trkpt>
      <trkpt lat="43.7635061703622341156005859375" lon="1.5773090533912181854248046875">
        <ele>166.399993896484375</ele>
        <time>2026-08-13T06:04:46.000Z</time>
        <extensions>
          <ns3:TrackPointExtension>
            <ns3:hr>90</ns3:hr>
            <ns3:cad>42</ns3:cad>
          </ns3:TrackPointExtension>
        </extensions>
      </trkpt>
      <trkpt lat="43.76350038684904575347900390625" lon="1.57730410806834697723388671875">
        <ele>166.399993896484375</ele>
        <time>2026-08-13T06:04:47.000Z</time>
        <extensions>
          <ns3:TrackPointExtension>
            <ns3:hr>91</ns3:hr>
            <ns3:cad>42</ns3:cad>
          </ns3:TrackPointExtension>
        </extensions>
      </trkpt>
      <trkpt lat="43.76349351368844509124755859375" lon="1.5772919543087482452392578125">
        <ele>166.600006103515625</ele>
        <time>2026-08-13T06:04:48.000Z</time>
        <extensions>
          <ns3:TrackPointExtension>
            <ns3:hr>91</ns3:hr>
            <ns3:cad>42</ns3:cad>
          </ns3:TrackPointExtension>
        </extensions>
      </trkpt>
      <trkpt lat="43.76348580233752727508544921875" lon="1.5772815607488155364990234375">
        <ele>166.600006103515625</ele>
        <time>2026-08-13T06:04:49.000Z</time>
        <extensions>
          <ns3:TrackPointExtension>
            <ns3:hr>91</ns3:hr>
            <ns3:cad>42</ns3:cad>
          </ns3:TrackPointExtension>
        </extensions>
      </trkpt>
      <trkpt lat="43.76348353922367095947265625" lon="1.577275358140468597412109375">
        <ele>166.600006103515625</ele>
        <time>2026-08-13T06:04:50.000Z</time>
        <extensions>
          <ns3:TrackPointExtension>
            <ns3:hr>91</ns3:hr>
            <ns3:cad>43</ns3:cad>
          </ns3:TrackPointExtension>
        </extensions>
      </trkpt>
      <trkpt lat="43.76348060555756092071533203125" lon="1.57725934870541095733642578125">
        <ele>166.8000030517578125</ele>
        <time>2026-08-13T06:04:51.000Z</time>
        <extensions>
          <ns3:TrackPointExtension>
            <ns3:hr>91</ns3:hr>
            <ns3:cad>43</ns3:cad>
          </ns3:TrackPointExtension>
        </extensions>
      </trkpt>
      <trkpt lat="43.763474486768245697021484375" lon="1.5772507153451442718505859375">
        <ele>166.8000030517578125</ele>
        <time>2026-08-13T06:04:52.000Z</time>
        <extensions>
          <ns3:TrackPointExtension>
            <ns3:hr>91</ns3:hr>
            <ns3:cad>42</ns3:cad>
          </ns3:TrackPointExtension>
        </extensions>
      </trkpt>
      <trkpt lat="43.7634702958166599273681640625" lon="1.57724007032811641693115234375">
        <ele>166.8000030517578125</ele>
        <time>2026-08-13T06:04:53.000Z</time>
        <extensions>
          <ns3:TrackPointExtension>
            <ns3:hr>91</ns3:hr>
            <ns3:cad>42</ns3:cad>
          </ns3:TrackPointExtension>
        </extensions>
      </trkpt>
      <trkpt lat="43.7634676136076450347900390625" lon="1.57723252661526203155517578125">
        <ele>167</ele>
        <time>2026-08-13T06:04:54.000Z</time>
        <extensions>
          <ns3:TrackPointExtension>
            <ns3:hr>91</ns3:hr>
            <ns3:cad>41</ns3:cad>
          </ns3:TrackPointExtension>
        </extensions>
      </trkpt>
      <trkpt lat="43.7634600698947906494140625" lon="1.5772155113518238067626953125">
        <ele>167</ele>
        <time>2026-08-13T06:04:55.000Z</time>
        <extensions>
          <ns3:TrackPointExtension>
            <ns3:hr>92</ns3:hr>
            <ns3:cad>41</ns3:cad>
          </ns3:TrackPointExtension>
        </extensions>
      </trkpt>
      <trkpt lat="43.76345596276223659515380859375" lon="1.577204279601573944091796875">
        <ele>167</ele>
        <time>2026-08-13T06:04:56.000Z</time>
        <extensions>
          <ns3:TrackPointExtension>
            <ns3:hr>92</ns3:hr>
            <ns3:cad>42</ns3:cad>
          </ns3:TrackPointExtension>
        </extensions>
      </trkpt>
      <trkpt lat="43.76345160417258739471435546875" lon="1.57719589769840240478515625">
        <ele>167.1999969482421875</ele>
        <time>2026-08-13T06:04:57.000Z</time>
        <extensions>
          <ns3:TrackPointExtension>
            <ns3:hr>92</ns3:hr>
            <ns3:cad>43</ns3:cad>
          </ns3:TrackPointExtension>
        </extensions>
      </trkpt>
      <trkpt lat="43.76344598829746246337890625" lon="1.577181480824947357177734375">
        <ele>167.1999969482421875</ele>
        <time>2026-08-13T06:04:58.000Z</time>
        <extensions>
          <ns3:TrackPointExtension>
            <ns3:hr>92</ns3:hr>
            <ns3:cad>43</ns3:cad>
          </ns3:TrackPointExtension>
        </extensions>
      </trkpt>
      <trkpt lat="43.76343785785138607025146484375" lon="1.5771689079701900482177734375">
        <ele>167.1999969482421875</ele>
        <time>2026-08-13T06:04:59.000Z</time>
        <extensions>
          <ns3:TrackPointExtension>
            <ns3:hr>92</ns3:hr>
            <ns3:cad>40</ns3:cad>
          </ns3:TrackPointExtension>
        </extensions>
      </trkpt>
      <trkpt lat="43.7634334154427051544189453125" lon="1.57715876586735248565673828125">
        <ele>167.399993896484375</ele>
        <time>2026-08-13T06:05:00.000Z</time>
        <extensions>
          <ns3:TrackPointExtension>
            <ns3:hr>92</ns3:hr>
            <ns3:cad>40</ns3:cad>
          </ns3:TrackPointExtension>
        </extensions>
      </trkpt>
      <trkpt lat="43.76342863775789737701416015625" lon="1.57714501954615116119384765625">
        <ele>167.399993896484375</ele>
        <time>2026-08-13T06:05:01.000Z</time>
        <extensions>
          <ns3:TrackPointExtension>
            <ns3:hr>93</ns3:hr>
            <ns3:cad>40</ns3:cad>
          </ns3:TrackPointExtension>
        </extensions>
      </trkpt>
      <trkpt lat="43.76342042349278926849365234375" lon="1.5771343745291233062744140625">
        <ele>167.399993896484375</ele>
        <time>2026-08-13T06:05:02.000Z</time>
        <extensions>
          <ns3:TrackPointExtension>
            <ns3:hr>93</ns3:hr>
            <ns3:cad>42</ns3:cad>
          </ns3:TrackPointExtension>
        </extensions>
      </trkpt>
      <trkpt lat="43.763413466513156890869140625" lon="1.5771266631782054901123046875">
        <ele>167.399993896484375</ele>
        <time>2026-08-13T06:05:03.000Z</time>
        <extensions>
          <ns3:TrackPointExtension>
            <ns3:hr>93</ns3:hr>
            <ns3:cad>42</ns3:cad>
          </ns3:TrackPointExtension>
        </extensions>
      </trkpt>
      <trkpt lat="43.76341254450380802154541015625" lon="1.5771169401705265045166015625">
        <ele>167.600006103515625</ele>
        <time>2026-08-13T06:05:04.000Z</time>
        <extensions>
          <ns3:TrackPointExtension>
            <ns3:hr>93</ns3:hr>
            <ns3:cad>42</ns3:cad>
          </ns3:TrackPointExtension>
        </extensions>
      </trkpt>
      <trkpt lat="43.7634109519422054290771484375" lon="1.5771041996777057647705078125">
        <ele>167.600006103515625</ele>
        <time>2026-08-13T06:05:05.000Z</time>
        <extensions>
          <ns3:TrackPointExtension>
            <ns3:hr>94</ns3:hr>
            <ns3:cad>43</ns3:cad>
          </ns3:TrackPointExtension>
        </extensions>
      </trkpt>
      <trkpt lat="43.76340483315289020538330078125" lon="1.57709338702261447906494140625">
        <ele>167.600006103515625</ele>
        <time>2026-08-13T06:05:06.000Z</time>
        <extensions>
          <ns3:TrackPointExtension>
            <ns3:hr>94</ns3:hr>
            <ns3:cad>43</ns3:cad>
          </ns3:TrackPointExtension>
        </extensions>
      </trkpt>
      <trkpt lat="43.76340173184871673583984375" lon="1.57708802260458469390869140625">
        <ele>167.600006103515625</ele>
        <time>2026-08-13T06:05:07.000Z</time>
        <extensions>
          <ns3:TrackPointExtension>
            <ns3:hr>94</ns3:hr>
            <ns3:cad>43</ns3:cad>
          </ns3:TrackPointExtension>
        </extensions>
      </trkpt>
      <trkpt lat="43.76339645124971866607666015625" lon="1.5770753659307956695556640625">
        <ele>167.8000030517578125</ele>
        <time>2026-08-13T06:05:08.000Z</time>
        <extensions>
          <ns3:TrackPointExtension>
            <ns3:hr>94</ns3:hr>
            <ns3:cad>43</ns3:cad>
          </ns3:TrackPointExtension>
        </extensions>
      </trkpt>
      <trkpt lat="43.76339041627943515777587890625" lon="1.57706673257052898406982421875">
        <ele>167.8000030517578125</ele>
        <time>2026-08-13T06:05:09.000Z</time>
        <extensions>
          <ns3:TrackPointExtension>
            <ns3:hr>95</ns3:hr>
            <ns3:cad>43</ns3:cad>
          </ns3:TrackPointExtension>
        </extensions>
      </trkpt>
      <trkpt lat="43.76338438130915164947509765625" lon="1.57705415971577167510986328125">
        <ele>167.8000030517578125</ele>
        <time>2026-08-13T06:05:10.000Z</time>
        <extensions>
          <ns3:TrackPointExtension>
            <ns3:hr>95</ns3:hr>
            <ns3:cad>43</ns3:cad>
          </ns3:TrackPointExtension>
        </extensions>
      </trkpt>
      <trkpt lat="43.7633787654340267181396484375" lon="1.57704376615583896636962890625">
        <ele>168</ele>
        <time>2026-08-13T06:05:11.000Z</time>
        <extensions>
          <ns3:TrackPointExtension>
            <ns3:hr>95</ns3:hr>
            <ns3:cad>43</ns3:cad>
          </ns3:TrackPointExtension>
        </extensions>
      </trkpt>
      <trkpt lat="43.76337231136858463287353515625" lon="1.5770324505865573883056640625">
        <ele>168</ele>
        <time>2026-08-13T06:05:12.000Z</time>
        <extensions>
          <ns3:TrackPointExtension>
            <ns3:hr>96</ns3:hr>
            <ns3:cad>42</ns3:cad>
          </ns3:TrackPointExtension>
        </extensions>
      </trkpt>
      <trkpt lat="43.76336812041699886322021484375" lon="1.57702582888305187225341796875">
        <ele>168</ele>
        <time>2026-08-13T06:05:13.000Z</time>
        <extensions>
          <ns3:TrackPointExtension>
            <ns3:hr>96</ns3:hr>
            <ns3:cad>41</ns3:cad>
          </ns3:TrackPointExtension>
        </extensions>
      </trkpt>
      <trkpt lat="43.76336552202701568603515625" lon="1.5770200453698635101318359375">
        <ele>168.1999969482421875</ele>
        <time>2026-08-13T06:05:14.000Z</time>
        <extensions>
          <ns3:TrackPointExtension>
            <ns3:hr>96</ns3:hr>
            <ns3:cad>40</ns3:cad>
          </ns3:TrackPointExtension>
        </extensions>
      </trkpt>
      <trkpt lat="43.763357140123844146728515625" lon="1.57700680196285247802734375">
        <ele>168.1999969482421875</ele>
        <time>2026-08-13T06:05:15.000Z</time>
        <extensions>
          <ns3:TrackPointExtension>
            <ns3:hr>95</ns3:hr>
            <ns3:cad>40</ns3:cad>
          </ns3:TrackPointExtension>
        </extensions>
      </trkpt>
      <trkpt lat="43.763349764049053192138671875" lon="1.57699406147003173828125">
        <ele>168.1999969482421875</ele>
        <time>2026-08-13T06:05:16.000Z</time>
        <extensions>
          <ns3:TrackPointExtension>
            <ns3:hr>94</ns3:hr>
            <ns3:cad>41</ns3:cad>
          </ns3:TrackPointExtension>
        </extensions>
      </trkpt>
      <trkpt lat="43.76334599219262599945068359375" lon="1.57699012197554111480712890625">
        <ele>168.399993896484375</ele>
        <time>2026-08-13T06:05:17.000Z</time>
        <extensions>
          <ns3:TrackPointExtension>
            <ns3:hr>93</ns3:hr>
            <ns3:cad>41</ns3:cad>
          </ns3:TrackPointExtension>
        </extensions>
      </trkpt>
      <trkpt lat="43.7633388675749301910400390625" lon="1.5769778005778789520263671875">
        <ele>168.399993896484375</ele>
        <time>2026-08-13T06:05:18.000Z</time>
        <extensions>
          <ns3:TrackPointExtension>
            <ns3:hr>92</ns3:hr>
            <ns3:cad>41</ns3:cad>
          </ns3:TrackPointExtension>
        </extensions>
      </trkpt>
      <trkpt lat="43.76332922838628292083740234375" lon="1.5769674070179462432861328125">
        <ele>168.399993896484375</ele>
        <time>2026-08-13T06:05:19.000Z</time>
        <extensions>
          <ns3:TrackPointExtension>
            <ns3:hr>92</ns3:hr>
            <ns3:cad>41</ns3:cad>
          </ns3:TrackPointExtension>
        </extensions>
      </trkpt>
      <trkpt lat="43.7633251212537288665771484375" lon="1.576958857476711273193359375">
        <ele>168.600006103515625</ele>
        <time>2026-08-13T06:05:20.000Z</time>
        <extensions>
          <ns3:TrackPointExtension>
            <ns3:hr>91</ns3:hr>
            <ns3:cad>41</ns3:cad>
          </ns3:TrackPointExtension>
        </extensions>
      </trkpt>
      <trkpt lat="43.763318248093128204345703125" lon="1.576948128640651702880859375">
        <ele>168.600006103515625</ele>
        <time>2026-08-13T06:05:21.000Z</time>
        <extensions>
          <ns3:TrackPointExtension>
            <ns3:hr>92</ns3:hr>
            <ns3:cad>42</ns3:cad>
          </ns3:TrackPointExtension>
        </extensions>
      </trkpt>
      <trkpt lat="43.76330793835222721099853515625" lon="1.5769315324723720550537109375">
        <ele>168.600006103515625</ele>
        <time>2026-08-13T06:05:22.000Z</time>
        <extensions>
          <ns3:TrackPointExtension>
            <ns3:hr>92</ns3:hr>
            <ns3:cad>42</ns3:cad>
          </ns3:TrackPointExtension>
        </extensions>
      </trkpt>
      <trkpt lat="43.76330156810581684112548828125" lon="1.5769197978079319000244140625">
        <ele>168.8000030517578125</ele>
        <time>2026-08-13T06:05:23.000Z</time>
        <extensions>
          <ns3:TrackPointExtension>
            <ns3:hr>93</ns3:hr>
            <ns3:cad>42</ns3:cad>
          </ns3:TrackPointExtension>
        </extensions>
      </trkpt>
      <trkpt lat="43.7632989697158336639404296875" lon="1.57691082917153835296630859375">
        <ele>168.8000030517578125</ele>
        <time>2026-08-13T06:05:24.000Z</time>
        <extensions>
          <ns3:TrackPointExtension>
            <ns3:hr>95</ns3:hr>
            <ns3:cad>42</ns3:cad>
          </ns3:TrackPointExtension>
        </extensions>
      </trkpt>
      <trkpt lat="43.76329310238361358642578125" lon="1.57689892686903476715087890625">
        <ele>168.8000030517578125</ele>
        <time>2026-08-13T06:05:25.000Z</time>
        <extensions>
          <ns3:TrackPointExtension>
            <ns3:hr>95</ns3:hr>
            <ns3:cad>41</ns3:cad>
          </ns3:TrackPointExtension>
        </extensions>
      </trkpt>
      <trkpt lat="43.7632845528423786163330078125" lon="1.57688534818589687347412109375">
        <ele>168.8000030517578125</ele>
        <time>2026-08-13T06:05:26.000Z</time>
        <extensions>
          <ns3:TrackPointExtension>
            <ns3:hr>95</ns3:hr>
            <ns3:cad>41</ns3:cad>
          </ns3:TrackPointExtension>
        </extensions>
      </trkpt>
      <trkpt lat="43.7632812000811100006103515625" lon="1.5768755413591861724853515625">
        <ele>168.8000030517578125</ele>
        <time>2026-08-13T06:05:27.000Z</time>
        <extensions>
          <ns3:TrackPointExtension>
            <ns3:hr>95</ns3:hr>
            <ns3:cad>41</ns3:cad>
          </ns3:TrackPointExtension>
        </extensions>
      </trkpt>
      <trkpt lat="43.763278014957904815673828125" lon="1.576866991817951202392578125">
        <ele>169</ele>
        <time>2026-08-13T06:05:28.000Z</time>
        <extensions>
          <ns3:TrackPointExtension>
            <ns3:hr>95</ns3:hr>
            <ns3:cad>44</ns3:cad>
          </ns3:TrackPointExtension>
        </extensions>
      </trkpt>
      <trkpt lat="43.76327239908277988433837890625" lon="1.576849557459354400634765625">
        <ele>169</ele>
        <time>2026-08-13T06:05:29.000Z</time>
        <extensions>
          <ns3:TrackPointExtension>
            <ns3:hr>96</ns3:hr>
            <ns3:cad>44</ns3:cad>
          </ns3:TrackPointExtension>
        </extensions>
      </trkpt>
      <trkpt lat="43.76326569356024265289306640625" lon="1.57683673314750194549560546875">
        <ele>169</ele>
        <time>2026-08-13T06:05:30.000Z</time>
        <extensions>
          <ns3:TrackPointExtension>
            <ns3:hr>96</ns3:hr>
            <ns3:cad>43</ns3:cad>
          </ns3:TrackPointExtension>
        </extensions>
      </trkpt>
      <trkpt lat="43.763261921703815460205078125" lon="1.576828770339488983154296875">
        <ele>169</ele>
        <time>2026-08-13T06:05:31.000Z</time>
        <extensions>
          <ns3:TrackPointExtension>
            <ns3:hr>96</ns3:hr>
            <ns3:cad>43</ns3:cad>
          </ns3:TrackPointExtension>
        </extensions>
      </trkpt>
      <trkpt lat="43.76325814984738826751708984375" lon="1.57682441174983978271484375">
        <ele>169</ele>
        <time>2026-08-13T06:05:32.000Z</time>
        <extensions>
          <ns3:TrackPointExtension>
            <ns3:hr>97</ns3:hr>
            <ns3:cad>43</ns3:cad>
          </ns3:TrackPointExtension>
        </extensions>
      </trkpt>
      <trkpt lat="43.7632510252296924591064453125" lon="1.57680907286703586578369140625">
        <ele>169.1999969482421875</ele>
        <time>2026-08-13T06:05:33.000Z</time>
        <extensions>
          <ns3:TrackPointExtension>
            <ns3:hr>97</ns3:hr>
            <ns3:cad>43</ns3:cad>
          </ns3:TrackPointExtension>
        </extensions>
      </trkpt>
      <trkpt lat="43.76324624754488468170166015625" lon="1.57679147087037563323974609375">
        <ele>169.1999969482421875</ele>
        <time>2026-08-13T06:05:34.000Z</time>
        <extensions>
          <ns3:TrackPointExtension>
            <ns3:hr>97</ns3:hr>
            <ns3:cad>43</ns3:cad>
          </ns3:TrackPointExtension>
        </extensions>
      </trkpt>
      <trkpt lat="43.76324289478361606597900390625" lon="1.5767809934914112091064453125">
        <ele>169.1999969482421875</ele>
        <time>2026-08-13T06:05:35.000Z</time>
        <extensions>
          <ns3:TrackPointExtension>
            <ns3:hr>97</ns3:hr>
            <ns3:cad>44</ns3:cad>
          </ns3:TrackPointExtension>
        </extensions>
      </trkpt>
      <trkpt lat="43.76323836855590343475341796875" lon="1.57677152194082736968994140625">
        <ele>169.1999969482421875</ele>
        <time>2026-08-13T06:05:36.000Z</time>
        <extensions>
          <ns3:TrackPointExtension>
            <ns3:hr>98</ns3:hr>
            <ns3:cad>44</ns3:cad>
          </ns3:TrackPointExtension>
        </extensions>
      </trkpt>
      <trkpt lat="43.7632312439382076263427734375" lon="1.576754339039325714111328125">
        <ele>169.1999969482421875</ele>
        <time>2026-08-13T06:05:37.000Z</time>
        <extensions>
          <ns3:TrackPointExtension>
            <ns3:hr>97</ns3:hr>
            <ns3:cad>44</ns3:cad>
          </ns3:TrackPointExtension>
        </extensions>
      </trkpt>
      <trkpt lat="43.76322311349213123321533203125" lon="1.5767444483935832977294921875">
        <ele>169.1999969482421875</ele>
        <time>2026-08-13T06:05:38.000Z</time>
        <extensions>
          <ns3:TrackPointExtension>
            <ns3:hr>97</ns3:hr>
            <ns3:cad>44</ns3:cad>
          </ns3:TrackPointExtension>
        </extensions>
      </trkpt>
      <trkpt lat="43.7632198445498943328857421875" lon="1.576734222471714019775390625">
        <ele>169.399993896484375</ele>
        <time>2026-08-13T06:05:39.000Z</time>
        <extensions>
          <ns3:TrackPointExtension>
            <ns3:hr>96</ns3:hr>
            <ns3:cad>45</ns3:cad>
          </ns3:TrackPointExtension>
        </extensions>
      </trkpt>
      <trkpt lat="43.76321758143603801727294921875" lon="1.57672382891178131103515625">
        <ele>169.399993896484375</ele>
        <time>2026-08-13T06:05:40.000Z</time>
        <extensions>
          <ns3:TrackPointExtension>
            <ns3:hr>96</ns3:hr>
            <ns3:cad>45</ns3:cad>
          </ns3:TrackPointExtension>
        </extensions>
      </trkpt>
      <trkpt lat="43.7632144801318645477294921875" lon="1.57670932821929454803466796875">
        <ele>169.399993896484375</ele>
        <time>2026-08-13T06:05:41.000Z</time>
        <extensions>
          <ns3:TrackPointExtension>
            <ns3:hr>96</ns3:hr>
            <ns3:cad>44</ns3:cad>
          </ns3:TrackPointExtension>
        </extensions>
      </trkpt>
      <trkpt lat="43.763210289180278778076171875" lon="1.57669675536453723907470703125">
        <ele>169.399993896484375</ele>
        <time>2026-08-13T06:05:42.000Z</time>
        <extensions>
          <ns3:TrackPointExtension>
            <ns3:hr>97</ns3:hr>
            <ns3:cad>43</ns3:cad>
          </ns3:TrackPointExtension>
        </extensions>
      </trkpt>
      <trkpt lat="43.76320567913353443145751953125" lon="1.57668870873749256134033203125">
        <ele>169.399993896484375</ele>
        <time>2026-08-13T06:05:43.000Z</time>
        <extensions>
          <ns3:TrackPointExtension>
            <ns3:hr>97</ns3:hr>
            <ns3:cad>43</ns3:cad>
          </ns3:TrackPointExtension>
        </extensions>
      </trkpt>
      <trkpt lat="43.7631993927061557769775390625" lon="1.57667613588273525238037109375">
        <ele>169.600006103515625</ele>
        <time>2026-08-13T06:05:44.000Z</time>
        <extensions>
          <ns3:TrackPointExtension>
            <ns3:hr>97</ns3:hr>
            <ns3:cad>43</ns3:cad>
          </ns3:TrackPointExtension>
        </extensions>
      </trkpt>
      <trkpt lat="43.76319193281233310699462890625" lon="1.57666440121829509735107421875">
        <ele>169.600006103515625</ele>
        <time>2026-08-13T06:05:45.000Z</time>
        <extensions>
          <ns3:TrackPointExtension>
            <ns3:hr>97</ns3:hr>
            <ns3:cad>43</ns3:cad>
          </ns3:TrackPointExtension>
        </extensions>
      </trkpt>
      <trkpt lat="43.7631886638700962066650390625" lon="1.576655767858028411865234375">
        <ele>169.600006103515625</ele>
        <time>2026-08-13T06:05:46.000Z</time>
        <extensions>
          <ns3:TrackPointExtension>
            <ns3:hr>97</ns3:hr>
            <ns3:cad>43</ns3:cad>
          </ns3:TrackPointExtension>
        </extensions>
      </trkpt>
      <trkpt lat="43.76318204216659069061279296875" lon="1.57664495520293712615966796875">
        <ele>169.600006103515625</ele>
        <time>2026-08-13T06:05:47.000Z</time>
        <extensions>
          <ns3:TrackPointExtension>
            <ns3:hr>97</ns3:hr>
            <ns3:cad>43</ns3:cad>
          </ns3:TrackPointExtension>
        </extensions>
      </trkpt>
      <trkpt lat="43.76317231915891170501708984375" lon="1.5766297839581966400146484375">
        <ele>169.600006103515625</ele>
        <time>2026-08-13T06:05:48.000Z</time>
        <extensions>
          <ns3:TrackPointExtension>
            <ns3:hr>97</ns3:hr>
            <ns3:cad>42</ns3:cad>
          </ns3:TrackPointExtension>
        </extensions>
      </trkpt>
      <trkpt lat="43.76316695474088191986083984375" lon="1.57661846838891506195068359375">
        <ele>169.600006103515625</ele>
        <time>2026-08-13T06:05:49.000Z</time>
        <extensions>
          <ns3:TrackPointExtension>
            <ns3:hr>97</ns3:hr>
            <ns3:cad>42</ns3:cad>
          </ns3:TrackPointExtension>
        </extensions>
      </trkpt>
      <trkpt lat="43.7631611712276935577392578125" lon="1.57660874538123607635498046875">
        <ele>169.8000030517578125</ele>
        <time>2026-08-13T06:05:50.000Z</time>
        <extensions>
          <ns3:TrackPointExtension>
            <ns3:hr>97</ns3:hr>
            <ns3:cad>43</ns3:cad>
          </ns3:TrackPointExtension>
        </extensions>
      </trkpt>
      <trkpt lat="43.763153962790966033935546875" lon="1.57660388387739658355712890625">
        <ele>169.8000030517578125</ele>
        <time>2026-08-13T06:05:51.000Z</time>
        <extensions>
          <ns3:TrackPointExtension>
            <ns3:hr>96</ns3:hr>
            <ns3:cad>43</ns3:cad>
          </ns3:TrackPointExtension>
        </extensions>
      </trkpt>
      <trkpt lat="43.763146586716175079345703125" lon="1.57659499906003475189208984375">
        <ele>169.8000030517578125</ele>
        <time>2026-08-13T06:05:52.000Z</time>
        <extensions>
          <ns3:TrackPointExtension>
            <ns3:hr>96</ns3:hr>
            <ns3:cad>43</ns3:cad>
          </ns3:TrackPointExtension>
        </extensions>
      </trkpt>
      <trkpt lat="43.7631437368690967559814453125" lon="1.576584018766880035400390625">
        <ele>170</ele>
        <time>2026-08-13T06:05:53.000Z</time>
        <extensions>
          <ns3:TrackPointExtension>
            <ns3:hr>96</ns3:hr>
            <ns3:cad>43</ns3:cad>
          </ns3:TrackPointExtension>
        </extensions>
      </trkpt>
      <trkpt lat="43.7631407193839550018310546875" lon="1.57656616531312465667724609375">
        <ele>170</ele>
        <time>2026-08-13T06:05:54.000Z</time>
        <extensions>
          <ns3:TrackPointExtension>
            <ns3:hr>97</ns3:hr>
            <ns3:cad>43</ns3:cad>
          </ns3:TrackPointExtension>
        </extensions>
      </trkpt>
      <trkpt lat="43.76313376240432262420654296875" lon="1.57655484974384307861328125">
        <ele>170</ele>
        <time>2026-08-13T06:05:55.000Z</time>
        <extensions>
          <ns3:TrackPointExtension>
            <ns3:hr>96</ns3:hr>
            <ns3:cad>43</ns3:cad>
          </ns3:TrackPointExtension>
        </extensions>
      </trkpt>
      <trkpt lat="43.76312823034822940826416015625" lon="1.57654680311679840087890625">
        <ele>170</ele>
        <time>2026-08-13T06:05:56.000Z</time>
        <extensions>
          <ns3:TrackPointExtension>
            <ns3:hr>96</ns3:hr>
            <ns3:cad>43</ns3:cad>
          </ns3:TrackPointExtension>
        </extensions>
      </trkpt>
      <trkpt lat="43.763125129044055938720703125" lon="1.57653766684234142303466796875">
        <ele>170</ele>
        <time>2026-08-13T06:05:57.000Z</time>
        <extensions>
          <ns3:TrackPointExtension>
            <ns3:hr>96</ns3:hr>
            <ns3:cad>42</ns3:cad>
          </ns3:TrackPointExtension>
        </extensions>
      </trkpt>
      <trkpt lat="43.7631209380924701690673828125" lon="1.57651771791279315948486328125">
        <ele>170</ele>
        <time>2026-08-13T06:05:58.000Z</time>
        <extensions>
          <ns3:TrackPointExtension>
            <ns3:hr>96</ns3:hr>
            <ns3:cad>42</ns3:cad>
          </ns3:TrackPointExtension>
        </extensions>
      </trkpt>
      <trkpt lat="43.76311339437961578369140625" lon="1.5765033848583698272705078125">
        <ele>170</ele>
        <time>2026-08-13T06:05:59.000Z</time>
        <extensions>
          <ns3:TrackPointExtension>
            <ns3:hr>95</ns3:hr>
            <ns3:cad>42</ns3:cad>
          </ns3:TrackPointExtension>
        </extensions>
      </trkpt>
      <trkpt lat="43.76310828141868114471435546875" lon="1.5764966793358325958251953125">
        <ele>170</ele>
        <time>2026-08-13T06:06:00.000Z</time>
        <extensions>
          <ns3:TrackPointExtension>
            <ns3:hr>95</ns3:hr>
            <ns3:cad>42</ns3:cad>
          </ns3:TrackPointExtension>
        </extensions>
      </trkpt>
      <trkpt lat="43.7631065212190151214599609375" lon="1.57648016698658466339111328125">
        <ele>170</ele>
        <time>2026-08-13T06:06:01.000Z</time>
        <extensions>
          <ns3:TrackPointExtension>
            <ns3:hr>95</ns3:hr>
            <ns3:cad>42</ns3:cad>
          </ns3:TrackPointExtension>
        </extensions>
      </trkpt>
      <trkpt lat="43.7630984745919704437255859375" lon="1.57646491192281246185302734375">
        <ele>170.1999969482421875</ele>
        <time>2026-08-13T06:06:02.000Z</time>
        <extensions>
          <ns3:TrackPointExtension>
            <ns3:hr>95</ns3:hr>
            <ns3:cad>42</ns3:cad>
          </ns3:TrackPointExtension>
        </extensions>
      </trkpt>
      <trkpt lat="43.763090930879116058349609375" lon="1.57645150087773799896240234375">
        <ele>170.1999969482421875</ele>
        <time>2026-08-13T06:06:03.000Z</time>
        <extensions>
          <ns3:TrackPointExtension>
            <ns3:hr>95</ns3:hr>
            <ns3:cad>42</ns3:cad>
          </ns3:TrackPointExtension>
        </extensions>
      </trkpt>
      <trkpt lat="43.763088248670101165771484375" lon="1.5764527581632137298583984375">
        <ele>170.1999969482421875</ele>
        <time>2026-08-13T06:06:04.000Z</time>
        <extensions>
          <ns3:TrackPointExtension>
            <ns3:hr>94</ns3:hr>
            <ns3:cad>0</ns3:cad>
          </ns3:TrackPointExtension>
        </extensions>
      </trkpt>
      <trkpt lat="43.76308347098529338836669921875" lon="1.5764463879168033599853515625">
        <ele>170.1999969482421875</ele>
        <time>2026-08-13T06:06:05.000Z</time>
        <extensions>
          <ns3:TrackPointExtension>
            <ns3:hr>93</ns3:hr>
            <ns3:cad>0</ns3:cad>
          </ns3:TrackPointExtension>
        </extensions>
      </trkpt>
      <trkpt lat="43.76307710073888301849365234375" lon="1.57642819918692111968994140625">
        <ele>170.1999969482421875</ele>
        <time>2026-08-13T06:06:06.000Z</time>
        <extensions>
          <ns3:TrackPointExtension>
            <ns3:hr>92</ns3:hr>
            <ns3:cad>0</ns3:cad>
          </ns3:TrackPointExtension>
        </extensions>
      </trkpt>
      <trkpt lat="43.763067461550235748291015625" lon="1.576411686837673187255859375">
        <ele>170.1999969482421875</ele>
        <time>2026-08-13T06:06:07.000Z</time>
        <extensions>
          <ns3:TrackPointExtension>
            <ns3:hr>92</ns3:hr>
            <ns3:cad>0</ns3:cad>
          </ns3:TrackPointExtension>
        </extensions>
      </trkpt>
      <trkpt lat="43.76306586898863315582275390625" lon="1.57640171237289905548095703125">
        <ele>170.1999969482421875</ele>
        <time>2026-08-13T06:06:08.000Z</time>
        <extensions>
          <ns3:TrackPointExtension>
            <ns3:hr>92</ns3:hr>
            <ns3:cad>0</ns3:cad>
          </ns3:TrackPointExtension>
        </extensions>
      </trkpt>
      <trkpt lat="43.76306167803704738616943359375" lon="1.57639048062264919281005859375">
        <ele>170.1999969482421875</ele>
        <time>2026-08-13T06:06:09.000Z</time>
        <extensions>
          <ns3:TrackPointExtension>
            <ns3:hr>91</ns3:hr>
            <ns3:cad>0</ns3:cad>
          </ns3:TrackPointExtension>
        </extensions>
      </trkpt>
      <trkpt lat="43.76305639743804931640625" lon="1.57637891359627246856689453125">
        <ele>170.1999969482421875</ele>
        <time>2026-08-13T06:06:10.000Z</time>
        <extensions>
          <ns3:TrackPointExtension>
            <ns3:hr>91</ns3:hr>
            <ns3:cad>0</ns3:cad>
          </ns3:TrackPointExtension>
        </extensions>
      </trkpt>
      <trkpt lat="43.76305195502936840057373046875" lon="1.57636784948408603668212890625">
        <ele>170.1999969482421875</ele>
        <time>2026-08-13T06:06:11.000Z</time>
        <extensions>
          <ns3:TrackPointExtension>
            <ns3:hr>90</ns3:hr>
            <ns3:cad>47</ns3:cad>
          </ns3:TrackPointExtension>
        </extensions>
      </trkpt>
      <trkpt lat="43.76304860226809978485107421875" lon="1.57636013813316822052001953125">
        <ele>170.1999969482421875</ele>
        <time>2026-08-13T06:06:12.000Z</time>
        <extensions>
          <ns3:TrackPointExtension>
            <ns3:hr>90</ns3:hr>
            <ns3:cad>47</ns3:cad>
          </ns3:TrackPointExtension>
        </extensions>
      </trkpt>
      <trkpt lat="43.7630441598594188690185546875" lon="1.5763521753251552581787109375">
        <ele>170.1999969482421875</ele>
        <time>2026-08-13T06:06:13.000Z</time>
        <extensions>
          <ns3:TrackPointExtension>
            <ns3:hr>90</ns3:hr>
            <ns3:cad>45</ns3:cad>
          </ns3:TrackPointExtension>
        </extensions>
      </trkpt>
      <trkpt lat="43.76303401775658130645751953125" lon="1.576336920261383056640625">
        <ele>170.1999969482421875</ele>
        <time>2026-08-13T06:06:14.000Z</time>
        <extensions>
          <ns3:TrackPointExtension>
            <ns3:hr>90</ns3:hr>
            <ns3:cad>45</ns3:cad>
          </ns3:TrackPointExtension>
        </extensions>
      </trkpt>
      <trkpt lat="43.7630277313292026519775390625" lon="1.57632593996822834014892578125">
        <ele>170.1999969482421875</ele>
        <time>2026-08-13T06:06:15.000Z</time>
        <extensions>
          <ns3:TrackPointExtension>
            <ns3:hr>89</ns3:hr>
            <ns3:cad>45</ns3:cad>
          </ns3:TrackPointExtension>
        </extensions>
      </trkpt>
      <trkpt lat="43.76302747987210750579833984375" lon="1.5763183124363422393798828125">
        <ele>170.1999969482421875</ele>
        <time>2026-08-13T06:06:16.000Z</time>
        <extensions>
          <ns3:TrackPointExtension>
            <ns3:hr>89</ns3:hr>
            <ns3:cad>44</ns3:cad>
          </ns3:TrackPointExtension>
        </extensions>
      </trkpt>
      <trkpt lat="43.7630250491201877593994140625" lon="1.57630934379994869232177734375">
        <ele>170.1999969482421875</ele>
        <time>2026-08-13T06:06:17.000Z</time>
        <extensions>
          <ns3:TrackPointExtension>
            <ns3:hr>88</ns3:hr>
            <ns3:cad>43</ns3:cad>
          </ns3:TrackPointExtension>
        </extensions>
      </trkpt>
      <trkpt lat="43.76302010379731655120849609375" lon="1.576294004917144775390625">
        <ele>170.1999969482421875</ele>
        <time>2026-08-13T06:06:18.000Z</time>
        <extensions>
          <ns3:TrackPointExtension>
            <ns3:hr>88</ns3:hr>
            <ns3:cad>44</ns3:cad>
          </ns3:TrackPointExtension>
        </extensions>
      </trkpt>
      <trkpt lat="43.76301323063671588897705078125" lon="1.57627950422465801239013671875">
        <ele>170.1999969482421875</ele>
        <time>2026-08-13T06:06:19.000Z</time>
        <extensions>
          <ns3:TrackPointExtension>
            <ns3:hr>88</ns3:hr>
            <ns3:cad>44</ns3:cad>
          </ns3:TrackPointExtension>
        </extensions>
      </trkpt>
      <trkpt lat="43.76301004551351070404052734375" lon="1.57626877538859844207763671875">
        <ele>170.1999969482421875</ele>
        <time>2026-08-13T06:06:20.000Z</time>
        <extensions>
          <ns3:TrackPointExtension>
            <ns3:hr>88</ns3:hr>
            <ns3:cad>44</ns3:cad>
          </ns3:TrackPointExtension>
        </extensions>
      </trkpt>
      <trkpt lat="43.76300602219998836517333984375" lon="1.57626005820930004119873046875">
        <ele>170.1999969482421875</ele>
        <time>2026-08-13T06:06:21.000Z</time>
        <extensions>
          <ns3:TrackPointExtension>
            <ns3:hr>88</ns3:hr>
            <ns3:cad>44</ns3:cad>
          </ns3:TrackPointExtension>
        </extensions>
      </trkpt>
      <trkpt lat="43.763001076877117156982421875" lon="1.57624145038425922393798828125">
        <ele>170.1999969482421875</ele>
        <time>2026-08-13T06:06:22.000Z</time>
        <extensions>
          <ns3:TrackPointExtension>
            <ns3:hr>88</ns3:hr>
            <ns3:cad>44</ns3:cad>
          </ns3:TrackPointExtension>
        </extensions>
      </trkpt>
      <trkpt lat="43.76299395225942134857177734375" lon="1.57622368074953556060791015625">
        <ele>170.1999969482421875</ele>
        <time>2026-08-13T06:06:23.000Z</time>
        <extensions>
          <ns3:TrackPointExtension>
            <ns3:hr>88</ns3:hr>
            <ns3:cad>46</ns3:cad>
          </ns3:TrackPointExtension>
        </extensions>
      </trkpt>
      <trkpt lat="43.76298724673688411712646484375" lon="1.576213873922824859619140625">
        <ele>170.399993896484375</ele>
        <time>2026-08-13T06:06:24.000Z</time>
        <extensions>
          <ns3:TrackPointExtension>
            <ns3:hr>87</ns3:hr>
            <ns3:cad>46</ns3:cad>
          </ns3:TrackPointExtension>
        </extensions>
      </trkpt>
      <trkpt lat="43.76298087649047374725341796875" lon="1.57620205543935298919677734375">
        <ele>170.399993896484375</ele>
        <time>2026-08-13T06:06:25.000Z</time>
        <extensions>
          <ns3:TrackPointExtension>
            <ns3:hr>88</ns3:hr>
            <ns3:cad>46</ns3:cad>
          </ns3:TrackPointExtension>
        </extensions>
      </trkpt>
      <trkpt lat="43.76297702081501483917236328125" lon="1.57618646509945392608642578125">
        <ele>170.600006103515625</ele>
        <time>2026-08-13T06:06:26.000Z</time>
        <extensions>
          <ns3:TrackPointExtension>
            <ns3:hr>88</ns3:hr>
            <ns3:cad>46</ns3:cad>
          </ns3:TrackPointExtension>
        </extensions>
      </trkpt>
      <trkpt lat="43.7629714049398899078369140625" lon="1.57617397606372833251953125">
        <ele>170.600006103515625</ele>
        <time>2026-08-13T06:06:27.000Z</time>
        <extensions>
          <ns3:TrackPointExtension>
            <ns3:hr>87</ns3:hr>
            <ns3:cad>46</ns3:cad>
          </ns3:TrackPointExtension>
        </extensions>
      </trkpt>
      <trkpt lat="43.7629653699696063995361328125" lon="1.57616266049444675445556640625">
        <ele>170.8000030517578125</ele>
        <time>2026-08-13T06:06:28.000Z</time>
        <extensions>
          <ns3:TrackPointExtension>
            <ns3:hr>88</ns3:hr>
            <ns3:cad>44</ns3:cad>
          </ns3:TrackPointExtension>
        </extensions>
      </trkpt>
      <trkpt lat="43.7629613466560840606689453125" lon="1.57614841125905513763427734375">
        <ele>170.8000030517578125</ele>
        <time>2026-08-13T06:06:29.000Z</time>
        <extensions>
          <ns3:TrackPointExtension>
            <ns3:hr>88</ns3:hr>
            <ns3:cad>44</ns3:cad>
          </ns3:TrackPointExtension>
        </extensions>
      </trkpt>
      <trkpt lat="43.7629569880664348602294921875" lon="1.57614053227007389068603515625">
        <ele>170.8000030517578125</ele>
        <time>2026-08-13T06:06:30.000Z</time>
        <extensions>
          <ns3:TrackPointExtension>
            <ns3:hr>88</ns3:hr>
            <ns3:cad>44</ns3:cad>
          </ns3:TrackPointExtension>
        </extensions>
      </trkpt>
      <trkpt lat="43.76294910907745361328125" lon="1.576131395995616912841796875">
        <ele>170.8000030517578125</ele>
        <time>2026-08-13T06:06:31.000Z</time>
        <extensions>
          <ns3:TrackPointExtension>
            <ns3:hr>87</ns3:hr>
            <ns3:cad>44</ns3:cad>
          </ns3:TrackPointExtension>
        </extensions>
      </trkpt>
      <trkpt lat="43.7629442475736141204833984375" lon="1.57612225972115993499755859375">
        <ele>170.8000030517578125</ele>
        <time>2026-08-13T06:06:32.000Z</time>
        <extensions>
          <ns3:TrackPointExtension>
            <ns3:hr>88</ns3:hr>
            <ns3:cad>45</ns3:cad>
          </ns3:TrackPointExtension>
        </extensions>
      </trkpt>
      <trkpt lat="43.7629392184317111968994140625" lon="1.57611689530313014984130859375">
        <ele>170.600006103515625</ele>
        <time>2026-08-13T06:06:33.000Z</time>
        <extensions>
          <ns3:TrackPointExtension>
            <ns3:hr>88</ns3:hr>
            <ns3:cad>45</ns3:cad>
          </ns3:TrackPointExtension>
        </extensions>
      </trkpt>
      <trkpt lat="43.76293343491852283477783203125" lon="1.57610365189611911773681640625">
        <ele>170.600006103515625</ele>
        <time>2026-08-13T06:06:34.000Z</time>
        <extensions>
          <ns3:TrackPointExtension>
            <ns3:hr>88</ns3:hr>
            <ns3:cad>45</ns3:cad>
          </ns3:TrackPointExtension>
        </extensions>
      </trkpt>
      <trkpt lat="43.76292555592954158782958984375" lon="1.57608504407107830047607421875">
        <ele>170.600006103515625</ele>
        <time>2026-08-13T06:06:35.000Z</time>
        <extensions>
          <ns3:TrackPointExtension>
            <ns3:hr>88</ns3:hr>
            <ns3:cad>45</ns3:cad>
          </ns3:TrackPointExtension>
        </extensions>
      </trkpt>
      <trkpt lat="43.7629207782447338104248046875" lon="1.576071716845035552978515625">
        <ele>170.600006103515625</ele>
        <time>2026-08-13T06:06:36.000Z</time>
        <extensions>
          <ns3:TrackPointExtension>
            <ns3:hr>88</ns3:hr>
            <ns3:cad>46</ns3:cad>
          </ns3:TrackPointExtension>
        </extensions>
      </trkpt>
      <trkpt lat="43.762915246188640594482421875" lon="1.57606492750346660614013671875">
        <ele>170.600006103515625</ele>
        <time>2026-08-13T06:06:37.000Z</time>
        <extensions>
          <ns3:TrackPointExtension>
            <ns3:hr>88</ns3:hr>
            <ns3:cad>46</ns3:cad>
          </ns3:TrackPointExtension>
        </extensions>
      </trkpt>
      <trkpt lat="43.7629075348377227783203125" lon="1.57605327665805816650390625">
        <ele>170.600006103515625</ele>
        <time>2026-08-13T06:06:38.000Z</time>
        <extensions>
          <ns3:TrackPointExtension>
            <ns3:hr>88</ns3:hr>
            <ns3:cad>46</ns3:cad>
          </ns3:TrackPointExtension>
        </extensions>
      </trkpt>
      <trkpt lat="43.7628969736397266387939453125" lon="1.57603927887976169586181640625">
        <ele>170.600006103515625</ele>
        <time>2026-08-13T06:06:39.000Z</time>
        <extensions>
          <ns3:TrackPointExtension>
            <ns3:hr>88</ns3:hr>
            <ns3:cad>46</ns3:cad>
          </ns3:TrackPointExtension>
        </extensions>
      </trkpt>
      <trkpt lat="43.76289152540266513824462890625" lon="1.5760249458253383636474609375">
        <ele>170.600006103515625</ele>
        <time>2026-08-13T06:06:40.000Z</time>
        <extensions>
          <ns3:TrackPointExtension>
            <ns3:hr>87</ns3:hr>
            <ns3:cad>45</ns3:cad>
          </ns3:TrackPointExtension>
        </extensions>
      </trkpt>
      <trkpt lat="43.76288850791752338409423828125" lon="1.57601614482700824737548828125">
        <ele>170.600006103515625</ele>
        <time>2026-08-13T06:06:41.000Z</time>
        <extensions>
          <ns3:TrackPointExtension>
            <ns3:hr>87</ns3:hr>
            <ns3:cad>45</ns3:cad>
          </ns3:TrackPointExtension>
        </extensions>
      </trkpt>
      <trkpt lat="43.76288498751819133758544921875" lon="1.57601228915154933929443359375">
        <ele>170.600006103515625</ele>
        <time>2026-08-13T06:06:42.000Z</time>
        <extensions>
          <ns3:TrackPointExtension>
            <ns3:hr>87</ns3:hr>
            <ns3:cad>46</ns3:cad>
          </ns3:TrackPointExtension>
        </extensions>
      </trkpt>
      <trkpt lat="43.762877695262432098388671875" lon="1.57600323669612407684326171875">
        <ele>170.600006103515625</ele>
        <time>2026-08-13T06:06:43.000Z</time>
        <extensions>
          <ns3:TrackPointExtension>
            <ns3:hr>88</ns3:hr>
            <ns3:cad>46</ns3:cad>
          </ns3:TrackPointExtension>
        </extensions>
      </trkpt>
      <trkpt lat="43.76287157647311687469482421875" lon="1.57599502243101596832275390625">
        <ele>170.8000030517578125</ele>
        <time>2026-08-13T06:06:44.000Z</time>
        <extensions>
          <ns3:TrackPointExtension>
            <ns3:hr>88</ns3:hr>
            <ns3:cad>46</ns3:cad>
          </ns3:TrackPointExtension>
        </extensions>
      </trkpt>
      <trkpt lat="43.762869648635387420654296875" lon="1.575991921126842498779296875">
        <ele>170.8000030517578125</ele>
        <time>2026-08-13T06:06:45.000Z</time>
        <extensions>
          <ns3:TrackPointExtension>
            <ns3:hr>88</ns3:hr>
            <ns3:cad>45</ns3:cad>
          </ns3:TrackPointExtension>
        </extensions>
      </trkpt>
      <trkpt lat="43.7628607638180255889892578125" lon="1.57597482204437255859375">
        <ele>170.8000030517578125</ele>
        <time>2026-08-13T06:06:46.000Z</time>
        <extensions>
          <ns3:TrackPointExtension>
            <ns3:hr>87</ns3:hr>
            <ns3:cad>45</ns3:cad>
          </ns3:TrackPointExtension>
        </extensions>
      </trkpt>
      <trkpt lat="43.76285254955291748046875" lon="1.575960405170917510986328125">
        <ele>170.600006103515625</ele>
        <time>2026-08-13T06:06:47.000Z</time>
        <extensions>
          <ns3:TrackPointExtension>
            <ns3:hr>88</ns3:hr>
            <ns3:cad>45</ns3:cad>
          </ns3:TrackPointExtension>
        </extensions>
      </trkpt>
      <trkpt lat="43.76284517347812652587890625" lon="1.57594489865005016326904296875">
        <ele>170.600006103515625</ele>
        <time>2026-08-13T06:06:48.000Z</time>
        <extensions>
          <ns3:TrackPointExtension>
            <ns3:hr>88</ns3:hr>
            <ns3:cad>45</ns3:cad>
          </ns3:TrackPointExtension>
        </extensions>
      </trkpt>
      <trkpt lat="43.762838803231716156005859375" lon="1.57593199051916599273681640625">
        <ele>170.600006103515625</ele>
        <time>2026-08-13T06:06:49.000Z</time>
        <extensions>
          <ns3:TrackPointExtension>
            <ns3:hr>87</ns3:hr>
            <ns3:cad>45</ns3:cad>
          </ns3:TrackPointExtension>
        </extensions>
      </trkpt>
      <trkpt lat="43.76283201389014720916748046875" lon="1.57591908238828182220458984375">
        <ele>170.600006103515625</ele>
        <time>2026-08-13T06:06:50.000Z</time>
        <extensions>
          <ns3:TrackPointExtension>
            <ns3:hr>88</ns3:hr>
            <ns3:cad>48</ns3:cad>
          </ns3:TrackPointExtension>
        </extensions>
      </trkpt>
      <trkpt lat="43.76282346434891223907470703125" lon="1.5759015642106533050537109375">
        <ele>170.600006103515625</ele>
        <time>2026-08-13T06:06:51.000Z</time>
        <extensions>
          <ns3:TrackPointExtension>
            <ns3:hr>88</ns3:hr>
            <ns3:cad>48</ns3:cad>
          </ns3:TrackPointExtension>
        </extensions>
      </trkpt>
      <trkpt lat="43.7628168426454067230224609375" lon="1.57588857226073741912841796875">
        <ele>170.600006103515625</ele>
        <time>2026-08-13T06:06:52.000Z</time>
        <extensions>
          <ns3:TrackPointExtension>
            <ns3:hr>88</ns3:hr>
            <ns3:cad>48</ns3:cad>
          </ns3:TrackPointExtension>
        </extensions>
      </trkpt>
      <trkpt lat="43.76280971802771091461181640625" lon="1.5758742392063140869140625">
        <ele>170.600006103515625</ele>
        <time>2026-08-13T06:06:53.000Z</time>
        <extensions>
          <ns3:TrackPointExtension>
            <ns3:hr>88</ns3:hr>
            <ns3:cad>48</ns3:cad>
          </ns3:TrackPointExtension>
        </extensions>
      </trkpt>
      <trkpt lat="43.76280217431485652923583984375" lon="1.5758653543889522552490234375">
        <ele>170.600006103515625</ele>
        <time>2026-08-13T06:06:54.000Z</time>
        <extensions>
          <ns3:TrackPointExtension>
            <ns3:hr>88</ns3:hr>
            <ns3:cad>47</ns3:cad>
          </ns3:TrackPointExtension>
        </extensions>
      </trkpt>
      <trkpt lat="43.76279798336327075958251953125" lon="1.5758546255528926849365234375">
        <ele>170.600006103515625</ele>
        <time>2026-08-13T06:06:55.000Z</time>
        <extensions>
          <ns3:TrackPointExtension>
            <ns3:hr>88</ns3:hr>
            <ns3:cad>47</ns3:cad>
          </ns3:TrackPointExtension>
        </extensions>
      </trkpt>
      <trkpt lat="43.762790523469448089599609375" lon="1.57583962194621562957763671875">
        <ele>170.600006103515625</ele>
        <time>2026-08-13T06:06:56.000Z</time>
        <extensions>
          <ns3:TrackPointExtension>
            <ns3:hr>88</ns3:hr>
            <ns3:cad>46</ns3:cad>
          </ns3:TrackPointExtension>
        </extensions>
      </trkpt>
      <trkpt lat="43.7627859972417354583740234375" lon="1.57582889311015605926513671875">
        <ele>170.600006103515625</ele>
        <time>2026-08-13T06:06:57.000Z</time>
        <extensions>
          <ns3:TrackPointExtension>
            <ns3:hr>88</ns3:hr>
            <ns3:cad>46</ns3:cad>
          </ns3:TrackPointExtension>
        </extensions>
      </trkpt>
      <trkpt lat="43.7627828121185302734375" lon="1.575820259749889373779296875">
        <ele>170.600006103515625</ele>
        <time>2026-08-13T06:06:58.000Z</time>
        <extensions>
          <ns3:TrackPointExtension>
            <ns3:hr>87</ns3:hr>
            <ns3:cad>46</ns3:cad>
          </ns3:TrackPointExtension>
        </extensions>
      </trkpt>
      <trkpt lat="43.76277811825275421142578125" lon="1.57581833191215991973876953125">
        <ele>170.600006103515625</ele>
        <time>2026-08-13T06:06:59.000Z</time>
        <extensions>
          <ns3:TrackPointExtension>
            <ns3:hr>88</ns3:hr>
            <ns3:cad>47</ns3:cad>
          </ns3:TrackPointExtension>
        </extensions>
      </trkpt>
      <trkpt lat="43.7627722509205341339111328125" lon="1.57580659724771976470947265625">
        <ele>170.600006103515625</ele>
        <time>2026-08-13T06:07:00.000Z</time>
        <extensions>
          <ns3:TrackPointExtension>
            <ns3:hr>87</ns3:hr>
            <ns3:cad>47</ns3:cad>
          </ns3:TrackPointExtension>
        </extensions>
      </trkpt>
      <trkpt lat="43.76276562921702861785888671875" lon="1.57579419203102588653564453125">
        <ele>170.600006103515625</ele>
        <time>2026-08-13T06:07:01.000Z</time>
        <extensions>
          <ns3:TrackPointExtension>
            <ns3:hr>87</ns3:hr>
            <ns3:cad>47</ns3:cad>
          </ns3:TrackPointExtension>
        </extensions>
      </trkpt>
      <trkpt lat="43.76276009716093540191650390625" lon="1.5757812000811100006103515625">
        <ele>170.600006103515625</ele>
        <time>2026-08-13T06:07:02.000Z</time>
        <extensions>
          <ns3:TrackPointExtension>
            <ns3:hr>87</ns3:hr>
            <ns3:cad>45</ns3:cad>
          </ns3:TrackPointExtension>
        </extensions>
      </trkpt>
      <trkpt lat="43.76275825314223766326904296875" lon="1.57577030360698699951171875">
        <ele>170.8000030517578125</ele>
        <time>2026-08-13T06:07:03.000Z</time>
        <extensions>
          <ns3:TrackPointExtension>
            <ns3:hr>86</ns3:hr>
            <ns3:cad>45</ns3:cad>
          </ns3:TrackPointExtension>
        </extensions>
      </trkpt>
      <trkpt lat="43.7627548165619373321533203125" lon="1.57575211487710475921630859375">
        <ele>170.8000030517578125</ele>
        <time>2026-08-13T06:07:04.000Z</time>
        <extensions>
          <ns3:TrackPointExtension>
            <ns3:hr>86</ns3:hr>
            <ns3:cad>45</ns3:cad>
          </ns3:TrackPointExtension>
        </extensions>
      </trkpt>
      <trkpt lat="43.7627464346587657928466796875" lon="1.575739122927188873291015625">
        <ele>170.8000030517578125</ele>
        <time>2026-08-13T06:07:05.000Z</time>
        <extensions>
          <ns3:TrackPointExtension>
            <ns3:hr>86</ns3:hr>
            <ns3:cad>45</ns3:cad>
          </ns3:TrackPointExtension>
        </extensions>
      </trkpt>
      <trkpt lat="43.76274081878364086151123046875" lon="1.5757268853485584259033203125">
        <ele>170.600006103515625</ele>
        <time>2026-08-13T06:07:06.000Z</time>
        <extensions>
          <ns3:TrackPointExtension>
            <ns3:hr>86</ns3:hr>
            <ns3:cad>45</ns3:cad>
          </ns3:TrackPointExtension>
        </extensions>
      </trkpt>
      <trkpt lat="43.76273796893656253814697265625" lon="1.57571188174188137054443359375">
        <ele>170.600006103515625</ele>
        <time>2026-08-13T06:07:07.000Z</time>
        <extensions>
          <ns3:TrackPointExtension>
            <ns3:hr>86</ns3:hr>
            <ns3:cad>48</ns3:cad>
          </ns3:TrackPointExtension>
        </extensions>
      </trkpt>
      <trkpt lat="43.76273243688046932220458984375" lon="1.5756980516016483306884765625">
        <ele>170.8000030517578125</ele>
        <time>2026-08-13T06:07:08.000Z</time>
        <extensions>
          <ns3:TrackPointExtension>
            <ns3:hr>85</ns3:hr>
            <ns3:cad>48</ns3:cad>
          </ns3:TrackPointExtension>
        </extensions>
      </trkpt>
      <trkpt lat="43.76272841356694698333740234375" lon="1.5756889991462230682373046875">
        <ele>170.8000030517578125</ele>
        <time>2026-08-13T06:07:09.000Z</time>
        <extensions>
          <ns3:TrackPointExtension>
            <ns3:hr>85</ns3:hr>
            <ns3:cad>48</ns3:cad>
          </ns3:TrackPointExtension>
        </extensions>
      </trkpt>
      <trkpt lat="43.76272338442504405975341796875" lon="1.57567701302468776702880859375">
        <ele>170.8000030517578125</ele>
        <time>2026-08-13T06:07:10.000Z</time>
        <extensions>
          <ns3:TrackPointExtension>
            <ns3:hr>85</ns3:hr>
            <ns3:cad>48</ns3:cad>
          </ns3:TrackPointExtension>
        </extensions>
      </trkpt>
      <trkpt lat="43.7627192772924900054931640625" lon="1.57566410489380359649658203125">
        <ele>170.8000030517578125</ele>
        <time>2026-08-13T06:07:11.000Z</time>
        <extensions>
          <ns3:TrackPointExtension>
            <ns3:hr>85</ns3:hr>
            <ns3:cad>47</ns3:cad>
          </ns3:TrackPointExtension>
        </extensions>
      </trkpt>
      <trkpt lat="43.76271550543606281280517578125" lon="1.57564884983003139495849609375">
        <ele>170.8000030517578125</ele>
        <time>2026-08-13T06:07:12.000Z</time>
        <extensions>
          <ns3:TrackPointExtension>
            <ns3:hr>85</ns3:hr>
            <ns3:cad>47</ns3:cad>
          </ns3:TrackPointExtension>
        </extensions>
      </trkpt>
      <trkpt lat="43.76271081157028675079345703125" lon="1.57563476823270320892333984375">
        <ele>170.8000030517578125</ele>
        <time>2026-08-13T06:07:13.000Z</time>
        <extensions>
          <ns3:TrackPointExtension>
            <ns3:hr>84</ns3:hr>
            <ns3:cad>47</ns3:cad>
          </ns3:TrackPointExtension>
        </extensions>
      </trkpt>
      <trkpt lat="43.762705363333225250244140625" lon="1.575623452663421630859375">
        <ele>170.8000030517578125</ele>
        <time>2026-08-13T06:07:14.000Z</time>
        <extensions>
          <ns3:TrackPointExtension>
            <ns3:hr>84</ns3:hr>
            <ns3:cad>47</ns3:cad>
          </ns3:TrackPointExtension>
        </extensions>
      </trkpt>
      <trkpt lat="43.76269874162971973419189453125" lon="1.57560911960899829864501953125">
        <ele>170.8000030517578125</ele>
        <time>2026-08-13T06:07:15.000Z</time>
        <extensions>
          <ns3:TrackPointExtension>
            <ns3:hr>84</ns3:hr>
            <ns3:cad>47</ns3:cad>
          </ns3:TrackPointExtension>
        </extensions>
      </trkpt>
      <trkpt lat="43.76269287429749965667724609375" lon="1.575598306953907012939453125">
        <ele>170.600006103515625</ele>
        <time>2026-08-13T06:07:16.000Z</time>
        <extensions>
          <ns3:TrackPointExtension>
            <ns3:hr>84</ns3:hr>
            <ns3:cad>47</ns3:cad>
          </ns3:TrackPointExtension>
        </extensions>
      </trkpt>
      <trkpt lat="43.7626870907843112945556640625" lon="1.57559168525040149688720703125">
        <ele>170.600006103515625</ele>
        <time>2026-08-13T06:07:17.000Z</time>
        <extensions>
          <ns3:TrackPointExtension>
            <ns3:hr>85</ns3:hr>
            <ns3:cad>47</ns3:cad>
          </ns3:TrackPointExtension>
        </extensions>
      </trkpt>
      <trkpt lat="43.762680552899837493896484375" lon="1.5755765140056610107421875">
        <ele>170.600006103515625</ele>
        <time>2026-08-13T06:07:18.000Z</time>
        <extensions>
          <ns3:TrackPointExtension>
            <ns3:hr>84</ns3:hr>
            <ns3:cad>47</ns3:cad>
          </ns3:TrackPointExtension>
        </extensions>
      </trkpt>
      <trkpt lat="43.762674517929553985595703125" lon="1.57555949874222278594970703125">
        <ele>170.399993896484375</ele>
        <time>2026-08-13T06:07:19.000Z</time>
        <extensions>
          <ns3:TrackPointExtension>
            <ns3:hr>84</ns3:hr>
            <ns3:cad>47</ns3:cad>
          </ns3:TrackPointExtension>
        </extensions>
      </trkpt>
      <trkpt lat="43.76267041079699993133544921875" lon="1.57554424367845058441162109375">
        <ele>170.399993896484375</ele>
        <time>2026-08-13T06:07:20.000Z</time>
        <extensions>
          <ns3:TrackPointExtension>
            <ns3:hr>85</ns3:hr>
            <ns3:cad>47</ns3:cad>
          </ns3:TrackPointExtension>
        </extensions>
      </trkpt>
      <trkpt lat="43.7626656331121921539306640625" lon="1.5755335986614227294921875">
        <ele>170.399993896484375</ele>
        <time>2026-08-13T06:07:21.000Z</time>
        <extensions>
          <ns3:TrackPointExtension>
            <ns3:hr>85</ns3:hr>
            <ns3:cad>47</ns3:cad>
          </ns3:TrackPointExtension>
        </extensions>
      </trkpt>
      <trkpt lat="43.76266018487513065338134765625" lon="1.57552194781601428985595703125">
        <ele>170.399993896484375</ele>
        <time>2026-08-13T06:07:22.000Z</time>
        <extensions>
          <ns3:TrackPointExtension>
            <ns3:hr>85</ns3:hr>
            <ns3:cad>47</ns3:cad>
          </ns3:TrackPointExtension>
        </extensions>
      </trkpt>
      <trkpt lat="43.76265414990484714508056640625" lon="1.57551188953220844268798828125">
        <ele>170.399993896484375</ele>
        <time>2026-08-13T06:07:23.000Z</time>
        <extensions>
          <ns3:TrackPointExtension>
            <ns3:hr>85</ns3:hr>
            <ns3:cad>47</ns3:cad>
          </ns3:TrackPointExtension>
        </extensions>
      </trkpt>
      <trkpt lat="43.76264794729650020599365234375" lon="1.57550275325775146484375">
        <ele>170.600006103515625</ele>
        <time>2026-08-13T06:07:24.000Z</time>
        <extensions>
          <ns3:TrackPointExtension>
            <ns3:hr>86</ns3:hr>
            <ns3:cad>47</ns3:cad>
          </ns3:TrackPointExtension>
        </extensions>
      </trkpt>
      <trkpt lat="43.76264207996428012847900390625" lon="1.5754933655261993408203125">
        <ele>170.600006103515625</ele>
        <time>2026-08-13T06:07:25.000Z</time>
        <extensions>
          <ns3:TrackPointExtension>
            <ns3:hr>86</ns3:hr>
            <ns3:cad>47</ns3:cad>
          </ns3:TrackPointExtension>
        </extensions>
      </trkpt>
      <trkpt lat="43.7626367993652820587158203125" lon="1.575483642518520355224609375">
        <ele>170.600006103515625</ele>
        <time>2026-08-13T06:07:26.000Z</time>
        <extensions>
          <ns3:TrackPointExtension>
            <ns3:hr>86</ns3:hr>
            <ns3:cad>49</ns3:cad>
          </ns3:TrackPointExtension>
        </extensions>
      </trkpt>
      <trkpt lat="43.76263185404241085052490234375" lon="1.5754717402160167694091796875">
        <ele>170.600006103515625</ele>
        <time>2026-08-13T06:07:27.000Z</time>
        <extensions>
          <ns3:TrackPointExtension>
            <ns3:hr>86</ns3:hr>
            <ns3:cad>49</ns3:cad>
          </ns3:TrackPointExtension>
        </extensions>
      </trkpt>
      <trkpt lat="43.7626285851001739501953125" lon="1.5754596702754497528076171875">
        <ele>170.600006103515625</ele>
        <time>2026-08-13T06:07:28.000Z</time>
        <extensions>
          <ns3:TrackPointExtension>
            <ns3:hr>86</ns3:hr>
            <ns3:cad>48</ns3:cad>
          </ns3:TrackPointExtension>
        </extensions>
      </trkpt>
      <trkpt lat="43.762622214853763580322265625" lon="1.5754469297826290130615234375">
        <ele>170.600006103515625</ele>
        <time>2026-08-13T06:07:29.000Z</time>
        <extensions>
          <ns3:TrackPointExtension>
            <ns3:hr>87</ns3:hr>
            <ns3:cad>47</ns3:cad>
          </ns3:TrackPointExtension>
        </extensions>
      </trkpt>
      <trkpt lat="43.76261509023606777191162109375" lon="1.57543242909014225006103515625">
        <ele>170.600006103515625</ele>
        <time>2026-08-13T06:07:30.000Z</time>
        <extensions>
          <ns3:TrackPointExtension>
            <ns3:hr>86</ns3:hr>
            <ns3:cad>47</ns3:cad>
          </ns3:TrackPointExtension>
        </extensions>
      </trkpt>
      <trkpt lat="43.76261022873222827911376953125" lon="1.57542052678763866424560546875">
        <ele>170.399993896484375</ele>
        <time>2026-08-13T06:07:31.000Z</time>
        <extensions>
          <ns3:TrackPointExtension>
            <ns3:hr>86</ns3:hr>
            <ns3:cad>47</ns3:cad>
          </ns3:TrackPointExtension>
        </extensions>
      </trkpt>
      <trkpt lat="43.7626052834093570709228515625" lon="1.57541063614189624786376953125">
        <ele>170.399993896484375</ele>
        <time>2026-08-13T06:07:32.000Z</time>
        <extensions>
          <ns3:TrackPointExtension>
            <ns3:hr>86</ns3:hr>
            <ns3:cad>47</ns3:cad>
          </ns3:TrackPointExtension>
        </extensions>
      </trkpt>
      <trkpt lat="43.7626009248197078704833984375" lon="1.5753989852964878082275390625">
        <ele>170.399993896484375</ele>
        <time>2026-08-13T06:07:33.000Z</time>
        <extensions>
          <ns3:TrackPointExtension>
            <ns3:hr>86</ns3:hr>
            <ns3:cad>48</ns3:cad>
          </ns3:TrackPointExtension>
        </extensions>
      </trkpt>
      <trkpt lat="43.76259304583072662353515625" lon="1.57538498751819133758544921875">
        <ele>170.399993896484375</ele>
        <time>2026-08-13T06:07:34.000Z</time>
        <extensions>
          <ns3:TrackPointExtension>
            <ns3:hr>85</ns3:hr>
            <ns3:cad>48</ns3:cad>
          </ns3:TrackPointExtension>
        </extensions>
      </trkpt>
      <trkpt lat="43.76258860342204570770263671875" lon="1.57537124119699001312255859375">
        <ele>170.1999969482421875</ele>
        <time>2026-08-13T06:07:35.000Z</time>
        <extensions>
          <ns3:TrackPointExtension>
            <ns3:hr>86</ns3:hr>
            <ns3:cad>48</ns3:cad>
          </ns3:TrackPointExtension>
        </extensions>
      </trkpt>
      <trkpt lat="43.76258357428014278411865234375" lon="1.57535866834223270416259765625">
        <ele>170.1999969482421875</ele>
        <time>2026-08-13T06:07:36.000Z</time>
        <extensions>
          <ns3:TrackPointExtension>
            <ns3:hr>86</ns3:hr>
            <ns3:cad>47</ns3:cad>
          </ns3:TrackPointExtension>
        </extensions>
      </trkpt>
      <trkpt lat="43.7625821493566036224365234375" lon="1.5753527171909809112548828125">
        <ele>170.1999969482421875</ele>
        <time>2026-08-13T06:07:37.000Z</time>
        <extensions>
          <ns3:TrackPointExtension>
            <ns3:hr>86</ns3:hr>
            <ns3:cad>47</ns3:cad>
          </ns3:TrackPointExtension>
        </extensions>
      </trkpt>
      <trkpt lat="43.76257720403373241424560546875" lon="1.57534508965909481048583984375">
        <ele>170.1999969482421875</ele>
        <time>2026-08-13T06:07:38.000Z</time>
        <extensions>
          <ns3:TrackPointExtension>
            <ns3:hr>87</ns3:hr>
            <ns3:cad>47</ns3:cad>
          </ns3:TrackPointExtension>
        </extensions>
      </trkpt>
      <trkpt lat="43.7625680677592754364013671875" lon="1.57532748766243457794189453125">
        <ele>170.1999969482421875</ele>
        <time>2026-08-13T06:07:39.000Z</time>
        <extensions>
          <ns3:TrackPointExtension>
            <ns3:hr>87</ns3:hr>
            <ns3:cad>50</ns3:cad>
          </ns3:TrackPointExtension>
        </extensions>
      </trkpt>
      <trkpt lat="43.7625620327889919281005859375" lon="1.5753101371228694915771484375">
        <ele>170.1999969482421875</ele>
        <time>2026-08-13T06:07:40.000Z</time>
        <extensions>
          <ns3:TrackPointExtension>
            <ns3:hr>88</ns3:hr>
            <ns3:cad>50</ns3:cad>
          </ns3:TrackPointExtension>
        </extensions>
      </trkpt>
      <trkpt lat="43.76255826093256473541259765625" lon="1.5752977319061756134033203125">
        <ele>170.1999969482421875</ele>
        <time>2026-08-13T06:07:41.000Z</time>
        <extensions>
          <ns3:TrackPointExtension>
            <ns3:hr>88</ns3:hr>
            <ns3:cad>50</ns3:cad>
          </ns3:TrackPointExtension>
        </extensions>
      </trkpt>
      <trkpt lat="43.76255490817129611968994140625" lon="1.57528943382203578948974609375">
        <ele>170</ele>
        <time>2026-08-13T06:07:42.000Z</time>
        <extensions>
          <ns3:TrackPointExtension>
            <ns3:hr>89</ns3:hr>
            <ns3:cad>49</ns3:cad>
          </ns3:TrackPointExtension>
        </extensions>
      </trkpt>
      <trkpt lat="43.76254937611520290374755859375" lon="1.57527904026210308074951171875">
        <ele>170</ele>
        <time>2026-08-13T06:07:43.000Z</time>
        <extensions>
          <ns3:TrackPointExtension>
            <ns3:hr>89</ns3:hr>
            <ns3:cad>49</ns3:cad>
          </ns3:TrackPointExtension>
        </extensions>
      </trkpt>
      <trkpt lat="43.76254116185009479522705078125" lon="1.57526328228414058685302734375">
        <ele>170</ele>
        <time>2026-08-13T06:07:44.000Z</time>
        <extensions>
          <ns3:TrackPointExtension>
            <ns3:hr>90</ns3:hr>
            <ns3:cad>49</ns3:cad>
          </ns3:TrackPointExtension>
        </extensions>
      </trkpt>
      <trkpt lat="43.76253277994692325592041015625" lon="1.57524920068681240081787109375">
        <ele>170</ele>
        <time>2026-08-13T06:07:45.000Z</time>
        <extensions>
          <ns3:TrackPointExtension>
            <ns3:hr>91</ns3:hr>
            <ns3:cad>49</ns3:cad>
          </ns3:TrackPointExtension>
        </extensions>
      </trkpt>
      <trkpt lat="43.7625274993479251861572265625" lon="1.5752367116510868072509765625">
        <ele>170</ele>
        <time>2026-08-13T06:07:46.000Z</time>
        <extensions>
          <ns3:TrackPointExtension>
            <ns3:hr>91</ns3:hr>
            <ns3:cad>49</ns3:cad>
          </ns3:TrackPointExtension>
        </extensions>
      </trkpt>
      <trkpt lat="43.762523643672466278076171875" lon="1.57522405497729778289794921875">
        <ele>170</ele>
        <time>2026-08-13T06:07:47.000Z</time>
        <extensions>
          <ns3:TrackPointExtension>
            <ns3:hr>91</ns3:hr>
            <ns3:cad>48</ns3:cad>
          </ns3:TrackPointExtension>
        </extensions>
      </trkpt>
      <trkpt lat="43.762517608702182769775390625" lon="1.57521718181669712066650390625">
        <ele>170</ele>
        <time>2026-08-13T06:07:48.000Z</time>
        <extensions>
          <ns3:TrackPointExtension>
            <ns3:hr>90</ns3:hr>
            <ns3:cad>47</ns3:cad>
          </ns3:TrackPointExtension>
        </extensions>
      </trkpt>
      <trkpt lat="43.7625120766460895538330078125" lon="1.57520159147679805755615234375">
        <ele>170</ele>
        <time>2026-08-13T06:07:49.000Z</time>
        <extensions>
          <ns3:TrackPointExtension>
            <ns3:hr>91</ns3:hr>
            <ns3:cad>48</ns3:cad>
          </ns3:TrackPointExtension>
        </extensions>
      </trkpt>
      <trkpt lat="43.7625030241906642913818359375" lon="1.57518281601369380950927734375">
        <ele>170</ele>
        <time>2026-08-13T06:07:50.000Z</time>
        <extensions>
          <ns3:TrackPointExtension>
            <ns3:hr>90</ns3:hr>
            <ns3:cad>48</ns3:cad>
          </ns3:TrackPointExtension>
        </extensions>
      </trkpt>
      <trkpt lat="43.76249690540134906768798828125" lon="1.57516689039766788482666015625">
        <ele>170</ele>
        <time>2026-08-13T06:07:51.000Z</time>
        <extensions>
          <ns3:TrackPointExtension>
            <ns3:hr>90</ns3:hr>
            <ns3:cad>48</ns3:cad>
          </ns3:TrackPointExtension>
        </extensions>
      </trkpt>
      <trkpt lat="43.76249254681169986724853515625" lon="1.575156748294830322265625">
        <ele>169.8000030517578125</ele>
        <time>2026-08-13T06:07:52.000Z</time>
        <extensions>
          <ns3:TrackPointExtension>
            <ns3:hr>90</ns3:hr>
            <ns3:cad>48</ns3:cad>
          </ns3:TrackPointExtension>
        </extensions>
      </trkpt>
      <trkpt lat="43.76248843967914581298828125" lon="1.57514811493456363677978515625">
        <ele>169.8000030517578125</ele>
        <time>2026-08-13T06:07:53.000Z</time>
        <extensions>
          <ns3:TrackPointExtension>
            <ns3:hr>90</ns3:hr>
            <ns3:cad>48</ns3:cad>
          </ns3:TrackPointExtension>
        </extensions>
      </trkpt>
      <trkpt lat="43.76248173415660858154296875" lon="1.5751357935369014739990234375">
        <ele>169.8000030517578125</ele>
        <time>2026-08-13T06:07:54.000Z</time>
        <extensions>
          <ns3:TrackPointExtension>
            <ns3:hr>90</ns3:hr>
            <ns3:cad>48</ns3:cad>
          </ns3:TrackPointExtension>
        </extensions>
      </trkpt>
      <trkpt lat="43.76247075386345386505126953125" lon="1.5751210413873195648193359375">
        <ele>169.8000030517578125</ele>
        <time>2026-08-13T06:07:55.000Z</time>
        <extensions>
          <ns3:TrackPointExtension>
            <ns3:hr>89</ns3:hr>
            <ns3:cad>48</ns3:cad>
          </ns3:TrackPointExtension>
        </extensions>
      </trkpt>
      <trkpt lat="43.76246522180736064910888671875" lon="1.57510939054191112518310546875">
        <ele>169.8000030517578125</ele>
        <time>2026-08-13T06:07:56.000Z</time>
        <extensions>
          <ns3:TrackPointExtension>
            <ns3:hr>89</ns3:hr>
            <ns3:cad>48</ns3:cad>
          </ns3:TrackPointExtension>
        </extensions>
      </trkpt>
      <trkpt lat="43.76246429979801177978515625" lon="1.57510109245777130126953125">
        <ele>169.8000030517578125</ele>
        <time>2026-08-13T06:07:57.000Z</time>
        <extensions>
          <ns3:TrackPointExtension>
            <ns3:hr>89</ns3:hr>
            <ns3:cad>48</ns3:cad>
          </ns3:TrackPointExtension>
        </extensions>
      </trkpt>
      <trkpt lat="43.76246161758899688720703125" lon="1.57509329728782176971435546875">
        <ele>169.8000030517578125</ele>
        <time>2026-08-13T06:07:58.000Z</time>
        <extensions>
          <ns3:TrackPointExtension>
            <ns3:hr>88</ns3:hr>
            <ns3:cad>48</ns3:cad>
          </ns3:TrackPointExtension>
        </extensions>
      </trkpt>
      <trkpt lat="43.76245683990418910980224609375" lon="1.5750777907669544219970703125">
        <ele>169.8000030517578125</ele>
        <time>2026-08-13T06:07:59.000Z</time>
        <extensions>
          <ns3:TrackPointExtension>
            <ns3:hr>88</ns3:hr>
            <ns3:cad>48</ns3:cad>
          </ns3:TrackPointExtension>
        </extensions>
      </trkpt>
      <trkpt lat="43.76244845800101757049560546875" lon="1.57506345771253108978271484375">
        <ele>169.8000030517578125</ele>
        <time>2026-08-13T06:08:00.000Z</time>
        <extensions>
          <ns3:TrackPointExtension>
            <ns3:hr>88</ns3:hr>
            <ns3:cad>48</ns3:cad>
          </ns3:TrackPointExtension>
        </extensions>
      </trkpt>
      <trkpt lat="43.762442171573638916015625" lon="1.5750492922961711883544921875">
        <ele>169.8000030517578125</ele>
        <time>2026-08-13T06:08:01.000Z</time>
        <extensions>
          <ns3:TrackPointExtension>
            <ns3:hr>87</ns3:hr>
            <ns3:cad>48</ns3:cad>
          </ns3:TrackPointExtension>
        </extensions>
      </trkpt>
      <trkpt lat="43.7624394893646240234375" lon="1.5750402398407459259033203125">
        <ele>169.600006103515625</ele>
        <time>2026-08-13T06:08:02.000Z</time>
        <extensions>
          <ns3:TrackPointExtension>
            <ns3:hr>87</ns3:hr>
            <ns3:cad>48</ns3:cad>
          </ns3:TrackPointExtension>
        </extensions>
      </trkpt>
      <trkpt lat="43.7624389864504337310791015625" lon="1.57503026537597179412841796875">
        <ele>169.600006103515625</ele>
        <time>2026-08-13T06:08:03.000Z</time>
        <extensions>
          <ns3:TrackPointExtension>
            <ns3:hr>86</ns3:hr>
            <ns3:cad>48</ns3:cad>
          </ns3:TrackPointExtension>
        </extensions>
      </trkpt>
      <trkpt lat="43.76243077218532562255859375" lon="1.57501651905477046966552734375">
        <ele>169.600006103515625</ele>
        <time>2026-08-13T06:08:04.000Z</time>
        <extensions>
          <ns3:TrackPointExtension>
            <ns3:hr>86</ns3:hr>
            <ns3:cad>48</ns3:cad>
          </ns3:TrackPointExtension>
        </extensions>
      </trkpt>
      <trkpt lat="43.7624232284724712371826171875" lon="1.57499690540134906768798828125">
        <ele>169.600006103515625</ele>
        <time>2026-08-13T06:08:05.000Z</time>
        <extensions>
          <ns3:TrackPointExtension>
            <ns3:hr>86</ns3:hr>
            <ns3:cad>48</ns3:cad>
          </ns3:TrackPointExtension>
        </extensions>
      </trkpt>
      <trkpt lat="43.76242063008248805999755859375" lon="1.57497930340468883514404296875">
        <ele>169.600006103515625</ele>
        <time>2026-08-13T06:08:06.000Z</time>
        <extensions>
          <ns3:TrackPointExtension>
            <ns3:hr>86</ns3:hr>
            <ns3:cad>48</ns3:cad>
          </ns3:TrackPointExtension>
        </extensions>
      </trkpt>
      <trkpt lat="43.76241543330252170562744140625" lon="1.5749701671302318572998046875">
        <ele>169.600006103515625</ele>
        <time>2026-08-13T06:08:07.000Z</time>
        <extensions>
          <ns3:TrackPointExtension>
            <ns3:hr>85</ns3:hr>
            <ns3:cad>48</ns3:cad>
          </ns3:TrackPointExtension>
        </extensions>
      </trkpt>
      <trkpt lat="43.7624124996364116668701171875" lon="1.57495533116161823272705078125">
        <ele>169.600006103515625</ele>
        <time>2026-08-13T06:08:08.000Z</time>
        <extensions>
          <ns3:TrackPointExtension>
            <ns3:hr>85</ns3:hr>
            <ns3:cad>48</ns3:cad>
          </ns3:TrackPointExtension>
        </extensions>
      </trkpt>
      <trkpt lat="43.762402944266796112060546875" lon="1.57493747770786285400390625">
        <ele>169.600006103515625</ele>
        <time>2026-08-13T06:08:09.000Z</time>
        <extensions>
          <ns3:TrackPointExtension>
            <ns3:hr>85</ns3:hr>
            <ns3:cad>48</ns3:cad>
          </ns3:TrackPointExtension>
        </extensions>
      </trkpt>
      <trkpt lat="43.762394227087497711181640625" lon="1.57492197118699550628662109375">
        <ele>169.600006103515625</ele>
        <time>2026-08-13T06:08:10.000Z</time>
        <extensions>
          <ns3:TrackPointExtension>
            <ns3:hr>85</ns3:hr>
            <ns3:cad>49</ns3:cad>
          </ns3:TrackPointExtension>
        </extensions>
      </trkpt>
      <trkpt lat="43.76238978467881679534912109375" lon="1.57491199672222137451171875">
        <ele>169.600006103515625</ele>
        <time>2026-08-13T06:08:11.000Z</time>
        <extensions>
          <ns3:TrackPointExtension>
            <ns3:hr>85</ns3:hr>
            <ns3:cad>49</ns3:cad>
          </ns3:TrackPointExtension>
        </extensions>
      </trkpt>
      <trkpt lat="43.76238609664142131805419921875" lon="1.574906967580318450927734375">
        <ele>169.600006103515625</ele>
        <time>2026-08-13T06:08:12.000Z</time>
        <extensions>
          <ns3:TrackPointExtension>
            <ns3:hr>84</ns3:hr>
            <ns3:cad>47</ns3:cad>
          </ns3:TrackPointExtension>
        </extensions>
      </trkpt>
      <trkpt lat="43.7623783014714717864990234375" lon="1.57489213161170482635498046875">
        <ele>169.399993896484375</ele>
        <time>2026-08-13T06:08:13.000Z</time>
        <extensions>
          <ns3:TrackPointExtension>
            <ns3:hr>84</ns3:hr>
            <ns3:cad>46</ns3:cad>
          </ns3:TrackPointExtension>
        </extensions>
      </trkpt>
      <trkpt lat="43.7623712606728076934814453125" lon="1.57487754710018634796142578125">
        <ele>169.399993896484375</ele>
        <time>2026-08-13T06:08:14.000Z</time>
        <extensions>
          <ns3:TrackPointExtension>
            <ns3:hr>84</ns3:hr>
            <ns3:cad>46</ns3:cad>
          </ns3:TrackPointExtension>
        </extensions>
      </trkpt>
      <trkpt lat="43.76236866228282451629638671875" lon="1.57486530952155590057373046875">
        <ele>169.399993896484375</ele>
        <time>2026-08-13T06:08:15.000Z</time>
        <extensions>
          <ns3:TrackPointExtension>
            <ns3:hr>83</ns3:hr>
            <ns3:cad>46</ns3:cad>
          </ns3:TrackPointExtension>
        </extensions>
      </trkpt>
      <trkpt lat="43.7623645551502704620361328125" lon="1.57485441304743289947509765625">
        <ele>169.399993896484375</ele>
        <time>2026-08-13T06:08:16.000Z</time>
        <extensions>
          <ns3:TrackPointExtension>
            <ns3:hr>83</ns3:hr>
            <ns3:cad>46</ns3:cad>
          </ns3:TrackPointExtension>
        </extensions>
      </trkpt>
      <trkpt lat="43.76235860399901866912841796875" lon="1.5748417563736438751220703125">
        <ele>169.399993896484375</ele>
        <time>2026-08-13T06:08:17.000Z</time>
        <extensions>
          <ns3:TrackPointExtension>
            <ns3:hr>83</ns3:hr>
            <ns3:cad>46</ns3:cad>
          </ns3:TrackPointExtension>
        </extensions>
      </trkpt>
      <trkpt lat="43.7623511441051959991455078125" lon="1.574827171862125396728515625">
        <ele>169.399993896484375</ele>
        <time>2026-08-13T06:08:18.000Z</time>
        <extensions>
          <ns3:TrackPointExtension>
            <ns3:hr>83</ns3:hr>
            <ns3:cad>46</ns3:cad>
          </ns3:TrackPointExtension>
        </extensions>
      </trkpt>
      <trkpt lat="43.762341924011707305908203125" lon="1.574814431369304656982421875">
        <ele>169.399993896484375</ele>
        <time>2026-08-13T06:08:19.000Z</time>
        <extensions>
          <ns3:TrackPointExtension>
            <ns3:hr>83</ns3:hr>
            <ns3:cad>46</ns3:cad>
          </ns3:TrackPointExtension>
        </extensions>
      </trkpt>
      <trkpt lat="43.7623362243175506591796875" lon="1.574799679219722747802734375">
        <ele>169.399993896484375</ele>
        <time>2026-08-13T06:08:20.000Z</time>
        <extensions>
          <ns3:TrackPointExtension>
            <ns3:hr>82</ns3:hr>
            <ns3:cad>47</ns3:cad>
          </ns3:TrackPointExtension>
        </extensions>
      </trkpt>
      <trkpt lat="43.7623290158808231353759765625" lon="1.574786938726902008056640625">
        <ele>169.399993896484375</ele>
        <time>2026-08-13T06:08:21.000Z</time>
        <extensions>
          <ns3:TrackPointExtension>
            <ns3:hr>82</ns3:hr>
            <ns3:cad>47</ns3:cad>
          </ns3:TrackPointExtension>
        </extensions>
      </trkpt>
      <trkpt lat="43.76232440583407878875732421875" lon="1.574773527681827545166015625">
        <ele>169.600006103515625</ele>
        <time>2026-08-13T06:08:22.000Z</time>
        <extensions>
          <ns3:TrackPointExtension>
            <ns3:hr>82</ns3:hr>
            <ns3:cad>47</ns3:cad>
          </ns3:TrackPointExtension>
        </extensions>
      </trkpt>
      <trkpt lat="43.76231770031154155731201171875" lon="1.5747643075883388519287109375">
        <ele>169.600006103515625</ele>
        <time>2026-08-13T06:08:23.000Z</time>
        <extensions>
          <ns3:TrackPointExtension>
            <ns3:hr>81</ns3:hr>
            <ns3:cad>48</ns3:cad>
          </ns3:TrackPointExtension>
        </extensions>
      </trkpt>
      <trkpt lat="43.7623088993132114410400390625" lon="1.57475617714226245880126953125">
        <ele>169.600006103515625</ele>
        <time>2026-08-13T06:08:24.000Z</time>
        <extensions>
          <ns3:TrackPointExtension>
            <ns3:hr>81</ns3:hr>
            <ns3:cad>49</ns3:cad>
          </ns3:TrackPointExtension>
        </extensions>
      </trkpt>
      <trkpt lat="43.76230076886713504791259765625" lon="1.57474745996296405792236328125">
        <ele>169.8000030517578125</ele>
        <time>2026-08-13T06:08:25.000Z</time>
        <extensions>
          <ns3:TrackPointExtension>
            <ns3:hr>81</ns3:hr>
            <ns3:cad>49</ns3:cad>
          </ns3:TrackPointExtension>
        </extensions>
      </trkpt>
      <trkpt lat="43.76229641027748584747314453125" lon="1.57473388127982616424560546875">
        <ele>169.600006103515625</ele>
        <time>2026-08-13T06:08:26.000Z</time>
        <extensions>
          <ns3:TrackPointExtension>
            <ns3:hr>81</ns3:hr>
            <ns3:cad>49</ns3:cad>
          </ns3:TrackPointExtension>
        </extensions>
      </trkpt>
      <trkpt lat="43.7622928060591220855712890625" lon="1.57472214661538600921630859375">
        <ele>169.600006103515625</ele>
        <time>2026-08-13T06:08:27.000Z</time>
        <extensions>
          <ns3:TrackPointExtension>
            <ns3:hr>81</ns3:hr>
            <ns3:cad>49</ns3:cad>
          </ns3:TrackPointExtension>
        </extensions>
      </trkpt>
      <trkpt lat="43.76229272224009037017822265625" lon="1.57470881938934326171875">
        <ele>169.600006103515625</ele>
        <time>2026-08-13T06:08:28.000Z</time>
        <extensions>
          <ns3:TrackPointExtension>
            <ns3:hr>81</ns3:hr>
            <ns3:cad>49</ns3:cad>
          </ns3:TrackPointExtension>
        </extensions>
      </trkpt>
      <trkpt lat="43.76228601671755313873291015625" lon="1.574695408344268798828125">
        <ele>169.600006103515625</ele>
        <time>2026-08-13T06:08:29.000Z</time>
        <extensions>
          <ns3:TrackPointExtension>
            <ns3:hr>81</ns3:hr>
            <ns3:cad>49</ns3:cad>
          </ns3:TrackPointExtension>
        </extensions>
      </trkpt>
      <trkpt lat="43.762286603450775146484375" lon="1.574685685336589813232421875">
        <ele>169.399993896484375</ele>
        <time>2026-08-13T06:08:30.000Z</time>
        <extensions>
          <ns3:TrackPointExtension>
            <ns3:hr>81</ns3:hr>
            <ns3:cad>49</ns3:cad>
          </ns3:TrackPointExtension>
        </extensions>
      </trkpt>
      <trkpt lat="43.7622827477753162384033203125" lon="1.5746806561946868896484375">
        <ele>169.399993896484375</ele>
        <time>2026-08-13T06:08:31.000Z</time>
        <extensions>
          <ns3:TrackPointExtension>
            <ns3:hr>81</ns3:hr>
            <ns3:cad>48</ns3:cad>
          </ns3:TrackPointExtension>
        </extensions>
      </trkpt>
      <trkpt lat="43.76227344386279582977294921875" lon="1.5746670775115489959716796875">
        <ele>169.1999969482421875</ele>
        <time>2026-08-13T06:08:32.000Z</time>
        <extensions>
          <ns3:TrackPointExtension>
            <ns3:hr>81</ns3:hr>
            <ns3:cad>48</ns3:cad>
          </ns3:TrackPointExtension>
        </extensions>
      </trkpt>
      <trkpt lat="43.76226757653057575225830078125" lon="1.57465559430420398712158203125">
        <ele>169.1999969482421875</ele>
        <time>2026-08-13T06:08:33.000Z</time>
        <extensions>
          <ns3:TrackPointExtension>
            <ns3:hr>82</ns3:hr>
            <ns3:cad>48</ns3:cad>
          </ns3:TrackPointExtension>
        </extensions>
      </trkpt>
      <trkpt lat="43.76226573251187801361083984375" lon="1.5746449492871761322021484375">
        <ele>169.1999969482421875</ele>
        <time>2026-08-13T06:08:34.000Z</time>
        <extensions>
          <ns3:TrackPointExtension>
            <ns3:hr>82</ns3:hr>
            <ns3:cad>48</ns3:cad>
          </ns3:TrackPointExtension>
        </extensions>
      </trkpt>
      <trkpt lat="43.76226003281772136688232421875" lon="1.57463480718433856964111328125">
        <ele>169.1999969482421875</ele>
        <time>2026-08-13T06:08:35.000Z</time>
        <extensions>
          <ns3:TrackPointExtension>
            <ns3:hr>82</ns3:hr>
            <ns3:cad>0</ns3:cad>
          </ns3:TrackPointExtension>
        </extensions>
      </trkpt>
      <trkpt lat="43.76225416548550128936767578125" lon="1.5746244974434375762939453125">
        <ele>169.399993896484375</ele>
        <time>2026-08-13T06:08:36.000Z</time>
        <extensions>
          <ns3:TrackPointExtension>
            <ns3:hr>83</ns3:hr>
            <ns3:cad>0</ns3:cad>
          </ns3:TrackPointExtension>
        </extensions>
      </trkpt>
      <trkpt lat="43.76225030981004238128662109375" lon="1.57460949383676052093505859375">
        <ele>169.399993896484375</ele>
        <time>2026-08-13T06:08:37.000Z</time>
        <extensions>
          <ns3:TrackPointExtension>
            <ns3:hr>83</ns3:hr>
            <ns3:cad>0</ns3:cad>
          </ns3:TrackPointExtension>
        </extensions>
      </trkpt>
      <trkpt lat="43.762246705591678619384765625" lon="1.574598848819732666015625">
        <ele>169.399993896484375</ele>
        <time>2026-08-13T06:08:38.000Z</time>
        <extensions>
          <ns3:TrackPointExtension>
            <ns3:hr>83</ns3:hr>
            <ns3:cad>0</ns3:cad>
          </ns3:TrackPointExtension>
        </extensions>
      </trkpt>
      <trkpt lat="43.76224226318299770355224609375" lon="1.574588455259799957275390625">
        <ele>169.399993896484375</ele>
        <time>2026-08-13T06:08:39.000Z</time>
        <extensions>
          <ns3:TrackPointExtension>
            <ns3:hr>83</ns3:hr>
            <ns3:cad>0</ns3:cad>
          </ns3:TrackPointExtension>
        </extensions>
      </trkpt>
      <trkpt lat="43.76223765313625335693359375" lon="1.57457747496664524078369140625">
        <ele>169.399993896484375</ele>
        <time>2026-08-13T06:08:40.000Z</time>
        <extensions>
          <ns3:TrackPointExtension>
            <ns3:hr>83</ns3:hr>
            <ns3:cad>0</ns3:cad>
          </ns3:TrackPointExtension>
        </extensions>
      </trkpt>
      <trkpt lat="43.76223228871822357177734375" lon="1.5745638124644756317138671875">
        <ele>169.1999969482421875</ele>
        <time>2026-08-13T06:08:41.000Z</time>
        <extensions>
          <ns3:TrackPointExtension>
            <ns3:hr>83</ns3:hr>
            <ns3:cad>0</ns3:cad>
          </ns3:TrackPointExtension>
        </extensions>
      </trkpt>
      <trkpt lat="43.76222633756697177886962890625" lon="1.5745504014194011688232421875">
        <ele>169</ele>
        <time>2026-08-13T06:08:42.000Z</time>
        <extensions>
          <ns3:TrackPointExtension>
            <ns3:hr>83</ns3:hr>
            <ns3:cad>48</ns3:cad>
          </ns3:TrackPointExtension>
        </extensions>
      </trkpt>
      <trkpt lat="43.76222130842506885528564453125" lon="1.57453648746013641357421875">
        <ele>169</ele>
        <time>2026-08-13T06:08:43.000Z</time>
        <extensions>
          <ns3:TrackPointExtension>
            <ns3:hr>83</ns3:hr>
            <ns3:cad>48</ns3:cad>
          </ns3:TrackPointExtension>
        </extensions>
      </trkpt>
      <trkpt lat="43.76221560873091220855712890625" lon="1.574529446661472320556640625">
        <ele>169</ele>
        <time>2026-08-13T06:08:44.000Z</time>
        <extensions>
          <ns3:TrackPointExtension>
            <ns3:hr>83</ns3:hr>
            <ns3:cad>48</ns3:cad>
          </ns3:TrackPointExtension>
        </extensions>
      </trkpt>
      <trkpt lat="43.76220840029418468475341796875" lon="1.57451771199703216552734375">
        <ele>169</ele>
        <time>2026-08-13T06:08:45.000Z</time>
        <extensions>
          <ns3:TrackPointExtension>
            <ns3:hr>82</ns3:hr>
            <ns3:cad>47</ns3:cad>
          </ns3:TrackPointExtension>
        </extensions>
      </trkpt>
      <trkpt lat="43.76220186240971088409423828125" lon="1.5745036303997039794921875">
        <ele>169</ele>
        <time>2026-08-13T06:08:46.000Z</time>
        <extensions>
          <ns3:TrackPointExtension>
            <ns3:hr>83</ns3:hr>
            <ns3:cad>47</ns3:cad>
          </ns3:TrackPointExtension>
        </extensions>
      </trkpt>
      <trkpt lat="43.7621925584971904754638671875" lon="1.57448980025947093963623046875">
        <ele>169</ele>
        <time>2026-08-13T06:08:47.000Z</time>
        <extensions>
          <ns3:TrackPointExtension>
            <ns3:hr>83</ns3:hr>
            <ns3:cad>47</ns3:cad>
          </ns3:TrackPointExtension>
        </extensions>
      </trkpt>
      <trkpt lat="43.7621913850307464599609375" lon="1.57447923906147480010986328125">
        <ele>169</ele>
        <time>2026-08-13T06:08:48.000Z</time>
        <extensions>
          <ns3:TrackPointExtension>
            <ns3:hr>82</ns3:hr>
            <ns3:cad>48</ns3:cad>
          </ns3:TrackPointExtension>
        </extensions>
      </trkpt>
      <trkpt lat="43.7621875293552875518798828125" lon="1.5744669176638126373291015625">
        <ele>169</ele>
        <time>2026-08-13T06:08:49.000Z</time>
        <extensions>
          <ns3:TrackPointExtension>
            <ns3:hr>83</ns3:hr>
            <ns3:cad>48</ns3:cad>
          </ns3:TrackPointExtension>
        </extensions>
      </trkpt>
      <trkpt lat="43.76218224875628948211669921875" lon="1.57444663345813751220703125">
        <ele>169</ele>
        <time>2026-08-13T06:08:50.000Z</time>
        <extensions>
          <ns3:TrackPointExtension>
            <ns3:hr>82</ns3:hr>
            <ns3:cad>48</ns3:cad>
          </ns3:TrackPointExtension>
        </extensions>
      </trkpt>
      <trkpt lat="43.76217403449118137359619140625" lon="1.5744263492524623870849609375">
        <ele>168.8000030517578125</ele>
        <time>2026-08-13T06:08:51.000Z</time>
        <extensions>
          <ns3:TrackPointExtension>
            <ns3:hr>82</ns3:hr>
            <ns3:cad>48</ns3:cad>
          </ns3:TrackPointExtension>
        </extensions>
      </trkpt>
      <trkpt lat="43.7621697597205638885498046875" lon="1.57441310584545135498046875">
        <ele>168.8000030517578125</ele>
        <time>2026-08-13T06:08:52.000Z</time>
        <extensions>
          <ns3:TrackPointExtension>
            <ns3:hr>82</ns3:hr>
            <ns3:cad>48</ns3:cad>
          </ns3:TrackPointExtension>
        </extensions>
      </trkpt>
      <trkpt lat="43.76216464675962924957275390625" lon="1.57440514303743839263916015625">
        <ele>168.600006103515625</ele>
        <time>2026-08-13T06:08:53.000Z</time>
        <extensions>
          <ns3:TrackPointExtension>
            <ns3:hr>82</ns3:hr>
            <ns3:cad>48</ns3:cad>
          </ns3:TrackPointExtension>
        </extensions>
      </trkpt>
      <trkpt lat="43.76216012053191661834716796875" lon="1.57439625822007656097412109375">
        <ele>168.600006103515625</ele>
        <time>2026-08-13T06:08:54.000Z</time>
        <extensions>
          <ns3:TrackPointExtension>
            <ns3:hr>81</ns3:hr>
            <ns3:cad>48</ns3:cad>
          </ns3:TrackPointExtension>
        </extensions>
      </trkpt>
      <trkpt lat="43.7621560133993625640869140625" lon="1.57438385300338268280029296875">
        <ele>168.600006103515625</ele>
        <time>2026-08-13T06:08:55.000Z</time>
        <extensions>
          <ns3:TrackPointExtension>
            <ns3:hr>81</ns3:hr>
            <ns3:cad>48</ns3:cad>
          </ns3:TrackPointExtension>
        </extensions>
      </trkpt>
      <trkpt lat="43.76214805059134960174560546875" lon="1.574370525777339935302734375">
        <ele>168.600006103515625</ele>
        <time>2026-08-13T06:08:56.000Z</time>
        <extensions>
          <ns3:TrackPointExtension>
            <ns3:hr>81</ns3:hr>
            <ns3:cad>48</ns3:cad>
          </ns3:TrackPointExtension>
        </extensions>
      </trkpt>
      <trkpt lat="43.76214268617331981658935546875" lon="1.574357114732265472412109375">
        <ele>168.600006103515625</ele>
        <time>2026-08-13T06:08:57.000Z</time>
        <extensions>
          <ns3:TrackPointExtension>
            <ns3:hr>82</ns3:hr>
            <ns3:cad>48</ns3:cad>
          </ns3:TrackPointExtension>
        </extensions>
      </trkpt>
      <trkpt lat="43.76213916577398777008056640625" lon="1.57434764318168163299560546875">
        <ele>168.600006103515625</ele>
        <time>2026-08-13T06:08:58.000Z</time>
        <extensions>
          <ns3:TrackPointExtension>
            <ns3:hr>82</ns3:hr>
            <ns3:cad>47</ns3:cad>
          </ns3:TrackPointExtension>
        </extensions>
      </trkpt>
      <trkpt lat="43.76213614828884601593017578125" lon="1.57433859072625637054443359375">
        <ele>168.399993896484375</ele>
        <time>2026-08-13T06:08:59.000Z</time>
        <extensions>
          <ns3:TrackPointExtension>
            <ns3:hr>82</ns3:hr>
            <ns3:cad>48</ns3:cad>
          </ns3:TrackPointExtension>
        </extensions>
      </trkpt>
      <trkpt lat="43.76213044859468936920166015625" lon="1.5743210725486278533935546875">
        <ele>168.399993896484375</ele>
        <time>2026-08-13T06:09:00.000Z</time>
        <extensions>
          <ns3:TrackPointExtension>
            <ns3:hr>82</ns3:hr>
            <ns3:cad>49</ns3:cad>
          </ns3:TrackPointExtension>
        </extensions>
      </trkpt>
      <trkpt lat="43.76212491653859615325927734375" lon="1.57430992461740970611572265625">
        <ele>168.399993896484375</ele>
        <time>2026-08-13T06:09:01.000Z</time>
        <extensions>
          <ns3:TrackPointExtension>
            <ns3:hr>82</ns3:hr>
            <ns3:cad>49</ns3:cad>
          </ns3:TrackPointExtension>
        </extensions>
      </trkpt>
      <trkpt lat="43.76211837865412235260009765625" lon="1.57430271618068218231201171875">
        <ele>168.399993896484375</ele>
        <time>2026-08-13T06:09:02.000Z</time>
        <extensions>
          <ns3:TrackPointExtension>
            <ns3:hr>83</ns3:hr>
            <ns3:cad>49</ns3:cad>
          </ns3:TrackPointExtension>
        </extensions>
      </trkpt>
      <trkpt lat="43.7621130980551242828369140625" lon="1.57429466955363750457763671875">
        <ele>168.399993896484375</ele>
        <time>2026-08-13T06:09:03.000Z</time>
        <extensions>
          <ns3:TrackPointExtension>
            <ns3:hr>83</ns3:hr>
            <ns3:cad>46</ns3:cad>
          </ns3:TrackPointExtension>
        </extensions>
      </trkpt>
      <trkpt lat="43.762108571827411651611328125" lon="1.57427689991891384124755859375">
        <ele>168.399993896484375</ele>
        <time>2026-08-13T06:09:04.000Z</time>
        <extensions>
          <ns3:TrackPointExtension>
            <ns3:hr>83</ns3:hr>
            <ns3:cad>46</ns3:cad>
          </ns3:TrackPointExtension>
        </extensions>
      </trkpt>
      <trkpt lat="43.76210077665746212005615234375" lon="1.5742627345025539398193359375">
        <ele>168.399993896484375</ele>
        <time>2026-08-13T06:09:05.000Z</time>
        <extensions>
          <ns3:TrackPointExtension>
            <ns3:hr>83</ns3:hr>
            <ns3:cad>46</ns3:cad>
          </ns3:TrackPointExtension>
        </extensions>
      </trkpt>
      <trkpt lat="43.7620948255062103271484375" lon="1.57425225712358951568603515625">
        <ele>168.399993896484375</ele>
        <time>2026-08-13T06:09:06.000Z</time>
        <extensions>
          <ns3:TrackPointExtension>
            <ns3:hr>83</ns3:hr>
            <ns3:cad>46</ns3:cad>
          </ns3:TrackPointExtension>
        </extensions>
      </trkpt>
      <trkpt lat="43.76209222711622714996337890625" lon="1.57424102537333965301513671875">
        <ele>168.1999969482421875</ele>
        <time>2026-08-13T06:09:07.000Z</time>
        <extensions>
          <ns3:TrackPointExtension>
            <ns3:hr>83</ns3:hr>
            <ns3:cad>46</ns3:cad>
          </ns3:TrackPointExtension>
        </extensions>
      </trkpt>
      <trkpt lat="43.76208954490721225738525390625" lon="1.57423063181340694427490234375">
        <ele>168.1999969482421875</ele>
        <time>2026-08-13T06:09:08.000Z</time>
        <extensions>
          <ns3:TrackPointExtension>
            <ns3:hr>83</ns3:hr>
            <ns3:cad>47</ns3:cad>
          </ns3:TrackPointExtension>
        </extensions>
      </trkpt>
      <trkpt lat="43.76208451576530933380126953125" lon="1.57421252690255641937255859375">
        <ele>168.1999969482421875</ele>
        <time>2026-08-13T06:09:09.000Z</time>
        <extensions>
          <ns3:TrackPointExtension>
            <ns3:hr>83</ns3:hr>
            <ns3:cad>47</ns3:cad>
          </ns3:TrackPointExtension>
        </extensions>
      </trkpt>
      <trkpt lat="43.76207697205245494842529296875" lon="1.57419660128653049468994140625">
        <ele>168</ele>
        <time>2026-08-13T06:09:10.000Z</time>
        <extensions>
          <ns3:TrackPointExtension>
            <ns3:hr>83</ns3:hr>
            <ns3:cad>47</ns3:cad>
          </ns3:TrackPointExtension>
        </extensions>
      </trkpt>
      <trkpt lat="43.76207143999636173248291015625" lon="1.57417966984212398529052734375">
        <ele>168</ele>
        <time>2026-08-13T06:09:11.000Z</time>
        <extensions>
          <ns3:TrackPointExtension>
            <ns3:hr>84</ns3:hr>
            <ns3:cad>47</ns3:cad>
          </ns3:TrackPointExtension>
        </extensions>
      </trkpt>
      <trkpt lat="43.76206825487315654754638671875" lon="1.57416676171123981475830078125">
        <ele>168</ele>
        <time>2026-08-13T06:09:12.000Z</time>
        <extensions>
          <ns3:TrackPointExtension>
            <ns3:hr>83</ns3:hr>
            <ns3:cad>47</ns3:cad>
          </ns3:TrackPointExtension>
        </extensions>
      </trkpt>
      <trkpt lat="43.7620664946734905242919921875" lon="1.574157290160655975341796875">
        <ele>168</ele>
        <time>2026-08-13T06:09:13.000Z</time>
        <extensions>
          <ns3:TrackPointExtension>
            <ns3:hr>83</ns3:hr>
            <ns3:cad>47</ns3:cad>
          </ns3:TrackPointExtension>
        </extensions>
      </trkpt>
      <trkpt lat="43.76205853186547756195068359375" lon="1.5741403587162494659423828125">
        <ele>168</ele>
        <time>2026-08-13T06:09:14.000Z</time>
        <extensions>
          <ns3:TrackPointExtension>
            <ns3:hr>84</ns3:hr>
            <ns3:cad>47</ns3:cad>
          </ns3:TrackPointExtension>
        </extensions>
      </trkpt>
      <trkpt lat="43.762052245438098907470703125" lon="1.574126444756984710693359375">
        <ele>168</ele>
        <time>2026-08-13T06:09:15.000Z</time>
        <extensions>
          <ns3:TrackPointExtension>
            <ns3:hr>84</ns3:hr>
            <ns3:cad>47</ns3:cad>
          </ns3:TrackPointExtension>
        </extensions>
      </trkpt>
      <trkpt lat="43.76204931177198886871337890625" lon="1.57411563210189342498779296875">
        <ele>168</ele>
        <time>2026-08-13T06:09:16.000Z</time>
        <extensions>
          <ns3:TrackPointExtension>
            <ns3:hr>84</ns3:hr>
            <ns3:cad>48</ns3:cad>
          </ns3:TrackPointExtension>
        </extensions>
      </trkpt>
      <trkpt lat="43.7620470486581325531005859375" lon="1.57410892657935619354248046875">
        <ele>168</ele>
        <time>2026-08-13T06:09:17.000Z</time>
        <extensions>
          <ns3:TrackPointExtension>
            <ns3:hr>84</ns3:hr>
            <ns3:cad>48</ns3:cad>
          </ns3:TrackPointExtension>
        </extensions>
      </trkpt>
      <trkpt lat="43.76203992404043674468994140625" lon="1.57409199513494968414306640625">
        <ele>167.8000030517578125</ele>
        <time>2026-08-13T06:09:18.000Z</time>
        <extensions>
          <ns3:TrackPointExtension>
            <ns3:hr>84</ns3:hr>
            <ns3:cad>48</ns3:cad>
          </ns3:TrackPointExtension>
        </extensions>
      </trkpt>
      <trkpt lat="43.76202936284244060516357421875" lon="1.57407774589955806732177734375">
        <ele>167.8000030517578125</ele>
        <time>2026-08-13T06:09:19.000Z</time>
        <extensions>
          <ns3:TrackPointExtension>
            <ns3:hr>84</ns3:hr>
            <ns3:cad>48</ns3:cad>
          </ns3:TrackPointExtension>
        </extensions>
      </trkpt>
      <trkpt lat="43.76202332787215709686279296875" lon="1.57406534068286418914794921875">
        <ele>167.8000030517578125</ele>
        <time>2026-08-13T06:09:20.000Z</time>
        <extensions>
          <ns3:TrackPointExtension>
            <ns3:hr>83</ns3:hr>
            <ns3:cad>48</ns3:cad>
          </ns3:TrackPointExtension>
        </extensions>
      </trkpt>
      <trkpt lat="43.76202031038701534271240234375" lon="1.5740545280277729034423828125">
        <ele>167.8000030517578125</ele>
        <time>2026-08-13T06:09:21.000Z</time>
        <extensions>
          <ns3:TrackPointExtension>
            <ns3:hr>83</ns3:hr>
            <ns3:cad>47</ns3:cad>
          </ns3:TrackPointExtension>
        </extensions>
      </trkpt>
      <trkpt lat="43.76201796345412731170654296875" lon="1.57404505647718906402587890625">
        <ele>167.8000030517578125</ele>
        <time>2026-08-13T06:09:22.000Z</time>
        <extensions>
          <ns3:TrackPointExtension>
            <ns3:hr>83</ns3:hr>
            <ns3:cad>47</ns3:cad>
          </ns3:TrackPointExtension>
        </extensions>
      </trkpt>
      <trkpt lat="43.7620103359222412109375" lon="1.574031226336956024169921875">
        <ele>167.8000030517578125</ele>
        <time>2026-08-13T06:09:23.000Z</time>
        <extensions>
          <ns3:TrackPointExtension>
            <ns3:hr>83</ns3:hr>
            <ns3:cad>46</ns3:cad>
          </ns3:TrackPointExtension>
        </extensions>
      </trkpt>
      <trkpt lat="43.76200161874294281005859375" lon="1.57401739619672298431396484375">
        <ele>167.8000030517578125</ele>
        <time>2026-08-13T06:09:24.000Z</time>
        <extensions>
          <ns3:TrackPointExtension>
            <ns3:hr>83</ns3:hr>
            <ns3:cad>46</ns3:cad>
          </ns3:TrackPointExtension>
        </extensions>
      </trkpt>
      <trkpt lat="43.76199684105813503265380859375" lon="1.574008427560329437255859375">
        <ele>167.600006103515625</ele>
        <time>2026-08-13T06:09:25.000Z</time>
        <extensions>
          <ns3:TrackPointExtension>
            <ns3:hr>83</ns3:hr>
            <ns3:cad>48</ns3:cad>
          </ns3:TrackPointExtension>
        </extensions>
      </trkpt>
      <trkpt lat="43.76199533231556415557861328125" lon="1.57400004565715789794921875">
        <ele>167.600006103515625</ele>
        <time>2026-08-13T06:09:26.000Z</time>
        <extensions>
          <ns3:TrackPointExtension>
            <ns3:hr>83</ns3:hr>
            <ns3:cad>48</ns3:cad>
          </ns3:TrackPointExtension>
        </extensions>
      </trkpt>
      <trkpt lat="43.76198963262140750885009765625" lon="1.57398772425949573516845703125">
        <ele>167.600006103515625</ele>
        <time>2026-08-13T06:09:27.000Z</time>
        <extensions>
          <ns3:TrackPointExtension>
            <ns3:hr>83</ns3:hr>
            <ns3:cad>48</ns3:cad>
          </ns3:TrackPointExtension>
        </extensions>
      </trkpt>
      <trkpt lat="43.76198041252791881561279296875" lon="1.5739733912050724029541015625">
        <ele>167.600006103515625</ele>
        <time>2026-08-13T06:09:28.000Z</time>
        <extensions>
          <ns3:TrackPointExtension>
            <ns3:hr>83</ns3:hr>
            <ns3:cad>47</ns3:cad>
          </ns3:TrackPointExtension>
        </extensions>
      </trkpt>
      <trkpt lat="43.7619729526340961456298828125" lon="1.57396140508353710174560546875">
        <ele>167.600006103515625</ele>
        <time>2026-08-13T06:09:29.000Z</time>
        <extensions>
          <ns3:TrackPointExtension>
            <ns3:hr>83</ns3:hr>
            <ns3:cad>47</ns3:cad>
          </ns3:TrackPointExtension>
        </extensions>
      </trkpt>
      <trkpt lat="43.76196817494928836822509765625" lon="1.573951430618762969970703125">
        <ele>167.600006103515625</ele>
        <time>2026-08-13T06:09:30.000Z</time>
        <extensions>
          <ns3:TrackPointExtension>
            <ns3:hr>82</ns3:hr>
            <ns3:cad>47</ns3:cad>
          </ns3:TrackPointExtension>
        </extensions>
      </trkpt>
      <trkpt lat="43.76196381635963916778564453125" lon="1.5739418752491474151611328125">
        <ele>167.600006103515625</ele>
        <time>2026-08-13T06:09:31.000Z</time>
        <extensions>
          <ns3:TrackPointExtension>
            <ns3:hr>83</ns3:hr>
            <ns3:cad>48</ns3:cad>
          </ns3:TrackPointExtension>
        </extensions>
      </trkpt>
      <trkpt lat="43.76195493154227733612060546875" lon="1.5739257819950580596923828125">
        <ele>167.600006103515625</ele>
        <time>2026-08-13T06:09:32.000Z</time>
        <extensions>
          <ns3:TrackPointExtension>
            <ns3:hr>82</ns3:hr>
            <ns3:cad>47</ns3:cad>
          </ns3:TrackPointExtension>
        </extensions>
      </trkpt>
      <trkpt lat="43.76195174641907215118408203125" lon="1.573914550244808197021484375">
        <ele>167.600006103515625</ele>
        <time>2026-08-13T06:09:33.000Z</time>
        <extensions>
          <ns3:TrackPointExtension>
            <ns3:hr>82</ns3:hr>
            <ns3:cad>47</ns3:cad>
          </ns3:TrackPointExtension>
        </extensions>
      </trkpt>
      <trkpt lat="43.76194722019135951995849609375" lon="1.5739036537706851959228515625">
        <ele>167.600006103515625</ele>
        <time>2026-08-13T06:09:34.000Z</time>
        <extensions>
          <ns3:TrackPointExtension>
            <ns3:hr>82</ns3:hr>
            <ns3:cad>47</ns3:cad>
          </ns3:TrackPointExtension>
        </extensions>
      </trkpt>
      <trkpt lat="43.76194369979202747344970703125" lon="1.57389200292527675628662109375">
        <ele>167.600006103515625</ele>
        <time>2026-08-13T06:09:35.000Z</time>
        <extensions>
          <ns3:TrackPointExtension>
            <ns3:hr>82</ns3:hr>
            <ns3:cad>45</ns3:cad>
          </ns3:TrackPointExtension>
        </extensions>
      </trkpt>
      <trkpt lat="43.7619360722601413726806640625" lon="1.57387800514698028564453125">
        <ele>167.600006103515625</ele>
        <time>2026-08-13T06:09:36.000Z</time>
        <extensions>
          <ns3:TrackPointExtension>
            <ns3:hr>82</ns3:hr>
            <ns3:cad>44</ns3:cad>
          </ns3:TrackPointExtension>
        </extensions>
      </trkpt>
      <trkpt lat="43.76192727126181125640869140625" lon="1.5738627500832080841064453125">
        <ele>167.600006103515625</ele>
        <time>2026-08-13T06:09:37.000Z</time>
        <extensions>
          <ns3:TrackPointExtension>
            <ns3:hr>82</ns3:hr>
            <ns3:cad>44</ns3:cad>
          </ns3:TrackPointExtension>
        </extensions>
      </trkpt>
      <trkpt lat="43.76192073337733745574951171875" lon="1.57384489662945270538330078125">
        <ele>167.600006103515625</ele>
        <time>2026-08-13T06:09:38.000Z</time>
        <extensions>
          <ns3:TrackPointExtension>
            <ns3:hr>82</ns3:hr>
            <ns3:cad>44</ns3:cad>
          </ns3:TrackPointExtension>
        </extensions>
      </trkpt>
      <trkpt lat="43.7619172967970371246337890625" lon="1.57383115030825138092041015625">
        <ele>167.600006103515625</ele>
        <time>2026-08-13T06:09:39.000Z</time>
        <extensions>
          <ns3:TrackPointExtension>
            <ns3:hr>82</ns3:hr>
            <ns3:cad>47</ns3:cad>
          </ns3:TrackPointExtension>
        </extensions>
      </trkpt>
      <trkpt lat="43.76191419549286365509033203125" lon="1.57382159493863582611083984375">
        <ele>167.600006103515625</ele>
        <time>2026-08-13T06:09:40.000Z</time>
        <extensions>
          <ns3:TrackPointExtension>
            <ns3:hr>82</ns3:hr>
            <ns3:cad>47</ns3:cad>
          </ns3:TrackPointExtension>
        </extensions>
      </trkpt>
      <trkpt lat="43.761906735599040985107421875" lon="1.573807261884212493896484375">
        <ele>167.600006103515625</ele>
        <time>2026-08-13T06:09:41.000Z</time>
        <extensions>
          <ns3:TrackPointExtension>
            <ns3:hr>82</ns3:hr>
            <ns3:cad>47</ns3:cad>
          </ns3:TrackPointExtension>
        </extensions>
      </trkpt>
      <trkpt lat="43.76189810223877429962158203125" lon="1.5737960301339626312255859375">
        <ele>167.600006103515625</ele>
        <time>2026-08-13T06:09:42.000Z</time>
        <extensions>
          <ns3:TrackPointExtension>
            <ns3:hr>82</ns3:hr>
            <ns3:cad>48</ns3:cad>
          </ns3:TrackPointExtension>
        </extensions>
      </trkpt>
      <trkpt lat="43.76189307309687137603759765625" lon="1.57378437928855419158935546875">
        <ele>167.600006103515625</ele>
        <time>2026-08-13T06:09:43.000Z</time>
        <extensions>
          <ns3:TrackPointExtension>
            <ns3:hr>82</ns3:hr>
            <ns3:cad>48</ns3:cad>
          </ns3:TrackPointExtension>
        </extensions>
      </trkpt>
      <trkpt lat="43.761888630688190460205078125" lon="1.57377096824347972869873046875">
        <ele>167.600006103515625</ele>
        <time>2026-08-13T06:09:44.000Z</time>
        <extensions>
          <ns3:TrackPointExtension>
            <ns3:hr>82</ns3:hr>
            <ns3:cad>48</ns3:cad>
          </ns3:TrackPointExtension>
        </extensions>
      </trkpt>
      <trkpt lat="43.76188368536531925201416015625" lon="1.57376158051192760467529296875">
        <ele>167.600006103515625</ele>
        <time>2026-08-13T06:09:45.000Z</time>
        <extensions>
          <ns3:TrackPointExtension>
            <ns3:hr>82</ns3:hr>
            <ns3:cad>48</ns3:cad>
          </ns3:TrackPointExtension>
        </extensions>
      </trkpt>
      <trkpt lat="43.761875890195369720458984375" lon="1.57374632544815540313720703125">
        <ele>167.600006103515625</ele>
        <time>2026-08-13T06:09:46.000Z</time>
        <extensions>
          <ns3:TrackPointExtension>
            <ns3:hr>82</ns3:hr>
            <ns3:cad>47</ns3:cad>
          </ns3:TrackPointExtension>
        </extensions>
      </trkpt>
      <trkpt lat="43.76186625100672245025634765625" lon="1.57373023219406604766845703125">
        <ele>167.600006103515625</ele>
        <time>2026-08-13T06:09:47.000Z</time>
        <extensions>
          <ns3:TrackPointExtension>
            <ns3:hr>81</ns3:hr>
            <ns3:cad>47</ns3:cad>
          </ns3:TrackPointExtension>
        </extensions>
      </trkpt>
      <trkpt lat="43.76185937784612178802490234375" lon="1.57371715642511844635009765625">
        <ele>167.600006103515625</ele>
        <time>2026-08-13T06:09:48.000Z</time>
        <extensions>
          <ns3:TrackPointExtension>
            <ns3:hr>81</ns3:hr>
            <ns3:cad>47</ns3:cad>
          </ns3:TrackPointExtension>
        </extensions>
      </trkpt>
      <trkpt lat="43.76185418106615543365478515625" lon="1.57370642758905887603759765625">
        <ele>167.600006103515625</ele>
        <time>2026-08-13T06:09:49.000Z</time>
        <extensions>
          <ns3:TrackPointExtension>
            <ns3:hr>81</ns3:hr>
            <ns3:cad>48</ns3:cad>
          </ns3:TrackPointExtension>
        </extensions>
      </trkpt>
      <trkpt lat="43.7618522532284259796142578125" lon="1.5736957825720310211181640625">
        <ele>167.8000030517578125</ele>
        <time>2026-08-13T06:09:50.000Z</time>
        <extensions>
          <ns3:TrackPointExtension>
            <ns3:hr>81</ns3:hr>
            <ns3:cad>48</ns3:cad>
          </ns3:TrackPointExtension>
        </extensions>
      </trkpt>
      <trkpt lat="43.7618445418775081634521484375" lon="1.57368312589824199676513671875">
        <ele>167.8000030517578125</ele>
        <time>2026-08-13T06:09:51.000Z</time>
        <extensions>
          <ns3:TrackPointExtension>
            <ns3:hr>81</ns3:hr>
            <ns3:cad>48</ns3:cad>
          </ns3:TrackPointExtension>
        </extensions>
      </trkpt>
      <trkpt lat="43.76183641143143177032470703125" lon="1.57367239706218242645263671875">
        <ele>167.8000030517578125</ele>
        <time>2026-08-13T06:09:52.000Z</time>
        <extensions>
          <ns3:TrackPointExtension>
            <ns3:hr>81</ns3:hr>
            <ns3:cad>48</ns3:cad>
          </ns3:TrackPointExtension>
        </extensions>
      </trkpt>
      <trkpt lat="43.7618324719369411468505859375" lon="1.57366300933063030242919921875">
        <ele>167.8000030517578125</ele>
        <time>2026-08-13T06:09:53.000Z</time>
        <extensions>
          <ns3:TrackPointExtension>
            <ns3:hr>81</ns3:hr>
            <ns3:cad>47</ns3:cad>
          </ns3:TrackPointExtension>
        </extensions>
      </trkpt>
      <trkpt lat="43.761827945709228515625" lon="1.57365395687520503997802734375">
        <ele>167.8000030517578125</ele>
        <time>2026-08-13T06:09:54.000Z</time>
        <extensions>
          <ns3:TrackPointExtension>
            <ns3:hr>81</ns3:hr>
            <ns3:cad>47</ns3:cad>
          </ns3:TrackPointExtension>
        </extensions>
      </trkpt>
      <trkpt lat="43.76182082109153270721435546875" lon="1.5736367739737033843994140625">
        <ele>167.600006103515625</ele>
        <time>2026-08-13T06:09:55.000Z</time>
        <extensions>
          <ns3:TrackPointExtension>
            <ns3:hr>81</ns3:hr>
            <ns3:cad>47</ns3:cad>
          </ns3:TrackPointExtension>
        </extensions>
      </trkpt>
      <trkpt lat="43.7618110142648220062255859375" lon="1.57362227328121662139892578125">
        <ele>167.600006103515625</ele>
        <time>2026-08-13T06:09:56.000Z</time>
        <extensions>
          <ns3:TrackPointExtension>
            <ns3:hr>81</ns3:hr>
            <ns3:cad>47</ns3:cad>
          </ns3:TrackPointExtension>
        </extensions>
      </trkpt>
      <trkpt lat="43.76180506311357021331787109375" lon="1.57360978424549102783203125">
        <ele>167.8000030517578125</ele>
        <time>2026-08-13T06:09:57.000Z</time>
        <extensions>
          <ns3:TrackPointExtension>
            <ns3:hr>81</ns3:hr>
            <ns3:cad>46</ns3:cad>
          </ns3:TrackPointExtension>
        </extensions>
      </trkpt>
      <trkpt lat="43.76179902814328670501708984375" lon="1.57359746284782886505126953125">
        <ele>167.8000030517578125</ele>
        <time>2026-08-13T06:09:58.000Z</time>
        <extensions>
          <ns3:TrackPointExtension>
            <ns3:hr>81</ns3:hr>
            <ns3:cad>45</ns3:cad>
          </ns3:TrackPointExtension>
        </extensions>
      </trkpt>
      <trkpt lat="43.76179366372525691986083984375" lon="1.5735841356217861175537109375">
        <ele>167.8000030517578125</ele>
        <time>2026-08-13T06:09:59.000Z</time>
        <extensions>
          <ns3:TrackPointExtension>
            <ns3:hr>80</ns3:hr>
            <ns3:cad>45</ns3:cad>
          </ns3:TrackPointExtension>
        </extensions>
      </trkpt>
      <trkpt lat="43.76178377307951450347900390625" lon="1.5735707245767116546630859375">
        <ele>167.8000030517578125</ele>
        <time>2026-08-13T06:10:00.000Z</time>
        <extensions>
          <ns3:TrackPointExtension>
            <ns3:hr>80</ns3:hr>
            <ns3:cad>45</ns3:cad>
          </ns3:TrackPointExtension>
        </extensions>
      </trkpt>
      <trkpt lat="43.76177622936666011810302734375" lon="1.5735553018748760223388671875">
        <ele>167.8000030517578125</ele>
        <time>2026-08-13T06:10:01.000Z</time>
        <extensions>
          <ns3:TrackPointExtension>
            <ns3:hr>80</ns3:hr>
            <ns3:cad>46</ns3:cad>
          </ns3:TrackPointExtension>
        </extensions>
      </trkpt>
      <trkpt lat="43.76177094876766204833984375" lon="1.5735460817813873291015625">
        <ele>167.8000030517578125</ele>
        <time>2026-08-13T06:10:02.000Z</time>
        <extensions>
          <ns3:TrackPointExtension>
            <ns3:hr>80</ns3:hr>
            <ns3:cad>46</ns3:cad>
          </ns3:TrackPointExtension>
        </extensions>
      </trkpt>
      <trkpt lat="43.76176801510155200958251953125" lon="1.57353795133531093597412109375">
        <ele>167.8000030517578125</ele>
        <time>2026-08-13T06:10:03.000Z</time>
        <extensions>
          <ns3:TrackPointExtension>
            <ns3:hr>81</ns3:hr>
            <ns3:cad>47</ns3:cad>
          </ns3:TrackPointExtension>
        </extensions>
      </trkpt>
      <trkpt lat="43.76175896264612674713134765625" lon="1.5735227800905704498291015625">
        <ele>167.8000030517578125</ele>
        <time>2026-08-13T06:10:04.000Z</time>
        <extensions>
          <ns3:TrackPointExtension>
            <ns3:hr>81</ns3:hr>
            <ns3:cad>48</ns3:cad>
          </ns3:TrackPointExtension>
        </extensions>
      </trkpt>
      <trkpt lat="43.76175141893327236175537109375" lon="1.57350962050259113311767578125">
        <ele>167.8000030517578125</ele>
        <time>2026-08-13T06:10:05.000Z</time>
        <extensions>
          <ns3:TrackPointExtension>
            <ns3:hr>81</ns3:hr>
            <ns3:cad>48</ns3:cad>
          </ns3:TrackPointExtension>
        </extensions>
      </trkpt>
      <trkpt lat="43.7617466412484645843505859375" lon="1.57349805347621440887451171875">
        <ele>167.8000030517578125</ele>
        <time>2026-08-13T06:10:06.000Z</time>
        <extensions>
          <ns3:TrackPointExtension>
            <ns3:hr>80</ns3:hr>
            <ns3:cad>48</ns3:cad>
          </ns3:TrackPointExtension>
        </extensions>
      </trkpt>
      <trkpt lat="43.76174454577267169952392578125" lon="1.5734895877540111541748046875">
        <ele>167.8000030517578125</ele>
        <time>2026-08-13T06:10:07.000Z</time>
        <extensions>
          <ns3:TrackPointExtension>
            <ns3:hr>81</ns3:hr>
            <ns3:cad>48</ns3:cad>
          </ns3:TrackPointExtension>
        </extensions>
      </trkpt>
      <trkpt lat="43.761738426983356475830078125" lon="1.57347508706152439117431640625">
        <ele>168</ele>
        <time>2026-08-13T06:10:08.000Z</time>
        <extensions>
          <ns3:TrackPointExtension>
            <ns3:hr>81</ns3:hr>
            <ns3:cad>48</ns3:cad>
          </ns3:TrackPointExtension>
        </extensions>
      </trkpt>
      <trkpt lat="43.76172677613794803619384765625" lon="1.573455892503261566162109375">
        <ele>168</ele>
        <time>2026-08-13T06:10:09.000Z</time>
        <extensions>
          <ns3:TrackPointExtension>
            <ns3:hr>81</ns3:hr>
            <ns3:cad>48</ns3:cad>
          </ns3:TrackPointExtension>
        </extensions>
      </trkpt>
      <trkpt lat="43.761720992624759674072265625" lon="1.57344223000109195709228515625">
        <ele>168</ele>
        <time>2026-08-13T06:10:10.000Z</time>
        <extensions>
          <ns3:TrackPointExtension>
            <ns3:hr>81</ns3:hr>
            <ns3:cad>48</ns3:cad>
          </ns3:TrackPointExtension>
        </extensions>
      </trkpt>
      <trkpt lat="43.76171587966382503509521484375" lon="1.57343284226953983306884765625">
        <ele>168</ele>
        <time>2026-08-13T06:10:11.000Z</time>
        <extensions>
          <ns3:TrackPointExtension>
            <ns3:hr>81</ns3:hr>
            <ns3:cad>48</ns3:cad>
          </ns3:TrackPointExtension>
        </extensions>
      </trkpt>
      <trkpt lat="43.76171403564512729644775390625" lon="1.57342496328055858612060546875">
        <ele>168</ele>
        <time>2026-08-13T06:10:12.000Z</time>
        <extensions>
          <ns3:TrackPointExtension>
            <ns3:hr>82</ns3:hr>
            <ns3:cad>47</ns3:cad>
          </ns3:TrackPointExtension>
        </extensions>
      </trkpt>
      <trkpt lat="43.76170515082776546478271484375" lon="1.5734094567596912384033203125">
        <ele>168</ele>
        <time>2026-08-13T06:10:13.000Z</time>
        <extensions>
          <ns3:TrackPointExtension>
            <ns3:hr>82</ns3:hr>
            <ns3:cad>48</ns3:cad>
          </ns3:TrackPointExtension>
        </extensions>
      </trkpt>
      <trkpt lat="43.76169383525848388671875" lon="1.57339076511561870574951171875">
        <ele>168</ele>
        <time>2026-08-13T06:10:14.000Z</time>
        <extensions>
          <ns3:TrackPointExtension>
            <ns3:hr>82</ns3:hr>
            <ns3:cad>48</ns3:cad>
          </ns3:TrackPointExtension>
        </extensions>
      </trkpt>
      <trkpt lat="43.76169123686850070953369140625" lon="1.57337936572730541229248046875">
        <ele>168</ele>
        <time>2026-08-13T06:10:15.000Z</time>
        <extensions>
          <ns3:TrackPointExtension>
            <ns3:hr>82</ns3:hr>
            <ns3:cad>47</ns3:cad>
          </ns3:TrackPointExtension>
        </extensions>
      </trkpt>
      <trkpt lat="43.76168972812592983245849609375" lon="1.57337148673832416534423828125">
        <ele>168</ele>
        <time>2026-08-13T06:10:16.000Z</time>
        <extensions>
          <ns3:TrackPointExtension>
            <ns3:hr>82</ns3:hr>
            <ns3:cad>47</ns3:cad>
          </ns3:TrackPointExtension>
        </extensions>
      </trkpt>
      <trkpt lat="43.76168436370790004730224609375" lon="1.57335908152163028717041015625">
        <ele>168</ele>
        <time>2026-08-13T06:10:17.000Z</time>
        <extensions>
          <ns3:TrackPointExtension>
            <ns3:hr>82</ns3:hr>
            <ns3:cad>47</ns3:cad>
          </ns3:TrackPointExtension>
        </extensions>
      </trkpt>
      <trkpt lat="43.7616738863289356231689453125" lon="1.5733427368104457855224609375">
        <ele>168</ele>
        <time>2026-08-13T06:10:18.000Z</time>
        <extensions>
          <ns3:TrackPointExtension>
            <ns3:hr>83</ns3:hr>
            <ns3:cad>47</ns3:cad>
          </ns3:TrackPointExtension>
        </extensions>
      </trkpt>
      <trkpt lat="43.76166810281574726104736328125" lon="1.57333083450794219970703125">
        <ele>168</ele>
        <time>2026-08-13T06:10:19.000Z</time>
        <extensions>
          <ns3:TrackPointExtension>
            <ns3:hr>83</ns3:hr>
            <ns3:cad>47</ns3:cad>
          </ns3:TrackPointExtension>
        </extensions>
      </trkpt>
      <trkpt lat="43.7616629898548126220703125" lon="1.573318429291248321533203125">
        <ele>168</ele>
        <time>2026-08-13T06:10:20.000Z</time>
        <extensions>
          <ns3:TrackPointExtension>
            <ns3:hr>83</ns3:hr>
            <ns3:cad>47</ns3:cad>
          </ns3:TrackPointExtension>
        </extensions>
      </trkpt>
      <trkpt lat="43.7616604752838611602783203125" lon="1.57330912537872791290283203125">
        <ele>168</ele>
        <time>2026-08-13T06:10:21.000Z</time>
        <extensions>
          <ns3:TrackPointExtension>
            <ns3:hr>83</ns3:hr>
            <ns3:cad>47</ns3:cad>
          </ns3:TrackPointExtension>
        </extensions>
      </trkpt>
      <trkpt lat="43.76165552996098995208740234375" lon="1.5732931159436702728271484375">
        <ele>168</ele>
        <time>2026-08-13T06:10:22.000Z</time>
        <extensions>
          <ns3:TrackPointExtension>
            <ns3:hr>83</ns3:hr>
            <ns3:cad>46</ns3:cad>
          </ns3:TrackPointExtension>
        </extensions>
      </trkpt>
      <trkpt lat="43.76164915971457958221435546875" lon="1.57328263856470584869384765625">
        <ele>168</ele>
        <time>2026-08-13T06:10:23.000Z</time>
        <extensions>
          <ns3:TrackPointExtension>
            <ns3:hr>82</ns3:hr>
            <ns3:cad>46</ns3:cad>
          </ns3:TrackPointExtension>
        </extensions>
      </trkpt>
      <trkpt lat="43.76164480112493038177490234375" lon="1.57327375374734401702880859375">
        <ele>168.1999969482421875</ele>
        <time>2026-08-13T06:10:24.000Z</time>
        <extensions>
          <ns3:TrackPointExtension>
            <ns3:hr>82</ns3:hr>
            <ns3:cad>46</ns3:cad>
          </ns3:TrackPointExtension>
        </extensions>
      </trkpt>
      <trkpt lat="43.7616443820297718048095703125" lon="1.5732644498348236083984375">
        <ele>168.1999969482421875</ele>
        <time>2026-08-13T06:10:25.000Z</time>
        <extensions>
          <ns3:TrackPointExtension>
            <ns3:hr>82</ns3:hr>
            <ns3:cad>46</ns3:cad>
          </ns3:TrackPointExtension>
        </extensions>
      </trkpt>
      <trkpt lat="43.7616370059549808502197265625" lon="1.573252715170383453369140625">
        <ele>168.1999969482421875</ele>
        <time>2026-08-13T06:10:26.000Z</time>
        <extensions>
          <ns3:TrackPointExtension>
            <ns3:hr>83</ns3:hr>
            <ns3:cad>46</ns3:cad>
          </ns3:TrackPointExtension>
        </extensions>
      </trkpt>
      <trkpt lat="43.76162988133728504180908203125" lon="1.57324156723916530609130859375">
        <ele>168.1999969482421875</ele>
        <time>2026-08-13T06:10:27.000Z</time>
        <extensions>
          <ns3:TrackPointExtension>
            <ns3:hr>83</ns3:hr>
            <ns3:cad>46</ns3:cad>
          </ns3:TrackPointExtension>
        </extensions>
      </trkpt>
      <trkpt lat="43.76162476837635040283203125" lon="1.57323167659342288970947265625">
        <ele>168.1999969482421875</ele>
        <time>2026-08-13T06:10:28.000Z</time>
        <extensions>
          <ns3:TrackPointExtension>
            <ns3:hr>83</ns3:hr>
            <ns3:cad>46</ns3:cad>
          </ns3:TrackPointExtension>
        </extensions>
      </trkpt>
      <trkpt lat="43.76162166707217693328857421875" lon="1.573223210871219635009765625">
        <ele>168.1999969482421875</ele>
        <time>2026-08-13T06:10:29.000Z</time>
        <extensions>
          <ns3:TrackPointExtension>
            <ns3:hr>83</ns3:hr>
            <ns3:cad>45</ns3:cad>
          </ns3:TrackPointExtension>
        </extensions>
      </trkpt>
      <trkpt lat="43.76161269843578338623046875" lon="1.573208458721637725830078125">
        <ele>168.1999969482421875</ele>
        <time>2026-08-13T06:10:30.000Z</time>
        <extensions>
          <ns3:TrackPointExtension>
            <ns3:hr>83</ns3:hr>
            <ns3:cad>45</ns3:cad>
          </ns3:TrackPointExtension>
        </extensions>
      </trkpt>
      <trkpt lat="43.76160389743745326995849609375" lon="1.573194377124309539794921875">
        <ele>168.1999969482421875</ele>
        <time>2026-08-13T06:10:31.000Z</time>
        <extensions>
          <ns3:TrackPointExtension>
            <ns3:hr>83</ns3:hr>
            <ns3:cad>45</ns3:cad>
          </ns3:TrackPointExtension>
        </extensions>
      </trkpt>
      <trkpt lat="43.7615984492003917694091796875" lon="1.57318239100277423858642578125">
        <ele>168.1999969482421875</ele>
        <time>2026-08-13T06:10:32.000Z</time>
        <extensions>
          <ns3:TrackPointExtension>
            <ns3:hr>83</ns3:hr>
            <ns3:cad>45</ns3:cad>
          </ns3:TrackPointExtension>
        </extensions>
      </trkpt>
      <trkpt lat="43.76159551553428173065185546875" lon="1.573172248899936676025390625">
        <ele>168.399993896484375</ele>
        <time>2026-08-13T06:10:33.000Z</time>
        <extensions>
          <ns3:TrackPointExtension>
            <ns3:hr>83</ns3:hr>
            <ns3:cad>45</ns3:cad>
          </ns3:TrackPointExtension>
        </extensions>
      </trkpt>
      <trkpt lat="43.76158654689788818359375" lon="1.57316059805452823638916015625">
        <ele>168.399993896484375</ele>
        <time>2026-08-13T06:10:34.000Z</time>
        <extensions>
          <ns3:TrackPointExtension>
            <ns3:hr>84</ns3:hr>
            <ns3:cad>46</ns3:cad>
          </ns3:TrackPointExtension>
        </extensions>
      </trkpt>
      <trkpt lat="43.76158042810857295989990234375" lon="1.573150455951690673828125">
        <ele>168.399993896484375</ele>
        <time>2026-08-13T06:10:35.000Z</time>
        <extensions>
          <ns3:TrackPointExtension>
            <ns3:hr>85</ns3:hr>
            <ns3:cad>46</ns3:cad>
          </ns3:TrackPointExtension>
        </extensions>
      </trkpt>
      <trkpt lat="43.76157791353762149810791015625" lon="1.5731368772685527801513671875">
        <ele>168.399993896484375</ele>
        <time>2026-08-13T06:10:36.000Z</time>
        <extensions>
          <ns3:TrackPointExtension>
            <ns3:hr>85</ns3:hr>
            <ns3:cad>46</ns3:cad>
          </ns3:TrackPointExtension>
        </extensions>
      </trkpt>
      <trkpt lat="43.76157238148152828216552734375" lon="1.573123969137668609619140625">
        <ele>168.399993896484375</ele>
        <time>2026-08-13T06:10:37.000Z</time>
        <extensions>
          <ns3:TrackPointExtension>
            <ns3:hr>86</ns3:hr>
            <ns3:cad>45</ns3:cad>
          </ns3:TrackPointExtension>
        </extensions>
      </trkpt>
      <trkpt lat="43.76156584359705448150634765625" lon="1.57310779206454753875732421875">
        <ele>168.399993896484375</ele>
        <time>2026-08-13T06:10:38.000Z</time>
        <extensions>
          <ns3:TrackPointExtension>
            <ns3:hr>86</ns3:hr>
            <ns3:cad>45</ns3:cad>
          </ns3:TrackPointExtension>
        </extensions>
      </trkpt>
      <trkpt lat="43.76155695877969264984130859375" lon="1.5730927884578704833984375">
        <ele>168.399993896484375</ele>
        <time>2026-08-13T06:10:39.000Z</time>
        <extensions>
          <ns3:TrackPointExtension>
            <ns3:hr>86</ns3:hr>
            <ns3:cad>45</ns3:cad>
          </ns3:TrackPointExtension>
        </extensions>
      </trkpt>
      <trkpt lat="43.76155645586550235748291015625" lon="1.5730785392224788665771484375">
        <ele>168.399993896484375</ele>
        <time>2026-08-13T06:10:40.000Z</time>
        <extensions>
          <ns3:TrackPointExtension>
            <ns3:hr>86</ns3:hr>
            <ns3:cad>46</ns3:cad>
          </ns3:TrackPointExtension>
        </extensions>
      </trkpt>
      <trkpt lat="43.7615535221993923187255859375" lon="1.573071666061878204345703125">
        <ele>168.399993896484375</ele>
        <time>2026-08-13T06:10:41.000Z</time>
        <extensions>
          <ns3:TrackPointExtension>
            <ns3:hr>86</ns3:hr>
            <ns3:cad>46</ns3:cad>
          </ns3:TrackPointExtension>
        </extensions>
      </trkpt>
      <trkpt lat="43.76154622994363307952880859375" lon="1.57305817119777202606201171875">
        <ele>168.399993896484375</ele>
        <time>2026-08-13T06:10:42.000Z</time>
        <extensions>
          <ns3:TrackPointExtension>
            <ns3:hr>87</ns3:hr>
            <ns3:cad>46</ns3:cad>
          </ns3:TrackPointExtension>
        </extensions>
      </trkpt>
      <trkpt lat="43.76153717748820781707763671875" lon="1.573044173419475555419921875">
        <ele>168.399993896484375</ele>
        <time>2026-08-13T06:10:43.000Z</time>
        <extensions>
          <ns3:TrackPointExtension>
            <ns3:hr>87</ns3:hr>
            <ns3:cad>45</ns3:cad>
          </ns3:TrackPointExtension>
        </extensions>
      </trkpt>
      <trkpt lat="43.761535584926605224609375" lon="1.5730319358408451080322265625">
        <ele>168.399993896484375</ele>
        <time>2026-08-13T06:10:44.000Z</time>
        <extensions>
          <ns3:TrackPointExtension>
            <ns3:hr>87</ns3:hr>
            <ns3:cad>44</ns3:cad>
          </ns3:TrackPointExtension>
        </extensions>
      </trkpt>
      <trkpt lat="43.76153784804046154022216796875" lon="1.573021374642848968505859375">
        <ele>168.399993896484375</ele>
        <time>2026-08-13T06:10:45.000Z</time>
        <extensions>
          <ns3:TrackPointExtension>
            <ns3:hr>87</ns3:hr>
            <ns3:cad>44</ns3:cad>
          </ns3:TrackPointExtension>
        </extensions>
      </trkpt>
      <trkpt lat="43.761531226336956024169921875" lon="1.573007963597774505615234375">
        <ele>168.399993896484375</ele>
        <time>2026-08-13T06:10:46.000Z</time>
        <extensions>
          <ns3:TrackPointExtension>
            <ns3:hr>87</ns3:hr>
            <ns3:cad>44</ns3:cad>
          </ns3:TrackPointExtension>
        </extensions>
      </trkpt>
      <trkpt lat="43.76152284443378448486328125" lon="1.57299145124852657318115234375">
        <ele>168.399993896484375</ele>
        <time>2026-08-13T06:10:47.000Z</time>
        <extensions>
          <ns3:TrackPointExtension>
            <ns3:hr>87</ns3:hr>
            <ns3:cad>44</ns3:cad>
          </ns3:TrackPointExtension>
        </extensions>
      </trkpt>
      <trkpt lat="43.7615149654448032379150390625" lon="1.57297720201313495635986328125">
        <ele>168.399993896484375</ele>
        <time>2026-08-13T06:10:48.000Z</time>
        <extensions>
          <ns3:TrackPointExtension>
            <ns3:hr>87</ns3:hr>
            <ns3:cad>45</ns3:cad>
          </ns3:TrackPointExtension>
        </extensions>
      </trkpt>
      <trkpt lat="43.76151052303612232208251953125" lon="1.57296597026288509368896484375">
        <ele>168.399993896484375</ele>
        <time>2026-08-13T06:10:49.000Z</time>
        <extensions>
          <ns3:TrackPointExtension>
            <ns3:hr>86</ns3:hr>
            <ns3:cad>47</ns3:cad>
          </ns3:TrackPointExtension>
        </extensions>
      </trkpt>
      <trkpt lat="43.7615028955042362213134765625" lon="1.57296127639710903167724609375">
        <ele>168.1999969482421875</ele>
        <time>2026-08-13T06:10:50.000Z</time>
        <extensions>
          <ns3:TrackPointExtension>
            <ns3:hr>86</ns3:hr>
            <ns3:cad>48</ns3:cad>
          </ns3:TrackPointExtension>
        </extensions>
      </trkpt>
      <trkpt lat="43.76149929128587245941162109375" lon="1.57295037992298603057861328125">
        <ele>168.1999969482421875</ele>
        <time>2026-08-13T06:10:51.000Z</time>
        <extensions>
          <ns3:TrackPointExtension>
            <ns3:hr>86</ns3:hr>
            <ns3:cad>48</ns3:cad>
          </ns3:TrackPointExtension>
        </extensions>
      </trkpt>
      <trkpt lat="43.76149141229689121246337890625" lon="1.57293462194502353668212890625">
        <ele>168.1999969482421875</ele>
        <time>2026-08-13T06:10:52.000Z</time>
        <extensions>
          <ns3:TrackPointExtension>
            <ns3:hr>85</ns3:hr>
            <ns3:cad>48</ns3:cad>
          </ns3:TrackPointExtension>
        </extensions>
      </trkpt>
      <trkpt lat="43.76148286275565624237060546875" lon="1.5729192830622196197509765625">
        <ele>168.1999969482421875</ele>
        <time>2026-08-13T06:10:53.000Z</time>
        <extensions>
          <ns3:TrackPointExtension>
            <ns3:hr>85</ns3:hr>
            <ns3:cad>47</ns3:cad>
          </ns3:TrackPointExtension>
        </extensions>
      </trkpt>
      <trkpt lat="43.7614764086902141571044921875" lon="1.57290704548358917236328125">
        <ele>168.1999969482421875</ele>
        <time>2026-08-13T06:10:54.000Z</time>
        <extensions>
          <ns3:TrackPointExtension>
            <ns3:hr>84</ns3:hr>
            <ns3:cad>47</ns3:cad>
          </ns3:TrackPointExtension>
        </extensions>
      </trkpt>
      <trkpt lat="43.76147096045315265655517578125" lon="1.572899334132671356201171875">
        <ele>168</ele>
        <time>2026-08-13T06:10:55.000Z</time>
        <extensions>
          <ns3:TrackPointExtension>
            <ns3:hr>84</ns3:hr>
            <ns3:cad>47</ns3:cad>
          </ns3:TrackPointExtension>
        </extensions>
      </trkpt>
      <trkpt lat="43.7614780850708484649658203125" lon="1.572893299162387847900390625">
        <ele>168</ele>
        <time>2026-08-13T06:10:56.000Z</time>
        <extensions>
          <ns3:TrackPointExtension>
            <ns3:hr>84</ns3:hr>
            <ns3:cad>47</ns3:cad>
          </ns3:TrackPointExtension>
        </extensions>
      </trkpt>
      <trkpt lat="43.761474229395389556884765625" lon="1.5728797204792499542236328125">
        <ele>168</ele>
        <time>2026-08-13T06:10:57.000Z</time>
        <extensions>
          <ns3:TrackPointExtension>
            <ns3:hr>83</ns3:hr>
            <ns3:cad>50</ns3:cad>
          </ns3:TrackPointExtension>
        </extensions>
      </trkpt>
      <trkpt lat="43.7614673562347888946533203125" lon="1.57286304049193859100341796875">
        <ele>168</ele>
        <time>2026-08-13T06:10:58.000Z</time>
        <extensions>
          <ns3:TrackPointExtension>
            <ns3:hr>83</ns3:hr>
            <ns3:cad>49</ns3:cad>
          </ns3:TrackPointExtension>
        </extensions>
      </trkpt>
      <trkpt lat="43.7614613212645053863525390625" lon="1.5728495456278324127197265625">
        <ele>168</ele>
        <time>2026-08-13T06:10:59.000Z</time>
        <extensions>
          <ns3:TrackPointExtension>
            <ns3:hr>83</ns3:hr>
            <ns3:cad>49</ns3:cad>
          </ns3:TrackPointExtension>
        </extensions>
      </trkpt>
      <trkpt lat="43.76145780086517333984375" lon="1.57283420674502849578857421875">
        <ele>168</ele>
        <time>2026-08-13T06:11:00.000Z</time>
        <extensions>
          <ns3:TrackPointExtension>
            <ns3:hr>83</ns3:hr>
            <ns3:cad>49</ns3:cad>
          </ns3:TrackPointExtension>
        </extensions>
      </trkpt>
      <trkpt lat="43.76145235262811183929443359375" lon="1.572824232280254364013671875">
        <ele>168</ele>
        <time>2026-08-13T06:11:01.000Z</time>
        <extensions>
          <ns3:TrackPointExtension>
            <ns3:hr>83</ns3:hr>
            <ns3:cad>48</ns3:cad>
          </ns3:TrackPointExtension>
        </extensions>
      </trkpt>
      <trkpt lat="43.76144707202911376953125" lon="1.57280738465487957000732421875">
        <ele>167.8000030517578125</ele>
        <time>2026-08-13T06:11:02.000Z</time>
        <extensions>
          <ns3:TrackPointExtension>
            <ns3:hr>83</ns3:hr>
            <ns3:cad>47</ns3:cad>
          </ns3:TrackPointExtension>
        </extensions>
      </trkpt>
      <trkpt lat="43.7614385224878787994384765625" lon="1.57279447652399539947509765625">
        <ele>167.8000030517578125</ele>
        <time>2026-08-13T06:11:03.000Z</time>
        <extensions>
          <ns3:TrackPointExtension>
            <ns3:hr>83</ns3:hr>
            <ns3:cad>47</ns3:cad>
          </ns3:TrackPointExtension>
        </extensions>
      </trkpt>
      <trkpt lat="43.76143357716500759124755859375" lon="1.5727774612605571746826171875">
        <ele>167.8000030517578125</ele>
        <time>2026-08-13T06:11:04.000Z</time>
        <extensions>
          <ns3:TrackPointExtension>
            <ns3:hr>83</ns3:hr>
            <ns3:cad>47</ns3:cad>
          </ns3:TrackPointExtension>
        </extensions>
      </trkpt>
      <trkpt lat="43.76143206842243671417236328125" lon="1.57277033664286136627197265625">
        <ele>167.8000030517578125</ele>
        <time>2026-08-13T06:11:05.000Z</time>
        <extensions>
          <ns3:TrackPointExtension>
            <ns3:hr>83</ns3:hr>
            <ns3:cad>48</ns3:cad>
          </ns3:TrackPointExtension>
        </extensions>
      </trkpt>
      <trkpt lat="43.76142871566116809844970703125" lon="1.57276229001581668853759765625">
        <ele>167.600006103515625</ele>
        <time>2026-08-13T06:11:06.000Z</time>
        <extensions>
          <ns3:TrackPointExtension>
            <ns3:hr>83</ns3:hr>
            <ns3:cad>48</ns3:cad>
          </ns3:TrackPointExtension>
        </extensions>
      </trkpt>
      <trkpt lat="43.76142368651926517486572265625" lon="1.57274636439979076385498046875">
        <ele>167.600006103515625</ele>
        <time>2026-08-13T06:11:07.000Z</time>
        <extensions>
          <ns3:TrackPointExtension>
            <ns3:hr>83</ns3:hr>
            <ns3:cad>48</ns3:cad>
          </ns3:TrackPointExtension>
        </extensions>
      </trkpt>
      <trkpt lat="43.76141698099672794342041015625" lon="1.57273731194436550140380859375">
        <ele>167.600006103515625</ele>
        <time>2026-08-13T06:11:08.000Z</time>
        <extensions>
          <ns3:TrackPointExtension>
            <ns3:hr>83</ns3:hr>
            <ns3:cad>45</ns3:cad>
          </ns3:TrackPointExtension>
        </extensions>
      </trkpt>
      <trkpt lat="43.7614100240170955657958984375" lon="1.572727002203464508056640625">
        <ele>167.600006103515625</ele>
        <time>2026-08-13T06:11:09.000Z</time>
        <extensions>
          <ns3:TrackPointExtension>
            <ns3:hr>83</ns3:hr>
            <ns3:cad>45</ns3:cad>
          </ns3:TrackPointExtension>
        </extensions>
      </trkpt>
      <trkpt lat="43.76140625216066837310791015625" lon="1.572719626128673553466796875">
        <ele>167.399993896484375</ele>
        <time>2026-08-13T06:11:10.000Z</time>
        <extensions>
          <ns3:TrackPointExtension>
            <ns3:hr>84</ns3:hr>
            <ns3:cad>47</ns3:cad>
          </ns3:TrackPointExtension>
        </extensions>
      </trkpt>
      <trkpt lat="43.76140172593295574188232421875" lon="1.5727130882441997528076171875">
        <ele>167.399993896484375</ele>
        <time>2026-08-13T06:11:11.000Z</time>
        <extensions>
          <ns3:TrackPointExtension>
            <ns3:hr>84</ns3:hr>
            <ns3:cad>47</ns3:cad>
          </ns3:TrackPointExtension>
        </extensions>
      </trkpt>
      <trkpt lat="43.76138881780207157135009765625" lon="1.5727083943784236907958984375">
        <ele>167.399993896484375</ele>
        <time>2026-08-13T06:11:12.000Z</time>
        <extensions>
          <ns3:TrackPointExtension>
            <ns3:hr>85</ns3:hr>
            <ns3:cad>47</ns3:cad>
          </ns3:TrackPointExtension>
        </extensions>
      </trkpt>
      <trkpt lat="43.7613785080611705780029296875" lon="1.572704873979091644287109375">
        <ele>167.399993896484375</ele>
        <time>2026-08-13T06:11:13.000Z</time>
        <extensions>
          <ns3:TrackPointExtension>
            <ns3:hr>86</ns3:hr>
            <ns3:cad>47</ns3:cad>
          </ns3:TrackPointExtension>
        </extensions>
      </trkpt>
      <trkpt lat="43.76137197017669677734375" lon="1.5727073885500431060791015625">
        <ele>167.399993896484375</ele>
        <time>2026-08-13T06:11:14.000Z</time>
        <extensions>
          <ns3:TrackPointExtension>
            <ns3:hr>86</ns3:hr>
            <ns3:cad>47</ns3:cad>
          </ns3:TrackPointExtension>
        </extensions>
      </trkpt>
      <trkpt lat="43.76136861741542816162109375" lon="1.5726996771991252899169921875">
        <ele>167.399993896484375</ele>
        <time>2026-08-13T06:11:15.000Z</time>
        <extensions>
          <ns3:TrackPointExtension>
            <ns3:hr>86</ns3:hr>
            <ns3:cad>47</ns3:cad>
          </ns3:TrackPointExtension>
        </extensions>
      </trkpt>
      <trkpt lat="43.76135679893195629119873046875" lon="1.57268819399178028106689453125">
        <ele>167.399993896484375</ele>
        <time>2026-08-13T06:11:16.000Z</time>
        <extensions>
          <ns3:TrackPointExtension>
            <ns3:hr>86</ns3:hr>
            <ns3:cad>47</ns3:cad>
          </ns3:TrackPointExtension>
        </extensions>
      </trkpt>
      <trkpt lat="43.76134715974330902099609375" lon="1.57267629168927669525146484375">
        <ele>167.1999969482421875</ele>
        <time>2026-08-13T06:11:17.000Z</time>
        <extensions>
          <ns3:TrackPointExtension>
            <ns3:hr>86</ns3:hr>
            <ns3:cad>47</ns3:cad>
          </ns3:TrackPointExtension>
        </extensions>
      </trkpt>
      <trkpt lat="43.76133835874497890472412109375" lon="1.5726668201386928558349609375">
        <ele>167.1999969482421875</ele>
        <time>2026-08-13T06:11:18.000Z</time>
        <extensions>
          <ns3:TrackPointExtension>
            <ns3:hr>86</ns3:hr>
            <ns3:cad>47</ns3:cad>
          </ns3:TrackPointExtension>
        </extensions>
      </trkpt>
      <trkpt lat="43.76133106648921966552734375" lon="1.572654247283935546875">
        <ele>167.1999969482421875</ele>
        <time>2026-08-13T06:11:19.000Z</time>
        <extensions>
          <ns3:TrackPointExtension>
            <ns3:hr>86</ns3:hr>
            <ns3:cad>47</ns3:cad>
          </ns3:TrackPointExtension>
        </extensions>
      </trkpt>
      <trkpt lat="43.76132838428020477294921875" lon="1.5726416744291782379150390625">
        <ele>167</ele>
        <time>2026-08-13T06:11:20.000Z</time>
        <extensions>
          <ns3:TrackPointExtension>
            <ns3:hr>86</ns3:hr>
            <ns3:cad>47</ns3:cad>
          </ns3:TrackPointExtension>
        </extensions>
      </trkpt>
      <trkpt lat="43.76132209785282611846923828125" lon="1.57262817956507205963134765625">
        <ele>167</ele>
        <time>2026-08-13T06:11:21.000Z</time>
        <extensions>
          <ns3:TrackPointExtension>
            <ns3:hr>86</ns3:hr>
            <ns3:cad>47</ns3:cad>
          </ns3:TrackPointExtension>
        </extensions>
      </trkpt>
      <trkpt lat="43.76130960881710052490234375" lon="1.5726145170629024505615234375">
        <ele>166.8000030517578125</ele>
        <time>2026-08-13T06:11:22.000Z</time>
        <extensions>
          <ns3:TrackPointExtension>
            <ns3:hr>86</ns3:hr>
            <ns3:cad>47</ns3:cad>
          </ns3:TrackPointExtension>
        </extensions>
      </trkpt>
      <trkpt lat="43.7613020651042461395263671875" lon="1.57260152511298656463623046875">
        <ele>166.8000030517578125</ele>
        <time>2026-08-13T06:11:23.000Z</time>
        <extensions>
          <ns3:TrackPointExtension>
            <ns3:hr>86</ns3:hr>
            <ns3:cad>48</ns3:cad>
          </ns3:TrackPointExtension>
        </extensions>
      </trkpt>
      <trkpt lat="43.761297874152660369873046875" lon="1.57258945517241954803466796875">
        <ele>166.600006103515625</ele>
        <time>2026-08-13T06:11:24.000Z</time>
        <extensions>
          <ns3:TrackPointExtension>
            <ns3:hr>86</ns3:hr>
            <ns3:cad>49</ns3:cad>
          </ns3:TrackPointExtension>
        </extensions>
      </trkpt>
      <trkpt lat="43.7612953595817089080810546875" lon="1.5725816600024700164794921875">
        <ele>166.600006103515625</ele>
        <time>2026-08-13T06:11:25.000Z</time>
        <extensions>
          <ns3:TrackPointExtension>
            <ns3:hr>86</ns3:hr>
            <ns3:cad>50</ns3:cad>
          </ns3:TrackPointExtension>
        </extensions>
      </trkpt>
      <trkpt lat="43.76129343174397945404052734375" lon="1.57257218845188617706298828125">
        <ele>166.399993896484375</ele>
        <time>2026-08-13T06:11:26.000Z</time>
        <extensions>
          <ns3:TrackPointExtension>
            <ns3:hr>86</ns3:hr>
            <ns3:cad>50</ns3:cad>
          </ns3:TrackPointExtension>
        </extensions>
      </trkpt>
      <trkpt lat="43.761289827525615692138671875" lon="1.57255743630230426788330078125">
        <ele>166.399993896484375</ele>
        <time>2026-08-13T06:11:27.000Z</time>
        <extensions>
          <ns3:TrackPointExtension>
            <ns3:hr>85</ns3:hr>
            <ns3:cad>49</ns3:cad>
          </ns3:TrackPointExtension>
        </extensions>
      </trkpt>
      <trkpt lat="43.76128370873630046844482421875" lon="1.57254402525722980499267578125">
        <ele>166.399993896484375</ele>
        <time>2026-08-13T06:11:28.000Z</time>
        <extensions>
          <ns3:TrackPointExtension>
            <ns3:hr>85</ns3:hr>
            <ns3:cad>49</ns3:cad>
          </ns3:TrackPointExtension>
        </extensions>
      </trkpt>
      <trkpt lat="43.7612802721560001373291015625" lon="1.57253346405923366546630859375">
        <ele>166.1999969482421875</ele>
        <time>2026-08-13T06:11:29.000Z</time>
        <extensions>
          <ns3:TrackPointExtension>
            <ns3:hr>85</ns3:hr>
            <ns3:cad>49</ns3:cad>
          </ns3:TrackPointExtension>
        </extensions>
      </trkpt>
      <trkpt lat="43.76127683557569980621337890625" lon="1.57252055592834949493408203125">
        <ele>166.1999969482421875</ele>
        <time>2026-08-13T06:11:30.000Z</time>
        <extensions>
          <ns3:TrackPointExtension>
            <ns3:hr>85</ns3:hr>
            <ns3:cad>49</ns3:cad>
          </ns3:TrackPointExtension>
        </extensions>
      </trkpt>
      <trkpt lat="43.76127566210925579071044921875" lon="1.5725109167397022247314453125">
        <ele>166</ele>
        <time>2026-08-13T06:11:31.000Z</time>
        <extensions>
          <ns3:TrackPointExtension>
            <ns3:hr>85</ns3:hr>
            <ns3:cad>49</ns3:cad>
          </ns3:TrackPointExtension>
        </extensions>
      </trkpt>
      <trkpt lat="43.76127063296735286712646484375" lon="1.57250043936073780059814453125">
        <ele>166</ele>
        <time>2026-08-13T06:11:32.000Z</time>
        <extensions>
          <ns3:TrackPointExtension>
            <ns3:hr>84</ns3:hr>
            <ns3:cad>49</ns3:cad>
          </ns3:TrackPointExtension>
        </extensions>
      </trkpt>
      <trkpt lat="43.76126375980675220489501953125" lon="1.57248920761048793792724609375">
        <ele>165.8000030517578125</ele>
        <time>2026-08-13T06:11:33.000Z</time>
        <extensions>
          <ns3:TrackPointExtension>
            <ns3:hr>84</ns3:hr>
            <ns3:cad>49</ns3:cad>
          </ns3:TrackPointExtension>
        </extensions>
      </trkpt>
      <trkpt lat="43.76125822775065898895263671875" lon="1.5724758803844451904296875">
        <ele>165.600006103515625</ele>
        <time>2026-08-13T06:11:34.000Z</time>
        <extensions>
          <ns3:TrackPointExtension>
            <ns3:hr>84</ns3:hr>
            <ns3:cad>48</ns3:cad>
          </ns3:TrackPointExtension>
        </extensions>
      </trkpt>
      <trkpt lat="43.76125437207520008087158203125" lon="1.57246573828160762786865234375">
        <ele>165.600006103515625</ele>
        <time>2026-08-13T06:11:35.000Z</time>
        <extensions>
          <ns3:TrackPointExtension>
            <ns3:hr>84</ns3:hr>
            <ns3:cad>48</ns3:cad>
          </ns3:TrackPointExtension>
        </extensions>
      </trkpt>
      <trkpt lat="43.7612526118755340576171875" lon="1.5724579431116580963134765625">
        <ele>165.399993896484375</ele>
        <time>2026-08-13T06:11:36.000Z</time>
        <extensions>
          <ns3:TrackPointExtension>
            <ns3:hr>84</ns3:hr>
            <ns3:cad>49</ns3:cad>
          </ns3:TrackPointExtension>
        </extensions>
      </trkpt>
      <trkpt lat="43.7612504325807094573974609375" lon="1.57244914211332798004150390625">
        <ele>165.399993896484375</ele>
        <time>2026-08-13T06:11:37.000Z</time>
        <extensions>
          <ns3:TrackPointExtension>
            <ns3:hr>84</ns3:hr>
            <ns3:cad>50</ns3:cad>
          </ns3:TrackPointExtension>
        </extensions>
      </trkpt>
      <trkpt lat="43.761242888867855072021484375" lon="1.57243489287793636322021484375">
        <ele>165.1999969482421875</ele>
        <time>2026-08-13T06:11:38.000Z</time>
        <extensions>
          <ns3:TrackPointExtension>
            <ns3:hr>84</ns3:hr>
            <ns3:cad>50</ns3:cad>
          </ns3:TrackPointExtension>
        </extensions>
      </trkpt>
      <trkpt lat="43.76123442314565181732177734375" lon="1.57242332585155963897705078125">
        <ele>165.1999969482421875</ele>
        <time>2026-08-13T06:11:39.000Z</time>
        <extensions>
          <ns3:TrackPointExtension>
            <ns3:hr>83</ns3:hr>
            <ns3:cad>49</ns3:cad>
          </ns3:TrackPointExtension>
        </extensions>
      </trkpt>
      <trkpt lat="43.76122687943279743194580078125" lon="1.57241745851933956146240234375">
        <ele>165</ele>
        <time>2026-08-13T06:11:40.000Z</time>
        <extensions>
          <ns3:TrackPointExtension>
            <ns3:hr>82</ns3:hr>
            <ns3:cad>49</ns3:cad>
          </ns3:TrackPointExtension>
        </extensions>
      </trkpt>
      <trkpt lat="43.7612257897853851318359375" lon="1.57240689732134342193603515625">
        <ele>165</ele>
        <time>2026-08-13T06:11:41.000Z</time>
        <extensions>
          <ns3:TrackPointExtension>
            <ns3:hr>82</ns3:hr>
            <ns3:cad>48</ns3:cad>
          </ns3:TrackPointExtension>
        </extensions>
      </trkpt>
      <trkpt lat="43.76121967099606990814208984375" lon="1.5723952464759349822998046875">
        <ele>164.8000030517578125</ele>
        <time>2026-08-13T06:11:42.000Z</time>
        <extensions>
          <ns3:TrackPointExtension>
            <ns3:hr>81</ns3:hr>
            <ns3:cad>48</ns3:cad>
          </ns3:TrackPointExtension>
        </extensions>
      </trkpt>
      <trkpt lat="43.761214055120944976806640625" lon="1.57238510437309741973876953125">
        <ele>164.8000030517578125</ele>
        <time>2026-08-13T06:11:43.000Z</time>
        <extensions>
          <ns3:TrackPointExtension>
            <ns3:hr>80</ns3:hr>
            <ns3:cad>48</ns3:cad>
          </ns3:TrackPointExtension>
        </extensions>
      </trkpt>
      <trkpt lat="43.7612095288932323455810546875" lon="1.57237437553703784942626953125">
        <ele>164.8000030517578125</ele>
        <time>2026-08-13T06:11:44.000Z</time>
        <extensions>
          <ns3:TrackPointExtension>
            <ns3:hr>79</ns3:hr>
            <ns3:cad>48</ns3:cad>
          </ns3:TrackPointExtension>
        </extensions>
      </trkpt>
      <trkpt lat="43.7612071819603443145751953125" lon="1.57236658036708831787109375">
        <ele>164.600006103515625</ele>
        <time>2026-08-13T06:11:45.000Z</time>
        <extensions>
          <ns3:TrackPointExtension>
            <ns3:hr>77</ns3:hr>
            <ns3:cad>48</ns3:cad>
          </ns3:TrackPointExtension>
        </extensions>
      </trkpt>
      <trkpt lat="43.76120676286518573760986328125" lon="1.57235560007393360137939453125">
        <ele>164.600006103515625</ele>
        <time>2026-08-13T06:11:46.000Z</time>
        <extensions>
          <ns3:TrackPointExtension>
            <ns3:hr>76</ns3:hr>
            <ns3:cad>48</ns3:cad>
          </ns3:TrackPointExtension>
        </extensions>
      </trkpt>
      <trkpt lat="43.7612008117139339447021484375" lon="1.57234570942819118499755859375">
        <ele>164.399993896484375</ele>
        <time>2026-08-13T06:11:47.000Z</time>
        <extensions>
          <ns3:TrackPointExtension>
            <ns3:hr>76</ns3:hr>
            <ns3:cad>47</ns3:cad>
          </ns3:TrackPointExtension>
        </extensions>
      </trkpt>
      <trkpt lat="43.76119754277169704437255859375" lon="1.57233296893537044525146484375">
        <ele>164.399993896484375</ele>
        <time>2026-08-13T06:11:48.000Z</time>
        <extensions>
          <ns3:TrackPointExtension>
            <ns3:hr>75</ns3:hr>
            <ns3:cad>46</ns3:cad>
          </ns3:TrackPointExtension>
        </extensions>
      </trkpt>
      <trkpt lat="43.761195950210094451904296875" lon="1.572324670851230621337890625">
        <ele>164.1999969482421875</ele>
        <time>2026-08-13T06:11:49.000Z</time>
        <extensions>
          <ns3:TrackPointExtension>
            <ns3:hr>75</ns3:hr>
            <ns3:cad>46</ns3:cad>
          </ns3:TrackPointExtension>
        </extensions>
      </trkpt>
      <trkpt lat="43.76119301654398441314697265625" lon="1.57231955789029598236083984375">
        <ele>164.1999969482421875</ele>
        <time>2026-08-13T06:11:50.000Z</time>
        <extensions>
          <ns3:TrackPointExtension>
            <ns3:hr>75</ns3:hr>
            <ns3:cad>46</ns3:cad>
          </ns3:TrackPointExtension>
        </extensions>
      </trkpt>
      <trkpt lat="43.76118798740208148956298828125" lon="1.57230547629296779632568359375">
        <ele>164</ele>
        <time>2026-08-13T06:11:51.000Z</time>
        <extensions>
          <ns3:TrackPointExtension>
            <ns3:hr>75</ns3:hr>
            <ns3:cad>47</ns3:cad>
          </ns3:TrackPointExtension>
        </extensions>
      </trkpt>
      <trkpt lat="43.76118396408855915069580078125" lon="1.57229491509497165679931640625">
        <ele>164</ele>
        <time>2026-08-13T06:11:52.000Z</time>
        <extensions>
          <ns3:TrackPointExtension>
            <ns3:hr>75</ns3:hr>
            <ns3:cad>47</ns3:cad>
          </ns3:TrackPointExtension>
        </extensions>
      </trkpt>
      <trkpt lat="43.76117994077503681182861328125" lon="1.5722819231450557708740234375">
        <ele>164</ele>
        <time>2026-08-13T06:11:53.000Z</time>
        <extensions>
          <ns3:TrackPointExtension>
            <ns3:hr>75</ns3:hr>
            <ns3:cad>46</ns3:cad>
          </ns3:TrackPointExtension>
        </extensions>
      </trkpt>
      <trkpt lat="43.76117491163313388824462890625" lon="1.572281420230865478515625">
        <ele>164</ele>
        <time>2026-08-13T06:11:54.000Z</time>
        <extensions>
          <ns3:TrackPointExtension>
            <ns3:hr>75</ns3:hr>
            <ns3:cad>45</ns3:cad>
          </ns3:TrackPointExtension>
        </extensions>
      </trkpt>
      <trkpt lat="43.76116636209189891815185546875" lon="1.57226725481450557708740234375">
        <ele>164</ele>
        <time>2026-08-13T06:11:55.000Z</time>
        <extensions>
          <ns3:TrackPointExtension>
            <ns3:hr>75</ns3:hr>
            <ns3:cad>45</ns3:cad>
          </ns3:TrackPointExtension>
        </extensions>
      </trkpt>
      <trkpt lat="43.7611575610935688018798828125" lon="1.57225334085524082183837890625">
        <ele>164</ele>
        <time>2026-08-13T06:11:56.000Z</time>
        <extensions>
          <ns3:TrackPointExtension>
            <ns3:hr>75</ns3:hr>
            <ns3:cad>46</ns3:cad>
          </ns3:TrackPointExtension>
        </extensions>
      </trkpt>
      <trkpt lat="43.76115311868488788604736328125" lon="1.57224093563854694366455078125">
        <ele>164</ele>
        <time>2026-08-13T06:11:57.000Z</time>
        <extensions>
          <ns3:TrackPointExtension>
            <ns3:hr>75</ns3:hr>
            <ns3:cad>46</ns3:cad>
          </ns3:TrackPointExtension>
        </extensions>
      </trkpt>
      <trkpt lat="43.7611480057239532470703125" lon="1.57223473303020000457763671875">
        <ele>163.8000030517578125</ele>
        <time>2026-08-13T06:11:58.000Z</time>
        <extensions>
          <ns3:TrackPointExtension>
            <ns3:hr>74</ns3:hr>
            <ns3:cad>46</ns3:cad>
          </ns3:TrackPointExtension>
        </extensions>
      </trkpt>
      <trkpt lat="43.76114197075366973876953125" lon="1.572219394147396087646484375">
        <ele>163.8000030517578125</ele>
        <time>2026-08-13T06:11:59.000Z</time>
        <extensions>
          <ns3:TrackPointExtension>
            <ns3:hr>74</ns3:hr>
            <ns3:cad>47</ns3:cad>
          </ns3:TrackPointExtension>
        </extensions>
      </trkpt>
      <trkpt lat="43.76113434322178363800048828125" lon="1.57220422290265560150146484375">
        <ele>163.8000030517578125</ele>
        <time>2026-08-13T06:12:00.000Z</time>
        <extensions>
          <ns3:TrackPointExtension>
            <ns3:hr>73</ns3:hr>
            <ns3:cad>47</ns3:cad>
          </ns3:TrackPointExtension>
        </extensions>
      </trkpt>
      <trkpt lat="43.7611267156898975372314453125" lon="1.57219416461884975433349609375">
        <ele>163.8000030517578125</ele>
        <time>2026-08-13T06:12:01.000Z</time>
        <extensions>
          <ns3:TrackPointExtension>
            <ns3:hr>73</ns3:hr>
            <ns3:cad>46</ns3:cad>
          </ns3:TrackPointExtension>
        </extensions>
      </trkpt>
      <trkpt lat="43.76112361438572406768798828125" lon="1.5721877105534076690673828125">
        <ele>163.8000030517578125</ele>
        <time>2026-08-13T06:12:02.000Z</time>
        <extensions>
          <ns3:TrackPointExtension>
            <ns3:hr>72</ns3:hr>
            <ns3:cad>46</ns3:cad>
          </ns3:TrackPointExtension>
        </extensions>
      </trkpt>
      <trkpt lat="43.76111808232963085174560546875" lon="1.5721763111650943756103515625">
        <ele>163.8000030517578125</ele>
        <time>2026-08-13T06:12:03.000Z</time>
        <extensions>
          <ns3:TrackPointExtension>
            <ns3:hr>72</ns3:hr>
            <ns3:cad>45</ns3:cad>
          </ns3:TrackPointExtension>
        </extensions>
      </trkpt>
      <trkpt lat="43.7611116282641887664794921875" lon="1.57216063700616359710693359375">
        <ele>163.8000030517578125</ele>
        <time>2026-08-13T06:12:04.000Z</time>
        <extensions>
          <ns3:TrackPointExtension>
            <ns3:hr>72</ns3:hr>
            <ns3:cad>45</ns3:cad>
          </ns3:TrackPointExtension>
        </extensions>
      </trkpt>
      <trkpt lat="43.76110441982746124267578125" lon="1.57214906997978687286376953125">
        <ele>163.8000030517578125</ele>
        <time>2026-08-13T06:12:05.000Z</time>
        <extensions>
          <ns3:TrackPointExtension>
            <ns3:hr>72</ns3:hr>
            <ns3:cad>45</ns3:cad>
          </ns3:TrackPointExtension>
        </extensions>
      </trkpt>
      <trkpt lat="43.76110098324716091156005859375" lon="1.5721352398395538330078125">
        <ele>164</ele>
        <time>2026-08-13T06:12:06.000Z</time>
        <extensions>
          <ns3:TrackPointExtension>
            <ns3:hr>72</ns3:hr>
            <ns3:cad>45</ns3:cad>
          </ns3:TrackPointExtension>
        </extensions>
      </trkpt>
      <trkpt lat="43.76109545119106769561767578125" lon="1.57212493009865283966064453125">
        <ele>164</ele>
        <time>2026-08-13T06:12:07.000Z</time>
        <extensions>
          <ns3:TrackPointExtension>
            <ns3:hr>72</ns3:hr>
            <ns3:cad>45</ns3:cad>
          </ns3:TrackPointExtension>
        </extensions>
      </trkpt>
      <trkpt lat="43.7610876560211181640625" lon="1.5721092559397220611572265625">
        <ele>164</ele>
        <time>2026-08-13T06:12:08.000Z</time>
        <extensions>
          <ns3:TrackPointExtension>
            <ns3:hr>73</ns3:hr>
            <ns3:cad>46</ns3:cad>
          </ns3:TrackPointExtension>
        </extensions>
      </trkpt>
      <trkpt lat="43.7610817886888980865478515625" lon="1.572097353637218475341796875">
        <ele>164</ele>
        <time>2026-08-13T06:12:09.000Z</time>
        <extensions>
          <ns3:TrackPointExtension>
            <ns3:hr>73</ns3:hr>
            <ns3:cad>46</ns3:cad>
          </ns3:TrackPointExtension>
        </extensions>
      </trkpt>
      <trkpt lat="43.76107818447053432464599609375" lon="1.57208821736276149749755859375">
        <ele>163.8000030517578125</ele>
        <time>2026-08-13T06:12:10.000Z</time>
        <extensions>
          <ns3:TrackPointExtension>
            <ns3:hr>73</ns3:hr>
            <ns3:cad>46</ns3:cad>
          </ns3:TrackPointExtension>
        </extensions>
      </trkpt>
      <trkpt lat="43.761077262461185455322265625" lon="1.5720730461180210113525390625">
        <ele>163.8000030517578125</ele>
        <time>2026-08-13T06:12:11.000Z</time>
        <extensions>
          <ns3:TrackPointExtension>
            <ns3:hr>74</ns3:hr>
            <ns3:cad>46</ns3:cad>
          </ns3:TrackPointExtension>
        </extensions>
      </trkpt>
      <trkpt lat="43.76107030548155307769775390625" lon="1.57206617295742034912109375">
        <ele>163.8000030517578125</ele>
        <time>2026-08-13T06:12:12.000Z</time>
        <extensions>
          <ns3:TrackPointExtension>
            <ns3:hr>74</ns3:hr>
            <ns3:cad>46</ns3:cad>
          </ns3:TrackPointExtension>
        </extensions>
      </trkpt>
      <trkpt lat="43.761062510311603546142578125" lon="1.572055108845233917236328125">
        <ele>163.8000030517578125</ele>
        <time>2026-08-13T06:12:13.000Z</time>
        <extensions>
          <ns3:TrackPointExtension>
            <ns3:hr>74</ns3:hr>
            <ns3:cad>46</ns3:cad>
          </ns3:TrackPointExtension>
        </extensions>
      </trkpt>
      <trkpt lat="43.76106016337871551513671875" lon="1.57204781658947467803955078125">
        <ele>164</ele>
        <time>2026-08-13T06:12:14.000Z</time>
        <extensions>
          <ns3:TrackPointExtension>
            <ns3:hr>75</ns3:hr>
            <ns3:cad>46</ns3:cad>
          </ns3:TrackPointExtension>
        </extensions>
      </trkpt>
      <trkpt lat="43.76105840317904949188232421875" lon="1.5720361657440662384033203125">
        <ele>164</ele>
        <time>2026-08-13T06:12:15.000Z</time>
        <extensions>
          <ns3:TrackPointExtension>
            <ns3:hr>76</ns3:hr>
            <ns3:cad>46</ns3:cad>
          </ns3:TrackPointExtension>
        </extensions>
      </trkpt>
      <trkpt lat="43.76105002127587795257568359375" lon="1.57202317379415035247802734375">
        <ele>164</ele>
        <time>2026-08-13T06:12:16.000Z</time>
        <extensions>
          <ns3:TrackPointExtension>
            <ns3:hr>76</ns3:hr>
            <ns3:cad>46</ns3:cad>
          </ns3:TrackPointExtension>
        </extensions>
      </trkpt>
      <trkpt lat="43.7610455788671970367431640625" lon="1.57201118767261505126953125">
        <ele>164</ele>
        <time>2026-08-13T06:12:17.000Z</time>
        <extensions>
          <ns3:TrackPointExtension>
            <ns3:hr>76</ns3:hr>
            <ns3:cad>47</ns3:cad>
          </ns3:TrackPointExtension>
        </extensions>
      </trkpt>
      <trkpt lat="43.76103828661143779754638671875" lon="1.572001464664936065673828125">
        <ele>164</ele>
        <time>2026-08-13T06:12:18.000Z</time>
        <extensions>
          <ns3:TrackPointExtension>
            <ns3:hr>76</ns3:hr>
            <ns3:cad>47</ns3:cad>
          </ns3:TrackPointExtension>
        </extensions>
      </trkpt>
      <trkpt lat="43.761035688221454620361328125" lon="1.5719915740191936492919921875">
        <ele>164.1999969482421875</ele>
        <time>2026-08-13T06:12:19.000Z</time>
        <extensions>
          <ns3:TrackPointExtension>
            <ns3:hr>76</ns3:hr>
            <ns3:cad>47</ns3:cad>
          </ns3:TrackPointExtension>
        </extensions>
      </trkpt>
      <trkpt lat="43.76102856360375881195068359375" lon="1.571973972022533416748046875">
        <ele>164.1999969482421875</ele>
        <time>2026-08-13T06:12:20.000Z</time>
        <extensions>
          <ns3:TrackPointExtension>
            <ns3:hr>76</ns3:hr>
            <ns3:cad>45</ns3:cad>
          </ns3:TrackPointExtension>
        </extensions>
      </trkpt>
      <trkpt lat="43.76102018170058727264404296875" lon="1.57196382991969585418701171875">
        <ele>164.1999969482421875</ele>
        <time>2026-08-13T06:12:21.000Z</time>
        <extensions>
          <ns3:TrackPointExtension>
            <ns3:hr>76</ns3:hr>
            <ns3:cad>45</ns3:cad>
          </ns3:TrackPointExtension>
        </extensions>
      </trkpt>
      <trkpt lat="43.76101565547287464141845703125" lon="1.57195678912103176116943359375">
        <ele>164.1999969482421875</ele>
        <time>2026-08-13T06:12:22.000Z</time>
        <extensions>
          <ns3:TrackPointExtension>
            <ns3:hr>75</ns3:hr>
            <ns3:cad>45</ns3:cad>
          </ns3:TrackPointExtension>
        </extensions>
      </trkpt>
      <trkpt lat="43.7610120512545108795166015625" lon="1.57194555737078189849853515625">
        <ele>164.1999969482421875</ele>
        <time>2026-08-13T06:12:23.000Z</time>
        <extensions>
          <ns3:TrackPointExtension>
            <ns3:hr>74</ns3:hr>
            <ns3:cad>45</ns3:cad>
          </ns3:TrackPointExtension>
        </extensions>
      </trkpt>
      <trkpt lat="43.76100408844649791717529296875" lon="1.57192745245993137359619140625">
        <ele>164.1999969482421875</ele>
        <time>2026-08-13T06:12:24.000Z</time>
        <extensions>
          <ns3:TrackPointExtension>
            <ns3:hr>74</ns3:hr>
            <ns3:cad>44</ns3:cad>
          </ns3:TrackPointExtension>
        </extensions>
      </trkpt>
      <trkpt lat="43.760999143123626708984375" lon="1.57191722653806209564208984375">
        <ele>164.399993896484375</ele>
        <time>2026-08-13T06:12:25.000Z</time>
        <extensions>
          <ns3:TrackPointExtension>
            <ns3:hr>74</ns3:hr>
            <ns3:cad>44</ns3:cad>
          </ns3:TrackPointExtension>
        </extensions>
      </trkpt>
      <trkpt lat="43.76099486835300922393798828125" lon="1.57190448604524135589599609375">
        <ele>164.399993896484375</ele>
        <time>2026-08-13T06:12:26.000Z</time>
        <extensions>
          <ns3:TrackPointExtension>
            <ns3:hr>74</ns3:hr>
            <ns3:cad>44</ns3:cad>
          </ns3:TrackPointExtension>
        </extensions>
      </trkpt>
      <trkpt lat="43.76099067740142345428466796875" lon="1.571895517408847808837890625">
        <ele>164.399993896484375</ele>
        <time>2026-08-13T06:12:27.000Z</time>
        <extensions>
          <ns3:TrackPointExtension>
            <ns3:hr>75</ns3:hr>
            <ns3:cad>44</ns3:cad>
          </ns3:TrackPointExtension>
        </extensions>
      </trkpt>
      <trkpt lat="43.76098313368856906890869140625" lon="1.5718759037554264068603515625">
        <ele>164.399993896484375</ele>
        <time>2026-08-13T06:12:28.000Z</time>
        <extensions>
          <ns3:TrackPointExtension>
            <ns3:hr>75</ns3:hr>
            <ns3:cad>44</ns3:cad>
          </ns3:TrackPointExtension>
        </extensions>
      </trkpt>
      <trkpt lat="43.7609785236418247222900390625" lon="1.5718641690909862518310546875">
        <ele>164.399993896484375</ele>
        <time>2026-08-13T06:12:29.000Z</time>
        <extensions>
          <ns3:TrackPointExtension>
            <ns3:hr>75</ns3:hr>
            <ns3:cad>44</ns3:cad>
          </ns3:TrackPointExtension>
        </extensions>
      </trkpt>
      <trkpt lat="43.7609751708805561065673828125" lon="1.57185402698814868927001953125">
        <ele>164.399993896484375</ele>
        <time>2026-08-13T06:12:30.000Z</time>
        <extensions>
          <ns3:TrackPointExtension>
            <ns3:hr>76</ns3:hr>
            <ns3:cad>44</ns3:cad>
          </ns3:TrackPointExtension>
        </extensions>
      </trkpt>
      <trkpt lat="43.7609724886715412139892578125" lon="1.57184145413339138031005859375">
        <ele>164.600006103515625</ele>
        <time>2026-08-13T06:12:31.000Z</time>
        <extensions>
          <ns3:TrackPointExtension>
            <ns3:hr>76</ns3:hr>
            <ns3:cad>46</ns3:cad>
          </ns3:TrackPointExtension>
        </extensions>
      </trkpt>
      <trkpt lat="43.7609656155109405517578125" lon="1.57183147966861724853515625">
        <ele>164.600006103515625</ele>
        <time>2026-08-13T06:12:32.000Z</time>
        <extensions>
          <ns3:TrackPointExtension>
            <ns3:hr>77</ns3:hr>
            <ns3:cad>46</ns3:cad>
          </ns3:TrackPointExtension>
        </extensions>
      </trkpt>
      <trkpt lat="43.7609600834548473358154296875" lon="1.5718209184706211090087890625">
        <ele>164.600006103515625</ele>
        <time>2026-08-13T06:12:33.000Z</time>
        <extensions>
          <ns3:TrackPointExtension>
            <ns3:hr>77</ns3:hr>
            <ns3:cad>46</ns3:cad>
          </ns3:TrackPointExtension>
        </extensions>
      </trkpt>
      <trkpt lat="43.7609574012458324432373046875" lon="1.57181027345359325408935546875">
        <ele>164.600006103515625</ele>
        <time>2026-08-13T06:12:34.000Z</time>
        <extensions>
          <ns3:TrackPointExtension>
            <ns3:hr>78</ns3:hr>
            <ns3:cad>46</ns3:cad>
          </ns3:TrackPointExtension>
        </extensions>
      </trkpt>
      <trkpt lat="43.760954551398754119873046875" lon="1.571794934570789337158203125">
        <ele>164.600006103515625</ele>
        <time>2026-08-13T06:12:35.000Z</time>
        <extensions>
          <ns3:TrackPointExtension>
            <ns3:hr>78</ns3:hr>
            <ns3:cad>45</ns3:cad>
          </ns3:TrackPointExtension>
        </extensions>
      </trkpt>
      <trkpt lat="43.76094558276236057281494140625" lon="1.57177775166928768157958984375">
        <ele>164.8000030517578125</ele>
        <time>2026-08-13T06:12:36.000Z</time>
        <extensions>
          <ns3:TrackPointExtension>
            <ns3:hr>79</ns3:hr>
            <ns3:cad>45</ns3:cad>
          </ns3:TrackPointExtension>
        </extensions>
      </trkpt>
      <trkpt lat="43.7609416432678699493408203125" lon="1.5717682801187038421630859375">
        <ele>164.8000030517578125</ele>
        <time>2026-08-13T06:12:37.000Z</time>
        <extensions>
          <ns3:TrackPointExtension>
            <ns3:hr>79</ns3:hr>
            <ns3:cad>45</ns3:cad>
          </ns3:TrackPointExtension>
        </extensions>
      </trkpt>
      <trkpt lat="43.76093770377337932586669921875" lon="1.5717624127864837646484375">
        <ele>164.8000030517578125</ele>
        <time>2026-08-13T06:12:38.000Z</time>
        <extensions>
          <ns3:TrackPointExtension>
            <ns3:hr>80</ns3:hr>
            <ns3:cad>43</ns3:cad>
          </ns3:TrackPointExtension>
        </extensions>
      </trkpt>
      <trkpt lat="43.76093636266887187957763671875" lon="1.571750678122043609619140625">
        <ele>164.8000030517578125</ele>
        <time>2026-08-13T06:12:39.000Z</time>
        <extensions>
          <ns3:TrackPointExtension>
            <ns3:hr>80</ns3:hr>
            <ns3:cad>43</ns3:cad>
          </ns3:TrackPointExtension>
        </extensions>
      </trkpt>
      <trkpt lat="43.76092529855668544769287109375" lon="1.571739614009857177734375">
        <ele>164.8000030517578125</ele>
        <time>2026-08-13T06:12:40.000Z</time>
        <extensions>
          <ns3:TrackPointExtension>
            <ns3:hr>80</ns3:hr>
            <ns3:cad>43</ns3:cad>
          </ns3:TrackPointExtension>
        </extensions>
      </trkpt>
      <trkpt lat="43.76091842539608478546142578125" lon="1.57172662205994129180908203125">
        <ele>164.8000030517578125</ele>
        <time>2026-08-13T06:12:41.000Z</time>
        <extensions>
          <ns3:TrackPointExtension>
            <ns3:hr>80</ns3:hr>
            <ns3:cad>44</ns3:cad>
          </ns3:TrackPointExtension>
        </extensions>
      </trkpt>
      <trkpt lat="43.76091591082513332366943359375" lon="1.57171673141419887542724609375">
        <ele>164.8000030517578125</ele>
        <time>2026-08-13T06:12:42.000Z</time>
        <extensions>
          <ns3:TrackPointExtension>
            <ns3:hr>81</ns3:hr>
            <ns3:cad>44</ns3:cad>
          </ns3:TrackPointExtension>
        </extensions>
      </trkpt>
      <trkpt lat="43.76090920530259609222412109375" lon="1.57170617021620273590087890625">
        <ele>165</ele>
        <time>2026-08-13T06:12:43.000Z</time>
        <extensions>
          <ns3:TrackPointExtension>
            <ns3:hr>82</ns3:hr>
            <ns3:cad>44</ns3:cad>
          </ns3:TrackPointExtension>
        </extensions>
      </trkpt>
      <trkpt lat="43.7608963809907436370849609375" lon="1.571684964001178741455078125">
        <ele>165</ele>
        <time>2026-08-13T06:12:44.000Z</time>
        <extensions>
          <ns3:TrackPointExtension>
            <ns3:hr>83</ns3:hr>
            <ns3:cad>44</ns3:cad>
          </ns3:TrackPointExtension>
        </extensions>
      </trkpt>
      <trkpt lat="43.76088959164917469024658203125" lon="1.5716744028031826019287109375">
        <ele>165</ele>
        <time>2026-08-13T06:12:45.000Z</time>
        <extensions>
          <ns3:TrackPointExtension>
            <ns3:hr>83</ns3:hr>
            <ns3:cad>44</ns3:cad>
          </ns3:TrackPointExtension>
        </extensions>
      </trkpt>
      <trkpt lat="43.76088716089725494384765625" lon="1.5716685354709625244140625">
        <ele>165</ele>
        <time>2026-08-13T06:12:46.000Z</time>
        <extensions>
          <ns3:TrackPointExtension>
            <ns3:hr>84</ns3:hr>
            <ns3:cad>45</ns3:cad>
          </ns3:TrackPointExtension>
        </extensions>
      </trkpt>
      <trkpt lat="43.7608826346695423126220703125" lon="1.57165520824491977691650390625">
        <ele>165</ele>
        <time>2026-08-13T06:12:47.000Z</time>
        <extensions>
          <ns3:TrackPointExtension>
            <ns3:hr>84</ns3:hr>
            <ns3:cad>45</ns3:cad>
          </ns3:TrackPointExtension>
        </extensions>
      </trkpt>
      <trkpt lat="43.76087685115635395050048828125" lon="1.57164766453206539154052734375">
        <ele>165</ele>
        <time>2026-08-13T06:12:48.000Z</time>
        <extensions>
          <ns3:TrackPointExtension>
            <ns3:hr>84</ns3:hr>
            <ns3:cad>46</ns3:cad>
          </ns3:TrackPointExtension>
        </extensions>
      </trkpt>
      <trkpt lat="43.76086813397705554962158203125" lon="1.57164464704692363739013671875">
        <ele>165</ele>
        <time>2026-08-13T06:12:49.000Z</time>
        <extensions>
          <ns3:TrackPointExtension>
            <ns3:hr>85</ns3:hr>
            <ns3:cad>46</ns3:cad>
          </ns3:TrackPointExtension>
        </extensions>
      </trkpt>
      <trkpt lat="43.76086126081645488739013671875" lon="1.57164104282855987548828125">
        <ele>165.1999969482421875</ele>
        <time>2026-08-13T06:12:50.000Z</time>
        <extensions>
          <ns3:TrackPointExtension>
            <ns3:hr>85</ns3:hr>
            <ns3:cad>46</ns3:cad>
          </ns3:TrackPointExtension>
        </extensions>
      </trkpt>
      <trkpt lat="43.76085908152163028717041015625" lon="1.57163567841053009033203125">
        <ele>165.1999969482421875</ele>
        <time>2026-08-13T06:12:51.000Z</time>
        <extensions>
          <ns3:TrackPointExtension>
            <ns3:hr>85</ns3:hr>
            <ns3:cad>46</ns3:cad>
          </ns3:TrackPointExtension>
        </extensions>
      </trkpt>
      <trkpt lat="43.760855980217456817626953125" lon="1.57162872143089771270751953125">
        <ele>165.1999969482421875</ele>
        <time>2026-08-13T06:12:52.000Z</time>
        <extensions>
          <ns3:TrackPointExtension>
            <ns3:hr>85</ns3:hr>
            <ns3:cad>0</ns3:cad>
          </ns3:TrackPointExtension>
        </extensions>
      </trkpt>
      <trkpt lat="43.76085539348423480987548828125" lon="1.57162360846996307373046875">
        <ele>165.1999969482421875</ele>
        <time>2026-08-13T06:12:53.000Z</time>
        <extensions>
          <ns3:TrackPointExtension>
            <ns3:hr>85</ns3:hr>
            <ns3:cad>0</ns3:cad>
          </ns3:TrackPointExtension>
        </extensions>
      </trkpt>
      <trkpt lat="43.76085631549358367919921875" lon="1.571623273193836212158203125">
        <ele>165.1999969482421875</ele>
        <time>2026-08-13T06:12:54.000Z</time>
        <extensions>
          <ns3:TrackPointExtension>
            <ns3:hr>86</ns3:hr>
            <ns3:cad>0</ns3:cad>
          </ns3:TrackPointExtension>
        </extensions>
      </trkpt>
      <trkpt lat="43.76085631549358367919921875" lon="1.571623273193836212158203125">
        <ele>165.1999969482421875</ele>
        <time>2026-08-13T06:12:55.000Z</time>
        <extensions>
          <ns3:TrackPointExtension>
            <ns3:hr>86</ns3:hr>
            <ns3:cad>0</ns3:cad>
          </ns3:TrackPointExtension>
        </extensions>
      </trkpt>
      <trkpt lat="43.76085631549358367919921875" lon="1.571623273193836212158203125">
        <ele>165.1999969482421875</ele>
        <time>2026-08-13T06:12:56.000Z</time>
        <extensions>
          <ns3:TrackPointExtension>
            <ns3:hr>86</ns3:hr>
            <ns3:cad>0</ns3:cad>
          </ns3:TrackPointExtension>
        </extensions>
      </trkpt>
      <trkpt lat="43.76085631549358367919921875" lon="1.571623273193836212158203125">
        <ele>165.1999969482421875</ele>
        <time>2026-08-13T06:12:57.000Z</time>
        <extensions>
          <ns3:TrackPointExtension>
            <ns3:hr>86</ns3:hr>
            <ns3:cad>0</ns3:cad>
          </ns3:TrackPointExtension>
        </extensions>
      </trkpt>
      <trkpt lat="43.76085631549358367919921875" lon="1.571623273193836212158203125">
        <ele>165.1999969482421875</ele>
        <time>2026-08-13T06:12:58.000Z</time>
        <extensions>
          <ns3:TrackPointExtension>
            <ns3:hr>86</ns3:hr>
            <ns3:cad>0</ns3:cad>
          </ns3:TrackPointExtension>
        </extensions>
      </trkpt>
      <trkpt lat="43.76085631549358367919921875" lon="1.571623273193836212158203125">
        <ele>165.1999969482421875</ele>
        <time>2026-08-13T06:12:59.000Z</time>
        <extensions>
          <ns3:TrackPointExtension>
            <ns3:hr>86</ns3:hr>
            <ns3:cad>0</ns3:cad>
          </ns3:TrackPointExtension>
        </extensions>
      </trkpt>
      <trkpt lat="43.76085631549358367919921875" lon="1.571623273193836212158203125">
        <ele>165.1999969482421875</ele>
        <time>2026-08-13T06:13:00.000Z</time>
        <extensions>
          <ns3:TrackPointExtension>
            <ns3:hr>84</ns3:hr>
            <ns3:cad>0</ns3:cad>
          </ns3:TrackPointExtension>
        </extensions>
      </trkpt>
      <trkpt lat="43.76085631549358367919921875" lon="1.571623273193836212158203125">
        <ele>165.1999969482421875</ele>
        <time>2026-08-13T06:13:01.000Z</time>
        <extensions>
          <ns3:TrackPointExtension>
            <ns3:hr>82</ns3:hr>
            <ns3:cad>0</ns3:cad>
          </ns3:TrackPointExtension>
        </extensions>
      </trkpt>
      <trkpt lat="43.76085631549358367919921875" lon="1.571623273193836212158203125">
        <ele>165.1999969482421875</ele>
        <time>2026-08-13T06:13:02.000Z</time>
        <extensions>
          <ns3:TrackPointExtension>
            <ns3:hr>80</ns3:hr>
            <ns3:cad>0</ns3:cad>
          </ns3:TrackPointExtension>
        </extensions>
      </trkpt>
      <trkpt lat="43.76085631549358367919921875" lon="1.571623273193836212158203125">
        <ele>165.1999969482421875</ele>
        <time>2026-08-13T06:13:03.000Z</time>
        <extensions>
          <ns3:TrackPointExtension>
            <ns3:hr>80</ns3:hr>
            <ns3:cad>0</ns3:cad>
          </ns3:TrackPointExtension>
        </extensions>
      </trkpt>
      <trkpt lat="43.76085631549358367919921875" lon="1.571623273193836212158203125">
        <ele>165.1999969482421875</ele>
        <time>2026-08-13T06:13:04.000Z</time>
        <extensions>
          <ns3:TrackPointExtension>
            <ns3:hr>79</ns3:hr>
            <ns3:cad>0</ns3:cad>
          </ns3:TrackPointExtension>
        </extensions>
      </trkpt>
      <trkpt lat="43.7608556449413299560546875" lon="1.57162134535610675811767578125">
        <ele>165.1999969482421875</ele>
        <time>2026-08-13T06:13:05.000Z</time>
        <extensions>
          <ns3:TrackPointExtension>
            <ns3:hr>80</ns3:hr>
            <ns3:cad>0</ns3:cad>
          </ns3:TrackPointExtension>
        </extensions>
      </trkpt>
      <trkpt lat="43.76085069961845874786376953125" lon="1.5716143883764743804931640625">
        <ele>165.1999969482421875</ele>
        <time>2026-08-13T06:13:06.000Z</time>
        <extensions>
          <ns3:TrackPointExtension>
            <ns3:hr>80</ns3:hr>
            <ns3:cad>0</ns3:cad>
          </ns3:TrackPointExtension>
        </extensions>
      </trkpt>
      <trkpt lat="43.7608460895717144012451171875" lon="1.5715999715030193328857421875">
        <ele>165.1999969482421875</ele>
        <time>2026-08-13T06:13:07.000Z</time>
        <extensions>
          <ns3:TrackPointExtension>
            <ns3:hr>81</ns3:hr>
            <ns3:cad>0</ns3:cad>
          </ns3:TrackPointExtension>
        </extensions>
      </trkpt>
      <trkpt lat="43.7608420662581920623779296875" lon="1.571591757237911224365234375">
        <ele>165.1999969482421875</ele>
        <time>2026-08-13T06:13:08.000Z</time>
        <extensions>
          <ns3:TrackPointExtension>
            <ns3:hr>81</ns3:hr>
            <ns3:cad>0</ns3:cad>
          </ns3:TrackPointExtension>
        </extensions>
      </trkpt>
      <trkpt lat="43.76083896495401859283447265625" lon="1.5715853869915008544921875">
        <ele>165.1999969482421875</ele>
        <time>2026-08-13T06:13:09.000Z</time>
        <extensions>
          <ns3:TrackPointExtension>
            <ns3:hr>82</ns3:hr>
            <ns3:cad>0</ns3:cad>
          </ns3:TrackPointExtension>
        </extensions>
      </trkpt>
      <trkpt lat="43.760831169784069061279296875" lon="1.5715684555470943450927734375">
        <ele>165.1999969482421875</ele>
        <time>2026-08-13T06:13:10.000Z</time>
        <extensions>
          <ns3:TrackPointExtension>
            <ns3:hr>83</ns3:hr>
            <ns3:cad>0</ns3:cad>
          </ns3:TrackPointExtension>
        </extensions>
      </trkpt>
      <trkpt lat="43.7608273141086101531982421875" lon="1.57155982218682765960693359375">
        <ele>165.1999969482421875</ele>
        <time>2026-08-13T06:13:11.000Z</time>
        <extensions>
          <ns3:TrackPointExtension>
            <ns3:hr>86</ns3:hr>
            <ns3:cad>0</ns3:cad>
          </ns3:TrackPointExtension>
        </extensions>
      </trkpt>
      <trkpt lat="43.76082412898540496826171875" lon="1.57154976390302181243896484375">
        <ele>165.1999969482421875</ele>
        <time>2026-08-13T06:13:12.000Z</time>
        <extensions>
          <ns3:TrackPointExtension>
            <ns3:hr>88</ns3:hr>
            <ns3:cad>0</ns3:cad>
          </ns3:TrackPointExtension>
        </extensions>
      </trkpt>
      <trkpt lat="43.76082337461411952972412109375" lon="1.57154322601854801177978515625">
        <ele>165.1999969482421875</ele>
        <time>2026-08-13T06:13:13.000Z</time>
        <extensions>
          <ns3:TrackPointExtension>
            <ns3:hr>88</ns3:hr>
            <ns3:cad>0</ns3:cad>
          </ns3:TrackPointExtension>
        </extensions>
      </trkpt>
      <trkpt lat="43.760816752910614013671875" lon="1.57152931205928325653076171875">
        <ele>165.399993896484375</ele>
        <time>2026-08-13T06:13:14.000Z</time>
        <extensions>
          <ns3:TrackPointExtension>
            <ns3:hr>88</ns3:hr>
            <ns3:cad>0</ns3:cad>
          </ns3:TrackPointExtension>
        </extensions>
      </trkpt>
      <trkpt lat="43.76081247813999652862548828125" lon="1.57152025960385799407958984375">
        <ele>165.399993896484375</ele>
        <time>2026-08-13T06:13:15.000Z</time>
        <extensions>
          <ns3:TrackPointExtension>
            <ns3:hr>88</ns3:hr>
            <ns3:cad>0</ns3:cad>
          </ns3:TrackPointExtension>
        </extensions>
      </trkpt>
      <trkpt lat="43.760807700455188751220703125" lon="1.57151707448065280914306640625">
        <ele>165.399993896484375</ele>
        <time>2026-08-13T06:13:16.000Z</time>
        <extensions>
          <ns3:TrackPointExtension>
            <ns3:hr>88</ns3:hr>
            <ns3:cad>0</ns3:cad>
          </ns3:TrackPointExtension>
        </extensions>
      </trkpt>
      <trkpt lat="43.7608073651790618896484375" lon="1.57151690684258937835693359375">
        <ele>165.399993896484375</ele>
        <time>2026-08-13T06:13:17.000Z</time>
        <extensions>
          <ns3:TrackPointExtension>
            <ns3:hr>88</ns3:hr>
            <ns3:cad>44</ns3:cad>
          </ns3:TrackPointExtension>
        </extensions>
      </trkpt>
      <trkpt lat="43.7608020007610321044921875" lon="1.5715081058442592620849609375">
        <ele>165.399993896484375</ele>
        <time>2026-08-13T06:13:18.000Z</time>
        <extensions>
          <ns3:TrackPointExtension>
            <ns3:hr>87</ns3:hr>
            <ns3:cad>44</ns3:cad>
          </ns3:TrackPointExtension>
        </extensions>
      </trkpt>
      <trkpt lat="43.76079638488590717315673828125" lon="1.57149997539818286895751953125">
        <ele>165.399993896484375</ele>
        <time>2026-08-13T06:13:19.000Z</time>
        <extensions>
          <ns3:TrackPointExtension>
            <ns3:hr>87</ns3:hr>
            <ns3:cad>44</ns3:cad>
          </ns3:TrackPointExtension>
        </extensions>
      </trkpt>
      <trkpt lat="43.7607894279062747955322265625" lon="1.57148673199117183685302734375">
        <ele>165.399993896484375</ele>
        <time>2026-08-13T06:13:20.000Z</time>
        <extensions>
          <ns3:TrackPointExtension>
            <ns3:hr>87</ns3:hr>
            <ns3:cad>44</ns3:cad>
          </ns3:TrackPointExtension>
        </extensions>
      </trkpt>
      <trkpt lat="43.76078364439308643341064453125" lon="1.57147650606930255889892578125">
        <ele>165.399993896484375</ele>
        <time>2026-08-13T06:13:21.000Z</time>
        <extensions>
          <ns3:TrackPointExtension>
            <ns3:hr>87</ns3:hr>
            <ns3:cad>44</ns3:cad>
          </ns3:TrackPointExtension>
        </extensions>
      </trkpt>
      <trkpt lat="43.7607793696224689483642578125" lon="1.571469716727733612060546875">
        <ele>165.399993896484375</ele>
        <time>2026-08-13T06:13:22.000Z</time>
        <extensions>
          <ns3:TrackPointExtension>
            <ns3:hr>87</ns3:hr>
            <ns3:cad>44</ns3:cad>
          </ns3:TrackPointExtension>
        </extensions>
      </trkpt>
      <trkpt lat="43.76077241264283657073974609375" lon="1.57145462930202484130859375">
        <ele>165.399993896484375</ele>
        <time>2026-08-13T06:13:23.000Z</time>
        <extensions>
          <ns3:TrackPointExtension>
            <ns3:hr>87</ns3:hr>
            <ns3:cad>44</ns3:cad>
          </ns3:TrackPointExtension>
        </extensions>
      </trkpt>
      <trkpt lat="43.76076780259609222412109375" lon="1.57144683413207530975341796875">
        <ele>165.399993896484375</ele>
        <time>2026-08-13T06:13:24.000Z</time>
        <extensions>
          <ns3:TrackPointExtension>
            <ns3:hr>87</ns3:hr>
            <ns3:cad>41</ns3:cad>
          </ns3:TrackPointExtension>
        </extensions>
      </trkpt>
      <trkpt lat="43.7607659585773944854736328125" lon="1.5714363567531108856201171875">
        <ele>165.600006103515625</ele>
        <time>2026-08-13T06:13:25.000Z</time>
        <extensions>
          <ns3:TrackPointExtension>
            <ns3:hr>87</ns3:hr>
            <ns3:cad>41</ns3:cad>
          </ns3:TrackPointExtension>
        </extensions>
      </trkpt>
      <trkpt lat="43.7607626058161258697509765625" lon="1.5714252926409244537353515625">
        <ele>165.600006103515625</ele>
        <time>2026-08-13T06:13:26.000Z</time>
        <extensions>
          <ns3:TrackPointExtension>
            <ns3:hr>86</ns3:hr>
            <ns3:cad>41</ns3:cad>
          </ns3:TrackPointExtension>
        </extensions>
      </trkpt>
      <trkpt lat="43.76075841486454010009765625" lon="1.57141305506229400634765625">
        <ele>165.600006103515625</ele>
        <time>2026-08-13T06:13:27.000Z</time>
        <extensions>
          <ns3:TrackPointExtension>
            <ns3:hr>87</ns3:hr>
            <ns3:cad>41</ns3:cad>
          </ns3:TrackPointExtension>
        </extensions>
      </trkpt>
      <trkpt lat="43.760754726827144622802734375" lon="1.57140341587364673614501953125">
        <ele>165.600006103515625</ele>
        <time>2026-08-13T06:13:28.000Z</time>
        <extensions>
          <ns3:TrackPointExtension>
            <ns3:hr>87</ns3:hr>
            <ns3:cad>41</ns3:cad>
          </ns3:TrackPointExtension>
        </extensions>
      </trkpt>
      <trkpt lat="43.76075279898941516876220703125" lon="1.57139386050403118133544921875">
        <ele>165.600006103515625</ele>
        <time>2026-08-13T06:13:29.000Z</time>
        <extensions>
          <ns3:TrackPointExtension>
            <ns3:hr>87</ns3:hr>
            <ns3:cad>41</ns3:cad>
          </ns3:TrackPointExtension>
        </extensions>
      </trkpt>
      <trkpt lat="43.76074844039976596832275390625" lon="1.57138346694409847259521484375">
        <ele>165.600006103515625</ele>
        <time>2026-08-13T06:13:30.000Z</time>
        <extensions>
          <ns3:TrackPointExtension>
            <ns3:hr>86</ns3:hr>
            <ns3:cad>41</ns3:cad>
          </ns3:TrackPointExtension>
        </extensions>
      </trkpt>
      <trkpt lat="43.76074089668691158294677734375" lon="1.571372486650943756103515625">
        <ele>165.600006103515625</ele>
        <time>2026-08-13T06:13:31.000Z</time>
        <extensions>
          <ns3:TrackPointExtension>
            <ns3:hr>87</ns3:hr>
            <ns3:cad>41</ns3:cad>
          </ns3:TrackPointExtension>
        </extensions>
      </trkpt>
      <trkpt lat="43.76073536463081836700439453125" lon="1.57136485911905765533447265625">
        <ele>165.600006103515625</ele>
        <time>2026-08-13T06:13:32.000Z</time>
        <extensions>
          <ns3:TrackPointExtension>
            <ns3:hr>87</ns3:hr>
            <ns3:cad>41</ns3:cad>
          </ns3:TrackPointExtension>
        </extensions>
      </trkpt>
      <trkpt lat="43.7607280723750591278076171875" lon="1.5713585726916790008544921875">
        <ele>165.8000030517578125</ele>
        <time>2026-08-13T06:13:33.000Z</time>
        <extensions>
          <ns3:TrackPointExtension>
            <ns3:hr>87</ns3:hr>
            <ns3:cad>43</ns3:cad>
          </ns3:TrackPointExtension>
        </extensions>
      </trkpt>
      <trkpt lat="43.76072212122380733489990234375" lon="1.5713501907885074615478515625">
        <ele>165.8000030517578125</ele>
        <time>2026-08-13T06:13:34.000Z</time>
        <extensions>
          <ns3:TrackPointExtension>
            <ns3:hr>86</ns3:hr>
            <ns3:cad>43</ns3:cad>
          </ns3:TrackPointExtension>
        </extensions>
      </trkpt>
      <trkpt lat="43.76071273349225521087646484375" lon="1.57133518718183040618896484375">
        <ele>165.8000030517578125</ele>
        <time>2026-08-13T06:13:35.000Z</time>
        <extensions>
          <ns3:TrackPointExtension>
            <ns3:hr>86</ns3:hr>
            <ns3:cad>0</ns3:cad>
          </ns3:TrackPointExtension>
        </extensions>
      </trkpt>
      <trkpt lat="43.760707117617130279541015625" lon="1.57132320106029510498046875">
        <ele>165.8000030517578125</ele>
        <time>2026-08-13T06:13:36.000Z</time>
        <extensions>
          <ns3:TrackPointExtension>
            <ns3:hr>86</ns3:hr>
            <ns3:cad>0</ns3:cad>
          </ns3:TrackPointExtension>
        </extensions>
      </trkpt>
      <trkpt lat="43.760702423751354217529296875" lon="1.57131792046129703521728515625">
        <ele>165.8000030517578125</ele>
        <time>2026-08-13T06:13:37.000Z</time>
        <extensions>
          <ns3:TrackPointExtension>
            <ns3:hr>87</ns3:hr>
            <ns3:cad>0</ns3:cad>
          </ns3:TrackPointExtension>
        </extensions>
      </trkpt>
      <trkpt lat="43.76069362275302410125732421875" lon="1.57130434177815914154052734375">
        <ele>165.8000030517578125</ele>
        <time>2026-08-13T06:13:38.000Z</time>
        <extensions>
          <ns3:TrackPointExtension>
            <ns3:hr>86</ns3:hr>
            <ns3:cad>45</ns3:cad>
          </ns3:TrackPointExtension>
        </extensions>
      </trkpt>
      <trkpt lat="43.76068389974534511566162109375" lon="1.57129227183759212493896484375">
        <ele>165.8000030517578125</ele>
        <time>2026-08-13T06:13:39.000Z</time>
        <extensions>
          <ns3:TrackPointExtension>
            <ns3:hr>86</ns3:hr>
            <ns3:cad>45</ns3:cad>
          </ns3:TrackPointExtension>
        </extensions>
      </trkpt>
      <trkpt lat="43.76068071462213993072509765625" lon="1.57127969898283481597900390625">
        <ele>165.8000030517578125</ele>
        <time>2026-08-13T06:13:40.000Z</time>
        <extensions>
          <ns3:TrackPointExtension>
            <ns3:hr>86</ns3:hr>
            <ns3:cad>45</ns3:cad>
          </ns3:TrackPointExtension>
        </extensions>
      </trkpt>
      <trkpt lat="43.7606794573366641998291015625" lon="1.57127148471772670745849609375">
        <ele>166</ele>
        <time>2026-08-13T06:13:41.000Z</time>
        <extensions>
          <ns3:TrackPointExtension>
            <ns3:hr>86</ns3:hr>
            <ns3:cad>45</ns3:cad>
          </ns3:TrackPointExtension>
        </extensions>
      </trkpt>
      <trkpt lat="43.7606714107096195220947265625" lon="1.57125539146363735198974609375">
        <ele>166</ele>
        <time>2026-08-13T06:13:42.000Z</time>
        <extensions>
          <ns3:TrackPointExtension>
            <ns3:hr>86</ns3:hr>
            <ns3:cad>43</ns3:cad>
          </ns3:TrackPointExtension>
        </extensions>
      </trkpt>
      <trkpt lat="43.76066629774868488311767578125" lon="1.5712469257414340972900390625">
        <ele>166</ele>
        <time>2026-08-13T06:13:43.000Z</time>
        <extensions>
          <ns3:TrackPointExtension>
            <ns3:hr>87</ns3:hr>
            <ns3:cad>43</ns3:cad>
          </ns3:TrackPointExtension>
        </extensions>
      </trkpt>
      <trkpt lat="43.76066076569259166717529296875" lon="1.57123410142958164215087890625">
        <ele>166</ele>
        <time>2026-08-13T06:13:44.000Z</time>
        <extensions>
          <ns3:TrackPointExtension>
            <ns3:hr>87</ns3:hr>
            <ns3:cad>43</ns3:cad>
          </ns3:TrackPointExtension>
        </extensions>
      </trkpt>
      <trkpt lat="43.76065707765519618988037109375" lon="1.57122773118317127227783203125">
        <ele>166</ele>
        <time>2026-08-13T06:13:45.000Z</time>
        <extensions>
          <ns3:TrackPointExtension>
            <ns3:hr>87</ns3:hr>
            <ns3:cad>44</ns3:cad>
          </ns3:TrackPointExtension>
        </extensions>
      </trkpt>
      <trkpt lat="43.760648109018802642822265625" lon="1.5712133981287479400634765625">
        <ele>166</ele>
        <time>2026-08-13T06:13:46.000Z</time>
        <extensions>
          <ns3:TrackPointExtension>
            <ns3:hr>87</ns3:hr>
            <ns3:cad>44</ns3:cad>
          </ns3:TrackPointExtension>
        </extensions>
      </trkpt>
      <trkpt lat="43.76064173877239227294921875" lon="1.571202166378498077392578125">
        <ele>166</ele>
        <time>2026-08-13T06:13:47.000Z</time>
        <extensions>
          <ns3:TrackPointExtension>
            <ns3:hr>87</ns3:hr>
            <ns3:cad>46</ns3:cad>
          </ns3:TrackPointExtension>
        </extensions>
      </trkpt>
      <trkpt lat="43.76063964329659938812255859375" lon="1.5711926110088825225830078125">
        <ele>166</ele>
        <time>2026-08-13T06:13:48.000Z</time>
        <extensions>
          <ns3:TrackPointExtension>
            <ns3:hr>88</ns3:hr>
            <ns3:cad>46</ns3:cad>
          </ns3:TrackPointExtension>
        </extensions>
      </trkpt>
      <trkpt lat="43.76063369214534759521484375" lon="1.57117257826030254364013671875">
        <ele>166</ele>
        <time>2026-08-13T06:13:49.000Z</time>
        <extensions>
          <ns3:TrackPointExtension>
            <ns3:hr>88</ns3:hr>
            <ns3:cad>46</ns3:cad>
          </ns3:TrackPointExtension>
        </extensions>
      </trkpt>
      <trkpt lat="43.760626651346683502197265625" lon="1.57115598209202289581298828125">
        <ele>166.1999969482421875</ele>
        <time>2026-08-13T06:13:50.000Z</time>
        <extensions>
          <ns3:TrackPointExtension>
            <ns3:hr>88</ns3:hr>
            <ns3:cad>45</ns3:cad>
          </ns3:TrackPointExtension>
        </extensions>
      </trkpt>
      <trkpt lat="43.76062355004251003265380859375" lon="1.57115832902491092681884765625">
        <ele>166.1999969482421875</ele>
        <time>2026-08-13T06:13:51.000Z</time>
        <extensions>
          <ns3:TrackPointExtension>
            <ns3:hr>87</ns3:hr>
            <ns3:cad>45</ns3:cad>
          </ns3:TrackPointExtension>
        </extensions>
      </trkpt>
      <trkpt lat="43.76061919145286083221435546875" lon="1.571145169436931610107421875">
        <ele>166.1999969482421875</ele>
        <time>2026-08-13T06:13:52.000Z</time>
        <extensions>
          <ns3:TrackPointExtension>
            <ns3:hr>88</ns3:hr>
            <ns3:cad>43</ns3:cad>
          </ns3:TrackPointExtension>
        </extensions>
      </trkpt>
      <trkpt lat="43.76060913316905498504638671875" lon="1.571128070354461669921875">
        <ele>166.1999969482421875</ele>
        <time>2026-08-13T06:13:53.000Z</time>
        <extensions>
          <ns3:TrackPointExtension>
            <ns3:hr>87</ns3:hr>
            <ns3:cad>43</ns3:cad>
          </ns3:TrackPointExtension>
        </extensions>
      </trkpt>
      <trkpt lat="43.76060661859810352325439453125" lon="1.57112128101289272308349609375">
        <ele>166.399993896484375</ele>
        <time>2026-08-13T06:13:54.000Z</time>
        <extensions>
          <ns3:TrackPointExtension>
            <ns3:hr>87</ns3:hr>
            <ns3:cad>43</ns3:cad>
          </ns3:TrackPointExtension>
        </extensions>
      </trkpt>
      <trkpt lat="43.76060284674167633056640625" lon="1.5711133182048797607421875">
        <ele>166.399993896484375</ele>
        <time>2026-08-13T06:13:55.000Z</time>
        <extensions>
          <ns3:TrackPointExtension>
            <ns3:hr>87</ns3:hr>
            <ns3:cad>43</ns3:cad>
          </ns3:TrackPointExtension>
        </extensions>
      </trkpt>
      <trkpt lat="43.7605973146855831146240234375" lon="1.57109948806464672088623046875">
        <ele>166.399993896484375</ele>
        <time>2026-08-13T06:13:56.000Z</time>
        <extensions>
          <ns3:TrackPointExtension>
            <ns3:hr>87</ns3:hr>
            <ns3:cad>43</ns3:cad>
          </ns3:TrackPointExtension>
        </extensions>
      </trkpt>
      <trkpt lat="43.7605882622301578521728515625" lon="1.57108540646731853485107421875">
        <ele>166.399993896484375</ele>
        <time>2026-08-13T06:13:57.000Z</time>
        <extensions>
          <ns3:TrackPointExtension>
            <ns3:hr>87</ns3:hr>
            <ns3:cad>44</ns3:cad>
          </ns3:TrackPointExtension>
        </extensions>
      </trkpt>
      <trkpt lat="43.7605847418308258056640625" lon="1.5710752643644809722900390625">
        <ele>166.399993896484375</ele>
        <time>2026-08-13T06:13:58.000Z</time>
        <extensions>
          <ns3:TrackPointExtension>
            <ns3:hr>87</ns3:hr>
            <ns3:cad>44</ns3:cad>
          </ns3:TrackPointExtension>
        </extensions>
      </trkpt>
      <trkpt lat="43.76058298163115978240966796875" lon="1.571060679852962493896484375">
        <ele>166.399993896484375</ele>
        <time>2026-08-13T06:13:59.000Z</time>
        <extensions>
          <ns3:TrackPointExtension>
            <ns3:hr>86</ns3:hr>
            <ns3:cad>44</ns3:cad>
          </ns3:TrackPointExtension>
        </extensions>
      </trkpt>
      <trkpt lat="43.76058080233633518218994140625" lon="1.5710504539310932159423828125">
        <ele>166.399993896484375</ele>
        <time>2026-08-13T06:14:00.000Z</time>
        <extensions>
          <ns3:TrackPointExtension>
            <ns3:hr>86</ns3:hr>
            <ns3:cad>44</ns3:cad>
          </ns3:TrackPointExtension>
        </extensions>
      </trkpt>
      <trkpt lat="43.76057342626154422760009765625" lon="1.571037210524082183837890625">
        <ele>166.399993896484375</ele>
        <time>2026-08-13T06:14:01.000Z</time>
        <extensions>
          <ns3:TrackPointExtension>
            <ns3:hr>86</ns3:hr>
            <ns3:cad>44</ns3:cad>
          </ns3:TrackPointExtension>
        </extensions>
      </trkpt>
      <trkpt lat="43.7605698220431804656982421875" lon="1.5710283257067203521728515625">
        <ele>166.399993896484375</ele>
        <time>2026-08-13T06:14:02.000Z</time>
        <extensions>
          <ns3:TrackPointExtension>
            <ns3:hr>86</ns3:hr>
            <ns3:cad>44</ns3:cad>
          </ns3:TrackPointExtension>
        </extensions>
      </trkpt>
      <trkpt lat="43.760566301643848419189453125" lon="1.57102153636515140533447265625">
        <ele>166.399993896484375</ele>
        <time>2026-08-13T06:14:03.000Z</time>
        <extensions>
          <ns3:TrackPointExtension>
            <ns3:hr>86</ns3:hr>
            <ns3:cad>44</ns3:cad>
          </ns3:TrackPointExtension>
        </extensions>
      </trkpt>
      <trkpt lat="43.76056261360645294189453125" lon="1.57101164571940898895263671875">
        <ele>166.399993896484375</ele>
        <time>2026-08-13T06:14:04.000Z</time>
        <extensions>
          <ns3:TrackPointExtension>
            <ns3:hr>85</ns3:hr>
            <ns3:cad>47</ns3:cad>
          </ns3:TrackPointExtension>
        </extensions>
      </trkpt>
      <trkpt lat="43.76055548898875713348388671875" lon="1.5709964744746685028076171875">
        <ele>166.399993896484375</ele>
        <time>2026-08-13T06:14:05.000Z</time>
        <extensions>
          <ns3:TrackPointExtension>
            <ns3:hr>85</ns3:hr>
            <ns3:cad>47</ns3:cad>
          </ns3:TrackPointExtension>
        </extensions>
      </trkpt>
      <trkpt lat="43.7605527229607105255126953125" lon="1.570983566343784332275390625">
        <ele>166.399993896484375</ele>
        <time>2026-08-13T06:14:06.000Z</time>
        <extensions>
          <ns3:TrackPointExtension>
            <ns3:hr>85</ns3:hr>
            <ns3:cad>47</ns3:cad>
          </ns3:TrackPointExtension>
        </extensions>
      </trkpt>
      <trkpt lat="43.76055188477039337158203125" lon="1.5709726698696613311767578125">
        <ele>166.600006103515625</ele>
        <time>2026-08-13T06:14:07.000Z</time>
        <extensions>
          <ns3:TrackPointExtension>
            <ns3:hr>85</ns3:hr>
            <ns3:cad>46</ns3:cad>
          </ns3:TrackPointExtension>
        </extensions>
      </trkpt>
      <trkpt lat="43.76054878346621990203857421875" lon="1.57095867209136486053466796875">
        <ele>166.600006103515625</ele>
        <time>2026-08-13T06:14:08.000Z</time>
        <extensions>
          <ns3:TrackPointExtension>
            <ns3:hr>84</ns3:hr>
            <ns3:cad>44</ns3:cad>
          </ns3:TrackPointExtension>
        </extensions>
      </trkpt>
      <trkpt lat="43.76054040156304836273193359375" lon="1.57094308175146579742431640625">
        <ele>166.600006103515625</ele>
        <time>2026-08-13T06:14:09.000Z</time>
        <extensions>
          <ns3:TrackPointExtension>
            <ns3:hr>85</ns3:hr>
            <ns3:cad>44</ns3:cad>
          </ns3:TrackPointExtension>
        </extensions>
      </trkpt>
      <trkpt lat="43.76053453423082828521728515625" lon="1.57093268819153308868408203125">
        <ele>166.600006103515625</ele>
        <time>2026-08-13T06:14:10.000Z</time>
        <extensions>
          <ns3:TrackPointExtension>
            <ns3:hr>85</ns3:hr>
            <ns3:cad>44</ns3:cad>
          </ns3:TrackPointExtension>
        </extensions>
      </trkpt>
      <trkpt lat="43.76052967272698879241943359375" lon="1.57092355191707611083984375">
        <ele>166.600006103515625</ele>
        <time>2026-08-13T06:14:11.000Z</time>
        <extensions>
          <ns3:TrackPointExtension>
            <ns3:hr>85</ns3:hr>
            <ns3:cad>45</ns3:cad>
          </ns3:TrackPointExtension>
        </extensions>
      </trkpt>
      <trkpt lat="43.7605252303183078765869140625" lon="1.5709150023758411407470703125">
        <ele>166.600006103515625</ele>
        <time>2026-08-13T06:14:12.000Z</time>
        <extensions>
          <ns3:TrackPointExtension>
            <ns3:hr>84</ns3:hr>
            <ns3:cad>45</ns3:cad>
          </ns3:TrackPointExtension>
        </extensions>
      </trkpt>
      <trkpt lat="43.76051542349159717559814453125" lon="1.570903100073337554931640625">
        <ele>166.600006103515625</ele>
        <time>2026-08-13T06:14:13.000Z</time>
        <extensions>
          <ns3:TrackPointExtension>
            <ns3:hr>84</ns3:hr>
            <ns3:cad>45</ns3:cad>
          </ns3:TrackPointExtension>
        </extensions>
      </trkpt>
      <trkpt lat="43.76051031053066253662109375" lon="1.5708911977708339691162109375">
        <ele>166.600006103515625</ele>
        <time>2026-08-13T06:14:14.000Z</time>
        <extensions>
          <ns3:TrackPointExtension>
            <ns3:hr>84</ns3:hr>
            <ns3:cad>45</ns3:cad>
          </ns3:TrackPointExtension>
        </extensions>
      </trkpt>
      <trkpt lat="43.7605067901313304901123046875" lon="1.57088306732475757598876953125">
        <ele>166.600006103515625</ele>
        <time>2026-08-13T06:14:15.000Z</time>
        <extensions>
          <ns3:TrackPointExtension>
            <ns3:hr>84</ns3:hr>
            <ns3:cad>45</ns3:cad>
          </ns3:TrackPointExtension>
        </extensions>
      </trkpt>
      <trkpt lat="43.76050494611263275146484375" lon="1.5708744339644908905029296875">
        <ele>166.600006103515625</ele>
        <time>2026-08-13T06:14:16.000Z</time>
        <extensions>
          <ns3:TrackPointExtension>
            <ns3:hr>84</ns3:hr>
            <ns3:cad>45</ns3:cad>
          </ns3:TrackPointExtension>
        </extensions>
      </trkpt>
      <trkpt lat="43.76050100661814212799072265625" lon="1.5708563290536403656005859375">
        <ele>166.600006103515625</ele>
        <time>2026-08-13T06:14:17.000Z</time>
        <extensions>
          <ns3:TrackPointExtension>
            <ns3:hr>84</ns3:hr>
            <ns3:cad>45</ns3:cad>
          </ns3:TrackPointExtension>
        </extensions>
      </trkpt>
      <trkpt lat="43.7604950554668903350830078125" lon="1.57084115780889987945556640625">
        <ele>166.600006103515625</ele>
        <time>2026-08-13T06:14:18.000Z</time>
        <extensions>
          <ns3:TrackPointExtension>
            <ns3:hr>84</ns3:hr>
            <ns3:cad>45</ns3:cad>
          </ns3:TrackPointExtension>
        </extensions>
      </trkpt>
      <trkpt lat="43.76049195416271686553955078125" lon="1.57082757912576198577880859375">
        <ele>166.600006103515625</ele>
        <time>2026-08-13T06:14:19.000Z</time>
        <extensions>
          <ns3:TrackPointExtension>
            <ns3:hr>84</ns3:hr>
            <ns3:cad>45</ns3:cad>
          </ns3:TrackPointExtension>
        </extensions>
      </trkpt>
      <trkpt lat="43.76048558391630649566650390625" lon="1.57081894576549530029296875">
        <ele>166.600006103515625</ele>
        <time>2026-08-13T06:14:20.000Z</time>
        <extensions>
          <ns3:TrackPointExtension>
            <ns3:hr>84</ns3:hr>
            <ns3:cad>45</ns3:cad>
          </ns3:TrackPointExtension>
        </extensions>
      </trkpt>
      <trkpt lat="43.76047854311764240264892578125" lon="1.5708060376346111297607421875">
        <ele>166.600006103515625</ele>
        <time>2026-08-13T06:14:21.000Z</time>
        <extensions>
          <ns3:TrackPointExtension>
            <ns3:hr>84</ns3:hr>
            <ns3:cad>45</ns3:cad>
          </ns3:TrackPointExtension>
        </extensions>
      </trkpt>
      <trkpt lat="43.76047602854669094085693359375" lon="1.57079472206532955169677734375">
        <ele>166.600006103515625</ele>
        <time>2026-08-13T06:14:22.000Z</time>
        <extensions>
          <ns3:TrackPointExtension>
            <ns3:hr>84</ns3:hr>
            <ns3:cad>45</ns3:cad>
          </ns3:TrackPointExtension>
        </extensions>
      </trkpt>
      <trkpt lat="43.760473094880580902099609375" lon="1.57078131102025508880615234375">
        <ele>166.600006103515625</ele>
        <time>2026-08-13T06:14:23.000Z</time>
        <extensions>
          <ns3:TrackPointExtension>
            <ns3:hr>84</ns3:hr>
            <ns3:cad>46</ns3:cad>
          </ns3:TrackPointExtension>
        </extensions>
      </trkpt>
      <trkpt lat="43.76046982593834400177001953125" lon="1.5707795508205890655517578125">
        <ele>166.600006103515625</ele>
        <time>2026-08-13T06:14:24.000Z</time>
        <extensions>
          <ns3:TrackPointExtension>
            <ns3:hr>83</ns3:hr>
            <ns3:cad>46</ns3:cad>
          </ns3:TrackPointExtension>
        </extensions>
      </trkpt>
      <trkpt lat="43.7604615278542041778564453125" lon="1.57076421193778514862060546875">
        <ele>166.600006103515625</ele>
        <time>2026-08-13T06:14:25.000Z</time>
        <extensions>
          <ns3:TrackPointExtension>
            <ns3:hr>83</ns3:hr>
            <ns3:cad>46</ns3:cad>
          </ns3:TrackPointExtension>
        </extensions>
      </trkpt>
      <trkpt lat="43.76045239157974720001220703125" lon="1.570749543607234954833984375">
        <ele>166.600006103515625</ele>
        <time>2026-08-13T06:14:26.000Z</time>
        <extensions>
          <ns3:TrackPointExtension>
            <ns3:hr>83</ns3:hr>
            <ns3:cad>46</ns3:cad>
          </ns3:TrackPointExtension>
        </extensions>
      </trkpt>
      <trkpt lat="43.7604457698762416839599609375" lon="1.57073789276182651519775390625">
        <ele>166.600006103515625</ele>
        <time>2026-08-13T06:14:27.000Z</time>
        <extensions>
          <ns3:TrackPointExtension>
            <ns3:hr>84</ns3:hr>
            <ns3:cad>46</ns3:cad>
          </ns3:TrackPointExtension>
        </extensions>
      </trkpt>
      <trkpt lat="43.76044484786689281463623046875" lon="1.57072900794446468353271484375">
        <ele>166.600006103515625</ele>
        <time>2026-08-13T06:14:28.000Z</time>
        <extensions>
          <ns3:TrackPointExtension>
            <ns3:hr>84</ns3:hr>
            <ns3:cad>46</ns3:cad>
          </ns3:TrackPointExtension>
        </extensions>
      </trkpt>
      <trkpt lat="43.7604390643537044525146484375" lon="1.57071442343294620513916015625">
        <ele>166.600006103515625</ele>
        <time>2026-08-13T06:14:29.000Z</time>
        <extensions>
          <ns3:TrackPointExtension>
            <ns3:hr>83</ns3:hr>
            <ns3:cad>46</ns3:cad>
          </ns3:TrackPointExtension>
        </extensions>
      </trkpt>
      <trkpt lat="43.76043193973600864410400390625" lon="1.5707021020352840423583984375">
        <ele>166.600006103515625</ele>
        <time>2026-08-13T06:14:30.000Z</time>
        <extensions>
          <ns3:TrackPointExtension>
            <ns3:hr>84</ns3:hr>
            <ns3:cad>46</ns3:cad>
          </ns3:TrackPointExtension>
        </extensions>
      </trkpt>
      <trkpt lat="43.7604266591370105743408203125" lon="1.570694558322429656982421875">
        <ele>166.600006103515625</ele>
        <time>2026-08-13T06:14:31.000Z</time>
        <extensions>
          <ns3:TrackPointExtension>
            <ns3:hr>84</ns3:hr>
            <ns3:cad>45</ns3:cad>
          </ns3:TrackPointExtension>
        </extensions>
      </trkpt>
      <trkpt lat="43.760424144566059112548828125" lon="1.57068793661892414093017578125">
        <ele>166.600006103515625</ele>
        <time>2026-08-13T06:14:32.000Z</time>
        <extensions>
          <ns3:TrackPointExtension>
            <ns3:hr>84</ns3:hr>
            <ns3:cad>45</ns3:cad>
          </ns3:TrackPointExtension>
        </extensions>
      </trkpt>
      <trkpt lat="43.7604211270809173583984375" lon="1.57067410647869110107421875">
        <ele>166.600006103515625</ele>
        <time>2026-08-13T06:14:33.000Z</time>
        <extensions>
          <ns3:TrackPointExtension>
            <ns3:hr>85</ns3:hr>
            <ns3:cad>45</ns3:cad>
          </ns3:TrackPointExtension>
        </extensions>
      </trkpt>
      <trkpt lat="43.76041316427290439605712890625" lon="1.5706595219671726226806640625">
        <ele>166.600006103515625</ele>
        <time>2026-08-13T06:14:34.000Z</time>
        <extensions>
          <ns3:TrackPointExtension>
            <ns3:hr>85</ns3:hr>
            <ns3:cad>45</ns3:cad>
          </ns3:TrackPointExtension>
        </extensions>
      </trkpt>
      <trkpt lat="43.76040763221681118011474609375" lon="1.5706479549407958984375">
        <ele>166.600006103515625</ele>
        <time>2026-08-13T06:14:35.000Z</time>
        <extensions>
          <ns3:TrackPointExtension>
            <ns3:hr>84</ns3:hr>
            <ns3:cad>45</ns3:cad>
          </ns3:TrackPointExtension>
        </extensions>
      </trkpt>
      <trkpt lat="43.7604035250842571258544921875" lon="1.57063923776149749755859375">
        <ele>166.600006103515625</ele>
        <time>2026-08-13T06:14:36.000Z</time>
        <extensions>
          <ns3:TrackPointExtension>
            <ns3:hr>83</ns3:hr>
            <ns3:cad>45</ns3:cad>
          </ns3:TrackPointExtension>
        </extensions>
      </trkpt>
      <trkpt lat="43.76039690338075160980224609375" lon="1.5706266649067401885986328125">
        <ele>166.600006103515625</ele>
        <time>2026-08-13T06:14:37.000Z</time>
        <extensions>
          <ns3:TrackPointExtension>
            <ns3:hr>83</ns3:hr>
            <ns3:cad>46</ns3:cad>
          </ns3:TrackPointExtension>
        </extensions>
      </trkpt>
      <trkpt lat="43.76038902439177036285400390625" lon="1.57060998491942882537841796875">
        <ele>166.600006103515625</ele>
        <time>2026-08-13T06:14:38.000Z</time>
        <extensions>
          <ns3:TrackPointExtension>
            <ns3:hr>82</ns3:hr>
            <ns3:cad>46</ns3:cad>
          </ns3:TrackPointExtension>
        </extensions>
      </trkpt>
      <trkpt lat="43.76038114540278911590576171875" lon="1.5705991722643375396728515625">
        <ele>166.600006103515625</ele>
        <time>2026-08-13T06:14:39.000Z</time>
        <extensions>
          <ns3:TrackPointExtension>
            <ns3:hr>81</ns3:hr>
            <ns3:cad>46</ns3:cad>
          </ns3:TrackPointExtension>
        </extensions>
      </trkpt>
      <trkpt lat="43.76037611626088619232177734375" lon="1.57058894634246826171875">
        <ele>166.399993896484375</ele>
        <time>2026-08-13T06:14:40.000Z</time>
        <extensions>
          <ns3:TrackPointExtension>
            <ns3:hr>81</ns3:hr>
            <ns3:cad>46</ns3:cad>
          </ns3:TrackPointExtension>
        </extensions>
      </trkpt>
      <trkpt lat="43.76037326641380786895751953125" lon="1.57058349810540676116943359375">
        <ele>166.399993896484375</ele>
        <time>2026-08-13T06:14:41.000Z</time>
        <extensions>
          <ns3:TrackPointExtension>
            <ns3:hr>81</ns3:hr>
            <ns3:cad>46</ns3:cad>
          </ns3:TrackPointExtension>
        </extensions>
      </trkpt>
      <trkpt lat="43.76036874018609523773193359375" lon="1.57056857831776142120361328125">
        <ele>166.399993896484375</ele>
        <time>2026-08-13T06:14:42.000Z</time>
        <extensions>
          <ns3:TrackPointExtension>
            <ns3:hr>81</ns3:hr>
            <ns3:cad>47</ns3:cad>
          </ns3:TrackPointExtension>
        </extensions>
      </trkpt>
      <trkpt lat="43.76036010682582855224609375" lon="1.570553742349147796630859375">
        <ele>166.399993896484375</ele>
        <time>2026-08-13T06:14:43.000Z</time>
        <extensions>
          <ns3:TrackPointExtension>
            <ns3:hr>81</ns3:hr>
            <ns3:cad>47</ns3:cad>
          </ns3:TrackPointExtension>
        </extensions>
      </trkpt>
      <trkpt lat="43.760353066027164459228515625" lon="1.5705398283898830413818359375">
        <ele>166.1999969482421875</ele>
        <time>2026-08-13T06:14:44.000Z</time>
        <extensions>
          <ns3:TrackPointExtension>
            <ns3:hr>80</ns3:hr>
            <ns3:cad>47</ns3:cad>
          </ns3:TrackPointExtension>
        </extensions>
      </trkpt>
      <trkpt lat="43.76035080291330814361572265625" lon="1.57052650116384029388427734375">
        <ele>166.1999969482421875</ele>
        <time>2026-08-13T06:14:45.000Z</time>
        <extensions>
          <ns3:TrackPointExtension>
            <ns3:hr>81</ns3:hr>
            <ns3:cad>47</ns3:cad>
          </ns3:TrackPointExtension>
        </extensions>
      </trkpt>
      <trkpt lat="43.76034493558108806610107421875" lon="1.5705156885087490081787109375">
        <ele>166.1999969482421875</ele>
        <time>2026-08-13T06:14:46.000Z</time>
        <extensions>
          <ns3:TrackPointExtension>
            <ns3:hr>81</ns3:hr>
            <ns3:cad>47</ns3:cad>
          </ns3:TrackPointExtension>
        </extensions>
      </trkpt>
      <trkpt lat="43.76034191809594631195068359375" lon="1.57050403766334056854248046875">
        <ele>166.1999969482421875</ele>
        <time>2026-08-13T06:14:47.000Z</time>
        <extensions>
          <ns3:TrackPointExtension>
            <ns3:hr>80</ns3:hr>
            <ns3:cad>47</ns3:cad>
          </ns3:TrackPointExtension>
        </extensions>
      </trkpt>
      <trkpt lat="43.7603347934782505035400390625" lon="1.57049238681793212890625">
        <ele>166</ele>
        <time>2026-08-13T06:14:48.000Z</time>
        <extensions>
          <ns3:TrackPointExtension>
            <ns3:hr>80</ns3:hr>
            <ns3:cad>47</ns3:cad>
          </ns3:TrackPointExtension>
        </extensions>
      </trkpt>
      <trkpt lat="43.76032599247992038726806640625" lon="1.57048056833446025848388671875">
        <ele>166</ele>
        <time>2026-08-13T06:14:49.000Z</time>
        <extensions>
          <ns3:TrackPointExtension>
            <ns3:hr>80</ns3:hr>
            <ns3:cad>47</ns3:cad>
          </ns3:TrackPointExtension>
        </extensions>
      </trkpt>
      <trkpt lat="43.7603218853473663330078125" lon="1.570467911660671234130859375">
        <ele>165.8000030517578125</ele>
        <time>2026-08-13T06:14:50.000Z</time>
        <extensions>
          <ns3:TrackPointExtension>
            <ns3:hr>80</ns3:hr>
            <ns3:cad>48</ns3:cad>
          </ns3:TrackPointExtension>
        </extensions>
      </trkpt>
      <trkpt lat="43.7603192031383514404296875" lon="1.570464558899402618408203125">
        <ele>165.8000030517578125</ele>
        <time>2026-08-13T06:14:51.000Z</time>
        <extensions>
          <ns3:TrackPointExtension>
            <ns3:hr>80</ns3:hr>
            <ns3:cad>49</ns3:cad>
          </ns3:TrackPointExtension>
        </extensions>
      </trkpt>
      <trkpt lat="43.76031140796840190887451171875" lon="1.570453830063343048095703125">
        <ele>165.600006103515625</ele>
        <time>2026-08-13T06:14:52.000Z</time>
        <extensions>
          <ns3:TrackPointExtension>
            <ns3:hr>80</ns3:hr>
            <ns3:cad>49</ns3:cad>
          </ns3:TrackPointExtension>
        </extensions>
      </trkpt>
      <trkpt lat="43.760301768779754638671875" lon="1.57044184394180774688720703125">
        <ele>165.600006103515625</ele>
        <time>2026-08-13T06:14:53.000Z</time>
        <extensions>
          <ns3:TrackPointExtension>
            <ns3:hr>80</ns3:hr>
            <ns3:cad>49</ns3:cad>
          </ns3:TrackPointExtension>
        </extensions>
      </trkpt>
      <trkpt lat="43.76029305160045623779296875" lon="1.57042776234447956085205078125">
        <ele>165.600006103515625</ele>
        <time>2026-08-13T06:14:54.000Z</time>
        <extensions>
          <ns3:TrackPointExtension>
            <ns3:hr>79</ns3:hr>
            <ns3:cad>49</ns3:cad>
          </ns3:TrackPointExtension>
        </extensions>
      </trkpt>
      <trkpt lat="43.76028710044920444488525390625" lon="1.57041150145232677459716796875">
        <ele>165.399993896484375</ele>
        <time>2026-08-13T06:14:55.000Z</time>
        <extensions>
          <ns3:TrackPointExtension>
            <ns3:hr>79</ns3:hr>
            <ns3:cad>49</ns3:cad>
          </ns3:TrackPointExtension>
        </extensions>
      </trkpt>
      <trkpt lat="43.760279975831508636474609375" lon="1.57040831632912158966064453125">
        <ele>165.399993896484375</ele>
        <time>2026-08-13T06:14:56.000Z</time>
        <extensions>
          <ns3:TrackPointExtension>
            <ns3:hr>79</ns3:hr>
            <ns3:cad>49</ns3:cad>
          </ns3:TrackPointExtension>
        </extensions>
      </trkpt>
      <trkpt lat="43.7602762877941131591796875" lon="1.5703943185508251190185546875">
        <ele>165.399993896484375</ele>
        <time>2026-08-13T06:14:57.000Z</time>
        <extensions>
          <ns3:TrackPointExtension>
            <ns3:hr>79</ns3:hr>
            <ns3:cad>49</ns3:cad>
          </ns3:TrackPointExtension>
        </extensions>
      </trkpt>
      <trkpt lat="43.7602697499096393585205078125" lon="1.57037948258221149444580078125">
        <ele>165.1999969482421875</ele>
        <time>2026-08-13T06:14:58.000Z</time>
        <extensions>
          <ns3:TrackPointExtension>
            <ns3:hr>80</ns3:hr>
            <ns3:cad>49</ns3:cad>
          </ns3:TrackPointExtension>
        </extensions>
      </trkpt>
      <trkpt lat="43.7602653913199901580810546875" lon="1.5703664906322956085205078125">
        <ele>165.1999969482421875</ele>
        <time>2026-08-13T06:14:59.000Z</time>
        <extensions>
          <ns3:TrackPointExtension>
            <ns3:hr>79</ns3:hr>
            <ns3:cad>48</ns3:cad>
          </ns3:TrackPointExtension>
        </extensions>
      </trkpt>
      <trkpt lat="43.76026027835905551910400390625" lon="1.57035383395850658416748046875">
        <ele>165.1999969482421875</ele>
        <time>2026-08-13T06:15:00.000Z</time>
        <extensions>
          <ns3:TrackPointExtension>
            <ns3:hr>79</ns3:hr>
            <ns3:cad>48</ns3:cad>
          </ns3:TrackPointExtension>
        </extensions>
      </trkpt>
      <trkpt lat="43.760257177054882049560546875" lon="1.5703435242176055908203125">
        <ele>165</ele>
        <time>2026-08-13T06:15:01.000Z</time>
        <extensions>
          <ns3:TrackPointExtension>
            <ns3:hr>79</ns3:hr>
            <ns3:cad>48</ns3:cad>
          </ns3:TrackPointExtension>
        </extensions>
      </trkpt>
      <trkpt lat="43.76025474630296230316162109375" lon="1.5703339688479900360107421875">
        <ele>165</ele>
        <time>2026-08-13T06:15:02.000Z</time>
        <extensions>
          <ns3:TrackPointExtension>
            <ns3:hr>79</ns3:hr>
            <ns3:cad>49</ns3:cad>
          </ns3:TrackPointExtension>
        </extensions>
      </trkpt>
      <trkpt lat="43.76024720259010791778564453125" lon="1.57032114453613758087158203125">
        <ele>165</ele>
        <time>2026-08-13T06:15:03.000Z</time>
        <extensions>
          <ns3:TrackPointExtension>
            <ns3:hr>79</ns3:hr>
            <ns3:cad>49</ns3:cad>
          </ns3:TrackPointExtension>
        </extensions>
      </trkpt>
      <trkpt lat="43.76023815013468265533447265625" lon="1.57031041570007801055908203125">
        <ele>164.8000030517578125</ele>
        <time>2026-08-13T06:15:04.000Z</time>
        <extensions>
          <ns3:TrackPointExtension>
            <ns3:hr>79</ns3:hr>
            <ns3:cad>49</ns3:cad>
          </ns3:TrackPointExtension>
        </extensions>
      </trkpt>
      <trkpt lat="43.76023110933601856231689453125" lon="1.57029868103563785552978515625">
        <ele>164.8000030517578125</ele>
        <time>2026-08-13T06:15:05.000Z</time>
        <extensions>
          <ns3:TrackPointExtension>
            <ns3:hr>78</ns3:hr>
            <ns3:cad>50</ns3:cad>
          </ns3:TrackPointExtension>
        </extensions>
      </trkpt>
      <trkpt lat="43.7602258287370204925537109375" lon="1.57028677873313426971435546875">
        <ele>164.8000030517578125</ele>
        <time>2026-08-13T06:15:06.000Z</time>
        <extensions>
          <ns3:TrackPointExtension>
            <ns3:hr>79</ns3:hr>
            <ns3:cad>50</ns3:cad>
          </ns3:TrackPointExtension>
        </extensions>
      </trkpt>
      <trkpt lat="43.7602199614048004150390625" lon="1.57027470879256725311279296875">
        <ele>164.600006103515625</ele>
        <time>2026-08-13T06:15:07.000Z</time>
        <extensions>
          <ns3:TrackPointExtension>
            <ns3:hr>79</ns3:hr>
            <ns3:cad>48</ns3:cad>
          </ns3:TrackPointExtension>
        </extensions>
      </trkpt>
      <trkpt lat="43.76021325588226318359375" lon="1.57026641070842742919921875">
        <ele>164.600006103515625</ele>
        <time>2026-08-13T06:15:08.000Z</time>
        <extensions>
          <ns3:TrackPointExtension>
            <ns3:hr>78</ns3:hr>
            <ns3:cad>48</ns3:cad>
          </ns3:TrackPointExtension>
        </extensions>
      </trkpt>
      <trkpt lat="43.76020495779812335968017578125" lon="1.5702571906149387359619140625">
        <ele>164.8000030517578125</ele>
        <time>2026-08-13T06:15:09.000Z</time>
        <extensions>
          <ns3:TrackPointExtension>
            <ns3:hr>79</ns3:hr>
            <ns3:cad>49</ns3:cad>
          </ns3:TrackPointExtension>
        </extensions>
      </trkpt>
      <trkpt lat="43.76019808463752269744873046875" lon="1.57024486921727657318115234375">
        <ele>164.8000030517578125</ele>
        <time>2026-08-13T06:15:10.000Z</time>
        <extensions>
          <ns3:TrackPointExtension>
            <ns3:hr>79</ns3:hr>
            <ns3:cad>49</ns3:cad>
          </ns3:TrackPointExtension>
        </extensions>
      </trkpt>
      <trkpt lat="43.7601931393146514892578125" lon="1.570233888924121856689453125">
        <ele>164.600006103515625</ele>
        <time>2026-08-13T06:15:11.000Z</time>
        <extensions>
          <ns3:TrackPointExtension>
            <ns3:hr>78</ns3:hr>
            <ns3:cad>49</ns3:cad>
          </ns3:TrackPointExtension>
        </extensions>
      </trkpt>
      <trkpt lat="43.76019087620079517364501953125" lon="1.57022483646869659423828125">
        <ele>164.600006103515625</ele>
        <time>2026-08-13T06:15:12.000Z</time>
        <extensions>
          <ns3:TrackPointExtension>
            <ns3:hr>79</ns3:hr>
            <ns3:cad>49</ns3:cad>
          </ns3:TrackPointExtension>
        </extensions>
      </trkpt>
      <trkpt lat="43.760190121829509735107421875" lon="1.57020530663430690765380859375">
        <ele>164.600006103515625</ele>
        <time>2026-08-13T06:15:13.000Z</time>
        <extensions>
          <ns3:TrackPointExtension>
            <ns3:hr>79</ns3:hr>
            <ns3:cad>49</ns3:cad>
          </ns3:TrackPointExtension>
        </extensions>
      </trkpt>
      <trkpt lat="43.7601869367063045501708984375" lon="1.57019206322729587554931640625">
        <ele>164.600006103515625</ele>
        <time>2026-08-13T06:15:14.000Z</time>
        <extensions>
          <ns3:TrackPointExtension>
            <ns3:hr>79</ns3:hr>
            <ns3:cad>49</ns3:cad>
          </ns3:TrackPointExtension>
        </extensions>
      </trkpt>
      <trkpt lat="43.760184086859226226806640625" lon="1.57017923891544342041015625">
        <ele>164.600006103515625</ele>
        <time>2026-08-13T06:15:15.000Z</time>
        <extensions>
          <ns3:TrackPointExtension>
            <ns3:hr>78</ns3:hr>
            <ns3:cad>48</ns3:cad>
          </ns3:TrackPointExtension>
        </extensions>
      </trkpt>
      <trkpt lat="43.760179392993450164794921875" lon="1.5701653249561786651611328125">
        <ele>164.600006103515625</ele>
        <time>2026-08-13T06:15:16.000Z</time>
        <extensions>
          <ns3:TrackPointExtension>
            <ns3:hr>77</ns3:hr>
            <ns3:cad>47</ns3:cad>
          </ns3:TrackPointExtension>
        </extensions>
      </trkpt>
      <trkpt lat="43.76017645932734012603759765625" lon="1.57015568576753139495849609375">
        <ele>164.399993896484375</ele>
        <time>2026-08-13T06:15:17.000Z</time>
        <extensions>
          <ns3:TrackPointExtension>
            <ns3:hr>76</ns3:hr>
            <ns3:cad>49</ns3:cad>
          </ns3:TrackPointExtension>
        </extensions>
      </trkpt>
      <trkpt lat="43.76016992144286632537841796875" lon="1.570139341056346893310546875">
        <ele>164.399993896484375</ele>
        <time>2026-08-13T06:15:18.000Z</time>
        <extensions>
          <ns3:TrackPointExtension>
            <ns3:hr>75</ns3:hr>
            <ns3:cad>49</ns3:cad>
          </ns3:TrackPointExtension>
        </extensions>
      </trkpt>
      <trkpt lat="43.760164640843868255615234375" lon="1.57012668438255786895751953125">
        <ele>164.399993896484375</ele>
        <time>2026-08-13T06:15:19.000Z</time>
        <extensions>
          <ns3:TrackPointExtension>
            <ns3:hr>74</ns3:hr>
            <ns3:cad>49</ns3:cad>
          </ns3:TrackPointExtension>
        </extensions>
      </trkpt>
      <trkpt lat="43.760161288082599639892578125" lon="1.5701130218803882598876953125">
        <ele>164.399993896484375</ele>
        <time>2026-08-13T06:15:20.000Z</time>
        <extensions>
          <ns3:TrackPointExtension>
            <ns3:hr>74</ns3:hr>
            <ns3:cad>48</ns3:cad>
          </ns3:TrackPointExtension>
        </extensions>
      </trkpt>
      <trkpt lat="43.76015634275972843170166015625" lon="1.57010556198656558990478515625">
        <ele>164.600006103515625</ele>
        <time>2026-08-13T06:15:21.000Z</time>
        <extensions>
          <ns3:TrackPointExtension>
            <ns3:hr>74</ns3:hr>
            <ns3:cad>47</ns3:cad>
          </ns3:TrackPointExtension>
        </extensions>
      </trkpt>
      <trkpt lat="43.7601500563323497772216796875" lon="1.57009131275117397308349609375">
        <ele>164.600006103515625</ele>
        <time>2026-08-13T06:15:22.000Z</time>
        <extensions>
          <ns3:TrackPointExtension>
            <ns3:hr>74</ns3:hr>
            <ns3:cad>47</ns3:cad>
          </ns3:TrackPointExtension>
        </extensions>
      </trkpt>
      <trkpt lat="43.76014410518109798431396484375" lon="1.57007999718189239501953125">
        <ele>164.600006103515625</ele>
        <time>2026-08-13T06:15:23.000Z</time>
        <extensions>
          <ns3:TrackPointExtension>
            <ns3:hr>73</ns3:hr>
            <ns3:cad>47</ns3:cad>
          </ns3:TrackPointExtension>
        </extensions>
      </trkpt>
      <trkpt lat="43.760142512619495391845703125" lon="1.5700701065361499786376953125">
        <ele>164.600006103515625</ele>
        <time>2026-08-13T06:15:24.000Z</time>
        <extensions>
          <ns3:TrackPointExtension>
            <ns3:hr>74</ns3:hr>
            <ns3:cad>46</ns3:cad>
          </ns3:TrackPointExtension>
        </extensions>
      </trkpt>
      <trkpt lat="43.76013614237308502197265625" lon="1.57006365247070789337158203125">
        <ele>164.600006103515625</ele>
        <time>2026-08-13T06:15:25.000Z</time>
        <extensions>
          <ns3:TrackPointExtension>
            <ns3:hr>74</ns3:hr>
            <ns3:cad>46</ns3:cad>
          </ns3:TrackPointExtension>
        </extensions>
      </trkpt>
      <trkpt lat="43.7601269222795963287353515625" lon="1.5700486488640308380126953125">
        <ele>164.8000030517578125</ele>
        <time>2026-08-13T06:15:26.000Z</time>
        <extensions>
          <ns3:TrackPointExtension>
            <ns3:hr>75</ns3:hr>
            <ns3:cad>45</ns3:cad>
          </ns3:TrackPointExtension>
        </extensions>
      </trkpt>
      <trkpt lat="43.760119713842868804931640625" lon="1.5700377523899078369140625">
        <ele>164.8000030517578125</ele>
        <time>2026-08-13T06:15:27.000Z</time>
        <extensions>
          <ns3:TrackPointExtension>
            <ns3:hr>76</ns3:hr>
            <ns3:cad>45</ns3:cad>
          </ns3:TrackPointExtension>
        </extensions>
      </trkpt>
      <trkpt lat="43.76011560671031475067138671875" lon="1.570028364658355712890625">
        <ele>165</ele>
        <time>2026-08-13T06:15:28.000Z</time>
        <extensions>
          <ns3:TrackPointExtension>
            <ns3:hr>77</ns3:hr>
            <ns3:cad>45</ns3:cad>
          </ns3:TrackPointExtension>
        </extensions>
      </trkpt>
      <trkpt lat="43.76010873354971408843994140625" lon="1.57001352868974208831787109375">
        <ele>165</ele>
        <time>2026-08-13T06:15:29.000Z</time>
        <extensions>
          <ns3:TrackPointExtension>
            <ns3:hr>77</ns3:hr>
            <ns3:cad>45</ns3:cad>
          </ns3:TrackPointExtension>
        </extensions>
      </trkpt>
      <trkpt lat="43.76010135747492313385009765625" lon="1.56999743543565273284912109375">
        <ele>165</ele>
        <time>2026-08-13T06:15:30.000Z</time>
        <extensions>
          <ns3:TrackPointExtension>
            <ns3:hr>77</ns3:hr>
            <ns3:cad>44</ns3:cad>
          </ns3:TrackPointExtension>
        </extensions>
      </trkpt>
      <trkpt lat="43.76009414903819561004638671875" lon="1.56998611986637115478515625">
        <ele>165</ele>
        <time>2026-08-13T06:15:31.000Z</time>
        <extensions>
          <ns3:TrackPointExtension>
            <ns3:hr>77</ns3:hr>
            <ns3:cad>44</ns3:cad>
          </ns3:TrackPointExtension>
        </extensions>
      </trkpt>
      <trkpt lat="43.76009079627692699432373046875" lon="1.5699748881161212921142578125">
        <ele>165.1999969482421875</ele>
        <time>2026-08-13T06:15:32.000Z</time>
        <extensions>
          <ns3:TrackPointExtension>
            <ns3:hr>76</ns3:hr>
            <ns3:cad>44</ns3:cad>
          </ns3:TrackPointExtension>
        </extensions>
      </trkpt>
      <trkpt lat="43.76008610241115093231201171875" lon="1.56996089033782482147216796875">
        <ele>165.1999969482421875</ele>
        <time>2026-08-13T06:15:33.000Z</time>
        <extensions>
          <ns3:TrackPointExtension>
            <ns3:hr>76</ns3:hr>
            <ns3:cad>44</ns3:cad>
          </ns3:TrackPointExtension>
        </extensions>
      </trkpt>
      <trkpt lat="43.76007788814604282379150390625" lon="1.569940857589244842529296875">
        <ele>165.399993896484375</ele>
        <time>2026-08-13T06:15:34.000Z</time>
        <extensions>
          <ns3:TrackPointExtension>
            <ns3:hr>76</ns3:hr>
            <ns3:cad>44</ns3:cad>
          </ns3:TrackPointExtension>
        </extensions>
      </trkpt>
      <trkpt lat="43.76007319428026676177978515625" lon="1.5699306316673755645751953125">
        <ele>165.399993896484375</ele>
        <time>2026-08-13T06:15:35.000Z</time>
        <extensions>
          <ns3:TrackPointExtension>
            <ns3:hr>76</ns3:hr>
            <ns3:cad>45</ns3:cad>
          </ns3:TrackPointExtension>
        </extensions>
      </trkpt>
      <trkpt lat="43.7600709311664104461669921875" lon="1.569922082126140594482421875">
        <ele>165.399993896484375</ele>
        <time>2026-08-13T06:15:36.000Z</time>
        <extensions>
          <ns3:TrackPointExtension>
            <ns3:hr>76</ns3:hr>
            <ns3:cad>44</ns3:cad>
          </ns3:TrackPointExtension>
        </extensions>
      </trkpt>
      <trkpt lat="43.7600659020245075225830078125" lon="1.56990959309041500091552734375">
        <ele>165.600006103515625</ele>
        <time>2026-08-13T06:15:37.000Z</time>
        <extensions>
          <ns3:TrackPointExtension>
            <ns3:hr>76</ns3:hr>
            <ns3:cad>44</ns3:cad>
          </ns3:TrackPointExtension>
        </extensions>
      </trkpt>
      <trkpt lat="43.760059364140033721923828125" lon="1.5698977746069431304931640625">
        <ele>165.600006103515625</ele>
        <time>2026-08-13T06:15:38.000Z</time>
        <extensions>
          <ns3:TrackPointExtension>
            <ns3:hr>76</ns3:hr>
            <ns3:cad>44</ns3:cad>
          </ns3:TrackPointExtension>
        </extensions>
      </trkpt>
      <trkpt lat="43.760056011378765106201171875" lon="1.56988763250410556793212890625">
        <ele>165.600006103515625</ele>
        <time>2026-08-13T06:15:39.000Z</time>
        <extensions>
          <ns3:TrackPointExtension>
            <ns3:hr>76</ns3:hr>
            <ns3:cad>44</ns3:cad>
          </ns3:TrackPointExtension>
        </extensions>
      </trkpt>
      <trkpt lat="43.7600551731884479522705078125" lon="1.56987908296287059783935546875">
        <ele>165.8000030517578125</ele>
        <time>2026-08-13T06:15:40.000Z</time>
        <extensions>
          <ns3:TrackPointExtension>
            <ns3:hr>77</ns3:hr>
            <ns3:cad>44</ns3:cad>
          </ns3:TrackPointExtension>
        </extensions>
      </trkpt>
      <trkpt lat="43.76004855148494243621826171875" lon="1.56986399553716182708740234375">
        <ele>165.8000030517578125</ele>
        <time>2026-08-13T06:15:41.000Z</time>
        <extensions>
          <ns3:TrackPointExtension>
            <ns3:hr>77</ns3:hr>
            <ns3:cad>46</ns3:cad>
          </ns3:TrackPointExtension>
        </extensions>
      </trkpt>
      <trkpt lat="43.76004033721983432769775390625" lon="1.56984890811145305633544921875">
        <ele>166</ele>
        <time>2026-08-13T06:15:42.000Z</time>
        <extensions>
          <ns3:TrackPointExtension>
            <ns3:hr>78</ns3:hr>
            <ns3:cad>46</ns3:cad>
          </ns3:TrackPointExtension>
        </extensions>
      </trkpt>
      <trkpt lat="43.76003648154437541961669921875" lon="1.5698374249041080474853515625">
        <ele>166</ele>
        <time>2026-08-13T06:15:43.000Z</time>
        <extensions>
          <ns3:TrackPointExtension>
            <ns3:hr>79</ns3:hr>
            <ns3:cad>45</ns3:cad>
          </ns3:TrackPointExtension>
        </extensions>
      </trkpt>
      <trkpt lat="43.76003430224955081939697265625" lon="1.56982359476387500762939453125">
        <ele>166</ele>
        <time>2026-08-13T06:15:44.000Z</time>
        <extensions>
          <ns3:TrackPointExtension>
            <ns3:hr>79</ns3:hr>
            <ns3:cad>43</ns3:cad>
          </ns3:TrackPointExtension>
        </extensions>
      </trkpt>
      <trkpt lat="43.760031200945377349853515625" lon="1.56981043517589569091796875">
        <ele>166.1999969482421875</ele>
        <time>2026-08-13T06:15:45.000Z</time>
        <extensions>
          <ns3:TrackPointExtension>
            <ns3:hr>80</ns3:hr>
            <ns3:cad>43</ns3:cad>
          </ns3:TrackPointExtension>
        </extensions>
      </trkpt>
      <trkpt lat="43.76002675853669643402099609375" lon="1.5697961859405040740966796875">
        <ele>166.1999969482421875</ele>
        <time>2026-08-13T06:15:46.000Z</time>
        <extensions>
          <ns3:TrackPointExtension>
            <ns3:hr>81</ns3:hr>
            <ns3:cad>44</ns3:cad>
          </ns3:TrackPointExtension>
        </extensions>
      </trkpt>
      <trkpt lat="43.76002139411866664886474609375" lon="1.56978537328541278839111328125">
        <ele>166.399993896484375</ele>
        <time>2026-08-13T06:15:47.000Z</time>
        <extensions>
          <ns3:TrackPointExtension>
            <ns3:hr>83</ns3:hr>
            <ns3:cad>44</ns3:cad>
          </ns3:TrackPointExtension>
        </extensions>
      </trkpt>
      <trkpt lat="43.7600182928144931793212890625" lon="1.56977933831512928009033203125">
        <ele>166.399993896484375</ele>
        <time>2026-08-13T06:15:48.000Z</time>
        <extensions>
          <ns3:TrackPointExtension>
            <ns3:hr>84</ns3:hr>
            <ns3:cad>44</ns3:cad>
          </ns3:TrackPointExtension>
        </extensions>
      </trkpt>
      <trkpt lat="43.7600095756351947784423828125" lon="1.569760143756866455078125">
        <ele>166.399993896484375</ele>
        <time>2026-08-13T06:15:49.000Z</time>
        <extensions>
          <ns3:TrackPointExtension>
            <ns3:hr>85</ns3:hr>
            <ns3:cad>44</ns3:cad>
          </ns3:TrackPointExtension>
        </extensions>
      </trkpt>
      <trkpt lat="43.76000077463686466217041015625" lon="1.5697489120066165924072265625">
        <ele>166.600006103515625</ele>
        <time>2026-08-13T06:15:50.000Z</time>
        <extensions>
          <ns3:TrackPointExtension>
            <ns3:hr>86</ns3:hr>
            <ns3:cad>44</ns3:cad>
          </ns3:TrackPointExtension>
        </extensions>
      </trkpt>
      <trkpt lat="43.75999800860881805419921875" lon="1.56973826698958873748779296875">
        <ele>166.600006103515625</ele>
        <time>2026-08-13T06:15:51.000Z</time>
        <extensions>
          <ns3:TrackPointExtension>
            <ns3:hr>86</ns3:hr>
            <ns3:cad>44</ns3:cad>
          </ns3:TrackPointExtension>
        </extensions>
      </trkpt>
      <trkpt lat="43.75999708659946918487548828125" lon="1.56973206438124179840087890625">
        <ele>166.600006103515625</ele>
        <time>2026-08-13T06:15:52.000Z</time>
        <extensions>
          <ns3:TrackPointExtension>
            <ns3:hr>87</ns3:hr>
            <ns3:cad>44</ns3:cad>
          </ns3:TrackPointExtension>
        </extensions>
      </trkpt>
      <trkpt lat="43.75999264419078826904296875" lon="1.56971991062164306640625">
        <ele>166.600006103515625</ele>
        <time>2026-08-13T06:15:53.000Z</time>
        <extensions>
          <ns3:TrackPointExtension>
            <ns3:hr>88</ns3:hr>
            <ns3:cad>44</ns3:cad>
          </ns3:TrackPointExtension>
        </extensions>
      </trkpt>
      <trkpt lat="43.7599857710301876068115234375" lon="1.56970339827239513397216796875">
        <ele>166.600006103515625</ele>
        <time>2026-08-13T06:15:54.000Z</time>
        <extensions>
          <ns3:TrackPointExtension>
            <ns3:hr>88</ns3:hr>
            <ns3:cad>44</ns3:cad>
          </ns3:TrackPointExtension>
        </extensions>
      </trkpt>
      <trkpt lat="43.7599800713360309600830078125" lon="1.56969250179827213287353515625">
        <ele>166.600006103515625</ele>
        <time>2026-08-13T06:15:55.000Z</time>
        <extensions>
          <ns3:TrackPointExtension>
            <ns3:hr>88</ns3:hr>
            <ns3:cad>45</ns3:cad>
          </ns3:TrackPointExtension>
        </extensions>
      </trkpt>
      <trkpt lat="43.75997629947960376739501953125" lon="1.56968395225703716278076171875">
        <ele>166.600006103515625</ele>
        <time>2026-08-13T06:15:56.000Z</time>
        <extensions>
          <ns3:TrackPointExtension>
            <ns3:hr>89</ns3:hr>
            <ns3:cad>45</ns3:cad>
          </ns3:TrackPointExtension>
        </extensions>
      </trkpt>
      <trkpt lat="43.75997059978544712066650390625" lon="1.56967372633516788482666015625">
        <ele>166.600006103515625</ele>
        <time>2026-08-13T06:15:57.000Z</time>
        <extensions>
          <ns3:TrackPointExtension>
            <ns3:hr>88</ns3:hr>
            <ns3:cad>45</ns3:cad>
          </ns3:TrackPointExtension>
        </extensions>
      </trkpt>
      <trkpt lat="43.7599626369774341583251953125" lon="1.5696600638329982757568359375">
        <ele>166.8000030517578125</ele>
        <time>2026-08-13T06:15:58.000Z</time>
        <extensions>
          <ns3:TrackPointExtension>
            <ns3:hr>89</ns3:hr>
            <ns3:cad>47</ns3:cad>
          </ns3:TrackPointExtension>
        </extensions>
      </trkpt>
      <trkpt lat="43.7599572725594043731689453125" lon="1.56964707188308238983154296875">
        <ele>166.8000030517578125</ele>
        <time>2026-08-13T06:15:59.000Z</time>
        <extensions>
          <ns3:TrackPointExtension>
            <ns3:hr>89</ns3:hr>
            <ns3:cad>47</ns3:cad>
          </ns3:TrackPointExtension>
        </extensions>
      </trkpt>
      <trkpt lat="43.75995417125523090362548828125" lon="1.56963852234184741973876953125">
        <ele>166.8000030517578125</ele>
        <time>2026-08-13T06:16:00.000Z</time>
        <extensions>
          <ns3:TrackPointExtension>
            <ns3:hr>89</ns3:hr>
            <ns3:cad>47</ns3:cad>
          </ns3:TrackPointExtension>
        </extensions>
      </trkpt>
      <trkpt lat="43.7599465437233448028564453125" lon="1.5696262009441852569580078125">
        <ele>166.8000030517578125</ele>
        <time>2026-08-13T06:16:01.000Z</time>
        <extensions>
          <ns3:TrackPointExtension>
            <ns3:hr>90</ns3:hr>
            <ns3:cad>47</ns3:cad>
          </ns3:TrackPointExtension>
        </extensions>
      </trkpt>
      <trkpt lat="43.759936988353729248046875" lon="1.56960801221430301666259765625">
        <ele>166.8000030517578125</ele>
        <time>2026-08-13T06:16:02.000Z</time>
        <extensions>
          <ns3:TrackPointExtension>
            <ns3:hr>90</ns3:hr>
            <ns3:cad>45</ns3:cad>
          </ns3:TrackPointExtension>
        </extensions>
      </trkpt>
      <trkpt lat="43.7599284388124942779541015625" lon="1.56959527172148227691650390625">
        <ele>166.8000030517578125</ele>
        <time>2026-08-13T06:16:03.000Z</time>
        <extensions>
          <ns3:TrackPointExtension>
            <ns3:hr>90</ns3:hr>
            <ns3:cad>45</ns3:cad>
          </ns3:TrackPointExtension>
        </extensions>
      </trkpt>
      <trkpt lat="43.7599249184131622314453125" lon="1.569584123790264129638671875">
        <ele>166.8000030517578125</ele>
        <time>2026-08-13T06:16:04.000Z</time>
        <extensions>
          <ns3:TrackPointExtension>
            <ns3:hr>90</ns3:hr>
            <ns3:cad>45</ns3:cad>
          </ns3:TrackPointExtension>
        </extensions>
      </trkpt>
      <trkpt lat="43.759920559823513031005859375" lon="1.56957616098225116729736328125">
        <ele>166.8000030517578125</ele>
        <time>2026-08-13T06:16:05.000Z</time>
        <extensions>
          <ns3:TrackPointExtension>
            <ns3:hr>90</ns3:hr>
            <ns3:cad>45</ns3:cad>
          </ns3:TrackPointExtension>
        </extensions>
      </trkpt>
      <trkpt lat="43.75991351902484893798828125" lon="1.56956023536622524261474609375">
        <ele>166.600006103515625</ele>
        <time>2026-08-13T06:16:06.000Z</time>
        <extensions>
          <ns3:TrackPointExtension>
            <ns3:hr>90</ns3:hr>
            <ns3:cad>45</ns3:cad>
          </ns3:TrackPointExtension>
        </extensions>
      </trkpt>
      <trkpt lat="43.75990622676908969879150390625" lon="1.56954380683600902557373046875">
        <ele>166.600006103515625</ele>
        <time>2026-08-13T06:16:07.000Z</time>
        <extensions>
          <ns3:TrackPointExtension>
            <ns3:hr>90</ns3:hr>
            <ns3:cad>47</ns3:cad>
          </ns3:TrackPointExtension>
        </extensions>
      </trkpt>
      <trkpt lat="43.759900443255901336669921875" lon="1.56953374855220317840576171875">
        <ele>166.600006103515625</ele>
        <time>2026-08-13T06:16:08.000Z</time>
        <extensions>
          <ns3:TrackPointExtension>
            <ns3:hr>90</ns3:hr>
            <ns3:cad>47</ns3:cad>
          </ns3:TrackPointExtension>
        </extensions>
      </trkpt>
      <trkpt lat="43.759895078837871551513671875" lon="1.56952612102031707763671875">
        <ele>166.600006103515625</ele>
        <time>2026-08-13T06:16:09.000Z</time>
        <extensions>
          <ns3:TrackPointExtension>
            <ns3:hr>90</ns3:hr>
            <ns3:cad>47</ns3:cad>
          </ns3:TrackPointExtension>
        </extensions>
      </trkpt>
      <trkpt lat="43.75989264808595180511474609375" lon="1.56951564364135265350341796875">
        <ele>166.600006103515625</ele>
        <time>2026-08-13T06:16:10.000Z</time>
        <extensions>
          <ns3:TrackPointExtension>
            <ns3:hr>90</ns3:hr>
            <ns3:cad>47</ns3:cad>
          </ns3:TrackPointExtension>
        </extensions>
      </trkpt>
      <trkpt lat="43.7598865292966365814208984375" lon="1.569495610892772674560546875">
        <ele>166.600006103515625</ele>
        <time>2026-08-13T06:16:11.000Z</time>
        <extensions>
          <ns3:TrackPointExtension>
            <ns3:hr>90</ns3:hr>
            <ns3:cad>47</ns3:cad>
          </ns3:TrackPointExtension>
        </extensions>
      </trkpt>
      <trkpt lat="43.75988460145890712738037109375" lon="1.56948111020028591156005859375">
        <ele>166.600006103515625</ele>
        <time>2026-08-13T06:16:12.000Z</time>
        <extensions>
          <ns3:TrackPointExtension>
            <ns3:hr>90</ns3:hr>
            <ns3:cad>47</ns3:cad>
          </ns3:TrackPointExtension>
        </extensions>
      </trkpt>
      <trkpt lat="43.759883344173431396484375" lon="1.56946971081197261810302734375">
        <ele>166.600006103515625</ele>
        <time>2026-08-13T06:16:13.000Z</time>
        <extensions>
          <ns3:TrackPointExtension>
            <ns3:hr>90</ns3:hr>
            <ns3:cad>47</ns3:cad>
          </ns3:TrackPointExtension>
        </extensions>
      </trkpt>
      <trkpt lat="43.75987487845122814178466796875" lon="1.569453366100788116455078125">
        <ele>166.600006103515625</ele>
        <time>2026-08-13T06:16:14.000Z</time>
        <extensions>
          <ns3:TrackPointExtension>
            <ns3:hr>90</ns3:hr>
            <ns3:cad>47</ns3:cad>
          </ns3:TrackPointExtension>
        </extensions>
      </trkpt>
      <trkpt lat="43.75986666418612003326416015625" lon="1.56943970359861850738525390625">
        <ele>166.600006103515625</ele>
        <time>2026-08-13T06:16:15.000Z</time>
        <extensions>
          <ns3:TrackPointExtension>
            <ns3:hr>90</ns3:hr>
            <ns3:cad>47</ns3:cad>
          </ns3:TrackPointExtension>
        </extensions>
      </trkpt>
      <trkpt lat="43.75985853374004364013671875" lon="1.5694262087345123291015625">
        <ele>166.600006103515625</ele>
        <time>2026-08-13T06:16:16.000Z</time>
        <extensions>
          <ns3:TrackPointExtension>
            <ns3:hr>90</ns3:hr>
            <ns3:cad>47</ns3:cad>
          </ns3:TrackPointExtension>
        </extensions>
      </trkpt>
      <trkpt lat="43.759851492941379547119140625" lon="1.5694208443164825439453125">
        <ele>166.8000030517578125</ele>
        <time>2026-08-13T06:16:17.000Z</time>
        <extensions>
          <ns3:TrackPointExtension>
            <ns3:hr>90</ns3:hr>
            <ns3:cad>46</ns3:cad>
          </ns3:TrackPointExtension>
        </extensions>
      </trkpt>
      <trkpt lat="43.75984914600849151611328125" lon="1.56941388733685016632080078125">
        <ele>166.8000030517578125</ele>
        <time>2026-08-13T06:16:18.000Z</time>
        <extensions>
          <ns3:TrackPointExtension>
            <ns3:hr>90</ns3:hr>
            <ns3:cad>46</ns3:cad>
          </ns3:TrackPointExtension>
        </extensions>
      </trkpt>
      <trkpt lat="43.7598416022956371307373046875" lon="1.56940139830112457275390625">
        <ele>166.8000030517578125</ele>
        <time>2026-08-13T06:16:19.000Z</time>
        <extensions>
          <ns3:TrackPointExtension>
            <ns3:hr>89</ns3:hr>
            <ns3:cad>46</ns3:cad>
          </ns3:TrackPointExtension>
        </extensions>
      </trkpt>
      <trkpt lat="43.75983380712568759918212890625" lon="1.5693878196179866790771484375">
        <ele>166.8000030517578125</ele>
        <time>2026-08-13T06:16:20.000Z</time>
        <extensions>
          <ns3:TrackPointExtension>
            <ns3:hr>89</ns3:hr>
            <ns3:cad>46</ns3:cad>
          </ns3:TrackPointExtension>
        </extensions>
      </trkpt>
      <trkpt lat="43.75983095727860927581787109375" lon="1.5693804435431957244873046875">
        <ele>166.8000030517578125</ele>
        <time>2026-08-13T06:16:21.000Z</time>
        <extensions>
          <ns3:TrackPointExtension>
            <ns3:hr>89</ns3:hr>
            <ns3:cad>45</ns3:cad>
          </ns3:TrackPointExtension>
        </extensions>
      </trkpt>
      <trkpt lat="43.75982710160315036773681640625" lon="1.56937885098159313201904296875">
        <ele>166.8000030517578125</ele>
        <time>2026-08-13T06:16:22.000Z</time>
        <extensions>
          <ns3:TrackPointExtension>
            <ns3:hr>89</ns3:hr>
            <ns3:cad>45</ns3:cad>
          </ns3:TrackPointExtension>
        </extensions>
      </trkpt>
      <trkpt lat="43.7598218210041522979736328125" lon="1.5693633444607257843017578125">
        <ele>166.8000030517578125</ele>
        <time>2026-08-13T06:16:23.000Z</time>
        <extensions>
          <ns3:TrackPointExtension>
            <ns3:hr>89</ns3:hr>
            <ns3:cad>46</ns3:cad>
          </ns3:TrackPointExtension>
        </extensions>
      </trkpt>
      <trkpt lat="43.759813606739044189453125" lon="1.56935001723468303680419921875">
        <ele>166.8000030517578125</ele>
        <time>2026-08-13T06:16:24.000Z</time>
        <extensions>
          <ns3:TrackPointExtension>
            <ns3:hr>89</ns3:hr>
            <ns3:cad>46</ns3:cad>
          </ns3:TrackPointExtension>
        </extensions>
      </trkpt>
      <trkpt lat="43.75980782322585582733154296875" lon="1.56933828257024288177490234375">
        <ele>166.8000030517578125</ele>
        <time>2026-08-13T06:16:25.000Z</time>
        <extensions>
          <ns3:TrackPointExtension>
            <ns3:hr>88</ns3:hr>
            <ns3:cad>45</ns3:cad>
          </ns3:TrackPointExtension>
        </extensions>
      </trkpt>
      <trkpt lat="43.75980614684522151947021484375" lon="1.56933275051414966583251953125">
        <ele>166.8000030517578125</ele>
        <time>2026-08-13T06:16:26.000Z</time>
        <extensions>
          <ns3:TrackPointExtension>
            <ns3:hr>88</ns3:hr>
            <ns3:cad>45</ns3:cad>
          </ns3:TrackPointExtension>
        </extensions>
      </trkpt>
      <trkpt lat="43.75980086624622344970703125" lon="1.5693204291164875030517578125">
        <ele>166.8000030517578125</ele>
        <time>2026-08-13T06:16:27.000Z</time>
        <extensions>
          <ns3:TrackPointExtension>
            <ns3:hr>88</ns3:hr>
            <ns3:cad>44</ns3:cad>
          </ns3:TrackPointExtension>
        </extensions>
      </trkpt>
      <trkpt lat="43.75979147851467132568359375" lon="1.56930743716657161712646484375">
        <ele>166.8000030517578125</ele>
        <time>2026-08-13T06:16:28.000Z</time>
        <extensions>
          <ns3:TrackPointExtension>
            <ns3:hr>87</ns3:hr>
            <ns3:cad>45</ns3:cad>
          </ns3:TrackPointExtension>
        </extensions>
      </trkpt>
      <trkpt lat="43.75978720374405384063720703125" lon="1.56929679214954376220703125">
        <ele>166.8000030517578125</ele>
        <time>2026-08-13T06:16:29.000Z</time>
        <extensions>
          <ns3:TrackPointExtension>
            <ns3:hr>87</ns3:hr>
            <ns3:cad>45</ns3:cad>
          </ns3:TrackPointExtension>
        </extensions>
      </trkpt>
      <trkpt lat="43.75978217460215091705322265625" lon="1.56928312964737415313720703125">
        <ele>166.8000030517578125</ele>
        <time>2026-08-13T06:16:30.000Z</time>
        <extensions>
          <ns3:TrackPointExtension>
            <ns3:hr>87</ns3:hr>
            <ns3:cad>45</ns3:cad>
          </ns3:TrackPointExtension>
        </extensions>
      </trkpt>
      <trkpt lat="43.759778402745723724365234375" lon="1.569267623126506805419921875">
        <ele>166.8000030517578125</ele>
        <time>2026-08-13T06:16:31.000Z</time>
        <extensions>
          <ns3:TrackPointExtension>
            <ns3:hr>87</ns3:hr>
            <ns3:cad>46</ns3:cad>
          </ns3:TrackPointExtension>
        </extensions>
      </trkpt>
      <trkpt lat="43.75977144576609134674072265625" lon="1.56925798393785953521728515625">
        <ele>166.8000030517578125</ele>
        <time>2026-08-13T06:16:32.000Z</time>
        <extensions>
          <ns3:TrackPointExtension>
            <ns3:hr>87</ns3:hr>
            <ns3:cad>46</ns3:cad>
          </ns3:TrackPointExtension>
        </extensions>
      </trkpt>
      <trkpt lat="43.759765662252902984619140625" lon="1.5692463330924510955810546875">
        <ele>166.8000030517578125</ele>
        <time>2026-08-13T06:16:33.000Z</time>
        <extensions>
          <ns3:TrackPointExtension>
            <ns3:hr>87</ns3:hr>
            <ns3:cad>46</ns3:cad>
          </ns3:TrackPointExtension>
        </extensions>
      </trkpt>
      <trkpt lat="43.7597631476819515228271484375" lon="1.56924004666507244110107421875">
        <ele>166.8000030517578125</ele>
        <time>2026-08-13T06:16:34.000Z</time>
        <extensions>
          <ns3:TrackPointExtension>
            <ns3:hr>87</ns3:hr>
            <ns3:cad>47</ns3:cad>
          </ns3:TrackPointExtension>
        </extensions>
      </trkpt>
      <trkpt lat="43.759757615625858306884765625" lon="1.56922529451549053192138671875">
        <ele>166.8000030517578125</ele>
        <time>2026-08-13T06:16:35.000Z</time>
        <extensions>
          <ns3:TrackPointExtension>
            <ns3:hr>86</ns3:hr>
            <ns3:cad>45</ns3:cad>
          </ns3:TrackPointExtension>
        </extensions>
      </trkpt>
      <trkpt lat="43.75974931754171848297119140625" lon="1.56920827925205230712890625">
        <ele>166.8000030517578125</ele>
        <time>2026-08-13T06:16:36.000Z</time>
        <extensions>
          <ns3:TrackPointExtension>
            <ns3:hr>86</ns3:hr>
            <ns3:cad>44</ns3:cad>
          </ns3:TrackPointExtension>
        </extensions>
      </trkpt>
      <trkpt lat="43.75974294729530811309814453125" lon="1.5691920183598995208740234375">
        <ele>167</ele>
        <time>2026-08-13T06:16:37.000Z</time>
        <extensions>
          <ns3:TrackPointExtension>
            <ns3:hr>86</ns3:hr>
            <ns3:cad>44</ns3:cad>
          </ns3:TrackPointExtension>
        </extensions>
      </trkpt>
      <trkpt lat="43.75973775051534175872802734375" lon="1.56918304972350597381591796875">
        <ele>167</ele>
        <time>2026-08-13T06:16:38.000Z</time>
        <extensions>
          <ns3:TrackPointExtension>
            <ns3:hr>86</ns3:hr>
            <ns3:cad>44</ns3:cad>
          </ns3:TrackPointExtension>
        </extensions>
      </trkpt>
      <trkpt lat="43.7597343139350414276123046875" lon="1.56917265616357326507568359375">
        <ele>167</ele>
        <time>2026-08-13T06:16:39.000Z</time>
        <extensions>
          <ns3:TrackPointExtension>
            <ns3:hr>87</ns3:hr>
            <ns3:cad>44</ns3:cad>
          </ns3:TrackPointExtension>
        </extensions>
      </trkpt>
      <trkpt lat="43.7597262673079967498779296875" lon="1.56915731728076934814453125">
        <ele>167</ele>
        <time>2026-08-13T06:16:40.000Z</time>
        <extensions>
          <ns3:TrackPointExtension>
            <ns3:hr>86</ns3:hr>
            <ns3:cad>44</ns3:cad>
          </ns3:TrackPointExtension>
        </extensions>
      </trkpt>
      <trkpt lat="43.7597185559570789337158203125" lon="1.56914658844470977783203125">
        <ele>167</ele>
        <time>2026-08-13T06:16:41.000Z</time>
        <extensions>
          <ns3:TrackPointExtension>
            <ns3:hr>86</ns3:hr>
            <ns3:cad>44</ns3:cad>
          </ns3:TrackPointExtension>
        </extensions>
      </trkpt>
      <trkpt lat="43.75971679575741291046142578125" lon="1.569138206541538238525390625">
        <ele>167</ele>
        <time>2026-08-13T06:16:42.000Z</time>
        <extensions>
          <ns3:TrackPointExtension>
            <ns3:hr>87</ns3:hr>
            <ns3:cad>46</ns3:cad>
          </ns3:TrackPointExtension>
        </extensions>
      </trkpt>
      <trkpt lat="43.75971411354839801788330078125" lon="1.56912756152451038360595703125">
        <ele>167</ele>
        <time>2026-08-13T06:16:43.000Z</time>
        <extensions>
          <ns3:TrackPointExtension>
            <ns3:hr>87</ns3:hr>
            <ns3:cad>46</ns3:cad>
          </ns3:TrackPointExtension>
        </extensions>
      </trkpt>
      <trkpt lat="43.75970757566392421722412109375" lon="1.56911130063235759735107421875">
        <ele>167.1999969482421875</ele>
        <time>2026-08-13T06:16:44.000Z</time>
        <extensions>
          <ns3:TrackPointExtension>
            <ns3:hr>87</ns3:hr>
            <ns3:cad>46</ns3:cad>
          </ns3:TrackPointExtension>
        </extensions>
      </trkpt>
      <trkpt lat="43.75970237888395786285400390625" lon="1.56910006888210773468017578125">
        <ele>167.1999969482421875</ele>
        <time>2026-08-13T06:16:45.000Z</time>
        <extensions>
          <ns3:TrackPointExtension>
            <ns3:hr>87</ns3:hr>
            <ns3:cad>46</ns3:cad>
          </ns3:TrackPointExtension>
        </extensions>
      </trkpt>
      <trkpt lat="43.75970321707427501678466796875" lon="1.56909160315990447998046875">
        <ele>167.1999969482421875</ele>
        <time>2026-08-13T06:16:46.000Z</time>
        <extensions>
          <ns3:TrackPointExtension>
            <ns3:hr>87</ns3:hr>
            <ns3:cad>45</ns3:cad>
          </ns3:TrackPointExtension>
        </extensions>
      </trkpt>
      <trkpt lat="43.759698607027530670166015625" lon="1.5690775215625762939453125">
        <ele>167.1999969482421875</ele>
        <time>2026-08-13T06:16:47.000Z</time>
        <extensions>
          <ns3:TrackPointExtension>
            <ns3:hr>87</ns3:hr>
            <ns3:cad>44</ns3:cad>
          </ns3:TrackPointExtension>
        </extensions>
      </trkpt>
      <trkpt lat="43.75969223678112030029296875" lon="1.5690639428794384002685546875">
        <ele>167.1999969482421875</ele>
        <time>2026-08-13T06:16:48.000Z</time>
        <extensions>
          <ns3:TrackPointExtension>
            <ns3:hr>86</ns3:hr>
            <ns3:cad>43</ns3:cad>
          </ns3:TrackPointExtension>
        </extensions>
      </trkpt>
      <trkpt lat="43.7596880458295345306396484375" lon="1.569051034748554229736328125">
        <ele>167.1999969482421875</ele>
        <time>2026-08-13T06:16:49.000Z</time>
        <extensions>
          <ns3:TrackPointExtension>
            <ns3:hr>87</ns3:hr>
            <ns3:cad>43</ns3:cad>
          </ns3:TrackPointExtension>
        </extensions>
      </trkpt>
      <trkpt lat="43.7596840225160121917724609375" lon="1.5690434910356998443603515625">
        <ele>167.1999969482421875</ele>
        <time>2026-08-13T06:16:50.000Z</time>
        <extensions>
          <ns3:TrackPointExtension>
            <ns3:hr>87</ns3:hr>
            <ns3:cad>44</ns3:cad>
          </ns3:TrackPointExtension>
        </extensions>
      </trkpt>
      <trkpt lat="43.75967941246926784515380859375" lon="1.5690267272293567657470703125">
        <ele>167.1999969482421875</ele>
        <time>2026-08-13T06:16:51.000Z</time>
        <extensions>
          <ns3:TrackPointExtension>
            <ns3:hr>87</ns3:hr>
            <ns3:cad>44</ns3:cad>
          </ns3:TrackPointExtension>
        </extensions>
      </trkpt>
      <trkpt lat="43.75967455096542835235595703125" lon="1.5690176747739315032958984375">
        <ele>167.1999969482421875</ele>
        <time>2026-08-13T06:16:52.000Z</time>
        <extensions>
          <ns3:TrackPointExtension>
            <ns3:hr>86</ns3:hr>
            <ns3:cad>45</ns3:cad>
          </ns3:TrackPointExtension>
        </extensions>
      </trkpt>
      <trkpt lat="43.759673796594142913818359375" lon="1.5690102986991405487060546875">
        <ele>167.1999969482421875</ele>
        <time>2026-08-13T06:16:53.000Z</time>
        <extensions>
          <ns3:TrackPointExtension>
            <ns3:hr>86</ns3:hr>
            <ns3:cad>45</ns3:cad>
          </ns3:TrackPointExtension>
        </extensions>
      </trkpt>
      <trkpt lat="43.7596702761948108673095703125" lon="1.56900250352919101715087890625">
        <ele>167.1999969482421875</ele>
        <time>2026-08-13T06:16:54.000Z</time>
        <extensions>
          <ns3:TrackPointExtension>
            <ns3:hr>87</ns3:hr>
            <ns3:cad>44</ns3:cad>
          </ns3:TrackPointExtension>
        </extensions>
      </trkpt>
      <trkpt lat="43.75966365449130535125732421875" lon="1.5689828060567378997802734375">
        <ele>167.1999969482421875</ele>
        <time>2026-08-13T06:16:55.000Z</time>
        <extensions>
          <ns3:TrackPointExtension>
            <ns3:hr>87</ns3:hr>
            <ns3:cad>43</ns3:cad>
          </ns3:TrackPointExtension>
        </extensions>
      </trkpt>
      <trkpt lat="43.75965711660683155059814453125" lon="1.56897065229713916778564453125">
        <ele>167.1999969482421875</ele>
        <time>2026-08-13T06:16:56.000Z</time>
        <extensions>
          <ns3:TrackPointExtension>
            <ns3:hr>87</ns3:hr>
            <ns3:cad>43</ns3:cad>
          </ns3:TrackPointExtension>
        </extensions>
      </trkpt>
      <trkpt lat="43.75965376384556293487548828125" lon="1.56895992346107959747314453125">
        <ele>167.1999969482421875</ele>
        <time>2026-08-13T06:16:57.000Z</time>
        <extensions>
          <ns3:TrackPointExtension>
            <ns3:hr>86</ns3:hr>
            <ns3:cad>43</ns3:cad>
          </ns3:TrackPointExtension>
        </extensions>
      </trkpt>
      <trkpt lat="43.7596513330936431884765625" lon="1.56895237974822521209716796875">
        <ele>167.399993896484375</ele>
        <time>2026-08-13T06:16:58.000Z</time>
        <extensions>
          <ns3:TrackPointExtension>
            <ns3:hr>87</ns3:hr>
            <ns3:cad>43</ns3:cad>
          </ns3:TrackPointExtension>
        </extensions>
      </trkpt>
      <trkpt lat="43.75964538194239139556884765625" lon="1.56894207000732421875">
        <ele>167.399993896484375</ele>
        <time>2026-08-13T06:16:59.000Z</time>
        <extensions>
          <ns3:TrackPointExtension>
            <ns3:hr>87</ns3:hr>
            <ns3:cad>43</ns3:cad>
          </ns3:TrackPointExtension>
        </extensions>
      </trkpt>
      <trkpt lat="43.75963582657277584075927734375" lon="1.5689284913241863250732421875">
        <ele>167.399993896484375</ele>
        <time>2026-08-13T06:17:00.000Z</time>
        <extensions>
          <ns3:TrackPointExtension>
            <ns3:hr>86</ns3:hr>
            <ns3:cad>43</ns3:cad>
          </ns3:TrackPointExtension>
        </extensions>
      </trkpt>
      <trkpt lat="43.759629540145397186279296875" lon="1.5689139068126678466796875">
        <ele>167.399993896484375</ele>
        <time>2026-08-13T06:17:01.000Z</time>
        <extensions>
          <ns3:TrackPointExtension>
            <ns3:hr>87</ns3:hr>
            <ns3:cad>47</ns3:cad>
          </ns3:TrackPointExtension>
        </extensions>
      </trkpt>
      <trkpt lat="43.75962384045124053955078125" lon="1.56890275888144969940185546875">
        <ele>167.399993896484375</ele>
        <time>2026-08-13T06:17:02.000Z</time>
        <extensions>
          <ns3:TrackPointExtension>
            <ns3:hr>87</ns3:hr>
            <ns3:cad>47</ns3:cad>
          </ns3:TrackPointExtension>
        </extensions>
      </trkpt>
      <trkpt lat="43.7596162967383861541748046875" lon="1.56889001838862895965576171875">
        <ele>167.399993896484375</ele>
        <time>2026-08-13T06:17:03.000Z</time>
        <extensions>
          <ns3:TrackPointExtension>
            <ns3:hr>86</ns3:hr>
            <ns3:cad>47</ns3:cad>
          </ns3:TrackPointExtension>
        </extensions>
      </trkpt>
      <trkpt lat="43.759608082473278045654296875" lon="1.56887694261968135833740234375">
        <ele>167.399993896484375</ele>
        <time>2026-08-13T06:17:04.000Z</time>
        <extensions>
          <ns3:TrackPointExtension>
            <ns3:hr>86</ns3:hr>
            <ns3:cad>46</ns3:cad>
          </ns3:TrackPointExtension>
        </extensions>
      </trkpt>
      <trkpt lat="43.75960196368396282196044921875" lon="1.56886252574622631072998046875">
        <ele>167.399993896484375</ele>
        <time>2026-08-13T06:17:05.000Z</time>
        <extensions>
          <ns3:TrackPointExtension>
            <ns3:hr>86</ns3:hr>
            <ns3:cad>46</ns3:cad>
          </ns3:TrackPointExtension>
        </extensions>
      </trkpt>
      <trkpt lat="43.7595978565514087677001953125" lon="1.56885154545307159423828125">
        <ele>167.399993896484375</ele>
        <time>2026-08-13T06:17:06.000Z</time>
        <extensions>
          <ns3:TrackPointExtension>
            <ns3:hr>86</ns3:hr>
            <ns3:cad>46</ns3:cad>
          </ns3:TrackPointExtension>
        </extensions>
      </trkpt>
      <trkpt lat="43.75959299504756927490234375" lon="1.56883838586509227752685546875">
        <ele>167.399993896484375</ele>
        <time>2026-08-13T06:17:07.000Z</time>
        <extensions>
          <ns3:TrackPointExtension>
            <ns3:hr>87</ns3:hr>
            <ns3:cad>46</ns3:cad>
          </ns3:TrackPointExtension>
        </extensions>
      </trkpt>
      <trkpt lat="43.759590648114681243896484375" lon="1.56882111914455890655517578125">
        <ele>167.399993896484375</ele>
        <time>2026-08-13T06:17:08.000Z</time>
        <extensions>
          <ns3:TrackPointExtension>
            <ns3:hr>87</ns3:hr>
            <ns3:cad>46</ns3:cad>
          </ns3:TrackPointExtension>
        </extensions>
      </trkpt>
      <trkpt lat="43.7595841102302074432373046875" lon="1.56881441362202167510986328125">
        <ele>167.399993896484375</ele>
        <time>2026-08-13T06:17:09.000Z</time>
        <extensions>
          <ns3:TrackPointExtension>
            <ns3:hr>87</ns3:hr>
            <ns3:cad>46</ns3:cad>
          </ns3:TrackPointExtension>
        </extensions>
      </trkpt>
      <trkpt lat="43.75957681797444820404052734375" lon="1.56880586408078670501708984375">
        <ele>167.399993896484375</ele>
        <time>2026-08-13T06:17:10.000Z</time>
        <extensions>
          <ns3:TrackPointExtension>
            <ns3:hr>87</ns3:hr>
            <ns3:cad>46</ns3:cad>
          </ns3:TrackPointExtension>
        </extensions>
      </trkpt>
      <trkpt lat="43.75957145355641841888427734375" lon="1.5688000805675983428955078125">
        <ele>167.399993896484375</ele>
        <time>2026-08-13T06:17:11.000Z</time>
        <extensions>
          <ns3:TrackPointExtension>
            <ns3:hr>87</ns3:hr>
            <ns3:cad>46</ns3:cad>
          </ns3:TrackPointExtension>
        </extensions>
      </trkpt>
      <trkpt lat="43.75956307165324687957763671875" lon="1.56878826208412647247314453125">
        <ele>167.399993896484375</ele>
        <time>2026-08-13T06:17:12.000Z</time>
        <extensions>
          <ns3:TrackPointExtension>
            <ns3:hr>87</ns3:hr>
            <ns3:cad>48</ns3:cad>
          </ns3:TrackPointExtension>
        </extensions>
      </trkpt>
      <trkpt lat="43.75955653376877307891845703125" lon="1.56877954490482807159423828125">
        <ele>167.1999969482421875</ele>
        <time>2026-08-13T06:17:13.000Z</time>
        <extensions>
          <ns3:TrackPointExtension>
            <ns3:hr>87</ns3:hr>
            <ns3:cad>48</ns3:cad>
          </ns3:TrackPointExtension>
        </extensions>
      </trkpt>
      <trkpt lat="43.7595502473413944244384765625" lon="1.56876697205007076263427734375">
        <ele>167.1999969482421875</ele>
        <time>2026-08-13T06:17:14.000Z</time>
        <extensions>
          <ns3:TrackPointExtension>
            <ns3:hr>88</ns3:hr>
            <ns3:cad>48</ns3:cad>
          </ns3:TrackPointExtension>
        </extensions>
      </trkpt>
      <trkpt lat="43.75954982824623584747314453125" lon="1.56875758431851863861083984375">
        <ele>167.1999969482421875</ele>
        <time>2026-08-13T06:17:15.000Z</time>
        <extensions>
          <ns3:TrackPointExtension>
            <ns3:hr>87</ns3:hr>
            <ns3:cad>48</ns3:cad>
          </ns3:TrackPointExtension>
        </extensions>
      </trkpt>
      <trkpt lat="43.75954345799982547760009765625" lon="1.56874702312052249908447265625">
        <ele>167.1999969482421875</ele>
        <time>2026-08-13T06:17:16.000Z</time>
        <extensions>
          <ns3:TrackPointExtension>
            <ns3:hr>87</ns3:hr>
            <ns3:cad>47</ns3:cad>
          </ns3:TrackPointExtension>
        </extensions>
      </trkpt>
      <trkpt lat="43.7595338188111782073974609375" lon="1.5687288343906402587890625">
        <ele>167.1999969482421875</ele>
        <time>2026-08-13T06:17:17.000Z</time>
        <extensions>
          <ns3:TrackPointExtension>
            <ns3:hr>87</ns3:hr>
            <ns3:cad>47</ns3:cad>
          </ns3:TrackPointExtension>
        </extensions>
      </trkpt>
      <trkpt lat="43.75952593982219696044921875" lon="1.5687108971178531646728515625">
        <ele>167.1999969482421875</ele>
        <time>2026-08-13T06:17:18.000Z</time>
        <extensions>
          <ns3:TrackPointExtension>
            <ns3:hr>87</ns3:hr>
            <ns3:cad>47</ns3:cad>
          </ns3:TrackPointExtension>
        </extensions>
      </trkpt>
      <trkpt lat="43.7595225870609283447265625" lon="1.56869756989181041717529296875">
        <ele>167.1999969482421875</ele>
        <time>2026-08-13T06:17:19.000Z</time>
        <extensions>
          <ns3:TrackPointExtension>
            <ns3:hr>88</ns3:hr>
            <ns3:cad>47</ns3:cad>
          </ns3:TrackPointExtension>
        </extensions>
      </trkpt>
      <trkpt lat="43.7595197372138500213623046875" lon="1.56868927180767059326171875">
        <ele>167.1999969482421875</ele>
        <time>2026-08-13T06:17:20.000Z</time>
        <extensions>
          <ns3:TrackPointExtension>
            <ns3:hr>87</ns3:hr>
            <ns3:cad>47</ns3:cad>
          </ns3:TrackPointExtension>
        </extensions>
      </trkpt>
      <trkpt lat="43.7595118582248687744140625" lon="1.56867912970483303070068359375">
        <ele>167</ele>
        <time>2026-08-13T06:17:21.000Z</time>
        <extensions>
          <ns3:TrackPointExtension>
            <ns3:hr>87</ns3:hr>
            <ns3:cad>46</ns3:cad>
          </ns3:TrackPointExtension>
        </extensions>
      </trkpt>
      <trkpt lat="43.75950423069298267364501953125" lon="1.5686669759452342987060546875">
        <ele>167</ele>
        <time>2026-08-13T06:17:22.000Z</time>
        <extensions>
          <ns3:TrackPointExtension>
            <ns3:hr>86</ns3:hr>
            <ns3:cad>46</ns3:cad>
          </ns3:TrackPointExtension>
        </extensions>
      </trkpt>
      <trkpt lat="43.759499453008174896240234375" lon="1.5686525590717792510986328125">
        <ele>167</ele>
        <time>2026-08-13T06:17:23.000Z</time>
        <extensions>
          <ns3:TrackPointExtension>
            <ns3:hr>86</ns3:hr>
            <ns3:cad>46</ns3:cad>
          </ns3:TrackPointExtension>
        </extensions>
      </trkpt>
      <trkpt lat="43.75948880799114704132080078125" lon="1.56864744611084461212158203125">
        <ele>167</ele>
        <time>2026-08-13T06:17:24.000Z</time>
        <extensions>
          <ns3:TrackPointExtension>
            <ns3:hr>86</ns3:hr>
            <ns3:cad>46</ns3:cad>
          </ns3:TrackPointExtension>
        </extensions>
      </trkpt>
      <trkpt lat="43.75948528759181499481201171875" lon="1.5686374716460704803466796875">
        <ele>167</ele>
        <time>2026-08-13T06:17:25.000Z</time>
        <extensions>
          <ns3:TrackPointExtension>
            <ns3:hr>85</ns3:hr>
            <ns3:cad>46</ns3:cad>
          </ns3:TrackPointExtension>
        </extensions>
      </trkpt>
      <trkpt lat="43.75947958789765834808349609375" lon="1.5686220489442348480224609375">
        <ele>167</ele>
        <time>2026-08-13T06:17:26.000Z</time>
        <extensions>
          <ns3:TrackPointExtension>
            <ns3:hr>84</ns3:hr>
            <ns3:cad>49</ns3:cad>
          </ns3:TrackPointExtension>
        </extensions>
      </trkpt>
      <trkpt lat="43.75947405584156513214111328125" lon="1.56861190684139728546142578125">
        <ele>167</ele>
        <time>2026-08-13T06:17:27.000Z</time>
        <extensions>
          <ns3:TrackPointExtension>
            <ns3:hr>84</ns3:hr>
            <ns3:cad>49</ns3:cad>
          </ns3:TrackPointExtension>
        </extensions>
      </trkpt>
      <trkpt lat="43.7594677694141864776611328125" lon="1.56859648413956165313720703125">
        <ele>167</ele>
        <time>2026-08-13T06:17:28.000Z</time>
        <extensions>
          <ns3:TrackPointExtension>
            <ns3:hr>84</ns3:hr>
            <ns3:cad>49</ns3:cad>
          </ns3:TrackPointExtension>
        </extensions>
      </trkpt>
      <trkpt lat="43.75946098007261753082275390625" lon="1.56858466565608978271484375">
        <ele>167</ele>
        <time>2026-08-13T06:17:29.000Z</time>
        <extensions>
          <ns3:TrackPointExtension>
            <ns3:hr>84</ns3:hr>
            <ns3:cad>49</ns3:cad>
          </ns3:TrackPointExtension>
        </extensions>
      </trkpt>
      <trkpt lat="43.75945695675909519195556640625" lon="1.56857385300099849700927734375">
        <ele>167</ele>
        <time>2026-08-13T06:17:30.000Z</time>
        <extensions>
          <ns3:TrackPointExtension>
            <ns3:hr>84</ns3:hr>
            <ns3:cad>49</ns3:cad>
          </ns3:TrackPointExtension>
        </extensions>
      </trkpt>
      <trkpt lat="43.75945041887462139129638671875" lon="1.56855625100433826446533203125">
        <ele>167</ele>
        <time>2026-08-13T06:17:31.000Z</time>
        <extensions>
          <ns3:TrackPointExtension>
            <ns3:hr>84</ns3:hr>
            <ns3:cad>49</ns3:cad>
          </ns3:TrackPointExtension>
        </extensions>
      </trkpt>
      <trkpt lat="43.75944086350500583648681640625" lon="1.5685435943305492401123046875">
        <ele>167</ele>
        <time>2026-08-13T06:17:32.000Z</time>
        <extensions>
          <ns3:TrackPointExtension>
            <ns3:hr>84</ns3:hr>
            <ns3:cad>50</ns3:cad>
          </ns3:TrackPointExtension>
        </extensions>
      </trkpt>
      <trkpt lat="43.759435079991817474365234375" lon="1.56853244639933109283447265625">
        <ele>167</ele>
        <time>2026-08-13T06:17:33.000Z</time>
        <extensions>
          <ns3:TrackPointExtension>
            <ns3:hr>84</ns3:hr>
            <ns3:cad>49</ns3:cad>
          </ns3:TrackPointExtension>
        </extensions>
      </trkpt>
      <trkpt lat="43.75943348743021488189697265625" lon="1.56851987354457378387451171875">
        <ele>167</ele>
        <time>2026-08-13T06:17:34.000Z</time>
        <extensions>
          <ns3:TrackPointExtension>
            <ns3:hr>84</ns3:hr>
            <ns3:cad>48</ns3:cad>
          </ns3:TrackPointExtension>
        </extensions>
      </trkpt>
      <trkpt lat="43.75942912884056568145751953125" lon="1.56850713305175304412841796875">
        <ele>167</ele>
        <time>2026-08-13T06:17:35.000Z</time>
        <extensions>
          <ns3:TrackPointExtension>
            <ns3:hr>84</ns3:hr>
            <ns3:cad>48</ns3:cad>
          </ns3:TrackPointExtension>
        </extensions>
      </trkpt>
      <trkpt lat="43.75942267477512359619140625" lon="1.5684896148741245269775390625">
        <ele>167</ele>
        <time>2026-08-13T06:17:36.000Z</time>
        <extensions>
          <ns3:TrackPointExtension>
            <ns3:hr>83</ns3:hr>
            <ns3:cad>48</ns3:cad>
          </ns3:TrackPointExtension>
        </extensions>
      </trkpt>
      <trkpt lat="43.75941471196711063385009765625" lon="1.56847662292420864105224609375">
        <ele>167</ele>
        <time>2026-08-13T06:17:37.000Z</time>
        <extensions>
          <ns3:TrackPointExtension>
            <ns3:hr>84</ns3:hr>
            <ns3:cad>48</ns3:cad>
          </ns3:TrackPointExtension>
        </extensions>
      </trkpt>
      <trkpt lat="43.75941102392971515655517578125" lon="1.56846136786043643951416015625">
        <ele>166.8000030517578125</ele>
        <time>2026-08-13T06:17:38.000Z</time>
        <extensions>
          <ns3:TrackPointExtension>
            <ns3:hr>84</ns3:hr>
            <ns3:cad>48</ns3:cad>
          </ns3:TrackPointExtension>
        </extensions>
      </trkpt>
      <trkpt lat="43.7594074197113513946533203125" lon="1.56845164485275745391845703125">
        <ele>166.8000030517578125</ele>
        <time>2026-08-13T06:17:39.000Z</time>
        <extensions>
          <ns3:TrackPointExtension>
            <ns3:hr>84</ns3:hr>
            <ns3:cad>47</ns3:cad>
          </ns3:TrackPointExtension>
        </extensions>
      </trkpt>
      <trkpt lat="43.75940130092203617095947265625" lon="1.56844007782638072967529296875">
        <ele>166.8000030517578125</ele>
        <time>2026-08-13T06:17:40.000Z</time>
        <extensions>
          <ns3:TrackPointExtension>
            <ns3:hr>84</ns3:hr>
            <ns3:cad>46</ns3:cad>
          </ns3:TrackPointExtension>
        </extensions>
      </trkpt>
      <trkpt lat="43.75939392484724521636962890625" lon="1.568424403667449951171875">
        <ele>166.8000030517578125</ele>
        <time>2026-08-13T06:17:41.000Z</time>
        <extensions>
          <ns3:TrackPointExtension>
            <ns3:hr>84</ns3:hr>
            <ns3:cad>45</ns3:cad>
          </ns3:TrackPointExtension>
        </extensions>
      </trkpt>
      <trkpt lat="43.7593873031437397003173828125" lon="1.568413339555263519287109375">
        <ele>166.8000030517578125</ele>
        <time>2026-08-13T06:17:42.000Z</time>
        <extensions>
          <ns3:TrackPointExtension>
            <ns3:hr>84</ns3:hr>
            <ns3:cad>45</ns3:cad>
          </ns3:TrackPointExtension>
        </extensions>
      </trkpt>
      <trkpt lat="43.75938436947762966156005859375" lon="1.56840495765209197998046875">
        <ele>166.8000030517578125</ele>
        <time>2026-08-13T06:17:43.000Z</time>
        <extensions>
          <ns3:TrackPointExtension>
            <ns3:hr>84</ns3:hr>
            <ns3:cad>0</ns3:cad>
          </ns3:TrackPointExtension>
        </extensions>
      </trkpt>
      <trkpt lat="43.7593819387257099151611328125" lon="1.5683933906257152557373046875">
        <ele>166.8000030517578125</ele>
        <time>2026-08-13T06:17:44.000Z</time>
        <extensions>
          <ns3:TrackPointExtension>
            <ns3:hr>83</ns3:hr>
            <ns3:cad>0</ns3:cad>
          </ns3:TrackPointExtension>
        </extensions>
      </trkpt>
      <trkpt lat="43.7593748979270458221435546875" lon="1.5683766268193721771240234375">
        <ele>166.8000030517578125</ele>
        <time>2026-08-13T06:17:45.000Z</time>
        <extensions>
          <ns3:TrackPointExtension>
            <ns3:hr>84</ns3:hr>
            <ns3:cad>51</ns3:cad>
          </ns3:TrackPointExtension>
        </extensions>
      </trkpt>
      <trkpt lat="43.75936567783355712890625" lon="1.5683679096400737762451171875">
        <ele>166.8000030517578125</ele>
        <time>2026-08-13T06:17:46.000Z</time>
        <extensions>
          <ns3:TrackPointExtension>
            <ns3:hr>84</ns3:hr>
            <ns3:cad>51</ns3:cad>
          </ns3:TrackPointExtension>
        </extensions>
      </trkpt>
      <trkpt lat="43.75936098396778106689453125" lon="1.56835734844207763671875">
        <ele>166.8000030517578125</ele>
        <time>2026-08-13T06:17:47.000Z</time>
        <extensions>
          <ns3:TrackPointExtension>
            <ns3:hr>83</ns3:hr>
            <ns3:cad>51</ns3:cad>
          </ns3:TrackPointExtension>
        </extensions>
      </trkpt>
      <trkpt lat="43.759357631206512451171875" lon="1.56834192574024200439453125">
        <ele>167</ele>
        <time>2026-08-13T06:17:48.000Z</time>
        <extensions>
          <ns3:TrackPointExtension>
            <ns3:hr>83</ns3:hr>
            <ns3:cad>48</ns3:cad>
          </ns3:TrackPointExtension>
        </extensions>
      </trkpt>
      <trkpt lat="43.759353943169116973876953125" lon="1.568327508866786956787109375">
        <ele>167.1999969482421875</ele>
        <time>2026-08-13T06:17:49.000Z</time>
        <extensions>
          <ns3:TrackPointExtension>
            <ns3:hr>83</ns3:hr>
            <ns3:cad>48</ns3:cad>
          </ns3:TrackPointExtension>
        </extensions>
      </trkpt>
      <trkpt lat="43.7593440525233745574951171875" lon="1.5683172829449176788330078125">
        <ele>167.399993896484375</ele>
        <time>2026-08-13T06:17:50.000Z</time>
        <extensions>
          <ns3:TrackPointExtension>
            <ns3:hr>83</ns3:hr>
            <ns3:cad>48</ns3:cad>
          </ns3:TrackPointExtension>
        </extensions>
      </trkpt>
      <trkpt lat="43.75934162177145481109619140625" lon="1.568300686776638031005859375">
        <ele>167.399993896484375</ele>
        <time>2026-08-13T06:17:51.000Z</time>
        <extensions>
          <ns3:TrackPointExtension>
            <ns3:hr>83</ns3:hr>
            <ns3:cad>48</ns3:cad>
          </ns3:TrackPointExtension>
        </extensions>
      </trkpt>
      <trkpt lat="43.7593403644859790802001953125" lon="1.56828953884541988372802734375">
        <ele>167.399993896484375</ele>
        <time>2026-08-13T06:17:52.000Z</time>
        <extensions>
          <ns3:TrackPointExtension>
            <ns3:hr>84</ns3:hr>
            <ns3:cad>43</ns3:cad>
          </ns3:TrackPointExtension>
        </extensions>
      </trkpt>
      <trkpt lat="43.759335167706012725830078125" lon="1.5682747028768062591552734375">
        <ele>167.399993896484375</ele>
        <time>2026-08-13T06:17:53.000Z</time>
        <extensions>
          <ns3:TrackPointExtension>
            <ns3:hr>83</ns3:hr>
            <ns3:cad>43</ns3:cad>
          </ns3:TrackPointExtension>
        </extensions>
      </trkpt>
      <trkpt lat="43.75933005474507808685302734375" lon="1.56825869344174861907958984375">
        <ele>167.1999969482421875</ele>
        <time>2026-08-13T06:17:54.000Z</time>
        <extensions>
          <ns3:TrackPointExtension>
            <ns3:hr>83</ns3:hr>
            <ns3:cad>45</ns3:cad>
          </ns3:TrackPointExtension>
        </extensions>
      </trkpt>
      <trkpt lat="43.75932469032704830169677734375" lon="1.5682421810925006866455078125">
        <ele>167.1999969482421875</ele>
        <time>2026-08-13T06:17:55.000Z</time>
        <extensions>
          <ns3:TrackPointExtension>
            <ns3:hr>83</ns3:hr>
            <ns3:cad>45</ns3:cad>
          </ns3:TrackPointExtension>
        </extensions>
      </trkpt>
      <trkpt lat="43.759316392242908477783203125" lon="1.56824310310184955596923828125">
        <ele>167.1999969482421875</ele>
        <time>2026-08-13T06:17:56.000Z</time>
        <extensions>
          <ns3:TrackPointExtension>
            <ns3:hr>83</ns3:hr>
            <ns3:cad>45</ns3:cad>
          </ns3:TrackPointExtension>
        </extensions>
      </trkpt>
      <trkpt lat="43.75931094400584697723388671875" lon="1.56823589466512203216552734375">
        <ele>167</ele>
        <time>2026-08-13T06:17:57.000Z</time>
        <extensions>
          <ns3:TrackPointExtension>
            <ns3:hr>83</ns3:hr>
            <ns3:cad>45</ns3:cad>
          </ns3:TrackPointExtension>
        </extensions>
      </trkpt>
      <trkpt lat="43.75929669477045536041259765625" lon="1.5682192146778106689453125">
        <ele>167</ele>
        <time>2026-08-13T06:17:58.000Z</time>
        <extensions>
          <ns3:TrackPointExtension>
            <ns3:hr>83</ns3:hr>
            <ns3:cad>45</ns3:cad>
          </ns3:TrackPointExtension>
        </extensions>
      </trkpt>
      <trkpt lat="43.7592892348766326904296875" lon="1.56820781528949737548828125">
        <ele>167</ele>
        <time>2026-08-13T06:17:59.000Z</time>
        <extensions>
          <ns3:TrackPointExtension>
            <ns3:hr>83</ns3:hr>
            <ns3:cad>48</ns3:cad>
          </ns3:TrackPointExtension>
        </extensions>
      </trkpt>
      <trkpt lat="43.759284205734729766845703125" lon="1.568204127252101898193359375">
        <ele>167</ele>
        <time>2026-08-13T06:18:00.000Z</time>
        <extensions>
          <ns3:TrackPointExtension>
            <ns3:hr>83</ns3:hr>
            <ns3:cad>48</ns3:cad>
          </ns3:TrackPointExtension>
        </extensions>
      </trkpt>
      <trkpt lat="43.7592806853353977203369140625" lon="1.56819113530218601226806640625">
        <ele>167</ele>
        <time>2026-08-13T06:18:01.000Z</time>
        <extensions>
          <ns3:TrackPointExtension>
            <ns3:hr>83</ns3:hr>
            <ns3:cad>48</ns3:cad>
          </ns3:TrackPointExtension>
        </extensions>
      </trkpt>
      <trkpt lat="43.7592716328799724578857421875" lon="1.56817286275327205657958984375">
        <ele>167</ele>
        <time>2026-08-13T06:18:02.000Z</time>
        <extensions>
          <ns3:TrackPointExtension>
            <ns3:hr>83</ns3:hr>
            <ns3:cad>0</ns3:cad>
          </ns3:TrackPointExtension>
        </extensions>
      </trkpt>
      <trkpt lat="43.7592655979096889495849609375" lon="1.56815928407013416290283203125">
        <ele>167</ele>
        <time>2026-08-13T06:18:03.000Z</time>
        <extensions>
          <ns3:TrackPointExtension>
            <ns3:hr>83</ns3:hr>
            <ns3:cad>0</ns3:cad>
          </ns3:TrackPointExtension>
        </extensions>
      </trkpt>
      <trkpt lat="43.75925964675843715667724609375" lon="1.56814738176763057708740234375">
        <ele>167</ele>
        <time>2026-08-13T06:18:04.000Z</time>
        <extensions>
          <ns3:TrackPointExtension>
            <ns3:hr>83</ns3:hr>
            <ns3:cad>0</ns3:cad>
          </ns3:TrackPointExtension>
        </extensions>
      </trkpt>
      <trkpt lat="43.7592570483684539794921875" lon="1.56813212670385837554931640625">
        <ele>167</ele>
        <time>2026-08-13T06:18:05.000Z</time>
        <extensions>
          <ns3:TrackPointExtension>
            <ns3:hr>84</ns3:hr>
            <ns3:cad>0</ns3:cad>
          </ns3:TrackPointExtension>
        </extensions>
      </trkpt>
      <trkpt lat="43.75925369560718536376953125" lon="1.5681208111345767974853515625">
        <ele>167</ele>
        <time>2026-08-13T06:18:06.000Z</time>
        <extensions>
          <ns3:TrackPointExtension>
            <ns3:hr>84</ns3:hr>
            <ns3:cad>0</ns3:cad>
          </ns3:TrackPointExtension>
        </extensions>
      </trkpt>
      <trkpt lat="43.75924824737012386322021484375" lon="1.56810563988983631134033203125">
        <ele>167</ele>
        <time>2026-08-13T06:18:07.000Z</time>
        <extensions>
          <ns3:TrackPointExtension>
            <ns3:hr>84</ns3:hr>
            <ns3:cad>46</ns3:cad>
          </ns3:TrackPointExtension>
        </extensions>
      </trkpt>
      <trkpt lat="43.75924338586628437042236328125" lon="1.568091809749603271484375">
        <ele>167</ele>
        <time>2026-08-13T06:18:08.000Z</time>
        <extensions>
          <ns3:TrackPointExtension>
            <ns3:hr>84</ns3:hr>
            <ns3:cad>47</ns3:cad>
          </ns3:TrackPointExtension>
        </extensions>
      </trkpt>
      <trkpt lat="43.75923919491469860076904296875" lon="1.56808099709451198577880859375">
        <ele>167</ele>
        <time>2026-08-13T06:18:09.000Z</time>
        <extensions>
          <ns3:TrackPointExtension>
            <ns3:hr>84</ns3:hr>
            <ns3:cad>48</ns3:cad>
          </ns3:TrackPointExtension>
        </extensions>
      </trkpt>
      <trkpt lat="43.75923517160117626190185546875" lon="1.56806808896362781524658203125">
        <ele>167</ele>
        <time>2026-08-13T06:18:10.000Z</time>
        <extensions>
          <ns3:TrackPointExtension>
            <ns3:hr>85</ns3:hr>
            <ns3:cad>48</ns3:cad>
          </ns3:TrackPointExtension>
        </extensions>
      </trkpt>
      <trkpt lat="43.759229891002178192138671875" lon="1.56804914586246013641357421875">
        <ele>167</ele>
        <time>2026-08-13T06:18:11.000Z</time>
        <extensions>
          <ns3:TrackPointExtension>
            <ns3:hr>85</ns3:hr>
            <ns3:cad>48</ns3:cad>
          </ns3:TrackPointExtension>
        </extensions>
      </trkpt>
      <trkpt lat="43.75922620296478271484375" lon="1.56803472898900508880615234375">
        <ele>166.8000030517578125</ele>
        <time>2026-08-13T06:18:12.000Z</time>
        <extensions>
          <ns3:TrackPointExtension>
            <ns3:hr>85</ns3:hr>
            <ns3:cad>48</ns3:cad>
          </ns3:TrackPointExtension>
        </extensions>
      </trkpt>
      <trkpt lat="43.7592277117073535919189453125" lon="1.56802668236196041107177734375">
        <ele>167</ele>
        <time>2026-08-13T06:18:13.000Z</time>
        <extensions>
          <ns3:TrackPointExtension>
            <ns3:hr>85</ns3:hr>
            <ns3:cad>46</ns3:cad>
          </ns3:TrackPointExtension>
        </extensions>
      </trkpt>
      <trkpt lat="43.75922528095543384552001953125" lon="1.568016707897186279296875">
        <ele>166.8000030517578125</ele>
        <time>2026-08-13T06:18:14.000Z</time>
        <extensions>
          <ns3:TrackPointExtension>
            <ns3:hr>85</ns3:hr>
            <ns3:cad>46</ns3:cad>
          </ns3:TrackPointExtension>
        </extensions>
      </trkpt>
      <trkpt lat="43.75922360457479953765869140625" lon="1.56800136901438236236572265625">
        <ele>166.8000030517578125</ele>
        <time>2026-08-13T06:18:15.000Z</time>
        <extensions>
          <ns3:TrackPointExtension>
            <ns3:hr>85</ns3:hr>
            <ns3:cad>47</ns3:cad>
          </ns3:TrackPointExtension>
        </extensions>
      </trkpt>
      <trkpt lat="43.7592273764312267303466796875" lon="1.567978821694850921630859375">
        <ele>166.8000030517578125</ele>
        <time>2026-08-13T06:18:16.000Z</time>
        <extensions>
          <ns3:TrackPointExtension>
            <ns3:hr>85</ns3:hr>
            <ns3:cad>47</ns3:cad>
          </ns3:TrackPointExtension>
        </extensions>
      </trkpt>
      <trkpt lat="43.7592302262783050537109375" lon="1.56796398572623729705810546875">
        <ele>166.8000030517578125</ele>
        <time>2026-08-13T06:18:17.000Z</time>
        <extensions>
          <ns3:TrackPointExtension>
            <ns3:hr>85</ns3:hr>
            <ns3:cad>47</ns3:cad>
          </ns3:TrackPointExtension>
        </extensions>
      </trkpt>
      <trkpt lat="43.75923315994441509246826171875" lon="1.56795359216630458831787109375">
        <ele>166.8000030517578125</ele>
        <time>2026-08-13T06:18:18.000Z</time>
        <extensions>
          <ns3:TrackPointExtension>
            <ns3:hr>86</ns3:hr>
            <ns3:cad>47</ns3:cad>
          </ns3:TrackPointExtension>
        </extensions>
      </trkpt>
      <trkpt lat="43.7592324055731296539306640625" lon="1.56794051639735698699951171875">
        <ele>166.8000030517578125</ele>
        <time>2026-08-13T06:18:19.000Z</time>
        <extensions>
          <ns3:TrackPointExtension>
            <ns3:hr>85</ns3:hr>
            <ns3:cad>47</ns3:cad>
          </ns3:TrackPointExtension>
        </extensions>
      </trkpt>
      <trkpt lat="43.7592337466776371002197265625" lon="1.5679199807345867156982421875">
        <ele>166.8000030517578125</ele>
        <time>2026-08-13T06:18:20.000Z</time>
        <extensions>
          <ns3:TrackPointExtension>
            <ns3:hr>86</ns3:hr>
            <ns3:cad>47</ns3:cad>
          </ns3:TrackPointExtension>
        </extensions>
      </trkpt>
      <trkpt lat="43.759234249591827392578125" lon="1.567903049290180206298828125">
        <ele>167</ele>
        <time>2026-08-13T06:18:21.000Z</time>
        <extensions>
          <ns3:TrackPointExtension>
            <ns3:hr>86</ns3:hr>
            <ns3:cad>47</ns3:cad>
          </ns3:TrackPointExtension>
        </extensions>
      </trkpt>
      <trkpt lat="43.7592357583343982696533203125" lon="1.56789156608283519744873046875">
        <ele>167</ele>
        <time>2026-08-13T06:18:22.000Z</time>
        <extensions>
          <ns3:TrackPointExtension>
            <ns3:hr>86</ns3:hr>
            <ns3:cad>48</ns3:cad>
          </ns3:TrackPointExtension>
        </extensions>
      </trkpt>
      <trkpt lat="43.7592394463717937469482421875" lon="1.56788385473191738128662109375">
        <ele>167</ele>
        <time>2026-08-13T06:18:23.000Z</time>
        <extensions>
          <ns3:TrackPointExtension>
            <ns3:hr>86</ns3:hr>
            <ns3:cad>48</ns3:cad>
          </ns3:TrackPointExtension>
        </extensions>
      </trkpt>
      <trkpt lat="43.7592515163123607635498046875" lon="1.56786373816430568695068359375">
        <ele>167</ele>
        <time>2026-08-13T06:18:24.000Z</time>
        <extensions>
          <ns3:TrackPointExtension>
            <ns3:hr>86</ns3:hr>
            <ns3:cad>47</ns3:cad>
          </ns3:TrackPointExtension>
        </extensions>
      </trkpt>
      <trkpt lat="43.7592541985213756561279296875" lon="1.5678502433001995086669921875">
        <ele>167</ele>
        <time>2026-08-13T06:18:25.000Z</time>
        <extensions>
          <ns3:TrackPointExtension>
            <ns3:hr>85</ns3:hr>
            <ns3:cad>47</ns3:cad>
          </ns3:TrackPointExtension>
        </extensions>
      </trkpt>
      <trkpt lat="43.75925931148231029510498046875" lon="1.5678351558744907379150390625">
        <ele>167</ele>
        <time>2026-08-13T06:18:26.000Z</time>
        <extensions>
          <ns3:TrackPointExtension>
            <ns3:hr>86</ns3:hr>
            <ns3:cad>46</ns3:cad>
          </ns3:TrackPointExtension>
        </extensions>
      </trkpt>
      <trkpt lat="43.759260065853595733642578125" lon="1.5678276121616363525390625">
        <ele>167.1999969482421875</ele>
        <time>2026-08-13T06:18:27.000Z</time>
        <extensions>
          <ns3:TrackPointExtension>
            <ns3:hr>85</ns3:hr>
            <ns3:cad>46</ns3:cad>
          </ns3:TrackPointExtension>
        </extensions>
      </trkpt>
      <trkpt lat="43.75926584936678409576416015625" lon="1.56781763769686222076416015625">
        <ele>167.1999969482421875</ele>
        <time>2026-08-13T06:18:28.000Z</time>
        <extensions>
          <ns3:TrackPointExtension>
            <ns3:hr>85</ns3:hr>
            <ns3:cad>46</ns3:cad>
          </ns3:TrackPointExtension>
        </extensions>
      </trkpt>
      <trkpt lat="43.7592719681560993194580078125" lon="1.56779752112925052642822265625">
        <ele>167.1999969482421875</ele>
        <time>2026-08-13T06:18:29.000Z</time>
        <extensions>
          <ns3:TrackPointExtension>
            <ns3:hr>85</ns3:hr>
            <ns3:cad>46</ns3:cad>
          </ns3:TrackPointExtension>
        </extensions>
      </trkpt>
      <trkpt lat="43.75927724875509738922119140625" lon="1.56778209842741489410400390625">
        <ele>167.1999969482421875</ele>
        <time>2026-08-13T06:18:30.000Z</time>
        <extensions>
          <ns3:TrackPointExtension>
            <ns3:hr>85</ns3:hr>
            <ns3:cad>46</ns3:cad>
          </ns3:TrackPointExtension>
        </extensions>
      </trkpt>
      <trkpt lat="43.75927917659282684326171875" lon="1.56777304597198963165283203125">
        <ele>167</ele>
        <time>2026-08-13T06:18:31.000Z</time>
        <extensions>
          <ns3:TrackPointExtension>
            <ns3:hr>85</ns3:hr>
            <ns3:cad>0</ns3:cad>
          </ns3:TrackPointExtension>
        </extensions>
      </trkpt>
      <trkpt lat="43.75928127206861972808837890625" lon="1.567763574421405792236328125">
        <ele>167</ele>
        <time>2026-08-13T06:18:32.000Z</time>
        <extensions>
          <ns3:TrackPointExtension>
            <ns3:hr>85</ns3:hr>
            <ns3:cad>0</ns3:cad>
          </ns3:TrackPointExtension>
        </extensions>
      </trkpt>
      <trkpt lat="43.759292252361774444580078125" lon="1.56774639151990413665771484375">
        <ele>167</ele>
        <time>2026-08-13T06:18:33.000Z</time>
        <extensions>
          <ns3:TrackPointExtension>
            <ns3:hr>85</ns3:hr>
            <ns3:cad>0</ns3:cad>
          </ns3:TrackPointExtension>
        </extensions>
      </trkpt>
      <trkpt lat="43.75930088572204113006591796875" lon="1.56773683615028858184814453125">
        <ele>167</ele>
        <time>2026-08-13T06:18:34.000Z</time>
        <extensions>
          <ns3:TrackPointExtension>
            <ns3:hr>85</ns3:hr>
            <ns3:cad>0</ns3:cad>
          </ns3:TrackPointExtension>
        </extensions>
      </trkpt>
      <trkpt lat="43.75931027345359325408935546875" lon="1.56773465685546398162841796875">
        <ele>167</ele>
        <time>2026-08-13T06:18:35.000Z</time>
        <extensions>
          <ns3:TrackPointExtension>
            <ns3:hr>85</ns3:hr>
            <ns3:cad>44</ns3:cad>
          </ns3:TrackPointExtension>
        </extensions>
      </trkpt>
      <trkpt lat="43.7593187391757965087890625" lon="1.5677285380661487579345703125">
        <ele>167</ele>
        <time>2026-08-13T06:18:36.000Z</time>
        <extensions>
          <ns3:TrackPointExtension>
            <ns3:hr>85</ns3:hr>
            <ns3:cad>44</ns3:cad>
          </ns3:TrackPointExtension>
        </extensions>
      </trkpt>
      <trkpt lat="43.7593246065080165863037109375" lon="1.56771873123943805694580078125">
        <ele>167</ele>
        <time>2026-08-13T06:18:37.000Z</time>
        <extensions>
          <ns3:TrackPointExtension>
            <ns3:hr>85</ns3:hr>
            <ns3:cad>46</ns3:cad>
          </ns3:TrackPointExtension>
        </extensions>
      </trkpt>
      <trkpt lat="43.759335838258266448974609375" lon="1.56770749948918819427490234375">
        <ele>167</ele>
        <time>2026-08-13T06:18:38.000Z</time>
        <extensions>
          <ns3:TrackPointExtension>
            <ns3:hr>85</ns3:hr>
            <ns3:cad>46</ns3:cad>
          </ns3:TrackPointExtension>
        </extensions>
      </trkpt>
      <trkpt lat="43.75934614799916744232177734375" lon="1.56770012341439723968505859375">
        <ele>167</ele>
        <time>2026-08-13T06:18:39.000Z</time>
        <extensions>
          <ns3:TrackPointExtension>
            <ns3:hr>85</ns3:hr>
            <ns3:cad>46</ns3:cad>
          </ns3:TrackPointExtension>
        </extensions>
      </trkpt>
      <trkpt lat="43.7593524344265460968017578125" lon="1.5676966868340969085693359375">
        <ele>167</ele>
        <time>2026-08-13T06:18:40.000Z</time>
        <extensions>
          <ns3:TrackPointExtension>
            <ns3:hr>85</ns3:hr>
            <ns3:cad>47</ns3:cad>
          </ns3:TrackPointExtension>
        </extensions>
      </trkpt>
      <trkpt lat="43.75935964286327362060546875" lon="1.56769040040671825408935546875">
        <ele>167</ele>
        <time>2026-08-13T06:18:41.000Z</time>
        <extensions>
          <ns3:TrackPointExtension>
            <ns3:hr>84</ns3:hr>
            <ns3:cad>47</ns3:cad>
          </ns3:TrackPointExtension>
        </extensions>
      </trkpt>
      <trkpt lat="43.75937447883188724517822265625" lon="1.56768101267516613006591796875">
        <ele>167</ele>
        <time>2026-08-13T06:18:42.000Z</time>
        <extensions>
          <ns3:TrackPointExtension>
            <ns3:hr>85</ns3:hr>
            <ns3:cad>47</ns3:cad>
          </ns3:TrackPointExtension>
        </extensions>
      </trkpt>
      <trkpt lat="43.759379424154758453369140625" lon="1.56768386252224445343017578125">
        <ele>167</ele>
        <time>2026-08-13T06:18:43.000Z</time>
        <extensions>
          <ns3:TrackPointExtension>
            <ns3:hr>85</ns3:hr>
            <ns3:cad>46</ns3:cad>
          </ns3:TrackPointExtension>
        </extensions>
      </trkpt>
      <trkpt lat="43.75938604585826396942138671875" lon="1.567673385143280029296875">
        <ele>167</ele>
        <time>2026-08-13T06:18:44.000Z</time>
        <extensions>
          <ns3:TrackPointExtension>
            <ns3:hr>85</ns3:hr>
            <ns3:cad>46</ns3:cad>
          </ns3:TrackPointExtension>
        </extensions>
      </trkpt>
      <trkpt lat="43.75938990153372287750244140625" lon="1.5676728822290897369384765625">
        <ele>167</ele>
        <time>2026-08-13T06:18:45.000Z</time>
        <extensions>
          <ns3:TrackPointExtension>
            <ns3:hr>86</ns3:hr>
            <ns3:cad>46</ns3:cad>
          </ns3:TrackPointExtension>
        </extensions>
      </trkpt>
      <trkpt lat="43.759400881826877593994140625" lon="1.56766558997333049774169921875">
        <ele>167</ele>
        <time>2026-08-13T06:18:46.000Z</time>
        <extensions>
          <ns3:TrackPointExtension>
            <ns3:hr>87</ns3:hr>
            <ns3:cad>46</ns3:cad>
          </ns3:TrackPointExtension>
        </extensions>
      </trkpt>
      <trkpt lat="43.7594074197113513946533203125" lon="1.56766089610755443572998046875">
        <ele>167</ele>
        <time>2026-08-13T06:18:47.000Z</time>
        <extensions>
          <ns3:TrackPointExtension>
            <ns3:hr>87</ns3:hr>
            <ns3:cad>46</ns3:cad>
          </ns3:TrackPointExtension>
        </extensions>
      </trkpt>
      <trkpt lat="43.7594124488532543182373046875" lon="1.56766508705914020538330078125">
        <ele>167</ele>
        <time>2026-08-13T06:18:48.000Z</time>
        <extensions>
          <ns3:TrackPointExtension>
            <ns3:hr>87</ns3:hr>
            <ns3:cad>47</ns3:cad>
          </ns3:TrackPointExtension>
        </extensions>
      </trkpt>
      <trkpt lat="43.7594241835176944732666015625" lon="1.567665673792362213134765625">
        <ele>167</ele>
        <time>2026-08-13T06:18:49.000Z</time>
        <extensions>
          <ns3:TrackPointExtension>
            <ns3:hr>87</ns3:hr>
            <ns3:cad>47</ns3:cad>
          </ns3:TrackPointExtension>
        </extensions>
      </trkpt>
      <trkpt lat="43.7594362534582614898681640625" lon="1.56766072846949100494384765625">
        <ele>167</ele>
        <time>2026-08-13T06:18:50.000Z</time>
        <extensions>
          <ns3:TrackPointExtension>
            <ns3:hr>87</ns3:hr>
            <ns3:cad>47</ns3:cad>
          </ns3:TrackPointExtension>
        </extensions>
      </trkpt>
      <trkpt lat="43.7594459764659404754638671875" lon="1.567657291889190673828125">
        <ele>167</ele>
        <time>2026-08-13T06:18:51.000Z</time>
        <extensions>
          <ns3:TrackPointExtension>
            <ns3:hr>87</ns3:hr>
            <ns3:cad>47</ns3:cad>
          </ns3:TrackPointExtension>
        </extensions>
      </trkpt>
      <trkpt lat="43.75945544801652431488037109375" lon="1.567658968269824981689453125">
        <ele>167</ele>
        <time>2026-08-13T06:18:52.000Z</time>
        <extensions>
          <ns3:TrackPointExtension>
            <ns3:hr>87</ns3:hr>
            <ns3:cad>47</ns3:cad>
          </ns3:TrackPointExtension>
        </extensions>
      </trkpt>
      <trkpt lat="43.75945913605391979217529296875" lon="1.56765460968017578125">
        <ele>167</ele>
        <time>2026-08-13T06:18:53.000Z</time>
        <extensions>
          <ns3:TrackPointExtension>
            <ns3:hr>87</ns3:hr>
            <ns3:cad>47</ns3:cad>
          </ns3:TrackPointExtension>
        </extensions>
      </trkpt>
      <trkpt lat="43.75947187654674053192138671875" lon="1.56764765270054340362548828125">
        <ele>167</ele>
        <time>2026-08-13T06:18:54.000Z</time>
        <extensions>
          <ns3:TrackPointExtension>
            <ns3:hr>86</ns3:hr>
            <ns3:cad>47</ns3:cad>
          </ns3:TrackPointExtension>
        </extensions>
      </trkpt>
      <trkpt lat="43.75948327593505382537841796875" lon="1.5676398575305938720703125">
        <ele>167</ele>
        <time>2026-08-13T06:18:55.000Z</time>
        <extensions>
          <ns3:TrackPointExtension>
            <ns3:hr>87</ns3:hr>
            <ns3:cad>47</ns3:cad>
          </ns3:TrackPointExtension>
        </extensions>
      </trkpt>
      <trkpt lat="43.75949241220951080322265625" lon="1.5676346607506275177001953125">
        <ele>167</ele>
        <time>2026-08-13T06:18:56.000Z</time>
        <extensions>
          <ns3:TrackPointExtension>
            <ns3:hr>87</ns3:hr>
            <ns3:cad>46</ns3:cad>
          </ns3:TrackPointExtension>
        </extensions>
      </trkpt>
      <trkpt lat="43.7595029734075069427490234375" lon="1.5676329843699932098388671875">
        <ele>167</ele>
        <time>2026-08-13T06:18:57.000Z</time>
        <extensions>
          <ns3:TrackPointExtension>
            <ns3:hr>87</ns3:hr>
            <ns3:cad>46</ns3:cad>
          </ns3:TrackPointExtension>
        </extensions>
      </trkpt>
      <trkpt lat="43.75951110385358333587646484375" lon="1.5676269493997097015380859375">
        <ele>167</ele>
        <time>2026-08-13T06:18:58.000Z</time>
        <extensions>
          <ns3:TrackPointExtension>
            <ns3:hr>86</ns3:hr>
            <ns3:cad>47</ns3:cad>
          </ns3:TrackPointExtension>
        </extensions>
      </trkpt>
      <trkpt lat="43.75952065922319889068603515625" lon="1.5676148794591426849365234375">
        <ele>166.8000030517578125</ele>
        <time>2026-08-13T06:18:59.000Z</time>
        <extensions>
          <ns3:TrackPointExtension>
            <ns3:hr>86</ns3:hr>
            <ns3:cad>47</ns3:cad>
          </ns3:TrackPointExtension>
        </extensions>
      </trkpt>
      <trkpt lat="43.7595287896692752838134765625" lon="1.56760624609887599945068359375">
        <ele>166.8000030517578125</ele>
        <time>2026-08-13T06:19:00.000Z</time>
        <extensions>
          <ns3:TrackPointExtension>
            <ns3:hr>86</ns3:hr>
            <ns3:cad>47</ns3:cad>
          </ns3:TrackPointExtension>
        </extensions>
      </trkpt>
      <trkpt lat="43.75953960232436656951904296875" lon="1.56760004349052906036376953125">
        <ele>166.8000030517578125</ele>
        <time>2026-08-13T06:19:01.000Z</time>
        <extensions>
          <ns3:TrackPointExtension>
            <ns3:hr>85</ns3:hr>
            <ns3:cad>47</ns3:cad>
          </ns3:TrackPointExtension>
        </extensions>
      </trkpt>
      <trkpt lat="43.75954446382820606231689453125" lon="1.5676024742424488067626953125">
        <ele>166.8000030517578125</ele>
        <time>2026-08-13T06:19:02.000Z</time>
        <extensions>
          <ns3:TrackPointExtension>
            <ns3:hr>84</ns3:hr>
            <ns3:cad>47</ns3:cad>
          </ns3:TrackPointExtension>
        </extensions>
      </trkpt>
      <trkpt lat="43.7595576234161853790283203125" lon="1.56759719364345073699951171875">
        <ele>166.8000030517578125</ele>
        <time>2026-08-13T06:19:03.000Z</time>
        <extensions>
          <ns3:TrackPointExtension>
            <ns3:hr>84</ns3:hr>
            <ns3:cad>48</ns3:cad>
          </ns3:TrackPointExtension>
        </extensions>
      </trkpt>
      <trkpt lat="43.759571202099323272705078125" lon="1.56758663244545459747314453125">
        <ele>166.8000030517578125</ele>
        <time>2026-08-13T06:19:04.000Z</time>
        <extensions>
          <ns3:TrackPointExtension>
            <ns3:hr>83</ns3:hr>
            <ns3:cad>48</ns3:cad>
          </ns3:TrackPointExtension>
        </extensions>
      </trkpt>
      <trkpt lat="43.75958184711635112762451171875" lon="1.5675753168761730194091796875">
        <ele>166.8000030517578125</ele>
        <time>2026-08-13T06:19:05.000Z</time>
        <extensions>
          <ns3:TrackPointExtension>
            <ns3:hr>83</ns3:hr>
            <ns3:cad>47</ns3:cad>
          </ns3:TrackPointExtension>
        </extensions>
      </trkpt>
      <trkpt lat="43.75959073193371295928955078125" lon="1.567570455372333526611328125">
        <ele>166.600006103515625</ele>
        <time>2026-08-13T06:19:06.000Z</time>
        <extensions>
          <ns3:TrackPointExtension>
            <ns3:hr>83</ns3:hr>
            <ns3:cad>47</ns3:cad>
          </ns3:TrackPointExtension>
        </extensions>
      </trkpt>
      <trkpt lat="43.75959701836109161376953125" lon="1.56757238321006298065185546875">
        <ele>166.600006103515625</ele>
        <time>2026-08-13T06:19:07.000Z</time>
        <extensions>
          <ns3:TrackPointExtension>
            <ns3:hr>83</ns3:hr>
            <ns3:cad>46</ns3:cad>
          </ns3:TrackPointExtension>
        </extensions>
      </trkpt>
      <trkpt lat="43.75961051322519779205322265625" lon="1.5675669349730014801025390625">
        <ele>166.600006103515625</ele>
        <time>2026-08-13T06:19:08.000Z</time>
        <extensions>
          <ns3:TrackPointExtension>
            <ns3:hr>83</ns3:hr>
            <ns3:cad>46</ns3:cad>
          </ns3:TrackPointExtension>
        </extensions>
      </trkpt>
      <trkpt lat="43.75962090678513050079345703125" lon="1.56755662523210048675537109375">
        <ele>166.600006103515625</ele>
        <time>2026-08-13T06:19:09.000Z</time>
        <extensions>
          <ns3:TrackPointExtension>
            <ns3:hr>84</ns3:hr>
            <ns3:cad>46</ns3:cad>
          </ns3:TrackPointExtension>
        </extensions>
      </trkpt>
      <trkpt lat="43.75962878577411174774169921875" lon="1.567555032670497894287109375">
        <ele>166.600006103515625</ele>
        <time>2026-08-13T06:19:10.000Z</time>
        <extensions>
          <ns3:TrackPointExtension>
            <ns3:hr>83</ns3:hr>
            <ns3:cad>47</ns3:cad>
          </ns3:TrackPointExtension>
        </extensions>
      </trkpt>
      <trkpt lat="43.7596350722014904022216796875" lon="1.56755310483276844024658203125">
        <ele>166.600006103515625</ele>
        <time>2026-08-13T06:19:11.000Z</time>
        <extensions>
          <ns3:TrackPointExtension>
            <ns3:hr>83</ns3:hr>
            <ns3:cad>47</ns3:cad>
          </ns3:TrackPointExtension>
        </extensions>
      </trkpt>
      <trkpt lat="43.75964370556175708770751953125" lon="1.5675495006144046783447265625">
        <ele>166.600006103515625</ele>
        <time>2026-08-13T06:19:12.000Z</time>
        <extensions>
          <ns3:TrackPointExtension>
            <ns3:hr>84</ns3:hr>
            <ns3:cad>48</ns3:cad>
          </ns3:TrackPointExtension>
        </extensions>
      </trkpt>
      <trkpt lat="43.7596568651497364044189453125" lon="1.56754262745380401611328125">
        <ele>166.399993896484375</ele>
        <time>2026-08-13T06:19:13.000Z</time>
        <extensions>
          <ns3:TrackPointExtension>
            <ns3:hr>83</ns3:hr>
            <ns3:cad>48</ns3:cad>
          </ns3:TrackPointExtension>
        </extensions>
      </trkpt>
      <trkpt lat="43.75966868363320827484130859375" lon="1.56754187308251857757568359375">
        <ele>166.399993896484375</ele>
        <time>2026-08-13T06:19:14.000Z</time>
        <extensions>
          <ns3:TrackPointExtension>
            <ns3:hr>83</ns3:hr>
            <ns3:cad>47</ns3:cad>
          </ns3:TrackPointExtension>
        </extensions>
      </trkpt>
      <trkpt lat="43.75967740081250667572021484375" lon="1.5675411187112331390380859375">
        <ele>166.399993896484375</ele>
        <time>2026-08-13T06:19:15.000Z</time>
        <extensions>
          <ns3:TrackPointExtension>
            <ns3:hr>83</ns3:hr>
            <ns3:cad>47</ns3:cad>
          </ns3:TrackPointExtension>
        </extensions>
      </trkpt>
      <trkpt lat="43.759689889848232269287109375" lon="1.567539609968662261962890625">
        <ele>166.399993896484375</ele>
        <time>2026-08-13T06:19:16.000Z</time>
        <extensions>
          <ns3:TrackPointExtension>
            <ns3:hr>83</ns3:hr>
            <ns3:cad>46</ns3:cad>
          </ns3:TrackPointExtension>
        </extensions>
      </trkpt>
      <trkpt lat="43.75969919376075267791748046875" lon="1.5675310604274272918701171875">
        <ele>166.399993896484375</ele>
        <time>2026-08-13T06:19:17.000Z</time>
        <extensions>
          <ns3:TrackPointExtension>
            <ns3:hr>82</ns3:hr>
            <ns3:cad>46</ns3:cad>
          </ns3:TrackPointExtension>
        </extensions>
      </trkpt>
      <trkpt lat="43.759706318378448486328125" lon="1.56752242706716060638427734375">
        <ele>166.399993896484375</ele>
        <time>2026-08-13T06:19:18.000Z</time>
        <extensions>
          <ns3:TrackPointExtension>
            <ns3:hr>82</ns3:hr>
            <ns3:cad>46</ns3:cad>
          </ns3:TrackPointExtension>
        </extensions>
      </trkpt>
      <trkpt lat="43.759717382490634918212890625" lon="1.5675166435539722442626953125">
        <ele>166.399993896484375</ele>
        <time>2026-08-13T06:19:19.000Z</time>
        <extensions>
          <ns3:TrackPointExtension>
            <ns3:hr>81</ns3:hr>
            <ns3:cad>46</ns3:cad>
          </ns3:TrackPointExtension>
        </extensions>
      </trkpt>
      <trkpt lat="43.75972467474639415740966796875" lon="1.56751505099236965179443359375">
        <ele>166.399993896484375</ele>
        <time>2026-08-13T06:19:20.000Z</time>
        <extensions>
          <ns3:TrackPointExtension>
            <ns3:hr>81</ns3:hr>
            <ns3:cad>44</ns3:cad>
          </ns3:TrackPointExtension>
        </extensions>
      </trkpt>
      <trkpt lat="43.75973959453403949737548828125" lon="1.5675132907927036285400390625">
        <ele>166.399993896484375</ele>
        <time>2026-08-13T06:19:21.000Z</time>
        <extensions>
          <ns3:TrackPointExtension>
            <ns3:hr>81</ns3:hr>
            <ns3:cad>44</ns3:cad>
          </ns3:TrackPointExtension>
        </extensions>
      </trkpt>
      <trkpt lat="43.75974998809397220611572265625" lon="1.56751086004078388214111328125">
        <ele>166.399993896484375</ele>
        <time>2026-08-13T06:19:22.000Z</time>
        <extensions>
          <ns3:TrackPointExtension>
            <ns3:hr>81</ns3:hr>
            <ns3:cad>44</ns3:cad>
          </ns3:TrackPointExtension>
        </extensions>
      </trkpt>
      <trkpt lat="43.7597557716071605682373046875" lon="1.5675065852701663970947265625">
        <ele>166.1999969482421875</ele>
        <time>2026-08-13T06:19:23.000Z</time>
        <extensions>
          <ns3:TrackPointExtension>
            <ns3:hr>81</ns3:hr>
            <ns3:cad>44</ns3:cad>
          </ns3:TrackPointExtension>
        </extensions>
      </trkpt>
      <trkpt lat="43.759759627282619476318359375" lon="1.56750214286148548126220703125">
        <ele>166.1999969482421875</ele>
        <time>2026-08-13T06:19:24.000Z</time>
        <extensions>
          <ns3:TrackPointExtension>
            <ns3:hr>81</ns3:hr>
            <ns3:cad>44</ns3:cad>
          </ns3:TrackPointExtension>
        </extensions>
      </trkpt>
      <trkpt lat="43.75976993702352046966552734375" lon="1.56749493442475795745849609375">
        <ele>166.1999969482421875</ele>
        <time>2026-08-13T06:19:25.000Z</time>
        <extensions>
          <ns3:TrackPointExtension>
            <ns3:hr>81</ns3:hr>
            <ns3:cad>44</ns3:cad>
          </ns3:TrackPointExtension>
        </extensions>
      </trkpt>
      <trkpt lat="43.75977831892669200897216796875" lon="1.56748764216899871826171875">
        <ele>166.1999969482421875</ele>
        <time>2026-08-13T06:19:26.000Z</time>
        <extensions>
          <ns3:TrackPointExtension>
            <ns3:hr>80</ns3:hr>
            <ns3:cad>44</ns3:cad>
          </ns3:TrackPointExtension>
        </extensions>
      </trkpt>
      <trkpt lat="43.75978586263954639434814453125" lon="1.56748370267450809478759765625">
        <ele>166.1999969482421875</ele>
        <time>2026-08-13T06:19:27.000Z</time>
        <extensions>
          <ns3:TrackPointExtension>
            <ns3:hr>80</ns3:hr>
            <ns3:cad>44</ns3:cad>
          </ns3:TrackPointExtension>
        </extensions>
      </trkpt>
      <trkpt lat="43.759792149066925048828125" lon="1.56748294830322265625">
        <ele>166.1999969482421875</ele>
        <time>2026-08-13T06:19:28.000Z</time>
        <extensions>
          <ns3:TrackPointExtension>
            <ns3:hr>80</ns3:hr>
            <ns3:cad>45</ns3:cad>
          </ns3:TrackPointExtension>
        </extensions>
      </trkpt>
      <trkpt lat="43.7598006986081600189208984375" lon="1.5674762427806854248046875">
        <ele>166.1999969482421875</ele>
        <time>2026-08-13T06:19:29.000Z</time>
        <extensions>
          <ns3:TrackPointExtension>
            <ns3:hr>80</ns3:hr>
            <ns3:cad>46</ns3:cad>
          </ns3:TrackPointExtension>
        </extensions>
      </trkpt>
      <trkpt lat="43.75981151126325130462646484375" lon="1.56746425665915012359619140625">
        <ele>166.1999969482421875</ele>
        <time>2026-08-13T06:19:30.000Z</time>
        <extensions>
          <ns3:TrackPointExtension>
            <ns3:hr>80</ns3:hr>
            <ns3:cad>46</ns3:cad>
          </ns3:TrackPointExtension>
        </extensions>
      </trkpt>
      <trkpt lat="43.7598198093473911285400390625" lon="1.56746023334562778472900390625">
        <ele>166.1999969482421875</ele>
        <time>2026-08-13T06:19:31.000Z</time>
        <extensions>
          <ns3:TrackPointExtension>
            <ns3:hr>79</ns3:hr>
            <ns3:cad>47</ns3:cad>
          </ns3:TrackPointExtension>
        </extensions>
      </trkpt>
      <trkpt lat="43.75982525758445262908935546875" lon="1.56745671294629573822021484375">
        <ele>166.1999969482421875</ele>
        <time>2026-08-13T06:19:32.000Z</time>
        <extensions>
          <ns3:TrackPointExtension>
            <ns3:hr>79</ns3:hr>
            <ns3:cad>47</ns3:cad>
          </ns3:TrackPointExtension>
        </extensions>
      </trkpt>
      <trkpt lat="43.7598372437059879302978515625" lon="1.56745118089020252227783203125">
        <ele>166.1999969482421875</ele>
        <time>2026-08-13T06:19:33.000Z</time>
        <extensions>
          <ns3:TrackPointExtension>
            <ns3:hr>79</ns3:hr>
            <ns3:cad>47</ns3:cad>
          </ns3:TrackPointExtension>
        </extensions>
      </trkpt>
      <trkpt lat="43.759846799075603485107421875" lon="1.56744497828185558319091796875">
        <ele>166.1999969482421875</ele>
        <time>2026-08-13T06:19:34.000Z</time>
        <extensions>
          <ns3:TrackPointExtension>
            <ns3:hr>79</ns3:hr>
            <ns3:cad>46</ns3:cad>
          </ns3:TrackPointExtension>
        </extensions>
      </trkpt>
      <trkpt lat="43.7598566897213459014892578125" lon="1.56743961386382579803466796875">
        <ele>166.1999969482421875</ele>
        <time>2026-08-13T06:19:35.000Z</time>
        <extensions>
          <ns3:TrackPointExtension>
            <ns3:hr>79</ns3:hr>
            <ns3:cad>45</ns3:cad>
          </ns3:TrackPointExtension>
        </extensions>
      </trkpt>
      <trkpt lat="43.75986247323453426361083984375" lon="1.5674355067312717437744140625">
        <ele>166.1999969482421875</ele>
        <time>2026-08-13T06:19:36.000Z</time>
        <extensions>
          <ns3:TrackPointExtension>
            <ns3:hr>80</ns3:hr>
            <ns3:cad>45</ns3:cad>
          </ns3:TrackPointExtension>
        </extensions>
      </trkpt>
      <trkpt lat="43.75986917875707149505615234375" lon="1.5674308128654956817626953125">
        <ele>166.1999969482421875</ele>
        <time>2026-08-13T06:19:37.000Z</time>
        <extensions>
          <ns3:TrackPointExtension>
            <ns3:hr>80</ns3:hr>
            <ns3:cad>45</ns3:cad>
          </ns3:TrackPointExtension>
        </extensions>
      </trkpt>
      <trkpt lat="43.75987739302217960357666015625" lon="1.5674237720668315887451171875">
        <ele>166.1999969482421875</ele>
        <time>2026-08-13T06:19:38.000Z</time>
        <extensions>
          <ns3:TrackPointExtension>
            <ns3:hr>80</ns3:hr>
            <ns3:cad>45</ns3:cad>
          </ns3:TrackPointExtension>
        </extensions>
      </trkpt>
      <trkpt lat="43.75988577492535114288330078125" lon="1.567415893077850341796875">
        <ele>166.1999969482421875</ele>
        <time>2026-08-13T06:19:39.000Z</time>
        <extensions>
          <ns3:TrackPointExtension>
            <ns3:hr>80</ns3:hr>
            <ns3:cad>47</ns3:cad>
          </ns3:TrackPointExtension>
        </extensions>
      </trkpt>
      <trkpt lat="43.7598935700953006744384765625" lon="1.56740851700305938720703125">
        <ele>166.1999969482421875</ele>
        <time>2026-08-13T06:19:40.000Z</time>
        <extensions>
          <ns3:TrackPointExtension>
            <ns3:hr>80</ns3:hr>
            <ns3:cad>47</ns3:cad>
          </ns3:TrackPointExtension>
        </extensions>
      </trkpt>
      <trkpt lat="43.75989985652267932891845703125" lon="1.56740206293761730194091796875">
        <ele>166.1999969482421875</ele>
        <time>2026-08-13T06:19:41.000Z</time>
        <extensions>
          <ns3:TrackPointExtension>
            <ns3:hr>80</ns3:hr>
            <ns3:cad>47</ns3:cad>
          </ns3:TrackPointExtension>
        </extensions>
      </trkpt>
      <trkpt lat="43.7599086575210094451904296875" lon="1.56739016063511371612548828125">
        <ele>166.1999969482421875</ele>
        <time>2026-08-13T06:19:42.000Z</time>
        <extensions>
          <ns3:TrackPointExtension>
            <ns3:hr>81</ns3:hr>
            <ns3:cad>47</ns3:cad>
          </ns3:TrackPointExtension>
        </extensions>
      </trkpt>
      <trkpt lat="43.75991930253803730010986328125" lon="1.567378342151641845703125">
        <ele>166</ele>
        <time>2026-08-13T06:19:43.000Z</time>
        <extensions>
          <ns3:TrackPointExtension>
            <ns3:hr>80</ns3:hr>
            <ns3:cad>46</ns3:cad>
          </ns3:TrackPointExtension>
        </extensions>
      </trkpt>
      <trkpt lat="43.759929277002811431884765625" lon="1.56737029552459716796875">
        <ele>166</ele>
        <time>2026-08-13T06:19:44.000Z</time>
        <extensions>
          <ns3:TrackPointExtension>
            <ns3:hr>80</ns3:hr>
            <ns3:cad>46</ns3:cad>
          </ns3:TrackPointExtension>
        </extensions>
      </trkpt>
      <trkpt lat="43.7599383294582366943359375" lon="1.5673617459833621978759765625">
        <ele>166.1999969482421875</ele>
        <time>2026-08-13T06:19:45.000Z</time>
        <extensions>
          <ns3:TrackPointExtension>
            <ns3:hr>80</ns3:hr>
            <ns3:cad>46</ns3:cad>
          </ns3:TrackPointExtension>
        </extensions>
      </trkpt>
      <trkpt lat="43.75994629226624965667724609375" lon="1.567353196442127227783203125">
        <ele>166.1999969482421875</ele>
        <time>2026-08-13T06:19:46.000Z</time>
        <extensions>
          <ns3:TrackPointExtension>
            <ns3:hr>80</ns3:hr>
            <ns3:cad>47</ns3:cad>
          </ns3:TrackPointExtension>
        </extensions>
      </trkpt>
      <trkpt lat="43.7599576078355312347412109375" lon="1.5673436410725116729736328125">
        <ele>166.1999969482421875</ele>
        <time>2026-08-13T06:19:47.000Z</time>
        <extensions>
          <ns3:TrackPointExtension>
            <ns3:hr>80</ns3:hr>
            <ns3:cad>47</ns3:cad>
          </ns3:TrackPointExtension>
        </extensions>
      </trkpt>
      <trkpt lat="43.7599663250148296356201171875" lon="1.5673369355499744415283203125">
        <ele>166.1999969482421875</ele>
        <time>2026-08-13T06:19:48.000Z</time>
        <extensions>
          <ns3:TrackPointExtension>
            <ns3:hr>81</ns3:hr>
            <ns3:cad>46</ns3:cad>
          </ns3:TrackPointExtension>
        </extensions>
      </trkpt>
      <trkpt lat="43.75997210852801799774169921875" lon="1.56733517535030841827392578125">
        <ele>166.1999969482421875</ele>
        <time>2026-08-13T06:19:49.000Z</time>
        <extensions>
          <ns3:TrackPointExtension>
            <ns3:hr>81</ns3:hr>
            <ns3:cad>46</ns3:cad>
          </ns3:TrackPointExtension>
        </extensions>
      </trkpt>
      <trkpt lat="43.75997981987893581390380859375" lon="1.56732805073261260986328125">
        <ele>166.1999969482421875</ele>
        <time>2026-08-13T06:19:50.000Z</time>
        <extensions>
          <ns3:TrackPointExtension>
            <ns3:hr>82</ns3:hr>
            <ns3:cad>47</ns3:cad>
          </ns3:TrackPointExtension>
        </extensions>
      </trkpt>
      <trkpt lat="43.75999339856207370758056640625" lon="1.567316986620426177978515625">
        <ele>166.1999969482421875</ele>
        <time>2026-08-13T06:19:51.000Z</time>
        <extensions>
          <ns3:TrackPointExtension>
            <ns3:hr>82</ns3:hr>
            <ns3:cad>47</ns3:cad>
          </ns3:TrackPointExtension>
        </extensions>
      </trkpt>
      <trkpt lat="43.76000563614070415496826171875" lon="1.56730634160339832305908203125">
        <ele>166.1999969482421875</ele>
        <time>2026-08-13T06:19:52.000Z</time>
        <extensions>
          <ns3:TrackPointExtension>
            <ns3:hr>82</ns3:hr>
            <ns3:cad>47</ns3:cad>
          </ns3:TrackPointExtension>
        </extensions>
      </trkpt>
      <trkpt lat="43.76001217402517795562744140625" lon="1.56729913316667079925537109375">
        <ele>166.1999969482421875</ele>
        <time>2026-08-13T06:19:53.000Z</time>
        <extensions>
          <ns3:TrackPointExtension>
            <ns3:hr>82</ns3:hr>
            <ns3:cad>47</ns3:cad>
          </ns3:TrackPointExtension>
        </extensions>
      </trkpt>
      <trkpt lat="43.76002038829028606414794921875" lon="1.5672933496534824371337890625">
        <ele>166.1999969482421875</ele>
        <time>2026-08-13T06:19:54.000Z</time>
        <extensions>
          <ns3:TrackPointExtension>
            <ns3:hr>83</ns3:hr>
            <ns3:cad>48</ns3:cad>
          </ns3:TrackPointExtension>
        </extensions>
      </trkpt>
      <trkpt lat="43.76003027893602848052978515625" lon="1.56728806905448436737060546875">
        <ele>166.1999969482421875</ele>
        <time>2026-08-13T06:19:55.000Z</time>
        <extensions>
          <ns3:TrackPointExtension>
            <ns3:hr>82</ns3:hr>
            <ns3:cad>48</ns3:cad>
          </ns3:TrackPointExtension>
        </extensions>
      </trkpt>
      <trkpt lat="43.76004050485789775848388671875" lon="1.56728555448353290557861328125">
        <ele>166.1999969482421875</ele>
        <time>2026-08-13T06:19:56.000Z</time>
        <extensions>
          <ns3:TrackPointExtension>
            <ns3:hr>82</ns3:hr>
            <ns3:cad>48</ns3:cad>
          </ns3:TrackPointExtension>
        </extensions>
      </trkpt>
      <trkpt lat="43.76005056314170360565185546875" lon="1.5672812797129154205322265625">
        <ele>166.1999969482421875</ele>
        <time>2026-08-13T06:19:57.000Z</time>
        <extensions>
          <ns3:TrackPointExtension>
            <ns3:hr>82</ns3:hr>
            <ns3:cad>48</ns3:cad>
          </ns3:TrackPointExtension>
        </extensions>
      </trkpt>
      <trkpt lat="43.7600591965019702911376953125" lon="1.56727851368486881256103515625">
        <ele>166.1999969482421875</ele>
        <time>2026-08-13T06:19:58.000Z</time>
        <extensions>
          <ns3:TrackPointExtension>
            <ns3:hr>82</ns3:hr>
            <ns3:cad>48</ns3:cad>
          </ns3:TrackPointExtension>
        </extensions>
      </trkpt>
      <trkpt lat="43.7600655667483806610107421875" lon="1.56727784313261508941650390625">
        <ele>166.1999969482421875</ele>
        <time>2026-08-13T06:19:59.000Z</time>
        <extensions>
          <ns3:TrackPointExtension>
            <ns3:hr>82</ns3:hr>
            <ns3:cad>48</ns3:cad>
          </ns3:TrackPointExtension>
        </extensions>
      </trkpt>
      <trkpt lat="43.76008023507893085479736328125" lon="1.5672735683619976043701171875">
        <ele>166.1999969482421875</ele>
        <time>2026-08-13T06:20:00.000Z</time>
        <extensions>
          <ns3:TrackPointExtension>
            <ns3:hr>82</ns3:hr>
            <ns3:cad>48</ns3:cad>
          </ns3:TrackPointExtension>
        </extensions>
      </trkpt>
      <trkpt lat="43.76009129919111728668212890625" lon="1.56726560555398464202880859375">
        <ele>166.1999969482421875</ele>
        <time>2026-08-13T06:20:01.000Z</time>
        <extensions>
          <ns3:TrackPointExtension>
            <ns3:hr>82</ns3:hr>
            <ns3:cad>0</ns3:cad>
          </ns3:TrackPointExtension>
        </extensions>
      </trkpt>
      <trkpt lat="43.7600987590849399566650390625" lon="1.56725831329822540283203125">
        <ele>166.1999969482421875</ele>
        <time>2026-08-13T06:20:02.000Z</time>
        <extensions>
          <ns3:TrackPointExtension>
            <ns3:hr>82</ns3:hr>
            <ns3:cad>0</ns3:cad>
          </ns3:TrackPointExtension>
        </extensions>
      </trkpt>
      <trkpt lat="43.7601081468164920806884765625" lon="1.56725102104246616363525390625">
        <ele>166.1999969482421875</ele>
        <time>2026-08-13T06:20:03.000Z</time>
        <extensions>
          <ns3:TrackPointExtension>
            <ns3:hr>83</ns3:hr>
            <ns3:cad>0</ns3:cad>
          </ns3:TrackPointExtension>
        </extensions>
      </trkpt>
      <trkpt lat="43.7601205520331859588623046875" lon="1.56724582426249980926513671875">
        <ele>166.1999969482421875</ele>
        <time>2026-08-13T06:20:04.000Z</time>
        <extensions>
          <ns3:TrackPointExtension>
            <ns3:hr>82</ns3:hr>
            <ns3:cad>47</ns3:cad>
          </ns3:TrackPointExtension>
        </extensions>
      </trkpt>
      <trkpt lat="43.76012817956507205963134765625" lon="1.56724154949188232421875">
        <ele>166.1999969482421875</ele>
        <time>2026-08-13T06:20:05.000Z</time>
        <extensions>
          <ns3:TrackPointExtension>
            <ns3:hr>82</ns3:hr>
            <ns3:cad>45</ns3:cad>
          </ns3:TrackPointExtension>
        </extensions>
      </trkpt>
      <trkpt lat="43.76013622619211673736572265625" lon="1.5672375261783599853515625">
        <ele>166.1999969482421875</ele>
        <time>2026-08-13T06:20:06.000Z</time>
        <extensions>
          <ns3:TrackPointExtension>
            <ns3:hr>82</ns3:hr>
            <ns3:cad>45</ns3:cad>
          </ns3:TrackPointExtension>
        </extensions>
      </trkpt>
      <trkpt lat="43.76014544628560543060302734375" lon="1.56723073683679103851318359375">
        <ele>166.1999969482421875</ele>
        <time>2026-08-13T06:20:07.000Z</time>
        <extensions>
          <ns3:TrackPointExtension>
            <ns3:hr>82</ns3:hr>
            <ns3:cad>45</ns3:cad>
          </ns3:TrackPointExtension>
        </extensions>
      </trkpt>
      <trkpt lat="43.760156594216823577880859375" lon="1.56722621060907840728759765625">
        <ele>166.1999969482421875</ele>
        <time>2026-08-13T06:20:08.000Z</time>
        <extensions>
          <ns3:TrackPointExtension>
            <ns3:hr>82</ns3:hr>
            <ns3:cad>45</ns3:cad>
          </ns3:TrackPointExtension>
        </extensions>
      </trkpt>
      <trkpt lat="43.76016656868159770965576171875" lon="1.56722017563879489898681640625">
        <ele>166.1999969482421875</ele>
        <time>2026-08-13T06:20:09.000Z</time>
        <extensions>
          <ns3:TrackPointExtension>
            <ns3:hr>81</ns3:hr>
            <ns3:cad>45</ns3:cad>
          </ns3:TrackPointExtension>
        </extensions>
      </trkpt>
      <trkpt lat="43.760174699127674102783203125" lon="1.56721808016300201416015625">
        <ele>166.1999969482421875</ele>
        <time>2026-08-13T06:20:10.000Z</time>
        <extensions>
          <ns3:TrackPointExtension>
            <ns3:hr>81</ns3:hr>
            <ns3:cad>43</ns3:cad>
          </ns3:TrackPointExtension>
        </extensions>
      </trkpt>
      <trkpt lat="43.760184757411479949951171875" lon="1.56721212901175022125244140625">
        <ele>166.1999969482421875</ele>
        <time>2026-08-13T06:20:11.000Z</time>
        <extensions>
          <ns3:TrackPointExtension>
            <ns3:hr>81</ns3:hr>
            <ns3:cad>43</ns3:cad>
          </ns3:TrackPointExtension>
        </extensions>
      </trkpt>
      <trkpt lat="43.76019104383885860443115234375" lon="1.567198969423770904541015625">
        <ele>166.1999969482421875</ele>
        <time>2026-08-13T06:20:12.000Z</time>
        <extensions>
          <ns3:TrackPointExtension>
            <ns3:hr>81</ns3:hr>
            <ns3:cad>45</ns3:cad>
          </ns3:TrackPointExtension>
        </extensions>
      </trkpt>
      <trkpt lat="43.76020495779812335968017578125" lon="1.56718589365482330322265625">
        <ele>166.1999969482421875</ele>
        <time>2026-08-13T06:20:13.000Z</time>
        <extensions>
          <ns3:TrackPointExtension>
            <ns3:hr>81</ns3:hr>
            <ns3:cad>45</ns3:cad>
          </ns3:TrackPointExtension>
        </extensions>
      </trkpt>
      <trkpt lat="43.7602145969867706298828125" lon="1.56718111597001552581787109375">
        <ele>166.1999969482421875</ele>
        <time>2026-08-13T06:20:14.000Z</time>
        <extensions>
          <ns3:TrackPointExtension>
            <ns3:hr>81</ns3:hr>
            <ns3:cad>45</ns3:cad>
          </ns3:TrackPointExtension>
        </extensions>
      </trkpt>
      <trkpt lat="43.760219626128673553466796875" lon="1.5671780146658420562744140625">
        <ele>166.1999969482421875</ele>
        <time>2026-08-13T06:20:15.000Z</time>
        <extensions>
          <ns3:TrackPointExtension>
            <ns3:hr>81</ns3:hr>
            <ns3:cad>45</ns3:cad>
          </ns3:TrackPointExtension>
        </extensions>
      </trkpt>
      <trkpt lat="43.760229013860225677490234375" lon="1.56717390753328800201416015625">
        <ele>166.1999969482421875</ele>
        <time>2026-08-13T06:20:16.000Z</time>
        <extensions>
          <ns3:TrackPointExtension>
            <ns3:hr>81</ns3:hr>
            <ns3:cad>46</ns3:cad>
          </ns3:TrackPointExtension>
        </extensions>
      </trkpt>
      <trkpt lat="43.76023999415338039398193359375" lon="1.567163765430450439453125">
        <ele>166.1999969482421875</ele>
        <time>2026-08-13T06:20:17.000Z</time>
        <extensions>
          <ns3:TrackPointExtension>
            <ns3:hr>82</ns3:hr>
            <ns3:cad>46</ns3:cad>
          </ns3:TrackPointExtension>
        </extensions>
      </trkpt>
      <trkpt lat="43.7602494657039642333984375" lon="1.56715630553662776947021484375">
        <ele>166.1999969482421875</ele>
        <time>2026-08-13T06:20:18.000Z</time>
        <extensions>
          <ns3:TrackPointExtension>
            <ns3:hr>82</ns3:hr>
            <ns3:cad>46</ns3:cad>
          </ns3:TrackPointExtension>
        </extensions>
      </trkpt>
      <trkpt lat="43.760255835950374603271484375" lon="1.56715412624180316925048828125">
        <ele>166.1999969482421875</ele>
        <time>2026-08-13T06:20:19.000Z</time>
        <extensions>
          <ns3:TrackPointExtension>
            <ns3:hr>82</ns3:hr>
            <ns3:cad>48</ns3:cad>
          </ns3:TrackPointExtension>
        </extensions>
      </trkpt>
      <trkpt lat="43.7602633796632289886474609375" lon="1.56714968383312225341796875">
        <ele>166.1999969482421875</ele>
        <time>2026-08-13T06:20:20.000Z</time>
        <extensions>
          <ns3:TrackPointExtension>
            <ns3:hr>83</ns3:hr>
            <ns3:cad>48</ns3:cad>
          </ns3:TrackPointExtension>
        </extensions>
      </trkpt>
      <trkpt lat="43.76027368940412998199462890625" lon="1.56714306212961673736572265625">
        <ele>166.1999969482421875</ele>
        <time>2026-08-13T06:20:21.000Z</time>
        <extensions>
          <ns3:TrackPointExtension>
            <ns3:hr>83</ns3:hr>
            <ns3:cad>48</ns3:cad>
          </ns3:TrackPointExtension>
        </extensions>
      </trkpt>
      <trkpt lat="43.76028408296406269073486328125" lon="1.56713769771158695220947265625">
        <ele>166.1999969482421875</ele>
        <time>2026-08-13T06:20:22.000Z</time>
        <extensions>
          <ns3:TrackPointExtension>
            <ns3:hr>84</ns3:hr>
            <ns3:cad>46</ns3:cad>
          </ns3:TrackPointExtension>
        </extensions>
      </trkpt>
      <trkpt lat="43.76029464416205883026123046875" lon="1.56713484786450862884521484375">
        <ele>166</ele>
        <time>2026-08-13T06:20:23.000Z</time>
        <extensions>
          <ns3:TrackPointExtension>
            <ns3:hr>86</ns3:hr>
            <ns3:cad>46</ns3:cad>
          </ns3:TrackPointExtension>
        </extensions>
      </trkpt>
      <trkpt lat="43.76030704937875270843505859375" lon="1.5671384520828723907470703125">
        <ele>166</ele>
        <time>2026-08-13T06:20:24.000Z</time>
        <extensions>
          <ns3:TrackPointExtension>
            <ns3:hr>86</ns3:hr>
            <ns3:cad>47</ns3:cad>
          </ns3:TrackPointExtension>
        </extensions>
      </trkpt>
      <trkpt lat="43.7603160180151462554931640625" lon="1.56713635660707950592041015625">
        <ele>166</ele>
        <time>2026-08-13T06:20:25.000Z</time>
        <extensions>
          <ns3:TrackPointExtension>
            <ns3:hr>86</ns3:hr>
            <ns3:cad>48</ns3:cad>
          </ns3:TrackPointExtension>
        </extensions>
      </trkpt>
      <trkpt lat="43.76032800413668155670166015625" lon="1.567131243646144866943359375">
        <ele>166</ele>
        <time>2026-08-13T06:20:26.000Z</time>
        <extensions>
          <ns3:TrackPointExtension>
            <ns3:hr>86</ns3:hr>
            <ns3:cad>47</ns3:cad>
          </ns3:TrackPointExtension>
        </extensions>
      </trkpt>
      <trkpt lat="43.76033856533467769622802734375" lon="1.56712646596133708953857421875">
        <ele>166</ele>
        <time>2026-08-13T06:20:27.000Z</time>
        <extensions>
          <ns3:TrackPointExtension>
            <ns3:hr>86</ns3:hr>
            <ns3:cad>47</ns3:cad>
          </ns3:TrackPointExtension>
        </extensions>
      </trkpt>
      <trkpt lat="43.76035180874168872833251953125" lon="1.56712562777101993560791015625">
        <ele>166</ele>
        <time>2026-08-13T06:20:28.000Z</time>
        <extensions>
          <ns3:TrackPointExtension>
            <ns3:hr>86</ns3:hr>
            <ns3:cad>47</ns3:cad>
          </ns3:TrackPointExtension>
        </extensions>
      </trkpt>
      <trkpt lat="43.76035834662616252899169921875" lon="1.567124538123607635498046875">
        <ele>166</ele>
        <time>2026-08-13T06:20:29.000Z</time>
        <extensions>
          <ns3:TrackPointExtension>
            <ns3:hr>84</ns3:hr>
            <ns3:cad>47</ns3:cad>
          </ns3:TrackPointExtension>
        </extensions>
      </trkpt>
      <trkpt lat="43.7603703327476978302001953125" lon="1.56712152063846588134765625">
        <ele>165.8000030517578125</ele>
        <time>2026-08-13T06:20:30.000Z</time>
        <extensions>
          <ns3:TrackPointExtension>
            <ns3:hr>84</ns3:hr>
            <ns3:cad>47</ns3:cad>
          </ns3:TrackPointExtension>
        </extensions>
      </trkpt>
      <trkpt lat="43.76038433052599430084228515625" lon="1.567114479839801788330078125">
        <ele>165.8000030517578125</ele>
        <time>2026-08-13T06:20:31.000Z</time>
        <extensions>
          <ns3:TrackPointExtension>
            <ns3:hr>84</ns3:hr>
            <ns3:cad>47</ns3:cad>
          </ns3:TrackPointExtension>
        </extensions>
      </trkpt>
      <trkpt lat="43.760395310819149017333984375" lon="1.56710945069789886474609375">
        <ele>165.8000030517578125</ele>
        <time>2026-08-13T06:20:32.000Z</time>
        <extensions>
          <ns3:TrackPointExtension>
            <ns3:hr>84</ns3:hr>
            <ns3:cad>47</ns3:cad>
          </ns3:TrackPointExtension>
        </extensions>
      </trkpt>
      <trkpt lat="43.760406039655208587646484375" lon="1.567111797630786895751953125">
        <ele>165.8000030517578125</ele>
        <time>2026-08-13T06:20:33.000Z</time>
        <extensions>
          <ns3:TrackPointExtension>
            <ns3:hr>83</ns3:hr>
            <ns3:cad>47</ns3:cad>
          </ns3:TrackPointExtension>
        </extensions>
      </trkpt>
      <trkpt lat="43.7604157626628875732421875" lon="1.56710852868854999542236328125">
        <ele>165.8000030517578125</ele>
        <time>2026-08-13T06:20:34.000Z</time>
        <extensions>
          <ns3:TrackPointExtension>
            <ns3:hr>83</ns3:hr>
            <ns3:cad>47</ns3:cad>
          </ns3:TrackPointExtension>
        </extensions>
      </trkpt>
      <trkpt lat="43.760425150394439697265625" lon="1.5671066008508205413818359375">
        <ele>165.8000030517578125</ele>
        <time>2026-08-13T06:20:35.000Z</time>
        <extensions>
          <ns3:TrackPointExtension>
            <ns3:hr>83</ns3:hr>
            <ns3:cad>47</ns3:cad>
          </ns3:TrackPointExtension>
        </extensions>
      </trkpt>
      <trkpt lat="43.7604363821446895599365234375" lon="1.567104421555995941162109375">
        <ele>165.8000030517578125</ele>
        <time>2026-08-13T06:20:36.000Z</time>
        <extensions>
          <ns3:TrackPointExtension>
            <ns3:hr>83</ns3:hr>
            <ns3:cad>0</ns3:cad>
          </ns3:TrackPointExtension>
        </extensions>
      </trkpt>
      <trkpt lat="43.76044484786689281463623046875" lon="1.56710115261375904083251953125">
        <ele>165.8000030517578125</ele>
        <time>2026-08-13T06:20:37.000Z</time>
        <extensions>
          <ns3:TrackPointExtension>
            <ns3:hr>83</ns3:hr>
            <ns3:cad>0</ns3:cad>
          </ns3:TrackPointExtension>
        </extensions>
      </trkpt>
      <trkpt lat="43.7604528106749057769775390625" lon="1.567096710205078125">
        <ele>165.8000030517578125</ele>
        <time>2026-08-13T06:20:38.000Z</time>
        <extensions>
          <ns3:TrackPointExtension>
            <ns3:hr>83</ns3:hr>
            <ns3:cad>0</ns3:cad>
          </ns3:TrackPointExtension>
        </extensions>
      </trkpt>
      <trkpt lat="43.76045960001647472381591796875" lon="1.56709394417703151702880859375">
        <ele>165.600006103515625</ele>
        <time>2026-08-13T06:20:39.000Z</time>
        <extensions>
          <ns3:TrackPointExtension>
            <ns3:hr>84</ns3:hr>
            <ns3:cad>0</ns3:cad>
          </ns3:TrackPointExtension>
        </extensions>
      </trkpt>
      <trkpt lat="43.76046982593834400177001953125" lon="1.56708941794931888580322265625">
        <ele>165.600006103515625</ele>
        <time>2026-08-13T06:20:40.000Z</time>
        <extensions>
          <ns3:TrackPointExtension>
            <ns3:hr>83</ns3:hr>
            <ns3:cad>0</ns3:cad>
          </ns3:TrackPointExtension>
        </extensions>
      </trkpt>
      <trkpt lat="43.76047736965119838714599609375" lon="1.56708740629255771636962890625">
        <ele>165.8000030517578125</ele>
        <time>2026-08-13T06:20:41.000Z</time>
        <extensions>
          <ns3:TrackPointExtension>
            <ns3:hr>83</ns3:hr>
            <ns3:cad>0</ns3:cad>
          </ns3:TrackPointExtension>
        </extensions>
      </trkpt>
      <trkpt lat="43.7604880146682262420654296875" lon="1.5670841373503208160400390625">
        <ele>165.8000030517578125</ele>
        <time>2026-08-13T06:20:42.000Z</time>
        <extensions>
          <ns3:TrackPointExtension>
            <ns3:hr>83</ns3:hr>
            <ns3:cad>0</ns3:cad>
          </ns3:TrackPointExtension>
        </extensions>
      </trkpt>
      <trkpt lat="43.760497234761714935302734375" lon="1.56707919202744960784912109375">
        <ele>165.8000030517578125</ele>
        <time>2026-08-13T06:20:43.000Z</time>
        <extensions>
          <ns3:TrackPointExtension>
            <ns3:hr>83</ns3:hr>
            <ns3:cad>47</ns3:cad>
          </ns3:TrackPointExtension>
        </extensions>
      </trkpt>
      <trkpt lat="43.76050771214067935943603515625" lon="1.567075587809085845947265625">
        <ele>165.8000030517578125</ele>
        <time>2026-08-13T06:20:44.000Z</time>
        <extensions>
          <ns3:TrackPointExtension>
            <ns3:hr>84</ns3:hr>
            <ns3:cad>47</ns3:cad>
          </ns3:TrackPointExtension>
        </extensions>
      </trkpt>
      <trkpt lat="43.7605181895196437835693359375" lon="1.5670710615813732147216796875">
        <ele>165.600006103515625</ele>
        <time>2026-08-13T06:20:45.000Z</time>
        <extensions>
          <ns3:TrackPointExtension>
            <ns3:hr>83</ns3:hr>
            <ns3:cad>45</ns3:cad>
          </ns3:TrackPointExtension>
        </extensions>
      </trkpt>
      <trkpt lat="43.7605285830795764923095703125" lon="1.567067541182041168212890625">
        <ele>165.600006103515625</ele>
        <time>2026-08-13T06:20:46.000Z</time>
        <extensions>
          <ns3:TrackPointExtension>
            <ns3:hr>84</ns3:hr>
            <ns3:cad>45</ns3:cad>
          </ns3:TrackPointExtension>
        </extensions>
      </trkpt>
      <trkpt lat="43.76054123975336551666259765625" lon="1.56706443987786769866943359375">
        <ele>165.600006103515625</ele>
        <time>2026-08-13T06:20:47.000Z</time>
        <extensions>
          <ns3:TrackPointExtension>
            <ns3:hr>84</ns3:hr>
            <ns3:cad>46</ns3:cad>
          </ns3:TrackPointExtension>
        </extensions>
      </trkpt>
      <trkpt lat="43.76055280677974224090576171875" lon="1.5670613385736942291259765625">
        <ele>165.600006103515625</ele>
        <time>2026-08-13T06:20:48.000Z</time>
        <extensions>
          <ns3:TrackPointExtension>
            <ns3:hr>84</ns3:hr>
            <ns3:cad>48</ns3:cad>
          </ns3:TrackPointExtension>
        </extensions>
      </trkpt>
      <trkpt lat="43.76056370325386524200439453125" lon="1.56705521978437900543212890625">
        <ele>165.600006103515625</ele>
        <time>2026-08-13T06:20:49.000Z</time>
        <extensions>
          <ns3:TrackPointExtension>
            <ns3:hr>84</ns3:hr>
            <ns3:cad>48</ns3:cad>
          </ns3:TrackPointExtension>
        </extensions>
      </trkpt>
      <trkpt lat="43.76057778485119342803955078125" lon="1.5670485980808734893798828125">
        <ele>165.600006103515625</ele>
        <time>2026-08-13T06:20:50.000Z</time>
        <extensions>
          <ns3:TrackPointExtension>
            <ns3:hr>84</ns3:hr>
            <ns3:cad>48</ns3:cad>
          </ns3:TrackPointExtension>
        </extensions>
      </trkpt>
      <trkpt lat="43.76058599911630153656005859375" lon="1.567042060196399688720703125">
        <ele>165.600006103515625</ele>
        <time>2026-08-13T06:20:51.000Z</time>
        <extensions>
          <ns3:TrackPointExtension>
            <ns3:hr>83</ns3:hr>
            <ns3:cad>48</ns3:cad>
          </ns3:TrackPointExtension>
        </extensions>
      </trkpt>
      <trkpt lat="43.76058868132531642913818359375" lon="1.56703325919806957244873046875">
        <ele>165.600006103515625</ele>
        <time>2026-08-13T06:20:52.000Z</time>
        <extensions>
          <ns3:TrackPointExtension>
            <ns3:hr>83</ns3:hr>
            <ns3:cad>47</ns3:cad>
          </ns3:TrackPointExtension>
        </extensions>
      </trkpt>
      <trkpt lat="43.760595805943012237548828125" lon="1.56702496111392974853515625">
        <ele>165.399993896484375</ele>
        <time>2026-08-13T06:20:53.000Z</time>
        <extensions>
          <ns3:TrackPointExtension>
            <ns3:hr>83</ns3:hr>
            <ns3:cad>47</ns3:cad>
          </ns3:TrackPointExtension>
        </extensions>
      </trkpt>
      <trkpt lat="43.76061089336872100830078125" lon="1.56701565720140933990478515625">
        <ele>165.399993896484375</ele>
        <time>2026-08-13T06:20:54.000Z</time>
        <extensions>
          <ns3:TrackPointExtension>
            <ns3:hr>82</ns3:hr>
            <ns3:cad>47</ns3:cad>
          </ns3:TrackPointExtension>
        </extensions>
      </trkpt>
      <trkpt lat="43.760621957480907440185546875" lon="1.56700752675533294677734375">
        <ele>165.399993896484375</ele>
        <time>2026-08-13T06:20:55.000Z</time>
        <extensions>
          <ns3:TrackPointExtension>
            <ns3:hr>82</ns3:hr>
            <ns3:cad>45</ns3:cad>
          </ns3:TrackPointExtension>
        </extensions>
      </trkpt>
      <trkpt lat="43.76062992028892040252685546875" lon="1.567005179822444915771484375">
        <ele>165.399993896484375</ele>
        <time>2026-08-13T06:20:56.000Z</time>
        <extensions>
          <ns3:TrackPointExtension>
            <ns3:hr>81</ns3:hr>
            <ns3:cad>45</ns3:cad>
          </ns3:TrackPointExtension>
        </extensions>
      </trkpt>
      <trkpt lat="43.76063679344952106475830078125" lon="1.5670014917850494384765625">
        <ele>165.399993896484375</ele>
        <time>2026-08-13T06:20:57.000Z</time>
        <extensions>
          <ns3:TrackPointExtension>
            <ns3:hr>81</ns3:hr>
            <ns3:cad>45</ns3:cad>
          </ns3:TrackPointExtension>
        </extensions>
      </trkpt>
      <trkpt lat="43.76065087504684925079345703125" lon="1.566998474299907684326171875">
        <ele>165.399993896484375</ele>
        <time>2026-08-13T06:20:58.000Z</time>
        <extensions>
          <ns3:TrackPointExtension>
            <ns3:hr>81</ns3:hr>
            <ns3:cad>47</ns3:cad>
          </ns3:TrackPointExtension>
        </extensions>
      </trkpt>
      <trkpt lat="43.76066277734935283660888671875" lon="1.56699252314865589141845703125">
        <ele>165.399993896484375</ele>
        <time>2026-08-13T06:20:59.000Z</time>
        <extensions>
          <ns3:TrackPointExtension>
            <ns3:hr>81</ns3:hr>
            <ns3:cad>47</ns3:cad>
          </ns3:TrackPointExtension>
        </extensions>
      </trkpt>
      <trkpt lat="43.7606717459857463836669921875" lon="1.56698950566351413726806640625">
        <ele>165.399993896484375</ele>
        <time>2026-08-13T06:21:00.000Z</time>
        <extensions>
          <ns3:TrackPointExtension>
            <ns3:hr>81</ns3:hr>
            <ns3:cad>47</ns3:cad>
          </ns3:TrackPointExtension>
        </extensions>
      </trkpt>
      <trkpt lat="43.7606818042695522308349609375" lon="1.566976010799407958984375">
        <ele>165.399993896484375</ele>
        <time>2026-08-13T06:21:01.000Z</time>
        <extensions>
          <ns3:TrackPointExtension>
            <ns3:hr>82</ns3:hr>
            <ns3:cad>48</ns3:cad>
          </ns3:TrackPointExtension>
        </extensions>
      </trkpt>
      <trkpt lat="43.760692365467548370361328125" lon="1.56697140075266361236572265625">
        <ele>165.399993896484375</ele>
        <time>2026-08-13T06:21:02.000Z</time>
        <extensions>
          <ns3:TrackPointExtension>
            <ns3:hr>81</ns3:hr>
            <ns3:cad>48</ns3:cad>
          </ns3:TrackPointExtension>
        </extensions>
      </trkpt>
      <trkpt lat="43.7607025913894176483154296875" lon="1.566965617239475250244140625">
        <ele>165.399993896484375</ele>
        <time>2026-08-13T06:21:03.000Z</time>
        <extensions>
          <ns3:TrackPointExtension>
            <ns3:hr>82</ns3:hr>
            <ns3:cad>48</ns3:cad>
          </ns3:TrackPointExtension>
        </extensions>
      </trkpt>
      <trkpt lat="43.7607153318822383880615234375" lon="1.566959917545318603515625">
        <ele>165.399993896484375</ele>
        <time>2026-08-13T06:21:04.000Z</time>
        <extensions>
          <ns3:TrackPointExtension>
            <ns3:hr>82</ns3:hr>
            <ns3:cad>47</ns3:cad>
          </ns3:TrackPointExtension>
        </extensions>
      </trkpt>
      <trkpt lat="43.760719187557697296142578125" lon="1.5669560618698596954345703125">
        <ele>165.399993896484375</ele>
        <time>2026-08-13T06:21:05.000Z</time>
        <extensions>
          <ns3:TrackPointExtension>
            <ns3:hr>82</ns3:hr>
            <ns3:cad>47</ns3:cad>
          </ns3:TrackPointExtension>
        </extensions>
      </trkpt>
      <trkpt lat="43.7607268989086151123046875" lon="1.566954888403415679931640625">
        <ele>165.399993896484375</ele>
        <time>2026-08-13T06:21:06.000Z</time>
        <extensions>
          <ns3:TrackPointExtension>
            <ns3:hr>82</ns3:hr>
            <ns3:cad>0</ns3:cad>
          </ns3:TrackPointExtension>
        </extensions>
      </trkpt>
      <trkpt lat="43.76074072904884815216064453125" lon="1.56695212237536907196044921875">
        <ele>165.399993896484375</ele>
        <time>2026-08-13T06:21:07.000Z</time>
        <extensions>
          <ns3:TrackPointExtension>
            <ns3:hr>82</ns3:hr>
            <ns3:cad>0</ns3:cad>
          </ns3:TrackPointExtension>
        </extensions>
      </trkpt>
      <trkpt lat="43.76075129024684429168701171875" lon="1.5669451653957366943359375">
        <ele>165.399993896484375</ele>
        <time>2026-08-13T06:21:08.000Z</time>
        <extensions>
          <ns3:TrackPointExtension>
            <ns3:hr>82</ns3:hr>
            <ns3:cad>0</ns3:cad>
          </ns3:TrackPointExtension>
        </extensions>
      </trkpt>
      <trkpt lat="43.76076051034033298492431640625" lon="1.56694189645349979400634765625">
        <ele>165.399993896484375</ele>
        <time>2026-08-13T06:21:09.000Z</time>
        <extensions>
          <ns3:TrackPointExtension>
            <ns3:hr>82</ns3:hr>
            <ns3:cad>0</ns3:cad>
          </ns3:TrackPointExtension>
        </extensions>
      </trkpt>
      <trkpt lat="43.76076889224350452423095703125" lon="1.566938124597072601318359375">
        <ele>165.399993896484375</ele>
        <time>2026-08-13T06:21:10.000Z</time>
        <extensions>
          <ns3:TrackPointExtension>
            <ns3:hr>82</ns3:hr>
            <ns3:cad>46</ns3:cad>
          </ns3:TrackPointExtension>
        </extensions>
      </trkpt>
      <trkpt lat="43.76077945344150066375732421875" lon="1.5669376216828823089599609375">
        <ele>165.399993896484375</ele>
        <time>2026-08-13T06:21:11.000Z</time>
        <extensions>
          <ns3:TrackPointExtension>
            <ns3:hr>83</ns3:hr>
            <ns3:cad>46</ns3:cad>
          </ns3:TrackPointExtension>
        </extensions>
      </trkpt>
      <trkpt lat="43.760789595544338226318359375" lon="1.56693519093096256256103515625">
        <ele>165.399993896484375</ele>
        <time>2026-08-13T06:21:12.000Z</time>
        <extensions>
          <ns3:TrackPointExtension>
            <ns3:hr>83</ns3:hr>
            <ns3:cad>47</ns3:cad>
          </ns3:TrackPointExtension>
        </extensions>
      </trkpt>
      <trkpt lat="43.76079789362847805023193359375" lon="1.566930748522281646728515625">
        <ele>165.399993896484375</ele>
        <time>2026-08-13T06:21:13.000Z</time>
        <extensions>
          <ns3:TrackPointExtension>
            <ns3:hr>83</ns3:hr>
            <ns3:cad>46</ns3:cad>
          </ns3:TrackPointExtension>
        </extensions>
      </trkpt>
      <trkpt lat="43.76080459915101528167724609375" lon="1.5669278986752033233642578125">
        <ele>165.399993896484375</ele>
        <time>2026-08-13T06:21:14.000Z</time>
        <extensions>
          <ns3:TrackPointExtension>
            <ns3:hr>83</ns3:hr>
            <ns3:cad>46</ns3:cad>
          </ns3:TrackPointExtension>
        </extensions>
      </trkpt>
      <trkpt lat="43.7608149088919162750244140625" lon="1.5669205226004123687744140625">
        <ele>165.399993896484375</ele>
        <time>2026-08-13T06:21:15.000Z</time>
        <extensions>
          <ns3:TrackPointExtension>
            <ns3:hr>83</ns3:hr>
            <ns3:cad>46</ns3:cad>
          </ns3:TrackPointExtension>
        </extensions>
      </trkpt>
      <trkpt lat="43.76082639209926128387451171875" lon="1.5669104643166065216064453125">
        <ele>165.399993896484375</ele>
        <time>2026-08-13T06:21:16.000Z</time>
        <extensions>
          <ns3:TrackPointExtension>
            <ns3:hr>83</ns3:hr>
            <ns3:cad>46</ns3:cad>
          </ns3:TrackPointExtension>
        </extensions>
      </trkpt>
      <trkpt lat="43.7608341872692108154296875" lon="1.56691155396401882171630859375">
        <ele>165.399993896484375</ele>
        <time>2026-08-13T06:21:17.000Z</time>
        <extensions>
          <ns3:TrackPointExtension>
            <ns3:hr>83</ns3:hr>
            <ns3:cad>46</ns3:cad>
          </ns3:TrackPointExtension>
        </extensions>
      </trkpt>
      <trkpt lat="43.76083963550627231597900390625" lon="1.566908620297908782958984375">
        <ele>165.399993896484375</ele>
        <time>2026-08-13T06:21:18.000Z</time>
        <extensions>
          <ns3:TrackPointExtension>
            <ns3:hr>83</ns3:hr>
            <ns3:cad>46</ns3:cad>
          </ns3:TrackPointExtension>
        </extensions>
      </trkpt>
      <trkpt lat="43.76084826886653900146484375" lon="1.5669022500514984130859375">
        <ele>165.1999969482421875</ele>
        <time>2026-08-13T06:21:19.000Z</time>
        <extensions>
          <ns3:TrackPointExtension>
            <ns3:hr>83</ns3:hr>
            <ns3:cad>47</ns3:cad>
          </ns3:TrackPointExtension>
        </extensions>
      </trkpt>
      <trkpt lat="43.7608618475496768951416015625" lon="1.566896550357341766357421875">
        <ele>165.1999969482421875</ele>
        <time>2026-08-13T06:21:20.000Z</time>
        <extensions>
          <ns3:TrackPointExtension>
            <ns3:hr>83</ns3:hr>
            <ns3:cad>47</ns3:cad>
          </ns3:TrackPointExtension>
        </extensions>
      </trkpt>
      <trkpt lat="43.76087500713765621185302734375" lon="1.56688909046351909637451171875">
        <ele>165.1999969482421875</ele>
        <time>2026-08-13T06:21:21.000Z</time>
        <extensions>
          <ns3:TrackPointExtension>
            <ns3:hr>83</ns3:hr>
            <ns3:cad>47</ns3:cad>
          </ns3:TrackPointExtension>
        </extensions>
      </trkpt>
      <trkpt lat="43.76088456250727176666259765625" lon="1.56688305549323558807373046875">
        <ele>165.1999969482421875</ele>
        <time>2026-08-13T06:21:22.000Z</time>
        <extensions>
          <ns3:TrackPointExtension>
            <ns3:hr>83</ns3:hr>
            <ns3:cad>47</ns3:cad>
          </ns3:TrackPointExtension>
        </extensions>
      </trkpt>
      <trkpt lat="43.760891854763031005859375" lon="1.5668792836368083953857421875">
        <ele>165.1999969482421875</ele>
        <time>2026-08-13T06:21:23.000Z</time>
        <extensions>
          <ns3:TrackPointExtension>
            <ns3:hr>83</ns3:hr>
            <ns3:cad>48</ns3:cad>
          </ns3:TrackPointExtension>
        </extensions>
      </trkpt>
      <trkpt lat="43.7608993984758853912353515625" lon="1.5668772719800472259521484375">
        <ele>165.399993896484375</ele>
        <time>2026-08-13T06:21:24.000Z</time>
        <extensions>
          <ns3:TrackPointExtension>
            <ns3:hr>83</ns3:hr>
            <ns3:cad>48</ns3:cad>
          </ns3:TrackPointExtension>
        </extensions>
      </trkpt>
      <trkpt lat="43.7609111331403255462646484375" lon="1.566867716610431671142578125">
        <ele>165.399993896484375</ele>
        <time>2026-08-13T06:21:25.000Z</time>
        <extensions>
          <ns3:TrackPointExtension>
            <ns3:hr>83</ns3:hr>
            <ns3:cad>48</ns3:cad>
          </ns3:TrackPointExtension>
        </extensions>
      </trkpt>
      <trkpt lat="43.76092345453798770904541015625" lon="1.56686344183981418609619140625">
        <ele>165.1999969482421875</ele>
        <time>2026-08-13T06:21:26.000Z</time>
        <extensions>
          <ns3:TrackPointExtension>
            <ns3:hr>83</ns3:hr>
            <ns3:cad>47</ns3:cad>
          </ns3:TrackPointExtension>
        </extensions>
      </trkpt>
      <trkpt lat="43.76093007624149322509765625" lon="1.56686008907854557037353515625">
        <ele>165.1999969482421875</ele>
        <time>2026-08-13T06:21:27.000Z</time>
        <extensions>
          <ns3:TrackPointExtension>
            <ns3:hr>82</ns3:hr>
            <ns3:cad>47</ns3:cad>
          </ns3:TrackPointExtension>
        </extensions>
      </trkpt>
      <trkpt lat="43.7609369494020938873291015625" lon="1.56686092726886272430419921875">
        <ele>165.1999969482421875</ele>
        <time>2026-08-13T06:21:28.000Z</time>
        <extensions>
          <ns3:TrackPointExtension>
            <ns3:hr>82</ns3:hr>
            <ns3:cad>47</ns3:cad>
          </ns3:TrackPointExtension>
        </extensions>
      </trkpt>
      <trkpt lat="43.76094843260943889617919921875" lon="1.5668566524982452392578125">
        <ele>165.1999969482421875</ele>
        <time>2026-08-13T06:21:29.000Z</time>
        <extensions>
          <ns3:TrackPointExtension>
            <ns3:hr>82</ns3:hr>
            <ns3:cad>47</ns3:cad>
          </ns3:TrackPointExtension>
        </extensions>
      </trkpt>
      <trkpt lat="43.7609629333019256591796875" lon="1.5668507851660251617431640625">
        <ele>165.1999969482421875</ele>
        <time>2026-08-13T06:21:30.000Z</time>
        <extensions>
          <ns3:TrackPointExtension>
            <ns3:hr>83</ns3:hr>
            <ns3:cad>47</ns3:cad>
          </ns3:TrackPointExtension>
        </extensions>
      </trkpt>
      <trkpt lat="43.760972321033477783203125" lon="1.56684634275734424591064453125">
        <ele>165.1999969482421875</ele>
        <time>2026-08-13T06:21:31.000Z</time>
        <extensions>
          <ns3:TrackPointExtension>
            <ns3:hr>83</ns3:hr>
            <ns3:cad>48</ns3:cad>
          </ns3:TrackPointExtension>
        </extensions>
      </trkpt>
      <trkpt lat="43.7609817087650299072265625" lon="1.56684399582445621490478515625">
        <ele>165.1999969482421875</ele>
        <time>2026-08-13T06:21:32.000Z</time>
        <extensions>
          <ns3:TrackPointExtension>
            <ns3:hr>83</ns3:hr>
            <ns3:cad>47</ns3:cad>
          </ns3:TrackPointExtension>
        </extensions>
      </trkpt>
      <trkpt lat="43.76099436543881893157958984375" lon="1.56683796085417270660400390625">
        <ele>165.1999969482421875</ele>
        <time>2026-08-13T06:21:33.000Z</time>
        <extensions>
          <ns3:TrackPointExtension>
            <ns3:hr>83</ns3:hr>
            <ns3:cad>47</ns3:cad>
          </ns3:TrackPointExtension>
        </extensions>
      </trkpt>
      <trkpt lat="43.76100760884582996368408203125" lon="1.56683259643614292144775390625">
        <ele>165.1999969482421875</ele>
        <time>2026-08-13T06:21:34.000Z</time>
        <extensions>
          <ns3:TrackPointExtension>
            <ns3:hr>82</ns3:hr>
            <ns3:cad>47</ns3:cad>
          </ns3:TrackPointExtension>
        </extensions>
      </trkpt>
      <trkpt lat="43.76101431436836719512939453125" lon="1.5668283216655254364013671875">
        <ele>165.1999969482421875</ele>
        <time>2026-08-13T06:21:35.000Z</time>
        <extensions>
          <ns3:TrackPointExtension>
            <ns3:hr>82</ns3:hr>
            <ns3:cad>46</ns3:cad>
          </ns3:TrackPointExtension>
        </extensions>
      </trkpt>
      <trkpt lat="43.7610217742621898651123046875" lon="1.56682111322879791259765625">
        <ele>165.1999969482421875</ele>
        <time>2026-08-13T06:21:36.000Z</time>
        <extensions>
          <ns3:TrackPointExtension>
            <ns3:hr>82</ns3:hr>
            <ns3:cad>46</ns3:cad>
          </ns3:TrackPointExtension>
        </extensions>
      </trkpt>
      <trkpt lat="43.7610298208892345428466796875" lon="1.566818095743656158447265625">
        <ele>165.1999969482421875</ele>
        <time>2026-08-13T06:21:37.000Z</time>
        <extensions>
          <ns3:TrackPointExtension>
            <ns3:hr>82</ns3:hr>
            <ns3:cad>47</ns3:cad>
          </ns3:TrackPointExtension>
        </extensions>
      </trkpt>
      <trkpt lat="43.76104298047721385955810546875" lon="1.56681281514465808868408203125">
        <ele>165.1999969482421875</ele>
        <time>2026-08-13T06:21:38.000Z</time>
        <extensions>
          <ns3:TrackPointExtension>
            <ns3:hr>81</ns3:hr>
            <ns3:cad>47</ns3:cad>
          </ns3:TrackPointExtension>
        </extensions>
      </trkpt>
      <trkpt lat="43.76105421222746372222900390625" lon="1.5668045170605182647705078125">
        <ele>165.399993896484375</ele>
        <time>2026-08-13T06:21:39.000Z</time>
        <extensions>
          <ns3:TrackPointExtension>
            <ns3:hr>81</ns3:hr>
            <ns3:cad>45</ns3:cad>
          </ns3:TrackPointExtension>
        </extensions>
      </trkpt>
      <trkpt lat="43.761059828102588653564453125" lon="1.56680191867053508758544921875">
        <ele>165.399993896484375</ele>
        <time>2026-08-13T06:21:40.000Z</time>
        <extensions>
          <ns3:TrackPointExtension>
            <ns3:hr>80</ns3:hr>
            <ns3:cad>45</ns3:cad>
          </ns3:TrackPointExtension>
        </extensions>
      </trkpt>
      <trkpt lat="43.76106879673898220062255859375" lon="1.56679923646152019500732421875">
        <ele>165.399993896484375</ele>
        <time>2026-08-13T06:21:41.000Z</time>
        <extensions>
          <ns3:TrackPointExtension>
            <ns3:hr>80</ns3:hr>
            <ns3:cad>45</ns3:cad>
          </ns3:TrackPointExtension>
        </extensions>
      </trkpt>
      <trkpt lat="43.76107969321310520172119140625" lon="1.56679202802479267120361328125">
        <ele>165.399993896484375</ele>
        <time>2026-08-13T06:21:42.000Z</time>
        <extensions>
          <ns3:TrackPointExtension>
            <ns3:hr>80</ns3:hr>
            <ns3:cad>44</ns3:cad>
          </ns3:TrackPointExtension>
        </extensions>
      </trkpt>
      <trkpt lat="43.7610915116965770721435546875" lon="1.5667790360748767852783203125">
        <ele>165.399993896484375</ele>
        <time>2026-08-13T06:21:43.000Z</time>
        <extensions>
          <ns3:TrackPointExtension>
            <ns3:hr>81</ns3:hr>
            <ns3:cad>44</ns3:cad>
          </ns3:TrackPointExtension>
        </extensions>
      </trkpt>
      <trkpt lat="43.7611005641520023345947265625" lon="1.566770486533641815185546875">
        <ele>165.399993896484375</ele>
        <time>2026-08-13T06:21:44.000Z</time>
        <extensions>
          <ns3:TrackPointExtension>
            <ns3:hr>81</ns3:hr>
            <ns3:cad>44</ns3:cad>
          </ns3:TrackPointExtension>
        </extensions>
      </trkpt>
      <trkpt lat="43.76110517419874668121337890625" lon="1.5667716600000858306884765625">
        <ele>165.399993896484375</ele>
        <time>2026-08-13T06:21:45.000Z</time>
        <extensions>
          <ns3:TrackPointExtension>
            <ns3:hr>81</ns3:hr>
            <ns3:cad>44</ns3:cad>
          </ns3:TrackPointExtension>
        </extensions>
      </trkpt>
      <trkpt lat="43.76111322082579135894775390625" lon="1.56676746904850006103515625">
        <ele>165.399993896484375</ele>
        <time>2026-08-13T06:21:46.000Z</time>
        <extensions>
          <ns3:TrackPointExtension>
            <ns3:hr>81</ns3:hr>
            <ns3:cad>44</ns3:cad>
          </ns3:TrackPointExtension>
        </extensions>
      </trkpt>
      <trkpt lat="43.76112445257604122161865234375" lon="1.56676000915467739105224609375">
        <ele>165.600006103515625</ele>
        <time>2026-08-13T06:21:47.000Z</time>
        <extensions>
          <ns3:TrackPointExtension>
            <ns3:hr>81</ns3:hr>
            <ns3:cad>44</ns3:cad>
          </ns3:TrackPointExtension>
        </extensions>
      </trkpt>
      <trkpt lat="43.76113417558372020721435546875" lon="1.566750369966030120849609375">
        <ele>165.600006103515625</ele>
        <time>2026-08-13T06:21:48.000Z</time>
        <extensions>
          <ns3:TrackPointExtension>
            <ns3:hr>81</ns3:hr>
            <ns3:cad>44</ns3:cad>
          </ns3:TrackPointExtension>
        </extensions>
      </trkpt>
      <trkpt lat="43.76114255748689174652099609375" lon="1.56674869358539581298828125">
        <ele>165.600006103515625</ele>
        <time>2026-08-13T06:21:49.000Z</time>
        <extensions>
          <ns3:TrackPointExtension>
            <ns3:hr>82</ns3:hr>
            <ns3:cad>44</ns3:cad>
          </ns3:TrackPointExtension>
        </extensions>
      </trkpt>
      <trkpt lat="43.76115093939006328582763671875" lon="1.56674006022512912750244140625">
        <ele>165.600006103515625</ele>
        <time>2026-08-13T06:21:50.000Z</time>
        <extensions>
          <ns3:TrackPointExtension>
            <ns3:hr>82</ns3:hr>
            <ns3:cad>45</ns3:cad>
          </ns3:TrackPointExtension>
        </extensions>
      </trkpt>
      <trkpt lat="43.7611646018922328948974609375" lon="1.5667297504842281341552734375">
        <ele>165.600006103515625</ele>
        <time>2026-08-13T06:21:51.000Z</time>
        <extensions>
          <ns3:TrackPointExtension>
            <ns3:hr>83</ns3:hr>
            <ns3:cad>46</ns3:cad>
          </ns3:TrackPointExtension>
        </extensions>
      </trkpt>
      <trkpt lat="43.7611726485192775726318359375" lon="1.566728241741657257080078125">
        <ele>165.600006103515625</ele>
        <time>2026-08-13T06:21:52.000Z</time>
        <extensions>
          <ns3:TrackPointExtension>
            <ns3:hr>83</ns3:hr>
            <ns3:cad>46</ns3:cad>
          </ns3:TrackPointExtension>
        </extensions>
      </trkpt>
      <trkpt lat="43.76118446700274944305419921875" lon="1.5667263977229595184326171875">
        <ele>165.8000030517578125</ele>
        <time>2026-08-13T06:21:53.000Z</time>
        <extensions>
          <ns3:TrackPointExtension>
            <ns3:hr>83</ns3:hr>
            <ns3:cad>45</ns3:cad>
          </ns3:TrackPointExtension>
        </extensions>
      </trkpt>
      <trkpt lat="43.76119184307754039764404296875" lon="1.56672053039073944091796875">
        <ele>165.8000030517578125</ele>
        <time>2026-08-13T06:21:54.000Z</time>
        <extensions>
          <ns3:TrackPointExtension>
            <ns3:hr>83</ns3:hr>
            <ns3:cad>45</ns3:cad>
          </ns3:TrackPointExtension>
        </extensions>
      </trkpt>
      <trkpt lat="43.76120273955166339874267578125" lon="1.566714160144329071044921875">
        <ele>165.8000030517578125</ele>
        <time>2026-08-13T06:21:55.000Z</time>
        <extensions>
          <ns3:TrackPointExtension>
            <ns3:hr>84</ns3:hr>
            <ns3:cad>45</ns3:cad>
          </ns3:TrackPointExtension>
        </extensions>
      </trkpt>
      <trkpt lat="43.76121078617870807647705078125" lon="1.56670887954533100128173828125">
        <ele>166</ele>
        <time>2026-08-13T06:21:56.000Z</time>
        <extensions>
          <ns3:TrackPointExtension>
            <ns3:hr>83</ns3:hr>
            <ns3:cad>45</ns3:cad>
          </ns3:TrackPointExtension>
        </extensions>
      </trkpt>
      <trkpt lat="43.761215396225452423095703125" lon="1.56670418567955493927001953125">
        <ele>166</ele>
        <time>2026-08-13T06:21:57.000Z</time>
        <extensions>
          <ns3:TrackPointExtension>
            <ns3:hr>83</ns3:hr>
            <ns3:cad>44</ns3:cad>
          </ns3:TrackPointExtension>
        </extensions>
      </trkpt>
      <trkpt lat="43.761229477822780609130859375" lon="1.5666999109089374542236328125">
        <ele>166</ele>
        <time>2026-08-13T06:21:58.000Z</time>
        <extensions>
          <ns3:TrackPointExtension>
            <ns3:hr>84</ns3:hr>
            <ns3:cad>44</ns3:cad>
          </ns3:TrackPointExtension>
        </extensions>
      </trkpt>
      <trkpt lat="43.761242218315601348876953125" lon="1.5666955523192882537841796875">
        <ele>166</ele>
        <time>2026-08-13T06:21:59.000Z</time>
        <extensions>
          <ns3:TrackPointExtension>
            <ns3:hr>84</ns3:hr>
            <ns3:cad>44</ns3:cad>
          </ns3:TrackPointExtension>
        </extensions>
      </trkpt>
      <trkpt lat="43.7612500973045825958251953125" lon="1.56669546850025653839111328125">
        <ele>166</ele>
        <time>2026-08-13T06:22:00.000Z</time>
        <extensions>
          <ns3:TrackPointExtension>
            <ns3:hr>84</ns3:hr>
            <ns3:cad>44</ns3:cad>
          </ns3:TrackPointExtension>
        </extensions>
      </trkpt>
      <trkpt lat="43.7612552940845489501953125" lon="1.56669245101511478424072265625">
        <ele>166</ele>
        <time>2026-08-13T06:22:01.000Z</time>
        <extensions>
          <ns3:TrackPointExtension>
            <ns3:hr>84</ns3:hr>
            <ns3:cad>44</ns3:cad>
          </ns3:TrackPointExtension>
        </extensions>
      </trkpt>
      <trkpt lat="43.761269710958003997802734375" lon="1.56669077463448047637939453125">
        <ele>166</ele>
        <time>2026-08-13T06:22:02.000Z</time>
        <extensions>
          <ns3:TrackPointExtension>
            <ns3:hr>84</ns3:hr>
            <ns3:cad>44</ns3:cad>
          </ns3:TrackPointExtension>
        </extensions>
      </trkpt>
      <trkpt lat="43.76127884723246097564697265625" lon="1.5666871704161167144775390625">
        <ele>166</ele>
        <time>2026-08-13T06:22:03.000Z</time>
        <extensions>
          <ns3:TrackPointExtension>
            <ns3:hr>85</ns3:hr>
            <ns3:cad>45</ns3:cad>
          </ns3:TrackPointExtension>
        </extensions>
      </trkpt>
      <trkpt lat="43.76128689385950565338134765625" lon="1.5666858293116092681884765625">
        <ele>166</ele>
        <time>2026-08-13T06:22:04.000Z</time>
        <extensions>
          <ns3:TrackPointExtension>
            <ns3:hr>85</ns3:hr>
            <ns3:cad>45</ns3:cad>
          </ns3:TrackPointExtension>
        </extensions>
      </trkpt>
      <trkpt lat="43.76129426993429660797119140625" lon="1.5666818059980869293212890625">
        <ele>166</ele>
        <time>2026-08-13T06:22:05.000Z</time>
        <extensions>
          <ns3:TrackPointExtension>
            <ns3:hr>85</ns3:hr>
            <ns3:cad>45</ns3:cad>
          </ns3:TrackPointExtension>
        </extensions>
      </trkpt>
      <trkpt lat="43.76130600459873676300048828125" lon="1.5666796267032623291015625">
        <ele>166</ele>
        <time>2026-08-13T06:22:06.000Z</time>
        <extensions>
          <ns3:TrackPointExtension>
            <ns3:hr>85</ns3:hr>
            <ns3:cad>45</ns3:cad>
          </ns3:TrackPointExtension>
        </extensions>
      </trkpt>
      <trkpt lat="43.7613196671009063720703125" lon="1.566677279770374298095703125">
        <ele>166</ele>
        <time>2026-08-13T06:22:07.000Z</time>
        <extensions>
          <ns3:TrackPointExtension>
            <ns3:hr>86</ns3:hr>
            <ns3:cad>45</ns3:cad>
          </ns3:TrackPointExtension>
        </extensions>
      </trkpt>
      <trkpt lat="43.76132612116634845733642578125" lon="1.5666801296174526214599609375">
        <ele>165.8000030517578125</ele>
        <time>2026-08-13T06:22:08.000Z</time>
        <extensions>
          <ns3:TrackPointExtension>
            <ns3:hr>86</ns3:hr>
            <ns3:cad>45</ns3:cad>
          </ns3:TrackPointExtension>
        </extensions>
      </trkpt>
      <trkpt lat="43.761334754526615142822265625" lon="1.56668222509324550628662109375">
        <ele>165.8000030517578125</ele>
        <time>2026-08-13T06:22:09.000Z</time>
        <extensions>
          <ns3:TrackPointExtension>
            <ns3:hr>86</ns3:hr>
            <ns3:cad>45</ns3:cad>
          </ns3:TrackPointExtension>
        </extensions>
      </trkpt>
      <trkpt lat="43.76134506426751613616943359375" lon="1.566676609218120574951171875">
        <ele>165.8000030517578125</ele>
        <time>2026-08-13T06:22:10.000Z</time>
        <extensions>
          <ns3:TrackPointExtension>
            <ns3:hr>86</ns3:hr>
            <ns3:cad>45</ns3:cad>
          </ns3:TrackPointExtension>
        </extensions>
      </trkpt>
      <trkpt lat="43.76135663129389286041259765625" lon="1.56667082570493221282958984375">
        <ele>165.8000030517578125</ele>
        <time>2026-08-13T06:22:11.000Z</time>
        <extensions>
          <ns3:TrackPointExtension>
            <ns3:hr>86</ns3:hr>
            <ns3:cad>46</ns3:cad>
          </ns3:TrackPointExtension>
        </extensions>
      </trkpt>
      <trkpt lat="43.7613637559115886688232421875" lon="1.5666680596768856048583984375">
        <ele>165.8000030517578125</ele>
        <time>2026-08-13T06:22:12.000Z</time>
        <extensions>
          <ns3:TrackPointExtension>
            <ns3:hr>86</ns3:hr>
            <ns3:cad>47</ns3:cad>
          </ns3:TrackPointExtension>
        </extensions>
      </trkpt>
      <trkpt lat="43.761370293796062469482421875" lon="1.56666663475334644317626953125">
        <ele>165.8000030517578125</ele>
        <time>2026-08-13T06:22:13.000Z</time>
        <extensions>
          <ns3:TrackPointExtension>
            <ns3:hr>87</ns3:hr>
            <ns3:cad>47</ns3:cad>
          </ns3:TrackPointExtension>
        </extensions>
      </trkpt>
      <trkpt lat="43.76138010062277317047119140625" lon="1.56666680239140987396240234375">
        <ele>165.8000030517578125</ele>
        <time>2026-08-13T06:22:14.000Z</time>
        <extensions>
          <ns3:TrackPointExtension>
            <ns3:hr>87</ns3:hr>
            <ns3:cad>44</ns3:cad>
          </ns3:TrackPointExtension>
        </extensions>
      </trkpt>
      <trkpt lat="43.7613932602107524871826171875" lon="1.5666626952588558197021484375">
        <ele>165.8000030517578125</ele>
        <time>2026-08-13T06:22:15.000Z</time>
        <extensions>
          <ns3:TrackPointExtension>
            <ns3:hr>87</ns3:hr>
            <ns3:cad>44</ns3:cad>
          </ns3:TrackPointExtension>
        </extensions>
      </trkpt>
      <trkpt lat="43.76140273176133632659912109375" lon="1.5666606836020946502685546875">
        <ele>165.8000030517578125</ele>
        <time>2026-08-13T06:22:16.000Z</time>
        <extensions>
          <ns3:TrackPointExtension>
            <ns3:hr>87</ns3:hr>
            <ns3:cad>44</ns3:cad>
          </ns3:TrackPointExtension>
        </extensions>
      </trkpt>
      <trkpt lat="43.76140809617936611175537109375" lon="1.56666093505918979644775390625">
        <ele>165.8000030517578125</ele>
        <time>2026-08-13T06:22:17.000Z</time>
        <extensions>
          <ns3:TrackPointExtension>
            <ns3:hr>87</ns3:hr>
            <ns3:cad>44</ns3:cad>
          </ns3:TrackPointExtension>
        </extensions>
      </trkpt>
      <trkpt lat="43.7614163942635059356689453125" lon="1.56666177324950695037841796875">
        <ele>165.8000030517578125</ele>
        <time>2026-08-13T06:22:18.000Z</time>
        <extensions>
          <ns3:TrackPointExtension>
            <ns3:hr>86</ns3:hr>
            <ns3:cad>44</ns3:cad>
          </ns3:TrackPointExtension>
        </extensions>
      </trkpt>
      <trkpt lat="43.7614257819950580596923828125" lon="1.56665372662246227264404296875">
        <ele>165.8000030517578125</ele>
        <time>2026-08-13T06:22:19.000Z</time>
        <extensions>
          <ns3:TrackPointExtension>
            <ns3:hr>86</ns3:hr>
            <ns3:cad>44</ns3:cad>
          </ns3:TrackPointExtension>
        </extensions>
      </trkpt>
      <trkpt lat="43.761444725096225738525390625" lon="1.5666405670344829559326171875">
        <ele>165.8000030517578125</ele>
        <time>2026-08-13T06:22:20.000Z</time>
        <extensions>
          <ns3:TrackPointExtension>
            <ns3:hr>86</ns3:hr>
            <ns3:cad>44</ns3:cad>
          </ns3:TrackPointExtension>
        </extensions>
      </trkpt>
      <trkpt lat="43.7614526040852069854736328125" lon="1.566640399396419525146484375">
        <ele>165.8000030517578125</ele>
        <time>2026-08-13T06:22:21.000Z</time>
        <extensions>
          <ns3:TrackPointExtension>
            <ns3:hr>86</ns3:hr>
            <ns3:cad>44</ns3:cad>
          </ns3:TrackPointExtension>
        </extensions>
      </trkpt>
      <trkpt lat="43.76145771704614162445068359375" lon="1.566636376082897186279296875">
        <ele>165.8000030517578125</ele>
        <time>2026-08-13T06:22:22.000Z</time>
        <extensions>
          <ns3:TrackPointExtension>
            <ns3:hr>86</ns3:hr>
            <ns3:cad>44</ns3:cad>
          </ns3:TrackPointExtension>
        </extensions>
      </trkpt>
      <trkpt lat="43.7614723853766918182373046875" lon="1.5666248090565204620361328125">
        <ele>165.8000030517578125</ele>
        <time>2026-08-13T06:22:23.000Z</time>
        <extensions>
          <ns3:TrackPointExtension>
            <ns3:hr>86</ns3:hr>
            <ns3:cad>46</ns3:cad>
          </ns3:TrackPointExtension>
        </extensions>
      </trkpt>
      <trkpt lat="43.761484958231449127197265625" lon="1.566612906754016876220703125">
        <ele>165.600006103515625</ele>
        <time>2026-08-13T06:22:24.000Z</time>
        <extensions>
          <ns3:TrackPointExtension>
            <ns3:hr>85</ns3:hr>
            <ns3:cad>46</ns3:cad>
          </ns3:TrackPointExtension>
        </extensions>
      </trkpt>
      <trkpt lat="43.761496357619762420654296875" lon="1.56660242937505245208740234375">
        <ele>165.600006103515625</ele>
        <time>2026-08-13T06:22:25.000Z</time>
        <extensions>
          <ns3:TrackPointExtension>
            <ns3:hr>85</ns3:hr>
            <ns3:cad>46</ns3:cad>
          </ns3:TrackPointExtension>
        </extensions>
      </trkpt>
      <trkpt lat="43.7615079246461391448974609375" lon="1.566595472395420074462890625">
        <ele>165.600006103515625</ele>
        <time>2026-08-13T06:22:26.000Z</time>
        <extensions>
          <ns3:TrackPointExtension>
            <ns3:hr>85</ns3:hr>
            <ns3:cad>46</ns3:cad>
          </ns3:TrackPointExtension>
        </extensions>
      </trkpt>
      <trkpt lat="43.7615173123776912689208984375" lon="1.56658616848289966583251953125">
        <ele>165.600006103515625</ele>
        <time>2026-08-13T06:22:27.000Z</time>
        <extensions>
          <ns3:TrackPointExtension>
            <ns3:hr>85</ns3:hr>
            <ns3:cad>45</ns3:cad>
          </ns3:TrackPointExtension>
        </extensions>
      </trkpt>
      <trkpt lat="43.7615261971950531005859375" lon="1.5665778703987598419189453125">
        <ele>165.600006103515625</ele>
        <time>2026-08-13T06:22:28.000Z</time>
        <extensions>
          <ns3:TrackPointExtension>
            <ns3:hr>84</ns3:hr>
            <ns3:cad>44</ns3:cad>
          </ns3:TrackPointExtension>
        </extensions>
      </trkpt>
      <trkpt lat="43.7615337409079074859619140625" lon="1.566567309200763702392578125">
        <ele>165.600006103515625</ele>
        <time>2026-08-13T06:22:29.000Z</time>
        <extensions>
          <ns3:TrackPointExtension>
            <ns3:hr>84</ns3:hr>
            <ns3:cad>44</ns3:cad>
          </ns3:TrackPointExtension>
        </extensions>
      </trkpt>
      <trkpt lat="43.7615380994975566864013671875" lon="1.566558592021465301513671875">
        <ele>165.399993896484375</ele>
        <time>2026-08-13T06:22:30.000Z</time>
        <extensions>
          <ns3:TrackPointExtension>
            <ns3:hr>84</ns3:hr>
            <ns3:cad>47</ns3:cad>
          </ns3:TrackPointExtension>
        </extensions>
      </trkpt>
      <trkpt lat="43.76154069788753986358642578125" lon="1.56654995866119861602783203125">
        <ele>165.399993896484375</ele>
        <time>2026-08-13T06:22:31.000Z</time>
        <extensions>
          <ns3:TrackPointExtension>
            <ns3:hr>85</ns3:hr>
            <ns3:cad>47</ns3:cad>
          </ns3:TrackPointExtension>
        </extensions>
      </trkpt>
      <trkpt lat="43.76154706813395023345947265625" lon="1.5665428340435028076171875">
        <ele>165.399993896484375</ele>
        <time>2026-08-13T06:22:32.000Z</time>
        <extensions>
          <ns3:TrackPointExtension>
            <ns3:hr>84</ns3:hr>
            <ns3:cad>48</ns3:cad>
          </ns3:TrackPointExtension>
        </extensions>
      </trkpt>
      <trkpt lat="43.761557042598724365234375" lon="1.56653068028390407562255859375">
        <ele>165.1999969482421875</ele>
        <time>2026-08-13T06:22:33.000Z</time>
        <extensions>
          <ns3:TrackPointExtension>
            <ns3:hr>84</ns3:hr>
            <ns3:cad>48</ns3:cad>
          </ns3:TrackPointExtension>
        </extensions>
      </trkpt>
      <trkpt lat="43.76156307756900787353515625" lon="1.56651743687689304351806640625">
        <ele>165.1999969482421875</ele>
        <time>2026-08-13T06:22:34.000Z</time>
        <extensions>
          <ns3:TrackPointExtension>
            <ns3:hr>84</ns3:hr>
            <ns3:cad>48</ns3:cad>
          </ns3:TrackPointExtension>
        </extensions>
      </trkpt>
      <trkpt lat="43.7615699507296085357666015625" lon="1.56651131808757781982421875">
        <ele>165.1999969482421875</ele>
        <time>2026-08-13T06:22:35.000Z</time>
        <extensions>
          <ns3:TrackPointExtension>
            <ns3:hr>84</ns3:hr>
            <ns3:cad>47</ns3:cad>
          </ns3:TrackPointExtension>
        </extensions>
      </trkpt>
      <trkpt lat="43.76157036982476711273193359375" lon="1.56650251708924770355224609375">
        <ele>165.1999969482421875</ele>
        <time>2026-08-13T06:22:36.000Z</time>
        <extensions>
          <ns3:TrackPointExtension>
            <ns3:hr>84</ns3:hr>
            <ns3:cad>47</ns3:cad>
          </ns3:TrackPointExtension>
        </extensions>
      </trkpt>
      <trkpt lat="43.7615786679089069366455078125" lon="1.56649061478674411773681640625">
        <ele>165</ele>
        <time>2026-08-13T06:22:37.000Z</time>
        <extensions>
          <ns3:TrackPointExtension>
            <ns3:hr>83</ns3:hr>
            <ns3:cad>48</ns3:cad>
          </ns3:TrackPointExtension>
        </extensions>
      </trkpt>
      <trkpt lat="43.761588223278522491455078125" lon="1.56647770665585994720458984375">
        <ele>165</ele>
        <time>2026-08-13T06:22:38.000Z</time>
        <extensions>
          <ns3:TrackPointExtension>
            <ns3:hr>83</ns3:hr>
            <ns3:cad>48</ns3:cad>
          </ns3:TrackPointExtension>
        </extensions>
      </trkpt>
      <trkpt lat="43.76159266568720340728759765625" lon="1.56646764837205410003662109375">
        <ele>165</ele>
        <time>2026-08-13T06:22:39.000Z</time>
        <extensions>
          <ns3:TrackPointExtension>
            <ns3:hr>83</ns3:hr>
            <ns3:cad>47</ns3:cad>
          </ns3:TrackPointExtension>
        </extensions>
      </trkpt>
      <trkpt lat="43.76160062849521636962890625" lon="1.56645926646888256072998046875">
        <ele>165</ele>
        <time>2026-08-13T06:22:40.000Z</time>
        <extensions>
          <ns3:TrackPointExtension>
            <ns3:hr>83</ns3:hr>
            <ns3:cad>46</ns3:cad>
          </ns3:TrackPointExtension>
        </extensions>
      </trkpt>
      <trkpt lat="43.76161093823611736297607421875" lon="1.56645256094634532928466796875">
        <ele>165</ele>
        <time>2026-08-13T06:22:41.000Z</time>
        <extensions>
          <ns3:TrackPointExtension>
            <ns3:hr>82</ns3:hr>
            <ns3:cad>46</ns3:cad>
          </ns3:TrackPointExtension>
        </extensions>
      </trkpt>
      <trkpt lat="43.76161940395832061767578125" lon="1.56644292175769805908203125">
        <ele>164.8000030517578125</ele>
        <time>2026-08-13T06:22:42.000Z</time>
        <extensions>
          <ns3:TrackPointExtension>
            <ns3:hr>82</ns3:hr>
            <ns3:cad>47</ns3:cad>
          </ns3:TrackPointExtension>
        </extensions>
      </trkpt>
      <trkpt lat="43.7616319768130779266357421875" lon="1.56643512658774852752685546875">
        <ele>164.8000030517578125</ele>
        <time>2026-08-13T06:22:43.000Z</time>
        <extensions>
          <ns3:TrackPointExtension>
            <ns3:hr>82</ns3:hr>
            <ns3:cad>48</ns3:cad>
          </ns3:TrackPointExtension>
        </extensions>
      </trkpt>
      <trkpt lat="43.761640526354312896728515625" lon="1.56642741523683071136474609375">
        <ele>164.8000030517578125</ele>
        <time>2026-08-13T06:22:44.000Z</time>
        <extensions>
          <ns3:TrackPointExtension>
            <ns3:hr>82</ns3:hr>
            <ns3:cad>48</ns3:cad>
          </ns3:TrackPointExtension>
        </extensions>
      </trkpt>
      <trkpt lat="43.761650584638118743896484375" lon="1.566420458257198333740234375">
        <ele>164.8000030517578125</ele>
        <time>2026-08-13T06:22:45.000Z</time>
        <extensions>
          <ns3:TrackPointExtension>
            <ns3:hr>82</ns3:hr>
            <ns3:cad>48</ns3:cad>
          </ns3:TrackPointExtension>
        </extensions>
      </trkpt>
      <trkpt lat="43.76165770925581455230712890625" lon="1.56641635112464427947998046875">
        <ele>164.8000030517578125</ele>
        <time>2026-08-13T06:22:46.000Z</time>
        <extensions>
          <ns3:TrackPointExtension>
            <ns3:hr>82</ns3:hr>
            <ns3:cad>48</ns3:cad>
          </ns3:TrackPointExtension>
        </extensions>
      </trkpt>
      <trkpt lat="43.761666677892208099365234375" lon="1.56641207635402679443359375">
        <ele>164.600006103515625</ele>
        <time>2026-08-13T06:22:47.000Z</time>
        <extensions>
          <ns3:TrackPointExtension>
            <ns3:hr>81</ns3:hr>
            <ns3:cad>49</ns3:cad>
          </ns3:TrackPointExtension>
        </extensions>
      </trkpt>
      <trkpt lat="43.76168101094663143157958984375" lon="1.56639958731830120086669921875">
        <ele>164.600006103515625</ele>
        <time>2026-08-13T06:22:48.000Z</time>
        <extensions>
          <ns3:TrackPointExtension>
            <ns3:hr>81</ns3:hr>
            <ns3:cad>49</ns3:cad>
          </ns3:TrackPointExtension>
        </extensions>
      </trkpt>
      <trkpt lat="43.76169023104012012481689453125" lon="1.56639371998608112335205078125">
        <ele>164.600006103515625</ele>
        <time>2026-08-13T06:22:49.000Z</time>
        <extensions>
          <ns3:TrackPointExtension>
            <ns3:hr>81</ns3:hr>
            <ns3:cad>48</ns3:cad>
          </ns3:TrackPointExtension>
        </extensions>
      </trkpt>
      <trkpt lat="43.76170028932392597198486328125" lon="1.5663914568722248077392578125">
        <ele>164.600006103515625</ele>
        <time>2026-08-13T06:22:50.000Z</time>
        <extensions>
          <ns3:TrackPointExtension>
            <ns3:hr>81</ns3:hr>
            <ns3:cad>48</ns3:cad>
          </ns3:TrackPointExtension>
        </extensions>
      </trkpt>
      <trkpt lat="43.76171101815998554229736328125" lon="1.566392965614795684814453125">
        <ele>164.600006103515625</ele>
        <time>2026-08-13T06:22:51.000Z</time>
        <extensions>
          <ns3:TrackPointExtension>
            <ns3:hr>81</ns3:hr>
            <ns3:cad>48</ns3:cad>
          </ns3:TrackPointExtension>
        </extensions>
      </trkpt>
      <trkpt lat="43.7617147900164127349853515625" lon="1.56639690510928630828857421875">
        <ele>164.399993896484375</ele>
        <time>2026-08-13T06:22:52.000Z</time>
        <extensions>
          <ns3:TrackPointExtension>
            <ns3:hr>81</ns3:hr>
            <ns3:cad>48</ns3:cad>
          </ns3:TrackPointExtension>
        </extensions>
      </trkpt>
      <trkpt lat="43.76171587966382503509521484375" lon="1.56639908440411090850830078125">
        <ele>164.399993896484375</ele>
        <time>2026-08-13T06:22:53.000Z</time>
        <extensions>
          <ns3:TrackPointExtension>
            <ns3:hr>81</ns3:hr>
            <ns3:cad>48</ns3:cad>
          </ns3:TrackPointExtension>
        </extensions>
      </trkpt>
      <trkpt lat="43.7617166340351104736328125" lon="1.5664018504321575164794921875">
        <ele>164.399993896484375</ele>
        <time>2026-08-13T06:22:54.000Z</time>
        <extensions>
          <ns3:TrackPointExtension>
            <ns3:hr>81</ns3:hr>
            <ns3:cad>0</ns3:cad>
          </ns3:TrackPointExtension>
        </extensions>
      </trkpt>
      <trkpt lat="43.76171730458736419677734375" lon="1.566401682794094085693359375">
        <ele>164.399993896484375</ele>
        <time>2026-08-13T06:22:55.000Z</time>
        <extensions>
          <ns3:TrackPointExtension>
            <ns3:hr>81</ns3:hr>
            <ns3:cad>0</ns3:cad>
          </ns3:TrackPointExtension>
        </extensions>
      </trkpt>
      <trkpt lat="43.76171730458736419677734375" lon="1.566401682794094085693359375">
        <ele>164.399993896484375</ele>
        <time>2026-08-13T06:22:56.000Z</time>
        <extensions>
          <ns3:TrackPointExtension>
            <ns3:hr>81</ns3:hr>
            <ns3:cad>0</ns3:cad>
          </ns3:TrackPointExtension>
        </extensions>
      </trkpt>
      <trkpt lat="43.76171755604445934295654296875" lon="1.56640109606087207794189453125">
        <ele>164.399993896484375</ele>
        <time>2026-08-13T06:22:57.000Z</time>
        <extensions>
          <ns3:TrackPointExtension>
            <ns3:hr>80</ns3:hr>
            <ns3:cad>0</ns3:cad>
          </ns3:TrackPointExtension>
        </extensions>
      </trkpt>
      <trkpt lat="43.76171730458736419677734375" lon="1.56639925204217433929443359375">
        <ele>164.399993896484375</ele>
        <time>2026-08-13T06:22:58.000Z</time>
        <extensions>
          <ns3:TrackPointExtension>
            <ns3:hr>80</ns3:hr>
            <ns3:cad>0</ns3:cad>
          </ns3:TrackPointExtension>
        </extensions>
      </trkpt>
      <trkpt lat="43.761716298758983612060546875" lon="1.56639757566154003143310546875">
        <ele>164.399993896484375</ele>
        <time>2026-08-13T06:22:59.000Z</time>
        <extensions>
          <ns3:TrackPointExtension>
            <ns3:hr>80</ns3:hr>
            <ns3:cad>0</ns3:cad>
          </ns3:TrackPointExtension>
        </extensions>
      </trkpt>
      <trkpt lat="43.76171420328319072723388671875" lon="1.5663961507380008697509765625">
        <ele>164.399993896484375</ele>
        <time>2026-08-13T06:23:00.000Z</time>
        <extensions>
          <ns3:TrackPointExtension>
            <ns3:hr>80</ns3:hr>
            <ns3:cad>0</ns3:cad>
          </ns3:TrackPointExtension>
        </extensions>
      </trkpt>
      <trkpt lat="43.76171722076833248138427734375" lon="1.56638927757740020751953125">
        <ele>164.399993896484375</ele>
        <time>2026-08-13T06:23:01.000Z</time>
        <extensions>
          <ns3:TrackPointExtension>
            <ns3:hr>80</ns3:hr>
            <ns3:cad>0</ns3:cad>
          </ns3:TrackPointExtension>
        </extensions>
      </trkpt>
      <trkpt lat="43.76172007061541080474853515625" lon="1.56638785265386104583740234375">
        <ele>164.399993896484375</ele>
        <time>2026-08-13T06:23:02.000Z</time>
        <extensions>
          <ns3:TrackPointExtension>
            <ns3:hr>80</ns3:hr>
            <ns3:cad>0</ns3:cad>
          </ns3:TrackPointExtension>
        </extensions>
      </trkpt>
      <trkpt lat="43.76172442920506000518798828125" lon="1.56638550572097301483154296875">
        <ele>164.399993896484375</ele>
        <time>2026-08-13T06:23:03.000Z</time>
        <extensions>
          <ns3:TrackPointExtension>
            <ns3:hr>79</ns3:hr>
            <ns3:cad>0</ns3:cad>
          </ns3:TrackPointExtension>
        </extensions>
      </trkpt>
      <trkpt lat="43.76172275282442569732666015625" lon="1.56638718210160732269287109375">
        <ele>164.399993896484375</ele>
        <time>2026-08-13T06:23:04.000Z</time>
        <extensions>
          <ns3:TrackPointExtension>
            <ns3:hr>80</ns3:hr>
            <ns3:cad>0</ns3:cad>
          </ns3:TrackPointExtension>
        </extensions>
      </trkpt>
      <trkpt lat="43.761731050908565521240234375" lon="1.56638349406421184539794921875">
        <ele>164.399993896484375</ele>
        <time>2026-08-13T06:23:05.000Z</time>
        <extensions>
          <ns3:TrackPointExtension>
            <ns3:hr>80</ns3:hr>
            <ns3:cad>0</ns3:cad>
          </ns3:TrackPointExtension>
        </extensions>
      </trkpt>
      <trkpt lat="43.7617349065840244293212890625" lon="1.566382907330989837646484375">
        <ele>164.399993896484375</ele>
        <time>2026-08-13T06:23:06.000Z</time>
        <extensions>
          <ns3:TrackPointExtension>
            <ns3:hr>79</ns3:hr>
            <ns3:cad>0</ns3:cad>
          </ns3:TrackPointExtension>
        </extensions>
      </trkpt>
      <trkpt lat="43.76173951663076877593994140625" lon="1.56637930311262607574462890625">
        <ele>164.399993896484375</ele>
        <time>2026-08-13T06:23:07.000Z</time>
        <extensions>
          <ns3:TrackPointExtension>
            <ns3:hr>79</ns3:hr>
            <ns3:cad>0</ns3:cad>
          </ns3:TrackPointExtension>
        </extensions>
      </trkpt>
      <trkpt lat="43.76174219883978366851806640625" lon="1.56637980602681636810302734375">
        <ele>164.399993896484375</ele>
        <time>2026-08-13T06:23:08.000Z</time>
        <extensions>
          <ns3:TrackPointExtension>
            <ns3:hr>79</ns3:hr>
            <ns3:cad>0</ns3:cad>
          </ns3:TrackPointExtension>
        </extensions>
      </trkpt>
      <trkpt lat="43.761742450296878814697265625" lon="1.56637729145586490631103515625">
        <ele>164.399993896484375</ele>
        <time>2026-08-13T06:23:09.000Z</time>
        <extensions>
          <ns3:TrackPointExtension>
            <ns3:hr>79</ns3:hr>
            <ns3:cad>0</ns3:cad>
          </ns3:TrackPointExtension>
        </extensions>
      </trkpt>
      <trkpt lat="43.7617453001439571380615234375" lon="1.56637511216104030609130859375">
        <ele>164.600006103515625</ele>
        <time>2026-08-13T06:23:10.000Z</time>
        <extensions>
          <ns3:TrackPointExtension>
            <ns3:hr>79</ns3:hr>
            <ns3:cad>0</ns3:cad>
          </ns3:TrackPointExtension>
        </extensions>
      </trkpt>
      <trkpt lat="43.761745132505893707275390625" lon="1.566373519599437713623046875">
        <ele>164.600006103515625</ele>
        <time>2026-08-13T06:23:11.000Z</time>
        <extensions>
          <ns3:TrackPointExtension>
            <ns3:hr>78</ns3:hr>
            <ns3:cad>0</ns3:cad>
          </ns3:TrackPointExtension>
        </extensions>
      </trkpt>
      <trkpt lat="43.76174437813460826873779296875" lon="1.5663723461329936981201171875">
        <ele>164.600006103515625</ele>
        <time>2026-08-13T06:23:12.000Z</time>
        <extensions>
          <ns3:TrackPointExtension>
            <ns3:hr>79</ns3:hr>
            <ns3:cad>0</ns3:cad>
          </ns3:TrackPointExtension>
        </extensions>
      </trkpt>
      <trkpt lat="43.76174622215330600738525390625" lon="1.566371507942676544189453125">
        <ele>164.600006103515625</ele>
        <time>2026-08-13T06:23:13.000Z</time>
        <extensions>
          <ns3:TrackPointExtension>
            <ns3:hr>79</ns3:hr>
            <ns3:cad>0</ns3:cad>
          </ns3:TrackPointExtension>
        </extensions>
      </trkpt>
      <trkpt lat="43.76174504868686199188232421875" lon="1.5663710050284862518310546875">
        <ele>164.600006103515625</ele>
        <time>2026-08-13T06:23:14.000Z</time>
        <extensions>
          <ns3:TrackPointExtension>
            <ns3:hr>79</ns3:hr>
            <ns3:cad>0</ns3:cad>
          </ns3:TrackPointExtension>
        </extensions>
      </trkpt>
      <trkpt lat="43.7617422826588153839111328125" lon="1.56636823900043964385986328125">
        <ele>164.600006103515625</ele>
        <time>2026-08-13T06:23:15.000Z</time>
        <extensions>
          <ns3:TrackPointExtension>
            <ns3:hr>79</ns3:hr>
            <ns3:cad>0</ns3:cad>
          </ns3:TrackPointExtension>
        </extensions>
      </trkpt>
      <trkpt lat="43.76174169592559337615966796875" lon="1.5663703344762325286865234375">
        <ele>164.600006103515625</ele>
        <time>2026-08-13T06:23:16.000Z</time>
        <extensions>
          <ns3:TrackPointExtension>
            <ns3:hr>79</ns3:hr>
            <ns3:cad>0</ns3:cad>
          </ns3:TrackPointExtension>
        </extensions>
      </trkpt>
      <trkpt lat="43.76174169592559337615966796875" lon="1.56637242995202541351318359375">
        <ele>164.600006103515625</ele>
        <time>2026-08-13T06:23:17.000Z</time>
        <extensions>
          <ns3:TrackPointExtension>
            <ns3:hr>79</ns3:hr>
            <ns3:cad>0</ns3:cad>
          </ns3:TrackPointExtension>
        </extensions>
      </trkpt>
      <trkpt lat="43.76174303703010082244873046875" lon="1.56637184321880340576171875">
        <ele>164.600006103515625</ele>
        <time>2026-08-13T06:23:18.000Z</time>
        <extensions>
          <ns3:TrackPointExtension>
            <ns3:hr>76</ns3:hr>
            <ns3:cad>0</ns3:cad>
          </ns3:TrackPointExtension>
        </extensions>
      </trkpt>
      <trkpt lat="43.76174219883978366851806640625" lon="1.56637159176170825958251953125">
        <ele>164.600006103515625</ele>
        <time>2026-08-13T06:23:19.000Z</time>
        <extensions>
          <ns3:TrackPointExtension>
            <ns3:hr>71</ns3:hr>
            <ns3:cad>0</ns3:cad>
          </ns3:TrackPointExtension>
        </extensions>
      </trkpt>
      <trkpt lat="43.7617432884871959686279296875" lon="1.5663686580955982208251953125">
        <ele>164.600006103515625</ele>
        <time>2026-08-13T06:23:20.000Z</time>
        <extensions>
          <ns3:TrackPointExtension>
            <ns3:hr>69</ns3:hr>
            <ns3:cad>0</ns3:cad>
          </ns3:TrackPointExtension>
        </extensions>
      </trkpt>
      <trkpt lat="43.76174010336399078369140625" lon="1.56636605970561504364013671875">
        <ele>164.600006103515625</ele>
        <time>2026-08-13T06:23:21.000Z</time>
        <extensions>
          <ns3:TrackPointExtension>
            <ns3:hr>69</ns3:hr>
            <ns3:cad>0</ns3:cad>
          </ns3:TrackPointExtension>
        </extensions>
      </trkpt>
      <trkpt lat="43.7617426179349422454833984375" lon="1.5663609467446804046630859375">
        <ele>164.600006103515625</ele>
        <time>2026-08-13T06:23:22.000Z</time>
        <extensions>
          <ns3:TrackPointExtension>
            <ns3:hr>70</ns3:hr>
            <ns3:cad>0</ns3:cad>
          </ns3:TrackPointExtension>
        </extensions>
      </trkpt>
      <trkpt lat="43.761747144162654876708984375" lon="1.5663604438304901123046875">
        <ele>164.399993896484375</ele>
        <time>2026-08-13T06:23:23.000Z</time>
        <extensions>
          <ns3:TrackPointExtension>
            <ns3:hr>71</ns3:hr>
            <ns3:cad>0</ns3:cad>
          </ns3:TrackPointExtension>
        </extensions>
      </trkpt>
      <trkpt lat="43.7617496587336063385009765625" lon="1.5663562528789043426513671875">
        <ele>164.399993896484375</ele>
        <time>2026-08-13T06:23:24.000Z</time>
        <extensions>
          <ns3:TrackPointExtension>
            <ns3:hr>72</ns3:hr>
            <ns3:cad>0</ns3:cad>
          </ns3:TrackPointExtension>
        </extensions>
      </trkpt>
      <trkpt lat="43.76175510697066783905029296875" lon="1.5663552470505237579345703125">
        <ele>164.399993896484375</ele>
        <time>2026-08-13T06:23:25.000Z</time>
        <extensions>
          <ns3:TrackPointExtension>
            <ns3:hr>72</ns3:hr>
            <ns3:cad>0</ns3:cad>
          </ns3:TrackPointExtension>
        </extensions>
      </trkpt>
      <trkpt lat="43.7617595493793487548828125" lon="1.5663542412221431732177734375">
        <ele>164.399993896484375</ele>
        <time>2026-08-13T06:23:26.000Z</time>
        <extensions>
          <ns3:TrackPointExtension>
            <ns3:hr>73</ns3:hr>
            <ns3:cad>0</ns3:cad>
          </ns3:TrackPointExtension>
        </extensions>
      </trkpt>
      <trkpt lat="43.76176315359771251678466796875" lon="1.56635306775569915771484375">
        <ele>164.399993896484375</ele>
        <time>2026-08-13T06:23:27.000Z</time>
        <extensions>
          <ns3:TrackPointExtension>
            <ns3:hr>73</ns3:hr>
            <ns3:cad>0</ns3:cad>
          </ns3:TrackPointExtension>
        </extensions>
      </trkpt>
      <trkpt lat="43.76176868565380573272705078125" lon="1.56635432504117488861083984375">
        <ele>164.399993896484375</ele>
        <time>2026-08-13T06:23:28.000Z</time>
        <extensions>
          <ns3:TrackPointExtension>
            <ns3:hr>73</ns3:hr>
            <ns3:cad>0</ns3:cad>
          </ns3:TrackPointExtension>
        </extensions>
      </trkpt>
      <trkpt lat="43.7617717869579792022705078125" lon="1.5663523972034454345703125">
        <ele>164.399993896484375</ele>
        <time>2026-08-13T06:23:29.000Z</time>
        <extensions>
          <ns3:TrackPointExtension>
            <ns3:hr>73</ns3:hr>
            <ns3:cad>0</ns3:cad>
          </ns3:TrackPointExtension>
        </extensions>
      </trkpt>
      <trkpt lat="43.761775977909564971923828125" lon="1.56635038554668426513671875">
        <ele>164.399993896484375</ele>
        <time>2026-08-13T06:23:30.000Z</time>
        <extensions>
          <ns3:TrackPointExtension>
            <ns3:hr>72</ns3:hr>
            <ns3:cad>0</ns3:cad>
          </ns3:TrackPointExtension>
        </extensions>
      </trkpt>
      <trkpt lat="43.76177941448986530303955078125" lon="1.56634661369025707244873046875">
        <ele>164.399993896484375</ele>
        <time>2026-08-13T06:23:31.000Z</time>
        <extensions>
          <ns3:TrackPointExtension>
            <ns3:hr>72</ns3:hr>
            <ns3:cad>0</ns3:cad>
          </ns3:TrackPointExtension>
        </extensions>
      </trkpt>
      <trkpt lat="43.7617811746895313262939453125" lon="1.56634627841413021087646484375">
        <ele>164.399993896484375</ele>
        <time>2026-08-13T06:23:32.000Z</time>
        <extensions>
          <ns3:TrackPointExtension>
            <ns3:hr>72</ns3:hr>
            <ns3:cad>0</ns3:cad>
          </ns3:TrackPointExtension>
        </extensions>
      </trkpt>
      <trkpt lat="43.76178142614662647247314453125" lon="1.566344015300273895263671875">
        <ele>164.399993896484375</ele>
        <time>2026-08-13T06:23:33.000Z</time>
        <extensions>
          <ns3:TrackPointExtension>
            <ns3:hr>72</ns3:hr>
            <ns3:cad>0</ns3:cad>
          </ns3:TrackPointExtension>
        </extensions>
      </trkpt>
      <trkpt lat="43.76178142614662647247314453125" lon="1.5663438476622104644775390625">
        <ele>164.399993896484375</ele>
        <time>2026-08-13T06:23:34.000Z</time>
        <extensions>
          <ns3:TrackPointExtension>
            <ns3:hr>69</ns3:hr>
            <ns3:cad>0</ns3:cad>
          </ns3:TrackPointExtension>
        </extensions>
      </trkpt>
      <trkpt lat="43.76178142614662647247314453125" lon="1.5663438476622104644775390625">
        <ele>164.1999969482421875</ele>
        <time>2026-08-13T06:23:35.000Z</time>
        <extensions>
          <ns3:TrackPointExtension>
            <ns3:hr>68</ns3:hr>
            <ns3:cad>0</ns3:cad>
          </ns3:TrackPointExtension>
        </extensions>
      </trkpt>
      <trkpt lat="43.76178142614662647247314453125" lon="1.5663438476622104644775390625">
        <ele>164.1999969482421875</ele>
        <time>2026-08-13T06:23:36.000Z</time>
        <extensions>
          <ns3:TrackPointExtension>
            <ns3:hr>68</ns3:hr>
            <ns3:cad>0</ns3:cad>
          </ns3:TrackPointExtension>
        </extensions>
      </trkpt>
      <trkpt lat="43.76178142614662647247314453125" lon="1.5663438476622104644775390625">
        <ele>164.1999969482421875</ele>
        <time>2026-08-13T06:23:37.000Z</time>
        <extensions>
          <ns3:TrackPointExtension>
            <ns3:hr>67</ns3:hr>
            <ns3:cad>0</ns3:cad>
          </ns3:TrackPointExtension>
        </extensions>
      </trkpt>
      <trkpt lat="43.76178142614662647247314453125" lon="1.5663438476622104644775390625">
        <ele>164.1999969482421875</ele>
        <time>2026-08-13T06:23:38.000Z</time>
        <extensions>
          <ns3:TrackPointExtension>
            <ns3:hr>67</ns3:hr>
            <ns3:cad>0</ns3:cad>
          </ns3:TrackPointExtension>
        </extensions>
      </trkpt>
      <trkpt lat="43.76178142614662647247314453125" lon="1.5663438476622104644775390625">
        <ele>164.1999969482421875</ele>
        <time>2026-08-13T06:23:39.000Z</time>
        <extensions>
          <ns3:TrackPointExtension>
            <ns3:hr>66</ns3:hr>
            <ns3:cad>0</ns3:cad>
          </ns3:TrackPointExtension>
        </extensions>
      </trkpt>
      <trkpt lat="43.76178142614662647247314453125" lon="1.5663438476622104644775390625">
        <ele>164.399993896484375</ele>
        <time>2026-08-13T06:23:40.000Z</time>
        <extensions>
          <ns3:TrackPointExtension>
            <ns3:hr>66</ns3:hr>
            <ns3:cad>0</ns3:cad>
          </ns3:TrackPointExtension>
        </extensions>
      </trkpt>
      <trkpt lat="43.76178142614662647247314453125" lon="1.5663438476622104644775390625">
        <ele>164.399993896484375</ele>
        <time>2026-08-13T06:23:41.000Z</time>
        <extensions>
          <ns3:TrackPointExtension>
            <ns3:hr>65</ns3:hr>
            <ns3:cad>0</ns3:cad>
          </ns3:TrackPointExtension>
        </extensions>
      </trkpt>
      <trkpt lat="43.76178142614662647247314453125" lon="1.5663438476622104644775390625">
        <ele>164.399993896484375</ele>
        <time>2026-08-13T06:23:42.000Z</time>
        <extensions>
          <ns3:TrackPointExtension>
            <ns3:hr>65</ns3:hr>
            <ns3:cad>0</ns3:cad>
          </ns3:TrackPointExtension>
        </extensions>
      </trkpt>
      <trkpt lat="43.76178142614662647247314453125" lon="1.5663438476622104644775390625">
        <ele>164.399993896484375</ele>
        <time>2026-08-13T06:23:43.000Z</time>
        <extensions>
          <ns3:TrackPointExtension>
            <ns3:hr>64</ns3:hr>
            <ns3:cad>0</ns3:cad>
          </ns3:TrackPointExtension>
        </extensions>
      </trkpt>
      <trkpt lat="43.76178142614662647247314453125" lon="1.5663438476622104644775390625">
        <ele>164.399993896484375</ele>
        <time>2026-08-13T06:23:44.000Z</time>
        <extensions>
          <ns3:TrackPointExtension>
            <ns3:hr>63</ns3:hr>
            <ns3:cad>0</ns3:cad>
          </ns3:TrackPointExtension>
        </extensions>
      </trkpt>
      <trkpt lat="43.76178142614662647247314453125" lon="1.5663438476622104644775390625">
        <ele>164.399993896484375</ele>
        <time>2026-08-13T06:23:45.000Z</time>
        <extensions>
          <ns3:TrackPointExtension>
            <ns3:hr>63</ns3:hr>
            <ns3:cad>0</ns3:cad>
          </ns3:TrackPointExtension>
        </extensions>
      </trkpt>
      <trkpt lat="43.76178142614662647247314453125" lon="1.5663438476622104644775390625">
        <ele>164.399993896484375</ele>
        <time>2026-08-13T06:23:46.000Z</time>
        <extensions>
          <ns3:TrackPointExtension>
            <ns3:hr>62</ns3:hr>
            <ns3:cad>0</ns3:cad>
          </ns3:TrackPointExtension>
        </extensions>
      </trkpt>
      <trkpt lat="43.76178142614662647247314453125" lon="1.5663438476622104644775390625">
        <ele>164.1999969482421875</ele>
        <time>2026-08-13T06:23:47.000Z</time>
        <extensions>
          <ns3:TrackPointExtension>
            <ns3:hr>61</ns3:hr>
            <ns3:cad>0</ns3:cad>
          </ns3:TrackPointExtension>
        </extensions>
      </trkpt>
      <trkpt lat="43.76178142614662647247314453125" lon="1.5663438476622104644775390625">
        <ele>164.1999969482421875</ele>
        <time>2026-08-13T06:23:48.000Z</time>
        <extensions>
          <ns3:TrackPointExtension>
            <ns3:hr>61</ns3:hr>
            <ns3:cad>0</ns3:cad>
          </ns3:TrackPointExtension>
        </extensions>
      </trkpt>
      <trkpt lat="43.76178142614662647247314453125" lon="1.5663438476622104644775390625">
        <ele>164.1999969482421875</ele>
        <time>2026-08-13T06:23:49.000Z</time>
        <extensions>
          <ns3:TrackPointExtension>
            <ns3:hr>60</ns3:hr>
            <ns3:cad>0</ns3:cad>
          </ns3:TrackPointExtension>
        </extensions>
      </trkpt>
      <trkpt lat="43.76178142614662647247314453125" lon="1.5663438476622104644775390625">
        <ele>164</ele>
        <time>2026-08-13T06:23:50.000Z</time>
        <extensions>
          <ns3:TrackPointExtension>
            <ns3:hr>60</ns3:hr>
            <ns3:cad>0</ns3:cad>
          </ns3:TrackPointExtension>
        </extensions>
      </trkpt>
      <trkpt lat="43.76178142614662647247314453125" lon="1.5663438476622104644775390625">
        <ele>164</ele>
        <time>2026-08-13T06:23:51.000Z</time>
        <extensions>
          <ns3:TrackPointExtension>
            <ns3:hr>60</ns3:hr>
            <ns3:cad>0</ns3:cad>
          </ns3:TrackPointExtension>
        </extensions>
      </trkpt>
      <trkpt lat="43.76178142614662647247314453125" lon="1.5663438476622104644775390625">
        <ele>164</ele>
        <time>2026-08-13T06:23:52.000Z</time>
        <extensions>
          <ns3:TrackPointExtension>
            <ns3:hr>61</ns3:hr>
            <ns3:cad>0</ns3:cad>
          </ns3:TrackPointExtension>
        </extensions>
      </trkpt>
      <trkpt lat="43.76178142614662647247314453125" lon="1.5663438476622104644775390625">
        <ele>164</ele>
        <time>2026-08-13T06:23:53.000Z</time>
        <extensions>
          <ns3:TrackPointExtension>
            <ns3:hr>60</ns3:hr>
            <ns3:cad>0</ns3:cad>
          </ns3:TrackPointExtension>
        </extensions>
      </trkpt>
      <trkpt lat="43.76178142614662647247314453125" lon="1.5663438476622104644775390625">
        <ele>164</ele>
        <time>2026-08-13T06:23:54.000Z</time>
        <extensions>
          <ns3:TrackPointExtension>
            <ns3:hr>61</ns3:hr>
            <ns3:cad>0</ns3:cad>
          </ns3:TrackPointExtension>
        </extensions>
      </trkpt>
      <trkpt lat="43.76178142614662647247314453125" lon="1.5663438476622104644775390625">
        <ele>164</ele>
        <time>2026-08-13T06:23:55.000Z</time>
        <extensions>
          <ns3:TrackPointExtension>
            <ns3:hr>61</ns3:hr>
            <ns3:cad>0</ns3:cad>
          </ns3:TrackPointExtension>
        </extensions>
      </trkpt>
      <trkpt lat="43.76178142614662647247314453125" lon="1.5663438476622104644775390625">
        <ele>164</ele>
        <time>2026-08-13T06:23:56.000Z</time>
        <extensions>
          <ns3:TrackPointExtension>
            <ns3:hr>61</ns3:hr>
            <ns3:cad>0</ns3:cad>
          </ns3:TrackPointExtension>
        </extensions>
      </trkpt>
      <trkpt lat="43.76178142614662647247314453125" lon="1.5663438476622104644775390625">
        <ele>164</ele>
        <time>2026-08-13T06:23:57.000Z</time>
        <extensions>
          <ns3:TrackPointExtension>
            <ns3:hr>62</ns3:hr>
            <ns3:cad>0</ns3:cad>
          </ns3:TrackPointExtension>
        </extensions>
      </trkpt>
      <trkpt lat="43.76178142614662647247314453125" lon="1.5663438476622104644775390625">
        <ele>164</ele>
        <time>2026-08-13T06:23:58.000Z</time>
        <extensions>
          <ns3:TrackPointExtension>
            <ns3:hr>62</ns3:hr>
            <ns3:cad>0</ns3:cad>
          </ns3:TrackPointExtension>
        </extensions>
      </trkpt>
      <trkpt lat="43.76178142614662647247314453125" lon="1.5663438476622104644775390625">
        <ele>164</ele>
        <time>2026-08-13T06:23:59.000Z</time>
        <extensions>
          <ns3:TrackPointExtension>
            <ns3:hr>62</ns3:hr>
            <ns3:cad>0</ns3:cad>
          </ns3:TrackPointExtension>
        </extensions>
      </trkpt>
      <trkpt lat="43.76178142614662647247314453125" lon="1.5663438476622104644775390625">
        <ele>164</ele>
        <time>2026-08-13T06:24:00.000Z</time>
        <extensions>
          <ns3:TrackPointExtension>
            <ns3:hr>65</ns3:hr>
            <ns3:cad>0</ns3:cad>
          </ns3:TrackPointExtension>
        </extensions>
      </trkpt>
      <trkpt lat="43.76178142614662647247314453125" lon="1.5663438476622104644775390625">
        <ele>164</ele>
        <time>2026-08-13T06:24:01.000Z</time>
        <extensions>
          <ns3:TrackPointExtension>
            <ns3:hr>65</ns3:hr>
            <ns3:cad>0</ns3:cad>
          </ns3:TrackPointExtension>
        </extensions>
      </trkpt>
      <trkpt lat="43.76178142614662647247314453125" lon="1.5663438476622104644775390625">
        <ele>164</ele>
        <time>2026-08-13T06:24:02.000Z</time>
        <extensions>
          <ns3:TrackPointExtension>
            <ns3:hr>64</ns3:hr>
            <ns3:cad>0</ns3:cad>
          </ns3:TrackPointExtension>
        </extensions>
      </trkpt>
      <trkpt lat="43.76178142614662647247314453125" lon="1.5663438476622104644775390625">
        <ele>164</ele>
        <time>2026-08-13T06:24:03.000Z</time>
        <extensions>
          <ns3:TrackPointExtension>
            <ns3:hr>64</ns3:hr>
            <ns3:cad>0</ns3:cad>
          </ns3:TrackPointExtension>
        </extensions>
      </trkpt>
      <trkpt lat="43.76178142614662647247314453125" lon="1.5663438476622104644775390625">
        <ele>164</ele>
        <time>2026-08-13T06:24:04.000Z</time>
        <extensions>
          <ns3:TrackPointExtension>
            <ns3:hr>63</ns3:hr>
            <ns3:cad>0</ns3:cad>
          </ns3:TrackPointExtension>
        </extensions>
      </trkpt>
      <trkpt lat="43.76178142614662647247314453125" lon="1.5663438476622104644775390625">
        <ele>164</ele>
        <time>2026-08-13T06:24:05.000Z</time>
        <extensions>
          <ns3:TrackPointExtension>
            <ns3:hr>63</ns3:hr>
            <ns3:cad>0</ns3:cad>
          </ns3:TrackPointExtension>
        </extensions>
      </trkpt>
      <trkpt lat="43.76178142614662647247314453125" lon="1.5663438476622104644775390625">
        <ele>164</ele>
        <time>2026-08-13T06:24:06.000Z</time>
        <extensions>
          <ns3:TrackPointExtension>
            <ns3:hr>63</ns3:hr>
            <ns3:cad>0</ns3:cad>
          </ns3:TrackPointExtension>
        </extensions>
      </trkpt>
      <trkpt lat="43.76178695820271968841552734375" lon="1.56634611077606678009033203125">
        <ele>164</ele>
        <time>2026-08-13T06:24:07.000Z</time>
        <extensions>
          <ns3:TrackPointExtension>
            <ns3:hr>62</ns3:hr>
            <ns3:cad>0</ns3:cad>
          </ns3:TrackPointExtension>
        </extensions>
      </trkpt>
      <trkpt lat="43.76178997568786144256591796875" lon="1.56634963117539882659912109375">
        <ele>164</ele>
        <time>2026-08-13T06:24:08.000Z</time>
        <extensions>
          <ns3:TrackPointExtension>
            <ns3:hr>62</ns3:hr>
            <ns3:cad>0</ns3:cad>
          </ns3:TrackPointExtension>
        </extensions>
      </trkpt>
      <trkpt lat="43.76178796403110027313232421875" lon="1.5663488768041133880615234375">
        <ele>164.1999969482421875</ele>
        <time>2026-08-13T06:24:09.000Z</time>
        <extensions>
          <ns3:TrackPointExtension>
            <ns3:hr>61</ns3:hr>
            <ns3:cad>0</ns3:cad>
          </ns3:TrackPointExtension>
        </extensions>
      </trkpt>
      <trkpt lat="43.76178444363176822662353515625" lon="1.5663482062518596649169921875">
        <ele>164.1999969482421875</ele>
        <time>2026-08-13T06:24:10.000Z</time>
        <extensions>
          <ns3:TrackPointExtension>
            <ns3:hr>61</ns3:hr>
            <ns3:cad>0</ns3:cad>
          </ns3:TrackPointExtension>
        </extensions>
      </trkpt>
      <trkpt lat="43.76178276725113391876220703125" lon="1.56634963117539882659912109375">
        <ele>164.1999969482421875</ele>
        <time>2026-08-13T06:24:11.000Z</time>
        <extensions>
          <ns3:TrackPointExtension>
            <ns3:hr>60</ns3:hr>
            <ns3:cad>0</ns3:cad>
          </ns3:TrackPointExtension>
        </extensions>
      </trkpt>
      <trkpt lat="43.7617810070514678955078125" lon="1.566350050270557403564453125">
        <ele>164.399993896484375</ele>
        <time>2026-08-13T06:24:12.000Z</time>
        <extensions>
          <ns3:TrackPointExtension>
            <ns3:hr>59</ns3:hr>
            <ns3:cad>0</ns3:cad>
          </ns3:TrackPointExtension>
        </extensions>
      </trkpt>
      <trkpt lat="43.76176290214061737060546875" lon="1.56633923761546611785888671875">
        <ele>164.399993896484375</ele>
        <time>2026-08-13T06:24:13.000Z</time>
        <extensions>
          <ns3:TrackPointExtension>
            <ns3:hr>59</ns3:hr>
            <ns3:cad>0</ns3:cad>
          </ns3:TrackPointExtension>
        </extensions>
      </trkpt>
      <trkpt lat="43.76176231540739536285400390625" lon="1.566339991986751556396484375">
        <ele>164.1999969482421875</ele>
        <time>2026-08-13T06:24:14.000Z</time>
        <extensions>
          <ns3:TrackPointExtension>
            <ns3:hr>59</ns3:hr>
            <ns3:cad>0</ns3:cad>
          </ns3:TrackPointExtension>
        </extensions>
      </trkpt>
      <trkpt lat="43.761768601834774017333984375" lon="1.5663478709757328033447265625">
        <ele>164.1999969482421875</ele>
        <time>2026-08-13T06:24:15.000Z</time>
        <extensions>
          <ns3:TrackPointExtension>
            <ns3:hr>59</ns3:hr>
            <ns3:cad>0</ns3:cad>
          </ns3:TrackPointExtension>
        </extensions>
      </trkpt>
      <trkpt lat="43.76177522353827953338623046875" lon="1.56635751016438007354736328125">
        <ele>164.1999969482421875</ele>
        <time>2026-08-13T06:24:16.000Z</time>
        <extensions>
          <ns3:TrackPointExtension>
            <ns3:hr>60</ns3:hr>
            <ns3:cad>0</ns3:cad>
          </ns3:TrackPointExtension>
        </extensions>
      </trkpt>
      <trkpt lat="43.76178209669888019561767578125" lon="1.56636170111596584320068359375">
        <ele>164.1999969482421875</ele>
        <time>2026-08-13T06:24:17.000Z</time>
        <extensions>
          <ns3:TrackPointExtension>
            <ns3:hr>60</ns3:hr>
            <ns3:cad>0</ns3:cad>
          </ns3:TrackPointExtension>
        </extensions>
      </trkpt>
      <trkpt lat="43.7617862038314342498779296875" lon="1.5663632936775684356689453125">
        <ele>164.1999969482421875</ele>
        <time>2026-08-13T06:24:18.000Z</time>
        <extensions>
          <ns3:TrackPointExtension>
            <ns3:hr>61</ns3:hr>
            <ns3:cad>0</ns3:cad>
          </ns3:TrackPointExtension>
        </extensions>
      </trkpt>
      <trkpt lat="43.7617878802120685577392578125" lon="1.56636287458240985870361328125">
        <ele>164.1999969482421875</ele>
        <time>2026-08-13T06:24:19.000Z</time>
        <extensions>
          <ns3:TrackPointExtension>
            <ns3:hr>61</ns3:hr>
            <ns3:cad>0</ns3:cad>
          </ns3:TrackPointExtension>
        </extensions>
      </trkpt>
      <trkpt lat="43.76178913749754428863525390625" lon="1.566364467144012451171875">
        <ele>164.1999969482421875</ele>
        <time>2026-08-13T06:24:20.000Z</time>
        <extensions>
          <ns3:TrackPointExtension>
            <ns3:hr>61</ns3:hr>
            <ns3:cad>0</ns3:cad>
          </ns3:TrackPointExtension>
        </extensions>
      </trkpt>
      <trkpt lat="43.7617915682494640350341796875" lon="1.56636605970561504364013671875">
        <ele>164.1999969482421875</ele>
        <time>2026-08-13T06:24:21.000Z</time>
        <extensions>
          <ns3:TrackPointExtension>
            <ns3:hr>61</ns3:hr>
            <ns3:cad>0</ns3:cad>
          </ns3:TrackPointExtension>
        </extensions>
      </trkpt>
      <trkpt lat="43.76179349608719348907470703125" lon="1.5663658082485198974609375">
        <ele>164.399993896484375</ele>
        <time>2026-08-13T06:24:22.000Z</time>
        <extensions>
          <ns3:TrackPointExtension>
            <ns3:hr>60</ns3:hr>
            <ns3:cad>0</ns3:cad>
          </ns3:TrackPointExtension>
        </extensions>
      </trkpt>
      <trkpt lat="43.761795423924922943115234375" lon="1.56636186875402927398681640625">
        <ele>164.1999969482421875</ele>
        <time>2026-08-13T06:24:23.000Z</time>
        <extensions>
          <ns3:TrackPointExtension>
            <ns3:hr>60</ns3:hr>
            <ns3:cad>0</ns3:cad>
          </ns3:TrackPointExtension>
        </extensions>
      </trkpt>
      <trkpt lat="43.76178997568786144256591796875" lon="1.56635968945920467376708984375">
        <ele>164.399993896484375</ele>
        <time>2026-08-13T06:24:24.000Z</time>
        <extensions>
          <ns3:TrackPointExtension>
            <ns3:hr>60</ns3:hr>
            <ns3:cad>0</ns3:cad>
          </ns3:TrackPointExtension>
        </extensions>
      </trkpt>
      <trkpt lat="43.761781342327594757080078125" lon="1.5663585998117923736572265625">
        <ele>164.399993896484375</ele>
        <time>2026-08-13T06:24:25.000Z</time>
        <extensions>
          <ns3:TrackPointExtension>
            <ns3:hr>60</ns3:hr>
            <ns3:cad>0</ns3:cad>
          </ns3:TrackPointExtension>
        </extensions>
      </trkpt>
      <trkpt lat="43.76177237369120121002197265625" lon="1.566355414688587188720703125">
        <ele>164.399993896484375</ele>
        <time>2026-08-13T06:24:26.000Z</time>
        <extensions>
          <ns3:TrackPointExtension>
            <ns3:hr>61</ns3:hr>
            <ns3:cad>0</ns3:cad>
          </ns3:TrackPointExtension>
        </extensions>
      </trkpt>
      <trkpt lat="43.761769942939281463623046875" lon="1.566353738307952880859375">
        <ele>164.1999969482421875</ele>
        <time>2026-08-13T06:24:27.000Z</time>
        <extensions>
          <ns3:TrackPointExtension>
            <ns3:hr>63</ns3:hr>
            <ns3:cad>0</ns3:cad>
          </ns3:TrackPointExtension>
        </extensions>
      </trkpt>
      <trkpt lat="43.761770613491535186767578125" lon="1.5663529001176357269287109375">
        <ele>164.1999969482421875</ele>
        <time>2026-08-13T06:24:28.000Z</time>
        <extensions>
          <ns3:TrackPointExtension>
            <ns3:hr>65</ns3:hr>
            <ns3:cad>0</ns3:cad>
          </ns3:TrackPointExtension>
        </extensions>
      </trkpt>
      <trkpt lat="43.76177203841507434844970703125" lon="1.56635281629860401153564453125">
        <ele>164.1999969482421875</ele>
        <time>2026-08-13T06:24:29.000Z</time>
        <extensions>
          <ns3:TrackPointExtension>
            <ns3:hr>66</ns3:hr>
            <ns3:cad>0</ns3:cad>
          </ns3:TrackPointExtension>
        </extensions>
      </trkpt>
      <trkpt lat="43.761773966252803802490234375" lon="1.56635398976504802703857421875">
        <ele>164.1999969482421875</ele>
        <time>2026-08-13T06:24:30.000Z</time>
        <extensions>
          <ns3:TrackPointExtension>
            <ns3:hr>66</ns3:hr>
            <ns3:cad>0</ns3:cad>
          </ns3:TrackPointExtension>
        </extensions>
      </trkpt>
      <trkpt lat="43.76177589409053325653076171875" lon="1.56635566614568233489990234375">
        <ele>164.1999969482421875</ele>
        <time>2026-08-13T06:24:31.000Z</time>
        <extensions>
          <ns3:TrackPointExtension>
            <ns3:hr>67</ns3:hr>
            <ns3:cad>0</ns3:cad>
          </ns3:TrackPointExtension>
        </extensions>
      </trkpt>
      <trkpt lat="43.761778660118579864501953125" lon="1.56635767780244350433349609375">
        <ele>164.1999969482421875</ele>
        <time>2026-08-13T06:24:32.000Z</time>
        <extensions>
          <ns3:TrackPointExtension>
            <ns3:hr>67</ns3:hr>
            <ns3:cad>0</ns3:cad>
          </ns3:TrackPointExtension>
        </extensions>
      </trkpt>
      <trkpt lat="43.76177790574729442596435546875" lon="1.56635751016438007354736328125">
        <ele>164.1999969482421875</ele>
        <time>2026-08-13T06:24:33.000Z</time>
        <extensions>
          <ns3:TrackPointExtension>
            <ns3:hr>67</ns3:hr>
            <ns3:cad>0</ns3:cad>
          </ns3:TrackPointExtension>
        </extensions>
      </trkpt>
      <trkpt lat="43.7617781572043895721435546875" lon="1.56635885126888751983642578125">
        <ele>164.1999969482421875</ele>
        <time>2026-08-13T06:24:34.000Z</time>
        <extensions>
          <ns3:TrackPointExtension>
            <ns3:hr>67</ns3:hr>
            <ns3:cad>0</ns3:cad>
          </ns3:TrackPointExtension>
        </extensions>
      </trkpt>
      <trkpt lat="43.76178176142275333404541015625" lon="1.56636103056371212005615234375">
        <ele>164.1999969482421875</ele>
        <time>2026-08-13T06:24:35.000Z</time>
        <extensions>
          <ns3:TrackPointExtension>
            <ns3:hr>67</ns3:hr>
            <ns3:cad>0</ns3:cad>
          </ns3:TrackPointExtension>
        </extensions>
      </trkpt>
      <trkpt lat="43.76178301870822906494140625" lon="1.56636119820177555084228515625">
        <ele>164.1999969482421875</ele>
        <time>2026-08-13T06:24:36.000Z</time>
        <extensions>
          <ns3:TrackPointExtension>
            <ns3:hr>67</ns3:hr>
            <ns3:cad>0</ns3:cad>
          </ns3:TrackPointExtension>
        </extensions>
      </trkpt>
      <trkpt lat="43.76178301870822906494140625" lon="1.5663629584014415740966796875">
        <ele>164.1999969482421875</ele>
        <time>2026-08-13T06:24:37.000Z</time>
        <extensions>
          <ns3:TrackPointExtension>
            <ns3:hr>67</ns3:hr>
            <ns3:cad>0</ns3:cad>
          </ns3:TrackPointExtension>
        </extensions>
      </trkpt>
      <trkpt lat="43.7617868743836879730224609375" lon="1.5663659758865833282470703125">
        <ele>164.1999969482421875</ele>
        <time>2026-08-13T06:24:38.000Z</time>
        <extensions>
          <ns3:TrackPointExtension>
            <ns3:hr>66</ns3:hr>
            <ns3:cad>0</ns3:cad>
          </ns3:TrackPointExtension>
        </extensions>
      </trkpt>
      <trkpt lat="43.76179106533527374267578125" lon="1.56636756844818592071533203125">
        <ele>164.1999969482421875</ele>
        <time>2026-08-13T06:24:39.000Z</time>
        <extensions>
          <ns3:TrackPointExtension>
            <ns3:hr>67</ns3:hr>
            <ns3:cad>0</ns3:cad>
          </ns3:TrackPointExtension>
        </extensions>
      </trkpt>
      <trkpt lat="43.76179466955363750457763671875" lon="1.56636991538107395172119140625">
        <ele>164.1999969482421875</ele>
        <time>2026-08-13T06:24:40.000Z</time>
        <extensions>
          <ns3:TrackPointExtension>
            <ns3:hr>66</ns3:hr>
            <ns3:cad>0</ns3:cad>
          </ns3:TrackPointExtension>
        </extensions>
      </trkpt>
      <trkpt lat="43.7617957592010498046875" lon="1.5663723461329936981201171875">
        <ele>164.1999969482421875</ele>
        <time>2026-08-13T06:24:41.000Z</time>
        <extensions>
          <ns3:TrackPointExtension>
            <ns3:hr>65</ns3:hr>
            <ns3:cad>0</ns3:cad>
          </ns3:TrackPointExtension>
        </extensions>
      </trkpt>
      <trkpt lat="43.76179668121039867401123046875" lon="1.56637318432331085205078125">
        <ele>164.1999969482421875</ele>
        <time>2026-08-13T06:24:42.000Z</time>
        <extensions>
          <ns3:TrackPointExtension>
            <ns3:hr>64</ns3:hr>
            <ns3:cad>0</ns3:cad>
          </ns3:TrackPointExtension>
        </extensions>
      </trkpt>
      <trkpt lat="43.76180070452392101287841796875" lon="1.56637310050427913665771484375">
        <ele>164.1999969482421875</ele>
        <time>2026-08-13T06:24:43.000Z</time>
        <extensions>
          <ns3:TrackPointExtension>
            <ns3:hr>63</ns3:hr>
            <ns3:cad>0</ns3:cad>
          </ns3:TrackPointExtension>
        </extensions>
      </trkpt>
      <trkpt lat="43.76180171035230159759521484375" lon="1.5663738548755645751953125">
        <ele>164.1999969482421875</ele>
        <time>2026-08-13T06:24:44.000Z</time>
        <extensions>
          <ns3:TrackPointExtension>
            <ns3:hr>63</ns3:hr>
            <ns3:cad>0</ns3:cad>
          </ns3:TrackPointExtension>
        </extensions>
      </trkpt>
      <trkpt lat="43.761800788342952728271484375" lon="1.56637477688491344451904296875">
        <ele>164.1999969482421875</ele>
        <time>2026-08-13T06:24:45.000Z</time>
        <extensions>
          <ns3:TrackPointExtension>
            <ns3:hr>63</ns3:hr>
            <ns3:cad>0</ns3:cad>
          </ns3:TrackPointExtension>
        </extensions>
      </trkpt>
      <trkpt lat="43.761798106133937835693359375" lon="1.566375195980072021484375">
        <ele>164.1999969482421875</ele>
        <time>2026-08-13T06:24:46.000Z</time>
        <extensions>
          <ns3:TrackPointExtension>
            <ns3:hr>63</ns3:hr>
            <ns3:cad>0</ns3:cad>
          </ns3:TrackPointExtension>
        </extensions>
      </trkpt>
      <trkpt lat="43.76180020160973072052001953125" lon="1.566372178494930267333984375">
        <ele>164.1999969482421875</ele>
        <time>2026-08-13T06:24:47.000Z</time>
        <extensions>
          <ns3:TrackPointExtension>
            <ns3:hr>63</ns3:hr>
            <ns3:cad>0</ns3:cad>
          </ns3:TrackPointExtension>
        </extensions>
      </trkpt>
      <trkpt lat="43.76180305145680904388427734375" lon="1.56637192703783512115478515625">
        <ele>164.1999969482421875</ele>
        <time>2026-08-13T06:24:48.000Z</time>
        <extensions>
          <ns3:TrackPointExtension>
            <ns3:hr>63</ns3:hr>
            <ns3:cad>0</ns3:cad>
          </ns3:TrackPointExtension>
        </extensions>
      </trkpt>
      <trkpt lat="43.761802799999713897705078125" lon="1.5663699992001056671142578125">
        <ele>164.1999969482421875</ele>
        <time>2026-08-13T06:24:49.000Z</time>
        <extensions>
          <ns3:TrackPointExtension>
            <ns3:hr>62</ns3:hr>
            <ns3:cad>0</ns3:cad>
          </ns3:TrackPointExtension>
        </extensions>
      </trkpt>
      <trkpt lat="43.76180087216198444366455078125" lon="1.56636890955269336700439453125">
        <ele>164.1999969482421875</ele>
        <time>2026-08-13T06:24:50.000Z</time>
        <extensions>
          <ns3:TrackPointExtension>
            <ns3:hr>63</ns3:hr>
            <ns3:cad>0</ns3:cad>
          </ns3:TrackPointExtension>
        </extensions>
      </trkpt>
      <trkpt lat="43.761798776686191558837890625" lon="1.56637209467589855194091796875">
        <ele>164.1999969482421875</ele>
        <time>2026-08-13T06:24:51.000Z</time>
        <extensions>
          <ns3:TrackPointExtension>
            <ns3:hr>63</ns3:hr>
            <ns3:cad>0</ns3:cad>
          </ns3:TrackPointExtension>
        </extensions>
      </trkpt>
      <trkpt lat="43.7617989443242549896240234375" lon="1.566377542912960052490234375">
        <ele>164.1999969482421875</ele>
        <time>2026-08-13T06:24:52.000Z</time>
        <extensions>
          <ns3:TrackPointExtension>
            <ns3:hr>64</ns3:hr>
            <ns3:cad>0</ns3:cad>
          </ns3:TrackPointExtension>
        </extensions>
      </trkpt>
      <trkpt lat="43.76180045306682586669921875" lon="1.5663797222077846527099609375">
        <ele>164.1999969482421875</ele>
        <time>2026-08-13T06:24:53.000Z</time>
        <extensions>
          <ns3:TrackPointExtension>
            <ns3:hr>66</ns3:hr>
            <ns3:cad>0</ns3:cad>
          </ns3:TrackPointExtension>
        </extensions>
      </trkpt>
      <trkpt lat="43.761798106133937835693359375" lon="1.56638198532164096832275390625">
        <ele>164.1999969482421875</ele>
        <time>2026-08-13T06:24:54.000Z</time>
        <extensions>
          <ns3:TrackPointExtension>
            <ns3:hr>66</ns3:hr>
            <ns3:cad>0</ns3:cad>
          </ns3:TrackPointExtension>
        </extensions>
      </trkpt>
      <trkpt lat="43.761800788342952728271484375" lon="1.566385589540004730224609375">
        <ele>164</ele>
        <time>2026-08-13T06:24:55.000Z</time>
        <extensions>
          <ns3:TrackPointExtension>
            <ns3:hr>67</ns3:hr>
            <ns3:cad>0</ns3:cad>
          </ns3:TrackPointExtension>
        </extensions>
      </trkpt>
      <trkpt lat="43.76180003397166728973388671875" lon="1.56638852320611476898193359375">
        <ele>164</ele>
        <time>2026-08-13T06:24:56.000Z</time>
        <extensions>
          <ns3:TrackPointExtension>
            <ns3:hr>67</ns3:hr>
            <ns3:cad>0</ns3:cad>
          </ns3:TrackPointExtension>
        </extensions>
      </trkpt>
      <trkpt lat="43.76179986633360385894775390625" lon="1.56639195978641510009765625">
        <ele>164</ele>
        <time>2026-08-13T06:24:57.000Z</time>
        <extensions>
          <ns3:TrackPointExtension>
            <ns3:hr>67</ns3:hr>
            <ns3:cad>0</ns3:cad>
          </ns3:TrackPointExtension>
        </extensions>
      </trkpt>
      <trkpt lat="43.76180439256131649017333984375" lon="1.56639732420444488525390625">
        <ele>164</ele>
        <time>2026-08-13T06:24:58.000Z</time>
        <extensions>
          <ns3:TrackPointExtension>
            <ns3:hr>66</ns3:hr>
            <ns3:cad>0</ns3:cad>
          </ns3:TrackPointExtension>
        </extensions>
      </trkpt>
      <trkpt lat="43.76180590130388736724853515625" lon="1.56639992259442806243896484375">
        <ele>164</ele>
        <time>2026-08-13T06:24:59.000Z</time>
        <extensions>
          <ns3:TrackPointExtension>
            <ns3:hr>67</ns3:hr>
            <ns3:cad>0</ns3:cad>
          </ns3:TrackPointExtension>
        </extensions>
      </trkpt>
      <trkpt lat="43.76180715858936309814453125" lon="1.56640000641345977783203125">
        <ele>164</ele>
        <time>2026-08-13T06:25:00.000Z</time>
        <extensions>
          <ns3:TrackPointExtension>
            <ns3:hr>67</ns3:hr>
            <ns3:cad>0</ns3:cad>
          </ns3:TrackPointExtension>
        </extensions>
      </trkpt>
      <trkpt lat="43.76180724240839481353759765625" lon="1.56639925204217433929443359375">
        <ele>164</ele>
        <time>2026-08-13T06:25:01.000Z</time>
        <extensions>
          <ns3:TrackPointExtension>
            <ns3:hr>67</ns3:hr>
            <ns3:cad>0</ns3:cad>
          </ns3:TrackPointExtension>
        </extensions>
      </trkpt>
      <trkpt lat="43.76181143335998058319091796875" lon="1.56640193425118923187255859375">
        <ele>164</ele>
        <time>2026-08-13T06:25:02.000Z</time>
        <extensions>
          <ns3:TrackPointExtension>
            <ns3:hr>67</ns3:hr>
            <ns3:cad>0</ns3:cad>
          </ns3:TrackPointExtension>
        </extensions>
      </trkpt>
      <trkpt lat="43.7618136964738368988037109375" lon="1.5664005093276500701904296875">
        <ele>164</ele>
        <time>2026-08-13T06:25:03.000Z</time>
        <extensions>
          <ns3:TrackPointExtension>
            <ns3:hr>67</ns3:hr>
            <ns3:cad>0</ns3:cad>
          </ns3:TrackPointExtension>
        </extensions>
      </trkpt>
      <trkpt lat="43.7618158757686614990234375" lon="1.56640134751796722412109375">
        <ele>164</ele>
        <time>2026-08-13T06:25:04.000Z</time>
        <extensions>
          <ns3:TrackPointExtension>
            <ns3:hr>67</ns3:hr>
            <ns3:cad>0</ns3:cad>
          </ns3:TrackPointExtension>
        </extensions>
      </trkpt>
      <trkpt lat="43.76182216219604015350341796875" lon="1.56639187596738338470458984375">
        <ele>164</ele>
        <time>2026-08-13T06:25:05.000Z</time>
        <extensions>
          <ns3:TrackPointExtension>
            <ns3:hr>66</ns3:hr>
            <ns3:cad>0</ns3:cad>
          </ns3:TrackPointExtension>
        </extensions>
      </trkpt>
      <trkpt lat="43.7618234194815158843994140625" lon="1.56638667918741703033447265625">
        <ele>164</ele>
        <time>2026-08-13T06:25:06.000Z</time>
        <extensions>
          <ns3:TrackPointExtension>
            <ns3:hr>66</ns3:hr>
            <ns3:cad>0</ns3:cad>
          </ns3:TrackPointExtension>
        </extensions>
      </trkpt>
      <trkpt lat="43.76182601787149906158447265625" lon="1.56638315878808498382568359375">
        <ele>164</ele>
        <time>2026-08-13T06:25:07.000Z</time>
        <extensions>
          <ns3:TrackPointExtension>
            <ns3:hr>65</ns3:hr>
            <ns3:cad>0</ns3:cad>
          </ns3:TrackPointExtension>
        </extensions>
      </trkpt>
      <trkpt lat="43.76182249747216701507568359375" lon="1.56638517044484615325927734375">
        <ele>163.8000030517578125</ele>
        <time>2026-08-13T06:25:08.000Z</time>
        <extensions>
          <ns3:TrackPointExtension>
            <ns3:hr>65</ns3:hr>
            <ns3:cad>0</ns3:cad>
          </ns3:TrackPointExtension>
        </extensions>
      </trkpt>
      <trkpt lat="43.76181495375931262969970703125" lon="1.56638382934033870697021484375">
        <ele>163.8000030517578125</ele>
        <time>2026-08-13T06:25:09.000Z</time>
        <extensions>
          <ns3:TrackPointExtension>
            <ns3:hr>65</ns3:hr>
            <ns3:cad>0</ns3:cad>
          </ns3:TrackPointExtension>
        </extensions>
      </trkpt>
      <trkpt lat="43.76182015053927898406982421875" lon="1.56637595035135746002197265625">
        <ele>163.8000030517578125</ele>
        <time>2026-08-13T06:25:10.000Z</time>
        <extensions>
          <ns3:TrackPointExtension>
            <ns3:hr>65</ns3:hr>
            <ns3:cad>0</ns3:cad>
          </ns3:TrackPointExtension>
        </extensions>
      </trkpt>
      <trkpt lat="43.7618220783770084381103515625" lon="1.5663706697523593902587890625">
        <ele>163.8000030517578125</ele>
        <time>2026-08-13T06:25:11.000Z</time>
        <extensions>
          <ns3:TrackPointExtension>
            <ns3:hr>65</ns3:hr>
            <ns3:cad>0</ns3:cad>
          </ns3:TrackPointExtension>
        </extensions>
      </trkpt>
      <trkpt lat="43.76182316802442073822021484375" lon="1.56636974774301052093505859375">
        <ele>163.8000030517578125</ele>
        <time>2026-08-13T06:25:12.000Z</time>
        <extensions>
          <ns3:TrackPointExtension>
            <ns3:hr>66</ns3:hr>
            <ns3:cad>0</ns3:cad>
          </ns3:TrackPointExtension>
        </extensions>
      </trkpt>
      <trkpt lat="43.7618224136531352996826171875" lon="1.56636740081012248992919921875">
        <ele>163.8000030517578125</ele>
        <time>2026-08-13T06:25:13.000Z</time>
        <extensions>
          <ns3:TrackPointExtension>
            <ns3:hr>68</ns3:hr>
            <ns3:cad>0</ns3:cad>
          </ns3:TrackPointExtension>
        </extensions>
      </trkpt>
      <trkpt lat="43.7618237547576427459716796875" lon="1.56636723317205905914306640625">
        <ele>163.600006103515625</ele>
        <time>2026-08-13T06:25:14.000Z</time>
        <extensions>
          <ns3:TrackPointExtension>
            <ns3:hr>68</ns3:hr>
            <ns3:cad>0</ns3:cad>
          </ns3:TrackPointExtension>
        </extensions>
      </trkpt>
      <trkpt lat="43.76182191073894500732421875" lon="1.566365472972393035888671875">
        <ele>163.600006103515625</ele>
        <time>2026-08-13T06:25:15.000Z</time>
        <extensions>
          <ns3:TrackPointExtension>
            <ns3:hr>67</ns3:hr>
            <ns3:cad>0</ns3:cad>
          </ns3:TrackPointExtension>
        </extensions>
      </trkpt>
      <trkpt lat="43.76182082109153270721435546875" lon="1.56636589206755161285400390625">
        <ele>163.600006103515625</ele>
        <time>2026-08-13T06:25:16.000Z</time>
        <extensions>
          <ns3:TrackPointExtension>
            <ns3:hr>68</ns3:hr>
            <ns3:cad>0</ns3:cad>
          </ns3:TrackPointExtension>
        </extensions>
      </trkpt>
      <trkpt lat="43.76181964762508869171142578125" lon="1.56636890955269336700439453125">
        <ele>163.600006103515625</ele>
        <time>2026-08-13T06:25:17.000Z</time>
        <extensions>
          <ns3:TrackPointExtension>
            <ns3:hr>68</ns3:hr>
            <ns3:cad>0</ns3:cad>
          </ns3:TrackPointExtension>
        </extensions>
      </trkpt>
      <trkpt lat="43.761814869940280914306640625" lon="1.56636857427656650543212890625">
        <ele>163.600006103515625</ele>
        <time>2026-08-13T06:25:18.000Z</time>
        <extensions>
          <ns3:TrackPointExtension>
            <ns3:hr>68</ns3:hr>
            <ns3:cad>0</ns3:cad>
          </ns3:TrackPointExtension>
        </extensions>
      </trkpt>
      <trkpt lat="43.76181478612124919891357421875" lon="1.56636874191462993621826171875">
        <ele>163.8000030517578125</ele>
        <time>2026-08-13T06:25:19.000Z</time>
        <extensions>
          <ns3:TrackPointExtension>
            <ns3:hr>68</ns3:hr>
            <ns3:cad>0</ns3:cad>
          </ns3:TrackPointExtension>
        </extensions>
      </trkpt>
      <trkpt lat="43.76181478612124919891357421875" lon="1.56636874191462993621826171875">
        <ele>163.8000030517578125</ele>
        <time>2026-08-13T06:25:20.000Z</time>
        <extensions>
          <ns3:TrackPointExtension>
            <ns3:hr>68</ns3:hr>
            <ns3:cad>0</ns3:cad>
          </ns3:TrackPointExtension>
        </extensions>
      </trkpt>
      <trkpt lat="43.76181478612124919891357421875" lon="1.56636874191462993621826171875">
        <ele>163.8000030517578125</ele>
        <time>2026-08-13T06:25:21.000Z</time>
        <extensions>
          <ns3:TrackPointExtension>
            <ns3:hr>68</ns3:hr>
            <ns3:cad>0</ns3:cad>
          </ns3:TrackPointExtension>
        </extensions>
      </trkpt>
      <trkpt lat="43.76181478612124919891357421875" lon="1.56636874191462993621826171875">
        <ele>163.8000030517578125</ele>
        <time>2026-08-13T06:25:22.000Z</time>
        <extensions>
          <ns3:TrackPointExtension>
            <ns3:hr>69</ns3:hr>
            <ns3:cad>0</ns3:cad>
          </ns3:TrackPointExtension>
        </extensions>
      </trkpt>
      <trkpt lat="43.76181478612124919891357421875" lon="1.56636874191462993621826171875">
        <ele>163.8000030517578125</ele>
        <time>2026-08-13T06:25:23.000Z</time>
        <extensions>
          <ns3:TrackPointExtension>
            <ns3:hr>70</ns3:hr>
            <ns3:cad>0</ns3:cad>
          </ns3:TrackPointExtension>
        </extensions>
      </trkpt>
      <trkpt lat="43.76181386411190032958984375" lon="1.56636974774301052093505859375">
        <ele>163.8000030517578125</ele>
        <time>2026-08-13T06:25:24.000Z</time>
        <extensions>
          <ns3:TrackPointExtension>
            <ns3:hr>70</ns3:hr>
            <ns3:cad>0</ns3:cad>
          </ns3:TrackPointExtension>
        </extensions>
      </trkpt>
      <trkpt lat="43.76180791296064853668212890625" lon="1.56637251377105712890625">
        <ele>163.8000030517578125</ele>
        <time>2026-08-13T06:25:25.000Z</time>
        <extensions>
          <ns3:TrackPointExtension>
            <ns3:hr>70</ns3:hr>
            <ns3:cad>0</ns3:cad>
          </ns3:TrackPointExtension>
        </extensions>
      </trkpt>
      <trkpt lat="43.7618076615035533905029296875" lon="1.56636890955269336700439453125">
        <ele>163.8000030517578125</ele>
        <time>2026-08-13T06:25:26.000Z</time>
        <extensions>
          <ns3:TrackPointExtension>
            <ns3:hr>69</ns3:hr>
            <ns3:cad>0</ns3:cad>
          </ns3:TrackPointExtension>
        </extensions>
      </trkpt>
      <trkpt lat="43.7618069909512996673583984375" lon="1.56636656261980533599853515625">
        <ele>163.8000030517578125</ele>
        <time>2026-08-13T06:25:27.000Z</time>
        <extensions>
          <ns3:TrackPointExtension>
            <ns3:hr>68</ns3:hr>
            <ns3:cad>0</ns3:cad>
          </ns3:TrackPointExtension>
        </extensions>
      </trkpt>
      <trkpt lat="43.76180523075163364410400390625" lon="1.56636513769626617431640625">
        <ele>163.8000030517578125</ele>
        <time>2026-08-13T06:25:28.000Z</time>
        <extensions>
          <ns3:TrackPointExtension>
            <ns3:hr>67</ns3:hr>
            <ns3:cad>0</ns3:cad>
          </ns3:TrackPointExtension>
        </extensions>
      </trkpt>
      <trkpt lat="43.76181478612124919891357421875" lon="1.56636874191462993621826171875">
        <ele>163.8000030517578125</ele>
        <time>2026-08-13T06:25:29.000Z</time>
        <extensions>
          <ns3:TrackPointExtension>
            <ns3:hr>67</ns3:hr>
            <ns3:cad>0</ns3:cad>
          </ns3:TrackPointExtension>
        </extensions>
      </trkpt>
      <trkpt lat="43.76181478612124919891357421875" lon="1.56636874191462993621826171875">
        <ele>163.8000030517578125</ele>
        <time>2026-08-13T06:25:30.000Z</time>
        <extensions>
          <ns3:TrackPointExtension>
            <ns3:hr>66</ns3:hr>
            <ns3:cad>0</ns3:cad>
          </ns3:TrackPointExtension>
        </extensions>
      </trkpt>
      <trkpt lat="43.76181478612124919891357421875" lon="1.56636874191462993621826171875">
        <ele>163.8000030517578125</ele>
        <time>2026-08-13T06:25:31.000Z</time>
        <extensions>
          <ns3:TrackPointExtension>
            <ns3:hr>66</ns3:hr>
            <ns3:cad>0</ns3:cad>
          </ns3:TrackPointExtension>
        </extensions>
      </trkpt>
      <trkpt lat="43.76181478612124919891357421875" lon="1.56636874191462993621826171875">
        <ele>163.8000030517578125</ele>
        <time>2026-08-13T06:25:32.000Z</time>
        <extensions>
          <ns3:TrackPointExtension>
            <ns3:hr>66</ns3:hr>
            <ns3:cad>0</ns3:cad>
          </ns3:TrackPointExtension>
        </extensions>
      </trkpt>
      <trkpt lat="43.76181478612124919891357421875" lon="1.56636874191462993621826171875">
        <ele>163.8000030517578125</ele>
        <time>2026-08-13T06:25:33.000Z</time>
        <extensions>
          <ns3:TrackPointExtension>
            <ns3:hr>66</ns3:hr>
            <ns3:cad>0</ns3:cad>
          </ns3:TrackPointExtension>
        </extensions>
      </trkpt>
      <trkpt lat="43.76181478612124919891357421875" lon="1.56636874191462993621826171875">
        <ele>163.8000030517578125</ele>
        <time>2026-08-13T06:25:34.000Z</time>
        <extensions>
          <ns3:TrackPointExtension>
            <ns3:hr>66</ns3:hr>
            <ns3:cad>0</ns3:cad>
          </ns3:TrackPointExtension>
        </extensions>
      </trkpt>
      <trkpt lat="43.76181478612124919891357421875" lon="1.56636874191462993621826171875">
        <ele>163.8000030517578125</ele>
        <time>2026-08-13T06:25:35.000Z</time>
        <extensions>
          <ns3:TrackPointExtension>
            <ns3:hr>66</ns3:hr>
            <ns3:cad>0</ns3:cad>
          </ns3:TrackPointExtension>
        </extensions>
      </trkpt>
      <trkpt lat="43.76181478612124919891357421875" lon="1.56636874191462993621826171875">
        <ele>163.8000030517578125</ele>
        <time>2026-08-13T06:25:36.000Z</time>
        <extensions>
          <ns3:TrackPointExtension>
            <ns3:hr>66</ns3:hr>
            <ns3:cad>0</ns3:cad>
          </ns3:TrackPointExtension>
        </extensions>
      </trkpt>
      <trkpt lat="43.76181478612124919891357421875" lon="1.56636874191462993621826171875">
        <ele>163.8000030517578125</ele>
        <time>2026-08-13T06:25:37.000Z</time>
        <extensions>
          <ns3:TrackPointExtension>
            <ns3:hr>66</ns3:hr>
            <ns3:cad>0</ns3:cad>
          </ns3:TrackPointExtension>
        </extensions>
      </trkpt>
      <trkpt lat="43.76181478612124919891357421875" lon="1.56636874191462993621826171875">
        <ele>163.8000030517578125</ele>
        <time>2026-08-13T06:25:38.000Z</time>
        <extensions>
          <ns3:TrackPointExtension>
            <ns3:hr>67</ns3:hr>
            <ns3:cad>0</ns3:cad>
          </ns3:TrackPointExtension>
        </extensions>
      </trkpt>
      <trkpt lat="43.76181478612124919891357421875" lon="1.56636874191462993621826171875">
        <ele>163.8000030517578125</ele>
        <time>2026-08-13T06:25:39.000Z</time>
        <extensions>
          <ns3:TrackPointExtension>
            <ns3:hr>67</ns3:hr>
            <ns3:cad>0</ns3:cad>
          </ns3:TrackPointExtension>
        </extensions>
      </trkpt>
      <trkpt lat="43.76181478612124919891357421875" lon="1.56636874191462993621826171875">
        <ele>164</ele>
        <time>2026-08-13T06:25:40.000Z</time>
        <extensions>
          <ns3:TrackPointExtension>
            <ns3:hr>67</ns3:hr>
            <ns3:cad>0</ns3:cad>
          </ns3:TrackPointExtension>
        </extensions>
      </trkpt>
      <trkpt lat="43.76181478612124919891357421875" lon="1.56636874191462993621826171875">
        <ele>163.8000030517578125</ele>
        <time>2026-08-13T06:25:41.000Z</time>
        <extensions>
          <ns3:TrackPointExtension>
            <ns3:hr>67</ns3:hr>
            <ns3:cad>0</ns3:cad>
          </ns3:TrackPointExtension>
        </extensions>
      </trkpt>
      <trkpt lat="43.7618024647235870361328125" lon="1.56636714935302734375">
        <ele>163.8000030517578125</ele>
        <time>2026-08-13T06:25:42.000Z</time>
        <extensions>
          <ns3:TrackPointExtension>
            <ns3:hr>67</ns3:hr>
            <ns3:cad>0</ns3:cad>
          </ns3:TrackPointExtension>
        </extensions>
      </trkpt>
      <trkpt lat="43.761800117790699005126953125" lon="1.56636371277272701263427734375">
        <ele>163.8000030517578125</ele>
        <time>2026-08-13T06:25:43.000Z</time>
        <extensions>
          <ns3:TrackPointExtension>
            <ns3:hr>67</ns3:hr>
            <ns3:cad>75</ns3:cad>
          </ns3:TrackPointExtension>
        </extensions>
      </trkpt>
      <trkpt lat="43.76180103980004787445068359375" lon="1.5663622878491878509521484375">
        <ele>163.8000030517578125</ele>
        <time>2026-08-13T06:25:44.000Z</time>
        <extensions>
          <ns3:TrackPointExtension>
            <ns3:hr>68</ns3:hr>
            <ns3:cad>75</ns3:cad>
          </ns3:TrackPointExtension>
        </extensions>
      </trkpt>
      <trkpt lat="43.761800117790699005126953125" lon="1.5663602761924266815185546875">
        <ele>163.8000030517578125</ele>
        <time>2026-08-13T06:25:45.000Z</time>
        <extensions>
          <ns3:TrackPointExtension>
            <ns3:hr>67</ns3:hr>
            <ns3:cad>0</ns3:cad>
          </ns3:TrackPointExtension>
        </extensions>
      </trkpt>
      <trkpt lat="43.7617989443242549896240234375" lon="1.56635977327823638916015625">
        <ele>163.8000030517578125</ele>
        <time>2026-08-13T06:25:46.000Z</time>
        <extensions>
          <ns3:TrackPointExtension>
            <ns3:hr>67</ns3:hr>
            <ns3:cad>0</ns3:cad>
          </ns3:TrackPointExtension>
        </extensions>
      </trkpt>
      <trkpt lat="43.7617955915629863739013671875" lon="1.56636237166821956634521484375">
        <ele>163.600006103515625</ele>
        <time>2026-08-13T06:25:47.000Z</time>
        <extensions>
          <ns3:TrackPointExtension>
            <ns3:hr>67</ns3:hr>
            <ns3:cad>0</ns3:cad>
          </ns3:TrackPointExtension>
        </extensions>
      </trkpt>
      <trkpt lat="43.761792071163654327392578125" lon="1.566363461315631866455078125">
        <ele>163.8000030517578125</ele>
        <time>2026-08-13T06:25:48.000Z</time>
        <extensions>
          <ns3:TrackPointExtension>
            <ns3:hr>67</ns3:hr>
            <ns3:cad>0</ns3:cad>
          </ns3:TrackPointExtension>
        </extensions>
      </trkpt>
      <trkpt lat="43.761790059506893157958984375" lon="1.56636287458240985870361328125">
        <ele>163.8000030517578125</ele>
        <time>2026-08-13T06:25:49.000Z</time>
        <extensions>
          <ns3:TrackPointExtension>
            <ns3:hr>68</ns3:hr>
            <ns3:cad>0</ns3:cad>
          </ns3:TrackPointExtension>
        </extensions>
      </trkpt>
      <trkpt lat="43.76178972423076629638671875" lon="1.5663636289536952972412109375">
        <ele>163.8000030517578125</ele>
        <time>2026-08-13T06:25:50.000Z</time>
        <extensions>
          <ns3:TrackPointExtension>
            <ns3:hr>69</ns3:hr>
            <ns3:cad>0</ns3:cad>
          </ns3:TrackPointExtension>
        </extensions>
      </trkpt>
      <trkpt lat="43.7617882154881954193115234375" lon="1.56636119820177555084228515625">
        <ele>163.8000030517578125</ele>
        <time>2026-08-13T06:25:51.000Z</time>
        <extensions>
          <ns3:TrackPointExtension>
            <ns3:hr>69</ns3:hr>
            <ns3:cad>0</ns3:cad>
          </ns3:TrackPointExtension>
        </extensions>
      </trkpt>
      <trkpt lat="43.761788047850131988525390625" lon="1.56636036001145839691162109375">
        <ele>163.8000030517578125</ele>
        <time>2026-08-13T06:25:52.000Z</time>
        <extensions>
          <ns3:TrackPointExtension>
            <ns3:hr>69</ns3:hr>
            <ns3:cad>0</ns3:cad>
          </ns3:TrackPointExtension>
        </extensions>
      </trkpt>
      <trkpt lat="43.7617898918688297271728515625" lon="1.5663639642298221588134765625">
        <ele>163.8000030517578125</ele>
        <time>2026-08-13T06:25:53.000Z</time>
        <extensions>
          <ns3:TrackPointExtension>
            <ns3:hr>69</ns3:hr>
            <ns3:cad>0</ns3:cad>
          </ns3:TrackPointExtension>
        </extensions>
      </trkpt>
      <trkpt lat="43.7617922388017177581787109375" lon="1.56636522151529788970947265625">
        <ele>163.8000030517578125</ele>
        <time>2026-08-13T06:25:54.000Z</time>
        <extensions>
          <ns3:TrackPointExtension>
            <ns3:hr>68</ns3:hr>
            <ns3:cad>0</ns3:cad>
          </ns3:TrackPointExtension>
        </extensions>
      </trkpt>
      <trkpt lat="43.76179508864879608154296875" lon="1.5663669817149639129638671875">
        <ele>163.600006103515625</ele>
        <time>2026-08-13T06:25:55.000Z</time>
        <extensions>
          <ns3:TrackPointExtension>
            <ns3:hr>68</ns3:hr>
            <ns3:cad>0</ns3:cad>
          </ns3:TrackPointExtension>
        </extensions>
      </trkpt>
      <trkpt lat="43.7617976032197475433349609375" lon="1.56636823900043964385986328125">
        <ele>163.600006103515625</ele>
        <time>2026-08-13T06:25:56.000Z</time>
        <extensions>
          <ns3:TrackPointExtension>
            <ns3:hr>68</ns3:hr>
            <ns3:cad>0</ns3:cad>
          </ns3:TrackPointExtension>
        </extensions>
      </trkpt>
      <trkpt lat="43.7618026323616504669189453125" lon="1.5663703344762325286865234375">
        <ele>163.600006103515625</ele>
        <time>2026-08-13T06:25:57.000Z</time>
        <extensions>
          <ns3:TrackPointExtension>
            <ns3:hr>68</ns3:hr>
            <ns3:cad>0</ns3:cad>
          </ns3:TrackPointExtension>
        </extensions>
      </trkpt>
      <trkpt lat="43.76180087216198444366455078125" lon="1.56636790372431278228759765625">
        <ele>163.600006103515625</ele>
        <time>2026-08-13T06:25:58.000Z</time>
        <extensions>
          <ns3:TrackPointExtension>
            <ns3:hr>67</ns3:hr>
            <ns3:cad>0</ns3:cad>
          </ns3:TrackPointExtension>
        </extensions>
      </trkpt>
      <trkpt lat="43.7618006207048892974853515625" lon="1.56636488623917102813720703125">
        <ele>163.600006103515625</ele>
        <time>2026-08-13T06:25:59.000Z</time>
        <extensions>
          <ns3:TrackPointExtension>
            <ns3:hr>68</ns3:hr>
            <ns3:cad>0</ns3:cad>
          </ns3:TrackPointExtension>
        </extensions>
      </trkpt>
      <trkpt lat="43.76180388964712619781494140625" lon="1.56636740081012248992919921875">
        <ele>163.600006103515625</ele>
        <time>2026-08-13T06:26:00.000Z</time>
        <extensions>
          <ns3:TrackPointExtension>
            <ns3:hr>68</ns3:hr>
            <ns3:cad>0</ns3:cad>
          </ns3:TrackPointExtension>
        </extensions>
      </trkpt>
      <trkpt lat="43.76180372200906276702880859375" lon="1.56636890955269336700439453125">
        <ele>163.600006103515625</ele>
        <time>2026-08-13T06:26:01.000Z</time>
        <extensions>
          <ns3:TrackPointExtension>
            <ns3:hr>68</ns3:hr>
            <ns3:cad>0</ns3:cad>
          </ns3:TrackPointExtension>
        </extensions>
      </trkpt>
      <trkpt lat="43.76180439256131649017333984375" lon="1.566371507942676544189453125">
        <ele>163.600006103515625</ele>
        <time>2026-08-13T06:26:02.000Z</time>
        <extensions>
          <ns3:TrackPointExtension>
            <ns3:hr>68</ns3:hr>
            <ns3:cad>0</ns3:cad>
          </ns3:TrackPointExtension>
        </extensions>
      </trkpt>
      <trkpt lat="43.76180506311357021331787109375" lon="1.56636807136237621307373046875">
        <ele>163.600006103515625</ele>
        <time>2026-08-13T06:26:03.000Z</time>
        <extensions>
          <ns3:TrackPointExtension>
            <ns3:hr>68</ns3:hr>
            <ns3:cad>0</ns3:cad>
          </ns3:TrackPointExtension>
        </extensions>
      </trkpt>
      <trkpt lat="43.76181478612124919891357421875" lon="1.56636874191462993621826171875">
        <ele>163.8000030517578125</ele>
        <time>2026-08-13T06:26:04.000Z</time>
        <extensions>
          <ns3:TrackPointExtension>
            <ns3:hr>68</ns3:hr>
            <ns3:cad>0</ns3:cad>
          </ns3:TrackPointExtension>
        </extensions>
      </trkpt>
      <trkpt lat="43.76181478612124919891357421875" lon="1.56636874191462993621826171875">
        <ele>163.8000030517578125</ele>
        <time>2026-08-13T06:26:05.000Z</time>
        <extensions>
          <ns3:TrackPointExtension>
            <ns3:hr>68</ns3:hr>
            <ns3:cad>0</ns3:cad>
          </ns3:TrackPointExtension>
        </extensions>
      </trkpt>
      <trkpt lat="43.76181478612124919891357421875" lon="1.56636874191462993621826171875">
        <ele>163.8000030517578125</ele>
        <time>2026-08-13T06:26:06.000Z</time>
        <extensions>
          <ns3:TrackPointExtension>
            <ns3:hr>68</ns3:hr>
            <ns3:cad>0</ns3:cad>
          </ns3:TrackPointExtension>
        </extensions>
      </trkpt>
      <trkpt lat="43.76181478612124919891357421875" lon="1.56636874191462993621826171875">
        <ele>163.8000030517578125</ele>
        <time>2026-08-13T06:26:07.000Z</time>
        <extensions>
          <ns3:TrackPointExtension>
            <ns3:hr>68</ns3:hr>
            <ns3:cad>0</ns3:cad>
          </ns3:TrackPointExtension>
        </extensions>
      </trkpt>
      <trkpt lat="43.76181478612124919891357421875" lon="1.56636874191462993621826171875">
        <ele>163.8000030517578125</ele>
        <time>2026-08-13T06:26:08.000Z</time>
        <extensions>
          <ns3:TrackPointExtension>
            <ns3:hr>68</ns3:hr>
            <ns3:cad>0</ns3:cad>
          </ns3:TrackPointExtension>
        </extensions>
      </trkpt>
      <trkpt lat="43.76181478612124919891357421875" lon="1.56636874191462993621826171875">
        <ele>163.8000030517578125</ele>
        <time>2026-08-13T06:26:09.000Z</time>
        <extensions>
          <ns3:TrackPointExtension>
            <ns3:hr>68</ns3:hr>
            <ns3:cad>0</ns3:cad>
          </ns3:TrackPointExtension>
        </extensions>
      </trkpt>
      <trkpt lat="43.76181478612124919891357421875" lon="1.56636874191462993621826171875">
        <ele>163.8000030517578125</ele>
        <time>2026-08-13T06:26:10.000Z</time>
        <extensions>
          <ns3:TrackPointExtension>
            <ns3:hr>69</ns3:hr>
            <ns3:cad>0</ns3:cad>
          </ns3:TrackPointExtension>
        </extensions>
      </trkpt>
      <trkpt lat="43.76181478612124919891357421875" lon="1.56636874191462993621826171875">
        <ele>163.600006103515625</ele>
        <time>2026-08-13T06:26:11.000Z</time>
        <extensions>
          <ns3:TrackPointExtension>
            <ns3:hr>69</ns3:hr>
            <ns3:cad>0</ns3:cad>
          </ns3:TrackPointExtension>
        </extensions>
      </trkpt>
      <trkpt lat="43.76180640421807765960693359375" lon="1.56636907719075679779052734375">
        <ele>163.600006103515625</ele>
        <time>2026-08-13T06:26:12.000Z</time>
        <extensions>
          <ns3:TrackPointExtension>
            <ns3:hr>70</ns3:hr>
            <ns3:cad>44</ns3:cad>
          </ns3:TrackPointExtension>
        </extensions>
      </trkpt>
      <trkpt lat="43.76180606894195079803466796875" lon="1.566368825733661651611328125">
        <ele>163.600006103515625</ele>
        <time>2026-08-13T06:26:13.000Z</time>
        <extensions>
          <ns3:TrackPointExtension>
            <ns3:hr>71</ns3:hr>
            <ns3:cad>44</ns3:cad>
          </ns3:TrackPointExtension>
        </extensions>
      </trkpt>
      <trkpt lat="43.76180506311357021331787109375" lon="1.56636924482882022857666015625">
        <ele>163.600006103515625</ele>
        <time>2026-08-13T06:26:14.000Z</time>
        <extensions>
          <ns3:TrackPointExtension>
            <ns3:hr>71</ns3:hr>
            <ns3:cad>0</ns3:cad>
          </ns3:TrackPointExtension>
        </extensions>
      </trkpt>
      <trkpt lat="43.76180556602776050567626953125" lon="1.56636974774301052093505859375">
        <ele>163.600006103515625</ele>
        <time>2026-08-13T06:26:15.000Z</time>
        <extensions>
          <ns3:TrackPointExtension>
            <ns3:hr>72</ns3:hr>
            <ns3:cad>0</ns3:cad>
          </ns3:TrackPointExtension>
        </extensions>
      </trkpt>
      <trkpt lat="43.76180824823677539825439453125" lon="1.56637209467589855194091796875">
        <ele>163.600006103515625</ele>
        <time>2026-08-13T06:26:16.000Z</time>
        <extensions>
          <ns3:TrackPointExtension>
            <ns3:hr>73</ns3:hr>
            <ns3:cad>0</ns3:cad>
          </ns3:TrackPointExtension>
        </extensions>
      </trkpt>
      <trkpt lat="43.7618069909512996673583984375" lon="1.56637159176170825958251953125">
        <ele>163.600006103515625</ele>
        <time>2026-08-13T06:26:17.000Z</time>
        <extensions>
          <ns3:TrackPointExtension>
            <ns3:hr>73</ns3:hr>
            <ns3:cad>0</ns3:cad>
          </ns3:TrackPointExtension>
        </extensions>
      </trkpt>
      <trkpt lat="43.76180623658001422882080078125" lon="1.5663716755807399749755859375">
        <ele>163.600006103515625</ele>
        <time>2026-08-13T06:26:18.000Z</time>
        <extensions>
          <ns3:TrackPointExtension>
            <ns3:hr>73</ns3:hr>
            <ns3:cad>0</ns3:cad>
          </ns3:TrackPointExtension>
        </extensions>
      </trkpt>
      <trkpt lat="43.76180506311357021331787109375" lon="1.566370837390422821044921875">
        <ele>163.399993896484375</ele>
        <time>2026-08-13T06:26:19.000Z</time>
        <extensions>
          <ns3:TrackPointExtension>
            <ns3:hr>73</ns3:hr>
            <ns3:cad>0</ns3:cad>
          </ns3:TrackPointExtension>
        </extensions>
      </trkpt>
      <trkpt lat="43.76180372200906276702880859375" lon="1.56636773608624935150146484375">
        <ele>163.399993896484375</ele>
        <time>2026-08-13T06:26:20.000Z</time>
        <extensions>
          <ns3:TrackPointExtension>
            <ns3:hr>73</ns3:hr>
            <ns3:cad>0</ns3:cad>
          </ns3:TrackPointExtension>
        </extensions>
      </trkpt>
      <trkpt lat="43.7618016265332698822021484375" lon="1.56637092120945453643798828125">
        <ele>163.399993896484375</ele>
        <time>2026-08-13T06:26:21.000Z</time>
        <extensions>
          <ns3:TrackPointExtension>
            <ns3:hr>73</ns3:hr>
            <ns3:cad>0</ns3:cad>
          </ns3:TrackPointExtension>
        </extensions>
      </trkpt>
      <trkpt lat="43.76180112361907958984375" lon="1.566371507942676544189453125">
        <ele>163.399993896484375</ele>
        <time>2026-08-13T06:26:22.000Z</time>
        <extensions>
          <ns3:TrackPointExtension>
            <ns3:hr>73</ns3:hr>
            <ns3:cad>0</ns3:cad>
          </ns3:TrackPointExtension>
        </extensions>
      </trkpt>
      <trkpt lat="43.7618043087422847747802734375" lon="1.56636924482882022857666015625">
        <ele>163.600006103515625</ele>
        <time>2026-08-13T06:26:23.000Z</time>
        <extensions>
          <ns3:TrackPointExtension>
            <ns3:hr>74</ns3:hr>
            <ns3:cad>0</ns3:cad>
          </ns3:TrackPointExtension>
        </extensions>
      </trkpt>
      <trkpt lat="43.76180556602776050567626953125" lon="1.5663746930658817291259765625">
        <ele>163.600006103515625</ele>
        <time>2026-08-13T06:26:24.000Z</time>
        <extensions>
          <ns3:TrackPointExtension>
            <ns3:hr>74</ns3:hr>
            <ns3:cad>0</ns3:cad>
          </ns3:TrackPointExtension>
        </extensions>
      </trkpt>
      <trkpt lat="43.7618043087422847747802734375" lon="1.5663783811032772064208984375">
        <ele>163.600006103515625</ele>
        <time>2026-08-13T06:26:25.000Z</time>
        <extensions>
          <ns3:TrackPointExtension>
            <ns3:hr>74</ns3:hr>
            <ns3:cad>0</ns3:cad>
          </ns3:TrackPointExtension>
        </extensions>
      </trkpt>
      <trkpt lat="43.76180456019937992095947265625" lon="1.56637854874134063720703125">
        <ele>163.600006103515625</ele>
        <time>2026-08-13T06:26:26.000Z</time>
        <extensions>
          <ns3:TrackPointExtension>
            <ns3:hr>73</ns3:hr>
            <ns3:cad>0</ns3:cad>
          </ns3:TrackPointExtension>
        </extensions>
      </trkpt>
      <trkpt lat="43.7618026323616504669189453125" lon="1.566372849047183990478515625">
        <ele>163.600006103515625</ele>
        <time>2026-08-13T06:26:27.000Z</time>
        <extensions>
          <ns3:TrackPointExtension>
            <ns3:hr>73</ns3:hr>
            <ns3:cad>0</ns3:cad>
          </ns3:TrackPointExtension>
        </extensions>
      </trkpt>
      <trkpt lat="43.76180305145680904388427734375" lon="1.5663689933717250823974609375">
        <ele>163.600006103515625</ele>
        <time>2026-08-13T06:26:28.000Z</time>
        <extensions>
          <ns3:TrackPointExtension>
            <ns3:hr>73</ns3:hr>
            <ns3:cad>0</ns3:cad>
          </ns3:TrackPointExtension>
        </extensions>
      </trkpt>
      <trkpt lat="43.76180372200906276702880859375" lon="1.56636907719075679779052734375">
        <ele>163.600006103515625</ele>
        <time>2026-08-13T06:26:29.000Z</time>
        <extensions>
          <ns3:TrackPointExtension>
            <ns3:hr>71</ns3:hr>
            <ns3:cad>0</ns3:cad>
          </ns3:TrackPointExtension>
        </extensions>
      </trkpt>
      <trkpt lat="43.76180405728518962860107421875" lon="1.5663684904575347900390625">
        <ele>163.600006103515625</ele>
        <time>2026-08-13T06:26:30.000Z</time>
        <extensions>
          <ns3:TrackPointExtension>
            <ns3:hr>70</ns3:hr>
            <ns3:cad>0</ns3:cad>
          </ns3:TrackPointExtension>
        </extensions>
      </trkpt>
      <trkpt lat="43.76180539838969707489013671875" lon="1.56637058593332767486572265625">
        <ele>163.600006103515625</ele>
        <time>2026-08-13T06:26:31.000Z</time>
        <extensions>
          <ns3:TrackPointExtension>
            <ns3:hr>69</ns3:hr>
            <ns3:cad>0</ns3:cad>
          </ns3:TrackPointExtension>
        </extensions>
      </trkpt>
      <trkpt lat="43.76180942170321941375732421875" lon="1.5663658082485198974609375">
        <ele>163.600006103515625</ele>
        <time>2026-08-13T06:26:32.000Z</time>
        <extensions>
          <ns3:TrackPointExtension>
            <ns3:hr>67</ns3:hr>
            <ns3:cad>0</ns3:cad>
          </ns3:TrackPointExtension>
        </extensions>
      </trkpt>
      <trkpt lat="43.76181394793093204498291015625" lon="1.56636471860110759735107421875">
        <ele>163.600006103515625</ele>
        <time>2026-08-13T06:26:33.000Z</time>
        <extensions>
          <ns3:TrackPointExtension>
            <ns3:hr>67</ns3:hr>
            <ns3:cad>0</ns3:cad>
          </ns3:TrackPointExtension>
        </extensions>
      </trkpt>
      <trkpt lat="43.76182216219604015350341796875" lon="1.56636178493499755859375">
        <ele>163.600006103515625</ele>
        <time>2026-08-13T06:26:34.000Z</time>
        <extensions>
          <ns3:TrackPointExtension>
            <ns3:hr>67</ns3:hr>
            <ns3:cad>0</ns3:cad>
          </ns3:TrackPointExtension>
        </extensions>
      </trkpt>
      <trkpt lat="43.76183129847049713134765625" lon="1.5663575939834117889404296875">
        <ele>163.600006103515625</ele>
        <time>2026-08-13T06:26:35.000Z</time>
        <extensions>
          <ns3:TrackPointExtension>
            <ns3:hr>66</ns3:hr>
            <ns3:cad>59</ns3:cad>
          </ns3:TrackPointExtension>
        </extensions>
      </trkpt>
      <trkpt lat="43.76184202730655670166015625" lon="1.56635382212698459625244140625">
        <ele>163.600006103515625</ele>
        <time>2026-08-13T06:26:36.000Z</time>
        <extensions>
          <ns3:TrackPointExtension>
            <ns3:hr>67</ns3:hr>
            <ns3:cad>59</ns3:cad>
          </ns3:TrackPointExtension>
        </extensions>
      </trkpt>
      <trkpt lat="43.7618534266948699951171875" lon="1.56635130755603313446044921875">
        <ele>163.600006103515625</ele>
        <time>2026-08-13T06:26:37.000Z</time>
        <extensions>
          <ns3:TrackPointExtension>
            <ns3:hr>68</ns3:hr>
            <ns3:cad>59</ns3:cad>
          </ns3:TrackPointExtension>
        </extensions>
      </trkpt>
      <trkpt lat="43.761862814426422119140625" lon="1.56634812243282794952392578125">
        <ele>163.600006103515625</ele>
        <time>2026-08-13T06:26:38.000Z</time>
        <extensions>
          <ns3:TrackPointExtension>
            <ns3:hr>68</ns3:hr>
            <ns3:cad>59</ns3:cad>
          </ns3:TrackPointExtension>
        </extensions>
      </trkpt>
      <trkpt lat="43.761870525777339935302734375" lon="1.5663482062518596649169921875">
        <ele>163.600006103515625</ele>
        <time>2026-08-13T06:26:39.000Z</time>
        <extensions>
          <ns3:TrackPointExtension>
            <ns3:hr>68</ns3:hr>
            <ns3:cad>77</ns3:cad>
          </ns3:TrackPointExtension>
        </extensions>
      </trkpt>
      <trkpt lat="43.76187622547149658203125" lon="1.56634636223316192626953125">
        <ele>163.600006103515625</ele>
        <time>2026-08-13T06:26:40.000Z</time>
        <extensions>
          <ns3:TrackPointExtension>
            <ns3:hr>69</ns3:hr>
            <ns3:cad>77</ns3:cad>
          </ns3:TrackPointExtension>
        </extensions>
      </trkpt>
      <trkpt lat="43.7618861161172389984130859375" lon="1.56634443439543247222900390625">
        <ele>163.600006103515625</ele>
        <time>2026-08-13T06:26:41.000Z</time>
        <extensions>
          <ns3:TrackPointExtension>
            <ns3:hr>68</ns3:hr>
            <ns3:cad>77</ns3:cad>
          </ns3:TrackPointExtension>
        </extensions>
      </trkpt>
      <trkpt lat="43.7618938274681568145751953125" lon="1.566342003643512725830078125">
        <ele>163.600006103515625</ele>
        <time>2026-08-13T06:26:42.000Z</time>
        <extensions>
          <ns3:TrackPointExtension>
            <ns3:hr>67</ns3:hr>
            <ns3:cad>42</ns3:cad>
          </ns3:TrackPointExtension>
        </extensions>
      </trkpt>
      <trkpt lat="43.76189835369586944580078125" lon="1.5663398243486881256103515625">
        <ele>163.600006103515625</ele>
        <time>2026-08-13T06:26:43.000Z</time>
        <extensions>
          <ns3:TrackPointExtension>
            <ns3:hr>66</ns3:hr>
            <ns3:cad>0</ns3:cad>
          </ns3:TrackPointExtension>
        </extensions>
      </trkpt>
      <trkpt lat="43.76190782524645328521728515625" lon="1.5663389861583709716796875">
        <ele>163.600006103515625</ele>
        <time>2026-08-13T06:26:44.000Z</time>
        <extensions>
          <ns3:TrackPointExtension>
            <ns3:hr>65</ns3:hr>
            <ns3:cad>0</ns3:cad>
          </ns3:TrackPointExtension>
        </extensions>
      </trkpt>
      <trkpt lat="43.76191821880638599395751953125" lon="1.56633655540645122528076171875">
        <ele>163.600006103515625</ele>
        <time>2026-08-13T06:26:45.000Z</time>
        <extensions>
          <ns3:TrackPointExtension>
            <ns3:hr>64</ns3:hr>
            <ns3:cad>0</ns3:cad>
          </ns3:TrackPointExtension>
        </extensions>
      </trkpt>
      <trkpt lat="43.76192475669085979461669921875" lon="1.5663351304829120635986328125">
        <ele>163.600006103515625</ele>
        <time>2026-08-13T06:26:46.000Z</time>
        <extensions>
          <ns3:TrackPointExtension>
            <ns3:hr>64</ns3:hr>
            <ns3:cad>0</ns3:cad>
          </ns3:TrackPointExtension>
        </extensions>
      </trkpt>
      <trkpt lat="43.76193464733660221099853515625" lon="1.56633404083549976348876953125">
        <ele>163.600006103515625</ele>
        <time>2026-08-13T06:26:47.000Z</time>
        <extensions>
          <ns3:TrackPointExtension>
            <ns3:hr>64</ns3:hr>
            <ns3:cad>0</ns3:cad>
          </ns3:TrackPointExtension>
        </extensions>
      </trkpt>
      <trkpt lat="43.7619419395923614501953125" lon="1.56632934696972370147705078125">
        <ele>163.399993896484375</ele>
        <time>2026-08-13T06:26:48.000Z</time>
        <extensions>
          <ns3:TrackPointExtension>
            <ns3:hr>64</ns3:hr>
            <ns3:cad>0</ns3:cad>
          </ns3:TrackPointExtension>
        </extensions>
      </trkpt>
      <trkpt lat="43.7619481422007083892822265625" lon="1.5663290955126285552978515625">
        <ele>163.399993896484375</ele>
        <time>2026-08-13T06:26:49.000Z</time>
        <extensions>
          <ns3:TrackPointExtension>
            <ns3:hr>64</ns3:hr>
            <ns3:cad>43</ns3:cad>
          </ns3:TrackPointExtension>
        </extensions>
      </trkpt>
      <trkpt lat="43.761952333152294158935546875" lon="1.5663301013410091400146484375">
        <ele>163.399993896484375</ele>
        <time>2026-08-13T06:26:50.000Z</time>
        <extensions>
          <ns3:TrackPointExtension>
            <ns3:hr>64</ns3:hr>
            <ns3:cad>0</ns3:cad>
          </ns3:TrackPointExtension>
        </extensions>
      </trkpt>
      <trkpt lat="43.761960379779338836669921875" lon="1.56632850877940654754638671875">
        <ele>163.399993896484375</ele>
        <time>2026-08-13T06:26:51.000Z</time>
        <extensions>
          <ns3:TrackPointExtension>
            <ns3:hr>64</ns3:hr>
            <ns3:cad>0</ns3:cad>
          </ns3:TrackPointExtension>
        </extensions>
      </trkpt>
      <trkpt lat="43.761969767510890960693359375" lon="1.56633487902581691741943359375">
        <ele>163.399993896484375</ele>
        <time>2026-08-13T06:26:52.000Z</time>
        <extensions>
          <ns3:TrackPointExtension>
            <ns3:hr>64</ns3:hr>
            <ns3:cad>0</ns3:cad>
          </ns3:TrackPointExtension>
        </extensions>
      </trkpt>
      <trkpt lat="43.76197488047182559967041015625" lon="1.56632716767489910125732421875">
        <ele>163.600006103515625</ele>
        <time>2026-08-13T06:26:53.000Z</time>
        <extensions>
          <ns3:TrackPointExtension>
            <ns3:hr>65</ns3:hr>
            <ns3:cad>0</ns3:cad>
          </ns3:TrackPointExtension>
        </extensions>
      </trkpt>
      <trkpt lat="43.7619830109179019927978515625" lon="1.56632381491363048553466796875">
        <ele>163.600006103515625</ele>
        <time>2026-08-13T06:26:54.000Z</time>
        <extensions>
          <ns3:TrackPointExtension>
            <ns3:hr>65</ns3:hr>
            <ns3:cad>45</ns3:cad>
          </ns3:TrackPointExtension>
        </extensions>
      </trkpt>
      <trkpt lat="43.7619907222688198089599609375" lon="1.5663203783333301544189453125">
        <ele>163.600006103515625</ele>
        <time>2026-08-13T06:26:55.000Z</time>
        <extensions>
          <ns3:TrackPointExtension>
            <ns3:hr>66</ns3:hr>
            <ns3:cad>45</ns3:cad>
          </ns3:TrackPointExtension>
        </extensions>
      </trkpt>
      <trkpt lat="43.7619950808584690093994140625" lon="1.56631861813366413116455078125">
        <ele>163.600006103515625</ele>
        <time>2026-08-13T06:26:56.000Z</time>
        <extensions>
          <ns3:TrackPointExtension>
            <ns3:hr>65</ns3:hr>
            <ns3:cad>45</ns3:cad>
          </ns3:TrackPointExtension>
        </extensions>
      </trkpt>
      <trkpt lat="43.7620105035603046417236328125" lon="1.56632130034267902374267578125">
        <ele>163.600006103515625</ele>
        <time>2026-08-13T06:26:57.000Z</time>
        <extensions>
          <ns3:TrackPointExtension>
            <ns3:hr>65</ns3:hr>
            <ns3:cad>45</ns3:cad>
          </ns3:TrackPointExtension>
        </extensions>
      </trkpt>
      <trkpt lat="43.76201746053993701934814453125" lon="1.56631727702915668487548828125">
        <ele>163.600006103515625</ele>
        <time>2026-08-13T06:26:58.000Z</time>
        <extensions>
          <ns3:TrackPointExtension>
            <ns3:hr>65</ns3:hr>
            <ns3:cad>45</ns3:cad>
          </ns3:TrackPointExtension>
        </extensions>
      </trkpt>
      <trkpt lat="43.76202232204377651214599609375" lon="1.56632347963750362396240234375">
        <ele>163.600006103515625</ele>
        <time>2026-08-13T06:26:59.000Z</time>
        <extensions>
          <ns3:TrackPointExtension>
            <ns3:hr>65</ns3:hr>
            <ns3:cad>43</ns3:cad>
          </ns3:TrackPointExtension>
        </extensions>
      </trkpt>
      <trkpt lat="43.76203489489853382110595703125" lon="1.56632683239877223968505859375">
        <ele>163.600006103515625</ele>
        <time>2026-08-13T06:27:00.000Z</time>
        <extensions>
          <ns3:TrackPointExtension>
            <ns3:hr>65</ns3:hr>
            <ns3:cad>43</ns3:cad>
          </ns3:TrackPointExtension>
        </extensions>
      </trkpt>
      <trkpt lat="43.76204730011522769927978515625" lon="1.5663327835500240325927734375">
        <ele>163.399993896484375</ele>
        <time>2026-08-13T06:27:01.000Z</time>
        <extensions>
          <ns3:TrackPointExtension>
            <ns3:hr>65</ns3:hr>
            <ns3:cad>43</ns3:cad>
          </ns3:TrackPointExtension>
        </extensions>
      </trkpt>
      <trkpt lat="43.76205350272357463836669921875" lon="1.56633622013032436370849609375">
        <ele>163.399993896484375</ele>
        <time>2026-08-13T06:27:02.000Z</time>
        <extensions>
          <ns3:TrackPointExtension>
            <ns3:hr>65</ns3:hr>
            <ns3:cad>0</ns3:cad>
          </ns3:TrackPointExtension>
        </extensions>
      </trkpt>
      <trkpt lat="43.76205953769385814666748046875" lon="1.5663435123860836029052734375">
        <ele>163.399993896484375</ele>
        <time>2026-08-13T06:27:03.000Z</time>
        <extensions>
          <ns3:TrackPointExtension>
            <ns3:hr>65</ns3:hr>
            <ns3:cad>0</ns3:cad>
          </ns3:TrackPointExtension>
        </extensions>
      </trkpt>
      <trkpt lat="43.76206733286380767822265625" lon="1.56635164283215999603271484375">
        <ele>163.600006103515625</ele>
        <time>2026-08-13T06:27:04.000Z</time>
        <extensions>
          <ns3:TrackPointExtension>
            <ns3:hr>66</ns3:hr>
            <ns3:cad>53</ns3:cad>
          </ns3:TrackPointExtension>
        </extensions>
      </trkpt>
      <trkpt lat="43.76207915134727954864501953125" lon="1.56636371277272701263427734375">
        <ele>163.600006103515625</ele>
        <time>2026-08-13T06:27:05.000Z</time>
        <extensions>
          <ns3:TrackPointExtension>
            <ns3:hr>66</ns3:hr>
            <ns3:cad>53</ns3:cad>
          </ns3:TrackPointExtension>
        </extensions>
      </trkpt>
      <trkpt lat="43.76208619214594364166259765625" lon="1.56636907719075679779052734375">
        <ele>163.600006103515625</ele>
        <time>2026-08-13T06:27:06.000Z</time>
        <extensions>
          <ns3:TrackPointExtension>
            <ns3:hr>67</ns3:hr>
            <ns3:cad>53</ns3:cad>
          </ns3:TrackPointExtension>
        </extensions>
      </trkpt>
      <trkpt lat="43.76209273003041744232177734375" lon="1.566380225121974945068359375">
        <ele>163.399993896484375</ele>
        <time>2026-08-13T06:27:07.000Z</time>
        <extensions>
          <ns3:TrackPointExtension>
            <ns3:hr>68</ns3:hr>
            <ns3:cad>53</ns3:cad>
          </ns3:TrackPointExtension>
        </extensions>
      </trkpt>
      <trkpt lat="43.76209817826747894287109375" lon="1.5663881041109561920166015625">
        <ele>163.399993896484375</ele>
        <time>2026-08-13T06:27:08.000Z</time>
        <extensions>
          <ns3:TrackPointExtension>
            <ns3:hr>68</ns3:hr>
            <ns3:cad>0</ns3:cad>
          </ns3:TrackPointExtension>
        </extensions>
      </trkpt>
      <trkpt lat="43.76210396178066730499267578125" lon="1.56639732420444488525390625">
        <ele>163.1999969482421875</ele>
        <time>2026-08-13T06:27:09.000Z</time>
        <extensions>
          <ns3:TrackPointExtension>
            <ns3:hr>68</ns3:hr>
            <ns3:cad>0</ns3:cad>
          </ns3:TrackPointExtension>
        </extensions>
      </trkpt>
      <trkpt lat="43.7621104158461093902587890625" lon="1.56640671193599700927734375">
        <ele>163.1999969482421875</ele>
        <time>2026-08-13T06:27:10.000Z</time>
        <extensions>
          <ns3:TrackPointExtension>
            <ns3:hr>68</ns3:hr>
            <ns3:cad>0</ns3:cad>
          </ns3:TrackPointExtension>
        </extensions>
      </trkpt>
      <trkpt lat="43.76211619935929775238037109375" lon="1.5664122439920902252197265625">
        <ele>163.1999969482421875</ele>
        <time>2026-08-13T06:27:11.000Z</time>
        <extensions>
          <ns3:TrackPointExtension>
            <ns3:hr>68</ns3:hr>
            <ns3:cad>0</ns3:cad>
          </ns3:TrackPointExtension>
        </extensions>
      </trkpt>
      <trkpt lat="43.76212298870086669921875" lon="1.5664182789623737335205078125">
        <ele>163.1999969482421875</ele>
        <time>2026-08-13T06:27:12.000Z</time>
        <extensions>
          <ns3:TrackPointExtension>
            <ns3:hr>67</ns3:hr>
            <ns3:cad>0</ns3:cad>
          </ns3:TrackPointExtension>
        </extensions>
      </trkpt>
      <trkpt lat="43.7621301971375942230224609375" lon="1.5664248168468475341796875">
        <ele>163.1999969482421875</ele>
        <time>2026-08-13T06:27:13.000Z</time>
        <extensions>
          <ns3:TrackPointExtension>
            <ns3:hr>67</ns3:hr>
            <ns3:cad>0</ns3:cad>
          </ns3:TrackPointExtension>
        </extensions>
      </trkpt>
      <trkpt lat="43.76213698647916316986083984375" lon="1.56643219292163848876953125">
        <ele>163.1999969482421875</ele>
        <time>2026-08-13T06:27:14.000Z</time>
        <extensions>
          <ns3:TrackPointExtension>
            <ns3:hr>67</ns3:hr>
            <ns3:cad>0</ns3:cad>
          </ns3:TrackPointExtension>
        </extensions>
      </trkpt>
      <trkpt lat="43.762144111096858978271484375" lon="1.566439904272556304931640625">
        <ele>163.1999969482421875</ele>
        <time>2026-08-13T06:27:15.000Z</time>
        <extensions>
          <ns3:TrackPointExtension>
            <ns3:hr>68</ns3:hr>
            <ns3:cad>0</ns3:cad>
          </ns3:TrackPointExtension>
        </extensions>
      </trkpt>
      <trkpt lat="43.76214788295328617095947265625" lon="1.56645004637539386749267578125">
        <ele>163</ele>
        <time>2026-08-13T06:27:16.000Z</time>
        <extensions>
          <ns3:TrackPointExtension>
            <ns3:hr>68</ns3:hr>
            <ns3:cad>0</ns3:cad>
          </ns3:TrackPointExtension>
        </extensions>
      </trkpt>
      <trkpt lat="43.76215207390487194061279296875" lon="1.56645490787923336029052734375">
        <ele>163</ele>
        <time>2026-08-13T06:27:17.000Z</time>
        <extensions>
          <ns3:TrackPointExtension>
            <ns3:hr>68</ns3:hr>
            <ns3:cad>0</ns3:cad>
          </ns3:TrackPointExtension>
        </extensions>
      </trkpt>
      <trkpt lat="43.76215509139001369476318359375" lon="1.56645759008824825286865234375">
        <ele>163</ele>
        <time>2026-08-13T06:27:18.000Z</time>
        <extensions>
          <ns3:TrackPointExtension>
            <ns3:hr>68</ns3:hr>
            <ns3:cad>0</ns3:cad>
          </ns3:TrackPointExtension>
        </extensions>
      </trkpt>
      <trkpt lat="43.76215626485645771026611328125" lon="1.56645775772631168365478515625">
        <ele>163</ele>
        <time>2026-08-13T06:27:19.000Z</time>
        <extensions>
          <ns3:TrackPointExtension>
            <ns3:hr>68</ns3:hr>
            <ns3:cad>0</ns3:cad>
          </ns3:TrackPointExtension>
        </extensions>
      </trkpt>
      <trkpt lat="43.7621550075709819793701171875" lon="1.566458679735660552978515625">
        <ele>163</ele>
        <time>2026-08-13T06:27:20.000Z</time>
        <extensions>
          <ns3:TrackPointExtension>
            <ns3:hr>68</ns3:hr>
            <ns3:cad>0</ns3:cad>
          </ns3:TrackPointExtension>
        </extensions>
      </trkpt>
      <trkpt lat="43.76215358264744281768798828125" lon="1.56646010465919971466064453125">
        <ele>163</ele>
        <time>2026-08-13T06:27:21.000Z</time>
        <extensions>
          <ns3:TrackPointExtension>
            <ns3:hr>68</ns3:hr>
            <ns3:cad>0</ns3:cad>
          </ns3:TrackPointExtension>
        </extensions>
      </trkpt>
      <trkpt lat="43.76215307973325252532958984375" lon="1.56646228395402431488037109375">
        <ele>163</ele>
        <time>2026-08-13T06:27:22.000Z</time>
        <extensions>
          <ns3:TrackPointExtension>
            <ns3:hr>68</ns3:hr>
            <ns3:cad>0</ns3:cad>
          </ns3:TrackPointExtension>
        </extensions>
      </trkpt>
      <trkpt lat="43.762152493000030517578125" lon="1.56646303832530975341796875">
        <ele>163</ele>
        <time>2026-08-13T06:27:23.000Z</time>
        <extensions>
          <ns3:TrackPointExtension>
            <ns3:hr>69</ns3:hr>
            <ns3:cad>0</ns3:cad>
          </ns3:TrackPointExtension>
        </extensions>
      </trkpt>
      <trkpt lat="43.76215140335261821746826171875" lon="1.56646446324884891510009765625">
        <ele>163</ele>
        <time>2026-08-13T06:27:24.000Z</time>
        <extensions>
          <ns3:TrackPointExtension>
            <ns3:hr>70</ns3:hr>
            <ns3:cad>0</ns3:cad>
          </ns3:TrackPointExtension>
        </extensions>
      </trkpt>
      <trkpt lat="43.762151487171649932861328125" lon="1.56646647490561008453369140625">
        <ele>163</ele>
        <time>2026-08-13T06:27:25.000Z</time>
        <extensions>
          <ns3:TrackPointExtension>
            <ns3:hr>72</ns3:hr>
            <ns3:cad>0</ns3:cad>
          </ns3:TrackPointExtension>
        </extensions>
      </trkpt>
      <trkpt lat="43.76215106807649135589599609375" lon="1.56646907329559326171875">
        <ele>163</ele>
        <time>2026-08-13T06:27:26.000Z</time>
        <extensions>
          <ns3:TrackPointExtension>
            <ns3:hr>73</ns3:hr>
            <ns3:cad>0</ns3:cad>
          </ns3:TrackPointExtension>
        </extensions>
      </trkpt>
      <trkpt lat="43.76215274445712566375732421875" lon="1.56646999530494213104248046875">
        <ele>163</ele>
        <time>2026-08-13T06:27:27.000Z</time>
        <extensions>
          <ns3:TrackPointExtension>
            <ns3:hr>74</ns3:hr>
            <ns3:cad>0</ns3:cad>
          </ns3:TrackPointExtension>
        </extensions>
      </trkpt>
      <trkpt lat="43.76215274445712566375732421875" lon="1.566470079123973846435546875">
        <ele>163</ele>
        <time>2026-08-13T06:27:28.000Z</time>
        <extensions>
          <ns3:TrackPointExtension>
            <ns3:hr>74</ns3:hr>
            <ns3:cad>0</ns3:cad>
          </ns3:TrackPointExtension>
        </extensions>
      </trkpt>
      <trkpt lat="43.76215274445712566375732421875" lon="1.566470079123973846435546875">
        <ele>163</ele>
        <time>2026-08-13T06:27:29.000Z</time>
        <extensions>
          <ns3:TrackPointExtension>
            <ns3:hr>73</ns3:hr>
            <ns3:cad>0</ns3:cad>
          </ns3:TrackPointExtension>
        </extensions>
      </trkpt>
      <trkpt lat="43.76215274445712566375732421875" lon="1.566470079123973846435546875">
        <ele>163</ele>
        <time>2026-08-13T06:27:30.000Z</time>
        <extensions>
          <ns3:TrackPointExtension>
            <ns3:hr>68</ns3:hr>
            <ns3:cad>0</ns3:cad>
          </ns3:TrackPointExtension>
        </extensions>
      </trkpt>
      <trkpt lat="43.76215274445712566375732421875" lon="1.566470079123973846435546875">
        <ele>163</ele>
        <time>2026-08-13T06:27:31.000Z</time>
        <extensions>
          <ns3:TrackPointExtension>
            <ns3:hr>67</ns3:hr>
            <ns3:cad>0</ns3:cad>
          </ns3:TrackPointExtension>
        </extensions>
      </trkpt>
      <trkpt lat="43.76215274445712566375732421875" lon="1.566470079123973846435546875">
        <ele>163</ele>
        <time>2026-08-13T06:27:32.000Z</time>
        <extensions>
          <ns3:TrackPointExtension>
            <ns3:hr>67</ns3:hr>
            <ns3:cad>0</ns3:cad>
          </ns3:TrackPointExtension>
        </extensions>
      </trkpt>
      <trkpt lat="43.76215274445712566375732421875" lon="1.566470079123973846435546875">
        <ele>163</ele>
        <time>2026-08-13T06:27:33.000Z</time>
        <extensions>
          <ns3:TrackPointExtension>
            <ns3:hr>67</ns3:hr>
            <ns3:cad>0</ns3:cad>
          </ns3:TrackPointExtension>
        </extensions>
      </trkpt>
      <trkpt lat="43.76215274445712566375732421875" lon="1.566470079123973846435546875">
        <ele>163</ele>
        <time>2026-08-13T06:27:34.000Z</time>
        <extensions>
          <ns3:TrackPointExtension>
            <ns3:hr>67</ns3:hr>
            <ns3:cad>0</ns3:cad>
          </ns3:TrackPointExtension>
        </extensions>
      </trkpt>
      <trkpt lat="43.76215274445712566375732421875" lon="1.566470079123973846435546875">
        <ele>163</ele>
        <time>2026-08-13T06:27:35.000Z</time>
        <extensions>
          <ns3:TrackPointExtension>
            <ns3:hr>68</ns3:hr>
            <ns3:cad>0</ns3:cad>
          </ns3:TrackPointExtension>
        </extensions>
      </trkpt>
      <trkpt lat="43.76215274445712566375732421875" lon="1.566470079123973846435546875">
        <ele>163</ele>
        <time>2026-08-13T06:27:36.000Z</time>
        <extensions>
          <ns3:TrackPointExtension>
            <ns3:hr>67</ns3:hr>
            <ns3:cad>0</ns3:cad>
          </ns3:TrackPointExtension>
        </extensions>
      </trkpt>
      <trkpt lat="43.76215274445712566375732421875" lon="1.566470079123973846435546875">
        <ele>163</ele>
        <time>2026-08-13T06:27:37.000Z</time>
        <extensions>
          <ns3:TrackPointExtension>
            <ns3:hr>67</ns3:hr>
            <ns3:cad>0</ns3:cad>
          </ns3:TrackPointExtension>
        </extensions>
      </trkpt>
      <trkpt lat="43.76215274445712566375732421875" lon="1.566470079123973846435546875">
        <ele>163</ele>
        <time>2026-08-13T06:27:38.000Z</time>
        <extensions>
          <ns3:TrackPointExtension>
            <ns3:hr>68</ns3:hr>
            <ns3:cad>0</ns3:cad>
          </ns3:TrackPointExtension>
        </extensions>
      </trkpt>
      <trkpt lat="43.76215274445712566375732421875" lon="1.566470079123973846435546875">
        <ele>163</ele>
        <time>2026-08-13T06:27:39.000Z</time>
        <extensions>
          <ns3:TrackPointExtension>
            <ns3:hr>67</ns3:hr>
            <ns3:cad>0</ns3:cad>
          </ns3:TrackPointExtension>
        </extensions>
      </trkpt>
      <trkpt lat="43.76215274445712566375732421875" lon="1.566470079123973846435546875">
        <ele>163</ele>
        <time>2026-08-13T06:27:40.000Z</time>
        <extensions>
          <ns3:TrackPointExtension>
            <ns3:hr>67</ns3:hr>
            <ns3:cad>0</ns3:cad>
          </ns3:TrackPointExtension>
        </extensions>
      </trkpt>
      <trkpt lat="43.76215274445712566375732421875" lon="1.566470079123973846435546875">
        <ele>163</ele>
        <time>2026-08-13T06:27:41.000Z</time>
        <extensions>
          <ns3:TrackPointExtension>
            <ns3:hr>67</ns3:hr>
            <ns3:cad>0</ns3:cad>
          </ns3:TrackPointExtension>
        </extensions>
      </trkpt>
      <trkpt lat="43.76215274445712566375732421875" lon="1.566470079123973846435546875">
        <ele>163</ele>
        <time>2026-08-13T06:27:42.000Z</time>
        <extensions>
          <ns3:TrackPointExtension>
            <ns3:hr>68</ns3:hr>
            <ns3:cad>0</ns3:cad>
          </ns3:TrackPointExtension>
        </extensions>
      </trkpt>
      <trkpt lat="43.76215274445712566375732421875" lon="1.566470079123973846435546875">
        <ele>163</ele>
        <time>2026-08-13T06:27:43.000Z</time>
        <extensions>
          <ns3:TrackPointExtension>
            <ns3:hr>67</ns3:hr>
            <ns3:cad>0</ns3:cad>
          </ns3:TrackPointExtension>
        </extensions>
      </trkpt>
      <trkpt lat="43.76215274445712566375732421875" lon="1.566470079123973846435546875">
        <ele>163</ele>
        <time>2026-08-13T06:27:44.000Z</time>
        <extensions>
          <ns3:TrackPointExtension>
            <ns3:hr>68</ns3:hr>
            <ns3:cad>0</ns3:cad>
          </ns3:TrackPointExtension>
        </extensions>
      </trkpt>
      <trkpt lat="43.76215274445712566375732421875" lon="1.566470079123973846435546875">
        <ele>163</ele>
        <time>2026-08-13T06:27:45.000Z</time>
        <extensions>
          <ns3:TrackPointExtension>
            <ns3:hr>69</ns3:hr>
            <ns3:cad>0</ns3:cad>
          </ns3:TrackPointExtension>
        </extensions>
      </trkpt>
      <trkpt lat="43.76215274445712566375732421875" lon="1.566470079123973846435546875">
        <ele>163</ele>
        <time>2026-08-13T06:27:46.000Z</time>
        <extensions>
          <ns3:TrackPointExtension>
            <ns3:hr>69</ns3:hr>
            <ns3:cad>0</ns3:cad>
          </ns3:TrackPointExtension>
        </extensions>
      </trkpt>
      <trkpt lat="43.76215274445712566375732421875" lon="1.566470079123973846435546875">
        <ele>163</ele>
        <time>2026-08-13T06:27:47.000Z</time>
        <extensions>
          <ns3:TrackPointExtension>
            <ns3:hr>69</ns3:hr>
            <ns3:cad>0</ns3:cad>
          </ns3:TrackPointExtension>
        </extensions>
      </trkpt>
      <trkpt lat="43.76215274445712566375732421875" lon="1.566470079123973846435546875">
        <ele>163</ele>
        <time>2026-08-13T06:27:48.000Z</time>
        <extensions>
          <ns3:TrackPointExtension>
            <ns3:hr>69</ns3:hr>
            <ns3:cad>0</ns3:cad>
          </ns3:TrackPointExtension>
        </extensions>
      </trkpt>
      <trkpt lat="43.76215274445712566375732421875" lon="1.566470079123973846435546875">
        <ele>163</ele>
        <time>2026-08-13T06:27:49.000Z</time>
        <extensions>
          <ns3:TrackPointExtension>
            <ns3:hr>69</ns3:hr>
            <ns3:cad>0</ns3:cad>
          </ns3:TrackPointExtension>
        </extensions>
      </trkpt>
      <trkpt lat="43.762163221836090087890625" lon="1.56647284515202045440673828125">
        <ele>163</ele>
        <time>2026-08-13T06:27:50.000Z</time>
        <extensions>
          <ns3:TrackPointExtension>
            <ns3:hr>68</ns3:hr>
            <ns3:cad>0</ns3:cad>
          </ns3:TrackPointExtension>
        </extensions>
      </trkpt>
      <trkpt lat="43.76216590404510498046875" lon="1.56647820957005023956298828125">
        <ele>163</ele>
        <time>2026-08-13T06:27:51.000Z</time>
        <extensions>
          <ns3:TrackPointExtension>
            <ns3:hr>67</ns3:hr>
            <ns3:cad>0</ns3:cad>
          </ns3:TrackPointExtension>
        </extensions>
      </trkpt>
      <trkpt lat="43.76217051409184932708740234375" lon="1.566483490169048309326171875">
        <ele>162.8000030517578125</ele>
        <time>2026-08-13T06:27:52.000Z</time>
        <extensions>
          <ns3:TrackPointExtension>
            <ns3:hr>67</ns3:hr>
            <ns3:cad>0</ns3:cad>
          </ns3:TrackPointExtension>
        </extensions>
      </trkpt>
      <trkpt lat="43.7621828354895114898681640625" lon="1.56648055650293827056884765625">
        <ele>162.8000030517578125</ele>
        <time>2026-08-13T06:27:53.000Z</time>
        <extensions>
          <ns3:TrackPointExtension>
            <ns3:hr>67</ns3:hr>
            <ns3:cad>0</ns3:cad>
          </ns3:TrackPointExtension>
        </extensions>
      </trkpt>
      <trkpt lat="43.76219834201037883758544921875" lon="1.56648826785385608673095703125">
        <ele>162.8000030517578125</ele>
        <time>2026-08-13T06:27:54.000Z</time>
        <extensions>
          <ns3:TrackPointExtension>
            <ns3:hr>67</ns3:hr>
            <ns3:cad>0</ns3:cad>
          </ns3:TrackPointExtension>
        </extensions>
      </trkpt>
      <trkpt lat="43.76220680773258209228515625" lon="1.5664873458445072174072265625">
        <ele>162.8000030517578125</ele>
        <time>2026-08-13T06:27:55.000Z</time>
        <extensions>
          <ns3:TrackPointExtension>
            <ns3:hr>66</ns3:hr>
            <ns3:cad>0</ns3:cad>
          </ns3:TrackPointExtension>
        </extensions>
      </trkpt>
      <trkpt lat="43.76221611164510250091552734375" lon="1.56648810021579265594482421875">
        <ele>162.8000030517578125</ele>
        <time>2026-08-13T06:27:56.000Z</time>
        <extensions>
          <ns3:TrackPointExtension>
            <ns3:hr>66</ns3:hr>
            <ns3:cad>44</ns3:cad>
          </ns3:TrackPointExtension>
        </extensions>
      </trkpt>
      <trkpt lat="43.76222692430019378662109375" lon="1.5664896927773952484130859375">
        <ele>162.8000030517578125</ele>
        <time>2026-08-13T06:27:57.000Z</time>
        <extensions>
          <ns3:TrackPointExtension>
            <ns3:hr>66</ns3:hr>
            <ns3:cad>45</ns3:cad>
          </ns3:TrackPointExtension>
        </extensions>
      </trkpt>
      <trkpt lat="43.76223488710820674896240234375" lon="1.56649078242480754852294921875">
        <ele>162.8000030517578125</ele>
        <time>2026-08-13T06:27:58.000Z</time>
        <extensions>
          <ns3:TrackPointExtension>
            <ns3:hr>67</ns3:hr>
            <ns3:cad>45</ns3:cad>
          </ns3:TrackPointExtension>
        </extensions>
      </trkpt>
      <trkpt lat="43.7622438557446002960205078125" lon="1.5664913691580295562744140625">
        <ele>162.8000030517578125</ele>
        <time>2026-08-13T06:27:59.000Z</time>
        <extensions>
          <ns3:TrackPointExtension>
            <ns3:hr>67</ns3:hr>
            <ns3:cad>0</ns3:cad>
          </ns3:TrackPointExtension>
        </extensions>
      </trkpt>
      <trkpt lat="43.7622512318193912506103515625" lon="1.56649229116737842559814453125">
        <ele>162.8000030517578125</ele>
        <time>2026-08-13T06:28:00.000Z</time>
        <extensions>
          <ns3:TrackPointExtension>
            <ns3:hr>67</ns3:hr>
            <ns3:cad>0</ns3:cad>
          </ns3:TrackPointExtension>
        </extensions>
      </trkpt>
      <trkpt lat="43.762257434427738189697265625" lon="1.5664940513670444488525390625">
        <ele>162.8000030517578125</ele>
        <time>2026-08-13T06:28:01.000Z</time>
        <extensions>
          <ns3:TrackPointExtension>
            <ns3:hr>66</ns3:hr>
            <ns3:cad>44</ns3:cad>
          </ns3:TrackPointExtension>
        </extensions>
      </trkpt>
      <trkpt lat="43.7622653134167194366455078125" lon="1.5664947219192981719970703125">
        <ele>162.8000030517578125</ele>
        <time>2026-08-13T06:28:02.000Z</time>
        <extensions>
          <ns3:TrackPointExtension>
            <ns3:hr>66</ns3:hr>
            <ns3:cad>44</ns3:cad>
          </ns3:TrackPointExtension>
        </extensions>
      </trkpt>
      <trkpt lat="43.76227059401571750640869140625" lon="1.56649815849959850311279296875">
        <ele>162.8000030517578125</ele>
        <time>2026-08-13T06:28:03.000Z</time>
        <extensions>
          <ns3:TrackPointExtension>
            <ns3:hr>66</ns3:hr>
            <ns3:cad>44</ns3:cad>
          </ns3:TrackPointExtension>
        </extensions>
      </trkpt>
      <trkpt lat="43.7622804008424282073974609375" lon="1.56650100834667682647705078125">
        <ele>162.8000030517578125</ele>
        <time>2026-08-13T06:28:04.000Z</time>
        <extensions>
          <ns3:TrackPointExtension>
            <ns3:hr>67</ns3:hr>
            <ns3:cad>0</ns3:cad>
          </ns3:TrackPointExtension>
        </extensions>
      </trkpt>
      <trkpt lat="43.76228953711688518524169921875" lon="1.5665044449269771575927734375">
        <ele>162.8000030517578125</ele>
        <time>2026-08-13T06:28:05.000Z</time>
        <extensions>
          <ns3:TrackPointExtension>
            <ns3:hr>66</ns3:hr>
            <ns3:cad>0</ns3:cad>
          </ns3:TrackPointExtension>
        </extensions>
      </trkpt>
      <trkpt lat="43.76229808665812015533447265625" lon="1.56650570221245288848876953125">
        <ele>162.8000030517578125</ele>
        <time>2026-08-13T06:28:06.000Z</time>
        <extensions>
          <ns3:TrackPointExtension>
            <ns3:hr>66</ns3:hr>
            <ns3:cad>41</ns3:cad>
          </ns3:TrackPointExtension>
        </extensions>
      </trkpt>
      <trkpt lat="43.7623072229325771331787109375" lon="1.56650922261178493499755859375">
        <ele>162.8000030517578125</ele>
        <time>2026-08-13T06:28:07.000Z</time>
        <extensions>
          <ns3:TrackPointExtension>
            <ns3:hr>66</ns3:hr>
            <ns3:cad>42</ns3:cad>
          </ns3:TrackPointExtension>
        </extensions>
      </trkpt>
      <trkpt lat="43.76231677830219268798828125" lon="1.566515006124973297119140625">
        <ele>162.600006103515625</ele>
        <time>2026-08-13T06:28:08.000Z</time>
        <extensions>
          <ns3:TrackPointExtension>
            <ns3:hr>67</ns3:hr>
            <ns3:cad>42</ns3:cad>
          </ns3:TrackPointExtension>
        </extensions>
      </trkpt>
      <trkpt lat="43.76232591457664966583251953125" lon="1.56651291064918041229248046875">
        <ele>162.600006103515625</ele>
        <time>2026-08-13T06:28:09.000Z</time>
        <extensions>
          <ns3:TrackPointExtension>
            <ns3:hr>69</ns3:hr>
            <ns3:cad>42</ns3:cad>
          </ns3:TrackPointExtension>
        </extensions>
      </trkpt>
      <trkpt lat="43.76233530230820178985595703125" lon="1.566509306430816650390625">
        <ele>162.600006103515625</ele>
        <time>2026-08-13T06:28:10.000Z</time>
        <extensions>
          <ns3:TrackPointExtension>
            <ns3:hr>72</ns3:hr>
            <ns3:cad>47</ns3:cad>
          </ns3:TrackPointExtension>
        </extensions>
      </trkpt>
      <trkpt lat="43.7623464502394199371337890625" lon="1.56650486402213573455810546875">
        <ele>162.600006103515625</ele>
        <time>2026-08-13T06:28:11.000Z</time>
        <extensions>
          <ns3:TrackPointExtension>
            <ns3:hr>73</ns3:hr>
            <ns3:cad>47</ns3:cad>
          </ns3:TrackPointExtension>
        </extensions>
      </trkpt>
      <trkpt lat="43.7623531557619571685791015625" lon="1.56650017015635967254638671875">
        <ele>162.600006103515625</ele>
        <time>2026-08-13T06:28:12.000Z</time>
        <extensions>
          <ns3:TrackPointExtension>
            <ns3:hr>73</ns3:hr>
            <ns3:cad>46</ns3:cad>
          </ns3:TrackPointExtension>
        </extensions>
      </trkpt>
      <trkpt lat="43.76236237585544586181640625" lon="1.56649379990994930267333984375">
        <ele>162.600006103515625</ele>
        <time>2026-08-13T06:28:13.000Z</time>
        <extensions>
          <ns3:TrackPointExtension>
            <ns3:hr>75</ns3:hr>
            <ns3:cad>46</ns3:cad>
          </ns3:TrackPointExtension>
        </extensions>
      </trkpt>
      <trkpt lat="43.76237117685377597808837890625" lon="1.5664863400161266326904296875">
        <ele>162.600006103515625</ele>
        <time>2026-08-13T06:28:14.000Z</time>
        <extensions>
          <ns3:TrackPointExtension>
            <ns3:hr>76</ns3:hr>
            <ns3:cad>46</ns3:cad>
          </ns3:TrackPointExtension>
        </extensions>
      </trkpt>
      <trkpt lat="43.7623799778521060943603515625" lon="1.56647485680878162384033203125">
        <ele>162.600006103515625</ele>
        <time>2026-08-13T06:28:15.000Z</time>
        <extensions>
          <ns3:TrackPointExtension>
            <ns3:hr>77</ns3:hr>
            <ns3:cad>47</ns3:cad>
          </ns3:TrackPointExtension>
        </extensions>
      </trkpt>
      <trkpt lat="43.76239028759300708770751953125" lon="1.56646245159208774566650390625">
        <ele>162.600006103515625</ele>
        <time>2026-08-13T06:28:16.000Z</time>
        <extensions>
          <ns3:TrackPointExtension>
            <ns3:hr>78</ns3:hr>
            <ns3:cad>47</ns3:cad>
          </ns3:TrackPointExtension>
        </extensions>
      </trkpt>
      <trkpt lat="43.7623970769345760345458984375" lon="1.5664551593363285064697265625">
        <ele>162.600006103515625</ele>
        <time>2026-08-13T06:28:17.000Z</time>
        <extensions>
          <ns3:TrackPointExtension>
            <ns3:hr>78</ns3:hr>
            <ns3:cad>47</ns3:cad>
          </ns3:TrackPointExtension>
        </extensions>
      </trkpt>
      <trkpt lat="43.76240604557096958160400390625" lon="1.56644552014768123626708984375">
        <ele>162.600006103515625</ele>
        <time>2026-08-13T06:28:18.000Z</time>
        <extensions>
          <ns3:TrackPointExtension>
            <ns3:hr>79</ns3:hr>
            <ns3:cad>47</ns3:cad>
          </ns3:TrackPointExtension>
        </extensions>
      </trkpt>
      <trkpt lat="43.76241643913090229034423828125" lon="1.56643630005419254302978515625">
        <ele>162.600006103515625</ele>
        <time>2026-08-13T06:28:19.000Z</time>
        <extensions>
          <ns3:TrackPointExtension>
            <ns3:hr>79</ns3:hr>
            <ns3:cad>47</ns3:cad>
          </ns3:TrackPointExtension>
        </extensions>
      </trkpt>
      <trkpt lat="43.7624247372150421142578125" lon="1.56642741523683071136474609375">
        <ele>162.600006103515625</ele>
        <time>2026-08-13T06:28:20.000Z</time>
        <extensions>
          <ns3:TrackPointExtension>
            <ns3:hr>79</ns3:hr>
            <ns3:cad>47</ns3:cad>
          </ns3:TrackPointExtension>
        </extensions>
      </trkpt>
      <trkpt lat="43.76243135891854763031005859375" lon="1.56642054207623004913330078125">
        <ele>162.8000030517578125</ele>
        <time>2026-08-13T06:28:21.000Z</time>
        <extensions>
          <ns3:TrackPointExtension>
            <ns3:hr>79</ns3:hr>
            <ns3:cad>47</ns3:cad>
          </ns3:TrackPointExtension>
        </extensions>
      </trkpt>
      <trkpt lat="43.76243135891854763031005859375" lon="1.56642054207623004913330078125">
        <ele>162.8000030517578125</ele>
        <time>2026-08-13T06:28:22.000Z</time>
        <extensions>
          <ns3:TrackPointExtension>
            <ns3:hr>79</ns3:hr>
            <ns3:cad>47</ns3:cad>
          </ns3:TrackPointExtension>
        </extensions>
      </trkpt>
      <trkpt lat="43.762446530163288116455078125" lon="1.566403694450855255126953125">
        <ele>162.8000030517578125</ele>
        <time>2026-08-13T06:28:23.000Z</time>
        <extensions>
          <ns3:TrackPointExtension>
            <ns3:hr>79</ns3:hr>
            <ns3:cad>47</ns3:cad>
          </ns3:TrackPointExtension>
        </extensions>
      </trkpt>
      <trkpt lat="43.7624534033238887786865234375" lon="1.5663924627006053924560546875">
        <ele>162.8000030517578125</ele>
        <time>2026-08-13T06:28:24.000Z</time>
        <extensions>
          <ns3:TrackPointExtension>
            <ns3:hr>79</ns3:hr>
            <ns3:cad>47</ns3:cad>
          </ns3:TrackPointExtension>
        </extensions>
      </trkpt>
      <trkpt lat="43.76245801337063312530517578125" lon="1.56638785265386104583740234375">
        <ele>162.8000030517578125</ele>
        <time>2026-08-13T06:28:25.000Z</time>
        <extensions>
          <ns3:TrackPointExtension>
            <ns3:hr>79</ns3:hr>
            <ns3:cad>47</ns3:cad>
          </ns3:TrackPointExtension>
        </extensions>
      </trkpt>
      <trkpt lat="43.76246488653123378753662109375" lon="1.56637880019843578338623046875">
        <ele>162.8000030517578125</ele>
        <time>2026-08-13T06:28:26.000Z</time>
        <extensions>
          <ns3:TrackPointExtension>
            <ns3:hr>79</ns3:hr>
            <ns3:cad>46</ns3:cad>
          </ns3:TrackPointExtension>
        </extensions>
      </trkpt>
      <trkpt lat="43.76247393898665904998779296875" lon="1.56636421568691730499267578125">
        <ele>162.8000030517578125</ele>
        <time>2026-08-13T06:28:27.000Z</time>
        <extensions>
          <ns3:TrackPointExtension>
            <ns3:hr>78</ns3:hr>
            <ns3:cad>46</ns3:cad>
          </ns3:TrackPointExtension>
        </extensions>
      </trkpt>
      <trkpt lat="43.76247812993824481964111328125" lon="1.56635105609893798828125">
        <ele>162.8000030517578125</ele>
        <time>2026-08-13T06:28:28.000Z</time>
        <extensions>
          <ns3:TrackPointExtension>
            <ns3:hr>79</ns3:hr>
            <ns3:cad>45</ns3:cad>
          </ns3:TrackPointExtension>
        </extensions>
      </trkpt>
      <trkpt lat="43.762483410537242889404296875" lon="1.566339991986751556396484375">
        <ele>163</ele>
        <time>2026-08-13T06:28:29.000Z</time>
        <extensions>
          <ns3:TrackPointExtension>
            <ns3:hr>79</ns3:hr>
            <ns3:cad>43</ns3:cad>
          </ns3:TrackPointExtension>
        </extensions>
      </trkpt>
      <trkpt lat="43.7624896131455898284912109375" lon="1.56632624566555023193359375">
        <ele>163</ele>
        <time>2026-08-13T06:28:30.000Z</time>
        <extensions>
          <ns3:TrackPointExtension>
            <ns3:hr>79</ns3:hr>
            <ns3:cad>43</ns3:cad>
          </ns3:TrackPointExtension>
        </extensions>
      </trkpt>
      <trkpt lat="43.7624986656010150909423828125" lon="1.566310487687587738037109375">
        <ele>162.8000030517578125</ele>
        <time>2026-08-13T06:28:31.000Z</time>
        <extensions>
          <ns3:TrackPointExtension>
            <ns3:hr>79</ns3:hr>
            <ns3:cad>43</ns3:cad>
          </ns3:TrackPointExtension>
        </extensions>
      </trkpt>
      <trkpt lat="43.76250780187547206878662109375" lon="1.5662969090044498443603515625">
        <ele>162.8000030517578125</ele>
        <time>2026-08-13T06:28:32.000Z</time>
        <extensions>
          <ns3:TrackPointExtension>
            <ns3:hr>79</ns3:hr>
            <ns3:cad>43</ns3:cad>
          </ns3:TrackPointExtension>
        </extensions>
      </trkpt>
      <trkpt lat="43.76251618377864360809326171875" lon="1.56628542579710483551025390625">
        <ele>163</ele>
        <time>2026-08-13T06:28:33.000Z</time>
        <extensions>
          <ns3:TrackPointExtension>
            <ns3:hr>79</ns3:hr>
            <ns3:cad>43</ns3:cad>
          </ns3:TrackPointExtension>
        </extensions>
      </trkpt>
      <trkpt lat="43.76252171583473682403564453125" lon="1.566275618970394134521484375">
        <ele>163</ele>
        <time>2026-08-13T06:28:34.000Z</time>
        <extensions>
          <ns3:TrackPointExtension>
            <ns3:hr>79</ns3:hr>
            <ns3:cad>48</ns3:cad>
          </ns3:TrackPointExtension>
        </extensions>
      </trkpt>
      <trkpt lat="43.76253143884241580963134765625" lon="1.5662637166678905487060546875">
        <ele>163</ele>
        <time>2026-08-13T06:28:35.000Z</time>
        <extensions>
          <ns3:TrackPointExtension>
            <ns3:hr>80</ns3:hr>
            <ns3:cad>48</ns3:cad>
          </ns3:TrackPointExtension>
        </extensions>
      </trkpt>
      <trkpt lat="43.762542419135570526123046875" lon="1.56625340692698955535888671875">
        <ele>163</ele>
        <time>2026-08-13T06:28:36.000Z</time>
        <extensions>
          <ns3:TrackPointExtension>
            <ns3:hr>80</ns3:hr>
            <ns3:cad>47</ns3:cad>
          </ns3:TrackPointExtension>
        </extensions>
      </trkpt>
      <trkpt lat="43.7625526450574398040771484375" lon="1.56624435447156429290771484375">
        <ele>163</ele>
        <time>2026-08-13T06:28:37.000Z</time>
        <extensions>
          <ns3:TrackPointExtension>
            <ns3:hr>81</ns3:hr>
            <ns3:cad>47</ns3:cad>
          </ns3:TrackPointExtension>
        </extensions>
      </trkpt>
      <trkpt lat="43.7625640444457530975341796875" lon="1.56624083407223224639892578125">
        <ele>163</ele>
        <time>2026-08-13T06:28:38.000Z</time>
        <extensions>
          <ns3:TrackPointExtension>
            <ns3:hr>81</ns3:hr>
            <ns3:cad>47</ns3:cad>
          </ns3:TrackPointExtension>
        </extensions>
      </trkpt>
      <trkpt lat="43.7625684030354022979736328125" lon="1.56624100171029567718505859375">
        <ele>163</ele>
        <time>2026-08-13T06:28:39.000Z</time>
        <extensions>
          <ns3:TrackPointExtension>
            <ns3:hr>81</ns3:hr>
            <ns3:cad>47</ns3:cad>
          </ns3:TrackPointExtension>
        </extensions>
      </trkpt>
      <trkpt lat="43.76258055679500102996826171875" lon="1.56623966060578823089599609375">
        <ele>163</ele>
        <time>2026-08-13T06:28:40.000Z</time>
        <extensions>
          <ns3:TrackPointExtension>
            <ns3:hr>82</ns3:hr>
            <ns3:cad>47</ns3:cad>
          </ns3:TrackPointExtension>
        </extensions>
      </trkpt>
      <trkpt lat="43.7625888548791408538818359375" lon="1.56623345799744129180908203125">
        <ele>163</ele>
        <time>2026-08-13T06:28:41.000Z</time>
        <extensions>
          <ns3:TrackPointExtension>
            <ns3:hr>82</ns3:hr>
            <ns3:cad>48</ns3:cad>
          </ns3:TrackPointExtension>
        </extensions>
      </trkpt>
      <trkpt lat="43.76259715296328067779541015625" lon="1.56622742302715778350830078125">
        <ele>162.8000030517578125</ele>
        <time>2026-08-13T06:28:42.000Z</time>
        <extensions>
          <ns3:TrackPointExtension>
            <ns3:hr>82</ns3:hr>
            <ns3:cad>48</ns3:cad>
          </ns3:TrackPointExtension>
        </extensions>
      </trkpt>
      <trkpt lat="43.7626062892377376556396484375" lon="1.566230021417140960693359375">
        <ele>162.8000030517578125</ele>
        <time>2026-08-13T06:28:43.000Z</time>
        <extensions>
          <ns3:TrackPointExtension>
            <ns3:hr>83</ns3:hr>
            <ns3:cad>48</ns3:cad>
          </ns3:TrackPointExtension>
        </extensions>
      </trkpt>
      <trkpt lat="43.76261651515960693359375" lon="1.5662362240254878997802734375">
        <ele>162.8000030517578125</ele>
        <time>2026-08-13T06:28:44.000Z</time>
        <extensions>
          <ns3:TrackPointExtension>
            <ns3:hr>84</ns3:hr>
            <ns3:cad>48</ns3:cad>
          </ns3:TrackPointExtension>
        </extensions>
      </trkpt>
      <trkpt lat="43.76262531615793704986572265625" lon="1.56623412854969501495361328125">
        <ele>163</ele>
        <time>2026-08-13T06:28:45.000Z</time>
        <extensions>
          <ns3:TrackPointExtension>
            <ns3:hr>85</ns3:hr>
            <ns3:cad>45</ns3:cad>
          </ns3:TrackPointExtension>
        </extensions>
      </trkpt>
      <trkpt lat="43.76263855956494808197021484375" lon="1.56623077578842639923095703125">
        <ele>163</ele>
        <time>2026-08-13T06:28:46.000Z</time>
        <extensions>
          <ns3:TrackPointExtension>
            <ns3:hr>85</ns3:hr>
            <ns3:cad>45</ns3:cad>
          </ns3:TrackPointExtension>
        </extensions>
      </trkpt>
      <trkpt lat="43.7626502104103565216064453125" lon="1.5662234835326671600341796875">
        <ele>163</ele>
        <time>2026-08-13T06:28:47.000Z</time>
        <extensions>
          <ns3:TrackPointExtension>
            <ns3:hr>86</ns3:hr>
            <ns3:cad>48</ns3:cad>
          </ns3:TrackPointExtension>
        </extensions>
      </trkpt>
      <trkpt lat="43.7626602686941623687744140625" lon="1.56622088514268398284912109375">
        <ele>163</ele>
        <time>2026-08-13T06:28:48.000Z</time>
        <extensions>
          <ns3:TrackPointExtension>
            <ns3:hr>86</ns3:hr>
            <ns3:cad>48</ns3:cad>
          </ns3:TrackPointExtension>
        </extensions>
      </trkpt>
      <trkpt lat="43.76267057843506336212158203125" lon="1.56621183268725872039794921875">
        <ele>163</ele>
        <time>2026-08-13T06:28:49.000Z</time>
        <extensions>
          <ns3:TrackPointExtension>
            <ns3:hr>86</ns3:hr>
            <ns3:cad>48</ns3:cad>
          </ns3:TrackPointExtension>
        </extensions>
      </trkpt>
      <trkpt lat="43.76268398948013782501220703125" lon="1.5662062168121337890625">
        <ele>162.8000030517578125</ele>
        <time>2026-08-13T06:28:50.000Z</time>
        <extensions>
          <ns3:TrackPointExtension>
            <ns3:hr>86</ns3:hr>
            <ns3:cad>46</ns3:cad>
          </ns3:TrackPointExtension>
        </extensions>
      </trkpt>
      <trkpt lat="43.7626929581165313720703125" lon="1.5662000142037868499755859375">
        <ele>162.8000030517578125</ele>
        <time>2026-08-13T06:28:51.000Z</time>
        <extensions>
          <ns3:TrackPointExtension>
            <ns3:hr>86</ns3:hr>
            <ns3:cad>46</ns3:cad>
          </ns3:TrackPointExtension>
        </extensions>
      </trkpt>
      <trkpt lat="43.7626988254487514495849609375" lon="1.56619691289961338043212890625">
        <ele>162.8000030517578125</ele>
        <time>2026-08-13T06:28:52.000Z</time>
        <extensions>
          <ns3:TrackPointExtension>
            <ns3:hr>86</ns3:hr>
            <ns3:cad>46</ns3:cad>
          </ns3:TrackPointExtension>
        </extensions>
      </trkpt>
      <trkpt lat="43.76270812936127185821533203125" lon="1.5661923028528690338134765625">
        <ele>162.8000030517578125</ele>
        <time>2026-08-13T06:28:53.000Z</time>
        <extensions>
          <ns3:TrackPointExtension>
            <ns3:hr>86</ns3:hr>
            <ns3:cad>47</ns3:cad>
          </ns3:TrackPointExtension>
        </extensions>
      </trkpt>
      <trkpt lat="43.76272271387279033660888671875" lon="1.56618769280612468719482421875">
        <ele>162.8000030517578125</ele>
        <time>2026-08-13T06:28:54.000Z</time>
        <extensions>
          <ns3:TrackPointExtension>
            <ns3:hr>87</ns3:hr>
            <ns3:cad>47</ns3:cad>
          </ns3:TrackPointExtension>
        </extensions>
      </trkpt>
      <trkpt lat="43.7627380527555942535400390625" lon="1.56618584878742694854736328125">
        <ele>162.8000030517578125</ele>
        <time>2026-08-13T06:28:55.000Z</time>
        <extensions>
          <ns3:TrackPointExtension>
            <ns3:hr>87</ns3:hr>
            <ns3:cad>47</ns3:cad>
          </ns3:TrackPointExtension>
        </extensions>
      </trkpt>
      <trkpt lat="43.7627507932484149932861328125" lon="1.56618434004485607147216796875">
        <ele>162.8000030517578125</ele>
        <time>2026-08-13T06:28:56.000Z</time>
        <extensions>
          <ns3:TrackPointExtension>
            <ns3:hr>87</ns3:hr>
            <ns3:cad>47</ns3:cad>
          </ns3:TrackPointExtension>
        </extensions>
      </trkpt>
      <trkpt lat="43.7627615220844745635986328125" lon="1.56618517823517322540283203125">
        <ele>162.8000030517578125</ele>
        <time>2026-08-13T06:28:57.000Z</time>
        <extensions>
          <ns3:TrackPointExtension>
            <ns3:hr>87</ns3:hr>
            <ns3:cad>45</ns3:cad>
          </ns3:TrackPointExtension>
        </extensions>
      </trkpt>
      <trkpt lat="43.762769065797328948974609375" lon="1.56618249602615833282470703125">
        <ele>162.600006103515625</ele>
        <time>2026-08-13T06:28:58.000Z</time>
        <extensions>
          <ns3:TrackPointExtension>
            <ns3:hr>87</ns3:hr>
            <ns3:cad>45</ns3:cad>
          </ns3:TrackPointExtension>
        </extensions>
      </trkpt>
      <trkpt lat="43.76277954317629337310791015625" lon="1.56618006527423858642578125">
        <ele>162.600006103515625</ele>
        <time>2026-08-13T06:28:59.000Z</time>
        <extensions>
          <ns3:TrackPointExtension>
            <ns3:hr>87</ns3:hr>
            <ns3:cad>45</ns3:cad>
          </ns3:TrackPointExtension>
        </extensions>
      </trkpt>
      <trkpt lat="43.7627890147268772125244140625" lon="1.56617696397006511688232421875">
        <ele>162.600006103515625</ele>
        <time>2026-08-13T06:29:00.000Z</time>
        <extensions>
          <ns3:TrackPointExtension>
            <ns3:hr>87</ns3:hr>
            <ns3:cad>48</ns3:cad>
          </ns3:TrackPointExtension>
        </extensions>
      </trkpt>
      <trkpt lat="43.76280250959098339080810546875" lon="1.56617327593266963958740234375">
        <ele>162.600006103515625</ele>
        <time>2026-08-13T06:29:01.000Z</time>
        <extensions>
          <ns3:TrackPointExtension>
            <ns3:hr>87</ns3:hr>
            <ns3:cad>48</ns3:cad>
          </ns3:TrackPointExtension>
        </extensions>
      </trkpt>
      <trkpt lat="43.76281206496059894561767578125" lon="1.56617495231330394744873046875">
        <ele>162.600006103515625</ele>
        <time>2026-08-13T06:29:02.000Z</time>
        <extensions>
          <ns3:TrackPointExtension>
            <ns3:hr>87</ns3:hr>
            <ns3:cad>48</ns3:cad>
          </ns3:TrackPointExtension>
        </extensions>
      </trkpt>
      <trkpt lat="43.7628205306828022003173828125" lon="1.566179059445858001708984375">
        <ele>162.600006103515625</ele>
        <time>2026-08-13T06:29:03.000Z</time>
        <extensions>
          <ns3:TrackPointExtension>
            <ns3:hr>87</ns3:hr>
            <ns3:cad>47</ns3:cad>
          </ns3:TrackPointExtension>
        </extensions>
      </trkpt>
      <trkpt lat="43.76283084042370319366455078125" lon="1.566176377236843109130859375">
        <ele>162.600006103515625</ele>
        <time>2026-08-13T06:29:04.000Z</time>
        <extensions>
          <ns3:TrackPointExtension>
            <ns3:hr>87</ns3:hr>
            <ns3:cad>47</ns3:cad>
          </ns3:TrackPointExtension>
        </extensions>
      </trkpt>
      <trkpt lat="43.7628436647355556488037109375" lon="1.566170342266559600830078125">
        <ele>162.600006103515625</ele>
        <time>2026-08-13T06:29:05.000Z</time>
        <extensions>
          <ns3:TrackPointExtension>
            <ns3:hr>87</ns3:hr>
            <ns3:cad>48</ns3:cad>
          </ns3:TrackPointExtension>
        </extensions>
      </trkpt>
      <trkpt lat="43.76285347156226634979248046875" lon="1.5661664865911006927490234375">
        <ele>162.600006103515625</ele>
        <time>2026-08-13T06:29:06.000Z</time>
        <extensions>
          <ns3:TrackPointExtension>
            <ns3:hr>88</ns3:hr>
            <ns3:cad>48</ns3:cad>
          </ns3:TrackPointExtension>
        </extensions>
      </trkpt>
      <trkpt lat="43.762863613665103912353515625" lon="1.56616665422916412353515625">
        <ele>162.600006103515625</ele>
        <time>2026-08-13T06:29:07.000Z</time>
        <extensions>
          <ns3:TrackPointExtension>
            <ns3:hr>88</ns3:hr>
            <ns3:cad>48</ns3:cad>
          </ns3:TrackPointExtension>
        </extensions>
      </trkpt>
      <trkpt lat="43.7628701515495777130126953125" lon="1.5661641396582126617431640625">
        <ele>162.600006103515625</ele>
        <time>2026-08-13T06:29:08.000Z</time>
        <extensions>
          <ns3:TrackPointExtension>
            <ns3:hr>88</ns3:hr>
            <ns3:cad>47</ns3:cad>
          </ns3:TrackPointExtension>
        </extensions>
      </trkpt>
      <trkpt lat="43.76288029365241527557373046875" lon="1.56616388820111751556396484375">
        <ele>162.399993896484375</ele>
        <time>2026-08-13T06:29:09.000Z</time>
        <extensions>
          <ns3:TrackPointExtension>
            <ns3:hr>88</ns3:hr>
            <ns3:cad>47</ns3:cad>
          </ns3:TrackPointExtension>
        </extensions>
      </trkpt>
      <trkpt lat="43.76289387233555316925048828125" lon="1.56615818850696086883544921875">
        <ele>162.399993896484375</ele>
        <time>2026-08-13T06:29:10.000Z</time>
        <extensions>
          <ns3:TrackPointExtension>
            <ns3:hr>89</ns3:hr>
            <ns3:cad>47</ns3:cad>
          </ns3:TrackPointExtension>
        </extensions>
      </trkpt>
      <trkpt lat="43.76290418207645416259765625" lon="1.56615785323083400726318359375">
        <ele>162.399993896484375</ele>
        <time>2026-08-13T06:29:11.000Z</time>
        <extensions>
          <ns3:TrackPointExtension>
            <ns3:hr>89</ns3:hr>
            <ns3:cad>47</ns3:cad>
          </ns3:TrackPointExtension>
        </extensions>
      </trkpt>
      <trkpt lat="43.76291331835091114044189453125" lon="1.56615324318408966064453125">
        <ele>162.399993896484375</ele>
        <time>2026-08-13T06:29:12.000Z</time>
        <extensions>
          <ns3:TrackPointExtension>
            <ns3:hr>89</ns3:hr>
            <ns3:cad>47</ns3:cad>
          </ns3:TrackPointExtension>
        </extensions>
      </trkpt>
      <trkpt lat="43.76292522065341472625732421875" lon="1.56615248881280422210693359375">
        <ele>162.399993896484375</ele>
        <time>2026-08-13T06:29:13.000Z</time>
        <extensions>
          <ns3:TrackPointExtension>
            <ns3:hr>89</ns3:hr>
            <ns3:cad>47</ns3:cad>
          </ns3:TrackPointExtension>
        </extensions>
      </trkpt>
      <trkpt lat="43.76293779350817203521728515625" lon="1.5661490522325038909912109375">
        <ele>162.399993896484375</ele>
        <time>2026-08-13T06:29:14.000Z</time>
        <extensions>
          <ns3:TrackPointExtension>
            <ns3:hr>89</ns3:hr>
            <ns3:cad>47</ns3:cad>
          </ns3:TrackPointExtension>
        </extensions>
      </trkpt>
      <trkpt lat="43.76294600777328014373779296875" lon="1.56614813022315502166748046875">
        <ele>162.399993896484375</ele>
        <time>2026-08-13T06:29:15.000Z</time>
        <extensions>
          <ns3:TrackPointExtension>
            <ns3:hr>89</ns3:hr>
            <ns3:cad>46</ns3:cad>
          </ns3:TrackPointExtension>
        </extensions>
      </trkpt>
      <trkpt lat="43.76295321621000766754150390625" lon="1.56614863313734531402587890625">
        <ele>162.399993896484375</ele>
        <time>2026-08-13T06:29:16.000Z</time>
        <extensions>
          <ns3:TrackPointExtension>
            <ns3:hr>89</ns3:hr>
            <ns3:cad>46</ns3:cad>
          </ns3:TrackPointExtension>
        </extensions>
      </trkpt>
      <trkpt lat="43.76297299750149250030517578125" lon="1.56614662148058414459228515625">
        <ele>162.399993896484375</ele>
        <time>2026-08-13T06:29:17.000Z</time>
        <extensions>
          <ns3:TrackPointExtension>
            <ns3:hr>89</ns3:hr>
            <ns3:cad>46</ns3:cad>
          </ns3:TrackPointExtension>
        </extensions>
      </trkpt>
      <trkpt lat="43.76298489980399608612060546875" lon="1.566147543489933013916015625">
        <ele>162.399993896484375</ele>
        <time>2026-08-13T06:29:18.000Z</time>
        <extensions>
          <ns3:TrackPointExtension>
            <ns3:hr>90</ns3:hr>
            <ns3:cad>45</ns3:cad>
          </ns3:TrackPointExtension>
        </extensions>
      </trkpt>
      <trkpt lat="43.76299403607845306396484375" lon="1.5661405026912689208984375">
        <ele>162.399993896484375</ele>
        <time>2026-08-13T06:29:19.000Z</time>
        <extensions>
          <ns3:TrackPointExtension>
            <ns3:hr>90</ns3:hr>
            <ns3:cad>45</ns3:cad>
          </ns3:TrackPointExtension>
        </extensions>
      </trkpt>
      <trkpt lat="43.76300032250583171844482421875" lon="1.56613723374903202056884765625">
        <ele>162.399993896484375</ele>
        <time>2026-08-13T06:29:20.000Z</time>
        <extensions>
          <ns3:TrackPointExtension>
            <ns3:hr>90</ns3:hr>
            <ns3:cad>45</ns3:cad>
          </ns3:TrackPointExtension>
        </extensions>
      </trkpt>
      <trkpt lat="43.76301289536058902740478515625" lon="1.566136144101619720458984375">
        <ele>162.399993896484375</ele>
        <time>2026-08-13T06:29:21.000Z</time>
        <extensions>
          <ns3:TrackPointExtension>
            <ns3:hr>90</ns3:hr>
            <ns3:cad>45</ns3:cad>
          </ns3:TrackPointExtension>
        </extensions>
      </trkpt>
      <trkpt lat="43.763023875653743743896484375" lon="1.56613404862582683563232421875">
        <ele>162.399993896484375</ele>
        <time>2026-08-13T06:29:22.000Z</time>
        <extensions>
          <ns3:TrackPointExtension>
            <ns3:hr>90</ns3:hr>
            <ns3:cad>45</ns3:cad>
          </ns3:TrackPointExtension>
        </extensions>
      </trkpt>
      <trkpt lat="43.76303485594689846038818359375" lon="1.5661316178739070892333984375">
        <ele>162.399993896484375</ele>
        <time>2026-08-13T06:29:23.000Z</time>
        <extensions>
          <ns3:TrackPointExtension>
            <ns3:hr>90</ns3:hr>
            <ns3:cad>45</ns3:cad>
          </ns3:TrackPointExtension>
        </extensions>
      </trkpt>
      <trkpt lat="43.7630414776504039764404296875" lon="1.56613019295036792755126953125">
        <ele>162.399993896484375</ele>
        <time>2026-08-13T06:29:24.000Z</time>
        <extensions>
          <ns3:TrackPointExtension>
            <ns3:hr>89</ns3:hr>
            <ns3:cad>45</ns3:cad>
          </ns3:TrackPointExtension>
        </extensions>
      </trkpt>
      <trkpt lat="43.76305078156292438507080078125" lon="1.56612600199878215789794921875">
        <ele>162.399993896484375</ele>
        <time>2026-08-13T06:29:25.000Z</time>
        <extensions>
          <ns3:TrackPointExtension>
            <ns3:hr>87</ns3:hr>
            <ns3:cad>46</ns3:cad>
          </ns3:TrackPointExtension>
        </extensions>
      </trkpt>
      <trkpt lat="43.7630615942180156707763671875" lon="1.56612181104719638824462890625">
        <ele>162.399993896484375</ele>
        <time>2026-08-13T06:29:26.000Z</time>
        <extensions>
          <ns3:TrackPointExtension>
            <ns3:hr>86</ns3:hr>
            <ns3:cad>46</ns3:cad>
          </ns3:TrackPointExtension>
        </extensions>
      </trkpt>
      <trkpt lat="43.7630729936063289642333984375" lon="1.56611544080078601837158203125">
        <ele>162.399993896484375</ele>
        <time>2026-08-13T06:29:27.000Z</time>
        <extensions>
          <ns3:TrackPointExtension>
            <ns3:hr>85</ns3:hr>
            <ns3:cad>45</ns3:cad>
          </ns3:TrackPointExtension>
        </extensions>
      </trkpt>
      <trkpt lat="43.76307844184339046478271484375" lon="1.56610840000212192535400390625">
        <ele>162.399993896484375</ele>
        <time>2026-08-13T06:29:28.000Z</time>
        <extensions>
          <ns3:TrackPointExtension>
            <ns3:hr>84</ns3:hr>
            <ns3:cad>45</ns3:cad>
          </ns3:TrackPointExtension>
        </extensions>
      </trkpt>
      <trkpt lat="43.76308657228946685791015625" lon="1.5661034546792507171630859375">
        <ele>162.399993896484375</ele>
        <time>2026-08-13T06:29:29.000Z</time>
        <extensions>
          <ns3:TrackPointExtension>
            <ns3:hr>84</ns3:hr>
            <ns3:cad>45</ns3:cad>
          </ns3:TrackPointExtension>
        </extensions>
      </trkpt>
      <trkpt lat="43.763097636401653289794921875" lon="1.56610219739377498626708984375">
        <ele>162.399993896484375</ele>
        <time>2026-08-13T06:29:30.000Z</time>
        <extensions>
          <ns3:TrackPointExtension>
            <ns3:hr>84</ns3:hr>
            <ns3:cad>45</ns3:cad>
          </ns3:TrackPointExtension>
        </extensions>
      </trkpt>
      <trkpt lat="43.76310761086642742156982421875" lon="1.5660954080522060394287109375">
        <ele>162.399993896484375</ele>
        <time>2026-08-13T06:29:31.000Z</time>
        <extensions>
          <ns3:TrackPointExtension>
            <ns3:hr>84</ns3:hr>
            <ns3:cad>45</ns3:cad>
          </ns3:TrackPointExtension>
        </extensions>
      </trkpt>
      <trkpt lat="43.76311733387410640716552734375" lon="1.56609431840479373931884765625">
        <ele>162.399993896484375</ele>
        <time>2026-08-13T06:29:32.000Z</time>
        <extensions>
          <ns3:TrackPointExtension>
            <ns3:hr>84</ns3:hr>
            <ns3:cad>46</ns3:cad>
          </ns3:TrackPointExtension>
        </extensions>
      </trkpt>
      <trkpt lat="43.7631289847195148468017578125" lon="1.56609130091965198516845703125">
        <ele>162.399993896484375</ele>
        <time>2026-08-13T06:29:33.000Z</time>
        <extensions>
          <ns3:TrackPointExtension>
            <ns3:hr>84</ns3:hr>
            <ns3:cad>46</ns3:cad>
          </ns3:TrackPointExtension>
        </extensions>
      </trkpt>
      <trkpt lat="43.7631408870220184326171875" lon="1.56608912162482738494873046875">
        <ele>162.399993896484375</ele>
        <time>2026-08-13T06:29:34.000Z</time>
        <extensions>
          <ns3:TrackPointExtension>
            <ns3:hr>84</ns3:hr>
            <ns3:cad>48</ns3:cad>
          </ns3:TrackPointExtension>
        </extensions>
      </trkpt>
      <trkpt lat="43.7631480954587459564208984375" lon="1.56608895398676395416259765625">
        <ele>162.399993896484375</ele>
        <time>2026-08-13T06:29:35.000Z</time>
        <extensions>
          <ns3:TrackPointExtension>
            <ns3:hr>84</ns3:hr>
            <ns3:cad>48</ns3:cad>
          </ns3:TrackPointExtension>
        </extensions>
      </trkpt>
      <trkpt lat="43.7631605006754398345947265625" lon="1.56607814133167266845703125">
        <ele>162.399993896484375</ele>
        <time>2026-08-13T06:29:36.000Z</time>
        <extensions>
          <ns3:TrackPointExtension>
            <ns3:hr>84</ns3:hr>
            <ns3:cad>48</ns3:cad>
          </ns3:TrackPointExtension>
        </extensions>
      </trkpt>
      <trkpt lat="43.76317013986408710479736328125" lon="1.566073782742023468017578125">
        <ele>162.399993896484375</ele>
        <time>2026-08-13T06:29:37.000Z</time>
        <extensions>
          <ns3:TrackPointExtension>
            <ns3:hr>84</ns3:hr>
            <ns3:cad>48</ns3:cad>
          </ns3:TrackPointExtension>
        </extensions>
      </trkpt>
      <trkpt lat="43.763179443776607513427734375" lon="1.56606783159077167510986328125">
        <ele>162.399993896484375</ele>
        <time>2026-08-13T06:29:38.000Z</time>
        <extensions>
          <ns3:TrackPointExtension>
            <ns3:hr>85</ns3:hr>
            <ns3:cad>0</ns3:cad>
          </ns3:TrackPointExtension>
        </extensions>
      </trkpt>
      <trkpt lat="43.763192854821681976318359375" lon="1.566060371696949005126953125">
        <ele>162.1999969482421875</ele>
        <time>2026-08-13T06:29:39.000Z</time>
        <extensions>
          <ns3:TrackPointExtension>
            <ns3:hr>85</ns3:hr>
            <ns3:cad>0</ns3:cad>
          </ns3:TrackPointExtension>
        </extensions>
      </trkpt>
      <trkpt lat="43.76320048235356807708740234375" lon="1.566052325069904327392578125">
        <ele>162.1999969482421875</ele>
        <time>2026-08-13T06:29:40.000Z</time>
        <extensions>
          <ns3:TrackPointExtension>
            <ns3:hr>85</ns3:hr>
            <ns3:cad>0</ns3:cad>
          </ns3:TrackPointExtension>
        </extensions>
      </trkpt>
      <trkpt lat="43.76320785842835903167724609375" lon="1.5660466253757476806640625">
        <ele>162.1999969482421875</ele>
        <time>2026-08-13T06:29:41.000Z</time>
        <extensions>
          <ns3:TrackPointExtension>
            <ns3:hr>85</ns3:hr>
            <ns3:cad>0</ns3:cad>
          </ns3:TrackPointExtension>
        </extensions>
      </trkpt>
      <trkpt lat="43.76321732997894287109375" lon="1.5660400874912738800048828125">
        <ele>162.1999969482421875</ele>
        <time>2026-08-13T06:29:42.000Z</time>
        <extensions>
          <ns3:TrackPointExtension>
            <ns3:hr>85</ns3:hr>
            <ns3:cad>0</ns3:cad>
          </ns3:TrackPointExtension>
        </extensions>
      </trkpt>
      <trkpt lat="43.76322604715824127197265625" lon="1.56603329814970493316650390625">
        <ele>162.1999969482421875</ele>
        <time>2026-08-13T06:29:43.000Z</time>
        <extensions>
          <ns3:TrackPointExtension>
            <ns3:hr>85</ns3:hr>
            <ns3:cad>0</ns3:cad>
          </ns3:TrackPointExtension>
        </extensions>
      </trkpt>
      <trkpt lat="43.7632362730801105499267578125" lon="1.566025502979755401611328125">
        <ele>162.1999969482421875</ele>
        <time>2026-08-13T06:29:44.000Z</time>
        <extensions>
          <ns3:TrackPointExtension>
            <ns3:hr>86</ns3:hr>
            <ns3:cad>49</ns3:cad>
          </ns3:TrackPointExtension>
        </extensions>
      </trkpt>
      <trkpt lat="43.763246834278106689453125" lon="1.56601653434336185455322265625">
        <ele>162.1999969482421875</ele>
        <time>2026-08-13T06:29:45.000Z</time>
        <extensions>
          <ns3:TrackPointExtension>
            <ns3:hr>86</ns3:hr>
            <ns3:cad>49</ns3:cad>
          </ns3:TrackPointExtension>
        </extensions>
      </trkpt>
      <trkpt lat="43.76325680874288082122802734375" lon="1.56600748188793659210205078125">
        <ele>162.1999969482421875</ele>
        <time>2026-08-13T06:29:46.000Z</time>
        <extensions>
          <ns3:TrackPointExtension>
            <ns3:hr>86</ns3:hr>
            <ns3:cad>48</ns3:cad>
          </ns3:TrackPointExtension>
        </extensions>
      </trkpt>
      <trkpt lat="43.7632642686367034912109375" lon="1.566002368927001953125">
        <ele>162.1999969482421875</ele>
        <time>2026-08-13T06:29:47.000Z</time>
        <extensions>
          <ns3:TrackPointExtension>
            <ns3:hr>86</ns3:hr>
            <ns3:cad>48</ns3:cad>
          </ns3:TrackPointExtension>
        </extensions>
      </trkpt>
      <trkpt lat="43.76327340491116046905517578125" lon="1.5659985132515430450439453125">
        <ele>162.1999969482421875</ele>
        <time>2026-08-13T06:29:48.000Z</time>
        <extensions>
          <ns3:TrackPointExtension>
            <ns3:hr>85</ns3:hr>
            <ns3:cad>47</ns3:cad>
          </ns3:TrackPointExtension>
        </extensions>
      </trkpt>
      <trkpt lat="43.76328094862401485443115234375" lon="1.56599239446222782135009765625">
        <ele>162.1999969482421875</ele>
        <time>2026-08-13T06:29:49.000Z</time>
        <extensions>
          <ns3:TrackPointExtension>
            <ns3:hr>85</ns3:hr>
            <ns3:cad>47</ns3:cad>
          </ns3:TrackPointExtension>
        </extensions>
      </trkpt>
      <trkpt lat="43.7632899172604084014892578125" lon="1.56598501838743686676025390625">
        <ele>162.1999969482421875</ele>
        <time>2026-08-13T06:29:50.000Z</time>
        <extensions>
          <ns3:TrackPointExtension>
            <ns3:hr>84</ns3:hr>
            <ns3:cad>47</ns3:cad>
          </ns3:TrackPointExtension>
        </extensions>
      </trkpt>
      <trkpt lat="43.76330559141933917999267578125" lon="1.56597646884620189666748046875">
        <ele>162.1999969482421875</ele>
        <time>2026-08-13T06:29:51.000Z</time>
        <extensions>
          <ns3:TrackPointExtension>
            <ns3:hr>83</ns3:hr>
            <ns3:cad>49</ns3:cad>
          </ns3:TrackPointExtension>
        </extensions>
      </trkpt>
      <trkpt lat="43.7633137218654155731201171875" lon="1.56596959568560123443603515625">
        <ele>162.1999969482421875</ele>
        <time>2026-08-13T06:29:52.000Z</time>
        <extensions>
          <ns3:TrackPointExtension>
            <ns3:hr>83</ns3:hr>
            <ns3:cad>49</ns3:cad>
          </ns3:TrackPointExtension>
        </extensions>
      </trkpt>
      <trkpt lat="43.7633152306079864501953125" lon="1.56597412191331386566162109375">
        <ele>162.1999969482421875</ele>
        <time>2026-08-13T06:29:53.000Z</time>
        <extensions>
          <ns3:TrackPointExtension>
            <ns3:hr>84</ns3:hr>
            <ns3:cad>50</ns3:cad>
          </ns3:TrackPointExtension>
        </extensions>
      </trkpt>
      <trkpt lat="43.763327300548553466796875" lon="1.56596741639077663421630859375">
        <ele>162.1999969482421875</ele>
        <time>2026-08-13T06:29:54.000Z</time>
        <extensions>
          <ns3:TrackPointExtension>
            <ns3:hr>84</ns3:hr>
            <ns3:cad>50</ns3:cad>
          </ns3:TrackPointExtension>
        </extensions>
      </trkpt>
      <trkpt lat="43.76334096305072307586669921875" lon="1.56595467589795589447021484375">
        <ele>162.1999969482421875</ele>
        <time>2026-08-13T06:29:55.000Z</time>
        <extensions>
          <ns3:TrackPointExtension>
            <ns3:hr>84</ns3:hr>
            <ns3:cad>48</ns3:cad>
          </ns3:TrackPointExtension>
        </extensions>
      </trkpt>
      <trkpt lat="43.76335169188678264617919921875" lon="1.565945036709308624267578125">
        <ele>162.1999969482421875</ele>
        <time>2026-08-13T06:29:56.000Z</time>
        <extensions>
          <ns3:TrackPointExtension>
            <ns3:hr>85</ns3:hr>
            <ns3:cad>48</ns3:cad>
          </ns3:TrackPointExtension>
        </extensions>
      </trkpt>
      <trkpt lat="43.76335890032351016998291015625" lon="1.5659405104815959930419921875">
        <ele>162.1999969482421875</ele>
        <time>2026-08-13T06:29:57.000Z</time>
        <extensions>
          <ns3:TrackPointExtension>
            <ns3:hr>85</ns3:hr>
            <ns3:cad>48</ns3:cad>
          </ns3:TrackPointExtension>
        </extensions>
      </trkpt>
      <trkpt lat="43.7633670307695865631103515625" lon="1.565937660634517669677734375">
        <ele>162.1999969482421875</ele>
        <time>2026-08-13T06:29:58.000Z</time>
        <extensions>
          <ns3:TrackPointExtension>
            <ns3:hr>86</ns3:hr>
            <ns3:cad>49</ns3:cad>
          </ns3:TrackPointExtension>
        </extensions>
      </trkpt>
      <trkpt lat="43.7633770890533924102783203125" lon="1.56593087129294872283935546875">
        <ele>162.1999969482421875</ele>
        <time>2026-08-13T06:29:59.000Z</time>
        <extensions>
          <ns3:TrackPointExtension>
            <ns3:hr>87</ns3:hr>
            <ns3:cad>49</ns3:cad>
          </ns3:TrackPointExtension>
        </extensions>
      </trkpt>
      <trkpt lat="43.76338689588010311126708984375" lon="1.56592123210430145263671875">
        <ele>162.1999969482421875</ele>
        <time>2026-08-13T06:30:00.000Z</time>
        <extensions>
          <ns3:TrackPointExtension>
            <ns3:hr>87</ns3:hr>
            <ns3:cad>49</ns3:cad>
          </ns3:TrackPointExtension>
        </extensions>
      </trkpt>
      <trkpt lat="43.7633941881358623504638671875" lon="1.5659157000482082366943359375">
        <ele>162.1999969482421875</ele>
        <time>2026-08-13T06:30:01.000Z</time>
        <extensions>
          <ns3:TrackPointExtension>
            <ns3:hr>88</ns3:hr>
            <ns3:cad>50</ns3:cad>
          </ns3:TrackPointExtension>
        </extensions>
      </trkpt>
      <trkpt lat="43.76340441405773162841796875" lon="1.56591343693435192108154296875">
        <ele>162.1999969482421875</ele>
        <time>2026-08-13T06:30:02.000Z</time>
        <extensions>
          <ns3:TrackPointExtension>
            <ns3:hr>88</ns3:hr>
            <ns3:cad>50</ns3:cad>
          </ns3:TrackPointExtension>
        </extensions>
      </trkpt>
      <trkpt lat="43.7634149752557277679443359375" lon="1.56590916216373443603515625">
        <ele>162.1999969482421875</ele>
        <time>2026-08-13T06:30:03.000Z</time>
        <extensions>
          <ns3:TrackPointExtension>
            <ns3:hr>87</ns3:hr>
            <ns3:cad>50</ns3:cad>
          </ns3:TrackPointExtension>
        </extensions>
      </trkpt>
      <trkpt lat="43.763426207005977630615234375" lon="1.565897762775421142578125">
        <ele>162.1999969482421875</ele>
        <time>2026-08-13T06:30:04.000Z</time>
        <extensions>
          <ns3:TrackPointExtension>
            <ns3:hr>87</ns3:hr>
            <ns3:cad>46</ns3:cad>
          </ns3:TrackPointExtension>
        </extensions>
      </trkpt>
      <trkpt lat="43.7634332478046417236328125" lon="1.56588627956807613372802734375">
        <ele>162.1999969482421875</ele>
        <time>2026-08-13T06:30:05.000Z</time>
        <extensions>
          <ns3:TrackPointExtension>
            <ns3:hr>86</ns3:hr>
            <ns3:cad>46</ns3:cad>
          </ns3:TrackPointExtension>
        </extensions>
      </trkpt>
      <trkpt lat="43.7634404562413692474365234375" lon="1.5658791549503803253173828125">
        <ele>162.1999969482421875</ele>
        <time>2026-08-13T06:30:06.000Z</time>
        <extensions>
          <ns3:TrackPointExtension>
            <ns3:hr>85</ns3:hr>
            <ns3:cad>46</ns3:cad>
          </ns3:TrackPointExtension>
        </extensions>
      </trkpt>
      <trkpt lat="43.7634491734206676483154296875" lon="1.56587035395205020904541015625">
        <ele>162.1999969482421875</ele>
        <time>2026-08-13T06:30:07.000Z</time>
        <extensions>
          <ns3:TrackPointExtension>
            <ns3:hr>85</ns3:hr>
            <ns3:cad>46</ns3:cad>
          </ns3:TrackPointExtension>
        </extensions>
      </trkpt>
      <trkpt lat="43.763458728790283203125" lon="1.56586331315338611602783203125">
        <ele>162.1999969482421875</ele>
        <time>2026-08-13T06:30:08.000Z</time>
        <extensions>
          <ns3:TrackPointExtension>
            <ns3:hr>84</ns3:hr>
            <ns3:cad>48</ns3:cad>
          </ns3:TrackPointExtension>
        </extensions>
      </trkpt>
      <trkpt lat="43.76346853561699390411376953125" lon="1.5658509917557239532470703125">
        <ele>162.1999969482421875</ele>
        <time>2026-08-13T06:30:09.000Z</time>
        <extensions>
          <ns3:TrackPointExtension>
            <ns3:hr>84</ns3:hr>
            <ns3:cad>48</ns3:cad>
          </ns3:TrackPointExtension>
        </extensions>
      </trkpt>
      <trkpt lat="43.76347683370113372802734375" lon="1.56584747135639190673828125">
        <ele>162.1999969482421875</ele>
        <time>2026-08-13T06:30:10.000Z</time>
        <extensions>
          <ns3:TrackPointExtension>
            <ns3:hr>84</ns3:hr>
            <ns3:cad>48</ns3:cad>
          </ns3:TrackPointExtension>
        </extensions>
      </trkpt>
      <trkpt lat="43.76348429359495639801025390625" lon="1.56584286130964756011962890625">
        <ele>162.1999969482421875</ele>
        <time>2026-08-13T06:30:11.000Z</time>
        <extensions>
          <ns3:TrackPointExtension>
            <ns3:hr>84</ns3:hr>
            <ns3:cad>48</ns3:cad>
          </ns3:TrackPointExtension>
        </extensions>
      </trkpt>
      <trkpt lat="43.763492591679096221923828125" lon="1.56583766452968120574951171875">
        <ele>162.1999969482421875</ele>
        <time>2026-08-13T06:30:12.000Z</time>
        <extensions>
          <ns3:TrackPointExtension>
            <ns3:hr>84</ns3:hr>
            <ns3:cad>48</ns3:cad>
          </ns3:TrackPointExtension>
        </extensions>
      </trkpt>
      <trkpt lat="43.76350575126707553863525390625" lon="1.565828025341033935546875">
        <ele>162.1999969482421875</ele>
        <time>2026-08-13T06:30:13.000Z</time>
        <extensions>
          <ns3:TrackPointExtension>
            <ns3:hr>83</ns3:hr>
            <ns3:cad>45</ns3:cad>
          </ns3:TrackPointExtension>
        </extensions>
      </trkpt>
      <trkpt lat="43.76351430080831050872802734375" lon="1.5658228285610675811767578125">
        <ele>162.399993896484375</ele>
        <time>2026-08-13T06:30:14.000Z</time>
        <extensions>
          <ns3:TrackPointExtension>
            <ns3:hr>83</ns3:hr>
            <ns3:cad>45</ns3:cad>
          </ns3:TrackPointExtension>
        </extensions>
      </trkpt>
      <trkpt lat="43.76351773738861083984375" lon="1.56582475639879703521728515625">
        <ele>162.399993896484375</ele>
        <time>2026-08-13T06:30:15.000Z</time>
        <extensions>
          <ns3:TrackPointExtension>
            <ns3:hr>84</ns3:hr>
            <ns3:cad>45</ns3:cad>
          </ns3:TrackPointExtension>
        </extensions>
      </trkpt>
      <trkpt lat="43.76353173516690731048583984375" lon="1.56582308001816272735595703125">
        <ele>162.399993896484375</ele>
        <time>2026-08-13T06:30:16.000Z</time>
        <extensions>
          <ns3:TrackPointExtension>
            <ns3:hr>84</ns3:hr>
            <ns3:cad>45</ns3:cad>
          </ns3:TrackPointExtension>
        </extensions>
      </trkpt>
      <trkpt lat="43.76354564912617206573486328125" lon="1.5658161230385303497314453125">
        <ele>162.399993896484375</ele>
        <time>2026-08-13T06:30:17.000Z</time>
        <extensions>
          <ns3:TrackPointExtension>
            <ns3:hr>84</ns3:hr>
            <ns3:cad>45</ns3:cad>
          </ns3:TrackPointExtension>
        </extensions>
      </trkpt>
      <trkpt lat="43.7635561265051364898681640625" lon="1.5658127702772617340087890625">
        <ele>162.399993896484375</ele>
        <time>2026-08-13T06:30:18.000Z</time>
        <extensions>
          <ns3:TrackPointExtension>
            <ns3:hr>84</ns3:hr>
            <ns3:cad>46</ns3:cad>
          </ns3:TrackPointExtension>
        </extensions>
      </trkpt>
      <trkpt lat="43.76356425695121288299560546875" lon="1.5658120997250080108642578125">
        <ele>162.399993896484375</ele>
        <time>2026-08-13T06:30:19.000Z</time>
        <extensions>
          <ns3:TrackPointExtension>
            <ns3:hr>83</ns3:hr>
            <ns3:cad>46</ns3:cad>
          </ns3:TrackPointExtension>
        </extensions>
      </trkpt>
      <trkpt lat="43.763575069606304168701171875" lon="1.56581033952534198760986328125">
        <ele>162.399993896484375</ele>
        <time>2026-08-13T06:30:20.000Z</time>
        <extensions>
          <ns3:TrackPointExtension>
            <ns3:hr>84</ns3:hr>
            <ns3:cad>46</ns3:cad>
          </ns3:TrackPointExtension>
        </extensions>
      </trkpt>
      <trkpt lat="43.76358412206172943115234375" lon="1.5658067353069782257080078125">
        <ele>162.399993896484375</ele>
        <time>2026-08-13T06:30:21.000Z</time>
        <extensions>
          <ns3:TrackPointExtension>
            <ns3:hr>84</ns3:hr>
            <ns3:cad>46</ns3:cad>
          </ns3:TrackPointExtension>
        </extensions>
      </trkpt>
      <trkpt lat="43.76358923502266407012939453125" lon="1.56579709611833095550537109375">
        <ele>162.399993896484375</ele>
        <time>2026-08-13T06:30:22.000Z</time>
        <extensions>
          <ns3:TrackPointExtension>
            <ns3:hr>84</ns3:hr>
            <ns3:cad>47</ns3:cad>
          </ns3:TrackPointExtension>
        </extensions>
      </trkpt>
      <trkpt lat="43.76359887421131134033203125" lon="1.56579441390931606292724609375">
        <ele>162.600006103515625</ele>
        <time>2026-08-13T06:30:23.000Z</time>
        <extensions>
          <ns3:TrackPointExtension>
            <ns3:hr>84</ns3:hr>
            <ns3:cad>47</ns3:cad>
          </ns3:TrackPointExtension>
        </extensions>
      </trkpt>
      <trkpt lat="43.76360868103802204132080078125" lon="1.56578972004354000091552734375">
        <ele>162.600006103515625</ele>
        <time>2026-08-13T06:30:24.000Z</time>
        <extensions>
          <ns3:TrackPointExtension>
            <ns3:hr>84</ns3:hr>
            <ns3:cad>48</ns3:cad>
          </ns3:TrackPointExtension>
        </extensions>
      </trkpt>
      <trkpt lat="43.76361840404570102691650390625" lon="1.56578569673001766204833984375">
        <ele>162.600006103515625</ele>
        <time>2026-08-13T06:30:25.000Z</time>
        <extensions>
          <ns3:TrackPointExtension>
            <ns3:hr>84</ns3:hr>
            <ns3:cad>48</ns3:cad>
          </ns3:TrackPointExtension>
        </extensions>
      </trkpt>
      <trkpt lat="43.7636362574994564056396484375" lon="1.5657825954258441925048828125">
        <ele>162.600006103515625</ele>
        <time>2026-08-13T06:30:26.000Z</time>
        <extensions>
          <ns3:TrackPointExtension>
            <ns3:hr>84</ns3:hr>
            <ns3:cad>47</ns3:cad>
          </ns3:TrackPointExtension>
        </extensions>
      </trkpt>
      <trkpt lat="43.7636451423168182373046875" lon="1.5657785721123218536376953125">
        <ele>162.600006103515625</ele>
        <time>2026-08-13T06:30:27.000Z</time>
        <extensions>
          <ns3:TrackPointExtension>
            <ns3:hr>85</ns3:hr>
            <ns3:cad>47</ns3:cad>
          </ns3:TrackPointExtension>
        </extensions>
      </trkpt>
      <trkpt lat="43.76365394331514835357666015625" lon="1.56576692126691341400146484375">
        <ele>162.600006103515625</ele>
        <time>2026-08-13T06:30:28.000Z</time>
        <extensions>
          <ns3:TrackPointExtension>
            <ns3:hr>85</ns3:hr>
            <ns3:cad>47</ns3:cad>
          </ns3:TrackPointExtension>
        </extensions>
      </trkpt>
      <trkpt lat="43.7636557035148143768310546875" lon="1.56575820408761501312255859375">
        <ele>162.399993896484375</ele>
        <time>2026-08-13T06:30:29.000Z</time>
        <extensions>
          <ns3:TrackPointExtension>
            <ns3:hr>85</ns3:hr>
            <ns3:cad>47</ns3:cad>
          </ns3:TrackPointExtension>
        </extensions>
      </trkpt>
      <trkpt lat="43.76366601325571537017822265625" lon="1.5657483972609043121337890625">
        <ele>162.399993896484375</ele>
        <time>2026-08-13T06:30:30.000Z</time>
        <extensions>
          <ns3:TrackPointExtension>
            <ns3:hr>85</ns3:hr>
            <ns3:cad>47</ns3:cad>
          </ns3:TrackPointExtension>
        </extensions>
      </trkpt>
      <trkpt lat="43.763676993548870086669921875" lon="1.56574060209095478057861328125">
        <ele>162.399993896484375</ele>
        <time>2026-08-13T06:30:31.000Z</time>
        <extensions>
          <ns3:TrackPointExtension>
            <ns3:hr>85</ns3:hr>
            <ns3:cad>49</ns3:cad>
          </ns3:TrackPointExtension>
        </extensions>
      </trkpt>
      <trkpt lat="43.763685040175914764404296875" lon="1.56573557294905185699462890625">
        <ele>162.399993896484375</ele>
        <time>2026-08-13T06:30:32.000Z</time>
        <extensions>
          <ns3:TrackPointExtension>
            <ns3:hr>85</ns3:hr>
            <ns3:cad>49</ns3:cad>
          </ns3:TrackPointExtension>
        </extensions>
      </trkpt>
      <trkpt lat="43.763691745698451995849609375" lon="1.565735153853893280029296875">
        <ele>162.399993896484375</ele>
        <time>2026-08-13T06:30:33.000Z</time>
        <extensions>
          <ns3:TrackPointExtension>
            <ns3:hr>85</ns3:hr>
            <ns3:cad>49</ns3:cad>
          </ns3:TrackPointExtension>
        </extensions>
      </trkpt>
      <trkpt lat="43.7637043185532093048095703125" lon="1.565731130540370941162109375">
        <ele>162.399993896484375</ele>
        <time>2026-08-13T06:30:34.000Z</time>
        <extensions>
          <ns3:TrackPointExtension>
            <ns3:hr>85</ns3:hr>
            <ns3:cad>49</ns3:cad>
          </ns3:TrackPointExtension>
        </extensions>
      </trkpt>
      <trkpt lat="43.76371881924569606781005859375" lon="1.56572266481816768646240234375">
        <ele>162.399993896484375</ele>
        <time>2026-08-13T06:30:35.000Z</time>
        <extensions>
          <ns3:TrackPointExtension>
            <ns3:hr>85</ns3:hr>
            <ns3:cad>0</ns3:cad>
          </ns3:TrackPointExtension>
        </extensions>
      </trkpt>
      <trkpt lat="43.76372753642499446868896484375" lon="1.56571336090564727783203125">
        <ele>162.399993896484375</ele>
        <time>2026-08-13T06:30:36.000Z</time>
        <extensions>
          <ns3:TrackPointExtension>
            <ns3:hr>85</ns3:hr>
            <ns3:cad>0</ns3:cad>
          </ns3:TrackPointExtension>
        </extensions>
      </trkpt>
      <trkpt lat="43.76373692415654659271240234375" lon="1.56570740975439548492431640625">
        <ele>162.399993896484375</ele>
        <time>2026-08-13T06:30:37.000Z</time>
        <extensions>
          <ns3:TrackPointExtension>
            <ns3:hr>85</ns3:hr>
            <ns3:cad>0</ns3:cad>
          </ns3:TrackPointExtension>
        </extensions>
      </trkpt>
      <trkpt lat="43.76374262385070323944091796875" lon="1.56570355407893657684326171875">
        <ele>162.399993896484375</ele>
        <time>2026-08-13T06:30:38.000Z</time>
        <extensions>
          <ns3:TrackPointExtension>
            <ns3:hr>85</ns3:hr>
            <ns3:cad>47</ns3:cad>
          </ns3:TrackPointExtension>
        </extensions>
      </trkpt>
      <trkpt lat="43.763752095401287078857421875" lon="1.565697602927684783935546875">
        <ele>162.600006103515625</ele>
        <time>2026-08-13T06:30:39.000Z</time>
        <extensions>
          <ns3:TrackPointExtension>
            <ns3:hr>85</ns3:hr>
            <ns3:cad>47</ns3:cad>
          </ns3:TrackPointExtension>
        </extensions>
      </trkpt>
      <trkpt lat="43.7637633271515369415283203125" lon="1.56569248996675014495849609375">
        <ele>162.600006103515625</ele>
        <time>2026-08-13T06:30:40.000Z</time>
        <extensions>
          <ns3:TrackPointExtension>
            <ns3:hr>85</ns3:hr>
            <ns3:cad>47</ns3:cad>
          </ns3:TrackPointExtension>
        </extensions>
      </trkpt>
      <trkpt lat="43.76377447508275508880615234375" lon="1.5656870417296886444091796875">
        <ele>162.600006103515625</ele>
        <time>2026-08-13T06:30:41.000Z</time>
        <extensions>
          <ns3:TrackPointExtension>
            <ns3:hr>85</ns3:hr>
            <ns3:cad>47</ns3:cad>
          </ns3:TrackPointExtension>
        </extensions>
      </trkpt>
      <trkpt lat="43.76378151588141918182373046875" lon="1.56568980775773525238037109375">
        <ele>162.600006103515625</ele>
        <time>2026-08-13T06:30:42.000Z</time>
        <extensions>
          <ns3:TrackPointExtension>
            <ns3:hr>85</ns3:hr>
            <ns3:cad>47</ns3:cad>
          </ns3:TrackPointExtension>
        </extensions>
      </trkpt>
      <trkpt lat="43.76379090361297130584716796875" lon="1.5656863711774349212646484375">
        <ele>162.600006103515625</ele>
        <time>2026-08-13T06:30:43.000Z</time>
        <extensions>
          <ns3:TrackPointExtension>
            <ns3:hr>85</ns3:hr>
            <ns3:cad>47</ns3:cad>
          </ns3:TrackPointExtension>
        </extensions>
      </trkpt>
      <trkpt lat="43.76380406320095062255859375" lon="1.56567790545523166656494140625">
        <ele>162.600006103515625</ele>
        <time>2026-08-13T06:30:44.000Z</time>
        <extensions>
          <ns3:TrackPointExtension>
            <ns3:hr>85</ns3:hr>
            <ns3:cad>47</ns3:cad>
          </ns3:TrackPointExtension>
        </extensions>
      </trkpt>
      <trkpt lat="43.76381185837090015411376953125" lon="1.565669439733028411865234375">
        <ele>162.399993896484375</ele>
        <time>2026-08-13T06:30:45.000Z</time>
        <extensions>
          <ns3:TrackPointExtension>
            <ns3:hr>86</ns3:hr>
            <ns3:cad>47</ns3:cad>
          </ns3:TrackPointExtension>
        </extensions>
      </trkpt>
      <trkpt lat="43.7638193182647228240966796875" lon="1.565665416419506072998046875">
        <ele>162.600006103515625</ele>
        <time>2026-08-13T06:30:46.000Z</time>
        <extensions>
          <ns3:TrackPointExtension>
            <ns3:hr>85</ns3:hr>
            <ns3:cad>47</ns3:cad>
          </ns3:TrackPointExtension>
        </extensions>
      </trkpt>
      <trkpt lat="43.76382795162498950958251953125" lon="1.565663404762744903564453125">
        <ele>162.600006103515625</ele>
        <time>2026-08-13T06:30:47.000Z</time>
        <extensions>
          <ns3:TrackPointExtension>
            <ns3:hr>85</ns3:hr>
            <ns3:cad>47</ns3:cad>
          </ns3:TrackPointExtension>
        </extensions>
      </trkpt>
      <trkpt lat="43.76384035684168338775634765625" lon="1.56565628014504909515380859375">
        <ele>162.600006103515625</ele>
        <time>2026-08-13T06:30:48.000Z</time>
        <extensions>
          <ns3:TrackPointExtension>
            <ns3:hr>86</ns3:hr>
            <ns3:cad>46</ns3:cad>
          </ns3:TrackPointExtension>
        </extensions>
      </trkpt>
      <trkpt lat="43.76384957693517208099365234375" lon="1.5656496584415435791015625">
        <ele>162.600006103515625</ele>
        <time>2026-08-13T06:30:49.000Z</time>
        <extensions>
          <ns3:TrackPointExtension>
            <ns3:hr>86</ns3:hr>
            <ns3:cad>46</ns3:cad>
          </ns3:TrackPointExtension>
        </extensions>
      </trkpt>
      <trkpt lat="43.76385904848575592041015625" lon="1.56564739532768726348876953125">
        <ele>162.600006103515625</ele>
        <time>2026-08-13T06:30:50.000Z</time>
        <extensions>
          <ns3:TrackPointExtension>
            <ns3:hr>86</ns3:hr>
            <ns3:cad>46</ns3:cad>
          </ns3:TrackPointExtension>
        </extensions>
      </trkpt>
      <trkpt lat="43.763867430388927459716796875" lon="1.565645635128021240234375">
        <ele>162.600006103515625</ele>
        <time>2026-08-13T06:30:51.000Z</time>
        <extensions>
          <ns3:TrackPointExtension>
            <ns3:hr>85</ns3:hr>
            <ns3:cad>46</ns3:cad>
          </ns3:TrackPointExtension>
        </extensions>
      </trkpt>
      <trkpt lat="43.76387639902532100677490234375" lon="1.5656404383480548858642578125">
        <ele>162.399993896484375</ele>
        <time>2026-08-13T06:30:52.000Z</time>
        <extensions>
          <ns3:TrackPointExtension>
            <ns3:hr>85</ns3:hr>
            <ns3:cad>45</ns3:cad>
          </ns3:TrackPointExtension>
        </extensions>
      </trkpt>
      <trkpt lat="43.763884864747524261474609375" lon="1.56562845222651958465576171875">
        <ele>162.399993896484375</ele>
        <time>2026-08-13T06:30:53.000Z</time>
        <extensions>
          <ns3:TrackPointExtension>
            <ns3:hr>85</ns3:hr>
            <ns3:cad>45</ns3:cad>
          </ns3:TrackPointExtension>
        </extensions>
      </trkpt>
      <trkpt lat="43.7638883851468563079833984375" lon="1.56562618911266326904296875">
        <ele>162.600006103515625</ele>
        <time>2026-08-13T06:30:54.000Z</time>
        <extensions>
          <ns3:TrackPointExtension>
            <ns3:hr>85</ns3:hr>
            <ns3:cad>46</ns3:cad>
          </ns3:TrackPointExtension>
        </extensions>
      </trkpt>
      <trkpt lat="43.76390188001096248626708984375" lon="1.56562216579914093017578125">
        <ele>162.600006103515625</ele>
        <time>2026-08-13T06:30:55.000Z</time>
        <extensions>
          <ns3:TrackPointExtension>
            <ns3:hr>85</ns3:hr>
            <ns3:cad>45</ns3:cad>
          </ns3:TrackPointExtension>
        </extensions>
      </trkpt>
      <trkpt lat="43.76390774734318256378173828125" lon="1.56560984440147876739501953125">
        <ele>162.600006103515625</ele>
        <time>2026-08-13T06:30:56.000Z</time>
        <extensions>
          <ns3:TrackPointExtension>
            <ns3:hr>85</ns3:hr>
            <ns3:cad>45</ns3:cad>
          </ns3:TrackPointExtension>
        </extensions>
      </trkpt>
      <trkpt lat="43.76391478814184665679931640625" lon="1.56559894792735576629638671875">
        <ele>162.600006103515625</ele>
        <time>2026-08-13T06:30:57.000Z</time>
        <extensions>
          <ns3:TrackPointExtension>
            <ns3:hr>85</ns3:hr>
            <ns3:cad>45</ns3:cad>
          </ns3:TrackPointExtension>
        </extensions>
      </trkpt>
      <trkpt lat="43.76392149366438388824462890625" lon="1.5655938349664211273193359375">
        <ele>162.600006103515625</ele>
        <time>2026-08-13T06:30:58.000Z</time>
        <extensions>
          <ns3:TrackPointExtension>
            <ns3:hr>84</ns3:hr>
            <ns3:cad>45</ns3:cad>
          </ns3:TrackPointExtension>
        </extensions>
      </trkpt>
      <trkpt lat="43.76393138431012630462646484375" lon="1.56558771617710590362548828125">
        <ele>162.600006103515625</ele>
        <time>2026-08-13T06:30:59.000Z</time>
        <extensions>
          <ns3:TrackPointExtension>
            <ns3:hr>84</ns3:hr>
            <ns3:cad>47</ns3:cad>
          </ns3:TrackPointExtension>
        </extensions>
      </trkpt>
      <trkpt lat="43.76393817365169525146484375" lon="1.56558134593069553375244140625">
        <ele>162.600006103515625</ele>
        <time>2026-08-13T06:31:00.000Z</time>
        <extensions>
          <ns3:TrackPointExtension>
            <ns3:hr>84</ns3:hr>
            <ns3:cad>47</ns3:cad>
          </ns3:TrackPointExtension>
        </extensions>
      </trkpt>
      <trkpt lat="43.7639510817825794219970703125" lon="1.56557212583720684051513671875">
        <ele>162.600006103515625</ele>
        <time>2026-08-13T06:31:01.000Z</time>
        <extensions>
          <ns3:TrackPointExtension>
            <ns3:hr>84</ns3:hr>
            <ns3:cad>47</ns3:cad>
          </ns3:TrackPointExtension>
        </extensions>
      </trkpt>
      <trkpt lat="43.76395870931446552276611328125" lon="1.5655676834285259246826171875">
        <ele>162.600006103515625</ele>
        <time>2026-08-13T06:31:02.000Z</time>
        <extensions>
          <ns3:TrackPointExtension>
            <ns3:hr>85</ns3:hr>
            <ns3:cad>47</ns3:cad>
          </ns3:TrackPointExtension>
        </extensions>
      </trkpt>
      <trkpt lat="43.76396960578858852386474609375" lon="1.56555770896375179290771484375">
        <ele>162.600006103515625</ele>
        <time>2026-08-13T06:31:03.000Z</time>
        <extensions>
          <ns3:TrackPointExtension>
            <ns3:hr>84</ns3:hr>
            <ns3:cad>47</ns3:cad>
          </ns3:TrackPointExtension>
        </extensions>
      </trkpt>
      <trkpt lat="43.76397899352014064788818359375" lon="1.56555133871734142303466796875">
        <ele>162.600006103515625</ele>
        <time>2026-08-13T06:31:04.000Z</time>
        <extensions>
          <ns3:TrackPointExtension>
            <ns3:hr>84</ns3:hr>
            <ns3:cad>47</ns3:cad>
          </ns3:TrackPointExtension>
        </extensions>
      </trkpt>
      <trkpt lat="43.76398687250912189483642578125" lon="1.565542034804821014404296875">
        <ele>162.8000030517578125</ele>
        <time>2026-08-13T06:31:05.000Z</time>
        <extensions>
          <ns3:TrackPointExtension>
            <ns3:hr>85</ns3:hr>
            <ns3:cad>0</ns3:cad>
          </ns3:TrackPointExtension>
        </extensions>
      </trkpt>
      <trkpt lat="43.76399240456521511077880859375" lon="1.56553071923553943634033203125">
        <ele>162.8000030517578125</ele>
        <time>2026-08-13T06:31:06.000Z</time>
        <extensions>
          <ns3:TrackPointExtension>
            <ns3:hr>85</ns3:hr>
            <ns3:cad>43</ns3:cad>
          </ns3:TrackPointExtension>
        </extensions>
      </trkpt>
      <trkpt lat="43.764002881944179534912109375" lon="1.56552485190331935882568359375">
        <ele>162.8000030517578125</ele>
        <time>2026-08-13T06:31:07.000Z</time>
        <extensions>
          <ns3:TrackPointExtension>
            <ns3:hr>85</ns3:hr>
            <ns3:cad>43</ns3:cad>
          </ns3:TrackPointExtension>
        </extensions>
      </trkpt>
      <trkpt lat="43.7640151195228099822998046875" lon="1.565522588789463043212890625">
        <ele>162.8000030517578125</ele>
        <time>2026-08-13T06:31:08.000Z</time>
        <extensions>
          <ns3:TrackPointExtension>
            <ns3:hr>84</ns3:hr>
            <ns3:cad>43</ns3:cad>
          </ns3:TrackPointExtension>
        </extensions>
      </trkpt>
      <trkpt lat="43.76402744092047214508056640625" lon="1.56551864929497241973876953125">
        <ele>162.8000030517578125</ele>
        <time>2026-08-13T06:31:09.000Z</time>
        <extensions>
          <ns3:TrackPointExtension>
            <ns3:hr>84</ns3:hr>
            <ns3:cad>43</ns3:cad>
          </ns3:TrackPointExtension>
        </extensions>
      </trkpt>
      <trkpt lat="43.76403146423399448394775390625" lon="1.56550926156342029571533203125">
        <ele>162.8000030517578125</ele>
        <time>2026-08-13T06:31:10.000Z</time>
        <extensions>
          <ns3:TrackPointExtension>
            <ns3:hr>85</ns3:hr>
            <ns3:cad>0</ns3:cad>
          </ns3:TrackPointExtension>
        </extensions>
      </trkpt>
      <trkpt lat="43.76403816975653171539306640625" lon="1.5655019693076610565185546875">
        <ele>162.8000030517578125</ele>
        <time>2026-08-13T06:31:11.000Z</time>
        <extensions>
          <ns3:TrackPointExtension>
            <ns3:hr>85</ns3:hr>
            <ns3:cad>0</ns3:cad>
          </ns3:TrackPointExtension>
        </extensions>
      </trkpt>
      <trkpt lat="43.76404990442097187042236328125" lon="1.5654972754418849945068359375">
        <ele>163</ele>
        <time>2026-08-13T06:31:12.000Z</time>
        <extensions>
          <ns3:TrackPointExtension>
            <ns3:hr>85</ns3:hr>
            <ns3:cad>44</ns3:cad>
          </ns3:TrackPointExtension>
        </extensions>
      </trkpt>
      <trkpt lat="43.7640627287328243255615234375" lon="1.565489061176776885986328125">
        <ele>162.8000030517578125</ele>
        <time>2026-08-13T06:31:13.000Z</time>
        <extensions>
          <ns3:TrackPointExtension>
            <ns3:hr>85</ns3:hr>
            <ns3:cad>44</ns3:cad>
          </ns3:TrackPointExtension>
        </extensions>
      </trkpt>
      <trkpt lat="43.7640734575688838958740234375" lon="1.5654748119413852691650390625">
        <ele>162.8000030517578125</ele>
        <time>2026-08-13T06:31:14.000Z</time>
        <extensions>
          <ns3:TrackPointExtension>
            <ns3:hr>86</ns3:hr>
            <ns3:cad>44</ns3:cad>
          </ns3:TrackPointExtension>
        </extensions>
      </trkpt>
      <trkpt lat="43.7640778161585330963134765625" lon="1.56546802259981632232666015625">
        <ele>162.8000030517578125</ele>
        <time>2026-08-13T06:31:15.000Z</time>
        <extensions>
          <ns3:TrackPointExtension>
            <ns3:hr>85</ns3:hr>
            <ns3:cad>44</ns3:cad>
          </ns3:TrackPointExtension>
        </extensions>
      </trkpt>
      <trkpt lat="43.76408359967172145843505859375" lon="1.565461568534374237060546875">
        <ele>162.8000030517578125</ele>
        <time>2026-08-13T06:31:16.000Z</time>
        <extensions>
          <ns3:TrackPointExtension>
            <ns3:hr>85</ns3:hr>
            <ns3:cad>45</ns3:cad>
          </ns3:TrackPointExtension>
        </extensions>
      </trkpt>
      <trkpt lat="43.7640969268977642059326171875" lon="1.5654538571834564208984375">
        <ele>162.8000030517578125</ele>
        <time>2026-08-13T06:31:17.000Z</time>
        <extensions>
          <ns3:TrackPointExtension>
            <ns3:hr>85</ns3:hr>
            <ns3:cad>45</ns3:cad>
          </ns3:TrackPointExtension>
        </extensions>
      </trkpt>
      <trkpt lat="43.76410706900060176849365234375" lon="1.56544673256576061248779296875">
        <ele>162.8000030517578125</ele>
        <time>2026-08-13T06:31:18.000Z</time>
        <extensions>
          <ns3:TrackPointExtension>
            <ns3:hr>86</ns3:hr>
            <ns3:cad>47</ns3:cad>
          </ns3:TrackPointExtension>
        </extensions>
      </trkpt>
      <trkpt lat="43.76411695964634418487548828125" lon="1.56544187106192111968994140625">
        <ele>162.8000030517578125</ele>
        <time>2026-08-13T06:31:19.000Z</time>
        <extensions>
          <ns3:TrackPointExtension>
            <ns3:hr>86</ns3:hr>
            <ns3:cad>48</ns3:cad>
          </ns3:TrackPointExtension>
        </extensions>
      </trkpt>
      <trkpt lat="43.7641257606446743011474609375" lon="1.56544203869998455047607421875">
        <ele>162.8000030517578125</ele>
        <time>2026-08-13T06:31:20.000Z</time>
        <extensions>
          <ns3:TrackPointExtension>
            <ns3:hr>86</ns3:hr>
            <ns3:cad>48</ns3:cad>
          </ns3:TrackPointExtension>
        </extensions>
      </trkpt>
      <trkpt lat="43.764137662947177886962890625" lon="1.56543483026325702667236328125">
        <ele>162.8000030517578125</ele>
        <time>2026-08-13T06:31:21.000Z</time>
        <extensions>
          <ns3:TrackPointExtension>
            <ns3:hr>86</ns3:hr>
            <ns3:cad>47</ns3:cad>
          </ns3:TrackPointExtension>
        </extensions>
      </trkpt>
      <trkpt lat="43.7641468830406665802001953125" lon="1.56542862765491008758544921875">
        <ele>163</ele>
        <time>2026-08-13T06:31:22.000Z</time>
        <extensions>
          <ns3:TrackPointExtension>
            <ns3:hr>86</ns3:hr>
            <ns3:cad>47</ns3:cad>
          </ns3:TrackPointExtension>
        </extensions>
      </trkpt>
      <trkpt lat="43.76415702514350414276123046875" lon="1.565419994294643402099609375">
        <ele>163</ele>
        <time>2026-08-13T06:31:23.000Z</time>
        <extensions>
          <ns3:TrackPointExtension>
            <ns3:hr>87</ns3:hr>
            <ns3:cad>47</ns3:cad>
          </ns3:TrackPointExtension>
        </extensions>
      </trkpt>
      <trkpt lat="43.76416590996086597442626953125" lon="1.56541739590466022491455078125">
        <ele>163</ele>
        <time>2026-08-13T06:31:24.000Z</time>
        <extensions>
          <ns3:TrackPointExtension>
            <ns3:hr>87</ns3:hr>
            <ns3:cad>46</ns3:cad>
          </ns3:TrackPointExtension>
        </extensions>
      </trkpt>
      <trkpt lat="43.76417630352079868316650390625" lon="1.56541588716208934783935546875">
        <ele>163</ele>
        <time>2026-08-13T06:31:25.000Z</time>
        <extensions>
          <ns3:TrackPointExtension>
            <ns3:hr>87</ns3:hr>
            <ns3:cad>46</ns3:cad>
          </ns3:TrackPointExtension>
        </extensions>
      </trkpt>
      <trkpt lat="43.7641834281384944915771484375" lon="1.56541152857244014739990234375">
        <ele>163</ele>
        <time>2026-08-13T06:31:26.000Z</time>
        <extensions>
          <ns3:TrackPointExtension>
            <ns3:hr>87</ns3:hr>
            <ns3:cad>47</ns3:cad>
          </ns3:TrackPointExtension>
        </extensions>
      </trkpt>
      <trkpt lat="43.764193989336490631103515625" lon="1.565405242145061492919921875">
        <ele>163.1999969482421875</ele>
        <time>2026-08-13T06:31:27.000Z</time>
        <extensions>
          <ns3:TrackPointExtension>
            <ns3:hr>86</ns3:hr>
            <ns3:cad>47</ns3:cad>
          </ns3:TrackPointExtension>
        </extensions>
      </trkpt>
      <trkpt lat="43.76420279033482074737548828125" lon="1.56540532596409320831298828125">
        <ele>163.1999969482421875</ele>
        <time>2026-08-13T06:31:28.000Z</time>
        <extensions>
          <ns3:TrackPointExtension>
            <ns3:hr>87</ns3:hr>
            <ns3:cad>47</ns3:cad>
          </ns3:TrackPointExtension>
        </extensions>
      </trkpt>
      <trkpt lat="43.764213435351848602294921875" lon="1.5654047392308712005615234375">
        <ele>163.1999969482421875</ele>
        <time>2026-08-13T06:31:29.000Z</time>
        <extensions>
          <ns3:TrackPointExtension>
            <ns3:hr>87</ns3:hr>
            <ns3:cad>47</ns3:cad>
          </ns3:TrackPointExtension>
        </extensions>
      </trkpt>
      <trkpt lat="43.764222823083400726318359375" lon="1.5654007159173488616943359375">
        <ele>163.1999969482421875</ele>
        <time>2026-08-13T06:31:30.000Z</time>
        <extensions>
          <ns3:TrackPointExtension>
            <ns3:hr>87</ns3:hr>
            <ns3:cad>47</ns3:cad>
          </ns3:TrackPointExtension>
        </extensions>
      </trkpt>
      <trkpt lat="43.76423430629074573516845703125" lon="1.5653970278799533843994140625">
        <ele>163.1999969482421875</ele>
        <time>2026-08-13T06:31:31.000Z</time>
        <extensions>
          <ns3:TrackPointExtension>
            <ns3:hr>87</ns3:hr>
            <ns3:cad>45</ns3:cad>
          </ns3:TrackPointExtension>
        </extensions>
      </trkpt>
      <trkpt lat="43.76424319110810756683349609375" lon="1.5653950162231922149658203125">
        <ele>163.1999969482421875</ele>
        <time>2026-08-13T06:31:32.000Z</time>
        <extensions>
          <ns3:TrackPointExtension>
            <ns3:hr>87</ns3:hr>
            <ns3:cad>44</ns3:cad>
          </ns3:TrackPointExtension>
        </extensions>
      </trkpt>
      <trkpt lat="43.76424956135451793670654296875" lon="1.56538839451968669891357421875">
        <ele>163.1999969482421875</ele>
        <time>2026-08-13T06:31:33.000Z</time>
        <extensions>
          <ns3:TrackPointExtension>
            <ns3:hr>86</ns3:hr>
            <ns3:cad>44</ns3:cad>
          </ns3:TrackPointExtension>
        </extensions>
      </trkpt>
      <trkpt lat="43.76426045782864093780517578125" lon="1.56538386829197406768798828125">
        <ele>163.1999969482421875</ele>
        <time>2026-08-13T06:31:34.000Z</time>
        <extensions>
          <ns3:TrackPointExtension>
            <ns3:hr>86</ns3:hr>
            <ns3:cad>45</ns3:cad>
          </ns3:TrackPointExtension>
        </extensions>
      </trkpt>
      <trkpt lat="43.76427487470209598541259765625" lon="1.56537749804556369781494140625">
        <ele>163.1999969482421875</ele>
        <time>2026-08-13T06:31:35.000Z</time>
        <extensions>
          <ns3:TrackPointExtension>
            <ns3:hr>86</ns3:hr>
            <ns3:cad>47</ns3:cad>
          </ns3:TrackPointExtension>
        </extensions>
      </trkpt>
      <trkpt lat="43.7642856873571872711181640625" lon="1.5653732232749462127685546875">
        <ele>163.1999969482421875</ele>
        <time>2026-08-13T06:31:36.000Z</time>
        <extensions>
          <ns3:TrackPointExtension>
            <ns3:hr>86</ns3:hr>
            <ns3:cad>47</ns3:cad>
          </ns3:TrackPointExtension>
        </extensions>
      </trkpt>
      <trkpt lat="43.7642947398126125335693359375" lon="1.56537431292235851287841796875">
        <ele>163.1999969482421875</ele>
        <time>2026-08-13T06:31:37.000Z</time>
        <extensions>
          <ns3:TrackPointExtension>
            <ns3:hr>86</ns3:hr>
            <ns3:cad>46</ns3:cad>
          </ns3:TrackPointExtension>
        </extensions>
      </trkpt>
      <trkpt lat="43.764300607144832611083984375" lon="1.5653705410659313201904296875">
        <ele>163.1999969482421875</ele>
        <time>2026-08-13T06:31:38.000Z</time>
        <extensions>
          <ns3:TrackPointExtension>
            <ns3:hr>85</ns3:hr>
            <ns3:cad>46</ns3:cad>
          </ns3:TrackPointExtension>
        </extensions>
      </trkpt>
      <trkpt lat="43.7643158622086048126220703125" lon="1.5653599798679351806640625">
        <ele>163</ele>
        <time>2026-08-13T06:31:39.000Z</time>
        <extensions>
          <ns3:TrackPointExtension>
            <ns3:hr>85</ns3:hr>
            <ns3:cad>46</ns3:cad>
          </ns3:TrackPointExtension>
        </extensions>
      </trkpt>
      <trkpt lat="43.764329440891742706298828125" lon="1.56534933485090732574462890625">
        <ele>163</ele>
        <time>2026-08-13T06:31:40.000Z</time>
        <extensions>
          <ns3:TrackPointExtension>
            <ns3:hr>85</ns3:hr>
            <ns3:cad>46</ns3:cad>
          </ns3:TrackPointExtension>
        </extensions>
      </trkpt>
      <trkpt lat="43.7643396668136119842529296875" lon="1.5653453953564167022705078125">
        <ele>163</ele>
        <time>2026-08-13T06:31:41.000Z</time>
        <extensions>
          <ns3:TrackPointExtension>
            <ns3:hr>84</ns3:hr>
            <ns3:cad>46</ns3:cad>
          </ns3:TrackPointExtension>
        </extensions>
      </trkpt>
      <trkpt lat="43.76434545032680034637451171875" lon="1.5653443895280361175537109375">
        <ele>163</ele>
        <time>2026-08-13T06:31:42.000Z</time>
        <extensions>
          <ns3:TrackPointExtension>
            <ns3:hr>84</ns3:hr>
            <ns3:cad>46</ns3:cad>
          </ns3:TrackPointExtension>
        </extensions>
      </trkpt>
      <trkpt lat="43.7643557600677013397216796875" lon="1.56533676199615001678466796875">
        <ele>163</ele>
        <time>2026-08-13T06:31:43.000Z</time>
        <extensions>
          <ns3:TrackPointExtension>
            <ns3:hr>84</ns3:hr>
            <ns3:cad>46</ns3:cad>
          </ns3:TrackPointExtension>
        </extensions>
      </trkpt>
      <trkpt lat="43.76436791382730007171630859375" lon="1.56532335095107555389404296875">
        <ele>163</ele>
        <time>2026-08-13T06:31:44.000Z</time>
        <extensions>
          <ns3:TrackPointExtension>
            <ns3:hr>85</ns3:hr>
            <ns3:cad>47</ns3:cad>
          </ns3:TrackPointExtension>
        </extensions>
      </trkpt>
      <trkpt lat="43.76437730155885219573974609375" lon="1.5653195790946483612060546875">
        <ele>163</ele>
        <time>2026-08-13T06:31:45.000Z</time>
        <extensions>
          <ns3:TrackPointExtension>
            <ns3:hr>85</ns3:hr>
            <ns3:cad>47</ns3:cad>
          </ns3:TrackPointExtension>
        </extensions>
      </trkpt>
      <trkpt lat="43.76438048668205738067626953125" lon="1.56531429849565029144287109375">
        <ele>163</ele>
        <time>2026-08-13T06:31:46.000Z</time>
        <extensions>
          <ns3:TrackPointExtension>
            <ns3:hr>86</ns3:hr>
            <ns3:cad>47</ns3:cad>
          </ns3:TrackPointExtension>
        </extensions>
      </trkpt>
      <trkpt lat="43.76439054496586322784423828125" lon="1.56531010754406452178955078125">
        <ele>163</ele>
        <time>2026-08-13T06:31:47.000Z</time>
        <extensions>
          <ns3:TrackPointExtension>
            <ns3:hr>87</ns3:hr>
            <ns3:cad>47</ns3:cad>
          </ns3:TrackPointExtension>
        </extensions>
      </trkpt>
      <trkpt lat="43.76440127380192279815673828125" lon="1.56529887579381465911865234375">
        <ele>163.1999969482421875</ele>
        <time>2026-08-13T06:31:48.000Z</time>
        <extensions>
          <ns3:TrackPointExtension>
            <ns3:hr>87</ns3:hr>
            <ns3:cad>47</ns3:cad>
          </ns3:TrackPointExtension>
        </extensions>
      </trkpt>
      <trkpt lat="43.764409236609935760498046875" lon="1.5652920864522457122802734375">
        <ele>163.1999969482421875</ele>
        <time>2026-08-13T06:31:49.000Z</time>
        <extensions>
          <ns3:TrackPointExtension>
            <ns3:hr>87</ns3:hr>
            <ns3:cad>46</ns3:cad>
          </ns3:TrackPointExtension>
        </extensions>
      </trkpt>
      <trkpt lat="43.76441552303731441497802734375" lon="1.5652863867580890655517578125">
        <ele>163.1999969482421875</ele>
        <time>2026-08-13T06:31:50.000Z</time>
        <extensions>
          <ns3:TrackPointExtension>
            <ns3:hr>88</ns3:hr>
            <ns3:cad>46</ns3:cad>
          </ns3:TrackPointExtension>
        </extensions>
      </trkpt>
      <trkpt lat="43.76442239619791507720947265625" lon="1.56528110615909099578857421875">
        <ele>163.1999969482421875</ele>
        <time>2026-08-13T06:31:51.000Z</time>
        <extensions>
          <ns3:TrackPointExtension>
            <ns3:hr>88</ns3:hr>
            <ns3:cad>46</ns3:cad>
          </ns3:TrackPointExtension>
        </extensions>
      </trkpt>
      <trkpt lat="43.7644335441291332244873046875" lon="1.565270125865936279296875">
        <ele>163.1999969482421875</ele>
        <time>2026-08-13T06:31:52.000Z</time>
        <extensions>
          <ns3:TrackPointExtension>
            <ns3:hr>88</ns3:hr>
            <ns3:cad>47</ns3:cad>
          </ns3:TrackPointExtension>
        </extensions>
      </trkpt>
      <trkpt lat="43.76444217748939990997314453125" lon="1.56526015140116214752197265625">
        <ele>163.1999969482421875</ele>
        <time>2026-08-13T06:31:53.000Z</time>
        <extensions>
          <ns3:TrackPointExtension>
            <ns3:hr>88</ns3:hr>
            <ns3:cad>47</ns3:cad>
          </ns3:TrackPointExtension>
        </extensions>
      </trkpt>
      <trkpt lat="43.76445173285901546478271484375" lon="1.56525612808763980865478515625">
        <ele>163.1999969482421875</ele>
        <time>2026-08-13T06:31:54.000Z</time>
        <extensions>
          <ns3:TrackPointExtension>
            <ns3:hr>88</ns3:hr>
            <ns3:cad>47</ns3:cad>
          </ns3:TrackPointExtension>
        </extensions>
      </trkpt>
      <trkpt lat="43.7644590251147747039794921875" lon="1.56525361351668834686279296875">
        <ele>163.1999969482421875</ele>
        <time>2026-08-13T06:31:55.000Z</time>
        <extensions>
          <ns3:TrackPointExtension>
            <ns3:hr>89</ns3:hr>
            <ns3:cad>46</ns3:cad>
          </ns3:TrackPointExtension>
        </extensions>
      </trkpt>
      <trkpt lat="43.764469921588897705078125" lon="1.5652474947273731231689453125">
        <ele>163.1999969482421875</ele>
        <time>2026-08-13T06:31:56.000Z</time>
        <extensions>
          <ns3:TrackPointExtension>
            <ns3:hr>89</ns3:hr>
            <ns3:cad>45</ns3:cad>
          </ns3:TrackPointExtension>
        </extensions>
      </trkpt>
      <trkpt lat="43.7644779682159423828125" lon="1.565242297947406768798828125">
        <ele>163.1999969482421875</ele>
        <time>2026-08-13T06:31:57.000Z</time>
        <extensions>
          <ns3:TrackPointExtension>
            <ns3:hr>89</ns3:hr>
            <ns3:cad>45</ns3:cad>
          </ns3:TrackPointExtension>
        </extensions>
      </trkpt>
      <trkpt lat="43.76448534429073333740234375" lon="1.5652364306151866912841796875">
        <ele>163.1999969482421875</ele>
        <time>2026-08-13T06:31:58.000Z</time>
        <extensions>
          <ns3:TrackPointExtension>
            <ns3:hr>89</ns3:hr>
            <ns3:cad>45</ns3:cad>
          </ns3:TrackPointExtension>
        </extensions>
      </trkpt>
      <trkpt lat="43.76449548639357089996337890625" lon="1.5652257017791271209716796875">
        <ele>163.1999969482421875</ele>
        <time>2026-08-13T06:31:59.000Z</time>
        <extensions>
          <ns3:TrackPointExtension>
            <ns3:hr>88</ns3:hr>
            <ns3:cad>45</ns3:cad>
          </ns3:TrackPointExtension>
        </extensions>
      </trkpt>
      <trkpt lat="43.76450940035283565521240234375" lon="1.565216146409511566162109375">
        <ele>163.1999969482421875</ele>
        <time>2026-08-13T06:32:00.000Z</time>
        <extensions>
          <ns3:TrackPointExtension>
            <ns3:hr>88</ns3:hr>
            <ns3:cad>45</ns3:cad>
          </ns3:TrackPointExtension>
        </extensions>
      </trkpt>
      <trkpt lat="43.76451895572245121002197265625" lon="1.56520449556410312652587890625">
        <ele>163.1999969482421875</ele>
        <time>2026-08-13T06:32:01.000Z</time>
        <extensions>
          <ns3:TrackPointExtension>
            <ns3:hr>88</ns3:hr>
            <ns3:cad>45</ns3:cad>
          </ns3:TrackPointExtension>
        </extensions>
      </trkpt>
      <trkpt lat="43.76452851109206676483154296875" lon="1.565198041498661041259765625">
        <ele>163.1999969482421875</ele>
        <time>2026-08-13T06:32:02.000Z</time>
        <extensions>
          <ns3:TrackPointExtension>
            <ns3:hr>87</ns3:hr>
            <ns3:cad>44</ns3:cad>
          </ns3:TrackPointExtension>
        </extensions>
      </trkpt>
      <trkpt lat="43.7645358033478260040283203125" lon="1.565195024013519287109375">
        <ele>163.1999969482421875</ele>
        <time>2026-08-13T06:32:03.000Z</time>
        <extensions>
          <ns3:TrackPointExtension>
            <ns3:hr>87</ns3:hr>
            <ns3:cad>44</ns3:cad>
          </ns3:TrackPointExtension>
        </extensions>
      </trkpt>
      <trkpt lat="43.7645472027361392974853515625" lon="1.56518320553004741668701171875">
        <ele>163.1999969482421875</ele>
        <time>2026-08-13T06:32:04.000Z</time>
        <extensions>
          <ns3:TrackPointExtension>
            <ns3:hr>87</ns3:hr>
            <ns3:cad>45</ns3:cad>
          </ns3:TrackPointExtension>
        </extensions>
      </trkpt>
      <trkpt lat="43.76455600373446941375732421875" lon="1.565175242722034454345703125">
        <ele>163.1999969482421875</ele>
        <time>2026-08-13T06:32:05.000Z</time>
        <extensions>
          <ns3:TrackPointExtension>
            <ns3:hr>87</ns3:hr>
            <ns3:cad>45</ns3:cad>
          </ns3:TrackPointExtension>
        </extensions>
      </trkpt>
      <trkpt lat="43.76456354744732379913330078125" lon="1.56517096795141696929931640625">
        <ele>163.1999969482421875</ele>
        <time>2026-08-13T06:32:06.000Z</time>
        <extensions>
          <ns3:TrackPointExtension>
            <ns3:hr>86</ns3:hr>
            <ns3:cad>45</ns3:cad>
          </ns3:TrackPointExtension>
        </extensions>
      </trkpt>
      <trkpt lat="43.7645696662366390228271484375" lon="1.56516979448497295379638671875">
        <ele>163.1999969482421875</ele>
        <time>2026-08-13T06:32:07.000Z</time>
        <extensions>
          <ns3:TrackPointExtension>
            <ns3:hr>87</ns3:hr>
            <ns3:cad>45</ns3:cad>
          </ns3:TrackPointExtension>
        </extensions>
      </trkpt>
      <trkpt lat="43.76458215527236461639404296875" lon="1.56515638343989849090576171875">
        <ele>163.1999969482421875</ele>
        <time>2026-08-13T06:32:08.000Z</time>
        <extensions>
          <ns3:TrackPointExtension>
            <ns3:hr>86</ns3:hr>
            <ns3:cad>47</ns3:cad>
          </ns3:TrackPointExtension>
        </extensions>
      </trkpt>
      <trkpt lat="43.7645904533565044403076171875" lon="1.56514741480350494384765625">
        <ele>163</ele>
        <time>2026-08-13T06:32:09.000Z</time>
        <extensions>
          <ns3:TrackPointExtension>
            <ns3:hr>86</ns3:hr>
            <ns3:cad>47</ns3:cad>
          </ns3:TrackPointExtension>
        </extensions>
      </trkpt>
      <trkpt lat="43.76460009254515171051025390625" lon="1.56513727270066738128662109375">
        <ele>163</ele>
        <time>2026-08-13T06:32:10.000Z</time>
        <extensions>
          <ns3:TrackPointExtension>
            <ns3:hr>86</ns3:hr>
            <ns3:cad>47</ns3:cad>
          </ns3:TrackPointExtension>
        </extensions>
      </trkpt>
      <trkpt lat="43.7646068818867206573486328125" lon="1.5651271305978298187255859375">
        <ele>163</ele>
        <time>2026-08-13T06:32:11.000Z</time>
        <extensions>
          <ns3:TrackPointExtension>
            <ns3:hr>86</ns3:hr>
            <ns3:cad>47</ns3:cad>
          </ns3:TrackPointExtension>
        </extensions>
      </trkpt>
      <trkpt lat="43.76461400650441646575927734375" lon="1.5651187486946582794189453125">
        <ele>163</ele>
        <time>2026-08-13T06:32:12.000Z</time>
        <extensions>
          <ns3:TrackPointExtension>
            <ns3:hr>86</ns3:hr>
            <ns3:cad>47</ns3:cad>
          </ns3:TrackPointExtension>
        </extensions>
      </trkpt>
      <trkpt lat="43.7646253220736980438232421875" lon="1.56509938649833202362060546875">
        <ele>163</ele>
        <time>2026-08-13T06:32:13.000Z</time>
        <extensions>
          <ns3:TrackPointExtension>
            <ns3:hr>86</ns3:hr>
            <ns3:cad>47</ns3:cad>
          </ns3:TrackPointExtension>
        </extensions>
      </trkpt>
      <trkpt lat="43.76463730819523334503173828125" lon="1.56508597545325756072998046875">
        <ele>163</ele>
        <time>2026-08-13T06:32:14.000Z</time>
        <extensions>
          <ns3:TrackPointExtension>
            <ns3:hr>85</ns3:hr>
            <ns3:cad>48</ns3:cad>
          </ns3:TrackPointExtension>
        </extensions>
      </trkpt>
      <trkpt lat="43.7646457739174365997314453125" lon="1.56507558189332485198974609375">
        <ele>163</ele>
        <time>2026-08-13T06:32:15.000Z</time>
        <extensions>
          <ns3:TrackPointExtension>
            <ns3:hr>85</ns3:hr>
            <ns3:cad>48</ns3:cad>
          </ns3:TrackPointExtension>
        </extensions>
      </trkpt>
      <trkpt lat="43.7646496295928955078125" lon="1.56506963074207305908203125">
        <ele>163</ele>
        <time>2026-08-13T06:32:16.000Z</time>
        <extensions>
          <ns3:TrackPointExtension>
            <ns3:hr>85</ns3:hr>
            <ns3:cad>48</ns3:cad>
          </ns3:TrackPointExtension>
        </extensions>
      </trkpt>
      <trkpt lat="43.7646554969251155853271484375" lon="1.565062589943408966064453125">
        <ele>163</ele>
        <time>2026-08-13T06:32:17.000Z</time>
        <extensions>
          <ns3:TrackPointExtension>
            <ns3:hr>85</ns3:hr>
            <ns3:cad>47</ns3:cad>
          </ns3:TrackPointExtension>
        </extensions>
      </trkpt>
      <trkpt lat="43.76466580666601657867431640625" lon="1.56505286693572998046875">
        <ele>163</ele>
        <time>2026-08-13T06:32:18.000Z</time>
        <extensions>
          <ns3:TrackPointExtension>
            <ns3:hr>86</ns3:hr>
            <ns3:cad>47</ns3:cad>
          </ns3:TrackPointExtension>
        </extensions>
      </trkpt>
      <trkpt lat="43.7646776251494884490966796875" lon="1.5650436468422412872314453125">
        <ele>163</ele>
        <time>2026-08-13T06:32:19.000Z</time>
        <extensions>
          <ns3:TrackPointExtension>
            <ns3:hr>85</ns3:hr>
            <ns3:cad>47</ns3:cad>
          </ns3:TrackPointExtension>
        </extensions>
      </trkpt>
      <trkpt lat="43.764687515795230865478515625" lon="1.56503870151937007904052734375">
        <ele>162.8000030517578125</ele>
        <time>2026-08-13T06:32:20.000Z</time>
        <extensions>
          <ns3:TrackPointExtension>
            <ns3:hr>85</ns3:hr>
            <ns3:cad>48</ns3:cad>
          </ns3:TrackPointExtension>
        </extensions>
      </trkpt>
      <trkpt lat="43.7646953947842121124267578125" lon="1.56503719277679920196533203125">
        <ele>162.8000030517578125</ele>
        <time>2026-08-13T06:32:21.000Z</time>
        <extensions>
          <ns3:TrackPointExtension>
            <ns3:hr>85</ns3:hr>
            <ns3:cad>48</ns3:cad>
          </ns3:TrackPointExtension>
        </extensions>
      </trkpt>
      <trkpt lat="43.76470503397285938262939453125" lon="1.5650273859500885009765625">
        <ele>162.8000030517578125</ele>
        <time>2026-08-13T06:32:22.000Z</time>
        <extensions>
          <ns3:TrackPointExtension>
            <ns3:hr>85</ns3:hr>
            <ns3:cad>47</ns3:cad>
          </ns3:TrackPointExtension>
        </extensions>
      </trkpt>
      <trkpt lat="43.7647140026092529296875" lon="1.565015316009521484375">
        <ele>162.8000030517578125</ele>
        <time>2026-08-13T06:32:23.000Z</time>
        <extensions>
          <ns3:TrackPointExtension>
            <ns3:hr>86</ns3:hr>
            <ns3:cad>47</ns3:cad>
          </ns3:TrackPointExtension>
        </extensions>
      </trkpt>
      <trkpt lat="43.76472196541726589202880859375" lon="1.56500685028731822967529296875">
        <ele>162.8000030517578125</ele>
        <time>2026-08-13T06:32:24.000Z</time>
        <extensions>
          <ns3:TrackPointExtension>
            <ns3:hr>86</ns3:hr>
            <ns3:cad>47</ns3:cad>
          </ns3:TrackPointExtension>
        </extensions>
      </trkpt>
      <trkpt lat="43.7647287547588348388671875" lon="1.56500400044023990631103515625">
        <ele>162.8000030517578125</ele>
        <time>2026-08-13T06:32:25.000Z</time>
        <extensions>
          <ns3:TrackPointExtension>
            <ns3:hr>86</ns3:hr>
            <ns3:cad>47</ns3:cad>
          </ns3:TrackPointExtension>
        </extensions>
      </trkpt>
      <trkpt lat="43.7647393159568309783935546875" lon="1.56499746255576610565185546875">
        <ele>162.8000030517578125</ele>
        <time>2026-08-13T06:32:26.000Z</time>
        <extensions>
          <ns3:TrackPointExtension>
            <ns3:hr>86</ns3:hr>
            <ns3:cad>47</ns3:cad>
          </ns3:TrackPointExtension>
        </extensions>
      </trkpt>
      <trkpt lat="43.76475088298320770263671875" lon="1.5649879910051822662353515625">
        <ele>162.8000030517578125</ele>
        <time>2026-08-13T06:32:27.000Z</time>
        <extensions>
          <ns3:TrackPointExtension>
            <ns3:hr>86</ns3:hr>
            <ns3:cad>47</ns3:cad>
          </ns3:TrackPointExtension>
        </extensions>
      </trkpt>
      <trkpt lat="43.7647604383528232574462890625" lon="1.5649796091020107269287109375">
        <ele>162.8000030517578125</ele>
        <time>2026-08-13T06:32:28.000Z</time>
        <extensions>
          <ns3:TrackPointExtension>
            <ns3:hr>86</ns3:hr>
            <ns3:cad>46</ns3:cad>
          </ns3:TrackPointExtension>
        </extensions>
      </trkpt>
      <trkpt lat="43.76476471312344074249267578125" lon="1.56498086638748645782470703125">
        <ele>162.8000030517578125</ele>
        <time>2026-08-13T06:32:29.000Z</time>
        <extensions>
          <ns3:TrackPointExtension>
            <ns3:hr>87</ns3:hr>
            <ns3:cad>44</ns3:cad>
          </ns3:TrackPointExtension>
        </extensions>
      </trkpt>
      <trkpt lat="43.76477125100791454315185546875" lon="1.56497248448431491851806640625">
        <ele>162.8000030517578125</ele>
        <time>2026-08-13T06:32:30.000Z</time>
        <extensions>
          <ns3:TrackPointExtension>
            <ns3:hr>86</ns3:hr>
            <ns3:cad>44</ns3:cad>
          </ns3:TrackPointExtension>
        </extensions>
      </trkpt>
      <trkpt lat="43.7647818960249423980712890625" lon="1.56496142037212848663330078125">
        <ele>162.8000030517578125</ele>
        <time>2026-08-13T06:32:31.000Z</time>
        <extensions>
          <ns3:TrackPointExtension>
            <ns3:hr>86</ns3:hr>
            <ns3:cad>44</ns3:cad>
          </ns3:TrackPointExtension>
        </extensions>
      </trkpt>
      <trkpt lat="43.76479052938520908355712890625" lon="1.56495069153606891632080078125">
        <ele>162.8000030517578125</ele>
        <time>2026-08-13T06:32:32.000Z</time>
        <extensions>
          <ns3:TrackPointExtension>
            <ns3:hr>87</ns3:hr>
            <ns3:cad>44</ns3:cad>
          </ns3:TrackPointExtension>
        </extensions>
      </trkpt>
      <trkpt lat="43.76479790546000003814697265625" lon="1.5649480931460857391357421875">
        <ele>162.8000030517578125</ele>
        <time>2026-08-13T06:32:33.000Z</time>
        <extensions>
          <ns3:TrackPointExtension>
            <ns3:hr>86</ns3:hr>
            <ns3:cad>44</ns3:cad>
          </ns3:TrackPointExtension>
        </extensions>
      </trkpt>
      <trkpt lat="43.76480410806834697723388671875" lon="1.56494113616645336151123046875">
        <ele>162.8000030517578125</ele>
        <time>2026-08-13T06:32:34.000Z</time>
        <extensions>
          <ns3:TrackPointExtension>
            <ns3:hr>86</ns3:hr>
            <ns3:cad>44</ns3:cad>
          </ns3:TrackPointExtension>
        </extensions>
      </trkpt>
      <trkpt lat="43.76481316052377223968505859375" lon="1.5649232827126979827880859375">
        <ele>162.8000030517578125</ele>
        <time>2026-08-13T06:32:35.000Z</time>
        <extensions>
          <ns3:TrackPointExtension>
            <ns3:hr>86</ns3:hr>
            <ns3:cad>44</ns3:cad>
          </ns3:TrackPointExtension>
        </extensions>
      </trkpt>
      <trkpt lat="43.76482288353145122528076171875" lon="1.5649105422198772430419921875">
        <ele>162.8000030517578125</ele>
        <time>2026-08-13T06:32:36.000Z</time>
        <extensions>
          <ns3:TrackPointExtension>
            <ns3:hr>86</ns3:hr>
            <ns3:cad>46</ns3:cad>
          </ns3:TrackPointExtension>
        </extensions>
      </trkpt>
      <trkpt lat="43.764831013977527618408203125" lon="1.56490190885961055755615234375">
        <ele>162.600006103515625</ele>
        <time>2026-08-13T06:32:37.000Z</time>
        <extensions>
          <ns3:TrackPointExtension>
            <ns3:hr>86</ns3:hr>
            <ns3:cad>46</ns3:cad>
          </ns3:TrackPointExtension>
        </extensions>
      </trkpt>
      <trkpt lat="43.76483738422393798828125" lon="1.56489520333707332611083984375">
        <ele>162.600006103515625</ele>
        <time>2026-08-13T06:32:38.000Z</time>
        <extensions>
          <ns3:TrackPointExtension>
            <ns3:hr>86</ns3:hr>
            <ns3:cad>46</ns3:cad>
          </ns3:TrackPointExtension>
        </extensions>
      </trkpt>
      <trkpt lat="43.7648506276309490203857421875" lon="1.56488724052906036376953125">
        <ele>162.600006103515625</ele>
        <time>2026-08-13T06:32:39.000Z</time>
        <extensions>
          <ns3:TrackPointExtension>
            <ns3:hr>86</ns3:hr>
            <ns3:cad>46</ns3:cad>
          </ns3:TrackPointExtension>
        </extensions>
      </trkpt>
      <trkpt lat="43.76485959626734256744384765625" lon="1.5648753382265567779541015625">
        <ele>162.600006103515625</ele>
        <time>2026-08-13T06:32:40.000Z</time>
        <extensions>
          <ns3:TrackPointExtension>
            <ns3:hr>85</ns3:hr>
            <ns3:cad>47</ns3:cad>
          </ns3:TrackPointExtension>
        </extensions>
      </trkpt>
      <trkpt lat="43.76486898399889469146728515625" lon="1.56486846506595611572265625">
        <ele>162.600006103515625</ele>
        <time>2026-08-13T06:32:41.000Z</time>
        <extensions>
          <ns3:TrackPointExtension>
            <ns3:hr>84</ns3:hr>
            <ns3:cad>47</ns3:cad>
          </ns3:TrackPointExtension>
        </extensions>
      </trkpt>
      <trkpt lat="43.76487158238887786865234375" lon="1.56486335210502147674560546875">
        <ele>162.600006103515625</ele>
        <time>2026-08-13T06:32:42.000Z</time>
        <extensions>
          <ns3:TrackPointExtension>
            <ns3:hr>83</ns3:hr>
            <ns3:cad>47</ns3:cad>
          </ns3:TrackPointExtension>
        </extensions>
      </trkpt>
      <trkpt lat="43.7648841552436351776123046875" lon="1.56485480256378650665283203125">
        <ele>162.600006103515625</ele>
        <time>2026-08-13T06:32:43.000Z</time>
        <extensions>
          <ns3:TrackPointExtension>
            <ns3:hr>82</ns3:hr>
            <ns3:cad>46</ns3:cad>
          </ns3:TrackPointExtension>
        </extensions>
      </trkpt>
      <trkpt lat="43.76489446498453617095947265625" lon="1.564846001565456390380859375">
        <ele>162.600006103515625</ele>
        <time>2026-08-13T06:32:44.000Z</time>
        <extensions>
          <ns3:TrackPointExtension>
            <ns3:hr>82</ns3:hr>
            <ns3:cad>46</ns3:cad>
          </ns3:TrackPointExtension>
        </extensions>
      </trkpt>
      <trkpt lat="43.7649046070873737335205078125" lon="1.564839296042919158935546875">
        <ele>162.600006103515625</ele>
        <time>2026-08-13T06:32:45.000Z</time>
        <extensions>
          <ns3:TrackPointExtension>
            <ns3:hr>82</ns3:hr>
            <ns3:cad>47</ns3:cad>
          </ns3:TrackPointExtension>
        </extensions>
      </trkpt>
      <trkpt lat="43.76490904949605464935302734375" lon="1.5648354403674602508544921875">
        <ele>162.600006103515625</ele>
        <time>2026-08-13T06:32:46.000Z</time>
        <extensions>
          <ns3:TrackPointExtension>
            <ns3:hr>82</ns3:hr>
            <ns3:cad>47</ns3:cad>
          </ns3:TrackPointExtension>
        </extensions>
      </trkpt>
      <trkpt lat="43.764918856322765350341796875" lon="1.56483091413974761962890625">
        <ele>162.600006103515625</ele>
        <time>2026-08-13T06:32:47.000Z</time>
        <extensions>
          <ns3:TrackPointExtension>
            <ns3:hr>83</ns3:hr>
            <ns3:cad>47</ns3:cad>
          </ns3:TrackPointExtension>
        </extensions>
      </trkpt>
      <trkpt lat="43.76492924988269805908203125" lon="1.56482311896979808807373046875">
        <ele>162.600006103515625</ele>
        <time>2026-08-13T06:32:48.000Z</time>
        <extensions>
          <ns3:TrackPointExtension>
            <ns3:hr>84</ns3:hr>
            <ns3:cad>47</ns3:cad>
          </ns3:TrackPointExtension>
        </extensions>
      </trkpt>
      <trkpt lat="43.76493930816650390625" lon="1.564814150333404541015625">
        <ele>162.600006103515625</ele>
        <time>2026-08-13T06:32:49.000Z</time>
        <extensions>
          <ns3:TrackPointExtension>
            <ns3:hr>84</ns3:hr>
            <ns3:cad>45</ns3:cad>
          </ns3:TrackPointExtension>
        </extensions>
      </trkpt>
      <trkpt lat="43.7649465166032314300537109375" lon="1.56481213867664337158203125">
        <ele>162.399993896484375</ele>
        <time>2026-08-13T06:32:50.000Z</time>
        <extensions>
          <ns3:TrackPointExtension>
            <ns3:hr>85</ns3:hr>
            <ns3:cad>45</ns3:cad>
          </ns3:TrackPointExtension>
        </extensions>
      </trkpt>
      <trkpt lat="43.76495565287768840789794921875" lon="1.5648056007921695709228515625">
        <ele>162.399993896484375</ele>
        <time>2026-08-13T06:32:51.000Z</time>
        <extensions>
          <ns3:TrackPointExtension>
            <ns3:hr>85</ns3:hr>
            <ns3:cad>43</ns3:cad>
          </ns3:TrackPointExtension>
        </extensions>
      </trkpt>
      <trkpt lat="43.76496302895247936248779296875" lon="1.5648002363741397857666015625">
        <ele>162.399993896484375</ele>
        <time>2026-08-13T06:32:52.000Z</time>
        <extensions>
          <ns3:TrackPointExtension>
            <ns3:hr>85</ns3:hr>
            <ns3:cad>43</ns3:cad>
          </ns3:TrackPointExtension>
        </extensions>
      </trkpt>
      <trkpt lat="43.764973171055316925048828125" lon="1.56479311175644397735595703125">
        <ele>162.399993896484375</ele>
        <time>2026-08-13T06:32:53.000Z</time>
        <extensions>
          <ns3:TrackPointExtension>
            <ns3:hr>85</ns3:hr>
            <ns3:cad>47</ns3:cad>
          </ns3:TrackPointExtension>
        </extensions>
      </trkpt>
      <trkpt lat="43.7649835646152496337890625" lon="1.564786992967128753662109375">
        <ele>162.399993896484375</ele>
        <time>2026-08-13T06:32:54.000Z</time>
        <extensions>
          <ns3:TrackPointExtension>
            <ns3:hr>85</ns3:hr>
            <ns3:cad>48</ns3:cad>
          </ns3:TrackPointExtension>
        </extensions>
      </trkpt>
      <trkpt lat="43.7649921141564846038818359375" lon="1.56478372402489185333251953125">
        <ele>162.600006103515625</ele>
        <time>2026-08-13T06:32:55.000Z</time>
        <extensions>
          <ns3:TrackPointExtension>
            <ns3:hr>85</ns3:hr>
            <ns3:cad>48</ns3:cad>
          </ns3:TrackPointExtension>
        </extensions>
      </trkpt>
      <trkpt lat="43.76499890349805355072021484375" lon="1.564785651862621307373046875">
        <ele>162.600006103515625</ele>
        <time>2026-08-13T06:32:56.000Z</time>
        <extensions>
          <ns3:TrackPointExtension>
            <ns3:hr>85</ns3:hr>
            <ns3:cad>48</ns3:cad>
          </ns3:TrackPointExtension>
        </extensions>
      </trkpt>
      <trkpt lat="43.7650118954479694366455078125" lon="1.56478372402489185333251953125">
        <ele>162.600006103515625</ele>
        <time>2026-08-13T06:32:57.000Z</time>
        <extensions>
          <ns3:TrackPointExtension>
            <ns3:hr>85</ns3:hr>
            <ns3:cad>48</ns3:cad>
          </ns3:TrackPointExtension>
        </extensions>
      </trkpt>
      <trkpt lat="43.76502555795013904571533203125" lon="1.5647787787020206451416015625">
        <ele>162.399993896484375</ele>
        <time>2026-08-13T06:32:58.000Z</time>
        <extensions>
          <ns3:TrackPointExtension>
            <ns3:hr>85</ns3:hr>
            <ns3:cad>49</ns3:cad>
          </ns3:TrackPointExtension>
        </extensions>
      </trkpt>
      <trkpt lat="43.76503511331975460052490234375" lon="1.56477416865527629852294921875">
        <ele>162.399993896484375</ele>
        <time>2026-08-13T06:32:59.000Z</time>
        <extensions>
          <ns3:TrackPointExtension>
            <ns3:hr>85</ns3:hr>
            <ns3:cad>49</ns3:cad>
          </ns3:TrackPointExtension>
        </extensions>
      </trkpt>
      <trkpt lat="43.76504123210906982421875" lon="1.5647734142839908599853515625">
        <ele>162.1999969482421875</ele>
        <time>2026-08-13T06:33:00.000Z</time>
        <extensions>
          <ns3:TrackPointExtension>
            <ns3:hr>85</ns3:hr>
            <ns3:cad>48</ns3:cad>
          </ns3:TrackPointExtension>
        </extensions>
      </trkpt>
      <trkpt lat="43.76504785381257534027099609375" lon="1.5647747553884983062744140625">
        <ele>162.1999969482421875</ele>
        <time>2026-08-13T06:33:01.000Z</time>
        <extensions>
          <ns3:TrackPointExtension>
            <ns3:hr>85</ns3:hr>
            <ns3:cad>47</ns3:cad>
          </ns3:TrackPointExtension>
        </extensions>
      </trkpt>
      <trkpt lat="43.76506042666733264923095703125" lon="1.5647720731794834136962890625">
        <ele>162.1999969482421875</ele>
        <time>2026-08-13T06:33:02.000Z</time>
        <extensions>
          <ns3:TrackPointExtension>
            <ns3:hr>85</ns3:hr>
            <ns3:cad>46</ns3:cad>
          </ns3:TrackPointExtension>
        </extensions>
      </trkpt>
      <trkpt lat="43.76507341861724853515625" lon="1.564765870571136474609375">
        <ele>162.1999969482421875</ele>
        <time>2026-08-13T06:33:03.000Z</time>
        <extensions>
          <ns3:TrackPointExtension>
            <ns3:hr>84</ns3:hr>
            <ns3:cad>46</ns3:cad>
          </ns3:TrackPointExtension>
        </extensions>
      </trkpt>
      <trkpt lat="43.76508289016783237457275390625" lon="1.56476092524826526641845703125">
        <ele>162.1999969482421875</ele>
        <time>2026-08-13T06:33:04.000Z</time>
        <extensions>
          <ns3:TrackPointExtension>
            <ns3:hr>85</ns3:hr>
            <ns3:cad>47</ns3:cad>
          </ns3:TrackPointExtension>
        </extensions>
      </trkpt>
      <trkpt lat="43.76508926041424274444580078125" lon="1.56476385891437530517578125">
        <ele>162.1999969482421875</ele>
        <time>2026-08-13T06:33:05.000Z</time>
        <extensions>
          <ns3:TrackPointExtension>
            <ns3:hr>85</ns3:hr>
            <ns3:cad>47</ns3:cad>
          </ns3:TrackPointExtension>
        </extensions>
      </trkpt>
      <trkpt lat="43.7651015818119049072265625" lon="1.5647623501718044281005859375">
        <ele>162.1999969482421875</ele>
        <time>2026-08-13T06:33:06.000Z</time>
        <extensions>
          <ns3:TrackPointExtension>
            <ns3:hr>85</ns3:hr>
            <ns3:cad>48</ns3:cad>
          </ns3:TrackPointExtension>
        </extensions>
      </trkpt>
      <trkpt lat="43.76511205919086933135986328125" lon="1.5647613443434238433837890625">
        <ele>162.1999969482421875</ele>
        <time>2026-08-13T06:33:07.000Z</time>
        <extensions>
          <ns3:TrackPointExtension>
            <ns3:hr>85</ns3:hr>
            <ns3:cad>48</ns3:cad>
          </ns3:TrackPointExtension>
        </extensions>
      </trkpt>
      <trkpt lat="43.76511876471340656280517578125" lon="1.56476025469601154327392578125">
        <ele>162</ele>
        <time>2026-08-13T06:33:08.000Z</time>
        <extensions>
          <ns3:TrackPointExtension>
            <ns3:hr>86</ns3:hr>
            <ns3:cad>47</ns3:cad>
          </ns3:TrackPointExtension>
        </extensions>
      </trkpt>
      <trkpt lat="43.76512664370238780975341796875" lon="1.564759500324726104736328125">
        <ele>162</ele>
        <time>2026-08-13T06:33:09.000Z</time>
        <extensions>
          <ns3:TrackPointExtension>
            <ns3:hr>86</ns3:hr>
            <ns3:cad>46</ns3:cad>
          </ns3:TrackPointExtension>
        </extensions>
      </trkpt>
      <trkpt lat="43.76513083465397357940673828125" lon="1.56475338153541088104248046875">
        <ele>162</ele>
        <time>2026-08-13T06:33:10.000Z</time>
        <extensions>
          <ns3:TrackPointExtension>
            <ns3:hr>87</ns3:hr>
            <ns3:cad>46</ns3:cad>
          </ns3:TrackPointExtension>
        </extensions>
      </trkpt>
      <trkpt lat="43.76514173112809658050537109375" lon="1.564749777317047119140625">
        <ele>162</ele>
        <time>2026-08-13T06:33:11.000Z</time>
        <extensions>
          <ns3:TrackPointExtension>
            <ns3:hr>87</ns3:hr>
            <ns3:cad>46</ns3:cad>
          </ns3:TrackPointExtension>
        </extensions>
      </trkpt>
      <trkpt lat="43.7651506997644901275634765625" lon="1.56475271098315715789794921875">
        <ele>162</ele>
        <time>2026-08-13T06:33:12.000Z</time>
        <extensions>
          <ns3:TrackPointExtension>
            <ns3:hr>87</ns3:hr>
            <ns3:cad>46</ns3:cad>
          </ns3:TrackPointExtension>
        </extensions>
      </trkpt>
      <trkpt lat="43.7651557289063930511474609375" lon="1.564754806458950042724609375">
        <ele>162</ele>
        <time>2026-08-13T06:33:13.000Z</time>
        <extensions>
          <ns3:TrackPointExtension>
            <ns3:hr>88</ns3:hr>
            <ns3:cad>46</ns3:cad>
          </ns3:TrackPointExtension>
        </extensions>
      </trkpt>
      <trkpt lat="43.76516436226665973663330078125" lon="1.5647502802312374114990234375">
        <ele>162</ele>
        <time>2026-08-13T06:33:14.000Z</time>
        <extensions>
          <ns3:TrackPointExtension>
            <ns3:hr>88</ns3:hr>
            <ns3:cad>46</ns3:cad>
          </ns3:TrackPointExtension>
        </extensions>
      </trkpt>
      <trkpt lat="43.76518028788268566131591796875" lon="1.564744748175144195556640625">
        <ele>161.8000030517578125</ele>
        <time>2026-08-13T06:33:15.000Z</time>
        <extensions>
          <ns3:TrackPointExtension>
            <ns3:hr>88</ns3:hr>
            <ns3:cad>45</ns3:cad>
          </ns3:TrackPointExtension>
        </extensions>
      </trkpt>
      <trkpt lat="43.76519252546131610870361328125" lon="1.564739383757114410400390625">
        <ele>161.8000030517578125</ele>
        <time>2026-08-13T06:33:16.000Z</time>
        <extensions>
          <ns3:TrackPointExtension>
            <ns3:hr>88</ns3:hr>
            <ns3:cad>45</ns3:cad>
          </ns3:TrackPointExtension>
        </extensions>
      </trkpt>
      <trkpt lat="43.76520023681223392486572265625" lon="1.5647375397384166717529296875">
        <ele>161.8000030517578125</ele>
        <time>2026-08-13T06:33:17.000Z</time>
        <extensions>
          <ns3:TrackPointExtension>
            <ns3:hr>88</ns3:hr>
            <ns3:cad>45</ns3:cad>
          </ns3:TrackPointExtension>
        </extensions>
      </trkpt>
      <trkpt lat="43.76520912162959575653076171875" lon="1.56473158858716487884521484375">
        <ele>161.8000030517578125</ele>
        <time>2026-08-13T06:33:18.000Z</time>
        <extensions>
          <ns3:TrackPointExtension>
            <ns3:hr>89</ns3:hr>
            <ns3:cad>45</ns3:cad>
          </ns3:TrackPointExtension>
        </extensions>
      </trkpt>
      <trkpt lat="43.76522119157016277313232421875" lon="1.5647278167307376861572265625">
        <ele>161.8000030517578125</ele>
        <time>2026-08-13T06:33:19.000Z</time>
        <extensions>
          <ns3:TrackPointExtension>
            <ns3:hr>88</ns3:hr>
            <ns3:cad>45</ns3:cad>
          </ns3:TrackPointExtension>
        </extensions>
      </trkpt>
      <trkpt lat="43.76523141749203205108642578125" lon="1.56472236849367618560791015625">
        <ele>161.8000030517578125</ele>
        <time>2026-08-13T06:33:20.000Z</time>
        <extensions>
          <ns3:TrackPointExtension>
            <ns3:hr>88</ns3:hr>
            <ns3:cad>45</ns3:cad>
          </ns3:TrackPointExtension>
        </extensions>
      </trkpt>
      <trkpt lat="43.7652395479381084442138671875" lon="1.56471557915210723876953125">
        <ele>161.8000030517578125</ele>
        <time>2026-08-13T06:33:21.000Z</time>
        <extensions>
          <ns3:TrackPointExtension>
            <ns3:hr>88</ns3:hr>
            <ns3:cad>45</ns3:cad>
          </ns3:TrackPointExtension>
        </extensions>
      </trkpt>
      <trkpt lat="43.76524331979453563690185546875" lon="1.56470862217247486114501953125">
        <ele>161.600006103515625</ele>
        <time>2026-08-13T06:33:22.000Z</time>
        <extensions>
          <ns3:TrackPointExtension>
            <ns3:hr>88</ns3:hr>
            <ns3:cad>46</ns3:cad>
          </ns3:TrackPointExtension>
        </extensions>
      </trkpt>
      <trkpt lat="43.7652532942593097686767578125" lon="1.56470359303057193756103515625">
        <ele>161.600006103515625</ele>
        <time>2026-08-13T06:33:23.000Z</time>
        <extensions>
          <ns3:TrackPointExtension>
            <ns3:hr>87</ns3:hr>
            <ns3:cad>46</ns3:cad>
          </ns3:TrackPointExtension>
        </extensions>
      </trkpt>
      <trkpt lat="43.7652646936476230621337890625" lon="1.56469739042222499847412109375">
        <ele>161.600006103515625</ele>
        <time>2026-08-13T06:33:24.000Z</time>
        <extensions>
          <ns3:TrackPointExtension>
            <ns3:hr>87</ns3:hr>
            <ns3:cad>47</ns3:cad>
          </ns3:TrackPointExtension>
        </extensions>
      </trkpt>
      <trkpt lat="43.7652760930359363555908203125" lon="1.564689762890338897705078125">
        <ele>161.600006103515625</ele>
        <time>2026-08-13T06:33:25.000Z</time>
        <extensions>
          <ns3:TrackPointExtension>
            <ns3:hr>87</ns3:hr>
            <ns3:cad>47</ns3:cad>
          </ns3:TrackPointExtension>
        </extensions>
      </trkpt>
      <trkpt lat="43.76528422348201274871826171875" lon="1.56468565575778484344482421875">
        <ele>161.600006103515625</ele>
        <time>2026-08-13T06:33:26.000Z</time>
        <extensions>
          <ns3:TrackPointExtension>
            <ns3:hr>86</ns3:hr>
            <ns3:cad>47</ns3:cad>
          </ns3:TrackPointExtension>
        </extensions>
      </trkpt>
      <trkpt lat="43.765288330614566802978515625" lon="1.56468012370169162750244140625">
        <ele>161.600006103515625</ele>
        <time>2026-08-13T06:33:27.000Z</time>
        <extensions>
          <ns3:TrackPointExtension>
            <ns3:hr>85</ns3:hr>
            <ns3:cad>47</ns3:cad>
          </ns3:TrackPointExtension>
        </extensions>
      </trkpt>
      <trkpt lat="43.76529964618384838104248046875" lon="1.5646761842072010040283203125">
        <ele>161.399993896484375</ele>
        <time>2026-08-13T06:33:28.000Z</time>
        <extensions>
          <ns3:TrackPointExtension>
            <ns3:hr>79</ns3:hr>
            <ns3:cad>47</ns3:cad>
          </ns3:TrackPointExtension>
        </extensions>
      </trkpt>
      <trkpt lat="43.76531154848635196685791015625" lon="1.56467157416045665740966796875">
        <ele>161.399993896484375</ele>
        <time>2026-08-13T06:33:29.000Z</time>
        <extensions>
          <ns3:TrackPointExtension>
            <ns3:hr>77</ns3:hr>
            <ns3:cad>0</ns3:cad>
          </ns3:TrackPointExtension>
        </extensions>
      </trkpt>
      <trkpt lat="43.76532613299787044525146484375" lon="1.56466704793274402618408203125">
        <ele>161.399993896484375</ele>
        <time>2026-08-13T06:33:30.000Z</time>
        <extensions>
          <ns3:TrackPointExtension>
            <ns3:hr>77</ns3:hr>
            <ns3:cad>0</ns3:cad>
          </ns3:TrackPointExtension>
        </extensions>
      </trkpt>
      <trkpt lat="43.76533116213977336883544921875" lon="1.5646574087440967559814453125">
        <ele>161.399993896484375</ele>
        <time>2026-08-13T06:33:31.000Z</time>
        <extensions>
          <ns3:TrackPointExtension>
            <ns3:hr>77</ns3:hr>
            <ns3:cad>0</ns3:cad>
          </ns3:TrackPointExtension>
        </extensions>
      </trkpt>
      <trkpt lat="43.765335939824581146240234375" lon="1.5646507032215595245361328125">
        <ele>161.600006103515625</ele>
        <time>2026-08-13T06:33:32.000Z</time>
        <extensions>
          <ns3:TrackPointExtension>
            <ns3:hr>76</ns3:hr>
            <ns3:cad>0</ns3:cad>
          </ns3:TrackPointExtension>
        </extensions>
      </trkpt>
      <trkpt lat="43.76534289680421352386474609375" lon="1.56464357860386371612548828125">
        <ele>161.399993896484375</ele>
        <time>2026-08-13T06:33:33.000Z</time>
        <extensions>
          <ns3:TrackPointExtension>
            <ns3:hr>76</ns3:hr>
            <ns3:cad>0</ns3:cad>
          </ns3:TrackPointExtension>
        </extensions>
      </trkpt>
      <trkpt lat="43.76535379327833652496337890625" lon="1.56463318504393100738525390625">
        <ele>161.399993896484375</ele>
        <time>2026-08-13T06:33:34.000Z</time>
        <extensions>
          <ns3:TrackPointExtension>
            <ns3:hr>76</ns3:hr>
            <ns3:cad>0</ns3:cad>
          </ns3:TrackPointExtension>
        </extensions>
      </trkpt>
      <trkpt lat="43.76536334864795207977294921875" lon="1.5646242164075374603271484375">
        <ele>161.399993896484375</ele>
        <time>2026-08-13T06:33:35.000Z</time>
        <extensions>
          <ns3:TrackPointExtension>
            <ns3:hr>76</ns3:hr>
            <ns3:cad>47</ns3:cad>
          </ns3:TrackPointExtension>
        </extensions>
      </trkpt>
      <trkpt lat="43.76537583768367767333984375" lon="1.56461658887565135955810546875">
        <ele>161.1999969482421875</ele>
        <time>2026-08-13T06:33:36.000Z</time>
        <extensions>
          <ns3:TrackPointExtension>
            <ns3:hr>76</ns3:hr>
            <ns3:cad>47</ns3:cad>
          </ns3:TrackPointExtension>
        </extensions>
      </trkpt>
      <trkpt lat="43.7653832137584686279296875" lon="1.56461038626730442047119140625">
        <ele>161.1999969482421875</ele>
        <time>2026-08-13T06:33:37.000Z</time>
        <extensions>
          <ns3:TrackPointExtension>
            <ns3:hr>76</ns3:hr>
            <ns3:cad>47</ns3:cad>
          </ns3:TrackPointExtension>
        </extensions>
      </trkpt>
      <trkpt lat="43.76539519988000392913818359375" lon="1.5645982325077056884765625">
        <ele>161</ele>
        <time>2026-08-13T06:33:38.000Z</time>
        <extensions>
          <ns3:TrackPointExtension>
            <ns3:hr>76</ns3:hr>
            <ns3:cad>50</ns3:cad>
          </ns3:TrackPointExtension>
        </extensions>
      </trkpt>
      <trkpt lat="43.76540794037282466888427734375" lon="1.56458658166229724884033203125">
        <ele>161</ele>
        <time>2026-08-13T06:33:39.000Z</time>
        <extensions>
          <ns3:TrackPointExtension>
            <ns3:hr>75</ns3:hr>
            <ns3:cad>50</ns3:cad>
          </ns3:TrackPointExtension>
        </extensions>
      </trkpt>
      <trkpt lat="43.76541950739920139312744140625" lon="1.56457769684493541717529296875">
        <ele>161</ele>
        <time>2026-08-13T06:33:40.000Z</time>
        <extensions>
          <ns3:TrackPointExtension>
            <ns3:hr>77</ns3:hr>
            <ns3:cad>49</ns3:cad>
          </ns3:TrackPointExtension>
        </extensions>
      </trkpt>
      <trkpt lat="43.76542923040688037872314453125" lon="1.56457065604627132415771484375">
        <ele>161</ele>
        <time>2026-08-13T06:33:41.000Z</time>
        <extensions>
          <ns3:TrackPointExtension>
            <ns3:hr>77</ns3:hr>
            <ns3:cad>48</ns3:cad>
          </ns3:TrackPointExtension>
        </extensions>
      </trkpt>
      <trkpt lat="43.76543057151138782501220703125" lon="1.56457015313208103179931640625">
        <ele>161</ele>
        <time>2026-08-13T06:33:42.000Z</time>
        <extensions>
          <ns3:TrackPointExtension>
            <ns3:hr>79</ns3:hr>
            <ns3:cad>46</ns3:cad>
          </ns3:TrackPointExtension>
        </extensions>
      </trkpt>
      <trkpt lat="43.7654387019574642181396484375" lon="1.5645615197718143463134765625">
        <ele>161</ele>
        <time>2026-08-13T06:33:43.000Z</time>
        <extensions>
          <ns3:TrackPointExtension>
            <ns3:hr>80</ns3:hr>
            <ns3:cad>46</ns3:cad>
          </ns3:TrackPointExtension>
        </extensions>
      </trkpt>
      <trkpt lat="43.76545052044093608856201171875" lon="1.564554311335086822509765625">
        <ele>160.8000030517578125</ele>
        <time>2026-08-13T06:33:44.000Z</time>
        <extensions>
          <ns3:TrackPointExtension>
            <ns3:hr>81</ns3:hr>
            <ns3:cad>47</ns3:cad>
          </ns3:TrackPointExtension>
        </extensions>
      </trkpt>
      <trkpt lat="43.76546057872474193572998046875" lon="1.56454601325094699859619140625">
        <ele>160.8000030517578125</ele>
        <time>2026-08-13T06:33:45.000Z</time>
        <extensions>
          <ns3:TrackPointExtension>
            <ns3:hr>81</ns3:hr>
            <ns3:cad>49</ns3:cad>
          </ns3:TrackPointExtension>
        </extensions>
      </trkpt>
      <trkpt lat="43.76546979881823062896728515625" lon="1.56453981064260005950927734375">
        <ele>160.600006103515625</ele>
        <time>2026-08-13T06:33:46.000Z</time>
        <extensions>
          <ns3:TrackPointExtension>
            <ns3:hr>81</ns3:hr>
            <ns3:cad>49</ns3:cad>
          </ns3:TrackPointExtension>
        </extensions>
      </trkpt>
      <trkpt lat="43.76547901891171932220458984375" lon="1.5645360387861728668212890625">
        <ele>160.600006103515625</ele>
        <time>2026-08-13T06:33:47.000Z</time>
        <extensions>
          <ns3:TrackPointExtension>
            <ns3:hr>81</ns3:hr>
            <ns3:cad>49</ns3:cad>
          </ns3:TrackPointExtension>
        </extensions>
      </trkpt>
      <trkpt lat="43.76548823900520801544189453125" lon="1.56453293748199939727783203125">
        <ele>160.600006103515625</ele>
        <time>2026-08-13T06:33:48.000Z</time>
        <extensions>
          <ns3:TrackPointExtension>
            <ns3:hr>80</ns3:hr>
            <ns3:cad>49</ns3:cad>
          </ns3:TrackPointExtension>
        </extensions>
      </trkpt>
      <trkpt lat="43.7654990516602993011474609375" lon="1.56452648341655731201171875">
        <ele>160.399993896484375</ele>
        <time>2026-08-13T06:33:49.000Z</time>
        <extensions>
          <ns3:TrackPointExtension>
            <ns3:hr>81</ns3:hr>
            <ns3:cad>48</ns3:cad>
          </ns3:TrackPointExtension>
        </extensions>
      </trkpt>
      <trkpt lat="43.7655074335634708404541015625" lon="1.56451550312340259552001953125">
        <ele>160.399993896484375</ele>
        <time>2026-08-13T06:33:50.000Z</time>
        <extensions>
          <ns3:TrackPointExtension>
            <ns3:hr>81</ns3:hr>
            <ns3:cad>48</ns3:cad>
          </ns3:TrackPointExtension>
        </extensions>
      </trkpt>
      <trkpt lat="43.76551539637148380279541015625" lon="1.56450636684894561767578125">
        <ele>160.399993896484375</ele>
        <time>2026-08-13T06:33:51.000Z</time>
        <extensions>
          <ns3:TrackPointExtension>
            <ns3:hr>81</ns3:hr>
            <ns3:cad>48</ns3:cad>
          </ns3:TrackPointExtension>
        </extensions>
      </trkpt>
      <trkpt lat="43.7655226886272430419921875" lon="1.56450225971639156341552734375">
        <ele>160.399993896484375</ele>
        <time>2026-08-13T06:33:52.000Z</time>
        <extensions>
          <ns3:TrackPointExtension>
            <ns3:hr>82</ns3:hr>
            <ns3:cad>49</ns3:cad>
          </ns3:TrackPointExtension>
        </extensions>
      </trkpt>
      <trkpt lat="43.76552604138851165771484375" lon="1.56449957750737667083740234375">
        <ele>160.399993896484375</ele>
        <time>2026-08-13T06:33:53.000Z</time>
        <extensions>
          <ns3:TrackPointExtension>
            <ns3:hr>82</ns3:hr>
            <ns3:cad>49</ns3:cad>
          </ns3:TrackPointExtension>
        </extensions>
      </trkpt>
      <trkpt lat="43.7655342556536197662353515625" lon="1.56449337489902973175048828125">
        <ele>160.1999969482421875</ele>
        <time>2026-08-13T06:33:54.000Z</time>
        <extensions>
          <ns3:TrackPointExtension>
            <ns3:hr>82</ns3:hr>
            <ns3:cad>0</ns3:cad>
          </ns3:TrackPointExtension>
        </extensions>
      </trkpt>
      <trkpt lat="43.76554490067064762115478515625" lon="1.56448490917682647705078125">
        <ele>160.1999969482421875</ele>
        <time>2026-08-13T06:33:55.000Z</time>
        <extensions>
          <ns3:TrackPointExtension>
            <ns3:hr>82</ns3:hr>
            <ns3:cad>0</ns3:cad>
          </ns3:TrackPointExtension>
        </extensions>
      </trkpt>
      <trkpt lat="43.7655516900122165679931640625" lon="1.56447309069335460662841796875">
        <ele>160.1999969482421875</ele>
        <time>2026-08-13T06:33:56.000Z</time>
        <extensions>
          <ns3:TrackPointExtension>
            <ns3:hr>81</ns3:hr>
            <ns3:cad>49</ns3:cad>
          </ns3:TrackPointExtension>
        </extensions>
      </trkpt>
      <trkpt lat="43.76555998809635639190673828125" lon="1.56447024084627628326416015625">
        <ele>160</ele>
        <time>2026-08-13T06:33:57.000Z</time>
        <extensions>
          <ns3:TrackPointExtension>
            <ns3:hr>81</ns3:hr>
            <ns3:cad>49</ns3:cad>
          </ns3:TrackPointExtension>
        </extensions>
      </trkpt>
      <trkpt lat="43.76556686125695705413818359375" lon="1.5644663013517856597900390625">
        <ele>160</ele>
        <time>2026-08-13T06:33:58.000Z</time>
        <extensions>
          <ns3:TrackPointExtension>
            <ns3:hr>81</ns3:hr>
            <ns3:cad>49</ns3:cad>
          </ns3:TrackPointExtension>
        </extensions>
      </trkpt>
      <trkpt lat="43.7655785121023654937744140625" lon="1.56445615924894809722900390625">
        <ele>160</ele>
        <time>2026-08-13T06:33:59.000Z</time>
        <extensions>
          <ns3:TrackPointExtension>
            <ns3:hr>81</ns3:hr>
            <ns3:cad>49</ns3:cad>
          </ns3:TrackPointExtension>
        </extensions>
      </trkpt>
      <trkpt lat="43.765591084957122802734375" lon="1.56444492749869823455810546875">
        <ele>160</ele>
        <time>2026-08-13T06:34:00.000Z</time>
        <extensions>
          <ns3:TrackPointExtension>
            <ns3:hr>82</ns3:hr>
            <ns3:cad>0</ns3:cad>
          </ns3:TrackPointExtension>
        </extensions>
      </trkpt>
      <trkpt lat="43.765600807964801788330078125" lon="1.5644391439855098724365234375">
        <ele>160</ele>
        <time>2026-08-13T06:34:01.000Z</time>
        <extensions>
          <ns3:TrackPointExtension>
            <ns3:hr>81</ns3:hr>
            <ns3:cad>0</ns3:cad>
          </ns3:TrackPointExtension>
        </extensions>
      </trkpt>
      <trkpt lat="43.76560944132506847381591796875" lon="1.56443386338651180267333984375">
        <ele>160</ele>
        <time>2026-08-13T06:34:02.000Z</time>
        <extensions>
          <ns3:TrackPointExtension>
            <ns3:hr>81</ns3:hr>
            <ns3:cad>0</ns3:cad>
          </ns3:TrackPointExtension>
        </extensions>
      </trkpt>
      <trkpt lat="43.76562067307531833648681640625" lon="1.56442682258784770965576171875">
        <ele>160</ele>
        <time>2026-08-13T06:34:03.000Z</time>
        <extensions>
          <ns3:TrackPointExtension>
            <ns3:hr>81</ns3:hr>
            <ns3:cad>0</ns3:cad>
          </ns3:TrackPointExtension>
        </extensions>
      </trkpt>
      <trkpt lat="43.7656314857304096221923828125" lon="1.56441927887499332427978515625">
        <ele>159.8000030517578125</ele>
        <time>2026-08-13T06:34:04.000Z</time>
        <extensions>
          <ns3:TrackPointExtension>
            <ns3:hr>81</ns3:hr>
            <ns3:cad>0</ns3:cad>
          </ns3:TrackPointExtension>
        </extensions>
      </trkpt>
      <trkpt lat="43.765639699995517730712890625" lon="1.56441383063793182373046875">
        <ele>159.8000030517578125</ele>
        <time>2026-08-13T06:34:05.000Z</time>
        <extensions>
          <ns3:TrackPointExtension>
            <ns3:hr>81</ns3:hr>
            <ns3:cad>0</ns3:cad>
          </ns3:TrackPointExtension>
        </extensions>
      </trkpt>
      <trkpt lat="43.765647076070308685302734375" lon="1.56440821476280689239501953125">
        <ele>159.8000030517578125</ele>
        <time>2026-08-13T06:34:06.000Z</time>
        <extensions>
          <ns3:TrackPointExtension>
            <ns3:hr>81</ns3:hr>
            <ns3:cad>0</ns3:cad>
          </ns3:TrackPointExtension>
        </extensions>
      </trkpt>
      <trkpt lat="43.7656542845070362091064453125" lon="1.56440318562090396881103515625">
        <ele>159.8000030517578125</ele>
        <time>2026-08-13T06:34:07.000Z</time>
        <extensions>
          <ns3:TrackPointExtension>
            <ns3:hr>81</ns3:hr>
            <ns3:cad>45</ns3:cad>
          </ns3:TrackPointExtension>
        </extensions>
      </trkpt>
      <trkpt lat="43.765662498772144317626953125" lon="1.564396061003208160400390625">
        <ele>159.8000030517578125</ele>
        <time>2026-08-13T06:34:08.000Z</time>
        <extensions>
          <ns3:TrackPointExtension>
            <ns3:hr>82</ns3:hr>
            <ns3:cad>45</ns3:cad>
          </ns3:TrackPointExtension>
        </extensions>
      </trkpt>
      <trkpt lat="43.76567364670336246490478515625" lon="1.5643848292529582977294921875">
        <ele>159.8000030517578125</ele>
        <time>2026-08-13T06:34:09.000Z</time>
        <extensions>
          <ns3:TrackPointExtension>
            <ns3:hr>81</ns3:hr>
            <ns3:cad>47</ns3:cad>
          </ns3:TrackPointExtension>
        </extensions>
      </trkpt>
      <trkpt lat="43.76568119041621685028076171875" lon="1.56437871046364307403564453125">
        <ele>159.8000030517578125</ele>
        <time>2026-08-13T06:34:10.000Z</time>
        <extensions>
          <ns3:TrackPointExtension>
            <ns3:hr>81</ns3:hr>
            <ns3:cad>47</ns3:cad>
          </ns3:TrackPointExtension>
        </extensions>
      </trkpt>
      <trkpt lat="43.7656854651868343353271484375" lon="1.564375273883342742919921875">
        <ele>159.8000030517578125</ele>
        <time>2026-08-13T06:34:11.000Z</time>
        <extensions>
          <ns3:TrackPointExtension>
            <ns3:hr>80</ns3:hr>
            <ns3:cad>47</ns3:cad>
          </ns3:TrackPointExtension>
        </extensions>
      </trkpt>
      <trkpt lat="43.76569007523357868194580078125" lon="1.5643724240362644195556640625">
        <ele>159.8000030517578125</ele>
        <time>2026-08-13T06:34:12.000Z</time>
        <extensions>
          <ns3:TrackPointExtension>
            <ns3:hr>78</ns3:hr>
            <ns3:cad>48</ns3:cad>
          </ns3:TrackPointExtension>
        </extensions>
      </trkpt>
      <trkpt lat="43.7657002173364162445068359375" lon="1.56436865217983722686767578125">
        <ele>159.8000030517578125</ele>
        <time>2026-08-13T06:34:13.000Z</time>
        <extensions>
          <ns3:TrackPointExtension>
            <ns3:hr>77</ns3:hr>
            <ns3:cad>48</ns3:cad>
          </ns3:TrackPointExtension>
        </extensions>
      </trkpt>
      <trkpt lat="43.76570667140185832977294921875" lon="1.564365886151790618896484375">
        <ele>159.8000030517578125</ele>
        <time>2026-08-13T06:34:14.000Z</time>
        <extensions>
          <ns3:TrackPointExtension>
            <ns3:hr>76</ns3:hr>
            <ns3:cad>45</ns3:cad>
          </ns3:TrackPointExtension>
        </extensions>
      </trkpt>
      <trkpt lat="43.76570935361087322235107421875" lon="1.56434853561222553253173828125">
        <ele>159.8000030517578125</ele>
        <time>2026-08-13T06:34:15.000Z</time>
        <extensions>
          <ns3:TrackPointExtension>
            <ns3:hr>76</ns3:hr>
            <ns3:cad>45</ns3:cad>
          </ns3:TrackPointExtension>
        </extensions>
      </trkpt>
      <trkpt lat="43.76571991480886936187744140625" lon="1.56433981843292713165283203125">
        <ele>159.8000030517578125</ele>
        <time>2026-08-13T06:34:16.000Z</time>
        <extensions>
          <ns3:TrackPointExtension>
            <ns3:hr>76</ns3:hr>
            <ns3:cad>45</ns3:cad>
          </ns3:TrackPointExtension>
        </extensions>
      </trkpt>
      <trkpt lat="43.765730559825897216796875" lon="1.5643331967294216156005859375">
        <ele>159.8000030517578125</ele>
        <time>2026-08-13T06:34:17.000Z</time>
        <extensions>
          <ns3:TrackPointExtension>
            <ns3:hr>77</ns3:hr>
            <ns3:cad>45</ns3:cad>
          </ns3:TrackPointExtension>
        </extensions>
      </trkpt>
      <trkpt lat="43.76574103720486164093017578125" lon="1.56432439573109149932861328125">
        <ele>159.8000030517578125</ele>
        <time>2026-08-13T06:34:18.000Z</time>
        <extensions>
          <ns3:TrackPointExtension>
            <ns3:hr>77</ns3:hr>
            <ns3:cad>0</ns3:cad>
          </ns3:TrackPointExtension>
        </extensions>
      </trkpt>
      <trkpt lat="43.76575109548866748809814453125" lon="1.5643177740275859832763671875">
        <ele>159.8000030517578125</ele>
        <time>2026-08-13T06:34:19.000Z</time>
        <extensions>
          <ns3:TrackPointExtension>
            <ns3:hr>78</ns3:hr>
            <ns3:cad>0</ns3:cad>
          </ns3:TrackPointExtension>
        </extensions>
      </trkpt>
      <trkpt lat="43.765761740505695343017578125" lon="1.56431215815246105194091796875">
        <ele>159.8000030517578125</ele>
        <time>2026-08-13T06:34:20.000Z</time>
        <extensions>
          <ns3:TrackPointExtension>
            <ns3:hr>78</ns3:hr>
            <ns3:cad>47</ns3:cad>
          </ns3:TrackPointExtension>
        </extensions>
      </trkpt>
      <trkpt lat="43.7657729722559452056884765625" lon="1.56430427916347980499267578125">
        <ele>159.8000030517578125</ele>
        <time>2026-08-13T06:34:21.000Z</time>
        <extensions>
          <ns3:TrackPointExtension>
            <ns3:hr>78</ns3:hr>
            <ns3:cad>47</ns3:cad>
          </ns3:TrackPointExtension>
        </extensions>
      </trkpt>
      <trkpt lat="43.765783868730068206787109375" lon="1.5642989985644817352294921875">
        <ele>159.600006103515625</ele>
        <time>2026-08-13T06:34:22.000Z</time>
        <extensions>
          <ns3:TrackPointExtension>
            <ns3:hr>79</ns3:hr>
            <ns3:cad>47</ns3:cad>
          </ns3:TrackPointExtension>
        </extensions>
      </trkpt>
      <trkpt lat="43.76578998751938343048095703125" lon="1.56429179012775421142578125">
        <ele>159.8000030517578125</ele>
        <time>2026-08-13T06:34:23.000Z</time>
        <extensions>
          <ns3:TrackPointExtension>
            <ns3:hr>79</ns3:hr>
            <ns3:cad>47</ns3:cad>
          </ns3:TrackPointExtension>
        </extensions>
      </trkpt>
      <trkpt lat="43.76579753123223781585693359375" lon="1.56428416259586811065673828125">
        <ele>159.8000030517578125</ele>
        <time>2026-08-13T06:34:24.000Z</time>
        <extensions>
          <ns3:TrackPointExtension>
            <ns3:hr>79</ns3:hr>
            <ns3:cad>43</ns3:cad>
          </ns3:TrackPointExtension>
        </extensions>
      </trkpt>
      <trkpt lat="43.76581194810569286346435546875" lon="1.5642728470265865325927734375">
        <ele>159.8000030517578125</ele>
        <time>2026-08-13T06:34:25.000Z</time>
        <extensions>
          <ns3:TrackPointExtension>
            <ns3:hr>79</ns3:hr>
            <ns3:cad>43</ns3:cad>
          </ns3:TrackPointExtension>
        </extensions>
      </trkpt>
      <trkpt lat="43.76582234166562557220458984375" lon="1.5642654709517955780029296875">
        <ele>159.8000030517578125</ele>
        <time>2026-08-13T06:34:26.000Z</time>
        <extensions>
          <ns3:TrackPointExtension>
            <ns3:hr>78</ns3:hr>
            <ns3:cad>43</ns3:cad>
          </ns3:TrackPointExtension>
        </extensions>
      </trkpt>
      <trkpt lat="43.76583055593073368072509765625" lon="1.5642637945711612701416015625">
        <ele>159.8000030517578125</ele>
        <time>2026-08-13T06:34:27.000Z</time>
        <extensions>
          <ns3:TrackPointExtension>
            <ns3:hr>78</ns3:hr>
            <ns3:cad>43</ns3:cad>
          </ns3:TrackPointExtension>
        </extensions>
      </trkpt>
      <trkpt lat="43.7658383511006832122802734375" lon="1.56425817869603633880615234375">
        <ele>159.8000030517578125</ele>
        <time>2026-08-13T06:34:28.000Z</time>
        <extensions>
          <ns3:TrackPointExtension>
            <ns3:hr>78</ns3:hr>
            <ns3:cad>44</ns3:cad>
          </ns3:TrackPointExtension>
        </extensions>
      </trkpt>
      <trkpt lat="43.76585033722221851348876953125" lon="1.56424476765096187591552734375">
        <ele>159.8000030517578125</ele>
        <time>2026-08-13T06:34:29.000Z</time>
        <extensions>
          <ns3:TrackPointExtension>
            <ns3:hr>78</ns3:hr>
            <ns3:cad>44</ns3:cad>
          </ns3:TrackPointExtension>
        </extensions>
      </trkpt>
      <trkpt lat="43.76585670746862888336181640625" lon="1.56424082815647125244140625">
        <ele>159.8000030517578125</ele>
        <time>2026-08-13T06:34:30.000Z</time>
        <extensions>
          <ns3:TrackPointExtension>
            <ns3:hr>78</ns3:hr>
            <ns3:cad>44</ns3:cad>
          </ns3:TrackPointExtension>
        </extensions>
      </trkpt>
      <trkpt lat="43.76586399972438812255859375" lon="1.564233787357807159423828125">
        <ele>159.8000030517578125</ele>
        <time>2026-08-13T06:34:31.000Z</time>
        <extensions>
          <ns3:TrackPointExtension>
            <ns3:hr>78</ns3:hr>
            <ns3:cad>44</ns3:cad>
          </ns3:TrackPointExtension>
        </extensions>
      </trkpt>
      <trkpt lat="43.7658722139894962310791015625" lon="1.5642302669584751129150390625">
        <ele>159.8000030517578125</ele>
        <time>2026-08-13T06:34:32.000Z</time>
        <extensions>
          <ns3:TrackPointExtension>
            <ns3:hr>78</ns3:hr>
            <ns3:cad>44</ns3:cad>
          </ns3:TrackPointExtension>
        </extensions>
      </trkpt>
      <trkpt lat="43.7658849544823169708251953125" lon="1.56422096304595470428466796875">
        <ele>159.8000030517578125</ele>
        <time>2026-08-13T06:34:33.000Z</time>
        <extensions>
          <ns3:TrackPointExtension>
            <ns3:hr>78</ns3:hr>
            <ns3:cad>45</ns3:cad>
          </ns3:TrackPointExtension>
        </extensions>
      </trkpt>
      <trkpt lat="43.7658928334712982177734375" lon="1.56421224586665630340576171875">
        <ele>159.8000030517578125</ele>
        <time>2026-08-13T06:34:34.000Z</time>
        <extensions>
          <ns3:TrackPointExtension>
            <ns3:hr>78</ns3:hr>
            <ns3:cad>45</ns3:cad>
          </ns3:TrackPointExtension>
        </extensions>
      </trkpt>
      <trkpt lat="43.7658993713557720184326171875" lon="1.56420621089637279510498046875">
        <ele>159.8000030517578125</ele>
        <time>2026-08-13T06:34:35.000Z</time>
        <extensions>
          <ns3:TrackPointExtension>
            <ns3:hr>78</ns3:hr>
            <ns3:cad>46</ns3:cad>
          </ns3:TrackPointExtension>
        </extensions>
      </trkpt>
      <trkpt lat="43.765909932553768157958984375" lon="1.5642039477825164794921875">
        <ele>160</ele>
        <time>2026-08-13T06:34:36.000Z</time>
        <extensions>
          <ns3:TrackPointExtension>
            <ns3:hr>78</ns3:hr>
            <ns3:cad>46</ns3:cad>
          </ns3:TrackPointExtension>
        </extensions>
      </trkpt>
      <trkpt lat="43.76592057757079601287841796875" lon="1.564198918640613555908203125">
        <ele>160</ele>
        <time>2026-08-13T06:34:37.000Z</time>
        <extensions>
          <ns3:TrackPointExtension>
            <ns3:hr>78</ns3:hr>
            <ns3:cad>46</ns3:cad>
          </ns3:TrackPointExtension>
        </extensions>
      </trkpt>
      <trkpt lat="43.76592996530234813690185546875" lon="1.56419263221323490142822265625">
        <ele>159.8000030517578125</ele>
        <time>2026-08-13T06:34:38.000Z</time>
        <extensions>
          <ns3:TrackPointExtension>
            <ns3:hr>78</ns3:hr>
            <ns3:cad>46</ns3:cad>
          </ns3:TrackPointExtension>
        </extensions>
      </trkpt>
      <trkpt lat="43.76593616791069507598876953125" lon="1.56418810598552227020263671875">
        <ele>159.8000030517578125</ele>
        <time>2026-08-13T06:34:39.000Z</time>
        <extensions>
          <ns3:TrackPointExtension>
            <ns3:hr>78</ns3:hr>
            <ns3:cad>46</ns3:cad>
          </ns3:TrackPointExtension>
        </extensions>
      </trkpt>
      <trkpt lat="43.76594522036612033843994140625" lon="1.5641856752336025238037109375">
        <ele>159.8000030517578125</ele>
        <time>2026-08-13T06:34:40.000Z</time>
        <extensions>
          <ns3:TrackPointExtension>
            <ns3:hr>78</ns3:hr>
            <ns3:cad>46</ns3:cad>
          </ns3:TrackPointExtension>
        </extensions>
      </trkpt>
      <trkpt lat="43.76595444045960903167724609375" lon="1.56418005935847759246826171875">
        <ele>159.8000030517578125</ele>
        <time>2026-08-13T06:34:41.000Z</time>
        <extensions>
          <ns3:TrackPointExtension>
            <ns3:hr>79</ns3:hr>
            <ns3:cad>46</ns3:cad>
          </ns3:TrackPointExtension>
        </extensions>
      </trkpt>
      <trkpt lat="43.7659677676856517791748046875" lon="1.56417117454111576080322265625">
        <ele>159.8000030517578125</ele>
        <time>2026-08-13T06:34:42.000Z</time>
        <extensions>
          <ns3:TrackPointExtension>
            <ns3:hr>78</ns3:hr>
            <ns3:cad>46</ns3:cad>
          </ns3:TrackPointExtension>
        </extensions>
      </trkpt>
      <trkpt lat="43.76597757451236248016357421875" lon="1.5641601942479610443115234375">
        <ele>159.8000030517578125</ele>
        <time>2026-08-13T06:34:43.000Z</time>
        <extensions>
          <ns3:TrackPointExtension>
            <ns3:hr>78</ns3:hr>
            <ns3:cad>47</ns3:cad>
          </ns3:TrackPointExtension>
        </extensions>
      </trkpt>
      <trkpt lat="43.76598478294909000396728515625" lon="1.56415591947734355926513671875">
        <ele>159.8000030517578125</ele>
        <time>2026-08-13T06:34:44.000Z</time>
        <extensions>
          <ns3:TrackPointExtension>
            <ns3:hr>79</ns3:hr>
            <ns3:cad>47</ns3:cad>
          </ns3:TrackPointExtension>
        </extensions>
      </trkpt>
      <trkpt lat="43.76599350012838840484619140625" lon="1.56414887867867946624755859375">
        <ele>159.8000030517578125</ele>
        <time>2026-08-13T06:34:45.000Z</time>
        <extensions>
          <ns3:TrackPointExtension>
            <ns3:hr>78</ns3:hr>
            <ns3:cad>47</ns3:cad>
          </ns3:TrackPointExtension>
        </extensions>
      </trkpt>
      <trkpt lat="43.766005821526050567626953125" lon="1.56414116732776165008544921875">
        <ele>159.8000030517578125</ele>
        <time>2026-08-13T06:34:46.000Z</time>
        <extensions>
          <ns3:TrackPointExtension>
            <ns3:hr>78</ns3:hr>
            <ns3:cad>46</ns3:cad>
          </ns3:TrackPointExtension>
        </extensions>
      </trkpt>
      <trkpt lat="43.7660140357911586761474609375" lon="1.56413085758686065673828125">
        <ele>159.8000030517578125</ele>
        <time>2026-08-13T06:34:47.000Z</time>
        <extensions>
          <ns3:TrackPointExtension>
            <ns3:hr>78</ns3:hr>
            <ns3:cad>46</ns3:cad>
          </ns3:TrackPointExtension>
        </extensions>
      </trkpt>
      <trkpt lat="43.7660214118659496307373046875" lon="1.56412188895046710968017578125">
        <ele>160</ele>
        <time>2026-08-13T06:34:48.000Z</time>
        <extensions>
          <ns3:TrackPointExtension>
            <ns3:hr>78</ns3:hr>
            <ns3:cad>46</ns3:cad>
          </ns3:TrackPointExtension>
        </extensions>
      </trkpt>
      <trkpt lat="43.76602836884558200836181640625" lon="1.56411183066666126251220703125">
        <ele>160</ele>
        <time>2026-08-13T06:34:49.000Z</time>
        <extensions>
          <ns3:TrackPointExtension>
            <ns3:hr>78</ns3:hr>
            <ns3:cad>46</ns3:cad>
          </ns3:TrackPointExtension>
        </extensions>
      </trkpt>
      <trkpt lat="43.766040019690990447998046875" lon="1.5641005150973796844482421875">
        <ele>160</ele>
        <time>2026-08-13T06:34:50.000Z</time>
        <extensions>
          <ns3:TrackPointExtension>
            <ns3:hr>78</ns3:hr>
            <ns3:cad>46</ns3:cad>
          </ns3:TrackPointExtension>
        </extensions>
      </trkpt>
      <trkpt lat="43.766051419079303741455078125" lon="1.56408668495714664459228515625">
        <ele>160</ele>
        <time>2026-08-13T06:34:51.000Z</time>
        <extensions>
          <ns3:TrackPointExtension>
            <ns3:hr>78</ns3:hr>
            <ns3:cad>46</ns3:cad>
          </ns3:TrackPointExtension>
        </extensions>
      </trkpt>
      <trkpt lat="43.7660569511353969573974609375" lon="1.5640827454626560211181640625">
        <ele>160</ele>
        <time>2026-08-13T06:34:52.000Z</time>
        <extensions>
          <ns3:TrackPointExtension>
            <ns3:hr>78</ns3:hr>
            <ns3:cad>46</ns3:cad>
          </ns3:TrackPointExtension>
        </extensions>
      </trkpt>
      <trkpt lat="43.76606189645826816558837890625" lon="1.5640800632536411285400390625">
        <ele>160</ele>
        <time>2026-08-13T06:34:53.000Z</time>
        <extensions>
          <ns3:TrackPointExtension>
            <ns3:hr>78</ns3:hr>
            <ns3:cad>46</ns3:cad>
          </ns3:TrackPointExtension>
        </extensions>
      </trkpt>
      <trkpt lat="43.76607161946594715118408203125" lon="1.564072854816913604736328125">
        <ele>160</ele>
        <time>2026-08-13T06:34:54.000Z</time>
        <extensions>
          <ns3:TrackPointExtension>
            <ns3:hr>77</ns3:hr>
            <ns3:cad>46</ns3:cad>
          </ns3:TrackPointExtension>
        </extensions>
      </trkpt>
      <trkpt lat="43.76608151011168956756591796875" lon="1.56406271271407604217529296875">
        <ele>160</ele>
        <time>2026-08-13T06:34:55.000Z</time>
        <extensions>
          <ns3:TrackPointExtension>
            <ns3:hr>78</ns3:hr>
            <ns3:cad>46</ns3:cad>
          </ns3:TrackPointExtension>
        </extensions>
      </trkpt>
      <trkpt lat="43.76608737744390964508056640625" lon="1.56405315734446048736572265625">
        <ele>160</ele>
        <time>2026-08-13T06:34:56.000Z</time>
        <extensions>
          <ns3:TrackPointExtension>
            <ns3:hr>78</ns3:hr>
            <ns3:cad>46</ns3:cad>
          </ns3:TrackPointExtension>
        </extensions>
      </trkpt>
      <trkpt lat="43.76609374769032001495361328125" lon="1.564044021070003509521484375">
        <ele>160</ele>
        <time>2026-08-13T06:34:57.000Z</time>
        <extensions>
          <ns3:TrackPointExtension>
            <ns3:hr>77</ns3:hr>
            <ns3:cad>46</ns3:cad>
          </ns3:TrackPointExtension>
        </extensions>
      </trkpt>
      <trkpt lat="43.766103722155094146728515625" lon="1.56403387896716594696044921875">
        <ele>160</ele>
        <time>2026-08-13T06:34:58.000Z</time>
        <extensions>
          <ns3:TrackPointExtension>
            <ns3:hr>78</ns3:hr>
            <ns3:cad>44</ns3:cad>
          </ns3:TrackPointExtension>
        </extensions>
      </trkpt>
      <trkpt lat="43.76611369661986827850341796875" lon="1.5640247426927089691162109375">
        <ele>160.1999969482421875</ele>
        <time>2026-08-13T06:34:59.000Z</time>
        <extensions>
          <ns3:TrackPointExtension>
            <ns3:hr>78</ns3:hr>
            <ns3:cad>44</ns3:cad>
          </ns3:TrackPointExtension>
        </extensions>
      </trkpt>
      <trkpt lat="43.76612224616110324859619140625" lon="1.5640183724462985992431640625">
        <ele>160.1999969482421875</ele>
        <time>2026-08-13T06:35:00.000Z</time>
        <extensions>
          <ns3:TrackPointExtension>
            <ns3:hr>78</ns3:hr>
            <ns3:cad>44</ns3:cad>
          </ns3:TrackPointExtension>
        </extensions>
      </trkpt>
      <trkpt lat="43.766127526760101318359375" lon="1.564014516770839691162109375">
        <ele>160.1999969482421875</ele>
        <time>2026-08-13T06:35:01.000Z</time>
        <extensions>
          <ns3:TrackPointExtension>
            <ns3:hr>79</ns3:hr>
            <ns3:cad>45</ns3:cad>
          </ns3:TrackPointExtension>
        </extensions>
      </trkpt>
      <trkpt lat="43.766137249767780303955078125" lon="1.5640059672296047210693359375">
        <ele>160.1999969482421875</ele>
        <time>2026-08-13T06:35:02.000Z</time>
        <extensions>
          <ns3:TrackPointExtension>
            <ns3:hr>79</ns3:hr>
            <ns3:cad>46</ns3:cad>
          </ns3:TrackPointExtension>
        </extensions>
      </trkpt>
      <trkpt lat="43.76614420674741268157958984375" lon="1.563993729650974273681640625">
        <ele>160.1999969482421875</ele>
        <time>2026-08-13T06:35:03.000Z</time>
        <extensions>
          <ns3:TrackPointExtension>
            <ns3:hr>79</ns3:hr>
            <ns3:cad>46</ns3:cad>
          </ns3:TrackPointExtension>
        </extensions>
      </trkpt>
      <trkpt lat="43.766152001917362213134765625" lon="1.56398828141391277313232421875">
        <ele>160.1999969482421875</ele>
        <time>2026-08-13T06:35:04.000Z</time>
        <extensions>
          <ns3:TrackPointExtension>
            <ns3:hr>79</ns3:hr>
            <ns3:cad>46</ns3:cad>
          </ns3:TrackPointExtension>
        </extensions>
      </trkpt>
      <trkpt lat="43.76615745015442371368408203125" lon="1.5639841742813587188720703125">
        <ele>160.1999969482421875</ele>
        <time>2026-08-13T06:35:05.000Z</time>
        <extensions>
          <ns3:TrackPointExtension>
            <ns3:hr>79</ns3:hr>
            <ns3:cad>45</ns3:cad>
          </ns3:TrackPointExtension>
        </extensions>
      </trkpt>
      <trkpt lat="43.766168765723705291748046875" lon="1.5639759600162506103515625">
        <ele>160.1999969482421875</ele>
        <time>2026-08-13T06:35:06.000Z</time>
        <extensions>
          <ns3:TrackPointExtension>
            <ns3:hr>79</ns3:hr>
            <ns3:cad>45</ns3:cad>
          </ns3:TrackPointExtension>
        </extensions>
      </trkpt>
      <trkpt lat="43.7661759741604328155517578125" lon="1.5639680810272693634033203125">
        <ele>160.1999969482421875</ele>
        <time>2026-08-13T06:35:07.000Z</time>
        <extensions>
          <ns3:TrackPointExtension>
            <ns3:hr>79</ns3:hr>
            <ns3:cad>44</ns3:cad>
          </ns3:TrackPointExtension>
        </extensions>
      </trkpt>
      <trkpt lat="43.7661816738545894622802734375" lon="1.5639600344002246856689453125">
        <ele>160.1999969482421875</ele>
        <time>2026-08-13T06:35:08.000Z</time>
        <extensions>
          <ns3:TrackPointExtension>
            <ns3:hr>79</ns3:hr>
            <ns3:cad>44</ns3:cad>
          </ns3:TrackPointExtension>
        </extensions>
      </trkpt>
      <trkpt lat="43.766186870634555816650390625" lon="1.563957519829273223876953125">
        <ele>160.1999969482421875</ele>
        <time>2026-08-13T06:35:09.000Z</time>
        <extensions>
          <ns3:TrackPointExtension>
            <ns3:hr>80</ns3:hr>
            <ns3:cad>44</ns3:cad>
          </ns3:TrackPointExtension>
        </extensions>
      </trkpt>
      <trkpt lat="43.76619751565158367156982421875" lon="1.563954167068004608154296875">
        <ele>160.399993896484375</ele>
        <time>2026-08-13T06:35:10.000Z</time>
        <extensions>
          <ns3:TrackPointExtension>
            <ns3:hr>81</ns3:hr>
            <ns3:cad>44</ns3:cad>
          </ns3:TrackPointExtension>
        </extensions>
      </trkpt>
      <trkpt lat="43.7662118487060070037841796875" lon="1.56394486315548419952392578125">
        <ele>160.399993896484375</ele>
        <time>2026-08-13T06:35:11.000Z</time>
        <extensions>
          <ns3:TrackPointExtension>
            <ns3:hr>81</ns3:hr>
            <ns3:cad>0</ns3:cad>
          </ns3:TrackPointExtension>
        </extensions>
      </trkpt>
      <trkpt lat="43.7662229128181934356689453125" lon="1.56394016928970813751220703125">
        <ele>160.399993896484375</ele>
        <time>2026-08-13T06:35:12.000Z</time>
        <extensions>
          <ns3:TrackPointExtension>
            <ns3:hr>82</ns3:hr>
            <ns3:cad>0</ns3:cad>
          </ns3:TrackPointExtension>
        </extensions>
      </trkpt>
      <trkpt lat="43.76623070798814296722412109375" lon="1.56393648125231266021728515625">
        <ele>160.399993896484375</ele>
        <time>2026-08-13T06:35:13.000Z</time>
        <extensions>
          <ns3:TrackPointExtension>
            <ns3:hr>82</ns3:hr>
            <ns3:cad>0</ns3:cad>
          </ns3:TrackPointExtension>
        </extensions>
      </trkpt>
      <trkpt lat="43.76623724587261676788330078125" lon="1.5639379061758518218994140625">
        <ele>160.399993896484375</ele>
        <time>2026-08-13T06:35:14.000Z</time>
        <extensions>
          <ns3:TrackPointExtension>
            <ns3:hr>83</ns3:hr>
            <ns3:cad>0</ns3:cad>
          </ns3:TrackPointExtension>
        </extensions>
      </trkpt>
      <trkpt lat="43.76624663360416889190673828125" lon="1.56393765471875667572021484375">
        <ele>160.399993896484375</ele>
        <time>2026-08-13T06:35:15.000Z</time>
        <extensions>
          <ns3:TrackPointExtension>
            <ns3:hr>84</ns3:hr>
            <ns3:cad>0</ns3:cad>
          </ns3:TrackPointExtension>
        </extensions>
      </trkpt>
      <trkpt lat="43.76626004464924335479736328125" lon="1.5639342181384563446044921875">
        <ele>160.399993896484375</ele>
        <time>2026-08-13T06:35:16.000Z</time>
        <extensions>
          <ns3:TrackPointExtension>
            <ns3:hr>84</ns3:hr>
            <ns3:cad>0</ns3:cad>
          </ns3:TrackPointExtension>
        </extensions>
      </trkpt>
      <trkpt lat="43.7662708573043346405029296875" lon="1.56393262557685375213623046875">
        <ele>160.399993896484375</ele>
        <time>2026-08-13T06:35:17.000Z</time>
        <extensions>
          <ns3:TrackPointExtension>
            <ns3:hr>84</ns3:hr>
            <ns3:cad>0</ns3:cad>
          </ns3:TrackPointExtension>
        </extensions>
      </trkpt>
      <trkpt lat="43.76627764664590358734130859375" lon="1.56393480487167835235595703125">
        <ele>160.399993896484375</ele>
        <time>2026-08-13T06:35:18.000Z</time>
        <extensions>
          <ns3:TrackPointExtension>
            <ns3:hr>84</ns3:hr>
            <ns3:cad>45</ns3:cad>
          </ns3:TrackPointExtension>
        </extensions>
      </trkpt>
      <trkpt lat="43.766286782920360565185546875" lon="1.56394184567034244537353515625">
        <ele>160.399993896484375</ele>
        <time>2026-08-13T06:35:19.000Z</time>
        <extensions>
          <ns3:TrackPointExtension>
            <ns3:hr>84</ns3:hr>
            <ns3:cad>45</ns3:cad>
          </ns3:TrackPointExtension>
        </extensions>
      </trkpt>
      <trkpt lat="43.76629809848964214324951171875" lon="1.5639513172209262847900390625">
        <ele>160.399993896484375</ele>
        <time>2026-08-13T06:35:20.000Z</time>
        <extensions>
          <ns3:TrackPointExtension>
            <ns3:hr>84</ns3:hr>
            <ns3:cad>45</ns3:cad>
          </ns3:TrackPointExtension>
        </extensions>
      </trkpt>
      <trkpt lat="43.7663053907454013824462890625" lon="1.56396045349538326263427734375">
        <ele>160.399993896484375</ele>
        <time>2026-08-13T06:35:21.000Z</time>
        <extensions>
          <ns3:TrackPointExtension>
            <ns3:hr>84</ns3:hr>
            <ns3:cad>46</ns3:cad>
          </ns3:TrackPointExtension>
        </extensions>
      </trkpt>
      <trkpt lat="43.76631352119147777557373046875" lon="1.563969589769840240478515625">
        <ele>160.1999969482421875</ele>
        <time>2026-08-13T06:35:22.000Z</time>
        <extensions>
          <ns3:TrackPointExtension>
            <ns3:hr>84</ns3:hr>
            <ns3:cad>46</ns3:cad>
          </ns3:TrackPointExtension>
        </extensions>
      </trkpt>
      <trkpt lat="43.766321651637554168701171875" lon="1.56397721730172634124755859375">
        <ele>160.1999969482421875</ele>
        <time>2026-08-13T06:35:23.000Z</time>
        <extensions>
          <ns3:TrackPointExtension>
            <ns3:hr>84</ns3:hr>
            <ns3:cad>47</ns3:cad>
          </ns3:TrackPointExtension>
        </extensions>
      </trkpt>
      <trkpt lat="43.76633397303521633148193359375" lon="1.56398878432810306549072265625">
        <ele>160.1999969482421875</ele>
        <time>2026-08-13T06:35:24.000Z</time>
        <extensions>
          <ns3:TrackPointExtension>
            <ns3:hr>84</ns3:hr>
            <ns3:cad>47</ns3:cad>
          </ns3:TrackPointExtension>
        </extensions>
      </trkpt>
      <trkpt lat="43.766345791518688201904296875" lon="1.5639962442219257354736328125">
        <ele>160.1999969482421875</ele>
        <time>2026-08-13T06:35:25.000Z</time>
        <extensions>
          <ns3:TrackPointExtension>
            <ns3:hr>84</ns3:hr>
            <ns3:cad>49</ns3:cad>
          </ns3:TrackPointExtension>
        </extensions>
      </trkpt>
      <trkpt lat="43.766355179250240325927734375" lon="1.5640036202967166900634765625">
        <ele>160.1999969482421875</ele>
        <time>2026-08-13T06:35:26.000Z</time>
        <extensions>
          <ns3:TrackPointExtension>
            <ns3:hr>83</ns3:hr>
            <ns3:cad>48</ns3:cad>
          </ns3:TrackPointExtension>
        </extensions>
      </trkpt>
      <trkpt lat="43.76636213622987270355224609375" lon="1.5640081465244293212890625">
        <ele>160.1999969482421875</ele>
        <time>2026-08-13T06:35:27.000Z</time>
        <extensions>
          <ns3:TrackPointExtension>
            <ns3:hr>83</ns3:hr>
            <ns3:cad>47</ns3:cad>
          </ns3:TrackPointExtension>
        </extensions>
      </trkpt>
      <trkpt lat="43.7663711048662662506103515625" lon="1.56402264721691608428955078125">
        <ele>160.1999969482421875</ele>
        <time>2026-08-13T06:35:28.000Z</time>
        <extensions>
          <ns3:TrackPointExtension>
            <ns3:hr>83</ns3:hr>
            <ns3:cad>47</ns3:cad>
          </ns3:TrackPointExtension>
        </extensions>
      </trkpt>
      <trkpt lat="43.76637906767427921295166015625" lon="1.56403169967234134674072265625">
        <ele>160.1999969482421875</ele>
        <time>2026-08-13T06:35:29.000Z</time>
        <extensions>
          <ns3:TrackPointExtension>
            <ns3:hr>83</ns3:hr>
            <ns3:cad>47</ns3:cad>
          </ns3:TrackPointExtension>
        </extensions>
      </trkpt>
      <trkpt lat="43.76638610847294330596923828125" lon="1.56403890810906887054443359375">
        <ele>160.1999969482421875</ele>
        <time>2026-08-13T06:35:30.000Z</time>
        <extensions>
          <ns3:TrackPointExtension>
            <ns3:hr>83</ns3:hr>
            <ns3:cad>46</ns3:cad>
          </ns3:TrackPointExtension>
        </extensions>
      </trkpt>
      <trkpt lat="43.7663915567100048065185546875" lon="1.5640483796596527099609375">
        <ele>160.1999969482421875</ele>
        <time>2026-08-13T06:35:31.000Z</time>
        <extensions>
          <ns3:TrackPointExtension>
            <ns3:hr>83</ns3:hr>
            <ns3:cad>46</ns3:cad>
          </ns3:TrackPointExtension>
        </extensions>
      </trkpt>
      <trkpt lat="43.76639583148062229156494140625" lon="1.56405265443027019500732421875">
        <ele>160.1999969482421875</ele>
        <time>2026-08-13T06:35:32.000Z</time>
        <extensions>
          <ns3:TrackPointExtension>
            <ns3:hr>83</ns3:hr>
            <ns3:cad>46</ns3:cad>
          </ns3:TrackPointExtension>
        </extensions>
      </trkpt>
      <trkpt lat="43.7664069794118404388427734375" lon="1.5640653111040592193603515625">
        <ele>160.1999969482421875</ele>
        <time>2026-08-13T06:35:33.000Z</time>
        <extensions>
          <ns3:TrackPointExtension>
            <ns3:hr>83</ns3:hr>
            <ns3:cad>46</ns3:cad>
          </ns3:TrackPointExtension>
        </extensions>
      </trkpt>
      <trkpt lat="43.7664146907627582550048828125" lon="1.56407008878886699676513671875">
        <ele>160</ele>
        <time>2026-08-13T06:35:34.000Z</time>
        <extensions>
          <ns3:TrackPointExtension>
            <ns3:hr>83</ns3:hr>
            <ns3:cad>0</ns3:cad>
          </ns3:TrackPointExtension>
        </extensions>
      </trkpt>
      <trkpt lat="43.7664197199046611785888671875" lon="1.564078219234943389892578125">
        <ele>160</ele>
        <time>2026-08-13T06:35:35.000Z</time>
        <extensions>
          <ns3:TrackPointExtension>
            <ns3:hr>82</ns3:hr>
            <ns3:cad>0</ns3:cad>
          </ns3:TrackPointExtension>
        </extensions>
      </trkpt>
      <trkpt lat="43.766426257789134979248046875" lon="1.56408366747200489044189453125">
        <ele>160</ele>
        <time>2026-08-13T06:35:36.000Z</time>
        <extensions>
          <ns3:TrackPointExtension>
            <ns3:hr>83</ns3:hr>
            <ns3:cad>0</ns3:cad>
          </ns3:TrackPointExtension>
        </extensions>
      </trkpt>
      <trkpt lat="43.76643841154873371124267578125" lon="1.564094983041286468505859375">
        <ele>160</ele>
        <time>2026-08-13T06:35:37.000Z</time>
        <extensions>
          <ns3:TrackPointExtension>
            <ns3:hr>83</ns3:hr>
            <ns3:cad>0</ns3:cad>
          </ns3:TrackPointExtension>
        </extensions>
      </trkpt>
      <trkpt lat="43.76644712872803211212158203125" lon="1.56409925781190395355224609375">
        <ele>160</ele>
        <time>2026-08-13T06:35:38.000Z</time>
        <extensions>
          <ns3:TrackPointExtension>
            <ns3:hr>84</ns3:hr>
            <ns3:cad>45</ns3:cad>
          </ns3:TrackPointExtension>
        </extensions>
      </trkpt>
      <trkpt lat="43.76645534299314022064208984375" lon="1.564105711877346038818359375">
        <ele>160</ele>
        <time>2026-08-13T06:35:39.000Z</time>
        <extensions>
          <ns3:TrackPointExtension>
            <ns3:hr>84</ns3:hr>
            <ns3:cad>45</ns3:cad>
          </ns3:TrackPointExtension>
        </extensions>
      </trkpt>
      <trkpt lat="43.7664626352488994598388671875" lon="1.564112417399883270263671875">
        <ele>160</ele>
        <time>2026-08-13T06:35:40.000Z</time>
        <extensions>
          <ns3:TrackPointExtension>
            <ns3:hr>84</ns3:hr>
            <ns3:cad>45</ns3:cad>
          </ns3:TrackPointExtension>
        </extensions>
      </trkpt>
      <trkpt lat="43.76647545956075191497802734375" lon="1.5641181170940399169921875">
        <ele>160</ele>
        <time>2026-08-13T06:35:41.000Z</time>
        <extensions>
          <ns3:TrackPointExtension>
            <ns3:hr>84</ns3:hr>
            <ns3:cad>44</ns3:cad>
          </ns3:TrackPointExtension>
        </extensions>
      </trkpt>
      <trkpt lat="43.7664856016635894775390625" lon="1.564122475683689117431640625">
        <ele>160</ele>
        <time>2026-08-13T06:35:42.000Z</time>
        <extensions>
          <ns3:TrackPointExtension>
            <ns3:hr>84</ns3:hr>
            <ns3:cad>44</ns3:cad>
          </ns3:TrackPointExtension>
        </extensions>
      </trkpt>
      <trkpt lat="43.7664918042719364166259765625" lon="1.56412549316883087158203125">
        <ele>160</ele>
        <time>2026-08-13T06:35:43.000Z</time>
        <extensions>
          <ns3:TrackPointExtension>
            <ns3:hr>84</ns3:hr>
            <ns3:cad>44</ns3:cad>
          </ns3:TrackPointExtension>
        </extensions>
      </trkpt>
      <trkpt lat="43.76649742014706134796142578125" lon="1.56412960030138492584228515625">
        <ele>160</ele>
        <time>2026-08-13T06:35:44.000Z</time>
        <extensions>
          <ns3:TrackPointExtension>
            <ns3:hr>84</ns3:hr>
            <ns3:cad>44</ns3:cad>
          </ns3:TrackPointExtension>
        </extensions>
      </trkpt>
      <trkpt lat="43.76650898717343807220458984375" lon="1.5641397424042224884033203125">
        <ele>160</ele>
        <time>2026-08-13T06:35:45.000Z</time>
        <extensions>
          <ns3:TrackPointExtension>
            <ns3:hr>84</ns3:hr>
            <ns3:cad>45</ns3:cad>
          </ns3:TrackPointExtension>
        </extensions>
      </trkpt>
      <trkpt lat="43.76651636324822902679443359375" lon="1.56414586119353771209716796875">
        <ele>159.8000030517578125</ele>
        <time>2026-08-13T06:35:46.000Z</time>
        <extensions>
          <ns3:TrackPointExtension>
            <ns3:hr>85</ns3:hr>
            <ns3:cad>45</ns3:cad>
          </ns3:TrackPointExtension>
        </extensions>
      </trkpt>
      <trkpt lat="43.7665236555039882659912109375" lon="1.56415357254445552825927734375">
        <ele>159.8000030517578125</ele>
        <time>2026-08-13T06:35:47.000Z</time>
        <extensions>
          <ns3:TrackPointExtension>
            <ns3:hr>84</ns3:hr>
            <ns3:cad>45</ns3:cad>
          </ns3:TrackPointExtension>
        </extensions>
      </trkpt>
      <trkpt lat="43.7665310315787792205810546875" lon="1.56415843404829502105712890625">
        <ele>159.8000030517578125</ele>
        <time>2026-08-13T06:35:48.000Z</time>
        <extensions>
          <ns3:TrackPointExtension>
            <ns3:hr>84</ns3:hr>
            <ns3:cad>44</ns3:cad>
          </ns3:TrackPointExtension>
        </extensions>
      </trkpt>
      <trkpt lat="43.76654134131968021392822265625" lon="1.5641677379608154296875">
        <ele>159.8000030517578125</ele>
        <time>2026-08-13T06:35:49.000Z</time>
        <extensions>
          <ns3:TrackPointExtension>
            <ns3:hr>84</ns3:hr>
            <ns3:cad>44</ns3:cad>
          </ns3:TrackPointExtension>
        </extensions>
      </trkpt>
      <trkpt lat="43.7665488012135028839111328125" lon="1.5641732700169086456298828125">
        <ele>159.8000030517578125</ele>
        <time>2026-08-13T06:35:50.000Z</time>
        <extensions>
          <ns3:TrackPointExtension>
            <ns3:hr>83</ns3:hr>
            <ns3:cad>44</ns3:cad>
          </ns3:TrackPointExtension>
        </extensions>
      </trkpt>
      <trkpt lat="43.76655492000281810760498046875" lon="1.56417653895914554595947265625">
        <ele>159.8000030517578125</ele>
        <time>2026-08-13T06:35:51.000Z</time>
        <extensions>
          <ns3:TrackPointExtension>
            <ns3:hr>82</ns3:hr>
            <ns3:cad>44</ns3:cad>
          </ns3:TrackPointExtension>
        </extensions>
      </trkpt>
      <trkpt lat="43.7665625475347042083740234375" lon="1.56418140046298503875732421875">
        <ele>159.8000030517578125</ele>
        <time>2026-08-13T06:35:52.000Z</time>
        <extensions>
          <ns3:TrackPointExtension>
            <ns3:hr>82</ns3:hr>
            <ns3:cad>45</ns3:cad>
          </ns3:TrackPointExtension>
        </extensions>
      </trkpt>
      <trkpt lat="43.76657185144722461700439453125" lon="1.56418190337717533111572265625">
        <ele>159.8000030517578125</ele>
        <time>2026-08-13T06:35:53.000Z</time>
        <extensions>
          <ns3:TrackPointExtension>
            <ns3:hr>81</ns3:hr>
            <ns3:cad>45</ns3:cad>
          </ns3:TrackPointExtension>
        </extensions>
      </trkpt>
      <trkpt lat="43.76658274792134761810302734375" lon="1.56418475322425365447998046875">
        <ele>159.8000030517578125</ele>
        <time>2026-08-13T06:35:54.000Z</time>
        <extensions>
          <ns3:TrackPointExtension>
            <ns3:hr>81</ns3:hr>
            <ns3:cad>46</ns3:cad>
          </ns3:TrackPointExtension>
        </extensions>
      </trkpt>
      <trkpt lat="43.7665920518338680267333984375" lon="1.564189530909061431884765625">
        <ele>159.8000030517578125</ele>
        <time>2026-08-13T06:35:55.000Z</time>
        <extensions>
          <ns3:TrackPointExtension>
            <ns3:hr>80</ns3:hr>
            <ns3:cad>46</ns3:cad>
          </ns3:TrackPointExtension>
        </extensions>
      </trkpt>
      <trkpt lat="43.76660303212702274322509765625" lon="1.56419254839420318603515625">
        <ele>159.8000030517578125</ele>
        <time>2026-08-13T06:35:56.000Z</time>
        <extensions>
          <ns3:TrackPointExtension>
            <ns3:hr>80</ns3:hr>
            <ns3:cad>46</ns3:cad>
          </ns3:TrackPointExtension>
        </extensions>
      </trkpt>
      <trkpt lat="43.7666145153343677520751953125" lon="1.5641960687935352325439453125">
        <ele>160</ele>
        <time>2026-08-13T06:35:57.000Z</time>
        <extensions>
          <ns3:TrackPointExtension>
            <ns3:hr>80</ns3:hr>
            <ns3:cad>47</ns3:cad>
          </ns3:TrackPointExtension>
        </extensions>
      </trkpt>
      <trkpt lat="43.76662708818912506103515625" lon="1.56419816426932811737060546875">
        <ele>160</ele>
        <time>2026-08-13T06:35:58.000Z</time>
        <extensions>
          <ns3:TrackPointExtension>
            <ns3:hr>80</ns3:hr>
            <ns3:cad>47</ns3:cad>
          </ns3:TrackPointExtension>
        </extensions>
      </trkpt>
      <trkpt lat="43.7666379846632480621337890625" lon="1.56420000828802585601806640625">
        <ele>160</ele>
        <time>2026-08-13T06:35:59.000Z</time>
        <extensions>
          <ns3:TrackPointExtension>
            <ns3:hr>81</ns3:hr>
            <ns3:cad>47</ns3:cad>
          </ns3:TrackPointExtension>
        </extensions>
      </trkpt>
      <trkpt lat="43.76664846204221248626708984375" lon="1.564202271401882171630859375">
        <ele>160</ele>
        <time>2026-08-13T06:36:00.000Z</time>
        <extensions>
          <ns3:TrackPointExtension>
            <ns3:hr>80</ns3:hr>
            <ns3:cad>47</ns3:cad>
          </ns3:TrackPointExtension>
        </extensions>
      </trkpt>
      <trkpt lat="43.76666237600147724151611328125" lon="1.5642047859728336334228515625">
        <ele>160</ele>
        <time>2026-08-13T06:36:01.000Z</time>
        <extensions>
          <ns3:TrackPointExtension>
            <ns3:hr>80</ns3:hr>
            <ns3:cad>47</ns3:cad>
          </ns3:TrackPointExtension>
        </extensions>
      </trkpt>
      <trkpt lat="43.76667260192334651947021484375" lon="1.5642054565250873565673828125">
        <ele>160</ele>
        <time>2026-08-13T06:36:02.000Z</time>
        <extensions>
          <ns3:TrackPointExtension>
            <ns3:hr>80</ns3:hr>
            <ns3:cad>47</ns3:cad>
          </ns3:TrackPointExtension>
        </extensions>
      </trkpt>
      <trkpt lat="43.76668819226324558258056640625" lon="1.56420998275279998779296875">
        <ele>159.8000030517578125</ele>
        <time>2026-08-13T06:36:03.000Z</time>
        <extensions>
          <ns3:TrackPointExtension>
            <ns3:hr>80</ns3:hr>
            <ns3:cad>48</ns3:cad>
          </ns3:TrackPointExtension>
        </extensions>
      </trkpt>
      <trkpt lat="43.766698502004146575927734375" lon="1.56421375460922718048095703125">
        <ele>159.8000030517578125</ele>
        <time>2026-08-13T06:36:04.000Z</time>
        <extensions>
          <ns3:TrackPointExtension>
            <ns3:hr>80</ns3:hr>
            <ns3:cad>48</ns3:cad>
          </ns3:TrackPointExtension>
        </extensions>
      </trkpt>
      <trkpt lat="43.76670948229730129241943359375" lon="1.5642118267714977264404296875">
        <ele>159.8000030517578125</ele>
        <time>2026-08-13T06:36:05.000Z</time>
        <extensions>
          <ns3:TrackPointExtension>
            <ns3:hr>78</ns3:hr>
            <ns3:cad>48</ns3:cad>
          </ns3:TrackPointExtension>
        </extensions>
      </trkpt>
      <trkpt lat="43.76671719364821910858154296875" lon="1.564208976924419403076171875">
        <ele>159.8000030517578125</ele>
        <time>2026-08-13T06:36:06.000Z</time>
        <extensions>
          <ns3:TrackPointExtension>
            <ns3:hr>77</ns3:hr>
            <ns3:cad>48</ns3:cad>
          </ns3:TrackPointExtension>
        </extensions>
      </trkpt>
      <trkpt lat="43.76672725193202495574951171875" lon="1.5642104856669902801513671875">
        <ele>160</ele>
        <time>2026-08-13T06:36:07.000Z</time>
        <extensions>
          <ns3:TrackPointExtension>
            <ns3:hr>77</ns3:hr>
            <ns3:cad>47</ns3:cad>
          </ns3:TrackPointExtension>
        </extensions>
      </trkpt>
      <trkpt lat="43.7667378969490528106689453125" lon="1.5642108209431171417236328125">
        <ele>160</ele>
        <time>2026-08-13T06:36:08.000Z</time>
        <extensions>
          <ns3:TrackPointExtension>
            <ns3:hr>78</ns3:hr>
            <ns3:cad>47</ns3:cad>
          </ns3:TrackPointExtension>
        </extensions>
      </trkpt>
      <trkpt lat="43.76674887724220752716064453125" lon="1.5642047859728336334228515625">
        <ele>160</ele>
        <time>2026-08-13T06:36:09.000Z</time>
        <extensions>
          <ns3:TrackPointExtension>
            <ns3:hr>78</ns3:hr>
            <ns3:cad>47</ns3:cad>
          </ns3:TrackPointExtension>
        </extensions>
      </trkpt>
      <trkpt lat="43.766757510602474212646484375" lon="1.56419900245964527130126953125">
        <ele>159.8000030517578125</ele>
        <time>2026-08-13T06:36:10.000Z</time>
        <extensions>
          <ns3:TrackPointExtension>
            <ns3:hr>78</ns3:hr>
            <ns3:cad>50</ns3:cad>
          </ns3:TrackPointExtension>
        </extensions>
      </trkpt>
      <trkpt lat="43.7667677365243434906005859375" lon="1.56419497914612293243408203125">
        <ele>159.8000030517578125</ele>
        <time>2026-08-13T06:36:11.000Z</time>
        <extensions>
          <ns3:TrackPointExtension>
            <ns3:hr>79</ns3:hr>
            <ns3:cad>50</ns3:cad>
          </ns3:TrackPointExtension>
        </extensions>
      </trkpt>
      <trkpt lat="43.76677955500781536102294921875" lon="1.5641900338232517242431640625">
        <ele>159.8000030517578125</ele>
        <time>2026-08-13T06:36:12.000Z</time>
        <extensions>
          <ns3:TrackPointExtension>
            <ns3:hr>80</ns3:hr>
            <ns3:cad>50</ns3:cad>
          </ns3:TrackPointExtension>
        </extensions>
      </trkpt>
      <trkpt lat="43.7667932175099849700927734375" lon="1.5641851723194122314453125">
        <ele>159.8000030517578125</ele>
        <time>2026-08-13T06:36:13.000Z</time>
        <extensions>
          <ns3:TrackPointExtension>
            <ns3:hr>81</ns3:hr>
            <ns3:cad>50</ns3:cad>
          </ns3:TrackPointExtension>
        </extensions>
      </trkpt>
      <trkpt lat="43.7668019346892833709716796875" lon="1.56418450176715850830078125">
        <ele>159.8000030517578125</ele>
        <time>2026-08-13T06:36:14.000Z</time>
        <extensions>
          <ns3:TrackPointExtension>
            <ns3:hr>82</ns3:hr>
            <ns3:cad>49</ns3:cad>
          </ns3:TrackPointExtension>
        </extensions>
      </trkpt>
      <trkpt lat="43.7668079696595668792724609375" lon="1.56418743543326854705810546875">
        <ele>159.8000030517578125</ele>
        <time>2026-08-13T06:36:15.000Z</time>
        <extensions>
          <ns3:TrackPointExtension>
            <ns3:hr>82</ns3:hr>
            <ns3:cad>49</ns3:cad>
          </ns3:TrackPointExtension>
        </extensions>
      </trkpt>
      <trkpt lat="43.76681710593402385711669921875" lon="1.5641860105097293853759765625">
        <ele>159.8000030517578125</ele>
        <time>2026-08-13T06:36:16.000Z</time>
        <extensions>
          <ns3:TrackPointExtension>
            <ns3:hr>82</ns3:hr>
            <ns3:cad>48</ns3:cad>
          </ns3:TrackPointExtension>
        </extensions>
      </trkpt>
      <trkpt lat="43.7668277509510517120361328125" lon="1.56417871825397014617919921875">
        <ele>159.8000030517578125</ele>
        <time>2026-08-13T06:36:17.000Z</time>
        <extensions>
          <ns3:TrackPointExtension>
            <ns3:hr>81</ns3:hr>
            <ns3:cad>48</ns3:cad>
          </ns3:TrackPointExtension>
        </extensions>
      </trkpt>
      <trkpt lat="43.76683588139712810516357421875" lon="1.56416849233210086822509765625">
        <ele>159.8000030517578125</ele>
        <time>2026-08-13T06:36:18.000Z</time>
        <extensions>
          <ns3:TrackPointExtension>
            <ns3:hr>81</ns3:hr>
            <ns3:cad>48</ns3:cad>
          </ns3:TrackPointExtension>
        </extensions>
      </trkpt>
      <trkpt lat="43.766846023499965667724609375" lon="1.5641645528376102447509765625">
        <ele>159.8000030517578125</ele>
        <time>2026-08-13T06:36:19.000Z</time>
        <extensions>
          <ns3:TrackPointExtension>
            <ns3:hr>81</ns3:hr>
            <ns3:cad>47</ns3:cad>
          </ns3:TrackPointExtension>
        </extensions>
      </trkpt>
      <trkpt lat="43.766854740679264068603515625" lon="1.5641583502292633056640625">
        <ele>159.8000030517578125</ele>
        <time>2026-08-13T06:36:20.000Z</time>
        <extensions>
          <ns3:TrackPointExtension>
            <ns3:hr>81</ns3:hr>
            <ns3:cad>47</ns3:cad>
          </ns3:TrackPointExtension>
        </extensions>
      </trkpt>
      <trkpt lat="43.76686722971498966217041015625" lon="1.5641481243073940277099609375">
        <ele>159.8000030517578125</ele>
        <time>2026-08-13T06:36:21.000Z</time>
        <extensions>
          <ns3:TrackPointExtension>
            <ns3:hr>80</ns3:hr>
            <ns3:cad>46</ns3:cad>
          </ns3:TrackPointExtension>
        </extensions>
      </trkpt>
      <trkpt lat="43.76687779091298580169677734375" lon="1.56413932330906391143798828125">
        <ele>159.8000030517578125</ele>
        <time>2026-08-13T06:36:22.000Z</time>
        <extensions>
          <ns3:TrackPointExtension>
            <ns3:hr>80</ns3:hr>
            <ns3:cad>45</ns3:cad>
          </ns3:TrackPointExtension>
        </extensions>
      </trkpt>
      <trkpt lat="43.766881562769412994384765625" lon="1.5641350485384464263916015625">
        <ele>159.8000030517578125</ele>
        <time>2026-08-13T06:36:23.000Z</time>
        <extensions>
          <ns3:TrackPointExtension>
            <ns3:hr>80</ns3:hr>
            <ns3:cad>44</ns3:cad>
          </ns3:TrackPointExtension>
        </extensions>
      </trkpt>
      <trkpt lat="43.7668867595493793487548828125" lon="1.564132869243621826171875">
        <ele>159.8000030517578125</ele>
        <time>2026-08-13T06:36:24.000Z</time>
        <extensions>
          <ns3:TrackPointExtension>
            <ns3:hr>80</ns3:hr>
            <ns3:cad>44</ns3:cad>
          </ns3:TrackPointExtension>
        </extensions>
      </trkpt>
      <trkpt lat="43.766901008784770965576171875" lon="1.5641286782920360565185546875">
        <ele>159.8000030517578125</ele>
        <time>2026-08-13T06:36:25.000Z</time>
        <extensions>
          <ns3:TrackPointExtension>
            <ns3:hr>80</ns3:hr>
            <ns3:cad>44</ns3:cad>
          </ns3:TrackPointExtension>
        </extensions>
      </trkpt>
      <trkpt lat="43.76691031269729137420654296875" lon="1.564124487340450286865234375">
        <ele>159.8000030517578125</ele>
        <time>2026-08-13T06:36:26.000Z</time>
        <extensions>
          <ns3:TrackPointExtension>
            <ns3:hr>80</ns3:hr>
            <ns3:cad>44</ns3:cad>
          </ns3:TrackPointExtension>
        </extensions>
      </trkpt>
      <trkpt lat="43.7669179402291774749755859375" lon="1.56412507407367229461669921875">
        <ele>159.8000030517578125</ele>
        <time>2026-08-13T06:36:27.000Z</time>
        <extensions>
          <ns3:TrackPointExtension>
            <ns3:hr>79</ns3:hr>
            <ns3:cad>45</ns3:cad>
          </ns3:TrackPointExtension>
        </extensions>
      </trkpt>
      <trkpt lat="43.76692338846623897552490234375" lon="1.5641246549785137176513671875">
        <ele>159.8000030517578125</ele>
        <time>2026-08-13T06:36:28.000Z</time>
        <extensions>
          <ns3:TrackPointExtension>
            <ns3:hr>78</ns3:hr>
            <ns3:cad>46</ns3:cad>
          </ns3:TrackPointExtension>
        </extensions>
      </trkpt>
      <trkpt lat="43.7669316865503787994384765625" lon="1.5641253255307674407958984375">
        <ele>159.8000030517578125</ele>
        <time>2026-08-13T06:36:29.000Z</time>
        <extensions>
          <ns3:TrackPointExtension>
            <ns3:hr>78</ns3:hr>
            <ns3:cad>46</ns3:cad>
          </ns3:TrackPointExtension>
        </extensions>
      </trkpt>
      <trkpt lat="43.7669415771961212158203125" lon="1.564118452370166778564453125">
        <ele>159.8000030517578125</ele>
        <time>2026-08-13T06:36:30.000Z</time>
        <extensions>
          <ns3:TrackPointExtension>
            <ns3:hr>78</ns3:hr>
            <ns3:cad>46</ns3:cad>
          </ns3:TrackPointExtension>
        </extensions>
      </trkpt>
      <trkpt lat="43.76694954000413417816162109375" lon="1.56411618925631046295166015625">
        <ele>159.8000030517578125</ele>
        <time>2026-08-13T06:36:31.000Z</time>
        <extensions>
          <ns3:TrackPointExtension>
            <ns3:hr>78</ns3:hr>
            <ns3:cad>46</ns3:cad>
          </ns3:TrackPointExtension>
        </extensions>
      </trkpt>
      <trkpt lat="43.7669549882411956787109375" lon="1.56411618925631046295166015625">
        <ele>159.600006103515625</ele>
        <time>2026-08-13T06:36:32.000Z</time>
        <extensions>
          <ns3:TrackPointExtension>
            <ns3:hr>79</ns3:hr>
            <ns3:cad>46</ns3:cad>
          </ns3:TrackPointExtension>
        </extensions>
      </trkpt>
      <trkpt lat="43.7669678963720798492431640625" lon="1.56411250121891498565673828125">
        <ele>159.600006103515625</ele>
        <time>2026-08-13T06:36:33.000Z</time>
        <extensions>
          <ns3:TrackPointExtension>
            <ns3:hr>78</ns3:hr>
            <ns3:cad>46</ns3:cad>
          </ns3:TrackPointExtension>
        </extensions>
      </trkpt>
      <trkpt lat="43.76698289997875690460205078125" lon="1.56410646624863147735595703125">
        <ele>159.600006103515625</ele>
        <time>2026-08-13T06:36:34.000Z</time>
        <extensions>
          <ns3:TrackPointExtension>
            <ns3:hr>77</ns3:hr>
            <ns3:cad>45</ns3:cad>
          </ns3:TrackPointExtension>
        </extensions>
      </trkpt>
      <trkpt lat="43.76699279062449932098388671875" lon="1.5641035325825214385986328125">
        <ele>159.600006103515625</ele>
        <time>2026-08-13T06:36:35.000Z</time>
        <extensions>
          <ns3:TrackPointExtension>
            <ns3:hr>77</ns3:hr>
            <ns3:cad>45</ns3:cad>
          </ns3:TrackPointExtension>
        </extensions>
      </trkpt>
      <trkpt lat="43.7670067884027957916259765625" lon="1.56410713680088520050048828125">
        <ele>159.600006103515625</ele>
        <time>2026-08-13T06:36:36.000Z</time>
        <extensions>
          <ns3:TrackPointExtension>
            <ns3:hr>77</ns3:hr>
            <ns3:cad>45</ns3:cad>
          </ns3:TrackPointExtension>
        </extensions>
      </trkpt>
      <trkpt lat="43.7670188583433628082275390625" lon="1.56411216594278812408447265625">
        <ele>159.600006103515625</ele>
        <time>2026-08-13T06:36:37.000Z</time>
        <extensions>
          <ns3:TrackPointExtension>
            <ns3:hr>76</ns3:hr>
            <ns3:cad>45</ns3:cad>
          </ns3:TrackPointExtension>
        </extensions>
      </trkpt>
      <trkpt lat="43.767018355429172515869140625" lon="1.5641045384109020233154296875">
        <ele>159.600006103515625</ele>
        <time>2026-08-13T06:36:38.000Z</time>
        <extensions>
          <ns3:TrackPointExtension>
            <ns3:hr>77</ns3:hr>
            <ns3:cad>45</ns3:cad>
          </ns3:TrackPointExtension>
        </extensions>
      </trkpt>
      <trkpt lat="43.7670252285897731781005859375" lon="1.56410135328769683837890625">
        <ele>159.600006103515625</ele>
        <time>2026-08-13T06:36:39.000Z</time>
        <extensions>
          <ns3:TrackPointExtension>
            <ns3:hr>77</ns3:hr>
            <ns3:cad>45</ns3:cad>
          </ns3:TrackPointExtension>
        </extensions>
      </trkpt>
      <trkpt lat="43.767034448683261871337890625" lon="1.56410194002091884613037109375">
        <ele>159.600006103515625</ele>
        <time>2026-08-13T06:36:40.000Z</time>
        <extensions>
          <ns3:TrackPointExtension>
            <ns3:hr>77</ns3:hr>
            <ns3:cad>45</ns3:cad>
          </ns3:TrackPointExtension>
        </extensions>
      </trkpt>
      <trkpt lat="43.7670419923961162567138671875" lon="1.56409707851707935333251953125">
        <ele>159.600006103515625</ele>
        <time>2026-08-13T06:36:41.000Z</time>
        <extensions>
          <ns3:TrackPointExtension>
            <ns3:hr>78</ns3:hr>
            <ns3:cad>45</ns3:cad>
          </ns3:TrackPointExtension>
        </extensions>
      </trkpt>
      <trkpt lat="43.7670528888702392578125" lon="1.56409473158419132232666015625">
        <ele>159.399993896484375</ele>
        <time>2026-08-13T06:36:42.000Z</time>
        <extensions>
          <ns3:TrackPointExtension>
            <ns3:hr>78</ns3:hr>
            <ns3:cad>0</ns3:cad>
          </ns3:TrackPointExtension>
        </extensions>
      </trkpt>
      <trkpt lat="43.7670684792101383209228515625" lon="1.56409154646098613739013671875">
        <ele>159.399993896484375</ele>
        <time>2026-08-13T06:36:43.000Z</time>
        <extensions>
          <ns3:TrackPointExtension>
            <ns3:hr>78</ns3:hr>
            <ns3:cad>0</ns3:cad>
          </ns3:TrackPointExtension>
        </extensions>
      </trkpt>
      <trkpt lat="43.76707862131297588348388671875" lon="1.56408886425197124481201171875">
        <ele>159.1999969482421875</ele>
        <time>2026-08-13T06:36:44.000Z</time>
        <extensions>
          <ns3:TrackPointExtension>
            <ns3:hr>77</ns3:hr>
            <ns3:cad>0</ns3:cad>
          </ns3:TrackPointExtension>
        </extensions>
      </trkpt>
      <trkpt lat="43.76708700321614742279052734375" lon="1.56409238465130329132080078125">
        <ele>159.1999969482421875</ele>
        <time>2026-08-13T06:36:45.000Z</time>
        <extensions>
          <ns3:TrackPointExtension>
            <ns3:hr>78</ns3:hr>
            <ns3:cad>0</ns3:cad>
          </ns3:TrackPointExtension>
        </extensions>
      </trkpt>
      <trkpt lat="43.767096810042858123779296875" lon="1.56409322284162044525146484375">
        <ele>159.1999969482421875</ele>
        <time>2026-08-13T06:36:46.000Z</time>
        <extensions>
          <ns3:TrackPointExtension>
            <ns3:hr>78</ns3:hr>
            <ns3:cad>0</ns3:cad>
          </ns3:TrackPointExtension>
        </extensions>
      </trkpt>
      <trkpt lat="43.76710695214569568634033203125" lon="1.56409255228936672210693359375">
        <ele>159</ele>
        <time>2026-08-13T06:36:47.000Z</time>
        <extensions>
          <ns3:TrackPointExtension>
            <ns3:hr>79</ns3:hr>
            <ns3:cad>0</ns3:cad>
          </ns3:TrackPointExtension>
        </extensions>
      </trkpt>
      <trkpt lat="43.7671172618865966796875" lon="1.56409204937517642974853515625">
        <ele>159</ele>
        <time>2026-08-13T06:36:48.000Z</time>
        <extensions>
          <ns3:TrackPointExtension>
            <ns3:hr>79</ns3:hr>
            <ns3:cad>46</ns3:cad>
          </ns3:TrackPointExtension>
        </extensions>
      </trkpt>
      <trkpt lat="43.76712254248559474945068359375" lon="1.5640877746045589447021484375">
        <ele>159</ele>
        <time>2026-08-13T06:36:49.000Z</time>
        <extensions>
          <ns3:TrackPointExtension>
            <ns3:hr>79</ns3:hr>
            <ns3:cad>46</ns3:cad>
          </ns3:TrackPointExtension>
        </extensions>
      </trkpt>
      <trkpt lat="43.7671315111219882965087890625" lon="1.5640857629477977752685546875">
        <ele>159</ele>
        <time>2026-08-13T06:36:50.000Z</time>
        <extensions>
          <ns3:TrackPointExtension>
            <ns3:hr>80</ns3:hr>
            <ns3:cad>46</ns3:cad>
          </ns3:TrackPointExtension>
        </extensions>
      </trkpt>
      <trkpt lat="43.7671415694057941436767578125" lon="1.56408584676682949066162109375">
        <ele>158.8000030517578125</ele>
        <time>2026-08-13T06:36:51.000Z</time>
        <extensions>
          <ns3:TrackPointExtension>
            <ns3:hr>79</ns3:hr>
            <ns3:cad>46</ns3:cad>
          </ns3:TrackPointExtension>
        </extensions>
      </trkpt>
      <trkpt lat="43.76715355552732944488525390625" lon="1.56408752314746379852294921875">
        <ele>158.8000030517578125</ele>
        <time>2026-08-13T06:36:52.000Z</time>
        <extensions>
          <ns3:TrackPointExtension>
            <ns3:hr>79</ns3:hr>
            <ns3:cad>45</ns3:cad>
          </ns3:TrackPointExtension>
        </extensions>
      </trkpt>
      <trkpt lat="43.7671653740108013153076171875" lon="1.56408794224262237548828125">
        <ele>158.600006103515625</ele>
        <time>2026-08-13T06:36:53.000Z</time>
        <extensions>
          <ns3:TrackPointExtension>
            <ns3:hr>78</ns3:hr>
            <ns3:cad>46</ns3:cad>
          </ns3:TrackPointExtension>
        </extensions>
      </trkpt>
      <trkpt lat="43.7671714089810848236083984375" lon="1.56408903189003467559814453125">
        <ele>158.600006103515625</ele>
        <time>2026-08-13T06:36:54.000Z</time>
        <extensions>
          <ns3:TrackPointExtension>
            <ns3:hr>77</ns3:hr>
            <ns3:cad>46</ns3:cad>
          </ns3:TrackPointExtension>
        </extensions>
      </trkpt>
      <trkpt lat="43.767177276313304901123046875" lon="1.56409171409904956817626953125">
        <ele>158.399993896484375</ele>
        <time>2026-08-13T06:36:55.000Z</time>
        <extensions>
          <ns3:TrackPointExtension>
            <ns3:hr>76</ns3:hr>
            <ns3:cad>47</ns3:cad>
          </ns3:TrackPointExtension>
        </extensions>
      </trkpt>
      <trkpt lat="43.76718741841614246368408203125" lon="1.564093641936779022216796875">
        <ele>158.399993896484375</ele>
        <time>2026-08-13T06:36:56.000Z</time>
        <extensions>
          <ns3:TrackPointExtension>
            <ns3:hr>75</ns3:hr>
            <ns3:cad>48</ns3:cad>
          </ns3:TrackPointExtension>
        </extensions>
      </trkpt>
      <trkpt lat="43.76719839870929718017578125" lon="1.5640958212316036224365234375">
        <ele>158.1999969482421875</ele>
        <time>2026-08-13T06:36:57.000Z</time>
        <extensions>
          <ns3:TrackPointExtension>
            <ns3:hr>75</ns3:hr>
            <ns3:cad>48</ns3:cad>
          </ns3:TrackPointExtension>
        </extensions>
      </trkpt>
      <trkpt lat="43.7672069482505321502685546875" lon="1.5640968270599842071533203125">
        <ele>158.1999969482421875</ele>
        <time>2026-08-13T06:36:58.000Z</time>
        <extensions>
          <ns3:TrackPointExtension>
            <ns3:hr>75</ns3:hr>
            <ns3:cad>48</ns3:cad>
          </ns3:TrackPointExtension>
        </extensions>
      </trkpt>
      <trkpt lat="43.7672170065343379974365234375" lon="1.56409909017384052276611328125">
        <ele>158</ele>
        <time>2026-08-13T06:36:59.000Z</time>
        <extensions>
          <ns3:TrackPointExtension>
            <ns3:hr>74</ns3:hr>
            <ns3:cad>48</ns3:cad>
          </ns3:TrackPointExtension>
        </extensions>
      </trkpt>
      <trkpt lat="43.76722496934235095977783203125" lon="1.56409825198352336883544921875">
        <ele>158</ele>
        <time>2026-08-13T06:37:00.000Z</time>
        <extensions>
          <ns3:TrackPointExtension>
            <ns3:hr>74</ns3:hr>
            <ns3:cad>47</ns3:cad>
          </ns3:TrackPointExtension>
        </extensions>
      </trkpt>
      <trkpt lat="43.76723703928291797637939453125" lon="1.56410059891641139984130859375">
        <ele>158</ele>
        <time>2026-08-13T06:37:01.000Z</time>
        <extensions>
          <ns3:TrackPointExtension>
            <ns3:hr>74</ns3:hr>
            <ns3:cad>47</ns3:cad>
          </ns3:TrackPointExtension>
        </extensions>
      </trkpt>
      <trkpt lat="43.76724936068058013916015625" lon="1.56410378403961658477783203125">
        <ele>157.8000030517578125</ele>
        <time>2026-08-13T06:37:02.000Z</time>
        <extensions>
          <ns3:TrackPointExtension>
            <ns3:hr>74</ns3:hr>
            <ns3:cad>47</ns3:cad>
          </ns3:TrackPointExtension>
        </extensions>
      </trkpt>
      <trkpt lat="43.767256401479244232177734375" lon="1.56410797499120235443115234375">
        <ele>157.8000030517578125</ele>
        <time>2026-08-13T06:37:03.000Z</time>
        <extensions>
          <ns3:TrackPointExtension>
            <ns3:hr>73</ns3:hr>
            <ns3:cad>48</ns3:cad>
          </ns3:TrackPointExtension>
        </extensions>
      </trkpt>
      <trkpt lat="43.76726302318274974822998046875" lon="1.56411199830472469329833984375">
        <ele>157.600006103515625</ele>
        <time>2026-08-13T06:37:04.000Z</time>
        <extensions>
          <ns3:TrackPointExtension>
            <ns3:hr>74</ns3:hr>
            <ns3:cad>48</ns3:cad>
          </ns3:TrackPointExtension>
        </extensions>
      </trkpt>
      <trkpt lat="43.7672713212668895721435546875" lon="1.5641159377992153167724609375">
        <ele>157.600006103515625</ele>
        <time>2026-08-13T06:37:05.000Z</time>
        <extensions>
          <ns3:TrackPointExtension>
            <ns3:hr>74</ns3:hr>
            <ns3:cad>49</ns3:cad>
          </ns3:TrackPointExtension>
        </extensions>
      </trkpt>
      <trkpt lat="43.767279200255870819091796875" lon="1.5641166083514690399169921875">
        <ele>157.399993896484375</ele>
        <time>2026-08-13T06:37:06.000Z</time>
        <extensions>
          <ns3:TrackPointExtension>
            <ns3:hr>74</ns3:hr>
            <ns3:cad>49</ns3:cad>
          </ns3:TrackPointExtension>
        </extensions>
      </trkpt>
      <trkpt lat="43.7672924436628818511962890625" lon="1.5641181170940399169921875">
        <ele>157.399993896484375</ele>
        <time>2026-08-13T06:37:07.000Z</time>
        <extensions>
          <ns3:TrackPointExtension>
            <ns3:hr>74</ns3:hr>
            <ns3:cad>48</ns3:cad>
          </ns3:TrackPointExtension>
        </extensions>
      </trkpt>
      <trkpt lat="43.76730300486087799072265625" lon="1.5641207993030548095703125">
        <ele>157.399993896484375</ele>
        <time>2026-08-13T06:37:08.000Z</time>
        <extensions>
          <ns3:TrackPointExtension>
            <ns3:hr>74</ns3:hr>
            <ns3:cad>48</ns3:cad>
          </ns3:TrackPointExtension>
        </extensions>
      </trkpt>
      <trkpt lat="43.76731214113533496856689453125" lon="1.56412574462592601776123046875">
        <ele>157.1999969482421875</ele>
        <time>2026-08-13T06:37:09.000Z</time>
        <extensions>
          <ns3:TrackPointExtension>
            <ns3:hr>74</ns3:hr>
            <ns3:cad>48</ns3:cad>
          </ns3:TrackPointExtension>
        </extensions>
      </trkpt>
      <trkpt lat="43.7673197686672210693359375" lon="1.5641310252249240875244140625">
        <ele>157.1999969482421875</ele>
        <time>2026-08-13T06:37:10.000Z</time>
        <extensions>
          <ns3:TrackPointExtension>
            <ns3:hr>75</ns3:hr>
            <ns3:cad>48</ns3:cad>
          </ns3:TrackPointExtension>
        </extensions>
      </trkpt>
      <trkpt lat="43.76732890494167804718017578125" lon="1.56413429416716098785400390625">
        <ele>157.1999969482421875</ele>
        <time>2026-08-13T06:37:11.000Z</time>
        <extensions>
          <ns3:TrackPointExtension>
            <ns3:hr>75</ns3:hr>
            <ns3:cad>48</ns3:cad>
          </ns3:TrackPointExtension>
        </extensions>
      </trkpt>
      <trkpt lat="43.76733946613967418670654296875" lon="1.5641357190907001495361328125">
        <ele>157.1999969482421875</ele>
        <time>2026-08-13T06:37:12.000Z</time>
        <extensions>
          <ns3:TrackPointExtension>
            <ns3:hr>75</ns3:hr>
            <ns3:cad>47</ns3:cad>
          </ns3:TrackPointExtension>
        </extensions>
      </trkpt>
      <trkpt lat="43.76735086552798748016357421875" lon="1.5641384012997150421142578125">
        <ele>157.1999969482421875</ele>
        <time>2026-08-13T06:37:13.000Z</time>
        <extensions>
          <ns3:TrackPointExtension>
            <ns3:hr>75</ns3:hr>
            <ns3:cad>47</ns3:cad>
          </ns3:TrackPointExtension>
        </extensions>
      </trkpt>
      <trkpt lat="43.767357654869556427001953125" lon="1.56414250843226909637451171875">
        <ele>157.1999969482421875</ele>
        <time>2026-08-13T06:37:14.000Z</time>
        <extensions>
          <ns3:TrackPointExtension>
            <ns3:hr>75</ns3:hr>
            <ns3:cad>47</ns3:cad>
          </ns3:TrackPointExtension>
        </extensions>
      </trkpt>
      <trkpt lat="43.76736628822982311248779296875" lon="1.5641461126506328582763671875">
        <ele>157</ele>
        <time>2026-08-13T06:37:15.000Z</time>
        <extensions>
          <ns3:TrackPointExtension>
            <ns3:hr>75</ns3:hr>
            <ns3:cad>48</ns3:cad>
          </ns3:TrackPointExtension>
        </extensions>
      </trkpt>
      <trkpt lat="43.7673749215900897979736328125" lon="1.5641487948596477508544921875">
        <ele>157</ele>
        <time>2026-08-13T06:37:16.000Z</time>
        <extensions>
          <ns3:TrackPointExtension>
            <ns3:hr>76</ns3:hr>
            <ns3:cad>48</ns3:cad>
          </ns3:TrackPointExtension>
        </extensions>
      </trkpt>
      <trkpt lat="43.767385147511959075927734375" lon="1.56415231525897979736328125">
        <ele>157</ele>
        <time>2026-08-13T06:37:17.000Z</time>
        <extensions>
          <ns3:TrackPointExtension>
            <ns3:hr>77</ns3:hr>
            <ns3:cad>48</ns3:cad>
          </ns3:TrackPointExtension>
        </extensions>
      </trkpt>
      <trkpt lat="43.76739579252898693084716796875" lon="1.56415005214512348175048828125">
        <ele>156.8000030517578125</ele>
        <time>2026-08-13T06:37:18.000Z</time>
        <extensions>
          <ns3:TrackPointExtension>
            <ns3:hr>77</ns3:hr>
            <ns3:cad>48</ns3:cad>
          </ns3:TrackPointExtension>
        </extensions>
      </trkpt>
      <trkpt lat="43.76740434207022190093994140625" lon="1.56415407545864582061767578125">
        <ele>156.8000030517578125</ele>
        <time>2026-08-13T06:37:19.000Z</time>
        <extensions>
          <ns3:TrackPointExtension>
            <ns3:hr>77</ns3:hr>
            <ns3:cad>47</ns3:cad>
          </ns3:TrackPointExtension>
        </extensions>
      </trkpt>
      <trkpt lat="43.7674163281917572021484375" lon="1.5641591884195804595947265625">
        <ele>156.8000030517578125</ele>
        <time>2026-08-13T06:37:20.000Z</time>
        <extensions>
          <ns3:TrackPointExtension>
            <ns3:hr>78</ns3:hr>
            <ns3:cad>46</ns3:cad>
          </ns3:TrackPointExtension>
        </extensions>
      </trkpt>
      <trkpt lat="43.7674309127032756805419921875" lon="1.56416111625730991363525390625">
        <ele>156.600006103515625</ele>
        <time>2026-08-13T06:37:21.000Z</time>
        <extensions>
          <ns3:TrackPointExtension>
            <ns3:hr>77</ns3:hr>
            <ns3:cad>47</ns3:cad>
          </ns3:TrackPointExtension>
        </extensions>
      </trkpt>
      <trkpt lat="43.76744055189192295074462890625" lon="1.564162708818912506103515625">
        <ele>156.600006103515625</ele>
        <time>2026-08-13T06:37:22.000Z</time>
        <extensions>
          <ns3:TrackPointExtension>
            <ns3:hr>77</ns3:hr>
            <ns3:cad>46</ns3:cad>
          </ns3:TrackPointExtension>
        </extensions>
      </trkpt>
      <trkpt lat="43.7674483470618724822998046875" lon="1.564165055751800537109375">
        <ele>156.399993896484375</ele>
        <time>2026-08-13T06:37:23.000Z</time>
        <extensions>
          <ns3:TrackPointExtension>
            <ns3:hr>77</ns3:hr>
            <ns3:cad>46</ns3:cad>
          </ns3:TrackPointExtension>
        </extensions>
      </trkpt>
      <trkpt lat="43.76745714806020259857177734375" lon="1.56416715122759342193603515625">
        <ele>156.399993896484375</ele>
        <time>2026-08-13T06:37:24.000Z</time>
        <extensions>
          <ns3:TrackPointExtension>
            <ns3:hr>77</ns3:hr>
            <ns3:cad>46</ns3:cad>
          </ns3:TrackPointExtension>
        </extensions>
      </trkpt>
      <trkpt lat="43.76746502704918384552001953125" lon="1.56416731886565685272216796875">
        <ele>156.399993896484375</ele>
        <time>2026-08-13T06:37:25.000Z</time>
        <extensions>
          <ns3:TrackPointExtension>
            <ns3:hr>77</ns3:hr>
            <ns3:cad>47</ns3:cad>
          </ns3:TrackPointExtension>
        </extensions>
      </trkpt>
      <trkpt lat="43.76747944392263889312744140625" lon="1.56416840851306915283203125">
        <ele>156.1999969482421875</ele>
        <time>2026-08-13T06:37:26.000Z</time>
        <extensions>
          <ns3:TrackPointExtension>
            <ns3:hr>76</ns3:hr>
            <ns3:cad>47</ns3:cad>
          </ns3:TrackPointExtension>
        </extensions>
      </trkpt>
      <trkpt lat="43.767487071454524993896484375" lon="1.56417150981724262237548828125">
        <ele>156.1999969482421875</ele>
        <time>2026-08-13T06:37:27.000Z</time>
        <extensions>
          <ns3:TrackPointExtension>
            <ns3:hr>76</ns3:hr>
            <ns3:cad>48</ns3:cad>
          </ns3:TrackPointExtension>
        </extensions>
      </trkpt>
      <trkpt lat="43.76749478280544281005859375" lon="1.56417603604495525360107421875">
        <ele>156</ele>
        <time>2026-08-13T06:37:28.000Z</time>
        <extensions>
          <ns3:TrackPointExtension>
            <ns3:hr>76</ns3:hr>
            <ns3:cad>48</ns3:cad>
          </ns3:TrackPointExtension>
        </extensions>
      </trkpt>
      <trkpt lat="43.76750039868056774139404296875" lon="1.56417913734912872314453125">
        <ele>156</ele>
        <time>2026-08-13T06:37:29.000Z</time>
        <extensions>
          <ns3:TrackPointExtension>
            <ns3:hr>76</ns3:hr>
            <ns3:cad>48</ns3:cad>
          </ns3:TrackPointExtension>
        </extensions>
      </trkpt>
      <trkpt lat="43.76750827766954898834228515625" lon="1.5641836635768413543701171875">
        <ele>156</ele>
        <time>2026-08-13T06:37:30.000Z</time>
        <extensions>
          <ns3:TrackPointExtension>
            <ns3:hr>77</ns3:hr>
            <ns3:cad>48</ns3:cad>
          </ns3:TrackPointExtension>
        </extensions>
      </trkpt>
      <trkpt lat="43.76751950941979885101318359375" lon="1.56418609432876110076904296875">
        <ele>155.8000030517578125</ele>
        <time>2026-08-13T06:37:31.000Z</time>
        <extensions>
          <ns3:TrackPointExtension>
            <ns3:hr>76</ns3:hr>
            <ns3:cad>48</ns3:cad>
          </ns3:TrackPointExtension>
        </extensions>
      </trkpt>
      <trkpt lat="43.76752906478941440582275390625" lon="1.5641883574426174163818359375">
        <ele>155.8000030517578125</ele>
        <time>2026-08-13T06:37:32.000Z</time>
        <extensions>
          <ns3:TrackPointExtension>
            <ns3:hr>76</ns3:hr>
            <ns3:cad>48</ns3:cad>
          </ns3:TrackPointExtension>
        </extensions>
      </trkpt>
      <trkpt lat="43.767535686492919921875" lon="1.5641932189464569091796875">
        <ele>155.8000030517578125</ele>
        <time>2026-08-13T06:37:33.000Z</time>
        <extensions>
          <ns3:TrackPointExtension>
            <ns3:hr>76</ns3:hr>
            <ns3:cad>48</ns3:cad>
          </ns3:TrackPointExtension>
        </extensions>
      </trkpt>
      <trkpt lat="43.767541386187076568603515625" lon="1.564195565879344940185546875">
        <ele>155.600006103515625</ele>
        <time>2026-08-13T06:37:34.000Z</time>
        <extensions>
          <ns3:TrackPointExtension>
            <ns3:hr>76</ns3:hr>
            <ns3:cad>47</ns3:cad>
          </ns3:TrackPointExtension>
        </extensions>
      </trkpt>
      <trkpt lat="43.76754851080477237701416015625" lon="1.564199924468994140625">
        <ele>155.600006103515625</ele>
        <time>2026-08-13T06:37:35.000Z</time>
        <extensions>
          <ns3:TrackPointExtension>
            <ns3:hr>76</ns3:hr>
            <ns3:cad>47</ns3:cad>
          </ns3:TrackPointExtension>
        </extensions>
      </trkpt>
      <trkpt lat="43.7675583176314830780029296875" lon="1.56420168466866016387939453125">
        <ele>155.600006103515625</ele>
        <time>2026-08-13T06:37:36.000Z</time>
        <extensions>
          <ns3:TrackPointExtension>
            <ns3:hr>76</ns3:hr>
            <ns3:cad>48</ns3:cad>
          </ns3:TrackPointExtension>
        </extensions>
      </trkpt>
      <trkpt lat="43.7675663642585277557373046875" lon="1.5642041154205799102783203125">
        <ele>155.399993896484375</ele>
        <time>2026-08-13T06:37:37.000Z</time>
        <extensions>
          <ns3:TrackPointExtension>
            <ns3:hr>75</ns3:hr>
            <ns3:cad>48</ns3:cad>
          </ns3:TrackPointExtension>
        </extensions>
      </trkpt>
      <trkpt lat="43.76757256686687469482421875" lon="1.5642054565250873565673828125">
        <ele>155.399993896484375</ele>
        <time>2026-08-13T06:37:38.000Z</time>
        <extensions>
          <ns3:TrackPointExtension>
            <ns3:hr>75</ns3:hr>
            <ns3:cad>48</ns3:cad>
          </ns3:TrackPointExtension>
        </extensions>
      </trkpt>
      <trkpt lat="43.76757801510393619537353515625" lon="1.56420889310538768768310546875">
        <ele>155.399993896484375</ele>
        <time>2026-08-13T06:37:39.000Z</time>
        <extensions>
          <ns3:TrackPointExtension>
            <ns3:hr>75</ns3:hr>
            <ns3:cad>47</ns3:cad>
          </ns3:TrackPointExtension>
        </extensions>
      </trkpt>
      <trkpt lat="43.76758924685418605804443359375" lon="1.56421408988535404205322265625">
        <ele>155.1999969482421875</ele>
        <time>2026-08-13T06:37:40.000Z</time>
        <extensions>
          <ns3:TrackPointExtension>
            <ns3:hr>75</ns3:hr>
            <ns3:cad>46</ns3:cad>
          </ns3:TrackPointExtension>
        </extensions>
      </trkpt>
      <trkpt lat="43.7676032446324825286865234375" lon="1.564221046864986419677734375">
        <ele>155.1999969482421875</ele>
        <time>2026-08-13T06:37:41.000Z</time>
        <extensions>
          <ns3:TrackPointExtension>
            <ns3:hr>75</ns3:hr>
            <ns3:cad>46</ns3:cad>
          </ns3:TrackPointExtension>
        </extensions>
      </trkpt>
      <trkpt lat="43.76761238090693950653076171875" lon="1.56422247178852558135986328125">
        <ele>155.1999969482421875</ele>
        <time>2026-08-13T06:37:42.000Z</time>
        <extensions>
          <ns3:TrackPointExtension>
            <ns3:hr>75</ns3:hr>
            <ns3:cad>47</ns3:cad>
          </ns3:TrackPointExtension>
        </extensions>
      </trkpt>
      <trkpt lat="43.76761707477271556854248046875" lon="1.564227081835269927978515625">
        <ele>155</ele>
        <time>2026-08-13T06:37:43.000Z</time>
        <extensions>
          <ns3:TrackPointExtension>
            <ns3:hr>75</ns3:hr>
            <ns3:cad>48</ns3:cad>
          </ns3:TrackPointExtension>
        </extensions>
      </trkpt>
      <trkpt lat="43.7676282227039337158203125" lon="1.56423320062458515167236328125">
        <ele>155</ele>
        <time>2026-08-13T06:37:44.000Z</time>
        <extensions>
          <ns3:TrackPointExtension>
            <ns3:hr>75</ns3:hr>
            <ns3:cad>48</ns3:cad>
          </ns3:TrackPointExtension>
        </extensions>
      </trkpt>
      <trkpt lat="43.76763551495969295501708984375" lon="1.56423806212842464447021484375">
        <ele>155</ele>
        <time>2026-08-13T06:37:45.000Z</time>
        <extensions>
          <ns3:TrackPointExtension>
            <ns3:hr>76</ns3:hr>
            <ns3:cad>48</ns3:cad>
          </ns3:TrackPointExtension>
        </extensions>
      </trkpt>
      <trkpt lat="43.76764574088156223297119140625" lon="1.5642416663467884063720703125">
        <ele>155</ele>
        <time>2026-08-13T06:37:46.000Z</time>
        <extensions>
          <ns3:TrackPointExtension>
            <ns3:hr>76</ns3:hr>
            <ns3:cad>48</ns3:cad>
          </ns3:TrackPointExtension>
        </extensions>
      </trkpt>
      <trkpt lat="43.767654709517955780029296875" lon="1.564243845641613006591796875">
        <ele>155</ele>
        <time>2026-08-13T06:37:47.000Z</time>
        <extensions>
          <ns3:TrackPointExtension>
            <ns3:hr>76</ns3:hr>
            <ns3:cad>48</ns3:cad>
          </ns3:TrackPointExtension>
        </extensions>
      </trkpt>
      <trkpt lat="43.76766602508723735809326171875" lon="1.56424795277416706085205078125">
        <ele>154.8000030517578125</ele>
        <time>2026-08-13T06:37:48.000Z</time>
        <extensions>
          <ns3:TrackPointExtension>
            <ns3:hr>76</ns3:hr>
            <ns3:cad>50</ns3:cad>
          </ns3:TrackPointExtension>
        </extensions>
      </trkpt>
      <trkpt lat="43.76767273060977458953857421875" lon="1.56424820423126220703125">
        <ele>154.600006103515625</ele>
        <time>2026-08-13T06:37:49.000Z</time>
        <extensions>
          <ns3:TrackPointExtension>
            <ns3:hr>76</ns3:hr>
            <ns3:cad>50</ns3:cad>
          </ns3:TrackPointExtension>
        </extensions>
      </trkpt>
      <trkpt lat="43.7676820345222949981689453125" lon="1.564252562820911407470703125">
        <ele>154.600006103515625</ele>
        <time>2026-08-13T06:37:50.000Z</time>
        <extensions>
          <ns3:TrackPointExtension>
            <ns3:hr>76</ns3:hr>
            <ns3:cad>0</ns3:cad>
          </ns3:TrackPointExtension>
        </extensions>
      </trkpt>
      <trkpt lat="43.76769653521478176116943359375" lon="1.56426153145730495452880859375">
        <ele>154.399993896484375</ele>
        <time>2026-08-13T06:37:51.000Z</time>
        <extensions>
          <ns3:TrackPointExtension>
            <ns3:hr>76</ns3:hr>
            <ns3:cad>0</ns3:cad>
          </ns3:TrackPointExtension>
        </extensions>
      </trkpt>
      <trkpt lat="43.7677088566124439239501953125" lon="1.56426656059920787811279296875">
        <ele>154.1999969482421875</ele>
        <time>2026-08-13T06:37:52.000Z</time>
        <extensions>
          <ns3:TrackPointExtension>
            <ns3:hr>76</ns3:hr>
            <ns3:cad>0</ns3:cad>
          </ns3:TrackPointExtension>
        </extensions>
      </trkpt>
      <trkpt lat="43.76771899871528148651123046875" lon="1.56426991336047649383544921875">
        <ele>154</ele>
        <time>2026-08-13T06:37:53.000Z</time>
        <extensions>
          <ns3:TrackPointExtension>
            <ns3:hr>76</ns3:hr>
            <ns3:cad>48</ns3:cad>
          </ns3:TrackPointExtension>
        </extensions>
      </trkpt>
      <trkpt lat="43.76772721298038959503173828125" lon="1.5642755292356014251708984375">
        <ele>154</ele>
        <time>2026-08-13T06:37:54.000Z</time>
        <extensions>
          <ns3:TrackPointExtension>
            <ns3:hr>76</ns3:hr>
            <ns3:cad>48</ns3:cad>
          </ns3:TrackPointExtension>
        </extensions>
      </trkpt>
      <trkpt lat="43.767735846340656280517578125" lon="1.564279384911060333251953125">
        <ele>153.8000030517578125</ele>
        <time>2026-08-13T06:37:55.000Z</time>
        <extensions>
          <ns3:TrackPointExtension>
            <ns3:hr>76</ns3:hr>
            <ns3:cad>48</ns3:cad>
          </ns3:TrackPointExtension>
        </extensions>
      </trkpt>
      <trkpt lat="43.76774330623447895050048828125" lon="1.5642842464148998260498046875">
        <ele>153.8000030517578125</ele>
        <time>2026-08-13T06:37:56.000Z</time>
        <extensions>
          <ns3:TrackPointExtension>
            <ns3:hr>75</ns3:hr>
            <ns3:cad>0</ns3:cad>
          </ns3:TrackPointExtension>
        </extensions>
      </trkpt>
      <trkpt lat="43.767752945423126220703125" lon="1.564290113747119903564453125">
        <ele>153.600006103515625</ele>
        <time>2026-08-13T06:37:57.000Z</time>
        <extensions>
          <ns3:TrackPointExtension>
            <ns3:hr>75</ns3:hr>
            <ns3:cad>0</ns3:cad>
          </ns3:TrackPointExtension>
        </extensions>
      </trkpt>
      <trkpt lat="43.7677623331546783447265625" lon="1.564294137060642242431640625">
        <ele>153.600006103515625</ele>
        <time>2026-08-13T06:37:58.000Z</time>
        <extensions>
          <ns3:TrackPointExtension>
            <ns3:hr>75</ns3:hr>
            <ns3:cad>48</ns3:cad>
          </ns3:TrackPointExtension>
        </extensions>
      </trkpt>
      <trkpt lat="43.76776761375367641448974609375" lon="1.5642963163554668426513671875">
        <ele>153.600006103515625</ele>
        <time>2026-08-13T06:37:59.000Z</time>
        <extensions>
          <ns3:TrackPointExtension>
            <ns3:hr>74</ns3:hr>
            <ns3:cad>48</ns3:cad>
          </ns3:TrackPointExtension>
        </extensions>
      </trkpt>
      <trkpt lat="43.7677739001810550689697265625" lon="1.56429774127900600433349609375">
        <ele>153.399993896484375</ele>
        <time>2026-08-13T06:38:00.000Z</time>
        <extensions>
          <ns3:TrackPointExtension>
            <ns3:hr>74</ns3:hr>
            <ns3:cad>48</ns3:cad>
          </ns3:TrackPointExtension>
        </extensions>
      </trkpt>
      <trkpt lat="43.76778177917003631591796875" lon="1.5642986632883548736572265625">
        <ele>153.399993896484375</ele>
        <time>2026-08-13T06:38:01.000Z</time>
        <extensions>
          <ns3:TrackPointExtension>
            <ns3:hr>74</ns3:hr>
            <ns3:cad>49</ns3:cad>
          </ns3:TrackPointExtension>
        </extensions>
      </trkpt>
      <trkpt lat="43.76779292710125446319580078125" lon="1.5642973221838474273681640625">
        <ele>153.1999969482421875</ele>
        <time>2026-08-13T06:38:02.000Z</time>
        <extensions>
          <ns3:TrackPointExtension>
            <ns3:hr>74</ns3:hr>
            <ns3:cad>49</ns3:cad>
          </ns3:TrackPointExtension>
        </extensions>
      </trkpt>
      <trkpt lat="43.76780189573764801025390625" lon="1.5643013454973697662353515625">
        <ele>153.1999969482421875</ele>
        <time>2026-08-13T06:38:03.000Z</time>
        <extensions>
          <ns3:TrackPointExtension>
            <ns3:hr>73</ns3:hr>
            <ns3:cad>48</ns3:cad>
          </ns3:TrackPointExtension>
        </extensions>
      </trkpt>
      <trkpt lat="43.767808936536312103271484375" lon="1.56430386006832122802734375">
        <ele>153</ele>
        <time>2026-08-13T06:38:04.000Z</time>
        <extensions>
          <ns3:TrackPointExtension>
            <ns3:hr>74</ns3:hr>
            <ns3:cad>48</ns3:cad>
          </ns3:TrackPointExtension>
        </extensions>
      </trkpt>
      <trkpt lat="43.76781262457370758056640625" lon="1.56430763192474842071533203125">
        <ele>153</ele>
        <time>2026-08-13T06:38:05.000Z</time>
        <extensions>
          <ns3:TrackPointExtension>
            <ns3:hr>74</ns3:hr>
            <ns3:cad>48</ns3:cad>
          </ns3:TrackPointExtension>
        </extensions>
      </trkpt>
      <trkpt lat="43.76782025210559368133544921875" lon="1.5643117390573024749755859375">
        <ele>152.8000030517578125</ele>
        <time>2026-08-13T06:38:06.000Z</time>
        <extensions>
          <ns3:TrackPointExtension>
            <ns3:hr>74</ns3:hr>
            <ns3:cad>48</ns3:cad>
          </ns3:TrackPointExtension>
        </extensions>
      </trkpt>
      <trkpt lat="43.76783081330358982086181640625" lon="1.5643139183521270751953125">
        <ele>152.8000030517578125</ele>
        <time>2026-08-13T06:38:07.000Z</time>
        <extensions>
          <ns3:TrackPointExtension>
            <ns3:hr>74</ns3:hr>
            <ns3:cad>48</ns3:cad>
          </ns3:TrackPointExtension>
        </extensions>
      </trkpt>
      <trkpt lat="43.76784103922545909881591796875" lon="1.56431735493242740631103515625">
        <ele>152.8000030517578125</ele>
        <time>2026-08-13T06:38:08.000Z</time>
        <extensions>
          <ns3:TrackPointExtension>
            <ns3:hr>74</ns3:hr>
            <ns3:cad>48</ns3:cad>
          </ns3:TrackPointExtension>
        </extensions>
      </trkpt>
      <trkpt lat="43.7678516842424869537353515625" lon="1.56432129442691802978515625">
        <ele>152.600006103515625</ele>
        <time>2026-08-13T06:38:09.000Z</time>
        <extensions>
          <ns3:TrackPointExtension>
            <ns3:hr>73</ns3:hr>
            <ns3:cad>48</ns3:cad>
          </ns3:TrackPointExtension>
        </extensions>
      </trkpt>
      <trkpt lat="43.7678607366979122161865234375" lon="1.564324311912059783935546875">
        <ele>152.600006103515625</ele>
        <time>2026-08-13T06:38:10.000Z</time>
        <extensions>
          <ns3:TrackPointExtension>
            <ns3:hr>73</ns3:hr>
            <ns3:cad>48</ns3:cad>
          </ns3:TrackPointExtension>
        </extensions>
      </trkpt>
      <trkpt lat="43.76787356100976467132568359375" lon="1.564326994121074676513671875">
        <ele>152.600006103515625</ele>
        <time>2026-08-13T06:38:11.000Z</time>
        <extensions>
          <ns3:TrackPointExtension>
            <ns3:hr>73</ns3:hr>
            <ns3:cad>49</ns3:cad>
          </ns3:TrackPointExtension>
        </extensions>
      </trkpt>
      <trkpt lat="43.76788462512195110321044921875" lon="1.56433202326297760009765625">
        <ele>152.399993896484375</ele>
        <time>2026-08-13T06:38:12.000Z</time>
        <extensions>
          <ns3:TrackPointExtension>
            <ns3:hr>73</ns3:hr>
            <ns3:cad>50</ns3:cad>
          </ns3:TrackPointExtension>
        </extensions>
      </trkpt>
      <trkpt lat="43.76789510250091552734375" lon="1.56432892195880413055419921875">
        <ele>152.399993896484375</ele>
        <time>2026-08-13T06:38:13.000Z</time>
        <extensions>
          <ns3:TrackPointExtension>
            <ns3:hr>73</ns3:hr>
            <ns3:cad>50</ns3:cad>
          </ns3:TrackPointExtension>
        </extensions>
      </trkpt>
      <trkpt lat="43.767908178269863128662109375" lon="1.564328335225582122802734375">
        <ele>152.399993896484375</ele>
        <time>2026-08-13T06:38:14.000Z</time>
        <extensions>
          <ns3:TrackPointExtension>
            <ns3:hr>74</ns3:hr>
            <ns3:cad>47</ns3:cad>
          </ns3:TrackPointExtension>
        </extensions>
      </trkpt>
      <trkpt lat="43.76791547052562236785888671875" lon="1.5643353760242462158203125">
        <ele>152.1999969482421875</ele>
        <time>2026-08-13T06:38:15.000Z</time>
        <extensions>
          <ns3:TrackPointExtension>
            <ns3:hr>74</ns3:hr>
            <ns3:cad>47</ns3:cad>
          </ns3:TrackPointExtension>
        </extensions>
      </trkpt>
      <trkpt lat="43.76792049966752529144287109375" lon="1.5643439255654811859130859375">
        <ele>152.1999969482421875</ele>
        <time>2026-08-13T06:38:16.000Z</time>
        <extensions>
          <ns3:TrackPointExtension>
            <ns3:hr>75</ns3:hr>
            <ns3:cad>47</ns3:cad>
          </ns3:TrackPointExtension>
        </extensions>
      </trkpt>
      <trkpt lat="43.7679227627813816070556640625" lon="1.5643462724983692169189453125">
        <ele>152</ele>
        <time>2026-08-13T06:38:17.000Z</time>
        <extensions>
          <ns3:TrackPointExtension>
            <ns3:hr>75</ns3:hr>
            <ns3:cad>47</ns3:cad>
          </ns3:TrackPointExtension>
        </extensions>
      </trkpt>
      <trkpt lat="43.76792955212295055389404296875" lon="1.56435272656381130218505859375">
        <ele>152</ele>
        <time>2026-08-13T06:38:18.000Z</time>
        <extensions>
          <ns3:TrackPointExtension>
            <ns3:hr>76</ns3:hr>
            <ns3:cad>47</ns3:cad>
          </ns3:TrackPointExtension>
        </extensions>
      </trkpt>
      <trkpt lat="43.76794078387320041656494140625" lon="1.5643492899835109710693359375">
        <ele>152</ele>
        <time>2026-08-13T06:38:19.000Z</time>
        <extensions>
          <ns3:TrackPointExtension>
            <ns3:hr>76</ns3:hr>
            <ns3:cad>48</ns3:cad>
          </ns3:TrackPointExtension>
        </extensions>
      </trkpt>
      <trkpt lat="43.76794933341443538665771484375" lon="1.5643514692783355712890625">
        <ele>151.8000030517578125</ele>
        <time>2026-08-13T06:38:20.000Z</time>
        <extensions>
          <ns3:TrackPointExtension>
            <ns3:hr>76</ns3:hr>
            <ns3:cad>48</ns3:cad>
          </ns3:TrackPointExtension>
        </extensions>
      </trkpt>
      <trkpt lat="43.76796173863112926483154296875" lon="1.5643566660583019256591796875">
        <ele>151.8000030517578125</ele>
        <time>2026-08-13T06:38:21.000Z</time>
        <extensions>
          <ns3:TrackPointExtension>
            <ns3:hr>75</ns3:hr>
            <ns3:cad>48</ns3:cad>
          </ns3:TrackPointExtension>
        </extensions>
      </trkpt>
      <trkpt lat="43.767974562942981719970703125" lon="1.5643600188195705413818359375">
        <ele>151.8000030517578125</ele>
        <time>2026-08-13T06:38:22.000Z</time>
        <extensions>
          <ns3:TrackPointExtension>
            <ns3:hr>75</ns3:hr>
            <ns3:cad>48</ns3:cad>
          </ns3:TrackPointExtension>
        </extensions>
      </trkpt>
      <trkpt lat="43.76798286102712154388427734375" lon="1.564366556704044342041015625">
        <ele>151.600006103515625</ele>
        <time>2026-08-13T06:38:23.000Z</time>
        <extensions>
          <ns3:TrackPointExtension>
            <ns3:hr>75</ns3:hr>
            <ns3:cad>48</ns3:cad>
          </ns3:TrackPointExtension>
        </extensions>
      </trkpt>
      <trkpt lat="43.76799099147319793701171875" lon="1.56436781398952007293701171875">
        <ele>151.600006103515625</ele>
        <time>2026-08-13T06:38:24.000Z</time>
        <extensions>
          <ns3:TrackPointExtension>
            <ns3:hr>75</ns3:hr>
            <ns3:cad>47</ns3:cad>
          </ns3:TrackPointExtension>
        </extensions>
      </trkpt>
      <trkpt lat="43.767998032271862030029296875" lon="1.5643737651407718658447265625">
        <ele>151.399993896484375</ele>
        <time>2026-08-13T06:38:25.000Z</time>
        <extensions>
          <ns3:TrackPointExtension>
            <ns3:hr>75</ns3:hr>
            <ns3:cad>46</ns3:cad>
          </ns3:TrackPointExtension>
        </extensions>
      </trkpt>
      <trkpt lat="43.76800800673663616180419921875" lon="1.564377285540103912353515625">
        <ele>151.399993896484375</ele>
        <time>2026-08-13T06:38:26.000Z</time>
        <extensions>
          <ns3:TrackPointExtension>
            <ns3:hr>75</ns3:hr>
            <ns3:cad>46</ns3:cad>
          </ns3:TrackPointExtension>
        </extensions>
      </trkpt>
      <trkpt lat="43.76802049577236175537109375" lon="1.56438298523426055908203125">
        <ele>151.399993896484375</ele>
        <time>2026-08-13T06:38:27.000Z</time>
        <extensions>
          <ns3:TrackPointExtension>
            <ns3:hr>75</ns3:hr>
            <ns3:cad>48</ns3:cad>
          </ns3:TrackPointExtension>
        </extensions>
      </trkpt>
      <trkpt lat="43.76802854239940643310546875" lon="1.56438826583325862884521484375">
        <ele>151.1999969482421875</ele>
        <time>2026-08-13T06:38:28.000Z</time>
        <extensions>
          <ns3:TrackPointExtension>
            <ns3:hr>75</ns3:hr>
            <ns3:cad>48</ns3:cad>
          </ns3:TrackPointExtension>
        </extensions>
      </trkpt>
      <trkpt lat="43.76803616993129253387451171875" lon="1.5643938817083835601806640625">
        <ele>151.1999969482421875</ele>
        <time>2026-08-13T06:38:29.000Z</time>
        <extensions>
          <ns3:TrackPointExtension>
            <ns3:hr>74</ns3:hr>
            <ns3:cad>48</ns3:cad>
          </ns3:TrackPointExtension>
        </extensions>
      </trkpt>
      <trkpt lat="43.76804329454898834228515625" lon="1.5643992461264133453369140625">
        <ele>151.1999969482421875</ele>
        <time>2026-08-13T06:38:30.000Z</time>
        <extensions>
          <ns3:TrackPointExtension>
            <ns3:hr>75</ns3:hr>
            <ns3:cad>49</ns3:cad>
          </ns3:TrackPointExtension>
        </extensions>
      </trkpt>
      <trkpt lat="43.76805092208087444305419921875" lon="1.5644076280295848846435546875">
        <ele>151</ele>
        <time>2026-08-13T06:38:31.000Z</time>
        <extensions>
          <ns3:TrackPointExtension>
            <ns3:hr>75</ns3:hr>
            <ns3:cad>49</ns3:cad>
          </ns3:TrackPointExtension>
        </extensions>
      </trkpt>
      <trkpt lat="43.76806148327887058258056640625" lon="1.5644136629998683929443359375">
        <ele>151</ele>
        <time>2026-08-13T06:38:32.000Z</time>
        <extensions>
          <ns3:TrackPointExtension>
            <ns3:hr>75</ns3:hr>
            <ns3:cad>49</ns3:cad>
          </ns3:TrackPointExtension>
        </extensions>
      </trkpt>
      <trkpt lat="43.76807145774364471435546875" lon="1.56441944651305675506591796875">
        <ele>150.8000030517578125</ele>
        <time>2026-08-13T06:38:33.000Z</time>
        <extensions>
          <ns3:TrackPointExtension>
            <ns3:hr>74</ns3:hr>
            <ns3:cad>49</ns3:cad>
          </ns3:TrackPointExtension>
        </extensions>
      </trkpt>
      <trkpt lat="43.76808009110391139984130859375" lon="1.56442346982657909393310546875">
        <ele>150.8000030517578125</ele>
        <time>2026-08-13T06:38:34.000Z</time>
        <extensions>
          <ns3:TrackPointExtension>
            <ns3:hr>74</ns3:hr>
            <ns3:cad>48</ns3:cad>
          </ns3:TrackPointExtension>
        </extensions>
      </trkpt>
      <trkpt lat="43.76809115521609783172607421875" lon="1.5644250623881816864013671875">
        <ele>150.8000030517578125</ele>
        <time>2026-08-13T06:38:35.000Z</time>
        <extensions>
          <ns3:TrackPointExtension>
            <ns3:hr>75</ns3:hr>
            <ns3:cad>48</ns3:cad>
          </ns3:TrackPointExtension>
        </extensions>
      </trkpt>
      <trkpt lat="43.76809559762477874755859375" lon="1.56442782841622829437255859375">
        <ele>150.600006103515625</ele>
        <time>2026-08-13T06:38:36.000Z</time>
        <extensions>
          <ns3:TrackPointExtension>
            <ns3:hr>75</ns3:hr>
            <ns3:cad>48</ns3:cad>
          </ns3:TrackPointExtension>
        </extensions>
      </trkpt>
      <trkpt lat="43.76810557208955287933349609375" lon="1.5644357912242412567138671875">
        <ele>150.600006103515625</ele>
        <time>2026-08-13T06:38:37.000Z</time>
        <extensions>
          <ns3:TrackPointExtension>
            <ns3:hr>76</ns3:hr>
            <ns3:cad>49</ns3:cad>
          </ns3:TrackPointExtension>
        </extensions>
      </trkpt>
      <trkpt lat="43.76811294816434383392333984375" lon="1.56444224528968334197998046875">
        <ele>150.399993896484375</ele>
        <time>2026-08-13T06:38:38.000Z</time>
        <extensions>
          <ns3:TrackPointExtension>
            <ns3:hr>76</ns3:hr>
            <ns3:cad>49</ns3:cad>
          </ns3:TrackPointExtension>
        </extensions>
      </trkpt>
      <trkpt lat="43.76812040805816650390625" lon="1.56444677151739597320556640625">
        <ele>150.399993896484375</ele>
        <time>2026-08-13T06:38:39.000Z</time>
        <extensions>
          <ns3:TrackPointExtension>
            <ns3:hr>77</ns3:hr>
            <ns3:cad>49</ns3:cad>
          </ns3:TrackPointExtension>
        </extensions>
      </trkpt>
      <trkpt lat="43.76813071779906749725341796875" lon="1.5644542314112186431884765625">
        <ele>150.1999969482421875</ele>
        <time>2026-08-13T06:38:40.000Z</time>
        <extensions>
          <ns3:TrackPointExtension>
            <ns3:hr>78</ns3:hr>
            <ns3:cad>49</ns3:cad>
          </ns3:TrackPointExtension>
        </extensions>
      </trkpt>
      <trkpt lat="43.7681378424167633056640625" lon="1.56446387059986591339111328125">
        <ele>150.1999969482421875</ele>
        <time>2026-08-13T06:38:41.000Z</time>
        <extensions>
          <ns3:TrackPointExtension>
            <ns3:hr>79</ns3:hr>
            <ns3:cad>50</ns3:cad>
          </ns3:TrackPointExtension>
        </extensions>
      </trkpt>
      <trkpt lat="43.76814295537769794464111328125" lon="1.56447225250303745269775390625">
        <ele>150.1999969482421875</ele>
        <time>2026-08-13T06:38:42.000Z</time>
        <extensions>
          <ns3:TrackPointExtension>
            <ns3:hr>79</ns3:hr>
            <ns3:cad>50</ns3:cad>
          </ns3:TrackPointExtension>
        </extensions>
      </trkpt>
      <trkpt lat="43.76815033145248889923095703125" lon="1.56448264606297016143798828125">
        <ele>150</ele>
        <time>2026-08-13T06:38:43.000Z</time>
        <extensions>
          <ns3:TrackPointExtension>
            <ns3:hr>79</ns3:hr>
            <ns3:cad>50</ns3:cad>
          </ns3:TrackPointExtension>
        </extensions>
      </trkpt>
      <trkpt lat="43.7681598030030727386474609375" lon="1.56448549591004848480224609375">
        <ele>150</ele>
        <time>2026-08-13T06:38:44.000Z</time>
        <extensions>
          <ns3:TrackPointExtension>
            <ns3:hr>79</ns3:hr>
            <ns3:cad>50</ns3:cad>
          </ns3:TrackPointExtension>
        </extensions>
      </trkpt>
      <trkpt lat="43.7681758962571620941162109375" lon="1.5644911117851734161376953125">
        <ele>149.8000030517578125</ele>
        <time>2026-08-13T06:38:45.000Z</time>
        <extensions>
          <ns3:TrackPointExtension>
            <ns3:hr>78</ns3:hr>
            <ns3:cad>50</ns3:cad>
          </ns3:TrackPointExtension>
        </extensions>
      </trkpt>
      <trkpt lat="43.768184445798397064208984375" lon="1.5644951350986957550048828125">
        <ele>149.600006103515625</ele>
        <time>2026-08-13T06:38:46.000Z</time>
        <extensions>
          <ns3:TrackPointExtension>
            <ns3:hr>79</ns3:hr>
            <ns3:cad>50</ns3:cad>
          </ns3:TrackPointExtension>
        </extensions>
      </trkpt>
      <trkpt lat="43.76819391734898090362548828125" lon="1.56449957750737667083740234375">
        <ele>149.600006103515625</ele>
        <time>2026-08-13T06:38:47.000Z</time>
        <extensions>
          <ns3:TrackPointExtension>
            <ns3:hr>79</ns3:hr>
            <ns3:cad>50</ns3:cad>
          </ns3:TrackPointExtension>
        </extensions>
      </trkpt>
      <trkpt lat="43.76820062287151813507080078125" lon="1.5645072050392627716064453125">
        <ele>149.600006103515625</ele>
        <time>2026-08-13T06:38:48.000Z</time>
        <extensions>
          <ns3:TrackPointExtension>
            <ns3:hr>78</ns3:hr>
            <ns3:cad>50</ns3:cad>
          </ns3:TrackPointExtension>
        </extensions>
      </trkpt>
      <trkpt lat="43.7682097591459751129150390625" lon="1.56451567076146602630615234375">
        <ele>149.399993896484375</ele>
        <time>2026-08-13T06:38:49.000Z</time>
        <extensions>
          <ns3:TrackPointExtension>
            <ns3:hr>77</ns3:hr>
            <ns3:cad>50</ns3:cad>
          </ns3:TrackPointExtension>
        </extensions>
      </trkpt>
      <trkpt lat="43.76821629703044891357421875" lon="1.56452069990336894989013671875">
        <ele>149.1999969482421875</ele>
        <time>2026-08-13T06:38:50.000Z</time>
        <extensions>
          <ns3:TrackPointExtension>
            <ns3:hr>77</ns3:hr>
            <ns3:cad>50</ns3:cad>
          </ns3:TrackPointExtension>
        </extensions>
      </trkpt>
      <trkpt lat="43.76822459511458873748779296875" lon="1.56452958472073078155517578125">
        <ele>149.1999969482421875</ele>
        <time>2026-08-13T06:38:51.000Z</time>
        <extensions>
          <ns3:TrackPointExtension>
            <ns3:hr>76</ns3:hr>
            <ns3:cad>49</ns3:cad>
          </ns3:TrackPointExtension>
        </extensions>
      </trkpt>
      <trkpt lat="43.7682275287806987762451171875" lon="1.56454081647098064422607421875">
        <ele>149.1999969482421875</ele>
        <time>2026-08-13T06:38:52.000Z</time>
        <extensions>
          <ns3:TrackPointExtension>
            <ns3:hr>76</ns3:hr>
            <ns3:cad>49</ns3:cad>
          </ns3:TrackPointExtension>
        </extensions>
      </trkpt>
      <trkpt lat="43.7682318873703479766845703125" lon="1.564548946917057037353515625">
        <ele>149</ele>
        <time>2026-08-13T06:38:53.000Z</time>
        <extensions>
          <ns3:TrackPointExtension>
            <ns3:hr>76</ns3:hr>
            <ns3:cad>49</ns3:cad>
          </ns3:TrackPointExtension>
        </extensions>
      </trkpt>
      <trkpt lat="43.76823901198804378509521484375" lon="1.5645578317344188690185546875">
        <ele>149</ele>
        <time>2026-08-13T06:38:54.000Z</time>
        <extensions>
          <ns3:TrackPointExtension>
            <ns3:hr>76</ns3:hr>
            <ns3:cad>49</ns3:cad>
          </ns3:TrackPointExtension>
        </extensions>
      </trkpt>
      <trkpt lat="43.768251836299896240234375" lon="1.5645642019808292388916015625">
        <ele>149</ele>
        <time>2026-08-13T06:38:55.000Z</time>
        <extensions>
          <ns3:TrackPointExtension>
            <ns3:hr>76</ns3:hr>
            <ns3:cad>49</ns3:cad>
          </ns3:TrackPointExtension>
        </extensions>
      </trkpt>
      <trkpt lat="43.76825988292694091796875" lon="1.564573086798191070556640625">
        <ele>148.8000030517578125</ele>
        <time>2026-08-13T06:38:56.000Z</time>
        <extensions>
          <ns3:TrackPointExtension>
            <ns3:hr>76</ns3:hr>
            <ns3:cad>48</ns3:cad>
          </ns3:TrackPointExtension>
        </extensions>
      </trkpt>
      <trkpt lat="43.76826834864914417266845703125" lon="1.56458088196814060211181640625">
        <ele>148.8000030517578125</ele>
        <time>2026-08-13T06:38:57.000Z</time>
        <extensions>
          <ns3:TrackPointExtension>
            <ns3:hr>76</ns3:hr>
            <ns3:cad>48</ns3:cad>
          </ns3:TrackPointExtension>
        </extensions>
      </trkpt>
      <trkpt lat="43.76827253960072994232177734375" lon="1.56458859331905841827392578125">
        <ele>148.600006103515625</ele>
        <time>2026-08-13T06:38:58.000Z</time>
        <extensions>
          <ns3:TrackPointExtension>
            <ns3:hr>76</ns3:hr>
            <ns3:cad>47</ns3:cad>
          </ns3:TrackPointExtension>
        </extensions>
      </trkpt>
      <trkpt lat="43.76827857457101345062255859375" lon="1.56459697522222995758056640625">
        <ele>148.600006103515625</ele>
        <time>2026-08-13T06:38:59.000Z</time>
        <extensions>
          <ns3:TrackPointExtension>
            <ns3:hr>76</ns3:hr>
            <ns3:cad>47</ns3:cad>
          </ns3:TrackPointExtension>
        </extensions>
      </trkpt>
      <trkpt lat="43.76828603446483612060546875" lon="1.5646084584295749664306640625">
        <ele>148.600006103515625</ele>
        <time>2026-08-13T06:39:00.000Z</time>
        <extensions>
          <ns3:TrackPointExtension>
            <ns3:hr>75</ns3:hr>
            <ns3:cad>48</ns3:cad>
          </ns3:TrackPointExtension>
        </extensions>
      </trkpt>
      <trkpt lat="43.7682960927486419677734375" lon="1.564617343246936798095703125">
        <ele>148.600006103515625</ele>
        <time>2026-08-13T06:39:01.000Z</time>
        <extensions>
          <ns3:TrackPointExtension>
            <ns3:hr>75</ns3:hr>
            <ns3:cad>48</ns3:cad>
          </ns3:TrackPointExtension>
        </extensions>
      </trkpt>
      <trkpt lat="43.7683049775660037994384765625" lon="1.564626395702362060546875">
        <ele>148.399993896484375</ele>
        <time>2026-08-13T06:39:02.000Z</time>
        <extensions>
          <ns3:TrackPointExtension>
            <ns3:hr>74</ns3:hr>
            <ns3:cad>49</ns3:cad>
          </ns3:TrackPointExtension>
        </extensions>
      </trkpt>
      <trkpt lat="43.76830858178436756134033203125" lon="1.56463620252907276153564453125">
        <ele>148.399993896484375</ele>
        <time>2026-08-13T06:39:03.000Z</time>
        <extensions>
          <ns3:TrackPointExtension>
            <ns3:hr>74</ns3:hr>
            <ns3:cad>48</ns3:cad>
          </ns3:TrackPointExtension>
        </extensions>
      </trkpt>
      <trkpt lat="43.76831352710723876953125" lon="1.56464626081287860870361328125">
        <ele>148.399993896484375</ele>
        <time>2026-08-13T06:39:04.000Z</time>
        <extensions>
          <ns3:TrackPointExtension>
            <ns3:hr>74</ns3:hr>
            <ns3:cad>48</ns3:cad>
          </ns3:TrackPointExtension>
        </extensions>
      </trkpt>
      <trkpt lat="43.76832065172493457794189453125" lon="1.56465330161154270172119140625">
        <ele>148.1999969482421875</ele>
        <time>2026-08-13T06:39:05.000Z</time>
        <extensions>
          <ns3:TrackPointExtension>
            <ns3:hr>74</ns3:hr>
            <ns3:cad>48</ns3:cad>
          </ns3:TrackPointExtension>
        </extensions>
      </trkpt>
      <trkpt lat="43.76832802779972553253173828125" lon="1.5646657906472682952880859375">
        <ele>148.1999969482421875</ele>
        <time>2026-08-13T06:39:06.000Z</time>
        <extensions>
          <ns3:TrackPointExtension>
            <ns3:hr>73</ns3:hr>
            <ns3:cad>48</ns3:cad>
          </ns3:TrackPointExtension>
        </extensions>
      </trkpt>
      <trkpt lat="43.76833389513194561004638671875" lon="1.56467325054109096527099609375">
        <ele>148.1999969482421875</ele>
        <time>2026-08-13T06:39:07.000Z</time>
        <extensions>
          <ns3:TrackPointExtension>
            <ns3:hr>73</ns3:hr>
            <ns3:cad>48</ns3:cad>
          </ns3:TrackPointExtension>
        </extensions>
      </trkpt>
      <trkpt lat="43.76834060065448284149169921875" lon="1.564679034054279327392578125">
        <ele>148</ele>
        <time>2026-08-13T06:39:08.000Z</time>
        <extensions>
          <ns3:TrackPointExtension>
            <ns3:hr>72</ns3:hr>
            <ns3:cad>48</ns3:cad>
          </ns3:TrackPointExtension>
        </extensions>
      </trkpt>
      <trkpt lat="43.76834680326282978057861328125" lon="1.56468397937715053558349609375">
        <ele>148</ele>
        <time>2026-08-13T06:39:09.000Z</time>
        <extensions>
          <ns3:TrackPointExtension>
            <ns3:hr>72</ns3:hr>
            <ns3:cad>49</ns3:cad>
          </ns3:TrackPointExtension>
        </extensions>
      </trkpt>
      <trkpt lat="43.7683592922985553741455078125" lon="1.56469621695578098297119140625">
        <ele>148</ele>
        <time>2026-08-13T06:39:10.000Z</time>
        <extensions>
          <ns3:TrackPointExtension>
            <ns3:hr>72</ns3:hr>
            <ns3:cad>49</ns3:cad>
          </ns3:TrackPointExtension>
        </extensions>
      </trkpt>
      <trkpt lat="43.76836775802075862884521484375" lon="1.56470409594476222991943359375">
        <ele>147.8000030517578125</ele>
        <time>2026-08-13T06:39:11.000Z</time>
        <extensions>
          <ns3:TrackPointExtension>
            <ns3:hr>71</ns3:hr>
            <ns3:cad>49</ns3:cad>
          </ns3:TrackPointExtension>
        </extensions>
      </trkpt>
      <trkpt lat="43.76837731339037418365478515625" lon="1.56471432186663150787353515625">
        <ele>147.8000030517578125</ele>
        <time>2026-08-13T06:39:12.000Z</time>
        <extensions>
          <ns3:TrackPointExtension>
            <ns3:hr>71</ns3:hr>
            <ns3:cad>48</ns3:cad>
          </ns3:TrackPointExtension>
        </extensions>
      </trkpt>
      <trkpt lat="43.7683844380080699920654296875" lon="1.56472253613173961639404296875">
        <ele>147.8000030517578125</ele>
        <time>2026-08-13T06:39:13.000Z</time>
        <extensions>
          <ns3:TrackPointExtension>
            <ns3:hr>71</ns3:hr>
            <ns3:cad>47</ns3:cad>
          </ns3:TrackPointExtension>
        </extensions>
      </trkpt>
      <trkpt lat="43.7683908082544803619384765625" lon="1.5647341869771480560302734375">
        <ele>147.600006103515625</ele>
        <time>2026-08-13T06:39:14.000Z</time>
        <extensions>
          <ns3:TrackPointExtension>
            <ns3:hr>71</ns3:hr>
            <ns3:cad>47</ns3:cad>
          </ns3:TrackPointExtension>
        </extensions>
      </trkpt>
      <trkpt lat="43.76839868724346160888671875" lon="1.56474374234676361083984375">
        <ele>147.600006103515625</ele>
        <time>2026-08-13T06:39:15.000Z</time>
        <extensions>
          <ns3:TrackPointExtension>
            <ns3:hr>71</ns3:hr>
            <ns3:cad>47</ns3:cad>
          </ns3:TrackPointExtension>
        </extensions>
      </trkpt>
      <trkpt lat="43.768404386937618255615234375" lon="1.56475053168833255767822265625">
        <ele>147.600006103515625</ele>
        <time>2026-08-13T06:39:16.000Z</time>
        <extensions>
          <ns3:TrackPointExtension>
            <ns3:hr>72</ns3:hr>
            <ns3:cad>47</ns3:cad>
          </ns3:TrackPointExtension>
        </extensions>
      </trkpt>
      <trkpt lat="43.768412768840789794921875" lon="1.564758159220218658447265625">
        <ele>147.600006103515625</ele>
        <time>2026-08-13T06:39:17.000Z</time>
        <extensions>
          <ns3:TrackPointExtension>
            <ns3:hr>72</ns3:hr>
            <ns3:cad>47</ns3:cad>
          </ns3:TrackPointExtension>
        </extensions>
      </trkpt>
      <trkpt lat="43.7684179656207561492919921875" lon="1.5647687204182147979736328125">
        <ele>147.399993896484375</ele>
        <time>2026-08-13T06:39:18.000Z</time>
        <extensions>
          <ns3:TrackPointExtension>
            <ns3:hr>72</ns3:hr>
            <ns3:cad>48</ns3:cad>
          </ns3:TrackPointExtension>
        </extensions>
      </trkpt>
      <trkpt lat="43.768423162400722503662109375" lon="1.56477869488298892974853515625">
        <ele>147.399993896484375</ele>
        <time>2026-08-13T06:39:19.000Z</time>
        <extensions>
          <ns3:TrackPointExtension>
            <ns3:hr>72</ns3:hr>
            <ns3:cad>48</ns3:cad>
          </ns3:TrackPointExtension>
        </extensions>
      </trkpt>
      <trkpt lat="43.76843280158936977386474609375" lon="1.5647913515567779541015625">
        <ele>147.399993896484375</ele>
        <time>2026-08-13T06:39:20.000Z</time>
        <extensions>
          <ns3:TrackPointExtension>
            <ns3:hr>72</ns3:hr>
            <ns3:cad>49</ns3:cad>
          </ns3:TrackPointExtension>
        </extensions>
      </trkpt>
      <trkpt lat="43.7684434466063976287841796875" lon="1.56480099074542522430419921875">
        <ele>147.1999969482421875</ele>
        <time>2026-08-13T06:39:21.000Z</time>
        <extensions>
          <ns3:TrackPointExtension>
            <ns3:hr>73</ns3:hr>
            <ns3:cad>49</ns3:cad>
          </ns3:TrackPointExtension>
        </extensions>
      </trkpt>
      <trkpt lat="43.768451325595378875732421875" lon="1.56481088139116764068603515625">
        <ele>147.1999969482421875</ele>
        <time>2026-08-13T06:39:22.000Z</time>
        <extensions>
          <ns3:TrackPointExtension>
            <ns3:hr>74</ns3:hr>
            <ns3:cad>49</ns3:cad>
          </ns3:TrackPointExtension>
        </extensions>
      </trkpt>
      <trkpt lat="43.768455684185028076171875" lon="1.56481490470468997955322265625">
        <ele>147.1999969482421875</ele>
        <time>2026-08-13T06:39:23.000Z</time>
        <extensions>
          <ns3:TrackPointExtension>
            <ns3:hr>75</ns3:hr>
            <ns3:cad>49</ns3:cad>
          </ns3:TrackPointExtension>
        </extensions>
      </trkpt>
      <trkpt lat="43.768463395535945892333984375" lon="1.56482613645493984222412109375">
        <ele>147.1999969482421875</ele>
        <time>2026-08-13T06:39:24.000Z</time>
        <extensions>
          <ns3:TrackPointExtension>
            <ns3:hr>75</ns3:hr>
            <ns3:cad>48</ns3:cad>
          </ns3:TrackPointExtension>
        </extensions>
      </trkpt>
      <trkpt lat="43.76847068779170513153076171875" lon="1.56483787111937999725341796875">
        <ele>147</ele>
        <time>2026-08-13T06:39:25.000Z</time>
        <extensions>
          <ns3:TrackPointExtension>
            <ns3:hr>76</ns3:hr>
            <ns3:cad>48</ns3:cad>
          </ns3:TrackPointExtension>
        </extensions>
      </trkpt>
      <trkpt lat="43.7684773094952106475830078125" lon="1.56484968960285186767578125">
        <ele>147</ele>
        <time>2026-08-13T06:39:26.000Z</time>
        <extensions>
          <ns3:TrackPointExtension>
            <ns3:hr>76</ns3:hr>
            <ns3:cad>48</ns3:cad>
          </ns3:TrackPointExtension>
        </extensions>
      </trkpt>
      <trkpt lat="43.7684826739132404327392578125" lon="1.56485580839216709136962890625">
        <ele>147</ele>
        <time>2026-08-13T06:39:27.000Z</time>
        <extensions>
          <ns3:TrackPointExtension>
            <ns3:hr>75</ns3:hr>
            <ns3:cad>47</ns3:cad>
          </ns3:TrackPointExtension>
        </extensions>
      </trkpt>
      <trkpt lat="43.7684903852641582489013671875" lon="1.56486167572438716888427734375">
        <ele>147</ele>
        <time>2026-08-13T06:39:28.000Z</time>
        <extensions>
          <ns3:TrackPointExtension>
            <ns3:hr>75</ns3:hr>
            <ns3:cad>47</ns3:cad>
          </ns3:TrackPointExtension>
        </extensions>
      </trkpt>
      <trkpt lat="43.76850195229053497314453125" lon="1.5648745000362396240234375">
        <ele>146.8000030517578125</ele>
        <time>2026-08-13T06:39:29.000Z</time>
        <extensions>
          <ns3:TrackPointExtension>
            <ns3:hr>75</ns3:hr>
            <ns3:cad>47</ns3:cad>
          </ns3:TrackPointExtension>
        </extensions>
      </trkpt>
      <trkpt lat="43.7685094960033893585205078125" lon="1.56488765962421894073486328125">
        <ele>146.8000030517578125</ele>
        <time>2026-08-13T06:39:30.000Z</time>
        <extensions>
          <ns3:TrackPointExtension>
            <ns3:hr>75</ns3:hr>
            <ns3:cad>47</ns3:cad>
          </ns3:TrackPointExtension>
        </extensions>
      </trkpt>
      <trkpt lat="43.76851762644946575164794921875" lon="1.56489738263189792633056640625">
        <ele>146.8000030517578125</ele>
        <time>2026-08-13T06:39:31.000Z</time>
        <extensions>
          <ns3:TrackPointExtension>
            <ns3:hr>75</ns3:hr>
            <ns3:cad>48</ns3:cad>
          </ns3:TrackPointExtension>
        </extensions>
      </trkpt>
      <trkpt lat="43.7685222364962100982666015625" lon="1.56490459106862545013427734375">
        <ele>146.8000030517578125</ele>
        <time>2026-08-13T06:39:32.000Z</time>
        <extensions>
          <ns3:TrackPointExtension>
            <ns3:hr>74</ns3:hr>
            <ns3:cad>47</ns3:cad>
          </ns3:TrackPointExtension>
        </extensions>
      </trkpt>
      <trkpt lat="43.7685267627239227294921875" lon="1.5649135597050189971923828125">
        <ele>146.8000030517578125</ele>
        <time>2026-08-13T06:39:33.000Z</time>
        <extensions>
          <ns3:TrackPointExtension>
            <ns3:hr>74</ns3:hr>
            <ns3:cad>47</ns3:cad>
          </ns3:TrackPointExtension>
        </extensions>
      </trkpt>
      <trkpt lat="43.76853522844612598419189453125" lon="1.5649273060262203216552734375">
        <ele>146.8000030517578125</ele>
        <time>2026-08-13T06:39:34.000Z</time>
        <extensions>
          <ns3:TrackPointExtension>
            <ns3:hr>74</ns3:hr>
            <ns3:cad>47</ns3:cad>
          </ns3:TrackPointExtension>
        </extensions>
      </trkpt>
      <trkpt lat="43.76854159869253635406494140625" lon="1.56493149697780609130859375">
        <ele>146.8000030517578125</ele>
        <time>2026-08-13T06:39:35.000Z</time>
        <extensions>
          <ns3:TrackPointExtension>
            <ns3:hr>74</ns3:hr>
            <ns3:cad>47</ns3:cad>
          </ns3:TrackPointExtension>
        </extensions>
      </trkpt>
      <trkpt lat="43.76855157315731048583984375" lon="1.5649420581758022308349609375">
        <ele>146.600006103515625</ele>
        <time>2026-08-13T06:39:36.000Z</time>
        <extensions>
          <ns3:TrackPointExtension>
            <ns3:hr>75</ns3:hr>
            <ns3:cad>48</ns3:cad>
          </ns3:TrackPointExtension>
        </extensions>
      </trkpt>
      <trkpt lat="43.76855702139437198638916015625" lon="1.5649484284222126007080078125">
        <ele>146.600006103515625</ele>
        <time>2026-08-13T06:39:37.000Z</time>
        <extensions>
          <ns3:TrackPointExtension>
            <ns3:hr>74</ns3:hr>
            <ns3:cad>49</ns3:cad>
          </ns3:TrackPointExtension>
        </extensions>
      </trkpt>
      <trkpt lat="43.7685631401836872100830078125" lon="1.56495320610702037811279296875">
        <ele>146.600006103515625</ele>
        <time>2026-08-13T06:39:38.000Z</time>
        <extensions>
          <ns3:TrackPointExtension>
            <ns3:hr>75</ns3:hr>
            <ns3:cad>49</ns3:cad>
          </ns3:TrackPointExtension>
        </extensions>
      </trkpt>
      <trkpt lat="43.7685668282210826873779296875" lon="1.56496259383857250213623046875">
        <ele>146.600006103515625</ele>
        <time>2026-08-13T06:39:39.000Z</time>
        <extensions>
          <ns3:TrackPointExtension>
            <ns3:hr>75</ns3:hr>
            <ns3:cad>48</ns3:cad>
          </ns3:TrackPointExtension>
        </extensions>
      </trkpt>
      <trkpt lat="43.76857244409620761871337890625" lon="1.56497734598815441131591796875">
        <ele>146.399993896484375</ele>
        <time>2026-08-13T06:39:40.000Z</time>
        <extensions>
          <ns3:TrackPointExtension>
            <ns3:hr>74</ns3:hr>
            <ns3:cad>48</ns3:cad>
          </ns3:TrackPointExtension>
        </extensions>
      </trkpt>
      <trkpt lat="43.7685763835906982421875" lon="1.56498849391937255859375">
        <ele>146.399993896484375</ele>
        <time>2026-08-13T06:39:41.000Z</time>
        <extensions>
          <ns3:TrackPointExtension>
            <ns3:hr>74</ns3:hr>
            <ns3:cad>48</ns3:cad>
          </ns3:TrackPointExtension>
        </extensions>
      </trkpt>
      <trkpt lat="43.76858107745647430419921875" lon="1.56499578617513179779052734375">
        <ele>146.399993896484375</ele>
        <time>2026-08-13T06:39:42.000Z</time>
        <extensions>
          <ns3:TrackPointExtension>
            <ns3:hr>74</ns3:hr>
            <ns3:cad>0</ns3:cad>
          </ns3:TrackPointExtension>
        </extensions>
      </trkpt>
      <trkpt lat="43.76858753152191638946533203125" lon="1.5650071017444133758544921875">
        <ele>146.399993896484375</ele>
        <time>2026-08-13T06:39:43.000Z</time>
        <extensions>
          <ns3:TrackPointExtension>
            <ns3:hr>75</ns3:hr>
            <ns3:cad>0</ns3:cad>
          </ns3:TrackPointExtension>
        </extensions>
      </trkpt>
      <trkpt lat="43.7685936503112316131591796875" lon="1.56500651501119136810302734375">
        <ele>146.1999969482421875</ele>
        <time>2026-08-13T06:39:44.000Z</time>
        <extensions>
          <ns3:TrackPointExtension>
            <ns3:hr>75</ns3:hr>
            <ns3:cad>49</ns3:cad>
          </ns3:TrackPointExtension>
        </extensions>
      </trkpt>
      <trkpt lat="43.76860161311924457550048828125" lon="1.5650059282779693603515625">
        <ele>146.1999969482421875</ele>
        <time>2026-08-13T06:39:45.000Z</time>
        <extensions>
          <ns3:TrackPointExtension>
            <ns3:hr>75</ns3:hr>
            <ns3:cad>49</ns3:cad>
          </ns3:TrackPointExtension>
        </extensions>
      </trkpt>
      <trkpt lat="43.7686164490878582000732421875" lon="1.56501757912337779998779296875">
        <ele>146.1999969482421875</ele>
        <time>2026-08-13T06:39:46.000Z</time>
        <extensions>
          <ns3:TrackPointExtension>
            <ns3:hr>75</ns3:hr>
            <ns3:cad>49</ns3:cad>
          </ns3:TrackPointExtension>
        </extensions>
      </trkpt>
      <trkpt lat="43.76862323842942714691162109375" lon="1.5650299005210399627685546875">
        <ele>146.1999969482421875</ele>
        <time>2026-08-13T06:39:47.000Z</time>
        <extensions>
          <ns3:TrackPointExtension>
            <ns3:hr>76</ns3:hr>
            <ns3:cad>47</ns3:cad>
          </ns3:TrackPointExtension>
        </extensions>
      </trkpt>
      <trkpt lat="43.7686288543045520782470703125" lon="1.56504138372838497161865234375">
        <ele>146</ele>
        <time>2026-08-13T06:39:48.000Z</time>
        <extensions>
          <ns3:TrackPointExtension>
            <ns3:hr>77</ns3:hr>
            <ns3:cad>47</ns3:cad>
          </ns3:TrackPointExtension>
        </extensions>
      </trkpt>
      <trkpt lat="43.76863765530288219451904296875" lon="1.56506015919148921966552734375">
        <ele>146</ele>
        <time>2026-08-13T06:39:49.000Z</time>
        <extensions>
          <ns3:TrackPointExtension>
            <ns3:hr>78</ns3:hr>
            <ns3:cad>47</ns3:cad>
          </ns3:TrackPointExtension>
        </extensions>
      </trkpt>
      <trkpt lat="43.7686436064541339874267578125" lon="1.56507407315075397491455078125">
        <ele>146</ele>
        <time>2026-08-13T06:39:50.000Z</time>
        <extensions>
          <ns3:TrackPointExtension>
            <ns3:hr>78</ns3:hr>
            <ns3:cad>50</ns3:cad>
          </ns3:TrackPointExtension>
        </extensions>
      </trkpt>
      <trkpt lat="43.7686506472527980804443359375" lon="1.5650810301303863525390625">
        <ele>146</ele>
        <time>2026-08-13T06:39:51.000Z</time>
        <extensions>
          <ns3:TrackPointExtension>
            <ns3:hr>79</ns3:hr>
            <ns3:cad>50</ns3:cad>
          </ns3:TrackPointExtension>
        </extensions>
      </trkpt>
      <trkpt lat="43.76865827478468418121337890625" lon="1.56509418971836566925048828125">
        <ele>146</ele>
        <time>2026-08-13T06:39:52.000Z</time>
        <extensions>
          <ns3:TrackPointExtension>
            <ns3:hr>79</ns3:hr>
            <ns3:cad>46</ns3:cad>
          </ns3:TrackPointExtension>
        </extensions>
      </trkpt>
      <trkpt lat="43.76866288483142852783203125" lon="1.5651036612689495086669921875">
        <ele>146</ele>
        <time>2026-08-13T06:39:53.000Z</time>
        <extensions>
          <ns3:TrackPointExtension>
            <ns3:hr>79</ns3:hr>
            <ns3:cad>46</ns3:cad>
          </ns3:TrackPointExtension>
        </extensions>
      </trkpt>
      <trkpt lat="43.768669255077838897705078125" lon="1.56510743312537670135498046875">
        <ele>146</ele>
        <time>2026-08-13T06:39:54.000Z</time>
        <extensions>
          <ns3:TrackPointExtension>
            <ns3:hr>80</ns3:hr>
            <ns3:cad>46</ns3:cad>
          </ns3:TrackPointExtension>
        </extensions>
      </trkpt>
      <trkpt lat="43.768678642809391021728515625" lon="1.56511849723756313323974609375">
        <ele>146</ele>
        <time>2026-08-13T06:39:55.000Z</time>
        <extensions>
          <ns3:TrackPointExtension>
            <ns3:hr>80</ns3:hr>
            <ns3:cad>46</ns3:cad>
          </ns3:TrackPointExtension>
        </extensions>
      </trkpt>
      <trkpt lat="43.76868543215095996856689453125" lon="1.5651266276836395263671875">
        <ele>145.8000030517578125</ele>
        <time>2026-08-13T06:39:56.000Z</time>
        <extensions>
          <ns3:TrackPointExtension>
            <ns3:hr>80</ns3:hr>
            <ns3:cad>46</ns3:cad>
          </ns3:TrackPointExtension>
        </extensions>
      </trkpt>
      <trkpt lat="43.7686957418918609619140625" lon="1.5651368536055088043212890625">
        <ele>145.8000030517578125</ele>
        <time>2026-08-13T06:39:57.000Z</time>
        <extensions>
          <ns3:TrackPointExtension>
            <ns3:hr>81</ns3:hr>
            <ns3:cad>46</ns3:cad>
          </ns3:TrackPointExtension>
        </extensions>
      </trkpt>
      <trkpt lat="43.76870085485279560089111328125" lon="1.56514431349933147430419921875">
        <ele>145.8000030517578125</ele>
        <time>2026-08-13T06:39:58.000Z</time>
        <extensions>
          <ns3:TrackPointExtension>
            <ns3:hr>80</ns3:hr>
            <ns3:cad>46</ns3:cad>
          </ns3:TrackPointExtension>
        </extensions>
      </trkpt>
      <trkpt lat="43.7687042914330959320068359375" lon="1.56515269540250301361083984375">
        <ele>145.600006103515625</ele>
        <time>2026-08-13T06:39:59.000Z</time>
        <extensions>
          <ns3:TrackPointExtension>
            <ns3:hr>81</ns3:hr>
            <ns3:cad>46</ns3:cad>
          </ns3:TrackPointExtension>
        </extensions>
      </trkpt>
      <trkpt lat="43.7687123380601406097412109375" lon="1.56516484916210174560546875">
        <ele>145.600006103515625</ele>
        <time>2026-08-13T06:40:00.000Z</time>
        <extensions>
          <ns3:TrackPointExtension>
            <ns3:hr>81</ns3:hr>
            <ns3:cad>48</ns3:cad>
          </ns3:TrackPointExtension>
        </extensions>
      </trkpt>
      <trkpt lat="43.768723905086517333984375" lon="1.5651733987033367156982421875">
        <ele>145.600006103515625</ele>
        <time>2026-08-13T06:40:01.000Z</time>
        <extensions>
          <ns3:TrackPointExtension>
            <ns3:hr>81</ns3:hr>
            <ns3:cad>48</ns3:cad>
          </ns3:TrackPointExtension>
        </extensions>
      </trkpt>
      <trkpt lat="43.76873354427516460418701171875" lon="1.565174572169780731201171875">
        <ele>145.600006103515625</ele>
        <time>2026-08-13T06:40:02.000Z</time>
        <extensions>
          <ns3:TrackPointExtension>
            <ns3:hr>81</ns3:hr>
            <ns3:cad>48</ns3:cad>
          </ns3:TrackPointExtension>
        </extensions>
      </trkpt>
      <trkpt lat="43.76874066889286041259765625" lon="1.565177924931049346923828125">
        <ele>145.600006103515625</ele>
        <time>2026-08-13T06:40:03.000Z</time>
        <extensions>
          <ns3:TrackPointExtension>
            <ns3:hr>80</ns3:hr>
            <ns3:cad>48</ns3:cad>
          </ns3:TrackPointExtension>
        </extensions>
      </trkpt>
      <trkpt lat="43.76874678768217563629150390625" lon="1.56518136151134967803955078125">
        <ele>145.600006103515625</ele>
        <time>2026-08-13T06:40:04.000Z</time>
        <extensions>
          <ns3:TrackPointExtension>
            <ns3:hr>81</ns3:hr>
            <ns3:cad>48</ns3:cad>
          </ns3:TrackPointExtension>
        </extensions>
      </trkpt>
      <trkpt lat="43.7687549181282520294189453125" lon="1.565188653767108917236328125">
        <ele>145.600006103515625</ele>
        <time>2026-08-13T06:40:05.000Z</time>
        <extensions>
          <ns3:TrackPointExtension>
            <ns3:hr>81</ns3:hr>
            <ns3:cad>0</ns3:cad>
          </ns3:TrackPointExtension>
        </extensions>
      </trkpt>
      <trkpt lat="43.76876271329820156097412109375" lon="1.56519561074674129486083984375">
        <ele>145.600006103515625</ele>
        <time>2026-08-13T06:40:06.000Z</time>
        <extensions>
          <ns3:TrackPointExtension>
            <ns3:hr>81</ns3:hr>
            <ns3:cad>0</ns3:cad>
          </ns3:TrackPointExtension>
        </extensions>
      </trkpt>
      <trkpt lat="43.76877042464911937713623046875" lon="1.56520105898380279541015625">
        <ele>145.600006103515625</ele>
        <time>2026-08-13T06:40:07.000Z</time>
        <extensions>
          <ns3:TrackPointExtension>
            <ns3:hr>81</ns3:hr>
            <ns3:cad>0</ns3:cad>
          </ns3:TrackPointExtension>
        </extensions>
      </trkpt>
      <trkpt lat="43.7687767110764980316162109375" lon="1.56520633958280086517333984375">
        <ele>145.399993896484375</ele>
        <time>2026-08-13T06:40:08.000Z</time>
        <extensions>
          <ns3:TrackPointExtension>
            <ns3:hr>82</ns3:hr>
            <ns3:cad>48</ns3:cad>
          </ns3:TrackPointExtension>
        </extensions>
      </trkpt>
      <trkpt lat="43.76878400333225727081298828125" lon="1.56521187163889408111572265625">
        <ele>145.399993896484375</ele>
        <time>2026-08-13T06:40:09.000Z</time>
        <extensions>
          <ns3:TrackPointExtension>
            <ns3:hr>81</ns3:hr>
            <ns3:cad>50</ns3:cad>
          </ns3:TrackPointExtension>
        </extensions>
      </trkpt>
      <trkpt lat="43.76879557035863399505615234375" lon="1.5652183257043361663818359375">
        <ele>145.1999969482421875</ele>
        <time>2026-08-13T06:40:10.000Z</time>
        <extensions>
          <ns3:TrackPointExtension>
            <ns3:hr>80</ns3:hr>
            <ns3:cad>50</ns3:cad>
          </ns3:TrackPointExtension>
        </extensions>
      </trkpt>
      <trkpt lat="43.768807388842105865478515625" lon="1.56522310338914394378662109375">
        <ele>145.1999969482421875</ele>
        <time>2026-08-13T06:40:11.000Z</time>
        <extensions>
          <ns3:TrackPointExtension>
            <ns3:hr>80</ns3:hr>
            <ns3:cad>50</ns3:cad>
          </ns3:TrackPointExtension>
        </extensions>
      </trkpt>
      <trkpt lat="43.76881786622107028961181640625" lon="1.565227210521697998046875">
        <ele>145.1999969482421875</ele>
        <time>2026-08-13T06:40:12.000Z</time>
        <extensions>
          <ns3:TrackPointExtension>
            <ns3:hr>79</ns3:hr>
            <ns3:cad>50</ns3:cad>
          </ns3:TrackPointExtension>
        </extensions>
      </trkpt>
      <trkpt lat="43.76882457174360752105712890625" lon="1.5652287192642688751220703125">
        <ele>145.1999969482421875</ele>
        <time>2026-08-13T06:40:13.000Z</time>
        <extensions>
          <ns3:TrackPointExtension>
            <ns3:hr>79</ns3:hr>
            <ns3:cad>47</ns3:cad>
          </ns3:TrackPointExtension>
        </extensions>
      </trkpt>
      <trkpt lat="43.7688327021896839141845703125" lon="1.5652320720255374908447265625">
        <ele>145.1999969482421875</ele>
        <time>2026-08-13T06:40:14.000Z</time>
        <extensions>
          <ns3:TrackPointExtension>
            <ns3:hr>79</ns3:hr>
            <ns3:cad>47</ns3:cad>
          </ns3:TrackPointExtension>
        </extensions>
      </trkpt>
      <trkpt lat="43.76883982680737972259521484375" lon="1.56524338759481906890869140625">
        <ele>145.1999969482421875</ele>
        <time>2026-08-13T06:40:15.000Z</time>
        <extensions>
          <ns3:TrackPointExtension>
            <ns3:hr>79</ns3:hr>
            <ns3:cad>48</ns3:cad>
          </ns3:TrackPointExtension>
        </extensions>
      </trkpt>
      <trkpt lat="43.76884971745312213897705078125" lon="1.56525495462119579315185546875">
        <ele>145</ele>
        <time>2026-08-13T06:40:16.000Z</time>
        <extensions>
          <ns3:TrackPointExtension>
            <ns3:hr>79</ns3:hr>
            <ns3:cad>47</ns3:cad>
          </ns3:TrackPointExtension>
        </extensions>
      </trkpt>
      <trkpt lat="43.76885927282273769378662109375" lon="1.56526065431535243988037109375">
        <ele>145</ele>
        <time>2026-08-13T06:40:17.000Z</time>
        <extensions>
          <ns3:TrackPointExtension>
            <ns3:hr>79</ns3:hr>
            <ns3:cad>47</ns3:cad>
          </ns3:TrackPointExtension>
        </extensions>
      </trkpt>
      <trkpt lat="43.76886648125946521759033203125" lon="1.56526920385658740997314453125">
        <ele>145</ele>
        <time>2026-08-13T06:40:18.000Z</time>
        <extensions>
          <ns3:TrackPointExtension>
            <ns3:hr>79</ns3:hr>
            <ns3:cad>47</ns3:cad>
          </ns3:TrackPointExtension>
        </extensions>
      </trkpt>
      <trkpt lat="43.76886807382106781005859375" lon="1.565267108380794525146484375">
        <ele>145</ele>
        <time>2026-08-13T06:40:19.000Z</time>
        <extensions>
          <ns3:TrackPointExtension>
            <ns3:hr>80</ns3:hr>
            <ns3:cad>47</ns3:cad>
          </ns3:TrackPointExtension>
        </extensions>
      </trkpt>
      <trkpt lat="43.76887343823909759521484375" lon="1.565273143351078033447265625">
        <ele>145</ele>
        <time>2026-08-13T06:40:20.000Z</time>
        <extensions>
          <ns3:TrackPointExtension>
            <ns3:hr>80</ns3:hr>
            <ns3:cad>51</ns3:cad>
          </ns3:TrackPointExtension>
        </extensions>
      </trkpt>
      <trkpt lat="43.7688856758177280426025390625" lon="1.56528797931969165802001953125">
        <ele>145</ele>
        <time>2026-08-13T06:40:21.000Z</time>
        <extensions>
          <ns3:TrackPointExtension>
            <ns3:hr>80</ns3:hr>
            <ns3:cad>51</ns3:cad>
          </ns3:TrackPointExtension>
        </extensions>
      </trkpt>
      <trkpt lat="43.76889732666313648223876953125" lon="1.565299294888973236083984375">
        <ele>145</ele>
        <time>2026-08-13T06:40:22.000Z</time>
        <extensions>
          <ns3:TrackPointExtension>
            <ns3:hr>80</ns3:hr>
            <ns3:cad>51</ns3:cad>
          </ns3:TrackPointExtension>
        </extensions>
      </trkpt>
      <trkpt lat="43.76890453509986400604248046875" lon="1.56530910171568393707275390625">
        <ele>145</ele>
        <time>2026-08-13T06:40:23.000Z</time>
        <extensions>
          <ns3:TrackPointExtension>
            <ns3:hr>80</ns3:hr>
            <ns3:cad>51</ns3:cad>
          </ns3:TrackPointExtension>
        </extensions>
      </trkpt>
      <trkpt lat="43.76891023479402065277099609375" lon="1.56531237065792083740234375">
        <ele>144.8000030517578125</ele>
        <time>2026-08-13T06:40:24.000Z</time>
        <extensions>
          <ns3:TrackPointExtension>
            <ns3:hr>81</ns3:hr>
            <ns3:cad>48</ns3:cad>
          </ns3:TrackPointExtension>
        </extensions>
      </trkpt>
      <trkpt lat="43.7689195387065410614013671875" lon="1.565322093665599822998046875">
        <ele>144.8000030517578125</ele>
        <time>2026-08-13T06:40:25.000Z</time>
        <extensions>
          <ns3:TrackPointExtension>
            <ns3:hr>81</ns3:hr>
            <ns3:cad>48</ns3:cad>
          </ns3:TrackPointExtension>
        </extensions>
      </trkpt>
      <trkpt lat="43.76893186010420322418212890625" lon="1.56533055938780307769775390625">
        <ele>144.8000030517578125</ele>
        <time>2026-08-13T06:40:26.000Z</time>
        <extensions>
          <ns3:TrackPointExtension>
            <ns3:hr>82</ns3:hr>
            <ns3:cad>47</ns3:cad>
          </ns3:TrackPointExtension>
        </extensions>
      </trkpt>
      <trkpt lat="43.76894183456897735595703125" lon="1.56534028239548206329345703125">
        <ele>144.8000030517578125</ele>
        <time>2026-08-13T06:40:27.000Z</time>
        <extensions>
          <ns3:TrackPointExtension>
            <ns3:hr>83</ns3:hr>
            <ns3:cad>47</ns3:cad>
          </ns3:TrackPointExtension>
        </extensions>
      </trkpt>
      <trkpt lat="43.7689497135579586029052734375" lon="1.56534883193671703338623046875">
        <ele>144.8000030517578125</ele>
        <time>2026-08-13T06:40:28.000Z</time>
        <extensions>
          <ns3:TrackPointExtension>
            <ns3:hr>83</ns3:hr>
            <ns3:cad>47</ns3:cad>
          </ns3:TrackPointExtension>
        </extensions>
      </trkpt>
      <trkpt lat="43.76895767636597156524658203125" lon="1.5653546154499053955078125">
        <ele>144.8000030517578125</ele>
        <time>2026-08-13T06:40:29.000Z</time>
        <extensions>
          <ns3:TrackPointExtension>
            <ns3:hr>84</ns3:hr>
            <ns3:cad>46</ns3:cad>
          </ns3:TrackPointExtension>
        </extensions>
      </trkpt>
      <trkpt lat="43.76896672882139682769775390625" lon="1.565366685390472412109375">
        <ele>144.8000030517578125</ele>
        <time>2026-08-13T06:40:30.000Z</time>
        <extensions>
          <ns3:TrackPointExtension>
            <ns3:hr>84</ns3:hr>
            <ns3:cad>46</ns3:cad>
          </ns3:TrackPointExtension>
        </extensions>
      </trkpt>
      <trkpt lat="43.7689768709242343902587890625" lon="1.5653795935213565826416015625">
        <ele>144.600006103515625</ele>
        <time>2026-08-13T06:40:31.000Z</time>
        <extensions>
          <ns3:TrackPointExtension>
            <ns3:hr>84</ns3:hr>
            <ns3:cad>47</ns3:cad>
          </ns3:TrackPointExtension>
        </extensions>
      </trkpt>
      <trkpt lat="43.76898474991321563720703125" lon="1.56538889743387699127197265625">
        <ele>144.600006103515625</ele>
        <time>2026-08-13T06:40:32.000Z</time>
        <extensions>
          <ns3:TrackPointExtension>
            <ns3:hr>84</ns3:hr>
            <ns3:cad>47</ns3:cad>
          </ns3:TrackPointExtension>
        </extensions>
      </trkpt>
      <trkpt lat="43.7689922936260700225830078125" lon="1.565389148890972137451171875">
        <ele>144.600006103515625</ele>
        <time>2026-08-13T06:40:33.000Z</time>
        <extensions>
          <ns3:TrackPointExtension>
            <ns3:hr>84</ns3:hr>
            <ns3:cad>47</ns3:cad>
          </ns3:TrackPointExtension>
        </extensions>
      </trkpt>
      <trkpt lat="43.768998496234416961669921875" lon="1.56539476476609706878662109375">
        <ele>144.8000030517578125</ele>
        <time>2026-08-13T06:40:34.000Z</time>
        <extensions>
          <ns3:TrackPointExtension>
            <ns3:hr>83</ns3:hr>
            <ns3:cad>48</ns3:cad>
          </ns3:TrackPointExtension>
        </extensions>
      </trkpt>
      <trkpt lat="43.76900377683341503143310546875" lon="1.56539610587060451507568359375">
        <ele>144.8000030517578125</ele>
        <time>2026-08-13T06:40:35.000Z</time>
        <extensions>
          <ns3:TrackPointExtension>
            <ns3:hr>83</ns3:hr>
            <ns3:cad>48</ns3:cad>
          </ns3:TrackPointExtension>
        </extensions>
      </trkpt>
      <trkpt lat="43.7689979933202266693115234375" lon="1.56539744697511196136474609375">
        <ele>144.8000030517578125</ele>
        <time>2026-08-13T06:40:36.000Z</time>
        <extensions>
          <ns3:TrackPointExtension>
            <ns3:hr>83</ns3:hr>
            <ns3:cad>48</ns3:cad>
          </ns3:TrackPointExtension>
        </extensions>
      </trkpt>
      <trkpt lat="43.7689988315105438232421875" lon="1.56540113501250743865966796875">
        <ele>144.8000030517578125</ele>
        <time>2026-08-13T06:40:37.000Z</time>
        <extensions>
          <ns3:TrackPointExtension>
            <ns3:hr>83</ns3:hr>
            <ns3:cad>45</ns3:cad>
          </ns3:TrackPointExtension>
        </extensions>
      </trkpt>
      <trkpt lat="43.7690010108053684234619140625" lon="1.56541286967694759368896484375">
        <ele>144.8000030517578125</ele>
        <time>2026-08-13T06:40:38.000Z</time>
        <extensions>
          <ns3:TrackPointExtension>
            <ns3:hr>83</ns3:hr>
            <ns3:cad>0</ns3:cad>
          </ns3:TrackPointExtension>
        </extensions>
      </trkpt>
      <trkpt lat="43.76900528557598590850830078125" lon="1.56542242504656314849853515625">
        <ele>144.8000030517578125</ele>
        <time>2026-08-13T06:40:39.000Z</time>
        <extensions>
          <ns3:TrackPointExtension>
            <ns3:hr>83</ns3:hr>
            <ns3:cad>0</ns3:cad>
          </ns3:TrackPointExtension>
        </extensions>
      </trkpt>
      <trkpt lat="43.76900947652757167816162109375" lon="1.56543483026325702667236328125">
        <ele>144.8000030517578125</ele>
        <time>2026-08-13T06:40:40.000Z</time>
        <extensions>
          <ns3:TrackPointExtension>
            <ns3:hr>84</ns3:hr>
            <ns3:cad>0</ns3:cad>
          </ns3:TrackPointExtension>
        </extensions>
      </trkpt>
      <trkpt lat="43.76902095973491668701171875" lon="1.5654513426125049591064453125">
        <ele>144.8000030517578125</ele>
        <time>2026-08-13T06:40:41.000Z</time>
        <extensions>
          <ns3:TrackPointExtension>
            <ns3:hr>84</ns3:hr>
            <ns3:cad>20</ns3:cad>
          </ns3:TrackPointExtension>
        </extensions>
      </trkpt>
      <trkpt lat="43.76902590505778789520263671875" lon="1.5654587186872959136962890625">
        <ele>144.8000030517578125</ele>
        <time>2026-08-13T06:40:42.000Z</time>
        <extensions>
          <ns3:TrackPointExtension>
            <ns3:hr>85</ns3:hr>
            <ns3:cad>40</ns3:cad>
          </ns3:TrackPointExtension>
        </extensions>
      </trkpt>
      <trkpt lat="43.76903026364743709564208984375" lon="1.56547020189464092254638671875">
        <ele>144.8000030517578125</ele>
        <time>2026-08-13T06:40:43.000Z</time>
        <extensions>
          <ns3:TrackPointExtension>
            <ns3:hr>85</ns3:hr>
            <ns3:cad>40</ns3:cad>
          </ns3:TrackPointExtension>
        </extensions>
      </trkpt>
      <trkpt lat="43.7690345384180545806884765625" lon="1.5654791705310344696044921875">
        <ele>145</ele>
        <time>2026-08-13T06:40:44.000Z</time>
        <extensions>
          <ns3:TrackPointExtension>
            <ns3:hr>85</ns3:hr>
            <ns3:cad>47</ns3:cad>
          </ns3:TrackPointExtension>
        </extensions>
      </trkpt>
      <trkpt lat="43.7690442614257335662841796875" lon="1.56548880971968173980712890625">
        <ele>145</ele>
        <time>2026-08-13T06:40:45.000Z</time>
        <extensions>
          <ns3:TrackPointExtension>
            <ns3:hr>85</ns3:hr>
            <ns3:cad>47</ns3:cad>
          </ns3:TrackPointExtension>
        </extensions>
      </trkpt>
      <trkpt lat="43.76905054785311222076416015625" lon="1.56550037674605846405029296875">
        <ele>145.1999969482421875</ele>
        <time>2026-08-13T06:40:46.000Z</time>
        <extensions>
          <ns3:TrackPointExtension>
            <ns3:hr>84</ns3:hr>
            <ns3:cad>47</ns3:cad>
          </ns3:TrackPointExtension>
        </extensions>
      </trkpt>
      <trkpt lat="43.7690583430230617523193359375" lon="1.565512530505657196044921875">
        <ele>145.1999969482421875</ele>
        <time>2026-08-13T06:40:47.000Z</time>
        <extensions>
          <ns3:TrackPointExtension>
            <ns3:hr>84</ns3:hr>
            <ns3:cad>46</ns3:cad>
          </ns3:TrackPointExtension>
        </extensions>
      </trkpt>
      <trkpt lat="43.76906496472656726837158203125" lon="1.56552334316074848175048828125">
        <ele>145.399993896484375</ele>
        <time>2026-08-13T06:40:48.000Z</time>
        <extensions>
          <ns3:TrackPointExtension>
            <ns3:hr>84</ns3:hr>
            <ns3:cad>45</ns3:cad>
          </ns3:TrackPointExtension>
        </extensions>
      </trkpt>
      <trkpt lat="43.76907016150653362274169921875" lon="1.56552954576909542083740234375">
        <ele>145.399993896484375</ele>
        <time>2026-08-13T06:40:49.000Z</time>
        <extensions>
          <ns3:TrackPointExtension>
            <ns3:hr>83</ns3:hr>
            <ns3:cad>45</ns3:cad>
          </ns3:TrackPointExtension>
        </extensions>
      </trkpt>
      <trkpt lat="43.76907636411488056182861328125" lon="1.56553340144455432891845703125">
        <ele>145.399993896484375</ele>
        <time>2026-08-13T06:40:50.000Z</time>
        <extensions>
          <ns3:TrackPointExtension>
            <ns3:hr>83</ns3:hr>
            <ns3:cad>44</ns3:cad>
          </ns3:TrackPointExtension>
        </extensions>
      </trkpt>
      <trkpt lat="43.76908357255160808563232421875" lon="1.56553776003420352935791015625">
        <ele>145.399993896484375</ele>
        <time>2026-08-13T06:40:51.000Z</time>
        <extensions>
          <ns3:TrackPointExtension>
            <ns3:hr>82</ns3:hr>
            <ns3:cad>44</ns3:cad>
          </ns3:TrackPointExtension>
        </extensions>
      </trkpt>
      <trkpt lat="43.76909815706312656402587890625" lon="1.5655405260622501373291015625">
        <ele>145.600006103515625</ele>
        <time>2026-08-13T06:40:52.000Z</time>
        <extensions>
          <ns3:TrackPointExtension>
            <ns3:hr>82</ns3:hr>
            <ns3:cad>44</ns3:cad>
          </ns3:TrackPointExtension>
        </extensions>
      </trkpt>
      <trkpt lat="43.76911072991788387298583984375" lon="1.5655465610325336456298828125">
        <ele>145.600006103515625</ele>
        <time>2026-08-13T06:40:53.000Z</time>
        <extensions>
          <ns3:TrackPointExtension>
            <ns3:hr>82</ns3:hr>
            <ns3:cad>44</ns3:cad>
          </ns3:TrackPointExtension>
        </extensions>
      </trkpt>
      <trkpt lat="43.769120872020721435546875" lon="1.5655472315847873687744140625">
        <ele>145.600006103515625</ele>
        <time>2026-08-13T06:40:54.000Z</time>
        <extensions>
          <ns3:TrackPointExtension>
            <ns3:hr>82</ns3:hr>
            <ns3:cad>44</ns3:cad>
          </ns3:TrackPointExtension>
        </extensions>
      </trkpt>
      <trkpt lat="43.7691274099051952362060546875" lon="1.5655530989170074462890625">
        <ele>145.600006103515625</ele>
        <time>2026-08-13T06:40:55.000Z</time>
        <extensions>
          <ns3:TrackPointExtension>
            <ns3:hr>82</ns3:hr>
            <ns3:cad>44</ns3:cad>
          </ns3:TrackPointExtension>
        </extensions>
      </trkpt>
      <trkpt lat="43.76913218759000301361083984375" lon="1.56556583940982818603515625">
        <ele>145.600006103515625</ele>
        <time>2026-08-13T06:40:56.000Z</time>
        <extensions>
          <ns3:TrackPointExtension>
            <ns3:hr>82</ns3:hr>
            <ns3:cad>44</ns3:cad>
          </ns3:TrackPointExtension>
        </extensions>
      </trkpt>
      <trkpt lat="43.7691409885883331298828125" lon="1.5655774064362049102783203125">
        <ele>145.600006103515625</ele>
        <time>2026-08-13T06:40:57.000Z</time>
        <extensions>
          <ns3:TrackPointExtension>
            <ns3:hr>82</ns3:hr>
            <ns3:cad>44</ns3:cad>
          </ns3:TrackPointExtension>
        </extensions>
      </trkpt>
      <trkpt lat="43.76914727501571178436279296875" lon="1.56558302231132984161376953125">
        <ele>145.600006103515625</ele>
        <time>2026-08-13T06:40:58.000Z</time>
        <extensions>
          <ns3:TrackPointExtension>
            <ns3:hr>82</ns3:hr>
            <ns3:cad>44</ns3:cad>
          </ns3:TrackPointExtension>
        </extensions>
      </trkpt>
      <trkpt lat="43.7691555730998516082763671875" lon="1.5655879676342010498046875">
        <ele>145.600006103515625</ele>
        <time>2026-08-13T06:40:59.000Z</time>
        <extensions>
          <ns3:TrackPointExtension>
            <ns3:hr>82</ns3:hr>
            <ns3:cad>44</ns3:cad>
          </ns3:TrackPointExtension>
        </extensions>
      </trkpt>
      <trkpt lat="43.7691656313836574554443359375" lon="1.56559593044221401214599609375">
        <ele>145.8000030517578125</ele>
        <time>2026-08-13T06:41:00.000Z</time>
        <extensions>
          <ns3:TrackPointExtension>
            <ns3:hr>83</ns3:hr>
            <ns3:cad>0</ns3:cad>
          </ns3:TrackPointExtension>
        </extensions>
      </trkpt>
      <trkpt lat="43.769176192581653594970703125" lon="1.56560003757476806640625">
        <ele>145.8000030517578125</ele>
        <time>2026-08-13T06:41:01.000Z</time>
        <extensions>
          <ns3:TrackPointExtension>
            <ns3:hr>83</ns3:hr>
            <ns3:cad>0</ns3:cad>
          </ns3:TrackPointExtension>
        </extensions>
      </trkpt>
      <trkpt lat="43.76918055117130279541015625" lon="1.56560364179313182830810546875">
        <ele>145.8000030517578125</ele>
        <time>2026-08-13T06:41:02.000Z</time>
        <extensions>
          <ns3:TrackPointExtension>
            <ns3:hr>82</ns3:hr>
            <ns3:cad>0</ns3:cad>
          </ns3:TrackPointExtension>
        </extensions>
      </trkpt>
      <trkpt lat="43.76918725669384002685546875" lon="1.56560163013637065887451171875">
        <ele>146</ele>
        <time>2026-08-13T06:41:03.000Z</time>
        <extensions>
          <ns3:TrackPointExtension>
            <ns3:hr>83</ns3:hr>
            <ns3:cad>0</ns3:cad>
          </ns3:TrackPointExtension>
        </extensions>
      </trkpt>
      <trkpt lat="43.76919605769217014312744140625" lon="1.56560917384922504425048828125">
        <ele>146</ele>
        <time>2026-08-13T06:41:04.000Z</time>
        <extensions>
          <ns3:TrackPointExtension>
            <ns3:hr>83</ns3:hr>
            <ns3:cad>0</ns3:cad>
          </ns3:TrackPointExtension>
        </extensions>
      </trkpt>
      <trkpt lat="43.76920410431921482086181640625" lon="1.565613783895969390869140625">
        <ele>146</ele>
        <time>2026-08-13T06:41:05.000Z</time>
        <extensions>
          <ns3:TrackPointExtension>
            <ns3:hr>84</ns3:hr>
            <ns3:cad>0</ns3:cad>
          </ns3:TrackPointExtension>
        </extensions>
      </trkpt>
      <trkpt lat="43.7692134082317352294921875" lon="1.56561889685690402984619140625">
        <ele>146</ele>
        <time>2026-08-13T06:41:06.000Z</time>
        <extensions>
          <ns3:TrackPointExtension>
            <ns3:hr>84</ns3:hr>
            <ns3:cad>0</ns3:cad>
          </ns3:TrackPointExtension>
        </extensions>
      </trkpt>
      <trkpt lat="43.7692219577729701995849609375" lon="1.56562241725623607635498046875">
        <ele>146</ele>
        <time>2026-08-13T06:41:07.000Z</time>
        <extensions>
          <ns3:TrackPointExtension>
            <ns3:hr>84</ns3:hr>
            <ns3:cad>0</ns3:cad>
          </ns3:TrackPointExtension>
        </extensions>
      </trkpt>
      <trkpt lat="43.76923042349517345428466796875" lon="1.56563180498778820037841796875">
        <ele>146.1999969482421875</ele>
        <time>2026-08-13T06:41:08.000Z</time>
        <extensions>
          <ns3:TrackPointExtension>
            <ns3:hr>84</ns3:hr>
            <ns3:cad>0</ns3:cad>
          </ns3:TrackPointExtension>
        </extensions>
      </trkpt>
      <trkpt lat="43.76923914067447185516357421875" lon="1.5656362473964691162109375">
        <ele>146.1999969482421875</ele>
        <time>2026-08-13T06:41:09.000Z</time>
        <extensions>
          <ns3:TrackPointExtension>
            <ns3:hr>84</ns3:hr>
            <ns3:cad>0</ns3:cad>
          </ns3:TrackPointExtension>
        </extensions>
      </trkpt>
      <trkpt lat="43.76925154589116573333740234375" lon="1.5656442940235137939453125">
        <ele>146.1999969482421875</ele>
        <time>2026-08-13T06:41:10.000Z</time>
        <extensions>
          <ns3:TrackPointExtension>
            <ns3:hr>85</ns3:hr>
            <ns3:cad>45</ns3:cad>
          </ns3:TrackPointExtension>
        </extensions>
      </trkpt>
      <trkpt lat="43.76925858668982982635498046875" lon="1.56564605422317981719970703125">
        <ele>146.399993896484375</ele>
        <time>2026-08-13T06:41:11.000Z</time>
        <extensions>
          <ns3:TrackPointExtension>
            <ns3:hr>85</ns3:hr>
            <ns3:cad>45</ns3:cad>
          </ns3:TrackPointExtension>
        </extensions>
      </trkpt>
      <trkpt lat="43.769266717135906219482421875" lon="1.565649323165416717529296875">
        <ele>146.399993896484375</ele>
        <time>2026-08-13T06:41:12.000Z</time>
        <extensions>
          <ns3:TrackPointExtension>
            <ns3:hr>85</ns3:hr>
            <ns3:cad>45</ns3:cad>
          </ns3:TrackPointExtension>
        </extensions>
      </trkpt>
      <trkpt lat="43.7692719139158725738525390625" lon="1.5656508319079875946044921875">
        <ele>146.399993896484375</ele>
        <time>2026-08-13T06:41:13.000Z</time>
        <extensions>
          <ns3:TrackPointExtension>
            <ns3:hr>85</ns3:hr>
            <ns3:cad>43</ns3:cad>
          </ns3:TrackPointExtension>
        </extensions>
      </trkpt>
      <trkpt lat="43.7692792899906635284423828125" lon="1.565656028687953948974609375">
        <ele>146.600006103515625</ele>
        <time>2026-08-13T06:41:14.000Z</time>
        <extensions>
          <ns3:TrackPointExtension>
            <ns3:hr>86</ns3:hr>
            <ns3:cad>42</ns3:cad>
          </ns3:TrackPointExtension>
        </extensions>
      </trkpt>
      <trkpt lat="43.76928607933223247528076171875" lon="1.5656615607440471649169921875">
        <ele>146.600006103515625</ele>
        <time>2026-08-13T06:41:15.000Z</time>
        <extensions>
          <ns3:TrackPointExtension>
            <ns3:hr>86</ns3:hr>
            <ns3:cad>42</ns3:cad>
          </ns3:TrackPointExtension>
        </extensions>
      </trkpt>
      <trkpt lat="43.76929647289216518402099609375" lon="1.56566441059112548828125">
        <ele>146.600006103515625</ele>
        <time>2026-08-13T06:41:16.000Z</time>
        <extensions>
          <ns3:TrackPointExtension>
            <ns3:hr>86</ns3:hr>
            <ns3:cad>42</ns3:cad>
          </ns3:TrackPointExtension>
        </extensions>
      </trkpt>
      <trkpt lat="43.76930284313857555389404296875" lon="1.565666757524013519287109375">
        <ele>146.8000030517578125</ele>
        <time>2026-08-13T06:41:17.000Z</time>
        <extensions>
          <ns3:TrackPointExtension>
            <ns3:hr>86</ns3:hr>
            <ns3:cad>42</ns3:cad>
          </ns3:TrackPointExtension>
        </extensions>
      </trkpt>
      <trkpt lat="43.76931038685142993927001953125" lon="1.56566985882818698883056640625">
        <ele>146.8000030517578125</ele>
        <time>2026-08-13T06:41:18.000Z</time>
        <extensions>
          <ns3:TrackPointExtension>
            <ns3:hr>86</ns3:hr>
            <ns3:cad>43</ns3:cad>
          </ns3:TrackPointExtension>
        </extensions>
      </trkpt>
      <trkpt lat="43.76932312734425067901611328125" lon="1.5656756423413753509521484375">
        <ele>146.8000030517578125</ele>
        <time>2026-08-13T06:41:19.000Z</time>
        <extensions>
          <ns3:TrackPointExtension>
            <ns3:hr>87</ns3:hr>
            <ns3:cad>43</ns3:cad>
          </ns3:TrackPointExtension>
        </extensions>
      </trkpt>
      <trkpt lat="43.76932731829583644866943359375" lon="1.565682850778102874755859375">
        <ele>147</ele>
        <time>2026-08-13T06:41:20.000Z</time>
        <extensions>
          <ns3:TrackPointExtension>
            <ns3:hr>87</ns3:hr>
            <ns3:cad>43</ns3:cad>
          </ns3:TrackPointExtension>
        </extensions>
      </trkpt>
      <trkpt lat="43.76933033578097820281982421875" lon="1.5656883828341960906982421875">
        <ele>147</ele>
        <time>2026-08-13T06:41:21.000Z</time>
        <extensions>
          <ns3:TrackPointExtension>
            <ns3:hr>87</ns3:hr>
            <ns3:cad>43</ns3:cad>
          </ns3:TrackPointExtension>
        </extensions>
      </trkpt>
      <trkpt lat="43.7693356163799762725830078125" lon="1.56568896956741809844970703125">
        <ele>147</ele>
        <time>2026-08-13T06:41:22.000Z</time>
        <extensions>
          <ns3:TrackPointExtension>
            <ns3:hr>87</ns3:hr>
            <ns3:cad>43</ns3:cad>
          </ns3:TrackPointExtension>
        </extensions>
      </trkpt>
      <trkpt lat="43.76934760250151157379150390625" lon="1.56569131650030612945556640625">
        <ele>147</ele>
        <time>2026-08-13T06:41:23.000Z</time>
        <extensions>
          <ns3:TrackPointExtension>
            <ns3:hr>87</ns3:hr>
            <ns3:cad>43</ns3:cad>
          </ns3:TrackPointExtension>
        </extensions>
      </trkpt>
      <trkpt lat="43.76935045234858989715576171875" lon="1.56569567508995532989501953125">
        <ele>147.1999969482421875</ele>
        <time>2026-08-13T06:41:24.000Z</time>
        <extensions>
          <ns3:TrackPointExtension>
            <ns3:hr>87</ns3:hr>
            <ns3:cad>43</ns3:cad>
          </ns3:TrackPointExtension>
        </extensions>
      </trkpt>
      <trkpt lat="43.7693600915372371673583984375" lon="1.56570221297442913055419921875">
        <ele>147.1999969482421875</ele>
        <time>2026-08-13T06:41:25.000Z</time>
        <extensions>
          <ns3:TrackPointExtension>
            <ns3:hr>88</ns3:hr>
            <ns3:cad>43</ns3:cad>
          </ns3:TrackPointExtension>
        </extensions>
      </trkpt>
      <trkpt lat="43.76936922781169414520263671875" lon="1.5656994469463825225830078125">
        <ele>147.399993896484375</ele>
        <time>2026-08-13T06:41:26.000Z</time>
        <extensions>
          <ns3:TrackPointExtension>
            <ns3:hr>88</ns3:hr>
            <ns3:cad>43</ns3:cad>
          </ns3:TrackPointExtension>
        </extensions>
      </trkpt>
      <trkpt lat="43.769376017153263092041015625" lon="1.5657044760882854461669921875">
        <ele>147.399993896484375</ele>
        <time>2026-08-13T06:41:27.000Z</time>
        <extensions>
          <ns3:TrackPointExtension>
            <ns3:hr>88</ns3:hr>
            <ns3:cad>43</ns3:cad>
          </ns3:TrackPointExtension>
        </extensions>
      </trkpt>
      <trkpt lat="43.76939068548381328582763671875" lon="1.56570824794471263885498046875">
        <ele>147.600006103515625</ele>
        <time>2026-08-13T06:41:28.000Z</time>
        <extensions>
          <ns3:TrackPointExtension>
            <ns3:hr>88</ns3:hr>
            <ns3:cad>43</ns3:cad>
          </ns3:TrackPointExtension>
        </extensions>
      </trkpt>
      <trkpt lat="43.76939621753990650177001953125" lon="1.56571126542985439300537109375">
        <ele>147.600006103515625</ele>
        <time>2026-08-13T06:41:29.000Z</time>
        <extensions>
          <ns3:TrackPointExtension>
            <ns3:hr>89</ns3:hr>
            <ns3:cad>0</ns3:cad>
          </ns3:TrackPointExtension>
        </extensions>
      </trkpt>
      <trkpt lat="43.7694040127098560333251953125" lon="1.56571327708661556243896484375">
        <ele>147.8000030517578125</ele>
        <time>2026-08-13T06:41:30.000Z</time>
        <extensions>
          <ns3:TrackPointExtension>
            <ns3:hr>89</ns3:hr>
            <ns3:cad>0</ns3:cad>
          </ns3:TrackPointExtension>
        </extensions>
      </trkpt>
      <trkpt lat="43.76941197551786899566650390625" lon="1.56571327708661556243896484375">
        <ele>148</ele>
        <time>2026-08-13T06:41:31.000Z</time>
        <extensions>
          <ns3:TrackPointExtension>
            <ns3:hr>89</ns3:hr>
            <ns3:cad>0</ns3:cad>
          </ns3:TrackPointExtension>
        </extensions>
      </trkpt>
      <trkpt lat="43.76941650174558162689208984375" lon="1.56571629457175731658935546875">
        <ele>148</ele>
        <time>2026-08-13T06:41:32.000Z</time>
        <extensions>
          <ns3:TrackPointExtension>
            <ns3:hr>90</ns3:hr>
            <ns3:cad>0</ns3:cad>
          </ns3:TrackPointExtension>
        </extensions>
      </trkpt>
      <trkpt lat="43.76942329108715057373046875" lon="1.56571797095239162445068359375">
        <ele>148.1999969482421875</ele>
        <time>2026-08-13T06:41:33.000Z</time>
        <extensions>
          <ns3:TrackPointExtension>
            <ns3:hr>90</ns3:hr>
            <ns3:cad>0</ns3:cad>
          </ns3:TrackPointExtension>
        </extensions>
      </trkpt>
      <trkpt lat="43.76943326555192470550537109375" lon="1.565720401704311370849609375">
        <ele>148.1999969482421875</ele>
        <time>2026-08-13T06:41:34.000Z</time>
        <extensions>
          <ns3:TrackPointExtension>
            <ns3:hr>91</ns3:hr>
            <ns3:cad>0</ns3:cad>
          </ns3:TrackPointExtension>
        </extensions>
      </trkpt>
      <trkpt lat="43.7694413959980010986328125" lon="1.5657242573797702789306640625">
        <ele>148.399993896484375</ele>
        <time>2026-08-13T06:41:35.000Z</time>
        <extensions>
          <ns3:TrackPointExtension>
            <ns3:hr>91</ns3:hr>
            <ns3:cad>0</ns3:cad>
          </ns3:TrackPointExtension>
        </extensions>
      </trkpt>
      <trkpt lat="43.7694482691586017608642578125" lon="1.56572819687426090240478515625">
        <ele>148.399993896484375</ele>
        <time>2026-08-13T06:41:36.000Z</time>
        <extensions>
          <ns3:TrackPointExtension>
            <ns3:hr>92</ns3:hr>
            <ns3:cad>0</ns3:cad>
          </ns3:TrackPointExtension>
        </extensions>
      </trkpt>
      <trkpt lat="43.76946226693689823150634765625" lon="1.56573750078678131103515625">
        <ele>148.399993896484375</ele>
        <time>2026-08-13T06:41:37.000Z</time>
        <extensions>
          <ns3:TrackPointExtension>
            <ns3:hr>92</ns3:hr>
            <ns3:cad>0</ns3:cad>
          </ns3:TrackPointExtension>
        </extensions>
      </trkpt>
      <trkpt lat="43.7694744206964969635009765625" lon="1.5657420270144939422607421875">
        <ele>148.399993896484375</ele>
        <time>2026-08-13T06:41:38.000Z</time>
        <extensions>
          <ns3:TrackPointExtension>
            <ns3:hr>93</ns3:hr>
            <ns3:cad>0</ns3:cad>
          </ns3:TrackPointExtension>
        </extensions>
      </trkpt>
      <trkpt lat="43.76948053948581218719482421875" lon="1.56574579887092113494873046875">
        <ele>148.600006103515625</ele>
        <time>2026-08-13T06:41:39.000Z</time>
        <extensions>
          <ns3:TrackPointExtension>
            <ns3:hr>93</ns3:hr>
            <ns3:cad>0</ns3:cad>
          </ns3:TrackPointExtension>
        </extensions>
      </trkpt>
      <trkpt lat="43.76948523335158824920654296875" lon="1.565749235451221466064453125">
        <ele>148.600006103515625</ele>
        <time>2026-08-13T06:41:40.000Z</time>
        <extensions>
          <ns3:TrackPointExtension>
            <ns3:hr>94</ns3:hr>
            <ns3:cad>42</ns3:cad>
          </ns3:TrackPointExtension>
        </extensions>
      </trkpt>
      <trkpt lat="43.76949571073055267333984375" lon="1.56574814580380916595458984375">
        <ele>148.8000030517578125</ele>
        <time>2026-08-13T06:41:41.000Z</time>
        <extensions>
          <ns3:TrackPointExtension>
            <ns3:hr>94</ns3:hr>
            <ns3:cad>42</ns3:cad>
          </ns3:TrackPointExtension>
        </extensions>
      </trkpt>
      <trkpt lat="43.7695049308240413665771484375" lon="1.56574822962284088134765625">
        <ele>148.8000030517578125</ele>
        <time>2026-08-13T06:41:42.000Z</time>
        <extensions>
          <ns3:TrackPointExtension>
            <ns3:hr>95</ns3:hr>
            <ns3:cad>42</ns3:cad>
          </ns3:TrackPointExtension>
        </extensions>
      </trkpt>
      <trkpt lat="43.76951322890818119049072265625" lon="1.56575024127960205078125">
        <ele>149</ele>
        <time>2026-08-13T06:41:43.000Z</time>
        <extensions>
          <ns3:TrackPointExtension>
            <ns3:hr>95</ns3:hr>
            <ns3:cad>40</ns3:cad>
          </ns3:TrackPointExtension>
        </extensions>
      </trkpt>
      <trkpt lat="43.76951255835592746734619140625" lon="1.56574227847158908843994140625">
        <ele>149</ele>
        <time>2026-08-13T06:41:44.000Z</time>
        <extensions>
          <ns3:TrackPointExtension>
            <ns3:hr>96</ns3:hr>
            <ns3:cad>40</ns3:cad>
          </ns3:TrackPointExtension>
        </extensions>
      </trkpt>
      <trkpt lat="43.7695233710110187530517578125" lon="1.5657356567680835723876953125">
        <ele>149.1999969482421875</ele>
        <time>2026-08-13T06:41:45.000Z</time>
        <extensions>
          <ns3:TrackPointExtension>
            <ns3:hr>96</ns3:hr>
            <ns3:cad>40</ns3:cad>
          </ns3:TrackPointExtension>
        </extensions>
      </trkpt>
      <trkpt lat="43.769529573619365692138671875" lon="1.5657400153577327728271484375">
        <ele>149.1999969482421875</ele>
        <time>2026-08-13T06:41:46.000Z</time>
        <extensions>
          <ns3:TrackPointExtension>
            <ns3:hr>97</ns3:hr>
            <ns3:cad>40</ns3:cad>
          </ns3:TrackPointExtension>
        </extensions>
      </trkpt>
      <trkpt lat="43.76953736878931522369384765625" lon="1.56574479304254055023193359375">
        <ele>149.399993896484375</ele>
        <time>2026-08-13T06:41:47.000Z</time>
        <extensions>
          <ns3:TrackPointExtension>
            <ns3:hr>97</ns3:hr>
            <ns3:cad>40</ns3:cad>
          </ns3:TrackPointExtension>
        </extensions>
      </trkpt>
      <trkpt lat="43.76954667270183563232421875" lon="1.56574814580380916595458984375">
        <ele>149.399993896484375</ele>
        <time>2026-08-13T06:41:48.000Z</time>
        <extensions>
          <ns3:TrackPointExtension>
            <ns3:hr>97</ns3:hr>
            <ns3:cad>40</ns3:cad>
          </ns3:TrackPointExtension>
        </extensions>
      </trkpt>
      <trkpt lat="43.76955396495759487152099609375" lon="1.56575225293636322021484375">
        <ele>149.600006103515625</ele>
        <time>2026-08-13T06:41:49.000Z</time>
        <extensions>
          <ns3:TrackPointExtension>
            <ns3:hr>98</ns3:hr>
            <ns3:cad>40</ns3:cad>
          </ns3:TrackPointExtension>
        </extensions>
      </trkpt>
      <trkpt lat="43.76955614425241947174072265625" lon="1.5657517500221729278564453125">
        <ele>149.8000030517578125</ele>
        <time>2026-08-13T06:41:50.000Z</time>
        <extensions>
          <ns3:TrackPointExtension>
            <ns3:hr>98</ns3:hr>
            <ns3:cad>40</ns3:cad>
          </ns3:TrackPointExtension>
        </extensions>
      </trkpt>
      <trkpt lat="43.76955983228981494903564453125" lon="1.5657514147460460662841796875">
        <ele>149.8000030517578125</ele>
        <time>2026-08-13T06:41:51.000Z</time>
        <extensions>
          <ns3:TrackPointExtension>
            <ns3:hr>99</ns3:hr>
            <ns3:cad>0</ns3:cad>
          </ns3:TrackPointExtension>
        </extensions>
      </trkpt>
      <trkpt lat="43.7695693038403987884521484375" lon="1.565755940973758697509765625">
        <ele>150</ele>
        <time>2026-08-13T06:41:52.000Z</time>
        <extensions>
          <ns3:TrackPointExtension>
            <ns3:hr>100</ns3:hr>
            <ns3:cad>0</ns3:cad>
          </ns3:TrackPointExtension>
        </extensions>
      </trkpt>
      <trkpt lat="43.7695780210196971893310546875" lon="1.565752923488616943359375">
        <ele>150</ele>
        <time>2026-08-13T06:41:53.000Z</time>
        <extensions>
          <ns3:TrackPointExtension>
            <ns3:hr>100</ns3:hr>
            <ns3:cad>72</ns3:cad>
          </ns3:TrackPointExtension>
        </extensions>
      </trkpt>
      <trkpt lat="43.76958556473255157470703125" lon="1.56575485132634639739990234375">
        <ele>150</ele>
        <time>2026-08-13T06:41:54.000Z</time>
        <extensions>
          <ns3:TrackPointExtension>
            <ns3:hr>100</ns3:hr>
            <ns3:cad>72</ns3:cad>
          </ns3:TrackPointExtension>
        </extensions>
      </trkpt>
      <trkpt lat="43.76958816312253475189208984375" lon="1.5657594613730907440185546875">
        <ele>150</ele>
        <time>2026-08-13T06:41:55.000Z</time>
        <extensions>
          <ns3:TrackPointExtension>
            <ns3:hr>100</ns3:hr>
            <ns3:cad>72</ns3:cad>
          </ns3:TrackPointExtension>
        </extensions>
      </trkpt>
      <trkpt lat="43.76959067769348621368408203125" lon="1.56576474197208881378173828125">
        <ele>150</ele>
        <time>2026-08-13T06:41:56.000Z</time>
        <extensions>
          <ns3:TrackPointExtension>
            <ns3:hr>100</ns3:hr>
            <ns3:cad>72</ns3:cad>
          </ns3:TrackPointExtension>
        </extensions>
      </trkpt>
      <trkpt lat="43.76959453336894512176513671875" lon="1.56576826237142086029052734375">
        <ele>150.1999969482421875</ele>
        <time>2026-08-13T06:41:57.000Z</time>
        <extensions>
          <ns3:TrackPointExtension>
            <ns3:hr>101</ns3:hr>
            <ns3:cad>0</ns3:cad>
          </ns3:TrackPointExtension>
        </extensions>
      </trkpt>
      <trkpt lat="43.7696011550724506378173828125" lon="1.56576658599078655242919921875">
        <ele>150.1999969482421875</ele>
        <time>2026-08-13T06:41:58.000Z</time>
        <extensions>
          <ns3:TrackPointExtension>
            <ns3:hr>101</ns3:hr>
            <ns3:cad>0</ns3:cad>
          </ns3:TrackPointExtension>
        </extensions>
      </trkpt>
      <trkpt lat="43.76960475929081439971923828125" lon="1.5657665021717548370361328125">
        <ele>150.1999969482421875</ele>
        <time>2026-08-13T06:41:59.000Z</time>
        <extensions>
          <ns3:TrackPointExtension>
            <ns3:hr>101</ns3:hr>
            <ns3:cad>0</ns3:cad>
          </ns3:TrackPointExtension>
        </extensions>
      </trkpt>
      <trkpt lat="43.769610039889812469482421875" lon="1.5657668374478816986083984375">
        <ele>150.399993896484375</ele>
        <time>2026-08-13T06:42:00.000Z</time>
        <extensions>
          <ns3:TrackPointExtension>
            <ns3:hr>101</ns3:hr>
            <ns3:cad>0</ns3:cad>
          </ns3:TrackPointExtension>
        </extensions>
      </trkpt>
      <trkpt lat="43.7696192599833011627197265625" lon="1.5657681785523891448974609375">
        <ele>150.399993896484375</ele>
        <time>2026-08-13T06:42:01.000Z</time>
        <extensions>
          <ns3:TrackPointExtension>
            <ns3:hr>102</ns3:hr>
            <ns3:cad>0</ns3:cad>
          </ns3:TrackPointExtension>
        </extensions>
      </trkpt>
      <trkpt lat="43.7696256302297115325927734375" lon="1.56576993875205516815185546875">
        <ele>150.399993896484375</ele>
        <time>2026-08-13T06:42:02.000Z</time>
        <extensions>
          <ns3:TrackPointExtension>
            <ns3:hr>102</ns3:hr>
            <ns3:cad>0</ns3:cad>
          </ns3:TrackPointExtension>
        </extensions>
      </trkpt>
      <trkpt lat="43.7696353532373905181884765625" lon="1.565772704780101776123046875">
        <ele>150.399993896484375</ele>
        <time>2026-08-13T06:42:03.000Z</time>
        <extensions>
          <ns3:TrackPointExtension>
            <ns3:hr>103</ns3:hr>
            <ns3:cad>0</ns3:cad>
          </ns3:TrackPointExtension>
        </extensions>
      </trkpt>
      <trkpt lat="43.76964231021702289581298828125" lon="1.56577412970364093780517578125">
        <ele>150.600006103515625</ele>
        <time>2026-08-13T06:42:04.000Z</time>
        <extensions>
          <ns3:TrackPointExtension>
            <ns3:hr>104</ns3:hr>
            <ns3:cad>0</ns3:cad>
          </ns3:TrackPointExtension>
        </extensions>
      </trkpt>
      <trkpt lat="43.76965236850082874298095703125" lon="1.5657815895974636077880859375">
        <ele>150.8000030517578125</ele>
        <time>2026-08-13T06:42:05.000Z</time>
        <extensions>
          <ns3:TrackPointExtension>
            <ns3:hr>104</ns3:hr>
            <ns3:cad>0</ns3:cad>
          </ns3:TrackPointExtension>
        </extensions>
      </trkpt>
      <trkpt lat="43.76966259442269802093505859375" lon="1.56577949412167072296142578125">
        <ele>150.8000030517578125</ele>
        <time>2026-08-13T06:42:06.000Z</time>
        <extensions>
          <ns3:TrackPointExtension>
            <ns3:hr>104</ns3:hr>
            <ns3:cad>0</ns3:cad>
          </ns3:TrackPointExtension>
        </extensions>
      </trkpt>
      <trkpt lat="43.769669048488140106201171875" lon="1.56577848829329013824462890625">
        <ele>151</ele>
        <time>2026-08-13T06:42:07.000Z</time>
        <extensions>
          <ns3:TrackPointExtension>
            <ns3:hr>103</ns3:hr>
            <ns3:cad>0</ns3:cad>
          </ns3:TrackPointExtension>
        </extensions>
      </trkpt>
      <trkpt lat="43.76968069933354854583740234375" lon="1.56578502617776393890380859375">
        <ele>151</ele>
        <time>2026-08-13T06:42:08.000Z</time>
        <extensions>
          <ns3:TrackPointExtension>
            <ns3:hr>103</ns3:hr>
            <ns3:cad>0</ns3:cad>
          </ns3:TrackPointExtension>
        </extensions>
      </trkpt>
      <trkpt lat="43.76969017088413238525390625" lon="1.56578687019646167755126953125">
        <ele>151.1999969482421875</ele>
        <time>2026-08-13T06:42:09.000Z</time>
        <extensions>
          <ns3:TrackPointExtension>
            <ns3:hr>103</ns3:hr>
            <ns3:cad>41</ns3:cad>
          </ns3:TrackPointExtension>
        </extensions>
      </trkpt>
      <trkpt lat="43.769695870578289031982421875" lon="1.5657866187393665313720703125">
        <ele>151.1999969482421875</ele>
        <time>2026-08-13T06:42:10.000Z</time>
        <extensions>
          <ns3:TrackPointExtension>
            <ns3:hr>103</ns3:hr>
            <ns3:cad>41</ns3:cad>
          </ns3:TrackPointExtension>
        </extensions>
      </trkpt>
      <trkpt lat="43.7697034142911434173583984375" lon="1.56578821130096912384033203125">
        <ele>151.1999969482421875</ele>
        <time>2026-08-13T06:42:11.000Z</time>
        <extensions>
          <ns3:TrackPointExtension>
            <ns3:hr>103</ns3:hr>
            <ns3:cad>41</ns3:cad>
          </ns3:TrackPointExtension>
        </extensions>
      </trkpt>
      <trkpt lat="43.769711293280124664306640625" lon="1.56579206697642803192138671875">
        <ele>151.399993896484375</ele>
        <time>2026-08-13T06:42:12.000Z</time>
        <extensions>
          <ns3:TrackPointExtension>
            <ns3:hr>102</ns3:hr>
            <ns3:cad>41</ns3:cad>
          </ns3:TrackPointExtension>
        </extensions>
      </trkpt>
      <trkpt lat="43.76971565186977386474609375" lon="1.56579642556607723236083984375">
        <ele>151.399993896484375</ele>
        <time>2026-08-13T06:42:13.000Z</time>
        <extensions>
          <ns3:TrackPointExtension>
            <ns3:hr>102</ns3:hr>
            <ns3:cad>79</ns3:cad>
          </ns3:TrackPointExtension>
        </extensions>
      </trkpt>
      <trkpt lat="43.769727386534214019775390625" lon="1.56580321490764617919921875">
        <ele>151.600006103515625</ele>
        <time>2026-08-13T06:42:14.000Z</time>
        <extensions>
          <ns3:TrackPointExtension>
            <ns3:hr>103</ns3:hr>
            <ns3:cad>79</ns3:cad>
          </ns3:TrackPointExtension>
        </extensions>
      </trkpt>
      <trkpt lat="43.76973769627511501312255859375" lon="1.5658040530979633331298828125">
        <ele>151.600006103515625</ele>
        <time>2026-08-13T06:42:15.000Z</time>
        <extensions>
          <ns3:TrackPointExtension>
            <ns3:hr>103</ns3:hr>
            <ns3:cad>79</ns3:cad>
          </ns3:TrackPointExtension>
        </extensions>
      </trkpt>
      <trkpt lat="43.7697429768741130828857421875" lon="1.56580296345055103302001953125">
        <ele>151.8000030517578125</ele>
        <time>2026-08-13T06:42:16.000Z</time>
        <extensions>
          <ns3:TrackPointExtension>
            <ns3:hr>102</ns3:hr>
            <ns3:cad>79</ns3:cad>
          </ns3:TrackPointExtension>
        </extensions>
      </trkpt>
      <trkpt lat="43.769750855863094329833984375" lon="1.56580883078277111053466796875">
        <ele>152</ele>
        <time>2026-08-13T06:42:17.000Z</time>
        <extensions>
          <ns3:TrackPointExtension>
            <ns3:hr>102</ns3:hr>
            <ns3:cad>76</ns3:cad>
          </ns3:TrackPointExtension>
        </extensions>
      </trkpt>
      <trkpt lat="43.76975680701434612274169921875" lon="1.56581201590597629547119140625">
        <ele>152</ele>
        <time>2026-08-13T06:42:18.000Z</time>
        <extensions>
          <ns3:TrackPointExtension>
            <ns3:hr>102</ns3:hr>
            <ns3:cad>76</ns3:cad>
          </ns3:TrackPointExtension>
        </extensions>
      </trkpt>
      <trkpt lat="43.769763596355915069580078125" lon="1.5658110938966274261474609375">
        <ele>152.1999969482421875</ele>
        <time>2026-08-13T06:42:19.000Z</time>
        <extensions>
          <ns3:TrackPointExtension>
            <ns3:hr>101</ns3:hr>
            <ns3:cad>76</ns3:cad>
          </ns3:TrackPointExtension>
        </extensions>
      </trkpt>
      <trkpt lat="43.76976753585040569305419921875" lon="1.5658141113817691802978515625">
        <ele>152.1999969482421875</ele>
        <time>2026-08-13T06:42:20.000Z</time>
        <extensions>
          <ns3:TrackPointExtension>
            <ns3:hr>101</ns3:hr>
            <ns3:cad>44</ns3:cad>
          </ns3:TrackPointExtension>
        </extensions>
      </trkpt>
      <trkpt lat="43.769772313535213470458984375" lon="1.565816961228847503662109375">
        <ele>152.1999969482421875</ele>
        <time>2026-08-13T06:42:21.000Z</time>
        <extensions>
          <ns3:TrackPointExtension>
            <ns3:hr>101</ns3:hr>
            <ns3:cad>44</ns3:cad>
          </ns3:TrackPointExtension>
        </extensions>
      </trkpt>
      <trkpt lat="43.76977809704840183258056640625" lon="1.56581838615238666534423828125">
        <ele>152.399993896484375</ele>
        <time>2026-08-13T06:42:22.000Z</time>
        <extensions>
          <ns3:TrackPointExtension>
            <ns3:hr>102</ns3:hr>
            <ns3:cad>43</ns3:cad>
          </ns3:TrackPointExtension>
        </extensions>
      </trkpt>
      <trkpt lat="43.76978480257093906402587890625" lon="1.56582039780914783477783203125">
        <ele>152.399993896484375</ele>
        <time>2026-08-13T06:42:23.000Z</time>
        <extensions>
          <ns3:TrackPointExtension>
            <ns3:hr>102</ns3:hr>
            <ns3:cad>43</ns3:cad>
          </ns3:TrackPointExtension>
        </extensions>
      </trkpt>
      <trkpt lat="43.76979301683604717254638671875" lon="1.56582509167492389678955078125">
        <ele>152.600006103515625</ele>
        <time>2026-08-13T06:42:24.000Z</time>
        <extensions>
          <ns3:TrackPointExtension>
            <ns3:hr>102</ns3:hr>
            <ns3:cad>43</ns3:cad>
          </ns3:TrackPointExtension>
        </extensions>
      </trkpt>
      <trkpt lat="43.76980014145374298095703125" lon="1.56582475639879703521728515625">
        <ele>152.600006103515625</ele>
        <time>2026-08-13T06:42:25.000Z</time>
        <extensions>
          <ns3:TrackPointExtension>
            <ns3:hr>103</ns3:hr>
            <ns3:cad>0</ns3:cad>
          </ns3:TrackPointExtension>
        </extensions>
      </trkpt>
      <trkpt lat="43.769802153110504150390625" lon="1.56582827679812908172607421875">
        <ele>152.600006103515625</ele>
        <time>2026-08-13T06:42:26.000Z</time>
        <extensions>
          <ns3:TrackPointExtension>
            <ns3:hr>104</ns3:hr>
            <ns3:cad>0</ns3:cad>
          </ns3:TrackPointExtension>
        </extensions>
      </trkpt>
      <trkpt lat="43.76980223692953586578369140625" lon="1.56582810916006565093994140625">
        <ele>152.8000030517578125</ele>
        <time>2026-08-13T06:42:27.000Z</time>
        <extensions>
          <ns3:TrackPointExtension>
            <ns3:hr>104</ns3:hr>
            <ns3:cad>0</ns3:cad>
          </ns3:TrackPointExtension>
        </extensions>
      </trkpt>
      <trkpt lat="43.76980240456759929656982421875" lon="1.5658281929790973663330078125">
        <ele>152.8000030517578125</ele>
        <time>2026-08-13T06:42:28.000Z</time>
        <extensions>
          <ns3:TrackPointExtension>
            <ns3:hr>105</ns3:hr>
            <ns3:cad>0</ns3:cad>
          </ns3:TrackPointExtension>
        </extensions>
      </trkpt>
      <trkpt lat="43.76980911009013652801513671875" lon="1.565833389759063720703125">
        <ele>152.8000030517578125</ele>
        <time>2026-08-13T06:42:29.000Z</time>
        <extensions>
          <ns3:TrackPointExtension>
            <ns3:hr>105</ns3:hr>
            <ns3:cad>0</ns3:cad>
          </ns3:TrackPointExtension>
        </extensions>
      </trkpt>
      <trkpt lat="43.7698153965175151824951171875" lon="1.5658345632255077362060546875">
        <ele>152.8000030517578125</ele>
        <time>2026-08-13T06:42:30.000Z</time>
        <extensions>
          <ns3:TrackPointExtension>
            <ns3:hr>105</ns3:hr>
            <ns3:cad>0</ns3:cad>
          </ns3:TrackPointExtension>
        </extensions>
      </trkpt>
      <trkpt lat="43.76982101239264011383056640625" lon="1.56583548523485660552978515625">
        <ele>153</ele>
        <time>2026-08-13T06:42:31.000Z</time>
        <extensions>
          <ns3:TrackPointExtension>
            <ns3:hr>104</ns3:hr>
            <ns3:cad>0</ns3:cad>
          </ns3:TrackPointExtension>
        </extensions>
      </trkpt>
      <trkpt lat="43.7698281370103359222412109375" lon="1.5658399276435375213623046875">
        <ele>153.1999969482421875</ele>
        <time>2026-08-13T06:42:32.000Z</time>
        <extensions>
          <ns3:TrackPointExtension>
            <ns3:hr>104</ns3:hr>
            <ns3:cad>0</ns3:cad>
          </ns3:TrackPointExtension>
        </extensions>
      </trkpt>
      <trkpt lat="43.7698392011225223541259765625" lon="1.5658416040241718292236328125">
        <ele>153.1999969482421875</ele>
        <time>2026-08-13T06:42:33.000Z</time>
        <extensions>
          <ns3:TrackPointExtension>
            <ns3:hr>104</ns3:hr>
            <ns3:cad>0</ns3:cad>
          </ns3:TrackPointExtension>
        </extensions>
      </trkpt>
      <trkpt lat="43.769848085939884185791015625" lon="1.56584344804286956787109375">
        <ele>153.1999969482421875</ele>
        <time>2026-08-13T06:42:34.000Z</time>
        <extensions>
          <ns3:TrackPointExtension>
            <ns3:hr>105</ns3:hr>
            <ns3:cad>0</ns3:cad>
          </ns3:TrackPointExtension>
        </extensions>
      </trkpt>
      <trkpt lat="43.7698559649288654327392578125" lon="1.56585241667926311492919921875">
        <ele>153.399993896484375</ele>
        <time>2026-08-13T06:42:35.000Z</time>
        <extensions>
          <ns3:TrackPointExtension>
            <ns3:hr>105</ns3:hr>
            <ns3:cad>0</ns3:cad>
          </ns3:TrackPointExtension>
        </extensions>
      </trkpt>
      <trkpt lat="43.76986376009881496429443359375" lon="1.5658550150692462921142578125">
        <ele>153.399993896484375</ele>
        <time>2026-08-13T06:42:36.000Z</time>
        <extensions>
          <ns3:TrackPointExtension>
            <ns3:hr>105</ns3:hr>
            <ns3:cad>0</ns3:cad>
          </ns3:TrackPointExtension>
        </extensions>
      </trkpt>
      <trkpt lat="43.7698673643171787261962890625" lon="1.5658576972782611846923828125">
        <ele>153.399993896484375</ele>
        <time>2026-08-13T06:42:37.000Z</time>
        <extensions>
          <ns3:TrackPointExtension>
            <ns3:hr>105</ns3:hr>
            <ns3:cad>0</ns3:cad>
          </ns3:TrackPointExtension>
        </extensions>
      </trkpt>
      <trkpt lat="43.76986996270716190338134765625" lon="1.565857864916324615478515625">
        <ele>153.600006103515625</ele>
        <time>2026-08-13T06:42:38.000Z</time>
        <extensions>
          <ns3:TrackPointExtension>
            <ns3:hr>105</ns3:hr>
            <ns3:cad>0</ns3:cad>
          </ns3:TrackPointExtension>
        </extensions>
      </trkpt>
      <trkpt lat="43.7698812782764434814453125" lon="1.56586230732500553131103515625">
        <ele>153.600006103515625</ele>
        <time>2026-08-13T06:42:39.000Z</time>
        <extensions>
          <ns3:TrackPointExtension>
            <ns3:hr>105</ns3:hr>
            <ns3:cad>0</ns3:cad>
          </ns3:TrackPointExtension>
        </extensions>
      </trkpt>
      <trkpt lat="43.7698864750564098358154296875" lon="1.56586599536240100860595703125">
        <ele>153.8000030517578125</ele>
        <time>2026-08-13T06:42:40.000Z</time>
        <extensions>
          <ns3:TrackPointExtension>
            <ns3:hr>105</ns3:hr>
            <ns3:cad>0</ns3:cad>
          </ns3:TrackPointExtension>
        </extensions>
      </trkpt>
      <trkpt lat="43.769893348217010498046875" lon="1.565871275961399078369140625">
        <ele>153.8000030517578125</ele>
        <time>2026-08-13T06:42:41.000Z</time>
        <extensions>
          <ns3:TrackPointExtension>
            <ns3:hr>105</ns3:hr>
            <ns3:cad>0</ns3:cad>
          </ns3:TrackPointExtension>
        </extensions>
      </trkpt>
      <trkpt lat="43.7698958627879619598388671875" lon="1.5658704377710819244384765625">
        <ele>153.8000030517578125</ele>
        <time>2026-08-13T06:42:42.000Z</time>
        <extensions>
          <ns3:TrackPointExtension>
            <ns3:hr>105</ns3:hr>
            <ns3:cad>0</ns3:cad>
          </ns3:TrackPointExtension>
        </extensions>
      </trkpt>
      <trkpt lat="43.7699039094150066375732421875" lon="1.5658754669129848480224609375">
        <ele>154</ele>
        <time>2026-08-13T06:42:43.000Z</time>
        <extensions>
          <ns3:TrackPointExtension>
            <ns3:hr>105</ns3:hr>
            <ns3:cad>0</ns3:cad>
          </ns3:TrackPointExtension>
        </extensions>
      </trkpt>
      <trkpt lat="43.76991086639463901519775390625" lon="1.56587697565555572509765625">
        <ele>154</ele>
        <time>2026-08-13T06:42:44.000Z</time>
        <extensions>
          <ns3:TrackPointExtension>
            <ns3:hr>106</ns3:hr>
            <ns3:cad>0</ns3:cad>
          </ns3:TrackPointExtension>
        </extensions>
      </trkpt>
      <trkpt lat="43.7699196673929691314697265625" lon="1.565879993140697479248046875">
        <ele>154.1999969482421875</ele>
        <time>2026-08-13T06:42:45.000Z</time>
        <extensions>
          <ns3:TrackPointExtension>
            <ns3:hr>106</ns3:hr>
            <ns3:cad>75</ns3:cad>
          </ns3:TrackPointExtension>
        </extensions>
      </trkpt>
      <trkpt lat="43.76992947421967983245849609375" lon="1.56588393263518810272216796875">
        <ele>154.1999969482421875</ele>
        <time>2026-08-13T06:42:46.000Z</time>
        <extensions>
          <ns3:TrackPointExtension>
            <ns3:hr>106</ns3:hr>
            <ns3:cad>75</ns3:cad>
          </ns3:TrackPointExtension>
        </extensions>
      </trkpt>
      <trkpt lat="43.76993701793253421783447265625" lon="1.56588644720613956451416015625">
        <ele>154.399993896484375</ele>
        <time>2026-08-13T06:42:47.000Z</time>
        <extensions>
          <ns3:TrackPointExtension>
            <ns3:hr>107</ns3:hr>
            <ns3:cad>75</ns3:cad>
          </ns3:TrackPointExtension>
        </extensions>
      </trkpt>
      <trkpt lat="43.76994305290281772613525390625" lon="1.56588845886290073394775390625">
        <ele>154.399993896484375</ele>
        <time>2026-08-13T06:42:48.000Z</time>
        <extensions>
          <ns3:TrackPointExtension>
            <ns3:hr>107</ns3:hr>
            <ns3:cad>44</ns3:cad>
          </ns3:TrackPointExtension>
        </extensions>
      </trkpt>
      <trkpt lat="43.76995344646275043487548828125" lon="1.56589650548994541168212890625">
        <ele>154.399993896484375</ele>
        <time>2026-08-13T06:42:49.000Z</time>
        <extensions>
          <ns3:TrackPointExtension>
            <ns3:hr>108</ns3:hr>
            <ns3:cad>0</ns3:cad>
          </ns3:TrackPointExtension>
        </extensions>
      </trkpt>
      <trkpt lat="43.769960738718509674072265625" lon="1.56590203754603862762451171875">
        <ele>154.600006103515625</ele>
        <time>2026-08-13T06:42:50.000Z</time>
        <extensions>
          <ns3:TrackPointExtension>
            <ns3:hr>108</ns3:hr>
            <ns3:cad>0</ns3:cad>
          </ns3:TrackPointExtension>
        </extensions>
      </trkpt>
      <trkpt lat="43.7699652649462223052978515625" lon="1.56590740196406841278076171875">
        <ele>154.600006103515625</ele>
        <time>2026-08-13T06:42:51.000Z</time>
        <extensions>
          <ns3:TrackPointExtension>
            <ns3:hr>108</ns3:hr>
            <ns3:cad>0</ns3:cad>
          </ns3:TrackPointExtension>
        </extensions>
      </trkpt>
      <trkpt lat="43.7699676118791103363037109375" lon="1.56591326929628849029541015625">
        <ele>154.600006103515625</ele>
        <time>2026-08-13T06:42:52.000Z</time>
        <extensions>
          <ns3:TrackPointExtension>
            <ns3:hr>108</ns3:hr>
            <ns3:cad>0</ns3:cad>
          </ns3:TrackPointExtension>
        </extensions>
      </trkpt>
      <trkpt lat="43.7699716351926326751708984375" lon="1.56591880135238170623779296875">
        <ele>154.8000030517578125</ele>
        <time>2026-08-13T06:42:53.000Z</time>
        <extensions>
          <ns3:TrackPointExtension>
            <ns3:hr>108</ns3:hr>
            <ns3:cad>0</ns3:cad>
          </ns3:TrackPointExtension>
        </extensions>
      </trkpt>
      <trkpt lat="43.76997708342969417572021484375" lon="1.56592433340847492218017578125">
        <ele>154.8000030517578125</ele>
        <time>2026-08-13T06:42:54.000Z</time>
        <extensions>
          <ns3:TrackPointExtension>
            <ns3:hr>108</ns3:hr>
            <ns3:cad>0</ns3:cad>
          </ns3:TrackPointExtension>
        </extensions>
      </trkpt>
      <trkpt lat="43.76998311839997768402099609375" lon="1.56592885963618755340576171875">
        <ele>155</ele>
        <time>2026-08-13T06:42:55.000Z</time>
        <extensions>
          <ns3:TrackPointExtension>
            <ns3:hr>109</ns3:hr>
            <ns3:cad>0</ns3:cad>
          </ns3:TrackPointExtension>
        </extensions>
      </trkpt>
      <trkpt lat="43.76998797990381717681884765625" lon="1.56593087129294872283935546875">
        <ele>155</ele>
        <time>2026-08-13T06:42:56.000Z</time>
        <extensions>
          <ns3:TrackPointExtension>
            <ns3:hr>109</ns3:hr>
            <ns3:cad>0</ns3:cad>
          </ns3:TrackPointExtension>
        </extensions>
      </trkpt>
      <trkpt lat="43.7699930928647518157958984375" lon="1.5659327991306781768798828125">
        <ele>155.1999969482421875</ele>
        <time>2026-08-13T06:42:57.000Z</time>
        <extensions>
          <ns3:TrackPointExtension>
            <ns3:hr>109</ns3:hr>
            <ns3:cad>0</ns3:cad>
          </ns3:TrackPointExtension>
        </extensions>
      </trkpt>
      <trkpt lat="43.770005665719509124755859375" lon="1.56593866646289825439453125">
        <ele>155.1999969482421875</ele>
        <time>2026-08-13T06:42:58.000Z</time>
        <extensions>
          <ns3:TrackPointExtension>
            <ns3:hr>108</ns3:hr>
            <ns3:cad>0</ns3:cad>
          </ns3:TrackPointExtension>
        </extensions>
      </trkpt>
      <trkpt lat="43.770013712346553802490234375" lon="1.5659452043473720550537109375">
        <ele>155.399993896484375</ele>
        <time>2026-08-13T06:42:59.000Z</time>
        <extensions>
          <ns3:TrackPointExtension>
            <ns3:hr>109</ns3:hr>
            <ns3:cad>0</ns3:cad>
          </ns3:TrackPointExtension>
        </extensions>
      </trkpt>
      <trkpt lat="43.770023770630359649658203125" lon="1.5659485571086406707763671875">
        <ele>155.399993896484375</ele>
        <time>2026-08-13T06:43:00.000Z</time>
        <extensions>
          <ns3:TrackPointExtension>
            <ns3:hr>109</ns3:hr>
            <ns3:cad>42</ns3:cad>
          </ns3:TrackPointExtension>
        </extensions>
      </trkpt>
      <trkpt lat="43.77003357745707035064697265625" lon="1.56595752574503421783447265625">
        <ele>155.399993896484375</ele>
        <time>2026-08-13T06:43:01.000Z</time>
        <extensions>
          <ns3:TrackPointExtension>
            <ns3:hr>109</ns3:hr>
            <ns3:cad>42</ns3:cad>
          </ns3:TrackPointExtension>
        </extensions>
      </trkpt>
      <trkpt lat="43.7700420431792736053466796875" lon="1.5659653209149837493896484375">
        <ele>155.399993896484375</ele>
        <time>2026-08-13T06:43:02.000Z</time>
        <extensions>
          <ns3:TrackPointExtension>
            <ns3:hr>110</ns3:hr>
            <ns3:cad>42</ns3:cad>
          </ns3:TrackPointExtension>
        </extensions>
      </trkpt>
      <trkpt lat="43.77004958689212799072265625" lon="1.5659706853330135345458984375">
        <ele>155.399993896484375</ele>
        <time>2026-08-13T06:43:03.000Z</time>
        <extensions>
          <ns3:TrackPointExtension>
            <ns3:hr>109</ns3:hr>
            <ns3:cad>42</ns3:cad>
          </ns3:TrackPointExtension>
        </extensions>
      </trkpt>
      <trkpt lat="43.7700554542243480682373046875" lon="1.56596875749528408050537109375">
        <ele>155.600006103515625</ele>
        <time>2026-08-13T06:43:04.000Z</time>
        <extensions>
          <ns3:TrackPointExtension>
            <ns3:hr>109</ns3:hr>
            <ns3:cad>42</ns3:cad>
          </ns3:TrackPointExtension>
        </extensions>
      </trkpt>
      <trkpt lat="43.77006827853620052337646484375" lon="1.5659750439226627349853515625">
        <ele>155.600006103515625</ele>
        <time>2026-08-13T06:43:05.000Z</time>
        <extensions>
          <ns3:TrackPointExtension>
            <ns3:hr>109</ns3:hr>
            <ns3:cad>42</ns3:cad>
          </ns3:TrackPointExtension>
        </extensions>
      </trkpt>
      <trkpt lat="43.77007682807743549346923828125" lon="1.56598158180713653564453125">
        <ele>155.8000030517578125</ele>
        <time>2026-08-13T06:43:06.000Z</time>
        <extensions>
          <ns3:TrackPointExtension>
            <ns3:hr>109</ns3:hr>
            <ns3:cad>42</ns3:cad>
          </ns3:TrackPointExtension>
        </extensions>
      </trkpt>
      <trkpt lat="43.77008202485740184783935546875" lon="1.5659851022064685821533203125">
        <ele>155.8000030517578125</ele>
        <time>2026-08-13T06:43:07.000Z</time>
        <extensions>
          <ns3:TrackPointExtension>
            <ns3:hr>109</ns3:hr>
            <ns3:cad>44</ns3:cad>
          </ns3:TrackPointExtension>
        </extensions>
      </trkpt>
      <trkpt lat="43.7700956873595714569091796875" lon="1.56599633395671844482421875">
        <ele>156</ele>
        <time>2026-08-13T06:43:08.000Z</time>
        <extensions>
          <ns3:TrackPointExtension>
            <ns3:hr>109</ns3:hr>
            <ns3:cad>44</ns3:cad>
          </ns3:TrackPointExtension>
        </extensions>
      </trkpt>
      <trkpt lat="43.77010717056691646575927734375" lon="1.5659975074231624603271484375">
        <ele>156</ele>
        <time>2026-08-13T06:43:09.000Z</time>
        <extensions>
          <ns3:TrackPointExtension>
            <ns3:hr>109</ns3:hr>
            <ns3:cad>42</ns3:cad>
          </ns3:TrackPointExtension>
        </extensions>
      </trkpt>
      <trkpt lat="43.7701161392033100128173828125" lon="1.5660022012889385223388671875">
        <ele>156.1999969482421875</ele>
        <time>2026-08-13T06:43:10.000Z</time>
        <extensions>
          <ns3:TrackPointExtension>
            <ns3:hr>109</ns3:hr>
            <ns3:cad>42</ns3:cad>
          </ns3:TrackPointExtension>
        </extensions>
      </trkpt>
      <trkpt lat="43.77012644894421100616455078125" lon="1.56600681133568286895751953125">
        <ele>156.1999969482421875</ele>
        <time>2026-08-13T06:43:11.000Z</time>
        <extensions>
          <ns3:TrackPointExtension>
            <ns3:hr>109</ns3:hr>
            <ns3:cad>44</ns3:cad>
          </ns3:TrackPointExtension>
        </extensions>
      </trkpt>
      <trkpt lat="43.77013751305639743804931640625" lon="1.56601318158209323883056640625">
        <ele>156.399993896484375</ele>
        <time>2026-08-13T06:43:12.000Z</time>
        <extensions>
          <ns3:TrackPointExtension>
            <ns3:hr>110</ns3:hr>
            <ns3:cad>44</ns3:cad>
          </ns3:TrackPointExtension>
        </extensions>
      </trkpt>
      <trkpt lat="43.7701453082263469696044921875" lon="1.56601779162883758544921875">
        <ele>156.399993896484375</ele>
        <time>2026-08-13T06:43:13.000Z</time>
        <extensions>
          <ns3:TrackPointExtension>
            <ns3:hr>110</ns3:hr>
            <ns3:cad>44</ns3:cad>
          </ns3:TrackPointExtension>
        </extensions>
      </trkpt>
      <trkpt lat="43.7701510079205036163330078125" lon="1.5660176239907741546630859375">
        <ele>156.399993896484375</ele>
        <time>2026-08-13T06:43:14.000Z</time>
        <extensions>
          <ns3:TrackPointExtension>
            <ns3:hr>110</ns3:hr>
            <ns3:cad>44</ns3:cad>
          </ns3:TrackPointExtension>
        </extensions>
      </trkpt>
      <trkpt lat="43.77016534097492694854736328125" lon="1.56602323986589908599853515625">
        <ele>156.600006103515625</ele>
        <time>2026-08-13T06:43:15.000Z</time>
        <extensions>
          <ns3:TrackPointExtension>
            <ns3:hr>110</ns3:hr>
            <ns3:cad>44</ns3:cad>
          </ns3:TrackPointExtension>
        </extensions>
      </trkpt>
      <trkpt lat="43.77017573453485965728759765625" lon="1.5660278499126434326171875">
        <ele>156.600006103515625</ele>
        <time>2026-08-13T06:43:16.000Z</time>
        <extensions>
          <ns3:TrackPointExtension>
            <ns3:hr>109</ns3:hr>
            <ns3:cad>44</ns3:cad>
          </ns3:TrackPointExtension>
        </extensions>
      </trkpt>
      <trkpt lat="43.77018101513385772705078125" lon="1.56603078357875347137451171875">
        <ele>156.600006103515625</ele>
        <time>2026-08-13T06:43:17.000Z</time>
        <extensions>
          <ns3:TrackPointExtension>
            <ns3:hr>109</ns3:hr>
            <ns3:cad>44</ns3:cad>
          </ns3:TrackPointExtension>
        </extensions>
      </trkpt>
      <trkpt lat="43.770188055932521820068359375" lon="1.566036902368068695068359375">
        <ele>156.8000030517578125</ele>
        <time>2026-08-13T06:43:18.000Z</time>
        <extensions>
          <ns3:TrackPointExtension>
            <ns3:hr>109</ns3:hr>
            <ns3:cad>41</ns3:cad>
          </ns3:TrackPointExtension>
        </extensions>
      </trkpt>
      <trkpt lat="43.77020037733018398284912109375" lon="1.5660394169390201568603515625">
        <ele>156.8000030517578125</ele>
        <time>2026-08-13T06:43:19.000Z</time>
        <extensions>
          <ns3:TrackPointExtension>
            <ns3:hr>108</ns3:hr>
            <ns3:cad>41</ns3:cad>
          </ns3:TrackPointExtension>
        </extensions>
      </trkpt>
      <trkpt lat="43.77020926214754581451416015625" lon="1.5660437755286693572998046875">
        <ele>157</ele>
        <time>2026-08-13T06:43:20.000Z</time>
        <extensions>
          <ns3:TrackPointExtension>
            <ns3:hr>107</ns3:hr>
            <ns3:cad>42</ns3:cad>
          </ns3:TrackPointExtension>
        </extensions>
      </trkpt>
      <trkpt lat="43.77021814696490764617919921875" lon="1.566046960651874542236328125">
        <ele>157</ele>
        <time>2026-08-13T06:43:21.000Z</time>
        <extensions>
          <ns3:TrackPointExtension>
            <ns3:hr>106</ns3:hr>
            <ns3:cad>42</ns3:cad>
          </ns3:TrackPointExtension>
        </extensions>
      </trkpt>
      <trkpt lat="43.77022686414420604705810546875" lon="1.56605257652699947357177734375">
        <ele>157.1999969482421875</ele>
        <time>2026-08-13T06:43:22.000Z</time>
        <extensions>
          <ns3:TrackPointExtension>
            <ns3:hr>105</ns3:hr>
            <ns3:cad>43</ns3:cad>
          </ns3:TrackPointExtension>
        </extensions>
      </trkpt>
      <trkpt lat="43.77023398876190185546875" lon="1.56605693511664867401123046875">
        <ele>157.1999969482421875</ele>
        <time>2026-08-13T06:43:23.000Z</time>
        <extensions>
          <ns3:TrackPointExtension>
            <ns3:hr>105</ns3:hr>
            <ns3:cad>43</ns3:cad>
          </ns3:TrackPointExtension>
        </extensions>
      </trkpt>
      <trkpt lat="43.7702411971986293792724609375" lon="1.56605995260179042816162109375">
        <ele>157.1999969482421875</ele>
        <time>2026-08-13T06:43:24.000Z</time>
        <extensions>
          <ns3:TrackPointExtension>
            <ns3:hr>105</ns3:hr>
            <ns3:cad>43</ns3:cad>
          </ns3:TrackPointExtension>
        </extensions>
      </trkpt>
      <trkpt lat="43.7702529318630695343017578125" lon="1.56607353128492832183837890625">
        <ele>157.399993896484375</ele>
        <time>2026-08-13T06:43:25.000Z</time>
        <extensions>
          <ns3:TrackPointExtension>
            <ns3:hr>105</ns3:hr>
            <ns3:cad>42</ns3:cad>
          </ns3:TrackPointExtension>
        </extensions>
      </trkpt>
      <trkpt lat="43.77026148140430450439453125" lon="1.56607084907591342926025390625">
        <ele>157.399993896484375</ele>
        <time>2026-08-13T06:43:26.000Z</time>
        <extensions>
          <ns3:TrackPointExtension>
            <ns3:hr>104</ns3:hr>
            <ns3:cad>42</ns3:cad>
          </ns3:TrackPointExtension>
        </extensions>
      </trkpt>
      <trkpt lat="43.770268857479095458984375" lon="1.56607470475137233734130859375">
        <ele>157.399993896484375</ele>
        <time>2026-08-13T06:43:27.000Z</time>
        <extensions>
          <ns3:TrackPointExtension>
            <ns3:hr>104</ns3:hr>
            <ns3:cad>42</ns3:cad>
          </ns3:TrackPointExtension>
        </extensions>
      </trkpt>
      <trkpt lat="43.77027866430580615997314453125" lon="1.5660793147981166839599609375">
        <ele>157.399993896484375</ele>
        <time>2026-08-13T06:43:28.000Z</time>
        <extensions>
          <ns3:TrackPointExtension>
            <ns3:hr>104</ns3:hr>
            <ns3:cad>42</ns3:cad>
          </ns3:TrackPointExtension>
        </extensions>
      </trkpt>
      <trkpt lat="43.770285956561565399169921875" lon="1.5660816617310047149658203125">
        <ele>157.600006103515625</ele>
        <time>2026-08-13T06:43:29.000Z</time>
        <extensions>
          <ns3:TrackPointExtension>
            <ns3:hr>105</ns3:hr>
            <ns3:cad>42</ns3:cad>
          </ns3:TrackPointExtension>
        </extensions>
      </trkpt>
      <trkpt lat="43.77029475755989551544189453125" lon="1.56608509831130504608154296875">
        <ele>157.600006103515625</ele>
        <time>2026-08-13T06:43:30.000Z</time>
        <extensions>
          <ns3:TrackPointExtension>
            <ns3:hr>105</ns3:hr>
            <ns3:cad>43</ns3:cad>
          </ns3:TrackPointExtension>
        </extensions>
      </trkpt>
      <trkpt lat="43.7702995352447032928466796875" lon="1.56608627177774906158447265625">
        <ele>157.600006103515625</ele>
        <time>2026-08-13T06:43:31.000Z</time>
        <extensions>
          <ns3:TrackPointExtension>
            <ns3:hr>104</ns3:hr>
            <ns3:cad>43</ns3:cad>
          </ns3:TrackPointExtension>
        </extensions>
      </trkpt>
      <trkpt lat="43.77030833624303340911865234375" lon="1.566089205443859100341796875">
        <ele>157.600006103515625</ele>
        <time>2026-08-13T06:43:32.000Z</time>
        <extensions>
          <ns3:TrackPointExtension>
            <ns3:hr>105</ns3:hr>
            <ns3:cad>43</ns3:cad>
          </ns3:TrackPointExtension>
        </extensions>
      </trkpt>
      <trkpt lat="43.7703176401555538177490234375" lon="1.5660917200148105621337890625">
        <ele>157.600006103515625</ele>
        <time>2026-08-13T06:43:33.000Z</time>
        <extensions>
          <ns3:TrackPointExtension>
            <ns3:hr>105</ns3:hr>
            <ns3:cad>43</ns3:cad>
          </ns3:TrackPointExtension>
        </extensions>
      </trkpt>
      <trkpt lat="43.77032862044870853424072265625" lon="1.5660930611193180084228515625">
        <ele>157.8000030517578125</ele>
        <time>2026-08-13T06:43:34.000Z</time>
        <extensions>
          <ns3:TrackPointExtension>
            <ns3:hr>105</ns3:hr>
            <ns3:cad>44</ns3:cad>
          </ns3:TrackPointExtension>
        </extensions>
      </trkpt>
      <trkpt lat="43.7703390978276729583740234375" lon="1.56609716825187206268310546875">
        <ele>157.8000030517578125</ele>
        <time>2026-08-13T06:43:35.000Z</time>
        <extensions>
          <ns3:TrackPointExtension>
            <ns3:hr>105</ns3:hr>
            <ns3:cad>45</ns3:cad>
          </ns3:TrackPointExtension>
        </extensions>
      </trkpt>
      <trkpt lat="43.77035041339695453643798828125" lon="1.5660987608134746551513671875">
        <ele>157.8000030517578125</ele>
        <time>2026-08-13T06:43:36.000Z</time>
        <extensions>
          <ns3:TrackPointExtension>
            <ns3:hr>104</ns3:hr>
            <ns3:cad>45</ns3:cad>
          </ns3:TrackPointExtension>
        </extensions>
      </trkpt>
      <trkpt lat="43.77035946585237979888916015625" lon="1.5661034546792507171630859375">
        <ele>157.8000030517578125</ele>
        <time>2026-08-13T06:43:37.000Z</time>
        <extensions>
          <ns3:TrackPointExtension>
            <ns3:hr>105</ns3:hr>
            <ns3:cad>45</ns3:cad>
          </ns3:TrackPointExtension>
        </extensions>
      </trkpt>
      <trkpt lat="43.77036935649812221527099609375" lon="1.56610496342182159423828125">
        <ele>157.8000030517578125</ele>
        <time>2026-08-13T06:43:38.000Z</time>
        <extensions>
          <ns3:TrackPointExtension>
            <ns3:hr>104</ns3:hr>
            <ns3:cad>45</ns3:cad>
          </ns3:TrackPointExtension>
        </extensions>
      </trkpt>
      <trkpt lat="43.77037891186773777008056640625" lon="1.5661078132688999176025390625">
        <ele>157.8000030517578125</ele>
        <time>2026-08-13T06:43:39.000Z</time>
        <extensions>
          <ns3:TrackPointExtension>
            <ns3:hr>104</ns3:hr>
            <ns3:cad>46</ns3:cad>
          </ns3:TrackPointExtension>
        </extensions>
      </trkpt>
      <trkpt lat="43.7703893892467021942138671875" lon="1.566112004220485687255859375">
        <ele>157.8000030517578125</ele>
        <time>2026-08-13T06:43:40.000Z</time>
        <extensions>
          <ns3:TrackPointExtension>
            <ns3:hr>104</ns3:hr>
            <ns3:cad>46</ns3:cad>
          </ns3:TrackPointExtension>
        </extensions>
      </trkpt>
      <trkpt lat="43.7704001180827617645263671875" lon="1.566115356981754302978515625">
        <ele>158</ele>
        <time>2026-08-13T06:43:41.000Z</time>
        <extensions>
          <ns3:TrackPointExtension>
            <ns3:hr>105</ns3:hr>
            <ns3:cad>46</ns3:cad>
          </ns3:TrackPointExtension>
        </extensions>
      </trkpt>
      <trkpt lat="43.7704096734523773193359375" lon="1.56611627899110317230224609375">
        <ele>157.8000030517578125</ele>
        <time>2026-08-13T06:43:42.000Z</time>
        <extensions>
          <ns3:TrackPointExtension>
            <ns3:hr>104</ns3:hr>
            <ns3:cad>46</ns3:cad>
          </ns3:TrackPointExtension>
        </extensions>
      </trkpt>
      <trkpt lat="43.77041973173618316650390625" lon="1.56612373888492584228515625">
        <ele>158</ele>
        <time>2026-08-13T06:43:43.000Z</time>
        <extensions>
          <ns3:TrackPointExtension>
            <ns3:hr>104</ns3:hr>
            <ns3:cad>46</ns3:cad>
          </ns3:TrackPointExtension>
        </extensions>
      </trkpt>
      <trkpt lat="43.77042719163000583648681640625" lon="1.56612784601747989654541015625">
        <ele>158</ele>
        <time>2026-08-13T06:43:44.000Z</time>
        <extensions>
          <ns3:TrackPointExtension>
            <ns3:hr>105</ns3:hr>
            <ns3:cad>46</ns3:cad>
          </ns3:TrackPointExtension>
        </extensions>
      </trkpt>
      <trkpt lat="43.77043440006673336029052734375" lon="1.56613036058843135833740234375">
        <ele>158.1999969482421875</ele>
        <time>2026-08-13T06:43:45.000Z</time>
        <extensions>
          <ns3:TrackPointExtension>
            <ns3:hr>105</ns3:hr>
            <ns3:cad>46</ns3:cad>
          </ns3:TrackPointExtension>
        </extensions>
      </trkpt>
      <trkpt lat="43.77044093795120716094970703125" lon="1.56613287515938282012939453125">
        <ele>158.1999969482421875</ele>
        <time>2026-08-13T06:43:46.000Z</time>
        <extensions>
          <ns3:TrackPointExtension>
            <ns3:hr>105</ns3:hr>
            <ns3:cad>45</ns3:cad>
          </ns3:TrackPointExtension>
        </extensions>
      </trkpt>
      <trkpt lat="43.7704477272927761077880859375" lon="1.56613706611096858978271484375">
        <ele>158.399993896484375</ele>
        <time>2026-08-13T06:43:47.000Z</time>
        <extensions>
          <ns3:TrackPointExtension>
            <ns3:hr>105</ns3:hr>
            <ns3:cad>45</ns3:cad>
          </ns3:TrackPointExtension>
        </extensions>
      </trkpt>
      <trkpt lat="43.77045367844402790069580078125" lon="1.56614209525287151336669921875">
        <ele>158.399993896484375</ele>
        <time>2026-08-13T06:43:48.000Z</time>
        <extensions>
          <ns3:TrackPointExtension>
            <ns3:hr>105</ns3:hr>
            <ns3:cad>45</ns3:cad>
          </ns3:TrackPointExtension>
        </extensions>
      </trkpt>
      <trkpt lat="43.77046574838459491729736328125" lon="1.56614561565220355987548828125">
        <ele>158.399993896484375</ele>
        <time>2026-08-13T06:43:49.000Z</time>
        <extensions>
          <ns3:TrackPointExtension>
            <ns3:hr>104</ns3:hr>
            <ns3:cad>44</ns3:cad>
          </ns3:TrackPointExtension>
        </extensions>
      </trkpt>
      <trkpt lat="43.77047069370746612548828125" lon="1.56615315936505794525146484375">
        <ele>158.600006103515625</ele>
        <time>2026-08-13T06:43:50.000Z</time>
        <extensions>
          <ns3:TrackPointExtension>
            <ns3:hr>104</ns3:hr>
            <ns3:cad>42</ns3:cad>
          </ns3:TrackPointExtension>
        </extensions>
      </trkpt>
      <trkpt lat="43.7704792432487010955810546875" lon="1.56615667976438999176025390625">
        <ele>158.600006103515625</ele>
        <time>2026-08-13T06:43:51.000Z</time>
        <extensions>
          <ns3:TrackPointExtension>
            <ns3:hr>104</ns3:hr>
            <ns3:cad>41</ns3:cad>
          </ns3:TrackPointExtension>
        </extensions>
      </trkpt>
      <trkpt lat="43.7704882957041263580322265625" lon="1.56616053543984889984130859375">
        <ele>158.600006103515625</ele>
        <time>2026-08-13T06:43:52.000Z</time>
        <extensions>
          <ns3:TrackPointExtension>
            <ns3:hr>105</ns3:hr>
            <ns3:cad>41</ns3:cad>
          </ns3:TrackPointExtension>
        </extensions>
      </trkpt>
      <trkpt lat="43.7705008685588836669921875" lon="1.56616489402949810028076171875">
        <ele>158.8000030517578125</ele>
        <time>2026-08-13T06:43:53.000Z</time>
        <extensions>
          <ns3:TrackPointExtension>
            <ns3:hr>106</ns3:hr>
            <ns3:cad>41</ns3:cad>
          </ns3:TrackPointExtension>
        </extensions>
      </trkpt>
      <trkpt lat="43.77051402814686298370361328125" lon="1.56616908498108386993408203125">
        <ele>158.8000030517578125</ele>
        <time>2026-08-13T06:43:54.000Z</time>
        <extensions>
          <ns3:TrackPointExtension>
            <ns3:hr>106</ns3:hr>
            <ns3:cad>42</ns3:cad>
          </ns3:TrackPointExtension>
        </extensions>
      </trkpt>
      <trkpt lat="43.7705238349735736846923828125" lon="1.5661701746284961700439453125">
        <ele>159</ele>
        <time>2026-08-13T06:43:55.000Z</time>
        <extensions>
          <ns3:TrackPointExtension>
            <ns3:hr>107</ns3:hr>
            <ns3:cad>42</ns3:cad>
          </ns3:TrackPointExtension>
        </extensions>
      </trkpt>
      <trkpt lat="43.7705355696380138397216796875" lon="1.566168330609798431396484375">
        <ele>159</ele>
        <time>2026-08-13T06:43:56.000Z</time>
        <extensions>
          <ns3:TrackPointExtension>
            <ns3:hr>107</ns3:hr>
            <ns3:cad>41</ns3:cad>
          </ns3:TrackPointExtension>
        </extensions>
      </trkpt>
      <trkpt lat="43.77054453827440738677978515625" lon="1.5661638043820858001708984375">
        <ele>159</ele>
        <time>2026-08-13T06:43:57.000Z</time>
        <extensions>
          <ns3:TrackPointExtension>
            <ns3:hr>108</ns3:hr>
            <ns3:cad>41</ns3:cad>
          </ns3:TrackPointExtension>
        </extensions>
      </trkpt>
      <trkpt lat="43.77055652439594268798828125" lon="1.56615768559277057647705078125">
        <ele>159.1999969482421875</ele>
        <time>2026-08-13T06:43:58.000Z</time>
        <extensions>
          <ns3:TrackPointExtension>
            <ns3:hr>108</ns3:hr>
            <ns3:cad>41</ns3:cad>
          </ns3:TrackPointExtension>
        </extensions>
      </trkpt>
      <trkpt lat="43.7705623917281627655029296875" lon="1.566150225698947906494140625">
        <ele>159.1999969482421875</ele>
        <time>2026-08-13T06:43:59.000Z</time>
        <extensions>
          <ns3:TrackPointExtension>
            <ns3:hr>108</ns3:hr>
            <ns3:cad>41</ns3:cad>
          </ns3:TrackPointExtension>
        </extensions>
      </trkpt>
      <trkpt lat="43.770570270717144012451171875" lon="1.56614192761480808258056640625">
        <ele>159.1999969482421875</ele>
        <time>2026-08-13T06:44:00.000Z</time>
        <extensions>
          <ns3:TrackPointExtension>
            <ns3:hr>108</ns3:hr>
            <ns3:cad>44</ns3:cad>
          </ns3:TrackPointExtension>
        </extensions>
      </trkpt>
      <trkpt lat="43.77057689242064952850341796875" lon="1.5661322884261608123779296875">
        <ele>159.1999969482421875</ele>
        <time>2026-08-13T06:44:01.000Z</time>
        <extensions>
          <ns3:TrackPointExtension>
            <ns3:hr>108</ns3:hr>
            <ns3:cad>45</ns3:cad>
          </ns3:TrackPointExtension>
        </extensions>
      </trkpt>
      <trkpt lat="43.77058343030512332916259765625" lon="1.566124744713306427001953125">
        <ele>159.1999969482421875</ele>
        <time>2026-08-13T06:44:02.000Z</time>
        <extensions>
          <ns3:TrackPointExtension>
            <ns3:hr>108</ns3:hr>
            <ns3:cad>45</ns3:cad>
          </ns3:TrackPointExtension>
        </extensions>
      </trkpt>
      <trkpt lat="43.7705895490944385528564453125" lon="1.56611569225788116455078125">
        <ele>159.1999969482421875</ele>
        <time>2026-08-13T06:44:03.000Z</time>
        <extensions>
          <ns3:TrackPointExtension>
            <ns3:hr>107</ns3:hr>
            <ns3:cad>45</ns3:cad>
          </ns3:TrackPointExtension>
        </extensions>
      </trkpt>
      <trkpt lat="43.7705969251692295074462890625" lon="1.566103957593441009521484375">
        <ele>159</ele>
        <time>2026-08-13T06:44:04.000Z</time>
        <extensions>
          <ns3:TrackPointExtension>
            <ns3:hr>107</ns3:hr>
            <ns3:cad>45</ns3:cad>
          </ns3:TrackPointExtension>
        </extensions>
      </trkpt>
      <trkpt lat="43.7706029601395130157470703125" lon="1.56609431840479373931884765625">
        <ele>159</ele>
        <time>2026-08-13T06:44:05.000Z</time>
        <extensions>
          <ns3:TrackPointExtension>
            <ns3:hr>106</ns3:hr>
            <ns3:cad>46</ns3:cad>
          </ns3:TrackPointExtension>
        </extensions>
      </trkpt>
      <trkpt lat="43.7706096656620502471923828125" lon="1.56608409248292446136474609375">
        <ele>159</ele>
        <time>2026-08-13T06:44:06.000Z</time>
        <extensions>
          <ns3:TrackPointExtension>
            <ns3:hr>105</ns3:hr>
            <ns3:cad>47</ns3:cad>
          </ns3:TrackPointExtension>
        </extensions>
      </trkpt>
      <trkpt lat="43.77061477862298488616943359375" lon="1.56607369892299175262451171875">
        <ele>159</ele>
        <time>2026-08-13T06:44:07.000Z</time>
        <extensions>
          <ns3:TrackPointExtension>
            <ns3:hr>105</ns3:hr>
            <ns3:cad>47</ns3:cad>
          </ns3:TrackPointExtension>
        </extensions>
      </trkpt>
      <trkpt lat="43.7706215679645538330078125" lon="1.56606229953467845916748046875">
        <ele>159</ele>
        <time>2026-08-13T06:44:08.000Z</time>
        <extensions>
          <ns3:TrackPointExtension>
            <ns3:hr>105</ns3:hr>
            <ns3:cad>48</ns3:cad>
          </ns3:TrackPointExtension>
        </extensions>
      </trkpt>
      <trkpt lat="43.77062802202999591827392578125" lon="1.5660518221557140350341796875">
        <ele>159</ele>
        <time>2026-08-13T06:44:09.000Z</time>
        <extensions>
          <ns3:TrackPointExtension>
            <ns3:hr>104</ns3:hr>
            <ns3:cad>48</ns3:cad>
          </ns3:TrackPointExtension>
        </extensions>
      </trkpt>
      <trkpt lat="43.77063472755253314971923828125" lon="1.56603799201548099517822265625">
        <ele>159</ele>
        <time>2026-08-13T06:44:10.000Z</time>
        <extensions>
          <ns3:TrackPointExtension>
            <ns3:hr>104</ns3:hr>
            <ns3:cad>48</ns3:cad>
          </ns3:TrackPointExtension>
        </extensions>
      </trkpt>
      <trkpt lat="43.77063958905637264251708984375" lon="1.56602676026523113250732421875">
        <ele>159</ele>
        <time>2026-08-13T06:44:11.000Z</time>
        <extensions>
          <ns3:TrackPointExtension>
            <ns3:hr>103</ns3:hr>
            <ns3:cad>48</ns3:cad>
          </ns3:TrackPointExtension>
        </extensions>
      </trkpt>
      <trkpt lat="43.77064562402665615081787109375" lon="1.56601619906723499298095703125">
        <ele>159</ele>
        <time>2026-08-13T06:44:12.000Z</time>
        <extensions>
          <ns3:TrackPointExtension>
            <ns3:hr>102</ns3:hr>
            <ns3:cad>47</ns3:cad>
          </ns3:TrackPointExtension>
        </extensions>
      </trkpt>
      <trkpt lat="43.77065316773951053619384765625" lon="1.56600731424987316131591796875">
        <ele>159</ele>
        <time>2026-08-13T06:44:13.000Z</time>
        <extensions>
          <ns3:TrackPointExtension>
            <ns3:hr>101</ns3:hr>
            <ns3:cad>47</ns3:cad>
          </ns3:TrackPointExtension>
        </extensions>
      </trkpt>
      <trkpt lat="43.7706577777862548828125" lon="1.5659975074231624603271484375">
        <ele>158.8000030517578125</ele>
        <time>2026-08-13T06:44:14.000Z</time>
        <extensions>
          <ns3:TrackPointExtension>
            <ns3:hr>101</ns3:hr>
            <ns3:cad>47</ns3:cad>
          </ns3:TrackPointExtension>
        </extensions>
      </trkpt>
      <trkpt lat="43.77066473476588726043701171875" lon="1.5659877844154834747314453125">
        <ele>158.8000030517578125</ele>
        <time>2026-08-13T06:44:15.000Z</time>
        <extensions>
          <ns3:TrackPointExtension>
            <ns3:hr>100</ns3:hr>
            <ns3:cad>48</ns3:cad>
          </ns3:TrackPointExtension>
        </extensions>
      </trkpt>
      <trkpt lat="43.77067076973617076873779296875" lon="1.5659795701503753662109375">
        <ele>158.8000030517578125</ele>
        <time>2026-08-13T06:44:16.000Z</time>
        <extensions>
          <ns3:TrackPointExtension>
            <ns3:hr>100</ns3:hr>
            <ns3:cad>48</ns3:cad>
          </ns3:TrackPointExtension>
        </extensions>
      </trkpt>
      <trkpt lat="43.77067915163934230804443359375" lon="1.56597043387591838836669921875">
        <ele>158.8000030517578125</ele>
        <time>2026-08-13T06:44:17.000Z</time>
        <extensions>
          <ns3:TrackPointExtension>
            <ns3:hr>100</ns3:hr>
            <ns3:cad>48</ns3:cad>
          </ns3:TrackPointExtension>
        </extensions>
      </trkpt>
      <trkpt lat="43.7706857733428478240966796875" lon="1.56595744192600250244140625">
        <ele>158.8000030517578125</ele>
        <time>2026-08-13T06:44:18.000Z</time>
        <extensions>
          <ns3:TrackPointExtension>
            <ns3:hr>99</ns3:hr>
            <ns3:cad>47</ns3:cad>
          </ns3:TrackPointExtension>
        </extensions>
      </trkpt>
      <trkpt lat="43.7706921435892581939697265625" lon="1.56594377942383289337158203125">
        <ele>158.8000030517578125</ele>
        <time>2026-08-13T06:44:19.000Z</time>
        <extensions>
          <ns3:TrackPointExtension>
            <ns3:hr>98</ns3:hr>
            <ns3:cad>47</ns3:cad>
          </ns3:TrackPointExtension>
        </extensions>
      </trkpt>
      <trkpt lat="43.77069843001663684844970703125" lon="1.56593388877809047698974609375">
        <ele>158.8000030517578125</ele>
        <time>2026-08-13T06:44:20.000Z</time>
        <extensions>
          <ns3:TrackPointExtension>
            <ns3:hr>98</ns3:hr>
            <ns3:cad>47</ns3:cad>
          </ns3:TrackPointExtension>
        </extensions>
      </trkpt>
      <trkpt lat="43.77070329152047634124755859375" lon="1.56592232175171375274658203125">
        <ele>158.8000030517578125</ele>
        <time>2026-08-13T06:44:21.000Z</time>
        <extensions>
          <ns3:TrackPointExtension>
            <ns3:hr>97</ns3:hr>
            <ns3:cad>47</ns3:cad>
          </ns3:TrackPointExtension>
        </extensions>
      </trkpt>
      <trkpt lat="43.77070865593850612640380859375" lon="1.565909497439861297607421875">
        <ele>158.600006103515625</ele>
        <time>2026-08-13T06:44:22.000Z</time>
        <extensions>
          <ns3:TrackPointExtension>
            <ns3:hr>97</ns3:hr>
            <ns3:cad>47</ns3:cad>
          </ns3:TrackPointExtension>
        </extensions>
      </trkpt>
      <trkpt lat="43.77071184106171131134033203125" lon="1.5659043006598949432373046875">
        <ele>158.600006103515625</ele>
        <time>2026-08-13T06:44:23.000Z</time>
        <extensions>
          <ns3:TrackPointExtension>
            <ns3:hr>96</ns3:hr>
            <ns3:cad>47</ns3:cad>
          </ns3:TrackPointExtension>
        </extensions>
      </trkpt>
      <trkpt lat="43.77071888186037540435791015625" lon="1.5658937394618988037109375">
        <ele>158.600006103515625</ele>
        <time>2026-08-13T06:44:24.000Z</time>
        <extensions>
          <ns3:TrackPointExtension>
            <ns3:hr>96</ns3:hr>
            <ns3:cad>47</ns3:cad>
          </ns3:TrackPointExtension>
        </extensions>
      </trkpt>
      <trkpt lat="43.77072282135486602783203125" lon="1.56587990932166576385498046875">
        <ele>158.600006103515625</ele>
        <time>2026-08-13T06:44:25.000Z</time>
        <extensions>
          <ns3:TrackPointExtension>
            <ns3:hr>96</ns3:hr>
            <ns3:cad>46</ns3:cad>
          </ns3:TrackPointExtension>
        </extensions>
      </trkpt>
      <trkpt lat="43.77072894014418125152587890625" lon="1.56586918048560619354248046875">
        <ele>158.600006103515625</ele>
        <time>2026-08-13T06:44:26.000Z</time>
        <extensions>
          <ns3:TrackPointExtension>
            <ns3:hr>95</ns3:hr>
            <ns3:cad>46</ns3:cad>
          </ns3:TrackPointExtension>
        </extensions>
      </trkpt>
      <trkpt lat="43.7707364000380039215087890625" lon="1.5658593736588954925537109375">
        <ele>158.399993896484375</ele>
        <time>2026-08-13T06:44:27.000Z</time>
        <extensions>
          <ns3:TrackPointExtension>
            <ns3:hr>94</ns3:hr>
            <ns3:cad>47</ns3:cad>
          </ns3:TrackPointExtension>
        </extensions>
      </trkpt>
      <trkpt lat="43.77074033953249454498291015625" lon="1.5658513270318508148193359375">
        <ele>158.399993896484375</ele>
        <time>2026-08-13T06:44:28.000Z</time>
        <extensions>
          <ns3:TrackPointExtension>
            <ns3:hr>93</ns3:hr>
            <ns3:cad>49</ns3:cad>
          </ns3:TrackPointExtension>
        </extensions>
      </trkpt>
      <trkpt lat="43.7707476317882537841796875" lon="1.56584017910063266754150390625">
        <ele>158.399993896484375</ele>
        <time>2026-08-13T06:44:29.000Z</time>
        <extensions>
          <ns3:TrackPointExtension>
            <ns3:hr>93</ns3:hr>
            <ns3:cad>49</ns3:cad>
          </ns3:TrackPointExtension>
        </extensions>
      </trkpt>
      <trkpt lat="43.7707548402249813079833984375" lon="1.56583028845489025115966796875">
        <ele>158.399993896484375</ele>
        <time>2026-08-13T06:44:30.000Z</time>
        <extensions>
          <ns3:TrackPointExtension>
            <ns3:hr>91</ns3:hr>
            <ns3:cad>47</ns3:cad>
          </ns3:TrackPointExtension>
        </extensions>
      </trkpt>
      <trkpt lat="43.7707625515758991241455078125" lon="1.56581922434270381927490234375">
        <ele>158.399993896484375</ele>
        <time>2026-08-13T06:44:31.000Z</time>
        <extensions>
          <ns3:TrackPointExtension>
            <ns3:hr>91</ns3:hr>
            <ns3:cad>47</ns3:cad>
          </ns3:TrackPointExtension>
        </extensions>
      </trkpt>
      <trkpt lat="43.770771436393260955810546875" lon="1.56580723822116851806640625">
        <ele>158.399993896484375</ele>
        <time>2026-08-13T06:44:32.000Z</time>
        <extensions>
          <ns3:TrackPointExtension>
            <ns3:hr>90</ns3:hr>
            <ns3:cad>47</ns3:cad>
          </ns3:TrackPointExtension>
        </extensions>
      </trkpt>
      <trkpt lat="43.77078006975352764129638671875" lon="1.56579525209963321685791015625">
        <ele>158.399993896484375</ele>
        <time>2026-08-13T06:44:33.000Z</time>
        <extensions>
          <ns3:TrackPointExtension>
            <ns3:hr>90</ns3:hr>
            <ns3:cad>48</ns3:cad>
          </ns3:TrackPointExtension>
        </extensions>
      </trkpt>
      <trkpt lat="43.7707880325615406036376953125" lon="1.565782763063907623291015625">
        <ele>158.1999969482421875</ele>
        <time>2026-08-13T06:44:34.000Z</time>
        <extensions>
          <ns3:TrackPointExtension>
            <ns3:hr>90</ns3:hr>
            <ns3:cad>48</ns3:cad>
          </ns3:TrackPointExtension>
        </extensions>
      </trkpt>
      <trkpt lat="43.7707917205989360809326171875" lon="1.565769016742706298828125">
        <ele>158.1999969482421875</ele>
        <time>2026-08-13T06:44:35.000Z</time>
        <extensions>
          <ns3:TrackPointExtension>
            <ns3:hr>90</ns3:hr>
            <ns3:cad>48</ns3:cad>
          </ns3:TrackPointExtension>
        </extensions>
      </trkpt>
      <trkpt lat="43.77079867757856845855712890625" lon="1.5657581202685832977294921875">
        <ele>158.1999969482421875</ele>
        <time>2026-08-13T06:44:36.000Z</time>
        <extensions>
          <ns3:TrackPointExtension>
            <ns3:hr>90</ns3:hr>
            <ns3:cad>48</ns3:cad>
          </ns3:TrackPointExtension>
        </extensions>
      </trkpt>
      <trkpt lat="43.7708058021962642669677734375" lon="1.5657447092235088348388671875">
        <ele>158.1999969482421875</ele>
        <time>2026-08-13T06:44:37.000Z</time>
        <extensions>
          <ns3:TrackPointExtension>
            <ns3:hr>91</ns3:hr>
            <ns3:cad>48</ns3:cad>
          </ns3:TrackPointExtension>
        </extensions>
      </trkpt>
      <trkpt lat="43.77081175334751605987548828125" lon="1.56573322601616382598876953125">
        <ele>158.1999969482421875</ele>
        <time>2026-08-13T06:44:38.000Z</time>
        <extensions>
          <ns3:TrackPointExtension>
            <ns3:hr>91</ns3:hr>
            <ns3:cad>48</ns3:cad>
          </ns3:TrackPointExtension>
        </extensions>
      </trkpt>
      <trkpt lat="43.770818375051021575927734375" lon="1.56572082079946994781494140625">
        <ele>158.1999969482421875</ele>
        <time>2026-08-13T06:44:39.000Z</time>
        <extensions>
          <ns3:TrackPointExtension>
            <ns3:hr>92</ns3:hr>
            <ns3:cad>49</ns3:cad>
          </ns3:TrackPointExtension>
        </extensions>
      </trkpt>
      <trkpt lat="43.77082281745970249176025390625" lon="1.56570590101182460784912109375">
        <ele>158.1999969482421875</ele>
        <time>2026-08-13T06:44:40.000Z</time>
        <extensions>
          <ns3:TrackPointExtension>
            <ns3:hr>92</ns3:hr>
            <ns3:cad>48</ns3:cad>
          </ns3:TrackPointExtension>
        </extensions>
      </trkpt>
      <trkpt lat="43.77082742750644683837890625" lon="1.56569684855639934539794921875">
        <ele>158.1999969482421875</ele>
        <time>2026-08-13T06:44:41.000Z</time>
        <extensions>
          <ns3:TrackPointExtension>
            <ns3:hr>93</ns3:hr>
            <ns3:cad>48</ns3:cad>
          </ns3:TrackPointExtension>
        </extensions>
      </trkpt>
      <trkpt lat="43.77083337865769863128662109375" lon="1.56568360514938831329345703125">
        <ele>158.1999969482421875</ele>
        <time>2026-08-13T06:44:42.000Z</time>
        <extensions>
          <ns3:TrackPointExtension>
            <ns3:hr>93</ns3:hr>
            <ns3:cad>48</ns3:cad>
          </ns3:TrackPointExtension>
        </extensions>
      </trkpt>
      <trkpt lat="43.77083991654217243194580078125" lon="1.565673463046550750732421875">
        <ele>158.1999969482421875</ele>
        <time>2026-08-13T06:44:43.000Z</time>
        <extensions>
          <ns3:TrackPointExtension>
            <ns3:hr>94</ns3:hr>
            <ns3:cad>48</ns3:cad>
          </ns3:TrackPointExtension>
        </extensions>
      </trkpt>
      <trkpt lat="43.7708467058837413787841796875" lon="1.5656585432589054107666015625">
        <ele>158.1999969482421875</ele>
        <time>2026-08-13T06:44:44.000Z</time>
        <extensions>
          <ns3:TrackPointExtension>
            <ns3:hr>94</ns3:hr>
            <ns3:cad>49</ns3:cad>
          </ns3:TrackPointExtension>
        </extensions>
      </trkpt>
      <trkpt lat="43.7708507291972637176513671875" lon="1.56564404256641864776611328125">
        <ele>158.1999969482421875</ele>
        <time>2026-08-13T06:44:45.000Z</time>
        <extensions>
          <ns3:TrackPointExtension>
            <ns3:hr>94</ns3:hr>
            <ns3:cad>48</ns3:cad>
          </ns3:TrackPointExtension>
        </extensions>
      </trkpt>
      <trkpt lat="43.7708564288914203643798828125" lon="1.56563415192067623138427734375">
        <ele>158</ele>
        <time>2026-08-13T06:44:46.000Z</time>
        <extensions>
          <ns3:TrackPointExtension>
            <ns3:hr>94</ns3:hr>
            <ns3:cad>48</ns3:cad>
          </ns3:TrackPointExtension>
        </extensions>
      </trkpt>
      <trkpt lat="43.7708621285855770111083984375" lon="1.56562107615172863006591796875">
        <ele>158</ele>
        <time>2026-08-13T06:44:47.000Z</time>
        <extensions>
          <ns3:TrackPointExtension>
            <ns3:hr>94</ns3:hr>
            <ns3:cad>48</ns3:cad>
          </ns3:TrackPointExtension>
        </extensions>
      </trkpt>
      <trkpt lat="43.77086740918457508087158203125" lon="1.56560833565890789031982421875">
        <ele>158</ele>
        <time>2026-08-13T06:44:48.000Z</time>
        <extensions>
          <ns3:TrackPointExtension>
            <ns3:hr>94</ns3:hr>
            <ns3:cad>48</ns3:cad>
          </ns3:TrackPointExtension>
        </extensions>
      </trkpt>
      <trkpt lat="43.7708710134029388427734375" lon="1.5655955113470554351806640625">
        <ele>158</ele>
        <time>2026-08-13T06:44:49.000Z</time>
        <extensions>
          <ns3:TrackPointExtension>
            <ns3:hr>94</ns3:hr>
            <ns3:cad>48</ns3:cad>
          </ns3:TrackPointExtension>
        </extensions>
      </trkpt>
      <trkpt lat="43.770875036716461181640625" lon="1.5655807591974735260009765625">
        <ele>158</ele>
        <time>2026-08-13T06:44:50.000Z</time>
        <extensions>
          <ns3:TrackPointExtension>
            <ns3:hr>93</ns3:hr>
            <ns3:cad>48</ns3:cad>
          </ns3:TrackPointExtension>
        </extensions>
      </trkpt>
      <trkpt lat="43.77088107168674468994140625" lon="1.56556642614305019378662109375">
        <ele>158</ele>
        <time>2026-08-13T06:44:51.000Z</time>
        <extensions>
          <ns3:TrackPointExtension>
            <ns3:hr>93</ns3:hr>
            <ns3:cad>47</ns3:cad>
          </ns3:TrackPointExtension>
        </extensions>
      </trkpt>
      <trkpt lat="43.7708869390189647674560546875" lon="1.5655504167079925537109375">
        <ele>158.1999969482421875</ele>
        <time>2026-08-13T06:44:52.000Z</time>
        <extensions>
          <ns3:TrackPointExtension>
            <ns3:hr>93</ns3:hr>
            <ns3:cad>48</ns3:cad>
          </ns3:TrackPointExtension>
        </extensions>
      </trkpt>
      <trkpt lat="43.77089205197989940643310546875" lon="1.56554077751934528350830078125">
        <ele>158</ele>
        <time>2026-08-13T06:44:53.000Z</time>
        <extensions>
          <ns3:TrackPointExtension>
            <ns3:hr>93</ns3:hr>
            <ns3:cad>48</ns3:cad>
          </ns3:TrackPointExtension>
        </extensions>
      </trkpt>
      <trkpt lat="43.77089724875986576080322265625" lon="1.5655289590358734130859375">
        <ele>158</ele>
        <time>2026-08-13T06:44:54.000Z</time>
        <extensions>
          <ns3:TrackPointExtension>
            <ns3:hr>94</ns3:hr>
            <ns3:cad>48</ns3:cad>
          </ns3:TrackPointExtension>
        </extensions>
      </trkpt>
      <trkpt lat="43.77090261317789554595947265625" lon="1.565515212714672088623046875">
        <ele>158</ele>
        <time>2026-08-13T06:44:55.000Z</time>
        <extensions>
          <ns3:TrackPointExtension>
            <ns3:hr>94</ns3:hr>
            <ns3:cad>48</ns3:cad>
          </ns3:TrackPointExtension>
        </extensions>
      </trkpt>
      <trkpt lat="43.77090713940560817718505859375" lon="1.5655029751360416412353515625">
        <ele>158</ele>
        <time>2026-08-13T06:44:56.000Z</time>
        <extensions>
          <ns3:TrackPointExtension>
            <ns3:hr>94</ns3:hr>
            <ns3:cad>48</ns3:cad>
          </ns3:TrackPointExtension>
        </extensions>
      </trkpt>
      <trkpt lat="43.7709130905568599700927734375" lon="1.56549115665256977081298828125">
        <ele>158</ele>
        <time>2026-08-13T06:44:57.000Z</time>
        <extensions>
          <ns3:TrackPointExtension>
            <ns3:hr>94</ns3:hr>
            <ns3:cad>47</ns3:cad>
          </ns3:TrackPointExtension>
        </extensions>
      </trkpt>
      <trkpt lat="43.770917952060699462890625" lon="1.565480343997478485107421875">
        <ele>158</ele>
        <time>2026-08-13T06:44:58.000Z</time>
        <extensions>
          <ns3:TrackPointExtension>
            <ns3:hr>94</ns3:hr>
            <ns3:cad>47</ns3:cad>
          </ns3:TrackPointExtension>
        </extensions>
      </trkpt>
      <trkpt lat="43.770922310650348663330078125" lon="1.56546802259981632232666015625">
        <ele>158</ele>
        <time>2026-08-13T06:44:59.000Z</time>
        <extensions>
          <ns3:TrackPointExtension>
            <ns3:hr>94</ns3:hr>
            <ns3:cad>48</ns3:cad>
          </ns3:TrackPointExtension>
        </extensions>
      </trkpt>
      <trkpt lat="43.77093010582029819488525390625" lon="1.56545813195407390594482421875">
        <ele>158</ele>
        <time>2026-08-13T06:45:00.000Z</time>
        <extensions>
          <ns3:TrackPointExtension>
            <ns3:hr>94</ns3:hr>
            <ns3:cad>48</ns3:cad>
          </ns3:TrackPointExtension>
        </extensions>
      </trkpt>
      <trkpt lat="43.77093446440994739532470703125" lon="1.5654466487467288970947265625">
        <ele>157.8000030517578125</ele>
        <time>2026-08-13T06:45:01.000Z</time>
        <extensions>
          <ns3:TrackPointExtension>
            <ns3:hr>95</ns3:hr>
            <ns3:cad>48</ns3:cad>
          </ns3:TrackPointExtension>
        </extensions>
      </trkpt>
      <trkpt lat="43.77094049938023090362548828125" lon="1.5654342435300350189208984375">
        <ele>157.8000030517578125</ele>
        <time>2026-08-13T06:45:02.000Z</time>
        <extensions>
          <ns3:TrackPointExtension>
            <ns3:hr>95</ns3:hr>
            <ns3:cad>48</ns3:cad>
          </ns3:TrackPointExtension>
        </extensions>
      </trkpt>
      <trkpt lat="43.770945109426975250244140625" lon="1.5654216706752777099609375">
        <ele>157.8000030517578125</ele>
        <time>2026-08-13T06:45:03.000Z</time>
        <extensions>
          <ns3:TrackPointExtension>
            <ns3:hr>95</ns3:hr>
            <ns3:cad>49</ns3:cad>
          </ns3:TrackPointExtension>
        </extensions>
      </trkpt>
      <trkpt lat="43.77095089294016361236572265625" lon="1.565408594906330108642578125">
        <ele>157.8000030517578125</ele>
        <time>2026-08-13T06:45:04.000Z</time>
        <extensions>
          <ns3:TrackPointExtension>
            <ns3:hr>96</ns3:hr>
            <ns3:cad>49</ns3:cad>
          </ns3:TrackPointExtension>
        </extensions>
      </trkpt>
      <trkpt lat="43.77095483243465423583984375" lon="1.56539493240416049957275390625">
        <ele>157.8000030517578125</ele>
        <time>2026-08-13T06:45:05.000Z</time>
        <extensions>
          <ns3:TrackPointExtension>
            <ns3:hr>96</ns3:hr>
            <ns3:cad>47</ns3:cad>
          </ns3:TrackPointExtension>
        </extensions>
      </trkpt>
      <trkpt lat="43.7709620408713817596435546875" lon="1.56538101844489574432373046875">
        <ele>157.8000030517578125</ele>
        <time>2026-08-13T06:45:06.000Z</time>
        <extensions>
          <ns3:TrackPointExtension>
            <ns3:hr>95</ns3:hr>
            <ns3:cad>48</ns3:cad>
          </ns3:TrackPointExtension>
        </extensions>
      </trkpt>
      <trkpt lat="43.7709670700132846832275390625" lon="1.5653693675994873046875">
        <ele>157.8000030517578125</ele>
        <time>2026-08-13T06:45:07.000Z</time>
        <extensions>
          <ns3:TrackPointExtension>
            <ns3:hr>96</ns3:hr>
            <ns3:cad>48</ns3:cad>
          </ns3:TrackPointExtension>
        </extensions>
      </trkpt>
      <trkpt lat="43.77097017131745815277099609375" lon="1.56535394489765167236328125">
        <ele>157.8000030517578125</ele>
        <time>2026-08-13T06:45:08.000Z</time>
        <extensions>
          <ns3:TrackPointExtension>
            <ns3:hr>96</ns3:hr>
            <ns3:cad>48</ns3:cad>
          </ns3:TrackPointExtension>
        </extensions>
      </trkpt>
      <trkpt lat="43.77097360789775848388671875" lon="1.56533910892903804779052734375">
        <ele>157.8000030517578125</ele>
        <time>2026-08-13T06:45:09.000Z</time>
        <extensions>
          <ns3:TrackPointExtension>
            <ns3:hr>96</ns3:hr>
            <ns3:cad>48</ns3:cad>
          </ns3:TrackPointExtension>
        </extensions>
      </trkpt>
      <trkpt lat="43.7709771282970905303955078125" lon="1.5653266198933124542236328125">
        <ele>157.8000030517578125</ele>
        <time>2026-08-13T06:45:10.000Z</time>
        <extensions>
          <ns3:TrackPointExtension>
            <ns3:hr>96</ns3:hr>
            <ns3:cad>46</ns3:cad>
          </ns3:TrackPointExtension>
        </extensions>
      </trkpt>
      <trkpt lat="43.77098433673381805419921875" lon="1.5653122030198574066162109375">
        <ele>157.8000030517578125</ele>
        <time>2026-08-13T06:45:11.000Z</time>
        <extensions>
          <ns3:TrackPointExtension>
            <ns3:hr>96</ns3:hr>
            <ns3:cad>46</ns3:cad>
          </ns3:TrackPointExtension>
        </extensions>
      </trkpt>
      <trkpt lat="43.7709898687899112701416015625" lon="1.56530256383121013641357421875">
        <ele>157.8000030517578125</ele>
        <time>2026-08-13T06:45:12.000Z</time>
        <extensions>
          <ns3:TrackPointExtension>
            <ns3:hr>96</ns3:hr>
            <ns3:cad>46</ns3:cad>
          </ns3:TrackPointExtension>
        </extensions>
      </trkpt>
      <trkpt lat="43.77099514938890933990478515625" lon="1.56528797931969165802001953125">
        <ele>157.8000030517578125</ele>
        <time>2026-08-13T06:45:13.000Z</time>
        <extensions>
          <ns3:TrackPointExtension>
            <ns3:hr>96</ns3:hr>
            <ns3:cad>45</ns3:cad>
          </ns3:TrackPointExtension>
        </extensions>
      </trkpt>
      <trkpt lat="43.7709989212453365325927734375" lon="1.5652743168175220489501953125">
        <ele>157.8000030517578125</ele>
        <time>2026-08-13T06:45:14.000Z</time>
        <extensions>
          <ns3:TrackPointExtension>
            <ns3:hr>96</ns3:hr>
            <ns3:cad>47</ns3:cad>
          </ns3:TrackPointExtension>
        </extensions>
      </trkpt>
      <trkpt lat="43.77100487239658832550048828125" lon="1.56526417471468448638916015625">
        <ele>157.8000030517578125</ele>
        <time>2026-08-13T06:45:15.000Z</time>
        <extensions>
          <ns3:TrackPointExtension>
            <ns3:hr>96</ns3:hr>
            <ns3:cad>47</ns3:cad>
          </ns3:TrackPointExtension>
        </extensions>
      </trkpt>
      <trkpt lat="43.77100973390042781829833984375" lon="1.565251015126705169677734375">
        <ele>157.8000030517578125</ele>
        <time>2026-08-13T06:45:16.000Z</time>
        <extensions>
          <ns3:TrackPointExtension>
            <ns3:hr>96</ns3:hr>
            <ns3:cad>47</ns3:cad>
          </ns3:TrackPointExtension>
        </extensions>
      </trkpt>
      <trkpt lat="43.77101518213748931884765625" lon="1.56523718498647212982177734375">
        <ele>157.8000030517578125</ele>
        <time>2026-08-13T06:45:17.000Z</time>
        <extensions>
          <ns3:TrackPointExtension>
            <ns3:hr>97</ns3:hr>
            <ns3:cad>48</ns3:cad>
          </ns3:TrackPointExtension>
        </extensions>
      </trkpt>
      <trkpt lat="43.7710217200219631195068359375" lon="1.56522159464657306671142578125">
        <ele>157.8000030517578125</ele>
        <time>2026-08-13T06:45:18.000Z</time>
        <extensions>
          <ns3:TrackPointExtension>
            <ns3:hr>97</ns3:hr>
            <ns3:cad>48</ns3:cad>
          </ns3:TrackPointExtension>
        </extensions>
      </trkpt>
      <trkpt lat="43.77102515660226345062255859375" lon="1.56520868651568889617919921875">
        <ele>158</ele>
        <time>2026-08-13T06:45:19.000Z</time>
        <extensions>
          <ns3:TrackPointExtension>
            <ns3:hr>97</ns3:hr>
            <ns3:cad>48</ns3:cad>
          </ns3:TrackPointExtension>
        </extensions>
      </trkpt>
      <trkpt lat="43.7710301019251346588134765625" lon="1.5651931799948215484619140625">
        <ele>158</ele>
        <time>2026-08-13T06:45:20.000Z</time>
        <extensions>
          <ns3:TrackPointExtension>
            <ns3:hr>97</ns3:hr>
            <ns3:cad>48</ns3:cad>
          </ns3:TrackPointExtension>
        </extensions>
      </trkpt>
      <trkpt lat="43.771032281219959259033203125" lon="1.565180607140064239501953125">
        <ele>158</ele>
        <time>2026-08-13T06:45:21.000Z</time>
        <extensions>
          <ns3:TrackPointExtension>
            <ns3:hr>98</ns3:hr>
            <ns3:cad>48</ns3:cad>
          </ns3:TrackPointExtension>
        </extensions>
      </trkpt>
      <trkpt lat="43.7710351310670375823974609375" lon="1.5651666931807994842529296875">
        <ele>158</ele>
        <time>2026-08-13T06:45:22.000Z</time>
        <extensions>
          <ns3:TrackPointExtension>
            <ns3:hr>97</ns3:hr>
            <ns3:cad>48</ns3:cad>
          </ns3:TrackPointExtension>
        </extensions>
      </trkpt>
      <trkpt lat="43.7710394896566867828369140625" lon="1.56515202485024929046630859375">
        <ele>158</ele>
        <time>2026-08-13T06:45:23.000Z</time>
        <extensions>
          <ns3:TrackPointExtension>
            <ns3:hr>97</ns3:hr>
            <ns3:cad>48</ns3:cad>
          </ns3:TrackPointExtension>
        </extensions>
      </trkpt>
      <trkpt lat="43.7710448540747165679931640625" lon="1.56514598987996578216552734375">
        <ele>158</ele>
        <time>2026-08-13T06:45:24.000Z</time>
        <extensions>
          <ns3:TrackPointExtension>
            <ns3:hr>97</ns3:hr>
            <ns3:cad>48</ns3:cad>
          </ns3:TrackPointExtension>
        </extensions>
      </trkpt>
      <trkpt lat="43.77105139195919036865234375" lon="1.565135009586811065673828125">
        <ele>158.1999969482421875</ele>
        <time>2026-08-13T06:45:25.000Z</time>
        <extensions>
          <ns3:TrackPointExtension>
            <ns3:hr>97</ns3:hr>
            <ns3:cad>48</ns3:cad>
          </ns3:TrackPointExtension>
        </extensions>
      </trkpt>
      <trkpt lat="43.7710559181869029998779296875" lon="1.56512059271335601806640625">
        <ele>158.1999969482421875</ele>
        <time>2026-08-13T06:45:26.000Z</time>
        <extensions>
          <ns3:TrackPointExtension>
            <ns3:hr>96</ns3:hr>
            <ns3:cad>47</ns3:cad>
          </ns3:TrackPointExtension>
        </extensions>
      </trkpt>
      <trkpt lat="43.7710619531571865081787109375" lon="1.56509972177445888519287109375">
        <ele>158.1999969482421875</ele>
        <time>2026-08-13T06:45:27.000Z</time>
        <extensions>
          <ns3:TrackPointExtension>
            <ns3:hr>96</ns3:hr>
            <ns3:cad>47</ns3:cad>
          </ns3:TrackPointExtension>
        </extensions>
      </trkpt>
      <trkpt lat="43.7710663117468357086181640625" lon="1.56508916057646274566650390625">
        <ele>158.1999969482421875</ele>
        <time>2026-08-13T06:45:28.000Z</time>
        <extensions>
          <ns3:TrackPointExtension>
            <ns3:hr>96</ns3:hr>
            <ns3:cad>48</ns3:cad>
          </ns3:TrackPointExtension>
        </extensions>
      </trkpt>
      <trkpt lat="43.77107016742229461669921875" lon="1.56507709063589572906494140625">
        <ele>158.1999969482421875</ele>
        <time>2026-08-13T06:45:29.000Z</time>
        <extensions>
          <ns3:TrackPointExtension>
            <ns3:hr>96</ns3:hr>
            <ns3:cad>48</ns3:cad>
          </ns3:TrackPointExtension>
        </extensions>
      </trkpt>
      <trkpt lat="43.7710773758590221405029296875" lon="1.5650674514472484588623046875">
        <ele>158.1999969482421875</ele>
        <time>2026-08-13T06:45:30.000Z</time>
        <extensions>
          <ns3:TrackPointExtension>
            <ns3:hr>95</ns3:hr>
            <ns3:cad>48</ns3:cad>
          </ns3:TrackPointExtension>
        </extensions>
      </trkpt>
      <trkpt lat="43.77108215354382991790771484375" lon="1.565056554973125457763671875">
        <ele>158.1999969482421875</ele>
        <time>2026-08-13T06:45:31.000Z</time>
        <extensions>
          <ns3:TrackPointExtension>
            <ns3:hr>95</ns3:hr>
            <ns3:cad>47</ns3:cad>
          </ns3:TrackPointExtension>
        </extensions>
      </trkpt>
      <trkpt lat="43.7710864283144474029541015625" lon="1.5650436468422412872314453125">
        <ele>158.1999969482421875</ele>
        <time>2026-08-13T06:45:32.000Z</time>
        <extensions>
          <ns3:TrackPointExtension>
            <ns3:hr>95</ns3:hr>
            <ns3:cad>47</ns3:cad>
          </ns3:TrackPointExtension>
        </extensions>
      </trkpt>
      <trkpt lat="43.77109338529407978057861328125" lon="1.56503367237746715545654296875">
        <ele>158.1999969482421875</ele>
        <time>2026-08-13T06:45:33.000Z</time>
        <extensions>
          <ns3:TrackPointExtension>
            <ns3:hr>95</ns3:hr>
            <ns3:cad>47</ns3:cad>
          </ns3:TrackPointExtension>
        </extensions>
      </trkpt>
      <trkpt lat="43.77109858207404613494873046875" lon="1.56502093188464641571044921875">
        <ele>158.1999969482421875</ele>
        <time>2026-08-13T06:45:34.000Z</time>
        <extensions>
          <ns3:TrackPointExtension>
            <ns3:hr>95</ns3:hr>
            <ns3:cad>46</ns3:cad>
          </ns3:TrackPointExtension>
        </extensions>
      </trkpt>
      <trkpt lat="43.77110344357788562774658203125" lon="1.56500567682087421417236328125">
        <ele>158.1999969482421875</ele>
        <time>2026-08-13T06:45:35.000Z</time>
        <extensions>
          <ns3:TrackPointExtension>
            <ns3:hr>94</ns3:hr>
            <ns3:cad>46</ns3:cad>
          </ns3:TrackPointExtension>
        </extensions>
      </trkpt>
      <trkpt lat="43.7711105681955814361572265625" lon="1.56498849391937255859375">
        <ele>158.1999969482421875</ele>
        <time>2026-08-13T06:45:36.000Z</time>
        <extensions>
          <ns3:TrackPointExtension>
            <ns3:hr>94</ns3:hr>
            <ns3:cad>46</ns3:cad>
          </ns3:TrackPointExtension>
        </extensions>
      </trkpt>
      <trkpt lat="43.7711169384419918060302734375" lon="1.56497516669332981109619140625">
        <ele>158.1999969482421875</ele>
        <time>2026-08-13T06:45:37.000Z</time>
        <extensions>
          <ns3:TrackPointExtension>
            <ns3:hr>94</ns3:hr>
            <ns3:cad>46</ns3:cad>
          </ns3:TrackPointExtension>
        </extensions>
      </trkpt>
      <trkpt lat="43.771123476326465606689453125" lon="1.56496368348598480224609375">
        <ele>158.1999969482421875</ele>
        <time>2026-08-13T06:45:38.000Z</time>
        <extensions>
          <ns3:TrackPointExtension>
            <ns3:hr>95</ns3:hr>
            <ns3:cad>45</ns3:cad>
          </ns3:TrackPointExtension>
        </extensions>
      </trkpt>
      <trkpt lat="43.7711285054683685302734375" lon="1.564951948821544647216796875">
        <ele>158.1999969482421875</ele>
        <time>2026-08-13T06:45:39.000Z</time>
        <extensions>
          <ns3:TrackPointExtension>
            <ns3:hr>94</ns3:hr>
            <ns3:cad>45</ns3:cad>
          </ns3:TrackPointExtension>
        </extensions>
      </trkpt>
      <trkpt lat="43.771130852401256561279296875" lon="1.56493962742388248443603515625">
        <ele>158.1999969482421875</ele>
        <time>2026-08-13T06:45:40.000Z</time>
        <extensions>
          <ns3:TrackPointExtension>
            <ns3:hr>94</ns3:hr>
            <ns3:cad>46</ns3:cad>
          </ns3:TrackPointExtension>
        </extensions>
      </trkpt>
      <trkpt lat="43.771134875714778900146484375" lon="1.564929150044918060302734375">
        <ele>158.1999969482421875</ele>
        <time>2026-08-13T06:45:41.000Z</time>
        <extensions>
          <ns3:TrackPointExtension>
            <ns3:hr>94</ns3:hr>
            <ns3:cad>47</ns3:cad>
          </ns3:TrackPointExtension>
        </extensions>
      </trkpt>
      <trkpt lat="43.7711390666663646697998046875" lon="1.56491808593273162841796875">
        <ele>158.1999969482421875</ele>
        <time>2026-08-13T06:45:42.000Z</time>
        <extensions>
          <ns3:TrackPointExtension>
            <ns3:hr>94</ns3:hr>
            <ns3:cad>47</ns3:cad>
          </ns3:TrackPointExtension>
        </extensions>
      </trkpt>
      <trkpt lat="43.77114367671310901641845703125" lon="1.5649065189063549041748046875">
        <ele>158.399993896484375</ele>
        <time>2026-08-13T06:45:43.000Z</time>
        <extensions>
          <ns3:TrackPointExtension>
            <ns3:hr>93</ns3:hr>
            <ns3:cad>47</ns3:cad>
          </ns3:TrackPointExtension>
        </extensions>
      </trkpt>
      <trkpt lat="43.77114987932145595550537109375" lon="1.564894616603851318359375">
        <ele>158.399993896484375</ele>
        <time>2026-08-13T06:45:44.000Z</time>
        <extensions>
          <ns3:TrackPointExtension>
            <ns3:hr>92</ns3:hr>
            <ns3:cad>47</ns3:cad>
          </ns3:TrackPointExtension>
        </extensions>
      </trkpt>
      <trkpt lat="43.77115423791110515594482421875" lon="1.56488480977714061737060546875">
        <ele>158.399993896484375</ele>
        <time>2026-08-13T06:45:45.000Z</time>
        <extensions>
          <ns3:TrackPointExtension>
            <ns3:hr>92</ns3:hr>
            <ns3:cad>46</ns3:cad>
          </ns3:TrackPointExtension>
        </extensions>
      </trkpt>
      <trkpt lat="43.7711598537862300872802734375" lon="1.564873494207859039306640625">
        <ele>158.399993896484375</ele>
        <time>2026-08-13T06:45:46.000Z</time>
        <extensions>
          <ns3:TrackPointExtension>
            <ns3:hr>92</ns3:hr>
            <ns3:cad>44</ns3:cad>
          </ns3:TrackPointExtension>
        </extensions>
      </trkpt>
      <trkpt lat="43.77116446383297443389892578125" lon="1.5648629330098628997802734375">
        <ele>158.399993896484375</ele>
        <time>2026-08-13T06:45:47.000Z</time>
        <extensions>
          <ns3:TrackPointExtension>
            <ns3:hr>91</ns3:hr>
            <ns3:cad>44</ns3:cad>
          </ns3:TrackPointExtension>
        </extensions>
      </trkpt>
      <trkpt lat="43.77116739749908447265625" lon="1.56485312618315219879150390625">
        <ele>158.399993896484375</ele>
        <time>2026-08-13T06:45:48.000Z</time>
        <extensions>
          <ns3:TrackPointExtension>
            <ns3:hr>91</ns3:hr>
            <ns3:cad>44</ns3:cad>
          </ns3:TrackPointExtension>
        </extensions>
      </trkpt>
      <trkpt lat="43.771172426640987396240234375" lon="1.5648424811661243438720703125">
        <ele>158.399993896484375</ele>
        <time>2026-08-13T06:45:49.000Z</time>
        <extensions>
          <ns3:TrackPointExtension>
            <ns3:hr>91</ns3:hr>
            <ns3:cad>45</ns3:cad>
          </ns3:TrackPointExtension>
        </extensions>
      </trkpt>
      <trkpt lat="43.77117837779223918914794921875" lon="1.56483116559684276580810546875">
        <ele>158.399993896484375</ele>
        <time>2026-08-13T06:45:50.000Z</time>
        <extensions>
          <ns3:TrackPointExtension>
            <ns3:hr>90</ns3:hr>
            <ns3:cad>46</ns3:cad>
          </ns3:TrackPointExtension>
        </extensions>
      </trkpt>
      <trkpt lat="43.77118223346769809722900390625" lon="1.56481876038014888763427734375">
        <ele>158.399993896484375</ele>
        <time>2026-08-13T06:45:51.000Z</time>
        <extensions>
          <ns3:TrackPointExtension>
            <ns3:hr>91</ns3:hr>
            <ns3:cad>46</ns3:cad>
          </ns3:TrackPointExtension>
        </extensions>
      </trkpt>
      <trkpt lat="43.77118684351444244384765625" lon="1.5648059360682964324951171875">
        <ele>158.399993896484375</ele>
        <time>2026-08-13T06:45:52.000Z</time>
        <extensions>
          <ns3:TrackPointExtension>
            <ns3:hr>91</ns3:hr>
            <ns3:cad>46</ns3:cad>
          </ns3:TrackPointExtension>
        </extensions>
      </trkpt>
      <trkpt lat="43.7711937166750431060791015625" lon="1.56479227356612682342529296875">
        <ele>158.399993896484375</ele>
        <time>2026-08-13T06:45:53.000Z</time>
        <extensions>
          <ns3:TrackPointExtension>
            <ns3:hr>90</ns3:hr>
            <ns3:cad>46</ns3:cad>
          </ns3:TrackPointExtension>
        </extensions>
      </trkpt>
      <trkpt lat="43.77119866199791431427001953125" lon="1.5647787787020206451416015625">
        <ele>158.600006103515625</ele>
        <time>2026-08-13T06:45:54.000Z</time>
        <extensions>
          <ns3:TrackPointExtension>
            <ns3:hr>90</ns3:hr>
            <ns3:cad>47</ns3:cad>
          </ns3:TrackPointExtension>
        </extensions>
      </trkpt>
      <trkpt lat="43.77120419405400753021240234375" lon="1.56476645730435848236083984375">
        <ele>158.600006103515625</ele>
        <time>2026-08-13T06:45:55.000Z</time>
        <extensions>
          <ns3:TrackPointExtension>
            <ns3:hr>90</ns3:hr>
            <ns3:cad>47</ns3:cad>
          </ns3:TrackPointExtension>
        </extensions>
      </trkpt>
      <trkpt lat="43.771208636462688446044921875" lon="1.56475187279284000396728515625">
        <ele>158.600006103515625</ele>
        <time>2026-08-13T06:45:56.000Z</time>
        <extensions>
          <ns3:TrackPointExtension>
            <ns3:hr>90</ns3:hr>
            <ns3:cad>47</ns3:cad>
          </ns3:TrackPointExtension>
        </extensions>
      </trkpt>
      <trkpt lat="43.77121257595717906951904296875" lon="1.5647355280816555023193359375">
        <ele>158.600006103515625</ele>
        <time>2026-08-13T06:45:57.000Z</time>
        <extensions>
          <ns3:TrackPointExtension>
            <ns3:hr>90</ns3:hr>
            <ns3:cad>47</ns3:cad>
          </ns3:TrackPointExtension>
        </extensions>
      </trkpt>
      <trkpt lat="43.771216683089733123779296875" lon="1.5647247992455959320068359375">
        <ele>158.600006103515625</ele>
        <time>2026-08-13T06:45:58.000Z</time>
        <extensions>
          <ns3:TrackPointExtension>
            <ns3:hr>90</ns3:hr>
            <ns3:cad>47</ns3:cad>
          </ns3:TrackPointExtension>
        </extensions>
      </trkpt>
      <trkpt lat="43.771223723888397216796875" lon="1.56471583060920238494873046875">
        <ele>158.600006103515625</ele>
        <time>2026-08-13T06:45:59.000Z</time>
        <extensions>
          <ns3:TrackPointExtension>
            <ns3:hr>90</ns3:hr>
            <ns3:cad>47</ns3:cad>
          </ns3:TrackPointExtension>
        </extensions>
      </trkpt>
      <trkpt lat="43.7712285853922367095947265625" lon="1.5647053532302379608154296875">
        <ele>158.8000030517578125</ele>
        <time>2026-08-13T06:46:00.000Z</time>
        <extensions>
          <ns3:TrackPointExtension>
            <ns3:hr>91</ns3:hr>
            <ns3:cad>46</ns3:cad>
          </ns3:TrackPointExtension>
        </extensions>
      </trkpt>
      <trkpt lat="43.77123244106769561767578125" lon="1.5646922774612903594970703125">
        <ele>158.8000030517578125</ele>
        <time>2026-08-13T06:46:01.000Z</time>
        <extensions>
          <ns3:TrackPointExtension>
            <ns3:hr>91</ns3:hr>
            <ns3:cad>46</ns3:cad>
          </ns3:TrackPointExtension>
        </extensions>
      </trkpt>
      <trkpt lat="43.77123855985701084136962890625" lon="1.56468473374843597412109375">
        <ele>158.8000030517578125</ele>
        <time>2026-08-13T06:46:02.000Z</time>
        <extensions>
          <ns3:TrackPointExtension>
            <ns3:hr>92</ns3:hr>
            <ns3:cad>45</ns3:cad>
          </ns3:TrackPointExtension>
        </extensions>
      </trkpt>
      <trkpt lat="43.77124224789440631866455078125" lon="1.56467174179852008819580078125">
        <ele>158.8000030517578125</ele>
        <time>2026-08-13T06:46:03.000Z</time>
        <extensions>
          <ns3:TrackPointExtension>
            <ns3:hr>92</ns3:hr>
            <ns3:cad>44</ns3:cad>
          </ns3:TrackPointExtension>
        </extensions>
      </trkpt>
      <trkpt lat="43.77124677412211894989013671875" lon="1.5646590851247310638427734375">
        <ele>158.8000030517578125</ele>
        <time>2026-08-13T06:46:04.000Z</time>
        <extensions>
          <ns3:TrackPointExtension>
            <ns3:hr>93</ns3:hr>
            <ns3:cad>44</ns3:cad>
          </ns3:TrackPointExtension>
        </extensions>
      </trkpt>
      <trkpt lat="43.7712503783404827117919921875" lon="1.56464559026062488555908203125">
        <ele>158.8000030517578125</ele>
        <time>2026-08-13T06:46:05.000Z</time>
        <extensions>
          <ns3:TrackPointExtension>
            <ns3:hr>94</ns3:hr>
            <ns3:cad>44</ns3:cad>
          </ns3:TrackPointExtension>
        </extensions>
      </trkpt>
      <trkpt lat="43.77125515602529048919677734375" lon="1.56463402323424816131591796875">
        <ele>159</ele>
        <time>2026-08-13T06:46:06.000Z</time>
        <extensions>
          <ns3:TrackPointExtension>
            <ns3:hr>94</ns3:hr>
            <ns3:cad>44</ns3:cad>
          </ns3:TrackPointExtension>
        </extensions>
      </trkpt>
      <trkpt lat="43.77126219682395458221435546875" lon="1.56462329439818859100341796875">
        <ele>159</ele>
        <time>2026-08-13T06:46:07.000Z</time>
        <extensions>
          <ns3:TrackPointExtension>
            <ns3:hr>94</ns3:hr>
            <ns3:cad>44</ns3:cad>
          </ns3:TrackPointExtension>
        </extensions>
      </trkpt>
      <trkpt lat="43.77126571722328662872314453125" lon="1.564613319933414459228515625">
        <ele>159</ele>
        <time>2026-08-13T06:46:08.000Z</time>
        <extensions>
          <ns3:TrackPointExtension>
            <ns3:hr>95</ns3:hr>
            <ns3:cad>43</ns3:cad>
          </ns3:TrackPointExtension>
        </extensions>
      </trkpt>
      <trkpt lat="43.77126940526068210601806640625" lon="1.564598567783832550048828125">
        <ele>159</ele>
        <time>2026-08-13T06:46:09.000Z</time>
        <extensions>
          <ns3:TrackPointExtension>
            <ns3:hr>94</ns3:hr>
            <ns3:cad>44</ns3:cad>
          </ns3:TrackPointExtension>
        </extensions>
      </trkpt>
      <trkpt lat="43.771274350583553314208984375" lon="1.5645848214626312255859375">
        <ele>159</ele>
        <time>2026-08-13T06:46:10.000Z</time>
        <extensions>
          <ns3:TrackPointExtension>
            <ns3:hr>94</ns3:hr>
            <ns3:cad>44</ns3:cad>
          </ns3:TrackPointExtension>
        </extensions>
      </trkpt>
      <trkpt lat="43.7712785415351390838623046875" lon="1.56457367353141307830810546875">
        <ele>159</ele>
        <time>2026-08-13T06:46:11.000Z</time>
        <extensions>
          <ns3:TrackPointExtension>
            <ns3:hr>94</ns3:hr>
            <ns3:cad>45</ns3:cad>
          </ns3:TrackPointExtension>
        </extensions>
      </trkpt>
      <trkpt lat="43.77128206193447113037109375" lon="1.5645615197718143463134765625">
        <ele>159</ele>
        <time>2026-08-13T06:46:12.000Z</time>
        <extensions>
          <ns3:TrackPointExtension>
            <ns3:hr>94</ns3:hr>
            <ns3:cad>45</ns3:cad>
          </ns3:TrackPointExtension>
        </extensions>
      </trkpt>
      <trkpt lat="43.7712842412292957305908203125" lon="1.56454852782189846038818359375">
        <ele>159</ele>
        <time>2026-08-13T06:46:13.000Z</time>
        <extensions>
          <ns3:TrackPointExtension>
            <ns3:hr>94</ns3:hr>
            <ns3:cad>45</ns3:cad>
          </ns3:TrackPointExtension>
        </extensions>
      </trkpt>
      <trkpt lat="43.771287761628627777099609375" lon="1.56453696079552173614501953125">
        <ele>159</ele>
        <time>2026-08-13T06:46:14.000Z</time>
        <extensions>
          <ns3:TrackPointExtension>
            <ns3:hr>94</ns3:hr>
            <ns3:cad>45</ns3:cad>
          </ns3:TrackPointExtension>
        </extensions>
      </trkpt>
      <trkpt lat="43.771292455494403839111328125" lon="1.564525477588176727294921875">
        <ele>159</ele>
        <time>2026-08-13T06:46:15.000Z</time>
        <extensions>
          <ns3:TrackPointExtension>
            <ns3:hr>94</ns3:hr>
            <ns3:cad>45</ns3:cad>
          </ns3:TrackPointExtension>
        </extensions>
      </trkpt>
      <trkpt lat="43.7712949700653553009033203125" lon="1.56451131217181682586669921875">
        <ele>159</ele>
        <time>2026-08-13T06:46:16.000Z</time>
        <extensions>
          <ns3:TrackPointExtension>
            <ns3:hr>93</ns3:hr>
            <ns3:cad>44</ns3:cad>
          </ns3:TrackPointExtension>
        </extensions>
      </trkpt>
      <trkpt lat="43.77129949629306793212890625" lon="1.56450041569769382476806640625">
        <ele>159.1999969482421875</ele>
        <time>2026-08-13T06:46:17.000Z</time>
        <extensions>
          <ns3:TrackPointExtension>
            <ns3:hr>93</ns3:hr>
            <ns3:cad>44</ns3:cad>
          </ns3:TrackPointExtension>
        </extensions>
      </trkpt>
      <trkpt lat="43.771305195987224578857421875" lon="1.564487256109714508056640625">
        <ele>159.1999969482421875</ele>
        <time>2026-08-13T06:46:18.000Z</time>
        <extensions>
          <ns3:TrackPointExtension>
            <ns3:hr>93</ns3:hr>
            <ns3:cad>44</ns3:cad>
          </ns3:TrackPointExtension>
        </extensions>
      </trkpt>
      <trkpt lat="43.77130896784365177154541015625" lon="1.56447828747332096099853515625">
        <ele>159.1999969482421875</ele>
        <time>2026-08-13T06:46:19.000Z</time>
        <extensions>
          <ns3:TrackPointExtension>
            <ns3:hr>92</ns3:hr>
            <ns3:cad>43</ns3:cad>
          </ns3:TrackPointExtension>
        </extensions>
      </trkpt>
      <trkpt lat="43.771313913166522979736328125" lon="1.56446537934243679046630859375">
        <ele>159.1999969482421875</ele>
        <time>2026-08-13T06:46:20.000Z</time>
        <extensions>
          <ns3:TrackPointExtension>
            <ns3:hr>91</ns3:hr>
            <ns3:cad>43</ns3:cad>
          </ns3:TrackPointExtension>
        </extensions>
      </trkpt>
      <trkpt lat="43.7713170982897281646728515625" lon="1.56445674598217010498046875">
        <ele>159.399993896484375</ele>
        <time>2026-08-13T06:46:21.000Z</time>
        <extensions>
          <ns3:TrackPointExtension>
            <ns3:hr>91</ns3:hr>
            <ns3:cad>43</ns3:cad>
          </ns3:TrackPointExtension>
        </extensions>
      </trkpt>
      <trkpt lat="43.77132439054548740386962890625" lon="1.56444258056581020355224609375">
        <ele>159.399993896484375</ele>
        <time>2026-08-13T06:46:22.000Z</time>
        <extensions>
          <ns3:TrackPointExtension>
            <ns3:hr>91</ns3:hr>
            <ns3:cad>43</ns3:cad>
          </ns3:TrackPointExtension>
        </extensions>
      </trkpt>
      <trkpt lat="43.7713301740586757659912109375" lon="1.56443051062524318695068359375">
        <ele>159.399993896484375</ele>
        <time>2026-08-13T06:46:23.000Z</time>
        <extensions>
          <ns3:TrackPointExtension>
            <ns3:hr>90</ns3:hr>
            <ns3:cad>44</ns3:cad>
          </ns3:TrackPointExtension>
        </extensions>
      </trkpt>
      <trkpt lat="43.77133436501026153564453125" lon="1.56441517174243927001953125">
        <ele>159.399993896484375</ele>
        <time>2026-08-13T06:46:24.000Z</time>
        <extensions>
          <ns3:TrackPointExtension>
            <ns3:hr>90</ns3:hr>
            <ns3:cad>44</ns3:cad>
          </ns3:TrackPointExtension>
        </extensions>
      </trkpt>
      <trkpt lat="43.77133964560925960540771484375" lon="1.56440402381122112274169921875">
        <ele>159.399993896484375</ele>
        <time>2026-08-13T06:46:25.000Z</time>
        <extensions>
          <ns3:TrackPointExtension>
            <ns3:hr>91</ns3:hr>
            <ns3:cad>45</ns3:cad>
          </ns3:TrackPointExtension>
        </extensions>
      </trkpt>
      <trkpt lat="43.77134241163730621337890625" lon="1.56439731828868389129638671875">
        <ele>159.399993896484375</ele>
        <time>2026-08-13T06:46:26.000Z</time>
        <extensions>
          <ns3:TrackPointExtension>
            <ns3:hr>91</ns3:hr>
            <ns3:cad>45</ns3:cad>
          </ns3:TrackPointExtension>
        </extensions>
      </trkpt>
      <trkpt lat="43.7713466025888919830322265625" lon="1.56438826583325862884521484375">
        <ele>159.600006103515625</ele>
        <time>2026-08-13T06:46:27.000Z</time>
        <extensions>
          <ns3:TrackPointExtension>
            <ns3:hr>92</ns3:hr>
            <ns3:cad>45</ns3:cad>
          </ns3:TrackPointExtension>
        </extensions>
      </trkpt>
      <trkpt lat="43.77134836278855800628662109375" lon="1.56436798162758350372314453125">
        <ele>159.600006103515625</ele>
        <time>2026-08-13T06:46:28.000Z</time>
        <extensions>
          <ns3:TrackPointExtension>
            <ns3:hr>92</ns3:hr>
            <ns3:cad>45</ns3:cad>
          </ns3:TrackPointExtension>
        </extensions>
      </trkpt>
      <trkpt lat="43.7713543139398097991943359375" lon="1.56435440294444561004638671875">
        <ele>159.600006103515625</ele>
        <time>2026-08-13T06:46:29.000Z</time>
        <extensions>
          <ns3:TrackPointExtension>
            <ns3:hr>92</ns3:hr>
            <ns3:cad>45</ns3:cad>
          </ns3:TrackPointExtension>
        </extensions>
      </trkpt>
      <trkpt lat="43.77136277966201305389404296875" lon="1.56434082426130771636962890625">
        <ele>159.600006103515625</ele>
        <time>2026-08-13T06:46:30.000Z</time>
        <extensions>
          <ns3:TrackPointExtension>
            <ns3:hr>92</ns3:hr>
            <ns3:cad>45</ns3:cad>
          </ns3:TrackPointExtension>
        </extensions>
      </trkpt>
      <trkpt lat="43.7713680602610111236572265625" lon="1.5643251501023769378662109375">
        <ele>159.600006103515625</ele>
        <time>2026-08-13T06:46:31.000Z</time>
        <extensions>
          <ns3:TrackPointExtension>
            <ns3:hr>91</ns3:hr>
            <ns3:cad>45</ns3:cad>
          </ns3:TrackPointExtension>
        </extensions>
      </trkpt>
      <trkpt lat="43.77137250266969203948974609375" lon="1.5643124096095561981201171875">
        <ele>159.600006103515625</ele>
        <time>2026-08-13T06:46:32.000Z</time>
        <extensions>
          <ns3:TrackPointExtension>
            <ns3:hr>92</ns3:hr>
            <ns3:cad>44</ns3:cad>
          </ns3:TrackPointExtension>
        </extensions>
      </trkpt>
      <trkpt lat="43.77137937583029270172119140625" lon="1.56430184841156005859375">
        <ele>159.8000030517578125</ele>
        <time>2026-08-13T06:46:33.000Z</time>
        <extensions>
          <ns3:TrackPointExtension>
            <ns3:hr>92</ns3:hr>
            <ns3:cad>44</ns3:cad>
          </ns3:TrackPointExtension>
        </extensions>
      </trkpt>
      <trkpt lat="43.77138339914381504058837890625" lon="1.56429220922291278839111328125">
        <ele>159.8000030517578125</ele>
        <time>2026-08-13T06:46:34.000Z</time>
        <extensions>
          <ns3:TrackPointExtension>
            <ns3:hr>92</ns3:hr>
            <ns3:cad>43</ns3:cad>
          </ns3:TrackPointExtension>
        </extensions>
      </trkpt>
      <trkpt lat="43.7713861651718616485595703125" lon="1.564276702702045440673828125">
        <ele>159.8000030517578125</ele>
        <time>2026-08-13T06:46:35.000Z</time>
        <extensions>
          <ns3:TrackPointExtension>
            <ns3:hr>92</ns3:hr>
            <ns3:cad>43</ns3:cad>
          </ns3:TrackPointExtension>
        </extensions>
      </trkpt>
      <trkpt lat="43.77139027230441570281982421875" lon="1.56426941044628620147705078125">
        <ele>159.8000030517578125</ele>
        <time>2026-08-13T06:46:36.000Z</time>
        <extensions>
          <ns3:TrackPointExtension>
            <ns3:hr>92</ns3:hr>
            <ns3:cad>43</ns3:cad>
          </ns3:TrackPointExtension>
        </extensions>
      </trkpt>
      <trkpt lat="43.771393708884716033935546875" lon="1.56426119618117809295654296875">
        <ele>160</ele>
        <time>2026-08-13T06:46:37.000Z</time>
        <extensions>
          <ns3:TrackPointExtension>
            <ns3:hr>93</ns3:hr>
            <ns3:cad>43</ns3:cad>
          </ns3:TrackPointExtension>
        </extensions>
      </trkpt>
      <trkpt lat="43.7713989056646823883056640625" lon="1.56424887478351593017578125">
        <ele>160</ele>
        <time>2026-08-13T06:46:38.000Z</time>
        <extensions>
          <ns3:TrackPointExtension>
            <ns3:hr>96</ns3:hr>
            <ns3:cad>43</ns3:cad>
          </ns3:TrackPointExtension>
        </extensions>
      </trkpt>
      <trkpt lat="43.771404437720775604248046875" lon="1.564238481223583221435546875">
        <ele>160</ele>
        <time>2026-08-13T06:46:39.000Z</time>
        <extensions>
          <ns3:TrackPointExtension>
            <ns3:hr>97</ns3:hr>
            <ns3:cad>43</ns3:cad>
          </ns3:TrackPointExtension>
        </extensions>
      </trkpt>
      <trkpt lat="43.77140921540558338165283203125" lon="1.56422750093042850494384765625">
        <ele>160</ele>
        <time>2026-08-13T06:46:40.000Z</time>
        <extensions>
          <ns3:TrackPointExtension>
            <ns3:hr>98</ns3:hr>
            <ns3:cad>42</ns3:cad>
          </ns3:TrackPointExtension>
        </extensions>
      </trkpt>
      <trkpt lat="43.77141307108104228973388671875" lon="1.5642202086746692657470703125">
        <ele>160</ele>
        <time>2026-08-13T06:46:41.000Z</time>
        <extensions>
          <ns3:TrackPointExtension>
            <ns3:hr>98</ns3:hr>
            <ns3:cad>42</ns3:cad>
          </ns3:TrackPointExtension>
        </extensions>
      </trkpt>
      <trkpt lat="43.7714176811277866363525390625" lon="1.5642094798386096954345703125">
        <ele>160.1999969482421875</ele>
        <time>2026-08-13T06:46:42.000Z</time>
        <extensions>
          <ns3:TrackPointExtension>
            <ns3:hr>97</ns3:hr>
            <ns3:cad>42</ns3:cad>
          </ns3:TrackPointExtension>
        </extensions>
      </trkpt>
      <trkpt lat="43.77142363227903842926025390625" lon="1.56419917009770870208740234375">
        <ele>160.1999969482421875</ele>
        <time>2026-08-13T06:46:43.000Z</time>
        <extensions>
          <ns3:TrackPointExtension>
            <ns3:hr>97</ns3:hr>
            <ns3:cad>42</ns3:cad>
          </ns3:TrackPointExtension>
        </extensions>
      </trkpt>
      <trkpt lat="43.77142933197319507598876953125" lon="1.5641878545284271240234375">
        <ele>160.1999969482421875</ele>
        <time>2026-08-13T06:46:44.000Z</time>
        <extensions>
          <ns3:TrackPointExtension>
            <ns3:hr>96</ns3:hr>
            <ns3:cad>42</ns3:cad>
          </ns3:TrackPointExtension>
        </extensions>
      </trkpt>
      <trkpt lat="43.77143352292478084564208984375" lon="1.56417603604495525360107421875">
        <ele>160.1999969482421875</ele>
        <time>2026-08-13T06:46:45.000Z</time>
        <extensions>
          <ns3:TrackPointExtension>
            <ns3:hr>96</ns3:hr>
            <ns3:cad>43</ns3:cad>
          </ns3:TrackPointExtension>
        </extensions>
      </trkpt>
      <trkpt lat="43.77143838442862033843994140625" lon="1.56416564248502254486083984375">
        <ele>160.399993896484375</ele>
        <time>2026-08-13T06:46:46.000Z</time>
        <extensions>
          <ns3:TrackPointExtension>
            <ns3:hr>96</ns3:hr>
            <ns3:cad>43</ns3:cad>
          </ns3:TrackPointExtension>
        </extensions>
      </trkpt>
      <trkpt lat="43.771446682512760162353515625" lon="1.56415457837283611297607421875">
        <ele>160.399993896484375</ele>
        <time>2026-08-13T06:46:47.000Z</time>
        <extensions>
          <ns3:TrackPointExtension>
            <ns3:hr>95</ns3:hr>
            <ns3:cad>42</ns3:cad>
          </ns3:TrackPointExtension>
        </extensions>
      </trkpt>
      <trkpt lat="43.771451376378536224365234375" lon="1.56414426863193511962890625">
        <ele>160.399993896484375</ele>
        <time>2026-08-13T06:46:48.000Z</time>
        <extensions>
          <ns3:TrackPointExtension>
            <ns3:hr>95</ns3:hr>
            <ns3:cad>42</ns3:cad>
          </ns3:TrackPointExtension>
        </extensions>
      </trkpt>
      <trkpt lat="43.7714572437107563018798828125" lon="1.564133204519748687744140625">
        <ele>160.600006103515625</ele>
        <time>2026-08-13T06:46:49.000Z</time>
        <extensions>
          <ns3:TrackPointExtension>
            <ns3:hr>95</ns3:hr>
            <ns3:cad>42</ns3:cad>
          </ns3:TrackPointExtension>
        </extensions>
      </trkpt>
      <trkpt lat="43.77146436832845211029052734375" lon="1.56412373296916484832763671875">
        <ele>160.600006103515625</ele>
        <time>2026-08-13T06:46:50.000Z</time>
        <extensions>
          <ns3:TrackPointExtension>
            <ns3:hr>95</ns3:hr>
            <ns3:cad>42</ns3:cad>
          </ns3:TrackPointExtension>
        </extensions>
      </trkpt>
      <trkpt lat="43.7714709900319576263427734375" lon="1.5641159377992153167724609375">
        <ele>160.600006103515625</ele>
        <time>2026-08-13T06:46:51.000Z</time>
        <extensions>
          <ns3:TrackPointExtension>
            <ns3:hr>94</ns3:hr>
            <ns3:cad>42</ns3:cad>
          </ns3:TrackPointExtension>
        </extensions>
      </trkpt>
      <trkpt lat="43.77147861756384372711181640625" lon="1.5641078911721706390380859375">
        <ele>160.600006103515625</ele>
        <time>2026-08-13T06:46:52.000Z</time>
        <extensions>
          <ns3:TrackPointExtension>
            <ns3:hr>94</ns3:hr>
            <ns3:cad>42</ns3:cad>
          </ns3:TrackPointExtension>
        </extensions>
      </trkpt>
      <trkpt lat="43.77148834057152271270751953125" lon="1.56410177238285541534423828125">
        <ele>160.600006103515625</ele>
        <time>2026-08-13T06:46:53.000Z</time>
        <extensions>
          <ns3:TrackPointExtension>
            <ns3:hr>93</ns3:hr>
            <ns3:cad>42</ns3:cad>
          </ns3:TrackPointExtension>
        </extensions>
      </trkpt>
      <trkpt lat="43.771497309207916259765625" lon="1.56409406103193759918212890625">
        <ele>160.600006103515625</ele>
        <time>2026-08-13T06:46:54.000Z</time>
        <extensions>
          <ns3:TrackPointExtension>
            <ns3:hr>93</ns3:hr>
            <ns3:cad>43</ns3:cad>
          </ns3:TrackPointExtension>
        </extensions>
      </trkpt>
      <trkpt lat="43.77150443382561206817626953125" lon="1.5640859305858612060546875">
        <ele>160.8000030517578125</ele>
        <time>2026-08-13T06:46:55.000Z</time>
        <extensions>
          <ns3:TrackPointExtension>
            <ns3:hr>93</ns3:hr>
            <ns3:cad>43</ns3:cad>
          </ns3:TrackPointExtension>
        </extensions>
      </trkpt>
      <trkpt lat="43.77151365391910076141357421875" lon="1.5640760399401187896728515625">
        <ele>160.8000030517578125</ele>
        <time>2026-08-13T06:46:56.000Z</time>
        <extensions>
          <ns3:TrackPointExtension>
            <ns3:hr>93</ns3:hr>
            <ns3:cad>43</ns3:cad>
          </ns3:TrackPointExtension>
        </extensions>
      </trkpt>
      <trkpt lat="43.7715229578316211700439453125" lon="1.5640693344175815582275390625">
        <ele>160.8000030517578125</ele>
        <time>2026-08-13T06:46:57.000Z</time>
        <extensions>
          <ns3:TrackPointExtension>
            <ns3:hr>93</ns3:hr>
            <ns3:cad>43</ns3:cad>
          </ns3:TrackPointExtension>
        </extensions>
      </trkpt>
      <trkpt lat="43.77153175882995128631591796875" lon="1.56406254507601261138916015625">
        <ele>160.8000030517578125</ele>
        <time>2026-08-13T06:46:58.000Z</time>
        <extensions>
          <ns3:TrackPointExtension>
            <ns3:hr>93</ns3:hr>
            <ns3:cad>43</ns3:cad>
          </ns3:TrackPointExtension>
        </extensions>
      </trkpt>
      <trkpt lat="43.77153796143829822540283203125" lon="1.56405416317284107208251953125">
        <ele>160.8000030517578125</ele>
        <time>2026-08-13T06:46:59.000Z</time>
        <extensions>
          <ns3:TrackPointExtension>
            <ns3:hr>93</ns3:hr>
            <ns3:cad>43</ns3:cad>
          </ns3:TrackPointExtension>
        </extensions>
      </trkpt>
      <trkpt lat="43.771545588970184326171875" lon="1.56405039131641387939453125">
        <ele>161</ele>
        <time>2026-08-13T06:47:00.000Z</time>
        <extensions>
          <ns3:TrackPointExtension>
            <ns3:hr>92</ns3:hr>
            <ns3:cad>43</ns3:cad>
          </ns3:TrackPointExtension>
        </extensions>
      </trkpt>
      <trkpt lat="43.7715531326830387115478515625" lon="1.56404896639287471771240234375">
        <ele>161</ele>
        <time>2026-08-13T06:47:01.000Z</time>
        <extensions>
          <ns3:TrackPointExtension>
            <ns3:hr>92</ns3:hr>
            <ns3:cad>43</ns3:cad>
          </ns3:TrackPointExtension>
        </extensions>
      </trkpt>
      <trkpt lat="43.77156126312911510467529296875" lon="1.56404578126966953277587890625">
        <ele>161</ele>
        <time>2026-08-13T06:47:02.000Z</time>
        <extensions>
          <ns3:TrackPointExtension>
            <ns3:hr>92</ns3:hr>
            <ns3:cad>43</ns3:cad>
          </ns3:TrackPointExtension>
        </extensions>
      </trkpt>
      <trkpt lat="43.771569728851318359375" lon="1.56403832137584686279296875">
        <ele>161.1999969482421875</ele>
        <time>2026-08-13T06:47:03.000Z</time>
        <extensions>
          <ns3:TrackPointExtension>
            <ns3:hr>91</ns3:hr>
            <ns3:cad>42</ns3:cad>
          </ns3:TrackPointExtension>
        </extensions>
      </trkpt>
      <trkpt lat="43.7715792842209339141845703125" lon="1.56402985565364360809326171875">
        <ele>161.1999969482421875</ele>
        <time>2026-08-13T06:47:04.000Z</time>
        <extensions>
          <ns3:TrackPointExtension>
            <ns3:hr>92</ns3:hr>
            <ns3:cad>42</ns3:cad>
          </ns3:TrackPointExtension>
        </extensions>
      </trkpt>
      <trkpt lat="43.771588839590549468994140625" lon="1.56402130611240863800048828125">
        <ele>161.1999969482421875</ele>
        <time>2026-08-13T06:47:05.000Z</time>
        <extensions>
          <ns3:TrackPointExtension>
            <ns3:hr>92</ns3:hr>
            <ns3:cad>42</ns3:cad>
          </ns3:TrackPointExtension>
        </extensions>
      </trkpt>
      <trkpt lat="43.7715983949601650238037109375" lon="1.564016528427600860595703125">
        <ele>161.1999969482421875</ele>
        <time>2026-08-13T06:47:06.000Z</time>
        <extensions>
          <ns3:TrackPointExtension>
            <ns3:hr>93</ns3:hr>
            <ns3:cad>42</ns3:cad>
          </ns3:TrackPointExtension>
        </extensions>
      </trkpt>
      <trkpt lat="43.7716064415872097015380859375" lon="1.5640130080282688140869140625">
        <ele>161.1999969482421875</ele>
        <time>2026-08-13T06:47:07.000Z</time>
        <extensions>
          <ns3:TrackPointExtension>
            <ns3:hr>93</ns3:hr>
            <ns3:cad>42</ns3:cad>
          </ns3:TrackPointExtension>
        </extensions>
      </trkpt>
      <trkpt lat="43.771614991128444671630859375" lon="1.56401208601891994476318359375">
        <ele>161.1999969482421875</ele>
        <time>2026-08-13T06:47:08.000Z</time>
        <extensions>
          <ns3:TrackPointExtension>
            <ns3:hr>93</ns3:hr>
            <ns3:cad>43</ns3:cad>
          </ns3:TrackPointExtension>
        </extensions>
      </trkpt>
      <trkpt lat="43.77162395976483821868896484375" lon="1.56401225365698337554931640625">
        <ele>161.1999969482421875</ele>
        <time>2026-08-13T06:47:09.000Z</time>
        <extensions>
          <ns3:TrackPointExtension>
            <ns3:hr>93</ns3:hr>
            <ns3:cad>44</ns3:cad>
          </ns3:TrackPointExtension>
        </extensions>
      </trkpt>
      <trkpt lat="43.7716327607631683349609375" lon="1.5640099905431270599365234375">
        <ele>161.1999969482421875</ele>
        <time>2026-08-13T06:47:10.000Z</time>
        <extensions>
          <ns3:TrackPointExtension>
            <ns3:hr>93</ns3:hr>
            <ns3:cad>44</ns3:cad>
          </ns3:TrackPointExtension>
        </extensions>
      </trkpt>
      <trkpt lat="43.7716416455805301666259765625" lon="1.56400923617184162139892578125">
        <ele>161.1999969482421875</ele>
        <time>2026-08-13T06:47:11.000Z</time>
        <extensions>
          <ns3:TrackPointExtension>
            <ns3:hr>94</ns3:hr>
            <ns3:cad>44</ns3:cad>
          </ns3:TrackPointExtension>
        </extensions>
      </trkpt>
      <trkpt lat="43.7716515362262725830078125" lon="1.56401108019053936004638671875">
        <ele>161.1999969482421875</ele>
        <time>2026-08-13T06:47:12.000Z</time>
        <extensions>
          <ns3:TrackPointExtension>
            <ns3:hr>94</ns3:hr>
            <ns3:cad>44</ns3:cad>
          </ns3:TrackPointExtension>
        </extensions>
      </trkpt>
      <trkpt lat="43.771659247577190399169921875" lon="1.56400881707668304443359375">
        <ele>161.1999969482421875</ele>
        <time>2026-08-13T06:47:13.000Z</time>
        <extensions>
          <ns3:TrackPointExtension>
            <ns3:hr>94</ns3:hr>
            <ns3:cad>43</ns3:cad>
          </ns3:TrackPointExtension>
        </extensions>
      </trkpt>
      <trkpt lat="43.7716704793274402618408203125" lon="1.56400638632476329803466796875">
        <ele>161.1999969482421875</ele>
        <time>2026-08-13T06:47:14.000Z</time>
        <extensions>
          <ns3:TrackPointExtension>
            <ns3:hr>94</ns3:hr>
            <ns3:cad>43</ns3:cad>
          </ns3:TrackPointExtension>
        </extensions>
      </trkpt>
      <trkpt lat="43.77168011851608753204345703125" lon="1.564005799591541290283203125">
        <ele>161.399993896484375</ele>
        <time>2026-08-13T06:47:15.000Z</time>
        <extensions>
          <ns3:TrackPointExtension>
            <ns3:hr>95</ns3:hr>
            <ns3:cad>43</ns3:cad>
          </ns3:TrackPointExtension>
        </extensions>
      </trkpt>
      <trkpt lat="43.7716902606189250946044921875" lon="1.56400487758219242095947265625">
        <ele>161.399993896484375</ele>
        <time>2026-08-13T06:47:16.000Z</time>
        <extensions>
          <ns3:TrackPointExtension>
            <ns3:hr>96</ns3:hr>
            <ns3:cad>44</ns3:cad>
          </ns3:TrackPointExtension>
        </extensions>
      </trkpt>
      <trkpt lat="43.77170040272176265716552734375" lon="1.56400269828736782073974609375">
        <ele>161.399993896484375</ele>
        <time>2026-08-13T06:47:17.000Z</time>
        <extensions>
          <ns3:TrackPointExtension>
            <ns3:hr>97</ns3:hr>
            <ns3:cad>43</ns3:cad>
          </ns3:TrackPointExtension>
        </extensions>
      </trkpt>
      <trkpt lat="43.771710880100727081298828125" lon="1.56400353647768497467041015625">
        <ele>161.399993896484375</ele>
        <time>2026-08-13T06:47:18.000Z</time>
        <extensions>
          <ns3:TrackPointExtension>
            <ns3:hr>98</ns3:hr>
            <ns3:cad>43</ns3:cad>
          </ns3:TrackPointExtension>
        </extensions>
      </trkpt>
      <trkpt lat="43.77171792089939117431640625" lon="1.564004458487033843994140625">
        <ele>161.399993896484375</ele>
        <time>2026-08-13T06:47:19.000Z</time>
        <extensions>
          <ns3:TrackPointExtension>
            <ns3:hr>98</ns3:hr>
            <ns3:cad>43</ns3:cad>
          </ns3:TrackPointExtension>
        </extensions>
      </trkpt>
      <trkpt lat="43.77172638662159442901611328125" lon="1.564004123210906982421875">
        <ele>161.399993896484375</ele>
        <time>2026-08-13T06:47:20.000Z</time>
        <extensions>
          <ns3:TrackPointExtension>
            <ns3:hr>99</ns3:hr>
            <ns3:cad>43</ns3:cad>
          </ns3:TrackPointExtension>
        </extensions>
      </trkpt>
      <trkpt lat="43.77173535525798797607421875" lon="1.56400211155414581298828125">
        <ele>161.399993896484375</ele>
        <time>2026-08-13T06:47:21.000Z</time>
        <extensions>
          <ns3:TrackPointExtension>
            <ns3:hr>99</ns3:hr>
            <ns3:cad>43</ns3:cad>
          </ns3:TrackPointExtension>
        </extensions>
      </trkpt>
      <trkpt lat="43.77174315042793750762939453125" lon="1.5639995969831943511962890625">
        <ele>161.399993896484375</ele>
        <time>2026-08-13T06:47:22.000Z</time>
        <extensions>
          <ns3:TrackPointExtension>
            <ns3:hr>99</ns3:hr>
            <ns3:cad>43</ns3:cad>
          </ns3:TrackPointExtension>
        </extensions>
      </trkpt>
      <trkpt lat="43.77175287343561649322509765625" lon="1.56400102190673351287841796875">
        <ele>161.399993896484375</ele>
        <time>2026-08-13T06:47:23.000Z</time>
        <extensions>
          <ns3:TrackPointExtension>
            <ns3:hr>100</ns3:hr>
            <ns3:cad>43</ns3:cad>
          </ns3:TrackPointExtension>
        </extensions>
      </trkpt>
      <trkpt lat="43.7717616744339466094970703125" lon="1.56400303356349468231201171875">
        <ele>161.399993896484375</ele>
        <time>2026-08-13T06:47:24.000Z</time>
        <extensions>
          <ns3:TrackPointExtension>
            <ns3:hr>98</ns3:hr>
            <ns3:cad>44</ns3:cad>
          </ns3:TrackPointExtension>
        </extensions>
      </trkpt>
      <trkpt lat="43.771770894527435302734375" lon="1.56400345265865325927734375">
        <ele>161.1999969482421875</ele>
        <time>2026-08-13T06:47:25.000Z</time>
        <extensions>
          <ns3:TrackPointExtension>
            <ns3:hr>97</ns3:hr>
            <ns3:cad>44</ns3:cad>
          </ns3:TrackPointExtension>
        </extensions>
      </trkpt>
      <trkpt lat="43.7717767618596553802490234375" lon="1.5640032850205898284912109375">
        <ele>161.1999969482421875</ele>
        <time>2026-08-13T06:47:26.000Z</time>
        <extensions>
          <ns3:TrackPointExtension>
            <ns3:hr>95</ns3:hr>
            <ns3:cad>44</ns3:cad>
          </ns3:TrackPointExtension>
        </extensions>
      </trkpt>
      <trkpt lat="43.7717827968299388885498046875" lon="1.56400940380990505218505859375">
        <ele>161.1999969482421875</ele>
        <time>2026-08-13T06:47:27.000Z</time>
        <extensions>
          <ns3:TrackPointExtension>
            <ns3:hr>95</ns3:hr>
            <ns3:cad>44</ns3:cad>
          </ns3:TrackPointExtension>
        </extensions>
      </trkpt>
      <trkpt lat="43.77179277129471302032470703125" lon="1.56401426531374454498291015625">
        <ele>161.1999969482421875</ele>
        <time>2026-08-13T06:47:28.000Z</time>
        <extensions>
          <ns3:TrackPointExtension>
            <ns3:hr>94</ns3:hr>
            <ns3:cad>44</ns3:cad>
          </ns3:TrackPointExtension>
        </extensions>
      </trkpt>
      <trkpt lat="43.77180299721658229827880859375" lon="1.56401191838085651397705078125">
        <ele>161</ele>
        <time>2026-08-13T06:47:29.000Z</time>
        <extensions>
          <ns3:TrackPointExtension>
            <ns3:hr>94</ns3:hr>
            <ns3:cad>44</ns3:cad>
          </ns3:TrackPointExtension>
        </extensions>
      </trkpt>
      <trkpt lat="43.77181121148169040679931640625" lon="1.56401443295180797576904296875">
        <ele>161</ele>
        <time>2026-08-13T06:47:30.000Z</time>
        <extensions>
          <ns3:TrackPointExtension>
            <ns3:hr>94</ns3:hr>
            <ns3:cad>44</ns3:cad>
          </ns3:TrackPointExtension>
        </extensions>
      </trkpt>
      <trkpt lat="43.7718180008232593536376953125" lon="1.56402281485497951507568359375">
        <ele>161</ele>
        <time>2026-08-13T06:47:31.000Z</time>
        <extensions>
          <ns3:TrackPointExtension>
            <ns3:hr>94</ns3:hr>
            <ns3:cad>44</ns3:cad>
          </ns3:TrackPointExtension>
        </extensions>
      </trkpt>
      <trkpt lat="43.77182495780289173126220703125" lon="1.5640250779688358306884765625">
        <ele>161</ele>
        <time>2026-08-13T06:47:32.000Z</time>
        <extensions>
          <ns3:TrackPointExtension>
            <ns3:hr>94</ns3:hr>
            <ns3:cad>46</ns3:cad>
          </ns3:TrackPointExtension>
        </extensions>
      </trkpt>
      <trkpt lat="43.7718340940773487091064453125" lon="1.56402633525431156158447265625">
        <ele>161</ele>
        <time>2026-08-13T06:47:33.000Z</time>
        <extensions>
          <ns3:TrackPointExtension>
            <ns3:hr>94</ns3:hr>
            <ns3:cad>46</ns3:cad>
          </ns3:TrackPointExtension>
        </extensions>
      </trkpt>
      <trkpt lat="43.77184239216148853302001953125" lon="1.56403027474880218505859375">
        <ele>160.8000030517578125</ele>
        <time>2026-08-13T06:47:34.000Z</time>
        <extensions>
          <ns3:TrackPointExtension>
            <ns3:hr>95</ns3:hr>
            <ns3:cad>46</ns3:cad>
          </ns3:TrackPointExtension>
        </extensions>
      </trkpt>
      <trkpt lat="43.771851360797882080078125" lon="1.56403471715748310089111328125">
        <ele>160.8000030517578125</ele>
        <time>2026-08-13T06:47:35.000Z</time>
        <extensions>
          <ns3:TrackPointExtension>
            <ns3:hr>94</ns3:hr>
            <ns3:cad>46</ns3:cad>
          </ns3:TrackPointExtension>
        </extensions>
      </trkpt>
      <trkpt lat="43.77186099998652935028076171875" lon="1.5640378184616565704345703125">
        <ele>160.8000030517578125</ele>
        <time>2026-08-13T06:47:36.000Z</time>
        <extensions>
          <ns3:TrackPointExtension>
            <ns3:hr>93</ns3:hr>
            <ns3:cad>46</ns3:cad>
          </ns3:TrackPointExtension>
        </extensions>
      </trkpt>
      <trkpt lat="43.7718729861080646514892578125" lon="1.5640405006706714630126953125">
        <ele>160.8000030517578125</ele>
        <time>2026-08-13T06:47:37.000Z</time>
        <extensions>
          <ns3:TrackPointExtension>
            <ns3:hr>93</ns3:hr>
            <ns3:cad>46</ns3:cad>
          </ns3:TrackPointExtension>
        </extensions>
      </trkpt>
      <trkpt lat="43.771881870925426483154296875" lon="1.5640435181558132171630859375">
        <ele>160.8000030517578125</ele>
        <time>2026-08-13T06:47:38.000Z</time>
        <extensions>
          <ns3:TrackPointExtension>
            <ns3:hr>93</ns3:hr>
            <ns3:cad>45</ns3:cad>
          </ns3:TrackPointExtension>
        </extensions>
      </trkpt>
      <trkpt lat="43.7718920968472957611083984375" lon="1.56404544599354267120361328125">
        <ele>160.8000030517578125</ele>
        <time>2026-08-13T06:47:39.000Z</time>
        <extensions>
          <ns3:TrackPointExtension>
            <ns3:hr>92</ns3:hr>
            <ns3:cad>43</ns3:cad>
          </ns3:TrackPointExtension>
        </extensions>
      </trkpt>
      <trkpt lat="43.77190299332141876220703125" lon="1.56404527835547924041748046875">
        <ele>160.8000030517578125</ele>
        <time>2026-08-13T06:47:40.000Z</time>
        <extensions>
          <ns3:TrackPointExtension>
            <ns3:hr>92</ns3:hr>
            <ns3:cad>44</ns3:cad>
          </ns3:TrackPointExtension>
        </extensions>
      </trkpt>
      <trkpt lat="43.77191229723393917083740234375" lon="1.5640455298125743865966796875">
        <ele>160.8000030517578125</ele>
        <time>2026-08-13T06:47:41.000Z</time>
        <extensions>
          <ns3:TrackPointExtension>
            <ns3:hr>92</ns3:hr>
            <ns3:cad>44</ns3:cad>
          </ns3:TrackPointExtension>
        </extensions>
      </trkpt>
      <trkpt lat="43.77192034386098384857177734375" lon="1.56405181623995304107666015625">
        <ele>160.8000030517578125</ele>
        <time>2026-08-13T06:47:42.000Z</time>
        <extensions>
          <ns3:TrackPointExtension>
            <ns3:hr>91</ns3:hr>
            <ns3:cad>44</ns3:cad>
          </ns3:TrackPointExtension>
        </extensions>
      </trkpt>
      <trkpt lat="43.771926797926425933837890625" lon="1.5640529058873653411865234375">
        <ele>160.8000030517578125</ele>
        <time>2026-08-13T06:47:43.000Z</time>
        <extensions>
          <ns3:TrackPointExtension>
            <ns3:hr>91</ns3:hr>
            <ns3:cad>43</ns3:cad>
          </ns3:TrackPointExtension>
        </extensions>
      </trkpt>
      <trkpt lat="43.7719358503818511962890625" lon="1.56404779292643070220947265625">
        <ele>160.8000030517578125</ele>
        <time>2026-08-13T06:47:44.000Z</time>
        <extensions>
          <ns3:TrackPointExtension>
            <ns3:hr>91</ns3:hr>
            <ns3:cad>43</ns3:cad>
          </ns3:TrackPointExtension>
        </extensions>
      </trkpt>
      <trkpt lat="43.77194381318986415863037109375" lon="1.56404678709805011749267578125">
        <ele>160.8000030517578125</ele>
        <time>2026-08-13T06:47:45.000Z</time>
        <extensions>
          <ns3:TrackPointExtension>
            <ns3:hr>91</ns3:hr>
            <ns3:cad>42</ns3:cad>
          </ns3:TrackPointExtension>
        </extensions>
      </trkpt>
      <trkpt lat="43.7719531171023845672607421875" lon="1.56404812820255756378173828125">
        <ele>160.8000030517578125</ele>
        <time>2026-08-13T06:47:46.000Z</time>
        <extensions>
          <ns3:TrackPointExtension>
            <ns3:hr>90</ns3:hr>
            <ns3:cad>42</ns3:cad>
          </ns3:TrackPointExtension>
        </extensions>
      </trkpt>
      <trkpt lat="43.771962337195873260498046875" lon="1.56404477544128894805908203125">
        <ele>160.8000030517578125</ele>
        <time>2026-08-13T06:47:47.000Z</time>
        <extensions>
          <ns3:TrackPointExtension>
            <ns3:hr>90</ns3:hr>
            <ns3:cad>43</ns3:cad>
          </ns3:TrackPointExtension>
        </extensions>
      </trkpt>
      <trkpt lat="43.7719722278416156768798828125" lon="1.56403857283294200897216796875">
        <ele>160.8000030517578125</ele>
        <time>2026-08-13T06:47:48.000Z</time>
        <extensions>
          <ns3:TrackPointExtension>
            <ns3:hr>89</ns3:hr>
            <ns3:cad>43</ns3:cad>
          </ns3:TrackPointExtension>
        </extensions>
      </trkpt>
      <trkpt lat="43.77198203466832637786865234375" lon="1.56403538770973682403564453125">
        <ele>160.600006103515625</ele>
        <time>2026-08-13T06:47:49.000Z</time>
        <extensions>
          <ns3:TrackPointExtension>
            <ns3:hr>89</ns3:hr>
            <ns3:cad>43</ns3:cad>
          </ns3:TrackPointExtension>
        </extensions>
      </trkpt>
      <trkpt lat="43.77199293114244937896728515625" lon="1.5640322864055633544921875">
        <ele>160.600006103515625</ele>
        <time>2026-08-13T06:47:50.000Z</time>
        <extensions>
          <ns3:TrackPointExtension>
            <ns3:hr>89</ns3:hr>
            <ns3:cad>43</ns3:cad>
          </ns3:TrackPointExtension>
        </extensions>
      </trkpt>
      <trkpt lat="43.77200231887400150299072265625" lon="1.564028598368167877197265625">
        <ele>160.600006103515625</ele>
        <time>2026-08-13T06:47:51.000Z</time>
        <extensions>
          <ns3:TrackPointExtension>
            <ns3:hr>88</ns3:hr>
            <ns3:cad>44</ns3:cad>
          </ns3:TrackPointExtension>
        </extensions>
      </trkpt>
      <trkpt lat="43.77201204188168048858642578125" lon="1.56402289867401123046875">
        <ele>160.600006103515625</ele>
        <time>2026-08-13T06:47:52.000Z</time>
        <extensions>
          <ns3:TrackPointExtension>
            <ns3:hr>86</ns3:hr>
            <ns3:cad>45</ns3:cad>
          </ns3:TrackPointExtension>
        </extensions>
      </trkpt>
      <trkpt lat="43.7720218487083911895751953125" lon="1.56402030028402805328369140625">
        <ele>160.399993896484375</ele>
        <time>2026-08-13T06:47:53.000Z</time>
        <extensions>
          <ns3:TrackPointExtension>
            <ns3:hr>85</ns3:hr>
            <ns3:cad>46</ns3:cad>
          </ns3:TrackPointExtension>
        </extensions>
      </trkpt>
      <trkpt lat="43.77203132025897502899169921875" lon="1.56401845626533031463623046875">
        <ele>160.399993896484375</ele>
        <time>2026-08-13T06:47:54.000Z</time>
        <extensions>
          <ns3:TrackPointExtension>
            <ns3:hr>84</ns3:hr>
            <ns3:cad>47</ns3:cad>
          </ns3:TrackPointExtension>
        </extensions>
      </trkpt>
      <trkpt lat="43.7720399536192417144775390625" lon="1.56401577405631542205810546875">
        <ele>160.399993896484375</ele>
        <time>2026-08-13T06:47:55.000Z</time>
        <extensions>
          <ns3:TrackPointExtension>
            <ns3:hr>84</ns3:hr>
            <ns3:cad>47</ns3:cad>
          </ns3:TrackPointExtension>
        </extensions>
      </trkpt>
      <trkpt lat="43.7720473296940326690673828125" lon="1.5640123374760150909423828125">
        <ele>160.399993896484375</ele>
        <time>2026-08-13T06:47:56.000Z</time>
        <extensions>
          <ns3:TrackPointExtension>
            <ns3:hr>84</ns3:hr>
            <ns3:cad>47</ns3:cad>
          </ns3:TrackPointExtension>
        </extensions>
      </trkpt>
      <trkpt lat="43.77205319702625274658203125" lon="1.564007811248302459716796875">
        <ele>160.399993896484375</ele>
        <time>2026-08-13T06:47:57.000Z</time>
        <extensions>
          <ns3:TrackPointExtension>
            <ns3:hr>84</ns3:hr>
            <ns3:cad>46</ns3:cad>
          </ns3:TrackPointExtension>
        </extensions>
      </trkpt>
      <trkpt lat="43.7720617465674877166748046875" lon="1.56400102190673351287841796875">
        <ele>160.399993896484375</ele>
        <time>2026-08-13T06:47:58.000Z</time>
        <extensions>
          <ns3:TrackPointExtension>
            <ns3:hr>85</ns3:hr>
            <ns3:cad>46</ns3:cad>
          </ns3:TrackPointExtension>
        </extensions>
      </trkpt>
      <trkpt lat="43.77207205630838871002197265625" lon="1.5639949031174182891845703125">
        <ele>160.399993896484375</ele>
        <time>2026-08-13T06:47:59.000Z</time>
        <extensions>
          <ns3:TrackPointExtension>
            <ns3:hr>86</ns3:hr>
            <ns3:cad>44</ns3:cad>
          </ns3:TrackPointExtension>
        </extensions>
      </trkpt>
      <trkpt lat="43.77208027057349681854248046875" lon="1.5639888681471347808837890625">
        <ele>160.399993896484375</ele>
        <time>2026-08-13T06:48:00.000Z</time>
        <extensions>
          <ns3:TrackPointExtension>
            <ns3:hr>86</ns3:hr>
            <ns3:cad>43</ns3:cad>
          </ns3:TrackPointExtension>
        </extensions>
      </trkpt>
      <trkpt lat="43.77208831720054149627685546875" lon="1.5639831684529781341552734375">
        <ele>160.399993896484375</ele>
        <time>2026-08-13T06:48:01.000Z</time>
        <extensions>
          <ns3:TrackPointExtension>
            <ns3:hr>86</ns3:hr>
            <ns3:cad>43</ns3:cad>
          </ns3:TrackPointExtension>
        </extensions>
      </trkpt>
      <trkpt lat="43.77209720201790332794189453125" lon="1.56397738493978977203369140625">
        <ele>160.1999969482421875</ele>
        <time>2026-08-13T06:48:02.000Z</time>
        <extensions>
          <ns3:TrackPointExtension>
            <ns3:hr>86</ns3:hr>
            <ns3:cad>43</ns3:cad>
          </ns3:TrackPointExtension>
        </extensions>
      </trkpt>
      <trkpt lat="43.77210415899753570556640625" lon="1.56396883539855480194091796875">
        <ele>160.1999969482421875</ele>
        <time>2026-08-13T06:48:03.000Z</time>
        <extensions>
          <ns3:TrackPointExtension>
            <ns3:hr>87</ns3:hr>
            <ns3:cad>43</ns3:cad>
          </ns3:TrackPointExtension>
        </extensions>
      </trkpt>
      <trkpt lat="43.7721093557775020599365234375" lon="1.56396229751408100128173828125">
        <ele>160.1999969482421875</ele>
        <time>2026-08-13T06:48:04.000Z</time>
        <extensions>
          <ns3:TrackPointExtension>
            <ns3:hr>87</ns3:hr>
            <ns3:cad>43</ns3:cad>
          </ns3:TrackPointExtension>
        </extensions>
      </trkpt>
      <trkpt lat="43.77211681567132472991943359375" lon="1.5639543347060680389404296875">
        <ele>160.1999969482421875</ele>
        <time>2026-08-13T06:48:05.000Z</time>
        <extensions>
          <ns3:TrackPointExtension>
            <ns3:hr>87</ns3:hr>
            <ns3:cad>43</ns3:cad>
          </ns3:TrackPointExtension>
        </extensions>
      </trkpt>
      <trkpt lat="43.77212603576481342315673828125" lon="1.56394653953611850738525390625">
        <ele>160.399993896484375</ele>
        <time>2026-08-13T06:48:06.000Z</time>
        <extensions>
          <ns3:TrackPointExtension>
            <ns3:hr>87</ns3:hr>
            <ns3:cad>43</ns3:cad>
          </ns3:TrackPointExtension>
        </extensions>
      </trkpt>
      <trkpt lat="43.772135339677333831787109375" lon="1.563939414918422698974609375">
        <ele>160.399993896484375</ele>
        <time>2026-08-13T06:48:07.000Z</time>
        <extensions>
          <ns3:TrackPointExtension>
            <ns3:hr>86</ns3:hr>
            <ns3:cad>43</ns3:cad>
          </ns3:TrackPointExtension>
        </extensions>
      </trkpt>
      <trkpt lat="43.77214330248534679412841796875" lon="1.563935391604900360107421875">
        <ele>160.399993896484375</ele>
        <time>2026-08-13T06:48:08.000Z</time>
        <extensions>
          <ns3:TrackPointExtension>
            <ns3:hr>86</ns3:hr>
            <ns3:cad>42</ns3:cad>
          </ns3:TrackPointExtension>
        </extensions>
      </trkpt>
      <trkpt lat="43.77215285785496234893798828125" lon="1.56392893753945827484130859375">
        <ele>160.399993896484375</ele>
        <time>2026-08-13T06:48:09.000Z</time>
        <extensions>
          <ns3:TrackPointExtension>
            <ns3:hr>86</ns3:hr>
            <ns3:cad>42</ns3:cad>
          </ns3:TrackPointExtension>
        </extensions>
      </trkpt>
      <trkpt lat="43.77216241322457790374755859375" lon="1.5639208070933818817138671875">
        <ele>160.399993896484375</ele>
        <time>2026-08-13T06:48:10.000Z</time>
        <extensions>
          <ns3:TrackPointExtension>
            <ns3:hr>87</ns3:hr>
            <ns3:cad>42</ns3:cad>
          </ns3:TrackPointExtension>
        </extensions>
      </trkpt>
      <trkpt lat="43.7721680290997028350830078125" lon="1.56391351483762264251708984375">
        <ele>160.399993896484375</ele>
        <time>2026-08-13T06:48:11.000Z</time>
        <extensions>
          <ns3:TrackPointExtension>
            <ns3:hr>86</ns3:hr>
            <ns3:cad>43</ns3:cad>
          </ns3:TrackPointExtension>
        </extensions>
      </trkpt>
      <trkpt lat="43.772174231708049774169921875" lon="1.563906557857990264892578125">
        <ele>160.399993896484375</ele>
        <time>2026-08-13T06:48:12.000Z</time>
        <extensions>
          <ns3:TrackPointExtension>
            <ns3:hr>86</ns3:hr>
            <ns3:cad>44</ns3:cad>
          </ns3:TrackPointExtension>
        </extensions>
      </trkpt>
      <trkpt lat="43.7721844576299190521240234375" lon="1.5638973377645015716552734375">
        <ele>160.399993896484375</ele>
        <time>2026-08-13T06:48:13.000Z</time>
        <extensions>
          <ns3:TrackPointExtension>
            <ns3:hr>86</ns3:hr>
            <ns3:cad>44</ns3:cad>
          </ns3:TrackPointExtension>
        </extensions>
      </trkpt>
      <trkpt lat="43.77219191752374172210693359375" lon="1.5638859383761882781982421875">
        <ele>160.399993896484375</ele>
        <time>2026-08-13T06:48:14.000Z</time>
        <extensions>
          <ns3:TrackPointExtension>
            <ns3:hr>86</ns3:hr>
            <ns3:cad>43</ns3:cad>
          </ns3:TrackPointExtension>
        </extensions>
      </trkpt>
      <trkpt lat="43.7721988745033740997314453125" lon="1.56387965194880962371826171875">
        <ele>160.399993896484375</ele>
        <time>2026-08-13T06:48:15.000Z</time>
        <extensions>
          <ns3:TrackPointExtension>
            <ns3:hr>86</ns3:hr>
            <ns3:cad>42</ns3:cad>
          </ns3:TrackPointExtension>
        </extensions>
      </trkpt>
      <trkpt lat="43.77220633439719676971435546875" lon="1.56387009657919406890869140625">
        <ele>160.399993896484375</ele>
        <time>2026-08-13T06:48:16.000Z</time>
        <extensions>
          <ns3:TrackPointExtension>
            <ns3:hr>87</ns3:hr>
            <ns3:cad>41</ns3:cad>
          </ns3:TrackPointExtension>
        </extensions>
      </trkpt>
      <trkpt lat="43.77221404574811458587646484375" lon="1.56385869719088077545166015625">
        <ele>160.399993896484375</ele>
        <time>2026-08-13T06:48:17.000Z</time>
        <extensions>
          <ns3:TrackPointExtension>
            <ns3:hr>86</ns3:hr>
            <ns3:cad>41</ns3:cad>
          </ns3:TrackPointExtension>
        </extensions>
      </trkpt>
      <trkpt lat="43.7722210027277469635009765625" lon="1.5638460405170917510986328125">
        <ele>160.399993896484375</ele>
        <time>2026-08-13T06:48:18.000Z</time>
        <extensions>
          <ns3:TrackPointExtension>
            <ns3:hr>86</ns3:hr>
            <ns3:cad>41</ns3:cad>
          </ns3:TrackPointExtension>
        </extensions>
      </trkpt>
      <trkpt lat="43.7722270376980304718017578125" lon="1.5638353116810321807861328125">
        <ele>160.399993896484375</ele>
        <time>2026-08-13T06:48:19.000Z</time>
        <extensions>
          <ns3:TrackPointExtension>
            <ns3:hr>86</ns3:hr>
            <ns3:cad>41</ns3:cad>
          </ns3:TrackPointExtension>
        </extensions>
      </trkpt>
      <trkpt lat="43.7722340784966945648193359375" lon="1.56382952816784381866455078125">
        <ele>160.399993896484375</ele>
        <time>2026-08-13T06:48:20.000Z</time>
        <extensions>
          <ns3:TrackPointExtension>
            <ns3:hr>86</ns3:hr>
            <ns3:cad>43</ns3:cad>
          </ns3:TrackPointExtension>
        </extensions>
      </trkpt>
      <trkpt lat="43.77224153839051723480224609375" lon="1.56382332555949687957763671875">
        <ele>160.399993896484375</ele>
        <time>2026-08-13T06:48:21.000Z</time>
        <extensions>
          <ns3:TrackPointExtension>
            <ns3:hr>85</ns3:hr>
            <ns3:cad>44</ns3:cad>
          </ns3:TrackPointExtension>
        </extensions>
      </trkpt>
      <trkpt lat="43.7722498364746570587158203125" lon="1.5638158656656742095947265625">
        <ele>160.399993896484375</ele>
        <time>2026-08-13T06:48:22.000Z</time>
        <extensions>
          <ns3:TrackPointExtension>
            <ns3:hr>85</ns3:hr>
            <ns3:cad>45</ns3:cad>
          </ns3:TrackPointExtension>
        </extensions>
      </trkpt>
      <trkpt lat="43.77225863747298717498779296875" lon="1.5638081543147563934326171875">
        <ele>160.399993896484375</ele>
        <time>2026-08-13T06:48:23.000Z</time>
        <extensions>
          <ns3:TrackPointExtension>
            <ns3:hr>85</ns3:hr>
            <ns3:cad>47</ns3:cad>
          </ns3:TrackPointExtension>
        </extensions>
      </trkpt>
      <trkpt lat="43.7722671031951904296875" lon="1.56380170024931430816650390625">
        <ele>160.399993896484375</ele>
        <time>2026-08-13T06:48:24.000Z</time>
        <extensions>
          <ns3:TrackPointExtension>
            <ns3:hr>84</ns3:hr>
            <ns3:cad>47</ns3:cad>
          </ns3:TrackPointExtension>
        </extensions>
      </trkpt>
      <trkpt lat="43.7722756527364253997802734375" lon="1.56379566527903079986572265625">
        <ele>160.399993896484375</ele>
        <time>2026-08-13T06:48:25.000Z</time>
        <extensions>
          <ns3:TrackPointExtension>
            <ns3:hr>84</ns3:hr>
            <ns3:cad>47</ns3:cad>
          </ns3:TrackPointExtension>
        </extensions>
      </trkpt>
      <trkpt lat="43.7722847051918506622314453125" lon="1.56379046849906444549560546875">
        <ele>160.399993896484375</ele>
        <time>2026-08-13T06:48:26.000Z</time>
        <extensions>
          <ns3:TrackPointExtension>
            <ns3:hr>84</ns3:hr>
            <ns3:cad>47</ns3:cad>
          </ns3:TrackPointExtension>
        </extensions>
      </trkpt>
      <trkpt lat="43.772289566695690155029296875" lon="1.56378074549138545989990234375">
        <ele>160.1999969482421875</ele>
        <time>2026-08-13T06:48:27.000Z</time>
        <extensions>
          <ns3:TrackPointExtension>
            <ns3:hr>84</ns3:hr>
            <ns3:cad>47</ns3:cad>
          </ns3:TrackPointExtension>
        </extensions>
      </trkpt>
      <trkpt lat="43.77229400910437107086181640625" lon="1.56377621926367282867431640625">
        <ele>160.1999969482421875</ele>
        <time>2026-08-13T06:48:28.000Z</time>
        <extensions>
          <ns3:TrackPointExtension>
            <ns3:hr>84</ns3:hr>
            <ns3:cad>47</ns3:cad>
          </ns3:TrackPointExtension>
        </extensions>
      </trkpt>
      <trkpt lat="43.7723006308078765869140625" lon="1.56376984901726245880126953125">
        <ele>160.1999969482421875</ele>
        <time>2026-08-13T06:48:29.000Z</time>
        <extensions>
          <ns3:TrackPointExtension>
            <ns3:hr>84</ns3:hr>
            <ns3:cad>47</ns3:cad>
          </ns3:TrackPointExtension>
        </extensions>
      </trkpt>
      <trkpt lat="43.77230800688266754150390625" lon="1.5637612156569957733154296875">
        <ele>160.1999969482421875</ele>
        <time>2026-08-13T06:48:30.000Z</time>
        <extensions>
          <ns3:TrackPointExtension>
            <ns3:hr>84</ns3:hr>
            <ns3:cad>47</ns3:cad>
          </ns3:TrackPointExtension>
        </extensions>
      </trkpt>
      <trkpt lat="43.7723135389387607574462890625" lon="1.56375576741993427276611328125">
        <ele>160.1999969482421875</ele>
        <time>2026-08-13T06:48:31.000Z</time>
        <extensions>
          <ns3:TrackPointExtension>
            <ns3:hr>83</ns3:hr>
            <ns3:cad>47</ns3:cad>
          </ns3:TrackPointExtension>
        </extensions>
      </trkpt>
      <trkpt lat="43.772321082651615142822265625" lon="1.5637533366680145263671875">
        <ele>160.1999969482421875</ele>
        <time>2026-08-13T06:48:32.000Z</time>
        <extensions>
          <ns3:TrackPointExtension>
            <ns3:hr>83</ns3:hr>
            <ns3:cad>47</ns3:cad>
          </ns3:TrackPointExtension>
        </extensions>
      </trkpt>
      <trkpt lat="43.77232770435512065887451171875" lon="1.5637452900409698486328125">
        <ele>160.1999969482421875</ele>
        <time>2026-08-13T06:48:33.000Z</time>
        <extensions>
          <ns3:TrackPointExtension>
            <ns3:hr>84</ns3:hr>
            <ns3:cad>45</ns3:cad>
          </ns3:TrackPointExtension>
        </extensions>
      </trkpt>
      <trkpt lat="43.77233482897281646728515625" lon="1.56373866833746433258056640625">
        <ele>160.1999969482421875</ele>
        <time>2026-08-13T06:48:34.000Z</time>
        <extensions>
          <ns3:TrackPointExtension>
            <ns3:hr>84</ns3:hr>
            <ns3:cad>0</ns3:cad>
          </ns3:TrackPointExtension>
        </extensions>
      </trkpt>
      <trkpt lat="43.77234312705695629119873046875" lon="1.5637353993952274322509765625">
        <ele>160.1999969482421875</ele>
        <time>2026-08-13T06:48:35.000Z</time>
        <extensions>
          <ns3:TrackPointExtension>
            <ns3:hr>84</ns3:hr>
            <ns3:cad>0</ns3:cad>
          </ns3:TrackPointExtension>
        </extensions>
      </trkpt>
      <trkpt lat="43.772353269159793853759765625" lon="1.56373045407235622406005859375">
        <ele>160.1999969482421875</ele>
        <time>2026-08-13T06:48:36.000Z</time>
        <extensions>
          <ns3:TrackPointExtension>
            <ns3:hr>84</ns3:hr>
            <ns3:cad>0</ns3:cad>
          </ns3:TrackPointExtension>
        </extensions>
      </trkpt>
      <trkpt lat="43.77235938794910907745361328125" lon="1.5637327171862125396728515625">
        <ele>160.1999969482421875</ele>
        <time>2026-08-13T06:48:37.000Z</time>
        <extensions>
          <ns3:TrackPointExtension>
            <ns3:hr>85</ns3:hr>
            <ns3:cad>40</ns3:cad>
          </ns3:TrackPointExtension>
        </extensions>
      </trkpt>
      <trkpt lat="43.77236508764326572418212890625" lon="1.56373263336718082427978515625">
        <ele>160.1999969482421875</ele>
        <time>2026-08-13T06:48:38.000Z</time>
        <extensions>
          <ns3:TrackPointExtension>
            <ns3:hr>85</ns3:hr>
            <ns3:cad>40</ns3:cad>
          </ns3:TrackPointExtension>
        </extensions>
      </trkpt>
      <trkpt lat="43.7723728828132152557373046875" lon="1.5637290291488170623779296875">
        <ele>160.1999969482421875</ele>
        <time>2026-08-13T06:48:39.000Z</time>
        <extensions>
          <ns3:TrackPointExtension>
            <ns3:hr>85</ns3:hr>
            <ns3:cad>40</ns3:cad>
          </ns3:TrackPointExtension>
        </extensions>
      </trkpt>
      <trkpt lat="43.7723805941641330718994140625" lon="1.56372576020658016204833984375">
        <ele>160.1999969482421875</ele>
        <time>2026-08-13T06:48:40.000Z</time>
        <extensions>
          <ns3:TrackPointExtension>
            <ns3:hr>85</ns3:hr>
            <ns3:cad>0</ns3:cad>
          </ns3:TrackPointExtension>
        </extensions>
      </trkpt>
      <trkpt lat="43.772397525608539581298828125" lon="1.56372626312077045440673828125">
        <ele>160.1999969482421875</ele>
        <time>2026-08-13T06:48:41.000Z</time>
        <extensions>
          <ns3:TrackPointExtension>
            <ns3:hr>85</ns3:hr>
            <ns3:cad>0</ns3:cad>
          </ns3:TrackPointExtension>
        </extensions>
      </trkpt>
      <trkpt lat="43.77240649424493312835693359375" lon="1.5637260116636753082275390625">
        <ele>160.1999969482421875</ele>
        <time>2026-08-13T06:48:42.000Z</time>
        <extensions>
          <ns3:TrackPointExtension>
            <ns3:hr>86</ns3:hr>
            <ns3:cad>0</ns3:cad>
          </ns3:TrackPointExtension>
        </extensions>
      </trkpt>
      <trkpt lat="43.77241571433842182159423828125" lon="1.56372894532978534698486328125">
        <ele>160.1999969482421875</ele>
        <time>2026-08-13T06:48:43.000Z</time>
        <extensions>
          <ns3:TrackPointExtension>
            <ns3:hr>85</ns3:hr>
            <ns3:cad>0</ns3:cad>
          </ns3:TrackPointExtension>
        </extensions>
      </trkpt>
      <trkpt lat="43.77242493443191051483154296875" lon="1.56373213045299053192138671875">
        <ele>160.1999969482421875</ele>
        <time>2026-08-13T06:48:44.000Z</time>
        <extensions>
          <ns3:TrackPointExtension>
            <ns3:hr>85</ns3:hr>
            <ns3:cad>0</ns3:cad>
          </ns3:TrackPointExtension>
        </extensions>
      </trkpt>
      <trkpt lat="43.77243566326797008514404296875" lon="1.56373657286167144775390625">
        <ele>160.1999969482421875</ele>
        <time>2026-08-13T06:48:45.000Z</time>
        <extensions>
          <ns3:TrackPointExtension>
            <ns3:hr>85</ns3:hr>
            <ns3:cad>0</ns3:cad>
          </ns3:TrackPointExtension>
        </extensions>
      </trkpt>
      <trkpt lat="43.7724446319043636322021484375" lon="1.56374017708003520965576171875">
        <ele>160</ele>
        <time>2026-08-13T06:48:46.000Z</time>
        <extensions>
          <ns3:TrackPointExtension>
            <ns3:hr>85</ns3:hr>
            <ns3:cad>0</ns3:cad>
          </ns3:TrackPointExtension>
        </extensions>
      </trkpt>
      <trkpt lat="43.77245108596980571746826171875" lon="1.563742943108081817626953125">
        <ele>160</ele>
        <time>2026-08-13T06:48:47.000Z</time>
        <extensions>
          <ns3:TrackPointExtension>
            <ns3:hr>85</ns3:hr>
            <ns3:cad>41</ns3:cad>
          </ns3:TrackPointExtension>
        </extensions>
      </trkpt>
      <trkpt lat="43.77246198244392871856689453125" lon="1.563750989735126495361328125">
        <ele>159.8000030517578125</ele>
        <time>2026-08-13T06:48:48.000Z</time>
        <extensions>
          <ns3:TrackPointExtension>
            <ns3:hr>85</ns3:hr>
            <ns3:cad>43</ns3:cad>
          </ns3:TrackPointExtension>
        </extensions>
      </trkpt>
      <trkpt lat="43.77247053198516368865966796875" lon="1.56375643797218799591064453125">
        <ele>159.8000030517578125</ele>
        <time>2026-08-13T06:48:49.000Z</time>
        <extensions>
          <ns3:TrackPointExtension>
            <ns3:hr>85</ns3:hr>
            <ns3:cad>43</ns3:cad>
          </ns3:TrackPointExtension>
        </extensions>
      </trkpt>
      <trkpt lat="43.77247874625027179718017578125" lon="1.5637613832950592041015625">
        <ele>159.8000030517578125</ele>
        <time>2026-08-13T06:48:50.000Z</time>
        <extensions>
          <ns3:TrackPointExtension>
            <ns3:hr>84</ns3:hr>
            <ns3:cad>44</ns3:cad>
          </ns3:TrackPointExtension>
        </extensions>
      </trkpt>
      <trkpt lat="43.772486038506031036376953125" lon="1.563766412436962127685546875">
        <ele>159.600006103515625</ele>
        <time>2026-08-13T06:48:51.000Z</time>
        <extensions>
          <ns3:TrackPointExtension>
            <ns3:hr>84</ns3:hr>
            <ns3:cad>46</ns3:cad>
          </ns3:TrackPointExtension>
        </extensions>
      </trkpt>
      <trkpt lat="43.77249349839985370635986328125" lon="1.5637729503214359283447265625">
        <ele>159.600006103515625</ele>
        <time>2026-08-13T06:48:52.000Z</time>
        <extensions>
          <ns3:TrackPointExtension>
            <ns3:hr>83</ns3:hr>
            <ns3:cad>46</ns3:cad>
          </ns3:TrackPointExtension>
        </extensions>
      </trkpt>
      <trkpt lat="43.7725006230175495147705078125" lon="1.56378024257719516754150390625">
        <ele>159.600006103515625</ele>
        <time>2026-08-13T06:48:53.000Z</time>
        <extensions>
          <ns3:TrackPointExtension>
            <ns3:hr>82</ns3:hr>
            <ns3:cad>46</ns3:cad>
          </ns3:TrackPointExtension>
        </extensions>
      </trkpt>
      <trkpt lat="43.77250841818749904632568359375" lon="1.56378527171909809112548828125">
        <ele>159.600006103515625</ele>
        <time>2026-08-13T06:48:54.000Z</time>
        <extensions>
          <ns3:TrackPointExtension>
            <ns3:hr>81</ns3:hr>
            <ns3:cad>44</ns3:cad>
          </ns3:TrackPointExtension>
        </extensions>
      </trkpt>
      <trkpt lat="43.77251663245260715484619140625" lon="1.5637910552322864532470703125">
        <ele>159.600006103515625</ele>
        <time>2026-08-13T06:48:55.000Z</time>
        <extensions>
          <ns3:TrackPointExtension>
            <ns3:hr>81</ns3:hr>
            <ns3:cad>44</ns3:cad>
          </ns3:TrackPointExtension>
        </extensions>
      </trkpt>
      <trkpt lat="43.7725227512419223785400390625" lon="1.56379918567836284637451171875">
        <ele>159.600006103515625</ele>
        <time>2026-08-13T06:48:56.000Z</time>
        <extensions>
          <ns3:TrackPointExtension>
            <ns3:hr>81</ns3:hr>
            <ns3:cad>44</ns3:cad>
          </ns3:TrackPointExtension>
        </extensions>
      </trkpt>
      <trkpt lat="43.77252987585961818695068359375" lon="1.563805975019931793212890625">
        <ele>159.600006103515625</ele>
        <time>2026-08-13T06:48:57.000Z</time>
        <extensions>
          <ns3:TrackPointExtension>
            <ns3:hr>81</ns3:hr>
            <ns3:cad>44</ns3:cad>
          </ns3:TrackPointExtension>
        </extensions>
      </trkpt>
      <trkpt lat="43.77253809012472629547119140625" lon="1.56381167471408843994140625">
        <ele>159.600006103515625</ele>
        <time>2026-08-13T06:48:58.000Z</time>
        <extensions>
          <ns3:TrackPointExtension>
            <ns3:hr>80</ns3:hr>
            <ns3:cad>44</ns3:cad>
          </ns3:TrackPointExtension>
        </extensions>
      </trkpt>
      <trkpt lat="43.77254446037113666534423828125" lon="1.5638192184269428253173828125">
        <ele>159.600006103515625</ele>
        <time>2026-08-13T06:48:59.000Z</time>
        <extensions>
          <ns3:TrackPointExtension>
            <ns3:hr>81</ns3:hr>
            <ns3:cad>44</ns3:cad>
          </ns3:TrackPointExtension>
        </extensions>
      </trkpt>
      <trkpt lat="43.77255099825561046600341796875" lon="1.56382550485432147979736328125">
        <ele>159.399993896484375</ele>
        <time>2026-08-13T06:49:00.000Z</time>
        <extensions>
          <ns3:TrackPointExtension>
            <ns3:hr>81</ns3:hr>
            <ns3:cad>44</ns3:cad>
          </ns3:TrackPointExtension>
        </extensions>
      </trkpt>
      <trkpt lat="43.77255669794976711273193359375" lon="1.5638333000242710113525390625">
        <ele>159.399993896484375</ele>
        <time>2026-08-13T06:49:01.000Z</time>
        <extensions>
          <ns3:TrackPointExtension>
            <ns3:hr>81</ns3:hr>
            <ns3:cad>43</ns3:cad>
          </ns3:TrackPointExtension>
        </extensions>
      </trkpt>
      <trkpt lat="43.77256281673908233642578125" lon="1.5638410113751888275146484375">
        <ele>159.399993896484375</ele>
        <time>2026-08-13T06:49:02.000Z</time>
        <extensions>
          <ns3:TrackPointExtension>
            <ns3:hr>80</ns3:hr>
            <ns3:cad>43</ns3:cad>
          </ns3:TrackPointExtension>
        </extensions>
      </trkpt>
      <trkpt lat="43.77256818115711212158203125" lon="1.5638472139835357666015625">
        <ele>159.399993896484375</ele>
        <time>2026-08-13T06:49:03.000Z</time>
        <extensions>
          <ns3:TrackPointExtension>
            <ns3:hr>80</ns3:hr>
            <ns3:cad>42</ns3:cad>
          </ns3:TrackPointExtension>
        </extensions>
      </trkpt>
      <trkpt lat="43.7725720368325710296630859375" lon="1.5638470463454723358154296875">
        <ele>159.399993896484375</ele>
        <time>2026-08-13T06:49:04.000Z</time>
        <extensions>
          <ns3:TrackPointExtension>
            <ns3:hr>80</ns3:hr>
            <ns3:cad>0</ns3:cad>
          </ns3:TrackPointExtension>
        </extensions>
      </trkpt>
      <trkpt lat="43.77257815562188625335693359375" lon="1.5638503991067409515380859375">
        <ele>159.1999969482421875</ele>
        <time>2026-08-13T06:49:05.000Z</time>
        <extensions>
          <ns3:TrackPointExtension>
            <ns3:hr>81</ns3:hr>
            <ns3:cad>0</ns3:cad>
          </ns3:TrackPointExtension>
        </extensions>
      </trkpt>
      <trkpt lat="43.77258561551570892333984375" lon="1.5638550929725170135498046875">
        <ele>159.1999969482421875</ele>
        <time>2026-08-13T06:49:06.000Z</time>
        <extensions>
          <ns3:TrackPointExtension>
            <ns3:hr>81</ns3:hr>
            <ns3:cad>0</ns3:cad>
          </ns3:TrackPointExtension>
        </extensions>
      </trkpt>
      <trkpt lat="43.7725938297808170318603515625" lon="1.563860289752483367919921875">
        <ele>159.1999969482421875</ele>
        <time>2026-08-13T06:49:07.000Z</time>
        <extensions>
          <ns3:TrackPointExtension>
            <ns3:hr>81</ns3:hr>
            <ns3:cad>0</ns3:cad>
          </ns3:TrackPointExtension>
        </extensions>
      </trkpt>
      <trkpt lat="43.7726005353033542633056640625" lon="1.5638648159801959991455078125">
        <ele>159</ele>
        <time>2026-08-13T06:49:08.000Z</time>
        <extensions>
          <ns3:TrackPointExtension>
            <ns3:hr>81</ns3:hr>
            <ns3:cad>0</ns3:cad>
          </ns3:TrackPointExtension>
        </extensions>
      </trkpt>
      <trkpt lat="43.772606067359447479248046875" lon="1.5638691745698451995849609375">
        <ele>159</ele>
        <time>2026-08-13T06:49:09.000Z</time>
        <extensions>
          <ns3:TrackPointExtension>
            <ns3:hr>80</ns3:hr>
            <ns3:cad>0</ns3:cad>
          </ns3:TrackPointExtension>
        </extensions>
      </trkpt>
      <trkpt lat="43.772612772881984710693359375" lon="1.5638752095401287078857421875">
        <ele>159</ele>
        <time>2026-08-13T06:49:10.000Z</time>
        <extensions>
          <ns3:TrackPointExtension>
            <ns3:hr>80</ns3:hr>
            <ns3:cad>0</ns3:cad>
          </ns3:TrackPointExtension>
        </extensions>
      </trkpt>
      <trkpt lat="43.77261989749968051910400390625" lon="1.5638785623013973236083984375">
        <ele>158.8000030517578125</ele>
        <time>2026-08-13T06:49:11.000Z</time>
        <extensions>
          <ns3:TrackPointExtension>
            <ns3:hr>80</ns3:hr>
            <ns3:cad>0</ns3:cad>
          </ns3:TrackPointExtension>
        </extensions>
      </trkpt>
      <trkpt lat="43.7726286984980106353759765625" lon="1.56388342380523681640625">
        <ele>158.8000030517578125</ele>
        <time>2026-08-13T06:49:12.000Z</time>
        <extensions>
          <ns3:TrackPointExtension>
            <ns3:hr>80</ns3:hr>
            <ns3:cad>0</ns3:cad>
          </ns3:TrackPointExtension>
        </extensions>
      </trkpt>
      <trkpt lat="43.77263548783957958221435546875" lon="1.56388920731842517852783203125">
        <ele>158.8000030517578125</ele>
        <time>2026-08-13T06:49:13.000Z</time>
        <extensions>
          <ns3:TrackPointExtension>
            <ns3:hr>80</ns3:hr>
            <ns3:cad>45</ns3:cad>
          </ns3:TrackPointExtension>
        </extensions>
      </trkpt>
      <trkpt lat="43.7726434506475925445556640625" lon="1.56389641575515270233154296875">
        <ele>158.600006103515625</ele>
        <time>2026-08-13T06:49:14.000Z</time>
        <extensions>
          <ns3:TrackPointExtension>
            <ns3:hr>80</ns3:hr>
            <ns3:cad>45</ns3:cad>
          </ns3:TrackPointExtension>
        </extensions>
      </trkpt>
      <trkpt lat="43.772650323808193206787109375" lon="1.56390395946800708770751953125">
        <ele>158.600006103515625</ele>
        <time>2026-08-13T06:49:15.000Z</time>
        <extensions>
          <ns3:TrackPointExtension>
            <ns3:hr>80</ns3:hr>
            <ns3:cad>0</ns3:cad>
          </ns3:TrackPointExtension>
        </extensions>
      </trkpt>
      <trkpt lat="43.77265778370201587677001953125" lon="1.56391032971441745758056640625">
        <ele>158.600006103515625</ele>
        <time>2026-08-13T06:49:16.000Z</time>
        <extensions>
          <ns3:TrackPointExtension>
            <ns3:hr>79</ns3:hr>
            <ns3:cad>0</ns3:cad>
          </ns3:TrackPointExtension>
        </extensions>
      </trkpt>
      <trkpt lat="43.77266314812004566192626953125" lon="1.56391561031341552734375">
        <ele>158.399993896484375</ele>
        <time>2026-08-13T06:49:17.000Z</time>
        <extensions>
          <ns3:TrackPointExtension>
            <ns3:hr>78</ns3:hr>
            <ns3:cad>0</ns3:cad>
          </ns3:TrackPointExtension>
        </extensions>
      </trkpt>
      <trkpt lat="43.7726682610809803009033203125" lon="1.56392189674079418182373046875">
        <ele>158.399993896484375</ele>
        <time>2026-08-13T06:49:18.000Z</time>
        <extensions>
          <ns3:TrackPointExtension>
            <ns3:hr>77</ns3:hr>
            <ns3:cad>0</ns3:cad>
          </ns3:TrackPointExtension>
        </extensions>
      </trkpt>
      <trkpt lat="43.77267220057547092437744140625" lon="1.56392256729304790496826171875">
        <ele>158.399993896484375</ele>
        <time>2026-08-13T06:49:19.000Z</time>
        <extensions>
          <ns3:TrackPointExtension>
            <ns3:hr>76</ns3:hr>
            <ns3:cad>0</ns3:cad>
          </ns3:TrackPointExtension>
        </extensions>
      </trkpt>
      <trkpt lat="43.77267681062221527099609375" lon="1.56392508186399936676025390625">
        <ele>158.1999969482421875</ele>
        <time>2026-08-13T06:49:20.000Z</time>
        <extensions>
          <ns3:TrackPointExtension>
            <ns3:hr>76</ns3:hr>
            <ns3:cad>0</ns3:cad>
          </ns3:TrackPointExtension>
        </extensions>
      </trkpt>
      <trkpt lat="43.772681169211864471435546875" lon="1.56392927281558513641357421875">
        <ele>158.1999969482421875</ele>
        <time>2026-08-13T06:49:21.000Z</time>
        <extensions>
          <ns3:TrackPointExtension>
            <ns3:hr>75</ns3:hr>
            <ns3:cad>0</ns3:cad>
          </ns3:TrackPointExtension>
        </extensions>
      </trkpt>
      <trkpt lat="43.77268661744892597198486328125" lon="1.563930697739124298095703125">
        <ele>158.1999969482421875</ele>
        <time>2026-08-13T06:49:22.000Z</time>
        <extensions>
          <ns3:TrackPointExtension>
            <ns3:hr>76</ns3:hr>
            <ns3:cad>0</ns3:cad>
          </ns3:TrackPointExtension>
        </extensions>
      </trkpt>
      <trkpt lat="43.77269231714308261871337890625" lon="1.56393430195748805999755859375">
        <ele>158.1999969482421875</ele>
        <time>2026-08-13T06:49:23.000Z</time>
        <extensions>
          <ns3:TrackPointExtension>
            <ns3:hr>76</ns3:hr>
            <ns3:cad>0</ns3:cad>
          </ns3:TrackPointExtension>
        </extensions>
      </trkpt>
      <trkpt lat="43.77269919030368328094482421875" lon="1.563940085470676422119140625">
        <ele>158</ele>
        <time>2026-08-13T06:49:24.000Z</time>
        <extensions>
          <ns3:TrackPointExtension>
            <ns3:hr>75</ns3:hr>
            <ns3:cad>0</ns3:cad>
          </ns3:TrackPointExtension>
        </extensions>
      </trkpt>
      <trkpt lat="43.772706650197505950927734375" lon="1.56394419260323047637939453125">
        <ele>158</ele>
        <time>2026-08-13T06:49:25.000Z</time>
        <extensions>
          <ns3:TrackPointExtension>
            <ns3:hr>75</ns3:hr>
            <ns3:cad>0</ns3:cad>
          </ns3:TrackPointExtension>
        </extensions>
      </trkpt>
      <trkpt lat="43.7727138586342334747314453125" lon="1.56394754536449909210205078125">
        <ele>157.8000030517578125</ele>
        <time>2026-08-13T06:49:26.000Z</time>
        <extensions>
          <ns3:TrackPointExtension>
            <ns3:hr>75</ns3:hr>
            <ns3:cad>0</ns3:cad>
          </ns3:TrackPointExtension>
        </extensions>
      </trkpt>
      <trkpt lat="43.77272014506161212921142578125" lon="1.56395106576383113861083984375">
        <ele>157.8000030517578125</ele>
        <time>2026-08-13T06:49:27.000Z</time>
        <extensions>
          <ns3:TrackPointExtension>
            <ns3:hr>75</ns3:hr>
            <ns3:cad>0</ns3:cad>
          </ns3:TrackPointExtension>
        </extensions>
      </trkpt>
      <trkpt lat="43.772723414003849029541015625" lon="1.5639560110867023468017578125">
        <ele>157.8000030517578125</ele>
        <time>2026-08-13T06:49:28.000Z</time>
        <extensions>
          <ns3:TrackPointExtension>
            <ns3:hr>75</ns3:hr>
            <ns3:cad>0</ns3:cad>
          </ns3:TrackPointExtension>
        </extensions>
      </trkpt>
      <trkpt lat="43.77272835932672023773193359375" lon="1.56395877711474895477294921875">
        <ele>157.600006103515625</ele>
        <time>2026-08-13T06:49:29.000Z</time>
        <extensions>
          <ns3:TrackPointExtension>
            <ns3:hr>75</ns3:hr>
            <ns3:cad>0</ns3:cad>
          </ns3:TrackPointExtension>
        </extensions>
      </trkpt>
      <trkpt lat="43.7727326340973377227783203125" lon="1.5639623813331127166748046875">
        <ele>157.600006103515625</ele>
        <time>2026-08-13T06:49:30.000Z</time>
        <extensions>
          <ns3:TrackPointExtension>
            <ns3:hr>74</ns3:hr>
            <ns3:cad>0</ns3:cad>
          </ns3:TrackPointExtension>
        </extensions>
      </trkpt>
      <trkpt lat="43.772737495601177215576171875" lon="1.56396766193211078643798828125">
        <ele>157.399993896484375</ele>
        <time>2026-08-13T06:49:31.000Z</time>
        <extensions>
          <ns3:TrackPointExtension>
            <ns3:hr>75</ns3:hr>
            <ns3:cad>0</ns3:cad>
          </ns3:TrackPointExtension>
        </extensions>
      </trkpt>
      <trkpt lat="43.7727410160005092620849609375" lon="1.5639737807214260101318359375">
        <ele>157.399993896484375</ele>
        <time>2026-08-13T06:49:32.000Z</time>
        <extensions>
          <ns3:TrackPointExtension>
            <ns3:hr>75</ns3:hr>
            <ns3:cad>0</ns3:cad>
          </ns3:TrackPointExtension>
        </extensions>
      </trkpt>
      <trkpt lat="43.77274227328598499298095703125" lon="1.563980989158153533935546875">
        <ele>157.399993896484375</ele>
        <time>2026-08-13T06:49:33.000Z</time>
        <extensions>
          <ns3:TrackPointExtension>
            <ns3:hr>75</ns3:hr>
            <ns3:cad>0</ns3:cad>
          </ns3:TrackPointExtension>
        </extensions>
      </trkpt>
      <trkpt lat="43.772741854190826416015625" lon="1.56399079598486423492431640625">
        <ele>157.399993896484375</ele>
        <time>2026-08-13T06:49:34.000Z</time>
        <extensions>
          <ns3:TrackPointExtension>
            <ns3:hr>74</ns3:hr>
            <ns3:cad>0</ns3:cad>
          </ns3:TrackPointExtension>
        </extensions>
      </trkpt>
      <trkpt lat="43.77274227328598499298095703125" lon="1.56400186009705066680908203125">
        <ele>157.1999969482421875</ele>
        <time>2026-08-13T06:49:35.000Z</time>
        <extensions>
          <ns3:TrackPointExtension>
            <ns3:hr>75</ns3:hr>
            <ns3:cad>0</ns3:cad>
          </ns3:TrackPointExtension>
        </extensions>
      </trkpt>
      <trkpt lat="43.7727433629333972930908203125" lon="1.56401610933244228363037109375">
        <ele>157.1999969482421875</ele>
        <time>2026-08-13T06:49:36.000Z</time>
        <extensions>
          <ns3:TrackPointExtension>
            <ns3:hr>75</ns3:hr>
            <ns3:cad>0</ns3:cad>
          </ns3:TrackPointExtension>
        </extensions>
      </trkpt>
      <trkpt lat="43.77274210564792156219482421875" lon="1.56402625143527984619140625">
        <ele>157.1999969482421875</ele>
        <time>2026-08-13T06:49:37.000Z</time>
        <extensions>
          <ns3:TrackPointExtension>
            <ns3:hr>74</ns3:hr>
            <ns3:cad>78</ns3:cad>
          </ns3:TrackPointExtension>
        </extensions>
      </trkpt>
      <trkpt lat="43.772740177810192108154296875" lon="1.5640348009765148162841796875">
        <ele>157</ele>
        <time>2026-08-13T06:49:38.000Z</time>
        <extensions>
          <ns3:TrackPointExtension>
            <ns3:hr>74</ns3:hr>
            <ns3:cad>78</ns3:cad>
          </ns3:TrackPointExtension>
        </extensions>
      </trkpt>
      <trkpt lat="43.772736154496669769287109375" lon="1.5640431828796863555908203125">
        <ele>157</ele>
        <time>2026-08-13T06:49:39.000Z</time>
        <extensions>
          <ns3:TrackPointExtension>
            <ns3:hr>74</ns3:hr>
            <ns3:cad>0</ns3:cad>
          </ns3:TrackPointExtension>
        </extensions>
      </trkpt>
      <trkpt lat="43.77273489721119403839111328125" lon="1.56405198387801647186279296875">
        <ele>157</ele>
        <time>2026-08-13T06:49:40.000Z</time>
        <extensions>
          <ns3:TrackPointExtension>
            <ns3:hr>74</ns3:hr>
            <ns3:cad>0</ns3:cad>
          </ns3:TrackPointExtension>
        </extensions>
      </trkpt>
      <trkpt lat="43.7727353163063526153564453125" lon="1.56405885703861713409423828125">
        <ele>157</ele>
        <time>2026-08-13T06:49:41.000Z</time>
        <extensions>
          <ns3:TrackPointExtension>
            <ns3:hr>74</ns3:hr>
            <ns3:cad>0</ns3:cad>
          </ns3:TrackPointExtension>
        </extensions>
      </trkpt>
      <trkpt lat="43.77273439429700374603271484375" lon="1.5640669874846935272216796875">
        <ele>157</ele>
        <time>2026-08-13T06:49:42.000Z</time>
        <extensions>
          <ns3:TrackPointExtension>
            <ns3:hr>75</ns3:hr>
            <ns3:cad>0</ns3:cad>
          </ns3:TrackPointExtension>
        </extensions>
      </trkpt>
      <trkpt lat="43.7727363221347332000732421875" lon="1.5640646405518054962158203125">
        <ele>156.8000030517578125</ele>
        <time>2026-08-13T06:49:43.000Z</time>
        <extensions>
          <ns3:TrackPointExtension>
            <ns3:hr>75</ns3:hr>
            <ns3:cad>0</ns3:cad>
          </ns3:TrackPointExtension>
        </extensions>
      </trkpt>
      <trkpt lat="43.772738836705684661865234375" lon="1.56406204216182231903076171875">
        <ele>156.8000030517578125</ele>
        <time>2026-08-13T06:49:44.000Z</time>
        <extensions>
          <ns3:TrackPointExtension>
            <ns3:hr>76</ns3:hr>
            <ns3:cad>0</ns3:cad>
          </ns3:TrackPointExtension>
        </extensions>
      </trkpt>
      <trkpt lat="43.77273690886795520782470703125" lon="1.564063467085361480712890625">
        <ele>156.8000030517578125</ele>
        <time>2026-08-13T06:49:45.000Z</time>
        <extensions>
          <ns3:TrackPointExtension>
            <ns3:hr>76</ns3:hr>
            <ns3:cad>0</ns3:cad>
          </ns3:TrackPointExtension>
        </extensions>
      </trkpt>
      <trkpt lat="43.77274042926728725433349609375" lon="1.5640646405518054962158203125">
        <ele>156.8000030517578125</ele>
        <time>2026-08-13T06:49:46.000Z</time>
        <extensions>
          <ns3:TrackPointExtension>
            <ns3:hr>76</ns3:hr>
            <ns3:cad>0</ns3:cad>
          </ns3:TrackPointExtension>
        </extensions>
      </trkpt>
      <trkpt lat="43.77275534905493259429931640625" lon="1.564064137637615203857421875">
        <ele>156.8000030517578125</ele>
        <time>2026-08-13T06:49:47.000Z</time>
        <extensions>
          <ns3:TrackPointExtension>
            <ns3:hr>75</ns3:hr>
            <ns3:cad>0</ns3:cad>
          </ns3:TrackPointExtension>
        </extensions>
      </trkpt>
      <trkpt lat="43.77276188693940639495849609375" lon="1.56406455673277378082275390625">
        <ele>156.8000030517578125</ele>
        <time>2026-08-13T06:49:48.000Z</time>
        <extensions>
          <ns3:TrackPointExtension>
            <ns3:hr>74</ns3:hr>
            <ns3:cad>0</ns3:cad>
          </ns3:TrackPointExtension>
        </extensions>
      </trkpt>
      <trkpt lat="43.7727691791951656341552734375" lon="1.56406204216182231903076171875">
        <ele>156.8000030517578125</ele>
        <time>2026-08-13T06:49:49.000Z</time>
        <extensions>
          <ns3:TrackPointExtension>
            <ns3:hr>74</ns3:hr>
            <ns3:cad>0</ns3:cad>
          </ns3:TrackPointExtension>
        </extensions>
      </trkpt>
      <trkpt lat="43.7727738730609416961669921875" lon="1.5640525706112384796142578125">
        <ele>156.600006103515625</ele>
        <time>2026-08-13T06:49:50.000Z</time>
        <extensions>
          <ns3:TrackPointExtension>
            <ns3:hr>73</ns3:hr>
            <ns3:cad>0</ns3:cad>
          </ns3:TrackPointExtension>
        </extensions>
      </trkpt>
      <trkpt lat="43.772781752049922943115234375" lon="1.56404460780322551727294921875">
        <ele>156.600006103515625</ele>
        <time>2026-08-13T06:49:51.000Z</time>
        <extensions>
          <ns3:TrackPointExtension>
            <ns3:hr>73</ns3:hr>
            <ns3:cad>0</ns3:cad>
          </ns3:TrackPointExtension>
        </extensions>
      </trkpt>
      <trkpt lat="43.77279021777212619781494140625" lon="1.56403857283294200897216796875">
        <ele>156.399993896484375</ele>
        <time>2026-08-13T06:49:52.000Z</time>
        <extensions>
          <ns3:TrackPointExtension>
            <ns3:hr>73</ns3:hr>
            <ns3:cad>0</ns3:cad>
          </ns3:TrackPointExtension>
        </extensions>
      </trkpt>
      <trkpt lat="43.77280161716043949127197265625" lon="1.56403991393744945526123046875">
        <ele>156.1999969482421875</ele>
        <time>2026-08-13T06:49:53.000Z</time>
        <extensions>
          <ns3:TrackPointExtension>
            <ns3:hr>73</ns3:hr>
            <ns3:cad>0</ns3:cad>
          </ns3:TrackPointExtension>
        </extensions>
      </trkpt>
      <trkpt lat="43.77281385473906993865966796875" lon="1.5640408359467983245849609375">
        <ele>156.1999969482421875</ele>
        <time>2026-08-13T06:49:54.000Z</time>
        <extensions>
          <ns3:TrackPointExtension>
            <ns3:hr>74</ns3:hr>
            <ns3:cad>50</ns3:cad>
          </ns3:TrackPointExtension>
        </extensions>
      </trkpt>
      <trkpt lat="43.772822320461273193359375" lon="1.56404192559421062469482421875">
        <ele>156.1999969482421875</ele>
        <time>2026-08-13T06:49:55.000Z</time>
        <extensions>
          <ns3:TrackPointExtension>
            <ns3:hr>75</ns3:hr>
            <ns3:cad>50</ns3:cad>
          </ns3:TrackPointExtension>
        </extensions>
      </trkpt>
      <trkpt lat="43.772831372916698455810546875" lon="1.56404444016516208648681640625">
        <ele>156</ele>
        <time>2026-08-13T06:49:56.000Z</time>
        <extensions>
          <ns3:TrackPointExtension>
            <ns3:hr>75</ns3:hr>
            <ns3:cad>51</ns3:cad>
          </ns3:TrackPointExtension>
        </extensions>
      </trkpt>
      <trkpt lat="43.77283849753439426422119140625" lon="1.5640468709170818328857421875">
        <ele>156</ele>
        <time>2026-08-13T06:49:57.000Z</time>
        <extensions>
          <ns3:TrackPointExtension>
            <ns3:hr>75</ns3:hr>
            <ns3:cad>51</ns3:cad>
          </ns3:TrackPointExtension>
        </extensions>
      </trkpt>
      <trkpt lat="43.7728466279804706573486328125" lon="1.564050726592540740966796875">
        <ele>155.8000030517578125</ele>
        <time>2026-08-13T06:49:58.000Z</time>
        <extensions>
          <ns3:TrackPointExtension>
            <ns3:hr>75</ns3:hr>
            <ns3:cad>51</ns3:cad>
          </ns3:TrackPointExtension>
        </extensions>
      </trkpt>
      <trkpt lat="43.772854842245578765869140625" lon="1.56405433081090450286865234375">
        <ele>155.8000030517578125</ele>
        <time>2026-08-13T06:49:59.000Z</time>
        <extensions>
          <ns3:TrackPointExtension>
            <ns3:hr>76</ns3:hr>
            <ns3:cad>51</ns3:cad>
          </ns3:TrackPointExtension>
        </extensions>
      </trkpt>
      <trkpt lat="43.77286146394908428192138671875" lon="1.56405801884829998016357421875">
        <ele>155.600006103515625</ele>
        <time>2026-08-13T06:50:00.000Z</time>
        <extensions>
          <ns3:TrackPointExtension>
            <ns3:hr>76</ns3:hr>
            <ns3:cad>49</ns3:cad>
          </ns3:TrackPointExtension>
        </extensions>
      </trkpt>
      <trkpt lat="43.7728690914809703826904296875" lon="1.5640622936189174652099609375">
        <ele>155.600006103515625</ele>
        <time>2026-08-13T06:50:01.000Z</time>
        <extensions>
          <ns3:TrackPointExtension>
            <ns3:hr>76</ns3:hr>
            <ns3:cad>49</ns3:cad>
          </ns3:TrackPointExtension>
        </extensions>
      </trkpt>
      <trkpt lat="43.77287789247930049896240234375" lon="1.5640783868730068206787109375">
        <ele>155.399993896484375</ele>
        <time>2026-08-13T06:50:02.000Z</time>
        <extensions>
          <ns3:TrackPointExtension>
            <ns3:hr>76</ns3:hr>
            <ns3:cad>49</ns3:cad>
          </ns3:TrackPointExtension>
        </extensions>
      </trkpt>
      <trkpt lat="43.7728858552873134613037109375" lon="1.56408316455781459808349609375">
        <ele>155.399993896484375</ele>
        <time>2026-08-13T06:50:03.000Z</time>
        <extensions>
          <ns3:TrackPointExtension>
            <ns3:hr>76</ns3:hr>
            <ns3:cad>0</ns3:cad>
          </ns3:TrackPointExtension>
        </extensions>
      </trkpt>
      <trkpt lat="43.772893063724040985107421875" lon="1.56408903189003467559814453125">
        <ele>155.1999969482421875</ele>
        <time>2026-08-13T06:50:04.000Z</time>
        <extensions>
          <ns3:TrackPointExtension>
            <ns3:hr>75</ns3:hr>
            <ns3:cad>0</ns3:cad>
          </ns3:TrackPointExtension>
        </extensions>
      </trkpt>
      <trkpt lat="43.77289884723722934722900390625" lon="1.56409288756549358367919921875">
        <ele>155.1999969482421875</ele>
        <time>2026-08-13T06:50:05.000Z</time>
        <extensions>
          <ns3:TrackPointExtension>
            <ns3:hr>76</ns3:hr>
            <ns3:cad>0</ns3:cad>
          </ns3:TrackPointExtension>
        </extensions>
      </trkpt>
      <trkpt lat="43.77290639095008373260498046875" lon="1.564096324145793914794921875">
        <ele>155</ele>
        <time>2026-08-13T06:50:06.000Z</time>
        <extensions>
          <ns3:TrackPointExtension>
            <ns3:hr>76</ns3:hr>
            <ns3:cad>0</ns3:cad>
          </ns3:TrackPointExtension>
        </extensions>
      </trkpt>
      <trkpt lat="43.77291284501552581787109375" lon="1.56409875489771366119384765625">
        <ele>155</ele>
        <time>2026-08-13T06:50:07.000Z</time>
        <extensions>
          <ns3:TrackPointExtension>
            <ns3:hr>76</ns3:hr>
            <ns3:cad>0</ns3:cad>
          </ns3:TrackPointExtension>
        </extensions>
      </trkpt>
      <trkpt lat="43.77291812561452388763427734375" lon="1.5641035325825214385986328125">
        <ele>154.8000030517578125</ele>
        <time>2026-08-13T06:50:08.000Z</time>
        <extensions>
          <ns3:TrackPointExtension>
            <ns3:hr>76</ns3:hr>
            <ns3:cad>41</ns3:cad>
          </ns3:TrackPointExtension>
        </extensions>
      </trkpt>
      <trkpt lat="43.77292198128998279571533203125" lon="1.56410680152475833892822265625">
        <ele>154.8000030517578125</ele>
        <time>2026-08-13T06:50:09.000Z</time>
        <extensions>
          <ns3:TrackPointExtension>
            <ns3:hr>77</ns3:hr>
            <ns3:cad>41</ns3:cad>
          </ns3:TrackPointExtension>
        </extensions>
      </trkpt>
      <trkpt lat="43.77292701043188571929931640625" lon="1.56410898081958293914794921875">
        <ele>154.600006103515625</ele>
        <time>2026-08-13T06:50:10.000Z</time>
        <extensions>
          <ns3:TrackPointExtension>
            <ns3:hr>77</ns3:hr>
            <ns3:cad>41</ns3:cad>
          </ns3:TrackPointExtension>
        </extensions>
      </trkpt>
      <trkpt lat="43.7729317881166934967041015625" lon="1.56411116011440753936767578125">
        <ele>154.600006103515625</ele>
        <time>2026-08-13T06:50:11.000Z</time>
        <extensions>
          <ns3:TrackPointExtension>
            <ns3:hr>77</ns3:hr>
            <ns3:cad>41</ns3:cad>
          </ns3:TrackPointExtension>
        </extensions>
      </trkpt>
      <trkpt lat="43.77293874509632587432861328125" lon="1.5641179494559764862060546875">
        <ele>154.600006103515625</ele>
        <time>2026-08-13T06:50:12.000Z</time>
        <extensions>
          <ns3:TrackPointExtension>
            <ns3:hr>77</ns3:hr>
            <ns3:cad>41</ns3:cad>
          </ns3:TrackPointExtension>
        </extensions>
      </trkpt>
      <trkpt lat="43.772947378456592559814453125" lon="1.564121805131435394287109375">
        <ele>154.399993896484375</ele>
        <time>2026-08-13T06:50:13.000Z</time>
        <extensions>
          <ns3:TrackPointExtension>
            <ns3:hr>76</ns3:hr>
            <ns3:cad>41</ns3:cad>
          </ns3:TrackPointExtension>
        </extensions>
      </trkpt>
      <trkpt lat="43.7729539163410663604736328125" lon="1.56412683427333831787109375">
        <ele>154.399993896484375</ele>
        <time>2026-08-13T06:50:14.000Z</time>
        <extensions>
          <ns3:TrackPointExtension>
            <ns3:hr>77</ns3:hr>
            <ns3:cad>41</ns3:cad>
          </ns3:TrackPointExtension>
        </extensions>
      </trkpt>
      <trkpt lat="43.772960789501667022705078125" lon="1.56413228251039981842041015625">
        <ele>154.1999969482421875</ele>
        <time>2026-08-13T06:50:15.000Z</time>
        <extensions>
          <ns3:TrackPointExtension>
            <ns3:hr>77</ns3:hr>
            <ns3:cad>41</ns3:cad>
          </ns3:TrackPointExtension>
        </extensions>
      </trkpt>
      <trkpt lat="43.772966824471950531005859375" lon="1.56413697637617588043212890625">
        <ele>154.1999969482421875</ele>
        <time>2026-08-13T06:50:16.000Z</time>
        <extensions>
          <ns3:TrackPointExtension>
            <ns3:hr>77</ns3:hr>
            <ns3:cad>41</ns3:cad>
          </ns3:TrackPointExtension>
        </extensions>
      </trkpt>
      <trkpt lat="43.7729750387370586395263671875" lon="1.56414267607033252716064453125">
        <ele>154</ele>
        <time>2026-08-13T06:50:17.000Z</time>
        <extensions>
          <ns3:TrackPointExtension>
            <ns3:hr>77</ns3:hr>
            <ns3:cad>0</ns3:cad>
          </ns3:TrackPointExtension>
        </extensions>
      </trkpt>
      <trkpt lat="43.77297998405992984771728515625" lon="1.56414837576448917388916015625">
        <ele>154</ele>
        <time>2026-08-13T06:50:18.000Z</time>
        <extensions>
          <ns3:TrackPointExtension>
            <ns3:hr>78</ns3:hr>
            <ns3:cad>0</ns3:cad>
          </ns3:TrackPointExtension>
        </extensions>
      </trkpt>
      <trkpt lat="43.77298736013472080230712890625" lon="1.56415139324963092803955078125">
        <ele>153.8000030517578125</ele>
        <time>2026-08-13T06:50:19.000Z</time>
        <extensions>
          <ns3:TrackPointExtension>
            <ns3:hr>78</ns3:hr>
            <ns3:cad>42</ns3:cad>
          </ns3:TrackPointExtension>
        </extensions>
      </trkpt>
      <trkpt lat="43.772994317114353179931640625" lon="1.56415340490639209747314453125">
        <ele>153.8000030517578125</ele>
        <time>2026-08-13T06:50:20.000Z</time>
        <extensions>
          <ns3:TrackPointExtension>
            <ns3:hr>78</ns3:hr>
            <ns3:cad>42</ns3:cad>
          </ns3:TrackPointExtension>
        </extensions>
      </trkpt>
      <trkpt lat="43.7730011902749538421630859375" lon="1.56415608711540699005126953125">
        <ele>153.600006103515625</ele>
        <time>2026-08-13T06:50:21.000Z</time>
        <extensions>
          <ns3:TrackPointExtension>
            <ns3:hr>79</ns3:hr>
            <ns3:cad>42</ns3:cad>
          </ns3:TrackPointExtension>
        </extensions>
      </trkpt>
      <trkpt lat="43.77300814725458621978759765625" lon="1.5641612000763416290283203125">
        <ele>153.600006103515625</ele>
        <time>2026-08-13T06:50:22.000Z</time>
        <extensions>
          <ns3:TrackPointExtension>
            <ns3:hr>79</ns3:hr>
            <ns3:cad>42</ns3:cad>
          </ns3:TrackPointExtension>
        </extensions>
      </trkpt>
      <trkpt lat="43.7730146013200283050537109375" lon="1.56416329555213451385498046875">
        <ele>153.600006103515625</ele>
        <time>2026-08-13T06:50:23.000Z</time>
        <extensions>
          <ns3:TrackPointExtension>
            <ns3:hr>78</ns3:hr>
            <ns3:cad>42</ns3:cad>
          </ns3:TrackPointExtension>
        </extensions>
      </trkpt>
      <trkpt lat="43.773023150861263275146484375" lon="1.56416614539921283721923828125">
        <ele>153.399993896484375</ele>
        <time>2026-08-13T06:50:24.000Z</time>
        <extensions>
          <ns3:TrackPointExtension>
            <ns3:hr>78</ns3:hr>
            <ns3:cad>43</ns3:cad>
          </ns3:TrackPointExtension>
        </extensions>
      </trkpt>
      <trkpt lat="43.77303027547895908355712890625" lon="1.5641709230840206146240234375">
        <ele>153.399993896484375</ele>
        <time>2026-08-13T06:50:25.000Z</time>
        <extensions>
          <ns3:TrackPointExtension>
            <ns3:hr>78</ns3:hr>
            <ns3:cad>43</ns3:cad>
          </ns3:TrackPointExtension>
        </extensions>
      </trkpt>
      <trkpt lat="43.77303664572536945343017578125" lon="1.56417804770171642303466796875">
        <ele>153.399993896484375</ele>
        <time>2026-08-13T06:50:26.000Z</time>
        <extensions>
          <ns3:TrackPointExtension>
            <ns3:hr>78</ns3:hr>
            <ns3:cad>43</ns3:cad>
          </ns3:TrackPointExtension>
        </extensions>
      </trkpt>
      <trkpt lat="43.77304251305758953094482421875" lon="1.56418181955814361572265625">
        <ele>153.1999969482421875</ele>
        <time>2026-08-13T06:50:27.000Z</time>
        <extensions>
          <ns3:TrackPointExtension>
            <ns3:hr>78</ns3:hr>
            <ns3:cad>43</ns3:cad>
          </ns3:TrackPointExtension>
        </extensions>
      </trkpt>
      <trkpt lat="43.7730467878282070159912109375" lon="1.56418575905263423919677734375">
        <ele>153.1999969482421875</ele>
        <time>2026-08-13T06:50:28.000Z</time>
        <extensions>
          <ns3:TrackPointExtension>
            <ns3:hr>79</ns3:hr>
            <ns3:cad>0</ns3:cad>
          </ns3:TrackPointExtension>
        </extensions>
      </trkpt>
      <trkpt lat="43.77305257134139537811279296875" lon="1.5641893632709980010986328125">
        <ele>153</ele>
        <time>2026-08-13T06:50:29.000Z</time>
        <extensions>
          <ns3:TrackPointExtension>
            <ns3:hr>79</ns3:hr>
            <ns3:cad>0</ns3:cad>
          </ns3:TrackPointExtension>
        </extensions>
      </trkpt>
      <trkpt lat="43.7730596959590911865234375" lon="1.56419162638485431671142578125">
        <ele>153</ele>
        <time>2026-08-13T06:50:30.000Z</time>
        <extensions>
          <ns3:TrackPointExtension>
            <ns3:hr>79</ns3:hr>
            <ns3:cad>0</ns3:cad>
          </ns3:TrackPointExtension>
        </extensions>
      </trkpt>
      <trkpt lat="43.77306598238646984100341796875" lon="1.56419657170772552490234375">
        <ele>152.8000030517578125</ele>
        <time>2026-08-13T06:50:31.000Z</time>
        <extensions>
          <ns3:TrackPointExtension>
            <ns3:hr>79</ns3:hr>
            <ns3:cad>0</ns3:cad>
          </ns3:TrackPointExtension>
        </extensions>
      </trkpt>
      <trkpt lat="43.77307302318513393402099609375" lon="1.56420185230672359466552734375">
        <ele>152.8000030517578125</ele>
        <time>2026-08-13T06:50:32.000Z</time>
        <extensions>
          <ns3:TrackPointExtension>
            <ns3:hr>78</ns3:hr>
            <ns3:cad>0</ns3:cad>
          </ns3:TrackPointExtension>
        </extensions>
      </trkpt>
      <trkpt lat="43.77307989634573459625244140625" lon="1.5642064623534679412841796875">
        <ele>152.600006103515625</ele>
        <time>2026-08-13T06:50:33.000Z</time>
        <extensions>
          <ns3:TrackPointExtension>
            <ns3:hr>78</ns3:hr>
            <ns3:cad>0</ns3:cad>
          </ns3:TrackPointExtension>
        </extensions>
      </trkpt>
      <trkpt lat="43.7730865180492401123046875" lon="1.56421006657183170318603515625">
        <ele>152.600006103515625</ele>
        <time>2026-08-13T06:50:34.000Z</time>
        <extensions>
          <ns3:TrackPointExtension>
            <ns3:hr>77</ns3:hr>
            <ns3:cad>0</ns3:cad>
          </ns3:TrackPointExtension>
        </extensions>
      </trkpt>
      <trkpt lat="43.77309431321918964385986328125" lon="1.56421543098986148834228515625">
        <ele>152.399993896484375</ele>
        <time>2026-08-13T06:50:35.000Z</time>
        <extensions>
          <ns3:TrackPointExtension>
            <ns3:hr>77</ns3:hr>
            <ns3:cad>0</ns3:cad>
          </ns3:TrackPointExtension>
        </extensions>
      </trkpt>
      <trkpt lat="43.773102276027202606201171875" lon="1.5642215497791767120361328125">
        <ele>152.399993896484375</ele>
        <time>2026-08-13T06:50:36.000Z</time>
        <extensions>
          <ns3:TrackPointExtension>
            <ns3:hr>77</ns3:hr>
            <ns3:cad>0</ns3:cad>
          </ns3:TrackPointExtension>
        </extensions>
      </trkpt>
      <trkpt lat="43.773109652101993560791015625" lon="1.56422565691173076629638671875">
        <ele>152.1999969482421875</ele>
        <time>2026-08-13T06:50:37.000Z</time>
        <extensions>
          <ns3:TrackPointExtension>
            <ns3:hr>77</ns3:hr>
            <ns3:cad>0</ns3:cad>
          </ns3:TrackPointExtension>
        </extensions>
      </trkpt>
      <trkpt lat="43.773118369281291961669921875" lon="1.5642295964062213897705078125">
        <ele>152.1999969482421875</ele>
        <time>2026-08-13T06:50:38.000Z</time>
        <extensions>
          <ns3:TrackPointExtension>
            <ns3:hr>78</ns3:hr>
            <ns3:cad>44</ns3:cad>
          </ns3:TrackPointExtension>
        </extensions>
      </trkpt>
      <trkpt lat="43.7731255777180194854736328125" lon="1.5642322786152362823486328125">
        <ele>152</ele>
        <time>2026-08-13T06:50:39.000Z</time>
        <extensions>
          <ns3:TrackPointExtension>
            <ns3:hr>77</ns3:hr>
            <ns3:cad>44</ns3:cad>
          </ns3:TrackPointExtension>
        </extensions>
      </trkpt>
      <trkpt lat="43.7731319479644298553466796875" lon="1.56423470936715602874755859375">
        <ele>152</ele>
        <time>2026-08-13T06:50:40.000Z</time>
        <extensions>
          <ns3:TrackPointExtension>
            <ns3:hr>77</ns3:hr>
            <ns3:cad>44</ns3:cad>
          </ns3:TrackPointExtension>
        </extensions>
      </trkpt>
      <trkpt lat="43.773139826953411102294921875" lon="1.5642369724810123443603515625">
        <ele>151.8000030517578125</ele>
        <time>2026-08-13T06:50:41.000Z</time>
        <extensions>
          <ns3:TrackPointExtension>
            <ns3:hr>77</ns3:hr>
            <ns3:cad>0</ns3:cad>
          </ns3:TrackPointExtension>
        </extensions>
      </trkpt>
      <trkpt lat="43.77314745448529720306396484375" lon="1.564240157604217529296875">
        <ele>151.8000030517578125</ele>
        <time>2026-08-13T06:50:42.000Z</time>
        <extensions>
          <ns3:TrackPointExtension>
            <ns3:hr>77</ns3:hr>
            <ns3:cad>0</ns3:cad>
          </ns3:TrackPointExtension>
        </extensions>
      </trkpt>
      <trkpt lat="43.773155249655246734619140625" lon="1.5642441809177398681640625">
        <ele>151.8000030517578125</ele>
        <time>2026-08-13T06:50:43.000Z</time>
        <extensions>
          <ns3:TrackPointExtension>
            <ns3:hr>77</ns3:hr>
            <ns3:cad>0</ns3:cad>
          </ns3:TrackPointExtension>
        </extensions>
      </trkpt>
      <trkpt lat="43.7731617875397205352783203125" lon="1.56424711458384990692138671875">
        <ele>151.600006103515625</ele>
        <time>2026-08-13T06:50:44.000Z</time>
        <extensions>
          <ns3:TrackPointExtension>
            <ns3:hr>76</ns3:hr>
            <ns3:cad>0</ns3:cad>
          </ns3:TrackPointExtension>
        </extensions>
      </trkpt>
      <trkpt lat="43.77316907979547977447509765625" lon="1.5642495453357696533203125">
        <ele>151.600006103515625</ele>
        <time>2026-08-13T06:50:45.000Z</time>
        <extensions>
          <ns3:TrackPointExtension>
            <ns3:hr>76</ns3:hr>
            <ns3:cad>0</ns3:cad>
          </ns3:TrackPointExtension>
        </extensions>
      </trkpt>
      <trkpt lat="43.77317477948963642120361328125" lon="1.56425281427800655364990234375">
        <ele>151.600006103515625</ele>
        <time>2026-08-13T06:50:46.000Z</time>
        <extensions>
          <ns3:TrackPointExtension>
            <ns3:hr>76</ns3:hr>
            <ns3:cad>42</ns3:cad>
          </ns3:TrackPointExtension>
        </extensions>
      </trkpt>
      <trkpt lat="43.773182071745395660400390625" lon="1.564257256686687469482421875">
        <ele>151.399993896484375</ele>
        <time>2026-08-13T06:50:47.000Z</time>
        <extensions>
          <ns3:TrackPointExtension>
            <ns3:hr>76</ns3:hr>
            <ns3:cad>42</ns3:cad>
          </ns3:TrackPointExtension>
        </extensions>
      </trkpt>
      <trkpt lat="43.77319036982953548431396484375" lon="1.5642567537724971771240234375">
        <ele>151.399993896484375</ele>
        <time>2026-08-13T06:50:48.000Z</time>
        <extensions>
          <ns3:TrackPointExtension>
            <ns3:hr>77</ns3:hr>
            <ns3:cad>43</ns3:cad>
          </ns3:TrackPointExtension>
        </extensions>
      </trkpt>
      <trkpt lat="43.7731996737420558929443359375" lon="1.56425683759152889251708984375">
        <ele>151.1999969482421875</ele>
        <time>2026-08-13T06:50:49.000Z</time>
        <extensions>
          <ns3:TrackPointExtension>
            <ns3:hr>77</ns3:hr>
            <ns3:cad>43</ns3:cad>
          </ns3:TrackPointExtension>
        </extensions>
      </trkpt>
      <trkpt lat="43.77320495434105396270751953125" lon="1.56425884924829006195068359375">
        <ele>151.1999969482421875</ele>
        <time>2026-08-13T06:50:50.000Z</time>
        <extensions>
          <ns3:TrackPointExtension>
            <ns3:hr>76</ns3:hr>
            <ns3:cad>44</ns3:cad>
          </ns3:TrackPointExtension>
        </extensions>
      </trkpt>
      <trkpt lat="43.77321459352970123291015625" lon="1.56426421366631984710693359375">
        <ele>151</ele>
        <time>2026-08-13T06:50:51.000Z</time>
        <extensions>
          <ns3:TrackPointExtension>
            <ns3:hr>76</ns3:hr>
            <ns3:cad>0</ns3:cad>
          </ns3:TrackPointExtension>
        </extensions>
      </trkpt>
      <trkpt lat="43.77322087995707988739013671875" lon="1.56426656059920787811279296875">
        <ele>151</ele>
        <time>2026-08-13T06:50:52.000Z</time>
        <extensions>
          <ns3:TrackPointExtension>
            <ns3:hr>77</ns3:hr>
            <ns3:cad>45</ns3:cad>
          </ns3:TrackPointExtension>
        </extensions>
      </trkpt>
      <trkpt lat="43.7732281722128391265869140625" lon="1.5642681531608104705810546875">
        <ele>150.8000030517578125</ele>
        <time>2026-08-13T06:50:53.000Z</time>
        <extensions>
          <ns3:TrackPointExtension>
            <ns3:hr>77</ns3:hr>
            <ns3:cad>45</ns3:cad>
          </ns3:TrackPointExtension>
        </extensions>
      </trkpt>
      <trkpt lat="43.77323479391634464263916015625" lon="1.56427242793142795562744140625">
        <ele>150.600006103515625</ele>
        <time>2026-08-13T06:50:54.000Z</time>
        <extensions>
          <ns3:TrackPointExtension>
            <ns3:hr>77</ns3:hr>
            <ns3:cad>45</ns3:cad>
          </ns3:TrackPointExtension>
        </extensions>
      </trkpt>
      <trkpt lat="43.7732435949146747589111328125" lon="1.56427628360688686370849609375">
        <ele>150.600006103515625</ele>
        <time>2026-08-13T06:50:55.000Z</time>
        <extensions>
          <ns3:TrackPointExtension>
            <ns3:hr>76</ns3:hr>
            <ns3:cad>45</ns3:cad>
          </ns3:TrackPointExtension>
        </extensions>
      </trkpt>
      <trkpt lat="43.77325239591300487518310546875" lon="1.56428047455847263336181640625">
        <ele>150.399993896484375</ele>
        <time>2026-08-13T06:50:56.000Z</time>
        <extensions>
          <ns3:TrackPointExtension>
            <ns3:hr>76</ns3:hr>
            <ns3:cad>44</ns3:cad>
          </ns3:TrackPointExtension>
        </extensions>
      </trkpt>
      <trkpt lat="43.77326128073036670684814453125" lon="1.56428106129169464111328125">
        <ele>150.399993896484375</ele>
        <time>2026-08-13T06:50:57.000Z</time>
        <extensions>
          <ns3:TrackPointExtension>
            <ns3:hr>76</ns3:hr>
            <ns3:cad>44</ns3:cad>
          </ns3:TrackPointExtension>
        </extensions>
      </trkpt>
      <trkpt lat="43.77326882444322109222412109375" lon="1.564283072948455810546875">
        <ele>150.1999969482421875</ele>
        <time>2026-08-13T06:50:58.000Z</time>
        <extensions>
          <ns3:TrackPointExtension>
            <ns3:hr>76</ns3:hr>
            <ns3:cad>44</ns3:cad>
          </ns3:TrackPointExtension>
        </extensions>
      </trkpt>
      <trkpt lat="43.77326966263353824615478515625" lon="1.56429254449903964996337890625">
        <ele>150.1999969482421875</ele>
        <time>2026-08-13T06:50:59.000Z</time>
        <extensions>
          <ns3:TrackPointExtension>
            <ns3:hr>77</ns3:hr>
            <ns3:cad>44</ns3:cad>
          </ns3:TrackPointExtension>
        </extensions>
      </trkpt>
      <trkpt lat="43.7732741050422191619873046875" lon="1.56428776681423187255859375">
        <ele>150.1999969482421875</ele>
        <time>2026-08-13T06:51:00.000Z</time>
        <extensions>
          <ns3:TrackPointExtension>
            <ns3:hr>76</ns3:hr>
            <ns3:cad>44</ns3:cad>
          </ns3:TrackPointExtension>
        </extensions>
      </trkpt>
      <trkpt lat="43.77327787689864635467529296875" lon="1.5642808936536312103271484375">
        <ele>150</ele>
        <time>2026-08-13T06:51:01.000Z</time>
        <extensions>
          <ns3:TrackPointExtension>
            <ns3:hr>76</ns3:hr>
            <ns3:cad>44</ns3:cad>
          </ns3:TrackPointExtension>
        </extensions>
      </trkpt>
      <trkpt lat="43.773280642926692962646484375" lon="1.56428164802491664886474609375">
        <ele>150</ele>
        <time>2026-08-13T06:51:02.000Z</time>
        <extensions>
          <ns3:TrackPointExtension>
            <ns3:hr>77</ns3:hr>
            <ns3:cad>0</ns3:cad>
          </ns3:TrackPointExtension>
        </extensions>
      </trkpt>
      <trkpt lat="43.77328307367861270904541015625" lon="1.564285419881343841552734375">
        <ele>150</ele>
        <time>2026-08-13T06:51:03.000Z</time>
        <extensions>
          <ns3:TrackPointExtension>
            <ns3:hr>77</ns3:hr>
            <ns3:cad>0</ns3:cad>
          </ns3:TrackPointExtension>
        </extensions>
      </trkpt>
      <trkpt lat="43.7732855044305324554443359375" lon="1.56428466551005840301513671875">
        <ele>150</ele>
        <time>2026-08-13T06:51:04.000Z</time>
        <extensions>
          <ns3:TrackPointExtension>
            <ns3:hr>78</ns3:hr>
            <ns3:cad>0</ns3:cad>
          </ns3:TrackPointExtension>
        </extensions>
      </trkpt>
      <trkpt lat="43.773289360105991363525390625" lon="1.5642869286239147186279296875">
        <ele>150</ele>
        <time>2026-08-13T06:51:05.000Z</time>
        <extensions>
          <ns3:TrackPointExtension>
            <ns3:hr>78</ns3:hr>
            <ns3:cad>0</ns3:cad>
          </ns3:TrackPointExtension>
        </extensions>
      </trkpt>
      <trkpt lat="43.7732938863337039947509765625" lon="1.564290113747119903564453125">
        <ele>150</ele>
        <time>2026-08-13T06:51:06.000Z</time>
        <extensions>
          <ns3:TrackPointExtension>
            <ns3:hr>77</ns3:hr>
            <ns3:cad>0</ns3:cad>
          </ns3:TrackPointExtension>
        </extensions>
      </trkpt>
      <trkpt lat="43.77329950220882892608642578125" lon="1.56429053284227848052978515625">
        <ele>149.8000030517578125</ele>
        <time>2026-08-13T06:51:07.000Z</time>
        <extensions>
          <ns3:TrackPointExtension>
            <ns3:hr>77</ns3:hr>
            <ns3:cad>0</ns3:cad>
          </ns3:TrackPointExtension>
        </extensions>
      </trkpt>
      <trkpt lat="43.77330503426492214202880859375" lon="1.564290784299373626708984375">
        <ele>149.8000030517578125</ele>
        <time>2026-08-13T06:51:08.000Z</time>
        <extensions>
          <ns3:TrackPointExtension>
            <ns3:hr>77</ns3:hr>
            <ns3:cad>0</ns3:cad>
          </ns3:TrackPointExtension>
        </extensions>
      </trkpt>
      <trkpt lat="43.773311488330364227294921875" lon="1.564299166202545166015625">
        <ele>149.8000030517578125</ele>
        <time>2026-08-13T06:51:09.000Z</time>
        <extensions>
          <ns3:TrackPointExtension>
            <ns3:hr>76</ns3:hr>
            <ns3:cad>0</ns3:cad>
          </ns3:TrackPointExtension>
        </extensions>
      </trkpt>
      <trkpt lat="43.77331785857677459716796875" lon="1.56430226750671863555908203125">
        <ele>149.600006103515625</ele>
        <time>2026-08-13T06:51:10.000Z</time>
        <extensions>
          <ns3:TrackPointExtension>
            <ns3:hr>76</ns3:hr>
            <ns3:cad>0</ns3:cad>
          </ns3:TrackPointExtension>
        </extensions>
      </trkpt>
      <trkpt lat="43.77332364208996295928955078125" lon="1.56430595554411411285400390625">
        <ele>149.600006103515625</ele>
        <time>2026-08-13T06:51:11.000Z</time>
        <extensions>
          <ns3:TrackPointExtension>
            <ns3:hr>74</ns3:hr>
            <ns3:cad>0</ns3:cad>
          </ns3:TrackPointExtension>
        </extensions>
      </trkpt>
      <trkpt lat="43.773330934345722198486328125" lon="1.56431282870471477508544921875">
        <ele>149.399993896484375</ele>
        <time>2026-08-13T06:51:12.000Z</time>
        <extensions>
          <ns3:TrackPointExtension>
            <ns3:hr>74</ns3:hr>
            <ns3:cad>0</ns3:cad>
          </ns3:TrackPointExtension>
        </extensions>
      </trkpt>
      <trkpt lat="43.7733374722301959991455078125" lon="1.5643144212663173675537109375">
        <ele>149.399993896484375</ele>
        <time>2026-08-13T06:51:13.000Z</time>
        <extensions>
          <ns3:TrackPointExtension>
            <ns3:hr>75</ns3:hr>
            <ns3:cad>0</ns3:cad>
          </ns3:TrackPointExtension>
        </extensions>
      </trkpt>
      <trkpt lat="43.7733445130288600921630859375" lon="1.564316265285015106201171875">
        <ele>149.1999969482421875</ele>
        <time>2026-08-13T06:51:14.000Z</time>
        <extensions>
          <ns3:TrackPointExtension>
            <ns3:hr>75</ns3:hr>
            <ns3:cad>0</ns3:cad>
          </ns3:TrackPointExtension>
        </extensions>
      </trkpt>
      <trkpt lat="43.7733518891036510467529296875" lon="1.56431735493242740631103515625">
        <ele>149.1999969482421875</ele>
        <time>2026-08-13T06:51:15.000Z</time>
        <extensions>
          <ns3:TrackPointExtension>
            <ns3:hr>76</ns3:hr>
            <ns3:cad>0</ns3:cad>
          </ns3:TrackPointExtension>
        </extensions>
      </trkpt>
      <trkpt lat="43.77335867844521999359130859375" lon="1.5643187798559665679931640625">
        <ele>149</ele>
        <time>2026-08-13T06:51:16.000Z</time>
        <extensions>
          <ns3:TrackPointExtension>
            <ns3:hr>76</ns3:hr>
            <ns3:cad>0</ns3:cad>
          </ns3:TrackPointExtension>
        </extensions>
      </trkpt>
      <trkpt lat="43.77336454577744007110595703125" lon="1.56432263553142547607421875">
        <ele>149</ele>
        <time>2026-08-13T06:51:17.000Z</time>
        <extensions>
          <ns3:TrackPointExtension>
            <ns3:hr>77</ns3:hr>
            <ns3:cad>0</ns3:cad>
          </ns3:TrackPointExtension>
        </extensions>
      </trkpt>
      <trkpt lat="43.7733696587383747100830078125" lon="1.56432607211172580718994140625">
        <ele>148.8000030517578125</ele>
        <time>2026-08-13T06:51:18.000Z</time>
        <extensions>
          <ns3:TrackPointExtension>
            <ns3:hr>76</ns3:hr>
            <ns3:cad>0</ns3:cad>
          </ns3:TrackPointExtension>
        </extensions>
      </trkpt>
      <trkpt lat="43.773375861346721649169921875" lon="1.56432976014912128448486328125">
        <ele>148.8000030517578125</ele>
        <time>2026-08-13T06:51:19.000Z</time>
        <extensions>
          <ns3:TrackPointExtension>
            <ns3:hr>76</ns3:hr>
            <ns3:cad>0</ns3:cad>
          </ns3:TrackPointExtension>
        </extensions>
      </trkpt>
      <trkpt lat="43.77338097430765628814697265625" lon="1.56433470547199249267578125">
        <ele>148.8000030517578125</ele>
        <time>2026-08-13T06:51:20.000Z</time>
        <extensions>
          <ns3:TrackPointExtension>
            <ns3:hr>76</ns3:hr>
            <ns3:cad>0</ns3:cad>
          </ns3:TrackPointExtension>
        </extensions>
      </trkpt>
      <trkpt lat="43.77338667400181293487548828125" lon="1.5643378905951976776123046875">
        <ele>148.8000030517578125</ele>
        <time>2026-08-13T06:51:21.000Z</time>
        <extensions>
          <ns3:TrackPointExtension>
            <ns3:hr>76</ns3:hr>
            <ns3:cad>0</ns3:cad>
          </ns3:TrackPointExtension>
        </extensions>
      </trkpt>
      <trkpt lat="43.7733921222388744354248046875" lon="1.56434266828000545501708984375">
        <ele>148.600006103515625</ele>
        <time>2026-08-13T06:51:22.000Z</time>
        <extensions>
          <ns3:TrackPointExtension>
            <ns3:hr>75</ns3:hr>
            <ns3:cad>0</ns3:cad>
          </ns3:TrackPointExtension>
        </extensions>
      </trkpt>
      <trkpt lat="43.7733954750001430511474609375" lon="1.56434568576514720916748046875">
        <ele>148.600006103515625</ele>
        <time>2026-08-13T06:51:23.000Z</time>
        <extensions>
          <ns3:TrackPointExtension>
            <ns3:hr>74</ns3:hr>
            <ns3:cad>0</ns3:cad>
          </ns3:TrackPointExtension>
        </extensions>
      </trkpt>
      <trkpt lat="43.7733976542949676513671875" lon="1.56434409320354461669921875">
        <ele>148.600006103515625</ele>
        <time>2026-08-13T06:51:24.000Z</time>
        <extensions>
          <ns3:TrackPointExtension>
            <ns3:hr>73</ns3:hr>
            <ns3:cad>0</ns3:cad>
          </ns3:TrackPointExtension>
        </extensions>
      </trkpt>
      <trkpt lat="43.7733978219330310821533203125" lon="1.56434409320354461669921875">
        <ele>148.600006103515625</ele>
        <time>2026-08-13T06:51:25.000Z</time>
        <extensions>
          <ns3:TrackPointExtension>
            <ns3:hr>73</ns3:hr>
            <ns3:cad>0</ns3:cad>
          </ns3:TrackPointExtension>
        </extensions>
      </trkpt>
      <trkpt lat="43.773404024541378021240234375" lon="1.56434535048902034759521484375">
        <ele>148.399993896484375</ele>
        <time>2026-08-13T06:51:26.000Z</time>
        <extensions>
          <ns3:TrackPointExtension>
            <ns3:hr>73</ns3:hr>
            <ns3:cad>0</ns3:cad>
          </ns3:TrackPointExtension>
        </extensions>
      </trkpt>
      <trkpt lat="43.773408047854900360107421875" lon="1.564351134002208709716796875">
        <ele>148.399993896484375</ele>
        <time>2026-08-13T06:51:27.000Z</time>
        <extensions>
          <ns3:TrackPointExtension>
            <ns3:hr>74</ns3:hr>
            <ns3:cad>0</ns3:cad>
          </ns3:TrackPointExtension>
        </extensions>
      </trkpt>
      <trkpt lat="43.7734132446348667144775390625" lon="1.564351804554462432861328125">
        <ele>148.399993896484375</ele>
        <time>2026-08-13T06:51:28.000Z</time>
        <extensions>
          <ns3:TrackPointExtension>
            <ns3:hr>74</ns3:hr>
            <ns3:cad>0</ns3:cad>
          </ns3:TrackPointExtension>
        </extensions>
      </trkpt>
      <trkpt lat="43.773417770862579345703125" lon="1.5643576718866825103759765625">
        <ele>148.399993896484375</ele>
        <time>2026-08-13T06:51:29.000Z</time>
        <extensions>
          <ns3:TrackPointExtension>
            <ns3:hr>74</ns3:hr>
            <ns3:cad>0</ns3:cad>
          </ns3:TrackPointExtension>
        </extensions>
      </trkpt>
      <trkpt lat="43.7734233029186725616455078125" lon="1.564360521733760833740234375">
        <ele>148.399993896484375</ele>
        <time>2026-08-13T06:51:30.000Z</time>
        <extensions>
          <ns3:TrackPointExtension>
            <ns3:hr>73</ns3:hr>
            <ns3:cad>0</ns3:cad>
          </ns3:TrackPointExtension>
        </extensions>
      </trkpt>
      <trkpt lat="43.773426823318004608154296875" lon="1.5643657185137271881103515625">
        <ele>148.399993896484375</ele>
        <time>2026-08-13T06:51:31.000Z</time>
        <extensions>
          <ns3:TrackPointExtension>
            <ns3:hr>73</ns3:hr>
            <ns3:cad>0</ns3:cad>
          </ns3:TrackPointExtension>
        </extensions>
      </trkpt>
      <trkpt lat="43.77342523075640201568603515625" lon="1.56437451951205730438232421875">
        <ele>148.399993896484375</ele>
        <time>2026-08-13T06:51:32.000Z</time>
        <extensions>
          <ns3:TrackPointExtension>
            <ns3:hr>73</ns3:hr>
            <ns3:cad>0</ns3:cad>
          </ns3:TrackPointExtension>
        </extensions>
      </trkpt>
      <trkpt lat="43.77342590130865573883056640625" lon="1.56438432633876800537109375">
        <ele>148.399993896484375</ele>
        <time>2026-08-13T06:51:33.000Z</time>
        <extensions>
          <ns3:TrackPointExtension>
            <ns3:hr>73</ns3:hr>
            <ns3:cad>0</ns3:cad>
          </ns3:TrackPointExtension>
        </extensions>
      </trkpt>
      <trkpt lat="43.7734256498515605926513671875" lon="1.5643925406038761138916015625">
        <ele>148.399993896484375</ele>
        <time>2026-08-13T06:51:34.000Z</time>
        <extensions>
          <ns3:TrackPointExtension>
            <ns3:hr>73</ns3:hr>
            <ns3:cad>0</ns3:cad>
          </ns3:TrackPointExtension>
        </extensions>
      </trkpt>
      <trkpt lat="43.77342489548027515411376953125" lon="1.56440637074410915374755859375">
        <ele>148.399993896484375</ele>
        <time>2026-08-13T06:51:35.000Z</time>
        <extensions>
          <ns3:TrackPointExtension>
            <ns3:hr>73</ns3:hr>
            <ns3:cad>0</ns3:cad>
          </ns3:TrackPointExtension>
        </extensions>
      </trkpt>
      <trkpt lat="43.7734273262321949005126953125" lon="1.564416848123073577880859375">
        <ele>148.1999969482421875</ele>
        <time>2026-08-13T06:51:36.000Z</time>
        <extensions>
          <ns3:TrackPointExtension>
            <ns3:hr>72</ns3:hr>
            <ns3:cad>0</ns3:cad>
          </ns3:TrackPointExtension>
        </extensions>
      </trkpt>
      <trkpt lat="43.77342791296541690826416015625" lon="1.5644217096269130706787109375">
        <ele>148.1999969482421875</ele>
        <time>2026-08-13T06:51:37.000Z</time>
        <extensions>
          <ns3:TrackPointExtension>
            <ns3:hr>72</ns3:hr>
            <ns3:cad>0</ns3:cad>
          </ns3:TrackPointExtension>
        </extensions>
      </trkpt>
      <trkpt lat="43.77342380583286285400390625" lon="1.56442078761756420135498046875">
        <ele>148.1999969482421875</ele>
        <time>2026-08-13T06:51:38.000Z</time>
        <extensions>
          <ns3:TrackPointExtension>
            <ns3:hr>72</ns3:hr>
            <ns3:cad>0</ns3:cad>
          </ns3:TrackPointExtension>
        </extensions>
      </trkpt>
      <trkpt lat="43.77342112362384796142578125" lon="1.56441978178918361663818359375">
        <ele>148.1999969482421875</ele>
        <time>2026-08-13T06:51:39.000Z</time>
        <extensions>
          <ns3:TrackPointExtension>
            <ns3:hr>71</ns3:hr>
            <ns3:cad>0</ns3:cad>
          </ns3:TrackPointExtension>
        </extensions>
      </trkpt>
      <trkpt lat="43.77342405728995800018310546875" lon="1.5644217096269130706787109375">
        <ele>148.399993896484375</ele>
        <time>2026-08-13T06:51:40.000Z</time>
        <extensions>
          <ns3:TrackPointExtension>
            <ns3:hr>71</ns3:hr>
            <ns3:cad>0</ns3:cad>
          </ns3:TrackPointExtension>
        </extensions>
      </trkpt>
      <trkpt lat="43.77342388965189456939697265625" lon="1.56442246399819850921630859375">
        <ele>148.399993896484375</ele>
        <time>2026-08-13T06:51:41.000Z</time>
        <extensions>
          <ns3:TrackPointExtension>
            <ns3:hr>72</ns3:hr>
            <ns3:cad>0</ns3:cad>
          </ns3:TrackPointExtension>
        </extensions>
      </trkpt>
      <trkpt lat="43.77342724241316318511962890625" lon="1.56442548148334026336669921875">
        <ele>148.399993896484375</ele>
        <time>2026-08-13T06:51:42.000Z</time>
        <extensions>
          <ns3:TrackPointExtension>
            <ns3:hr>72</ns3:hr>
            <ns3:cad>0</ns3:cad>
          </ns3:TrackPointExtension>
        </extensions>
      </trkpt>
      <trkpt lat="43.7734303437173366546630859375" lon="1.56443319283425807952880859375">
        <ele>148.399993896484375</ele>
        <time>2026-08-13T06:51:43.000Z</time>
        <extensions>
          <ns3:TrackPointExtension>
            <ns3:hr>72</ns3:hr>
            <ns3:cad>0</ns3:cad>
          </ns3:TrackPointExtension>
        </extensions>
      </trkpt>
      <trkpt lat="43.773423135280609130859375" lon="1.56442866660654544830322265625">
        <ele>148.399993896484375</ele>
        <time>2026-08-13T06:51:44.000Z</time>
        <extensions>
          <ns3:TrackPointExtension>
            <ns3:hr>72</ns3:hr>
            <ns3:cad>0</ns3:cad>
          </ns3:TrackPointExtension>
        </extensions>
      </trkpt>
      <trkpt lat="43.77341919578611850738525390625" lon="1.5644223801791667938232421875">
        <ele>148.399993896484375</ele>
        <time>2026-08-13T06:51:45.000Z</time>
        <extensions>
          <ns3:TrackPointExtension>
            <ns3:hr>72</ns3:hr>
            <ns3:cad>0</ns3:cad>
          </ns3:TrackPointExtension>
        </extensions>
      </trkpt>
      <trkpt lat="43.7734202854335308074951171875" lon="1.56441777013242244720458984375">
        <ele>148.399993896484375</ele>
        <time>2026-08-13T06:51:46.000Z</time>
        <extensions>
          <ns3:TrackPointExtension>
            <ns3:hr>72</ns3:hr>
            <ns3:cad>0</ns3:cad>
          </ns3:TrackPointExtension>
        </extensions>
      </trkpt>
      <trkpt lat="43.77341718412935733795166015625" lon="1.5644213743507862091064453125">
        <ele>148.399993896484375</ele>
        <time>2026-08-13T06:51:47.000Z</time>
        <extensions>
          <ns3:TrackPointExtension>
            <ns3:hr>72</ns3:hr>
            <ns3:cad>0</ns3:cad>
          </ns3:TrackPointExtension>
        </extensions>
      </trkpt>
      <trkpt lat="43.77341584302484989166259765625" lon="1.5644227154552936553955078125">
        <ele>148.399993896484375</ele>
        <time>2026-08-13T06:51:48.000Z</time>
        <extensions>
          <ns3:TrackPointExtension>
            <ns3:hr>72</ns3:hr>
            <ns3:cad>0</ns3:cad>
          </ns3:TrackPointExtension>
        </extensions>
      </trkpt>
      <trkpt lat="43.77341601066291332244873046875" lon="1.56442581675946712493896484375">
        <ele>148.399993896484375</ele>
        <time>2026-08-13T06:51:49.000Z</time>
        <extensions>
          <ns3:TrackPointExtension>
            <ns3:hr>72</ns3:hr>
            <ns3:cad>0</ns3:cad>
          </ns3:TrackPointExtension>
        </extensions>
      </trkpt>
      <trkpt lat="43.7734142504632472991943359375" lon="1.5644250623881816864013671875">
        <ele>148.399993896484375</ele>
        <time>2026-08-13T06:51:50.000Z</time>
        <extensions>
          <ns3:TrackPointExtension>
            <ns3:hr>72</ns3:hr>
            <ns3:cad>0</ns3:cad>
          </ns3:TrackPointExtension>
        </extensions>
      </trkpt>
      <trkpt lat="43.7734152562916278839111328125" lon="1.564426906406879425048828125">
        <ele>148.399993896484375</ele>
        <time>2026-08-13T06:51:51.000Z</time>
        <extensions>
          <ns3:TrackPointExtension>
            <ns3:hr>73</ns3:hr>
            <ns3:cad>0</ns3:cad>
          </ns3:TrackPointExtension>
        </extensions>
      </trkpt>
      <trkpt lat="43.7734135799109935760498046875" lon="1.56442531384527683258056640625">
        <ele>148.399993896484375</ele>
        <time>2026-08-13T06:51:52.000Z</time>
        <extensions>
          <ns3:TrackPointExtension>
            <ns3:hr>73</ns3:hr>
            <ns3:cad>0</ns3:cad>
          </ns3:TrackPointExtension>
        </extensions>
      </trkpt>
      <trkpt lat="43.77341282553970813751220703125" lon="1.5644237212836742401123046875">
        <ele>148.1999969482421875</ele>
        <time>2026-08-13T06:51:53.000Z</time>
        <extensions>
          <ns3:TrackPointExtension>
            <ns3:hr>73</ns3:hr>
            <ns3:cad>0</ns3:cad>
          </ns3:TrackPointExtension>
        </extensions>
      </trkpt>
      <trkpt lat="43.7734122388064861297607421875" lon="1.56441693194210529327392578125">
        <ele>148.1999969482421875</ele>
        <time>2026-08-13T06:51:54.000Z</time>
        <extensions>
          <ns3:TrackPointExtension>
            <ns3:hr>72</ns3:hr>
            <ns3:cad>0</ns3:cad>
          </ns3:TrackPointExtension>
        </extensions>
      </trkpt>
      <trkpt lat="43.7734135799109935760498046875" lon="1.56441559083759784698486328125">
        <ele>148.1999969482421875</ele>
        <time>2026-08-13T06:51:55.000Z</time>
        <extensions>
          <ns3:TrackPointExtension>
            <ns3:hr>72</ns3:hr>
            <ns3:cad>0</ns3:cad>
          </ns3:TrackPointExtension>
        </extensions>
      </trkpt>
      <trkpt lat="43.77341433428227901458740234375" lon="1.56441240571439266204833984375">
        <ele>148.1999969482421875</ele>
        <time>2026-08-13T06:51:56.000Z</time>
        <extensions>
          <ns3:TrackPointExtension>
            <ns3:hr>72</ns3:hr>
            <ns3:cad>0</ns3:cad>
          </ns3:TrackPointExtension>
        </extensions>
      </trkpt>
      <trkpt lat="43.773414082825183868408203125" lon="1.5644082985818386077880859375">
        <ele>148.1999969482421875</ele>
        <time>2026-08-13T06:51:57.000Z</time>
        <extensions>
          <ns3:TrackPointExtension>
            <ns3:hr>72</ns3:hr>
            <ns3:cad>0</ns3:cad>
          </ns3:TrackPointExtension>
        </extensions>
      </trkpt>
      <trkpt lat="43.77341249026358127593994140625" lon="1.56440368853509426116943359375">
        <ele>148.1999969482421875</ele>
        <time>2026-08-13T06:51:58.000Z</time>
        <extensions>
          <ns3:TrackPointExtension>
            <ns3:hr>73</ns3:hr>
            <ns3:cad>0</ns3:cad>
          </ns3:TrackPointExtension>
        </extensions>
      </trkpt>
      <trkpt lat="43.7734110653400421142578125" lon="1.56440184451639652252197265625">
        <ele>148.1999969482421875</ele>
        <time>2026-08-13T06:51:59.000Z</time>
        <extensions>
          <ns3:TrackPointExtension>
            <ns3:hr>72</ns3:hr>
            <ns3:cad>0</ns3:cad>
          </ns3:TrackPointExtension>
        </extensions>
      </trkpt>
      <trkpt lat="43.77340980805456638336181640625" lon="1.56439748592674732208251953125">
        <ele>148.1999969482421875</ele>
        <time>2026-08-13T06:52:00.000Z</time>
        <extensions>
          <ns3:TrackPointExtension>
            <ns3:hr>71</ns3:hr>
            <ns3:cad>0</ns3:cad>
          </ns3:TrackPointExtension>
        </extensions>
      </trkpt>
      <trkpt lat="43.77340905368328094482421875" lon="1.5643962286412715911865234375">
        <ele>148.1999969482421875</ele>
        <time>2026-08-13T06:52:01.000Z</time>
        <extensions>
          <ns3:TrackPointExtension>
            <ns3:hr>71</ns3:hr>
            <ns3:cad>0</ns3:cad>
          </ns3:TrackPointExtension>
        </extensions>
      </trkpt>
      <trkpt lat="43.7734082154929637908935546875" lon="1.56439614482223987579345703125">
        <ele>148.1999969482421875</ele>
        <time>2026-08-13T06:52:02.000Z</time>
        <extensions>
          <ns3:TrackPointExtension>
            <ns3:hr>71</ns3:hr>
            <ns3:cad>0</ns3:cad>
          </ns3:TrackPointExtension>
        </extensions>
      </trkpt>
      <trkpt lat="43.7734085507690906524658203125" lon="1.56439505517482757568359375">
        <ele>148.399993896484375</ele>
        <time>2026-08-13T06:52:03.000Z</time>
        <extensions>
          <ns3:TrackPointExtension>
            <ns3:hr>70</ns3:hr>
            <ns3:cad>0</ns3:cad>
          </ns3:TrackPointExtension>
        </extensions>
      </trkpt>
      <trkpt lat="43.77340762875974178314208984375" lon="1.564399413764476776123046875">
        <ele>148.399993896484375</ele>
        <time>2026-08-13T06:52:04.000Z</time>
        <extensions>
          <ns3:TrackPointExtension>
            <ns3:hr>71</ns3:hr>
            <ns3:cad>0</ns3:cad>
          </ns3:TrackPointExtension>
        </extensions>
      </trkpt>
      <trkpt lat="43.77340746112167835235595703125" lon="1.5644024312496185302734375">
        <ele>148.600006103515625</ele>
        <time>2026-08-13T06:52:05.000Z</time>
        <extensions>
          <ns3:TrackPointExtension>
            <ns3:hr>71</ns3:hr>
            <ns3:cad>0</ns3:cad>
          </ns3:TrackPointExtension>
        </extensions>
      </trkpt>
      <trkpt lat="43.7734083831310272216796875" lon="1.5644056163728237152099609375">
        <ele>148.600006103515625</ele>
        <time>2026-08-13T06:52:06.000Z</time>
        <extensions>
          <ns3:TrackPointExtension>
            <ns3:hr>71</ns3:hr>
            <ns3:cad>0</ns3:cad>
          </ns3:TrackPointExtension>
        </extensions>
      </trkpt>
      <trkpt lat="43.77340863458812236785888671875" lon="1.56440444290637969970703125">
        <ele>148.8000030517578125</ele>
        <time>2026-08-13T06:52:07.000Z</time>
        <extensions>
          <ns3:TrackPointExtension>
            <ns3:hr>70</ns3:hr>
            <ns3:cad>0</ns3:cad>
          </ns3:TrackPointExtension>
        </extensions>
      </trkpt>
      <trkpt lat="43.7734072096645832061767578125" lon="1.5644032694399356842041015625">
        <ele>148.8000030517578125</ele>
        <time>2026-08-13T06:52:08.000Z</time>
        <extensions>
          <ns3:TrackPointExtension>
            <ns3:hr>70</ns3:hr>
            <ns3:cad>0</ns3:cad>
          </ns3:TrackPointExtension>
        </extensions>
      </trkpt>
      <trkpt lat="43.77340561710298061370849609375" lon="1.56439949758350849151611328125">
        <ele>148.600006103515625</ele>
        <time>2026-08-13T06:52:09.000Z</time>
        <extensions>
          <ns3:TrackPointExtension>
            <ns3:hr>70</ns3:hr>
            <ns3:cad>0</ns3:cad>
          </ns3:TrackPointExtension>
        </extensions>
      </trkpt>
      <trkpt lat="43.773404695093631744384765625" lon="1.5643970668315887451171875">
        <ele>148.600006103515625</ele>
        <time>2026-08-13T06:52:10.000Z</time>
        <extensions>
          <ns3:TrackPointExtension>
            <ns3:hr>69</ns3:hr>
            <ns3:cad>0</ns3:cad>
          </ns3:TrackPointExtension>
        </extensions>
      </trkpt>
      <trkpt lat="43.77340561710298061370849609375" lon="1.564401425421237945556640625">
        <ele>148.600006103515625</ele>
        <time>2026-08-13T06:52:11.000Z</time>
        <extensions>
          <ns3:TrackPointExtension>
            <ns3:hr>69</ns3:hr>
            <ns3:cad>0</ns3:cad>
          </ns3:TrackPointExtension>
        </extensions>
      </trkpt>
      <trkpt lat="43.7734045274555683135986328125" lon="1.56440519727766513824462890625">
        <ele>148.600006103515625</ele>
        <time>2026-08-13T06:52:12.000Z</time>
        <extensions>
          <ns3:TrackPointExtension>
            <ns3:hr>69</ns3:hr>
            <ns3:cad>0</ns3:cad>
          </ns3:TrackPointExtension>
        </extensions>
      </trkpt>
      <trkpt lat="43.77340578474104404449462890625" lon="1.56440670602023601531982421875">
        <ele>148.600006103515625</ele>
        <time>2026-08-13T06:52:13.000Z</time>
        <extensions>
          <ns3:TrackPointExtension>
            <ns3:hr>69</ns3:hr>
            <ns3:cad>0</ns3:cad>
          </ns3:TrackPointExtension>
        </extensions>
      </trkpt>
      <trkpt lat="43.77340746112167835235595703125" lon="1.56440586782991886138916015625">
        <ele>148.600006103515625</ele>
        <time>2026-08-13T06:52:14.000Z</time>
        <extensions>
          <ns3:TrackPointExtension>
            <ns3:hr>68</ns3:hr>
            <ns3:cad>0</ns3:cad>
          </ns3:TrackPointExtension>
        </extensions>
      </trkpt>
      <trkpt lat="43.7734083831310272216796875" lon="1.56440637074410915374755859375">
        <ele>148.8000030517578125</ele>
        <time>2026-08-13T06:52:15.000Z</time>
        <extensions>
          <ns3:TrackPointExtension>
            <ns3:hr>67</ns3:hr>
            <ns3:cad>0</ns3:cad>
          </ns3:TrackPointExtension>
        </extensions>
      </trkpt>
      <trkpt lat="43.773407042026519775390625" lon="1.5644062869250774383544921875">
        <ele>148.8000030517578125</ele>
        <time>2026-08-13T06:52:16.000Z</time>
        <extensions>
          <ns3:TrackPointExtension>
            <ns3:hr>66</ns3:hr>
            <ns3:cad>0</ns3:cad>
          </ns3:TrackPointExtension>
        </extensions>
      </trkpt>
      <trkpt lat="43.77340863458812236785888671875" lon="1.56440603546798229217529296875">
        <ele>148.600006103515625</ele>
        <time>2026-08-13T06:52:17.000Z</time>
        <extensions>
          <ns3:TrackPointExtension>
            <ns3:hr>66</ns3:hr>
            <ns3:cad>0</ns3:cad>
          </ns3:TrackPointExtension>
        </extensions>
      </trkpt>
      <trkpt lat="43.77340972423553466796875" lon="1.56440578401088714599609375">
        <ele>148.8000030517578125</ele>
        <time>2026-08-13T06:52:18.000Z</time>
        <extensions>
          <ns3:TrackPointExtension>
            <ns3:hr>66</ns3:hr>
            <ns3:cad>0</ns3:cad>
          </ns3:TrackPointExtension>
        </extensions>
      </trkpt>
      <trkpt lat="43.7734075449407100677490234375" lon="1.564403437077999114990234375">
        <ele>148.600006103515625</ele>
        <time>2026-08-13T06:52:19.000Z</time>
        <extensions>
          <ns3:TrackPointExtension>
            <ns3:hr>67</ns3:hr>
            <ns3:cad>0</ns3:cad>
          </ns3:TrackPointExtension>
        </extensions>
      </trkpt>
      <trkpt lat="43.77340377308428287506103515625" lon="1.56440234743058681488037109375">
        <ele>148.600006103515625</ele>
        <time>2026-08-13T06:52:20.000Z</time>
        <extensions>
          <ns3:TrackPointExtension>
            <ns3:hr>67</ns3:hr>
            <ns3:cad>0</ns3:cad>
          </ns3:TrackPointExtension>
        </extensions>
      </trkpt>
      <trkpt lat="43.77340427599847316741943359375" lon="1.56439111568033695220947265625">
        <ele>148.600006103515625</ele>
        <time>2026-08-13T06:52:21.000Z</time>
        <extensions>
          <ns3:TrackPointExtension>
            <ns3:hr>66</ns3:hr>
            <ns3:cad>0</ns3:cad>
          </ns3:TrackPointExtension>
        </extensions>
      </trkpt>
      <trkpt lat="43.7734112329781055450439453125" lon="1.56439564190804958343505859375">
        <ele>148.600006103515625</ele>
        <time>2026-08-13T06:52:22.000Z</time>
        <extensions>
          <ns3:TrackPointExtension>
            <ns3:hr>64</ns3:hr>
            <ns3:cad>0</ns3:cad>
          </ns3:TrackPointExtension>
        </extensions>
      </trkpt>
      <trkpt lat="43.77342053689062595367431640625" lon="1.56439715065062046051025390625">
        <ele>148.600006103515625</ele>
        <time>2026-08-13T06:52:23.000Z</time>
        <extensions>
          <ns3:TrackPointExtension>
            <ns3:hr>62</ns3:hr>
            <ns3:cad>0</ns3:cad>
          </ns3:TrackPointExtension>
        </extensions>
      </trkpt>
      <trkpt lat="43.77343394793570041656494140625" lon="1.5644069574773311614990234375">
        <ele>148.600006103515625</ele>
        <time>2026-08-13T06:52:24.000Z</time>
        <extensions>
          <ns3:TrackPointExtension>
            <ns3:hr>60</ns3:hr>
            <ns3:cad>0</ns3:cad>
          </ns3:TrackPointExtension>
        </extensions>
      </trkpt>
      <trkpt lat="43.7734472751617431640625" lon="1.5644220449030399322509765625">
        <ele>148.399993896484375</ele>
        <time>2026-08-13T06:52:25.000Z</time>
        <extensions>
          <ns3:TrackPointExtension>
            <ns3:hr>59</ns3:hr>
            <ns3:cad>53</ns3:cad>
          </ns3:TrackPointExtension>
        </extensions>
      </trkpt>
      <trkpt lat="43.7734538130462169647216796875" lon="1.56443528831005096435546875">
        <ele>148.399993896484375</ele>
        <time>2026-08-13T06:52:26.000Z</time>
        <extensions>
          <ns3:TrackPointExtension>
            <ns3:hr>59</ns3:hr>
            <ns3:cad>53</ns3:cad>
          </ns3:TrackPointExtension>
        </extensions>
      </trkpt>
      <trkpt lat="43.77346001565456390380859375" lon="1.56444375403225421905517578125">
        <ele>148.399993896484375</ele>
        <time>2026-08-13T06:52:27.000Z</time>
        <extensions>
          <ns3:TrackPointExtension>
            <ns3:hr>60</ns3:hr>
            <ns3:cad>53</ns3:cad>
          </ns3:TrackPointExtension>
        </extensions>
      </trkpt>
      <trkpt lat="43.77346311695873737335205078125" lon="1.56444828025996685028076171875">
        <ele>148.399993896484375</ele>
        <time>2026-08-13T06:52:28.000Z</time>
        <extensions>
          <ns3:TrackPointExtension>
            <ns3:hr>61</ns3:hr>
            <ns3:cad>51</ns3:cad>
          </ns3:TrackPointExtension>
        </extensions>
      </trkpt>
      <trkpt lat="43.7734645418822765350341796875" lon="1.5644502080976963043212890625">
        <ele>148.399993896484375</ele>
        <time>2026-08-13T06:52:29.000Z</time>
        <extensions>
          <ns3:TrackPointExtension>
            <ns3:hr>62</ns3:hr>
            <ns3:cad>0</ns3:cad>
          </ns3:TrackPointExtension>
        </extensions>
      </trkpt>
      <trkpt lat="43.77346529625356197357177734375" lon="1.56445314176380634307861328125">
        <ele>148.399993896484375</ele>
        <time>2026-08-13T06:52:30.000Z</time>
        <extensions>
          <ns3:TrackPointExtension>
            <ns3:hr>62</ns3:hr>
            <ns3:cad>0</ns3:cad>
          </ns3:TrackPointExtension>
        </extensions>
      </trkpt>
      <trkpt lat="43.7734645418822765350341796875" lon="1.5644533932209014892578125">
        <ele>148.600006103515625</ele>
        <time>2026-08-13T06:52:31.000Z</time>
        <extensions>
          <ns3:TrackPointExtension>
            <ns3:hr>62</ns3:hr>
            <ns3:cad>0</ns3:cad>
          </ns3:TrackPointExtension>
        </extensions>
      </trkpt>
      <trkpt lat="43.7734689004719257354736328125" lon="1.56445967964828014373779296875">
        <ele>148.600006103515625</ele>
        <time>2026-08-13T06:52:32.000Z</time>
        <extensions>
          <ns3:TrackPointExtension>
            <ns3:hr>71</ns3:hr>
            <ns3:cad>0</ns3:cad>
          </ns3:TrackPointExtension>
        </extensions>
      </trkpt>
      <trkpt lat="43.77347468398511409759521484375" lon="1.56446839682757854461669921875">
        <ele>148.399993896484375</ele>
        <time>2026-08-13T06:52:33.000Z</time>
        <extensions>
          <ns3:TrackPointExtension>
            <ns3:hr>75</ns3:hr>
            <ns3:cad>0</ns3:cad>
          </ns3:TrackPointExtension>
        </extensions>
      </trkpt>
      <trkpt lat="43.77347745001316070556640625" lon="1.56447979621589183807373046875">
        <ele>148.399993896484375</ele>
        <time>2026-08-13T06:52:34.000Z</time>
        <extensions>
          <ns3:TrackPointExtension>
            <ns3:hr>76</ns3:hr>
            <ns3:cad>0</ns3:cad>
          </ns3:TrackPointExtension>
        </extensions>
      </trkpt>
      <trkpt lat="43.77347904257476329803466796875" lon="1.564485244452953338623046875">
        <ele>148.399993896484375</ele>
        <time>2026-08-13T06:52:35.000Z</time>
        <extensions>
          <ns3:TrackPointExtension>
            <ns3:hr>76</ns3:hr>
            <ns3:cad>0</ns3:cad>
          </ns3:TrackPointExtension>
        </extensions>
      </trkpt>
      <trkpt lat="43.77348105423152446746826171875" lon="1.56448759138584136962890625">
        <ele>148.399993896484375</ele>
        <time>2026-08-13T06:52:36.000Z</time>
        <extensions>
          <ns3:TrackPointExtension>
            <ns3:hr>75</ns3:hr>
            <ns3:cad>0</ns3:cad>
          </ns3:TrackPointExtension>
        </extensions>
      </trkpt>
      <trkpt lat="43.77348239533603191375732421875" lon="1.56448616646230220794677734375">
        <ele>148.399993896484375</ele>
        <time>2026-08-13T06:52:37.000Z</time>
        <extensions>
          <ns3:TrackPointExtension>
            <ns3:hr>74</ns3:hr>
            <ns3:cad>0</ns3:cad>
          </ns3:TrackPointExtension>
        </extensions>
      </trkpt>
      <trkpt lat="43.77348356880247592926025390625" lon="1.5644854120910167694091796875">
        <ele>148.399993896484375</ele>
        <time>2026-08-13T06:52:38.000Z</time>
        <extensions>
          <ns3:TrackPointExtension>
            <ns3:hr>73</ns3:hr>
            <ns3:cad>0</ns3:cad>
          </ns3:TrackPointExtension>
        </extensions>
      </trkpt>
      <trkpt lat="43.77348926849663257598876953125" lon="1.56447912566363811492919921875">
        <ele>148.399993896484375</ele>
        <time>2026-08-13T06:52:39.000Z</time>
        <extensions>
          <ns3:TrackPointExtension>
            <ns3:hr>74</ns3:hr>
            <ns3:cad>0</ns3:cad>
          </ns3:TrackPointExtension>
        </extensions>
      </trkpt>
      <trkpt lat="43.773497231304645538330078125" lon="1.56447376124560832977294921875">
        <ele>148.399993896484375</ele>
        <time>2026-08-13T06:52:40.000Z</time>
        <extensions>
          <ns3:TrackPointExtension>
            <ns3:hr>74</ns3:hr>
            <ns3:cad>0</ns3:cad>
          </ns3:TrackPointExtension>
        </extensions>
      </trkpt>
      <trkpt lat="43.7735118158161640167236328125" lon="1.56447309069335460662841796875">
        <ele>148.399993896484375</ele>
        <time>2026-08-13T06:52:41.000Z</time>
        <extensions>
          <ns3:TrackPointExtension>
            <ns3:hr>74</ns3:hr>
            <ns3:cad>0</ns3:cad>
          </ns3:TrackPointExtension>
        </extensions>
      </trkpt>
      <trkpt lat="43.77352380193769931793212890625" lon="1.56447015702724456787109375">
        <ele>148.399993896484375</ele>
        <time>2026-08-13T06:52:42.000Z</time>
        <extensions>
          <ns3:TrackPointExtension>
            <ns3:hr>73</ns3:hr>
            <ns3:cad>0</ns3:cad>
          </ns3:TrackPointExtension>
        </extensions>
      </trkpt>
      <trkpt lat="43.7735383026301860809326171875" lon="1.56446973793208599090576171875">
        <ele>148.1999969482421875</ele>
        <time>2026-08-13T06:52:43.000Z</time>
        <extensions>
          <ns3:TrackPointExtension>
            <ns3:hr>73</ns3:hr>
            <ns3:cad>0</ns3:cad>
          </ns3:TrackPointExtension>
        </extensions>
      </trkpt>
      <trkpt lat="43.77355162985622882843017578125" lon="1.5644683130085468292236328125">
        <ele>148.1999969482421875</ele>
        <time>2026-08-13T06:52:44.000Z</time>
        <extensions>
          <ns3:TrackPointExtension>
            <ns3:hr>73</ns3:hr>
            <ns3:cad>0</ns3:cad>
          </ns3:TrackPointExtension>
        </extensions>
      </trkpt>
      <trkpt lat="43.773567639291286468505859375" lon="1.56447158195078372955322265625">
        <ele>148</ele>
        <time>2026-08-13T06:52:45.000Z</time>
        <extensions>
          <ns3:TrackPointExtension>
            <ns3:hr>72</ns3:hr>
            <ns3:cad>55</ns3:cad>
          </ns3:TrackPointExtension>
        </extensions>
      </trkpt>
      <trkpt lat="43.7735835649073123931884765625" lon="1.5644750185310840606689453125">
        <ele>147.8000030517578125</ele>
        <time>2026-08-13T06:52:46.000Z</time>
        <extensions>
          <ns3:TrackPointExtension>
            <ns3:hr>73</ns3:hr>
            <ns3:cad>57</ns3:cad>
          </ns3:TrackPointExtension>
        </extensions>
      </trkpt>
      <trkpt lat="43.77359739504754543304443359375" lon="1.56447946093976497650146484375">
        <ele>147.600006103515625</ele>
        <time>2026-08-13T06:52:47.000Z</time>
        <extensions>
          <ns3:TrackPointExtension>
            <ns3:hr>73</ns3:hr>
            <ns3:cad>57</ns3:cad>
          </ns3:TrackPointExtension>
        </extensions>
      </trkpt>
      <trkpt lat="43.77360912971198558807373046875" lon="1.5644850768148899078369140625">
        <ele>147.600006103515625</ele>
        <time>2026-08-13T06:52:48.000Z</time>
        <extensions>
          <ns3:TrackPointExtension>
            <ns3:hr>74</ns3:hr>
            <ns3:cad>57</ns3:cad>
          </ns3:TrackPointExtension>
        </extensions>
      </trkpt>
      <trkpt lat="43.7736113928258419036865234375" lon="1.564484573900699615478515625">
        <ele>147.600006103515625</ele>
        <time>2026-08-13T06:52:49.000Z</time>
        <extensions>
          <ns3:TrackPointExtension>
            <ns3:hr>75</ns3:hr>
            <ns3:cad>57</ns3:cad>
          </ns3:TrackPointExtension>
        </extensions>
      </trkpt>
      <trkpt lat="43.77361047081649303436279296875" lon="1.5644827298820018768310546875">
        <ele>147.600006103515625</ele>
        <time>2026-08-13T06:52:50.000Z</time>
        <extensions>
          <ns3:TrackPointExtension>
            <ns3:hr>75</ns3:hr>
            <ns3:cad>0</ns3:cad>
          </ns3:TrackPointExtension>
        </extensions>
      </trkpt>
      <trkpt lat="43.773609884083271026611328125" lon="1.56448180787265300750732421875">
        <ele>147.600006103515625</ele>
        <time>2026-08-13T06:52:51.000Z</time>
        <extensions>
          <ns3:TrackPointExtension>
            <ns3:hr>76</ns3:hr>
            <ns3:cad>0</ns3:cad>
          </ns3:TrackPointExtension>
        </extensions>
      </trkpt>
      <trkpt lat="43.77360980026423931121826171875" lon="1.5644820593297481536865234375">
        <ele>147.8000030517578125</ele>
        <time>2026-08-13T06:52:52.000Z</time>
        <extensions>
          <ns3:TrackPointExtension>
            <ns3:hr>76</ns3:hr>
            <ns3:cad>0</ns3:cad>
          </ns3:TrackPointExtension>
        </extensions>
      </trkpt>
      <trkpt lat="43.77360980026423931121826171875" lon="1.5644820593297481536865234375">
        <ele>147.8000030517578125</ele>
        <time>2026-08-13T06:52:53.000Z</time>
        <extensions>
          <ns3:TrackPointExtension>
            <ns3:hr>77</ns3:hr>
            <ns3:cad>0</ns3:cad>
          </ns3:TrackPointExtension>
        </extensions>
      </trkpt>
      <trkpt lat="43.7736097164452075958251953125" lon="1.56448231078684329986572265625">
        <ele>147.8000030517578125</ele>
        <time>2026-08-13T06:52:54.000Z</time>
        <extensions>
          <ns3:TrackPointExtension>
            <ns3:hr>78</ns3:hr>
            <ns3:cad>0</ns3:cad>
          </ns3:TrackPointExtension>
        </extensions>
      </trkpt>
      <trkpt lat="43.77361030317842960357666015625" lon="1.564487256109714508056640625">
        <ele>147.8000030517578125</ele>
        <time>2026-08-13T06:52:55.000Z</time>
        <extensions>
          <ns3:TrackPointExtension>
            <ns3:hr>78</ns3:hr>
            <ns3:cad>0</ns3:cad>
          </ns3:TrackPointExtension>
        </extensions>
      </trkpt>
      <trkpt lat="43.77361281774938106536865234375" lon="1.5644914470613002777099609375">
        <ele>147.8000030517578125</ele>
        <time>2026-08-13T06:52:56.000Z</time>
        <extensions>
          <ns3:TrackPointExtension>
            <ns3:hr>77</ns3:hr>
            <ns3:cad>0</ns3:cad>
          </ns3:TrackPointExtension>
        </extensions>
      </trkpt>
      <trkpt lat="43.773614577949047088623046875" lon="1.5644931234419345855712890625">
        <ele>147.600006103515625</ele>
        <time>2026-08-13T06:52:57.000Z</time>
        <extensions>
          <ns3:TrackPointExtension>
            <ns3:hr>75</ns3:hr>
            <ns3:cad>0</ns3:cad>
          </ns3:TrackPointExtension>
        </extensions>
      </trkpt>
      <trkpt lat="43.77360980026423931121826171875" lon="1.5644820593297481536865234375">
        <ele>147.600006103515625</ele>
        <time>2026-08-13T06:52:58.000Z</time>
        <extensions>
          <ns3:TrackPointExtension>
            <ns3:hr>73</ns3:hr>
            <ns3:cad>0</ns3:cad>
          </ns3:TrackPointExtension>
        </extensions>
      </trkpt>
      <trkpt lat="43.77360980026423931121826171875" lon="1.5644820593297481536865234375">
        <ele>147.600006103515625</ele>
        <time>2026-08-13T06:52:59.000Z</time>
        <extensions>
          <ns3:TrackPointExtension>
            <ns3:hr>70</ns3:hr>
            <ns3:cad>0</ns3:cad>
          </ns3:TrackPointExtension>
        </extensions>
      </trkpt>
      <trkpt lat="43.77361617051064968109130859375" lon="1.5644904412329196929931640625">
        <ele>147.600006103515625</ele>
        <time>2026-08-13T06:53:00.000Z</time>
        <extensions>
          <ns3:TrackPointExtension>
            <ns3:hr>69</ns3:hr>
            <ns3:cad>0</ns3:cad>
          </ns3:TrackPointExtension>
        </extensions>
      </trkpt>
      <trkpt lat="43.773625977337360382080078125" lon="1.56450008042156696319580078125">
        <ele>147.600006103515625</ele>
        <time>2026-08-13T06:53:01.000Z</time>
        <extensions>
          <ns3:TrackPointExtension>
            <ns3:hr>70</ns3:hr>
            <ns3:cad>0</ns3:cad>
          </ns3:TrackPointExtension>
        </extensions>
      </trkpt>
      <trkpt lat="43.77363360486924648284912109375" lon="1.56451952643692493438720703125">
        <ele>147.399993896484375</ele>
        <time>2026-08-13T06:53:02.000Z</time>
        <extensions>
          <ns3:TrackPointExtension>
            <ns3:hr>70</ns3:hr>
            <ns3:cad>0</ns3:cad>
          </ns3:TrackPointExtension>
        </extensions>
      </trkpt>
      <trkpt lat="43.77364148385822772979736328125" lon="1.56454266048967838287353515625">
        <ele>147.399993896484375</ele>
        <time>2026-08-13T06:53:03.000Z</time>
        <extensions>
          <ns3:TrackPointExtension>
            <ns3:hr>71</ns3:hr>
            <ns3:cad>0</ns3:cad>
          </ns3:TrackPointExtension>
        </extensions>
      </trkpt>
      <trkpt lat="43.77364533953368663787841796875" lon="1.56456043012440204620361328125">
        <ele>147.1999969482421875</ele>
        <time>2026-08-13T06:53:04.000Z</time>
        <extensions>
          <ns3:TrackPointExtension>
            <ns3:hr>71</ns3:hr>
            <ns3:cad>0</ns3:cad>
          </ns3:TrackPointExtension>
        </extensions>
      </trkpt>
      <trkpt lat="43.77363913692533969879150390625" lon="1.56457350589334964752197265625">
        <ele>147.1999969482421875</ele>
        <time>2026-08-13T06:53:05.000Z</time>
        <extensions>
          <ns3:TrackPointExtension>
            <ns3:hr>71</ns3:hr>
            <ns3:cad>0</ns3:cad>
          </ns3:TrackPointExtension>
        </extensions>
      </trkpt>
      <trkpt lat="43.773637712001800537109375" lon="1.5645782835781574249267578125">
        <ele>147.1999969482421875</ele>
        <time>2026-08-13T06:53:06.000Z</time>
        <extensions>
          <ns3:TrackPointExtension>
            <ns3:hr>70</ns3:hr>
            <ns3:cad>0</ns3:cad>
          </ns3:TrackPointExtension>
        </extensions>
      </trkpt>
      <trkpt lat="43.773637712001800537109375" lon="1.56457970850169658660888671875">
        <ele>147.1999969482421875</ele>
        <time>2026-08-13T06:53:07.000Z</time>
        <extensions>
          <ns3:TrackPointExtension>
            <ns3:hr>71</ns3:hr>
            <ns3:cad>0</ns3:cad>
          </ns3:TrackPointExtension>
        </extensions>
      </trkpt>
      <trkpt lat="43.773637712001800537109375" lon="1.56457970850169658660888671875">
        <ele>147.399993896484375</ele>
        <time>2026-08-13T06:53:08.000Z</time>
        <extensions>
          <ns3:TrackPointExtension>
            <ns3:hr>72</ns3:hr>
            <ns3:cad>0</ns3:cad>
          </ns3:TrackPointExtension>
        </extensions>
      </trkpt>
      <trkpt lat="43.773637712001800537109375" lon="1.56457970850169658660888671875">
        <ele>147.399993896484375</ele>
        <time>2026-08-13T06:53:09.000Z</time>
        <extensions>
          <ns3:TrackPointExtension>
            <ns3:hr>73</ns3:hr>
            <ns3:cad>0</ns3:cad>
          </ns3:TrackPointExtension>
        </extensions>
      </trkpt>
      <trkpt lat="43.773637712001800537109375" lon="1.56457970850169658660888671875">
        <ele>147.600006103515625</ele>
        <time>2026-08-13T06:53:10.000Z</time>
        <extensions>
          <ns3:TrackPointExtension>
            <ns3:hr>75</ns3:hr>
            <ns3:cad>0</ns3:cad>
          </ns3:TrackPointExtension>
        </extensions>
      </trkpt>
      <trkpt lat="43.773637712001800537109375" lon="1.56457970850169658660888671875">
        <ele>147.600006103515625</ele>
        <time>2026-08-13T06:53:11.000Z</time>
        <extensions>
          <ns3:TrackPointExtension>
            <ns3:hr>76</ns3:hr>
            <ns3:cad>0</ns3:cad>
          </ns3:TrackPointExtension>
        </extensions>
      </trkpt>
      <trkpt lat="43.773637712001800537109375" lon="1.56457970850169658660888671875">
        <ele>147.600006103515625</ele>
        <time>2026-08-13T06:53:12.000Z</time>
        <extensions>
          <ns3:TrackPointExtension>
            <ns3:hr>79</ns3:hr>
            <ns3:cad>0</ns3:cad>
          </ns3:TrackPointExtension>
        </extensions>
      </trkpt>
      <trkpt lat="43.773637712001800537109375" lon="1.56457970850169658660888671875">
        <ele>147.600006103515625</ele>
        <time>2026-08-13T06:53:13.000Z</time>
        <extensions>
          <ns3:TrackPointExtension>
            <ns3:hr>82</ns3:hr>
            <ns3:cad>0</ns3:cad>
          </ns3:TrackPointExtension>
        </extensions>
      </trkpt>
      <trkpt lat="43.773637712001800537109375" lon="1.56457970850169658660888671875">
        <ele>147.600006103515625</ele>
        <time>2026-08-13T06:53:14.000Z</time>
        <extensions>
          <ns3:TrackPointExtension>
            <ns3:hr>82</ns3:hr>
            <ns3:cad>0</ns3:cad>
          </ns3:TrackPointExtension>
        </extensions>
      </trkpt>
      <trkpt lat="43.7736378796398639678955078125" lon="1.5645809657871723175048828125">
        <ele>147.600006103515625</ele>
        <time>2026-08-13T06:53:15.000Z</time>
        <extensions>
          <ns3:TrackPointExtension>
            <ns3:hr>82</ns3:hr>
            <ns3:cad>0</ns3:cad>
          </ns3:TrackPointExtension>
        </extensions>
      </trkpt>
      <trkpt lat="43.7736419029533863067626953125" lon="1.56458775512874126434326171875">
        <ele>147.600006103515625</ele>
        <time>2026-08-13T06:53:16.000Z</time>
        <extensions>
          <ns3:TrackPointExtension>
            <ns3:hr>82</ns3:hr>
            <ns3:cad>0</ns3:cad>
          </ns3:TrackPointExtension>
        </extensions>
      </trkpt>
      <trkpt lat="43.773637712001800537109375" lon="1.56457970850169658660888671875">
        <ele>147.399993896484375</ele>
        <time>2026-08-13T06:53:17.000Z</time>
        <extensions>
          <ns3:TrackPointExtension>
            <ns3:hr>81</ns3:hr>
            <ns3:cad>0</ns3:cad>
          </ns3:TrackPointExtension>
        </extensions>
      </trkpt>
      <trkpt lat="43.773637712001800537109375" lon="1.56457970850169658660888671875">
        <ele>147.399993896484375</ele>
        <time>2026-08-13T06:53:18.000Z</time>
        <extensions>
          <ns3:TrackPointExtension>
            <ns3:hr>75</ns3:hr>
            <ns3:cad>0</ns3:cad>
          </ns3:TrackPointExtension>
        </extensions>
      </trkpt>
      <trkpt lat="43.773637712001800537109375" lon="1.56457970850169658660888671875">
        <ele>147.399993896484375</ele>
        <time>2026-08-13T06:53:19.000Z</time>
        <extensions>
          <ns3:TrackPointExtension>
            <ns3:hr>74</ns3:hr>
            <ns3:cad>0</ns3:cad>
          </ns3:TrackPointExtension>
        </extensions>
      </trkpt>
      <trkpt lat="43.773637712001800537109375" lon="1.56457970850169658660888671875">
        <ele>147.399993896484375</ele>
        <time>2026-08-13T06:53:20.000Z</time>
        <extensions>
          <ns3:TrackPointExtension>
            <ns3:hr>74</ns3:hr>
            <ns3:cad>0</ns3:cad>
          </ns3:TrackPointExtension>
        </extensions>
      </trkpt>
      <trkpt lat="43.773637712001800537109375" lon="1.56457970850169658660888671875">
        <ele>147.399993896484375</ele>
        <time>2026-08-13T06:53:21.000Z</time>
        <extensions>
          <ns3:TrackPointExtension>
            <ns3:hr>74</ns3:hr>
            <ns3:cad>0</ns3:cad>
          </ns3:TrackPointExtension>
        </extensions>
      </trkpt>
      <trkpt lat="43.773637712001800537109375" lon="1.56457970850169658660888671875">
        <ele>147.399993896484375</ele>
        <time>2026-08-13T06:53:22.000Z</time>
        <extensions>
          <ns3:TrackPointExtension>
            <ns3:hr>74</ns3:hr>
            <ns3:cad>0</ns3:cad>
          </ns3:TrackPointExtension>
        </extensions>
      </trkpt>
      <trkpt lat="43.773637712001800537109375" lon="1.56457970850169658660888671875">
        <ele>147.399993896484375</ele>
        <time>2026-08-13T06:53:23.000Z</time>
        <extensions>
          <ns3:TrackPointExtension>
            <ns3:hr>76</ns3:hr>
            <ns3:cad>0</ns3:cad>
          </ns3:TrackPointExtension>
        </extensions>
      </trkpt>
      <trkpt lat="43.77364466898143291473388671875" lon="1.56458674930036067962646484375">
        <ele>147.399993896484375</ele>
        <time>2026-08-13T06:53:24.000Z</time>
        <extensions>
          <ns3:TrackPointExtension>
            <ns3:hr>80</ns3:hr>
            <ns3:cad>0</ns3:cad>
          </ns3:TrackPointExtension>
        </extensions>
      </trkpt>
      <trkpt lat="43.7736546434462070465087890625" lon="1.5645923651754856109619140625">
        <ele>147.399993896484375</ele>
        <time>2026-08-13T06:53:25.000Z</time>
        <extensions>
          <ns3:TrackPointExtension>
            <ns3:hr>82</ns3:hr>
            <ns3:cad>0</ns3:cad>
          </ns3:TrackPointExtension>
        </extensions>
      </trkpt>
      <trkpt lat="43.77366595901548862457275390625" lon="1.564599908888339996337890625">
        <ele>147.1999969482421875</ele>
        <time>2026-08-13T06:53:26.000Z</time>
        <extensions>
          <ns3:TrackPointExtension>
            <ns3:hr>82</ns3:hr>
            <ns3:cad>0</ns3:cad>
          </ns3:TrackPointExtension>
        </extensions>
      </trkpt>
      <trkpt lat="43.773675598204135894775390625" lon="1.5646077878773212432861328125">
        <ele>147</ele>
        <time>2026-08-13T06:53:27.000Z</time>
        <extensions>
          <ns3:TrackPointExtension>
            <ns3:hr>81</ns3:hr>
            <ns3:cad>0</ns3:cad>
          </ns3:TrackPointExtension>
        </extensions>
      </trkpt>
      <trkpt lat="43.77368741668760776519775390625" lon="1.56461843289434909820556640625">
        <ele>146.8000030517578125</ele>
        <time>2026-08-13T06:53:28.000Z</time>
        <extensions>
          <ns3:TrackPointExtension>
            <ns3:hr>80</ns3:hr>
            <ns3:cad>0</ns3:cad>
          </ns3:TrackPointExtension>
        </extensions>
      </trkpt>
      <trkpt lat="43.77369965426623821258544921875" lon="1.56462782062590122222900390625">
        <ele>146.600006103515625</ele>
        <time>2026-08-13T06:53:29.000Z</time>
        <extensions>
          <ns3:TrackPointExtension>
            <ns3:hr>79</ns3:hr>
            <ns3:cad>0</ns3:cad>
          </ns3:TrackPointExtension>
        </extensions>
      </trkpt>
      <trkpt lat="43.77371239475905895233154296875" lon="1.5646384656429290771484375">
        <ele>146.600006103515625</ele>
        <time>2026-08-13T06:53:30.000Z</time>
        <extensions>
          <ns3:TrackPointExtension>
            <ns3:hr>79</ns3:hr>
            <ns3:cad>0</ns3:cad>
          </ns3:TrackPointExtension>
        </extensions>
      </trkpt>
      <trkpt lat="43.7737223692238330841064453125" lon="1.5646486915647983551025390625">
        <ele>146.600006103515625</ele>
        <time>2026-08-13T06:53:31.000Z</time>
        <extensions>
          <ns3:TrackPointExtension>
            <ns3:hr>79</ns3:hr>
            <ns3:cad>55</ns3:cad>
          </ns3:TrackPointExtension>
        </extensions>
      </trkpt>
      <trkpt lat="43.77373368479311466217041015625" lon="1.56465967185795307159423828125">
        <ele>146.600006103515625</ele>
        <time>2026-08-13T06:53:32.000Z</time>
        <extensions>
          <ns3:TrackPointExtension>
            <ns3:hr>80</ns3:hr>
            <ns3:cad>55</ns3:cad>
          </ns3:TrackPointExtension>
        </extensions>
      </trkpt>
      <trkpt lat="43.7737481854856014251708984375" lon="1.56467291526496410369873046875">
        <ele>146.600006103515625</ele>
        <time>2026-08-13T06:53:33.000Z</time>
        <extensions>
          <ns3:TrackPointExtension>
            <ns3:hr>80</ns3:hr>
            <ns3:cad>55</ns3:cad>
          </ns3:TrackPointExtension>
        </extensions>
      </trkpt>
      <trkpt lat="43.7737622670829296112060546875" lon="1.56468783505260944366455078125">
        <ele>146.600006103515625</ele>
        <time>2026-08-13T06:53:34.000Z</time>
        <extensions>
          <ns3:TrackPointExtension>
            <ns3:hr>83</ns3:hr>
            <ns3:cad>55</ns3:cad>
          </ns3:TrackPointExtension>
        </extensions>
      </trkpt>
      <trkpt lat="43.77377525903284549713134765625" lon="1.56470107845962047576904296875">
        <ele>146.600006103515625</ele>
        <time>2026-08-13T06:53:35.000Z</time>
        <extensions>
          <ns3:TrackPointExtension>
            <ns3:hr>84</ns3:hr>
            <ns3:cad>55</ns3:cad>
          </ns3:TrackPointExtension>
        </extensions>
      </trkpt>
      <trkpt lat="43.77378598786890506744384765625" lon="1.56471516005694866180419921875">
        <ele>146.600006103515625</ele>
        <time>2026-08-13T06:53:36.000Z</time>
        <extensions>
          <ns3:TrackPointExtension>
            <ns3:hr>86</ns3:hr>
            <ns3:cad>55</ns3:cad>
          </ns3:TrackPointExtension>
        </extensions>
      </trkpt>
      <trkpt lat="43.773794956505298614501953125" lon="1.5647294931113719940185546875">
        <ele>146.399993896484375</ele>
        <time>2026-08-13T06:53:37.000Z</time>
        <extensions>
          <ns3:TrackPointExtension>
            <ns3:hr>86</ns3:hr>
            <ns3:cad>55</ns3:cad>
          </ns3:TrackPointExtension>
        </extensions>
      </trkpt>
      <trkpt lat="43.77380576916038990020751953125" lon="1.56474181450903415679931640625">
        <ele>146.399993896484375</ele>
        <time>2026-08-13T06:53:38.000Z</time>
        <extensions>
          <ns3:TrackPointExtension>
            <ns3:hr>87</ns3:hr>
            <ns3:cad>54</ns3:cad>
          </ns3:TrackPointExtension>
        </extensions>
      </trkpt>
      <trkpt lat="43.77381649799644947052001953125" lon="1.5647538006305694580078125">
        <ele>146.399993896484375</ele>
        <time>2026-08-13T06:53:39.000Z</time>
        <extensions>
          <ns3:TrackPointExtension>
            <ns3:hr>87</ns3:hr>
            <ns3:cad>53</ns3:cad>
          </ns3:TrackPointExtension>
        </extensions>
      </trkpt>
      <trkpt lat="43.77382823266088962554931640625" lon="1.56476628966629505157470703125">
        <ele>146.399993896484375</ele>
        <time>2026-08-13T06:53:40.000Z</time>
        <extensions>
          <ns3:TrackPointExtension>
            <ns3:hr>87</ns3:hr>
            <ns3:cad>53</ns3:cad>
          </ns3:TrackPointExtension>
        </extensions>
      </trkpt>
      <trkpt lat="43.77383996732532978057861328125" lon="1.56478070653975009918212890625">
        <ele>146.399993896484375</ele>
        <time>2026-08-13T06:53:41.000Z</time>
        <extensions>
          <ns3:TrackPointExtension>
            <ns3:hr>86</ns3:hr>
            <ns3:cad>52</ns3:cad>
          </ns3:TrackPointExtension>
        </extensions>
      </trkpt>
      <trkpt lat="43.77384918741881847381591796875" lon="1.56479537487030029296875">
        <ele>146.399993896484375</ele>
        <time>2026-08-13T06:53:42.000Z</time>
        <extensions>
          <ns3:TrackPointExtension>
            <ns3:hr>86</ns3:hr>
            <ns3:cad>52</ns3:cad>
          </ns3:TrackPointExtension>
        </extensions>
      </trkpt>
      <trkpt lat="43.7738594971597194671630859375" lon="1.56480811536312103271484375">
        <ele>146.399993896484375</ele>
        <time>2026-08-13T06:53:43.000Z</time>
        <extensions>
          <ns3:TrackPointExtension>
            <ns3:hr>86</ns3:hr>
            <ns3:cad>53</ns3:cad>
          </ns3:TrackPointExtension>
        </extensions>
      </trkpt>
      <trkpt lat="43.773870058357715606689453125" lon="1.56482278369367122650146484375">
        <ele>146.399993896484375</ele>
        <time>2026-08-13T06:53:44.000Z</time>
        <extensions>
          <ns3:TrackPointExtension>
            <ns3:hr>85</ns3:hr>
            <ns3:cad>53</ns3:cad>
          </ns3:TrackPointExtension>
        </extensions>
      </trkpt>
      <trkpt lat="43.77388003282248973846435546875" lon="1.564835608005523681640625">
        <ele>146.399993896484375</ele>
        <time>2026-08-13T06:53:45.000Z</time>
        <extensions>
          <ns3:TrackPointExtension>
            <ns3:hr>85</ns3:hr>
            <ns3:cad>54</ns3:cad>
          </ns3:TrackPointExtension>
        </extensions>
      </trkpt>
      <trkpt lat="43.7738900072872638702392578125" lon="1.56484859995543956756591796875">
        <ele>146.399993896484375</ele>
        <time>2026-08-13T06:53:46.000Z</time>
        <extensions>
          <ns3:TrackPointExtension>
            <ns3:hr>85</ns3:hr>
            <ns3:cad>55</ns3:cad>
          </ns3:TrackPointExtension>
        </extensions>
      </trkpt>
      <trkpt lat="43.77389830537140369415283203125" lon="1.5648610889911651611328125">
        <ele>146.399993896484375</ele>
        <time>2026-08-13T06:53:47.000Z</time>
        <extensions>
          <ns3:TrackPointExtension>
            <ns3:hr>85</ns3:hr>
            <ns3:cad>55</ns3:cad>
          </ns3:TrackPointExtension>
        </extensions>
      </trkpt>
      <trkpt lat="43.773906268179416656494140625" lon="1.56487475149333477020263671875">
        <ele>146.399993896484375</ele>
        <time>2026-08-13T06:53:48.000Z</time>
        <extensions>
          <ns3:TrackPointExtension>
            <ns3:hr>86</ns3:hr>
            <ns3:cad>55</ns3:cad>
          </ns3:TrackPointExtension>
        </extensions>
      </trkpt>
      <trkpt lat="43.77391305752098560333251953125" lon="1.56488858163356781005859375">
        <ele>146.399993896484375</ele>
        <time>2026-08-13T06:53:49.000Z</time>
        <extensions>
          <ns3:TrackPointExtension>
            <ns3:hr>86</ns3:hr>
            <ns3:cad>55</ns3:cad>
          </ns3:TrackPointExtension>
        </extensions>
      </trkpt>
      <trkpt lat="43.7739201821386814117431640625" lon="1.5649038366973400115966796875">
        <ele>146.399993896484375</ele>
        <time>2026-08-13T06:53:50.000Z</time>
        <extensions>
          <ns3:TrackPointExtension>
            <ns3:hr>86</ns3:hr>
            <ns3:cad>55</ns3:cad>
          </ns3:TrackPointExtension>
        </extensions>
      </trkpt>
      <trkpt lat="43.7739288993179798126220703125" lon="1.56491615809500217437744140625">
        <ele>146.399993896484375</ele>
        <time>2026-08-13T06:53:51.000Z</time>
        <extensions>
          <ns3:TrackPointExtension>
            <ns3:hr>86</ns3:hr>
            <ns3:cad>55</ns3:cad>
          </ns3:TrackPointExtension>
        </extensions>
      </trkpt>
      <trkpt lat="43.773939125239849090576171875" lon="1.5649276413023471832275390625">
        <ele>146.399993896484375</ele>
        <time>2026-08-13T06:53:52.000Z</time>
        <extensions>
          <ns3:TrackPointExtension>
            <ns3:hr>86</ns3:hr>
            <ns3:cad>55</ns3:cad>
          </ns3:TrackPointExtension>
        </extensions>
      </trkpt>
      <trkpt lat="43.77394893206655979156494140625" lon="1.564942561089992523193359375">
        <ele>146.399993896484375</ele>
        <time>2026-08-13T06:53:53.000Z</time>
        <extensions>
          <ns3:TrackPointExtension>
            <ns3:hr>86</ns3:hr>
            <ns3:cad>55</ns3:cad>
          </ns3:TrackPointExtension>
        </extensions>
      </trkpt>
      <trkpt lat="43.77395890653133392333984375" lon="1.5649588219821453094482421875">
        <ele>146.399993896484375</ele>
        <time>2026-08-13T06:53:54.000Z</time>
        <extensions>
          <ns3:TrackPointExtension>
            <ns3:hr>86</ns3:hr>
            <ns3:cad>55</ns3:cad>
          </ns3:TrackPointExtension>
        </extensions>
      </trkpt>
      <trkpt lat="43.7739681266248226165771484375" lon="1.56497265212237834930419921875">
        <ele>146.399993896484375</ele>
        <time>2026-08-13T06:53:55.000Z</time>
        <extensions>
          <ns3:TrackPointExtension>
            <ns3:hr>85</ns3:hr>
            <ns3:cad>54</ns3:cad>
          </ns3:TrackPointExtension>
        </extensions>
      </trkpt>
      <trkpt lat="43.7739781849086284637451171875" lon="1.56498656608164310455322265625">
        <ele>146.399993896484375</ele>
        <time>2026-08-13T06:53:56.000Z</time>
        <extensions>
          <ns3:TrackPointExtension>
            <ns3:hr>86</ns3:hr>
            <ns3:cad>54</ns3:cad>
          </ns3:TrackPointExtension>
        </extensions>
      </trkpt>
      <trkpt lat="43.773986063897609710693359375" lon="1.56499964185059070587158203125">
        <ele>146.1999969482421875</ele>
        <time>2026-08-13T06:53:57.000Z</time>
        <extensions>
          <ns3:TrackPointExtension>
            <ns3:hr>86</ns3:hr>
            <ns3:cad>54</ns3:cad>
          </ns3:TrackPointExtension>
        </extensions>
      </trkpt>
      <trkpt lat="43.77399520017206668853759765625" lon="1.5650114603340625762939453125">
        <ele>146.1999969482421875</ele>
        <time>2026-08-13T06:53:58.000Z</time>
        <extensions>
          <ns3:TrackPointExtension>
            <ns3:hr>86</ns3:hr>
            <ns3:cad>54</ns3:cad>
          </ns3:TrackPointExtension>
        </extensions>
      </trkpt>
      <trkpt lat="43.77400374971330165863037109375" lon="1.5650208480656147003173828125">
        <ele>146.1999969482421875</ele>
        <time>2026-08-13T06:53:59.000Z</time>
        <extensions>
          <ns3:TrackPointExtension>
            <ns3:hr>86</ns3:hr>
            <ns3:cad>54</ns3:cad>
          </ns3:TrackPointExtension>
        </extensions>
      </trkpt>
      <trkpt lat="43.77401313744485378265380859375" lon="1.5650315769016742706298828125">
        <ele>146.1999969482421875</ele>
        <time>2026-08-13T06:54:00.000Z</time>
        <extensions>
          <ns3:TrackPointExtension>
            <ns3:hr>87</ns3:hr>
            <ns3:cad>54</ns3:cad>
          </ns3:TrackPointExtension>
        </extensions>
      </trkpt>
      <trkpt lat="43.7740244530141353607177734375" lon="1.56504071317613124847412109375">
        <ele>146.1999969482421875</ele>
        <time>2026-08-13T06:54:01.000Z</time>
        <extensions>
          <ns3:TrackPointExtension>
            <ns3:hr>86</ns3:hr>
            <ns3:cad>54</ns3:cad>
          </ns3:TrackPointExtension>
        </extensions>
      </trkpt>
      <trkpt lat="43.77403342165052890777587890625" lon="1.565052531659603118896484375">
        <ele>146.1999969482421875</ele>
        <time>2026-08-13T06:54:02.000Z</time>
        <extensions>
          <ns3:TrackPointExtension>
            <ns3:hr>86</ns3:hr>
            <ns3:cad>53</ns3:cad>
          </ns3:TrackPointExtension>
        </extensions>
      </trkpt>
      <trkpt lat="43.77404146827757358551025390625" lon="1.56506535597145557403564453125">
        <ele>146.1999969482421875</ele>
        <time>2026-08-13T06:54:03.000Z</time>
        <extensions>
          <ns3:TrackPointExtension>
            <ns3:hr>86</ns3:hr>
            <ns3:cad>53</ns3:cad>
          </ns3:TrackPointExtension>
        </extensions>
      </trkpt>
      <trkpt lat="43.7740467488765716552734375" lon="1.56508061103522777557373046875">
        <ele>146</ele>
        <time>2026-08-13T06:54:04.000Z</time>
        <extensions>
          <ns3:TrackPointExtension>
            <ns3:hr>86</ns3:hr>
            <ns3:cad>52</ns3:cad>
          </ns3:TrackPointExtension>
        </extensions>
      </trkpt>
      <trkpt lat="43.77404917962849140167236328125" lon="1.56509720720350742340087890625">
        <ele>146</ele>
        <time>2026-08-13T06:54:05.000Z</time>
        <extensions>
          <ns3:TrackPointExtension>
            <ns3:hr>86</ns3:hr>
            <ns3:cad>52</ns3:cad>
          </ns3:TrackPointExtension>
        </extensions>
      </trkpt>
      <trkpt lat="43.7740499339997768402099609375" lon="1.5651120431721210479736328125">
        <ele>146</ele>
        <time>2026-08-13T06:54:06.000Z</time>
        <extensions>
          <ns3:TrackPointExtension>
            <ns3:hr>86</ns3:hr>
            <ns3:cad>52</ns3:cad>
          </ns3:TrackPointExtension>
        </extensions>
      </trkpt>
      <trkpt lat="43.7740492634475231170654296875" lon="1.56512503512203693389892578125">
        <ele>146</ele>
        <time>2026-08-13T06:54:07.000Z</time>
        <extensions>
          <ns3:TrackPointExtension>
            <ns3:hr>86</ns3:hr>
            <ns3:cad>52</ns3:cad>
          </ns3:TrackPointExtension>
        </extensions>
      </trkpt>
      <trkpt lat="43.77404817380011081695556640625" lon="1.56513894908130168914794921875">
        <ele>146.1999969482421875</ele>
        <time>2026-08-13T06:54:08.000Z</time>
        <extensions>
          <ns3:TrackPointExtension>
            <ns3:hr>86</ns3:hr>
            <ns3:cad>52</ns3:cad>
          </ns3:TrackPointExtension>
        </extensions>
      </trkpt>
      <trkpt lat="43.77404632978141307830810546875" lon="1.56515655107796192169189453125">
        <ele>146.1999969482421875</ele>
        <time>2026-08-13T06:54:09.000Z</time>
        <extensions>
          <ns3:TrackPointExtension>
            <ns3:hr>85</ns3:hr>
            <ns3:cad>53</ns3:cad>
          </ns3:TrackPointExtension>
        </extensions>
      </trkpt>
      <trkpt lat="43.77404381521046161651611328125" lon="1.56516828574240207672119140625">
        <ele>146.399993896484375</ele>
        <time>2026-08-13T06:54:10.000Z</time>
        <extensions>
          <ns3:TrackPointExtension>
            <ns3:hr>86</ns3:hr>
            <ns3:cad>53</ns3:cad>
          </ns3:TrackPointExtension>
        </extensions>
      </trkpt>
      <trkpt lat="43.7740415520966053009033203125" lon="1.5651824511587619781494140625">
        <ele>146.399993896484375</ele>
        <time>2026-08-13T06:54:11.000Z</time>
        <extensions>
          <ns3:TrackPointExtension>
            <ns3:hr>85</ns3:hr>
            <ns3:cad>51</ns3:cad>
          </ns3:TrackPointExtension>
        </extensions>
      </trkpt>
      <trkpt lat="43.77403861843049526214599609375" lon="1.56519443728029727935791015625">
        <ele>146.600006103515625</ele>
        <time>2026-08-13T06:54:12.000Z</time>
        <extensions>
          <ns3:TrackPointExtension>
            <ns3:hr>85</ns3:hr>
            <ns3:cad>51</ns3:cad>
          </ns3:TrackPointExtension>
        </extensions>
      </trkpt>
      <trkpt lat="43.77403694204986095428466796875" lon="1.56520080752670764923095703125">
        <ele>146.600006103515625</ele>
        <time>2026-08-13T06:54:13.000Z</time>
        <extensions>
          <ns3:TrackPointExtension>
            <ns3:hr>85</ns3:hr>
            <ns3:cad>49</ns3:cad>
          </ns3:TrackPointExtension>
        </extensions>
      </trkpt>
      <trkpt lat="43.77403560094535350799560546875" lon="1.5652012266218662261962890625">
        <ele>146.8000030517578125</ele>
        <time>2026-08-13T06:54:14.000Z</time>
        <extensions>
          <ns3:TrackPointExtension>
            <ns3:hr>86</ns3:hr>
            <ns3:cad>49</ns3:cad>
          </ns3:TrackPointExtension>
        </extensions>
      </trkpt>
      <trkpt lat="43.7740331701934337615966796875" lon="1.56520307064056396484375">
        <ele>146.8000030517578125</ele>
        <time>2026-08-13T06:54:15.000Z</time>
        <extensions>
          <ns3:TrackPointExtension>
            <ns3:hr>86</ns3:hr>
            <ns3:cad>0</ns3:cad>
          </ns3:TrackPointExtension>
        </extensions>
      </trkpt>
      <trkpt lat="43.77403023652732372283935546875" lon="1.56521203927695751190185546875">
        <ele>146.8000030517578125</ele>
        <time>2026-08-13T06:54:16.000Z</time>
        <extensions>
          <ns3:TrackPointExtension>
            <ns3:hr>86</ns3:hr>
            <ns3:cad>0</ns3:cad>
          </ns3:TrackPointExtension>
        </extensions>
      </trkpt>
      <trkpt lat="43.7740264646708965301513671875" lon="1.56522125937044620513916015625">
        <ele>146.8000030517578125</ele>
        <time>2026-08-13T06:54:17.000Z</time>
        <extensions>
          <ns3:TrackPointExtension>
            <ns3:hr>86</ns3:hr>
            <ns3:cad>0</ns3:cad>
          </ns3:TrackPointExtension>
        </extensions>
      </trkpt>
      <trkpt lat="43.7740231119096279144287109375" lon="1.5652297250926494598388671875">
        <ele>146.8000030517578125</ele>
        <time>2026-08-13T06:54:18.000Z</time>
        <extensions>
          <ns3:TrackPointExtension>
            <ns3:hr>85</ns3:hr>
            <ns3:cad>0</ns3:cad>
          </ns3:TrackPointExtension>
        </extensions>
      </trkpt>
      <trkpt lat="43.7740177474915981292724609375" lon="1.5652428008615970611572265625">
        <ele>146.8000030517578125</ele>
        <time>2026-08-13T06:54:19.000Z</time>
        <extensions>
          <ns3:TrackPointExtension>
            <ns3:hr>86</ns3:hr>
            <ns3:cad>0</ns3:cad>
          </ns3:TrackPointExtension>
        </extensions>
      </trkpt>
      <trkpt lat="43.77401162870228290557861328125" lon="1.56525763683021068572998046875">
        <ele>146.8000030517578125</ele>
        <time>2026-08-13T06:54:20.000Z</time>
        <extensions>
          <ns3:TrackPointExtension>
            <ns3:hr>85</ns3:hr>
            <ns3:cad>0</ns3:cad>
          </ns3:TrackPointExtension>
        </extensions>
      </trkpt>
      <trkpt lat="43.77400425262749195098876953125" lon="1.565272808074951171875">
        <ele>147</ele>
        <time>2026-08-13T06:54:21.000Z</time>
        <extensions>
          <ns3:TrackPointExtension>
            <ns3:hr>85</ns3:hr>
            <ns3:cad>0</ns3:cad>
          </ns3:TrackPointExtension>
        </extensions>
      </trkpt>
      <trkpt lat="43.773991763591766357421875" lon="1.5652850456535816192626953125">
        <ele>147</ele>
        <time>2026-08-13T06:54:22.000Z</time>
        <extensions>
          <ns3:TrackPointExtension>
            <ns3:hr>86</ns3:hr>
            <ns3:cad>0</ns3:cad>
          </ns3:TrackPointExtension>
        </extensions>
      </trkpt>
      <trkpt lat="43.7739838846027851104736328125" lon="1.56530055217444896697998046875">
        <ele>147.1999969482421875</ele>
        <time>2026-08-13T06:54:23.000Z</time>
        <extensions>
          <ns3:TrackPointExtension>
            <ns3:hr>86</ns3:hr>
            <ns3:cad>50</ns3:cad>
          </ns3:TrackPointExtension>
        </extensions>
      </trkpt>
      <trkpt lat="43.77397525124251842498779296875" lon="1.5653143823146820068359375">
        <ele>147.1999969482421875</ele>
        <time>2026-08-13T06:54:24.000Z</time>
        <extensions>
          <ns3:TrackPointExtension>
            <ns3:hr>86</ns3:hr>
            <ns3:cad>50</ns3:cad>
          </ns3:TrackPointExtension>
        </extensions>
      </trkpt>
      <trkpt lat="43.77396670170128345489501953125" lon="1.56532838009297847747802734375">
        <ele>147.1999969482421875</ele>
        <time>2026-08-13T06:54:25.000Z</time>
        <extensions>
          <ns3:TrackPointExtension>
            <ns3:hr>86</ns3:hr>
            <ns3:cad>51</ns3:cad>
          </ns3:TrackPointExtension>
        </extensions>
      </trkpt>
      <trkpt lat="43.77395949326455593109130859375" lon="1.56534179113805294036865234375">
        <ele>147.399993896484375</ele>
        <time>2026-08-13T06:54:26.000Z</time>
        <extensions>
          <ns3:TrackPointExtension>
            <ns3:hr>87</ns3:hr>
            <ns3:cad>51</ns3:cad>
          </ns3:TrackPointExtension>
        </extensions>
      </trkpt>
      <trkpt lat="43.7739540450274944305419921875" lon="1.56535335816442966461181640625">
        <ele>147.399993896484375</ele>
        <time>2026-08-13T06:54:27.000Z</time>
        <extensions>
          <ns3:TrackPointExtension>
            <ns3:hr>88</ns3:hr>
            <ns3:cad>52</ns3:cad>
          </ns3:TrackPointExtension>
        </extensions>
      </trkpt>
      <trkpt lat="43.7739496864378452301025390625" lon="1.5653688646852970123291015625">
        <ele>147.600006103515625</ele>
        <time>2026-08-13T06:54:28.000Z</time>
        <extensions>
          <ns3:TrackPointExtension>
            <ns3:hr>89</ns3:hr>
            <ns3:cad>52</ns3:cad>
          </ns3:TrackPointExtension>
        </extensions>
      </trkpt>
      <trkpt lat="43.7739475071430206298828125" lon="1.56538604758679866790771484375">
        <ele>147.600006103515625</ele>
        <time>2026-08-13T06:54:29.000Z</time>
        <extensions>
          <ns3:TrackPointExtension>
            <ns3:hr>90</ns3:hr>
            <ns3:cad>52</ns3:cad>
          </ns3:TrackPointExtension>
        </extensions>
      </trkpt>
      <trkpt lat="43.7739480100572109222412109375" lon="1.56540490686893463134765625">
        <ele>147.8000030517578125</ele>
        <time>2026-08-13T06:54:30.000Z</time>
        <extensions>
          <ns3:TrackPointExtension>
            <ns3:hr>90</ns3:hr>
            <ns3:cad>52</ns3:cad>
          </ns3:TrackPointExtension>
        </extensions>
      </trkpt>
      <trkpt lat="43.7739473395049571990966796875" lon="1.565424688160419464111328125">
        <ele>147.8000030517578125</ele>
        <time>2026-08-13T06:54:31.000Z</time>
        <extensions>
          <ns3:TrackPointExtension>
            <ns3:hr>90</ns3:hr>
            <ns3:cad>50</ns3:cad>
          </ns3:TrackPointExtension>
        </extensions>
      </trkpt>
      <trkpt lat="43.77395194955170154571533203125" lon="1.56543332152068614959716796875">
        <ele>147.8000030517578125</ele>
        <time>2026-08-13T06:54:32.000Z</time>
        <extensions>
          <ns3:TrackPointExtension>
            <ns3:hr>90</ns3:hr>
            <ns3:cad>48</ns3:cad>
          </ns3:TrackPointExtension>
        </extensions>
      </trkpt>
      <trkpt lat="43.7739597447216510772705078125" lon="1.56544555909931659698486328125">
        <ele>147.8000030517578125</ele>
        <time>2026-08-13T06:54:33.000Z</time>
        <extensions>
          <ns3:TrackPointExtension>
            <ns3:hr>91</ns3:hr>
            <ns3:cad>48</ns3:cad>
          </ns3:TrackPointExtension>
        </extensions>
      </trkpt>
      <trkpt lat="43.77397625707089900970458984375" lon="1.56545829959213733673095703125">
        <ele>148</ele>
        <time>2026-08-13T06:54:34.000Z</time>
        <extensions>
          <ns3:TrackPointExtension>
            <ns3:hr>91</ns3:hr>
            <ns3:cad>48</ns3:cad>
          </ns3:TrackPointExtension>
        </extensions>
      </trkpt>
      <trkpt lat="43.77398799173533916473388671875" lon="1.56546768732368946075439453125">
        <ele>148</ele>
        <time>2026-08-13T06:54:35.000Z</time>
        <extensions>
          <ns3:TrackPointExtension>
            <ns3:hr>92</ns3:hr>
            <ns3:cad>48</ns3:cad>
          </ns3:TrackPointExtension>
        </extensions>
      </trkpt>
      <trkpt lat="43.77399989403784275054931640625" lon="1.56547573395073413848876953125">
        <ele>148.1999969482421875</ele>
        <time>2026-08-13T06:54:36.000Z</time>
        <extensions>
          <ns3:TrackPointExtension>
            <ns3:hr>93</ns3:hr>
            <ns3:cad>49</ns3:cad>
          </ns3:TrackPointExtension>
        </extensions>
      </trkpt>
      <trkpt lat="43.774013556540012359619140625" lon="1.56548109836876392364501953125">
        <ele>148.1999969482421875</ele>
        <time>2026-08-13T06:54:37.000Z</time>
        <extensions>
          <ns3:TrackPointExtension>
            <ns3:hr>93</ns3:hr>
            <ns3:cad>50</ns3:cad>
          </ns3:TrackPointExtension>
        </extensions>
      </trkpt>
      <trkpt lat="43.77402587793767452239990234375" lon="1.565487384796142578125">
        <ele>148.1999969482421875</ele>
        <time>2026-08-13T06:54:38.000Z</time>
        <extensions>
          <ns3:TrackPointExtension>
            <ns3:hr>93</ns3:hr>
            <ns3:cad>50</ns3:cad>
          </ns3:TrackPointExtension>
        </extensions>
      </trkpt>
      <trkpt lat="43.77404113300144672393798828125" lon="1.56549031846225261688232421875">
        <ele>148.1999969482421875</ele>
        <time>2026-08-13T06:54:39.000Z</time>
        <extensions>
          <ns3:TrackPointExtension>
            <ns3:hr>93</ns3:hr>
            <ns3:cad>52</ns3:cad>
          </ns3:TrackPointExtension>
        </extensions>
      </trkpt>
      <trkpt lat="43.77405487932264804840087890625" lon="1.5654929168522357940673828125">
        <ele>148.1999969482421875</ele>
        <time>2026-08-13T06:54:40.000Z</time>
        <extensions>
          <ns3:TrackPointExtension>
            <ns3:hr>94</ns3:hr>
            <ns3:cad>52</ns3:cad>
          </ns3:TrackPointExtension>
        </extensions>
      </trkpt>
      <trkpt lat="43.774067200720310211181640625" lon="1.5654992870986461639404296875">
        <ele>148.1999969482421875</ele>
        <time>2026-08-13T06:54:41.000Z</time>
        <extensions>
          <ns3:TrackPointExtension>
            <ns3:hr>94</ns3:hr>
            <ns3:cad>52</ns3:cad>
          </ns3:TrackPointExtension>
        </extensions>
      </trkpt>
      <trkpt lat="43.7740789353847503662109375" lon="1.5655046515166759490966796875">
        <ele>148.399993896484375</ele>
        <time>2026-08-13T06:54:42.000Z</time>
        <extensions>
          <ns3:TrackPointExtension>
            <ns3:hr>95</ns3:hr>
            <ns3:cad>52</ns3:cad>
          </ns3:TrackPointExtension>
        </extensions>
      </trkpt>
      <trkpt lat="43.77408974803984165191650390625" lon="1.56551219522953033447265625">
        <ele>148.399993896484375</ele>
        <time>2026-08-13T06:54:43.000Z</time>
        <extensions>
          <ns3:TrackPointExtension>
            <ns3:hr>95</ns3:hr>
            <ns3:cad>54</ns3:cad>
          </ns3:TrackPointExtension>
        </extensions>
      </trkpt>
      <trkpt lat="43.774102069437503814697265625" lon="1.5655200742185115814208984375">
        <ele>148.399993896484375</ele>
        <time>2026-08-13T06:54:44.000Z</time>
        <extensions>
          <ns3:TrackPointExtension>
            <ns3:hr>95</ns3:hr>
            <ns3:cad>55</ns3:cad>
          </ns3:TrackPointExtension>
        </extensions>
      </trkpt>
      <trkpt lat="43.77411539666354656219482421875" lon="1.565527282655239105224609375">
        <ele>148.399993896484375</ele>
        <time>2026-08-13T06:54:45.000Z</time>
        <extensions>
          <ns3:TrackPointExtension>
            <ns3:hr>96</ns3:hr>
            <ns3:cad>55</ns3:cad>
          </ns3:TrackPointExtension>
        </extensions>
      </trkpt>
      <trkpt lat="43.77412897534668445587158203125" lon="1.5655344910919666290283203125">
        <ele>148.399993896484375</ele>
        <time>2026-08-13T06:54:46.000Z</time>
        <extensions>
          <ns3:TrackPointExtension>
            <ns3:hr>97</ns3:hr>
            <ns3:cad>55</ns3:cad>
          </ns3:TrackPointExtension>
        </extensions>
      </trkpt>
      <trkpt lat="43.774140961468219757080078125" lon="1.56554161570966243743896484375">
        <ele>148.399993896484375</ele>
        <time>2026-08-13T06:54:47.000Z</time>
        <extensions>
          <ns3:TrackPointExtension>
            <ns3:hr>98</ns3:hr>
            <ns3:cad>55</ns3:cad>
          </ns3:TrackPointExtension>
        </extensions>
      </trkpt>
      <trkpt lat="43.7741538695991039276123046875" lon="1.5655489079654216766357421875">
        <ele>148.1999969482421875</ele>
        <time>2026-08-13T06:54:48.000Z</time>
        <extensions>
          <ns3:TrackPointExtension>
            <ns3:hr>99</ns3:hr>
            <ns3:cad>55</ns3:cad>
          </ns3:TrackPointExtension>
        </extensions>
      </trkpt>
      <trkpt lat="43.77416677772998809814453125" lon="1.5655569545924663543701171875">
        <ele>148.1999969482421875</ele>
        <time>2026-08-13T06:54:49.000Z</time>
        <extensions>
          <ns3:TrackPointExtension>
            <ns3:hr>100</ns3:hr>
            <ns3:cad>54</ns3:cad>
          </ns3:TrackPointExtension>
        </extensions>
      </trkpt>
      <trkpt lat="43.774180524051189422607421875" lon="1.56556206755340099334716796875">
        <ele>148.1999969482421875</ele>
        <time>2026-08-13T06:54:50.000Z</time>
        <extensions>
          <ns3:TrackPointExtension>
            <ns3:hr>100</ns3:hr>
            <ns3:cad>54</ns3:cad>
          </ns3:TrackPointExtension>
        </extensions>
      </trkpt>
      <trkpt lat="43.774192593991756439208984375" lon="1.56556592322885990142822265625">
        <ele>148.1999969482421875</ele>
        <time>2026-08-13T06:54:51.000Z</time>
        <extensions>
          <ns3:TrackPointExtension>
            <ns3:hr>100</ns3:hr>
            <ns3:cad>53</ns3:cad>
          </ns3:TrackPointExtension>
        </extensions>
      </trkpt>
      <trkpt lat="43.77420625649392604827880859375" lon="1.56556877307593822479248046875">
        <ele>148.1999969482421875</ele>
        <time>2026-08-13T06:54:52.000Z</time>
        <extensions>
          <ns3:TrackPointExtension>
            <ns3:hr>100</ns3:hr>
            <ns3:cad>53</ns3:cad>
          </ns3:TrackPointExtension>
        </extensions>
      </trkpt>
      <trkpt lat="43.77421639859676361083984375" lon="1.56557564623653888702392578125">
        <ele>148.1999969482421875</ele>
        <time>2026-08-13T06:54:53.000Z</time>
        <extensions>
          <ns3:TrackPointExtension>
            <ns3:hr>100</ns3:hr>
            <ns3:cad>53</ns3:cad>
          </ns3:TrackPointExtension>
        </extensions>
      </trkpt>
      <trkpt lat="43.774226121604442596435546875" lon="1.5655827708542346954345703125">
        <ele>148.1999969482421875</ele>
        <time>2026-08-13T06:54:54.000Z</time>
        <extensions>
          <ns3:TrackPointExtension>
            <ns3:hr>99</ns3:hr>
            <ns3:cad>52</ns3:cad>
          </ns3:TrackPointExtension>
        </extensions>
      </trkpt>
      <trkpt lat="43.77423207275569438934326171875" lon="1.565587632358074188232421875">
        <ele>148</ele>
        <time>2026-08-13T06:54:55.000Z</time>
        <extensions>
          <ns3:TrackPointExtension>
            <ns3:hr>99</ns3:hr>
            <ns3:cad>52</ns3:cad>
          </ns3:TrackPointExtension>
        </extensions>
      </trkpt>
      <trkpt lat="43.774235509335994720458984375" lon="1.5655888058245182037353515625">
        <ele>148</ele>
        <time>2026-08-13T06:54:56.000Z</time>
        <extensions>
          <ns3:TrackPointExtension>
            <ns3:hr>99</ns3:hr>
            <ns3:cad>52</ns3:cad>
          </ns3:TrackPointExtension>
        </extensions>
      </trkpt>
      <trkpt lat="43.77423827536404132843017578125" lon="1.5655877999961376190185546875">
        <ele>148</ele>
        <time>2026-08-13T06:54:57.000Z</time>
        <extensions>
          <ns3:TrackPointExtension>
            <ns3:hr>99</ns3:hr>
            <ns3:cad>52</ns3:cad>
          </ns3:TrackPointExtension>
        </extensions>
      </trkpt>
      <trkpt lat="43.774242214858531951904296875" lon="1.5655904822051525115966796875">
        <ele>148.1999969482421875</ele>
        <time>2026-08-13T06:54:58.000Z</time>
        <extensions>
          <ns3:TrackPointExtension>
            <ns3:hr>99</ns3:hr>
            <ns3:cad>0</ns3:cad>
          </ns3:TrackPointExtension>
        </extensions>
      </trkpt>
      <trkpt lat="43.774247579276561737060546875" lon="1.56559375114738941192626953125">
        <ele>148.1999969482421875</ele>
        <time>2026-08-13T06:54:59.000Z</time>
        <extensions>
          <ns3:TrackPointExtension>
            <ns3:hr>100</ns3:hr>
            <ns3:cad>0</ns3:cad>
          </ns3:TrackPointExtension>
        </extensions>
      </trkpt>
      <trkpt lat="43.774249590933322906494140625" lon="1.56559542752802371978759765625">
        <ele>148.1999969482421875</ele>
        <time>2026-08-13T06:55:00.000Z</time>
        <extensions>
          <ns3:TrackPointExtension>
            <ns3:hr>100</ns3:hr>
            <ns3:cad>0</ns3:cad>
          </ns3:TrackPointExtension>
        </extensions>
      </trkpt>
      <trkpt lat="43.7742510996758937835693359375" lon="1.5655975230038166046142578125">
        <ele>148.1999969482421875</ele>
        <time>2026-08-13T06:55:01.000Z</time>
        <extensions>
          <ns3:TrackPointExtension>
            <ns3:hr>100</ns3:hr>
            <ns3:cad>0</ns3:cad>
          </ns3:TrackPointExtension>
        </extensions>
      </trkpt>
      <trkpt lat="43.7742505967617034912109375" lon="1.56559928320348262786865234375">
        <ele>148.399993896484375</ele>
        <time>2026-08-13T06:55:02.000Z</time>
        <extensions>
          <ns3:TrackPointExtension>
            <ns3:hr>100</ns3:hr>
            <ns3:cad>0</ns3:cad>
          </ns3:TrackPointExtension>
        </extensions>
      </trkpt>
      <trkpt lat="43.77424967475235462188720703125" lon="1.5656012110412120819091796875">
        <ele>148.399993896484375</ele>
        <time>2026-08-13T06:55:03.000Z</time>
        <extensions>
          <ns3:TrackPointExtension>
            <ns3:hr>100</ns3:hr>
            <ns3:cad>0</ns3:cad>
          </ns3:TrackPointExtension>
        </extensions>
      </trkpt>
      <trkpt lat="43.77424967475235462188720703125" lon="1.56560230068862438201904296875">
        <ele>148.399993896484375</ele>
        <time>2026-08-13T06:55:04.000Z</time>
        <extensions>
          <ns3:TrackPointExtension>
            <ns3:hr>101</ns3:hr>
            <ns3:cad>0</ns3:cad>
          </ns3:TrackPointExtension>
        </extensions>
      </trkpt>
      <trkpt lat="43.774250932037830352783203125" lon="1.5656025521457195281982421875">
        <ele>148.399993896484375</ele>
        <time>2026-08-13T06:55:05.000Z</time>
        <extensions>
          <ns3:TrackPointExtension>
            <ns3:hr>101</ns3:hr>
            <ns3:cad>0</ns3:cad>
          </ns3:TrackPointExtension>
        </extensions>
      </trkpt>
      <trkpt lat="43.77425336278975009918212890625" lon="1.5656022168695926666259765625">
        <ele>148.399993896484375</ele>
        <time>2026-08-13T06:55:06.000Z</time>
        <extensions>
          <ns3:TrackPointExtension>
            <ns3:hr>101</ns3:hr>
            <ns3:cad>0</ns3:cad>
          </ns3:TrackPointExtension>
        </extensions>
      </trkpt>
      <trkpt lat="43.7742534466087818145751953125" lon="1.5656022168695926666259765625">
        <ele>148.399993896484375</ele>
        <time>2026-08-13T06:55:07.000Z</time>
        <extensions>
          <ns3:TrackPointExtension>
            <ns3:hr>101</ns3:hr>
            <ns3:cad>0</ns3:cad>
          </ns3:TrackPointExtension>
        </extensions>
      </trkpt>
      <trkpt lat="43.7742534466087818145751953125" lon="1.5656022168695926666259765625">
        <ele>148.399993896484375</ele>
        <time>2026-08-13T06:55:08.000Z</time>
        <extensions>
          <ns3:TrackPointExtension>
            <ns3:hr>101</ns3:hr>
            <ns3:cad>0</ns3:cad>
          </ns3:TrackPointExtension>
        </extensions>
      </trkpt>
      <trkpt lat="43.7742534466087818145751953125" lon="1.5656022168695926666259765625">
        <ele>148.399993896484375</ele>
        <time>2026-08-13T06:55:09.000Z</time>
        <extensions>
          <ns3:TrackPointExtension>
            <ns3:hr>100</ns3:hr>
            <ns3:cad>0</ns3:cad>
          </ns3:TrackPointExtension>
        </extensions>
      </trkpt>
      <trkpt lat="43.77425403334200382232666015625" lon="1.565602384507656097412109375">
        <ele>148.399993896484375</ele>
        <time>2026-08-13T06:55:10.000Z</time>
        <extensions>
          <ns3:TrackPointExtension>
            <ns3:hr>100</ns3:hr>
            <ns3:cad>0</ns3:cad>
          </ns3:TrackPointExtension>
        </extensions>
      </trkpt>
      <trkpt lat="43.77426040358841419219970703125" lon="1.56560565344989299774169921875">
        <ele>148.399993896484375</ele>
        <time>2026-08-13T06:55:11.000Z</time>
        <extensions>
          <ns3:TrackPointExtension>
            <ns3:hr>100</ns3:hr>
            <ns3:cad>0</ns3:cad>
          </ns3:TrackPointExtension>
        </extensions>
      </trkpt>
      <trkpt lat="43.7742685340344905853271484375" lon="1.56561135314404964447021484375">
        <ele>148.1999969482421875</ele>
        <time>2026-08-13T06:55:12.000Z</time>
        <extensions>
          <ns3:TrackPointExtension>
            <ns3:hr>101</ns3:hr>
            <ns3:cad>0</ns3:cad>
          </ns3:TrackPointExtension>
        </extensions>
      </trkpt>
      <trkpt lat="43.7742732279002666473388671875" lon="1.5656174719333648681640625">
        <ele>148.1999969482421875</ele>
        <time>2026-08-13T06:55:13.000Z</time>
        <extensions>
          <ns3:TrackPointExtension>
            <ns3:hr>100</ns3:hr>
            <ns3:cad>0</ns3:cad>
          </ns3:TrackPointExtension>
        </extensions>
      </trkpt>
      <trkpt lat="43.77427808940410614013671875" lon="1.5656189806759357452392578125">
        <ele>148</ele>
        <time>2026-08-13T06:55:14.000Z</time>
        <extensions>
          <ns3:TrackPointExtension>
            <ns3:hr>100</ns3:hr>
            <ns3:cad>0</ns3:cad>
          </ns3:TrackPointExtension>
        </extensions>
      </trkpt>
      <trkpt lat="43.7742839567363262176513671875" lon="1.5656253509223461151123046875">
        <ele>148</ele>
        <time>2026-08-13T06:55:15.000Z</time>
        <extensions>
          <ns3:TrackPointExtension>
            <ns3:hr>100</ns3:hr>
            <ns3:cad>0</ns3:cad>
          </ns3:TrackPointExtension>
        </extensions>
      </trkpt>
      <trkpt lat="43.77428957261145114898681640625" lon="1.5656270273029804229736328125">
        <ele>147.8000030517578125</ele>
        <time>2026-08-13T06:55:16.000Z</time>
        <extensions>
          <ns3:TrackPointExtension>
            <ns3:hr>100</ns3:hr>
            <ns3:cad>0</ns3:cad>
          </ns3:TrackPointExtension>
        </extensions>
      </trkpt>
      <trkpt lat="43.774297870695590972900390625" lon="1.56563331373035907745361328125">
        <ele>147.8000030517578125</ele>
        <time>2026-08-13T06:55:17.000Z</time>
        <extensions>
          <ns3:TrackPointExtension>
            <ns3:hr>100</ns3:hr>
            <ns3:cad>0</ns3:cad>
          </ns3:TrackPointExtension>
        </extensions>
      </trkpt>
      <trkpt lat="43.77430449239909648895263671875" lon="1.56564085744321346282958984375">
        <ele>147.8000030517578125</ele>
        <time>2026-08-13T06:55:18.000Z</time>
        <extensions>
          <ns3:TrackPointExtension>
            <ns3:hr>100</ns3:hr>
            <ns3:cad>0</ns3:cad>
          </ns3:TrackPointExtension>
        </extensions>
      </trkpt>
      <trkpt lat="43.7743094377219676971435546875" lon="1.5656442940235137939453125">
        <ele>147.8000030517578125</ele>
        <time>2026-08-13T06:55:19.000Z</time>
        <extensions>
          <ns3:TrackPointExtension>
            <ns3:hr>99</ns3:hr>
            <ns3:cad>0</ns3:cad>
          </ns3:TrackPointExtension>
        </extensions>
      </trkpt>
      <trkpt lat="43.774315305054187774658203125" lon="1.56564898788928985595703125">
        <ele>147.8000030517578125</ele>
        <time>2026-08-13T06:55:20.000Z</time>
        <extensions>
          <ns3:TrackPointExtension>
            <ns3:hr>99</ns3:hr>
            <ns3:cad>0</ns3:cad>
          </ns3:TrackPointExtension>
        </extensions>
      </trkpt>
      <trkpt lat="43.7743211723864078521728515625" lon="1.56565493904054164886474609375">
        <ele>147.8000030517578125</ele>
        <time>2026-08-13T06:55:21.000Z</time>
        <extensions>
          <ns3:TrackPointExtension>
            <ns3:hr>96</ns3:hr>
            <ns3:cad>0</ns3:cad>
          </ns3:TrackPointExtension>
        </extensions>
      </trkpt>
      <trkpt lat="43.77432896755635738372802734375" lon="1.56565980054438114166259765625">
        <ele>147.600006103515625</ele>
        <time>2026-08-13T06:55:22.000Z</time>
        <extensions>
          <ns3:TrackPointExtension>
            <ns3:hr>96</ns3:hr>
            <ns3:cad>0</ns3:cad>
          </ns3:TrackPointExtension>
        </extensions>
      </trkpt>
      <trkpt lat="43.77433315850794315338134765625" lon="1.56566533260047435760498046875">
        <ele>147.600006103515625</ele>
        <time>2026-08-13T06:55:23.000Z</time>
        <extensions>
          <ns3:TrackPointExtension>
            <ns3:hr>91</ns3:hr>
            <ns3:cad>0</ns3:cad>
          </ns3:TrackPointExtension>
        </extensions>
      </trkpt>
      <trkpt lat="43.77433978021144866943359375" lon="1.56567136757075786590576171875">
        <ele>147.600006103515625</ele>
        <time>2026-08-13T06:55:24.000Z</time>
        <extensions>
          <ns3:TrackPointExtension>
            <ns3:hr>86</ns3:hr>
            <ns3:cad>77</ns3:cad>
          </ns3:TrackPointExtension>
        </extensions>
      </trkpt>
      <trkpt lat="43.77434874884784221649169921875" lon="1.5656796656548976898193359375">
        <ele>147.600006103515625</ele>
        <time>2026-08-13T06:55:25.000Z</time>
        <extensions>
          <ns3:TrackPointExtension>
            <ns3:hr>84</ns3:hr>
            <ns3:cad>77</ns3:cad>
          </ns3:TrackPointExtension>
        </extensions>
      </trkpt>
      <trkpt lat="43.77435478381812572479248046875" lon="1.5656853653490543365478515625">
        <ele>147.600006103515625</ele>
        <time>2026-08-13T06:55:26.000Z</time>
        <extensions>
          <ns3:TrackPointExtension>
            <ns3:hr>82</ns3:hr>
            <ns3:cad>74</ns3:cad>
          </ns3:TrackPointExtension>
        </extensions>
      </trkpt>
      <trkpt lat="43.77435981296002864837646484375" lon="1.565689556300640106201171875">
        <ele>147.600006103515625</ele>
        <time>2026-08-13T06:55:27.000Z</time>
        <extensions>
          <ns3:TrackPointExtension>
            <ns3:hr>81</ns3:hr>
            <ns3:cad>0</ns3:cad>
          </ns3:TrackPointExtension>
        </extensions>
      </trkpt>
      <trkpt lat="43.774364925920963287353515625" lon="1.56569265760481357574462890625">
        <ele>147.600006103515625</ele>
        <time>2026-08-13T06:55:28.000Z</time>
        <extensions>
          <ns3:TrackPointExtension>
            <ns3:hr>80</ns3:hr>
            <ns3:cad>0</ns3:cad>
          </ns3:TrackPointExtension>
        </extensions>
      </trkpt>
      <trkpt lat="43.77436987124383449554443359375" lon="1.56569726765155792236328125">
        <ele>147.600006103515625</ele>
        <time>2026-08-13T06:55:29.000Z</time>
        <extensions>
          <ns3:TrackPointExtension>
            <ns3:hr>80</ns3:hr>
            <ns3:cad>0</ns3:cad>
          </ns3:TrackPointExtension>
        </extensions>
      </trkpt>
      <trkpt lat="43.77437590621411800384521484375" lon="1.5657027997076511383056640625">
        <ele>147.600006103515625</ele>
        <time>2026-08-13T06:55:30.000Z</time>
        <extensions>
          <ns3:TrackPointExtension>
            <ns3:hr>80</ns3:hr>
            <ns3:cad>0</ns3:cad>
          </ns3:TrackPointExtension>
        </extensions>
      </trkpt>
      <trkpt lat="43.77438244409859180450439453125" lon="1.56570740975439548492431640625">
        <ele>147.600006103515625</ele>
        <time>2026-08-13T06:55:31.000Z</time>
        <extensions>
          <ns3:TrackPointExtension>
            <ns3:hr>80</ns3:hr>
            <ns3:cad>0</ns3:cad>
          </ns3:TrackPointExtension>
        </extensions>
      </trkpt>
      <trkpt lat="43.7743878923356533050537109375" lon="1.5657138638198375701904296875">
        <ele>147.600006103515625</ele>
        <time>2026-08-13T06:55:32.000Z</time>
        <extensions>
          <ns3:TrackPointExtension>
            <ns3:hr>79</ns3:hr>
            <ns3:cad>0</ns3:cad>
          </ns3:TrackPointExtension>
        </extensions>
      </trkpt>
      <trkpt lat="43.7743919156491756439208984375" lon="1.56571713276207447052001953125">
        <ele>147.399993896484375</ele>
        <time>2026-08-13T06:55:33.000Z</time>
        <extensions>
          <ns3:TrackPointExtension>
            <ns3:hr>79</ns3:hr>
            <ns3:cad>0</ns3:cad>
          </ns3:TrackPointExtension>
        </extensions>
      </trkpt>
      <trkpt lat="43.77439702861011028289794921875" lon="1.5657198987901210784912109375">
        <ele>147.399993896484375</ele>
        <time>2026-08-13T06:55:34.000Z</time>
        <extensions>
          <ns3:TrackPointExtension>
            <ns3:hr>79</ns3:hr>
            <ns3:cad>0</ns3:cad>
          </ns3:TrackPointExtension>
        </extensions>
      </trkpt>
      <trkpt lat="43.77440323121845722198486328125" lon="1.5657319687306880950927734375">
        <ele>147.399993896484375</ele>
        <time>2026-08-13T06:55:35.000Z</time>
        <extensions>
          <ns3:TrackPointExtension>
            <ns3:hr>79</ns3:hr>
            <ns3:cad>0</ns3:cad>
          </ns3:TrackPointExtension>
        </extensions>
      </trkpt>
      <trkpt lat="43.774411194026470184326171875" lon="1.56573657877743244171142578125">
        <ele>147.399993896484375</ele>
        <time>2026-08-13T06:55:36.000Z</time>
        <extensions>
          <ns3:TrackPointExtension>
            <ns3:hr>79</ns3:hr>
            <ns3:cad>0</ns3:cad>
          </ns3:TrackPointExtension>
        </extensions>
      </trkpt>
      <trkpt lat="43.7744190730154514312744140625" lon="1.5657406859099864959716796875">
        <ele>147.399993896484375</ele>
        <time>2026-08-13T06:55:37.000Z</time>
        <extensions>
          <ns3:TrackPointExtension>
            <ns3:hr>79</ns3:hr>
            <ns3:cad>0</ns3:cad>
          </ns3:TrackPointExtension>
        </extensions>
      </trkpt>
      <trkpt lat="43.77442636527121067047119140625" lon="1.56574328429996967315673828125">
        <ele>147.399993896484375</ele>
        <time>2026-08-13T06:55:38.000Z</time>
        <extensions>
          <ns3:TrackPointExtension>
            <ns3:hr>79</ns3:hr>
            <ns3:cad>0</ns3:cad>
          </ns3:TrackPointExtension>
        </extensions>
      </trkpt>
      <trkpt lat="43.774433322250843048095703125" lon="1.56574864871799945831298828125">
        <ele>147.399993896484375</ele>
        <time>2026-08-13T06:55:39.000Z</time>
        <extensions>
          <ns3:TrackPointExtension>
            <ns3:hr>80</ns3:hr>
            <ns3:cad>40</ns3:cad>
          </ns3:TrackPointExtension>
        </extensions>
      </trkpt>
      <trkpt lat="43.7744422070682048797607421875" lon="1.5657542645931243896484375">
        <ele>147.399993896484375</ele>
        <time>2026-08-13T06:55:40.000Z</time>
        <extensions>
          <ns3:TrackPointExtension>
            <ns3:hr>80</ns3:hr>
            <ns3:cad>41</ns3:cad>
          </ns3:TrackPointExtension>
        </extensions>
      </trkpt>
      <trkpt lat="43.774447739124298095703125" lon="1.56575937755405902862548828125">
        <ele>147.399993896484375</ele>
        <time>2026-08-13T06:55:41.000Z</time>
        <extensions>
          <ns3:TrackPointExtension>
            <ns3:hr>79</ns3:hr>
            <ns3:cad>40</ns3:cad>
          </ns3:TrackPointExtension>
        </extensions>
      </trkpt>
      <trkpt lat="43.77445335499942302703857421875" lon="1.565765328705310821533203125">
        <ele>147.399993896484375</ele>
        <time>2026-08-13T06:55:42.000Z</time>
        <extensions>
          <ns3:TrackPointExtension>
            <ns3:hr>78</ns3:hr>
            <ns3:cad>0</ns3:cad>
          </ns3:TrackPointExtension>
        </extensions>
      </trkpt>
      <trkpt lat="43.77445788122713565826416015625" lon="1.56577236950397491455078125">
        <ele>147.1999969482421875</ele>
        <time>2026-08-13T06:55:43.000Z</time>
        <extensions>
          <ns3:TrackPointExtension>
            <ns3:hr>78</ns3:hr>
            <ns3:cad>42</ns3:cad>
          </ns3:TrackPointExtension>
        </extensions>
      </trkpt>
      <trkpt lat="43.774462826550006866455078125" lon="1.5657802484929561614990234375">
        <ele>147.1999969482421875</ele>
        <time>2026-08-13T06:55:44.000Z</time>
        <extensions>
          <ns3:TrackPointExtension>
            <ns3:hr>78</ns3:hr>
            <ns3:cad>42</ns3:cad>
          </ns3:TrackPointExtension>
        </extensions>
      </trkpt>
      <trkpt lat="43.7744710408151149749755859375" lon="1.56578443944454193115234375">
        <ele>147.1999969482421875</ele>
        <time>2026-08-13T06:55:45.000Z</time>
        <extensions>
          <ns3:TrackPointExtension>
            <ns3:hr>78</ns3:hr>
            <ns3:cad>43</ns3:cad>
          </ns3:TrackPointExtension>
        </extensions>
      </trkpt>
      <trkpt lat="43.774479590356349945068359375" lon="1.5657864511013031005859375">
        <ele>147.1999969482421875</ele>
        <time>2026-08-13T06:55:46.000Z</time>
        <extensions>
          <ns3:TrackPointExtension>
            <ns3:hr>78</ns3:hr>
            <ns3:cad>43</ns3:cad>
          </ns3:TrackPointExtension>
        </extensions>
      </trkpt>
      <trkpt lat="43.77449140883982181549072265625" lon="1.56579156406223773956298828125">
        <ele>147.1999969482421875</ele>
        <time>2026-08-13T06:55:47.000Z</time>
        <extensions>
          <ns3:TrackPointExtension>
            <ns3:hr>78</ns3:hr>
            <ns3:cad>43</ns3:cad>
          </ns3:TrackPointExtension>
        </extensions>
      </trkpt>
      <trkpt lat="43.77449912019073963165283203125" lon="1.5658013708889484405517578125">
        <ele>147.1999969482421875</ele>
        <time>2026-08-13T06:55:48.000Z</time>
        <extensions>
          <ns3:TrackPointExtension>
            <ns3:hr>79</ns3:hr>
            <ns3:cad>42</ns3:cad>
          </ns3:TrackPointExtension>
        </extensions>
      </trkpt>
      <trkpt lat="43.77450699917972087860107421875" lon="1.56581000424921512603759765625">
        <ele>147.1999969482421875</ele>
        <time>2026-08-13T06:55:49.000Z</time>
        <extensions>
          <ns3:TrackPointExtension>
            <ns3:hr>79</ns3:hr>
            <ns3:cad>42</ns3:cad>
          </ns3:TrackPointExtension>
        </extensions>
      </trkpt>
      <trkpt lat="43.77451487816870212554931640625" lon="1.5658174641430377960205078125">
        <ele>147.1999969482421875</ele>
        <time>2026-08-13T06:55:50.000Z</time>
        <extensions>
          <ns3:TrackPointExtension>
            <ns3:hr>79</ns3:hr>
            <ns3:cad>41</ns3:cad>
          </ns3:TrackPointExtension>
        </extensions>
      </trkpt>
      <trkpt lat="43.7745220027863979339599609375" lon="1.56582140363752841949462890625">
        <ele>147.1999969482421875</ele>
        <time>2026-08-13T06:55:51.000Z</time>
        <extensions>
          <ns3:TrackPointExtension>
            <ns3:hr>78</ns3:hr>
            <ns3:cad>41</ns3:cad>
          </ns3:TrackPointExtension>
        </extensions>
      </trkpt>
      <trkpt lat="43.77452845685184001922607421875" lon="1.56582676805555820465087890625">
        <ele>147</ele>
        <time>2026-08-13T06:55:52.000Z</time>
        <extensions>
          <ns3:TrackPointExtension>
            <ns3:hr>79</ns3:hr>
            <ns3:cad>41</ns3:cad>
          </ns3:TrackPointExtension>
        </extensions>
      </trkpt>
      <trkpt lat="43.7745344080030918121337890625" lon="1.56583297066390514373779296875">
        <ele>147</ele>
        <time>2026-08-13T06:55:53.000Z</time>
        <extensions>
          <ns3:TrackPointExtension>
            <ns3:hr>79</ns3:hr>
            <ns3:cad>41</ns3:cad>
          </ns3:TrackPointExtension>
        </extensions>
      </trkpt>
      <trkpt lat="43.7745434604585170745849609375" lon="1.56583749689161777496337890625">
        <ele>147</ele>
        <time>2026-08-13T06:55:54.000Z</time>
        <extensions>
          <ns3:TrackPointExtension>
            <ns3:hr>79</ns3:hr>
            <ns3:cad>43</ns3:cad>
          </ns3:TrackPointExtension>
        </extensions>
      </trkpt>
      <trkpt lat="43.77454991452395915985107421875" lon="1.5658412687480449676513671875">
        <ele>147</ele>
        <time>2026-08-13T06:55:55.000Z</time>
        <extensions>
          <ns3:TrackPointExtension>
            <ns3:hr>79</ns3:hr>
            <ns3:cad>43</ns3:cad>
          </ns3:TrackPointExtension>
        </extensions>
      </trkpt>
      <trkpt lat="43.77455712296068668365478515625" lon="1.56584688462316989898681640625">
        <ele>146.8000030517578125</ele>
        <time>2026-08-13T06:55:56.000Z</time>
        <extensions>
          <ns3:TrackPointExtension>
            <ns3:hr>80</ns3:hr>
            <ns3:cad>43</ns3:cad>
          </ns3:TrackPointExtension>
        </extensions>
      </trkpt>
      <trkpt lat="43.774566762149333953857421875" lon="1.56585275195538997650146484375">
        <ele>146.8000030517578125</ele>
        <time>2026-08-13T06:55:57.000Z</time>
        <extensions>
          <ns3:TrackPointExtension>
            <ns3:hr>80</ns3:hr>
            <ns3:cad>42</ns3:cad>
          </ns3:TrackPointExtension>
        </extensions>
      </trkpt>
      <trkpt lat="43.77457673661410808563232421875" lon="1.5658536739647388458251953125">
        <ele>146.8000030517578125</ele>
        <time>2026-08-13T06:55:58.000Z</time>
        <extensions>
          <ns3:TrackPointExtension>
            <ns3:hr>80</ns3:hr>
            <ns3:cad>42</ns3:cad>
          </ns3:TrackPointExtension>
        </extensions>
      </trkpt>
      <trkpt lat="43.77458595670759677886962890625" lon="1.56585794873535633087158203125">
        <ele>146.8000030517578125</ele>
        <time>2026-08-13T06:55:59.000Z</time>
        <extensions>
          <ns3:TrackPointExtension>
            <ns3:hr>79</ns3:hr>
            <ns3:cad>42</ns3:cad>
          </ns3:TrackPointExtension>
        </extensions>
      </trkpt>
      <trkpt lat="43.7745927460491657257080078125" lon="1.5658677555620670318603515625">
        <ele>146.8000030517578125</ele>
        <time>2026-08-13T06:56:00.000Z</time>
        <extensions>
          <ns3:TrackPointExtension>
            <ns3:hr>79</ns3:hr>
            <ns3:cad>43</ns3:cad>
          </ns3:TrackPointExtension>
        </extensions>
      </trkpt>
      <trkpt lat="43.77459953539073467254638671875" lon="1.56587521545588970184326171875">
        <ele>146.8000030517578125</ele>
        <time>2026-08-13T06:56:01.000Z</time>
        <extensions>
          <ns3:TrackPointExtension>
            <ns3:hr>78</ns3:hr>
            <ns3:cad>44</ns3:cad>
          </ns3:TrackPointExtension>
        </extensions>
      </trkpt>
      <trkpt lat="43.7746078334748744964599609375" lon="1.56588091515004634857177734375">
        <ele>146.8000030517578125</ele>
        <time>2026-08-13T06:56:02.000Z</time>
        <extensions>
          <ns3:TrackPointExtension>
            <ns3:hr>78</ns3:hr>
            <ns3:cad>47</ns3:cad>
          </ns3:TrackPointExtension>
        </extensions>
      </trkpt>
      <trkpt lat="43.77461395226418972015380859375" lon="1.565885357558727264404296875">
        <ele>146.8000030517578125</ele>
        <time>2026-08-13T06:56:03.000Z</time>
        <extensions>
          <ns3:TrackPointExtension>
            <ns3:hr>78</ns3:hr>
            <ns3:cad>47</ns3:cad>
          </ns3:TrackPointExtension>
        </extensions>
      </trkpt>
      <trkpt lat="43.7746207416057586669921875" lon="1.565890051424503326416015625">
        <ele>146.600006103515625</ele>
        <time>2026-08-13T06:56:04.000Z</time>
        <extensions>
          <ns3:TrackPointExtension>
            <ns3:hr>78</ns3:hr>
            <ns3:cad>47</ns3:cad>
          </ns3:TrackPointExtension>
        </extensions>
      </trkpt>
      <trkpt lat="43.7746287882328033447265625" lon="1.5658945776522159576416015625">
        <ele>146.600006103515625</ele>
        <time>2026-08-13T06:56:05.000Z</time>
        <extensions>
          <ns3:TrackPointExtension>
            <ns3:hr>78</ns3:hr>
            <ns3:cad>47</ns3:cad>
          </ns3:TrackPointExtension>
        </extensions>
      </trkpt>
      <trkpt lat="43.77463608048856258392333984375" lon="1.5659009478986263275146484375">
        <ele>146.600006103515625</ele>
        <time>2026-08-13T06:56:06.000Z</time>
        <extensions>
          <ns3:TrackPointExtension>
            <ns3:hr>78</ns3:hr>
            <ns3:cad>47</ns3:cad>
          </ns3:TrackPointExtension>
        </extensions>
      </trkpt>
      <trkpt lat="43.77464362420141696929931640625" lon="1.56590941362082958221435546875">
        <ele>146.600006103515625</ele>
        <time>2026-08-13T06:56:07.000Z</time>
        <extensions>
          <ns3:TrackPointExtension>
            <ns3:hr>78</ns3:hr>
            <ns3:cad>47</ns3:cad>
          </ns3:TrackPointExtension>
        </extensions>
      </trkpt>
      <trkpt lat="43.77465049736201763153076171875" lon="1.56591695733368396759033203125">
        <ele>146.600006103515625</ele>
        <time>2026-08-13T06:56:08.000Z</time>
        <extensions>
          <ns3:TrackPointExtension>
            <ns3:hr>78</ns3:hr>
            <ns3:cad>44</ns3:cad>
          </ns3:TrackPointExtension>
        </extensions>
      </trkpt>
      <trkpt lat="43.7746574543416500091552734375" lon="1.56592450104653835296630859375">
        <ele>146.600006103515625</ele>
        <time>2026-08-13T06:56:09.000Z</time>
        <extensions>
          <ns3:TrackPointExtension>
            <ns3:hr>78</ns3:hr>
            <ns3:cad>43</ns3:cad>
          </ns3:TrackPointExtension>
        </extensions>
      </trkpt>
      <trkpt lat="43.7746644951403141021728515625" lon="1.5659331344068050384521484375">
        <ele>146.600006103515625</ele>
        <time>2026-08-13T06:56:10.000Z</time>
        <extensions>
          <ns3:TrackPointExtension>
            <ns3:hr>77</ns3:hr>
            <ns3:cad>41</ns3:cad>
          </ns3:TrackPointExtension>
        </extensions>
      </trkpt>
      <trkpt lat="43.7746717035770416259765625" lon="1.565938331186771392822265625">
        <ele>146.399993896484375</ele>
        <time>2026-08-13T06:56:11.000Z</time>
        <extensions>
          <ns3:TrackPointExtension>
            <ns3:hr>77</ns3:hr>
            <ns3:cad>42</ns3:cad>
          </ns3:TrackPointExtension>
        </extensions>
      </trkpt>
      <trkpt lat="43.7746799178421497344970703125" lon="1.56594210304319858551025390625">
        <ele>146.399993896484375</ele>
        <time>2026-08-13T06:56:12.000Z</time>
        <extensions>
          <ns3:TrackPointExtension>
            <ns3:hr>77</ns3:hr>
            <ns3:cad>42</ns3:cad>
          </ns3:TrackPointExtension>
        </extensions>
      </trkpt>
      <trkpt lat="43.77468712627887725830078125" lon="1.56594671308994293212890625">
        <ele>146.399993896484375</ele>
        <time>2026-08-13T06:56:13.000Z</time>
        <extensions>
          <ns3:TrackPointExtension>
            <ns3:hr>77</ns3:hr>
            <ns3:cad>42</ns3:cad>
          </ns3:TrackPointExtension>
        </extensions>
      </trkpt>
      <trkpt lat="43.77469140104949474334716796875" lon="1.56595031730830669403076171875">
        <ele>146.399993896484375</ele>
        <time>2026-08-13T06:56:14.000Z</time>
        <extensions>
          <ns3:TrackPointExtension>
            <ns3:hr>76</ns3:hr>
            <ns3:cad>41</ns3:cad>
          </ns3:TrackPointExtension>
        </extensions>
      </trkpt>
      <trkpt lat="43.77470062114298343658447265625" lon="1.5659559331834316253662109375">
        <ele>146.399993896484375</ele>
        <time>2026-08-13T06:56:15.000Z</time>
        <extensions>
          <ns3:TrackPointExtension>
            <ns3:hr>77</ns3:hr>
            <ns3:cad>0</ns3:cad>
          </ns3:TrackPointExtension>
        </extensions>
      </trkpt>
      <trkpt lat="43.77470456063747406005859375" lon="1.5659599564969539642333984375">
        <ele>146.399993896484375</ele>
        <time>2026-08-13T06:56:16.000Z</time>
        <extensions>
          <ns3:TrackPointExtension>
            <ns3:hr>77</ns3:hr>
            <ns3:cad>0</ns3:cad>
          </ns3:TrackPointExtension>
        </extensions>
      </trkpt>
      <trkpt lat="43.77471168525516986846923828125" lon="1.56596548855304718017578125">
        <ele>146.399993896484375</ele>
        <time>2026-08-13T06:56:17.000Z</time>
        <extensions>
          <ns3:TrackPointExtension>
            <ns3:hr>76</ns3:hr>
            <ns3:cad>0</ns3:cad>
          </ns3:TrackPointExtension>
        </extensions>
      </trkpt>
      <trkpt lat="43.774720318615436553955078125" lon="1.56596825458109378814697265625">
        <ele>146.399993896484375</ele>
        <time>2026-08-13T06:56:18.000Z</time>
        <extensions>
          <ns3:TrackPointExtension>
            <ns3:hr>76</ns3:hr>
            <ns3:cad>41</ns3:cad>
          </ns3:TrackPointExtension>
        </extensions>
      </trkpt>
      <trkpt lat="43.77472777850925922393798828125" lon="1.565971188247203826904296875">
        <ele>146.399993896484375</ele>
        <time>2026-08-13T06:56:19.000Z</time>
        <extensions>
          <ns3:TrackPointExtension>
            <ns3:hr>76</ns3:hr>
            <ns3:cad>41</ns3:cad>
          </ns3:TrackPointExtension>
        </extensions>
      </trkpt>
      <trkpt lat="43.774734400212764739990234375" lon="1.56597747467458248138427734375">
        <ele>146.399993896484375</ele>
        <time>2026-08-13T06:56:20.000Z</time>
        <extensions>
          <ns3:TrackPointExtension>
            <ns3:hr>76</ns3:hr>
            <ns3:cad>41</ns3:cad>
          </ns3:TrackPointExtension>
        </extensions>
      </trkpt>
      <trkpt lat="43.7747409380972385406494140625" lon="1.56598317436873912811279296875">
        <ele>146.399993896484375</ele>
        <time>2026-08-13T06:56:21.000Z</time>
        <extensions>
          <ns3:TrackPointExtension>
            <ns3:hr>75</ns3:hr>
            <ns3:cad>41</ns3:cad>
          </ns3:TrackPointExtension>
        </extensions>
      </trkpt>
      <trkpt lat="43.7747483141720294952392578125" lon="1.5659847669303417205810546875">
        <ele>146.399993896484375</ele>
        <time>2026-08-13T06:56:22.000Z</time>
        <extensions>
          <ns3:TrackPointExtension>
            <ns3:hr>76</ns3:hr>
            <ns3:cad>41</ns3:cad>
          </ns3:TrackPointExtension>
        </extensions>
      </trkpt>
      <trkpt lat="43.77475577406585216522216796875" lon="1.56598753295838832855224609375">
        <ele>146.399993896484375</ele>
        <time>2026-08-13T06:56:23.000Z</time>
        <extensions>
          <ns3:TrackPointExtension>
            <ns3:hr>76</ns3:hr>
            <ns3:cad>41</ns3:cad>
          </ns3:TrackPointExtension>
        </extensions>
      </trkpt>
      <trkpt lat="43.77476449124515056610107421875" lon="1.56599189154803752899169921875">
        <ele>146.399993896484375</ele>
        <time>2026-08-13T06:56:24.000Z</time>
        <extensions>
          <ns3:TrackPointExtension>
            <ns3:hr>76</ns3:hr>
            <ns3:cad>41</ns3:cad>
          </ns3:TrackPointExtension>
        </extensions>
      </trkpt>
      <trkpt lat="43.7747717835009098052978515625" lon="1.5659938193857669830322265625">
        <ele>146.1999969482421875</ele>
        <time>2026-08-13T06:56:25.000Z</time>
        <extensions>
          <ns3:TrackPointExtension>
            <ns3:hr>76</ns3:hr>
            <ns3:cad>44</ns3:cad>
          </ns3:TrackPointExtension>
        </extensions>
      </trkpt>
      <trkpt lat="43.774778656661510467529296875" lon="1.56599943526089191436767578125">
        <ele>146.1999969482421875</ele>
        <time>2026-08-13T06:56:26.000Z</time>
        <extensions>
          <ns3:TrackPointExtension>
            <ns3:hr>76</ns3:hr>
            <ns3:cad>44</ns3:cad>
          </ns3:TrackPointExtension>
        </extensions>
      </trkpt>
      <trkpt lat="43.77478460781276226043701171875" lon="1.5660075657069683074951171875">
        <ele>146.1999969482421875</ele>
        <time>2026-08-13T06:56:27.000Z</time>
        <extensions>
          <ns3:TrackPointExtension>
            <ns3:hr>76</ns3:hr>
            <ns3:cad>44</ns3:cad>
          </ns3:TrackPointExtension>
        </extensions>
      </trkpt>
      <trkpt lat="43.77479039132595062255859375" lon="1.5660085715353488922119140625">
        <ele>146.1999969482421875</ele>
        <time>2026-08-13T06:56:28.000Z</time>
        <extensions>
          <ns3:TrackPointExtension>
            <ns3:hr>76</ns3:hr>
            <ns3:cad>44</ns3:cad>
          </ns3:TrackPointExtension>
        </extensions>
      </trkpt>
      <trkpt lat="43.77479734830558300018310546875" lon="1.566012091934680938720703125">
        <ele>146.1999969482421875</ele>
        <time>2026-08-13T06:56:29.000Z</time>
        <extensions>
          <ns3:TrackPointExtension>
            <ns3:hr>76</ns3:hr>
            <ns3:cad>43</ns3:cad>
          </ns3:TrackPointExtension>
        </extensions>
      </trkpt>
      <trkpt lat="43.7748056463897228240966796875" lon="1.566017456352710723876953125">
        <ele>146.1999969482421875</ele>
        <time>2026-08-13T06:56:30.000Z</time>
        <extensions>
          <ns3:TrackPointExtension>
            <ns3:hr>75</ns3:hr>
            <ns3:cad>42</ns3:cad>
          </ns3:TrackPointExtension>
        </extensions>
      </trkpt>
      <trkpt lat="43.77480958588421344757080078125" lon="1.56602089293301105499267578125">
        <ele>146.1999969482421875</ele>
        <time>2026-08-13T06:56:31.000Z</time>
        <extensions>
          <ns3:TrackPointExtension>
            <ns3:hr>75</ns3:hr>
            <ns3:cad>42</ns3:cad>
          </ns3:TrackPointExtension>
        </extensions>
      </trkpt>
      <trkpt lat="43.77481729723513126373291015625" lon="1.56602449715137481689453125">
        <ele>146</ele>
        <time>2026-08-13T06:56:32.000Z</time>
        <extensions>
          <ns3:TrackPointExtension>
            <ns3:hr>75</ns3:hr>
            <ns3:cad>40</ns3:cad>
          </ns3:TrackPointExtension>
        </extensions>
      </trkpt>
      <trkpt lat="43.7748230807483196258544921875" lon="1.56602944247424602508544921875">
        <ele>146</ele>
        <time>2026-08-13T06:56:33.000Z</time>
        <extensions>
          <ns3:TrackPointExtension>
            <ns3:hr>75</ns3:hr>
            <ns3:cad>40</ns3:cad>
          </ns3:TrackPointExtension>
        </extensions>
      </trkpt>
      <trkpt lat="43.77482526004314422607421875" lon="1.5660313703119754791259765625">
        <ele>146</ele>
        <time>2026-08-13T06:56:34.000Z</time>
        <extensions>
          <ns3:TrackPointExtension>
            <ns3:hr>75</ns3:hr>
            <ns3:cad>40</ns3:cad>
          </ns3:TrackPointExtension>
        </extensions>
      </trkpt>
      <trkpt lat="43.77483188174664974212646484375" lon="1.566032208502292633056640625">
        <ele>146</ele>
        <time>2026-08-13T06:56:35.000Z</time>
        <extensions>
          <ns3:TrackPointExtension>
            <ns3:hr>75</ns3:hr>
            <ns3:cad>0</ns3:cad>
          </ns3:TrackPointExtension>
        </extensions>
      </trkpt>
      <trkpt lat="43.774839006364345550537109375" lon="1.566034890711307525634765625">
        <ele>146</ele>
        <time>2026-08-13T06:56:36.000Z</time>
        <extensions>
          <ns3:TrackPointExtension>
            <ns3:hr>74</ns3:hr>
            <ns3:cad>0</ns3:cad>
          </ns3:TrackPointExtension>
        </extensions>
      </trkpt>
      <trkpt lat="43.77484730444848537445068359375" lon="1.56603665091097354888916015625">
        <ele>146</ele>
        <time>2026-08-13T06:56:37.000Z</time>
        <extensions>
          <ns3:TrackPointExtension>
            <ns3:hr>75</ns3:hr>
            <ns3:cad>0</ns3:cad>
          </ns3:TrackPointExtension>
        </extensions>
      </trkpt>
      <trkpt lat="43.77485719509422779083251953125" lon="1.56603815965354442596435546875">
        <ele>146</ele>
        <time>2026-08-13T06:56:38.000Z</time>
        <extensions>
          <ns3:TrackPointExtension>
            <ns3:hr>75</ns3:hr>
            <ns3:cad>0</ns3:cad>
          </ns3:TrackPointExtension>
        </extensions>
      </trkpt>
      <trkpt lat="43.774865157902240753173828125" lon="1.5660414285957813262939453125">
        <ele>146</ele>
        <time>2026-08-13T06:56:39.000Z</time>
        <extensions>
          <ns3:TrackPointExtension>
            <ns3:hr>74</ns3:hr>
            <ns3:cad>0</ns3:cad>
          </ns3:TrackPointExtension>
        </extensions>
      </trkpt>
      <trkpt lat="43.77487328834831714630126953125" lon="1.56604452989995479583740234375">
        <ele>146</ele>
        <time>2026-08-13T06:56:40.000Z</time>
        <extensions>
          <ns3:TrackPointExtension>
            <ns3:hr>74</ns3:hr>
            <ns3:cad>0</ns3:cad>
          </ns3:TrackPointExtension>
        </extensions>
      </trkpt>
      <trkpt lat="43.7748807482421398162841796875" lon="1.56604553572833538055419921875">
        <ele>146</ele>
        <time>2026-08-13T06:56:41.000Z</time>
        <extensions>
          <ns3:TrackPointExtension>
            <ns3:hr>73</ns3:hr>
            <ns3:cad>0</ns3:cad>
          </ns3:TrackPointExtension>
        </extensions>
      </trkpt>
      <trkpt lat="43.7748864479362964630126953125" lon="1.56604888848960399627685546875">
        <ele>146</ele>
        <time>2026-08-13T06:56:42.000Z</time>
        <extensions>
          <ns3:TrackPointExtension>
            <ns3:hr>73</ns3:hr>
            <ns3:cad>78</ns3:cad>
          </ns3:TrackPointExtension>
        </extensions>
      </trkpt>
      <trkpt lat="43.77489306963980197906494140625" lon="1.56605173833668231964111328125">
        <ele>146</ele>
        <time>2026-08-13T06:56:43.000Z</time>
        <extensions>
          <ns3:TrackPointExtension>
            <ns3:hr>73</ns3:hr>
            <ns3:cad>78</ns3:cad>
          </ns3:TrackPointExtension>
        </extensions>
      </trkpt>
      <trkpt lat="43.774900697171688079833984375" lon="1.56605400145053863525390625">
        <ele>146</ele>
        <time>2026-08-13T06:56:44.000Z</time>
        <extensions>
          <ns3:TrackPointExtension>
            <ns3:hr>74</ns3:hr>
            <ns3:cad>78</ns3:cad>
          </ns3:TrackPointExtension>
        </extensions>
      </trkpt>
      <trkpt lat="43.774908743798732757568359375" lon="1.56605727039277553558349609375">
        <ele>146</ele>
        <time>2026-08-13T06:56:45.000Z</time>
        <extensions>
          <ns3:TrackPointExtension>
            <ns3:hr>73</ns3:hr>
            <ns3:cad>41</ns3:cad>
          </ns3:TrackPointExtension>
        </extensions>
      </trkpt>
      <trkpt lat="43.77491553314030170440673828125" lon="1.566060371696949005126953125">
        <ele>146</ele>
        <time>2026-08-13T06:56:46.000Z</time>
        <extensions>
          <ns3:TrackPointExtension>
            <ns3:hr>73</ns3:hr>
            <ns3:cad>42</ns3:cad>
          </ns3:TrackPointExtension>
        </extensions>
      </trkpt>
      <trkpt lat="43.77492726780474185943603515625" lon="1.56606850214302539825439453125">
        <ele>146</ele>
        <time>2026-08-13T06:56:47.000Z</time>
        <extensions>
          <ns3:TrackPointExtension>
            <ns3:hr>73</ns3:hr>
            <ns3:cad>42</ns3:cad>
          </ns3:TrackPointExtension>
        </extensions>
      </trkpt>
      <trkpt lat="43.77493732608854770660400390625" lon="1.566069424152374267578125">
        <ele>146</ele>
        <time>2026-08-13T06:56:48.000Z</time>
        <extensions>
          <ns3:TrackPointExtension>
            <ns3:hr>74</ns3:hr>
            <ns3:cad>42</ns3:cad>
          </ns3:TrackPointExtension>
        </extensions>
      </trkpt>
      <trkpt lat="43.77494839020073413848876953125" lon="1.56607302837073802947998046875">
        <ele>146</ele>
        <time>2026-08-13T06:56:49.000Z</time>
        <extensions>
          <ns3:TrackPointExtension>
            <ns3:hr>73</ns3:hr>
            <ns3:cad>43</ns3:cad>
          </ns3:TrackPointExtension>
        </extensions>
      </trkpt>
      <trkpt lat="43.77495559863746166229248046875" lon="1.56607889570295810699462890625">
        <ele>146</ele>
        <time>2026-08-13T06:56:50.000Z</time>
        <extensions>
          <ns3:TrackPointExtension>
            <ns3:hr>73</ns3:hr>
            <ns3:cad>44</ns3:cad>
          </ns3:TrackPointExtension>
        </extensions>
      </trkpt>
      <trkpt lat="43.77496733330190181732177734375" lon="1.56608342193067073822021484375">
        <ele>146</ele>
        <time>2026-08-13T06:56:51.000Z</time>
        <extensions>
          <ns3:TrackPointExtension>
            <ns3:hr>74</ns3:hr>
            <ns3:cad>45</ns3:cad>
          </ns3:TrackPointExtension>
        </extensions>
      </trkpt>
      <trkpt lat="43.77497655339539051055908203125" lon="1.5660873614251613616943359375">
        <ele>146</ele>
        <time>2026-08-13T06:56:52.000Z</time>
        <extensions>
          <ns3:TrackPointExtension>
            <ns3:hr>75</ns3:hr>
            <ns3:cad>46</ns3:cad>
          </ns3:TrackPointExtension>
        </extensions>
      </trkpt>
      <trkpt lat="43.77498728223145008087158203125" lon="1.56608744524419307708740234375">
        <ele>146</ele>
        <time>2026-08-13T06:56:53.000Z</time>
        <extensions>
          <ns3:TrackPointExtension>
            <ns3:hr>77</ns3:hr>
            <ns3:cad>46</ns3:cad>
          </ns3:TrackPointExtension>
        </extensions>
      </trkpt>
      <trkpt lat="43.774995245039463043212890625" lon="1.56608912162482738494873046875">
        <ele>145.8000030517578125</ele>
        <time>2026-08-13T06:56:54.000Z</time>
        <extensions>
          <ns3:TrackPointExtension>
            <ns3:hr>77</ns3:hr>
            <ns3:cad>45</ns3:cad>
          </ns3:TrackPointExtension>
        </extensions>
      </trkpt>
      <trkpt lat="43.7750048004090785980224609375" lon="1.56609163619577884674072265625">
        <ele>145.8000030517578125</ele>
        <time>2026-08-13T06:56:55.000Z</time>
        <extensions>
          <ns3:TrackPointExtension>
            <ns3:hr>78</ns3:hr>
            <ns3:cad>45</ns3:cad>
          </ns3:TrackPointExtension>
        </extensions>
      </trkpt>
      <trkpt lat="43.77501393668353557586669921875" lon="1.5660917200148105621337890625">
        <ele>145.8000030517578125</ele>
        <time>2026-08-13T06:56:56.000Z</time>
        <extensions>
          <ns3:TrackPointExtension>
            <ns3:hr>79</ns3:hr>
            <ns3:cad>45</ns3:cad>
          </ns3:TrackPointExtension>
        </extensions>
      </trkpt>
      <trkpt lat="43.77502131275832653045654296875" lon="1.56609381549060344696044921875">
        <ele>145.8000030517578125</ele>
        <time>2026-08-13T06:56:57.000Z</time>
        <extensions>
          <ns3:TrackPointExtension>
            <ns3:hr>80</ns3:hr>
            <ns3:cad>44</ns3:cad>
          </ns3:TrackPointExtension>
        </extensions>
      </trkpt>
      <trkpt lat="43.7750282697379589080810546875" lon="1.56609649769961833953857421875">
        <ele>145.8000030517578125</ele>
        <time>2026-08-13T06:56:58.000Z</time>
        <extensions>
          <ns3:TrackPointExtension>
            <ns3:hr>80</ns3:hr>
            <ns3:cad>44</ns3:cad>
          </ns3:TrackPointExtension>
        </extensions>
      </trkpt>
      <trkpt lat="43.7750351428985595703125" lon="1.56609733588993549346923828125">
        <ele>145.8000030517578125</ele>
        <time>2026-08-13T06:56:59.000Z</time>
        <extensions>
          <ns3:TrackPointExtension>
            <ns3:hr>80</ns3:hr>
            <ns3:cad>0</ns3:cad>
          </ns3:TrackPointExtension>
        </extensions>
      </trkpt>
      <trkpt lat="43.77504142932593822479248046875" lon="1.5660994313657283782958984375">
        <ele>146</ele>
        <time>2026-08-13T06:57:00.000Z</time>
        <extensions>
          <ns3:TrackPointExtension>
            <ns3:hr>80</ns3:hr>
            <ns3:cad>0</ns3:cad>
          </ns3:TrackPointExtension>
        </extensions>
      </trkpt>
      <trkpt lat="43.77505199052393436431884765625" lon="1.5661024488508701324462890625">
        <ele>146</ele>
        <time>2026-08-13T06:57:01.000Z</time>
        <extensions>
          <ns3:TrackPointExtension>
            <ns3:hr>79</ns3:hr>
            <ns3:cad>0</ns3:cad>
          </ns3:TrackPointExtension>
        </extensions>
      </trkpt>
      <trkpt lat="43.7750614620745182037353515625" lon="1.56610370613634586334228515625">
        <ele>146</ele>
        <time>2026-08-13T06:57:02.000Z</time>
        <extensions>
          <ns3:TrackPointExtension>
            <ns3:hr>79</ns3:hr>
            <ns3:cad>0</ns3:cad>
          </ns3:TrackPointExtension>
        </extensions>
      </trkpt>
      <trkpt lat="43.775069676339626312255859375" lon="1.56610454432666301727294921875">
        <ele>145.8000030517578125</ele>
        <time>2026-08-13T06:57:03.000Z</time>
        <extensions>
          <ns3:TrackPointExtension>
            <ns3:hr>79</ns3:hr>
            <ns3:cad>0</ns3:cad>
          </ns3:TrackPointExtension>
        </extensions>
      </trkpt>
      <trkpt lat="43.77507747150957584381103515625" lon="1.5661054663360118865966796875">
        <ele>145.8000030517578125</ele>
        <time>2026-08-13T06:57:04.000Z</time>
        <extensions>
          <ns3:TrackPointExtension>
            <ns3:hr>80</ns3:hr>
            <ns3:cad>42</ns3:cad>
          </ns3:TrackPointExtension>
        </extensions>
      </trkpt>
      <trkpt lat="43.77508803270757198333740234375" lon="1.56610722653567790985107421875">
        <ele>145.8000030517578125</ele>
        <time>2026-08-13T06:57:05.000Z</time>
        <extensions>
          <ns3:TrackPointExtension>
            <ns3:hr>80</ns3:hr>
            <ns3:cad>42</ns3:cad>
          </ns3:TrackPointExtension>
        </extensions>
      </trkpt>
      <trkpt lat="43.7750986777245998382568359375" lon="1.56610873527824878692626953125">
        <ele>145.8000030517578125</ele>
        <time>2026-08-13T06:57:06.000Z</time>
        <extensions>
          <ns3:TrackPointExtension>
            <ns3:hr>80</ns3:hr>
            <ns3:cad>43</ns3:cad>
          </ns3:TrackPointExtension>
        </extensions>
      </trkpt>
      <trkpt lat="43.7751090712845325469970703125" lon="1.56611007638275623321533203125">
        <ele>145.8000030517578125</ele>
        <time>2026-08-13T06:57:07.000Z</time>
        <extensions>
          <ns3:TrackPointExtension>
            <ns3:hr>80</ns3:hr>
            <ns3:cad>44</ns3:cad>
          </ns3:TrackPointExtension>
        </extensions>
      </trkpt>
      <trkpt lat="43.77511753700673580169677734375" lon="1.566112339496612548828125">
        <ele>146</ele>
        <time>2026-08-13T06:57:08.000Z</time>
        <extensions>
          <ns3:TrackPointExtension>
            <ns3:hr>80</ns3:hr>
            <ns3:cad>44</ns3:cad>
          </ns3:TrackPointExtension>
        </extensions>
      </trkpt>
      <trkpt lat="43.7751276791095733642578125" lon="1.5661165304481983184814453125">
        <ele>146</ele>
        <time>2026-08-13T06:57:09.000Z</time>
        <extensions>
          <ns3:TrackPointExtension>
            <ns3:hr>79</ns3:hr>
            <ns3:cad>44</ns3:cad>
          </ns3:TrackPointExtension>
        </extensions>
      </trkpt>
      <trkpt lat="43.775138072669506072998046875" lon="1.56612348742783069610595703125">
        <ele>145.8000030517578125</ele>
        <time>2026-08-13T06:57:10.000Z</time>
        <extensions>
          <ns3:TrackPointExtension>
            <ns3:hr>79</ns3:hr>
            <ns3:cad>44</ns3:cad>
          </ns3:TrackPointExtension>
        </extensions>
      </trkpt>
      <trkpt lat="43.77514737658202648162841796875" lon="1.5661245770752429962158203125">
        <ele>145.8000030517578125</ele>
        <time>2026-08-13T06:57:11.000Z</time>
        <extensions>
          <ns3:TrackPointExtension>
            <ns3:hr>79</ns3:hr>
            <ns3:cad>44</ns3:cad>
          </ns3:TrackPointExtension>
        </extensions>
      </trkpt>
      <trkpt lat="43.77515441738069057464599609375" lon="1.566128768026828765869140625">
        <ele>145.8000030517578125</ele>
        <time>2026-08-13T06:57:12.000Z</time>
        <extensions>
          <ns3:TrackPointExtension>
            <ns3:hr>80</ns3:hr>
            <ns3:cad>45</ns3:cad>
          </ns3:TrackPointExtension>
        </extensions>
      </trkpt>
      <trkpt lat="43.77516229636967182159423828125" lon="1.5661324560642242431640625">
        <ele>145.8000030517578125</ele>
        <time>2026-08-13T06:57:13.000Z</time>
        <extensions>
          <ns3:TrackPointExtension>
            <ns3:hr>80</ns3:hr>
            <ns3:cad>46</ns3:cad>
          </ns3:TrackPointExtension>
        </extensions>
      </trkpt>
      <trkpt lat="43.77517051063477993011474609375" lon="1.56613647937774658203125">
        <ele>145.8000030517578125</ele>
        <time>2026-08-13T06:57:14.000Z</time>
        <extensions>
          <ns3:TrackPointExtension>
            <ns3:hr>80</ns3:hr>
            <ns3:cad>45</ns3:cad>
          </ns3:TrackPointExtension>
        </extensions>
      </trkpt>
      <trkpt lat="43.77517989836633205413818359375" lon="1.56613656319677829742431640625">
        <ele>145.8000030517578125</ele>
        <time>2026-08-13T06:57:15.000Z</time>
        <extensions>
          <ns3:TrackPointExtension>
            <ns3:hr>81</ns3:hr>
            <ns3:cad>45</ns3:cad>
          </ns3:TrackPointExtension>
        </extensions>
      </trkpt>
      <trkpt lat="43.77518777735531330108642578125" lon="1.56613756902515888214111328125">
        <ele>145.8000030517578125</ele>
        <time>2026-08-13T06:57:16.000Z</time>
        <extensions>
          <ns3:TrackPointExtension>
            <ns3:hr>81</ns3:hr>
            <ns3:cad>45</ns3:cad>
          </ns3:TrackPointExtension>
        </extensions>
      </trkpt>
      <trkpt lat="43.77519582398235797882080078125" lon="1.566142179071903228759765625">
        <ele>145.8000030517578125</ele>
        <time>2026-08-13T06:57:17.000Z</time>
        <extensions>
          <ns3:TrackPointExtension>
            <ns3:hr>81</ns3:hr>
            <ns3:cad>45</ns3:cad>
          </ns3:TrackPointExtension>
        </extensions>
      </trkpt>
      <trkpt lat="43.77520320005714893341064453125" lon="1.56614595092833042144775390625">
        <ele>145.8000030517578125</ele>
        <time>2026-08-13T06:57:18.000Z</time>
        <extensions>
          <ns3:TrackPointExtension>
            <ns3:hr>81</ns3:hr>
            <ns3:cad>44</ns3:cad>
          </ns3:TrackPointExtension>
        </extensions>
      </trkpt>
      <trkpt lat="43.7752140127122402191162109375" lon="1.566148214042186737060546875">
        <ele>145.8000030517578125</ele>
        <time>2026-08-13T06:57:19.000Z</time>
        <extensions>
          <ns3:TrackPointExtension>
            <ns3:hr>81</ns3:hr>
            <ns3:cad>44</ns3:cad>
          </ns3:TrackPointExtension>
        </extensions>
      </trkpt>
      <trkpt lat="43.77522289752960205078125" lon="1.566150896251201629638671875">
        <ele>145.8000030517578125</ele>
        <time>2026-08-13T06:57:20.000Z</time>
        <extensions>
          <ns3:TrackPointExtension>
            <ns3:hr>82</ns3:hr>
            <ns3:cad>44</ns3:cad>
          </ns3:TrackPointExtension>
        </extensions>
      </trkpt>
      <trkpt lat="43.7752324528992176055908203125" lon="1.5661530755460262298583984375">
        <ele>145.8000030517578125</ele>
        <time>2026-08-13T06:57:21.000Z</time>
        <extensions>
          <ns3:TrackPointExtension>
            <ns3:hr>82</ns3:hr>
            <ns3:cad>44</ns3:cad>
          </ns3:TrackPointExtension>
        </extensions>
      </trkpt>
      <trkpt lat="43.7752425111830234527587890625" lon="1.5661547519266605377197265625">
        <ele>145.8000030517578125</ele>
        <time>2026-08-13T06:57:22.000Z</time>
        <extensions>
          <ns3:TrackPointExtension>
            <ns3:hr>82</ns3:hr>
            <ns3:cad>44</ns3:cad>
          </ns3:TrackPointExtension>
        </extensions>
      </trkpt>
      <trkpt lat="43.7752525694668292999267578125" lon="1.56615726649761199951171875">
        <ele>145.8000030517578125</ele>
        <time>2026-08-13T06:57:23.000Z</time>
        <extensions>
          <ns3:TrackPointExtension>
            <ns3:hr>82</ns3:hr>
            <ns3:cad>44</ns3:cad>
          </ns3:TrackPointExtension>
        </extensions>
      </trkpt>
      <trkpt lat="43.77526103518903255462646484375" lon="1.56616338528692722320556640625">
        <ele>145.8000030517578125</ele>
        <time>2026-08-13T06:57:24.000Z</time>
        <extensions>
          <ns3:TrackPointExtension>
            <ns3:hr>81</ns3:hr>
            <ns3:cad>44</ns3:cad>
          </ns3:TrackPointExtension>
        </extensions>
      </trkpt>
      <trkpt lat="43.7752689979970455169677734375" lon="1.56616573221981525421142578125">
        <ele>145.8000030517578125</ele>
        <time>2026-08-13T06:57:25.000Z</time>
        <extensions>
          <ns3:TrackPointExtension>
            <ns3:hr>80</ns3:hr>
            <ns3:cad>44</ns3:cad>
          </ns3:TrackPointExtension>
        </extensions>
      </trkpt>
      <trkpt lat="43.77527897246181964874267578125" lon="1.56616673804819583892822265625">
        <ele>145.8000030517578125</ele>
        <time>2026-08-13T06:57:26.000Z</time>
        <extensions>
          <ns3:TrackPointExtension>
            <ns3:hr>80</ns3:hr>
            <ns3:cad>43</ns3:cad>
          </ns3:TrackPointExtension>
        </extensions>
      </trkpt>
      <trkpt lat="43.77528618089854717254638671875" lon="1.56616908498108386993408203125">
        <ele>145.8000030517578125</ele>
        <time>2026-08-13T06:57:27.000Z</time>
        <extensions>
          <ns3:TrackPointExtension>
            <ns3:hr>80</ns3:hr>
            <ns3:cad>43</ns3:cad>
          </ns3:TrackPointExtension>
        </extensions>
      </trkpt>
      <trkpt lat="43.77529607154428958892822265625" lon="1.56617444939911365509033203125">
        <ele>145.8000030517578125</ele>
        <time>2026-08-13T06:57:28.000Z</time>
        <extensions>
          <ns3:TrackPointExtension>
            <ns3:hr>81</ns3:hr>
            <ns3:cad>43</ns3:cad>
          </ns3:TrackPointExtension>
        </extensions>
      </trkpt>
      <trkpt lat="43.77530495636165142059326171875" lon="1.56617629341781139373779296875">
        <ele>145.8000030517578125</ele>
        <time>2026-08-13T06:57:29.000Z</time>
        <extensions>
          <ns3:TrackPointExtension>
            <ns3:hr>80</ns3:hr>
            <ns3:cad>43</ns3:cad>
          </ns3:TrackPointExtension>
        </extensions>
      </trkpt>
      <trkpt lat="43.7753135897219181060791015625" lon="1.5661778859794139862060546875">
        <ele>145.8000030517578125</ele>
        <time>2026-08-13T06:57:30.000Z</time>
        <extensions>
          <ns3:TrackPointExtension>
            <ns3:hr>79</ns3:hr>
            <ns3:cad>43</ns3:cad>
          </ns3:TrackPointExtension>
        </extensions>
      </trkpt>
      <trkpt lat="43.7753219716250896453857421875" lon="1.5661805681884288787841796875">
        <ele>145.8000030517578125</ele>
        <time>2026-08-13T06:57:31.000Z</time>
        <extensions>
          <ns3:TrackPointExtension>
            <ns3:hr>79</ns3:hr>
            <ns3:cad>43</ns3:cad>
          </ns3:TrackPointExtension>
        </extensions>
      </trkpt>
      <trkpt lat="43.7753293476998805999755859375" lon="1.566185094416141510009765625">
        <ele>145.8000030517578125</ele>
        <time>2026-08-13T06:57:32.000Z</time>
        <extensions>
          <ns3:TrackPointExtension>
            <ns3:hr>78</ns3:hr>
            <ns3:cad>43</ns3:cad>
          </ns3:TrackPointExtension>
        </extensions>
      </trkpt>
      <trkpt lat="43.77533814869821071624755859375" lon="1.566187106072902679443359375">
        <ele>145.8000030517578125</ele>
        <time>2026-08-13T06:57:33.000Z</time>
        <extensions>
          <ns3:TrackPointExtension>
            <ns3:hr>78</ns3:hr>
            <ns3:cad>43</ns3:cad>
          </ns3:TrackPointExtension>
        </extensions>
      </trkpt>
      <trkpt lat="43.77534586004912853240966796875" lon="1.56618945300579071044921875">
        <ele>145.8000030517578125</ele>
        <time>2026-08-13T06:57:34.000Z</time>
        <extensions>
          <ns3:TrackPointExtension>
            <ns3:hr>78</ns3:hr>
            <ns3:cad>43</ns3:cad>
          </ns3:TrackPointExtension>
        </extensions>
      </trkpt>
      <trkpt lat="43.77535122446715831756591796875" lon="1.56619322486221790313720703125">
        <ele>145.8000030517578125</ele>
        <time>2026-08-13T06:57:35.000Z</time>
        <extensions>
          <ns3:TrackPointExtension>
            <ns3:hr>78</ns3:hr>
            <ns3:cad>43</ns3:cad>
          </ns3:TrackPointExtension>
        </extensions>
      </trkpt>
      <trkpt lat="43.77536077983677387237548828125" lon="1.56619607470929622650146484375">
        <ele>145.8000030517578125</ele>
        <time>2026-08-13T06:57:36.000Z</time>
        <extensions>
          <ns3:TrackPointExtension>
            <ns3:hr>78</ns3:hr>
            <ns3:cad>42</ns3:cad>
          </ns3:TrackPointExtension>
        </extensions>
      </trkpt>
      <trkpt lat="43.7753729335963726043701171875" lon="1.56619473360478878021240234375">
        <ele>145.600006103515625</ele>
        <time>2026-08-13T06:57:37.000Z</time>
        <extensions>
          <ns3:TrackPointExtension>
            <ns3:hr>78</ns3:hr>
            <ns3:cad>43</ns3:cad>
          </ns3:TrackPointExtension>
        </extensions>
      </trkpt>
      <trkpt lat="43.77538475207984447479248046875" lon="1.56619624234735965728759765625">
        <ele>145.600006103515625</ele>
        <time>2026-08-13T06:57:38.000Z</time>
        <extensions>
          <ns3:TrackPointExtension>
            <ns3:hr>78</ns3:hr>
            <ns3:cad>43</ns3:cad>
          </ns3:TrackPointExtension>
        </extensions>
      </trkpt>
      <trkpt lat="43.775391876697540283203125" lon="1.5662040375173091888427734375">
        <ele>145.600006103515625</ele>
        <time>2026-08-13T06:57:39.000Z</time>
        <extensions>
          <ns3:TrackPointExtension>
            <ns3:hr>78</ns3:hr>
            <ns3:cad>44</ns3:cad>
          </ns3:TrackPointExtension>
        </extensions>
      </trkpt>
      <trkpt lat="43.77540118061006069183349609375" lon="1.56620764173567295074462890625">
        <ele>145.600006103515625</ele>
        <time>2026-08-13T06:57:40.000Z</time>
        <extensions>
          <ns3:TrackPointExtension>
            <ns3:hr>78</ns3:hr>
            <ns3:cad>44</ns3:cad>
          </ns3:TrackPointExtension>
        </extensions>
      </trkpt>
      <trkpt lat="43.775408975780010223388671875" lon="1.56620847992599010467529296875">
        <ele>145.600006103515625</ele>
        <time>2026-08-13T06:57:41.000Z</time>
        <extensions>
          <ns3:TrackPointExtension>
            <ns3:hr>78</ns3:hr>
            <ns3:cad>0</ns3:cad>
          </ns3:TrackPointExtension>
        </extensions>
      </trkpt>
      <trkpt lat="43.77541844733059406280517578125" lon="1.56621216796338558197021484375">
        <ele>145.600006103515625</ele>
        <time>2026-08-13T06:57:42.000Z</time>
        <extensions>
          <ns3:TrackPointExtension>
            <ns3:hr>78</ns3:hr>
            <ns3:cad>0</ns3:cad>
          </ns3:TrackPointExtension>
        </extensions>
      </trkpt>
      <trkpt lat="43.7754255719482898712158203125" lon="1.56621568836271762847900390625">
        <ele>145.399993896484375</ele>
        <time>2026-08-13T06:57:43.000Z</time>
        <extensions>
          <ns3:TrackPointExtension>
            <ns3:hr>78</ns3:hr>
            <ns3:cad>45</ns3:cad>
          </ns3:TrackPointExtension>
        </extensions>
      </trkpt>
      <trkpt lat="43.77543412148952484130859375" lon="1.566221974790096282958984375">
        <ele>145.399993896484375</ele>
        <time>2026-08-13T06:57:44.000Z</time>
        <extensions>
          <ns3:TrackPointExtension>
            <ns3:hr>78</ns3:hr>
            <ns3:cad>46</ns3:cad>
          </ns3:TrackPointExtension>
        </extensions>
      </trkpt>
      <trkpt lat="43.77544158138334751129150390625" lon="1.5662251599133014678955078125">
        <ele>145.399993896484375</ele>
        <time>2026-08-13T06:57:45.000Z</time>
        <extensions>
          <ns3:TrackPointExtension>
            <ns3:hr>78</ns3:hr>
            <ns3:cad>46</ns3:cad>
          </ns3:TrackPointExtension>
        </extensions>
      </trkpt>
      <trkpt lat="43.77545398660004138946533203125" lon="1.5662290155887603759765625">
        <ele>145.399993896484375</ele>
        <time>2026-08-13T06:57:46.000Z</time>
        <extensions>
          <ns3:TrackPointExtension>
            <ns3:hr>78</ns3:hr>
            <ns3:cad>46</ns3:cad>
          </ns3:TrackPointExtension>
        </extensions>
      </trkpt>
      <trkpt lat="43.77546270377933979034423828125" lon="1.56623245216906070709228515625">
        <ele>145.399993896484375</ele>
        <time>2026-08-13T06:57:47.000Z</time>
        <extensions>
          <ns3:TrackPointExtension>
            <ns3:hr>78</ns3:hr>
            <ns3:cad>45</ns3:cad>
          </ns3:TrackPointExtension>
        </extensions>
      </trkpt>
      <trkpt lat="43.77547125332057476043701171875" lon="1.56623731367290019989013671875">
        <ele>145.399993896484375</ele>
        <time>2026-08-13T06:57:48.000Z</time>
        <extensions>
          <ns3:TrackPointExtension>
            <ns3:hr>78</ns3:hr>
            <ns3:cad>45</ns3:cad>
          </ns3:TrackPointExtension>
        </extensions>
      </trkpt>
      <trkpt lat="43.77547971904277801513671875" lon="1.566240079700946807861328125">
        <ele>145.399993896484375</ele>
        <time>2026-08-13T06:57:49.000Z</time>
        <extensions>
          <ns3:TrackPointExtension>
            <ns3:hr>78</ns3:hr>
            <ns3:cad>45</ns3:cad>
          </ns3:TrackPointExtension>
        </extensions>
      </trkpt>
      <trkpt lat="43.7754875980317592620849609375" lon="1.56624234281480312347412109375">
        <ele>145.399993896484375</ele>
        <time>2026-08-13T06:57:50.000Z</time>
        <extensions>
          <ns3:TrackPointExtension>
            <ns3:hr>78</ns3:hr>
            <ns3:cad>45</ns3:cad>
          </ns3:TrackPointExtension>
        </extensions>
      </trkpt>
      <trkpt lat="43.7754956446588039398193359375" lon="1.56624468974769115447998046875">
        <ele>145.399993896484375</ele>
        <time>2026-08-13T06:57:51.000Z</time>
        <extensions>
          <ns3:TrackPointExtension>
            <ns3:hr>78</ns3:hr>
            <ns3:cad>45</ns3:cad>
          </ns3:TrackPointExtension>
        </extensions>
      </trkpt>
      <trkpt lat="43.77550260163843631744384765625" lon="1.56624770723283290863037109375">
        <ele>145.399993896484375</ele>
        <time>2026-08-13T06:57:52.000Z</time>
        <extensions>
          <ns3:TrackPointExtension>
            <ns3:hr>78</ns3:hr>
            <ns3:cad>45</ns3:cad>
          </ns3:TrackPointExtension>
        </extensions>
      </trkpt>
      <trkpt lat="43.7755112349987030029296875" lon="1.56624821014702320098876953125">
        <ele>145.399993896484375</ele>
        <time>2026-08-13T06:57:53.000Z</time>
        <extensions>
          <ns3:TrackPointExtension>
            <ns3:hr>77</ns3:hr>
            <ns3:cad>45</ns3:cad>
          </ns3:TrackPointExtension>
        </extensions>
      </trkpt>
      <trkpt lat="43.775517940521240234375" lon="1.56625290401279926300048828125">
        <ele>145.1999969482421875</ele>
        <time>2026-08-13T06:57:54.000Z</time>
        <extensions>
          <ns3:TrackPointExtension>
            <ns3:hr>77</ns3:hr>
            <ns3:cad>43</ns3:cad>
          </ns3:TrackPointExtension>
        </extensions>
      </trkpt>
      <trkpt lat="43.7755261547863483428955078125" lon="1.56625944189727306365966796875">
        <ele>145.1999969482421875</ele>
        <time>2026-08-13T06:57:55.000Z</time>
        <extensions>
          <ns3:TrackPointExtension>
            <ns3:hr>77</ns3:hr>
            <ns3:cad>43</ns3:cad>
          </ns3:TrackPointExtension>
        </extensions>
      </trkpt>
      <trkpt lat="43.775535710155963897705078125" lon="1.56625960953533649444580078125">
        <ele>145.1999969482421875</ele>
        <time>2026-08-13T06:57:56.000Z</time>
        <extensions>
          <ns3:TrackPointExtension>
            <ns3:hr>78</ns3:hr>
            <ns3:cad>42</ns3:cad>
          </ns3:TrackPointExtension>
        </extensions>
      </trkpt>
      <trkpt lat="43.7755449302494525909423828125" lon="1.56626061536371707916259765625">
        <ele>145.1999969482421875</ele>
        <time>2026-08-13T06:57:57.000Z</time>
        <extensions>
          <ns3:TrackPointExtension>
            <ns3:hr>77</ns3:hr>
            <ns3:cad>42</ns3:cad>
          </ns3:TrackPointExtension>
        </extensions>
      </trkpt>
      <trkpt lat="43.77555306069552898406982421875" lon="1.5662627108395099639892578125">
        <ele>145.1999969482421875</ele>
        <time>2026-08-13T06:57:58.000Z</time>
        <extensions>
          <ns3:TrackPointExtension>
            <ns3:hr>77</ns3:hr>
            <ns3:cad>43</ns3:cad>
          </ns3:TrackPointExtension>
        </extensions>
      </trkpt>
      <trkpt lat="43.77556211315095424652099609375" lon="1.56626480631530284881591796875">
        <ele>145</ele>
        <time>2026-08-13T06:57:59.000Z</time>
        <extensions>
          <ns3:TrackPointExtension>
            <ns3:hr>77</ns3:hr>
            <ns3:cad>43</ns3:cad>
          </ns3:TrackPointExtension>
        </extensions>
      </trkpt>
      <trkpt lat="43.775570578873157501220703125" lon="1.56626899726688861846923828125">
        <ele>145</ele>
        <time>2026-08-13T06:58:00.000Z</time>
        <extensions>
          <ns3:TrackPointExtension>
            <ns3:hr>76</ns3:hr>
            <ns3:cad>43</ns3:cad>
          </ns3:TrackPointExtension>
        </extensions>
      </trkpt>
      <trkpt lat="43.7755794636905193328857421875" lon="1.5662692487239837646484375">
        <ele>145</ele>
        <time>2026-08-13T06:58:01.000Z</time>
        <extensions>
          <ns3:TrackPointExtension>
            <ns3:hr>76</ns3:hr>
            <ns3:cad>44</ns3:cad>
          </ns3:TrackPointExtension>
        </extensions>
      </trkpt>
      <trkpt lat="43.77558893524110317230224609375" lon="1.56627268530428409576416015625">
        <ele>145</ele>
        <time>2026-08-13T06:58:02.000Z</time>
        <extensions>
          <ns3:TrackPointExtension>
            <ns3:hr>75</ns3:hr>
            <ns3:cad>45</ns3:cad>
          </ns3:TrackPointExtension>
        </extensions>
      </trkpt>
      <trkpt lat="43.7755965627729892730712890625" lon="1.56627637334167957305908203125">
        <ele>144.8000030517578125</ele>
        <time>2026-08-13T06:58:03.000Z</time>
        <extensions>
          <ns3:TrackPointExtension>
            <ns3:hr>76</ns3:hr>
            <ns3:cad>46</ns3:cad>
          </ns3:TrackPointExtension>
        </extensions>
      </trkpt>
      <trkpt lat="43.77560636959969997406005859375" lon="1.5662798099219799041748046875">
        <ele>144.8000030517578125</ele>
        <time>2026-08-13T06:58:04.000Z</time>
        <extensions>
          <ns3:TrackPointExtension>
            <ns3:hr>76</ns3:hr>
            <ns3:cad>46</ns3:cad>
          </ns3:TrackPointExtension>
        </extensions>
      </trkpt>
      <trkpt lat="43.7756156735122203826904296875" lon="1.56628341414034366607666015625">
        <ele>144.8000030517578125</ele>
        <time>2026-08-13T06:58:05.000Z</time>
        <extensions>
          <ns3:TrackPointExtension>
            <ns3:hr>76</ns3:hr>
            <ns3:cad>47</ns3:cad>
          </ns3:TrackPointExtension>
        </extensions>
      </trkpt>
      <trkpt lat="43.7756247259676456451416015625" lon="1.56628668308258056640625">
        <ele>144.600006103515625</ele>
        <time>2026-08-13T06:58:06.000Z</time>
        <extensions>
          <ns3:TrackPointExtension>
            <ns3:hr>76</ns3:hr>
            <ns3:cad>47</ns3:cad>
          </ns3:TrackPointExtension>
        </extensions>
      </trkpt>
      <trkpt lat="43.7756337784230709075927734375" lon="1.566289700567722320556640625">
        <ele>144.600006103515625</ele>
        <time>2026-08-13T06:58:07.000Z</time>
        <extensions>
          <ns3:TrackPointExtension>
            <ns3:hr>76</ns3:hr>
            <ns3:cad>47</ns3:cad>
          </ns3:TrackPointExtension>
        </extensions>
      </trkpt>
      <trkpt lat="43.775643669068813323974609375" lon="1.5662938915193080902099609375">
        <ele>144.600006103515625</ele>
        <time>2026-08-13T06:58:08.000Z</time>
        <extensions>
          <ns3:TrackPointExtension>
            <ns3:hr>77</ns3:hr>
            <ns3:cad>47</ns3:cad>
          </ns3:TrackPointExtension>
        </extensions>
      </trkpt>
      <trkpt lat="43.77565079368650913238525390625" lon="1.56629364006221294403076171875">
        <ele>144.399993896484375</ele>
        <time>2026-08-13T06:58:09.000Z</time>
        <extensions>
          <ns3:TrackPointExtension>
            <ns3:hr>76</ns3:hr>
            <ns3:cad>47</ns3:cad>
          </ns3:TrackPointExtension>
        </extensions>
      </trkpt>
      <trkpt lat="43.7756602652370929718017578125" lon="1.566295064985752105712890625">
        <ele>144.399993896484375</ele>
        <time>2026-08-13T06:58:10.000Z</time>
        <extensions>
          <ns3:TrackPointExtension>
            <ns3:hr>77</ns3:hr>
            <ns3:cad>47</ns3:cad>
          </ns3:TrackPointExtension>
        </extensions>
      </trkpt>
      <trkpt lat="43.77566738985478878021240234375" lon="1.56629833392798900604248046875">
        <ele>144.399993896484375</ele>
        <time>2026-08-13T06:58:11.000Z</time>
        <extensions>
          <ns3:TrackPointExtension>
            <ns3:hr>77</ns3:hr>
            <ns3:cad>0</ns3:cad>
          </ns3:TrackPointExtension>
        </extensions>
      </trkpt>
      <trkpt lat="43.7756753526628017425537109375" lon="1.56630319543182849884033203125">
        <ele>144.1999969482421875</ele>
        <time>2026-08-13T06:58:12.000Z</time>
        <extensions>
          <ns3:TrackPointExtension>
            <ns3:hr>77</ns3:hr>
            <ns3:cad>0</ns3:cad>
          </ns3:TrackPointExtension>
        </extensions>
      </trkpt>
      <trkpt lat="43.77568180672824382781982421875" lon="1.56630520708858966827392578125">
        <ele>144.1999969482421875</ele>
        <time>2026-08-13T06:58:13.000Z</time>
        <extensions>
          <ns3:TrackPointExtension>
            <ns3:hr>77</ns3:hr>
            <ns3:cad>43</ns3:cad>
          </ns3:TrackPointExtension>
        </extensions>
      </trkpt>
      <trkpt lat="43.775689266622066497802734375" lon="1.56630671583116054534912109375">
        <ele>144</ele>
        <time>2026-08-13T06:58:14.000Z</time>
        <extensions>
          <ns3:TrackPointExtension>
            <ns3:hr>78</ns3:hr>
            <ns3:cad>43</ns3:cad>
          </ns3:TrackPointExtension>
        </extensions>
      </trkpt>
      <trkpt lat="43.7756968103349208831787109375" lon="1.56631124205887317657470703125">
        <ele>144</ele>
        <time>2026-08-13T06:58:15.000Z</time>
        <extensions>
          <ns3:TrackPointExtension>
            <ns3:hr>78</ns3:hr>
            <ns3:cad>43</ns3:cad>
          </ns3:TrackPointExtension>
        </extensions>
      </trkpt>
      <trkpt lat="43.775704018771648406982421875" lon="1.56631643883883953094482421875">
        <ele>144</ele>
        <time>2026-08-13T06:58:16.000Z</time>
        <extensions>
          <ns3:TrackPointExtension>
            <ns3:hr>78</ns3:hr>
            <ns3:cad>43</ns3:cad>
          </ns3:TrackPointExtension>
        </extensions>
      </trkpt>
      <trkpt lat="43.775713741779327392578125" lon="1.56631727702915668487548828125">
        <ele>144</ele>
        <time>2026-08-13T06:58:17.000Z</time>
        <extensions>
          <ns3:TrackPointExtension>
            <ns3:hr>77</ns3:hr>
            <ns3:cad>0</ns3:cad>
          </ns3:TrackPointExtension>
        </extensions>
      </trkpt>
      <trkpt lat="43.7757226265966892242431640625" lon="1.5663197077810764312744140625">
        <ele>143.8000030517578125</ele>
        <time>2026-08-13T06:58:18.000Z</time>
        <extensions>
          <ns3:TrackPointExtension>
            <ns3:hr>77</ns3:hr>
            <ns3:cad>0</ns3:cad>
          </ns3:TrackPointExtension>
        </extensions>
      </trkpt>
      <trkpt lat="43.7757310084998607635498046875" lon="1.566323898732662200927734375">
        <ele>143.8000030517578125</ele>
        <time>2026-08-13T06:58:19.000Z</time>
        <extensions>
          <ns3:TrackPointExtension>
            <ns3:hr>77</ns3:hr>
            <ns3:cad>0</ns3:cad>
          </ns3:TrackPointExtension>
        </extensions>
      </trkpt>
      <trkpt lat="43.77573989331722259521484375" lon="1.56632800586521625518798828125">
        <ele>143.8000030517578125</ele>
        <time>2026-08-13T06:58:20.000Z</time>
        <extensions>
          <ns3:TrackPointExtension>
            <ns3:hr>77</ns3:hr>
            <ns3:cad>0</ns3:cad>
          </ns3:TrackPointExtension>
        </extensions>
      </trkpt>
      <trkpt lat="43.7757467664778232574462890625" lon="1.56633253209292888641357421875">
        <ele>143.600006103515625</ele>
        <time>2026-08-13T06:58:21.000Z</time>
        <extensions>
          <ns3:TrackPointExtension>
            <ns3:hr>77</ns3:hr>
            <ns3:cad>0</ns3:cad>
          </ns3:TrackPointExtension>
        </extensions>
      </trkpt>
      <trkpt lat="43.7757524661719799041748046875" lon="1.566336639225482940673828125">
        <ele>143.600006103515625</ele>
        <time>2026-08-13T06:58:22.000Z</time>
        <extensions>
          <ns3:TrackPointExtension>
            <ns3:hr>76</ns3:hr>
            <ns3:cad>0</ns3:cad>
          </ns3:TrackPointExtension>
        </extensions>
      </trkpt>
      <trkpt lat="43.7757524661719799041748046875" lon="1.566336639225482940673828125">
        <ele>143.600006103515625</ele>
        <time>2026-08-13T06:58:23.000Z</time>
        <extensions>
          <ns3:TrackPointExtension>
            <ns3:hr>77</ns3:hr>
            <ns3:cad>0</ns3:cad>
          </ns3:TrackPointExtension>
        </extensions>
      </trkpt>
      <trkpt lat="43.7757685594260692596435546875" lon="1.56633588485419750213623046875">
        <ele>143.399993896484375</ele>
        <time>2026-08-13T06:58:24.000Z</time>
        <extensions>
          <ns3:TrackPointExtension>
            <ns3:hr>77</ns3:hr>
            <ns3:cad>0</ns3:cad>
          </ns3:TrackPointExtension>
        </extensions>
      </trkpt>
      <trkpt lat="43.7757745943963527679443359375" lon="1.56634091399610042572021484375">
        <ele>143.399993896484375</ele>
        <time>2026-08-13T06:58:25.000Z</time>
        <extensions>
          <ns3:TrackPointExtension>
            <ns3:hr>76</ns3:hr>
            <ns3:cad>0</ns3:cad>
          </ns3:TrackPointExtension>
        </extensions>
      </trkpt>
      <trkpt lat="43.77578138373792171478271484375" lon="1.56634560786187648773193359375">
        <ele>143.399993896484375</ele>
        <time>2026-08-13T06:58:26.000Z</time>
        <extensions>
          <ns3:TrackPointExtension>
            <ns3:hr>76</ns3:hr>
            <ns3:cad>0</ns3:cad>
          </ns3:TrackPointExtension>
        </extensions>
      </trkpt>
      <trkpt lat="43.775788843631744384765625" lon="1.5663502179086208343505859375">
        <ele>143.1999969482421875</ele>
        <time>2026-08-13T06:58:27.000Z</time>
        <extensions>
          <ns3:TrackPointExtension>
            <ns3:hr>76</ns3:hr>
            <ns3:cad>0</ns3:cad>
          </ns3:TrackPointExtension>
        </extensions>
      </trkpt>
      <trkpt lat="43.7757970578968524932861328125" lon="1.56635298393666744232177734375">
        <ele>143.1999969482421875</ele>
        <time>2026-08-13T06:58:28.000Z</time>
        <extensions>
          <ns3:TrackPointExtension>
            <ns3:hr>76</ns3:hr>
            <ns3:cad>0</ns3:cad>
          </ns3:TrackPointExtension>
        </extensions>
      </trkpt>
      <trkpt lat="43.775805272161960601806640625" lon="1.5663542412221431732177734375">
        <ele>143.1999969482421875</ele>
        <time>2026-08-13T06:58:29.000Z</time>
        <extensions>
          <ns3:TrackPointExtension>
            <ns3:hr>75</ns3:hr>
            <ns3:cad>43</ns3:cad>
          </ns3:TrackPointExtension>
        </extensions>
      </trkpt>
      <trkpt lat="43.7758114747703075408935546875" lon="1.56635616905987262725830078125">
        <ele>143.1999969482421875</ele>
        <time>2026-08-13T06:58:30.000Z</time>
        <extensions>
          <ns3:TrackPointExtension>
            <ns3:hr>75</ns3:hr>
            <ns3:cad>43</ns3:cad>
          </ns3:TrackPointExtension>
        </extensions>
      </trkpt>
      <trkpt lat="43.775818012654781341552734375" lon="1.56635734252631664276123046875">
        <ele>143</ele>
        <time>2026-08-13T06:58:31.000Z</time>
        <extensions>
          <ns3:TrackPointExtension>
            <ns3:hr>76</ns3:hr>
            <ns3:cad>43</ns3:cad>
          </ns3:TrackPointExtension>
        </extensions>
      </trkpt>
      <trkpt lat="43.77582513727247714996337890625" lon="1.56635818071663379669189453125">
        <ele>143</ele>
        <time>2026-08-13T06:58:32.000Z</time>
        <extensions>
          <ns3:TrackPointExtension>
            <ns3:hr>76</ns3:hr>
            <ns3:cad>44</ns3:cad>
          </ns3:TrackPointExtension>
        </extensions>
      </trkpt>
      <trkpt lat="43.77583133988082408905029296875" lon="1.5663604438304901123046875">
        <ele>143</ele>
        <time>2026-08-13T06:58:33.000Z</time>
        <extensions>
          <ns3:TrackPointExtension>
            <ns3:hr>76</ns3:hr>
            <ns3:cad>46</ns3:cad>
          </ns3:TrackPointExtension>
        </extensions>
      </trkpt>
      <trkpt lat="43.7758411467075347900390625" lon="1.56636404804885387420654296875">
        <ele>142.8000030517578125</ele>
        <time>2026-08-13T06:58:34.000Z</time>
        <extensions>
          <ns3:TrackPointExtension>
            <ns3:hr>76</ns3:hr>
            <ns3:cad>0</ns3:cad>
          </ns3:TrackPointExtension>
        </extensions>
      </trkpt>
      <trkpt lat="43.77584760077297687530517578125" lon="1.566368155181407928466796875">
        <ele>142.8000030517578125</ele>
        <time>2026-08-13T06:58:35.000Z</time>
        <extensions>
          <ns3:TrackPointExtension>
            <ns3:hr>75</ns3:hr>
            <ns3:cad>0</ns3:cad>
          </ns3:TrackPointExtension>
        </extensions>
      </trkpt>
      <trkpt lat="43.77585095353424549102783203125" lon="1.56637343578040599822998046875">
        <ele>142.8000030517578125</ele>
        <time>2026-08-13T06:58:36.000Z</time>
        <extensions>
          <ns3:TrackPointExtension>
            <ns3:hr>75</ns3:hr>
            <ns3:cad>0</ns3:cad>
          </ns3:TrackPointExtension>
        </extensions>
      </trkpt>
      <trkpt lat="43.77586067654192447662353515625" lon="1.5663743577897548675537109375">
        <ele>142.8000030517578125</ele>
        <time>2026-08-13T06:58:37.000Z</time>
        <extensions>
          <ns3:TrackPointExtension>
            <ns3:hr>75</ns3:hr>
            <ns3:cad>0</ns3:cad>
          </ns3:TrackPointExtension>
        </extensions>
      </trkpt>
      <trkpt lat="43.7758708186447620391845703125" lon="1.56637720763683319091796875">
        <ele>142.600006103515625</ele>
        <time>2026-08-13T06:58:38.000Z</time>
        <extensions>
          <ns3:TrackPointExtension>
            <ns3:hr>75</ns3:hr>
            <ns3:cad>46</ns3:cad>
          </ns3:TrackPointExtension>
        </extensions>
      </trkpt>
      <trkpt lat="43.77588112838566303253173828125" lon="1.56638064421713352203369140625">
        <ele>142.600006103515625</ele>
        <time>2026-08-13T06:58:39.000Z</time>
        <extensions>
          <ns3:TrackPointExtension>
            <ns3:hr>75</ns3:hr>
            <ns3:cad>46</ns3:cad>
          </ns3:TrackPointExtension>
        </extensions>
      </trkpt>
      <trkpt lat="43.77588900737464427947998046875" lon="1.5663810633122920989990234375">
        <ele>142.399993896484375</ele>
        <time>2026-08-13T06:58:40.000Z</time>
        <extensions>
          <ns3:TrackPointExtension>
            <ns3:hr>75</ns3:hr>
            <ns3:cad>46</ns3:cad>
          </ns3:TrackPointExtension>
        </extensions>
      </trkpt>
      <trkpt lat="43.7758979760110378265380859375" lon="1.56637880019843578338623046875">
        <ele>142.399993896484375</ele>
        <time>2026-08-13T06:58:41.000Z</time>
        <extensions>
          <ns3:TrackPointExtension>
            <ns3:hr>75</ns3:hr>
            <ns3:cad>48</ns3:cad>
          </ns3:TrackPointExtension>
        </extensions>
      </trkpt>
      <trkpt lat="43.77590912394225597381591796875" lon="1.566378884017467498779296875">
        <ele>142.399993896484375</ele>
        <time>2026-08-13T06:58:42.000Z</time>
        <extensions>
          <ns3:TrackPointExtension>
            <ns3:hr>75</ns3:hr>
            <ns3:cad>48</ns3:cad>
          </ns3:TrackPointExtension>
        </extensions>
      </trkpt>
      <trkpt lat="43.77591934986412525177001953125" lon="1.56638030894100666046142578125">
        <ele>142.1999969482421875</ele>
        <time>2026-08-13T06:58:43.000Z</time>
        <extensions>
          <ns3:TrackPointExtension>
            <ns3:hr>75</ns3:hr>
            <ns3:cad>48</ns3:cad>
          </ns3:TrackPointExtension>
        </extensions>
      </trkpt>
      <trkpt lat="43.77592974342405796051025390625" lon="1.566382907330989837646484375">
        <ele>142.1999969482421875</ele>
        <time>2026-08-13T06:58:44.000Z</time>
        <extensions>
          <ns3:TrackPointExtension>
            <ns3:hr>76</ns3:hr>
            <ns3:cad>48</ns3:cad>
          </ns3:TrackPointExtension>
        </extensions>
      </trkpt>
      <trkpt lat="43.77594063989818096160888671875" lon="1.56638617627322673797607421875">
        <ele>142.1999969482421875</ele>
        <time>2026-08-13T06:58:45.000Z</time>
        <extensions>
          <ns3:TrackPointExtension>
            <ns3:hr>75</ns3:hr>
            <ns3:cad>48</ns3:cad>
          </ns3:TrackPointExtension>
        </extensions>
      </trkpt>
      <trkpt lat="43.775949776172637939453125" lon="1.56639003194868564605712890625">
        <ele>142.1999969482421875</ele>
        <time>2026-08-13T06:58:46.000Z</time>
        <extensions>
          <ns3:TrackPointExtension>
            <ns3:hr>75</ns3:hr>
            <ns3:cad>47</ns3:cad>
          </ns3:TrackPointExtension>
        </extensions>
      </trkpt>
      <trkpt lat="43.77596109174191951751708984375" lon="1.56639355234801769256591796875">
        <ele>142</ele>
        <time>2026-08-13T06:58:47.000Z</time>
        <extensions>
          <ns3:TrackPointExtension>
            <ns3:hr>75</ns3:hr>
            <ns3:cad>47</ns3:cad>
          </ns3:TrackPointExtension>
        </extensions>
      </trkpt>
      <trkpt lat="43.77597215585410594940185546875" lon="1.566395647823810577392578125">
        <ele>142</ele>
        <time>2026-08-13T06:58:48.000Z</time>
        <extensions>
          <ns3:TrackPointExtension>
            <ns3:hr>75</ns3:hr>
            <ns3:cad>47</ns3:cad>
          </ns3:TrackPointExtension>
        </extensions>
      </trkpt>
      <trkpt lat="43.7759831361472606658935546875" lon="1.56639807857573032379150390625">
        <ele>141.8000030517578125</ele>
        <time>2026-08-13T06:58:49.000Z</time>
        <extensions>
          <ns3:TrackPointExtension>
            <ns3:hr>75</ns3:hr>
            <ns3:cad>47</ns3:cad>
          </ns3:TrackPointExtension>
        </extensions>
      </trkpt>
      <trkpt lat="43.77599428407847881317138671875" lon="1.566401682794094085693359375">
        <ele>141.8000030517578125</ele>
        <time>2026-08-13T06:58:50.000Z</time>
        <extensions>
          <ns3:TrackPointExtension>
            <ns3:hr>75</ns3:hr>
            <ns3:cad>48</ns3:cad>
          </ns3:TrackPointExtension>
        </extensions>
      </trkpt>
      <trkpt lat="43.77600518055260181427001953125" lon="1.56640294007956981658935546875">
        <ele>141.8000030517578125</ele>
        <time>2026-08-13T06:58:51.000Z</time>
        <extensions>
          <ns3:TrackPointExtension>
            <ns3:hr>75</ns3:hr>
            <ns3:cad>48</ns3:cad>
          </ns3:TrackPointExtension>
        </extensions>
      </trkpt>
      <trkpt lat="43.77601222135126590728759765625" lon="1.566404365003108978271484375">
        <ele>141.600006103515625</ele>
        <time>2026-08-13T06:58:52.000Z</time>
        <extensions>
          <ns3:TrackPointExtension>
            <ns3:hr>75</ns3:hr>
            <ns3:cad>49</ns3:cad>
          </ns3:TrackPointExtension>
        </extensions>
      </trkpt>
      <trkpt lat="43.776020519435405731201171875" lon="1.56640537083148956298828125">
        <ele>141.600006103515625</ele>
        <time>2026-08-13T06:58:53.000Z</time>
        <extensions>
          <ns3:TrackPointExtension>
            <ns3:hr>75</ns3:hr>
            <ns3:cad>49</ns3:cad>
          </ns3:TrackPointExtension>
        </extensions>
      </trkpt>
      <trkpt lat="43.776031918823719024658203125" lon="1.5664072148501873016357421875">
        <ele>141.600006103515625</ele>
        <time>2026-08-13T06:58:54.000Z</time>
        <extensions>
          <ns3:TrackPointExtension>
            <ns3:hr>75</ns3:hr>
            <ns3:cad>49</ns3:cad>
          </ns3:TrackPointExtension>
        </extensions>
      </trkpt>
      <trkpt lat="43.7760424800217151641845703125" lon="1.56640763394534587860107421875">
        <ele>141.600006103515625</ele>
        <time>2026-08-13T06:58:55.000Z</time>
        <extensions>
          <ns3:TrackPointExtension>
            <ns3:hr>75</ns3:hr>
            <ns3:cad>48</ns3:cad>
          </ns3:TrackPointExtension>
        </extensions>
      </trkpt>
      <trkpt lat="43.776051700115203857421875" lon="1.5664072148501873016357421875">
        <ele>141.399993896484375</ele>
        <time>2026-08-13T06:58:56.000Z</time>
        <extensions>
          <ns3:TrackPointExtension>
            <ns3:hr>75</ns3:hr>
            <ns3:cad>47</ns3:cad>
          </ns3:TrackPointExtension>
        </extensions>
      </trkpt>
      <trkpt lat="43.776060082018375396728515625" lon="1.5664092265069484710693359375">
        <ele>141.399993896484375</ele>
        <time>2026-08-13T06:58:57.000Z</time>
        <extensions>
          <ns3:TrackPointExtension>
            <ns3:hr>75</ns3:hr>
            <ns3:cad>47</ns3:cad>
          </ns3:TrackPointExtension>
        </extensions>
      </trkpt>
      <trkpt lat="43.7760703079402446746826171875" lon="1.5664132498204708099365234375">
        <ele>141.399993896484375</ele>
        <time>2026-08-13T06:58:58.000Z</time>
        <extensions>
          <ns3:TrackPointExtension>
            <ns3:hr>75</ns3:hr>
            <ns3:cad>45</ns3:cad>
          </ns3:TrackPointExtension>
        </extensions>
      </trkpt>
      <trkpt lat="43.7760810367763042449951171875" lon="1.56641744077205657958984375">
        <ele>141.399993896484375</ele>
        <time>2026-08-13T06:58:59.000Z</time>
        <extensions>
          <ns3:TrackPointExtension>
            <ns3:hr>75</ns3:hr>
            <ns3:cad>45</ns3:cad>
          </ns3:TrackPointExtension>
        </extensions>
      </trkpt>
      <trkpt lat="43.77609126269817352294921875" lon="1.56642012298107147216796875">
        <ele>141.1999969482421875</ele>
        <time>2026-08-13T06:59:00.000Z</time>
        <extensions>
          <ns3:TrackPointExtension>
            <ns3:hr>75</ns3:hr>
            <ns3:cad>46</ns3:cad>
          </ns3:TrackPointExtension>
        </extensions>
      </trkpt>
      <trkpt lat="43.7761038355529308319091796875" lon="1.56642188318073749542236328125">
        <ele>141.1999969482421875</ele>
        <time>2026-08-13T06:59:01.000Z</time>
        <extensions>
          <ns3:TrackPointExtension>
            <ns3:hr>74</ns3:hr>
            <ns3:cad>47</ns3:cad>
          </ns3:TrackPointExtension>
        </extensions>
      </trkpt>
      <trkpt lat="43.77611531876027584075927734375" lon="1.56642682850360870361328125">
        <ele>141.1999969482421875</ele>
        <time>2026-08-13T06:59:02.000Z</time>
        <extensions>
          <ns3:TrackPointExtension>
            <ns3:hr>75</ns3:hr>
            <ns3:cad>48</ns3:cad>
          </ns3:TrackPointExtension>
        </extensions>
      </trkpt>
      <trkpt lat="43.77612487412989139556884765625" lon="1.56642657704651355743408203125">
        <ele>141</ele>
        <time>2026-08-13T06:59:03.000Z</time>
        <extensions>
          <ns3:TrackPointExtension>
            <ns3:hr>75</ns3:hr>
            <ns3:cad>48</ns3:cad>
          </ns3:TrackPointExtension>
        </extensions>
      </trkpt>
      <trkpt lat="43.776133172214031219482421875" lon="1.56643093563616275787353515625">
        <ele>141</ele>
        <time>2026-08-13T06:59:04.000Z</time>
        <extensions>
          <ns3:TrackPointExtension>
            <ns3:hr>74</ns3:hr>
            <ns3:cad>48</ns3:cad>
          </ns3:TrackPointExtension>
        </extensions>
      </trkpt>
      <trkpt lat="43.77614331431686878204345703125" lon="1.56643353402614593505859375">
        <ele>140.8000030517578125</ele>
        <time>2026-08-13T06:59:05.000Z</time>
        <extensions>
          <ns3:TrackPointExtension>
            <ns3:hr>75</ns3:hr>
            <ns3:cad>48</ns3:cad>
          </ns3:TrackPointExtension>
        </extensions>
      </trkpt>
      <trkpt lat="43.7761524505913257598876953125" lon="1.566437892615795135498046875">
        <ele>140.8000030517578125</ele>
        <time>2026-08-13T06:59:06.000Z</time>
        <extensions>
          <ns3:TrackPointExtension>
            <ns3:hr>75</ns3:hr>
            <ns3:cad>48</ns3:cad>
          </ns3:TrackPointExtension>
        </extensions>
      </trkpt>
      <trkpt lat="43.77615923993289470672607421875" lon="1.5664404071867465972900390625">
        <ele>140.8000030517578125</ele>
        <time>2026-08-13T06:59:07.000Z</time>
        <extensions>
          <ns3:TrackPointExtension>
            <ns3:hr>75</ns3:hr>
            <ns3:cad>48</ns3:cad>
          </ns3:TrackPointExtension>
        </extensions>
      </trkpt>
      <trkpt lat="43.77616896294057369232177734375" lon="1.5664444305002689361572265625">
        <ele>140.8000030517578125</ele>
        <time>2026-08-13T06:59:08.000Z</time>
        <extensions>
          <ns3:TrackPointExtension>
            <ns3:hr>76</ns3:hr>
            <ns3:cad>49</ns3:cad>
          </ns3:TrackPointExtension>
        </extensions>
      </trkpt>
      <trkpt lat="43.7761782668530941009521484375" lon="1.56644828617572784423828125">
        <ele>140.600006103515625</ele>
        <time>2026-08-13T06:59:09.000Z</time>
        <extensions>
          <ns3:TrackPointExtension>
            <ns3:hr>76</ns3:hr>
            <ns3:cad>50</ns3:cad>
          </ns3:TrackPointExtension>
        </extensions>
      </trkpt>
      <trkpt lat="43.77619008533656597137451171875" lon="1.56645499169826507568359375">
        <ele>140.600006103515625</ele>
        <time>2026-08-13T06:59:10.000Z</time>
        <extensions>
          <ns3:TrackPointExtension>
            <ns3:hr>77</ns3:hr>
            <ns3:cad>50</ns3:cad>
          </ns3:TrackPointExtension>
        </extensions>
      </trkpt>
      <trkpt lat="43.7762005627155303955078125" lon="1.56646043993532657623291015625">
        <ele>140.600006103515625</ele>
        <time>2026-08-13T06:59:11.000Z</time>
        <extensions>
          <ns3:TrackPointExtension>
            <ns3:hr>77</ns3:hr>
            <ns3:cad>50</ns3:cad>
          </ns3:TrackPointExtension>
        </extensions>
      </trkpt>
      <trkpt lat="43.776208944618701934814453125" lon="1.56646546907722949981689453125">
        <ele>140.600006103515625</ele>
        <time>2026-08-13T06:59:12.000Z</time>
        <extensions>
          <ns3:TrackPointExtension>
            <ns3:hr>78</ns3:hr>
            <ns3:cad>50</ns3:cad>
          </ns3:TrackPointExtension>
        </extensions>
      </trkpt>
      <trkpt lat="43.77621858380734920501708984375" lon="1.56647167168557643890380859375">
        <ele>140.399993896484375</ele>
        <time>2026-08-13T06:59:13.000Z</time>
        <extensions>
          <ns3:TrackPointExtension>
            <ns3:hr>78</ns3:hr>
            <ns3:cad>50</ns3:cad>
          </ns3:TrackPointExtension>
        </extensions>
      </trkpt>
      <trkpt lat="43.77622805535793304443359375" lon="1.56647779047489166259765625">
        <ele>140.399993896484375</ele>
        <time>2026-08-13T06:59:14.000Z</time>
        <extensions>
          <ns3:TrackPointExtension>
            <ns3:hr>78</ns3:hr>
            <ns3:cad>50</ns3:cad>
          </ns3:TrackPointExtension>
        </extensions>
      </trkpt>
      <trkpt lat="43.77623786218464374542236328125" lon="1.566484831273555755615234375">
        <ele>140.399993896484375</ele>
        <time>2026-08-13T06:59:15.000Z</time>
        <extensions>
          <ns3:TrackPointExtension>
            <ns3:hr>78</ns3:hr>
            <ns3:cad>50</ns3:cad>
          </ns3:TrackPointExtension>
        </extensions>
      </trkpt>
      <trkpt lat="43.77624490298330783843994140625" lon="1.56649212352931499481201171875">
        <ele>140.1999969482421875</ele>
        <time>2026-08-13T06:59:16.000Z</time>
        <extensions>
          <ns3:TrackPointExtension>
            <ns3:hr>78</ns3:hr>
            <ns3:cad>50</ns3:cad>
          </ns3:TrackPointExtension>
        </extensions>
      </trkpt>
      <trkpt lat="43.7762542068958282470703125" lon="1.56649715267121791839599609375">
        <ele>140.1999969482421875</ele>
        <time>2026-08-13T06:59:17.000Z</time>
        <extensions>
          <ns3:TrackPointExtension>
            <ns3:hr>78</ns3:hr>
            <ns3:cad>50</ns3:cad>
          </ns3:TrackPointExtension>
        </extensions>
      </trkpt>
      <trkpt lat="43.77626284025609493255615234375" lon="1.5664984099566936492919921875">
        <ele>140.1999969482421875</ele>
        <time>2026-08-13T06:59:18.000Z</time>
        <extensions>
          <ns3:TrackPointExtension>
            <ns3:hr>79</ns3:hr>
            <ns3:cad>50</ns3:cad>
          </ns3:TrackPointExtension>
        </extensions>
      </trkpt>
      <trkpt lat="43.77627004869282245635986328125" lon="1.56650285236537456512451171875">
        <ele>140.1999969482421875</ele>
        <time>2026-08-13T06:59:19.000Z</time>
        <extensions>
          <ns3:TrackPointExtension>
            <ns3:hr>79</ns3:hr>
            <ns3:cad>50</ns3:cad>
          </ns3:TrackPointExtension>
        </extensions>
      </trkpt>
      <trkpt lat="43.7762781791388988494873046875" lon="1.56650461256504058837890625">
        <ele>140</ele>
        <time>2026-08-13T06:59:20.000Z</time>
        <extensions>
          <ns3:TrackPointExtension>
            <ns3:hr>79</ns3:hr>
            <ns3:cad>49</ns3:cad>
          </ns3:TrackPointExtension>
        </extensions>
      </trkpt>
      <trkpt lat="43.77628563903272151947021484375" lon="1.566508971154689788818359375">
        <ele>140</ele>
        <time>2026-08-13T06:59:21.000Z</time>
        <extensions>
          <ns3:TrackPointExtension>
            <ns3:hr>80</ns3:hr>
            <ns3:cad>49</ns3:cad>
          </ns3:TrackPointExtension>
        </extensions>
      </trkpt>
      <trkpt lat="43.7762949429452419281005859375" lon="1.566514335572719573974609375">
        <ele>140</ele>
        <time>2026-08-13T06:59:22.000Z</time>
        <extensions>
          <ns3:TrackPointExtension>
            <ns3:hr>81</ns3:hr>
            <ns3:cad>48</ns3:cad>
          </ns3:TrackPointExtension>
        </extensions>
      </trkpt>
      <trkpt lat="43.77630223520100116729736328125" lon="1.56651609577238559722900390625">
        <ele>139.8000030517578125</ele>
        <time>2026-08-13T06:59:23.000Z</time>
        <extensions>
          <ns3:TrackPointExtension>
            <ns3:hr>81</ns3:hr>
            <ns3:cad>48</ns3:cad>
          </ns3:TrackPointExtension>
        </extensions>
      </trkpt>
      <trkpt lat="43.77630961127579212188720703125" lon="1.56651659868657588958740234375">
        <ele>139.8000030517578125</ele>
        <time>2026-08-13T06:59:24.000Z</time>
        <extensions>
          <ns3:TrackPointExtension>
            <ns3:hr>81</ns3:hr>
            <ns3:cad>48</ns3:cad>
          </ns3:TrackPointExtension>
        </extensions>
      </trkpt>
      <trkpt lat="43.776318244636058807373046875" lon="1.5665188618004322052001953125">
        <ele>139.8000030517578125</ele>
        <time>2026-08-13T06:59:25.000Z</time>
        <extensions>
          <ns3:TrackPointExtension>
            <ns3:hr>81</ns3:hr>
            <ns3:cad>48</ns3:cad>
          </ns3:TrackPointExtension>
        </extensions>
      </trkpt>
      <trkpt lat="43.77632729709148406982421875" lon="1.5665208734571933746337890625">
        <ele>139.600006103515625</ele>
        <time>2026-08-13T06:59:26.000Z</time>
        <extensions>
          <ns3:TrackPointExtension>
            <ns3:hr>82</ns3:hr>
            <ns3:cad>49</ns3:cad>
          </ns3:TrackPointExtension>
        </extensions>
      </trkpt>
      <trkpt lat="43.77633576281368732452392578125" lon="1.566525734961032867431640625">
        <ele>139.600006103515625</ele>
        <time>2026-08-13T06:59:27.000Z</time>
        <extensions>
          <ns3:TrackPointExtension>
            <ns3:hr>84</ns3:hr>
            <ns3:cad>50</ns3:cad>
          </ns3:TrackPointExtension>
        </extensions>
      </trkpt>
      <trkpt lat="43.77634364180266857147216796875" lon="1.56652565114200115203857421875">
        <ele>139.600006103515625</ele>
        <time>2026-08-13T06:59:28.000Z</time>
        <extensions>
          <ns3:TrackPointExtension>
            <ns3:hr>84</ns3:hr>
            <ns3:cad>50</ns3:cad>
          </ns3:TrackPointExtension>
        </extensions>
      </trkpt>
      <trkpt lat="43.77635370008647441864013671875" lon="1.5665280818939208984375">
        <ele>139.399993896484375</ele>
        <time>2026-08-13T06:59:29.000Z</time>
        <extensions>
          <ns3:TrackPointExtension>
            <ns3:hr>84</ns3:hr>
            <ns3:cad>50</ns3:cad>
          </ns3:TrackPointExtension>
        </extensions>
      </trkpt>
      <trkpt lat="43.77636224962770938873291015625" lon="1.56653000973165035247802734375">
        <ele>139.399993896484375</ele>
        <time>2026-08-13T06:59:30.000Z</time>
        <extensions>
          <ns3:TrackPointExtension>
            <ns3:hr>84</ns3:hr>
            <ns3:cad>50</ns3:cad>
          </ns3:TrackPointExtension>
        </extensions>
      </trkpt>
      <trkpt lat="43.77637155354022979736328125" lon="1.566533111035823822021484375">
        <ele>139.399993896484375</ele>
        <time>2026-08-13T06:59:31.000Z</time>
        <extensions>
          <ns3:TrackPointExtension>
            <ns3:hr>83</ns3:hr>
            <ns3:cad>49</ns3:cad>
          </ns3:TrackPointExtension>
        </extensions>
      </trkpt>
      <trkpt lat="43.7763790972530841827392578125" lon="1.56653814017772674560546875">
        <ele>139.399993896484375</ele>
        <time>2026-08-13T06:59:32.000Z</time>
        <extensions>
          <ns3:TrackPointExtension>
            <ns3:hr>83</ns3:hr>
            <ns3:cad>49</ns3:cad>
          </ns3:TrackPointExtension>
        </extensions>
      </trkpt>
      <trkpt lat="43.7763854674994945526123046875" lon="1.56654207967221736907958984375">
        <ele>139.1999969482421875</ele>
        <time>2026-08-13T06:59:33.000Z</time>
        <extensions>
          <ns3:TrackPointExtension>
            <ns3:hr>83</ns3:hr>
            <ns3:cad>48</ns3:cad>
          </ns3:TrackPointExtension>
        </extensions>
      </trkpt>
      <trkpt lat="43.7763931788504123687744140625" lon="1.5665460191667079925537109375">
        <ele>139.1999969482421875</ele>
        <time>2026-08-13T06:59:34.000Z</time>
        <extensions>
          <ns3:TrackPointExtension>
            <ns3:hr>82</ns3:hr>
            <ns3:cad>48</ns3:cad>
          </ns3:TrackPointExtension>
        </extensions>
      </trkpt>
      <trkpt lat="43.77639929763972759246826171875" lon="1.56654979102313518524169921875">
        <ele>139.1999969482421875</ele>
        <time>2026-08-13T06:59:35.000Z</time>
        <extensions>
          <ns3:TrackPointExtension>
            <ns3:hr>82</ns3:hr>
            <ns3:cad>48</ns3:cad>
          </ns3:TrackPointExtension>
        </extensions>
      </trkpt>
      <trkpt lat="43.77640642225742340087890625" lon="1.5665550716221332550048828125">
        <ele>139.1999969482421875</ele>
        <time>2026-08-13T06:59:36.000Z</time>
        <extensions>
          <ns3:TrackPointExtension>
            <ns3:hr>82</ns3:hr>
            <ns3:cad>48</ns3:cad>
          </ns3:TrackPointExtension>
        </extensions>
      </trkpt>
      <trkpt lat="43.776413463056087493896484375" lon="1.56656035222113132476806640625">
        <ele>139</ele>
        <time>2026-08-13T06:59:37.000Z</time>
        <extensions>
          <ns3:TrackPointExtension>
            <ns3:hr>82</ns3:hr>
            <ns3:cad>48</ns3:cad>
          </ns3:TrackPointExtension>
        </extensions>
      </trkpt>
      <trkpt lat="43.776416145265102386474609375" lon="1.5665624476969242095947265625">
        <ele>139</ele>
        <time>2026-08-13T06:59:38.000Z</time>
        <extensions>
          <ns3:TrackPointExtension>
            <ns3:hr>83</ns3:hr>
            <ns3:cad>47</ns3:cad>
          </ns3:TrackPointExtension>
        </extensions>
      </trkpt>
      <trkpt lat="43.77642779611051082611083984375" lon="1.56655917875468730926513671875">
        <ele>139</ele>
        <time>2026-08-13T06:59:39.000Z</time>
        <extensions>
          <ns3:TrackPointExtension>
            <ns3:hr>83</ns3:hr>
            <ns3:cad>47</ns3:cad>
          </ns3:TrackPointExtension>
        </extensions>
      </trkpt>
      <trkpt lat="43.7764391116797924041748046875" lon="1.5665637888014316558837890625">
        <ele>138.8000030517578125</ele>
        <time>2026-08-13T06:59:40.000Z</time>
        <extensions>
          <ns3:TrackPointExtension>
            <ns3:hr>83</ns3:hr>
            <ns3:cad>0</ns3:cad>
          </ns3:TrackPointExtension>
        </extensions>
      </trkpt>
      <trkpt lat="43.77644799649715423583984375" lon="1.566567979753017425537109375">
        <ele>138.8000030517578125</ele>
        <time>2026-08-13T06:59:41.000Z</time>
        <extensions>
          <ns3:TrackPointExtension>
            <ns3:hr>82</ns3:hr>
            <ns3:cad>46</ns3:cad>
          </ns3:TrackPointExtension>
        </extensions>
      </trkpt>
      <trkpt lat="43.7764575518667697906494140625" lon="1.56656957231462001800537109375">
        <ele>138.8000030517578125</ele>
        <time>2026-08-13T06:59:42.000Z</time>
        <extensions>
          <ns3:TrackPointExtension>
            <ns3:hr>82</ns3:hr>
            <ns3:cad>46</ns3:cad>
          </ns3:TrackPointExtension>
        </extensions>
      </trkpt>
      <trkpt lat="43.776469789445400238037109375" lon="1.5665718354284763336181640625">
        <ele>138.8000030517578125</ele>
        <time>2026-08-13T06:59:43.000Z</time>
        <extensions>
          <ns3:TrackPointExtension>
            <ns3:hr>81</ns3:hr>
            <ns3:cad>46</ns3:cad>
          </ns3:TrackPointExtension>
        </extensions>
      </trkpt>
      <trkpt lat="43.7764793448150157928466796875" lon="1.56657611019909381866455078125">
        <ele>138.600006103515625</ele>
        <time>2026-08-13T06:59:44.000Z</time>
        <extensions>
          <ns3:TrackPointExtension>
            <ns3:hr>80</ns3:hr>
            <ns3:cad>44</ns3:cad>
          </ns3:TrackPointExtension>
        </extensions>
      </trkpt>
      <trkpt lat="43.77648797817528247833251953125" lon="1.566580720245838165283203125">
        <ele>138.600006103515625</ele>
        <time>2026-08-13T06:59:45.000Z</time>
        <extensions>
          <ns3:TrackPointExtension>
            <ns3:hr>79</ns3:hr>
            <ns3:cad>0</ns3:cad>
          </ns3:TrackPointExtension>
        </extensions>
      </trkpt>
      <trkpt lat="43.77649937756359577178955078125" lon="1.56658080406486988067626953125">
        <ele>138.600006103515625</ele>
        <time>2026-08-13T06:59:46.000Z</time>
        <extensions>
          <ns3:TrackPointExtension>
            <ns3:hr>78</ns3:hr>
            <ns3:cad>0</ns3:cad>
          </ns3:TrackPointExtension>
        </extensions>
      </trkpt>
      <trkpt lat="43.776508681476116180419921875" lon="1.56658507883548736572265625">
        <ele>138.399993896484375</ele>
        <time>2026-08-13T06:59:47.000Z</time>
        <extensions>
          <ns3:TrackPointExtension>
            <ns3:hr>77</ns3:hr>
            <ns3:cad>47</ns3:cad>
          </ns3:TrackPointExtension>
        </extensions>
      </trkpt>
      <trkpt lat="43.77651681192219257354736328125" lon="1.5665896050631999969482421875">
        <ele>138.399993896484375</ele>
        <time>2026-08-13T06:59:48.000Z</time>
        <extensions>
          <ns3:TrackPointExtension>
            <ns3:hr>77</ns3:hr>
            <ns3:cad>47</ns3:cad>
          </ns3:TrackPointExtension>
        </extensions>
      </trkpt>
      <trkpt lat="43.7765259481966495513916015625" lon="1.5665953047573566436767578125">
        <ele>138.399993896484375</ele>
        <time>2026-08-13T06:59:49.000Z</time>
        <extensions>
          <ns3:TrackPointExtension>
            <ns3:hr>77</ns3:hr>
            <ns3:cad>47</ns3:cad>
          </ns3:TrackPointExtension>
        </extensions>
      </trkpt>
      <trkpt lat="43.77653441391885280609130859375" lon="1.566598825156688690185546875">
        <ele>138.399993896484375</ele>
        <time>2026-08-13T06:59:50.000Z</time>
        <extensions>
          <ns3:TrackPointExtension>
            <ns3:hr>77</ns3:hr>
            <ns3:cad>47</ns3:cad>
          </ns3:TrackPointExtension>
        </extensions>
      </trkpt>
      <trkpt lat="43.7765447236597537994384765625" lon="1.56660125590860843658447265625">
        <ele>138.1999969482421875</ele>
        <time>2026-08-13T06:59:51.000Z</time>
        <extensions>
          <ns3:TrackPointExtension>
            <ns3:hr>77</ns3:hr>
            <ns3:cad>47</ns3:cad>
          </ns3:TrackPointExtension>
        </extensions>
      </trkpt>
      <trkpt lat="43.7765541113913059234619140625" lon="1.56660662032663822174072265625">
        <ele>138.1999969482421875</ele>
        <time>2026-08-13T06:59:52.000Z</time>
        <extensions>
          <ns3:TrackPointExtension>
            <ns3:hr>76</ns3:hr>
            <ns3:cad>48</ns3:cad>
          </ns3:TrackPointExtension>
        </extensions>
      </trkpt>
      <trkpt lat="43.77656467258930206298828125" lon="1.56660829670727252960205078125">
        <ele>138.1999969482421875</ele>
        <time>2026-08-13T06:59:53.000Z</time>
        <extensions>
          <ns3:TrackPointExtension>
            <ns3:hr>76</ns3:hr>
            <ns3:cad>48</ns3:cad>
          </ns3:TrackPointExtension>
        </extensions>
      </trkpt>
      <trkpt lat="43.77657297067344188690185546875" lon="1.56661097891628742218017578125">
        <ele>138.1999969482421875</ele>
        <time>2026-08-13T06:59:54.000Z</time>
        <extensions>
          <ns3:TrackPointExtension>
            <ns3:hr>75</ns3:hr>
            <ns3:cad>48</ns3:cad>
          </ns3:TrackPointExtension>
        </extensions>
      </trkpt>
      <trkpt lat="43.7765816040337085723876953125" lon="1.56661399640142917633056640625">
        <ele>138.1999969482421875</ele>
        <time>2026-08-13T06:59:55.000Z</time>
        <extensions>
          <ns3:TrackPointExtension>
            <ns3:hr>75</ns3:hr>
            <ns3:cad>47</ns3:cad>
          </ns3:TrackPointExtension>
        </extensions>
      </trkpt>
      <trkpt lat="43.77659157849848270416259765625" lon="1.56661617569625377655029296875">
        <ele>138</ele>
        <time>2026-08-13T06:59:56.000Z</time>
        <extensions>
          <ns3:TrackPointExtension>
            <ns3:hr>75</ns3:hr>
            <ns3:cad>48</ns3:cad>
          </ns3:TrackPointExtension>
        </extensions>
      </trkpt>
      <trkpt lat="43.77659954130649566650390625" lon="1.5666179358959197998046875">
        <ele>138</ele>
        <time>2026-08-13T06:59:57.000Z</time>
        <extensions>
          <ns3:TrackPointExtension>
            <ns3:hr>75</ns3:hr>
            <ns3:cad>48</ns3:cad>
          </ns3:TrackPointExtension>
        </extensions>
      </trkpt>
      <trkpt lat="43.776609264314174652099609375" lon="1.5666224621236324310302734375">
        <ele>138</ele>
        <time>2026-08-13T06:59:58.000Z</time>
        <extensions>
          <ns3:TrackPointExtension>
            <ns3:hr>75</ns3:hr>
            <ns3:cad>49</ns3:cad>
          </ns3:TrackPointExtension>
        </extensions>
      </trkpt>
      <trkpt lat="43.77661890350282192230224609375" lon="1.56662656925618648529052734375">
        <ele>138</ele>
        <time>2026-08-13T06:59:59.000Z</time>
        <extensions>
          <ns3:TrackPointExtension>
            <ns3:hr>74</ns3:hr>
            <ns3:cad>48</ns3:cad>
          </ns3:TrackPointExtension>
        </extensions>
      </trkpt>
      <trkpt lat="43.77662594430148601531982421875" lon="1.566627323627471923828125">
        <ele>138</ele>
        <time>2026-08-13T07:00:00.000Z</time>
        <extensions>
          <ns3:TrackPointExtension>
            <ns3:hr>74</ns3:hr>
            <ns3:cad>47</ns3:cad>
          </ns3:TrackPointExtension>
        </extensions>
      </trkpt>
      <trkpt lat="43.776634745299816131591796875" lon="1.56663042493164539337158203125">
        <ele>138</ele>
        <time>2026-08-13T07:00:01.000Z</time>
        <extensions>
          <ns3:TrackPointExtension>
            <ns3:hr>74</ns3:hr>
            <ns3:cad>47</ns3:cad>
          </ns3:TrackPointExtension>
        </extensions>
      </trkpt>
      <trkpt lat="43.776642121374607086181640625" lon="1.566635034978389739990234375">
        <ele>138</ele>
        <time>2026-08-13T07:00:02.000Z</time>
        <extensions>
          <ns3:TrackPointExtension>
            <ns3:hr>74</ns3:hr>
            <ns3:cad>46</ns3:cad>
          </ns3:TrackPointExtension>
        </extensions>
      </trkpt>
      <trkpt lat="43.77665243111550807952880859375" lon="1.566643081605434417724609375">
        <ele>138</ele>
        <time>2026-08-13T07:00:03.000Z</time>
        <extensions>
          <ns3:TrackPointExtension>
            <ns3:hr>74</ns3:hr>
            <ns3:cad>46</ns3:cad>
          </ns3:TrackPointExtension>
        </extensions>
      </trkpt>
      <trkpt lat="43.77666031010448932647705078125" lon="1.5666476078331470489501953125">
        <ele>138</ele>
        <time>2026-08-13T07:00:04.000Z</time>
        <extensions>
          <ns3:TrackPointExtension>
            <ns3:hr>73</ns3:hr>
            <ns3:cad>47</ns3:cad>
          </ns3:TrackPointExtension>
        </extensions>
      </trkpt>
      <trkpt lat="43.7766687758266925811767578125" lon="1.5666499547660350799560546875">
        <ele>138</ele>
        <time>2026-08-13T07:00:05.000Z</time>
        <extensions>
          <ns3:TrackPointExtension>
            <ns3:hr>74</ns3:hr>
            <ns3:cad>47</ns3:cad>
          </ns3:TrackPointExtension>
        </extensions>
      </trkpt>
      <trkpt lat="43.77667690627276897430419921875" lon="1.5666512958705425262451171875">
        <ele>138</ele>
        <time>2026-08-13T07:00:06.000Z</time>
        <extensions>
          <ns3:TrackPointExtension>
            <ns3:hr>73</ns3:hr>
            <ns3:cad>47</ns3:cad>
          </ns3:TrackPointExtension>
        </extensions>
      </trkpt>
      <trkpt lat="43.776685036718845367431640625" lon="1.5666529722511768341064453125">
        <ele>137.8000030517578125</ele>
        <time>2026-08-13T07:00:07.000Z</time>
        <extensions>
          <ns3:TrackPointExtension>
            <ns3:hr>73</ns3:hr>
            <ns3:cad>47</ns3:cad>
          </ns3:TrackPointExtension>
        </extensions>
      </trkpt>
      <trkpt lat="43.7766945920884609222412109375" lon="1.56665640883147716522216796875">
        <ele>137.8000030517578125</ele>
        <time>2026-08-13T07:00:08.000Z</time>
        <extensions>
          <ns3:TrackPointExtension>
            <ns3:hr>72</ns3:hr>
            <ns3:cad>47</ns3:cad>
          </ns3:TrackPointExtension>
        </extensions>
      </trkpt>
      <trkpt lat="43.7767036445438861846923828125" lon="1.56665674410760402679443359375">
        <ele>137.8000030517578125</ele>
        <time>2026-08-13T07:00:09.000Z</time>
        <extensions>
          <ns3:TrackPointExtension>
            <ns3:hr>72</ns3:hr>
            <ns3:cad>0</ns3:cad>
          </ns3:TrackPointExtension>
        </extensions>
      </trkpt>
      <trkpt lat="43.77671361900866031646728515625" lon="1.5666586719453334808349609375">
        <ele>137.600006103515625</ele>
        <time>2026-08-13T07:00:10.000Z</time>
        <extensions>
          <ns3:TrackPointExtension>
            <ns3:hr>72</ns3:hr>
            <ns3:cad>0</ns3:cad>
          </ns3:TrackPointExtension>
        </extensions>
      </trkpt>
      <trkpt lat="43.77672267146408557891845703125" lon="1.56666127033531665802001953125">
        <ele>137.600006103515625</ele>
        <time>2026-08-13T07:00:11.000Z</time>
        <extensions>
          <ns3:TrackPointExtension>
            <ns3:hr>72</ns3:hr>
            <ns3:cad>0</ns3:cad>
          </ns3:TrackPointExtension>
        </extensions>
      </trkpt>
      <trkpt lat="43.7767308019101619720458984375" lon="1.56666462309658527374267578125">
        <ele>137.600006103515625</ele>
        <time>2026-08-13T07:00:12.000Z</time>
        <extensions>
          <ns3:TrackPointExtension>
            <ns3:hr>73</ns3:hr>
            <ns3:cad>46</ns3:cad>
          </ns3:TrackPointExtension>
        </extensions>
      </trkpt>
      <trkpt lat="43.77673977054655551910400390625" lon="1.56666747294366359710693359375">
        <ele>137.600006103515625</ele>
        <time>2026-08-13T07:00:13.000Z</time>
        <extensions>
          <ns3:TrackPointExtension>
            <ns3:hr>73</ns3:hr>
            <ns3:cad>46</ns3:cad>
          </ns3:TrackPointExtension>
        </extensions>
      </trkpt>
      <trkpt lat="43.77675116993486881256103515625" lon="1.56667233444750308990478515625">
        <ele>137.8000030517578125</ele>
        <time>2026-08-13T07:00:14.000Z</time>
        <extensions>
          <ns3:TrackPointExtension>
            <ns3:hr>74</ns3:hr>
            <ns3:cad>46</ns3:cad>
          </ns3:TrackPointExtension>
        </extensions>
      </trkpt>
      <trkpt lat="43.7767596356570720672607421875" lon="1.5666769444942474365234375">
        <ele>137.8000030517578125</ele>
        <time>2026-08-13T07:00:15.000Z</time>
        <extensions>
          <ns3:TrackPointExtension>
            <ns3:hr>74</ns3:hr>
            <ns3:cad>46</ns3:cad>
          </ns3:TrackPointExtension>
        </extensions>
      </trkpt>
      <trkpt lat="43.7767693586647510528564453125" lon="1.56668138690292835235595703125">
        <ele>137.8000030517578125</ele>
        <time>2026-08-13T07:00:16.000Z</time>
        <extensions>
          <ns3:TrackPointExtension>
            <ns3:hr>74</ns3:hr>
            <ns3:cad>46</ns3:cad>
          </ns3:TrackPointExtension>
        </extensions>
      </trkpt>
      <trkpt lat="43.77677866257727146148681640625" lon="1.56668373383581638336181640625">
        <ele>137.600006103515625</ele>
        <time>2026-08-13T07:00:17.000Z</time>
        <extensions>
          <ns3:TrackPointExtension>
            <ns3:hr>74</ns3:hr>
            <ns3:cad>47</ns3:cad>
          </ns3:TrackPointExtension>
        </extensions>
      </trkpt>
      <trkpt lat="43.77678771503269672393798828125" lon="1.56668557785451412200927734375">
        <ele>137.600006103515625</ele>
        <time>2026-08-13T07:00:18.000Z</time>
        <extensions>
          <ns3:TrackPointExtension>
            <ns3:hr>74</ns3:hr>
            <ns3:cad>47</ns3:cad>
          </ns3:TrackPointExtension>
        </extensions>
      </trkpt>
      <trkpt lat="43.776797018945217132568359375" lon="1.56668893061578273773193359375">
        <ele>137.600006103515625</ele>
        <time>2026-08-13T07:00:19.000Z</time>
        <extensions>
          <ns3:TrackPointExtension>
            <ns3:hr>75</ns3:hr>
            <ns3:cad>47</ns3:cad>
          </ns3:TrackPointExtension>
        </extensions>
      </trkpt>
      <trkpt lat="43.77680330537259578704833984375" lon="1.56669412739574909210205078125">
        <ele>137.600006103515625</ele>
        <time>2026-08-13T07:00:20.000Z</time>
        <extensions>
          <ns3:TrackPointExtension>
            <ns3:hr>76</ns3:hr>
            <ns3:cad>47</ns3:cad>
          </ns3:TrackPointExtension>
        </extensions>
      </trkpt>
      <trkpt lat="43.77681009471416473388671875" lon="1.5666948817670345306396484375">
        <ele>137.600006103515625</ele>
        <time>2026-08-13T07:00:21.000Z</time>
        <extensions>
          <ns3:TrackPointExtension>
            <ns3:hr>76</ns3:hr>
            <ns3:cad>46</ns3:cad>
          </ns3:TrackPointExtension>
        </extensions>
      </trkpt>
      <trkpt lat="43.77681923098862171173095703125" lon="1.5666952170431613922119140625">
        <ele>137.600006103515625</ele>
        <time>2026-08-13T07:00:22.000Z</time>
        <extensions>
          <ns3:TrackPointExtension>
            <ns3:hr>76</ns3:hr>
            <ns3:cad>46</ns3:cad>
          </ns3:TrackPointExtension>
        </extensions>
      </trkpt>
      <trkpt lat="43.77682778052985668182373046875" lon="1.56669639050960540771484375">
        <ele>137.399993896484375</ele>
        <time>2026-08-13T07:00:23.000Z</time>
        <extensions>
          <ns3:TrackPointExtension>
            <ns3:hr>77</ns3:hr>
            <ns3:cad>46</ns3:cad>
          </ns3:TrackPointExtension>
        </extensions>
      </trkpt>
      <trkpt lat="43.77683700062334537506103515625" lon="1.566699407994747161865234375">
        <ele>137.399993896484375</ele>
        <time>2026-08-13T07:00:24.000Z</time>
        <extensions>
          <ns3:TrackPointExtension>
            <ns3:hr>78</ns3:hr>
            <ns3:cad>46</ns3:cad>
          </ns3:TrackPointExtension>
        </extensions>
      </trkpt>
      <trkpt lat="43.77684504725039005279541015625" lon="1.5667035989463329315185546875">
        <ele>137.399993896484375</ele>
        <time>2026-08-13T07:00:25.000Z</time>
        <extensions>
          <ns3:TrackPointExtension>
            <ns3:hr>78</ns3:hr>
            <ns3:cad>45</ns3:cad>
          </ns3:TrackPointExtension>
        </extensions>
      </trkpt>
      <trkpt lat="43.77685443498194217681884765625" lon="1.56670552678406238555908203125">
        <ele>137.399993896484375</ele>
        <time>2026-08-13T07:00:26.000Z</time>
        <extensions>
          <ns3:TrackPointExtension>
            <ns3:hr>78</ns3:hr>
            <ns3:cad>44</ns3:cad>
          </ns3:TrackPointExtension>
        </extensions>
      </trkpt>
      <trkpt lat="43.77686181105673313140869140625" lon="1.56671022064983844757080078125">
        <ele>137.399993896484375</ele>
        <time>2026-08-13T07:00:27.000Z</time>
        <extensions>
          <ns3:TrackPointExtension>
            <ns3:hr>78</ns3:hr>
            <ns3:cad>44</ns3:cad>
          </ns3:TrackPointExtension>
        </extensions>
      </trkpt>
      <trkpt lat="43.77686784602701663970947265625" lon="1.5667173452675342559814453125">
        <ele>137.399993896484375</ele>
        <time>2026-08-13T07:00:28.000Z</time>
        <extensions>
          <ns3:TrackPointExtension>
            <ns3:hr>78</ns3:hr>
            <ns3:cad>45</ns3:cad>
          </ns3:TrackPointExtension>
        </extensions>
      </trkpt>
      <trkpt lat="43.77687656320631504058837890625" lon="1.56672011129558086395263671875">
        <ele>137.399993896484375</ele>
        <time>2026-08-13T07:00:29.000Z</time>
        <extensions>
          <ns3:TrackPointExtension>
            <ns3:hr>78</ns3:hr>
            <ns3:cad>45</ns3:cad>
          </ns3:TrackPointExtension>
        </extensions>
      </trkpt>
      <trkpt lat="43.77688511274755001068115234375" lon="1.566723547875881195068359375">
        <ele>137.399993896484375</ele>
        <time>2026-08-13T07:00:30.000Z</time>
        <extensions>
          <ns3:TrackPointExtension>
            <ns3:hr>77</ns3:hr>
            <ns3:cad>45</ns3:cad>
          </ns3:TrackPointExtension>
        </extensions>
      </trkpt>
      <trkpt lat="43.7768974341452121734619140625" lon="1.5667257271707057952880859375">
        <ele>137.399993896484375</ele>
        <time>2026-08-13T07:00:31.000Z</time>
        <extensions>
          <ns3:TrackPointExtension>
            <ns3:hr>78</ns3:hr>
            <ns3:cad>46</ns3:cad>
          </ns3:TrackPointExtension>
        </extensions>
      </trkpt>
      <trkpt lat="43.77690506167709827423095703125" lon="1.5667290799319744110107421875">
        <ele>137.1999969482421875</ele>
        <time>2026-08-13T07:00:32.000Z</time>
        <extensions>
          <ns3:TrackPointExtension>
            <ns3:hr>78</ns3:hr>
            <ns3:cad>46</ns3:cad>
          </ns3:TrackPointExtension>
        </extensions>
      </trkpt>
      <trkpt lat="43.7769145332276821136474609375" lon="1.56673385761678218841552734375">
        <ele>137.1999969482421875</ele>
        <time>2026-08-13T07:00:33.000Z</time>
        <extensions>
          <ns3:TrackPointExtension>
            <ns3:hr>78</ns3:hr>
            <ns3:cad>46</ns3:cad>
          </ns3:TrackPointExtension>
        </extensions>
      </trkpt>
      <trkpt lat="43.7769215740263462066650390625" lon="1.5667364560067653656005859375">
        <ele>137.1999969482421875</ele>
        <time>2026-08-13T07:00:34.000Z</time>
        <extensions>
          <ns3:TrackPointExtension>
            <ns3:hr>78</ns3:hr>
            <ns3:cad>46</ns3:cad>
          </ns3:TrackPointExtension>
        </extensions>
      </trkpt>
      <trkpt lat="43.776929117739200592041015625" lon="1.56673796474933624267578125">
        <ele>137.1999969482421875</ele>
        <time>2026-08-13T07:00:35.000Z</time>
        <extensions>
          <ns3:TrackPointExtension>
            <ns3:hr>78</ns3:hr>
            <ns3:cad>46</ns3:cad>
          </ns3:TrackPointExtension>
        </extensions>
      </trkpt>
      <trkpt lat="43.7769363261759281158447265625" lon="1.56674123369157314300537109375">
        <ele>137.1999969482421875</ele>
        <time>2026-08-13T07:00:36.000Z</time>
        <extensions>
          <ns3:TrackPointExtension>
            <ns3:hr>78</ns3:hr>
            <ns3:cad>46</ns3:cad>
          </ns3:TrackPointExtension>
        </extensions>
      </trkpt>
      <trkpt lat="43.77694378606975078582763671875" lon="1.56674726866185665130615234375">
        <ele>137.1999969482421875</ele>
        <time>2026-08-13T07:00:37.000Z</time>
        <extensions>
          <ns3:TrackPointExtension>
            <ns3:hr>78</ns3:hr>
            <ns3:cad>46</ns3:cad>
          </ns3:TrackPointExtension>
        </extensions>
      </trkpt>
      <trkpt lat="43.77694680355489253997802734375" lon="1.566748358309268951416015625">
        <ele>137.1999969482421875</ele>
        <time>2026-08-13T07:00:38.000Z</time>
        <extensions>
          <ns3:TrackPointExtension>
            <ns3:hr>78</ns3:hr>
            <ns3:cad>45</ns3:cad>
          </ns3:TrackPointExtension>
        </extensions>
      </trkpt>
      <trkpt lat="43.7769530899822711944580078125" lon="1.5667515434324741363525390625">
        <ele>137.1999969482421875</ele>
        <time>2026-08-13T07:00:39.000Z</time>
        <extensions>
          <ns3:TrackPointExtension>
            <ns3:hr>78</ns3:hr>
            <ns3:cad>45</ns3:cad>
          </ns3:TrackPointExtension>
        </extensions>
      </trkpt>
      <trkpt lat="43.77696993760764598846435546875" lon="1.56676210463047027587890625">
        <ele>137.1999969482421875</ele>
        <time>2026-08-13T07:00:40.000Z</time>
        <extensions>
          <ns3:TrackPointExtension>
            <ns3:hr>77</ns3:hr>
            <ns3:cad>45</ns3:cad>
          </ns3:TrackPointExtension>
        </extensions>
      </trkpt>
      <trkpt lat="43.77698133699595928192138671875" lon="1.56676956452429294586181640625">
        <ele>137</ele>
        <time>2026-08-13T07:00:41.000Z</time>
        <extensions>
          <ns3:TrackPointExtension>
            <ns3:hr>78</ns3:hr>
            <ns3:cad>44</ns3:cad>
          </ns3:TrackPointExtension>
        </extensions>
      </trkpt>
      <trkpt lat="43.7769906409084796905517578125" lon="1.566773168742656707763671875">
        <ele>137</ele>
        <time>2026-08-13T07:00:42.000Z</time>
        <extensions>
          <ns3:TrackPointExtension>
            <ns3:hr>78</ns3:hr>
            <ns3:cad>44</ns3:cad>
          </ns3:TrackPointExtension>
        </extensions>
      </trkpt>
      <trkpt lat="43.77700078301131725311279296875" lon="1.56677895225584506988525390625">
        <ele>137</ele>
        <time>2026-08-13T07:00:43.000Z</time>
        <extensions>
          <ns3:TrackPointExtension>
            <ns3:hr>78</ns3:hr>
            <ns3:cad>44</ns3:cad>
          </ns3:TrackPointExtension>
        </extensions>
      </trkpt>
      <trkpt lat="43.7770097516477108001708984375" lon="1.56678490340709686279296875">
        <ele>137</ele>
        <time>2026-08-13T07:00:44.000Z</time>
        <extensions>
          <ns3:TrackPointExtension>
            <ns3:hr>78</ns3:hr>
            <ns3:cad>45</ns3:cad>
          </ns3:TrackPointExtension>
        </extensions>
      </trkpt>
      <trkpt lat="43.77702039666473865509033203125" lon="1.5667931176722049713134765625">
        <ele>137</ele>
        <time>2026-08-13T07:00:45.000Z</time>
        <extensions>
          <ns3:TrackPointExtension>
            <ns3:hr>78</ns3:hr>
            <ns3:cad>46</ns3:cad>
          </ns3:TrackPointExtension>
        </extensions>
      </trkpt>
      <trkpt lat="43.7770295329391956329345703125" lon="1.5667998231947422027587890625">
        <ele>137</ele>
        <time>2026-08-13T07:00:46.000Z</time>
        <extensions>
          <ns3:TrackPointExtension>
            <ns3:hr>78</ns3:hr>
            <ns3:cad>46</ns3:cad>
          </ns3:TrackPointExtension>
        </extensions>
      </trkpt>
      <trkpt lat="43.7770395912230014801025390625" lon="1.5668038465082645416259765625">
        <ele>137</ele>
        <time>2026-08-13T07:00:47.000Z</time>
        <extensions>
          <ns3:TrackPointExtension>
            <ns3:hr>78</ns3:hr>
            <ns3:cad>47</ns3:cad>
          </ns3:TrackPointExtension>
        </extensions>
      </trkpt>
      <trkpt lat="43.77704822458326816558837890625" lon="1.56680979765951633453369140625">
        <ele>137</ele>
        <time>2026-08-13T07:00:48.000Z</time>
        <extensions>
          <ns3:TrackPointExtension>
            <ns3:hr>78</ns3:hr>
            <ns3:cad>47</ns3:cad>
          </ns3:TrackPointExtension>
        </extensions>
      </trkpt>
      <trkpt lat="43.777057193219661712646484375" lon="1.56681600026786327362060546875">
        <ele>137</ele>
        <time>2026-08-13T07:00:49.000Z</time>
        <extensions>
          <ns3:TrackPointExtension>
            <ns3:hr>78</ns3:hr>
            <ns3:cad>47</ns3:cad>
          </ns3:TrackPointExtension>
        </extensions>
      </trkpt>
      <trkpt lat="43.7770650722086429595947265625" lon="1.56682270579040050506591796875">
        <ele>136.8000030517578125</ele>
        <time>2026-08-13T07:00:50.000Z</time>
        <extensions>
          <ns3:TrackPointExtension>
            <ns3:hr>78</ns3:hr>
            <ns3:cad>47</ns3:cad>
          </ns3:TrackPointExtension>
        </extensions>
      </trkpt>
      <trkpt lat="43.77707253210246562957763671875" lon="1.5668316744267940521240234375">
        <ele>136.8000030517578125</ele>
        <time>2026-08-13T07:00:51.000Z</time>
        <extensions>
          <ns3:TrackPointExtension>
            <ns3:hr>78</ns3:hr>
            <ns3:cad>47</ns3:cad>
          </ns3:TrackPointExtension>
        </extensions>
      </trkpt>
      <trkpt lat="43.77708124928176403045654296875" lon="1.56683779321610927581787109375">
        <ele>136.8000030517578125</ele>
        <time>2026-08-13T07:00:52.000Z</time>
        <extensions>
          <ns3:TrackPointExtension>
            <ns3:hr>78</ns3:hr>
            <ns3:cad>47</ns3:cad>
          </ns3:TrackPointExtension>
        </extensions>
      </trkpt>
      <trkpt lat="43.777090720832347869873046875" lon="1.566846929490566253662109375">
        <ele>136.8000030517578125</ele>
        <time>2026-08-13T07:00:53.000Z</time>
        <extensions>
          <ns3:TrackPointExtension>
            <ns3:hr>78</ns3:hr>
            <ns3:cad>47</ns3:cad>
          </ns3:TrackPointExtension>
        </extensions>
      </trkpt>
      <trkpt lat="43.77709885127842426300048828125" lon="1.5668571554124355316162109375">
        <ele>136.8000030517578125</ele>
        <time>2026-08-13T07:00:54.000Z</time>
        <extensions>
          <ns3:TrackPointExtension>
            <ns3:hr>78</ns3:hr>
            <ns3:cad>47</ns3:cad>
          </ns3:TrackPointExtension>
        </extensions>
      </trkpt>
      <trkpt lat="43.77710488624870777130126953125" lon="1.56686746515333652496337890625">
        <ele>136.8000030517578125</ele>
        <time>2026-08-13T07:00:55.000Z</time>
        <extensions>
          <ns3:TrackPointExtension>
            <ns3:hr>79</ns3:hr>
            <ns3:cad>47</ns3:cad>
          </ns3:TrackPointExtension>
        </extensions>
      </trkpt>
      <trkpt lat="43.77711175940930843353271484375" lon="1.5668776072561740875244140625">
        <ele>136.8000030517578125</ele>
        <time>2026-08-13T07:00:56.000Z</time>
        <extensions>
          <ns3:TrackPointExtension>
            <ns3:hr>79</ns3:hr>
            <ns3:cad>48</ns3:cad>
          </ns3:TrackPointExtension>
        </extensions>
      </trkpt>
      <trkpt lat="43.77711913548409938812255859375" lon="1.56688624061644077301025390625">
        <ele>136.8000030517578125</ele>
        <time>2026-08-13T07:00:57.000Z</time>
        <extensions>
          <ns3:TrackPointExtension>
            <ns3:hr>80</ns3:hr>
            <ns3:cad>48</ns3:cad>
          </ns3:TrackPointExtension>
        </extensions>
      </trkpt>
      <trkpt lat="43.777124918997287750244140625" lon="1.56689479015767574310302734375">
        <ele>136.8000030517578125</ele>
        <time>2026-08-13T07:00:58.000Z</time>
        <extensions>
          <ns3:TrackPointExtension>
            <ns3:hr>80</ns3:hr>
            <ns3:cad>49</ns3:cad>
          </ns3:TrackPointExtension>
        </extensions>
      </trkpt>
      <trkpt lat="43.77713137306272983551025390625" lon="1.5669040940701961517333984375">
        <ele>136.8000030517578125</ele>
        <time>2026-08-13T07:00:59.000Z</time>
        <extensions>
          <ns3:TrackPointExtension>
            <ns3:hr>80</ns3:hr>
            <ns3:cad>49</ns3:cad>
          </ns3:TrackPointExtension>
        </extensions>
      </trkpt>
      <trkpt lat="43.77713732421398162841796875" lon="1.5669124759733676910400390625">
        <ele>136.600006103515625</ele>
        <time>2026-08-13T07:01:00.000Z</time>
        <extensions>
          <ns3:TrackPointExtension>
            <ns3:hr>79</ns3:hr>
            <ns3:cad>49</ns3:cad>
          </ns3:TrackPointExtension>
        </extensions>
      </trkpt>
      <trkpt lat="43.77714528702199459075927734375" lon="1.56691968441009521484375">
        <ele>136.600006103515625</ele>
        <time>2026-08-13T07:01:01.000Z</time>
        <extensions>
          <ns3:TrackPointExtension>
            <ns3:hr>79</ns3:hr>
            <ns3:cad>48</ns3:cad>
          </ns3:TrackPointExtension>
        </extensions>
      </trkpt>
      <trkpt lat="43.77715199254453182220458984375" lon="1.56692840158939361572265625">
        <ele>136.600006103515625</ele>
        <time>2026-08-13T07:01:02.000Z</time>
        <extensions>
          <ns3:TrackPointExtension>
            <ns3:hr>80</ns3:hr>
            <ns3:cad>48</ns3:cad>
          </ns3:TrackPointExtension>
        </extensions>
      </trkpt>
      <trkpt lat="43.77715769223868846893310546875" lon="1.5669372864067554473876953125">
        <ele>136.600006103515625</ele>
        <time>2026-08-13T07:01:03.000Z</time>
        <extensions>
          <ns3:TrackPointExtension>
            <ns3:hr>81</ns3:hr>
            <ns3:cad>46</ns3:cad>
          </ns3:TrackPointExtension>
        </extensions>
      </trkpt>
      <trkpt lat="43.7771629728376865386962890625" lon="1.5669473446905612945556640625">
        <ele>136.600006103515625</ele>
        <time>2026-08-13T07:01:04.000Z</time>
        <extensions>
          <ns3:TrackPointExtension>
            <ns3:hr>81</ns3:hr>
            <ns3:cad>46</ns3:cad>
          </ns3:TrackPointExtension>
        </extensions>
      </trkpt>
      <trkpt lat="43.7771696783602237701416015625" lon="1.5669547207653522491455078125">
        <ele>136.600006103515625</ele>
        <time>2026-08-13T07:01:05.000Z</time>
        <extensions>
          <ns3:TrackPointExtension>
            <ns3:hr>82</ns3:hr>
            <ns3:cad>46</ns3:cad>
          </ns3:TrackPointExtension>
        </extensions>
      </trkpt>
      <trkpt lat="43.77717512659728527069091796875" lon="1.566962264478206634521484375">
        <ele>136.600006103515625</ele>
        <time>2026-08-13T07:01:06.000Z</time>
        <extensions>
          <ns3:TrackPointExtension>
            <ns3:hr>82</ns3:hr>
            <ns3:cad>46</ns3:cad>
          </ns3:TrackPointExtension>
        </extensions>
      </trkpt>
      <trkpt lat="43.77718267031013965606689453125" lon="1.5669719874858856201171875">
        <ele>136.399993896484375</ele>
        <time>2026-08-13T07:01:07.000Z</time>
        <extensions>
          <ns3:TrackPointExtension>
            <ns3:hr>81</ns3:hr>
            <ns3:cad>45</ns3:cad>
          </ns3:TrackPointExtension>
        </extensions>
      </trkpt>
      <trkpt lat="43.777189962565898895263671875" lon="1.56698062084615230560302734375">
        <ele>136.399993896484375</ele>
        <time>2026-08-13T07:01:08.000Z</time>
        <extensions>
          <ns3:TrackPointExtension>
            <ns3:hr>81</ns3:hr>
            <ns3:cad>45</ns3:cad>
          </ns3:TrackPointExtension>
        </extensions>
      </trkpt>
      <trkpt lat="43.77719842828810214996337890625" lon="1.56699017621576786041259765625">
        <ele>136.399993896484375</ele>
        <time>2026-08-13T07:01:09.000Z</time>
        <extensions>
          <ns3:TrackPointExtension>
            <ns3:hr>80</ns3:hr>
            <ns3:cad>44</ns3:cad>
          </ns3:TrackPointExtension>
        </extensions>
      </trkpt>
      <trkpt lat="43.77720396034419536590576171875" lon="1.56700056977570056915283203125">
        <ele>136.399993896484375</ele>
        <time>2026-08-13T07:01:10.000Z</time>
        <extensions>
          <ns3:TrackPointExtension>
            <ns3:hr>80</ns3:hr>
            <ns3:cad>44</ns3:cad>
          </ns3:TrackPointExtension>
        </extensions>
      </trkpt>
      <trkpt lat="43.777210079133510589599609375" lon="1.56701029278337955474853515625">
        <ele>136.399993896484375</ele>
        <time>2026-08-13T07:01:11.000Z</time>
        <extensions>
          <ns3:TrackPointExtension>
            <ns3:hr>80</ns3:hr>
            <ns3:cad>44</ns3:cad>
          </ns3:TrackPointExtension>
        </extensions>
      </trkpt>
      <trkpt lat="43.77721569500863552093505859375" lon="1.5670207701623439788818359375">
        <ele>136.600006103515625</ele>
        <time>2026-08-13T07:01:12.000Z</time>
        <extensions>
          <ns3:TrackPointExtension>
            <ns3:hr>80</ns3:hr>
            <ns3:cad>45</ns3:cad>
          </ns3:TrackPointExtension>
        </extensions>
      </trkpt>
      <trkpt lat="43.7772243283689022064208984375" lon="1.56702873297035694122314453125">
        <ele>136.399993896484375</ele>
        <time>2026-08-13T07:01:13.000Z</time>
        <extensions>
          <ns3:TrackPointExtension>
            <ns3:hr>80</ns3:hr>
            <ns3:cad>45</ns3:cad>
          </ns3:TrackPointExtension>
        </extensions>
      </trkpt>
      <trkpt lat="43.77723229117691516876220703125" lon="1.56703812070190906524658203125">
        <ele>136.399993896484375</ele>
        <time>2026-08-13T07:01:14.000Z</time>
        <extensions>
          <ns3:TrackPointExtension>
            <ns3:hr>80</ns3:hr>
            <ns3:cad>46</ns3:cad>
          </ns3:TrackPointExtension>
        </extensions>
      </trkpt>
      <trkpt lat="43.77723924815654754638671875" lon="1.5670452453196048736572265625">
        <ele>136.399993896484375</ele>
        <time>2026-08-13T07:01:15.000Z</time>
        <extensions>
          <ns3:TrackPointExtension>
            <ns3:hr>80</ns3:hr>
            <ns3:cad>46</ns3:cad>
          </ns3:TrackPointExtension>
        </extensions>
      </trkpt>
      <trkpt lat="43.777246288955211639404296875" lon="1.56705379486083984375">
        <ele>136.399993896484375</ele>
        <time>2026-08-13T07:01:16.000Z</time>
        <extensions>
          <ns3:TrackPointExtension>
            <ns3:hr>79</ns3:hr>
            <ns3:cad>46</ns3:cad>
          </ns3:TrackPointExtension>
        </extensions>
      </trkpt>
      <trkpt lat="43.777253665030002593994140625" lon="1.56706259585916996002197265625">
        <ele>136.399993896484375</ele>
        <time>2026-08-13T07:01:17.000Z</time>
        <extensions>
          <ns3:TrackPointExtension>
            <ns3:hr>79</ns3:hr>
            <ns3:cad>48</ns3:cad>
          </ns3:TrackPointExtension>
        </extensions>
      </trkpt>
      <trkpt lat="43.77726162783801555633544921875" lon="1.5670690499246120452880859375">
        <ele>136.399993896484375</ele>
        <time>2026-08-13T07:01:18.000Z</time>
        <extensions>
          <ns3:TrackPointExtension>
            <ns3:hr>78</ns3:hr>
            <ns3:cad>48</ns3:cad>
          </ns3:TrackPointExtension>
        </extensions>
      </trkpt>
      <trkpt lat="43.77727101556956768035888671875" lon="1.56707801856100559234619140625">
        <ele>136.399993896484375</ele>
        <time>2026-08-13T07:01:19.000Z</time>
        <extensions>
          <ns3:TrackPointExtension>
            <ns3:hr>78</ns3:hr>
            <ns3:cad>48</ns3:cad>
          </ns3:TrackPointExtension>
        </extensions>
      </trkpt>
      <trkpt lat="43.7772766314446926116943359375" lon="1.56708455644547939300537109375">
        <ele>136.1999969482421875</ele>
        <time>2026-08-13T07:01:20.000Z</time>
        <extensions>
          <ns3:TrackPointExtension>
            <ns3:hr>79</ns3:hr>
            <ns3:cad>49</ns3:cad>
          </ns3:TrackPointExtension>
        </extensions>
      </trkpt>
      <trkpt lat="43.7772814929485321044921875" lon="1.56709293834865093231201171875">
        <ele>136.399993896484375</ele>
        <time>2026-08-13T07:01:21.000Z</time>
        <extensions>
          <ns3:TrackPointExtension>
            <ns3:hr>79</ns3:hr>
            <ns3:cad>49</ns3:cad>
          </ns3:TrackPointExtension>
        </extensions>
      </trkpt>
      <trkpt lat="43.77728878520429134368896484375" lon="1.5671029128134250640869140625">
        <ele>136.399993896484375</ele>
        <time>2026-08-13T07:01:22.000Z</time>
        <extensions>
          <ns3:TrackPointExtension>
            <ns3:hr>79</ns3:hr>
            <ns3:cad>49</ns3:cad>
          </ns3:TrackPointExtension>
        </extensions>
      </trkpt>
      <trkpt lat="43.77729884348809719085693359375" lon="1.56711347401142120361328125">
        <ele>136.399993896484375</ele>
        <time>2026-08-13T07:01:23.000Z</time>
        <extensions>
          <ns3:TrackPointExtension>
            <ns3:hr>80</ns3:hr>
            <ns3:cad>49</ns3:cad>
          </ns3:TrackPointExtension>
        </extensions>
      </trkpt>
      <trkpt lat="43.77730873413383960723876953125" lon="1.56712830998003482818603515625">
        <ele>136.399993896484375</ele>
        <time>2026-08-13T07:01:24.000Z</time>
        <extensions>
          <ns3:TrackPointExtension>
            <ns3:hr>80</ns3:hr>
            <ns3:cad>46</ns3:cad>
          </ns3:TrackPointExtension>
        </extensions>
      </trkpt>
      <trkpt lat="43.7773121707141399383544921875" lon="1.56713962554931640625">
        <ele>136.399993896484375</ele>
        <time>2026-08-13T07:01:25.000Z</time>
        <extensions>
          <ns3:TrackPointExtension>
            <ns3:hr>80</ns3:hr>
            <ns3:cad>46</ns3:cad>
          </ns3:TrackPointExtension>
        </extensions>
      </trkpt>
      <trkpt lat="43.7773208878934383392333984375" lon="1.56715027056634426116943359375">
        <ele>136.399993896484375</ele>
        <time>2026-08-13T07:01:26.000Z</time>
        <extensions>
          <ns3:TrackPointExtension>
            <ns3:hr>81</ns3:hr>
            <ns3:cad>48</ns3:cad>
          </ns3:TrackPointExtension>
        </extensions>
      </trkpt>
      <trkpt lat="43.77732574939727783203125" lon="1.5671575628221035003662109375">
        <ele>136.399993896484375</ele>
        <time>2026-08-13T07:01:27.000Z</time>
        <extensions>
          <ns3:TrackPointExtension>
            <ns3:hr>82</ns3:hr>
            <ns3:cad>48</ns3:cad>
          </ns3:TrackPointExtension>
        </extensions>
      </trkpt>
      <trkpt lat="43.77733589150011539459228515625" lon="1.5671672858297824859619140625">
        <ele>136.399993896484375</ele>
        <time>2026-08-13T07:01:28.000Z</time>
        <extensions>
          <ns3:TrackPointExtension>
            <ns3:hr>83</ns3:hr>
            <ns3:cad>48</ns3:cad>
          </ns3:TrackPointExtension>
        </extensions>
      </trkpt>
      <trkpt lat="43.7773473747074604034423828125" lon="1.56718161888420581817626953125">
        <ele>136.399993896484375</ele>
        <time>2026-08-13T07:01:29.000Z</time>
        <extensions>
          <ns3:TrackPointExtension>
            <ns3:hr>83</ns3:hr>
            <ns3:cad>48</ns3:cad>
          </ns3:TrackPointExtension>
        </extensions>
      </trkpt>
      <trkpt lat="43.77735332585871219635009765625" lon="1.56719050370156764984130859375">
        <ele>136.399993896484375</ele>
        <time>2026-08-13T07:01:30.000Z</time>
        <extensions>
          <ns3:TrackPointExtension>
            <ns3:hr>84</ns3:hr>
            <ns3:cad>47</ns3:cad>
          </ns3:TrackPointExtension>
        </extensions>
      </trkpt>
      <trkpt lat="43.7773587740957736968994140625" lon="1.56720022670924663543701171875">
        <ele>136.399993896484375</ele>
        <time>2026-08-13T07:01:31.000Z</time>
        <extensions>
          <ns3:TrackPointExtension>
            <ns3:hr>84</ns3:hr>
            <ns3:cad>47</ns3:cad>
          </ns3:TrackPointExtension>
        </extensions>
      </trkpt>
      <trkpt lat="43.7773646414279937744140625" lon="1.567210368812084197998046875">
        <ele>136.399993896484375</ele>
        <time>2026-08-13T07:01:32.000Z</time>
        <extensions>
          <ns3:TrackPointExtension>
            <ns3:hr>85</ns3:hr>
            <ns3:cad>47</ns3:cad>
          </ns3:TrackPointExtension>
        </extensions>
      </trkpt>
      <trkpt lat="43.77737226895987987518310546875" lon="1.56722746789455413818359375">
        <ele>136.399993896484375</ele>
        <time>2026-08-13T07:01:33.000Z</time>
        <extensions>
          <ns3:TrackPointExtension>
            <ns3:hr>86</ns3:hr>
            <ns3:cad>47</ns3:cad>
          </ns3:TrackPointExtension>
        </extensions>
      </trkpt>
      <trkpt lat="43.7773792259395122528076171875" lon="1.56724029220640659332275390625">
        <ele>136.399993896484375</ele>
        <time>2026-08-13T07:01:34.000Z</time>
        <extensions>
          <ns3:TrackPointExtension>
            <ns3:hr>87</ns3:hr>
            <ns3:cad>47</ns3:cad>
          </ns3:TrackPointExtension>
        </extensions>
      </trkpt>
      <trkpt lat="43.7773855961859226226806640625" lon="1.56725202687084674835205078125">
        <ele>136.399993896484375</ele>
        <time>2026-08-13T07:01:35.000Z</time>
        <extensions>
          <ns3:TrackPointExtension>
            <ns3:hr>88</ns3:hr>
            <ns3:cad>48</ns3:cad>
          </ns3:TrackPointExtension>
        </extensions>
      </trkpt>
      <trkpt lat="43.77739255316555500030517578125" lon="1.56726174987852573394775390625">
        <ele>136.399993896484375</ele>
        <time>2026-08-13T07:01:36.000Z</time>
        <extensions>
          <ns3:TrackPointExtension>
            <ns3:hr>88</ns3:hr>
            <ns3:cad>47</ns3:cad>
          </ns3:TrackPointExtension>
        </extensions>
      </trkpt>
      <trkpt lat="43.7773959897458553314208984375" lon="1.56726577319204807281494140625">
        <ele>136.1999969482421875</ele>
        <time>2026-08-13T07:01:37.000Z</time>
        <extensions>
          <ns3:TrackPointExtension>
            <ns3:hr>88</ns3:hr>
            <ns3:cad>44</ns3:cad>
          </ns3:TrackPointExtension>
        </extensions>
      </trkpt>
      <trkpt lat="43.77740378491580486297607421875" lon="1.56727868132293224334716796875">
        <ele>136.1999969482421875</ele>
        <time>2026-08-13T07:01:38.000Z</time>
        <extensions>
          <ns3:TrackPointExtension>
            <ns3:hr>88</ns3:hr>
            <ns3:cad>45</ns3:cad>
          </ns3:TrackPointExtension>
        </extensions>
      </trkpt>
      <trkpt lat="43.7774083949625492095947265625" lon="1.5672849677503108978271484375">
        <ele>136.1999969482421875</ele>
        <time>2026-08-13T07:01:39.000Z</time>
        <extensions>
          <ns3:TrackPointExtension>
            <ns3:hr>88</ns3:hr>
            <ns3:cad>45</ns3:cad>
          </ns3:TrackPointExtension>
        </extensions>
      </trkpt>
      <trkpt lat="43.77741350792348384857177734375" lon="1.56728857196867465972900390625">
        <ele>136.1999969482421875</ele>
        <time>2026-08-13T07:01:40.000Z</time>
        <extensions>
          <ns3:TrackPointExtension>
            <ns3:hr>89</ns3:hr>
            <ns3:cad>45</ns3:cad>
          </ns3:TrackPointExtension>
        </extensions>
      </trkpt>
      <trkpt lat="43.7774261645972728729248046875" lon="1.56730114482343196868896484375">
        <ele>136.1999969482421875</ele>
        <time>2026-08-13T07:01:41.000Z</time>
        <extensions>
          <ns3:TrackPointExtension>
            <ns3:hr>89</ns3:hr>
            <ns3:cad>45</ns3:cad>
          </ns3:TrackPointExtension>
        </extensions>
      </trkpt>
      <trkpt lat="43.77743043936789035797119140625" lon="1.56731539405882358551025390625">
        <ele>136.1999969482421875</ele>
        <time>2026-08-13T07:01:42.000Z</time>
        <extensions>
          <ns3:TrackPointExtension>
            <ns3:hr>89</ns3:hr>
            <ns3:cad>45</ns3:cad>
          </ns3:TrackPointExtension>
        </extensions>
      </trkpt>
      <trkpt lat="43.77743597142398357391357421875" lon="1.56732578761875629425048828125">
        <ele>136.1999969482421875</ele>
        <time>2026-08-13T07:01:43.000Z</time>
        <extensions>
          <ns3:TrackPointExtension>
            <ns3:hr>89</ns3:hr>
            <ns3:cad>47</ns3:cad>
          </ns3:TrackPointExtension>
        </extensions>
      </trkpt>
      <trkpt lat="43.777438066899776458740234375" lon="1.56733718700706958770751953125">
        <ele>136.399993896484375</ele>
        <time>2026-08-13T07:01:44.000Z</time>
        <extensions>
          <ns3:TrackPointExtension>
            <ns3:hr>88</ns3:hr>
            <ns3:cad>47</ns3:cad>
          </ns3:TrackPointExtension>
        </extensions>
      </trkpt>
      <trkpt lat="43.77744183875620365142822265625" lon="1.56734707765281200408935546875">
        <ele>136.399993896484375</ele>
        <time>2026-08-13T07:01:45.000Z</time>
        <extensions>
          <ns3:TrackPointExtension>
            <ns3:hr>89</ns3:hr>
            <ns3:cad>43</ns3:cad>
          </ns3:TrackPointExtension>
        </extensions>
      </trkpt>
      <trkpt lat="43.77744711935520172119140625" lon="1.56736182980239391326904296875">
        <ele>136.399993896484375</ele>
        <time>2026-08-13T07:01:46.000Z</time>
        <extensions>
          <ns3:TrackPointExtension>
            <ns3:hr>89</ns3:hr>
            <ns3:cad>43</ns3:cad>
          </ns3:TrackPointExtension>
        </extensions>
      </trkpt>
      <trkpt lat="43.77745248377323150634765625" lon="1.56737222336232662200927734375">
        <ele>136.399993896484375</ele>
        <time>2026-08-13T07:01:47.000Z</time>
        <extensions>
          <ns3:TrackPointExtension>
            <ns3:hr>89</ns3:hr>
            <ns3:cad>43</ns3:cad>
          </ns3:TrackPointExtension>
        </extensions>
      </trkpt>
      <trkpt lat="43.7774553336203098297119140625" lon="1.5673845447599887847900390625">
        <ele>136.399993896484375</ele>
        <time>2026-08-13T07:01:48.000Z</time>
        <extensions>
          <ns3:TrackPointExtension>
            <ns3:hr>87</ns3:hr>
            <ns3:cad>43</ns3:cad>
          </ns3:TrackPointExtension>
        </extensions>
      </trkpt>
      <trkpt lat="43.77745893783867359161376953125" lon="1.56739803962409496307373046875">
        <ele>136.399993896484375</ele>
        <time>2026-08-13T07:01:49.000Z</time>
        <extensions>
          <ns3:TrackPointExtension>
            <ns3:hr>83</ns3:hr>
            <ns3:cad>48</ns3:cad>
          </ns3:TrackPointExtension>
        </extensions>
      </trkpt>
      <trkpt lat="43.777463547885417938232421875" lon="1.567410193383693695068359375">
        <ele>136.399993896484375</ele>
        <time>2026-08-13T07:01:50.000Z</time>
        <extensions>
          <ns3:TrackPointExtension>
            <ns3:hr>82</ns3:hr>
            <ns3:cad>48</ns3:cad>
          </ns3:TrackPointExtension>
        </extensions>
      </trkpt>
      <trkpt lat="43.777466900646686553955078125" lon="1.56742435880005359649658203125">
        <ele>136.600006103515625</ele>
        <time>2026-08-13T07:01:51.000Z</time>
        <extensions>
          <ns3:TrackPointExtension>
            <ns3:hr>82</ns3:hr>
            <ns3:cad>46</ns3:cad>
          </ns3:TrackPointExtension>
        </extensions>
      </trkpt>
      <trkpt lat="43.7774710915982723236083984375" lon="1.56744204461574554443359375">
        <ele>136.600006103515625</ele>
        <time>2026-08-13T07:01:52.000Z</time>
        <extensions>
          <ns3:TrackPointExtension>
            <ns3:hr>82</ns3:hr>
            <ns3:cad>46</ns3:cad>
          </ns3:TrackPointExtension>
        </extensions>
      </trkpt>
      <trkpt lat="43.777473270893096923828125" lon="1.56744967214763164520263671875">
        <ele>136.600006103515625</ele>
        <time>2026-08-13T07:01:53.000Z</time>
        <extensions>
          <ns3:TrackPointExtension>
            <ns3:hr>82</ns3:hr>
            <ns3:cad>42</ns3:cad>
          </ns3:TrackPointExtension>
        </extensions>
      </trkpt>
      <trkpt lat="43.77747771330177783966064453125" lon="1.56746492721140384674072265625">
        <ele>136.600006103515625</ele>
        <time>2026-08-13T07:01:54.000Z</time>
        <extensions>
          <ns3:TrackPointExtension>
            <ns3:hr>81</ns3:hr>
            <ns3:cad>42</ns3:cad>
          </ns3:TrackPointExtension>
        </extensions>
      </trkpt>
      <trkpt lat="43.777482323348522186279296875" lon="1.56747884117066860198974609375">
        <ele>136.600006103515625</ele>
        <time>2026-08-13T07:01:55.000Z</time>
        <extensions>
          <ns3:TrackPointExtension>
            <ns3:hr>82</ns3:hr>
            <ns3:cad>42</ns3:cad>
          </ns3:TrackPointExtension>
        </extensions>
      </trkpt>
      <trkpt lat="43.77748877741396427154541015625" lon="1.56749359332025051116943359375">
        <ele>136.600006103515625</ele>
        <time>2026-08-13T07:01:56.000Z</time>
        <extensions>
          <ns3:TrackPointExtension>
            <ns3:hr>82</ns3:hr>
            <ns3:cad>42</ns3:cad>
          </ns3:TrackPointExtension>
        </extensions>
      </trkpt>
      <trkpt lat="43.77749213017523288726806640625" lon="1.56750398688018321990966796875">
        <ele>136.600006103515625</ele>
        <time>2026-08-13T07:01:57.000Z</time>
        <extensions>
          <ns3:TrackPointExtension>
            <ns3:hr>82</ns3:hr>
            <ns3:cad>48</ns3:cad>
          </ns3:TrackPointExtension>
        </extensions>
      </trkpt>
      <trkpt lat="43.7774960696697235107421875" lon="1.56751857139170169830322265625">
        <ele>136.600006103515625</ele>
        <time>2026-08-13T07:01:58.000Z</time>
        <extensions>
          <ns3:TrackPointExtension>
            <ns3:hr>82</ns3:hr>
            <ns3:cad>48</ns3:cad>
          </ns3:TrackPointExtension>
        </extensions>
      </trkpt>
      <trkpt lat="43.77750101499259471893310546875" lon="1.56752930022776126861572265625">
        <ele>136.600006103515625</ele>
        <time>2026-08-13T07:01:59.000Z</time>
        <extensions>
          <ns3:TrackPointExtension>
            <ns3:hr>82</ns3:hr>
            <ns3:cad>46</ns3:cad>
          </ns3:TrackPointExtension>
        </extensions>
      </trkpt>
      <trkpt lat="43.7775039486587047576904296875" lon="1.56754438765347003936767578125">
        <ele>136.8000030517578125</ele>
        <time>2026-08-13T07:02:00.000Z</time>
        <extensions>
          <ns3:TrackPointExtension>
            <ns3:hr>82</ns3:hr>
            <ns3:cad>46</ns3:cad>
          </ns3:TrackPointExtension>
        </extensions>
      </trkpt>
      <trkpt lat="43.77750420011579990386962890625" lon="1.567554362118244171142578125">
        <ele>136.8000030517578125</ele>
        <time>2026-08-13T07:02:01.000Z</time>
        <extensions>
          <ns3:TrackPointExtension>
            <ns3:hr>82</ns3:hr>
            <ns3:cad>46</ns3:cad>
          </ns3:TrackPointExtension>
        </extensions>
      </trkpt>
      <trkpt lat="43.77750420011579990386962890625" lon="1.567566096782684326171875">
        <ele>136.8000030517578125</ele>
        <time>2026-08-13T07:02:02.000Z</time>
        <extensions>
          <ns3:TrackPointExtension>
            <ns3:hr>83</ns3:hr>
            <ns3:cad>46</ns3:cad>
          </ns3:TrackPointExtension>
        </extensions>
      </trkpt>
      <trkpt lat="43.77750922925770282745361328125" lon="1.56758411787450313568115234375">
        <ele>136.8000030517578125</ele>
        <time>2026-08-13T07:02:03.000Z</time>
        <extensions>
          <ns3:TrackPointExtension>
            <ns3:hr>82</ns3:hr>
            <ns3:cad>46</ns3:cad>
          </ns3:TrackPointExtension>
        </extensions>
      </trkpt>
      <trkpt lat="43.777509815990924835205078125" lon="1.56760004349052906036376953125">
        <ele>136.8000030517578125</ele>
        <time>2026-08-13T07:02:04.000Z</time>
        <extensions>
          <ns3:TrackPointExtension>
            <ns3:hr>83</ns3:hr>
            <ns3:cad>46</ns3:cad>
          </ns3:TrackPointExtension>
        </extensions>
      </trkpt>
      <trkpt lat="43.77751107327640056610107421875" lon="1.567611359059810638427734375">
        <ele>136.8000030517578125</ele>
        <time>2026-08-13T07:02:05.000Z</time>
        <extensions>
          <ns3:TrackPointExtension>
            <ns3:hr>83</ns3:hr>
            <ns3:cad>46</ns3:cad>
          </ns3:TrackPointExtension>
        </extensions>
      </trkpt>
      <trkpt lat="43.77751191146671772003173828125" lon="1.56761999242007732391357421875">
        <ele>136.8000030517578125</ele>
        <time>2026-08-13T07:02:06.000Z</time>
        <extensions>
          <ns3:TrackPointExtension>
            <ns3:hr>82</ns3:hr>
            <ns3:cad>46</ns3:cad>
          </ns3:TrackPointExtension>
        </extensions>
      </trkpt>
      <trkpt lat="43.77751526422798633575439453125" lon="1.56763524748384952545166015625">
        <ele>137</ele>
        <time>2026-08-13T07:02:07.000Z</time>
        <extensions>
          <ns3:TrackPointExtension>
            <ns3:hr>82</ns3:hr>
            <ns3:cad>44</ns3:cad>
          </ns3:TrackPointExtension>
        </extensions>
      </trkpt>
      <trkpt lat="43.777517192065715789794921875" lon="1.5676460601389408111572265625">
        <ele>137</ele>
        <time>2026-08-13T07:02:08.000Z</time>
        <extensions>
          <ns3:TrackPointExtension>
            <ns3:hr>82</ns3:hr>
            <ns3:cad>44</ns3:cad>
          </ns3:TrackPointExtension>
        </extensions>
      </trkpt>
      <trkpt lat="43.7775173597037792205810546875" lon="1.56766064465045928955078125">
        <ele>137</ele>
        <time>2026-08-13T07:02:09.000Z</time>
        <extensions>
          <ns3:TrackPointExtension>
            <ns3:hr>82</ns3:hr>
            <ns3:cad>44</ns3:cad>
          </ns3:TrackPointExtension>
        </extensions>
      </trkpt>
      <trkpt lat="43.7775160185992717742919921875" lon="1.56766760163009166717529296875">
        <ele>137</ele>
        <time>2026-08-13T07:02:10.000Z</time>
        <extensions>
          <ns3:TrackPointExtension>
            <ns3:hr>81</ns3:hr>
            <ns3:cad>44</ns3:cad>
          </ns3:TrackPointExtension>
        </extensions>
      </trkpt>
      <trkpt lat="43.77751794643700122833251953125" lon="1.56768076121807098388671875">
        <ele>137</ele>
        <time>2026-08-13T07:02:11.000Z</time>
        <extensions>
          <ns3:TrackPointExtension>
            <ns3:hr>81</ns3:hr>
            <ns3:cad>44</ns3:cad>
          </ns3:TrackPointExtension>
        </extensions>
      </trkpt>
      <trkpt lat="43.7775213830173015594482421875" lon="1.56769844703376293182373046875">
        <ele>136.8000030517578125</ele>
        <time>2026-08-13T07:02:12.000Z</time>
        <extensions>
          <ns3:TrackPointExtension>
            <ns3:hr>81</ns3:hr>
            <ns3:cad>45</ns3:cad>
          </ns3:TrackPointExtension>
        </extensions>
      </trkpt>
      <trkpt lat="43.77752431668341159820556640625" lon="1.567713953554630279541015625">
        <ele>136.8000030517578125</ele>
        <time>2026-08-13T07:02:13.000Z</time>
        <extensions>
          <ns3:TrackPointExtension>
            <ns3:hr>81</ns3:hr>
            <ns3:cad>46</ns3:cad>
          </ns3:TrackPointExtension>
        </extensions>
      </trkpt>
      <trkpt lat="43.7775274179875850677490234375" lon="1.5677297115325927734375">
        <ele>136.8000030517578125</ele>
        <time>2026-08-13T07:02:14.000Z</time>
        <extensions>
          <ns3:TrackPointExtension>
            <ns3:hr>81</ns3:hr>
            <ns3:cad>45</ns3:cad>
          </ns3:TrackPointExtension>
        </extensions>
      </trkpt>
      <trkpt lat="43.77752624452114105224609375" lon="1.56774044036865234375">
        <ele>136.8000030517578125</ele>
        <time>2026-08-13T07:02:15.000Z</time>
        <extensions>
          <ns3:TrackPointExtension>
            <ns3:hr>82</ns3:hr>
            <ns3:cad>45</ns3:cad>
          </ns3:TrackPointExtension>
        </extensions>
      </trkpt>
      <trkpt lat="43.77753085456788539886474609375" lon="1.56775795854628086090087890625">
        <ele>136.600006103515625</ele>
        <time>2026-08-13T07:02:16.000Z</time>
        <extensions>
          <ns3:TrackPointExtension>
            <ns3:hr>82</ns3:hr>
            <ns3:cad>45</ns3:cad>
          </ns3:TrackPointExtension>
        </extensions>
      </trkpt>
      <trkpt lat="43.77753839828073978424072265625" lon="1.5677681006491184234619140625">
        <ele>136.600006103515625</ele>
        <time>2026-08-13T07:02:17.000Z</time>
        <extensions>
          <ns3:TrackPointExtension>
            <ns3:hr>82</ns3:hr>
            <ns3:cad>46</ns3:cad>
          </ns3:TrackPointExtension>
        </extensions>
      </trkpt>
      <trkpt lat="43.7775418348610401153564453125" lon="1.56777732074260711669921875">
        <ele>136.600006103515625</ele>
        <time>2026-08-13T07:02:18.000Z</time>
        <extensions>
          <ns3:TrackPointExtension>
            <ns3:hr>82</ns3:hr>
            <ns3:cad>48</ns3:cad>
          </ns3:TrackPointExtension>
        </extensions>
      </trkpt>
      <trkpt lat="43.7775408290326595306396484375" lon="1.56778628937900066375732421875">
        <ele>136.600006103515625</ele>
        <time>2026-08-13T07:02:19.000Z</time>
        <extensions>
          <ns3:TrackPointExtension>
            <ns3:hr>81</ns3:hr>
            <ns3:cad>48</ns3:cad>
          </ns3:TrackPointExtension>
        </extensions>
      </trkpt>
      <trkpt lat="43.77754728309810161590576171875" lon="1.5677972696721553802490234375">
        <ele>136.600006103515625</ele>
        <time>2026-08-13T07:02:20.000Z</time>
        <extensions>
          <ns3:TrackPointExtension>
            <ns3:hr>81</ns3:hr>
            <ns3:cad>48</ns3:cad>
          </ns3:TrackPointExtension>
        </extensions>
      </trkpt>
      <trkpt lat="43.77755734138190746307373046875" lon="1.56780271790921688079833984375">
        <ele>136.600006103515625</ele>
        <time>2026-08-13T07:02:21.000Z</time>
        <extensions>
          <ns3:TrackPointExtension>
            <ns3:hr>81</ns3:hr>
            <ns3:cad>47</ns3:cad>
          </ns3:TrackPointExtension>
        </extensions>
      </trkpt>
      <trkpt lat="43.77756572328507900238037109375" lon="1.56780456192791461944580078125">
        <ele>136.600006103515625</ele>
        <time>2026-08-13T07:02:22.000Z</time>
        <extensions>
          <ns3:TrackPointExtension>
            <ns3:hr>80</ns3:hr>
            <ns3:cad>47</ns3:cad>
          </ns3:TrackPointExtension>
        </extensions>
      </trkpt>
      <trkpt lat="43.77757041715085506439208984375" lon="1.56780137680470943450927734375">
        <ele>136.600006103515625</ele>
        <time>2026-08-13T07:02:23.000Z</time>
        <extensions>
          <ns3:TrackPointExtension>
            <ns3:hr>79</ns3:hr>
            <ns3:cad>45</ns3:cad>
          </ns3:TrackPointExtension>
        </extensions>
      </trkpt>
      <trkpt lat="43.7775666452944278717041015625" lon="1.56779986806213855743408203125">
        <ele>136.399993896484375</ele>
        <time>2026-08-13T07:02:24.000Z</time>
        <extensions>
          <ns3:TrackPointExtension>
            <ns3:hr>78</ns3:hr>
            <ns3:cad>45</ns3:cad>
          </ns3:TrackPointExtension>
        </extensions>
      </trkpt>
      <trkpt lat="43.7775683216750621795654296875" lon="1.5677992813289165496826171875">
        <ele>136.399993896484375</ele>
        <time>2026-08-13T07:02:25.000Z</time>
        <extensions>
          <ns3:TrackPointExtension>
            <ns3:hr>77</ns3:hr>
            <ns3:cad>44</ns3:cad>
          </ns3:TrackPointExtension>
        </extensions>
      </trkpt>
      <trkpt lat="43.77756589092314243316650390625" lon="1.5677965991199016571044921875">
        <ele>136.1999969482421875</ele>
        <time>2026-08-13T07:02:26.000Z</time>
        <extensions>
          <ns3:TrackPointExtension>
            <ns3:hr>77</ns3:hr>
            <ns3:cad>0</ns3:cad>
          </ns3:TrackPointExtension>
        </extensions>
      </trkpt>
      <trkpt lat="43.77756756730377674102783203125" lon="1.5677992813289165496826171875">
        <ele>136.1999969482421875</ele>
        <time>2026-08-13T07:02:27.000Z</time>
        <extensions>
          <ns3:TrackPointExtension>
            <ns3:hr>77</ns3:hr>
            <ns3:cad>0</ns3:cad>
          </ns3:TrackPointExtension>
        </extensions>
      </trkpt>
      <trkpt lat="43.77757779322564601898193359375" lon="1.5677965991199016571044921875">
        <ele>136.1999969482421875</ele>
        <time>2026-08-13T07:02:28.000Z</time>
        <extensions>
          <ns3:TrackPointExtension>
            <ns3:hr>76</ns3:hr>
            <ns3:cad>55</ns3:cad>
          </ns3:TrackPointExtension>
        </extensions>
      </trkpt>
      <trkpt lat="43.777584247291088104248046875" lon="1.56779064796864986419677734375">
        <ele>136.1999969482421875</ele>
        <time>2026-08-13T07:02:29.000Z</time>
        <extensions>
          <ns3:TrackPointExtension>
            <ns3:hr>76</ns3:hr>
            <ns3:cad>55</ns3:cad>
          </ns3:TrackPointExtension>
        </extensions>
      </trkpt>
      <trkpt lat="43.77759120427072048187255859375" lon="1.56778796575963497161865234375">
        <ele>136.1999969482421875</ele>
        <time>2026-08-13T07:02:30.000Z</time>
        <extensions>
          <ns3:TrackPointExtension>
            <ns3:hr>76</ns3:hr>
            <ns3:cad>55</ns3:cad>
          </ns3:TrackPointExtension>
        </extensions>
      </trkpt>
      <trkpt lat="43.77759841270744800567626953125" lon="1.56778763048350811004638671875">
        <ele>136.1999969482421875</ele>
        <time>2026-08-13T07:02:31.000Z</time>
        <extensions>
          <ns3:TrackPointExtension>
            <ns3:hr>75</ns3:hr>
            <ns3:cad>0</ns3:cad>
          </ns3:TrackPointExtension>
        </extensions>
      </trkpt>
      <trkpt lat="43.77760327421128749847412109375" lon="1.56779115088284015655517578125">
        <ele>136.1999969482421875</ele>
        <time>2026-08-13T07:02:32.000Z</time>
        <extensions>
          <ns3:TrackPointExtension>
            <ns3:hr>74</ns3:hr>
            <ns3:cad>0</ns3:cad>
          </ns3:TrackPointExtension>
        </extensions>
      </trkpt>
      <trkpt lat="43.77760696224868297576904296875" lon="1.56779416836798191070556640625">
        <ele>136</ele>
        <time>2026-08-13T07:02:33.000Z</time>
        <extensions>
          <ns3:TrackPointExtension>
            <ns3:hr>74</ns3:hr>
            <ns3:cad>0</ns3:cad>
          </ns3:TrackPointExtension>
        </extensions>
      </trkpt>
      <trkpt lat="43.77760930918157100677490234375" lon="1.56779550947248935699462890625">
        <ele>136</ele>
        <time>2026-08-13T07:02:34.000Z</time>
        <extensions>
          <ns3:TrackPointExtension>
            <ns3:hr>73</ns3:hr>
            <ns3:cad>0</ns3:cad>
          </ns3:TrackPointExtension>
        </extensions>
      </trkpt>
      <trkpt lat="43.7776088900864124298095703125" lon="1.56779819168150424957275390625">
        <ele>136</ele>
        <time>2026-08-13T07:02:35.000Z</time>
        <extensions>
          <ns3:TrackPointExtension>
            <ns3:hr>73</ns3:hr>
            <ns3:cad>0</ns3:cad>
          </ns3:TrackPointExtension>
        </extensions>
      </trkpt>
      <trkpt lat="43.777609057724475860595703125" lon="1.5677986107766628265380859375">
        <ele>136</ele>
        <time>2026-08-13T07:02:36.000Z</time>
        <extensions>
          <ns3:TrackPointExtension>
            <ns3:hr>73</ns3:hr>
            <ns3:cad>0</ns3:cad>
          </ns3:TrackPointExtension>
        </extensions>
      </trkpt>
      <trkpt lat="43.77760981209576129913330078125" lon="1.56779953278601169586181640625">
        <ele>136</ele>
        <time>2026-08-13T07:02:37.000Z</time>
        <extensions>
          <ns3:TrackPointExtension>
            <ns3:hr>72</ns3:hr>
            <ns3:cad>0</ns3:cad>
          </ns3:TrackPointExtension>
        </extensions>
      </trkpt>
      <trkpt lat="43.7776100635528564453125" lon="1.56779944896697998046875">
        <ele>136</ele>
        <time>2026-08-13T07:02:38.000Z</time>
        <extensions>
          <ns3:TrackPointExtension>
            <ns3:hr>72</ns3:hr>
            <ns3:cad>0</ns3:cad>
          </ns3:TrackPointExtension>
        </extensions>
      </trkpt>
      <trkpt lat="43.77760997973382472991943359375" lon="1.5677940845489501953125">
        <ele>136</ele>
        <time>2026-08-13T07:02:39.000Z</time>
        <extensions>
          <ns3:TrackPointExtension>
            <ns3:hr>72</ns3:hr>
            <ns3:cad>0</ns3:cad>
          </ns3:TrackPointExtension>
        </extensions>
      </trkpt>
      <trkpt lat="43.77761551178991794586181640625" lon="1.567791402339935302734375">
        <ele>136</ele>
        <time>2026-08-13T07:02:40.000Z</time>
        <extensions>
          <ns3:TrackPointExtension>
            <ns3:hr>71</ns3:hr>
            <ns3:cad>0</ns3:cad>
          </ns3:TrackPointExtension>
        </extensions>
      </trkpt>
      <trkpt lat="43.77761743962764739990234375" lon="1.5677927434444427490234375">
        <ele>136</ele>
        <time>2026-08-13T07:02:41.000Z</time>
        <extensions>
          <ns3:TrackPointExtension>
            <ns3:hr>71</ns3:hr>
            <ns3:cad>0</ns3:cad>
          </ns3:TrackPointExtension>
        </extensions>
      </trkpt>
      <trkpt lat="43.777621127665042877197265625" lon="1.5677902288734912872314453125">
        <ele>136</ele>
        <time>2026-08-13T07:02:42.000Z</time>
        <extensions>
          <ns3:TrackPointExtension>
            <ns3:hr>70</ns3:hr>
            <ns3:cad>0</ns3:cad>
          </ns3:TrackPointExtension>
        </extensions>
      </trkpt>
      <trkpt lat="43.777621127665042877197265625" lon="1.5677898935973644256591796875">
        <ele>136.1999969482421875</ele>
        <time>2026-08-13T07:02:43.000Z</time>
        <extensions>
          <ns3:TrackPointExtension>
            <ns3:hr>70</ns3:hr>
            <ns3:cad>0</ns3:cad>
          </ns3:TrackPointExtension>
        </extensions>
      </trkpt>
      <trkpt lat="43.777621127665042877197265625" lon="1.5677898935973644256591796875">
        <ele>136.1999969482421875</ele>
        <time>2026-08-13T07:02:44.000Z</time>
        <extensions>
          <ns3:TrackPointExtension>
            <ns3:hr>71</ns3:hr>
            <ns3:cad>0</ns3:cad>
          </ns3:TrackPointExtension>
        </extensions>
      </trkpt>
      <trkpt lat="43.777621127665042877197265625" lon="1.5677898935973644256591796875">
        <ele>136.399993896484375</ele>
        <time>2026-08-13T07:02:45.000Z</time>
        <extensions>
          <ns3:TrackPointExtension>
            <ns3:hr>71</ns3:hr>
            <ns3:cad>0</ns3:cad>
          </ns3:TrackPointExtension>
        </extensions>
      </trkpt>
      <trkpt lat="43.777621127665042877197265625" lon="1.5677898935973644256591796875">
        <ele>136.399993896484375</ele>
        <time>2026-08-13T07:02:46.000Z</time>
        <extensions>
          <ns3:TrackPointExtension>
            <ns3:hr>71</ns3:hr>
            <ns3:cad>0</ns3:cad>
          </ns3:TrackPointExtension>
        </extensions>
      </trkpt>
      <trkpt lat="43.777621127665042877197265625" lon="1.5677898935973644256591796875">
        <ele>136.399993896484375</ele>
        <time>2026-08-13T07:02:47.000Z</time>
        <extensions>
          <ns3:TrackPointExtension>
            <ns3:hr>70</ns3:hr>
            <ns3:cad>0</ns3:cad>
          </ns3:TrackPointExtension>
        </extensions>
      </trkpt>
      <trkpt lat="43.777621127665042877197265625" lon="1.5677898935973644256591796875">
        <ele>136.399993896484375</ele>
        <time>2026-08-13T07:02:48.000Z</time>
        <extensions>
          <ns3:TrackPointExtension>
            <ns3:hr>71</ns3:hr>
            <ns3:cad>0</ns3:cad>
          </ns3:TrackPointExtension>
        </extensions>
      </trkpt>
      <trkpt lat="43.777621127665042877197265625" lon="1.5677898935973644256591796875">
        <ele>136.399993896484375</ele>
        <time>2026-08-13T07:02:49.000Z</time>
        <extensions>
          <ns3:TrackPointExtension>
            <ns3:hr>71</ns3:hr>
            <ns3:cad>0</ns3:cad>
          </ns3:TrackPointExtension>
        </extensions>
      </trkpt>
      <trkpt lat="43.777621127665042877197265625" lon="1.5677898935973644256591796875">
        <ele>136.399993896484375</ele>
        <time>2026-08-13T07:02:50.000Z</time>
        <extensions>
          <ns3:TrackPointExtension>
            <ns3:hr>70</ns3:hr>
            <ns3:cad>0</ns3:cad>
          </ns3:TrackPointExtension>
        </extensions>
      </trkpt>
      <trkpt lat="43.777621127665042877197265625" lon="1.5677898935973644256591796875">
        <ele>136.399993896484375</ele>
        <time>2026-08-13T07:02:51.000Z</time>
        <extensions>
          <ns3:TrackPointExtension>
            <ns3:hr>71</ns3:hr>
            <ns3:cad>0</ns3:cad>
          </ns3:TrackPointExtension>
        </extensions>
      </trkpt>
      <trkpt lat="43.777621127665042877197265625" lon="1.5677898935973644256591796875">
        <ele>136.399993896484375</ele>
        <time>2026-08-13T07:02:52.000Z</time>
        <extensions>
          <ns3:TrackPointExtension>
            <ns3:hr>71</ns3:hr>
            <ns3:cad>0</ns3:cad>
          </ns3:TrackPointExtension>
        </extensions>
      </trkpt>
      <trkpt lat="43.777621127665042877197265625" lon="1.5677898935973644256591796875">
        <ele>136.399993896484375</ele>
        <time>2026-08-13T07:02:53.000Z</time>
        <extensions>
          <ns3:TrackPointExtension>
            <ns3:hr>71</ns3:hr>
            <ns3:cad>0</ns3:cad>
          </ns3:TrackPointExtension>
        </extensions>
      </trkpt>
      <trkpt lat="43.777621127665042877197265625" lon="1.5677898935973644256591796875">
        <ele>136.399993896484375</ele>
        <time>2026-08-13T07:02:54.000Z</time>
        <extensions>
          <ns3:TrackPointExtension>
            <ns3:hr>71</ns3:hr>
            <ns3:cad>0</ns3:cad>
          </ns3:TrackPointExtension>
        </extensions>
      </trkpt>
      <trkpt lat="43.777621127665042877197265625" lon="1.5677898935973644256591796875">
        <ele>136.399993896484375</ele>
        <time>2026-08-13T07:02:55.000Z</time>
        <extensions>
          <ns3:TrackPointExtension>
            <ns3:hr>72</ns3:hr>
            <ns3:cad>0</ns3:cad>
          </ns3:TrackPointExtension>
        </extensions>
      </trkpt>
      <trkpt lat="43.777621127665042877197265625" lon="1.5677898935973644256591796875">
        <ele>136.1999969482421875</ele>
        <time>2026-08-13T07:02:56.000Z</time>
        <extensions>
          <ns3:TrackPointExtension>
            <ns3:hr>72</ns3:hr>
            <ns3:cad>0</ns3:cad>
          </ns3:TrackPointExtension>
        </extensions>
      </trkpt>
      <trkpt lat="43.777621127665042877197265625" lon="1.5677898935973644256591796875">
        <ele>136.1999969482421875</ele>
        <time>2026-08-13T07:02:57.000Z</time>
        <extensions>
          <ns3:TrackPointExtension>
            <ns3:hr>72</ns3:hr>
            <ns3:cad>0</ns3:cad>
          </ns3:TrackPointExtension>
        </extensions>
      </trkpt>
      <trkpt lat="43.777621127665042877197265625" lon="1.5677898935973644256591796875">
        <ele>136.1999969482421875</ele>
        <time>2026-08-13T07:02:58.000Z</time>
        <extensions>
          <ns3:TrackPointExtension>
            <ns3:hr>72</ns3:hr>
            <ns3:cad>0</ns3:cad>
          </ns3:TrackPointExtension>
        </extensions>
      </trkpt>
      <trkpt lat="43.777621127665042877197265625" lon="1.5677898935973644256591796875">
        <ele>136.1999969482421875</ele>
        <time>2026-08-13T07:02:59.000Z</time>
        <extensions>
          <ns3:TrackPointExtension>
            <ns3:hr>71</ns3:hr>
            <ns3:cad>0</ns3:cad>
          </ns3:TrackPointExtension>
        </extensions>
      </trkpt>
      <trkpt lat="43.77761668525636196136474609375" lon="1.56778595410287380218505859375">
        <ele>136.1999969482421875</ele>
        <time>2026-08-13T07:03:00.000Z</time>
        <extensions>
          <ns3:TrackPointExtension>
            <ns3:hr>69</ns3:hr>
            <ns3:cad>0</ns3:cad>
          </ns3:TrackPointExtension>
        </extensions>
      </trkpt>
      <trkpt lat="43.77762104384601116180419921875" lon="1.567780673503875732421875">
        <ele>136.1999969482421875</ele>
        <time>2026-08-13T07:03:01.000Z</time>
        <extensions>
          <ns3:TrackPointExtension>
            <ns3:hr>66</ns3:hr>
            <ns3:cad>0</ns3:cad>
          </ns3:TrackPointExtension>
        </extensions>
      </trkpt>
      <trkpt lat="43.77762741409242153167724609375" lon="1.5677774883806705474853515625">
        <ele>136.1999969482421875</ele>
        <time>2026-08-13T07:03:02.000Z</time>
        <extensions>
          <ns3:TrackPointExtension>
            <ns3:hr>66</ns3:hr>
            <ns3:cad>0</ns3:cad>
          </ns3:TrackPointExtension>
        </extensions>
      </trkpt>
      <trkpt lat="43.77763629890978336334228515625" lon="1.5677741356194019317626953125">
        <ele>136.1999969482421875</ele>
        <time>2026-08-13T07:03:03.000Z</time>
        <extensions>
          <ns3:TrackPointExtension>
            <ns3:hr>66</ns3:hr>
            <ns3:cad>0</ns3:cad>
          </ns3:TrackPointExtension>
        </extensions>
      </trkpt>
      <trkpt lat="43.77764015458524227142333984375" lon="1.56776499934494495391845703125">
        <ele>136.1999969482421875</ele>
        <time>2026-08-13T07:03:04.000Z</time>
        <extensions>
          <ns3:TrackPointExtension>
            <ns3:hr>66</ns3:hr>
            <ns3:cad>0</ns3:cad>
          </ns3:TrackPointExtension>
        </extensions>
      </trkpt>
      <trkpt lat="43.7776487879455089569091796875" lon="1.5677603892982006072998046875">
        <ele>136.1999969482421875</ele>
        <time>2026-08-13T07:03:05.000Z</time>
        <extensions>
          <ns3:TrackPointExtension>
            <ns3:hr>66</ns3:hr>
            <ns3:cad>0</ns3:cad>
          </ns3:TrackPointExtension>
        </extensions>
      </trkpt>
      <trkpt lat="43.77765909768640995025634765625" lon="1.56775494106113910675048828125">
        <ele>136</ele>
        <time>2026-08-13T07:03:06.000Z</time>
        <extensions>
          <ns3:TrackPointExtension>
            <ns3:hr>66</ns3:hr>
            <ns3:cad>0</ns3:cad>
          </ns3:TrackPointExtension>
        </extensions>
      </trkpt>
      <trkpt lat="43.77766571938991546630859375" lon="1.5677479840815067291259765625">
        <ele>136</ele>
        <time>2026-08-13T07:03:07.000Z</time>
        <extensions>
          <ns3:TrackPointExtension>
            <ns3:hr>66</ns3:hr>
            <ns3:cad>0</ns3:cad>
          </ns3:TrackPointExtension>
        </extensions>
      </trkpt>
      <trkpt lat="43.77767108380794525146484375" lon="1.5677483193576335906982421875">
        <ele>135.8000030517578125</ele>
        <time>2026-08-13T07:03:08.000Z</time>
        <extensions>
          <ns3:TrackPointExtension>
            <ns3:hr>66</ns3:hr>
            <ns3:cad>0</ns3:cad>
          </ns3:TrackPointExtension>
        </extensions>
      </trkpt>
      <trkpt lat="43.7776776216924190521240234375" lon="1.56774287112057209014892578125">
        <ele>135.8000030517578125</ele>
        <time>2026-08-13T07:03:09.000Z</time>
        <extensions>
          <ns3:TrackPointExtension>
            <ns3:hr>67</ns3:hr>
            <ns3:cad>0</ns3:cad>
          </ns3:TrackPointExtension>
        </extensions>
      </trkpt>
      <trkpt lat="43.77768189646303653717041015625" lon="1.56773800961673259735107421875">
        <ele>135.8000030517578125</ele>
        <time>2026-08-13T07:03:10.000Z</time>
        <extensions>
          <ns3:TrackPointExtension>
            <ns3:hr>69</ns3:hr>
            <ns3:cad>0</ns3:cad>
          </ns3:TrackPointExtension>
        </extensions>
      </trkpt>
      <trkpt lat="43.77769195474684238433837890625" lon="1.567726694047451019287109375">
        <ele>135.8000030517578125</ele>
        <time>2026-08-13T07:03:11.000Z</time>
        <extensions>
          <ns3:TrackPointExtension>
            <ns3:hr>71</ns3:hr>
            <ns3:cad>48</ns3:cad>
          </ns3:TrackPointExtension>
        </extensions>
      </trkpt>
      <trkpt lat="43.77769832499325275421142578125" lon="1.5677214972674846649169921875">
        <ele>135.600006103515625</ele>
        <time>2026-08-13T07:03:12.000Z</time>
        <extensions>
          <ns3:TrackPointExtension>
            <ns3:hr>72</ns3:hr>
            <ns3:cad>48</ns3:cad>
          </ns3:TrackPointExtension>
        </extensions>
      </trkpt>
      <trkpt lat="43.77770402468740940093994140625" lon="1.567716300487518310546875">
        <ele>135.600006103515625</ele>
        <time>2026-08-13T07:03:13.000Z</time>
        <extensions>
          <ns3:TrackPointExtension>
            <ns3:hr>72</ns3:hr>
            <ns3:cad>49</ns3:cad>
          </ns3:TrackPointExtension>
        </extensions>
      </trkpt>
      <trkpt lat="43.7777128256857395172119140625" lon="1.5677094273269176483154296875">
        <ele>135.600006103515625</ele>
        <time>2026-08-13T07:03:14.000Z</time>
        <extensions>
          <ns3:TrackPointExtension>
            <ns3:hr>72</ns3:hr>
            <ns3:cad>49</ns3:cad>
          </ns3:TrackPointExtension>
        </extensions>
      </trkpt>
      <trkpt lat="43.7777198664844036102294921875" lon="1.5677017159759998321533203125">
        <ele>135.600006103515625</ele>
        <time>2026-08-13T07:03:15.000Z</time>
        <extensions>
          <ns3:TrackPointExtension>
            <ns3:hr>72</ns3:hr>
            <ns3:cad>49</ns3:cad>
          </ns3:TrackPointExtension>
        </extensions>
      </trkpt>
      <trkpt lat="43.77772196196019649505615234375" lon="1.56769341789186000823974609375">
        <ele>135.600006103515625</ele>
        <time>2026-08-13T07:03:16.000Z</time>
        <extensions>
          <ns3:TrackPointExtension>
            <ns3:hr>71</ns3:hr>
            <ns3:cad>47</ns3:cad>
          </ns3:TrackPointExtension>
        </extensions>
      </trkpt>
      <trkpt lat="43.7777272425591945648193359375" lon="1.56768855638802051544189453125">
        <ele>135.600006103515625</ele>
        <time>2026-08-13T07:03:17.000Z</time>
        <extensions>
          <ns3:TrackPointExtension>
            <ns3:hr>71</ns3:hr>
            <ns3:cad>44</ns3:cad>
          </ns3:TrackPointExtension>
        </extensions>
      </trkpt>
      <trkpt lat="43.77774216234683990478515625" lon="1.56769149005413055419921875">
        <ele>135.399993896484375</ele>
        <time>2026-08-13T07:03:18.000Z</time>
        <extensions>
          <ns3:TrackPointExtension>
            <ns3:hr>70</ns3:hr>
            <ns3:cad>44</ns3:cad>
          </ns3:TrackPointExtension>
        </extensions>
      </trkpt>
      <trkpt lat="43.77774761058390140533447265625" lon="1.56768067739903926849365234375">
        <ele>135.399993896484375</ele>
        <time>2026-08-13T07:03:19.000Z</time>
        <extensions>
          <ns3:TrackPointExtension>
            <ns3:hr>70</ns3:hr>
            <ns3:cad>44</ns3:cad>
          </ns3:TrackPointExtension>
        </extensions>
      </trkpt>
      <trkpt lat="43.77775423228740692138671875" lon="1.56767430715262889862060546875">
        <ele>135.399993896484375</ele>
        <time>2026-08-13T07:03:20.000Z</time>
        <extensions>
          <ns3:TrackPointExtension>
            <ns3:hr>71</ns3:hr>
            <ns3:cad>44</ns3:cad>
          </ns3:TrackPointExtension>
        </extensions>
      </trkpt>
      <trkpt lat="43.77775825560092926025390625" lon="1.567668356001377105712890625">
        <ele>135.399993896484375</ele>
        <time>2026-08-13T07:03:21.000Z</time>
        <extensions>
          <ns3:TrackPointExtension>
            <ns3:hr>71</ns3:hr>
            <ns3:cad>41</ns3:cad>
          </ns3:TrackPointExtension>
        </extensions>
      </trkpt>
      <trkpt lat="43.777765966951847076416015625" lon="1.5676586329936981201171875">
        <ele>135.399993896484375</ele>
        <time>2026-08-13T07:03:22.000Z</time>
        <extensions>
          <ns3:TrackPointExtension>
            <ns3:hr>72</ns3:hr>
            <ns3:cad>41</ns3:cad>
          </ns3:TrackPointExtension>
        </extensions>
      </trkpt>
      <trkpt lat="43.77777191810309886932373046875" lon="1.5676537714898586273193359375">
        <ele>135.1999969482421875</ele>
        <time>2026-08-13T07:03:23.000Z</time>
        <extensions>
          <ns3:TrackPointExtension>
            <ns3:hr>72</ns3:hr>
            <ns3:cad>0</ns3:cad>
          </ns3:TrackPointExtension>
        </extensions>
      </trkpt>
      <trkpt lat="43.77777711488306522369384765625" lon="1.56764983199536800384521484375">
        <ele>135.1999969482421875</ele>
        <time>2026-08-13T07:03:24.000Z</time>
        <extensions>
          <ns3:TrackPointExtension>
            <ns3:hr>73</ns3:hr>
            <ns3:cad>0</ns3:cad>
          </ns3:TrackPointExtension>
        </extensions>
      </trkpt>
      <trkpt lat="43.7777865864336490631103515625" lon="1.56764111481606960296630859375">
        <ele>135.1999969482421875</ele>
        <time>2026-08-13T07:03:25.000Z</time>
        <extensions>
          <ns3:TrackPointExtension>
            <ns3:hr>74</ns3:hr>
            <ns3:cad>43</ns3:cad>
          </ns3:TrackPointExtension>
        </extensions>
      </trkpt>
      <trkpt lat="43.77779505215585231781005859375" lon="1.56762988306581974029541015625">
        <ele>135.1999969482421875</ele>
        <time>2026-08-13T07:03:26.000Z</time>
        <extensions>
          <ns3:TrackPointExtension>
            <ns3:hr>74</ns3:hr>
            <ns3:cad>43</ns3:cad>
          </ns3:TrackPointExtension>
        </extensions>
      </trkpt>
      <trkpt lat="43.7778033502399921417236328125" lon="1.5676225908100605010986328125">
        <ele>135</ele>
        <time>2026-08-13T07:03:27.000Z</time>
        <extensions>
          <ns3:TrackPointExtension>
            <ns3:hr>74</ns3:hr>
            <ns3:cad>41</ns3:cad>
          </ns3:TrackPointExtension>
        </extensions>
      </trkpt>
      <trkpt lat="43.77780829556286334991455078125" lon="1.5676157176494598388671875">
        <ele>135</ele>
        <time>2026-08-13T07:03:28.000Z</time>
        <extensions>
          <ns3:TrackPointExtension>
            <ns3:hr>74</ns3:hr>
            <ns3:cad>41</ns3:cad>
          </ns3:TrackPointExtension>
        </extensions>
      </trkpt>
      <trkpt lat="43.77781667746603488922119140625" lon="1.56760976649820804595947265625">
        <ele>135</ele>
        <time>2026-08-13T07:03:29.000Z</time>
        <extensions>
          <ns3:TrackPointExtension>
            <ns3:hr>74</ns3:hr>
            <ns3:cad>41</ns3:cad>
          </ns3:TrackPointExtension>
        </extensions>
      </trkpt>
      <trkpt lat="43.77782489173114299774169921875" lon="1.567600630223751068115234375">
        <ele>135</ele>
        <time>2026-08-13T07:03:30.000Z</time>
        <extensions>
          <ns3:TrackPointExtension>
            <ns3:hr>74</ns3:hr>
            <ns3:cad>41</ns3:cad>
          </ns3:TrackPointExtension>
        </extensions>
      </trkpt>
      <trkpt lat="43.7778311781585216522216796875" lon="1.56759216450154781341552734375">
        <ele>135</ele>
        <time>2026-08-13T07:03:31.000Z</time>
        <extensions>
          <ns3:TrackPointExtension>
            <ns3:hr>74</ns3:hr>
            <ns3:cad>41</ns3:cad>
          </ns3:TrackPointExtension>
        </extensions>
      </trkpt>
      <trkpt lat="43.77783629111945629119873046875" lon="1.5675887279212474822998046875">
        <ele>135</ele>
        <time>2026-08-13T07:03:32.000Z</time>
        <extensions>
          <ns3:TrackPointExtension>
            <ns3:hr>74</ns3:hr>
            <ns3:cad>44</ns3:cad>
          </ns3:TrackPointExtension>
        </extensions>
      </trkpt>
      <trkpt lat="43.77784601412713527679443359375" lon="1.56758411787450313568115234375">
        <ele>135</ele>
        <time>2026-08-13T07:03:33.000Z</time>
        <extensions>
          <ns3:TrackPointExtension>
            <ns3:hr>75</ns3:hr>
            <ns3:cad>44</ns3:cad>
          </ns3:TrackPointExtension>
        </extensions>
      </trkpt>
      <trkpt lat="43.7778536416590213775634765625" lon="1.56757414340972900390625">
        <ele>135</ele>
        <time>2026-08-13T07:03:34.000Z</time>
        <extensions>
          <ns3:TrackPointExtension>
            <ns3:hr>76</ns3:hr>
            <ns3:cad>0</ns3:cad>
          </ns3:TrackPointExtension>
        </extensions>
      </trkpt>
      <trkpt lat="43.77785959281027317047119140625" lon="1.56756584532558917999267578125">
        <ele>134.8000030517578125</ele>
        <time>2026-08-13T07:03:35.000Z</time>
        <extensions>
          <ns3:TrackPointExtension>
            <ns3:hr>76</ns3:hr>
            <ns3:cad>0</ns3:cad>
          </ns3:TrackPointExtension>
        </extensions>
      </trkpt>
      <trkpt lat="43.77786948345601558685302734375" lon="1.56755813397467136383056640625">
        <ele>134.8000030517578125</ele>
        <time>2026-08-13T07:03:36.000Z</time>
        <extensions>
          <ns3:TrackPointExtension>
            <ns3:hr>77</ns3:hr>
            <ns3:cad>0</ns3:cad>
          </ns3:TrackPointExtension>
        </extensions>
      </trkpt>
      <trkpt lat="43.77787493169307708740234375" lon="1.56755578704178333282470703125">
        <ele>134.8000030517578125</ele>
        <time>2026-08-13T07:03:37.000Z</time>
        <extensions>
          <ns3:TrackPointExtension>
            <ns3:hr>76</ns3:hr>
            <ns3:cad>44</ns3:cad>
          </ns3:TrackPointExtension>
        </extensions>
      </trkpt>
      <trkpt lat="43.77787987701594829559326171875" lon="1.56754774041473865509033203125">
        <ele>134.8000030517578125</ele>
        <time>2026-08-13T07:03:38.000Z</time>
        <extensions>
          <ns3:TrackPointExtension>
            <ns3:hr>76</ns3:hr>
            <ns3:cad>44</ns3:cad>
          </ns3:TrackPointExtension>
        </extensions>
      </trkpt>
      <trkpt lat="43.77788691781461238861083984375" lon="1.5675431303679943084716796875">
        <ele>134.8000030517578125</ele>
        <time>2026-08-13T07:03:39.000Z</time>
        <extensions>
          <ns3:TrackPointExtension>
            <ns3:hr>76</ns3:hr>
            <ns3:cad>44</ns3:cad>
          </ns3:TrackPointExtension>
        </extensions>
      </trkpt>
      <trkpt lat="43.77789546735584735870361328125" lon="1.56754237599670886993408203125">
        <ele>134.8000030517578125</ele>
        <time>2026-08-13T07:03:40.000Z</time>
        <extensions>
          <ns3:TrackPointExtension>
            <ns3:hr>76</ns3:hr>
            <ns3:cad>44</ns3:cad>
          </ns3:TrackPointExtension>
        </extensions>
      </trkpt>
      <trkpt lat="43.777904100716114044189453125" lon="1.5675387717783451080322265625">
        <ele>134.8000030517578125</ele>
        <time>2026-08-13T07:03:41.000Z</time>
        <extensions>
          <ns3:TrackPointExtension>
            <ns3:hr>76</ns3:hr>
            <ns3:cad>44</ns3:cad>
          </ns3:TrackPointExtension>
        </extensions>
      </trkpt>
      <trkpt lat="43.77791524864733219146728515625" lon="1.5675297193229198455810546875">
        <ele>134.8000030517578125</ele>
        <time>2026-08-13T07:03:42.000Z</time>
        <extensions>
          <ns3:TrackPointExtension>
            <ns3:hr>76</ns3:hr>
            <ns3:cad>41</ns3:cad>
          </ns3:TrackPointExtension>
        </extensions>
      </trkpt>
      <trkpt lat="43.7779193557798862457275390625" lon="1.5675196610391139984130859375">
        <ele>134.8000030517578125</ele>
        <time>2026-08-13T07:03:43.000Z</time>
        <extensions>
          <ns3:TrackPointExtension>
            <ns3:hr>75</ns3:hr>
            <ns3:cad>41</ns3:cad>
          </ns3:TrackPointExtension>
        </extensions>
      </trkpt>
      <trkpt lat="43.7779203616082668304443359375" lon="1.56751018948853015899658203125">
        <ele>134.8000030517578125</ele>
        <time>2026-08-13T07:03:44.000Z</time>
        <extensions>
          <ns3:TrackPointExtension>
            <ns3:hr>74</ns3:hr>
            <ns3:cad>41</ns3:cad>
          </ns3:TrackPointExtension>
        </extensions>
      </trkpt>
      <trkpt lat="43.77792530693113803863525390625" lon="1.56750298105180263519287109375">
        <ele>134.600006103515625</ele>
        <time>2026-08-13T07:03:45.000Z</time>
        <extensions>
          <ns3:TrackPointExtension>
            <ns3:hr>74</ns3:hr>
            <ns3:cad>41</ns3:cad>
          </ns3:TrackPointExtension>
        </extensions>
      </trkpt>
      <trkpt lat="43.7779344432055950164794921875" lon="1.5674931742250919342041015625">
        <ele>134.600006103515625</ele>
        <time>2026-08-13T07:03:46.000Z</time>
        <extensions>
          <ns3:TrackPointExtension>
            <ns3:hr>73</ns3:hr>
            <ns3:cad>41</ns3:cad>
          </ns3:TrackPointExtension>
        </extensions>
      </trkpt>
      <trkpt lat="43.777942657470703125" lon="1.56748554669320583343505859375">
        <ele>134.600006103515625</ele>
        <time>2026-08-13T07:03:47.000Z</time>
        <extensions>
          <ns3:TrackPointExtension>
            <ns3:hr>73</ns3:hr>
            <ns3:cad>41</ns3:cad>
          </ns3:TrackPointExtension>
        </extensions>
      </trkpt>
      <trkpt lat="43.7779505364596843719482421875" lon="1.56748403795063495635986328125">
        <ele>134.600006103515625</ele>
        <time>2026-08-13T07:03:48.000Z</time>
        <extensions>
          <ns3:TrackPointExtension>
            <ns3:hr>73</ns3:hr>
            <ns3:cad>44</ns3:cad>
          </ns3:TrackPointExtension>
        </extensions>
      </trkpt>
      <trkpt lat="43.77795933745801448822021484375" lon="1.5674770809710025787353515625">
        <ele>134.600006103515625</ele>
        <time>2026-08-13T07:03:49.000Z</time>
        <extensions>
          <ns3:TrackPointExtension>
            <ns3:hr>73</ns3:hr>
            <ns3:cad>44</ns3:cad>
          </ns3:TrackPointExtension>
        </extensions>
      </trkpt>
      <trkpt lat="43.77796771936118602752685546875" lon="1.56746978871524333953857421875">
        <ele>134.399993896484375</ele>
        <time>2026-08-13T07:03:50.000Z</time>
        <extensions>
          <ns3:TrackPointExtension>
            <ns3:hr>73</ns3:hr>
            <ns3:cad>44</ns3:cad>
          </ns3:TrackPointExtension>
        </extensions>
      </trkpt>
      <trkpt lat="43.777973838150501251220703125" lon="1.56746006570756435394287109375">
        <ele>134.399993896484375</ele>
        <time>2026-08-13T07:03:51.000Z</time>
        <extensions>
          <ns3:TrackPointExtension>
            <ns3:hr>74</ns3:hr>
            <ns3:cad>44</ns3:cad>
          </ns3:TrackPointExtension>
        </extensions>
      </trkpt>
      <trkpt lat="43.77797895111143589019775390625" lon="1.567459143698215484619140625">
        <ele>134.399993896484375</ele>
        <time>2026-08-13T07:03:52.000Z</time>
        <extensions>
          <ns3:TrackPointExtension>
            <ns3:hr>74</ns3:hr>
            <ns3:cad>44</ns3:cad>
          </ns3:TrackPointExtension>
        </extensions>
      </trkpt>
      <trkpt lat="43.77798800356686115264892578125" lon="1.56745545566082000732421875">
        <ele>134.399993896484375</ele>
        <time>2026-08-13T07:03:53.000Z</time>
        <extensions>
          <ns3:TrackPointExtension>
            <ns3:hr>74</ns3:hr>
            <ns3:cad>44</ns3:cad>
          </ns3:TrackPointExtension>
        </extensions>
      </trkpt>
      <trkpt lat="43.7779971398413181304931640625" lon="1.56744481064379215240478515625">
        <ele>134.399993896484375</ele>
        <time>2026-08-13T07:03:54.000Z</time>
        <extensions>
          <ns3:TrackPointExtension>
            <ns3:hr>72</ns3:hr>
            <ns3:cad>44</ns3:cad>
          </ns3:TrackPointExtension>
        </extensions>
      </trkpt>
      <trkpt lat="43.77800392918288707733154296875" lon="1.5674368478357791900634765625">
        <ele>134.399993896484375</ele>
        <time>2026-08-13T07:03:55.000Z</time>
        <extensions>
          <ns3:TrackPointExtension>
            <ns3:hr>71</ns3:hr>
            <ns3:cad>44</ns3:cad>
          </ns3:TrackPointExtension>
        </extensions>
      </trkpt>
      <trkpt lat="43.77801164053380489349365234375" lon="1.5674345009028911590576171875">
        <ele>134.399993896484375</ele>
        <time>2026-08-13T07:03:56.000Z</time>
        <extensions>
          <ns3:TrackPointExtension>
            <ns3:hr>70</ns3:hr>
            <ns3:cad>44</ns3:cad>
          </ns3:TrackPointExtension>
        </extensions>
      </trkpt>
      <trkpt lat="43.7780185975134372711181640625" lon="1.56742804683744907379150390625">
        <ele>134.1999969482421875</ele>
        <time>2026-08-13T07:03:57.000Z</time>
        <extensions>
          <ns3:TrackPointExtension>
            <ns3:hr>71</ns3:hr>
            <ns3:cad>44</ns3:cad>
          </ns3:TrackPointExtension>
        </extensions>
      </trkpt>
      <trkpt lat="43.77802957780659198760986328125" lon="1.567415893077850341796875">
        <ele>134.1999969482421875</ele>
        <time>2026-08-13T07:03:58.000Z</time>
        <extensions>
          <ns3:TrackPointExtension>
            <ns3:hr>71</ns3:hr>
            <ns3:cad>43</ns3:cad>
          </ns3:TrackPointExtension>
        </extensions>
      </trkpt>
      <trkpt lat="43.7780403904616832733154296875" lon="1.567406170070171356201171875">
        <ele>134.1999969482421875</ele>
        <time>2026-08-13T07:03:59.000Z</time>
        <extensions>
          <ns3:TrackPointExtension>
            <ns3:hr>71</ns3:hr>
            <ns3:cad>43</ns3:cad>
          </ns3:TrackPointExtension>
        </extensions>
      </trkpt>
      <trkpt lat="43.77804868854582309722900390625" lon="1.56740139238536357879638671875">
        <ele>134.1999969482421875</ele>
        <time>2026-08-13T07:04:00.000Z</time>
        <extensions>
          <ns3:TrackPointExtension>
            <ns3:hr>72</ns3:hr>
            <ns3:cad>47</ns3:cad>
          </ns3:TrackPointExtension>
        </extensions>
      </trkpt>
      <trkpt lat="43.778055645525455474853515625" lon="1.5673979558050632476806640625">
        <ele>134.1999969482421875</ele>
        <time>2026-08-13T07:04:01.000Z</time>
        <extensions>
          <ns3:TrackPointExtension>
            <ns3:hr>72</ns3:hr>
            <ns3:cad>47</ns3:cad>
          </ns3:TrackPointExtension>
        </extensions>
      </trkpt>
      <trkpt lat="43.77806444652378559112548828125" lon="1.56739418394863605499267578125">
        <ele>134</ele>
        <time>2026-08-13T07:04:02.000Z</time>
        <extensions>
          <ns3:TrackPointExtension>
            <ns3:hr>72</ns3:hr>
            <ns3:cad>47</ns3:cad>
          </ns3:TrackPointExtension>
        </extensions>
      </trkpt>
      <trkpt lat="43.7780739180743694305419921875" lon="1.56738303601741790771484375">
        <ele>134</ele>
        <time>2026-08-13T07:04:03.000Z</time>
        <extensions>
          <ns3:TrackPointExtension>
            <ns3:hr>72</ns3:hr>
            <ns3:cad>47</ns3:cad>
          </ns3:TrackPointExtension>
        </extensions>
      </trkpt>
      <trkpt lat="43.77808372490108013153076171875" lon="1.56737901270389556884765625">
        <ele>134</ele>
        <time>2026-08-13T07:04:04.000Z</time>
        <extensions>
          <ns3:TrackPointExtension>
            <ns3:hr>72</ns3:hr>
            <ns3:cad>47</ns3:cad>
          </ns3:TrackPointExtension>
        </extensions>
      </trkpt>
      <trkpt lat="43.77809277735650539398193359375" lon="1.5673754923045635223388671875">
        <ele>134</ele>
        <time>2026-08-13T07:04:05.000Z</time>
        <extensions>
          <ns3:TrackPointExtension>
            <ns3:hr>73</ns3:hr>
            <ns3:cad>47</ns3:cad>
          </ns3:TrackPointExtension>
        </extensions>
      </trkpt>
      <trkpt lat="43.77810426056385040283203125" lon="1.5673684515058994293212890625">
        <ele>133.8000030517578125</ele>
        <time>2026-08-13T07:04:06.000Z</time>
        <extensions>
          <ns3:TrackPointExtension>
            <ns3:hr>73</ns3:hr>
            <ns3:cad>47</ns3:cad>
          </ns3:TrackPointExtension>
        </extensions>
      </trkpt>
      <trkpt lat="43.77811440266668796539306640625" lon="1.56735763885080814361572265625">
        <ele>133.8000030517578125</ele>
        <time>2026-08-13T07:04:07.000Z</time>
        <extensions>
          <ns3:TrackPointExtension>
            <ns3:hr>73</ns3:hr>
            <ns3:cad>47</ns3:cad>
          </ns3:TrackPointExtension>
        </extensions>
      </trkpt>
      <trkpt lat="43.77812010236084461212158203125" lon="1.56734556891024112701416015625">
        <ele>133.8000030517578125</ele>
        <time>2026-08-13T07:04:08.000Z</time>
        <extensions>
          <ns3:TrackPointExtension>
            <ns3:hr>74</ns3:hr>
            <ns3:cad>45</ns3:cad>
          </ns3:TrackPointExtension>
        </extensions>
      </trkpt>
      <trkpt lat="43.778124712407588958740234375" lon="1.56734037213027477264404296875">
        <ele>133.8000030517578125</ele>
        <time>2026-08-13T07:04:09.000Z</time>
        <extensions>
          <ns3:TrackPointExtension>
            <ns3:hr>74</ns3:hr>
            <ns3:cad>45</ns3:cad>
          </ns3:TrackPointExtension>
        </extensions>
      </trkpt>
      <trkpt lat="43.77812781371176242828369140625" lon="1.567335091531276702880859375">
        <ele>133.8000030517578125</ele>
        <time>2026-08-13T07:04:10.000Z</time>
        <extensions>
          <ns3:TrackPointExtension>
            <ns3:hr>74</ns3:hr>
            <ns3:cad>45</ns3:cad>
          </ns3:TrackPointExtension>
        </extensions>
      </trkpt>
      <trkpt lat="43.778136782348155975341796875" lon="1.56732746399939060211181640625">
        <ele>133.8000030517578125</ele>
        <time>2026-08-13T07:04:11.000Z</time>
        <extensions>
          <ns3:TrackPointExtension>
            <ns3:hr>73</ns3:hr>
            <ns3:cad>47</ns3:cad>
          </ns3:TrackPointExtension>
        </extensions>
      </trkpt>
      <trkpt lat="43.7781423144042491912841796875" lon="1.5673191659152507781982421875">
        <ele>133.8000030517578125</ele>
        <time>2026-08-13T07:04:12.000Z</time>
        <extensions>
          <ns3:TrackPointExtension>
            <ns3:hr>73</ns3:hr>
            <ns3:cad>47</ns3:cad>
          </ns3:TrackPointExtension>
        </extensions>
      </trkpt>
      <trkpt lat="43.778148852288722991943359375" lon="1.56731572933495044708251953125">
        <ele>133.600006103515625</ele>
        <time>2026-08-13T07:04:13.000Z</time>
        <extensions>
          <ns3:TrackPointExtension>
            <ns3:hr>73</ns3:hr>
            <ns3:cad>47</ns3:cad>
          </ns3:TrackPointExtension>
        </extensions>
      </trkpt>
      <trkpt lat="43.77815513871610164642333984375" lon="1.56731271184980869293212890625">
        <ele>133.600006103515625</ele>
        <time>2026-08-13T07:04:14.000Z</time>
        <extensions>
          <ns3:TrackPointExtension>
            <ns3:hr>73</ns3:hr>
            <ns3:cad>47</ns3:cad>
          </ns3:TrackPointExtension>
        </extensions>
      </trkpt>
      <trkpt lat="43.77816603519022464752197265625" lon="1.56730416230857372283935546875">
        <ele>133.600006103515625</ele>
        <time>2026-08-13T07:04:15.000Z</time>
        <extensions>
          <ns3:TrackPointExtension>
            <ns3:hr>72</ns3:hr>
            <ns3:cad>46</ns3:cad>
          </ns3:TrackPointExtension>
        </extensions>
      </trkpt>
      <trkpt lat="43.778176009654998779296875" lon="1.56729293055832386016845703125">
        <ele>133.600006103515625</ele>
        <time>2026-08-13T07:04:16.000Z</time>
        <extensions>
          <ns3:TrackPointExtension>
            <ns3:hr>71</ns3:hr>
            <ns3:cad>46</ns3:cad>
          </ns3:TrackPointExtension>
        </extensions>
      </trkpt>
      <trkpt lat="43.77818514592945575714111328125" lon="1.5672859735786914825439453125">
        <ele>133.399993896484375</ele>
        <time>2026-08-13T07:04:17.000Z</time>
        <extensions>
          <ns3:TrackPointExtension>
            <ns3:hr>69</ns3:hr>
            <ns3:cad>46</ns3:cad>
          </ns3:TrackPointExtension>
        </extensions>
      </trkpt>
      <trkpt lat="43.77819336019456386566162109375" lon="1.567280776798725128173828125">
        <ele>133.399993896484375</ele>
        <time>2026-08-13T07:04:18.000Z</time>
        <extensions>
          <ns3:TrackPointExtension>
            <ns3:hr>67</ns3:hr>
            <ns3:cad>46</ns3:cad>
          </ns3:TrackPointExtension>
        </extensions>
      </trkpt>
      <trkpt lat="43.7781988084316253662109375" lon="1.56727373600006103515625">
        <ele>133.399993896484375</ele>
        <time>2026-08-13T07:04:19.000Z</time>
        <extensions>
          <ns3:TrackPointExtension>
            <ns3:hr>67</ns3:hr>
            <ns3:cad>46</ns3:cad>
          </ns3:TrackPointExtension>
        </extensions>
      </trkpt>
      <trkpt lat="43.7782097049057483673095703125" lon="1.56726091168820858001708984375">
        <ele>133.399993896484375</ele>
        <time>2026-08-13T07:04:20.000Z</time>
        <extensions>
          <ns3:TrackPointExtension>
            <ns3:hr>67</ns3:hr>
            <ns3:cad>46</ns3:cad>
          </ns3:TrackPointExtension>
        </extensions>
      </trkpt>
      <trkpt lat="43.778216578066349029541015625" lon="1.56725353561341762542724609375">
        <ele>133.399993896484375</ele>
        <time>2026-08-13T07:04:21.000Z</time>
        <extensions>
          <ns3:TrackPointExtension>
            <ns3:hr>67</ns3:hr>
            <ns3:cad>46</ns3:cad>
          </ns3:TrackPointExtension>
        </extensions>
      </trkpt>
      <trkpt lat="43.7782231159508228302001953125" lon="1.5672480873763561248779296875">
        <ele>133.399993896484375</ele>
        <time>2026-08-13T07:04:22.000Z</time>
        <extensions>
          <ns3:TrackPointExtension>
            <ns3:hr>67</ns3:hr>
            <ns3:cad>46</ns3:cad>
          </ns3:TrackPointExtension>
        </extensions>
      </trkpt>
      <trkpt lat="43.7782308273017406463623046875" lon="1.56724548898637294769287109375">
        <ele>133.399993896484375</ele>
        <time>2026-08-13T07:04:23.000Z</time>
        <extensions>
          <ns3:TrackPointExtension>
            <ns3:hr>67</ns3:hr>
            <ns3:cad>46</ns3:cad>
          </ns3:TrackPointExtension>
        </extensions>
      </trkpt>
      <trkpt lat="43.77824247814714908599853515625" lon="1.5672375261783599853515625">
        <ele>133.1999969482421875</ele>
        <time>2026-08-13T07:04:24.000Z</time>
        <extensions>
          <ns3:TrackPointExtension>
            <ns3:hr>67</ns3:hr>
            <ns3:cad>46</ns3:cad>
          </ns3:TrackPointExtension>
        </extensions>
      </trkpt>
      <trkpt lat="43.7782522849738597869873046875" lon="1.56722285784780979156494140625">
        <ele>133.1999969482421875</ele>
        <time>2026-08-13T07:04:25.000Z</time>
        <extensions>
          <ns3:TrackPointExtension>
            <ns3:hr>68</ns3:hr>
            <ns3:cad>46</ns3:cad>
          </ns3:TrackPointExtension>
        </extensions>
      </trkpt>
      <trkpt lat="43.77826125361025333404541015625" lon="1.5672142244875431060791015625">
        <ele>133.1999969482421875</ele>
        <time>2026-08-13T07:04:26.000Z</time>
        <extensions>
          <ns3:TrackPointExtension>
            <ns3:hr>68</ns3:hr>
            <ns3:cad>46</ns3:cad>
          </ns3:TrackPointExtension>
        </extensions>
      </trkpt>
      <trkpt lat="43.77826762385666370391845703125" lon="1.567211039364337921142578125">
        <ele>133.1999969482421875</ele>
        <time>2026-08-13T07:04:27.000Z</time>
        <extensions>
          <ns3:TrackPointExtension>
            <ns3:hr>69</ns3:hr>
            <ns3:cad>47</ns3:cad>
          </ns3:TrackPointExtension>
        </extensions>
      </trkpt>
      <trkpt lat="43.778276257216930389404296875" lon="1.567202322185039520263671875">
        <ele>133</ele>
        <time>2026-08-13T07:04:28.000Z</time>
        <extensions>
          <ns3:TrackPointExtension>
            <ns3:hr>70</ns3:hr>
            <ns3:cad>47</ns3:cad>
          </ns3:TrackPointExtension>
        </extensions>
      </trkpt>
      <trkpt lat="43.77828422002494335174560546875" lon="1.56719117425382137298583984375">
        <ele>133</ele>
        <time>2026-08-13T07:04:29.000Z</time>
        <extensions>
          <ns3:TrackPointExtension>
            <ns3:hr>70</ns3:hr>
            <ns3:cad>47</ns3:cad>
          </ns3:TrackPointExtension>
        </extensions>
      </trkpt>
      <trkpt lat="43.77828941680490970611572265625" lon="1.5671813674271106719970703125">
        <ele>133</ele>
        <time>2026-08-13T07:04:30.000Z</time>
        <extensions>
          <ns3:TrackPointExtension>
            <ns3:hr>70</ns3:hr>
            <ns3:cad>47</ns3:cad>
          </ns3:TrackPointExtension>
        </extensions>
      </trkpt>
      <trkpt lat="43.7782982178032398223876953125" lon="1.56717826612293720245361328125">
        <ele>133</ele>
        <time>2026-08-13T07:04:31.000Z</time>
        <extensions>
          <ns3:TrackPointExtension>
            <ns3:hr>71</ns3:hr>
            <ns3:cad>47</ns3:cad>
          </ns3:TrackPointExtension>
        </extensions>
      </trkpt>
      <trkpt lat="43.7783042527735233306884765625" lon="1.56717491336166858673095703125">
        <ele>132.8000030517578125</ele>
        <time>2026-08-13T07:04:32.000Z</time>
        <extensions>
          <ns3:TrackPointExtension>
            <ns3:hr>71</ns3:hr>
            <ns3:cad>47</ns3:cad>
          </ns3:TrackPointExtension>
        </extensions>
      </trkpt>
      <trkpt lat="43.7783149816095829010009765625" lon="1.56716854311525821685791015625">
        <ele>132.8000030517578125</ele>
        <time>2026-08-13T07:04:33.000Z</time>
        <extensions>
          <ns3:TrackPointExtension>
            <ns3:hr>72</ns3:hr>
            <ns3:cad>47</ns3:cad>
          </ns3:TrackPointExtension>
        </extensions>
      </trkpt>
      <trkpt lat="43.7783257104456424713134765625" lon="1.56715697608888149261474609375">
        <ele>132.8000030517578125</ele>
        <time>2026-08-13T07:04:34.000Z</time>
        <extensions>
          <ns3:TrackPointExtension>
            <ns3:hr>72</ns3:hr>
            <ns3:cad>47</ns3:cad>
          </ns3:TrackPointExtension>
        </extensions>
      </trkpt>
      <trkpt lat="43.77833417616784572601318359375" lon="1.56714708544313907623291015625">
        <ele>132.8000030517578125</ele>
        <time>2026-08-13T07:04:35.000Z</time>
        <extensions>
          <ns3:TrackPointExtension>
            <ns3:hr>72</ns3:hr>
            <ns3:cad>47</ns3:cad>
          </ns3:TrackPointExtension>
        </extensions>
      </trkpt>
      <trkpt lat="43.77834054641425609588623046875" lon="1.56714943237602710723876953125">
        <ele>132.8000030517578125</ele>
        <time>2026-08-13T07:04:36.000Z</time>
        <extensions>
          <ns3:TrackPointExtension>
            <ns3:hr>72</ns3:hr>
            <ns3:cad>48</ns3:cad>
          </ns3:TrackPointExtension>
        </extensions>
      </trkpt>
      <trkpt lat="43.77834658138453960418701171875" lon="1.56714222393929958343505859375">
        <ele>132.8000030517578125</ele>
        <time>2026-08-13T07:04:37.000Z</time>
        <extensions>
          <ns3:TrackPointExtension>
            <ns3:hr>73</ns3:hr>
            <ns3:cad>47</ns3:cad>
          </ns3:TrackPointExtension>
        </extensions>
      </trkpt>
      <trkpt lat="43.778354041278362274169921875" lon="1.56713032163679599761962890625">
        <ele>132.8000030517578125</ele>
        <time>2026-08-13T07:04:38.000Z</time>
        <extensions>
          <ns3:TrackPointExtension>
            <ns3:hr>73</ns3:hr>
            <ns3:cad>47</ns3:cad>
          </ns3:TrackPointExtension>
        </extensions>
      </trkpt>
      <trkpt lat="43.77836049534380435943603515625" lon="1.56711992807686328887939453125">
        <ele>132.8000030517578125</ele>
        <time>2026-08-13T07:04:39.000Z</time>
        <extensions>
          <ns3:TrackPointExtension>
            <ns3:hr>73</ns3:hr>
            <ns3:cad>47</ns3:cad>
          </ns3:TrackPointExtension>
        </extensions>
      </trkpt>
      <trkpt lat="43.7783676199615001678466796875" lon="1.56711607240140438079833984375">
        <ele>132.600006103515625</ele>
        <time>2026-08-13T07:04:40.000Z</time>
        <extensions>
          <ns3:TrackPointExtension>
            <ns3:hr>74</ns3:hr>
            <ns3:cad>46</ns3:cad>
          </ns3:TrackPointExtension>
        </extensions>
      </trkpt>
      <trkpt lat="43.77837541513144969940185546875" lon="1.5671082772314548492431640625">
        <ele>132.600006103515625</ele>
        <time>2026-08-13T07:04:41.000Z</time>
        <extensions>
          <ns3:TrackPointExtension>
            <ns3:hr>74</ns3:hr>
            <ns3:cad>46</ns3:cad>
          </ns3:TrackPointExtension>
        </extensions>
      </trkpt>
      <trkpt lat="43.77838463522493839263916015625" lon="1.56709511764347553253173828125">
        <ele>132.8000030517578125</ele>
        <time>2026-08-13T07:04:42.000Z</time>
        <extensions>
          <ns3:TrackPointExtension>
            <ns3:hr>74</ns3:hr>
            <ns3:cad>46</ns3:cad>
          </ns3:TrackPointExtension>
        </extensions>
      </trkpt>
      <trkpt lat="43.77839033491909503936767578125" lon="1.56708774156868457794189453125">
        <ele>132.8000030517578125</ele>
        <time>2026-08-13T07:04:43.000Z</time>
        <extensions>
          <ns3:TrackPointExtension>
            <ns3:hr>74</ns3:hr>
            <ns3:cad>0</ns3:cad>
          </ns3:TrackPointExtension>
        </extensions>
      </trkpt>
      <trkpt lat="43.77839318476617336273193359375" lon="1.56708003021776676177978515625">
        <ele>132.8000030517578125</ele>
        <time>2026-08-13T07:04:44.000Z</time>
        <extensions>
          <ns3:TrackPointExtension>
            <ns3:hr>74</ns3:hr>
            <ns3:cad>44</ns3:cad>
          </ns3:TrackPointExtension>
        </extensions>
      </trkpt>
      <trkpt lat="43.77839653752744197845458984375" lon="1.56707248650491237640380859375">
        <ele>132.8000030517578125</ele>
        <time>2026-08-13T07:04:45.000Z</time>
        <extensions>
          <ns3:TrackPointExtension>
            <ns3:hr>75</ns3:hr>
            <ns3:cad>44</ns3:cad>
          </ns3:TrackPointExtension>
        </extensions>
      </trkpt>
      <trkpt lat="43.77839921973645687103271484375" lon="1.56706653535366058349609375">
        <ele>132.8000030517578125</ele>
        <time>2026-08-13T07:04:46.000Z</time>
        <extensions>
          <ns3:TrackPointExtension>
            <ns3:hr>75</ns3:hr>
            <ns3:cad>44</ns3:cad>
          </ns3:TrackPointExtension>
        </extensions>
      </trkpt>
      <trkpt lat="43.7784048356115818023681640625" lon="1.56705706380307674407958984375">
        <ele>132.8000030517578125</ele>
        <time>2026-08-13T07:04:47.000Z</time>
        <extensions>
          <ns3:TrackPointExtension>
            <ns3:hr>75</ns3:hr>
            <ns3:cad>44</ns3:cad>
          </ns3:TrackPointExtension>
        </extensions>
      </trkpt>
      <trkpt lat="43.77840709872543811798095703125" lon="1.56704952009022235870361328125">
        <ele>132.8000030517578125</ele>
        <time>2026-08-13T07:04:48.000Z</time>
        <extensions>
          <ns3:TrackPointExtension>
            <ns3:hr>75</ns3:hr>
            <ns3:cad>44</ns3:cad>
          </ns3:TrackPointExtension>
        </extensions>
      </trkpt>
      <trkpt lat="43.77841179259121417999267578125" lon="1.5670452453196048736572265625">
        <ele>132.8000030517578125</ele>
        <time>2026-08-13T07:04:49.000Z</time>
        <extensions>
          <ns3:TrackPointExtension>
            <ns3:hr>75</ns3:hr>
            <ns3:cad>45</ns3:cad>
          </ns3:TrackPointExtension>
        </extensions>
      </trkpt>
      <trkpt lat="43.77842369489371776580810546875" lon="1.56703426502645015716552734375">
        <ele>132.600006103515625</ele>
        <time>2026-08-13T07:04:50.000Z</time>
        <extensions>
          <ns3:TrackPointExtension>
            <ns3:hr>75</ns3:hr>
            <ns3:cad>45</ns3:cad>
          </ns3:TrackPointExtension>
        </extensions>
      </trkpt>
      <trkpt lat="43.7784319929778575897216796875" lon="1.567031331360340118408203125">
        <ele>132.600006103515625</ele>
        <time>2026-08-13T07:04:51.000Z</time>
        <extensions>
          <ns3:TrackPointExtension>
            <ns3:hr>75</ns3:hr>
            <ns3:cad>45</ns3:cad>
          </ns3:TrackPointExtension>
        </extensions>
      </trkpt>
      <trkpt lat="43.77844146452844142913818359375" lon="1.567029990255832672119140625">
        <ele>132.600006103515625</ele>
        <time>2026-08-13T07:04:52.000Z</time>
        <extensions>
          <ns3:TrackPointExtension>
            <ns3:hr>74</ns3:hr>
            <ns3:cad>45</ns3:cad>
          </ns3:TrackPointExtension>
        </extensions>
      </trkpt>
      <trkpt lat="43.7784455716609954833984375" lon="1.56703627668321132659912109375">
        <ele>132.600006103515625</ele>
        <time>2026-08-13T07:04:53.000Z</time>
        <extensions>
          <ns3:TrackPointExtension>
            <ns3:hr>75</ns3:hr>
            <ns3:cad>0</ns3:cad>
          </ns3:TrackPointExtension>
        </extensions>
      </trkpt>
      <trkpt lat="43.77845269627869129180908203125" lon="1.56703258864581584930419921875">
        <ele>132.399993896484375</ele>
        <time>2026-08-13T07:04:54.000Z</time>
        <extensions>
          <ns3:TrackPointExtension>
            <ns3:hr>75</ns3:hr>
            <ns3:cad>0</ns3:cad>
          </ns3:TrackPointExtension>
        </extensions>
      </trkpt>
      <trkpt lat="43.77845705486834049224853515625" lon="1.5670207701623439788818359375">
        <ele>132.399993896484375</ele>
        <time>2026-08-13T07:04:55.000Z</time>
        <extensions>
          <ns3:TrackPointExtension>
            <ns3:hr>75</ns3:hr>
            <ns3:cad>0</ns3:cad>
          </ns3:TrackPointExtension>
        </extensions>
      </trkpt>
      <trkpt lat="43.77846828661859035491943359375" lon="1.56700551509857177734375">
        <ele>132.399993896484375</ele>
        <time>2026-08-13T07:04:56.000Z</time>
        <extensions>
          <ns3:TrackPointExtension>
            <ns3:hr>75</ns3:hr>
            <ns3:cad>0</ns3:cad>
          </ns3:TrackPointExtension>
        </extensions>
      </trkpt>
      <trkpt lat="43.77847432158887386322021484375" lon="1.5669961273670196533203125">
        <ele>132.399993896484375</ele>
        <time>2026-08-13T07:04:57.000Z</time>
        <extensions>
          <ns3:TrackPointExtension>
            <ns3:hr>76</ns3:hr>
            <ns3:cad>0</ns3:cad>
          </ns3:TrackPointExtension>
        </extensions>
      </trkpt>
      <trkpt lat="43.77847683615982532501220703125" lon="1.56698782928287982940673828125">
        <ele>132.600006103515625</ele>
        <time>2026-08-13T07:04:58.000Z</time>
        <extensions>
          <ns3:TrackPointExtension>
            <ns3:hr>77</ns3:hr>
            <ns3:cad>0</ns3:cad>
          </ns3:TrackPointExtension>
        </extensions>
      </trkpt>
      <trkpt lat="43.77847968600690364837646484375" lon="1.5669808723032474517822265625">
        <ele>132.600006103515625</ele>
        <time>2026-08-13T07:04:59.000Z</time>
        <extensions>
          <ns3:TrackPointExtension>
            <ns3:hr>77</ns3:hr>
            <ns3:cad>0</ns3:cad>
          </ns3:TrackPointExtension>
        </extensions>
      </trkpt>
      <trkpt lat="43.77848655916750431060791015625" lon="1.566974334418773651123046875">
        <ele>132.600006103515625</ele>
        <time>2026-08-13T07:05:00.000Z</time>
        <extensions>
          <ns3:TrackPointExtension>
            <ns3:hr>77</ns3:hr>
            <ns3:cad>0</ns3:cad>
          </ns3:TrackPointExtension>
        </extensions>
      </trkpt>
      <trkpt lat="43.77849443815648555755615234375" lon="1.56696402467787265777587890625">
        <ele>132.600006103515625</ele>
        <time>2026-08-13T07:05:01.000Z</time>
        <extensions>
          <ns3:TrackPointExtension>
            <ns3:hr>77</ns3:hr>
            <ns3:cad>0</ns3:cad>
          </ns3:TrackPointExtension>
        </extensions>
      </trkpt>
      <trkpt lat="43.7784940190613269805908203125" lon="1.566950865089893341064453125">
        <ele>132.600006103515625</ele>
        <time>2026-08-13T07:05:02.000Z</time>
        <extensions>
          <ns3:TrackPointExtension>
            <ns3:hr>78</ns3:hr>
            <ns3:cad>0</ns3:cad>
          </ns3:TrackPointExtension>
        </extensions>
      </trkpt>
      <trkpt lat="43.77850432880222797393798828125" lon="1.566948182880878448486328125">
        <ele>132.600006103515625</ele>
        <time>2026-08-13T07:05:03.000Z</time>
        <extensions>
          <ns3:TrackPointExtension>
            <ns3:hr>79</ns3:hr>
            <ns3:cad>0</ns3:cad>
          </ns3:TrackPointExtension>
        </extensions>
      </trkpt>
      <trkpt lat="43.77851002849638462066650390625" lon="1.5669429861009120941162109375">
        <ele>132.600006103515625</ele>
        <time>2026-08-13T07:05:04.000Z</time>
        <extensions>
          <ns3:TrackPointExtension>
            <ns3:hr>78</ns3:hr>
            <ns3:cad>0</ns3:cad>
          </ns3:TrackPointExtension>
        </extensions>
      </trkpt>
      <trkpt lat="43.77851757220923900604248046875" lon="1.56692865304648876190185546875">
        <ele>132.600006103515625</ele>
        <time>2026-08-13T07:05:05.000Z</time>
        <extensions>
          <ns3:TrackPointExtension>
            <ns3:hr>78</ns3:hr>
            <ns3:cad>0</ns3:cad>
          </ns3:TrackPointExtension>
        </extensions>
      </trkpt>
      <trkpt lat="43.77852427773177623748779296875" lon="1.566920019686222076416015625">
        <ele>132.600006103515625</ele>
        <time>2026-08-13T07:05:06.000Z</time>
        <extensions>
          <ns3:TrackPointExtension>
            <ns3:hr>78</ns3:hr>
            <ns3:cad>0</ns3:cad>
          </ns3:TrackPointExtension>
        </extensions>
      </trkpt>
      <trkpt lat="43.77852939069271087646484375" lon="1.56691373325884342193603515625">
        <ele>132.399993896484375</ele>
        <time>2026-08-13T07:05:07.000Z</time>
        <extensions>
          <ns3:TrackPointExtension>
            <ns3:hr>77</ns3:hr>
            <ns3:cad>0</ns3:cad>
          </ns3:TrackPointExtension>
        </extensions>
      </trkpt>
      <trkpt lat="43.77853467129170894622802734375" lon="1.5669054351747035980224609375">
        <ele>132.399993896484375</ele>
        <time>2026-08-13T07:05:08.000Z</time>
        <extensions>
          <ns3:TrackPointExtension>
            <ns3:hr>77</ns3:hr>
            <ns3:cad>0</ns3:cad>
          </ns3:TrackPointExtension>
        </extensions>
      </trkpt>
      <trkpt lat="43.7785434722900390625" lon="1.56689009629189968109130859375">
        <ele>132.1999969482421875</ele>
        <time>2026-08-13T07:05:09.000Z</time>
        <extensions>
          <ns3:TrackPointExtension>
            <ns3:hr>77</ns3:hr>
            <ns3:cad>0</ns3:cad>
          </ns3:TrackPointExtension>
        </extensions>
      </trkpt>
      <trkpt lat="43.778551854193210601806640625" lon="1.56688372604548931121826171875">
        <ele>132</ele>
        <time>2026-08-13T07:05:10.000Z</time>
        <extensions>
          <ns3:TrackPointExtension>
            <ns3:hr>78</ns3:hr>
            <ns3:cad>0</ns3:cad>
          </ns3:TrackPointExtension>
        </extensions>
      </trkpt>
      <trkpt lat="43.77855327911674976348876953125" lon="1.566867716610431671142578125">
        <ele>132</ele>
        <time>2026-08-13T07:05:11.000Z</time>
        <extensions>
          <ns3:TrackPointExtension>
            <ns3:hr>78</ns3:hr>
            <ns3:cad>0</ns3:cad>
          </ns3:TrackPointExtension>
        </extensions>
      </trkpt>
      <trkpt lat="43.7785607390105724334716796875" lon="1.56688204966485500335693359375">
        <ele>132.1999969482421875</ele>
        <time>2026-08-13T07:05:12.000Z</time>
        <extensions>
          <ns3:TrackPointExtension>
            <ns3:hr>78</ns3:hr>
            <ns3:cad>0</ns3:cad>
          </ns3:TrackPointExtension>
        </extensions>
      </trkpt>
      <trkpt lat="43.77856652252376079559326171875" lon="1.56689395196735858917236328125">
        <ele>132.1999969482421875</ele>
        <time>2026-08-13T07:05:13.000Z</time>
        <extensions>
          <ns3:TrackPointExtension>
            <ns3:hr>79</ns3:hr>
            <ns3:cad>0</ns3:cad>
          </ns3:TrackPointExtension>
        </extensions>
      </trkpt>
      <trkpt lat="43.77857071347534656524658203125" lon="1.5668968856334686279296875">
        <ele>132.1999969482421875</ele>
        <time>2026-08-13T07:05:14.000Z</time>
        <extensions>
          <ns3:TrackPointExtension>
            <ns3:hr>79</ns3:hr>
            <ns3:cad>47</ns3:cad>
          </ns3:TrackPointExtension>
        </extensions>
      </trkpt>
      <trkpt lat="43.7785691209137439727783203125" lon="1.56689814291894435882568359375">
        <ele>132.1999969482421875</ele>
        <time>2026-08-13T07:05:15.000Z</time>
        <extensions>
          <ns3:TrackPointExtension>
            <ns3:hr>79</ns3:hr>
            <ns3:cad>47</ns3:cad>
          </ns3:TrackPointExtension>
        </extensions>
      </trkpt>
      <trkpt lat="43.77857004292309284210205078125" lon="1.566899903118610382080078125">
        <ele>132.1999969482421875</ele>
        <time>2026-08-13T07:05:16.000Z</time>
        <extensions>
          <ns3:TrackPointExtension>
            <ns3:hr>79</ns3:hr>
            <ns3:cad>0</ns3:cad>
          </ns3:TrackPointExtension>
        </extensions>
      </trkpt>
      <trkpt lat="43.77856970764696598052978515625" lon="1.56691105104982852935791015625">
        <ele>132.1999969482421875</ele>
        <time>2026-08-13T07:05:17.000Z</time>
        <extensions>
          <ns3:TrackPointExtension>
            <ns3:hr>79</ns3:hr>
            <ns3:cad>0</ns3:cad>
          </ns3:TrackPointExtension>
        </extensions>
      </trkpt>
      <trkpt lat="43.7785718031227588653564453125" lon="1.56691155396401882171630859375">
        <ele>132.1999969482421875</ele>
        <time>2026-08-13T07:05:18.000Z</time>
        <extensions>
          <ns3:TrackPointExtension>
            <ns3:hr>79</ns3:hr>
            <ns3:cad>0</ns3:cad>
          </ns3:TrackPointExtension>
        </extensions>
      </trkpt>
      <trkpt lat="43.77857004292309284210205078125" lon="1.5669121406972408294677734375">
        <ele>132.1999969482421875</ele>
        <time>2026-08-13T07:05:19.000Z</time>
        <extensions>
          <ns3:TrackPointExtension>
            <ns3:hr>79</ns3:hr>
            <ns3:cad>0</ns3:cad>
          </ns3:TrackPointExtension>
        </extensions>
      </trkpt>
      <trkpt lat="43.7785701267421245574951171875" lon="1.56691499054431915283203125">
        <ele>132.399993896484375</ele>
        <time>2026-08-13T07:05:20.000Z</time>
        <extensions>
          <ns3:TrackPointExtension>
            <ns3:hr>78</ns3:hr>
            <ns3:cad>0</ns3:cad>
          </ns3:TrackPointExtension>
        </extensions>
      </trkpt>
      <trkpt lat="43.77856962382793426513671875" lon="1.5669154934585094451904296875">
        <ele>132.399993896484375</ele>
        <time>2026-08-13T07:05:21.000Z</time>
        <extensions>
          <ns3:TrackPointExtension>
            <ns3:hr>79</ns3:hr>
            <ns3:cad>0</ns3:cad>
          </ns3:TrackPointExtension>
        </extensions>
      </trkpt>
      <trkpt lat="43.77856962382793426513671875" lon="1.56691574491560459136962890625">
        <ele>132.399993896484375</ele>
        <time>2026-08-13T07:05:22.000Z</time>
        <extensions>
          <ns3:TrackPointExtension>
            <ns3:hr>78</ns3:hr>
            <ns3:cad>0</ns3:cad>
          </ns3:TrackPointExtension>
        </extensions>
      </trkpt>
      <trkpt lat="43.77856962382793426513671875" lon="1.56691574491560459136962890625">
        <ele>132.399993896484375</ele>
        <time>2026-08-13T07:05:23.000Z</time>
        <extensions>
          <ns3:TrackPointExtension>
            <ns3:hr>78</ns3:hr>
            <ns3:cad>0</ns3:cad>
          </ns3:TrackPointExtension>
        </extensions>
      </trkpt>
      <trkpt lat="43.77856962382793426513671875" lon="1.56691574491560459136962890625">
        <ele>132.399993896484375</ele>
        <time>2026-08-13T07:05:24.000Z</time>
        <extensions>
          <ns3:TrackPointExtension>
            <ns3:hr>79</ns3:hr>
            <ns3:cad>0</ns3:cad>
          </ns3:TrackPointExtension>
        </extensions>
      </trkpt>
      <trkpt lat="43.77856962382793426513671875" lon="1.56691574491560459136962890625">
        <ele>132.399993896484375</ele>
        <time>2026-08-13T07:05:25.000Z</time>
        <extensions>
          <ns3:TrackPointExtension>
            <ns3:hr>79</ns3:hr>
            <ns3:cad>0</ns3:cad>
          </ns3:TrackPointExtension>
        </extensions>
      </trkpt>
      <trkpt lat="43.77856962382793426513671875" lon="1.56691574491560459136962890625">
        <ele>132.399993896484375</ele>
        <time>2026-08-13T07:05:26.000Z</time>
        <extensions>
          <ns3:TrackPointExtension>
            <ns3:hr>78</ns3:hr>
            <ns3:cad>0</ns3:cad>
          </ns3:TrackPointExtension>
        </extensions>
      </trkpt>
      <trkpt lat="43.77856962382793426513671875" lon="1.56691574491560459136962890625">
        <ele>132.399993896484375</ele>
        <time>2026-08-13T07:05:27.000Z</time>
        <extensions>
          <ns3:TrackPointExtension>
            <ns3:hr>78</ns3:hr>
            <ns3:cad>0</ns3:cad>
          </ns3:TrackPointExtension>
        </extensions>
      </trkpt>
      <trkpt lat="43.77856962382793426513671875" lon="1.56691574491560459136962890625">
        <ele>132.399993896484375</ele>
        <time>2026-08-13T07:05:28.000Z</time>
        <extensions>
          <ns3:TrackPointExtension>
            <ns3:hr>77</ns3:hr>
            <ns3:cad>0</ns3:cad>
          </ns3:TrackPointExtension>
        </extensions>
      </trkpt>
      <trkpt lat="43.77856962382793426513671875" lon="1.56691574491560459136962890625">
        <ele>132.399993896484375</ele>
        <time>2026-08-13T07:05:29.000Z</time>
        <extensions>
          <ns3:TrackPointExtension>
            <ns3:hr>77</ns3:hr>
            <ns3:cad>0</ns3:cad>
          </ns3:TrackPointExtension>
        </extensions>
      </trkpt>
      <trkpt lat="43.77856962382793426513671875" lon="1.56691574491560459136962890625">
        <ele>132.399993896484375</ele>
        <time>2026-08-13T07:05:30.000Z</time>
        <extensions>
          <ns3:TrackPointExtension>
            <ns3:hr>77</ns3:hr>
            <ns3:cad>0</ns3:cad>
          </ns3:TrackPointExtension>
        </extensions>
      </trkpt>
      <trkpt lat="43.77856962382793426513671875" lon="1.56691574491560459136962890625">
        <ele>132.399993896484375</ele>
        <time>2026-08-13T07:05:31.000Z</time>
        <extensions>
          <ns3:TrackPointExtension>
            <ns3:hr>77</ns3:hr>
            <ns3:cad>0</ns3:cad>
          </ns3:TrackPointExtension>
        </extensions>
      </trkpt>
      <trkpt lat="43.77856962382793426513671875" lon="1.56691574491560459136962890625">
        <ele>132.399993896484375</ele>
        <time>2026-08-13T07:05:32.000Z</time>
        <extensions>
          <ns3:TrackPointExtension>
            <ns3:hr>77</ns3:hr>
            <ns3:cad>0</ns3:cad>
          </ns3:TrackPointExtension>
        </extensions>
      </trkpt>
      <trkpt lat="43.77856962382793426513671875" lon="1.56691574491560459136962890625">
        <ele>132.1999969482421875</ele>
        <time>2026-08-13T07:05:33.000Z</time>
        <extensions>
          <ns3:TrackPointExtension>
            <ns3:hr>76</ns3:hr>
            <ns3:cad>0</ns3:cad>
          </ns3:TrackPointExtension>
        </extensions>
      </trkpt>
      <trkpt lat="43.77856962382793426513671875" lon="1.56691574491560459136962890625">
        <ele>132.1999969482421875</ele>
        <time>2026-08-13T07:05:34.000Z</time>
        <extensions>
          <ns3:TrackPointExtension>
            <ns3:hr>75</ns3:hr>
            <ns3:cad>0</ns3:cad>
          </ns3:TrackPointExtension>
        </extensions>
      </trkpt>
      <trkpt lat="43.77856962382793426513671875" lon="1.56691574491560459136962890625">
        <ele>132.1999969482421875</ele>
        <time>2026-08-13T07:05:35.000Z</time>
        <extensions>
          <ns3:TrackPointExtension>
            <ns3:hr>74</ns3:hr>
            <ns3:cad>0</ns3:cad>
          </ns3:TrackPointExtension>
        </extensions>
      </trkpt>
      <trkpt lat="43.77856962382793426513671875" lon="1.56691574491560459136962890625">
        <ele>132.1999969482421875</ele>
        <time>2026-08-13T07:05:36.000Z</time>
        <extensions>
          <ns3:TrackPointExtension>
            <ns3:hr>73</ns3:hr>
            <ns3:cad>0</ns3:cad>
          </ns3:TrackPointExtension>
        </extensions>
      </trkpt>
      <trkpt lat="43.77856962382793426513671875" lon="1.56691574491560459136962890625">
        <ele>132.1999969482421875</ele>
        <time>2026-08-13T07:05:37.000Z</time>
        <extensions>
          <ns3:TrackPointExtension>
            <ns3:hr>73</ns3:hr>
            <ns3:cad>0</ns3:cad>
          </ns3:TrackPointExtension>
        </extensions>
      </trkpt>
      <trkpt lat="43.77856962382793426513671875" lon="1.56691574491560459136962890625">
        <ele>132.1999969482421875</ele>
        <time>2026-08-13T07:05:38.000Z</time>
        <extensions>
          <ns3:TrackPointExtension>
            <ns3:hr>72</ns3:hr>
            <ns3:cad>0</ns3:cad>
          </ns3:TrackPointExtension>
        </extensions>
      </trkpt>
      <trkpt lat="43.77856962382793426513671875" lon="1.56691574491560459136962890625">
        <ele>132.1999969482421875</ele>
        <time>2026-08-13T07:05:39.000Z</time>
        <extensions>
          <ns3:TrackPointExtension>
            <ns3:hr>72</ns3:hr>
            <ns3:cad>0</ns3:cad>
          </ns3:TrackPointExtension>
        </extensions>
      </trkpt>
      <trkpt lat="43.77856962382793426513671875" lon="1.56691574491560459136962890625">
        <ele>132.1999969482421875</ele>
        <time>2026-08-13T07:05:40.000Z</time>
        <extensions>
          <ns3:TrackPointExtension>
            <ns3:hr>72</ns3:hr>
            <ns3:cad>0</ns3:cad>
          </ns3:TrackPointExtension>
        </extensions>
      </trkpt>
      <trkpt lat="43.77856962382793426513671875" lon="1.56691574491560459136962890625">
        <ele>132.399993896484375</ele>
        <time>2026-08-13T07:05:41.000Z</time>
        <extensions>
          <ns3:TrackPointExtension>
            <ns3:hr>71</ns3:hr>
            <ns3:cad>0</ns3:cad>
          </ns3:TrackPointExtension>
        </extensions>
      </trkpt>
      <trkpt lat="43.77856962382793426513671875" lon="1.56691574491560459136962890625">
        <ele>132.399993896484375</ele>
        <time>2026-08-13T07:05:42.000Z</time>
        <extensions>
          <ns3:TrackPointExtension>
            <ns3:hr>71</ns3:hr>
            <ns3:cad>0</ns3:cad>
          </ns3:TrackPointExtension>
        </extensions>
      </trkpt>
      <trkpt lat="43.77856962382793426513671875" lon="1.56691574491560459136962890625">
        <ele>132.399993896484375</ele>
        <time>2026-08-13T07:05:43.000Z</time>
        <extensions>
          <ns3:TrackPointExtension>
            <ns3:hr>71</ns3:hr>
            <ns3:cad>0</ns3:cad>
          </ns3:TrackPointExtension>
        </extensions>
      </trkpt>
      <trkpt lat="43.77856962382793426513671875" lon="1.56691574491560459136962890625">
        <ele>132.399993896484375</ele>
        <time>2026-08-13T07:05:44.000Z</time>
        <extensions>
          <ns3:TrackPointExtension>
            <ns3:hr>71</ns3:hr>
            <ns3:cad>0</ns3:cad>
          </ns3:TrackPointExtension>
        </extensions>
      </trkpt>
      <trkpt lat="43.77856962382793426513671875" lon="1.56691574491560459136962890625">
        <ele>132.1999969482421875</ele>
        <time>2026-08-13T07:05:45.000Z</time>
        <extensions>
          <ns3:TrackPointExtension>
            <ns3:hr>70</ns3:hr>
            <ns3:cad>0</ns3:cad>
          </ns3:TrackPointExtension>
        </extensions>
      </trkpt>
      <trkpt lat="43.77856962382793426513671875" lon="1.56691574491560459136962890625">
        <ele>132.1999969482421875</ele>
        <time>2026-08-13T07:05:46.000Z</time>
        <extensions>
          <ns3:TrackPointExtension>
            <ns3:hr>71</ns3:hr>
            <ns3:cad>0</ns3:cad>
          </ns3:TrackPointExtension>
        </extensions>
      </trkpt>
      <trkpt lat="43.77856962382793426513671875" lon="1.56691574491560459136962890625">
        <ele>132.1999969482421875</ele>
        <time>2026-08-13T07:05:47.000Z</time>
        <extensions>
          <ns3:TrackPointExtension>
            <ns3:hr>71</ns3:hr>
            <ns3:cad>0</ns3:cad>
          </ns3:TrackPointExtension>
        </extensions>
      </trkpt>
      <trkpt lat="43.77856962382793426513671875" lon="1.56691574491560459136962890625">
        <ele>132.1999969482421875</ele>
        <time>2026-08-13T07:05:48.000Z</time>
        <extensions>
          <ns3:TrackPointExtension>
            <ns3:hr>70</ns3:hr>
            <ns3:cad>0</ns3:cad>
          </ns3:TrackPointExtension>
        </extensions>
      </trkpt>
      <trkpt lat="43.77856962382793426513671875" lon="1.56691574491560459136962890625">
        <ele>132.1999969482421875</ele>
        <time>2026-08-13T07:05:49.000Z</time>
        <extensions>
          <ns3:TrackPointExtension>
            <ns3:hr>70</ns3:hr>
            <ns3:cad>0</ns3:cad>
          </ns3:TrackPointExtension>
        </extensions>
      </trkpt>
      <trkpt lat="43.77856962382793426513671875" lon="1.56691574491560459136962890625">
        <ele>132.1999969482421875</ele>
        <time>2026-08-13T07:05:50.000Z</time>
        <extensions>
          <ns3:TrackPointExtension>
            <ns3:hr>71</ns3:hr>
            <ns3:cad>0</ns3:cad>
          </ns3:TrackPointExtension>
        </extensions>
      </trkpt>
      <trkpt lat="43.77856962382793426513671875" lon="1.56691574491560459136962890625">
        <ele>132.1999969482421875</ele>
        <time>2026-08-13T07:05:51.000Z</time>
        <extensions>
          <ns3:TrackPointExtension>
            <ns3:hr>71</ns3:hr>
            <ns3:cad>0</ns3:cad>
          </ns3:TrackPointExtension>
        </extensions>
      </trkpt>
      <trkpt lat="43.77856962382793426513671875" lon="1.56691574491560459136962890625">
        <ele>132.1999969482421875</ele>
        <time>2026-08-13T07:05:52.000Z</time>
        <extensions>
          <ns3:TrackPointExtension>
            <ns3:hr>71</ns3:hr>
            <ns3:cad>0</ns3:cad>
          </ns3:TrackPointExtension>
        </extensions>
      </trkpt>
      <trkpt lat="43.77856962382793426513671875" lon="1.56691574491560459136962890625">
        <ele>132.1999969482421875</ele>
        <time>2026-08-13T07:05:53.000Z</time>
        <extensions>
          <ns3:TrackPointExtension>
            <ns3:hr>71</ns3:hr>
            <ns3:cad>0</ns3:cad>
          </ns3:TrackPointExtension>
        </extensions>
      </trkpt>
      <trkpt lat="43.77856962382793426513671875" lon="1.56691574491560459136962890625">
        <ele>132.1999969482421875</ele>
        <time>2026-08-13T07:05:54.000Z</time>
        <extensions>
          <ns3:TrackPointExtension>
            <ns3:hr>71</ns3:hr>
            <ns3:cad>0</ns3:cad>
          </ns3:TrackPointExtension>
        </extensions>
      </trkpt>
      <trkpt lat="43.77856962382793426513671875" lon="1.56691574491560459136962890625">
        <ele>132.399993896484375</ele>
        <time>2026-08-13T07:05:55.000Z</time>
        <extensions>
          <ns3:TrackPointExtension>
            <ns3:hr>72</ns3:hr>
            <ns3:cad>0</ns3:cad>
          </ns3:TrackPointExtension>
        </extensions>
      </trkpt>
      <trkpt lat="43.77856962382793426513671875" lon="1.56691574491560459136962890625">
        <ele>132.399993896484375</ele>
        <time>2026-08-13T07:05:56.000Z</time>
        <extensions>
          <ns3:TrackPointExtension>
            <ns3:hr>72</ns3:hr>
            <ns3:cad>0</ns3:cad>
          </ns3:TrackPointExtension>
        </extensions>
      </trkpt>
      <trkpt lat="43.77856962382793426513671875" lon="1.56691574491560459136962890625">
        <ele>132.399993896484375</ele>
        <time>2026-08-13T07:05:57.000Z</time>
        <extensions>
          <ns3:TrackPointExtension>
            <ns3:hr>72</ns3:hr>
            <ns3:cad>0</ns3:cad>
          </ns3:TrackPointExtension>
        </extensions>
      </trkpt>
      <trkpt lat="43.77856962382793426513671875" lon="1.56691574491560459136962890625">
        <ele>132.399993896484375</ele>
        <time>2026-08-13T07:05:58.000Z</time>
        <extensions>
          <ns3:TrackPointExtension>
            <ns3:hr>73</ns3:hr>
            <ns3:cad>0</ns3:cad>
          </ns3:TrackPointExtension>
        </extensions>
      </trkpt>
      <trkpt lat="43.77856962382793426513671875" lon="1.56691574491560459136962890625">
        <ele>132.600006103515625</ele>
        <time>2026-08-13T07:05:59.000Z</time>
        <extensions>
          <ns3:TrackPointExtension>
            <ns3:hr>73</ns3:hr>
            <ns3:cad>0</ns3:cad>
          </ns3:TrackPointExtension>
        </extensions>
      </trkpt>
      <trkpt lat="43.77856962382793426513671875" lon="1.56691574491560459136962890625">
        <ele>132.399993896484375</ele>
        <time>2026-08-13T07:06:00.000Z</time>
        <extensions>
          <ns3:TrackPointExtension>
            <ns3:hr>73</ns3:hr>
            <ns3:cad>0</ns3:cad>
          </ns3:TrackPointExtension>
        </extensions>
      </trkpt>
      <trkpt lat="43.77856962382793426513671875" lon="1.56691574491560459136962890625">
        <ele>132.399993896484375</ele>
        <time>2026-08-13T07:06:01.000Z</time>
        <extensions>
          <ns3:TrackPointExtension>
            <ns3:hr>72</ns3:hr>
            <ns3:cad>0</ns3:cad>
          </ns3:TrackPointExtension>
        </extensions>
      </trkpt>
      <trkpt lat="43.77856962382793426513671875" lon="1.56691574491560459136962890625">
        <ele>132.399993896484375</ele>
        <time>2026-08-13T07:06:02.000Z</time>
        <extensions>
          <ns3:TrackPointExtension>
            <ns3:hr>72</ns3:hr>
            <ns3:cad>0</ns3:cad>
          </ns3:TrackPointExtension>
        </extensions>
      </trkpt>
      <trkpt lat="43.77856962382793426513671875" lon="1.56691574491560459136962890625">
        <ele>132.399993896484375</ele>
        <time>2026-08-13T07:06:03.000Z</time>
        <extensions>
          <ns3:TrackPointExtension>
            <ns3:hr>72</ns3:hr>
            <ns3:cad>0</ns3:cad>
          </ns3:TrackPointExtension>
        </extensions>
      </trkpt>
      <trkpt lat="43.77856962382793426513671875" lon="1.56691574491560459136962890625">
        <ele>132.399993896484375</ele>
        <time>2026-08-13T07:06:04.000Z</time>
        <extensions>
          <ns3:TrackPointExtension>
            <ns3:hr>72</ns3:hr>
            <ns3:cad>0</ns3:cad>
          </ns3:TrackPointExtension>
        </extensions>
      </trkpt>
      <trkpt lat="43.77856962382793426513671875" lon="1.56691574491560459136962890625">
        <ele>132.600006103515625</ele>
        <time>2026-08-13T07:06:05.000Z</time>
        <extensions>
          <ns3:TrackPointExtension>
            <ns3:hr>71</ns3:hr>
            <ns3:cad>0</ns3:cad>
          </ns3:TrackPointExtension>
        </extensions>
      </trkpt>
      <trkpt lat="43.77857674844563007354736328125" lon="1.56692379154264926910400390625">
        <ele>132.600006103515625</ele>
        <time>2026-08-13T07:06:06.000Z</time>
        <extensions>
          <ns3:TrackPointExtension>
            <ns3:hr>71</ns3:hr>
            <ns3:cad>0</ns3:cad>
          </ns3:TrackPointExtension>
        </extensions>
      </trkpt>
      <trkpt lat="43.77858228050172328948974609375" lon="1.566932760179042816162109375">
        <ele>132.600006103515625</ele>
        <time>2026-08-13T07:06:07.000Z</time>
        <extensions>
          <ns3:TrackPointExtension>
            <ns3:hr>71</ns3:hr>
            <ns3:cad>0</ns3:cad>
          </ns3:TrackPointExtension>
        </extensions>
      </trkpt>
      <trkpt lat="43.77858898602426052093505859375" lon="1.56694239936769008636474609375">
        <ele>132.600006103515625</ele>
        <time>2026-08-13T07:06:08.000Z</time>
        <extensions>
          <ns3:TrackPointExtension>
            <ns3:hr>71</ns3:hr>
            <ns3:cad>0</ns3:cad>
          </ns3:TrackPointExtension>
        </extensions>
      </trkpt>
      <trkpt lat="43.77859585918486118316650390625" lon="1.56694625504314899444580078125">
        <ele>132.399993896484375</ele>
        <time>2026-08-13T07:06:09.000Z</time>
        <extensions>
          <ns3:TrackPointExtension>
            <ns3:hr>72</ns3:hr>
            <ns3:cad>0</ns3:cad>
          </ns3:TrackPointExtension>
        </extensions>
      </trkpt>
      <trkpt lat="43.77860390581190586090087890625" lon="1.56695044599473476409912109375">
        <ele>132.399993896484375</ele>
        <time>2026-08-13T07:06:10.000Z</time>
        <extensions>
          <ns3:TrackPointExtension>
            <ns3:hr>72</ns3:hr>
            <ns3:cad>0</ns3:cad>
          </ns3:TrackPointExtension>
        </extensions>
      </trkpt>
      <trkpt lat="43.7786073423922061920166015625" lon="1.5669533796608448028564453125">
        <ele>132.399993896484375</ele>
        <time>2026-08-13T07:06:11.000Z</time>
        <extensions>
          <ns3:TrackPointExtension>
            <ns3:hr>72</ns3:hr>
            <ns3:cad>0</ns3:cad>
          </ns3:TrackPointExtension>
        </extensions>
      </trkpt>
      <trkpt lat="43.77860859967768192291259765625" lon="1.56695522367954254150390625">
        <ele>132.399993896484375</ele>
        <time>2026-08-13T07:06:12.000Z</time>
        <extensions>
          <ns3:TrackPointExtension>
            <ns3:hr>72</ns3:hr>
            <ns3:cad>0</ns3:cad>
          </ns3:TrackPointExtension>
        </extensions>
      </trkpt>
      <trkpt lat="43.77860876731574535369873046875" lon="1.56695656478404998779296875">
        <ele>132.399993896484375</ele>
        <time>2026-08-13T07:06:13.000Z</time>
        <extensions>
          <ns3:TrackPointExtension>
            <ns3:hr>71</ns3:hr>
            <ns3:cad>0</ns3:cad>
          </ns3:TrackPointExtension>
        </extensions>
      </trkpt>
      <trkpt lat="43.77861178480088710784912109375" lon="1.5669543854892253875732421875">
        <ele>132.399993896484375</ele>
        <time>2026-08-13T07:06:14.000Z</time>
        <extensions>
          <ns3:TrackPointExtension>
            <ns3:hr>71</ns3:hr>
            <ns3:cad>0</ns3:cad>
          </ns3:TrackPointExtension>
        </extensions>
      </trkpt>
      <trkpt lat="43.77861580811440944671630859375" lon="1.56695614568889141082763671875">
        <ele>132.399993896484375</ele>
        <time>2026-08-13T07:06:15.000Z</time>
        <extensions>
          <ns3:TrackPointExtension>
            <ns3:hr>70</ns3:hr>
            <ns3:cad>0</ns3:cad>
          </ns3:TrackPointExtension>
        </extensions>
      </trkpt>
      <trkpt lat="43.7786180712282657623291015625" lon="1.56695681624114513397216796875">
        <ele>132.399993896484375</ele>
        <time>2026-08-13T07:06:16.000Z</time>
        <extensions>
          <ns3:TrackPointExtension>
            <ns3:hr>70</ns3:hr>
            <ns3:cad>0</ns3:cad>
          </ns3:TrackPointExtension>
        </extensions>
      </trkpt>
      <trkpt lat="43.77861815504729747772216796875" lon="1.56695681624114513397216796875">
        <ele>132.399993896484375</ele>
        <time>2026-08-13T07:06:17.000Z</time>
        <extensions>
          <ns3:TrackPointExtension>
            <ns3:hr>69</ns3:hr>
            <ns3:cad>0</ns3:cad>
          </ns3:TrackPointExtension>
        </extensions>
      </trkpt>
      <trkpt lat="43.77861815504729747772216796875" lon="1.56695681624114513397216796875">
        <ele>132.1999969482421875</ele>
        <time>2026-08-13T07:06:18.000Z</time>
        <extensions>
          <ns3:TrackPointExtension>
            <ns3:hr>69</ns3:hr>
            <ns3:cad>0</ns3:cad>
          </ns3:TrackPointExtension>
        </extensions>
      </trkpt>
      <trkpt lat="43.77861815504729747772216796875" lon="1.56695681624114513397216796875">
        <ele>132.1999969482421875</ele>
        <time>2026-08-13T07:06:19.000Z</time>
        <extensions>
          <ns3:TrackPointExtension>
            <ns3:hr>69</ns3:hr>
            <ns3:cad>0</ns3:cad>
          </ns3:TrackPointExtension>
        </extensions>
      </trkpt>
      <trkpt lat="43.77861815504729747772216796875" lon="1.56695681624114513397216796875">
        <ele>132.1999969482421875</ele>
        <time>2026-08-13T07:06:20.000Z</time>
        <extensions>
          <ns3:TrackPointExtension>
            <ns3:hr>69</ns3:hr>
            <ns3:cad>0</ns3:cad>
          </ns3:TrackPointExtension>
        </extensions>
      </trkpt>
      <trkpt lat="43.77861815504729747772216796875" lon="1.56695681624114513397216796875">
        <ele>132.1999969482421875</ele>
        <time>2026-08-13T07:06:21.000Z</time>
        <extensions>
          <ns3:TrackPointExtension>
            <ns3:hr>68</ns3:hr>
            <ns3:cad>0</ns3:cad>
          </ns3:TrackPointExtension>
        </extensions>
      </trkpt>
      <trkpt lat="43.77861815504729747772216796875" lon="1.56695681624114513397216796875">
        <ele>132</ele>
        <time>2026-08-13T07:06:22.000Z</time>
        <extensions>
          <ns3:TrackPointExtension>
            <ns3:hr>68</ns3:hr>
            <ns3:cad>0</ns3:cad>
          </ns3:TrackPointExtension>
        </extensions>
      </trkpt>
      <trkpt lat="43.77861815504729747772216796875" lon="1.56695681624114513397216796875">
        <ele>132</ele>
        <time>2026-08-13T07:06:23.000Z</time>
        <extensions>
          <ns3:TrackPointExtension>
            <ns3:hr>69</ns3:hr>
            <ns3:cad>0</ns3:cad>
          </ns3:TrackPointExtension>
        </extensions>
      </trkpt>
      <trkpt lat="43.77861815504729747772216796875" lon="1.56695681624114513397216796875">
        <ele>132</ele>
        <time>2026-08-13T07:06:24.000Z</time>
        <extensions>
          <ns3:TrackPointExtension>
            <ns3:hr>69</ns3:hr>
            <ns3:cad>0</ns3:cad>
          </ns3:TrackPointExtension>
        </extensions>
      </trkpt>
      <trkpt lat="43.77861815504729747772216796875" lon="1.56695681624114513397216796875">
        <ele>132</ele>
        <time>2026-08-13T07:06:25.000Z</time>
        <extensions>
          <ns3:TrackPointExtension>
            <ns3:hr>69</ns3:hr>
            <ns3:cad>0</ns3:cad>
          </ns3:TrackPointExtension>
        </extensions>
      </trkpt>
      <trkpt lat="43.77861815504729747772216796875" lon="1.56695681624114513397216796875">
        <ele>132.1999969482421875</ele>
        <time>2026-08-13T07:06:26.000Z</time>
        <extensions>
          <ns3:TrackPointExtension>
            <ns3:hr>68</ns3:hr>
            <ns3:cad>0</ns3:cad>
          </ns3:TrackPointExtension>
        </extensions>
      </trkpt>
      <trkpt lat="43.77861815504729747772216796875" lon="1.56695681624114513397216796875">
        <ele>132.1999969482421875</ele>
        <time>2026-08-13T07:06:27.000Z</time>
        <extensions>
          <ns3:TrackPointExtension>
            <ns3:hr>67</ns3:hr>
            <ns3:cad>0</ns3:cad>
          </ns3:TrackPointExtension>
        </extensions>
      </trkpt>
      <trkpt lat="43.77861815504729747772216796875" lon="1.56695681624114513397216796875">
        <ele>132.1999969482421875</ele>
        <time>2026-08-13T07:06:28.000Z</time>
        <extensions>
          <ns3:TrackPointExtension>
            <ns3:hr>64</ns3:hr>
            <ns3:cad>0</ns3:cad>
          </ns3:TrackPointExtension>
        </extensions>
      </trkpt>
      <trkpt lat="43.77861815504729747772216796875" lon="1.56695681624114513397216796875">
        <ele>132.1999969482421875</ele>
        <time>2026-08-13T07:06:29.000Z</time>
        <extensions>
          <ns3:TrackPointExtension>
            <ns3:hr>63</ns3:hr>
            <ns3:cad>0</ns3:cad>
          </ns3:TrackPointExtension>
        </extensions>
      </trkpt>
      <trkpt lat="43.77861815504729747772216796875" lon="1.56695681624114513397216796875">
        <ele>132.1999969482421875</ele>
        <time>2026-08-13T07:06:30.000Z</time>
        <extensions>
          <ns3:TrackPointExtension>
            <ns3:hr>62</ns3:hr>
            <ns3:cad>0</ns3:cad>
          </ns3:TrackPointExtension>
        </extensions>
      </trkpt>
      <trkpt lat="43.77861815504729747772216796875" lon="1.56695681624114513397216796875">
        <ele>132.1999969482421875</ele>
        <time>2026-08-13T07:06:31.000Z</time>
        <extensions>
          <ns3:TrackPointExtension>
            <ns3:hr>61</ns3:hr>
            <ns3:cad>0</ns3:cad>
          </ns3:TrackPointExtension>
        </extensions>
      </trkpt>
      <trkpt lat="43.77861815504729747772216796875" lon="1.56695681624114513397216796875">
        <ele>132.1999969482421875</ele>
        <time>2026-08-13T07:06:32.000Z</time>
        <extensions>
          <ns3:TrackPointExtension>
            <ns3:hr>61</ns3:hr>
            <ns3:cad>0</ns3:cad>
          </ns3:TrackPointExtension>
        </extensions>
      </trkpt>
      <trkpt lat="43.77861815504729747772216796875" lon="1.56695681624114513397216796875">
        <ele>132.1999969482421875</ele>
        <time>2026-08-13T07:06:33.000Z</time>
        <extensions>
          <ns3:TrackPointExtension>
            <ns3:hr>61</ns3:hr>
            <ns3:cad>0</ns3:cad>
          </ns3:TrackPointExtension>
        </extensions>
      </trkpt>
      <trkpt lat="43.77861815504729747772216796875" lon="1.56695681624114513397216796875">
        <ele>132.1999969482421875</ele>
        <time>2026-08-13T07:06:34.000Z</time>
        <extensions>
          <ns3:TrackPointExtension>
            <ns3:hr>61</ns3:hr>
            <ns3:cad>0</ns3:cad>
          </ns3:TrackPointExtension>
        </extensions>
      </trkpt>
      <trkpt lat="43.77861815504729747772216796875" lon="1.56695681624114513397216796875">
        <ele>132.1999969482421875</ele>
        <time>2026-08-13T07:06:35.000Z</time>
        <extensions>
          <ns3:TrackPointExtension>
            <ns3:hr>62</ns3:hr>
            <ns3:cad>0</ns3:cad>
          </ns3:TrackPointExtension>
        </extensions>
      </trkpt>
      <trkpt lat="43.77861815504729747772216796875" lon="1.56695681624114513397216796875">
        <ele>132.1999969482421875</ele>
        <time>2026-08-13T07:06:36.000Z</time>
        <extensions>
          <ns3:TrackPointExtension>
            <ns3:hr>62</ns3:hr>
            <ns3:cad>0</ns3:cad>
          </ns3:TrackPointExtension>
        </extensions>
      </trkpt>
      <trkpt lat="43.77861815504729747772216796875" lon="1.56695681624114513397216796875">
        <ele>132.1999969482421875</ele>
        <time>2026-08-13T07:06:37.000Z</time>
        <extensions>
          <ns3:TrackPointExtension>
            <ns3:hr>65</ns3:hr>
            <ns3:cad>0</ns3:cad>
          </ns3:TrackPointExtension>
        </extensions>
      </trkpt>
      <trkpt lat="43.77861815504729747772216796875" lon="1.56695681624114513397216796875">
        <ele>132.1999969482421875</ele>
        <time>2026-08-13T07:06:38.000Z</time>
        <extensions>
          <ns3:TrackPointExtension>
            <ns3:hr>67</ns3:hr>
            <ns3:cad>0</ns3:cad>
          </ns3:TrackPointExtension>
        </extensions>
      </trkpt>
      <trkpt lat="43.77861815504729747772216796875" lon="1.56695681624114513397216796875">
        <ele>132.1999969482421875</ele>
        <time>2026-08-13T07:06:39.000Z</time>
        <extensions>
          <ns3:TrackPointExtension>
            <ns3:hr>68</ns3:hr>
            <ns3:cad>0</ns3:cad>
          </ns3:TrackPointExtension>
        </extensions>
      </trkpt>
      <trkpt lat="43.77861815504729747772216796875" lon="1.56695681624114513397216796875">
        <ele>132.1999969482421875</ele>
        <time>2026-08-13T07:06:40.000Z</time>
        <extensions>
          <ns3:TrackPointExtension>
            <ns3:hr>67</ns3:hr>
            <ns3:cad>0</ns3:cad>
          </ns3:TrackPointExtension>
        </extensions>
      </trkpt>
      <trkpt lat="43.77861815504729747772216796875" lon="1.56695681624114513397216796875">
        <ele>132.1999969482421875</ele>
        <time>2026-08-13T07:06:41.000Z</time>
        <extensions>
          <ns3:TrackPointExtension>
            <ns3:hr>66</ns3:hr>
            <ns3:cad>0</ns3:cad>
          </ns3:TrackPointExtension>
        </extensions>
      </trkpt>
      <trkpt lat="43.77861815504729747772216796875" lon="1.56695681624114513397216796875">
        <ele>132.1999969482421875</ele>
        <time>2026-08-13T07:06:42.000Z</time>
        <extensions>
          <ns3:TrackPointExtension>
            <ns3:hr>65</ns3:hr>
            <ns3:cad>0</ns3:cad>
          </ns3:TrackPointExtension>
        </extensions>
      </trkpt>
      <trkpt lat="43.77861815504729747772216796875" lon="1.56695681624114513397216796875">
        <ele>132.1999969482421875</ele>
        <time>2026-08-13T07:06:43.000Z</time>
        <extensions>
          <ns3:TrackPointExtension>
            <ns3:hr>65</ns3:hr>
            <ns3:cad>0</ns3:cad>
          </ns3:TrackPointExtension>
        </extensions>
      </trkpt>
      <trkpt lat="43.77861815504729747772216796875" lon="1.56695681624114513397216796875">
        <ele>132.1999969482421875</ele>
        <time>2026-08-13T07:06:44.000Z</time>
        <extensions>
          <ns3:TrackPointExtension>
            <ns3:hr>65</ns3:hr>
            <ns3:cad>0</ns3:cad>
          </ns3:TrackPointExtension>
        </extensions>
      </trkpt>
      <trkpt lat="43.77861815504729747772216796875" lon="1.56695681624114513397216796875">
        <ele>132.1999969482421875</ele>
        <time>2026-08-13T07:06:45.000Z</time>
        <extensions>
          <ns3:TrackPointExtension>
            <ns3:hr>64</ns3:hr>
            <ns3:cad>0</ns3:cad>
          </ns3:TrackPointExtension>
        </extensions>
      </trkpt>
      <trkpt lat="43.77861815504729747772216796875" lon="1.56695681624114513397216796875">
        <ele>132.1999969482421875</ele>
        <time>2026-08-13T07:06:46.000Z</time>
        <extensions>
          <ns3:TrackPointExtension>
            <ns3:hr>63</ns3:hr>
            <ns3:cad>0</ns3:cad>
          </ns3:TrackPointExtension>
        </extensions>
      </trkpt>
      <trkpt lat="43.77861815504729747772216796875" lon="1.56695681624114513397216796875">
        <ele>132.1999969482421875</ele>
        <time>2026-08-13T07:06:47.000Z</time>
        <extensions>
          <ns3:TrackPointExtension>
            <ns3:hr>61</ns3:hr>
            <ns3:cad>0</ns3:cad>
          </ns3:TrackPointExtension>
        </extensions>
      </trkpt>
      <trkpt lat="43.77861815504729747772216796875" lon="1.56695681624114513397216796875">
        <ele>132.1999969482421875</ele>
        <time>2026-08-13T07:06:48.000Z</time>
        <extensions>
          <ns3:TrackPointExtension>
            <ns3:hr>61</ns3:hr>
            <ns3:cad>0</ns3:cad>
          </ns3:TrackPointExtension>
        </extensions>
      </trkpt>
      <trkpt lat="43.77861815504729747772216796875" lon="1.56695681624114513397216796875">
        <ele>132.1999969482421875</ele>
        <time>2026-08-13T07:06:49.000Z</time>
        <extensions>
          <ns3:TrackPointExtension>
            <ns3:hr>60</ns3:hr>
            <ns3:cad>0</ns3:cad>
          </ns3:TrackPointExtension>
        </extensions>
      </trkpt>
      <trkpt lat="43.77861815504729747772216796875" lon="1.56695681624114513397216796875">
        <ele>132.1999969482421875</ele>
        <time>2026-08-13T07:06:50.000Z</time>
        <extensions>
          <ns3:TrackPointExtension>
            <ns3:hr>60</ns3:hr>
            <ns3:cad>0</ns3:cad>
          </ns3:TrackPointExtension>
        </extensions>
      </trkpt>
      <trkpt lat="43.77861815504729747772216796875" lon="1.56695681624114513397216796875">
        <ele>132.1999969482421875</ele>
        <time>2026-08-13T07:06:51.000Z</time>
        <extensions>
          <ns3:TrackPointExtension>
            <ns3:hr>60</ns3:hr>
            <ns3:cad>0</ns3:cad>
          </ns3:TrackPointExtension>
        </extensions>
      </trkpt>
      <trkpt lat="43.77861815504729747772216796875" lon="1.56695681624114513397216796875">
        <ele>132.1999969482421875</ele>
        <time>2026-08-13T07:06:52.000Z</time>
        <extensions>
          <ns3:TrackPointExtension>
            <ns3:hr>60</ns3:hr>
            <ns3:cad>0</ns3:cad>
          </ns3:TrackPointExtension>
        </extensions>
      </trkpt>
      <trkpt lat="43.77861815504729747772216796875" lon="1.56695681624114513397216796875">
        <ele>132.1999969482421875</ele>
        <time>2026-08-13T07:06:53.000Z</time>
        <extensions>
          <ns3:TrackPointExtension>
            <ns3:hr>60</ns3:hr>
            <ns3:cad>0</ns3:cad>
          </ns3:TrackPointExtension>
        </extensions>
      </trkpt>
      <trkpt lat="43.77861815504729747772216796875" lon="1.56695681624114513397216796875">
        <ele>132.1999969482421875</ele>
        <time>2026-08-13T07:06:54.000Z</time>
        <extensions>
          <ns3:TrackPointExtension>
            <ns3:hr>60</ns3:hr>
            <ns3:cad>0</ns3:cad>
          </ns3:TrackPointExtension>
        </extensions>
      </trkpt>
      <trkpt lat="43.77861815504729747772216796875" lon="1.56695681624114513397216796875">
        <ele>132.1999969482421875</ele>
        <time>2026-08-13T07:06:55.000Z</time>
        <extensions>
          <ns3:TrackPointExtension>
            <ns3:hr>60</ns3:hr>
            <ns3:cad>0</ns3:cad>
          </ns3:TrackPointExtension>
        </extensions>
      </trkpt>
      <trkpt lat="43.77861815504729747772216796875" lon="1.56695681624114513397216796875">
        <ele>132.1999969482421875</ele>
        <time>2026-08-13T07:06:56.000Z</time>
        <extensions>
          <ns3:TrackPointExtension>
            <ns3:hr>60</ns3:hr>
            <ns3:cad>0</ns3:cad>
          </ns3:TrackPointExtension>
        </extensions>
      </trkpt>
      <trkpt lat="43.77861815504729747772216796875" lon="1.56695681624114513397216796875">
        <ele>132.1999969482421875</ele>
        <time>2026-08-13T07:06:57.000Z</time>
        <extensions>
          <ns3:TrackPointExtension>
            <ns3:hr>60</ns3:hr>
            <ns3:cad>0</ns3:cad>
          </ns3:TrackPointExtension>
        </extensions>
      </trkpt>
      <trkpt lat="43.77861815504729747772216796875" lon="1.56695681624114513397216796875">
        <ele>132.1999969482421875</ele>
        <time>2026-08-13T07:06:58.000Z</time>
        <extensions>
          <ns3:TrackPointExtension>
            <ns3:hr>60</ns3:hr>
            <ns3:cad>0</ns3:cad>
          </ns3:TrackPointExtension>
        </extensions>
      </trkpt>
      <trkpt lat="43.77861815504729747772216796875" lon="1.56695681624114513397216796875">
        <ele>132.1999969482421875</ele>
        <time>2026-08-13T07:06:59.000Z</time>
        <extensions>
          <ns3:TrackPointExtension>
            <ns3:hr>60</ns3:hr>
            <ns3:cad>0</ns3:cad>
          </ns3:TrackPointExtension>
        </extensions>
      </trkpt>
      <trkpt lat="43.77861815504729747772216796875" lon="1.56695681624114513397216796875">
        <ele>132.1999969482421875</ele>
        <time>2026-08-13T07:07:00.000Z</time>
        <extensions>
          <ns3:TrackPointExtension>
            <ns3:hr>60</ns3:hr>
            <ns3:cad>0</ns3:cad>
          </ns3:TrackPointExtension>
        </extensions>
      </trkpt>
      <trkpt lat="43.77861815504729747772216796875" lon="1.56695681624114513397216796875">
        <ele>132.399993896484375</ele>
        <time>2026-08-13T07:07:01.000Z</time>
        <extensions>
          <ns3:TrackPointExtension>
            <ns3:hr>59</ns3:hr>
            <ns3:cad>0</ns3:cad>
          </ns3:TrackPointExtension>
        </extensions>
      </trkpt>
      <trkpt lat="43.77861815504729747772216796875" lon="1.56695681624114513397216796875">
        <ele>132.399993896484375</ele>
        <time>2026-08-13T07:07:02.000Z</time>
        <extensions>
          <ns3:TrackPointExtension>
            <ns3:hr>60</ns3:hr>
            <ns3:cad>0</ns3:cad>
          </ns3:TrackPointExtension>
        </extensions>
      </trkpt>
      <trkpt lat="43.77861815504729747772216796875" lon="1.56695681624114513397216796875">
        <ele>132.399993896484375</ele>
        <time>2026-08-13T07:07:03.000Z</time>
        <extensions>
          <ns3:TrackPointExtension>
            <ns3:hr>60</ns3:hr>
            <ns3:cad>0</ns3:cad>
          </ns3:TrackPointExtension>
        </extensions>
      </trkpt>
      <trkpt lat="43.77861815504729747772216796875" lon="1.56695681624114513397216796875">
        <ele>132.399993896484375</ele>
        <time>2026-08-13T07:07:04.000Z</time>
        <extensions>
          <ns3:TrackPointExtension>
            <ns3:hr>60</ns3:hr>
            <ns3:cad>0</ns3:cad>
          </ns3:TrackPointExtension>
        </extensions>
      </trkpt>
      <trkpt lat="43.77861815504729747772216796875" lon="1.56695681624114513397216796875">
        <ele>132.399993896484375</ele>
        <time>2026-08-13T07:07:05.000Z</time>
        <extensions>
          <ns3:TrackPointExtension>
            <ns3:hr>60</ns3:hr>
            <ns3:cad>0</ns3:cad>
          </ns3:TrackPointExtension>
        </extensions>
      </trkpt>
      <trkpt lat="43.77861815504729747772216796875" lon="1.56695681624114513397216796875">
        <ele>132.399993896484375</ele>
        <time>2026-08-13T07:07:06.000Z</time>
        <extensions>
          <ns3:TrackPointExtension>
            <ns3:hr>60</ns3:hr>
            <ns3:cad>0</ns3:cad>
          </ns3:TrackPointExtension>
        </extensions>
      </trkpt>
      <trkpt lat="43.77861815504729747772216796875" lon="1.56695681624114513397216796875">
        <ele>132.399993896484375</ele>
        <time>2026-08-13T07:07:07.000Z</time>
        <extensions>
          <ns3:TrackPointExtension>
            <ns3:hr>60</ns3:hr>
            <ns3:cad>0</ns3:cad>
          </ns3:TrackPointExtension>
        </extensions>
      </trkpt>
      <trkpt lat="43.77861815504729747772216796875" lon="1.56695681624114513397216796875">
        <ele>132.399993896484375</ele>
        <time>2026-08-13T07:07:08.000Z</time>
        <extensions>
          <ns3:TrackPointExtension>
            <ns3:hr>60</ns3:hr>
            <ns3:cad>0</ns3:cad>
          </ns3:TrackPointExtension>
        </extensions>
      </trkpt>
      <trkpt lat="43.77861815504729747772216796875" lon="1.56695681624114513397216796875">
        <ele>132.399993896484375</ele>
        <time>2026-08-13T07:07:09.000Z</time>
        <extensions>
          <ns3:TrackPointExtension>
            <ns3:hr>60</ns3:hr>
            <ns3:cad>0</ns3:cad>
          </ns3:TrackPointExtension>
        </extensions>
      </trkpt>
      <trkpt lat="43.77861815504729747772216796875" lon="1.56695681624114513397216796875">
        <ele>132.399993896484375</ele>
        <time>2026-08-13T07:07:10.000Z</time>
        <extensions>
          <ns3:TrackPointExtension>
            <ns3:hr>60</ns3:hr>
            <ns3:cad>0</ns3:cad>
          </ns3:TrackPointExtension>
        </extensions>
      </trkpt>
      <trkpt lat="43.77861815504729747772216796875" lon="1.56695681624114513397216796875">
        <ele>132.399993896484375</ele>
        <time>2026-08-13T07:07:11.000Z</time>
        <extensions>
          <ns3:TrackPointExtension>
            <ns3:hr>60</ns3:hr>
            <ns3:cad>0</ns3:cad>
          </ns3:TrackPointExtension>
        </extensions>
      </trkpt>
      <trkpt lat="43.77861815504729747772216796875" lon="1.56695681624114513397216796875">
        <ele>132.399993896484375</ele>
        <time>2026-08-13T07:07:12.000Z</time>
        <extensions>
          <ns3:TrackPointExtension>
            <ns3:hr>60</ns3:hr>
            <ns3:cad>0</ns3:cad>
          </ns3:TrackPointExtension>
        </extensions>
      </trkpt>
      <trkpt lat="43.77861815504729747772216796875" lon="1.56695681624114513397216796875">
        <ele>132.399993896484375</ele>
        <time>2026-08-13T07:07:13.000Z</time>
        <extensions>
          <ns3:TrackPointExtension>
            <ns3:hr>60</ns3:hr>
            <ns3:cad>0</ns3:cad>
          </ns3:TrackPointExtension>
        </extensions>
      </trkpt>
      <trkpt lat="43.77861815504729747772216796875" lon="1.56695681624114513397216796875">
        <ele>132.1999969482421875</ele>
        <time>2026-08-13T07:07:14.000Z</time>
        <extensions>
          <ns3:TrackPointExtension>
            <ns3:hr>60</ns3:hr>
            <ns3:cad>0</ns3:cad>
          </ns3:TrackPointExtension>
        </extensions>
      </trkpt>
      <trkpt lat="43.77861815504729747772216796875" lon="1.56695681624114513397216796875">
        <ele>132.1999969482421875</ele>
        <time>2026-08-13T07:07:15.000Z</time>
        <extensions>
          <ns3:TrackPointExtension>
            <ns3:hr>60</ns3:hr>
            <ns3:cad>0</ns3:cad>
          </ns3:TrackPointExtension>
        </extensions>
      </trkpt>
      <trkpt lat="43.77861815504729747772216796875" lon="1.56695681624114513397216796875">
        <ele>132.399993896484375</ele>
        <time>2026-08-13T07:07:16.000Z</time>
        <extensions>
          <ns3:TrackPointExtension>
            <ns3:hr>60</ns3:hr>
            <ns3:cad>0</ns3:cad>
          </ns3:TrackPointExtension>
        </extensions>
      </trkpt>
      <trkpt lat="43.77861815504729747772216796875" lon="1.56695681624114513397216796875">
        <ele>132.399993896484375</ele>
        <time>2026-08-13T07:07:17.000Z</time>
        <extensions>
          <ns3:TrackPointExtension>
            <ns3:hr>60</ns3:hr>
            <ns3:cad>0</ns3:cad>
          </ns3:TrackPointExtension>
        </extensions>
      </trkpt>
      <trkpt lat="43.77861815504729747772216796875" lon="1.56695681624114513397216796875">
        <ele>132.399993896484375</ele>
        <time>2026-08-13T07:07:18.000Z</time>
        <extensions>
          <ns3:TrackPointExtension>
            <ns3:hr>60</ns3:hr>
            <ns3:cad>0</ns3:cad>
          </ns3:TrackPointExtension>
        </extensions>
      </trkpt>
      <trkpt lat="43.77861815504729747772216796875" lon="1.56695681624114513397216796875">
        <ele>132.399993896484375</ele>
        <time>2026-08-13T07:07:19.000Z</time>
        <extensions>
          <ns3:TrackPointExtension>
            <ns3:hr>60</ns3:hr>
            <ns3:cad>0</ns3:cad>
          </ns3:TrackPointExtension>
        </extensions>
      </trkpt>
      <trkpt lat="43.77861815504729747772216796875" lon="1.56695681624114513397216796875">
        <ele>132.399993896484375</ele>
        <time>2026-08-13T07:07:20.000Z</time>
        <extensions>
          <ns3:TrackPointExtension>
            <ns3:hr>60</ns3:hr>
            <ns3:cad>0</ns3:cad>
          </ns3:TrackPointExtension>
        </extensions>
      </trkpt>
      <trkpt lat="43.77861815504729747772216796875" lon="1.56695681624114513397216796875">
        <ele>132.399993896484375</ele>
        <time>2026-08-13T07:07:21.000Z</time>
        <extensions>
          <ns3:TrackPointExtension>
            <ns3:hr>60</ns3:hr>
            <ns3:cad>0</ns3:cad>
          </ns3:TrackPointExtension>
        </extensions>
      </trkpt>
      <trkpt lat="43.77861815504729747772216796875" lon="1.56695681624114513397216796875">
        <ele>132.399993896484375</ele>
        <time>2026-08-13T07:07:22.000Z</time>
        <extensions>
          <ns3:TrackPointExtension>
            <ns3:hr>60</ns3:hr>
            <ns3:cad>0</ns3:cad>
          </ns3:TrackPointExtension>
        </extensions>
      </trkpt>
      <trkpt lat="43.77861547283828258514404296875" lon="1.5669533796608448028564453125">
        <ele>132.399993896484375</ele>
        <time>2026-08-13T07:07:23.000Z</time>
        <extensions>
          <ns3:TrackPointExtension>
            <ns3:hr>60</ns3:hr>
            <ns3:cad>0</ns3:cad>
          </ns3:TrackPointExtension>
        </extensions>
      </trkpt>
      <trkpt lat="43.77861983142793178558349609375" lon="1.56695245765149593353271484375">
        <ele>132.399993896484375</ele>
        <time>2026-08-13T07:07:24.000Z</time>
        <extensions>
          <ns3:TrackPointExtension>
            <ns3:hr>60</ns3:hr>
            <ns3:cad>0</ns3:cad>
          </ns3:TrackPointExtension>
        </extensions>
      </trkpt>
      <trkpt lat="43.7786257825791835784912109375" lon="1.566954888403415679931640625">
        <ele>132.399993896484375</ele>
        <time>2026-08-13T07:07:25.000Z</time>
        <extensions>
          <ns3:TrackPointExtension>
            <ns3:hr>60</ns3:hr>
            <ns3:cad>0</ns3:cad>
          </ns3:TrackPointExtension>
        </extensions>
      </trkpt>
      <trkpt lat="43.7786334939301013946533203125" lon="1.5669532120227813720703125">
        <ele>132.399993896484375</ele>
        <time>2026-08-13T07:07:26.000Z</time>
        <extensions>
          <ns3:TrackPointExtension>
            <ns3:hr>60</ns3:hr>
            <ns3:cad>0</ns3:cad>
          </ns3:TrackPointExtension>
        </extensions>
      </trkpt>
      <trkpt lat="43.7786400318145751953125" lon="1.56695631332695484161376953125">
        <ele>132.1999969482421875</ele>
        <time>2026-08-13T07:07:27.000Z</time>
        <extensions>
          <ns3:TrackPointExtension>
            <ns3:hr>60</ns3:hr>
            <ns3:cad>0</ns3:cad>
          </ns3:TrackPointExtension>
        </extensions>
      </trkpt>
      <trkpt lat="43.77864472568035125732421875" lon="1.5669610910117626190185546875">
        <ele>132.1999969482421875</ele>
        <time>2026-08-13T07:07:28.000Z</time>
        <extensions>
          <ns3:TrackPointExtension>
            <ns3:hr>60</ns3:hr>
            <ns3:cad>0</ns3:cad>
          </ns3:TrackPointExtension>
        </extensions>
      </trkpt>
      <trkpt lat="43.77865268848836421966552734375" lon="1.5669641084969043731689453125">
        <ele>132.1999969482421875</ele>
        <time>2026-08-13T07:07:29.000Z</time>
        <extensions>
          <ns3:TrackPointExtension>
            <ns3:hr>60</ns3:hr>
            <ns3:cad>0</ns3:cad>
          </ns3:TrackPointExtension>
        </extensions>
      </trkpt>
      <trkpt lat="43.7786576338112354278564453125" lon="1.5669694729149341583251953125">
        <ele>132.1999969482421875</ele>
        <time>2026-08-13T07:07:30.000Z</time>
        <extensions>
          <ns3:TrackPointExtension>
            <ns3:hr>61</ns3:hr>
            <ns3:cad>0</ns3:cad>
          </ns3:TrackPointExtension>
        </extensions>
      </trkpt>
      <trkpt lat="43.77866140566766262054443359375" lon="1.56697123311460018157958984375">
        <ele>132.1999969482421875</ele>
        <time>2026-08-13T07:07:31.000Z</time>
        <extensions>
          <ns3:TrackPointExtension>
            <ns3:hr>62</ns3:hr>
            <ns3:cad>0</ns3:cad>
          </ns3:TrackPointExtension>
        </extensions>
      </trkpt>
      <trkpt lat="43.778660483658313751220703125" lon="1.5669731609523296356201171875">
        <ele>132.1999969482421875</ele>
        <time>2026-08-13T07:07:32.000Z</time>
        <extensions>
          <ns3:TrackPointExtension>
            <ns3:hr>62</ns3:hr>
            <ns3:cad>0</ns3:cad>
          </ns3:TrackPointExtension>
        </extensions>
      </trkpt>
      <trkpt lat="43.77866308204829692840576171875" lon="1.5669775195419788360595703125">
        <ele>132.1999969482421875</ele>
        <time>2026-08-13T07:07:33.000Z</time>
        <extensions>
          <ns3:TrackPointExtension>
            <ns3:hr>63</ns3:hr>
            <ns3:cad>0</ns3:cad>
          </ns3:TrackPointExtension>
        </extensions>
      </trkpt>
      <trkpt lat="43.7786653451621532440185546875" lon="1.56697290949523448944091796875">
        <ele>132.1999969482421875</ele>
        <time>2026-08-13T07:07:34.000Z</time>
        <extensions>
          <ns3:TrackPointExtension>
            <ns3:hr>64</ns3:hr>
            <ns3:cad>0</ns3:cad>
          </ns3:TrackPointExtension>
        </extensions>
      </trkpt>
      <trkpt lat="43.778666518628597259521484375" lon="1.56697156839072704315185546875">
        <ele>132</ele>
        <time>2026-08-13T07:07:35.000Z</time>
        <extensions>
          <ns3:TrackPointExtension>
            <ns3:hr>69</ns3:hr>
            <ns3:cad>0</ns3:cad>
          </ns3:TrackPointExtension>
        </extensions>
      </trkpt>
      <trkpt lat="43.7786703743040561676025390625" lon="1.56697307713329792022705078125">
        <ele>132</ele>
        <time>2026-08-13T07:07:36.000Z</time>
        <extensions>
          <ns3:TrackPointExtension>
            <ns3:hr>70</ns3:hr>
            <ns3:cad>0</ns3:cad>
          </ns3:TrackPointExtension>
        </extensions>
      </trkpt>
      <trkpt lat="43.77867816947400569915771484375" lon="1.56697441823780536651611328125">
        <ele>132</ele>
        <time>2026-08-13T07:07:37.000Z</time>
        <extensions>
          <ns3:TrackPointExtension>
            <ns3:hr>70</ns3:hr>
            <ns3:cad>0</ns3:cad>
          </ns3:TrackPointExtension>
        </extensions>
      </trkpt>
      <trkpt lat="43.77868051640689373016357421875" lon="1.566977687180042266845703125">
        <ele>132</ele>
        <time>2026-08-13T07:07:38.000Z</time>
        <extensions>
          <ns3:TrackPointExtension>
            <ns3:hr>71</ns3:hr>
            <ns3:cad>0</ns3:cad>
          </ns3:TrackPointExtension>
        </extensions>
      </trkpt>
      <trkpt lat="43.778686635196208953857421875" lon="1.566976346075534820556640625">
        <ele>132</ele>
        <time>2026-08-13T07:07:39.000Z</time>
        <extensions>
          <ns3:TrackPointExtension>
            <ns3:hr>71</ns3:hr>
            <ns3:cad>0</ns3:cad>
          </ns3:TrackPointExtension>
        </extensions>
      </trkpt>
      <trkpt lat="43.7786888144910335540771484375" lon="1.56698263250291347503662109375">
        <ele>132</ele>
        <time>2026-08-13T07:07:40.000Z</time>
        <extensions>
          <ns3:TrackPointExtension>
            <ns3:hr>71</ns3:hr>
            <ns3:cad>0</ns3:cad>
          </ns3:TrackPointExtension>
        </extensions>
      </trkpt>
      <trkpt lat="43.77869275398552417755126953125" lon="1.56698263250291347503662109375">
        <ele>132</ele>
        <time>2026-08-13T07:07:41.000Z</time>
        <extensions>
          <ns3:TrackPointExtension>
            <ns3:hr>71</ns3:hr>
            <ns3:cad>0</ns3:cad>
          </ns3:TrackPointExtension>
        </extensions>
      </trkpt>
      <trkpt lat="43.77869409509003162384033203125" lon="1.56698933802545070648193359375">
        <ele>132.1999969482421875</ele>
        <time>2026-08-13T07:07:42.000Z</time>
        <extensions>
          <ns3:TrackPointExtension>
            <ns3:hr>71</ns3:hr>
            <ns3:cad>0</ns3:cad>
          </ns3:TrackPointExtension>
        </extensions>
      </trkpt>
      <trkpt lat="43.778700046241283416748046875" lon="1.5669899247586727142333984375">
        <ele>132.1999969482421875</ele>
        <time>2026-08-13T07:07:43.000Z</time>
        <extensions>
          <ns3:TrackPointExtension>
            <ns3:hr>71</ns3:hr>
            <ns3:cad>0</ns3:cad>
          </ns3:TrackPointExtension>
        </extensions>
      </trkpt>
      <trkpt lat="43.7787039019167423248291015625" lon="1.5669929422438144683837890625">
        <ele>132.1999969482421875</ele>
        <time>2026-08-13T07:07:44.000Z</time>
        <extensions>
          <ns3:TrackPointExtension>
            <ns3:hr>70</ns3:hr>
            <ns3:cad>0</ns3:cad>
          </ns3:TrackPointExtension>
        </extensions>
      </trkpt>
      <trkpt lat="43.77870834432542324066162109375" lon="1.566996462643146514892578125">
        <ele>132.1999969482421875</ele>
        <time>2026-08-13T07:07:45.000Z</time>
        <extensions>
          <ns3:TrackPointExtension>
            <ns3:hr>70</ns3:hr>
            <ns3:cad>0</ns3:cad>
          </ns3:TrackPointExtension>
        </extensions>
      </trkpt>
      <trkpt lat="43.7787045724689960479736328125" lon="1.56699637882411479949951171875">
        <ele>132.1999969482421875</ele>
        <time>2026-08-13T07:07:46.000Z</time>
        <extensions>
          <ns3:TrackPointExtension>
            <ns3:hr>70</ns3:hr>
            <ns3:cad>0</ns3:cad>
          </ns3:TrackPointExtension>
        </extensions>
      </trkpt>
      <trkpt lat="43.77869996242225170135498046875" lon="1.5669907629489898681640625">
        <ele>132.399993896484375</ele>
        <time>2026-08-13T07:07:47.000Z</time>
        <extensions>
          <ns3:TrackPointExtension>
            <ns3:hr>71</ns3:hr>
            <ns3:cad>0</ns3:cad>
          </ns3:TrackPointExtension>
        </extensions>
      </trkpt>
      <trkpt lat="43.7786968611180782318115234375" lon="1.566986739635467529296875">
        <ele>132.399993896484375</ele>
        <time>2026-08-13T07:07:48.000Z</time>
        <extensions>
          <ns3:TrackPointExtension>
            <ns3:hr>71</ns3:hr>
            <ns3:cad>0</ns3:cad>
          </ns3:TrackPointExtension>
        </extensions>
      </trkpt>
      <trkpt lat="43.77869493328034877777099609375" lon="1.56698497943580150604248046875">
        <ele>132.399993896484375</ele>
        <time>2026-08-13T07:07:49.000Z</time>
        <extensions>
          <ns3:TrackPointExtension>
            <ns3:hr>71</ns3:hr>
            <ns3:cad>0</ns3:cad>
          </ns3:TrackPointExtension>
        </extensions>
      </trkpt>
      <trkpt lat="43.7786950170993804931640625" lon="1.56698481179773807525634765625">
        <ele>132.399993896484375</ele>
        <time>2026-08-13T07:07:50.000Z</time>
        <extensions>
          <ns3:TrackPointExtension>
            <ns3:hr>70</ns3:hr>
            <ns3:cad>0</ns3:cad>
          </ns3:TrackPointExtension>
        </extensions>
      </trkpt>
      <trkpt lat="43.7786950170993804931640625" lon="1.56698481179773807525634765625">
        <ele>132.399993896484375</ele>
        <time>2026-08-13T07:07:51.000Z</time>
        <extensions>
          <ns3:TrackPointExtension>
            <ns3:hr>70</ns3:hr>
            <ns3:cad>0</ns3:cad>
          </ns3:TrackPointExtension>
        </extensions>
      </trkpt>
      <trkpt lat="43.7786950170993804931640625" lon="1.56698481179773807525634765625">
        <ele>132.1999969482421875</ele>
        <time>2026-08-13T07:07:52.000Z</time>
        <extensions>
          <ns3:TrackPointExtension>
            <ns3:hr>70</ns3:hr>
            <ns3:cad>0</ns3:cad>
          </ns3:TrackPointExtension>
        </extensions>
      </trkpt>
      <trkpt lat="43.7786950170993804931640625" lon="1.56698481179773807525634765625">
        <ele>132.1999969482421875</ele>
        <time>2026-08-13T07:07:53.000Z</time>
        <extensions>
          <ns3:TrackPointExtension>
            <ns3:hr>70</ns3:hr>
            <ns3:cad>0</ns3:cad>
          </ns3:TrackPointExtension>
        </extensions>
      </trkpt>
      <trkpt lat="43.7786950170993804931640625" lon="1.56698481179773807525634765625">
        <ele>132.1999969482421875</ele>
        <time>2026-08-13T07:07:54.000Z</time>
        <extensions>
          <ns3:TrackPointExtension>
            <ns3:hr>71</ns3:hr>
            <ns3:cad>0</ns3:cad>
          </ns3:TrackPointExtension>
        </extensions>
      </trkpt>
      <trkpt lat="43.7786950170993804931640625" lon="1.56698481179773807525634765625">
        <ele>132.399993896484375</ele>
        <time>2026-08-13T07:07:55.000Z</time>
        <extensions>
          <ns3:TrackPointExtension>
            <ns3:hr>70</ns3:hr>
            <ns3:cad>0</ns3:cad>
          </ns3:TrackPointExtension>
        </extensions>
      </trkpt>
      <trkpt lat="43.7786950170993804931640625" lon="1.56698481179773807525634765625">
        <ele>132.399993896484375</ele>
        <time>2026-08-13T07:07:56.000Z</time>
        <extensions>
          <ns3:TrackPointExtension>
            <ns3:hr>70</ns3:hr>
            <ns3:cad>0</ns3:cad>
          </ns3:TrackPointExtension>
        </extensions>
      </trkpt>
      <trkpt lat="43.7786950170993804931640625" lon="1.56698481179773807525634765625">
        <ele>132.600006103515625</ele>
        <time>2026-08-13T07:07:57.000Z</time>
        <extensions>
          <ns3:TrackPointExtension>
            <ns3:hr>71</ns3:hr>
            <ns3:cad>0</ns3:cad>
          </ns3:TrackPointExtension>
        </extensions>
      </trkpt>
      <trkpt lat="43.7786950170993804931640625" lon="1.56698481179773807525634765625">
        <ele>132.600006103515625</ele>
        <time>2026-08-13T07:07:58.000Z</time>
        <extensions>
          <ns3:TrackPointExtension>
            <ns3:hr>70</ns3:hr>
            <ns3:cad>0</ns3:cad>
          </ns3:TrackPointExtension>
        </extensions>
      </trkpt>
      <trkpt lat="43.7786950170993804931640625" lon="1.56698481179773807525634765625">
        <ele>132.8000030517578125</ele>
        <time>2026-08-13T07:07:59.000Z</time>
        <extensions>
          <ns3:TrackPointExtension>
            <ns3:hr>70</ns3:hr>
            <ns3:cad>0</ns3:cad>
          </ns3:TrackPointExtension>
        </extensions>
      </trkpt>
      <trkpt lat="43.7786950170993804931640625" lon="1.56698481179773807525634765625">
        <ele>132.8000030517578125</ele>
        <time>2026-08-13T07:08:00.000Z</time>
        <extensions>
          <ns3:TrackPointExtension>
            <ns3:hr>69</ns3:hr>
            <ns3:cad>0</ns3:cad>
          </ns3:TrackPointExtension>
        </extensions>
      </trkpt>
      <trkpt lat="43.7786950170993804931640625" lon="1.56698481179773807525634765625">
        <ele>132.8000030517578125</ele>
        <time>2026-08-13T07:08:01.000Z</time>
        <extensions>
          <ns3:TrackPointExtension>
            <ns3:hr>68</ns3:hr>
            <ns3:cad>0</ns3:cad>
          </ns3:TrackPointExtension>
        </extensions>
      </trkpt>
      <trkpt lat="43.7786950170993804931640625" lon="1.56698481179773807525634765625">
        <ele>132.8000030517578125</ele>
        <time>2026-08-13T07:08:02.000Z</time>
        <extensions>
          <ns3:TrackPointExtension>
            <ns3:hr>68</ns3:hr>
            <ns3:cad>0</ns3:cad>
          </ns3:TrackPointExtension>
        </extensions>
      </trkpt>
      <trkpt lat="43.7786950170993804931640625" lon="1.56698481179773807525634765625">
        <ele>132.8000030517578125</ele>
        <time>2026-08-13T07:08:03.000Z</time>
        <extensions>
          <ns3:TrackPointExtension>
            <ns3:hr>68</ns3:hr>
            <ns3:cad>0</ns3:cad>
          </ns3:TrackPointExtension>
        </extensions>
      </trkpt>
      <trkpt lat="43.7786950170993804931640625" lon="1.56698481179773807525634765625">
        <ele>132.8000030517578125</ele>
        <time>2026-08-13T07:08:04.000Z</time>
        <extensions>
          <ns3:TrackPointExtension>
            <ns3:hr>67</ns3:hr>
            <ns3:cad>0</ns3:cad>
          </ns3:TrackPointExtension>
        </extensions>
      </trkpt>
      <trkpt lat="43.7786950170993804931640625" lon="1.56698481179773807525634765625">
        <ele>133</ele>
        <time>2026-08-13T07:08:05.000Z</time>
        <extensions>
          <ns3:TrackPointExtension>
            <ns3:hr>66</ns3:hr>
            <ns3:cad>0</ns3:cad>
          </ns3:TrackPointExtension>
        </extensions>
      </trkpt>
      <trkpt lat="43.7786950170993804931640625" lon="1.56698481179773807525634765625">
        <ele>133</ele>
        <time>2026-08-13T07:08:06.000Z</time>
        <extensions>
          <ns3:TrackPointExtension>
            <ns3:hr>65</ns3:hr>
            <ns3:cad>0</ns3:cad>
          </ns3:TrackPointExtension>
        </extensions>
      </trkpt>
      <trkpt lat="43.7786950170993804931640625" lon="1.56698481179773807525634765625">
        <ele>133</ele>
        <time>2026-08-13T07:08:07.000Z</time>
        <extensions>
          <ns3:TrackPointExtension>
            <ns3:hr>65</ns3:hr>
            <ns3:cad>0</ns3:cad>
          </ns3:TrackPointExtension>
        </extensions>
      </trkpt>
      <trkpt lat="43.7786950170993804931640625" lon="1.56698481179773807525634765625">
        <ele>132.8000030517578125</ele>
        <time>2026-08-13T07:08:08.000Z</time>
        <extensions>
          <ns3:TrackPointExtension>
            <ns3:hr>64</ns3:hr>
            <ns3:cad>0</ns3:cad>
          </ns3:TrackPointExtension>
        </extensions>
      </trkpt>
      <trkpt lat="43.7786950170993804931640625" lon="1.56698481179773807525634765625">
        <ele>132.8000030517578125</ele>
        <time>2026-08-13T07:08:09.000Z</time>
        <extensions>
          <ns3:TrackPointExtension>
            <ns3:hr>64</ns3:hr>
            <ns3:cad>0</ns3:cad>
          </ns3:TrackPointExtension>
        </extensions>
      </trkpt>
      <trkpt lat="43.7786950170993804931640625" lon="1.56698481179773807525634765625">
        <ele>133</ele>
        <time>2026-08-13T07:08:10.000Z</time>
        <extensions>
          <ns3:TrackPointExtension>
            <ns3:hr>63</ns3:hr>
            <ns3:cad>0</ns3:cad>
          </ns3:TrackPointExtension>
        </extensions>
      </trkpt>
      <trkpt lat="43.7786950170993804931640625" lon="1.56698481179773807525634765625">
        <ele>133</ele>
        <time>2026-08-13T07:08:11.000Z</time>
        <extensions>
          <ns3:TrackPointExtension>
            <ns3:hr>63</ns3:hr>
            <ns3:cad>0</ns3:cad>
          </ns3:TrackPointExtension>
        </extensions>
      </trkpt>
      <trkpt lat="43.7786950170993804931640625" lon="1.56698481179773807525634765625">
        <ele>133</ele>
        <time>2026-08-13T07:08:12.000Z</time>
        <extensions>
          <ns3:TrackPointExtension>
            <ns3:hr>63</ns3:hr>
            <ns3:cad>0</ns3:cad>
          </ns3:TrackPointExtension>
        </extensions>
      </trkpt>
      <trkpt lat="43.7786950170993804931640625" lon="1.56698481179773807525634765625">
        <ele>133</ele>
        <time>2026-08-13T07:08:13.000Z</time>
        <extensions>
          <ns3:TrackPointExtension>
            <ns3:hr>63</ns3:hr>
            <ns3:cad>0</ns3:cad>
          </ns3:TrackPointExtension>
        </extensions>
      </trkpt>
      <trkpt lat="43.7786950170993804931640625" lon="1.56698481179773807525634765625">
        <ele>133</ele>
        <time>2026-08-13T07:08:14.000Z</time>
        <extensions>
          <ns3:TrackPointExtension>
            <ns3:hr>63</ns3:hr>
            <ns3:cad>0</ns3:cad>
          </ns3:TrackPointExtension>
        </extensions>
      </trkpt>
      <trkpt lat="43.7786988727748394012451171875" lon="1.56698866747319698333740234375">
        <ele>133</ele>
        <time>2026-08-13T07:08:15.000Z</time>
        <extensions>
          <ns3:TrackPointExtension>
            <ns3:hr>62</ns3:hr>
            <ns3:cad>0</ns3:cad>
          </ns3:TrackPointExtension>
        </extensions>
      </trkpt>
      <trkpt lat="43.778705410659313201904296875" lon="1.56698849983513355255126953125">
        <ele>132.8000030517578125</ele>
        <time>2026-08-13T07:08:16.000Z</time>
        <extensions>
          <ns3:TrackPointExtension>
            <ns3:hr>62</ns3:hr>
            <ns3:cad>0</ns3:cad>
          </ns3:TrackPointExtension>
        </extensions>
      </trkpt>
      <trkpt lat="43.7787119485437870025634765625" lon="1.5669916011393070220947265625">
        <ele>132.8000030517578125</ele>
        <time>2026-08-13T07:08:17.000Z</time>
        <extensions>
          <ns3:TrackPointExtension>
            <ns3:hr>63</ns3:hr>
            <ns3:cad>0</ns3:cad>
          </ns3:TrackPointExtension>
        </extensions>
      </trkpt>
      <trkpt lat="43.778721503913402557373046875" lon="1.5669969655573368072509765625">
        <ele>132.600006103515625</ele>
        <time>2026-08-13T07:08:18.000Z</time>
        <extensions>
          <ns3:TrackPointExtension>
            <ns3:hr>63</ns3:hr>
            <ns3:cad>0</ns3:cad>
          </ns3:TrackPointExtension>
        </extensions>
      </trkpt>
      <trkpt lat="43.77873080782592296600341796875" lon="1.56699906103312969207763671875">
        <ele>132.600006103515625</ele>
        <time>2026-08-13T07:08:19.000Z</time>
        <extensions>
          <ns3:TrackPointExtension>
            <ns3:hr>63</ns3:hr>
            <ns3:cad>0</ns3:cad>
          </ns3:TrackPointExtension>
        </extensions>
      </trkpt>
      <trkpt lat="43.77873566932976245880126953125" lon="1.5670066885650157928466796875">
        <ele>132.600006103515625</ele>
        <time>2026-08-13T07:08:20.000Z</time>
        <extensions>
          <ns3:TrackPointExtension>
            <ns3:hr>63</ns3:hr>
            <ns3:cad>0</ns3:cad>
          </ns3:TrackPointExtension>
        </extensions>
      </trkpt>
      <trkpt lat="43.77873952500522136688232421875" lon="1.56701733358204364776611328125">
        <ele>132.600006103515625</ele>
        <time>2026-08-13T07:08:21.000Z</time>
        <extensions>
          <ns3:TrackPointExtension>
            <ns3:hr>64</ns3:hr>
            <ns3:cad>40</ns3:cad>
          </ns3:TrackPointExtension>
        </extensions>
      </trkpt>
      <trkpt lat="43.77874053083360195159912109375" lon="1.56703191809356212615966796875">
        <ele>132.600006103515625</ele>
        <time>2026-08-13T07:08:22.000Z</time>
        <extensions>
          <ns3:TrackPointExtension>
            <ns3:hr>65</ns3:hr>
            <ns3:cad>0</ns3:cad>
          </ns3:TrackPointExtension>
        </extensions>
      </trkpt>
      <trkpt lat="43.778742291033267974853515625" lon="1.56704147346317768096923828125">
        <ele>132.600006103515625</ele>
        <time>2026-08-13T07:08:23.000Z</time>
        <extensions>
          <ns3:TrackPointExtension>
            <ns3:hr>66</ns3:hr>
            <ns3:cad>0</ns3:cad>
          </ns3:TrackPointExtension>
        </extensions>
      </trkpt>
      <trkpt lat="43.7787431292235851287841796875" lon="1.5670512802898883819580078125">
        <ele>132.600006103515625</ele>
        <time>2026-08-13T07:08:24.000Z</time>
        <extensions>
          <ns3:TrackPointExtension>
            <ns3:hr>66</ns3:hr>
            <ns3:cad>0</ns3:cad>
          </ns3:TrackPointExtension>
        </extensions>
      </trkpt>
      <trkpt lat="43.77874195575714111328125" lon="1.5670596621930599212646484375">
        <ele>132.600006103515625</ele>
        <time>2026-08-13T07:08:25.000Z</time>
        <extensions>
          <ns3:TrackPointExtension>
            <ns3:hr>67</ns3:hr>
            <ns3:cad>0</ns3:cad>
          </ns3:TrackPointExtension>
        </extensions>
      </trkpt>
      <trkpt lat="43.7787394411861896514892578125" lon="1.56707055866718292236328125">
        <ele>132.399993896484375</ele>
        <time>2026-08-13T07:08:26.000Z</time>
        <extensions>
          <ns3:TrackPointExtension>
            <ns3:hr>68</ns3:hr>
            <ns3:cad>0</ns3:cad>
          </ns3:TrackPointExtension>
        </extensions>
      </trkpt>
      <trkpt lat="43.7787401117384433746337890625" lon="1.56707785092294216156005859375">
        <ele>132.600006103515625</ele>
        <time>2026-08-13T07:08:27.000Z</time>
        <extensions>
          <ns3:TrackPointExtension>
            <ns3:hr>69</ns3:hr>
            <ns3:cad>73</ns3:cad>
          </ns3:TrackPointExtension>
        </extensions>
      </trkpt>
      <trkpt lat="43.7787381000816822052001953125" lon="1.5670854784548282623291015625">
        <ele>132.600006103515625</ele>
        <time>2026-08-13T07:08:28.000Z</time>
        <extensions>
          <ns3:TrackPointExtension>
            <ns3:hr>69</ns3:hr>
            <ns3:cad>73</ns3:cad>
          </ns3:TrackPointExtension>
        </extensions>
      </trkpt>
      <trkpt lat="43.7787352502346038818359375" lon="1.567094363272190093994140625">
        <ele>132.600006103515625</ele>
        <time>2026-08-13T07:08:29.000Z</time>
        <extensions>
          <ns3:TrackPointExtension>
            <ns3:hr>70</ns3:hr>
            <ns3:cad>73</ns3:cad>
          </ns3:TrackPointExtension>
        </extensions>
      </trkpt>
      <trkpt lat="43.77873055636882781982421875" lon="1.567102409899234771728515625">
        <ele>132.8000030517578125</ele>
        <time>2026-08-13T07:08:30.000Z</time>
        <extensions>
          <ns3:TrackPointExtension>
            <ns3:hr>70</ns3:hr>
            <ns3:cad>73</ns3:cad>
          </ns3:TrackPointExtension>
        </extensions>
      </trkpt>
      <trkpt lat="43.77872577868402004241943359375" lon="1.56710810959339141845703125">
        <ele>132.8000030517578125</ele>
        <time>2026-08-13T07:08:31.000Z</time>
        <extensions>
          <ns3:TrackPointExtension>
            <ns3:hr>70</ns3:hr>
            <ns3:cad>73</ns3:cad>
          </ns3:TrackPointExtension>
        </extensions>
      </trkpt>
      <trkpt lat="43.77871806733310222625732421875" lon="1.56711858697235584259033203125">
        <ele>133</ele>
        <time>2026-08-13T07:08:32.000Z</time>
        <extensions>
          <ns3:TrackPointExtension>
            <ns3:hr>72</ns3:hr>
            <ns3:cad>73</ns3:cad>
          </ns3:TrackPointExtension>
        </extensions>
      </trkpt>
      <trkpt lat="43.7787092663347721099853515625" lon="1.567120850086212158203125">
        <ele>133</ele>
        <time>2026-08-13T07:08:33.000Z</time>
        <extensions>
          <ns3:TrackPointExtension>
            <ns3:hr>73</ns3:hr>
            <ns3:cad>73</ns3:cad>
          </ns3:TrackPointExtension>
        </extensions>
      </trkpt>
      <trkpt lat="43.77870105206966400146484375" lon="1.5671200118958950042724609375">
        <ele>133</ele>
        <time>2026-08-13T07:08:34.000Z</time>
        <extensions>
          <ns3:TrackPointExtension>
            <ns3:hr>73</ns3:hr>
            <ns3:cad>40</ns3:cad>
          </ns3:TrackPointExtension>
        </extensions>
      </trkpt>
      <trkpt lat="43.77869543619453907012939453125" lon="1.5671206824481487274169921875">
        <ele>133</ele>
        <time>2026-08-13T07:08:35.000Z</time>
        <extensions>
          <ns3:TrackPointExtension>
            <ns3:hr>73</ns3:hr>
            <ns3:cad>0</ns3:cad>
          </ns3:TrackPointExtension>
        </extensions>
      </trkpt>
      <trkpt lat="43.77869124524295330047607421875" lon="1.56712546013295650482177734375">
        <ele>133</ele>
        <time>2026-08-13T07:08:36.000Z</time>
        <extensions>
          <ns3:TrackPointExtension>
            <ns3:hr>73</ns3:hr>
            <ns3:cad>0</ns3:cad>
          </ns3:TrackPointExtension>
        </extensions>
      </trkpt>
      <trkpt lat="43.77869023941457271575927734375" lon="1.567124538123607635498046875">
        <ele>133</ele>
        <time>2026-08-13T07:08:37.000Z</time>
        <extensions>
          <ns3:TrackPointExtension>
            <ns3:hr>73</ns3:hr>
            <ns3:cad>0</ns3:cad>
          </ns3:TrackPointExtension>
        </extensions>
      </trkpt>
      <trkpt lat="43.77868940122425556182861328125" lon="1.567123197019100189208984375">
        <ele>133</ele>
        <time>2026-08-13T07:08:38.000Z</time>
        <extensions>
          <ns3:TrackPointExtension>
            <ns3:hr>74</ns3:hr>
            <ns3:cad>0</ns3:cad>
          </ns3:TrackPointExtension>
        </extensions>
      </trkpt>
      <trkpt lat="43.778691329061985015869140625" lon="1.56712830998003482818603515625">
        <ele>133</ele>
        <time>2026-08-13T07:08:39.000Z</time>
        <extensions>
          <ns3:TrackPointExtension>
            <ns3:hr>74</ns3:hr>
            <ns3:cad>0</ns3:cad>
          </ns3:TrackPointExtension>
        </extensions>
      </trkpt>
      <trkpt lat="43.77869434654712677001953125" lon="1.56713082455098628997802734375">
        <ele>133</ele>
        <time>2026-08-13T07:08:40.000Z</time>
        <extensions>
          <ns3:TrackPointExtension>
            <ns3:hr>75</ns3:hr>
            <ns3:cad>0</ns3:cad>
          </ns3:TrackPointExtension>
        </extensions>
      </trkpt>
      <trkpt lat="43.7786955200135707855224609375" lon="1.56713535077869892120361328125">
        <ele>133</ele>
        <time>2026-08-13T07:08:41.000Z</time>
        <extensions>
          <ns3:TrackPointExtension>
            <ns3:hr>75</ns3:hr>
            <ns3:cad>0</ns3:cad>
          </ns3:TrackPointExtension>
        </extensions>
      </trkpt>
      <trkpt lat="43.77869694493710994720458984375" lon="1.5671354345977306365966796875">
        <ele>133</ele>
        <time>2026-08-13T07:08:42.000Z</time>
        <extensions>
          <ns3:TrackPointExtension>
            <ns3:hr>75</ns3:hr>
            <ns3:cad>0</ns3:cad>
          </ns3:TrackPointExtension>
        </extensions>
      </trkpt>
      <trkpt lat="43.7786976993083953857421875" lon="1.5671350993216037750244140625">
        <ele>133</ele>
        <time>2026-08-13T07:08:43.000Z</time>
        <extensions>
          <ns3:TrackPointExtension>
            <ns3:hr>75</ns3:hr>
            <ns3:cad>0</ns3:cad>
          </ns3:TrackPointExtension>
        </extensions>
      </trkpt>
      <trkpt lat="43.77869761548936367034912109375" lon="1.56713535077869892120361328125">
        <ele>133</ele>
        <time>2026-08-13T07:08:44.000Z</time>
        <extensions>
          <ns3:TrackPointExtension>
            <ns3:hr>74</ns3:hr>
            <ns3:cad>0</ns3:cad>
          </ns3:TrackPointExtension>
        </extensions>
      </trkpt>
      <trkpt lat="43.77869761548936367034912109375" lon="1.56713535077869892120361328125">
        <ele>133</ele>
        <time>2026-08-13T07:08:45.000Z</time>
        <extensions>
          <ns3:TrackPointExtension>
            <ns3:hr>73</ns3:hr>
            <ns3:cad>0</ns3:cad>
          </ns3:TrackPointExtension>
        </extensions>
      </trkpt>
      <trkpt lat="43.77869761548936367034912109375" lon="1.56713535077869892120361328125">
        <ele>133</ele>
        <time>2026-08-13T07:08:46.000Z</time>
        <extensions>
          <ns3:TrackPointExtension>
            <ns3:hr>72</ns3:hr>
            <ns3:cad>0</ns3:cad>
          </ns3:TrackPointExtension>
        </extensions>
      </trkpt>
      <trkpt lat="43.77869778312742710113525390625" lon="1.567135266959667205810546875">
        <ele>133</ele>
        <time>2026-08-13T07:08:47.000Z</time>
        <extensions>
          <ns3:TrackPointExtension>
            <ns3:hr>72</ns3:hr>
            <ns3:cad>0</ns3:cad>
          </ns3:TrackPointExtension>
        </extensions>
      </trkpt>
      <trkpt lat="43.77870096825063228607177734375" lon="1.56713895499706268310546875">
        <ele>133</ele>
        <time>2026-08-13T07:08:48.000Z</time>
        <extensions>
          <ns3:TrackPointExtension>
            <ns3:hr>72</ns3:hr>
            <ns3:cad>0</ns3:cad>
          </ns3:TrackPointExtension>
        </extensions>
      </trkpt>
      <trkpt lat="43.77870465628802776336669921875" lon="1.56713970936834812164306640625">
        <ele>133</ele>
        <time>2026-08-13T07:08:49.000Z</time>
        <extensions>
          <ns3:TrackPointExtension>
            <ns3:hr>71</ns3:hr>
            <ns3:cad>0</ns3:cad>
          </ns3:TrackPointExtension>
        </extensions>
      </trkpt>
      <trkpt lat="43.7787079252302646636962890625" lon="1.5671350993216037750244140625">
        <ele>133</ele>
        <time>2026-08-13T07:08:50.000Z</time>
        <extensions>
          <ns3:TrackPointExtension>
            <ns3:hr>72</ns3:hr>
            <ns3:cad>0</ns3:cad>
          </ns3:TrackPointExtension>
        </extensions>
      </trkpt>
      <trkpt lat="43.77871387638151645660400390625" lon="1.5671334229409694671630859375">
        <ele>132.8000030517578125</ele>
        <time>2026-08-13T07:08:51.000Z</time>
        <extensions>
          <ns3:TrackPointExtension>
            <ns3:hr>72</ns3:hr>
            <ns3:cad>0</ns3:cad>
          </ns3:TrackPointExtension>
        </extensions>
      </trkpt>
      <trkpt lat="43.7787096016108989715576171875" lon="1.56713535077869892120361328125">
        <ele>132.8000030517578125</ele>
        <time>2026-08-13T07:08:52.000Z</time>
        <extensions>
          <ns3:TrackPointExtension>
            <ns3:hr>73</ns3:hr>
            <ns3:cad>0</ns3:cad>
          </ns3:TrackPointExtension>
        </extensions>
      </trkpt>
      <trkpt lat="43.77870951779186725616455078125" lon="1.5671357698738574981689453125">
        <ele>132.8000030517578125</ele>
        <time>2026-08-13T07:08:53.000Z</time>
        <extensions>
          <ns3:TrackPointExtension>
            <ns3:hr>72</ns3:hr>
            <ns3:cad>0</ns3:cad>
          </ns3:TrackPointExtension>
        </extensions>
      </trkpt>
      <trkpt lat="43.778709433972835540771484375" lon="1.5671364404261112213134765625">
        <ele>132.8000030517578125</ele>
        <time>2026-08-13T07:08:54.000Z</time>
        <extensions>
          <ns3:TrackPointExtension>
            <ns3:hr>73</ns3:hr>
            <ns3:cad>0</ns3:cad>
          </ns3:TrackPointExtension>
        </extensions>
      </trkpt>
      <trkpt lat="43.77870909869670867919921875" lon="1.567135266959667205810546875">
        <ele>133</ele>
        <time>2026-08-13T07:08:55.000Z</time>
        <extensions>
          <ns3:TrackPointExtension>
            <ns3:hr>73</ns3:hr>
            <ns3:cad>0</ns3:cad>
          </ns3:TrackPointExtension>
        </extensions>
      </trkpt>
      <trkpt lat="43.7787082605063915252685546875" lon="1.56713199801743030548095703125">
        <ele>133</ele>
        <time>2026-08-13T07:08:56.000Z</time>
        <extensions>
          <ns3:TrackPointExtension>
            <ns3:hr>73</ns3:hr>
            <ns3:cad>0</ns3:cad>
          </ns3:TrackPointExtension>
        </extensions>
      </trkpt>
      <trkpt lat="43.77869761548936367034912109375" lon="1.56713535077869892120361328125">
        <ele>133</ele>
        <time>2026-08-13T07:08:57.000Z</time>
        <extensions>
          <ns3:TrackPointExtension>
            <ns3:hr>74</ns3:hr>
            <ns3:cad>0</ns3:cad>
          </ns3:TrackPointExtension>
        </extensions>
      </trkpt>
      <trkpt lat="43.77869761548936367034912109375" lon="1.56713535077869892120361328125">
        <ele>133.1999969482421875</ele>
        <time>2026-08-13T07:08:58.000Z</time>
        <extensions>
          <ns3:TrackPointExtension>
            <ns3:hr>74</ns3:hr>
            <ns3:cad>0</ns3:cad>
          </ns3:TrackPointExtension>
        </extensions>
      </trkpt>
      <trkpt lat="43.77869761548936367034912109375" lon="1.56713535077869892120361328125">
        <ele>133.1999969482421875</ele>
        <time>2026-08-13T07:08:59.000Z</time>
        <extensions>
          <ns3:TrackPointExtension>
            <ns3:hr>75</ns3:hr>
            <ns3:cad>0</ns3:cad>
          </ns3:TrackPointExtension>
        </extensions>
      </trkpt>
      <trkpt lat="43.77869761548936367034912109375" lon="1.56713535077869892120361328125">
        <ele>133.399993896484375</ele>
        <time>2026-08-13T07:09:00.000Z</time>
        <extensions>
          <ns3:TrackPointExtension>
            <ns3:hr>75</ns3:hr>
            <ns3:cad>0</ns3:cad>
          </ns3:TrackPointExtension>
        </extensions>
      </trkpt>
      <trkpt lat="43.77869761548936367034912109375" lon="1.56713535077869892120361328125">
        <ele>133.399993896484375</ele>
        <time>2026-08-13T07:09:01.000Z</time>
        <extensions>
          <ns3:TrackPointExtension>
            <ns3:hr>75</ns3:hr>
            <ns3:cad>0</ns3:cad>
          </ns3:TrackPointExtension>
        </extensions>
      </trkpt>
      <trkpt lat="43.77869761548936367034912109375" lon="1.56713535077869892120361328125">
        <ele>133.399993896484375</ele>
        <time>2026-08-13T07:09:02.000Z</time>
        <extensions>
          <ns3:TrackPointExtension>
            <ns3:hr>75</ns3:hr>
            <ns3:cad>0</ns3:cad>
          </ns3:TrackPointExtension>
        </extensions>
      </trkpt>
      <trkpt lat="43.77869761548936367034912109375" lon="1.56713535077869892120361328125">
        <ele>133.399993896484375</ele>
        <time>2026-08-13T07:09:03.000Z</time>
        <extensions>
          <ns3:TrackPointExtension>
            <ns3:hr>75</ns3:hr>
            <ns3:cad>0</ns3:cad>
          </ns3:TrackPointExtension>
        </extensions>
      </trkpt>
      <trkpt lat="43.77869761548936367034912109375" lon="1.56713535077869892120361328125">
        <ele>133.399993896484375</ele>
        <time>2026-08-13T07:09:04.000Z</time>
        <extensions>
          <ns3:TrackPointExtension>
            <ns3:hr>75</ns3:hr>
            <ns3:cad>0</ns3:cad>
          </ns3:TrackPointExtension>
        </extensions>
      </trkpt>
      <trkpt lat="43.77869761548936367034912109375" lon="1.56713535077869892120361328125">
        <ele>133.399993896484375</ele>
        <time>2026-08-13T07:09:05.000Z</time>
        <extensions>
          <ns3:TrackPointExtension>
            <ns3:hr>76</ns3:hr>
            <ns3:cad>0</ns3:cad>
          </ns3:TrackPointExtension>
        </extensions>
      </trkpt>
      <trkpt lat="43.77869761548936367034912109375" lon="1.56713535077869892120361328125">
        <ele>133.399993896484375</ele>
        <time>2026-08-13T07:09:06.000Z</time>
        <extensions>
          <ns3:TrackPointExtension>
            <ns3:hr>76</ns3:hr>
            <ns3:cad>0</ns3:cad>
          </ns3:TrackPointExtension>
        </extensions>
      </trkpt>
      <trkpt lat="43.77869761548936367034912109375" lon="1.56713535077869892120361328125">
        <ele>133.399993896484375</ele>
        <time>2026-08-13T07:09:07.000Z</time>
        <extensions>
          <ns3:TrackPointExtension>
            <ns3:hr>76</ns3:hr>
            <ns3:cad>0</ns3:cad>
          </ns3:TrackPointExtension>
        </extensions>
      </trkpt>
      <trkpt lat="43.77870616503059864044189453125" lon="1.567130573093891143798828125">
        <ele>133.1999969482421875</ele>
        <time>2026-08-13T07:09:08.000Z</time>
        <extensions>
          <ns3:TrackPointExtension>
            <ns3:hr>76</ns3:hr>
            <ns3:cad>0</ns3:cad>
          </ns3:TrackPointExtension>
        </extensions>
      </trkpt>
      <trkpt lat="43.77869761548936367034912109375" lon="1.56713535077869892120361328125">
        <ele>133.1999969482421875</ele>
        <time>2026-08-13T07:09:09.000Z</time>
        <extensions>
          <ns3:TrackPointExtension>
            <ns3:hr>76</ns3:hr>
            <ns3:cad>0</ns3:cad>
          </ns3:TrackPointExtension>
        </extensions>
      </trkpt>
      <trkpt lat="43.77869761548936367034912109375" lon="1.56713535077869892120361328125">
        <ele>133</ele>
        <time>2026-08-13T07:09:10.000Z</time>
        <extensions>
          <ns3:TrackPointExtension>
            <ns3:hr>75</ns3:hr>
            <ns3:cad>0</ns3:cad>
          </ns3:TrackPointExtension>
        </extensions>
      </trkpt>
      <trkpt lat="43.77869761548936367034912109375" lon="1.56713535077869892120361328125">
        <ele>132.8000030517578125</ele>
        <time>2026-08-13T07:09:11.000Z</time>
        <extensions>
          <ns3:TrackPointExtension>
            <ns3:hr>74</ns3:hr>
            <ns3:cad>0</ns3:cad>
          </ns3:TrackPointExtension>
        </extensions>
      </trkpt>
      <trkpt lat="43.77869761548936367034912109375" lon="1.56713535077869892120361328125">
        <ele>132.8000030517578125</ele>
        <time>2026-08-13T07:09:12.000Z</time>
        <extensions>
          <ns3:TrackPointExtension>
            <ns3:hr>73</ns3:hr>
            <ns3:cad>0</ns3:cad>
          </ns3:TrackPointExtension>
        </extensions>
      </trkpt>
      <trkpt lat="43.77869761548936367034912109375" lon="1.56713535077869892120361328125">
        <ele>132.8000030517578125</ele>
        <time>2026-08-13T07:09:13.000Z</time>
        <extensions>
          <ns3:TrackPointExtension>
            <ns3:hr>73</ns3:hr>
            <ns3:cad>0</ns3:cad>
          </ns3:TrackPointExtension>
        </extensions>
      </trkpt>
      <trkpt lat="43.77869761548936367034912109375" lon="1.56713535077869892120361328125">
        <ele>132.8000030517578125</ele>
        <time>2026-08-13T07:09:14.000Z</time>
        <extensions>
          <ns3:TrackPointExtension>
            <ns3:hr>74</ns3:hr>
            <ns3:cad>0</ns3:cad>
          </ns3:TrackPointExtension>
        </extensions>
      </trkpt>
      <trkpt lat="43.77869761548936367034912109375" lon="1.56713535077869892120361328125">
        <ele>132.8000030517578125</ele>
        <time>2026-08-13T07:09:15.000Z</time>
        <extensions>
          <ns3:TrackPointExtension>
            <ns3:hr>74</ns3:hr>
            <ns3:cad>0</ns3:cad>
          </ns3:TrackPointExtension>
        </extensions>
      </trkpt>
      <trkpt lat="43.77869761548936367034912109375" lon="1.56713535077869892120361328125">
        <ele>132.8000030517578125</ele>
        <time>2026-08-13T07:09:16.000Z</time>
        <extensions>
          <ns3:TrackPointExtension>
            <ns3:hr>75</ns3:hr>
            <ns3:cad>0</ns3:cad>
          </ns3:TrackPointExtension>
        </extensions>
      </trkpt>
      <trkpt lat="43.77869761548936367034912109375" lon="1.56713535077869892120361328125">
        <ele>132.8000030517578125</ele>
        <time>2026-08-13T07:09:17.000Z</time>
        <extensions>
          <ns3:TrackPointExtension>
            <ns3:hr>75</ns3:hr>
            <ns3:cad>0</ns3:cad>
          </ns3:TrackPointExtension>
        </extensions>
      </trkpt>
      <trkpt lat="43.77869761548936367034912109375" lon="1.56713535077869892120361328125">
        <ele>132.8000030517578125</ele>
        <time>2026-08-13T07:09:18.000Z</time>
        <extensions>
          <ns3:TrackPointExtension>
            <ns3:hr>77</ns3:hr>
            <ns3:cad>0</ns3:cad>
          </ns3:TrackPointExtension>
        </extensions>
      </trkpt>
      <trkpt lat="43.77869761548936367034912109375" lon="1.56713535077869892120361328125">
        <ele>132.8000030517578125</ele>
        <time>2026-08-13T07:09:19.000Z</time>
        <extensions>
          <ns3:TrackPointExtension>
            <ns3:hr>77</ns3:hr>
            <ns3:cad>0</ns3:cad>
          </ns3:TrackPointExtension>
        </extensions>
      </trkpt>
      <trkpt lat="43.77869761548936367034912109375" lon="1.56713535077869892120361328125">
        <ele>132.8000030517578125</ele>
        <time>2026-08-13T07:09:20.000Z</time>
        <extensions>
          <ns3:TrackPointExtension>
            <ns3:hr>77</ns3:hr>
            <ns3:cad>0</ns3:cad>
          </ns3:TrackPointExtension>
        </extensions>
      </trkpt>
      <trkpt lat="43.77869761548936367034912109375" lon="1.56713535077869892120361328125">
        <ele>132.8000030517578125</ele>
        <time>2026-08-13T07:09:21.000Z</time>
        <extensions>
          <ns3:TrackPointExtension>
            <ns3:hr>76</ns3:hr>
            <ns3:cad>0</ns3:cad>
          </ns3:TrackPointExtension>
        </extensions>
      </trkpt>
      <trkpt lat="43.77869761548936367034912109375" lon="1.56713535077869892120361328125">
        <ele>132.8000030517578125</ele>
        <time>2026-08-13T07:09:22.000Z</time>
        <extensions>
          <ns3:TrackPointExtension>
            <ns3:hr>76</ns3:hr>
            <ns3:cad>0</ns3:cad>
          </ns3:TrackPointExtension>
        </extensions>
      </trkpt>
      <trkpt lat="43.77870264463126659393310546875" lon="1.5671329200267791748046875">
        <ele>132.8000030517578125</ele>
        <time>2026-08-13T07:09:23.000Z</time>
        <extensions>
          <ns3:TrackPointExtension>
            <ns3:hr>76</ns3:hr>
            <ns3:cad>0</ns3:cad>
          </ns3:TrackPointExtension>
        </extensions>
      </trkpt>
      <trkpt lat="43.77870113588869571685791015625" lon="1.567133255302906036376953125">
        <ele>132.8000030517578125</ele>
        <time>2026-08-13T07:09:24.000Z</time>
        <extensions>
          <ns3:TrackPointExtension>
            <ns3:hr>76</ns3:hr>
            <ns3:cad>0</ns3:cad>
          </ns3:TrackPointExtension>
        </extensions>
      </trkpt>
      <trkpt lat="43.77869577147066593170166015625" lon="1.56713359057903289794921875">
        <ele>132.8000030517578125</ele>
        <time>2026-08-13T07:09:25.000Z</time>
        <extensions>
          <ns3:TrackPointExtension>
            <ns3:hr>77</ns3:hr>
            <ns3:cad>0</ns3:cad>
          </ns3:TrackPointExtension>
        </extensions>
      </trkpt>
      <trkpt lat="43.77869761548936367034912109375" lon="1.56713535077869892120361328125">
        <ele>132.8000030517578125</ele>
        <time>2026-08-13T07:09:26.000Z</time>
        <extensions>
          <ns3:TrackPointExtension>
            <ns3:hr>78</ns3:hr>
            <ns3:cad>0</ns3:cad>
          </ns3:TrackPointExtension>
        </extensions>
      </trkpt>
      <trkpt lat="43.77869761548936367034912109375" lon="1.56713535077869892120361328125">
        <ele>132.8000030517578125</ele>
        <time>2026-08-13T07:09:27.000Z</time>
        <extensions>
          <ns3:TrackPointExtension>
            <ns3:hr>78</ns3:hr>
            <ns3:cad>0</ns3:cad>
          </ns3:TrackPointExtension>
        </extensions>
      </trkpt>
      <trkpt lat="43.77869761548936367034912109375" lon="1.56713535077869892120361328125">
        <ele>132.8000030517578125</ele>
        <time>2026-08-13T07:09:28.000Z</time>
        <extensions>
          <ns3:TrackPointExtension>
            <ns3:hr>78</ns3:hr>
            <ns3:cad>0</ns3:cad>
          </ns3:TrackPointExtension>
        </extensions>
      </trkpt>
      <trkpt lat="43.77869761548936367034912109375" lon="1.56713535077869892120361328125">
        <ele>132.8000030517578125</ele>
        <time>2026-08-13T07:09:29.000Z</time>
        <extensions>
          <ns3:TrackPointExtension>
            <ns3:hr>79</ns3:hr>
            <ns3:cad>0</ns3:cad>
          </ns3:TrackPointExtension>
        </extensions>
      </trkpt>
      <trkpt lat="43.77869761548936367034912109375" lon="1.56713535077869892120361328125">
        <ele>133</ele>
        <time>2026-08-13T07:09:30.000Z</time>
        <extensions>
          <ns3:TrackPointExtension>
            <ns3:hr>78</ns3:hr>
            <ns3:cad>0</ns3:cad>
          </ns3:TrackPointExtension>
        </extensions>
      </trkpt>
      <trkpt lat="43.77869761548936367034912109375" lon="1.56713535077869892120361328125">
        <ele>133</ele>
        <time>2026-08-13T07:09:31.000Z</time>
        <extensions>
          <ns3:TrackPointExtension>
            <ns3:hr>76</ns3:hr>
            <ns3:cad>0</ns3:cad>
          </ns3:TrackPointExtension>
        </extensions>
      </trkpt>
      <trkpt lat="43.77869761548936367034912109375" lon="1.56713535077869892120361328125">
        <ele>133</ele>
        <time>2026-08-13T07:09:32.000Z</time>
        <extensions>
          <ns3:TrackPointExtension>
            <ns3:hr>74</ns3:hr>
            <ns3:cad>0</ns3:cad>
          </ns3:TrackPointExtension>
        </extensions>
      </trkpt>
      <trkpt lat="43.77869761548936367034912109375" lon="1.56713535077869892120361328125">
        <ele>133</ele>
        <time>2026-08-13T07:09:33.000Z</time>
        <extensions>
          <ns3:TrackPointExtension>
            <ns3:hr>72</ns3:hr>
            <ns3:cad>0</ns3:cad>
          </ns3:TrackPointExtension>
        </extensions>
      </trkpt>
      <trkpt lat="43.77869761548936367034912109375" lon="1.56713535077869892120361328125">
        <ele>133</ele>
        <time>2026-08-13T07:09:34.000Z</time>
        <extensions>
          <ns3:TrackPointExtension>
            <ns3:hr>71</ns3:hr>
            <ns3:cad>0</ns3:cad>
          </ns3:TrackPointExtension>
        </extensions>
      </trkpt>
      <trkpt lat="43.77869761548936367034912109375" lon="1.56713535077869892120361328125">
        <ele>133</ele>
        <time>2026-08-13T07:09:35.000Z</time>
        <extensions>
          <ns3:TrackPointExtension>
            <ns3:hr>71</ns3:hr>
            <ns3:cad>0</ns3:cad>
          </ns3:TrackPointExtension>
        </extensions>
      </trkpt>
      <trkpt lat="43.77869761548936367034912109375" lon="1.56713535077869892120361328125">
        <ele>133</ele>
        <time>2026-08-13T07:09:36.000Z</time>
        <extensions>
          <ns3:TrackPointExtension>
            <ns3:hr>72</ns3:hr>
            <ns3:cad>0</ns3:cad>
          </ns3:TrackPointExtension>
        </extensions>
      </trkpt>
      <trkpt lat="43.77869761548936367034912109375" lon="1.56713535077869892120361328125">
        <ele>133</ele>
        <time>2026-08-13T07:09:37.000Z</time>
        <extensions>
          <ns3:TrackPointExtension>
            <ns3:hr>73</ns3:hr>
            <ns3:cad>0</ns3:cad>
          </ns3:TrackPointExtension>
        </extensions>
      </trkpt>
      <trkpt lat="43.77869107760488986968994140625" lon="1.56713769771158695220947265625">
        <ele>133</ele>
        <time>2026-08-13T07:09:38.000Z</time>
        <extensions>
          <ns3:TrackPointExtension>
            <ns3:hr>77</ns3:hr>
            <ns3:cad>0</ns3:cad>
          </ns3:TrackPointExtension>
        </extensions>
      </trkpt>
      <trkpt lat="43.77869510091841220855712890625" lon="1.5671488456428050994873046875">
        <ele>133</ele>
        <time>2026-08-13T07:09:39.000Z</time>
        <extensions>
          <ns3:TrackPointExtension>
            <ns3:hr>79</ns3:hr>
            <ns3:cad>0</ns3:cad>
          </ns3:TrackPointExtension>
        </extensions>
      </trkpt>
      <trkpt lat="43.7787008844316005706787109375" lon="1.56715345568954944610595703125">
        <ele>133</ele>
        <time>2026-08-13T07:09:40.000Z</time>
        <extensions>
          <ns3:TrackPointExtension>
            <ns3:hr>79</ns3:hr>
            <ns3:cad>0</ns3:cad>
          </ns3:TrackPointExtension>
        </extensions>
      </trkpt>
      <trkpt lat="43.77870080061256885528564453125" lon="1.56715345568954944610595703125">
        <ele>133</ele>
        <time>2026-08-13T07:09:41.000Z</time>
        <extensions>
          <ns3:TrackPointExtension>
            <ns3:hr>79</ns3:hr>
            <ns3:cad>0</ns3:cad>
          </ns3:TrackPointExtension>
        </extensions>
      </trkpt>
      <trkpt lat="43.77870080061256885528564453125" lon="1.56715345568954944610595703125">
        <ele>133</ele>
        <time>2026-08-13T07:09:42.000Z</time>
        <extensions>
          <ns3:TrackPointExtension>
            <ns3:hr>80</ns3:hr>
            <ns3:cad>0</ns3:cad>
          </ns3:TrackPointExtension>
        </extensions>
      </trkpt>
      <trkpt lat="43.77870080061256885528564453125" lon="1.56715345568954944610595703125">
        <ele>133</ele>
        <time>2026-08-13T07:09:43.000Z</time>
        <extensions>
          <ns3:TrackPointExtension>
            <ns3:hr>80</ns3:hr>
            <ns3:cad>0</ns3:cad>
          </ns3:TrackPointExtension>
        </extensions>
      </trkpt>
      <trkpt lat="43.77870080061256885528564453125" lon="1.56715345568954944610595703125">
        <ele>133</ele>
        <time>2026-08-13T07:09:44.000Z</time>
        <extensions>
          <ns3:TrackPointExtension>
            <ns3:hr>80</ns3:hr>
            <ns3:cad>0</ns3:cad>
          </ns3:TrackPointExtension>
        </extensions>
      </trkpt>
      <trkpt lat="43.77870080061256885528564453125" lon="1.56715345568954944610595703125">
        <ele>133</ele>
        <time>2026-08-13T07:09:45.000Z</time>
        <extensions>
          <ns3:TrackPointExtension>
            <ns3:hr>80</ns3:hr>
            <ns3:cad>0</ns3:cad>
          </ns3:TrackPointExtension>
        </extensions>
      </trkpt>
      <trkpt lat="43.77870080061256885528564453125" lon="1.56715345568954944610595703125">
        <ele>133</ele>
        <time>2026-08-13T07:09:46.000Z</time>
        <extensions>
          <ns3:TrackPointExtension>
            <ns3:hr>80</ns3:hr>
            <ns3:cad>0</ns3:cad>
          </ns3:TrackPointExtension>
        </extensions>
      </trkpt>
      <trkpt lat="43.77870080061256885528564453125" lon="1.56715345568954944610595703125">
        <ele>133</ele>
        <time>2026-08-13T07:09:47.000Z</time>
        <extensions>
          <ns3:TrackPointExtension>
            <ns3:hr>81</ns3:hr>
            <ns3:cad>0</ns3:cad>
          </ns3:TrackPointExtension>
        </extensions>
      </trkpt>
      <trkpt lat="43.77870080061256885528564453125" lon="1.56715345568954944610595703125">
        <ele>133</ele>
        <time>2026-08-13T07:09:48.000Z</time>
        <extensions>
          <ns3:TrackPointExtension>
            <ns3:hr>81</ns3:hr>
            <ns3:cad>0</ns3:cad>
          </ns3:TrackPointExtension>
        </extensions>
      </trkpt>
      <trkpt lat="43.77870080061256885528564453125" lon="1.56715345568954944610595703125">
        <ele>133</ele>
        <time>2026-08-13T07:09:49.000Z</time>
        <extensions>
          <ns3:TrackPointExtension>
            <ns3:hr>81</ns3:hr>
            <ns3:cad>0</ns3:cad>
          </ns3:TrackPointExtension>
        </extensions>
      </trkpt>
      <trkpt lat="43.77870080061256885528564453125" lon="1.56715345568954944610595703125">
        <ele>133</ele>
        <time>2026-08-13T07:09:50.000Z</time>
        <extensions>
          <ns3:TrackPointExtension>
            <ns3:hr>81</ns3:hr>
            <ns3:cad>0</ns3:cad>
          </ns3:TrackPointExtension>
        </extensions>
      </trkpt>
      <trkpt lat="43.77870080061256885528564453125" lon="1.56715345568954944610595703125">
        <ele>133</ele>
        <time>2026-08-13T07:09:51.000Z</time>
        <extensions>
          <ns3:TrackPointExtension>
            <ns3:hr>81</ns3:hr>
            <ns3:cad>0</ns3:cad>
          </ns3:TrackPointExtension>
        </extensions>
      </trkpt>
      <trkpt lat="43.77870080061256885528564453125" lon="1.56715345568954944610595703125">
        <ele>133</ele>
        <time>2026-08-13T07:09:52.000Z</time>
        <extensions>
          <ns3:TrackPointExtension>
            <ns3:hr>82</ns3:hr>
            <ns3:cad>0</ns3:cad>
          </ns3:TrackPointExtension>
        </extensions>
      </trkpt>
      <trkpt lat="43.77870080061256885528564453125" lon="1.56715345568954944610595703125">
        <ele>133</ele>
        <time>2026-08-13T07:09:53.000Z</time>
        <extensions>
          <ns3:TrackPointExtension>
            <ns3:hr>81</ns3:hr>
            <ns3:cad>0</ns3:cad>
          </ns3:TrackPointExtension>
        </extensions>
      </trkpt>
      <trkpt lat="43.77870080061256885528564453125" lon="1.56715345568954944610595703125">
        <ele>133</ele>
        <time>2026-08-13T07:09:54.000Z</time>
        <extensions>
          <ns3:TrackPointExtension>
            <ns3:hr>81</ns3:hr>
            <ns3:cad>0</ns3:cad>
          </ns3:TrackPointExtension>
        </extensions>
      </trkpt>
      <trkpt lat="43.77870080061256885528564453125" lon="1.56715345568954944610595703125">
        <ele>133</ele>
        <time>2026-08-13T07:09:55.000Z</time>
        <extensions>
          <ns3:TrackPointExtension>
            <ns3:hr>81</ns3:hr>
            <ns3:cad>0</ns3:cad>
          </ns3:TrackPointExtension>
        </extensions>
      </trkpt>
      <trkpt lat="43.77870080061256885528564453125" lon="1.56715345568954944610595703125">
        <ele>133</ele>
        <time>2026-08-13T07:09:56.000Z</time>
        <extensions>
          <ns3:TrackPointExtension>
            <ns3:hr>79</ns3:hr>
            <ns3:cad>0</ns3:cad>
          </ns3:TrackPointExtension>
        </extensions>
      </trkpt>
      <trkpt lat="43.77870080061256885528564453125" lon="1.56715345568954944610595703125">
        <ele>133</ele>
        <time>2026-08-13T07:09:57.000Z</time>
        <extensions>
          <ns3:TrackPointExtension>
            <ns3:hr>75</ns3:hr>
            <ns3:cad>0</ns3:cad>
          </ns3:TrackPointExtension>
        </extensions>
      </trkpt>
      <trkpt lat="43.77870080061256885528564453125" lon="1.56715345568954944610595703125">
        <ele>133</ele>
        <time>2026-08-13T07:09:58.000Z</time>
        <extensions>
          <ns3:TrackPointExtension>
            <ns3:hr>71</ns3:hr>
            <ns3:cad>0</ns3:cad>
          </ns3:TrackPointExtension>
        </extensions>
      </trkpt>
      <trkpt lat="43.77870080061256885528564453125" lon="1.56715345568954944610595703125">
        <ele>133</ele>
        <time>2026-08-13T07:09:59.000Z</time>
        <extensions>
          <ns3:TrackPointExtension>
            <ns3:hr>68</ns3:hr>
            <ns3:cad>0</ns3:cad>
          </ns3:TrackPointExtension>
        </extensions>
      </trkpt>
      <trkpt lat="43.77870080061256885528564453125" lon="1.56715345568954944610595703125">
        <ele>133</ele>
        <time>2026-08-13T07:10:00.000Z</time>
        <extensions>
          <ns3:TrackPointExtension>
            <ns3:hr>67</ns3:hr>
            <ns3:cad>0</ns3:cad>
          </ns3:TrackPointExtension>
        </extensions>
      </trkpt>
      <trkpt lat="43.77870080061256885528564453125" lon="1.56715345568954944610595703125">
        <ele>133.1999969482421875</ele>
        <time>2026-08-13T07:10:01.000Z</time>
        <extensions>
          <ns3:TrackPointExtension>
            <ns3:hr>67</ns3:hr>
            <ns3:cad>0</ns3:cad>
          </ns3:TrackPointExtension>
        </extensions>
      </trkpt>
      <trkpt lat="43.77870080061256885528564453125" lon="1.56715345568954944610595703125">
        <ele>133.1999969482421875</ele>
        <time>2026-08-13T07:10:02.000Z</time>
        <extensions>
          <ns3:TrackPointExtension>
            <ns3:hr>66</ns3:hr>
            <ns3:cad>0</ns3:cad>
          </ns3:TrackPointExtension>
        </extensions>
      </trkpt>
      <trkpt lat="43.77870080061256885528564453125" lon="1.56715345568954944610595703125">
        <ele>133.1999969482421875</ele>
        <time>2026-08-13T07:10:03.000Z</time>
        <extensions>
          <ns3:TrackPointExtension>
            <ns3:hr>66</ns3:hr>
            <ns3:cad>0</ns3:cad>
          </ns3:TrackPointExtension>
        </extensions>
      </trkpt>
      <trkpt lat="43.77870080061256885528564453125" lon="1.56715345568954944610595703125">
        <ele>133.1999969482421875</ele>
        <time>2026-08-13T07:10:04.000Z</time>
        <extensions>
          <ns3:TrackPointExtension>
            <ns3:hr>66</ns3:hr>
            <ns3:cad>0</ns3:cad>
          </ns3:TrackPointExtension>
        </extensions>
      </trkpt>
      <trkpt lat="43.77870080061256885528564453125" lon="1.56715345568954944610595703125">
        <ele>133</ele>
        <time>2026-08-13T07:10:05.000Z</time>
        <extensions>
          <ns3:TrackPointExtension>
            <ns3:hr>66</ns3:hr>
            <ns3:cad>0</ns3:cad>
          </ns3:TrackPointExtension>
        </extensions>
      </trkpt>
      <trkpt lat="43.77870080061256885528564453125" lon="1.56715345568954944610595703125">
        <ele>133</ele>
        <time>2026-08-13T07:10:06.000Z</time>
        <extensions>
          <ns3:TrackPointExtension>
            <ns3:hr>66</ns3:hr>
            <ns3:cad>0</ns3:cad>
          </ns3:TrackPointExtension>
        </extensions>
      </trkpt>
      <trkpt lat="43.77870080061256885528564453125" lon="1.56715345568954944610595703125">
        <ele>133</ele>
        <time>2026-08-13T07:10:07.000Z</time>
        <extensions>
          <ns3:TrackPointExtension>
            <ns3:hr>66</ns3:hr>
            <ns3:cad>0</ns3:cad>
          </ns3:TrackPointExtension>
        </extensions>
      </trkpt>
      <trkpt lat="43.77870080061256885528564453125" lon="1.56715345568954944610595703125">
        <ele>133</ele>
        <time>2026-08-13T07:10:08.000Z</time>
        <extensions>
          <ns3:TrackPointExtension>
            <ns3:hr>65</ns3:hr>
            <ns3:cad>0</ns3:cad>
          </ns3:TrackPointExtension>
        </extensions>
      </trkpt>
      <trkpt lat="43.77870080061256885528564453125" lon="1.56715345568954944610595703125">
        <ele>133</ele>
        <time>2026-08-13T07:10:09.000Z</time>
        <extensions>
          <ns3:TrackPointExtension>
            <ns3:hr>65</ns3:hr>
            <ns3:cad>0</ns3:cad>
          </ns3:TrackPointExtension>
        </extensions>
      </trkpt>
      <trkpt lat="43.77870080061256885528564453125" lon="1.56715345568954944610595703125">
        <ele>133</ele>
        <time>2026-08-13T07:10:10.000Z</time>
        <extensions>
          <ns3:TrackPointExtension>
            <ns3:hr>65</ns3:hr>
            <ns3:cad>0</ns3:cad>
          </ns3:TrackPointExtension>
        </extensions>
      </trkpt>
      <trkpt lat="43.77870080061256885528564453125" lon="1.56715345568954944610595703125">
        <ele>133</ele>
        <time>2026-08-13T07:10:11.000Z</time>
        <extensions>
          <ns3:TrackPointExtension>
            <ns3:hr>64</ns3:hr>
            <ns3:cad>0</ns3:cad>
          </ns3:TrackPointExtension>
        </extensions>
      </trkpt>
      <trkpt lat="43.77870080061256885528564453125" lon="1.56715345568954944610595703125">
        <ele>133</ele>
        <time>2026-08-13T07:10:12.000Z</time>
        <extensions>
          <ns3:TrackPointExtension>
            <ns3:hr>64</ns3:hr>
            <ns3:cad>0</ns3:cad>
          </ns3:TrackPointExtension>
        </extensions>
      </trkpt>
      <trkpt lat="43.77870080061256885528564453125" lon="1.56715345568954944610595703125">
        <ele>133</ele>
        <time>2026-08-13T07:10:13.000Z</time>
        <extensions>
          <ns3:TrackPointExtension>
            <ns3:hr>64</ns3:hr>
            <ns3:cad>0</ns3:cad>
          </ns3:TrackPointExtension>
        </extensions>
      </trkpt>
      <trkpt lat="43.77870080061256885528564453125" lon="1.56715345568954944610595703125">
        <ele>133</ele>
        <time>2026-08-13T07:10:14.000Z</time>
        <extensions>
          <ns3:TrackPointExtension>
            <ns3:hr>64</ns3:hr>
            <ns3:cad>0</ns3:cad>
          </ns3:TrackPointExtension>
        </extensions>
      </trkpt>
      <trkpt lat="43.77870080061256885528564453125" lon="1.56715345568954944610595703125">
        <ele>133</ele>
        <time>2026-08-13T07:10:15.000Z</time>
        <extensions>
          <ns3:TrackPointExtension>
            <ns3:hr>63</ns3:hr>
            <ns3:cad>0</ns3:cad>
          </ns3:TrackPointExtension>
        </extensions>
      </trkpt>
      <trkpt lat="43.77870080061256885528564453125" lon="1.56715345568954944610595703125">
        <ele>133</ele>
        <time>2026-08-13T07:10:16.000Z</time>
        <extensions>
          <ns3:TrackPointExtension>
            <ns3:hr>64</ns3:hr>
            <ns3:cad>0</ns3:cad>
          </ns3:TrackPointExtension>
        </extensions>
      </trkpt>
      <trkpt lat="43.77870080061256885528564453125" lon="1.56715345568954944610595703125">
        <ele>133</ele>
        <time>2026-08-13T07:10:17.000Z</time>
        <extensions>
          <ns3:TrackPointExtension>
            <ns3:hr>64</ns3:hr>
            <ns3:cad>0</ns3:cad>
          </ns3:TrackPointExtension>
        </extensions>
      </trkpt>
      <trkpt lat="43.77870080061256885528564453125" lon="1.56715345568954944610595703125">
        <ele>133</ele>
        <time>2026-08-13T07:10:18.000Z</time>
        <extensions>
          <ns3:TrackPointExtension>
            <ns3:hr>64</ns3:hr>
            <ns3:cad>0</ns3:cad>
          </ns3:TrackPointExtension>
        </extensions>
      </trkpt>
      <trkpt lat="43.77870080061256885528564453125" lon="1.56715345568954944610595703125">
        <ele>133</ele>
        <time>2026-08-13T07:10:19.000Z</time>
        <extensions>
          <ns3:TrackPointExtension>
            <ns3:hr>65</ns3:hr>
            <ns3:cad>0</ns3:cad>
          </ns3:TrackPointExtension>
        </extensions>
      </trkpt>
      <trkpt lat="43.77870080061256885528564453125" lon="1.56715345568954944610595703125">
        <ele>133</ele>
        <time>2026-08-13T07:10:20.000Z</time>
        <extensions>
          <ns3:TrackPointExtension>
            <ns3:hr>65</ns3:hr>
            <ns3:cad>0</ns3:cad>
          </ns3:TrackPointExtension>
        </extensions>
      </trkpt>
      <trkpt lat="43.77870080061256885528564453125" lon="1.56715345568954944610595703125">
        <ele>133.1999969482421875</ele>
        <time>2026-08-13T07:10:21.000Z</time>
        <extensions>
          <ns3:TrackPointExtension>
            <ns3:hr>67</ns3:hr>
            <ns3:cad>0</ns3:cad>
          </ns3:TrackPointExtension>
        </extensions>
      </trkpt>
      <trkpt lat="43.77870080061256885528564453125" lon="1.56715345568954944610595703125">
        <ele>133.1999969482421875</ele>
        <time>2026-08-13T07:10:22.000Z</time>
        <extensions>
          <ns3:TrackPointExtension>
            <ns3:hr>68</ns3:hr>
            <ns3:cad>0</ns3:cad>
          </ns3:TrackPointExtension>
        </extensions>
      </trkpt>
      <trkpt lat="43.77870080061256885528564453125" lon="1.56715345568954944610595703125">
        <ele>133</ele>
        <time>2026-08-13T07:10:23.000Z</time>
        <extensions>
          <ns3:TrackPointExtension>
            <ns3:hr>68</ns3:hr>
            <ns3:cad>0</ns3:cad>
          </ns3:TrackPointExtension>
        </extensions>
      </trkpt>
      <trkpt lat="43.77870080061256885528564453125" lon="1.56715345568954944610595703125">
        <ele>133</ele>
        <time>2026-08-13T07:10:24.000Z</time>
        <extensions>
          <ns3:TrackPointExtension>
            <ns3:hr>68</ns3:hr>
            <ns3:cad>0</ns3:cad>
          </ns3:TrackPointExtension>
        </extensions>
      </trkpt>
      <trkpt lat="43.77870080061256885528564453125" lon="1.56715345568954944610595703125">
        <ele>133</ele>
        <time>2026-08-13T07:10:25.000Z</time>
        <extensions>
          <ns3:TrackPointExtension>
            <ns3:hr>68</ns3:hr>
            <ns3:cad>0</ns3:cad>
          </ns3:TrackPointExtension>
        </extensions>
      </trkpt>
      <trkpt lat="43.77870080061256885528564453125" lon="1.56715345568954944610595703125">
        <ele>133</ele>
        <time>2026-08-13T07:10:26.000Z</time>
        <extensions>
          <ns3:TrackPointExtension>
            <ns3:hr>67</ns3:hr>
            <ns3:cad>0</ns3:cad>
          </ns3:TrackPointExtension>
        </extensions>
      </trkpt>
      <trkpt lat="43.77870080061256885528564453125" lon="1.56715345568954944610595703125">
        <ele>133</ele>
        <time>2026-08-13T07:10:27.000Z</time>
        <extensions>
          <ns3:TrackPointExtension>
            <ns3:hr>66</ns3:hr>
            <ns3:cad>0</ns3:cad>
          </ns3:TrackPointExtension>
        </extensions>
      </trkpt>
      <trkpt lat="43.77870080061256885528564453125" lon="1.56715345568954944610595703125">
        <ele>133</ele>
        <time>2026-08-13T07:10:28.000Z</time>
        <extensions>
          <ns3:TrackPointExtension>
            <ns3:hr>66</ns3:hr>
            <ns3:cad>0</ns3:cad>
          </ns3:TrackPointExtension>
        </extensions>
      </trkpt>
      <trkpt lat="43.77870080061256885528564453125" lon="1.56715345568954944610595703125">
        <ele>133</ele>
        <time>2026-08-13T07:10:29.000Z</time>
        <extensions>
          <ns3:TrackPointExtension>
            <ns3:hr>65</ns3:hr>
            <ns3:cad>0</ns3:cad>
          </ns3:TrackPointExtension>
        </extensions>
      </trkpt>
      <trkpt lat="43.77870080061256885528564453125" lon="1.56715345568954944610595703125">
        <ele>133</ele>
        <time>2026-08-13T07:10:30.000Z</time>
        <extensions>
          <ns3:TrackPointExtension>
            <ns3:hr>66</ns3:hr>
            <ns3:cad>0</ns3:cad>
          </ns3:TrackPointExtension>
        </extensions>
      </trkpt>
      <trkpt lat="43.77870080061256885528564453125" lon="1.56715345568954944610595703125">
        <ele>133</ele>
        <time>2026-08-13T07:10:31.000Z</time>
        <extensions>
          <ns3:TrackPointExtension>
            <ns3:hr>67</ns3:hr>
            <ns3:cad>0</ns3:cad>
          </ns3:TrackPointExtension>
        </extensions>
      </trkpt>
      <trkpt lat="43.77870080061256885528564453125" lon="1.56715345568954944610595703125">
        <ele>133</ele>
        <time>2026-08-13T07:10:32.000Z</time>
        <extensions>
          <ns3:TrackPointExtension>
            <ns3:hr>67</ns3:hr>
            <ns3:cad>0</ns3:cad>
          </ns3:TrackPointExtension>
        </extensions>
      </trkpt>
      <trkpt lat="43.77870080061256885528564453125" lon="1.56715345568954944610595703125">
        <ele>133</ele>
        <time>2026-08-13T07:10:33.000Z</time>
        <extensions>
          <ns3:TrackPointExtension>
            <ns3:hr>67</ns3:hr>
            <ns3:cad>0</ns3:cad>
          </ns3:TrackPointExtension>
        </extensions>
      </trkpt>
      <trkpt lat="43.77870080061256885528564453125" lon="1.56715345568954944610595703125">
        <ele>133</ele>
        <time>2026-08-13T07:10:34.000Z</time>
        <extensions>
          <ns3:TrackPointExtension>
            <ns3:hr>68</ns3:hr>
            <ns3:cad>0</ns3:cad>
          </ns3:TrackPointExtension>
        </extensions>
      </trkpt>
      <trkpt lat="43.77870080061256885528564453125" lon="1.56715345568954944610595703125">
        <ele>133</ele>
        <time>2026-08-13T07:10:35.000Z</time>
        <extensions>
          <ns3:TrackPointExtension>
            <ns3:hr>67</ns3:hr>
            <ns3:cad>0</ns3:cad>
          </ns3:TrackPointExtension>
        </extensions>
      </trkpt>
      <trkpt lat="43.77870080061256885528564453125" lon="1.56715345568954944610595703125">
        <ele>133</ele>
        <time>2026-08-13T07:10:36.000Z</time>
        <extensions>
          <ns3:TrackPointExtension>
            <ns3:hr>67</ns3:hr>
            <ns3:cad>0</ns3:cad>
          </ns3:TrackPointExtension>
        </extensions>
      </trkpt>
      <trkpt lat="43.77870080061256885528564453125" lon="1.56715345568954944610595703125">
        <ele>133</ele>
        <time>2026-08-13T07:10:37.000Z</time>
        <extensions>
          <ns3:TrackPointExtension>
            <ns3:hr>66</ns3:hr>
            <ns3:cad>0</ns3:cad>
          </ns3:TrackPointExtension>
        </extensions>
      </trkpt>
      <trkpt lat="43.77870080061256885528564453125" lon="1.56715345568954944610595703125">
        <ele>133</ele>
        <time>2026-08-13T07:10:38.000Z</time>
        <extensions>
          <ns3:TrackPointExtension>
            <ns3:hr>66</ns3:hr>
            <ns3:cad>0</ns3:cad>
          </ns3:TrackPointExtension>
        </extensions>
      </trkpt>
      <trkpt lat="43.77870080061256885528564453125" lon="1.56715345568954944610595703125">
        <ele>133</ele>
        <time>2026-08-13T07:10:39.000Z</time>
        <extensions>
          <ns3:TrackPointExtension>
            <ns3:hr>66</ns3:hr>
            <ns3:cad>0</ns3:cad>
          </ns3:TrackPointExtension>
        </extensions>
      </trkpt>
      <trkpt lat="43.77870080061256885528564453125" lon="1.56715345568954944610595703125">
        <ele>133</ele>
        <time>2026-08-13T07:10:40.000Z</time>
        <extensions>
          <ns3:TrackPointExtension>
            <ns3:hr>66</ns3:hr>
            <ns3:cad>0</ns3:cad>
          </ns3:TrackPointExtension>
        </extensions>
      </trkpt>
      <trkpt lat="43.77870080061256885528564453125" lon="1.56715345568954944610595703125">
        <ele>133</ele>
        <time>2026-08-13T07:10:41.000Z</time>
        <extensions>
          <ns3:TrackPointExtension>
            <ns3:hr>66</ns3:hr>
            <ns3:cad>0</ns3:cad>
          </ns3:TrackPointExtension>
        </extensions>
      </trkpt>
      <trkpt lat="43.77870080061256885528564453125" lon="1.56715345568954944610595703125">
        <ele>133</ele>
        <time>2026-08-13T07:10:42.000Z</time>
        <extensions>
          <ns3:TrackPointExtension>
            <ns3:hr>66</ns3:hr>
            <ns3:cad>0</ns3:cad>
          </ns3:TrackPointExtension>
        </extensions>
      </trkpt>
      <trkpt lat="43.77870080061256885528564453125" lon="1.56715345568954944610595703125">
        <ele>133.1999969482421875</ele>
        <time>2026-08-13T07:10:43.000Z</time>
        <extensions>
          <ns3:TrackPointExtension>
            <ns3:hr>67</ns3:hr>
            <ns3:cad>0</ns3:cad>
          </ns3:TrackPointExtension>
        </extensions>
      </trkpt>
      <trkpt lat="43.77870080061256885528564453125" lon="1.56715345568954944610595703125">
        <ele>133.1999969482421875</ele>
        <time>2026-08-13T07:10:44.000Z</time>
        <extensions>
          <ns3:TrackPointExtension>
            <ns3:hr>67</ns3:hr>
            <ns3:cad>0</ns3:cad>
          </ns3:TrackPointExtension>
        </extensions>
      </trkpt>
      <trkpt lat="43.77870080061256885528564453125" lon="1.56715345568954944610595703125">
        <ele>133.1999969482421875</ele>
        <time>2026-08-13T07:10:45.000Z</time>
        <extensions>
          <ns3:TrackPointExtension>
            <ns3:hr>67</ns3:hr>
            <ns3:cad>0</ns3:cad>
          </ns3:TrackPointExtension>
        </extensions>
      </trkpt>
      <trkpt lat="43.77870080061256885528564453125" lon="1.56715345568954944610595703125">
        <ele>133.1999969482421875</ele>
        <time>2026-08-13T07:10:46.000Z</time>
        <extensions>
          <ns3:TrackPointExtension>
            <ns3:hr>67</ns3:hr>
            <ns3:cad>0</ns3:cad>
          </ns3:TrackPointExtension>
        </extensions>
      </trkpt>
      <trkpt lat="43.77870080061256885528564453125" lon="1.56715345568954944610595703125">
        <ele>133.1999969482421875</ele>
        <time>2026-08-13T07:10:47.000Z</time>
        <extensions>
          <ns3:TrackPointExtension>
            <ns3:hr>66</ns3:hr>
            <ns3:cad>0</ns3:cad>
          </ns3:TrackPointExtension>
        </extensions>
      </trkpt>
      <trkpt lat="43.77870080061256885528564453125" lon="1.56715345568954944610595703125">
        <ele>133.1999969482421875</ele>
        <time>2026-08-13T07:10:48.000Z</time>
        <extensions>
          <ns3:TrackPointExtension>
            <ns3:hr>66</ns3:hr>
            <ns3:cad>0</ns3:cad>
          </ns3:TrackPointExtension>
        </extensions>
      </trkpt>
      <trkpt lat="43.77870080061256885528564453125" lon="1.56715345568954944610595703125">
        <ele>133.1999969482421875</ele>
        <time>2026-08-13T07:10:49.000Z</time>
        <extensions>
          <ns3:TrackPointExtension>
            <ns3:hr>66</ns3:hr>
            <ns3:cad>0</ns3:cad>
          </ns3:TrackPointExtension>
        </extensions>
      </trkpt>
      <trkpt lat="43.77870080061256885528564453125" lon="1.56715345568954944610595703125">
        <ele>133</ele>
        <time>2026-08-13T07:10:50.000Z</time>
        <extensions>
          <ns3:TrackPointExtension>
            <ns3:hr>66</ns3:hr>
            <ns3:cad>0</ns3:cad>
          </ns3:TrackPointExtension>
        </extensions>
      </trkpt>
      <trkpt lat="43.77870080061256885528564453125" lon="1.56715345568954944610595703125">
        <ele>133</ele>
        <time>2026-08-13T07:10:51.000Z</time>
        <extensions>
          <ns3:TrackPointExtension>
            <ns3:hr>66</ns3:hr>
            <ns3:cad>0</ns3:cad>
          </ns3:TrackPointExtension>
        </extensions>
      </trkpt>
      <trkpt lat="43.77870080061256885528564453125" lon="1.56715345568954944610595703125">
        <ele>133.1999969482421875</ele>
        <time>2026-08-13T07:10:52.000Z</time>
        <extensions>
          <ns3:TrackPointExtension>
            <ns3:hr>65</ns3:hr>
            <ns3:cad>0</ns3:cad>
          </ns3:TrackPointExtension>
        </extensions>
      </trkpt>
      <trkpt lat="43.77870080061256885528564453125" lon="1.56715345568954944610595703125">
        <ele>133.1999969482421875</ele>
        <time>2026-08-13T07:10:53.000Z</time>
        <extensions>
          <ns3:TrackPointExtension>
            <ns3:hr>64</ns3:hr>
            <ns3:cad>0</ns3:cad>
          </ns3:TrackPointExtension>
        </extensions>
      </trkpt>
      <trkpt lat="43.77870080061256885528564453125" lon="1.56715345568954944610595703125">
        <ele>133.1999969482421875</ele>
        <time>2026-08-13T07:10:54.000Z</time>
        <extensions>
          <ns3:TrackPointExtension>
            <ns3:hr>63</ns3:hr>
            <ns3:cad>0</ns3:cad>
          </ns3:TrackPointExtension>
        </extensions>
      </trkpt>
      <trkpt lat="43.77870080061256885528564453125" lon="1.56715345568954944610595703125">
        <ele>133.1999969482421875</ele>
        <time>2026-08-13T07:10:55.000Z</time>
        <extensions>
          <ns3:TrackPointExtension>
            <ns3:hr>62</ns3:hr>
            <ns3:cad>0</ns3:cad>
          </ns3:TrackPointExtension>
        </extensions>
      </trkpt>
      <trkpt lat="43.77870080061256885528564453125" lon="1.56715345568954944610595703125">
        <ele>133.1999969482421875</ele>
        <time>2026-08-13T07:10:56.000Z</time>
        <extensions>
          <ns3:TrackPointExtension>
            <ns3:hr>61</ns3:hr>
            <ns3:cad>0</ns3:cad>
          </ns3:TrackPointExtension>
        </extensions>
      </trkpt>
      <trkpt lat="43.77870080061256885528564453125" lon="1.56715345568954944610595703125">
        <ele>133.1999969482421875</ele>
        <time>2026-08-13T07:10:57.000Z</time>
        <extensions>
          <ns3:TrackPointExtension>
            <ns3:hr>61</ns3:hr>
            <ns3:cad>0</ns3:cad>
          </ns3:TrackPointExtension>
        </extensions>
      </trkpt>
      <trkpt lat="43.77870080061256885528564453125" lon="1.56715345568954944610595703125">
        <ele>133.1999969482421875</ele>
        <time>2026-08-13T07:10:58.000Z</time>
        <extensions>
          <ns3:TrackPointExtension>
            <ns3:hr>60</ns3:hr>
            <ns3:cad>0</ns3:cad>
          </ns3:TrackPointExtension>
        </extensions>
      </trkpt>
      <trkpt lat="43.77870080061256885528564453125" lon="1.56715345568954944610595703125">
        <ele>133.1999969482421875</ele>
        <time>2026-08-13T07:10:59.000Z</time>
        <extensions>
          <ns3:TrackPointExtension>
            <ns3:hr>60</ns3:hr>
            <ns3:cad>0</ns3:cad>
          </ns3:TrackPointExtension>
        </extensions>
      </trkpt>
      <trkpt lat="43.77870080061256885528564453125" lon="1.56715345568954944610595703125">
        <ele>133.1999969482421875</ele>
        <time>2026-08-13T07:11:00.000Z</time>
        <extensions>
          <ns3:TrackPointExtension>
            <ns3:hr>60</ns3:hr>
            <ns3:cad>0</ns3:cad>
          </ns3:TrackPointExtension>
        </extensions>
      </trkpt>
      <trkpt lat="43.77870080061256885528564453125" lon="1.56715345568954944610595703125">
        <ele>133.1999969482421875</ele>
        <time>2026-08-13T07:11:01.000Z</time>
        <extensions>
          <ns3:TrackPointExtension>
            <ns3:hr>59</ns3:hr>
            <ns3:cad>0</ns3:cad>
          </ns3:TrackPointExtension>
        </extensions>
      </trkpt>
      <trkpt lat="43.77870080061256885528564453125" lon="1.56715345568954944610595703125">
        <ele>133.1999969482421875</ele>
        <time>2026-08-13T07:11:02.000Z</time>
        <extensions>
          <ns3:TrackPointExtension>
            <ns3:hr>59</ns3:hr>
            <ns3:cad>0</ns3:cad>
          </ns3:TrackPointExtension>
        </extensions>
      </trkpt>
      <trkpt lat="43.77870080061256885528564453125" lon="1.56715345568954944610595703125">
        <ele>133.1999969482421875</ele>
        <time>2026-08-13T07:11:03.000Z</time>
        <extensions>
          <ns3:TrackPointExtension>
            <ns3:hr>59</ns3:hr>
            <ns3:cad>0</ns3:cad>
          </ns3:TrackPointExtension>
        </extensions>
      </trkpt>
      <trkpt lat="43.77870080061256885528564453125" lon="1.56715345568954944610595703125">
        <ele>133.1999969482421875</ele>
        <time>2026-08-13T07:11:04.000Z</time>
        <extensions>
          <ns3:TrackPointExtension>
            <ns3:hr>59</ns3:hr>
            <ns3:cad>0</ns3:cad>
          </ns3:TrackPointExtension>
        </extensions>
      </trkpt>
      <trkpt lat="43.77870080061256885528564453125" lon="1.56715345568954944610595703125">
        <ele>133.1999969482421875</ele>
        <time>2026-08-13T07:11:05.000Z</time>
        <extensions>
          <ns3:TrackPointExtension>
            <ns3:hr>59</ns3:hr>
            <ns3:cad>0</ns3:cad>
          </ns3:TrackPointExtension>
        </extensions>
      </trkpt>
      <trkpt lat="43.77870080061256885528564453125" lon="1.56715345568954944610595703125">
        <ele>133.1999969482421875</ele>
        <time>2026-08-13T07:11:06.000Z</time>
        <extensions>
          <ns3:TrackPointExtension>
            <ns3:hr>59</ns3:hr>
            <ns3:cad>0</ns3:cad>
          </ns3:TrackPointExtension>
        </extensions>
      </trkpt>
      <trkpt lat="43.77870080061256885528564453125" lon="1.56715345568954944610595703125">
        <ele>133.1999969482421875</ele>
        <time>2026-08-13T07:11:07.000Z</time>
        <extensions>
          <ns3:TrackPointExtension>
            <ns3:hr>60</ns3:hr>
            <ns3:cad>0</ns3:cad>
          </ns3:TrackPointExtension>
        </extensions>
      </trkpt>
      <trkpt lat="43.77870080061256885528564453125" lon="1.56715345568954944610595703125">
        <ele>133.1999969482421875</ele>
        <time>2026-08-13T07:11:08.000Z</time>
        <extensions>
          <ns3:TrackPointExtension>
            <ns3:hr>60</ns3:hr>
            <ns3:cad>0</ns3:cad>
          </ns3:TrackPointExtension>
        </extensions>
      </trkpt>
      <trkpt lat="43.77870080061256885528564453125" lon="1.56715345568954944610595703125">
        <ele>133</ele>
        <time>2026-08-13T07:11:09.000Z</time>
        <extensions>
          <ns3:TrackPointExtension>
            <ns3:hr>60</ns3:hr>
            <ns3:cad>0</ns3:cad>
          </ns3:TrackPointExtension>
        </extensions>
      </trkpt>
      <trkpt lat="43.77870080061256885528564453125" lon="1.56715345568954944610595703125">
        <ele>133</ele>
        <time>2026-08-13T07:11:10.000Z</time>
        <extensions>
          <ns3:TrackPointExtension>
            <ns3:hr>62</ns3:hr>
            <ns3:cad>0</ns3:cad>
          </ns3:TrackPointExtension>
        </extensions>
      </trkpt>
      <trkpt lat="43.77870080061256885528564453125" lon="1.56715345568954944610595703125">
        <ele>133</ele>
        <time>2026-08-13T07:11:11.000Z</time>
        <extensions>
          <ns3:TrackPointExtension>
            <ns3:hr>62</ns3:hr>
            <ns3:cad>0</ns3:cad>
          </ns3:TrackPointExtension>
        </extensions>
      </trkpt>
      <trkpt lat="43.77870080061256885528564453125" lon="1.56715345568954944610595703125">
        <ele>133</ele>
        <time>2026-08-13T07:11:12.000Z</time>
        <extensions>
          <ns3:TrackPointExtension>
            <ns3:hr>62</ns3:hr>
            <ns3:cad>0</ns3:cad>
          </ns3:TrackPointExtension>
        </extensions>
      </trkpt>
      <trkpt lat="43.77870080061256885528564453125" lon="1.56715345568954944610595703125">
        <ele>133</ele>
        <time>2026-08-13T07:11:13.000Z</time>
        <extensions>
          <ns3:TrackPointExtension>
            <ns3:hr>62</ns3:hr>
            <ns3:cad>0</ns3:cad>
          </ns3:TrackPointExtension>
        </extensions>
      </trkpt>
      <trkpt lat="43.77870080061256885528564453125" lon="1.56715345568954944610595703125">
        <ele>133</ele>
        <time>2026-08-13T07:11:14.000Z</time>
        <extensions>
          <ns3:TrackPointExtension>
            <ns3:hr>62</ns3:hr>
            <ns3:cad>0</ns3:cad>
          </ns3:TrackPointExtension>
        </extensions>
      </trkpt>
      <trkpt lat="43.77870080061256885528564453125" lon="1.56715345568954944610595703125">
        <ele>133</ele>
        <time>2026-08-13T07:11:15.000Z</time>
        <extensions>
          <ns3:TrackPointExtension>
            <ns3:hr>63</ns3:hr>
            <ns3:cad>0</ns3:cad>
          </ns3:TrackPointExtension>
        </extensions>
      </trkpt>
      <trkpt lat="43.77870080061256885528564453125" lon="1.56715345568954944610595703125">
        <ele>133</ele>
        <time>2026-08-13T07:11:16.000Z</time>
        <extensions>
          <ns3:TrackPointExtension>
            <ns3:hr>63</ns3:hr>
            <ns3:cad>0</ns3:cad>
          </ns3:TrackPointExtension>
        </extensions>
      </trkpt>
      <trkpt lat="43.77870080061256885528564453125" lon="1.56715345568954944610595703125">
        <ele>133</ele>
        <time>2026-08-13T07:11:17.000Z</time>
        <extensions>
          <ns3:TrackPointExtension>
            <ns3:hr>63</ns3:hr>
            <ns3:cad>0</ns3:cad>
          </ns3:TrackPointExtension>
        </extensions>
      </trkpt>
      <trkpt lat="43.77870080061256885528564453125" lon="1.56715345568954944610595703125">
        <ele>133</ele>
        <time>2026-08-13T07:11:18.000Z</time>
        <extensions>
          <ns3:TrackPointExtension>
            <ns3:hr>63</ns3:hr>
            <ns3:cad>0</ns3:cad>
          </ns3:TrackPointExtension>
        </extensions>
      </trkpt>
      <trkpt lat="43.77870080061256885528564453125" lon="1.56715345568954944610595703125">
        <ele>133</ele>
        <time>2026-08-13T07:11:19.000Z</time>
        <extensions>
          <ns3:TrackPointExtension>
            <ns3:hr>63</ns3:hr>
            <ns3:cad>0</ns3:cad>
          </ns3:TrackPointExtension>
        </extensions>
      </trkpt>
      <trkpt lat="43.77870080061256885528564453125" lon="1.56715345568954944610595703125">
        <ele>133</ele>
        <time>2026-08-13T07:11:20.000Z</time>
        <extensions>
          <ns3:TrackPointExtension>
            <ns3:hr>63</ns3:hr>
            <ns3:cad>0</ns3:cad>
          </ns3:TrackPointExtension>
        </extensions>
      </trkpt>
      <trkpt lat="43.77870080061256885528564453125" lon="1.56715345568954944610595703125">
        <ele>133</ele>
        <time>2026-08-13T07:11:21.000Z</time>
        <extensions>
          <ns3:TrackPointExtension>
            <ns3:hr>63</ns3:hr>
            <ns3:cad>0</ns3:cad>
          </ns3:TrackPointExtension>
        </extensions>
      </trkpt>
      <trkpt lat="43.77870080061256885528564453125" lon="1.56715345568954944610595703125">
        <ele>133</ele>
        <time>2026-08-13T07:11:22.000Z</time>
        <extensions>
          <ns3:TrackPointExtension>
            <ns3:hr>63</ns3:hr>
            <ns3:cad>0</ns3:cad>
          </ns3:TrackPointExtension>
        </extensions>
      </trkpt>
      <trkpt lat="43.77870080061256885528564453125" lon="1.56715345568954944610595703125">
        <ele>133</ele>
        <time>2026-08-13T07:11:23.000Z</time>
        <extensions>
          <ns3:TrackPointExtension>
            <ns3:hr>63</ns3:hr>
            <ns3:cad>0</ns3:cad>
          </ns3:TrackPointExtension>
        </extensions>
      </trkpt>
      <trkpt lat="43.77870080061256885528564453125" lon="1.56715345568954944610595703125">
        <ele>133</ele>
        <time>2026-08-13T07:11:24.000Z</time>
        <extensions>
          <ns3:TrackPointExtension>
            <ns3:hr>62</ns3:hr>
            <ns3:cad>0</ns3:cad>
          </ns3:TrackPointExtension>
        </extensions>
      </trkpt>
      <trkpt lat="43.77870080061256885528564453125" lon="1.56715345568954944610595703125">
        <ele>133</ele>
        <time>2026-08-13T07:11:25.000Z</time>
        <extensions>
          <ns3:TrackPointExtension>
            <ns3:hr>63</ns3:hr>
            <ns3:cad>0</ns3:cad>
          </ns3:TrackPointExtension>
        </extensions>
      </trkpt>
      <trkpt lat="43.77870080061256885528564453125" lon="1.56715345568954944610595703125">
        <ele>133</ele>
        <time>2026-08-13T07:11:26.000Z</time>
        <extensions>
          <ns3:TrackPointExtension>
            <ns3:hr>63</ns3:hr>
            <ns3:cad>0</ns3:cad>
          </ns3:TrackPointExtension>
        </extensions>
      </trkpt>
      <trkpt lat="43.77870080061256885528564453125" lon="1.56715345568954944610595703125">
        <ele>133</ele>
        <time>2026-08-13T07:11:27.000Z</time>
        <extensions>
          <ns3:TrackPointExtension>
            <ns3:hr>63</ns3:hr>
            <ns3:cad>0</ns3:cad>
          </ns3:TrackPointExtension>
        </extensions>
      </trkpt>
      <trkpt lat="43.77870080061256885528564453125" lon="1.56715345568954944610595703125">
        <ele>133</ele>
        <time>2026-08-13T07:11:28.000Z</time>
        <extensions>
          <ns3:TrackPointExtension>
            <ns3:hr>63</ns3:hr>
            <ns3:cad>0</ns3:cad>
          </ns3:TrackPointExtension>
        </extensions>
      </trkpt>
      <trkpt lat="43.77870080061256885528564453125" lon="1.56715345568954944610595703125">
        <ele>133</ele>
        <time>2026-08-13T07:11:29.000Z</time>
        <extensions>
          <ns3:TrackPointExtension>
            <ns3:hr>64</ns3:hr>
            <ns3:cad>0</ns3:cad>
          </ns3:TrackPointExtension>
        </extensions>
      </trkpt>
      <trkpt lat="43.77870080061256885528564453125" lon="1.56715345568954944610595703125">
        <ele>133</ele>
        <time>2026-08-13T07:11:30.000Z</time>
        <extensions>
          <ns3:TrackPointExtension>
            <ns3:hr>65</ns3:hr>
            <ns3:cad>0</ns3:cad>
          </ns3:TrackPointExtension>
        </extensions>
      </trkpt>
      <trkpt lat="43.77870080061256885528564453125" lon="1.56715345568954944610595703125">
        <ele>133</ele>
        <time>2026-08-13T07:11:31.000Z</time>
        <extensions>
          <ns3:TrackPointExtension>
            <ns3:hr>66</ns3:hr>
            <ns3:cad>0</ns3:cad>
          </ns3:TrackPointExtension>
        </extensions>
      </trkpt>
      <trkpt lat="43.77870080061256885528564453125" lon="1.56715345568954944610595703125">
        <ele>133</ele>
        <time>2026-08-13T07:11:32.000Z</time>
        <extensions>
          <ns3:TrackPointExtension>
            <ns3:hr>68</ns3:hr>
            <ns3:cad>0</ns3:cad>
          </ns3:TrackPointExtension>
        </extensions>
      </trkpt>
      <trkpt lat="43.77870080061256885528564453125" lon="1.56715345568954944610595703125">
        <ele>133</ele>
        <time>2026-08-13T07:11:33.000Z</time>
        <extensions>
          <ns3:TrackPointExtension>
            <ns3:hr>68</ns3:hr>
            <ns3:cad>0</ns3:cad>
          </ns3:TrackPointExtension>
        </extensions>
      </trkpt>
      <trkpt lat="43.77870080061256885528564453125" lon="1.56715345568954944610595703125">
        <ele>133</ele>
        <time>2026-08-13T07:11:34.000Z</time>
        <extensions>
          <ns3:TrackPointExtension>
            <ns3:hr>69</ns3:hr>
            <ns3:cad>0</ns3:cad>
          </ns3:TrackPointExtension>
        </extensions>
      </trkpt>
      <trkpt lat="43.77870080061256885528564453125" lon="1.56715345568954944610595703125">
        <ele>133</ele>
        <time>2026-08-13T07:11:35.000Z</time>
        <extensions>
          <ns3:TrackPointExtension>
            <ns3:hr>69</ns3:hr>
            <ns3:cad>0</ns3:cad>
          </ns3:TrackPointExtension>
        </extensions>
      </trkpt>
      <trkpt lat="43.77870080061256885528564453125" lon="1.56715345568954944610595703125">
        <ele>133</ele>
        <time>2026-08-13T07:11:36.000Z</time>
        <extensions>
          <ns3:TrackPointExtension>
            <ns3:hr>69</ns3:hr>
            <ns3:cad>0</ns3:cad>
          </ns3:TrackPointExtension>
        </extensions>
      </trkpt>
      <trkpt lat="43.77870080061256885528564453125" lon="1.56715345568954944610595703125">
        <ele>133</ele>
        <time>2026-08-13T07:11:37.000Z</time>
        <extensions>
          <ns3:TrackPointExtension>
            <ns3:hr>69</ns3:hr>
            <ns3:cad>0</ns3:cad>
          </ns3:TrackPointExtension>
        </extensions>
      </trkpt>
      <trkpt lat="43.77870080061256885528564453125" lon="1.56715345568954944610595703125">
        <ele>133</ele>
        <time>2026-08-13T07:11:38.000Z</time>
        <extensions>
          <ns3:TrackPointExtension>
            <ns3:hr>68</ns3:hr>
            <ns3:cad>0</ns3:cad>
          </ns3:TrackPointExtension>
        </extensions>
      </trkpt>
      <trkpt lat="43.77870080061256885528564453125" lon="1.56715345568954944610595703125">
        <ele>133</ele>
        <time>2026-08-13T07:11:39.000Z</time>
        <extensions>
          <ns3:TrackPointExtension>
            <ns3:hr>68</ns3:hr>
            <ns3:cad>0</ns3:cad>
          </ns3:TrackPointExtension>
        </extensions>
      </trkpt>
      <trkpt lat="43.77870080061256885528564453125" lon="1.56715345568954944610595703125">
        <ele>133</ele>
        <time>2026-08-13T07:11:40.000Z</time>
        <extensions>
          <ns3:TrackPointExtension>
            <ns3:hr>67</ns3:hr>
            <ns3:cad>0</ns3:cad>
          </ns3:TrackPointExtension>
        </extensions>
      </trkpt>
      <trkpt lat="43.77870080061256885528564453125" lon="1.56715345568954944610595703125">
        <ele>133</ele>
        <time>2026-08-13T07:11:41.000Z</time>
        <extensions>
          <ns3:TrackPointExtension>
            <ns3:hr>67</ns3:hr>
            <ns3:cad>0</ns3:cad>
          </ns3:TrackPointExtension>
        </extensions>
      </trkpt>
      <trkpt lat="43.77870080061256885528564453125" lon="1.56715345568954944610595703125">
        <ele>133</ele>
        <time>2026-08-13T07:11:42.000Z</time>
        <extensions>
          <ns3:TrackPointExtension>
            <ns3:hr>67</ns3:hr>
            <ns3:cad>0</ns3:cad>
          </ns3:TrackPointExtension>
        </extensions>
      </trkpt>
      <trkpt lat="43.77870080061256885528564453125" lon="1.56715345568954944610595703125">
        <ele>133.1999969482421875</ele>
        <time>2026-08-13T07:11:43.000Z</time>
        <extensions>
          <ns3:TrackPointExtension>
            <ns3:hr>67</ns3:hr>
            <ns3:cad>0</ns3:cad>
          </ns3:TrackPointExtension>
        </extensions>
      </trkpt>
      <trkpt lat="43.77870080061256885528564453125" lon="1.56715345568954944610595703125">
        <ele>133</ele>
        <time>2026-08-13T07:11:44.000Z</time>
        <extensions>
          <ns3:TrackPointExtension>
            <ns3:hr>68</ns3:hr>
            <ns3:cad>0</ns3:cad>
          </ns3:TrackPointExtension>
        </extensions>
      </trkpt>
      <trkpt lat="43.77870080061256885528564453125" lon="1.56715345568954944610595703125">
        <ele>133</ele>
        <time>2026-08-13T07:11:45.000Z</time>
        <extensions>
          <ns3:TrackPointExtension>
            <ns3:hr>67</ns3:hr>
            <ns3:cad>0</ns3:cad>
          </ns3:TrackPointExtension>
        </extensions>
      </trkpt>
      <trkpt lat="43.77870080061256885528564453125" lon="1.56715345568954944610595703125">
        <ele>133</ele>
        <time>2026-08-13T07:11:46.000Z</time>
        <extensions>
          <ns3:TrackPointExtension>
            <ns3:hr>66</ns3:hr>
            <ns3:cad>0</ns3:cad>
          </ns3:TrackPointExtension>
        </extensions>
      </trkpt>
      <trkpt lat="43.77870080061256885528564453125" lon="1.56715345568954944610595703125">
        <ele>133</ele>
        <time>2026-08-13T07:11:47.000Z</time>
        <extensions>
          <ns3:TrackPointExtension>
            <ns3:hr>65</ns3:hr>
            <ns3:cad>0</ns3:cad>
          </ns3:TrackPointExtension>
        </extensions>
      </trkpt>
      <trkpt lat="43.77870080061256885528564453125" lon="1.56715345568954944610595703125">
        <ele>133</ele>
        <time>2026-08-13T07:11:48.000Z</time>
        <extensions>
          <ns3:TrackPointExtension>
            <ns3:hr>62</ns3:hr>
            <ns3:cad>0</ns3:cad>
          </ns3:TrackPointExtension>
        </extensions>
      </trkpt>
      <trkpt lat="43.77870080061256885528564453125" lon="1.56715345568954944610595703125">
        <ele>133</ele>
        <time>2026-08-13T07:11:49.000Z</time>
        <extensions>
          <ns3:TrackPointExtension>
            <ns3:hr>60</ns3:hr>
            <ns3:cad>0</ns3:cad>
          </ns3:TrackPointExtension>
        </extensions>
      </trkpt>
      <trkpt lat="43.77870080061256885528564453125" lon="1.56715345568954944610595703125">
        <ele>133</ele>
        <time>2026-08-13T07:11:50.000Z</time>
        <extensions>
          <ns3:TrackPointExtension>
            <ns3:hr>59</ns3:hr>
            <ns3:cad>0</ns3:cad>
          </ns3:TrackPointExtension>
        </extensions>
      </trkpt>
      <trkpt lat="43.77870080061256885528564453125" lon="1.56715345568954944610595703125">
        <ele>133</ele>
        <time>2026-08-13T07:11:51.000Z</time>
        <extensions>
          <ns3:TrackPointExtension>
            <ns3:hr>60</ns3:hr>
            <ns3:cad>0</ns3:cad>
          </ns3:TrackPointExtension>
        </extensions>
      </trkpt>
      <trkpt lat="43.77870080061256885528564453125" lon="1.56715345568954944610595703125">
        <ele>133</ele>
        <time>2026-08-13T07:11:52.000Z</time>
        <extensions>
          <ns3:TrackPointExtension>
            <ns3:hr>60</ns3:hr>
            <ns3:cad>0</ns3:cad>
          </ns3:TrackPointExtension>
        </extensions>
      </trkpt>
      <trkpt lat="43.77870080061256885528564453125" lon="1.56715345568954944610595703125">
        <ele>133.1999969482421875</ele>
        <time>2026-08-13T07:11:53.000Z</time>
        <extensions>
          <ns3:TrackPointExtension>
            <ns3:hr>60</ns3:hr>
            <ns3:cad>0</ns3:cad>
          </ns3:TrackPointExtension>
        </extensions>
      </trkpt>
      <trkpt lat="43.77870080061256885528564453125" lon="1.56715345568954944610595703125">
        <ele>133.1999969482421875</ele>
        <time>2026-08-13T07:11:54.000Z</time>
        <extensions>
          <ns3:TrackPointExtension>
            <ns3:hr>60</ns3:hr>
            <ns3:cad>0</ns3:cad>
          </ns3:TrackPointExtension>
        </extensions>
      </trkpt>
      <trkpt lat="43.77870080061256885528564453125" lon="1.56715345568954944610595703125">
        <ele>133.1999969482421875</ele>
        <time>2026-08-13T07:11:55.000Z</time>
        <extensions>
          <ns3:TrackPointExtension>
            <ns3:hr>61</ns3:hr>
            <ns3:cad>0</ns3:cad>
          </ns3:TrackPointExtension>
        </extensions>
      </trkpt>
      <trkpt lat="43.77870080061256885528564453125" lon="1.56715345568954944610595703125">
        <ele>133.1999969482421875</ele>
        <time>2026-08-13T07:11:56.000Z</time>
        <extensions>
          <ns3:TrackPointExtension>
            <ns3:hr>61</ns3:hr>
            <ns3:cad>0</ns3:cad>
          </ns3:TrackPointExtension>
        </extensions>
      </trkpt>
      <trkpt lat="43.77870080061256885528564453125" lon="1.56715345568954944610595703125">
        <ele>133.1999969482421875</ele>
        <time>2026-08-13T07:11:57.000Z</time>
        <extensions>
          <ns3:TrackPointExtension>
            <ns3:hr>61</ns3:hr>
            <ns3:cad>0</ns3:cad>
          </ns3:TrackPointExtension>
        </extensions>
      </trkpt>
      <trkpt lat="43.77870080061256885528564453125" lon="1.56715345568954944610595703125">
        <ele>133.1999969482421875</ele>
        <time>2026-08-13T07:11:58.000Z</time>
        <extensions>
          <ns3:TrackPointExtension>
            <ns3:hr>61</ns3:hr>
            <ns3:cad>0</ns3:cad>
          </ns3:TrackPointExtension>
        </extensions>
      </trkpt>
      <trkpt lat="43.77870080061256885528564453125" lon="1.56715345568954944610595703125">
        <ele>133.1999969482421875</ele>
        <time>2026-08-13T07:11:59.000Z</time>
        <extensions>
          <ns3:TrackPointExtension>
            <ns3:hr>61</ns3:hr>
            <ns3:cad>0</ns3:cad>
          </ns3:TrackPointExtension>
        </extensions>
      </trkpt>
      <trkpt lat="43.77870080061256885528564453125" lon="1.56715345568954944610595703125">
        <ele>133.1999969482421875</ele>
        <time>2026-08-13T07:12:00.000Z</time>
        <extensions>
          <ns3:TrackPointExtension>
            <ns3:hr>61</ns3:hr>
            <ns3:cad>0</ns3:cad>
          </ns3:TrackPointExtension>
        </extensions>
      </trkpt>
      <trkpt lat="43.77870080061256885528564453125" lon="1.56715345568954944610595703125">
        <ele>133.1999969482421875</ele>
        <time>2026-08-13T07:12:01.000Z</time>
        <extensions>
          <ns3:TrackPointExtension>
            <ns3:hr>62</ns3:hr>
            <ns3:cad>0</ns3:cad>
          </ns3:TrackPointExtension>
        </extensions>
      </trkpt>
      <trkpt lat="43.77870080061256885528564453125" lon="1.56715345568954944610595703125">
        <ele>133</ele>
        <time>2026-08-13T07:12:02.000Z</time>
        <extensions>
          <ns3:TrackPointExtension>
            <ns3:hr>62</ns3:hr>
            <ns3:cad>0</ns3:cad>
          </ns3:TrackPointExtension>
        </extensions>
      </trkpt>
      <trkpt lat="43.77870080061256885528564453125" lon="1.56715345568954944610595703125">
        <ele>133</ele>
        <time>2026-08-13T07:12:03.000Z</time>
        <extensions>
          <ns3:TrackPointExtension>
            <ns3:hr>62</ns3:hr>
            <ns3:cad>0</ns3:cad>
          </ns3:TrackPointExtension>
        </extensions>
      </trkpt>
      <trkpt lat="43.77870080061256885528564453125" lon="1.56715345568954944610595703125">
        <ele>133</ele>
        <time>2026-08-13T07:12:04.000Z</time>
        <extensions>
          <ns3:TrackPointExtension>
            <ns3:hr>62</ns3:hr>
            <ns3:cad>0</ns3:cad>
          </ns3:TrackPointExtension>
        </extensions>
      </trkpt>
      <trkpt lat="43.77870080061256885528564453125" lon="1.56715345568954944610595703125">
        <ele>133</ele>
        <time>2026-08-13T07:12:05.000Z</time>
        <extensions>
          <ns3:TrackPointExtension>
            <ns3:hr>63</ns3:hr>
            <ns3:cad>0</ns3:cad>
          </ns3:TrackPointExtension>
        </extensions>
      </trkpt>
      <trkpt lat="43.77870080061256885528564453125" lon="1.56715345568954944610595703125">
        <ele>133</ele>
        <time>2026-08-13T07:12:06.000Z</time>
        <extensions>
          <ns3:TrackPointExtension>
            <ns3:hr>64</ns3:hr>
            <ns3:cad>0</ns3:cad>
          </ns3:TrackPointExtension>
        </extensions>
      </trkpt>
      <trkpt lat="43.77870080061256885528564453125" lon="1.56715345568954944610595703125">
        <ele>133.1999969482421875</ele>
        <time>2026-08-13T07:12:07.000Z</time>
        <extensions>
          <ns3:TrackPointExtension>
            <ns3:hr>63</ns3:hr>
            <ns3:cad>0</ns3:cad>
          </ns3:TrackPointExtension>
        </extensions>
      </trkpt>
      <trkpt lat="43.77870080061256885528564453125" lon="1.56715345568954944610595703125">
        <ele>133.1999969482421875</ele>
        <time>2026-08-13T07:12:08.000Z</time>
        <extensions>
          <ns3:TrackPointExtension>
            <ns3:hr>64</ns3:hr>
            <ns3:cad>0</ns3:cad>
          </ns3:TrackPointExtension>
        </extensions>
      </trkpt>
      <trkpt lat="43.77870080061256885528564453125" lon="1.56715345568954944610595703125">
        <ele>133.1999969482421875</ele>
        <time>2026-08-13T07:12:09.000Z</time>
        <extensions>
          <ns3:TrackPointExtension>
            <ns3:hr>64</ns3:hr>
            <ns3:cad>0</ns3:cad>
          </ns3:TrackPointExtension>
        </extensions>
      </trkpt>
      <trkpt lat="43.77870080061256885528564453125" lon="1.56715345568954944610595703125">
        <ele>133.1999969482421875</ele>
        <time>2026-08-13T07:12:10.000Z</time>
        <extensions>
          <ns3:TrackPointExtension>
            <ns3:hr>64</ns3:hr>
            <ns3:cad>0</ns3:cad>
          </ns3:TrackPointExtension>
        </extensions>
      </trkpt>
      <trkpt lat="43.77870080061256885528564453125" lon="1.56715345568954944610595703125">
        <ele>133.1999969482421875</ele>
        <time>2026-08-13T07:12:11.000Z</time>
        <extensions>
          <ns3:TrackPointExtension>
            <ns3:hr>65</ns3:hr>
            <ns3:cad>0</ns3:cad>
          </ns3:TrackPointExtension>
        </extensions>
      </trkpt>
      <trkpt lat="43.77870080061256885528564453125" lon="1.56715345568954944610595703125">
        <ele>133.1999969482421875</ele>
        <time>2026-08-13T07:12:12.000Z</time>
        <extensions>
          <ns3:TrackPointExtension>
            <ns3:hr>65</ns3:hr>
            <ns3:cad>0</ns3:cad>
          </ns3:TrackPointExtension>
        </extensions>
      </trkpt>
      <trkpt lat="43.77870080061256885528564453125" lon="1.56715345568954944610595703125">
        <ele>133.1999969482421875</ele>
        <time>2026-08-13T07:12:13.000Z</time>
        <extensions>
          <ns3:TrackPointExtension>
            <ns3:hr>65</ns3:hr>
            <ns3:cad>0</ns3:cad>
          </ns3:TrackPointExtension>
        </extensions>
      </trkpt>
      <trkpt lat="43.77870080061256885528564453125" lon="1.56715345568954944610595703125">
        <ele>133.1999969482421875</ele>
        <time>2026-08-13T07:12:14.000Z</time>
        <extensions>
          <ns3:TrackPointExtension>
            <ns3:hr>65</ns3:hr>
            <ns3:cad>0</ns3:cad>
          </ns3:TrackPointExtension>
        </extensions>
      </trkpt>
      <trkpt lat="43.77870080061256885528564453125" lon="1.56715345568954944610595703125">
        <ele>133.1999969482421875</ele>
        <time>2026-08-13T07:12:15.000Z</time>
        <extensions>
          <ns3:TrackPointExtension>
            <ns3:hr>64</ns3:hr>
            <ns3:cad>0</ns3:cad>
          </ns3:TrackPointExtension>
        </extensions>
      </trkpt>
      <trkpt lat="43.77870080061256885528564453125" lon="1.56715345568954944610595703125">
        <ele>133.1999969482421875</ele>
        <time>2026-08-13T07:12:16.000Z</time>
        <extensions>
          <ns3:TrackPointExtension>
            <ns3:hr>65</ns3:hr>
            <ns3:cad>0</ns3:cad>
          </ns3:TrackPointExtension>
        </extensions>
      </trkpt>
      <trkpt lat="43.77870080061256885528564453125" lon="1.56715345568954944610595703125">
        <ele>133.1999969482421875</ele>
        <time>2026-08-13T07:12:17.000Z</time>
        <extensions>
          <ns3:TrackPointExtension>
            <ns3:hr>66</ns3:hr>
            <ns3:cad>0</ns3:cad>
          </ns3:TrackPointExtension>
        </extensions>
      </trkpt>
      <trkpt lat="43.77870080061256885528564453125" lon="1.56715345568954944610595703125">
        <ele>133.1999969482421875</ele>
        <time>2026-08-13T07:12:18.000Z</time>
        <extensions>
          <ns3:TrackPointExtension>
            <ns3:hr>67</ns3:hr>
            <ns3:cad>0</ns3:cad>
          </ns3:TrackPointExtension>
        </extensions>
      </trkpt>
      <trkpt lat="43.77870080061256885528564453125" lon="1.56715345568954944610595703125">
        <ele>133.1999969482421875</ele>
        <time>2026-08-13T07:12:19.000Z</time>
        <extensions>
          <ns3:TrackPointExtension>
            <ns3:hr>68</ns3:hr>
            <ns3:cad>0</ns3:cad>
          </ns3:TrackPointExtension>
        </extensions>
      </trkpt>
      <trkpt lat="43.77870080061256885528564453125" lon="1.56715345568954944610595703125">
        <ele>133.1999969482421875</ele>
        <time>2026-08-13T07:12:20.000Z</time>
        <extensions>
          <ns3:TrackPointExtension>
            <ns3:hr>68</ns3:hr>
            <ns3:cad>0</ns3:cad>
          </ns3:TrackPointExtension>
        </extensions>
      </trkpt>
      <trkpt lat="43.77870080061256885528564453125" lon="1.56715345568954944610595703125">
        <ele>133.1999969482421875</ele>
        <time>2026-08-13T07:12:21.000Z</time>
        <extensions>
          <ns3:TrackPointExtension>
            <ns3:hr>68</ns3:hr>
            <ns3:cad>0</ns3:cad>
          </ns3:TrackPointExtension>
        </extensions>
      </trkpt>
      <trkpt lat="43.77870080061256885528564453125" lon="1.56715345568954944610595703125">
        <ele>133.399993896484375</ele>
        <time>2026-08-13T07:12:22.000Z</time>
        <extensions>
          <ns3:TrackPointExtension>
            <ns3:hr>67</ns3:hr>
            <ns3:cad>0</ns3:cad>
          </ns3:TrackPointExtension>
        </extensions>
      </trkpt>
      <trkpt lat="43.77870080061256885528564453125" lon="1.56715345568954944610595703125">
        <ele>133.399993896484375</ele>
        <time>2026-08-13T07:12:23.000Z</time>
        <extensions>
          <ns3:TrackPointExtension>
            <ns3:hr>66</ns3:hr>
            <ns3:cad>0</ns3:cad>
          </ns3:TrackPointExtension>
        </extensions>
      </trkpt>
      <trkpt lat="43.77870080061256885528564453125" lon="1.56715345568954944610595703125">
        <ele>133.600006103515625</ele>
        <time>2026-08-13T07:12:24.000Z</time>
        <extensions>
          <ns3:TrackPointExtension>
            <ns3:hr>66</ns3:hr>
            <ns3:cad>0</ns3:cad>
          </ns3:TrackPointExtension>
        </extensions>
      </trkpt>
      <trkpt lat="43.77870080061256885528564453125" lon="1.56715345568954944610595703125">
        <ele>133.600006103515625</ele>
        <time>2026-08-13T07:12:25.000Z</time>
        <extensions>
          <ns3:TrackPointExtension>
            <ns3:hr>65</ns3:hr>
            <ns3:cad>0</ns3:cad>
          </ns3:TrackPointExtension>
        </extensions>
      </trkpt>
      <trkpt lat="43.77870080061256885528564453125" lon="1.56715345568954944610595703125">
        <ele>133.600006103515625</ele>
        <time>2026-08-13T07:12:26.000Z</time>
        <extensions>
          <ns3:TrackPointExtension>
            <ns3:hr>63</ns3:hr>
            <ns3:cad>0</ns3:cad>
          </ns3:TrackPointExtension>
        </extensions>
      </trkpt>
      <trkpt lat="43.77870080061256885528564453125" lon="1.56715345568954944610595703125">
        <ele>133.399993896484375</ele>
        <time>2026-08-13T07:12:27.000Z</time>
        <extensions>
          <ns3:TrackPointExtension>
            <ns3:hr>63</ns3:hr>
            <ns3:cad>0</ns3:cad>
          </ns3:TrackPointExtension>
        </extensions>
      </trkpt>
      <trkpt lat="43.77870080061256885528564453125" lon="1.56715345568954944610595703125">
        <ele>133.399993896484375</ele>
        <time>2026-08-13T07:12:28.000Z</time>
        <extensions>
          <ns3:TrackPointExtension>
            <ns3:hr>63</ns3:hr>
            <ns3:cad>0</ns3:cad>
          </ns3:TrackPointExtension>
        </extensions>
      </trkpt>
      <trkpt lat="43.77870080061256885528564453125" lon="1.56715345568954944610595703125">
        <ele>133.1999969482421875</ele>
        <time>2026-08-13T07:12:29.000Z</time>
        <extensions>
          <ns3:TrackPointExtension>
            <ns3:hr>63</ns3:hr>
            <ns3:cad>0</ns3:cad>
          </ns3:TrackPointExtension>
        </extensions>
      </trkpt>
      <trkpt lat="43.77870080061256885528564453125" lon="1.56715345568954944610595703125">
        <ele>133.1999969482421875</ele>
        <time>2026-08-13T07:12:30.000Z</time>
        <extensions>
          <ns3:TrackPointExtension>
            <ns3:hr>65</ns3:hr>
            <ns3:cad>0</ns3:cad>
          </ns3:TrackPointExtension>
        </extensions>
      </trkpt>
      <trkpt lat="43.77870080061256885528564453125" lon="1.56715345568954944610595703125">
        <ele>133.1999969482421875</ele>
        <time>2026-08-13T07:12:31.000Z</time>
        <extensions>
          <ns3:TrackPointExtension>
            <ns3:hr>66</ns3:hr>
            <ns3:cad>0</ns3:cad>
          </ns3:TrackPointExtension>
        </extensions>
      </trkpt>
      <trkpt lat="43.77870080061256885528564453125" lon="1.56715345568954944610595703125">
        <ele>133.1999969482421875</ele>
        <time>2026-08-13T07:12:32.000Z</time>
        <extensions>
          <ns3:TrackPointExtension>
            <ns3:hr>70</ns3:hr>
            <ns3:cad>0</ns3:cad>
          </ns3:TrackPointExtension>
        </extensions>
      </trkpt>
      <trkpt lat="43.77870080061256885528564453125" lon="1.56715345568954944610595703125">
        <ele>133.1999969482421875</ele>
        <time>2026-08-13T07:12:33.000Z</time>
        <extensions>
          <ns3:TrackPointExtension>
            <ns3:hr>71</ns3:hr>
            <ns3:cad>0</ns3:cad>
          </ns3:TrackPointExtension>
        </extensions>
      </trkpt>
      <trkpt lat="43.77870080061256885528564453125" lon="1.56715345568954944610595703125">
        <ele>133.1999969482421875</ele>
        <time>2026-08-13T07:12:34.000Z</time>
        <extensions>
          <ns3:TrackPointExtension>
            <ns3:hr>71</ns3:hr>
            <ns3:cad>0</ns3:cad>
          </ns3:TrackPointExtension>
        </extensions>
      </trkpt>
      <trkpt lat="43.77870080061256885528564453125" lon="1.56715345568954944610595703125">
        <ele>133.1999969482421875</ele>
        <time>2026-08-13T07:12:35.000Z</time>
        <extensions>
          <ns3:TrackPointExtension>
            <ns3:hr>70</ns3:hr>
            <ns3:cad>0</ns3:cad>
          </ns3:TrackPointExtension>
        </extensions>
      </trkpt>
      <trkpt lat="43.77870080061256885528564453125" lon="1.56715345568954944610595703125">
        <ele>133.1999969482421875</ele>
        <time>2026-08-13T07:12:36.000Z</time>
        <extensions>
          <ns3:TrackPointExtension>
            <ns3:hr>69</ns3:hr>
            <ns3:cad>0</ns3:cad>
          </ns3:TrackPointExtension>
        </extensions>
      </trkpt>
      <trkpt lat="43.77870080061256885528564453125" lon="1.56715345568954944610595703125">
        <ele>133.1999969482421875</ele>
        <time>2026-08-13T07:12:37.000Z</time>
        <extensions>
          <ns3:TrackPointExtension>
            <ns3:hr>65</ns3:hr>
            <ns3:cad>0</ns3:cad>
          </ns3:TrackPointExtension>
        </extensions>
      </trkpt>
      <trkpt lat="43.77870080061256885528564453125" lon="1.56715345568954944610595703125">
        <ele>133.1999969482421875</ele>
        <time>2026-08-13T07:12:38.000Z</time>
        <extensions>
          <ns3:TrackPointExtension>
            <ns3:hr>64</ns3:hr>
            <ns3:cad>0</ns3:cad>
          </ns3:TrackPointExtension>
        </extensions>
      </trkpt>
      <trkpt lat="43.77870080061256885528564453125" lon="1.56715345568954944610595703125">
        <ele>133.1999969482421875</ele>
        <time>2026-08-13T07:12:39.000Z</time>
        <extensions>
          <ns3:TrackPointExtension>
            <ns3:hr>62</ns3:hr>
            <ns3:cad>0</ns3:cad>
          </ns3:TrackPointExtension>
        </extensions>
      </trkpt>
      <trkpt lat="43.77870080061256885528564453125" lon="1.56715345568954944610595703125">
        <ele>133.1999969482421875</ele>
        <time>2026-08-13T07:12:40.000Z</time>
        <extensions>
          <ns3:TrackPointExtension>
            <ns3:hr>62</ns3:hr>
            <ns3:cad>0</ns3:cad>
          </ns3:TrackPointExtension>
        </extensions>
      </trkpt>
      <trkpt lat="43.77870080061256885528564453125" lon="1.56715345568954944610595703125">
        <ele>133.1999969482421875</ele>
        <time>2026-08-13T07:12:41.000Z</time>
        <extensions>
          <ns3:TrackPointExtension>
            <ns3:hr>62</ns3:hr>
            <ns3:cad>0</ns3:cad>
          </ns3:TrackPointExtension>
        </extensions>
      </trkpt>
      <trkpt lat="43.77870080061256885528564453125" lon="1.56715345568954944610595703125">
        <ele>133.1999969482421875</ele>
        <time>2026-08-13T07:12:42.000Z</time>
        <extensions>
          <ns3:TrackPointExtension>
            <ns3:hr>63</ns3:hr>
            <ns3:cad>0</ns3:cad>
          </ns3:TrackPointExtension>
        </extensions>
      </trkpt>
      <trkpt lat="43.77870080061256885528564453125" lon="1.56715345568954944610595703125">
        <ele>133.1999969482421875</ele>
        <time>2026-08-13T07:12:43.000Z</time>
        <extensions>
          <ns3:TrackPointExtension>
            <ns3:hr>64</ns3:hr>
            <ns3:cad>0</ns3:cad>
          </ns3:TrackPointExtension>
        </extensions>
      </trkpt>
      <trkpt lat="43.77870080061256885528564453125" lon="1.56715345568954944610595703125">
        <ele>133.399993896484375</ele>
        <time>2026-08-13T07:12:44.000Z</time>
        <extensions>
          <ns3:TrackPointExtension>
            <ns3:hr>65</ns3:hr>
            <ns3:cad>0</ns3:cad>
          </ns3:TrackPointExtension>
        </extensions>
      </trkpt>
      <trkpt lat="43.77870080061256885528564453125" lon="1.56715345568954944610595703125">
        <ele>133.399993896484375</ele>
        <time>2026-08-13T07:12:45.000Z</time>
        <extensions>
          <ns3:TrackPointExtension>
            <ns3:hr>65</ns3:hr>
            <ns3:cad>0</ns3:cad>
          </ns3:TrackPointExtension>
        </extensions>
      </trkpt>
      <trkpt lat="43.77870080061256885528564453125" lon="1.56715345568954944610595703125">
        <ele>133.399993896484375</ele>
        <time>2026-08-13T07:12:46.000Z</time>
        <extensions>
          <ns3:TrackPointExtension>
            <ns3:hr>66</ns3:hr>
            <ns3:cad>0</ns3:cad>
          </ns3:TrackPointExtension>
        </extensions>
      </trkpt>
      <trkpt lat="43.77870080061256885528564453125" lon="1.56715345568954944610595703125">
        <ele>133.399993896484375</ele>
        <time>2026-08-13T07:12:47.000Z</time>
        <extensions>
          <ns3:TrackPointExtension>
            <ns3:hr>67</ns3:hr>
            <ns3:cad>0</ns3:cad>
          </ns3:TrackPointExtension>
        </extensions>
      </trkpt>
      <trkpt lat="43.77870080061256885528564453125" lon="1.56715345568954944610595703125">
        <ele>133.399993896484375</ele>
        <time>2026-08-13T07:12:48.000Z</time>
        <extensions>
          <ns3:TrackPointExtension>
            <ns3:hr>67</ns3:hr>
            <ns3:cad>0</ns3:cad>
          </ns3:TrackPointExtension>
        </extensions>
      </trkpt>
      <trkpt lat="43.77870080061256885528564453125" lon="1.56715345568954944610595703125">
        <ele>133.399993896484375</ele>
        <time>2026-08-13T07:12:49.000Z</time>
        <extensions>
          <ns3:TrackPointExtension>
            <ns3:hr>67</ns3:hr>
            <ns3:cad>0</ns3:cad>
          </ns3:TrackPointExtension>
        </extensions>
      </trkpt>
      <trkpt lat="43.77870080061256885528564453125" lon="1.56715345568954944610595703125">
        <ele>133.399993896484375</ele>
        <time>2026-08-13T07:12:50.000Z</time>
        <extensions>
          <ns3:TrackPointExtension>
            <ns3:hr>66</ns3:hr>
            <ns3:cad>0</ns3:cad>
          </ns3:TrackPointExtension>
        </extensions>
      </trkpt>
      <trkpt lat="43.77870080061256885528564453125" lon="1.56715345568954944610595703125">
        <ele>133.399993896484375</ele>
        <time>2026-08-13T07:12:51.000Z</time>
        <extensions>
          <ns3:TrackPointExtension>
            <ns3:hr>67</ns3:hr>
            <ns3:cad>0</ns3:cad>
          </ns3:TrackPointExtension>
        </extensions>
      </trkpt>
      <trkpt lat="43.77870080061256885528564453125" lon="1.56715345568954944610595703125">
        <ele>133.399993896484375</ele>
        <time>2026-08-13T07:12:52.000Z</time>
        <extensions>
          <ns3:TrackPointExtension>
            <ns3:hr>66</ns3:hr>
            <ns3:cad>0</ns3:cad>
          </ns3:TrackPointExtension>
        </extensions>
      </trkpt>
      <trkpt lat="43.77870080061256885528564453125" lon="1.56715345568954944610595703125">
        <ele>133.399993896484375</ele>
        <time>2026-08-13T07:12:53.000Z</time>
        <extensions>
          <ns3:TrackPointExtension>
            <ns3:hr>66</ns3:hr>
            <ns3:cad>0</ns3:cad>
          </ns3:TrackPointExtension>
        </extensions>
      </trkpt>
      <trkpt lat="43.77870080061256885528564453125" lon="1.56715345568954944610595703125">
        <ele>133.399993896484375</ele>
        <time>2026-08-13T07:12:54.000Z</time>
        <extensions>
          <ns3:TrackPointExtension>
            <ns3:hr>66</ns3:hr>
            <ns3:cad>0</ns3:cad>
          </ns3:TrackPointExtension>
        </extensions>
      </trkpt>
      <trkpt lat="43.77870080061256885528564453125" lon="1.56715345568954944610595703125">
        <ele>133.399993896484375</ele>
        <time>2026-08-13T07:12:55.000Z</time>
        <extensions>
          <ns3:TrackPointExtension>
            <ns3:hr>67</ns3:hr>
            <ns3:cad>0</ns3:cad>
          </ns3:TrackPointExtension>
        </extensions>
      </trkpt>
      <trkpt lat="43.77870080061256885528564453125" lon="1.56715345568954944610595703125">
        <ele>133.399993896484375</ele>
        <time>2026-08-13T07:12:56.000Z</time>
        <extensions>
          <ns3:TrackPointExtension>
            <ns3:hr>67</ns3:hr>
            <ns3:cad>0</ns3:cad>
          </ns3:TrackPointExtension>
        </extensions>
      </trkpt>
      <trkpt lat="43.77870080061256885528564453125" lon="1.56715345568954944610595703125">
        <ele>133.399993896484375</ele>
        <time>2026-08-13T07:12:57.000Z</time>
        <extensions>
          <ns3:TrackPointExtension>
            <ns3:hr>68</ns3:hr>
            <ns3:cad>0</ns3:cad>
          </ns3:TrackPointExtension>
        </extensions>
      </trkpt>
      <trkpt lat="43.77870080061256885528564453125" lon="1.56715345568954944610595703125">
        <ele>133.399993896484375</ele>
        <time>2026-08-13T07:12:58.000Z</time>
        <extensions>
          <ns3:TrackPointExtension>
            <ns3:hr>69</ns3:hr>
            <ns3:cad>0</ns3:cad>
          </ns3:TrackPointExtension>
        </extensions>
      </trkpt>
      <trkpt lat="43.77869711257517337799072265625" lon="1.567149348556995391845703125">
        <ele>133.399993896484375</ele>
        <time>2026-08-13T07:12:59.000Z</time>
        <extensions>
          <ns3:TrackPointExtension>
            <ns3:hr>69</ns3:hr>
            <ns3:cad>0</ns3:cad>
          </ns3:TrackPointExtension>
        </extensions>
      </trkpt>
      <trkpt lat="43.77869912423193454742431640625" lon="1.5671481750905513763427734375">
        <ele>133.399993896484375</ele>
        <time>2026-08-13T07:13:00.000Z</time>
        <extensions>
          <ns3:TrackPointExtension>
            <ns3:hr>69</ns3:hr>
            <ns3:cad>0</ns3:cad>
          </ns3:TrackPointExtension>
        </extensions>
      </trkpt>
      <trkpt lat="43.77870080061256885528564453125" lon="1.56715345568954944610595703125">
        <ele>133.399993896484375</ele>
        <time>2026-08-13T07:13:01.000Z</time>
        <extensions>
          <ns3:TrackPointExtension>
            <ns3:hr>70</ns3:hr>
            <ns3:cad>0</ns3:cad>
          </ns3:TrackPointExtension>
        </extensions>
      </trkpt>
      <trkpt lat="43.77870080061256885528564453125" lon="1.56715345568954944610595703125">
        <ele>133.399993896484375</ele>
        <time>2026-08-13T07:13:02.000Z</time>
        <extensions>
          <ns3:TrackPointExtension>
            <ns3:hr>69</ns3:hr>
            <ns3:cad>0</ns3:cad>
          </ns3:TrackPointExtension>
        </extensions>
      </trkpt>
      <trkpt lat="43.77870080061256885528564453125" lon="1.56715345568954944610595703125">
        <ele>133.399993896484375</ele>
        <time>2026-08-13T07:13:03.000Z</time>
        <extensions>
          <ns3:TrackPointExtension>
            <ns3:hr>70</ns3:hr>
            <ns3:cad>0</ns3:cad>
          </ns3:TrackPointExtension>
        </extensions>
      </trkpt>
      <trkpt lat="43.77870080061256885528564453125" lon="1.56715345568954944610595703125">
        <ele>133.399993896484375</ele>
        <time>2026-08-13T07:13:04.000Z</time>
        <extensions>
          <ns3:TrackPointExtension>
            <ns3:hr>70</ns3:hr>
            <ns3:cad>0</ns3:cad>
          </ns3:TrackPointExtension>
        </extensions>
      </trkpt>
      <trkpt lat="43.77870080061256885528564453125" lon="1.56715345568954944610595703125">
        <ele>133.399993896484375</ele>
        <time>2026-08-13T07:13:05.000Z</time>
        <extensions>
          <ns3:TrackPointExtension>
            <ns3:hr>70</ns3:hr>
            <ns3:cad>0</ns3:cad>
          </ns3:TrackPointExtension>
        </extensions>
      </trkpt>
      <trkpt lat="43.77870080061256885528564453125" lon="1.56715345568954944610595703125">
        <ele>133.399993896484375</ele>
        <time>2026-08-13T07:13:06.000Z</time>
        <extensions>
          <ns3:TrackPointExtension>
            <ns3:hr>70</ns3:hr>
            <ns3:cad>0</ns3:cad>
          </ns3:TrackPointExtension>
        </extensions>
      </trkpt>
      <trkpt lat="43.77870080061256885528564453125" lon="1.56715345568954944610595703125">
        <ele>133.399993896484375</ele>
        <time>2026-08-13T07:13:07.000Z</time>
        <extensions>
          <ns3:TrackPointExtension>
            <ns3:hr>70</ns3:hr>
            <ns3:cad>0</ns3:cad>
          </ns3:TrackPointExtension>
        </extensions>
      </trkpt>
      <trkpt lat="43.77870080061256885528564453125" lon="1.56715345568954944610595703125">
        <ele>133.399993896484375</ele>
        <time>2026-08-13T07:13:08.000Z</time>
        <extensions>
          <ns3:TrackPointExtension>
            <ns3:hr>70</ns3:hr>
            <ns3:cad>0</ns3:cad>
          </ns3:TrackPointExtension>
        </extensions>
      </trkpt>
      <trkpt lat="43.77870080061256885528564453125" lon="1.56715345568954944610595703125">
        <ele>133.399993896484375</ele>
        <time>2026-08-13T07:13:09.000Z</time>
        <extensions>
          <ns3:TrackPointExtension>
            <ns3:hr>69</ns3:hr>
            <ns3:cad>0</ns3:cad>
          </ns3:TrackPointExtension>
        </extensions>
      </trkpt>
      <trkpt lat="43.778693340718746185302734375" lon="1.56714071519672870635986328125">
        <ele>133.600006103515625</ele>
        <time>2026-08-13T07:13:10.000Z</time>
        <extensions>
          <ns3:TrackPointExtension>
            <ns3:hr>69</ns3:hr>
            <ns3:cad>0</ns3:cad>
          </ns3:TrackPointExtension>
        </extensions>
      </trkpt>
      <trkpt lat="43.77868973650038242340087890625" lon="1.56713501550257205963134765625">
        <ele>133.600006103515625</ele>
        <time>2026-08-13T07:13:11.000Z</time>
        <extensions>
          <ns3:TrackPointExtension>
            <ns3:hr>68</ns3:hr>
            <ns3:cad>0</ns3:cad>
          </ns3:TrackPointExtension>
        </extensions>
      </trkpt>
      <trkpt lat="43.7786896526813507080078125" lon="1.56713224947452545166015625">
        <ele>133.600006103515625</ele>
        <time>2026-08-13T07:13:12.000Z</time>
        <extensions>
          <ns3:TrackPointExtension>
            <ns3:hr>67</ns3:hr>
            <ns3:cad>0</ns3:cad>
          </ns3:TrackPointExtension>
        </extensions>
      </trkpt>
      <trkpt lat="43.7786896526813507080078125" lon="1.56713233329355716705322265625">
        <ele>133.600006103515625</ele>
        <time>2026-08-13T07:13:13.000Z</time>
        <extensions>
          <ns3:TrackPointExtension>
            <ns3:hr>66</ns3:hr>
            <ns3:cad>0</ns3:cad>
          </ns3:TrackPointExtension>
        </extensions>
      </trkpt>
      <trkpt lat="43.7786896526813507080078125" lon="1.56713233329355716705322265625">
        <ele>133.600006103515625</ele>
        <time>2026-08-13T07:13:14.000Z</time>
        <extensions>
          <ns3:TrackPointExtension>
            <ns3:hr>65</ns3:hr>
            <ns3:cad>0</ns3:cad>
          </ns3:TrackPointExtension>
        </extensions>
      </trkpt>
      <trkpt lat="43.7786896526813507080078125" lon="1.56713233329355716705322265625">
        <ele>133.600006103515625</ele>
        <time>2026-08-13T07:13:15.000Z</time>
        <extensions>
          <ns3:TrackPointExtension>
            <ns3:hr>66</ns3:hr>
            <ns3:cad>0</ns3:cad>
          </ns3:TrackPointExtension>
        </extensions>
      </trkpt>
      <trkpt lat="43.7786896526813507080078125" lon="1.56713233329355716705322265625">
        <ele>133.399993896484375</ele>
        <time>2026-08-13T07:13:16.000Z</time>
        <extensions>
          <ns3:TrackPointExtension>
            <ns3:hr>66</ns3:hr>
            <ns3:cad>0</ns3:cad>
          </ns3:TrackPointExtension>
        </extensions>
      </trkpt>
      <trkpt lat="43.7786896526813507080078125" lon="1.56713233329355716705322265625">
        <ele>133.399993896484375</ele>
        <time>2026-08-13T07:13:17.000Z</time>
        <extensions>
          <ns3:TrackPointExtension>
            <ns3:hr>67</ns3:hr>
            <ns3:cad>0</ns3:cad>
          </ns3:TrackPointExtension>
        </extensions>
      </trkpt>
      <trkpt lat="43.7786896526813507080078125" lon="1.56713233329355716705322265625">
        <ele>133.399993896484375</ele>
        <time>2026-08-13T07:13:18.000Z</time>
        <extensions>
          <ns3:TrackPointExtension>
            <ns3:hr>67</ns3:hr>
            <ns3:cad>0</ns3:cad>
          </ns3:TrackPointExtension>
        </extensions>
      </trkpt>
      <trkpt lat="43.7786896526813507080078125" lon="1.56713233329355716705322265625">
        <ele>133.399993896484375</ele>
        <time>2026-08-13T07:13:19.000Z</time>
        <extensions>
          <ns3:TrackPointExtension>
            <ns3:hr>68</ns3:hr>
            <ns3:cad>0</ns3:cad>
          </ns3:TrackPointExtension>
        </extensions>
      </trkpt>
      <trkpt lat="43.7786896526813507080078125" lon="1.56713233329355716705322265625">
        <ele>133.399993896484375</ele>
        <time>2026-08-13T07:13:20.000Z</time>
        <extensions>
          <ns3:TrackPointExtension>
            <ns3:hr>69</ns3:hr>
            <ns3:cad>0</ns3:cad>
          </ns3:TrackPointExtension>
        </extensions>
      </trkpt>
      <trkpt lat="43.7786896526813507080078125" lon="1.56713233329355716705322265625">
        <ele>133.399993896484375</ele>
        <time>2026-08-13T07:13:21.000Z</time>
        <extensions>
          <ns3:TrackPointExtension>
            <ns3:hr>70</ns3:hr>
            <ns3:cad>0</ns3:cad>
          </ns3:TrackPointExtension>
        </extensions>
      </trkpt>
      <trkpt lat="43.7786896526813507080078125" lon="1.56713233329355716705322265625">
        <ele>133.399993896484375</ele>
        <time>2026-08-13T07:13:22.000Z</time>
        <extensions>
          <ns3:TrackPointExtension>
            <ns3:hr>71</ns3:hr>
            <ns3:cad>0</ns3:cad>
          </ns3:TrackPointExtension>
        </extensions>
      </trkpt>
      <trkpt lat="43.7786896526813507080078125" lon="1.56713233329355716705322265625">
        <ele>133.399993896484375</ele>
        <time>2026-08-13T07:13:23.000Z</time>
        <extensions>
          <ns3:TrackPointExtension>
            <ns3:hr>71</ns3:hr>
            <ns3:cad>0</ns3:cad>
          </ns3:TrackPointExtension>
        </extensions>
      </trkpt>
      <trkpt lat="43.7786896526813507080078125" lon="1.56713233329355716705322265625">
        <ele>133.600006103515625</ele>
        <time>2026-08-13T07:13:24.000Z</time>
        <extensions>
          <ns3:TrackPointExtension>
            <ns3:hr>72</ns3:hr>
            <ns3:cad>0</ns3:cad>
          </ns3:TrackPointExtension>
        </extensions>
      </trkpt>
      <trkpt lat="43.7786896526813507080078125" lon="1.56713233329355716705322265625">
        <ele>133.600006103515625</ele>
        <time>2026-08-13T07:13:25.000Z</time>
        <extensions>
          <ns3:TrackPointExtension>
            <ns3:hr>72</ns3:hr>
            <ns3:cad>0</ns3:cad>
          </ns3:TrackPointExtension>
        </extensions>
      </trkpt>
      <trkpt lat="43.7786896526813507080078125" lon="1.56713233329355716705322265625">
        <ele>133.600006103515625</ele>
        <time>2026-08-13T07:13:26.000Z</time>
        <extensions>
          <ns3:TrackPointExtension>
            <ns3:hr>71</ns3:hr>
            <ns3:cad>0</ns3:cad>
          </ns3:TrackPointExtension>
        </extensions>
      </trkpt>
      <trkpt lat="43.7786896526813507080078125" lon="1.56713233329355716705322265625">
        <ele>133.600006103515625</ele>
        <time>2026-08-13T07:13:27.000Z</time>
        <extensions>
          <ns3:TrackPointExtension>
            <ns3:hr>71</ns3:hr>
            <ns3:cad>0</ns3:cad>
          </ns3:TrackPointExtension>
        </extensions>
      </trkpt>
      <trkpt lat="43.7786896526813507080078125" lon="1.56713233329355716705322265625">
        <ele>133.600006103515625</ele>
        <time>2026-08-13T07:13:28.000Z</time>
        <extensions>
          <ns3:TrackPointExtension>
            <ns3:hr>70</ns3:hr>
            <ns3:cad>0</ns3:cad>
          </ns3:TrackPointExtension>
        </extensions>
      </trkpt>
      <trkpt lat="43.7786896526813507080078125" lon="1.56713233329355716705322265625">
        <ele>133.600006103515625</ele>
        <time>2026-08-13T07:13:29.000Z</time>
        <extensions>
          <ns3:TrackPointExtension>
            <ns3:hr>70</ns3:hr>
            <ns3:cad>0</ns3:cad>
          </ns3:TrackPointExtension>
        </extensions>
      </trkpt>
      <trkpt lat="43.7786896526813507080078125" lon="1.56713233329355716705322265625">
        <ele>133.600006103515625</ele>
        <time>2026-08-13T07:13:30.000Z</time>
        <extensions>
          <ns3:TrackPointExtension>
            <ns3:hr>70</ns3:hr>
            <ns3:cad>0</ns3:cad>
          </ns3:TrackPointExtension>
        </extensions>
      </trkpt>
      <trkpt lat="43.7786896526813507080078125" lon="1.56713233329355716705322265625">
        <ele>133.600006103515625</ele>
        <time>2026-08-13T07:13:31.000Z</time>
        <extensions>
          <ns3:TrackPointExtension>
            <ns3:hr>70</ns3:hr>
            <ns3:cad>0</ns3:cad>
          </ns3:TrackPointExtension>
        </extensions>
      </trkpt>
      <trkpt lat="43.7786896526813507080078125" lon="1.56713233329355716705322265625">
        <ele>133.399993896484375</ele>
        <time>2026-08-13T07:13:32.000Z</time>
        <extensions>
          <ns3:TrackPointExtension>
            <ns3:hr>70</ns3:hr>
            <ns3:cad>0</ns3:cad>
          </ns3:TrackPointExtension>
        </extensions>
      </trkpt>
      <trkpt lat="43.77869694493710994720458984375" lon="1.56712629832327365875244140625">
        <ele>133.399993896484375</ele>
        <time>2026-08-13T07:13:33.000Z</time>
        <extensions>
          <ns3:TrackPointExtension>
            <ns3:hr>71</ns3:hr>
            <ns3:cad>0</ns3:cad>
          </ns3:TrackPointExtension>
        </extensions>
      </trkpt>
      <trkpt lat="43.77870029769837856292724609375" lon="1.56711741350591182708740234375">
        <ele>133.399993896484375</ele>
        <time>2026-08-13T07:13:34.000Z</time>
        <extensions>
          <ns3:TrackPointExtension>
            <ns3:hr>71</ns3:hr>
            <ns3:cad>0</ns3:cad>
          </ns3:TrackPointExtension>
        </extensions>
      </trkpt>
      <trkpt lat="43.77870700322091579437255859375" lon="1.5671168267726898193359375">
        <ele>133.399993896484375</ele>
        <time>2026-08-13T07:13:35.000Z</time>
        <extensions>
          <ns3:TrackPointExtension>
            <ns3:hr>72</ns3:hr>
            <ns3:cad>0</ns3:cad>
          </ns3:TrackPointExtension>
        </extensions>
      </trkpt>
      <trkpt lat="43.77871186472475528717041015625" lon="1.56711615622043609619140625">
        <ele>133.600006103515625</ele>
        <time>2026-08-13T07:13:36.000Z</time>
        <extensions>
          <ns3:TrackPointExtension>
            <ns3:hr>71</ns3:hr>
            <ns3:cad>0</ns3:cad>
          </ns3:TrackPointExtension>
        </extensions>
      </trkpt>
      <trkpt lat="43.778718821704387664794921875" lon="1.56711481511592864990234375">
        <ele>133.600006103515625</ele>
        <time>2026-08-13T07:13:37.000Z</time>
        <extensions>
          <ns3:TrackPointExtension>
            <ns3:hr>71</ns3:hr>
            <ns3:cad>0</ns3:cad>
          </ns3:TrackPointExtension>
        </extensions>
      </trkpt>
      <trkpt lat="43.7787220068275928497314453125" lon="1.56712110154330730438232421875">
        <ele>133.600006103515625</ele>
        <time>2026-08-13T07:13:38.000Z</time>
        <extensions>
          <ns3:TrackPointExtension>
            <ns3:hr>71</ns3:hr>
            <ns3:cad>0</ns3:cad>
          </ns3:TrackPointExtension>
        </extensions>
      </trkpt>
      <trkpt lat="43.7787293829023838043212890625" lon="1.56712160445749759674072265625">
        <ele>133.600006103515625</ele>
        <time>2026-08-13T07:13:39.000Z</time>
        <extensions>
          <ns3:TrackPointExtension>
            <ns3:hr>70</ns3:hr>
            <ns3:cad>0</ns3:cad>
          </ns3:TrackPointExtension>
        </extensions>
      </trkpt>
      <trkpt lat="43.77873281948268413543701171875" lon="1.567122526466846466064453125">
        <ele>133.600006103515625</ele>
        <time>2026-08-13T07:13:40.000Z</time>
        <extensions>
          <ns3:TrackPointExtension>
            <ns3:hr>69</ns3:hr>
            <ns3:cad>0</ns3:cad>
          </ns3:TrackPointExtension>
        </extensions>
      </trkpt>
      <trkpt lat="43.7787327356636524200439453125" lon="1.5671226941049098968505859375">
        <ele>133.600006103515625</ele>
        <time>2026-08-13T07:13:41.000Z</time>
        <extensions>
          <ns3:TrackPointExtension>
            <ns3:hr>70</ns3:hr>
            <ns3:cad>0</ns3:cad>
          </ns3:TrackPointExtension>
        </extensions>
      </trkpt>
      <trkpt lat="43.7787327356636524200439453125" lon="1.5671226941049098968505859375">
        <ele>133.600006103515625</ele>
        <time>2026-08-13T07:13:42.000Z</time>
        <extensions>
          <ns3:TrackPointExtension>
            <ns3:hr>70</ns3:hr>
            <ns3:cad>0</ns3:cad>
          </ns3:TrackPointExtension>
        </extensions>
      </trkpt>
      <trkpt lat="43.7787327356636524200439453125" lon="1.5671226941049098968505859375">
        <ele>133.600006103515625</ele>
        <time>2026-08-13T07:13:43.000Z</time>
        <extensions>
          <ns3:TrackPointExtension>
            <ns3:hr>73</ns3:hr>
            <ns3:cad>0</ns3:cad>
          </ns3:TrackPointExtension>
        </extensions>
      </trkpt>
      <trkpt lat="43.7787327356636524200439453125" lon="1.5671226941049098968505859375">
        <ele>133.600006103515625</ele>
        <time>2026-08-13T07:13:44.000Z</time>
        <extensions>
          <ns3:TrackPointExtension>
            <ns3:hr>76</ns3:hr>
            <ns3:cad>0</ns3:cad>
          </ns3:TrackPointExtension>
        </extensions>
      </trkpt>
      <trkpt lat="43.7787327356636524200439453125" lon="1.5671226941049098968505859375">
        <ele>133.600006103515625</ele>
        <time>2026-08-13T07:13:45.000Z</time>
        <extensions>
          <ns3:TrackPointExtension>
            <ns3:hr>77</ns3:hr>
            <ns3:cad>0</ns3:cad>
          </ns3:TrackPointExtension>
        </extensions>
      </trkpt>
      <trkpt lat="43.7787330709397792816162109375" lon="1.56712294556200504302978515625">
        <ele>133.600006103515625</ele>
        <time>2026-08-13T07:13:46.000Z</time>
        <extensions>
          <ns3:TrackPointExtension>
            <ns3:hr>77</ns3:hr>
            <ns3:cad>0</ns3:cad>
          </ns3:TrackPointExtension>
        </extensions>
      </trkpt>
      <trkpt lat="43.77873416058719158172607421875" lon="1.56712160445749759674072265625">
        <ele>133.600006103515625</ele>
        <time>2026-08-13T07:13:47.000Z</time>
        <extensions>
          <ns3:TrackPointExtension>
            <ns3:hr>75</ns3:hr>
            <ns3:cad>0</ns3:cad>
          </ns3:TrackPointExtension>
        </extensions>
      </trkpt>
      <trkpt lat="43.77873801626265048980712890625" lon="1.56712914817035198211669921875">
        <ele>133.600006103515625</ele>
        <time>2026-08-13T07:13:48.000Z</time>
        <extensions>
          <ns3:TrackPointExtension>
            <ns3:hr>74</ns3:hr>
            <ns3:cad>0</ns3:cad>
          </ns3:TrackPointExtension>
        </extensions>
      </trkpt>
      <trkpt lat="43.7787417881190776824951171875" lon="1.56713216565549373626708984375">
        <ele>133.600006103515625</ele>
        <time>2026-08-13T07:13:49.000Z</time>
        <extensions>
          <ns3:TrackPointExtension>
            <ns3:hr>73</ns3:hr>
            <ns3:cad>0</ns3:cad>
          </ns3:TrackPointExtension>
        </extensions>
      </trkpt>
      <trkpt lat="43.77874555997550487518310546875" lon="1.56714021228253841400146484375">
        <ele>133.600006103515625</ele>
        <time>2026-08-13T07:13:50.000Z</time>
        <extensions>
          <ns3:TrackPointExtension>
            <ns3:hr>70</ns3:hr>
            <ns3:cad>0</ns3:cad>
          </ns3:TrackPointExtension>
        </extensions>
      </trkpt>
      <trkpt lat="43.778749667108058929443359375" lon="1.56713895499706268310546875">
        <ele>133.600006103515625</ele>
        <time>2026-08-13T07:13:51.000Z</time>
        <extensions>
          <ns3:TrackPointExtension>
            <ns3:hr>68</ns3:hr>
            <ns3:cad>0</ns3:cad>
          </ns3:TrackPointExtension>
        </extensions>
      </trkpt>
      <trkpt lat="43.778750337660312652587890625" lon="1.56714473851025104522705078125">
        <ele>133.600006103515625</ele>
        <time>2026-08-13T07:13:52.000Z</time>
        <extensions>
          <ns3:TrackPointExtension>
            <ns3:hr>68</ns3:hr>
            <ns3:cad>0</ns3:cad>
          </ns3:TrackPointExtension>
        </extensions>
      </trkpt>
      <trkpt lat="43.77875243313610553741455078125" lon="1.56714809127151966094970703125">
        <ele>133.600006103515625</ele>
        <time>2026-08-13T07:13:53.000Z</time>
        <extensions>
          <ns3:TrackPointExtension>
            <ns3:hr>68</ns3:hr>
            <ns3:cad>0</ns3:cad>
          </ns3:TrackPointExtension>
        </extensions>
      </trkpt>
      <trkpt lat="43.77875193022191524505615234375" lon="1.56715379096567630767822265625">
        <ele>133.600006103515625</ele>
        <time>2026-08-13T07:13:54.000Z</time>
        <extensions>
          <ns3:TrackPointExtension>
            <ns3:hr>68</ns3:hr>
            <ns3:cad>0</ns3:cad>
          </ns3:TrackPointExtension>
        </extensions>
      </trkpt>
      <trkpt lat="43.77874924801290035247802734375" lon="1.567149348556995391845703125">
        <ele>133.600006103515625</ele>
        <time>2026-08-13T07:13:55.000Z</time>
        <extensions>
          <ns3:TrackPointExtension>
            <ns3:hr>68</ns3:hr>
            <ns3:cad>0</ns3:cad>
          </ns3:TrackPointExtension>
        </extensions>
      </trkpt>
      <trkpt lat="43.778742291033267974853515625" lon="1.5671518631279468536376953125">
        <ele>133.600006103515625</ele>
        <time>2026-08-13T07:13:56.000Z</time>
        <extensions>
          <ns3:TrackPointExtension>
            <ns3:hr>68</ns3:hr>
            <ns3:cad>0</ns3:cad>
          </ns3:TrackPointExtension>
        </extensions>
      </trkpt>
      <trkpt lat="43.778737597167491912841796875" lon="1.5671498514711856842041015625">
        <ele>133.399993896484375</ele>
        <time>2026-08-13T07:13:57.000Z</time>
        <extensions>
          <ns3:TrackPointExtension>
            <ns3:hr>68</ns3:hr>
            <ns3:cad>0</ns3:cad>
          </ns3:TrackPointExtension>
        </extensions>
      </trkpt>
      <trkpt lat="43.77873516641557216644287109375" lon="1.56714968383312225341796875">
        <ele>133.600006103515625</ele>
        <time>2026-08-13T07:13:58.000Z</time>
        <extensions>
          <ns3:TrackPointExtension>
            <ns3:hr>68</ns3:hr>
            <ns3:cad>0</ns3:cad>
          </ns3:TrackPointExtension>
        </extensions>
      </trkpt>
      <trkpt lat="43.7787352502346038818359375" lon="1.5671495161950588226318359375">
        <ele>133.600006103515625</ele>
        <time>2026-08-13T07:13:59.000Z</time>
        <extensions>
          <ns3:TrackPointExtension>
            <ns3:hr>68</ns3:hr>
            <ns3:cad>0</ns3:cad>
          </ns3:TrackPointExtension>
        </extensions>
      </trkpt>
      <trkpt lat="43.7787352502346038818359375" lon="1.5671495161950588226318359375">
        <ele>133.600006103515625</ele>
        <time>2026-08-13T07:14:00.000Z</time>
        <extensions>
          <ns3:TrackPointExtension>
            <ns3:hr>68</ns3:hr>
            <ns3:cad>0</ns3:cad>
          </ns3:TrackPointExtension>
        </extensions>
      </trkpt>
      <trkpt lat="43.7787352502346038818359375" lon="1.5671495161950588226318359375">
        <ele>133.600006103515625</ele>
        <time>2026-08-13T07:14:01.000Z</time>
        <extensions>
          <ns3:TrackPointExtension>
            <ns3:hr>68</ns3:hr>
            <ns3:cad>0</ns3:cad>
          </ns3:TrackPointExtension>
        </extensions>
      </trkpt>
      <trkpt lat="43.7787352502346038818359375" lon="1.5671495161950588226318359375">
        <ele>133.600006103515625</ele>
        <time>2026-08-13T07:14:02.000Z</time>
        <extensions>
          <ns3:TrackPointExtension>
            <ns3:hr>69</ns3:hr>
            <ns3:cad>0</ns3:cad>
          </ns3:TrackPointExtension>
        </extensions>
      </trkpt>
      <trkpt lat="43.7787352502346038818359375" lon="1.5671495161950588226318359375">
        <ele>133.600006103515625</ele>
        <time>2026-08-13T07:14:03.000Z</time>
        <extensions>
          <ns3:TrackPointExtension>
            <ns3:hr>71</ns3:hr>
            <ns3:cad>0</ns3:cad>
          </ns3:TrackPointExtension>
        </extensions>
      </trkpt>
      <trkpt lat="43.7787352502346038818359375" lon="1.5671495161950588226318359375">
        <ele>133.600006103515625</ele>
        <time>2026-08-13T07:14:04.000Z</time>
        <extensions>
          <ns3:TrackPointExtension>
            <ns3:hr>71</ns3:hr>
            <ns3:cad>0</ns3:cad>
          </ns3:TrackPointExtension>
        </extensions>
      </trkpt>
      <trkpt lat="43.7787352502346038818359375" lon="1.5671495161950588226318359375">
        <ele>133.600006103515625</ele>
        <time>2026-08-13T07:14:05.000Z</time>
        <extensions>
          <ns3:TrackPointExtension>
            <ns3:hr>69</ns3:hr>
            <ns3:cad>0</ns3:cad>
          </ns3:TrackPointExtension>
        </extensions>
      </trkpt>
      <trkpt lat="43.7787352502346038818359375" lon="1.5671495161950588226318359375">
        <ele>133.600006103515625</ele>
        <time>2026-08-13T07:14:06.000Z</time>
        <extensions>
          <ns3:TrackPointExtension>
            <ns3:hr>70</ns3:hr>
            <ns3:cad>0</ns3:cad>
          </ns3:TrackPointExtension>
        </extensions>
      </trkpt>
      <trkpt lat="43.7787352502346038818359375" lon="1.5671495161950588226318359375">
        <ele>133.600006103515625</ele>
        <time>2026-08-13T07:14:07.000Z</time>
        <extensions>
          <ns3:TrackPointExtension>
            <ns3:hr>70</ns3:hr>
            <ns3:cad>0</ns3:cad>
          </ns3:TrackPointExtension>
        </extensions>
      </trkpt>
      <trkpt lat="43.7787352502346038818359375" lon="1.5671495161950588226318359375">
        <ele>133.600006103515625</ele>
        <time>2026-08-13T07:14:08.000Z</time>
        <extensions>
          <ns3:TrackPointExtension>
            <ns3:hr>70</ns3:hr>
            <ns3:cad>0</ns3:cad>
          </ns3:TrackPointExtension>
        </extensions>
      </trkpt>
      <trkpt lat="43.7787352502346038818359375" lon="1.5671495161950588226318359375">
        <ele>133.600006103515625</ele>
        <time>2026-08-13T07:14:09.000Z</time>
        <extensions>
          <ns3:TrackPointExtension>
            <ns3:hr>70</ns3:hr>
            <ns3:cad>0</ns3:cad>
          </ns3:TrackPointExtension>
        </extensions>
      </trkpt>
      <trkpt lat="43.7787352502346038818359375" lon="1.5671495161950588226318359375">
        <ele>133.600006103515625</ele>
        <time>2026-08-13T07:14:10.000Z</time>
        <extensions>
          <ns3:TrackPointExtension>
            <ns3:hr>70</ns3:hr>
            <ns3:cad>0</ns3:cad>
          </ns3:TrackPointExtension>
        </extensions>
      </trkpt>
      <trkpt lat="43.7787352502346038818359375" lon="1.5671495161950588226318359375">
        <ele>133.600006103515625</ele>
        <time>2026-08-13T07:14:11.000Z</time>
        <extensions>
          <ns3:TrackPointExtension>
            <ns3:hr>71</ns3:hr>
            <ns3:cad>0</ns3:cad>
          </ns3:TrackPointExtension>
        </extensions>
      </trkpt>
      <trkpt lat="43.7787352502346038818359375" lon="1.5671495161950588226318359375">
        <ele>133.600006103515625</ele>
        <time>2026-08-13T07:14:12.000Z</time>
        <extensions>
          <ns3:TrackPointExtension>
            <ns3:hr>70</ns3:hr>
            <ns3:cad>0</ns3:cad>
          </ns3:TrackPointExtension>
        </extensions>
      </trkpt>
      <trkpt lat="43.7787352502346038818359375" lon="1.5671495161950588226318359375">
        <ele>133.600006103515625</ele>
        <time>2026-08-13T07:14:13.000Z</time>
        <extensions>
          <ns3:TrackPointExtension>
            <ns3:hr>70</ns3:hr>
            <ns3:cad>0</ns3:cad>
          </ns3:TrackPointExtension>
        </extensions>
      </trkpt>
      <trkpt lat="43.7787352502346038818359375" lon="1.5671495161950588226318359375">
        <ele>133.600006103515625</ele>
        <time>2026-08-13T07:14:14.000Z</time>
        <extensions>
          <ns3:TrackPointExtension>
            <ns3:hr>71</ns3:hr>
            <ns3:cad>0</ns3:cad>
          </ns3:TrackPointExtension>
        </extensions>
      </trkpt>
      <trkpt lat="43.7787352502346038818359375" lon="1.5671495161950588226318359375">
        <ele>133.600006103515625</ele>
        <time>2026-08-13T07:14:15.000Z</time>
        <extensions>
          <ns3:TrackPointExtension>
            <ns3:hr>70</ns3:hr>
            <ns3:cad>0</ns3:cad>
          </ns3:TrackPointExtension>
        </extensions>
      </trkpt>
      <trkpt lat="43.7787352502346038818359375" lon="1.5671495161950588226318359375">
        <ele>133.600006103515625</ele>
        <time>2026-08-13T07:14:16.000Z</time>
        <extensions>
          <ns3:TrackPointExtension>
            <ns3:hr>70</ns3:hr>
            <ns3:cad>0</ns3:cad>
          </ns3:TrackPointExtension>
        </extensions>
      </trkpt>
      <trkpt lat="43.7787352502346038818359375" lon="1.5671495161950588226318359375">
        <ele>133.600006103515625</ele>
        <time>2026-08-13T07:14:17.000Z</time>
        <extensions>
          <ns3:TrackPointExtension>
            <ns3:hr>69</ns3:hr>
            <ns3:cad>0</ns3:cad>
          </ns3:TrackPointExtension>
        </extensions>
      </trkpt>
      <trkpt lat="43.7787352502346038818359375" lon="1.5671495161950588226318359375">
        <ele>133.600006103515625</ele>
        <time>2026-08-13T07:14:18.000Z</time>
        <extensions>
          <ns3:TrackPointExtension>
            <ns3:hr>69</ns3:hr>
            <ns3:cad>0</ns3:cad>
          </ns3:TrackPointExtension>
        </extensions>
      </trkpt>
      <trkpt lat="43.7787352502346038818359375" lon="1.5671495161950588226318359375">
        <ele>133.600006103515625</ele>
        <time>2026-08-13T07:14:19.000Z</time>
        <extensions>
          <ns3:TrackPointExtension>
            <ns3:hr>68</ns3:hr>
            <ns3:cad>0</ns3:cad>
          </ns3:TrackPointExtension>
        </extensions>
      </trkpt>
      <trkpt lat="43.7787352502346038818359375" lon="1.5671495161950588226318359375">
        <ele>133.600006103515625</ele>
        <time>2026-08-13T07:14:20.000Z</time>
        <extensions>
          <ns3:TrackPointExtension>
            <ns3:hr>68</ns3:hr>
            <ns3:cad>0</ns3:cad>
          </ns3:TrackPointExtension>
        </extensions>
      </trkpt>
      <trkpt lat="43.7787352502346038818359375" lon="1.5671495161950588226318359375">
        <ele>133.600006103515625</ele>
        <time>2026-08-13T07:14:21.000Z</time>
        <extensions>
          <ns3:TrackPointExtension>
            <ns3:hr>67</ns3:hr>
            <ns3:cad>0</ns3:cad>
          </ns3:TrackPointExtension>
        </extensions>
      </trkpt>
      <trkpt lat="43.7787352502346038818359375" lon="1.5671495161950588226318359375">
        <ele>133.600006103515625</ele>
        <time>2026-08-13T07:14:22.000Z</time>
        <extensions>
          <ns3:TrackPointExtension>
            <ns3:hr>65</ns3:hr>
            <ns3:cad>0</ns3:cad>
          </ns3:TrackPointExtension>
        </extensions>
      </trkpt>
      <trkpt lat="43.7787352502346038818359375" lon="1.5671495161950588226318359375">
        <ele>133.600006103515625</ele>
        <time>2026-08-13T07:14:23.000Z</time>
        <extensions>
          <ns3:TrackPointExtension>
            <ns3:hr>62</ns3:hr>
            <ns3:cad>0</ns3:cad>
          </ns3:TrackPointExtension>
        </extensions>
      </trkpt>
      <trkpt lat="43.7787384353578090667724609375" lon="1.56714968383312225341796875">
        <ele>133.600006103515625</ele>
        <time>2026-08-13T07:14:24.000Z</time>
        <extensions>
          <ns3:TrackPointExtension>
            <ns3:hr>61</ns3:hr>
            <ns3:cad>0</ns3:cad>
          </ns3:TrackPointExtension>
        </extensions>
      </trkpt>
      <trkpt lat="43.77874371595680713653564453125" lon="1.5671498514711856842041015625">
        <ele>133.600006103515625</ele>
        <time>2026-08-13T07:14:25.000Z</time>
        <extensions>
          <ns3:TrackPointExtension>
            <ns3:hr>60</ns3:hr>
            <ns3:cad>0</ns3:cad>
          </ns3:TrackPointExtension>
        </extensions>
      </trkpt>
      <trkpt lat="43.77874975092709064483642578125" lon="1.5671543776988983154296875">
        <ele>133.600006103515625</ele>
        <time>2026-08-13T07:14:26.000Z</time>
        <extensions>
          <ns3:TrackPointExtension>
            <ns3:hr>60</ns3:hr>
            <ns3:cad>0</ns3:cad>
          </ns3:TrackPointExtension>
        </extensions>
      </trkpt>
      <trkpt lat="43.77875603735446929931640625" lon="1.56715412624180316925048828125">
        <ele>133.600006103515625</ele>
        <time>2026-08-13T07:14:27.000Z</time>
        <extensions>
          <ns3:TrackPointExtension>
            <ns3:hr>60</ns3:hr>
            <ns3:cad>0</ns3:cad>
          </ns3:TrackPointExtension>
        </extensions>
      </trkpt>
      <trkpt lat="43.7787612341344356536865234375" lon="1.5671585686504840850830078125">
        <ele>133.600006103515625</ele>
        <time>2026-08-13T07:14:28.000Z</time>
        <extensions>
          <ns3:TrackPointExtension>
            <ns3:hr>61</ns3:hr>
            <ns3:cad>0</ns3:cad>
          </ns3:TrackPointExtension>
        </extensions>
      </trkpt>
      <trkpt lat="43.77876383252441883087158203125" lon="1.567163765430450439453125">
        <ele>133.600006103515625</ele>
        <time>2026-08-13T07:14:29.000Z</time>
        <extensions>
          <ns3:TrackPointExtension>
            <ns3:hr>61</ns3:hr>
            <ns3:cad>0</ns3:cad>
          </ns3:TrackPointExtension>
        </extensions>
      </trkpt>
      <trkpt lat="43.7787706218659877777099609375" lon="1.56716686673462390899658203125">
        <ele>133.600006103515625</ele>
        <time>2026-08-13T07:14:30.000Z</time>
        <extensions>
          <ns3:TrackPointExtension>
            <ns3:hr>61</ns3:hr>
            <ns3:cad>0</ns3:cad>
          </ns3:TrackPointExtension>
        </extensions>
      </trkpt>
      <trkpt lat="43.77877590246498584747314453125" lon="1.5671723149716854095458984375">
        <ele>133.600006103515625</ele>
        <time>2026-08-13T07:14:31.000Z</time>
        <extensions>
          <ns3:TrackPointExtension>
            <ns3:hr>62</ns3:hr>
            <ns3:cad>0</ns3:cad>
          </ns3:TrackPointExtension>
        </extensions>
      </trkpt>
      <trkpt lat="43.77877925522625446319580078125" lon="1.5671716444194316864013671875">
        <ele>133.600006103515625</ele>
        <time>2026-08-13T07:14:32.000Z</time>
        <extensions>
          <ns3:TrackPointExtension>
            <ns3:hr>62</ns3:hr>
            <ns3:cad>0</ns3:cad>
          </ns3:TrackPointExtension>
        </extensions>
      </trkpt>
      <trkpt lat="43.77878109924495220184326171875" lon="1.56717390753328800201416015625">
        <ele>133.600006103515625</ele>
        <time>2026-08-13T07:14:33.000Z</time>
        <extensions>
          <ns3:TrackPointExtension>
            <ns3:hr>63</ns3:hr>
            <ns3:cad>0</ns3:cad>
          </ns3:TrackPointExtension>
        </extensions>
      </trkpt>
      <trkpt lat="43.77878394909203052520751953125" lon="1.56717658974230289459228515625">
        <ele>133.399993896484375</ele>
        <time>2026-08-13T07:14:34.000Z</time>
        <extensions>
          <ns3:TrackPointExtension>
            <ns3:hr>65</ns3:hr>
            <ns3:cad>0</ns3:cad>
          </ns3:TrackPointExtension>
        </extensions>
      </trkpt>
      <trkpt lat="43.77878562547266483306884765625" lon="1.56718011014163494110107421875">
        <ele>133.399993896484375</ele>
        <time>2026-08-13T07:14:35.000Z</time>
        <extensions>
          <ns3:TrackPointExtension>
            <ns3:hr>67</ns3:hr>
            <ns3:cad>0</ns3:cad>
          </ns3:TrackPointExtension>
        </extensions>
      </trkpt>
      <trkpt lat="43.7787860445678234100341796875" lon="1.56718346290290355682373046875">
        <ele>133.399993896484375</ele>
        <time>2026-08-13T07:14:36.000Z</time>
        <extensions>
          <ns3:TrackPointExtension>
            <ns3:hr>68</ns3:hr>
            <ns3:cad>0</ns3:cad>
          </ns3:TrackPointExtension>
        </extensions>
      </trkpt>
      <trkpt lat="43.7787890620529651641845703125" lon="1.5671860612928867340087890625">
        <ele>133.399993896484375</ele>
        <time>2026-08-13T07:14:37.000Z</time>
        <extensions>
          <ns3:TrackPointExtension>
            <ns3:hr>68</ns3:hr>
            <ns3:cad>0</ns3:cad>
          </ns3:TrackPointExtension>
        </extensions>
      </trkpt>
      <trkpt lat="43.77879358828067779541015625" lon="1.5671910904347896575927734375">
        <ele>133.399993896484375</ele>
        <time>2026-08-13T07:14:38.000Z</time>
        <extensions>
          <ns3:TrackPointExtension>
            <ns3:hr>69</ns3:hr>
            <ns3:cad>0</ns3:cad>
          </ns3:TrackPointExtension>
        </extensions>
      </trkpt>
      <trkpt lat="43.778797276318073272705078125" lon="1.56719502992928028106689453125">
        <ele>133.399993896484375</ele>
        <time>2026-08-13T07:14:39.000Z</time>
        <extensions>
          <ns3:TrackPointExtension>
            <ns3:hr>69</ns3:hr>
            <ns3:cad>0</ns3:cad>
          </ns3:TrackPointExtension>
        </extensions>
      </trkpt>
      <trkpt lat="43.77880171872675418853759765625" lon="1.5671971254050731658935546875">
        <ele>133.399993896484375</ele>
        <time>2026-08-13T07:14:40.000Z</time>
        <extensions>
          <ns3:TrackPointExtension>
            <ns3:hr>68</ns3:hr>
            <ns3:cad>0</ns3:cad>
          </ns3:TrackPointExtension>
        </extensions>
      </trkpt>
      <trkpt lat="43.77880540676414966583251953125" lon="1.5672028250992298126220703125">
        <ele>133.399993896484375</ele>
        <time>2026-08-13T07:14:41.000Z</time>
        <extensions>
          <ns3:TrackPointExtension>
            <ns3:hr>68</ns3:hr>
            <ns3:cad>0</ns3:cad>
          </ns3:TrackPointExtension>
        </extensions>
      </trkpt>
      <trkpt lat="43.77880834043025970458984375" lon="1.56720475293695926666259765625">
        <ele>133.399993896484375</ele>
        <time>2026-08-13T07:14:42.000Z</time>
        <extensions>
          <ns3:TrackPointExtension>
            <ns3:hr>68</ns3:hr>
            <ns3:cad>0</ns3:cad>
          </ns3:TrackPointExtension>
        </extensions>
      </trkpt>
      <trkpt lat="43.77881127409636974334716796875" lon="1.56720978207886219024658203125">
        <ele>133.399993896484375</ele>
        <time>2026-08-13T07:14:43.000Z</time>
        <extensions>
          <ns3:TrackPointExtension>
            <ns3:hr>67</ns3:hr>
            <ns3:cad>0</ns3:cad>
          </ns3:TrackPointExtension>
        </extensions>
      </trkpt>
      <trkpt lat="43.77881580032408237457275390625" lon="1.567213721573352813720703125">
        <ele>133.399993896484375</ele>
        <time>2026-08-13T07:14:44.000Z</time>
        <extensions>
          <ns3:TrackPointExtension>
            <ns3:hr>67</ns3:hr>
            <ns3:cad>0</ns3:cad>
          </ns3:TrackPointExtension>
        </extensions>
      </trkpt>
      <trkpt lat="43.77881915308535099029541015625" lon="1.5672195889055728912353515625">
        <ele>133.399993896484375</ele>
        <time>2026-08-13T07:14:45.000Z</time>
        <extensions>
          <ns3:TrackPointExtension>
            <ns3:hr>67</ns3:hr>
            <ns3:cad>0</ns3:cad>
          </ns3:TrackPointExtension>
        </extensions>
      </trkpt>
      <trkpt lat="43.778822422027587890625" lon="1.56722118146717548370361328125">
        <ele>133.399993896484375</ele>
        <time>2026-08-13T07:14:46.000Z</time>
        <extensions>
          <ns3:TrackPointExtension>
            <ns3:hr>68</ns3:hr>
            <ns3:cad>0</ns3:cad>
          </ns3:TrackPointExtension>
        </extensions>
      </trkpt>
      <trkpt lat="43.7788266129791736602783203125" lon="1.5672222711145877838134765625">
        <ele>133.399993896484375</ele>
        <time>2026-08-13T07:14:47.000Z</time>
        <extensions>
          <ns3:TrackPointExtension>
            <ns3:hr>69</ns3:hr>
            <ns3:cad>0</ns3:cad>
          </ns3:TrackPointExtension>
        </extensions>
      </trkpt>
      <trkpt lat="43.7788313068449497222900390625" lon="1.567222774028778076171875">
        <ele>133.399993896484375</ele>
        <time>2026-08-13T07:14:48.000Z</time>
        <extensions>
          <ns3:TrackPointExtension>
            <ns3:hr>70</ns3:hr>
            <ns3:cad>0</ns3:cad>
          </ns3:TrackPointExtension>
        </extensions>
      </trkpt>
      <trkpt lat="43.778832815587520599365234375" lon="1.56722369603812694549560546875">
        <ele>133.399993896484375</ele>
        <time>2026-08-13T07:14:49.000Z</time>
        <extensions>
          <ns3:TrackPointExtension>
            <ns3:hr>71</ns3:hr>
            <ns3:cad>0</ns3:cad>
          </ns3:TrackPointExtension>
        </extensions>
      </trkpt>
      <trkpt lat="43.7788331508636474609375" lon="1.567222438752651214599609375">
        <ele>133.399993896484375</ele>
        <time>2026-08-13T07:14:50.000Z</time>
        <extensions>
          <ns3:TrackPointExtension>
            <ns3:hr>72</ns3:hr>
            <ns3:cad>0</ns3:cad>
          </ns3:TrackPointExtension>
        </extensions>
      </trkpt>
      <trkpt lat="43.77883692272007465362548828125" lon="1.567227803170680999755859375">
        <ele>133.399993896484375</ele>
        <time>2026-08-13T07:14:51.000Z</time>
        <extensions>
          <ns3:TrackPointExtension>
            <ns3:hr>72</ns3:hr>
            <ns3:cad>0</ns3:cad>
          </ns3:TrackPointExtension>
        </extensions>
      </trkpt>
      <trkpt lat="43.778840862214565277099609375" lon="1.567232497036457061767578125">
        <ele>133.399993896484375</ele>
        <time>2026-08-13T07:14:52.000Z</time>
        <extensions>
          <ns3:TrackPointExtension>
            <ns3:hr>73</ns3:hr>
            <ns3:cad>0</ns3:cad>
          </ns3:TrackPointExtension>
        </extensions>
      </trkpt>
      <trkpt lat="43.7788443826138973236083984375" lon="1.56723878346383571624755859375">
        <ele>133.399993896484375</ele>
        <time>2026-08-13T07:14:53.000Z</time>
        <extensions>
          <ns3:TrackPointExtension>
            <ns3:hr>72</ns3:hr>
            <ns3:cad>0</ns3:cad>
          </ns3:TrackPointExtension>
        </extensions>
      </trkpt>
      <trkpt lat="43.7788477353751659393310546875" lon="1.56724381260573863983154296875">
        <ele>133.1999969482421875</ele>
        <time>2026-08-13T07:14:54.000Z</time>
        <extensions>
          <ns3:TrackPointExtension>
            <ns3:hr>71</ns3:hr>
            <ns3:cad>0</ns3:cad>
          </ns3:TrackPointExtension>
        </extensions>
      </trkpt>
      <trkpt lat="43.7788507528603076934814453125" lon="1.56724951229989528656005859375">
        <ele>133.1999969482421875</ele>
        <time>2026-08-13T07:14:55.000Z</time>
        <extensions>
          <ns3:TrackPointExtension>
            <ns3:hr>71</ns3:hr>
            <ns3:cad>0</ns3:cad>
          </ns3:TrackPointExtension>
        </extensions>
      </trkpt>
      <trkpt lat="43.7788546085357666015625" lon="1.5672547928988933563232421875">
        <ele>133.1999969482421875</ele>
        <time>2026-08-13T07:14:56.000Z</time>
        <extensions>
          <ns3:TrackPointExtension>
            <ns3:hr>70</ns3:hr>
            <ns3:cad>0</ns3:cad>
          </ns3:TrackPointExtension>
        </extensions>
      </trkpt>
      <trkpt lat="43.77885854803025722503662109375" lon="1.5672591514885425567626953125">
        <ele>133.1999969482421875</ele>
        <time>2026-08-13T07:14:57.000Z</time>
        <extensions>
          <ns3:TrackPointExtension>
            <ns3:hr>69</ns3:hr>
            <ns3:cad>0</ns3:cad>
          </ns3:TrackPointExtension>
        </extensions>
      </trkpt>
      <trkpt lat="43.77886408008635044097900390625" lon="1.56726711429655551910400390625">
        <ele>133.1999969482421875</ele>
        <time>2026-08-13T07:14:58.000Z</time>
        <extensions>
          <ns3:TrackPointExtension>
            <ns3:hr>69</ns3:hr>
            <ns3:cad>0</ns3:cad>
          </ns3:TrackPointExtension>
        </extensions>
      </trkpt>
      <trkpt lat="43.77887179143726825714111328125" lon="1.56727231107652187347412109375">
        <ele>133.1999969482421875</ele>
        <time>2026-08-13T07:14:59.000Z</time>
        <extensions>
          <ns3:TrackPointExtension>
            <ns3:hr>70</ns3:hr>
            <ns3:cad>0</ns3:cad>
          </ns3:TrackPointExtension>
        </extensions>
      </trkpt>
      <trkpt lat="43.77887598238885402679443359375" lon="1.5672769211232662200927734375">
        <ele>133.1999969482421875</ele>
        <time>2026-08-13T07:15:00.000Z</time>
        <extensions>
          <ns3:TrackPointExtension>
            <ns3:hr>70</ns3:hr>
            <ns3:cad>0</ns3:cad>
          </ns3:TrackPointExtension>
        </extensions>
      </trkpt>
      <trkpt lat="43.77888201735913753509521484375" lon="1.567282788455486297607421875">
        <ele>133.1999969482421875</ele>
        <time>2026-08-13T07:15:01.000Z</time>
        <extensions>
          <ns3:TrackPointExtension>
            <ns3:hr>70</ns3:hr>
            <ns3:cad>0</ns3:cad>
          </ns3:TrackPointExtension>
        </extensions>
      </trkpt>
      <trkpt lat="43.77888620831072330474853515625" lon="1.5672856383025646209716796875">
        <ele>133.1999969482421875</ele>
        <time>2026-08-13T07:15:02.000Z</time>
        <extensions>
          <ns3:TrackPointExtension>
            <ns3:hr>71</ns3:hr>
            <ns3:cad>0</ns3:cad>
          </ns3:TrackPointExtension>
        </extensions>
      </trkpt>
      <trkpt lat="43.7788886390626430511474609375" lon="1.567281782627105712890625">
        <ele>133.1999969482421875</ele>
        <time>2026-08-13T07:15:03.000Z</time>
        <extensions>
          <ns3:TrackPointExtension>
            <ns3:hr>70</ns3:hr>
            <ns3:cad>0</ns3:cad>
          </ns3:TrackPointExtension>
        </extensions>
      </trkpt>
      <trkpt lat="43.77888754941523075103759765625" lon="1.5672822855412960052490234375">
        <ele>133.1999969482421875</ele>
        <time>2026-08-13T07:15:04.000Z</time>
        <extensions>
          <ns3:TrackPointExtension>
            <ns3:hr>70</ns3:hr>
            <ns3:cad>0</ns3:cad>
          </ns3:TrackPointExtension>
        </extensions>
      </trkpt>
      <trkpt lat="43.77888754941523075103759765625" lon="1.5672822855412960052490234375">
        <ele>133.1999969482421875</ele>
        <time>2026-08-13T07:15:05.000Z</time>
        <extensions>
          <ns3:TrackPointExtension>
            <ns3:hr>69</ns3:hr>
            <ns3:cad>0</ns3:cad>
          </ns3:TrackPointExtension>
        </extensions>
      </trkpt>
      <trkpt lat="43.77888754941523075103759765625" lon="1.5672822855412960052490234375">
        <ele>133.1999969482421875</ele>
        <time>2026-08-13T07:15:06.000Z</time>
        <extensions>
          <ns3:TrackPointExtension>
            <ns3:hr>69</ns3:hr>
            <ns3:cad>0</ns3:cad>
          </ns3:TrackPointExtension>
        </extensions>
      </trkpt>
      <trkpt lat="43.77888754941523075103759765625" lon="1.5672822855412960052490234375">
        <ele>133.1999969482421875</ele>
        <time>2026-08-13T07:15:07.000Z</time>
        <extensions>
          <ns3:TrackPointExtension>
            <ns3:hr>69</ns3:hr>
            <ns3:cad>0</ns3:cad>
          </ns3:TrackPointExtension>
        </extensions>
      </trkpt>
      <trkpt lat="43.77888754941523075103759765625" lon="1.5672822855412960052490234375">
        <ele>133.1999969482421875</ele>
        <time>2026-08-13T07:15:08.000Z</time>
        <extensions>
          <ns3:TrackPointExtension>
            <ns3:hr>69</ns3:hr>
            <ns3:cad>0</ns3:cad>
          </ns3:TrackPointExtension>
        </extensions>
      </trkpt>
      <trkpt lat="43.77888754941523075103759765625" lon="1.5672822855412960052490234375">
        <ele>133.1999969482421875</ele>
        <time>2026-08-13T07:15:09.000Z</time>
        <extensions>
          <ns3:TrackPointExtension>
            <ns3:hr>70</ns3:hr>
            <ns3:cad>0</ns3:cad>
          </ns3:TrackPointExtension>
        </extensions>
      </trkpt>
      <trkpt lat="43.77888754941523075103759765625" lon="1.5672822855412960052490234375">
        <ele>133.1999969482421875</ele>
        <time>2026-08-13T07:15:10.000Z</time>
        <extensions>
          <ns3:TrackPointExtension>
            <ns3:hr>70</ns3:hr>
            <ns3:cad>0</ns3:cad>
          </ns3:TrackPointExtension>
        </extensions>
      </trkpt>
      <trkpt lat="43.77888754941523075103759765625" lon="1.5672822855412960052490234375">
        <ele>133.1999969482421875</ele>
        <time>2026-08-13T07:15:11.000Z</time>
        <extensions>
          <ns3:TrackPointExtension>
            <ns3:hr>71</ns3:hr>
            <ns3:cad>0</ns3:cad>
          </ns3:TrackPointExtension>
        </extensions>
      </trkpt>
      <trkpt lat="43.77888754941523075103759765625" lon="1.5672822855412960052490234375">
        <ele>133.1999969482421875</ele>
        <time>2026-08-13T07:15:12.000Z</time>
        <extensions>
          <ns3:TrackPointExtension>
            <ns3:hr>71</ns3:hr>
            <ns3:cad>0</ns3:cad>
          </ns3:TrackPointExtension>
        </extensions>
      </trkpt>
      <trkpt lat="43.77888754941523075103759765625" lon="1.5672822855412960052490234375">
        <ele>133.1999969482421875</ele>
        <time>2026-08-13T07:15:13.000Z</time>
        <extensions>
          <ns3:TrackPointExtension>
            <ns3:hr>71</ns3:hr>
            <ns3:cad>0</ns3:cad>
          </ns3:TrackPointExtension>
        </extensions>
      </trkpt>
      <trkpt lat="43.77888821996748447418212890625" lon="1.5672819502651691436767578125">
        <ele>133.1999969482421875</ele>
        <time>2026-08-13T07:15:14.000Z</time>
        <extensions>
          <ns3:TrackPointExtension>
            <ns3:hr>70</ns3:hr>
            <ns3:cad>0</ns3:cad>
          </ns3:TrackPointExtension>
        </extensions>
      </trkpt>
      <trkpt lat="43.7788919918239116668701171875" lon="1.5672832913696765899658203125">
        <ele>133.1999969482421875</ele>
        <time>2026-08-13T07:15:15.000Z</time>
        <extensions>
          <ns3:TrackPointExtension>
            <ns3:hr>70</ns3:hr>
            <ns3:cad>0</ns3:cad>
          </ns3:TrackPointExtension>
        </extensions>
      </trkpt>
      <trkpt lat="43.7788970209658145904541015625" lon="1.56729158945381641387939453125">
        <ele>133.1999969482421875</ele>
        <time>2026-08-13T07:15:16.000Z</time>
        <extensions>
          <ns3:TrackPointExtension>
            <ns3:hr>69</ns3:hr>
            <ns3:cad>0</ns3:cad>
          </ns3:TrackPointExtension>
        </extensions>
      </trkpt>
      <trkpt lat="43.77889953553676605224609375" lon="1.56729980371892452239990234375">
        <ele>133.1999969482421875</ele>
        <time>2026-08-13T07:15:17.000Z</time>
        <extensions>
          <ns3:TrackPointExtension>
            <ns3:hr>68</ns3:hr>
            <ns3:cad>0</ns3:cad>
          </ns3:TrackPointExtension>
        </extensions>
      </trkpt>
      <trkpt lat="43.77890632487833499908447265625" lon="1.56730667687952518463134765625">
        <ele>133.1999969482421875</ele>
        <time>2026-08-13T07:15:18.000Z</time>
        <extensions>
          <ns3:TrackPointExtension>
            <ns3:hr>67</ns3:hr>
            <ns3:cad>0</ns3:cad>
          </ns3:TrackPointExtension>
        </extensions>
      </trkpt>
      <trkpt lat="43.77891470678150653839111328125" lon="1.56731572933495044708251953125">
        <ele>133</ele>
        <time>2026-08-13T07:15:19.000Z</time>
        <extensions>
          <ns3:TrackPointExtension>
            <ns3:hr>66</ns3:hr>
            <ns3:cad>0</ns3:cad>
          </ns3:TrackPointExtension>
        </extensions>
      </trkpt>
      <trkpt lat="43.77892107702791690826416015625" lon="1.5673231892287731170654296875">
        <ele>133</ele>
        <time>2026-08-13T07:15:20.000Z</time>
        <extensions>
          <ns3:TrackPointExtension>
            <ns3:hr>67</ns3:hr>
            <ns3:cad>0</ns3:cad>
          </ns3:TrackPointExtension>
        </extensions>
      </trkpt>
      <trkpt lat="43.77892744727432727813720703125" lon="1.56733266077935695648193359375">
        <ele>133</ele>
        <time>2026-08-13T07:15:21.000Z</time>
        <extensions>
          <ns3:TrackPointExtension>
            <ns3:hr>68</ns3:hr>
            <ns3:cad>0</ns3:cad>
          </ns3:TrackPointExtension>
        </extensions>
      </trkpt>
      <trkpt lat="43.77893364988267421722412109375" lon="1.56734154559671878814697265625">
        <ele>133</ele>
        <time>2026-08-13T07:15:22.000Z</time>
        <extensions>
          <ns3:TrackPointExtension>
            <ns3:hr>68</ns3:hr>
            <ns3:cad>48</ns3:cad>
          </ns3:TrackPointExtension>
        </extensions>
      </trkpt>
      <trkpt lat="43.77894186414778232574462890625" lon="1.5673500113189220428466796875">
        <ele>133</ele>
        <time>2026-08-13T07:15:23.000Z</time>
        <extensions>
          <ns3:TrackPointExtension>
            <ns3:hr>67</ns3:hr>
            <ns3:cad>48</ns3:cad>
          </ns3:TrackPointExtension>
        </extensions>
      </trkpt>
      <trkpt lat="43.77894915640354156494140625" lon="1.56735763885080814361572265625">
        <ele>133</ele>
        <time>2026-08-13T07:15:24.000Z</time>
        <extensions>
          <ns3:TrackPointExtension>
            <ns3:hr>67</ns3:hr>
            <ns3:cad>48</ns3:cad>
          </ns3:TrackPointExtension>
        </extensions>
      </trkpt>
      <trkpt lat="43.77895653247833251953125" lon="1.56736426055431365966796875">
        <ele>133</ele>
        <time>2026-08-13T07:15:25.000Z</time>
        <extensions>
          <ns3:TrackPointExtension>
            <ns3:hr>67</ns3:hr>
            <ns3:cad>48</ns3:cad>
          </ns3:TrackPointExtension>
        </extensions>
      </trkpt>
      <trkpt lat="43.778962232172489166259765625" lon="1.567370630800724029541015625">
        <ele>132.8000030517578125</ele>
        <time>2026-08-13T07:15:26.000Z</time>
        <extensions>
          <ns3:TrackPointExtension>
            <ns3:hr>67</ns3:hr>
            <ns3:cad>47</ns3:cad>
          </ns3:TrackPointExtension>
        </extensions>
      </trkpt>
      <trkpt lat="43.778968267142772674560546875" lon="1.56737540848553180694580078125">
        <ele>132.8000030517578125</ele>
        <time>2026-08-13T07:15:27.000Z</time>
        <extensions>
          <ns3:TrackPointExtension>
            <ns3:hr>66</ns3:hr>
            <ns3:cad>47</ns3:cad>
          </ns3:TrackPointExtension>
        </extensions>
      </trkpt>
      <trkpt lat="43.77897505648434162139892578125" lon="1.56737792305648326873779296875">
        <ele>132.8000030517578125</ele>
        <time>2026-08-13T07:15:28.000Z</time>
        <extensions>
          <ns3:TrackPointExtension>
            <ns3:hr>66</ns3:hr>
            <ns3:cad>47</ns3:cad>
          </ns3:TrackPointExtension>
        </extensions>
      </trkpt>
      <trkpt lat="43.778985030949115753173828125" lon="1.567376665771007537841796875">
        <ele>132.600006103515625</ele>
        <time>2026-08-13T07:15:29.000Z</time>
        <extensions>
          <ns3:TrackPointExtension>
            <ns3:hr>66</ns3:hr>
            <ns3:cad>47</ns3:cad>
          </ns3:TrackPointExtension>
        </extensions>
      </trkpt>
      <trkpt lat="43.77899232320487499237060546875" lon="1.56737825833261013031005859375">
        <ele>132.600006103515625</ele>
        <time>2026-08-13T07:15:30.000Z</time>
        <extensions>
          <ns3:TrackPointExtension>
            <ns3:hr>67</ns3:hr>
            <ns3:cad>48</ns3:cad>
          </ns3:TrackPointExtension>
        </extensions>
      </trkpt>
      <trkpt lat="43.7789999507367610931396484375" lon="1.56738077290356159210205078125">
        <ele>132.600006103515625</ele>
        <time>2026-08-13T07:15:31.000Z</time>
        <extensions>
          <ns3:TrackPointExtension>
            <ns3:hr>67</ns3:hr>
            <ns3:cad>48</ns3:cad>
          </ns3:TrackPointExtension>
        </extensions>
      </trkpt>
      <trkpt lat="43.77900891937315464019775390625" lon="1.56738630495965480804443359375">
        <ele>132.600006103515625</ele>
        <time>2026-08-13T07:15:32.000Z</time>
        <extensions>
          <ns3:TrackPointExtension>
            <ns3:hr>67</ns3:hr>
            <ns3:cad>48</ns3:cad>
          </ns3:TrackPointExtension>
        </extensions>
      </trkpt>
      <trkpt lat="43.77902383916079998016357421875" lon="1.5673877298831939697265625">
        <ele>132.600006103515625</ele>
        <time>2026-08-13T07:15:33.000Z</time>
        <extensions>
          <ns3:TrackPointExtension>
            <ns3:hr>67</ns3:hr>
            <ns3:cad>48</ns3:cad>
          </ns3:TrackPointExtension>
        </extensions>
      </trkpt>
      <trkpt lat="43.779038004577159881591796875" lon="1.56738731078803539276123046875">
        <ele>132.600006103515625</ele>
        <time>2026-08-13T07:15:34.000Z</time>
        <extensions>
          <ns3:TrackPointExtension>
            <ns3:hr>68</ns3:hr>
            <ns3:cad>48</ns3:cad>
          </ns3:TrackPointExtension>
        </extensions>
      </trkpt>
      <trkpt lat="43.7790495716035366058349609375" lon="1.5673872269690036773681640625">
        <ele>132.600006103515625</ele>
        <time>2026-08-13T07:15:35.000Z</time>
        <extensions>
          <ns3:TrackPointExtension>
            <ns3:hr>68</ns3:hr>
            <ns3:cad>48</ns3:cad>
          </ns3:TrackPointExtension>
        </extensions>
      </trkpt>
      <trkpt lat="43.77905854023993015289306640625" lon="1.56738303601741790771484375">
        <ele>132.399993896484375</ele>
        <time>2026-08-13T07:15:36.000Z</time>
        <extensions>
          <ns3:TrackPointExtension>
            <ns3:hr>67</ns3:hr>
            <ns3:cad>48</ns3:cad>
          </ns3:TrackPointExtension>
        </extensions>
      </trkpt>
      <trkpt lat="43.77906574867665767669677734375" lon="1.56738513149321079254150390625">
        <ele>132.399993896484375</ele>
        <time>2026-08-13T07:15:37.000Z</time>
        <extensions>
          <ns3:TrackPointExtension>
            <ns3:hr>67</ns3:hr>
            <ns3:cad>48</ns3:cad>
          </ns3:TrackPointExtension>
        </extensions>
      </trkpt>
      <trkpt lat="43.7790705263614654541015625" lon="1.56738630495965480804443359375">
        <ele>132.399993896484375</ele>
        <time>2026-08-13T07:15:38.000Z</time>
        <extensions>
          <ns3:TrackPointExtension>
            <ns3:hr>67</ns3:hr>
            <ns3:cad>0</ns3:cad>
          </ns3:TrackPointExtension>
        </extensions>
      </trkpt>
      <trkpt lat="43.77907128073275089263916015625" lon="1.56738563440740108489990234375">
        <ele>132.399993896484375</ele>
        <time>2026-08-13T07:15:39.000Z</time>
        <extensions>
          <ns3:TrackPointExtension>
            <ns3:hr>68</ns3:hr>
            <ns3:cad>0</ns3:cad>
          </ns3:TrackPointExtension>
        </extensions>
      </trkpt>
      <trkpt lat="43.7790716998279094696044921875" lon="1.56738437712192535400390625">
        <ele>132.600006103515625</ele>
        <time>2026-08-13T07:15:40.000Z</time>
        <extensions>
          <ns3:TrackPointExtension>
            <ns3:hr>67</ns3:hr>
            <ns3:cad>0</ns3:cad>
          </ns3:TrackPointExtension>
        </extensions>
      </trkpt>
      <trkpt lat="43.779074884951114654541015625" lon="1.5673845447599887847900390625">
        <ele>132.600006103515625</ele>
        <time>2026-08-13T07:15:41.000Z</time>
        <extensions>
          <ns3:TrackPointExtension>
            <ns3:hr>67</ns3:hr>
            <ns3:cad>0</ns3:cad>
          </ns3:TrackPointExtension>
        </extensions>
      </trkpt>
      <trkpt lat="43.7790810875594615936279296875" lon="1.5673863887786865234375">
        <ele>132.600006103515625</ele>
        <time>2026-08-13T07:15:42.000Z</time>
        <extensions>
          <ns3:TrackPointExtension>
            <ns3:hr>68</ns3:hr>
            <ns3:cad>0</ns3:cad>
          </ns3:TrackPointExtension>
        </extensions>
      </trkpt>
      <trkpt lat="43.77908997237682342529296875" lon="1.56738798134028911590576171875">
        <ele>132.600006103515625</ele>
        <time>2026-08-13T07:15:43.000Z</time>
        <extensions>
          <ns3:TrackPointExtension>
            <ns3:hr>68</ns3:hr>
            <ns3:cad>0</ns3:cad>
          </ns3:TrackPointExtension>
        </extensions>
      </trkpt>
      <trkpt lat="43.779097013175487518310546875" lon="1.567389070987701416015625">
        <ele>132.600006103515625</ele>
        <time>2026-08-13T07:15:44.000Z</time>
        <extensions>
          <ns3:TrackPointExtension>
            <ns3:hr>69</ns3:hr>
            <ns3:cad>0</ns3:cad>
          </ns3:TrackPointExtension>
        </extensions>
      </trkpt>
      <trkpt lat="43.7791085802018642425537109375" lon="1.5673892386257648468017578125">
        <ele>132.600006103515625</ele>
        <time>2026-08-13T07:15:45.000Z</time>
        <extensions>
          <ns3:TrackPointExtension>
            <ns3:hr>70</ns3:hr>
            <ns3:cad>0</ns3:cad>
          </ns3:TrackPointExtension>
        </extensions>
      </trkpt>
      <trkpt lat="43.7791260145604610443115234375" lon="1.5673946030437946319580078125">
        <ele>132.600006103515625</ele>
        <time>2026-08-13T07:15:46.000Z</time>
        <extensions>
          <ns3:TrackPointExtension>
            <ns3:hr>71</ns3:hr>
            <ns3:cad>0</ns3:cad>
          </ns3:TrackPointExtension>
        </extensions>
      </trkpt>
      <trkpt lat="43.77914453856647014617919921875" lon="1.56739971600472927093505859375">
        <ele>132.399993896484375</ele>
        <time>2026-08-13T07:15:47.000Z</time>
        <extensions>
          <ns3:TrackPointExtension>
            <ns3:hr>74</ns3:hr>
            <ns3:cad>57</ns3:cad>
          </ns3:TrackPointExtension>
        </extensions>
      </trkpt>
      <trkpt lat="43.77915836870670318603515625" lon="1.56740223057568073272705078125">
        <ele>132.399993896484375</ele>
        <time>2026-08-13T07:15:48.000Z</time>
        <extensions>
          <ns3:TrackPointExtension>
            <ns3:hr>73</ns3:hr>
            <ns3:cad>57</ns3:cad>
          </ns3:TrackPointExtension>
        </extensions>
      </trkpt>
      <trkpt lat="43.77917312085628509521484375" lon="1.56740558333694934844970703125">
        <ele>132.399993896484375</ele>
        <time>2026-08-13T07:15:49.000Z</time>
        <extensions>
          <ns3:TrackPointExtension>
            <ns3:hr>74</ns3:hr>
            <ns3:cad>0</ns3:cad>
          </ns3:TrackPointExtension>
        </extensions>
      </trkpt>
      <trkpt lat="43.7791850231587886810302734375" lon="1.56740725971758365631103515625">
        <ele>132.399993896484375</ele>
        <time>2026-08-13T07:15:50.000Z</time>
        <extensions>
          <ns3:TrackPointExtension>
            <ns3:hr>72</ns3:hr>
            <ns3:cad>0</ns3:cad>
          </ns3:TrackPointExtension>
        </extensions>
      </trkpt>
      <trkpt lat="43.77919449470937252044677734375" lon="1.5674078464508056640625">
        <ele>132.600006103515625</ele>
        <time>2026-08-13T07:15:51.000Z</time>
        <extensions>
          <ns3:TrackPointExtension>
            <ns3:hr>73</ns3:hr>
            <ns3:cad>52</ns3:cad>
          </ns3:TrackPointExtension>
        </extensions>
      </trkpt>
      <trkpt lat="43.77920086495578289031982421875" lon="1.56740725971758365631103515625">
        <ele>132.600006103515625</ele>
        <time>2026-08-13T07:15:52.000Z</time>
        <extensions>
          <ns3:TrackPointExtension>
            <ns3:hr>73</ns3:hr>
            <ns3:cad>52</ns3:cad>
          </ns3:TrackPointExtension>
        </extensions>
      </trkpt>
      <trkpt lat="43.77921192906796932220458984375" lon="1.5674093551933765411376953125">
        <ele>132.600006103515625</ele>
        <time>2026-08-13T07:15:53.000Z</time>
        <extensions>
          <ns3:TrackPointExtension>
            <ns3:hr>76</ns3:hr>
            <ns3:cad>52</ns3:cad>
          </ns3:TrackPointExtension>
        </extensions>
      </trkpt>
      <trkpt lat="43.7792208977043628692626953125" lon="1.56741128303110599517822265625">
        <ele>132.8000030517578125</ele>
        <time>2026-08-13T07:15:54.000Z</time>
        <extensions>
          <ns3:TrackPointExtension>
            <ns3:hr>81</ns3:hr>
            <ns3:cad>52</ns3:cad>
          </ns3:TrackPointExtension>
        </extensions>
      </trkpt>
      <trkpt lat="43.779229111969470977783203125" lon="1.567412875592708587646484375">
        <ele>132.8000030517578125</ele>
        <time>2026-08-13T07:15:55.000Z</time>
        <extensions>
          <ns3:TrackPointExtension>
            <ns3:hr>86</ns3:hr>
            <ns3:cad>53</ns3:cad>
          </ns3:TrackPointExtension>
        </extensions>
      </trkpt>
      <trkpt lat="43.77923640422523021697998046875" lon="1.56741379760205745697021484375">
        <ele>132.600006103515625</ele>
        <time>2026-08-13T07:15:56.000Z</time>
        <extensions>
          <ns3:TrackPointExtension>
            <ns3:hr>86</ns3:hr>
            <ns3:cad>53</ns3:cad>
          </ns3:TrackPointExtension>
        </extensions>
      </trkpt>
      <trkpt lat="43.77924428321421146392822265625" lon="1.56741547398269176483154296875">
        <ele>132.600006103515625</ele>
        <time>2026-08-13T07:15:57.000Z</time>
        <extensions>
          <ns3:TrackPointExtension>
            <ns3:hr>86</ns3:hr>
            <ns3:cad>0</ns3:cad>
          </ns3:TrackPointExtension>
        </extensions>
      </trkpt>
      <trkpt lat="43.77925182692706584930419921875" lon="1.56741748563945293426513671875">
        <ele>132.600006103515625</ele>
        <time>2026-08-13T07:15:58.000Z</time>
        <extensions>
          <ns3:TrackPointExtension>
            <ns3:hr>86</ns3:hr>
            <ns3:cad>0</ns3:cad>
          </ns3:TrackPointExtension>
        </extensions>
      </trkpt>
      <trkpt lat="43.7792631424963474273681640625" lon="1.56741949729621410369873046875">
        <ele>132.600006103515625</ele>
        <time>2026-08-13T07:15:59.000Z</time>
        <extensions>
          <ns3:TrackPointExtension>
            <ns3:hr>85</ns3:hr>
            <ns3:cad>51</ns3:cad>
          </ns3:TrackPointExtension>
        </extensions>
      </trkpt>
      <trkpt lat="43.77927504479885101318359375" lon="1.56742326915264129638671875">
        <ele>132.600006103515625</ele>
        <time>2026-08-13T07:16:00.000Z</time>
        <extensions>
          <ns3:TrackPointExtension>
            <ns3:hr>85</ns3:hr>
            <ns3:cad>51</ns3:cad>
          </ns3:TrackPointExtension>
        </extensions>
      </trkpt>
      <trkpt lat="43.77928719855844974517822265625" lon="1.56742754392325878143310546875">
        <ele>132.399993896484375</ele>
        <time>2026-08-13T07:16:01.000Z</time>
        <extensions>
          <ns3:TrackPointExtension>
            <ns3:hr>85</ns3:hr>
            <ns3:cad>51</ns3:cad>
          </ns3:TrackPointExtension>
        </extensions>
      </trkpt>
      <trkpt lat="43.77929457463324069976806640625" lon="1.5674301423132419586181640625">
        <ele>132.399993896484375</ele>
        <time>2026-08-13T07:16:02.000Z</time>
        <extensions>
          <ns3:TrackPointExtension>
            <ns3:hr>84</ns3:hr>
            <ns3:cad>51</ns3:cad>
          </ns3:TrackPointExtension>
        </extensions>
      </trkpt>
      <trkpt lat="43.779303543269634246826171875" lon="1.56743424944579601287841796875">
        <ele>132.399993896484375</ele>
        <time>2026-08-13T07:16:03.000Z</time>
        <extensions>
          <ns3:TrackPointExtension>
            <ns3:hr>84</ns3:hr>
            <ns3:cad>51</ns3:cad>
          </ns3:TrackPointExtension>
        </extensions>
      </trkpt>
      <trkpt lat="43.7793137691915035247802734375" lon="1.56743207015097141265869140625">
        <ele>132.399993896484375</ele>
        <time>2026-08-13T07:16:04.000Z</time>
        <extensions>
          <ns3:TrackPointExtension>
            <ns3:hr>84</ns3:hr>
            <ns3:cad>53</ns3:cad>
          </ns3:TrackPointExtension>
        </extensions>
      </trkpt>
      <trkpt lat="43.7793201394379138946533203125" lon="1.5674304775893688201904296875">
        <ele>132.399993896484375</ele>
        <time>2026-08-13T07:16:05.000Z</time>
        <extensions>
          <ns3:TrackPointExtension>
            <ns3:hr>84</ns3:hr>
            <ns3:cad>0</ns3:cad>
          </ns3:TrackPointExtension>
        </extensions>
      </trkpt>
      <trkpt lat="43.77932525239884853363037109375" lon="1.56742888502776622772216796875">
        <ele>132.399993896484375</ele>
        <time>2026-08-13T07:16:06.000Z</time>
        <extensions>
          <ns3:TrackPointExtension>
            <ns3:hr>83</ns3:hr>
            <ns3:cad>0</ns3:cad>
          </ns3:TrackPointExtension>
        </extensions>
      </trkpt>
      <trkpt lat="43.77932927571237087249755859375" lon="1.56742729246616363525390625">
        <ele>132.399993896484375</ele>
        <time>2026-08-13T07:16:07.000Z</time>
        <extensions>
          <ns3:TrackPointExtension>
            <ns3:hr>83</ns3:hr>
            <ns3:cad>0</ns3:cad>
          </ns3:TrackPointExtension>
        </extensions>
      </trkpt>
      <trkpt lat="43.77933363430202007293701171875" lon="1.56742653809487819671630859375">
        <ele>132.600006103515625</ele>
        <time>2026-08-13T07:16:08.000Z</time>
        <extensions>
          <ns3:TrackPointExtension>
            <ns3:hr>82</ns3:hr>
            <ns3:cad>0</ns3:cad>
          </ns3:TrackPointExtension>
        </extensions>
      </trkpt>
      <trkpt lat="43.77933648414909839630126953125" lon="1.56742620281875133514404296875">
        <ele>132.600006103515625</ele>
        <time>2026-08-13T07:16:09.000Z</time>
        <extensions>
          <ns3:TrackPointExtension>
            <ns3:hr>82</ns3:hr>
            <ns3:cad>0</ns3:cad>
          </ns3:TrackPointExtension>
        </extensions>
      </trkpt>
      <trkpt lat="43.77934386022388935089111328125" lon="1.56743207015097141265869140625">
        <ele>132.399993896484375</ele>
        <time>2026-08-13T07:16:10.000Z</time>
        <extensions>
          <ns3:TrackPointExtension>
            <ns3:hr>81</ns3:hr>
            <ns3:cad>0</ns3:cad>
          </ns3:TrackPointExtension>
        </extensions>
      </trkpt>
      <trkpt lat="43.779355846345424652099609375" lon="1.56744246371090412139892578125">
        <ele>132.399993896484375</ele>
        <time>2026-08-13T07:16:11.000Z</time>
        <extensions>
          <ns3:TrackPointExtension>
            <ns3:hr>81</ns3:hr>
            <ns3:cad>0</ns3:cad>
          </ns3:TrackPointExtension>
        </extensions>
      </trkpt>
      <trkpt lat="43.77936582081019878387451171875" lon="1.567453779280185699462890625">
        <ele>132.399993896484375</ele>
        <time>2026-08-13T07:16:12.000Z</time>
        <extensions>
          <ns3:TrackPointExtension>
            <ns3:hr>80</ns3:hr>
            <ns3:cad>0</ns3:cad>
          </ns3:TrackPointExtension>
        </extensions>
      </trkpt>
      <trkpt lat="43.77937805838882923126220703125" lon="1.567468531429767608642578125">
        <ele>132.1999969482421875</ele>
        <time>2026-08-13T07:16:13.000Z</time>
        <extensions>
          <ns3:TrackPointExtension>
            <ns3:hr>80</ns3:hr>
            <ns3:cad>0</ns3:cad>
          </ns3:TrackPointExtension>
        </extensions>
      </trkpt>
      <trkpt lat="43.77938694320619106292724609375" lon="1.56748236157000064849853515625">
        <ele>132.1999969482421875</ele>
        <time>2026-08-13T07:16:14.000Z</time>
        <extensions>
          <ns3:TrackPointExtension>
            <ns3:hr>79</ns3:hr>
            <ns3:cad>0</ns3:cad>
          </ns3:TrackPointExtension>
        </extensions>
      </trkpt>
      <trkpt lat="43.7793952412903308868408203125" lon="1.56749610789120197296142578125">
        <ele>132.1999969482421875</ele>
        <time>2026-08-13T07:16:15.000Z</time>
        <extensions>
          <ns3:TrackPointExtension>
            <ns3:hr>78</ns3:hr>
            <ns3:cad>51</ns3:cad>
          </ns3:TrackPointExtension>
        </extensions>
      </trkpt>
      <trkpt lat="43.7794036231935024261474609375" lon="1.567507088184356689453125">
        <ele>132.1999969482421875</ele>
        <time>2026-08-13T07:16:16.000Z</time>
        <extensions>
          <ns3:TrackPointExtension>
            <ns3:hr>78</ns3:hr>
            <ns3:cad>51</ns3:cad>
          </ns3:TrackPointExtension>
        </extensions>
      </trkpt>
      <trkpt lat="43.77940672449767589569091796875" lon="1.567511446774005889892578125">
        <ele>132.399993896484375</ele>
        <time>2026-08-13T07:16:17.000Z</time>
        <extensions>
          <ns3:TrackPointExtension>
            <ns3:hr>78</ns3:hr>
            <ns3:cad>51</ns3:cad>
          </ns3:TrackPointExtension>
        </extensions>
      </trkpt>
      <trkpt lat="43.77940513193607330322265625" lon="1.56750884838402271270751953125">
        <ele>132.399993896484375</ele>
        <time>2026-08-13T07:16:18.000Z</time>
        <extensions>
          <ns3:TrackPointExtension>
            <ns3:hr>79</ns3:hr>
            <ns3:cad>51</ns3:cad>
          </ns3:TrackPointExtension>
        </extensions>
      </trkpt>
      <trkpt lat="43.779402785003185272216796875" lon="1.56750733964145183563232421875">
        <ele>132.399993896484375</ele>
        <time>2026-08-13T07:16:19.000Z</time>
        <extensions>
          <ns3:TrackPointExtension>
            <ns3:hr>79</ns3:hr>
            <ns3:cad>0</ns3:cad>
          </ns3:TrackPointExtension>
        </extensions>
      </trkpt>
      <trkpt lat="43.77940102480351924896240234375" lon="1.56750499270856380462646484375">
        <ele>132.399993896484375</ele>
        <time>2026-08-13T07:16:20.000Z</time>
        <extensions>
          <ns3:TrackPointExtension>
            <ns3:hr>80</ns3:hr>
            <ns3:cad>0</ns3:cad>
          </ns3:TrackPointExtension>
        </extensions>
      </trkpt>
      <trkpt lat="43.779402785003185272216796875" lon="1.56750834546983242034912109375">
        <ele>132.399993896484375</ele>
        <time>2026-08-13T07:16:21.000Z</time>
        <extensions>
          <ns3:TrackPointExtension>
            <ns3:hr>80</ns3:hr>
            <ns3:cad>0</ns3:cad>
          </ns3:TrackPointExtension>
        </extensions>
      </trkpt>
      <trkpt lat="43.779409490525722503662109375" lon="1.567516811192035675048828125">
        <ele>132.399993896484375</ele>
        <time>2026-08-13T07:16:22.000Z</time>
        <extensions>
          <ns3:TrackPointExtension>
            <ns3:hr>81</ns3:hr>
            <ns3:cad>0</ns3:cad>
          </ns3:TrackPointExtension>
        </extensions>
      </trkpt>
      <trkpt lat="43.779418207705020904541015625" lon="1.56752343289554119110107421875">
        <ele>132.399993896484375</ele>
        <time>2026-08-13T07:16:23.000Z</time>
        <extensions>
          <ns3:TrackPointExtension>
            <ns3:hr>81</ns3:hr>
            <ns3:cad>0</ns3:cad>
          </ns3:TrackPointExtension>
        </extensions>
      </trkpt>
      <trkpt lat="43.779424913227558135986328125" lon="1.567529551684856414794921875">
        <ele>132.399993896484375</ele>
        <time>2026-08-13T07:16:24.000Z</time>
        <extensions>
          <ns3:TrackPointExtension>
            <ns3:hr>81</ns3:hr>
            <ns3:cad>0</ns3:cad>
          </ns3:TrackPointExtension>
        </extensions>
      </trkpt>
      <trkpt lat="43.77943052910268306732177734375" lon="1.56753315590322017669677734375">
        <ele>132.399993896484375</ele>
        <time>2026-08-13T07:16:25.000Z</time>
        <extensions>
          <ns3:TrackPointExtension>
            <ns3:hr>81</ns3:hr>
            <ns3:cad>0</ns3:cad>
          </ns3:TrackPointExtension>
        </extensions>
      </trkpt>
      <trkpt lat="43.77943220548331737518310546875" lon="1.56753458082675933837890625">
        <ele>132.399993896484375</ele>
        <time>2026-08-13T07:16:26.000Z</time>
        <extensions>
          <ns3:TrackPointExtension>
            <ns3:hr>80</ns3:hr>
            <ns3:cad>0</ns3:cad>
          </ns3:TrackPointExtension>
        </extensions>
      </trkpt>
      <trkpt lat="43.77943220548331737518310546875" lon="1.5675364248454570770263671875">
        <ele>132.399993896484375</ele>
        <time>2026-08-13T07:16:27.000Z</time>
        <extensions>
          <ns3:TrackPointExtension>
            <ns3:hr>79</ns3:hr>
            <ns3:cad>0</ns3:cad>
          </ns3:TrackPointExtension>
        </extensions>
      </trkpt>
      <trkpt lat="43.7794344685971736907958984375" lon="1.567537598311901092529296875">
        <ele>132.399993896484375</ele>
        <time>2026-08-13T07:16:28.000Z</time>
        <extensions>
          <ns3:TrackPointExtension>
            <ns3:hr>79</ns3:hr>
            <ns3:cad>0</ns3:cad>
          </ns3:TrackPointExtension>
        </extensions>
      </trkpt>
      <trkpt lat="43.77943455241620540618896484375" lon="1.5675374306738376617431640625">
        <ele>132.600006103515625</ele>
        <time>2026-08-13T07:16:29.000Z</time>
        <extensions>
          <ns3:TrackPointExtension>
            <ns3:hr>79</ns3:hr>
            <ns3:cad>0</ns3:cad>
          </ns3:TrackPointExtension>
        </extensions>
      </trkpt>
      <trkpt lat="43.77943455241620540618896484375" lon="1.5675374306738376617431640625">
        <ele>132.600006103515625</ele>
        <time>2026-08-13T07:16:30.000Z</time>
        <extensions>
          <ns3:TrackPointExtension>
            <ns3:hr>80</ns3:hr>
            <ns3:cad>0</ns3:cad>
          </ns3:TrackPointExtension>
        </extensions>
      </trkpt>
      <trkpt lat="43.77943455241620540618896484375" lon="1.5675374306738376617431640625">
        <ele>132.600006103515625</ele>
        <time>2026-08-13T07:16:31.000Z</time>
        <extensions>
          <ns3:TrackPointExtension>
            <ns3:hr>80</ns3:hr>
            <ns3:cad>0</ns3:cad>
          </ns3:TrackPointExtension>
        </extensions>
      </trkpt>
      <trkpt lat="43.77943455241620540618896484375" lon="1.5675374306738376617431640625">
        <ele>132.600006103515625</ele>
        <time>2026-08-13T07:16:32.000Z</time>
        <extensions>
          <ns3:TrackPointExtension>
            <ns3:hr>80</ns3:hr>
            <ns3:cad>0</ns3:cad>
          </ns3:TrackPointExtension>
        </extensions>
      </trkpt>
      <trkpt lat="43.77943455241620540618896484375" lon="1.5675374306738376617431640625">
        <ele>132.600006103515625</ele>
        <time>2026-08-13T07:16:33.000Z</time>
        <extensions>
          <ns3:TrackPointExtension>
            <ns3:hr>79</ns3:hr>
            <ns3:cad>0</ns3:cad>
          </ns3:TrackPointExtension>
        </extensions>
      </trkpt>
      <trkpt lat="43.77943455241620540618896484375" lon="1.5675374306738376617431640625">
        <ele>132.600006103515625</ele>
        <time>2026-08-13T07:16:34.000Z</time>
        <extensions>
          <ns3:TrackPointExtension>
            <ns3:hr>79</ns3:hr>
            <ns3:cad>0</ns3:cad>
          </ns3:TrackPointExtension>
        </extensions>
      </trkpt>
      <trkpt lat="43.77943455241620540618896484375" lon="1.5675374306738376617431640625">
        <ele>132.600006103515625</ele>
        <time>2026-08-13T07:16:35.000Z</time>
        <extensions>
          <ns3:TrackPointExtension>
            <ns3:hr>78</ns3:hr>
            <ns3:cad>0</ns3:cad>
          </ns3:TrackPointExtension>
        </extensions>
      </trkpt>
      <trkpt lat="43.77943455241620540618896484375" lon="1.5675374306738376617431640625">
        <ele>132.600006103515625</ele>
        <time>2026-08-13T07:16:36.000Z</time>
        <extensions>
          <ns3:TrackPointExtension>
            <ns3:hr>77</ns3:hr>
            <ns3:cad>0</ns3:cad>
          </ns3:TrackPointExtension>
        </extensions>
      </trkpt>
      <trkpt lat="43.77943455241620540618896484375" lon="1.5675374306738376617431640625">
        <ele>132.600006103515625</ele>
        <time>2026-08-13T07:16:37.000Z</time>
        <extensions>
          <ns3:TrackPointExtension>
            <ns3:hr>77</ns3:hr>
            <ns3:cad>0</ns3:cad>
          </ns3:TrackPointExtension>
        </extensions>
      </trkpt>
      <trkpt lat="43.77943455241620540618896484375" lon="1.5675374306738376617431640625">
        <ele>132.600006103515625</ele>
        <time>2026-08-13T07:16:38.000Z</time>
        <extensions>
          <ns3:TrackPointExtension>
            <ns3:hr>77</ns3:hr>
            <ns3:cad>0</ns3:cad>
          </ns3:TrackPointExtension>
        </extensions>
      </trkpt>
      <trkpt lat="43.77943455241620540618896484375" lon="1.5675374306738376617431640625">
        <ele>132.600006103515625</ele>
        <time>2026-08-13T07:16:39.000Z</time>
        <extensions>
          <ns3:TrackPointExtension>
            <ns3:hr>76</ns3:hr>
            <ns3:cad>0</ns3:cad>
          </ns3:TrackPointExtension>
        </extensions>
      </trkpt>
      <trkpt lat="43.77943455241620540618896484375" lon="1.5675374306738376617431640625">
        <ele>132.600006103515625</ele>
        <time>2026-08-13T07:16:40.000Z</time>
        <extensions>
          <ns3:TrackPointExtension>
            <ns3:hr>76</ns3:hr>
            <ns3:cad>0</ns3:cad>
          </ns3:TrackPointExtension>
        </extensions>
      </trkpt>
      <trkpt lat="43.77943455241620540618896484375" lon="1.5675374306738376617431640625">
        <ele>132.600006103515625</ele>
        <time>2026-08-13T07:16:41.000Z</time>
        <extensions>
          <ns3:TrackPointExtension>
            <ns3:hr>75</ns3:hr>
            <ns3:cad>0</ns3:cad>
          </ns3:TrackPointExtension>
        </extensions>
      </trkpt>
      <trkpt lat="43.77943455241620540618896484375" lon="1.5675374306738376617431640625">
        <ele>132.600006103515625</ele>
        <time>2026-08-13T07:16:42.000Z</time>
        <extensions>
          <ns3:TrackPointExtension>
            <ns3:hr>75</ns3:hr>
            <ns3:cad>0</ns3:cad>
          </ns3:TrackPointExtension>
        </extensions>
      </trkpt>
      <trkpt lat="43.77943455241620540618896484375" lon="1.5675374306738376617431640625">
        <ele>132.600006103515625</ele>
        <time>2026-08-13T07:16:43.000Z</time>
        <extensions>
          <ns3:TrackPointExtension>
            <ns3:hr>74</ns3:hr>
            <ns3:cad>0</ns3:cad>
          </ns3:TrackPointExtension>
        </extensions>
      </trkpt>
      <trkpt lat="43.77943455241620540618896484375" lon="1.5675374306738376617431640625">
        <ele>132.600006103515625</ele>
        <time>2026-08-13T07:16:44.000Z</time>
        <extensions>
          <ns3:TrackPointExtension>
            <ns3:hr>75</ns3:hr>
            <ns3:cad>0</ns3:cad>
          </ns3:TrackPointExtension>
        </extensions>
      </trkpt>
      <trkpt lat="43.77943455241620540618896484375" lon="1.5675374306738376617431640625">
        <ele>132.600006103515625</ele>
        <time>2026-08-13T07:16:45.000Z</time>
        <extensions>
          <ns3:TrackPointExtension>
            <ns3:hr>75</ns3:hr>
            <ns3:cad>0</ns3:cad>
          </ns3:TrackPointExtension>
        </extensions>
      </trkpt>
      <trkpt lat="43.77943455241620540618896484375" lon="1.5675374306738376617431640625">
        <ele>132.600006103515625</ele>
        <time>2026-08-13T07:16:46.000Z</time>
        <extensions>
          <ns3:TrackPointExtension>
            <ns3:hr>75</ns3:hr>
            <ns3:cad>0</ns3:cad>
          </ns3:TrackPointExtension>
        </extensions>
      </trkpt>
      <trkpt lat="43.77943455241620540618896484375" lon="1.5675374306738376617431640625">
        <ele>132.600006103515625</ele>
        <time>2026-08-13T07:16:47.000Z</time>
        <extensions>
          <ns3:TrackPointExtension>
            <ns3:hr>74</ns3:hr>
            <ns3:cad>0</ns3:cad>
          </ns3:TrackPointExtension>
        </extensions>
      </trkpt>
      <trkpt lat="43.77943455241620540618896484375" lon="1.5675374306738376617431640625">
        <ele>132.600006103515625</ele>
        <time>2026-08-13T07:16:48.000Z</time>
        <extensions>
          <ns3:TrackPointExtension>
            <ns3:hr>74</ns3:hr>
            <ns3:cad>0</ns3:cad>
          </ns3:TrackPointExtension>
        </extensions>
      </trkpt>
      <trkpt lat="43.77943455241620540618896484375" lon="1.5675374306738376617431640625">
        <ele>132.600006103515625</ele>
        <time>2026-08-13T07:16:49.000Z</time>
        <extensions>
          <ns3:TrackPointExtension>
            <ns3:hr>74</ns3:hr>
            <ns3:cad>0</ns3:cad>
          </ns3:TrackPointExtension>
        </extensions>
      </trkpt>
      <trkpt lat="43.77943455241620540618896484375" lon="1.5675374306738376617431640625">
        <ele>132.600006103515625</ele>
        <time>2026-08-13T07:16:50.000Z</time>
        <extensions>
          <ns3:TrackPointExtension>
            <ns3:hr>74</ns3:hr>
            <ns3:cad>0</ns3:cad>
          </ns3:TrackPointExtension>
        </extensions>
      </trkpt>
      <trkpt lat="43.77943455241620540618896484375" lon="1.5675374306738376617431640625">
        <ele>132.399993896484375</ele>
        <time>2026-08-13T07:16:51.000Z</time>
        <extensions>
          <ns3:TrackPointExtension>
            <ns3:hr>73</ns3:hr>
            <ns3:cad>0</ns3:cad>
          </ns3:TrackPointExtension>
        </extensions>
      </trkpt>
      <trkpt lat="43.77943455241620540618896484375" lon="1.5675374306738376617431640625">
        <ele>132.399993896484375</ele>
        <time>2026-08-13T07:16:52.000Z</time>
        <extensions>
          <ns3:TrackPointExtension>
            <ns3:hr>73</ns3:hr>
            <ns3:cad>0</ns3:cad>
          </ns3:TrackPointExtension>
        </extensions>
      </trkpt>
      <trkpt lat="43.77943455241620540618896484375" lon="1.5675374306738376617431640625">
        <ele>132.399993896484375</ele>
        <time>2026-08-13T07:16:53.000Z</time>
        <extensions>
          <ns3:TrackPointExtension>
            <ns3:hr>72</ns3:hr>
            <ns3:cad>0</ns3:cad>
          </ns3:TrackPointExtension>
        </extensions>
      </trkpt>
      <trkpt lat="43.77943455241620540618896484375" lon="1.5675374306738376617431640625">
        <ele>132.600006103515625</ele>
        <time>2026-08-13T07:16:54.000Z</time>
        <extensions>
          <ns3:TrackPointExtension>
            <ns3:hr>71</ns3:hr>
            <ns3:cad>0</ns3:cad>
          </ns3:TrackPointExtension>
        </extensions>
      </trkpt>
      <trkpt lat="43.77943455241620540618896484375" lon="1.5675374306738376617431640625">
        <ele>132.600006103515625</ele>
        <time>2026-08-13T07:16:55.000Z</time>
        <extensions>
          <ns3:TrackPointExtension>
            <ns3:hr>71</ns3:hr>
            <ns3:cad>0</ns3:cad>
          </ns3:TrackPointExtension>
        </extensions>
      </trkpt>
      <trkpt lat="43.77943455241620540618896484375" lon="1.5675374306738376617431640625">
        <ele>132.600006103515625</ele>
        <time>2026-08-13T07:16:56.000Z</time>
        <extensions>
          <ns3:TrackPointExtension>
            <ns3:hr>70</ns3:hr>
            <ns3:cad>0</ns3:cad>
          </ns3:TrackPointExtension>
        </extensions>
      </trkpt>
      <trkpt lat="43.77943455241620540618896484375" lon="1.5675374306738376617431640625">
        <ele>132.600006103515625</ele>
        <time>2026-08-13T07:16:57.000Z</time>
        <extensions>
          <ns3:TrackPointExtension>
            <ns3:hr>69</ns3:hr>
            <ns3:cad>0</ns3:cad>
          </ns3:TrackPointExtension>
        </extensions>
      </trkpt>
      <trkpt lat="43.77943455241620540618896484375" lon="1.5675374306738376617431640625">
        <ele>132.600006103515625</ele>
        <time>2026-08-13T07:16:58.000Z</time>
        <extensions>
          <ns3:TrackPointExtension>
            <ns3:hr>68</ns3:hr>
            <ns3:cad>0</ns3:cad>
          </ns3:TrackPointExtension>
        </extensions>
      </trkpt>
      <trkpt lat="43.77943455241620540618896484375" lon="1.5675374306738376617431640625">
        <ele>132.600006103515625</ele>
        <time>2026-08-13T07:16:59.000Z</time>
        <extensions>
          <ns3:TrackPointExtension>
            <ns3:hr>66</ns3:hr>
            <ns3:cad>0</ns3:cad>
          </ns3:TrackPointExtension>
        </extensions>
      </trkpt>
      <trkpt lat="43.77943455241620540618896484375" lon="1.5675374306738376617431640625">
        <ele>132.600006103515625</ele>
        <time>2026-08-13T07:17:00.000Z</time>
        <extensions>
          <ns3:TrackPointExtension>
            <ns3:hr>65</ns3:hr>
            <ns3:cad>0</ns3:cad>
          </ns3:TrackPointExtension>
        </extensions>
      </trkpt>
      <trkpt lat="43.77943455241620540618896484375" lon="1.5675374306738376617431640625">
        <ele>132.600006103515625</ele>
        <time>2026-08-13T07:17:01.000Z</time>
        <extensions>
          <ns3:TrackPointExtension>
            <ns3:hr>64</ns3:hr>
            <ns3:cad>0</ns3:cad>
          </ns3:TrackPointExtension>
        </extensions>
      </trkpt>
      <trkpt lat="43.77943455241620540618896484375" lon="1.5675374306738376617431640625">
        <ele>132.600006103515625</ele>
        <time>2026-08-13T07:17:02.000Z</time>
        <extensions>
          <ns3:TrackPointExtension>
            <ns3:hr>64</ns3:hr>
            <ns3:cad>0</ns3:cad>
          </ns3:TrackPointExtension>
        </extensions>
      </trkpt>
      <trkpt lat="43.77943455241620540618896484375" lon="1.5675374306738376617431640625">
        <ele>132.600006103515625</ele>
        <time>2026-08-13T07:17:03.000Z</time>
        <extensions>
          <ns3:TrackPointExtension>
            <ns3:hr>64</ns3:hr>
            <ns3:cad>0</ns3:cad>
          </ns3:TrackPointExtension>
        </extensions>
      </trkpt>
      <trkpt lat="43.77943455241620540618896484375" lon="1.5675374306738376617431640625">
        <ele>132.600006103515625</ele>
        <time>2026-08-13T07:17:04.000Z</time>
        <extensions>
          <ns3:TrackPointExtension>
            <ns3:hr>64</ns3:hr>
            <ns3:cad>0</ns3:cad>
          </ns3:TrackPointExtension>
        </extensions>
      </trkpt>
      <trkpt lat="43.77943455241620540618896484375" lon="1.5675374306738376617431640625">
        <ele>132.600006103515625</ele>
        <time>2026-08-13T07:17:05.000Z</time>
        <extensions>
          <ns3:TrackPointExtension>
            <ns3:hr>65</ns3:hr>
            <ns3:cad>0</ns3:cad>
          </ns3:TrackPointExtension>
        </extensions>
      </trkpt>
      <trkpt lat="43.77943455241620540618896484375" lon="1.5675374306738376617431640625">
        <ele>132.600006103515625</ele>
        <time>2026-08-13T07:17:06.000Z</time>
        <extensions>
          <ns3:TrackPointExtension>
            <ns3:hr>65</ns3:hr>
            <ns3:cad>0</ns3:cad>
          </ns3:TrackPointExtension>
        </extensions>
      </trkpt>
      <trkpt lat="43.77943455241620540618896484375" lon="1.5675374306738376617431640625">
        <ele>132.600006103515625</ele>
        <time>2026-08-13T07:17:07.000Z</time>
        <extensions>
          <ns3:TrackPointExtension>
            <ns3:hr>66</ns3:hr>
            <ns3:cad>0</ns3:cad>
          </ns3:TrackPointExtension>
        </extensions>
      </trkpt>
      <trkpt lat="43.77943455241620540618896484375" lon="1.5675374306738376617431640625">
        <ele>132.600006103515625</ele>
        <time>2026-08-13T07:17:08.000Z</time>
        <extensions>
          <ns3:TrackPointExtension>
            <ns3:hr>66</ns3:hr>
            <ns3:cad>0</ns3:cad>
          </ns3:TrackPointExtension>
        </extensions>
      </trkpt>
      <trkpt lat="43.77943455241620540618896484375" lon="1.5675374306738376617431640625">
        <ele>132.600006103515625</ele>
        <time>2026-08-13T07:17:09.000Z</time>
        <extensions>
          <ns3:TrackPointExtension>
            <ns3:hr>66</ns3:hr>
            <ns3:cad>0</ns3:cad>
          </ns3:TrackPointExtension>
        </extensions>
      </trkpt>
      <trkpt lat="43.77943455241620540618896484375" lon="1.5675374306738376617431640625">
        <ele>132.600006103515625</ele>
        <time>2026-08-13T07:17:10.000Z</time>
        <extensions>
          <ns3:TrackPointExtension>
            <ns3:hr>65</ns3:hr>
            <ns3:cad>0</ns3:cad>
          </ns3:TrackPointExtension>
        </extensions>
      </trkpt>
      <trkpt lat="43.77943455241620540618896484375" lon="1.5675374306738376617431640625">
        <ele>132.600006103515625</ele>
        <time>2026-08-13T07:17:11.000Z</time>
        <extensions>
          <ns3:TrackPointExtension>
            <ns3:hr>65</ns3:hr>
            <ns3:cad>0</ns3:cad>
          </ns3:TrackPointExtension>
        </extensions>
      </trkpt>
      <trkpt lat="43.77943455241620540618896484375" lon="1.5675374306738376617431640625">
        <ele>132.600006103515625</ele>
        <time>2026-08-13T07:17:12.000Z</time>
        <extensions>
          <ns3:TrackPointExtension>
            <ns3:hr>64</ns3:hr>
            <ns3:cad>0</ns3:cad>
          </ns3:TrackPointExtension>
        </extensions>
      </trkpt>
      <trkpt lat="43.77943455241620540618896484375" lon="1.5675374306738376617431640625">
        <ele>132.600006103515625</ele>
        <time>2026-08-13T07:17:13.000Z</time>
        <extensions>
          <ns3:TrackPointExtension>
            <ns3:hr>62</ns3:hr>
            <ns3:cad>0</ns3:cad>
          </ns3:TrackPointExtension>
        </extensions>
      </trkpt>
      <trkpt lat="43.77943455241620540618896484375" lon="1.5675374306738376617431640625">
        <ele>132.600006103515625</ele>
        <time>2026-08-13T07:17:14.000Z</time>
        <extensions>
          <ns3:TrackPointExtension>
            <ns3:hr>62</ns3:hr>
            <ns3:cad>0</ns3:cad>
          </ns3:TrackPointExtension>
        </extensions>
      </trkpt>
      <trkpt lat="43.77943455241620540618896484375" lon="1.5675374306738376617431640625">
        <ele>132.600006103515625</ele>
        <time>2026-08-13T07:17:15.000Z</time>
        <extensions>
          <ns3:TrackPointExtension>
            <ns3:hr>61</ns3:hr>
            <ns3:cad>0</ns3:cad>
          </ns3:TrackPointExtension>
        </extensions>
      </trkpt>
      <trkpt lat="43.77943455241620540618896484375" lon="1.5675374306738376617431640625">
        <ele>132.600006103515625</ele>
        <time>2026-08-13T07:17:16.000Z</time>
        <extensions>
          <ns3:TrackPointExtension>
            <ns3:hr>62</ns3:hr>
            <ns3:cad>0</ns3:cad>
          </ns3:TrackPointExtension>
        </extensions>
      </trkpt>
      <trkpt lat="43.77943455241620540618896484375" lon="1.5675374306738376617431640625">
        <ele>132.600006103515625</ele>
        <time>2026-08-13T07:17:17.000Z</time>
        <extensions>
          <ns3:TrackPointExtension>
            <ns3:hr>62</ns3:hr>
            <ns3:cad>0</ns3:cad>
          </ns3:TrackPointExtension>
        </extensions>
      </trkpt>
      <trkpt lat="43.77943455241620540618896484375" lon="1.5675374306738376617431640625">
        <ele>132.600006103515625</ele>
        <time>2026-08-13T07:17:18.000Z</time>
        <extensions>
          <ns3:TrackPointExtension>
            <ns3:hr>62</ns3:hr>
            <ns3:cad>0</ns3:cad>
          </ns3:TrackPointExtension>
        </extensions>
      </trkpt>
      <trkpt lat="43.77943455241620540618896484375" lon="1.5675374306738376617431640625">
        <ele>132.600006103515625</ele>
        <time>2026-08-13T07:17:19.000Z</time>
        <extensions>
          <ns3:TrackPointExtension>
            <ns3:hr>62</ns3:hr>
            <ns3:cad>0</ns3:cad>
          </ns3:TrackPointExtension>
        </extensions>
      </trkpt>
      <trkpt lat="43.77943455241620540618896484375" lon="1.5675374306738376617431640625">
        <ele>132.600006103515625</ele>
        <time>2026-08-13T07:17:20.000Z</time>
        <extensions>
          <ns3:TrackPointExtension>
            <ns3:hr>62</ns3:hr>
            <ns3:cad>0</ns3:cad>
          </ns3:TrackPointExtension>
        </extensions>
      </trkpt>
      <trkpt lat="43.77944192849099636077880859375" lon="1.567536927759647369384765625">
        <ele>132.600006103515625</ele>
        <time>2026-08-13T07:17:21.000Z</time>
        <extensions>
          <ns3:TrackPointExtension>
            <ns3:hr>61</ns3:hr>
            <ns3:cad>0</ns3:cad>
          </ns3:TrackPointExtension>
        </extensions>
      </trkpt>
      <trkpt lat="43.77944896928966045379638671875" lon="1.5675444714725017547607421875">
        <ele>132.600006103515625</ele>
        <time>2026-08-13T07:17:22.000Z</time>
        <extensions>
          <ns3:TrackPointExtension>
            <ns3:hr>60</ns3:hr>
            <ns3:cad>0</ns3:cad>
          </ns3:TrackPointExtension>
        </extensions>
      </trkpt>
      <trkpt lat="43.77945751883089542388916015625" lon="1.5675540268421173095703125">
        <ele>132.399993896484375</ele>
        <time>2026-08-13T07:17:23.000Z</time>
        <extensions>
          <ns3:TrackPointExtension>
            <ns3:hr>60</ns3:hr>
            <ns3:cad>0</ns3:cad>
          </ns3:TrackPointExtension>
        </extensions>
      </trkpt>
      <trkpt lat="43.7794686667621135711669921875" lon="1.5675674378871917724609375">
        <ele>132.399993896484375</ele>
        <time>2026-08-13T07:17:24.000Z</time>
        <extensions>
          <ns3:TrackPointExtension>
            <ns3:hr>60</ns3:hr>
            <ns3:cad>0</ns3:cad>
          </ns3:TrackPointExtension>
        </extensions>
      </trkpt>
      <trkpt lat="43.7794814072549343109130859375" lon="1.56758017838001251220703125">
        <ele>132.1999969482421875</ele>
        <time>2026-08-13T07:17:25.000Z</time>
        <extensions>
          <ns3:TrackPointExtension>
            <ns3:hr>60</ns3:hr>
            <ns3:cad>0</ns3:cad>
          </ns3:TrackPointExtension>
        </extensions>
      </trkpt>
      <trkpt lat="43.7794944830238819122314453125" lon="1.5675947628915309906005859375">
        <ele>132.1999969482421875</ele>
        <time>2026-08-13T07:17:26.000Z</time>
        <extensions>
          <ns3:TrackPointExtension>
            <ns3:hr>59</ns3:hr>
            <ns3:cad>0</ns3:cad>
          </ns3:TrackPointExtension>
        </extensions>
      </trkpt>
      <trkpt lat="43.77950479276478290557861328125" lon="1.56761060468852519989013671875">
        <ele>132.1999969482421875</ele>
        <time>2026-08-13T07:17:27.000Z</time>
        <extensions>
          <ns3:TrackPointExtension>
            <ns3:hr>60</ns3:hr>
            <ns3:cad>0</ns3:cad>
          </ns3:TrackPointExtension>
        </extensions>
      </trkpt>
      <trkpt lat="43.77951510250568389892578125" lon="1.56762770377099514007568359375">
        <ele>132.1999969482421875</ele>
        <time>2026-08-13T07:17:28.000Z</time>
        <extensions>
          <ns3:TrackPointExtension>
            <ns3:hr>61</ns3:hr>
            <ns3:cad>0</ns3:cad>
          </ns3:TrackPointExtension>
        </extensions>
      </trkpt>
      <trkpt lat="43.7795256637036800384521484375" lon="1.5676417015492916107177734375">
        <ele>132.1999969482421875</ele>
        <time>2026-08-13T07:17:29.000Z</time>
        <extensions>
          <ns3:TrackPointExtension>
            <ns3:hr>61</ns3:hr>
            <ns3:cad>0</ns3:cad>
          </ns3:TrackPointExtension>
        </extensions>
      </trkpt>
      <trkpt lat="43.77953681163489818572998046875" lon="1.567654944956302642822265625">
        <ele>132.1999969482421875</ele>
        <time>2026-08-13T07:17:30.000Z</time>
        <extensions>
          <ns3:TrackPointExtension>
            <ns3:hr>61</ns3:hr>
            <ns3:cad>0</ns3:cad>
          </ns3:TrackPointExtension>
        </extensions>
      </trkpt>
      <trkpt lat="43.779547624289989471435546875" lon="1.56767078675329685211181640625">
        <ele>132.1999969482421875</ele>
        <time>2026-08-13T07:17:31.000Z</time>
        <extensions>
          <ns3:TrackPointExtension>
            <ns3:hr>61</ns3:hr>
            <ns3:cad>0</ns3:cad>
          </ns3:TrackPointExtension>
        </extensions>
      </trkpt>
      <trkpt lat="43.7795578502118587493896484375" lon="1.5676827728748321533203125">
        <ele>132.1999969482421875</ele>
        <time>2026-08-13T07:17:32.000Z</time>
        <extensions>
          <ns3:TrackPointExtension>
            <ns3:hr>61</ns3:hr>
            <ns3:cad>0</ns3:cad>
          </ns3:TrackPointExtension>
        </extensions>
      </trkpt>
      <trkpt lat="43.7795679084956645965576171875" lon="1.5676926635205745697021484375">
        <ele>132.1999969482421875</ele>
        <time>2026-08-13T07:17:33.000Z</time>
        <extensions>
          <ns3:TrackPointExtension>
            <ns3:hr>60</ns3:hr>
            <ns3:cad>0</ns3:cad>
          </ns3:TrackPointExtension>
        </extensions>
      </trkpt>
      <trkpt lat="43.77958022989332675933837890625" lon="1.56770330853760242462158203125">
        <ele>132.1999969482421875</ele>
        <time>2026-08-13T07:17:34.000Z</time>
        <extensions>
          <ns3:TrackPointExtension>
            <ns3:hr>61</ns3:hr>
            <ns3:cad>53</ns3:cad>
          </ns3:TrackPointExtension>
        </extensions>
      </trkpt>
      <trkpt lat="43.77959028817713260650634765625" lon="1.56771185807883739471435546875">
        <ele>132</ele>
        <time>2026-08-13T07:17:35.000Z</time>
        <extensions>
          <ns3:TrackPointExtension>
            <ns3:hr>61</ns3:hr>
            <ns3:cad>54</ns3:cad>
          </ns3:TrackPointExtension>
        </extensions>
      </trkpt>
      <trkpt lat="43.77960168756544589996337890625" lon="1.5677181445062160491943359375">
        <ele>132</ele>
        <time>2026-08-13T07:17:36.000Z</time>
        <extensions>
          <ns3:TrackPointExtension>
            <ns3:hr>61</ns3:hr>
            <ns3:cad>55</ns3:cad>
          </ns3:TrackPointExtension>
        </extensions>
      </trkpt>
      <trkpt lat="43.7796135060489177703857421875" lon="1.56772007234394550323486328125">
        <ele>132</ele>
        <time>2026-08-13T07:17:37.000Z</time>
        <extensions>
          <ns3:TrackPointExtension>
            <ns3:hr>61</ns3:hr>
            <ns3:cad>55</ns3:cad>
          </ns3:TrackPointExtension>
        </extensions>
      </trkpt>
      <trkpt lat="43.7796249054372310638427734375" lon="1.5677228383719921112060546875">
        <ele>132</ele>
        <time>2026-08-13T07:17:38.000Z</time>
        <extensions>
          <ns3:TrackPointExtension>
            <ns3:hr>61</ns3:hr>
            <ns3:cad>54</ns3:cad>
          </ns3:TrackPointExtension>
        </extensions>
      </trkpt>
      <trkpt lat="43.77963848412036895751953125" lon="1.56772761605679988861083984375">
        <ele>132</ele>
        <time>2026-08-13T07:17:39.000Z</time>
        <extensions>
          <ns3:TrackPointExtension>
            <ns3:hr>61</ns3:hr>
            <ns3:cad>54</ns3:cad>
          </ns3:TrackPointExtension>
        </extensions>
      </trkpt>
      <trkpt lat="43.77965533174574375152587890625" lon="1.567727029323577880859375">
        <ele>132</ele>
        <time>2026-08-13T07:17:40.000Z</time>
        <extensions>
          <ns3:TrackPointExtension>
            <ns3:hr>61</ns3:hr>
            <ns3:cad>54</ns3:cad>
          </ns3:TrackPointExtension>
        </extensions>
      </trkpt>
      <trkpt lat="43.77967461012303829193115234375" lon="1.56773163937032222747802734375">
        <ele>132.1999969482421875</ele>
        <time>2026-08-13T07:17:41.000Z</time>
        <extensions>
          <ns3:TrackPointExtension>
            <ns3:hr>62</ns3:hr>
            <ns3:cad>54</ns3:cad>
          </ns3:TrackPointExtension>
        </extensions>
      </trkpt>
      <trkpt lat="43.77968701533973217010498046875" lon="1.567743122577667236328125">
        <ele>132.1999969482421875</ele>
        <time>2026-08-13T07:17:42.000Z</time>
        <extensions>
          <ns3:TrackPointExtension>
            <ns3:hr>63</ns3:hr>
            <ns3:cad>56</ns3:cad>
          </ns3:TrackPointExtension>
        </extensions>
      </trkpt>
      <trkpt lat="43.7796959839761257171630859375" lon="1.56775728799402713775634765625">
        <ele>132.1999969482421875</ele>
        <time>2026-08-13T07:17:43.000Z</time>
        <extensions>
          <ns3:TrackPointExtension>
            <ns3:hr>64</ns3:hr>
            <ns3:cad>56</ns3:cad>
          </ns3:TrackPointExtension>
        </extensions>
      </trkpt>
      <trkpt lat="43.77970092929899692535400390625" lon="1.56777120195329189300537109375">
        <ele>132.1999969482421875</ele>
        <time>2026-08-13T07:17:44.000Z</time>
        <extensions>
          <ns3:TrackPointExtension>
            <ns3:hr>64</ns3:hr>
            <ns3:cad>56</ns3:cad>
          </ns3:TrackPointExtension>
        </extensions>
      </trkpt>
      <trkpt lat="43.77970579080283641815185546875" lon="1.56778880394995212554931640625">
        <ele>132.1999969482421875</ele>
        <time>2026-08-13T07:17:45.000Z</time>
        <extensions>
          <ns3:TrackPointExtension>
            <ns3:hr>64</ns3:hr>
            <ns3:cad>56</ns3:cad>
          </ns3:TrackPointExtension>
        </extensions>
      </trkpt>
      <trkpt lat="43.77970847301185131072998046875" lon="1.5678061544895172119140625">
        <ele>132.1999969482421875</ele>
        <time>2026-08-13T07:17:46.000Z</time>
        <extensions>
          <ns3:TrackPointExtension>
            <ns3:hr>64</ns3:hr>
            <ns3:cad>56</ns3:cad>
          </ns3:TrackPointExtension>
        </extensions>
      </trkpt>
      <trkpt lat="43.7797117419540882110595703125" lon="1.56782828271389007568359375">
        <ele>132.1999969482421875</ele>
        <time>2026-08-13T07:17:47.000Z</time>
        <extensions>
          <ns3:TrackPointExtension>
            <ns3:hr>64</ns3:hr>
            <ns3:cad>56</ns3:cad>
          </ns3:TrackPointExtension>
        </extensions>
      </trkpt>
      <trkpt lat="43.77971417270600795745849609375" lon="1.56784680671989917755126953125">
        <ele>132.1999969482421875</ele>
        <time>2026-08-13T07:17:48.000Z</time>
        <extensions>
          <ns3:TrackPointExtension>
            <ns3:hr>63</ns3:hr>
            <ns3:cad>54</ns3:cad>
          </ns3:TrackPointExtension>
        </extensions>
      </trkpt>
      <trkpt lat="43.7797174416482448577880859375" lon="1.56786725856363773345947265625">
        <ele>132</ele>
        <time>2026-08-13T07:17:49.000Z</time>
        <extensions>
          <ns3:TrackPointExtension>
            <ns3:hr>63</ns3:hr>
            <ns3:cad>54</ns3:cad>
          </ns3:TrackPointExtension>
        </extensions>
      </trkpt>
      <trkpt lat="43.77972037531435489654541015625" lon="1.5678881295025348663330078125">
        <ele>132</ele>
        <time>2026-08-13T07:17:50.000Z</time>
        <extensions>
          <ns3:TrackPointExtension>
            <ns3:hr>62</ns3:hr>
            <ns3:cad>54</ns3:cad>
          </ns3:TrackPointExtension>
        </extensions>
      </trkpt>
      <trkpt lat="43.779725320637226104736328125" lon="1.5679072402417659759521484375">
        <ele>132</ele>
        <time>2026-08-13T07:17:51.000Z</time>
        <extensions>
          <ns3:TrackPointExtension>
            <ns3:hr>62</ns3:hr>
            <ns3:cad>54</ns3:cad>
          </ns3:TrackPointExtension>
        </extensions>
      </trkpt>
      <trkpt lat="43.7797301821410655975341796875" lon="1.5679263509809970855712890625">
        <ele>132</ele>
        <time>2026-08-13T07:17:52.000Z</time>
        <extensions>
          <ns3:TrackPointExtension>
            <ns3:hr>62</ns3:hr>
            <ns3:cad>55</ns3:cad>
          </ns3:TrackPointExtension>
        </extensions>
      </trkpt>
      <trkpt lat="43.7797357141971588134765625" lon="1.5679444558918476104736328125">
        <ele>131.8000030517578125</ele>
        <time>2026-08-13T07:17:53.000Z</time>
        <extensions>
          <ns3:TrackPointExtension>
            <ns3:hr>62</ns3:hr>
            <ns3:cad>55</ns3:cad>
          </ns3:TrackPointExtension>
        </extensions>
      </trkpt>
      <trkpt lat="43.77974032424390316009521484375" lon="1.56796038150787353515625">
        <ele>131.8000030517578125</ele>
        <time>2026-08-13T07:17:54.000Z</time>
        <extensions>
          <ns3:TrackPointExtension>
            <ns3:hr>63</ns3:hr>
            <ns3:cad>54</ns3:cad>
          </ns3:TrackPointExtension>
        </extensions>
      </trkpt>
      <trkpt lat="43.7797432579100131988525390625" lon="1.56797689385712146759033203125">
        <ele>131.8000030517578125</ele>
        <time>2026-08-13T07:17:55.000Z</time>
        <extensions>
          <ns3:TrackPointExtension>
            <ns3:hr>63</ns3:hr>
            <ns3:cad>54</ns3:cad>
          </ns3:TrackPointExtension>
        </extensions>
      </trkpt>
      <trkpt lat="43.77974577248096466064453125" lon="1.56799323856830596923828125">
        <ele>131.8000030517578125</ele>
        <time>2026-08-13T07:17:56.000Z</time>
        <extensions>
          <ns3:TrackPointExtension>
            <ns3:hr>63</ns3:hr>
            <ns3:cad>53</ns3:cad>
          </ns3:TrackPointExtension>
        </extensions>
      </trkpt>
      <trkpt lat="43.77974702976644039154052734375" lon="1.5680064819753170013427734375">
        <ele>131.8000030517578125</ele>
        <time>2026-08-13T07:17:57.000Z</time>
        <extensions>
          <ns3:TrackPointExtension>
            <ns3:hr>63</ns3:hr>
            <ns3:cad>53</ns3:cad>
          </ns3:TrackPointExtension>
        </extensions>
      </trkpt>
      <trkpt lat="43.77974786795675754547119140625" lon="1.56802349723875522613525390625">
        <ele>131.8000030517578125</ele>
        <time>2026-08-13T07:17:58.000Z</time>
        <extensions>
          <ns3:TrackPointExtension>
            <ns3:hr>63</ns3:hr>
            <ns3:cad>53</ns3:cad>
          </ns3:TrackPointExtension>
        </extensions>
      </trkpt>
      <trkpt lat="43.77974887378513813018798828125" lon="1.5680403448641300201416015625">
        <ele>132</ele>
        <time>2026-08-13T07:17:59.000Z</time>
        <extensions>
          <ns3:TrackPointExtension>
            <ns3:hr>64</ns3:hr>
            <ns3:cad>53</ns3:cad>
          </ns3:TrackPointExtension>
        </extensions>
      </trkpt>
      <trkpt lat="43.77975046634674072265625" lon="1.5680561028420925140380859375">
        <ele>132</ele>
        <time>2026-08-13T07:18:00.000Z</time>
        <extensions>
          <ns3:TrackPointExtension>
            <ns3:hr>64</ns3:hr>
            <ns3:cad>52</ns3:cad>
          </ns3:TrackPointExtension>
        </extensions>
      </trkpt>
      <trkpt lat="43.779752813279628753662109375" lon="1.5680701844394207000732421875">
        <ele>132</ele>
        <time>2026-08-13T07:18:01.000Z</time>
        <extensions>
          <ns3:TrackPointExtension>
            <ns3:hr>65</ns3:hr>
            <ns3:cad>52</ns3:cad>
          </ns3:TrackPointExtension>
        </extensions>
      </trkpt>
      <trkpt lat="43.7797536514699459075927734375" lon="1.568086780607700347900390625">
        <ele>132</ele>
        <time>2026-08-13T07:18:02.000Z</time>
        <extensions>
          <ns3:TrackPointExtension>
            <ns3:hr>66</ns3:hr>
            <ns3:cad>52</ns3:cad>
          </ns3:TrackPointExtension>
        </extensions>
      </trkpt>
      <trkpt lat="43.779754154384136199951171875" lon="1.5681080706417560577392578125">
        <ele>132</ele>
        <time>2026-08-13T07:18:03.000Z</time>
        <extensions>
          <ns3:TrackPointExtension>
            <ns3:hr>67</ns3:hr>
            <ns3:cad>50</ns3:cad>
          </ns3:TrackPointExtension>
        </extensions>
      </trkpt>
      <trkpt lat="43.77975457347929477691650390625" lon="1.56811972148716449737548828125">
        <ele>132</ele>
        <time>2026-08-13T07:18:04.000Z</time>
        <extensions>
          <ns3:TrackPointExtension>
            <ns3:hr>68</ns3:hr>
            <ns3:cad>50</ns3:cad>
          </ns3:TrackPointExtension>
        </extensions>
      </trkpt>
      <trkpt lat="43.779755495488643646240234375" lon="1.56813430599868297576904296875">
        <ele>132.1999969482421875</ele>
        <time>2026-08-13T07:18:05.000Z</time>
        <extensions>
          <ns3:TrackPointExtension>
            <ns3:hr>73</ns3:hr>
            <ns3:cad>50</ns3:cad>
          </ns3:TrackPointExtension>
        </extensions>
      </trkpt>
      <trkpt lat="43.7797559984028339385986328125" lon="1.56815492548048496246337890625">
        <ele>132.1999969482421875</ele>
        <time>2026-08-13T07:18:06.000Z</time>
        <extensions>
          <ns3:TrackPointExtension>
            <ns3:hr>79</ns3:hr>
            <ns3:cad>50</ns3:cad>
          </ns3:TrackPointExtension>
        </extensions>
      </trkpt>
      <trkpt lat="43.77975742332637310028076171875" lon="1.5681717731058597564697265625">
        <ele>132.1999969482421875</ele>
        <time>2026-08-13T07:18:07.000Z</time>
        <extensions>
          <ns3:TrackPointExtension>
            <ns3:hr>82</ns3:hr>
            <ns3:cad>50</ns3:cad>
          </ns3:TrackPointExtension>
        </extensions>
      </trkpt>
      <trkpt lat="43.779757507145404815673828125" lon="1.5681803226470947265625">
        <ele>132.1999969482421875</ele>
        <time>2026-08-13T07:18:08.000Z</time>
        <extensions>
          <ns3:TrackPointExtension>
            <ns3:hr>83</ns3:hr>
            <ns3:cad>50</ns3:cad>
          </ns3:TrackPointExtension>
        </extensions>
      </trkpt>
      <trkpt lat="43.77975507639348506927490234375" lon="1.568187363445758819580078125">
        <ele>132.1999969482421875</ele>
        <time>2026-08-13T07:18:09.000Z</time>
        <extensions>
          <ns3:TrackPointExtension>
            <ns3:hr>84</ns3:hr>
            <ns3:cad>49</ns3:cad>
          </ns3:TrackPointExtension>
        </extensions>
      </trkpt>
      <trkpt lat="43.77975373528897762298583984375" lon="1.56819364987313747406005859375">
        <ele>132.1999969482421875</ele>
        <time>2026-08-13T07:18:10.000Z</time>
        <extensions>
          <ns3:TrackPointExtension>
            <ns3:hr>84</ns3:hr>
            <ns3:cad>0</ns3:cad>
          </ns3:TrackPointExtension>
        </extensions>
      </trkpt>
      <trkpt lat="43.77975356765091419219970703125" lon="1.5682016126811504364013671875">
        <ele>132.1999969482421875</ele>
        <time>2026-08-13T07:18:11.000Z</time>
        <extensions>
          <ns3:TrackPointExtension>
            <ns3:hr>84</ns3:hr>
            <ns3:cad>0</ns3:cad>
          </ns3:TrackPointExtension>
        </extensions>
      </trkpt>
      <trkpt lat="43.7797518074512481689453125" lon="1.5682103298604488372802734375">
        <ele>132.1999969482421875</ele>
        <time>2026-08-13T07:18:12.000Z</time>
        <extensions>
          <ns3:TrackPointExtension>
            <ns3:hr>84</ns3:hr>
            <ns3:cad>0</ns3:cad>
          </ns3:TrackPointExtension>
        </extensions>
      </trkpt>
      <trkpt lat="43.77975205890834331512451171875" lon="1.5682197175920009613037109375">
        <ele>132.1999969482421875</ele>
        <time>2026-08-13T07:18:13.000Z</time>
        <extensions>
          <ns3:TrackPointExtension>
            <ns3:hr>84</ns3:hr>
            <ns3:cad>0</ns3:cad>
          </ns3:TrackPointExtension>
        </extensions>
      </trkpt>
      <trkpt lat="43.7797516398131847381591796875" lon="1.5682267583906650543212890625">
        <ele>132.1999969482421875</ele>
        <time>2026-08-13T07:18:14.000Z</time>
        <extensions>
          <ns3:TrackPointExtension>
            <ns3:hr>84</ns3:hr>
            <ns3:cad>0</ns3:cad>
          </ns3:TrackPointExtension>
        </extensions>
      </trkpt>
      <trkpt lat="43.77975205890834331512451171875" lon="1.56823455356061458587646484375">
        <ele>132.1999969482421875</ele>
        <time>2026-08-13T07:18:15.000Z</time>
        <extensions>
          <ns3:TrackPointExtension>
            <ns3:hr>84</ns3:hr>
            <ns3:cad>0</ns3:cad>
          </ns3:TrackPointExtension>
        </extensions>
      </trkpt>
      <trkpt lat="43.77975004725158214569091796875" lon="1.5682401694357395172119140625">
        <ele>132.1999969482421875</ele>
        <time>2026-08-13T07:18:16.000Z</time>
        <extensions>
          <ns3:TrackPointExtension>
            <ns3:hr>85</ns3:hr>
            <ns3:cad>0</ns3:cad>
          </ns3:TrackPointExtension>
        </extensions>
      </trkpt>
      <trkpt lat="43.7797519750893115997314453125" lon="1.56824930571019649505615234375">
        <ele>132.1999969482421875</ele>
        <time>2026-08-13T07:18:17.000Z</time>
        <extensions>
          <ns3:TrackPointExtension>
            <ns3:hr>84</ns3:hr>
            <ns3:cad>0</ns3:cad>
          </ns3:TrackPointExtension>
        </extensions>
      </trkpt>
      <trkpt lat="43.77975038252770900726318359375" lon="1.56825743615627288818359375">
        <ele>132.1999969482421875</ele>
        <time>2026-08-13T07:18:18.000Z</time>
        <extensions>
          <ns3:TrackPointExtension>
            <ns3:hr>84</ns3:hr>
            <ns3:cad>0</ns3:cad>
          </ns3:TrackPointExtension>
        </extensions>
      </trkpt>
      <trkpt lat="43.7797529809176921844482421875" lon="1.56825735233724117279052734375">
        <ele>132.1999969482421875</ele>
        <time>2026-08-13T07:18:19.000Z</time>
        <extensions>
          <ns3:TrackPointExtension>
            <ns3:hr>84</ns3:hr>
            <ns3:cad>0</ns3:cad>
          </ns3:TrackPointExtension>
        </extensions>
      </trkpt>
      <trkpt lat="43.7797536514699459075927734375" lon="1.56825601123273372650146484375">
        <ele>132.1999969482421875</ele>
        <time>2026-08-13T07:18:20.000Z</time>
        <extensions>
          <ns3:TrackPointExtension>
            <ns3:hr>84</ns3:hr>
            <ns3:cad>0</ns3:cad>
          </ns3:TrackPointExtension>
        </extensions>
      </trkpt>
      <trkpt lat="43.77975356765091419219970703125" lon="1.5682559274137020111083984375">
        <ele>132.399993896484375</ele>
        <time>2026-08-13T07:18:21.000Z</time>
        <extensions>
          <ns3:TrackPointExtension>
            <ns3:hr>84</ns3:hr>
            <ns3:cad>0</ns3:cad>
          </ns3:TrackPointExtension>
        </extensions>
      </trkpt>
      <trkpt lat="43.77975356765091419219970703125" lon="1.5682559274137020111083984375">
        <ele>132.399993896484375</ele>
        <time>2026-08-13T07:18:22.000Z</time>
        <extensions>
          <ns3:TrackPointExtension>
            <ns3:hr>84</ns3:hr>
            <ns3:cad>0</ns3:cad>
          </ns3:TrackPointExtension>
        </extensions>
      </trkpt>
      <trkpt lat="43.77975356765091419219970703125" lon="1.5682559274137020111083984375">
        <ele>132.399993896484375</ele>
        <time>2026-08-13T07:18:23.000Z</time>
        <extensions>
          <ns3:TrackPointExtension>
            <ns3:hr>84</ns3:hr>
            <ns3:cad>0</ns3:cad>
          </ns3:TrackPointExtension>
        </extensions>
      </trkpt>
      <trkpt lat="43.77975356765091419219970703125" lon="1.5682559274137020111083984375">
        <ele>132.399993896484375</ele>
        <time>2026-08-13T07:18:24.000Z</time>
        <extensions>
          <ns3:TrackPointExtension>
            <ns3:hr>84</ns3:hr>
            <ns3:cad>0</ns3:cad>
          </ns3:TrackPointExtension>
        </extensions>
      </trkpt>
      <trkpt lat="43.77975340001285076141357421875" lon="1.56825584359467029571533203125">
        <ele>132.399993896484375</ele>
        <time>2026-08-13T07:18:25.000Z</time>
        <extensions>
          <ns3:TrackPointExtension>
            <ns3:hr>83</ns3:hr>
            <ns3:cad>0</ns3:cad>
          </ns3:TrackPointExtension>
        </extensions>
      </trkpt>
      <trkpt lat="43.77975004725158214569091796875" lon="1.56826238147914409637451171875">
        <ele>132.399993896484375</ele>
        <time>2026-08-13T07:18:26.000Z</time>
        <extensions>
          <ns3:TrackPointExtension>
            <ns3:hr>83</ns3:hr>
            <ns3:cad>0</ns3:cad>
          </ns3:TrackPointExtension>
        </extensions>
      </trkpt>
      <trkpt lat="43.7797502987086772918701171875" lon="1.568274535238742828369140625">
        <ele>132.399993896484375</ele>
        <time>2026-08-13T07:18:27.000Z</time>
        <extensions>
          <ns3:TrackPointExtension>
            <ns3:hr>81</ns3:hr>
            <ns3:cad>0</ns3:cad>
          </ns3:TrackPointExtension>
        </extensions>
      </trkpt>
      <trkpt lat="43.77975105307996273040771484375" lon="1.56828953884541988372802734375">
        <ele>132.399993896484375</ele>
        <time>2026-08-13T07:18:28.000Z</time>
        <extensions>
          <ns3:TrackPointExtension>
            <ns3:hr>78</ns3:hr>
            <ns3:cad>0</ns3:cad>
          </ns3:TrackPointExtension>
        </extensions>
      </trkpt>
      <trkpt lat="43.77974971197545528411865234375" lon="1.56830437481403350830078125">
        <ele>132.399993896484375</ele>
        <time>2026-08-13T07:18:29.000Z</time>
        <extensions>
          <ns3:TrackPointExtension>
            <ns3:hr>77</ns3:hr>
            <ns3:cad>0</ns3:cad>
          </ns3:TrackPointExtension>
        </extensions>
      </trkpt>
      <trkpt lat="43.77974987961351871490478515625" lon="1.56831518746912479400634765625">
        <ele>132.399993896484375</ele>
        <time>2026-08-13T07:18:30.000Z</time>
        <extensions>
          <ns3:TrackPointExtension>
            <ns3:hr>77</ns3:hr>
            <ns3:cad>0</ns3:cad>
          </ns3:TrackPointExtension>
        </extensions>
      </trkpt>
      <trkpt lat="43.77975105307996273040771484375" lon="1.56832717359066009521484375">
        <ele>132.399993896484375</ele>
        <time>2026-08-13T07:18:31.000Z</time>
        <extensions>
          <ns3:TrackPointExtension>
            <ns3:hr>77</ns3:hr>
            <ns3:cad>75</ns3:cad>
          </ns3:TrackPointExtension>
        </extensions>
      </trkpt>
      <trkpt lat="43.77975239418447017669677734375" lon="1.5683350525796413421630859375">
        <ele>132.399993896484375</ele>
        <time>2026-08-13T07:18:32.000Z</time>
        <extensions>
          <ns3:TrackPointExtension>
            <ns3:hr>77</ns3:hr>
            <ns3:cad>75</ns3:cad>
          </ns3:TrackPointExtension>
        </extensions>
      </trkpt>
      <trkpt lat="43.7797536514699459075927734375" lon="1.56834268011152744293212890625">
        <ele>132.399993896484375</ele>
        <time>2026-08-13T07:18:33.000Z</time>
        <extensions>
          <ns3:TrackPointExtension>
            <ns3:hr>78</ns3:hr>
            <ns3:cad>75</ns3:cad>
          </ns3:TrackPointExtension>
        </extensions>
      </trkpt>
      <trkpt lat="43.779755495488643646240234375" lon="1.56835692934691905975341796875">
        <ele>132.600006103515625</ele>
        <time>2026-08-13T07:18:34.000Z</time>
        <extensions>
          <ns3:TrackPointExtension>
            <ns3:hr>78</ns3:hr>
            <ns3:cad>75</ns3:cad>
          </ns3:TrackPointExtension>
        </extensions>
      </trkpt>
      <trkpt lat="43.7797576747834682464599609375" lon="1.56836966983973979949951171875">
        <ele>132.600006103515625</ele>
        <time>2026-08-13T07:18:35.000Z</time>
        <extensions>
          <ns3:TrackPointExtension>
            <ns3:hr>79</ns3:hr>
            <ns3:cad>43</ns3:cad>
          </ns3:TrackPointExtension>
        </extensions>
      </trkpt>
      <trkpt lat="43.77975876443088054656982421875" lon="1.56838090158998966217041015625">
        <ele>132.600006103515625</ele>
        <time>2026-08-13T07:18:36.000Z</time>
        <extensions>
          <ns3:TrackPointExtension>
            <ns3:hr>80</ns3:hr>
            <ns3:cad>43</ns3:cad>
          </ns3:TrackPointExtension>
        </extensions>
      </trkpt>
      <trkpt lat="43.77976178191602230072021484375" lon="1.568397916853427886962890625">
        <ele>132.600006103515625</ele>
        <time>2026-08-13T07:18:37.000Z</time>
        <extensions>
          <ns3:TrackPointExtension>
            <ns3:hr>81</ns3:hr>
            <ns3:cad>44</ns3:cad>
          </ns3:TrackPointExtension>
        </extensions>
      </trkpt>
      <trkpt lat="43.77976588904857635498046875" lon="1.56840755604207515716552734375">
        <ele>132.600006103515625</ele>
        <time>2026-08-13T07:18:38.000Z</time>
        <extensions>
          <ns3:TrackPointExtension>
            <ns3:hr>81</ns3:hr>
            <ns3:cad>45</ns3:cad>
          </ns3:TrackPointExtension>
        </extensions>
      </trkpt>
      <trkpt lat="43.77976857125759124755859375" lon="1.56842029653489589691162109375">
        <ele>132.8000030517578125</ele>
        <time>2026-08-13T07:18:39.000Z</time>
        <extensions>
          <ns3:TrackPointExtension>
            <ns3:hr>81</ns3:hr>
            <ns3:cad>45</ns3:cad>
          </ns3:TrackPointExtension>
        </extensions>
      </trkpt>
      <trkpt lat="43.77977259457111358642578125" lon="1.5684296004474163055419921875">
        <ele>132.8000030517578125</ele>
        <time>2026-08-13T07:18:40.000Z</time>
        <extensions>
          <ns3:TrackPointExtension>
            <ns3:hr>82</ns3:hr>
            <ns3:cad>45</ns3:cad>
          </ns3:TrackPointExtension>
        </extensions>
      </trkpt>
      <trkpt lat="43.77977251075208187103271484375" lon="1.56844292767345905303955078125">
        <ele>132.8000030517578125</ele>
        <time>2026-08-13T07:18:41.000Z</time>
        <extensions>
          <ns3:TrackPointExtension>
            <ns3:hr>83</ns3:hr>
            <ns3:cad>45</ns3:cad>
          </ns3:TrackPointExtension>
        </extensions>
      </trkpt>
      <trkpt lat="43.7797697447240352630615234375" lon="1.56845499761402606964111328125">
        <ele>132.8000030517578125</ele>
        <time>2026-08-13T07:18:42.000Z</time>
        <extensions>
          <ns3:TrackPointExtension>
            <ns3:hr>84</ns3:hr>
            <ns3:cad>45</ns3:cad>
          </ns3:TrackPointExtension>
        </extensions>
      </trkpt>
      <trkpt lat="43.779762871563434600830078125" lon="1.568462960422039031982421875">
        <ele>132.8000030517578125</ele>
        <time>2026-08-13T07:18:43.000Z</time>
        <extensions>
          <ns3:TrackPointExtension>
            <ns3:hr>85</ns3:hr>
            <ns3:cad>45</ns3:cad>
          </ns3:TrackPointExtension>
        </extensions>
      </trkpt>
      <trkpt lat="43.77975541166961193084716796875" lon="1.56846874393522739410400390625">
        <ele>132.8000030517578125</ele>
        <time>2026-08-13T07:18:44.000Z</time>
        <extensions>
          <ns3:TrackPointExtension>
            <ns3:hr>85</ns3:hr>
            <ns3:cad>45</ns3:cad>
          </ns3:TrackPointExtension>
        </extensions>
      </trkpt>
      <trkpt lat="43.77974904142320156097412109375" lon="1.56847863458096981048583984375">
        <ele>132.8000030517578125</ele>
        <time>2026-08-13T07:18:45.000Z</time>
        <extensions>
          <ns3:TrackPointExtension>
            <ns3:hr>85</ns3:hr>
            <ns3:cad>44</ns3:cad>
          </ns3:TrackPointExtension>
        </extensions>
      </trkpt>
      <trkpt lat="43.7797449342906475067138671875" lon="1.56848634593188762664794921875">
        <ele>132.8000030517578125</ele>
        <time>2026-08-13T07:18:46.000Z</time>
        <extensions>
          <ns3:TrackPointExtension>
            <ns3:hr>85</ns3:hr>
            <ns3:cad>44</ns3:cad>
          </ns3:TrackPointExtension>
        </extensions>
      </trkpt>
      <trkpt lat="43.77973982132971286773681640625" lon="1.56849724240601062774658203125">
        <ele>132.8000030517578125</ele>
        <time>2026-08-13T07:18:47.000Z</time>
        <extensions>
          <ns3:TrackPointExtension>
            <ns3:hr>86</ns3:hr>
            <ns3:cad>41</ns3:cad>
          </ns3:TrackPointExtension>
        </extensions>
      </trkpt>
      <trkpt lat="43.77973345108330249786376953125" lon="1.5685104019939899444580078125">
        <ele>132.8000030517578125</ele>
        <time>2026-08-13T07:18:48.000Z</time>
        <extensions>
          <ns3:TrackPointExtension>
            <ns3:hr>85</ns3:hr>
            <ns3:cad>0</ns3:cad>
          </ns3:TrackPointExtension>
        </extensions>
      </trkpt>
      <trkpt lat="43.77972431480884552001953125" lon="1.5685177780687808990478515625">
        <ele>132.8000030517578125</ele>
        <time>2026-08-13T07:18:49.000Z</time>
        <extensions>
          <ns3:TrackPointExtension>
            <ns3:hr>84</ns3:hr>
            <ns3:cad>0</ns3:cad>
          </ns3:TrackPointExtension>
        </extensions>
      </trkpt>
      <trkpt lat="43.77971827983856201171875" lon="1.56852808780968189239501953125">
        <ele>132.8000030517578125</ele>
        <time>2026-08-13T07:18:50.000Z</time>
        <extensions>
          <ns3:TrackPointExtension>
            <ns3:hr>84</ns3:hr>
            <ns3:cad>41</ns3:cad>
          </ns3:TrackPointExtension>
        </extensions>
      </trkpt>
      <trkpt lat="43.77971299923956394195556640625" lon="1.56853999011218547821044921875">
        <ele>132.8000030517578125</ele>
        <time>2026-08-13T07:18:51.000Z</time>
        <extensions>
          <ns3:TrackPointExtension>
            <ns3:hr>84</ns3:hr>
            <ns3:cad>41</ns3:cad>
          </ns3:TrackPointExtension>
        </extensions>
      </trkpt>
      <trkpt lat="43.77970562316477298736572265625" lon="1.56854904256761074066162109375">
        <ele>132.8000030517578125</ele>
        <time>2026-08-13T07:18:52.000Z</time>
        <extensions>
          <ns3:TrackPointExtension>
            <ns3:hr>84</ns3:hr>
            <ns3:cad>41</ns3:cad>
          </ns3:TrackPointExtension>
        </extensions>
      </trkpt>
      <trkpt lat="43.77970092929899692535400390625" lon="1.5685596875846385955810546875">
        <ele>132.8000030517578125</ele>
        <time>2026-08-13T07:18:53.000Z</time>
        <extensions>
          <ns3:TrackPointExtension>
            <ns3:hr>84</ns3:hr>
            <ns3:cad>41</ns3:cad>
          </ns3:TrackPointExtension>
        </extensions>
      </trkpt>
      <trkpt lat="43.7796959839761257171630859375" lon="1.5685705840587615966796875">
        <ele>132.8000030517578125</ele>
        <time>2026-08-13T07:18:54.000Z</time>
        <extensions>
          <ns3:TrackPointExtension>
            <ns3:hr>83</ns3:hr>
            <ns3:cad>41</ns3:cad>
          </ns3:TrackPointExtension>
        </extensions>
      </trkpt>
      <trkpt lat="43.779688775539398193359375" lon="1.5685791335999965667724609375">
        <ele>133</ele>
        <time>2026-08-13T07:18:55.000Z</time>
        <extensions>
          <ns3:TrackPointExtension>
            <ns3:hr>83</ns3:hr>
            <ns3:cad>76</ns3:cad>
          </ns3:TrackPointExtension>
        </extensions>
      </trkpt>
      <trkpt lat="43.7796819023787975311279296875" lon="1.56858734786510467529296875">
        <ele>133</ele>
        <time>2026-08-13T07:18:56.000Z</time>
        <extensions>
          <ns3:TrackPointExtension>
            <ns3:hr>83</ns3:hr>
            <ns3:cad>76</ns3:cad>
          </ns3:TrackPointExtension>
        </extensions>
      </trkpt>
      <trkpt lat="43.77967662177979946136474609375" lon="1.568597070872783660888671875">
        <ele>133</ele>
        <time>2026-08-13T07:18:57.000Z</time>
        <extensions>
          <ns3:TrackPointExtension>
            <ns3:hr>83</ns3:hr>
            <ns3:cad>40</ns3:cad>
          </ns3:TrackPointExtension>
        </extensions>
      </trkpt>
      <trkpt lat="43.77966790460050106048583984375" lon="1.5686039440333843231201171875">
        <ele>133</ele>
        <time>2026-08-13T07:18:58.000Z</time>
        <extensions>
          <ns3:TrackPointExtension>
            <ns3:hr>83</ns3:hr>
            <ns3:cad>40</ns3:cad>
          </ns3:TrackPointExtension>
        </extensions>
      </trkpt>
      <trkpt lat="43.77966254018247127532958984375" lon="1.56861492432653903961181640625">
        <ele>133</ele>
        <time>2026-08-13T07:18:59.000Z</time>
        <extensions>
          <ns3:TrackPointExtension>
            <ns3:hr>83</ns3:hr>
            <ns3:cad>41</ns3:cad>
          </ns3:TrackPointExtension>
        </extensions>
      </trkpt>
      <trkpt lat="43.77965751104056835174560546875" lon="1.56862649135291576385498046875">
        <ele>133</ele>
        <time>2026-08-13T07:19:00.000Z</time>
        <extensions>
          <ns3:TrackPointExtension>
            <ns3:hr>84</ns3:hr>
            <ns3:cad>41</ns3:cad>
          </ns3:TrackPointExtension>
        </extensions>
      </trkpt>
      <trkpt lat="43.779651224613189697265625" lon="1.5686347894370555877685546875">
        <ele>133</ele>
        <time>2026-08-13T07:19:01.000Z</time>
        <extensions>
          <ns3:TrackPointExtension>
            <ns3:hr>83</ns3:hr>
            <ns3:cad>40</ns3:cad>
          </ns3:TrackPointExtension>
        </extensions>
      </trkpt>
      <trkpt lat="43.7796443514525890350341796875" lon="1.568643338978290557861328125">
        <ele>133.1999969482421875</ele>
        <time>2026-08-13T07:19:02.000Z</time>
        <extensions>
          <ns3:TrackPointExtension>
            <ns3:hr>83</ns3:hr>
            <ns3:cad>40</ns3:cad>
          </ns3:TrackPointExtension>
        </extensions>
      </trkpt>
      <trkpt lat="43.77963856793940067291259765625" lon="1.5686523914337158203125">
        <ele>133.1999969482421875</ele>
        <time>2026-08-13T07:19:03.000Z</time>
        <extensions>
          <ns3:TrackPointExtension>
            <ns3:hr>83</ns3:hr>
            <ns3:cad>0</ns3:cad>
          </ns3:TrackPointExtension>
        </extensions>
      </trkpt>
      <trkpt lat="43.7796282581984996795654296875" lon="1.5686609409749507904052734375">
        <ele>133.1999969482421875</ele>
        <time>2026-08-13T07:19:04.000Z</time>
        <extensions>
          <ns3:TrackPointExtension>
            <ns3:hr>82</ns3:hr>
            <ns3:cad>0</ns3:cad>
          </ns3:TrackPointExtension>
        </extensions>
      </trkpt>
      <trkpt lat="43.779623396694660186767578125" lon="1.5686626173555850982666015625">
        <ele>133.1999969482421875</ele>
        <time>2026-08-13T07:19:05.000Z</time>
        <extensions>
          <ns3:TrackPointExtension>
            <ns3:hr>83</ns3:hr>
            <ns3:cad>0</ns3:cad>
          </ns3:TrackPointExtension>
        </extensions>
      </trkpt>
      <trkpt lat="43.77961845137178897857666015625" lon="1.568668819963932037353515625">
        <ele>133.1999969482421875</ele>
        <time>2026-08-13T07:19:06.000Z</time>
        <extensions>
          <ns3:TrackPointExtension>
            <ns3:hr>83</ns3:hr>
            <ns3:cad>0</ns3:cad>
          </ns3:TrackPointExtension>
        </extensions>
      </trkpt>
      <trkpt lat="43.77960738725960254669189453125" lon="1.56868181191384792327880859375">
        <ele>133.1999969482421875</ele>
        <time>2026-08-13T07:19:07.000Z</time>
        <extensions>
          <ns3:TrackPointExtension>
            <ns3:hr>82</ns3:hr>
            <ns3:cad>0</ns3:cad>
          </ns3:TrackPointExtension>
        </extensions>
      </trkpt>
      <trkpt lat="43.77960185520350933074951171875" lon="1.5686911158263683319091796875">
        <ele>133.1999969482421875</ele>
        <time>2026-08-13T07:19:08.000Z</time>
        <extensions>
          <ns3:TrackPointExtension>
            <ns3:hr>83</ns3:hr>
            <ns3:cad>0</ns3:cad>
          </ns3:TrackPointExtension>
        </extensions>
      </trkpt>
      <trkpt lat="43.77959749661386013031005859375" lon="1.5686991624534130096435546875">
        <ele>133.1999969482421875</ele>
        <time>2026-08-13T07:19:09.000Z</time>
        <extensions>
          <ns3:TrackPointExtension>
            <ns3:hr>83</ns3:hr>
            <ns3:cad>0</ns3:cad>
          </ns3:TrackPointExtension>
        </extensions>
      </trkpt>
      <trkpt lat="43.77959028817713260650634765625" lon="1.56871064566075801849365234375">
        <ele>133.1999969482421875</ele>
        <time>2026-08-13T07:19:10.000Z</time>
        <extensions>
          <ns3:TrackPointExtension>
            <ns3:hr>82</ns3:hr>
            <ns3:cad>0</ns3:cad>
          </ns3:TrackPointExtension>
        </extensions>
      </trkpt>
      <trkpt lat="43.7795840017497539520263671875" lon="1.56872020103037357330322265625">
        <ele>133.1999969482421875</ele>
        <time>2026-08-13T07:19:11.000Z</time>
        <extensions>
          <ns3:TrackPointExtension>
            <ns3:hr>81</ns3:hr>
            <ns3:cad>75</ns3:cad>
          </ns3:TrackPointExtension>
        </extensions>
      </trkpt>
      <trkpt lat="43.77957880496978759765625" lon="1.56872992403805255889892578125">
        <ele>133.1999969482421875</ele>
        <time>2026-08-13T07:19:12.000Z</time>
        <extensions>
          <ns3:TrackPointExtension>
            <ns3:hr>80</ns3:hr>
            <ns3:cad>75</ns3:cad>
          </ns3:TrackPointExtension>
        </extensions>
      </trkpt>
      <trkpt lat="43.77957453019917011260986328125" lon="1.56873780302703380584716796875">
        <ele>133.1999969482421875</ele>
        <time>2026-08-13T07:19:13.000Z</time>
        <extensions>
          <ns3:TrackPointExtension>
            <ns3:hr>79</ns3:hr>
            <ns3:cad>76</ns3:cad>
          </ns3:TrackPointExtension>
        </extensions>
      </trkpt>
      <trkpt lat="43.77957000397145748138427734375" lon="1.568746268749237060546875">
        <ele>133.399993896484375</ele>
        <time>2026-08-13T07:19:14.000Z</time>
        <extensions>
          <ns3:TrackPointExtension>
            <ns3:hr>79</ns3:hr>
            <ns3:cad>76</ns3:cad>
          </ns3:TrackPointExtension>
        </extensions>
      </trkpt>
      <trkpt lat="43.77956463955342769622802734375" lon="1.568751633167266845703125">
        <ele>133.399993896484375</ele>
        <time>2026-08-13T07:19:15.000Z</time>
        <extensions>
          <ns3:TrackPointExtension>
            <ns3:hr>80</ns3:hr>
            <ns3:cad>0</ns3:cad>
          </ns3:TrackPointExtension>
        </extensions>
      </trkpt>
      <trkpt lat="43.77955743111670017242431640625" lon="1.56875859014689922332763671875">
        <ele>133.399993896484375</ele>
        <time>2026-08-13T07:19:16.000Z</time>
        <extensions>
          <ns3:TrackPointExtension>
            <ns3:hr>80</ns3:hr>
            <ns3:cad>0</ns3:cad>
          </ns3:TrackPointExtension>
        </extensions>
      </trkpt>
      <trkpt lat="43.77955156378448009490966796875" lon="1.56876998953521251678466796875">
        <ele>133.399993896484375</ele>
        <time>2026-08-13T07:19:17.000Z</time>
        <extensions>
          <ns3:TrackPointExtension>
            <ns3:hr>80</ns3:hr>
            <ns3:cad>0</ns3:cad>
          </ns3:TrackPointExtension>
        </extensions>
      </trkpt>
      <trkpt lat="43.7795484624803066253662109375" lon="1.56877786852419376373291015625">
        <ele>133.399993896484375</ele>
        <time>2026-08-13T07:19:18.000Z</time>
        <extensions>
          <ns3:TrackPointExtension>
            <ns3:hr>81</ns3:hr>
            <ns3:cad>0</ns3:cad>
          </ns3:TrackPointExtension>
        </extensions>
      </trkpt>
      <trkpt lat="43.7795437686145305633544921875" lon="1.5687859989702701568603515625">
        <ele>133.600006103515625</ele>
        <time>2026-08-13T07:19:19.000Z</time>
        <extensions>
          <ns3:TrackPointExtension>
            <ns3:hr>81</ns3:hr>
            <ns3:cad>0</ns3:cad>
          </ns3:TrackPointExtension>
        </extensions>
      </trkpt>
      <trkpt lat="43.77953982912003993988037109375" lon="1.56879396177828311920166015625">
        <ele>133.600006103515625</ele>
        <time>2026-08-13T07:19:20.000Z</time>
        <extensions>
          <ns3:TrackPointExtension>
            <ns3:hr>81</ns3:hr>
            <ns3:cad>0</ns3:cad>
          </ns3:TrackPointExtension>
        </extensions>
      </trkpt>
      <trkpt lat="43.779536224901676177978515625" lon="1.5688017569482326507568359375">
        <ele>133.600006103515625</ele>
        <time>2026-08-13T07:19:21.000Z</time>
        <extensions>
          <ns3:TrackPointExtension>
            <ns3:hr>81</ns3:hr>
            <ns3:cad>0</ns3:cad>
          </ns3:TrackPointExtension>
        </extensions>
      </trkpt>
      <trkpt lat="43.77953211776912212371826171875" lon="1.5688098035752773284912109375">
        <ele>133.600006103515625</ele>
        <time>2026-08-13T07:19:22.000Z</time>
        <extensions>
          <ns3:TrackPointExtension>
            <ns3:hr>81</ns3:hr>
            <ns3:cad>0</ns3:cad>
          </ns3:TrackPointExtension>
        </extensions>
      </trkpt>
      <trkpt lat="43.77952675335109233856201171875" lon="1.5688178502023220062255859375">
        <ele>133.600006103515625</ele>
        <time>2026-08-13T07:19:23.000Z</time>
        <extensions>
          <ns3:TrackPointExtension>
            <ns3:hr>81</ns3:hr>
            <ns3:cad>0</ns3:cad>
          </ns3:TrackPointExtension>
        </extensions>
      </trkpt>
      <trkpt lat="43.77952323295176029205322265625" lon="1.56882338225841522216796875">
        <ele>133.600006103515625</ele>
        <time>2026-08-13T07:19:24.000Z</time>
        <extensions>
          <ns3:TrackPointExtension>
            <ns3:hr>81</ns3:hr>
            <ns3:cad>0</ns3:cad>
          </ns3:TrackPointExtension>
        </extensions>
      </trkpt>
      <trkpt lat="43.77951635979115962982177734375" lon="1.5688305906951427459716796875">
        <ele>133.600006103515625</ele>
        <time>2026-08-13T07:19:25.000Z</time>
        <extensions>
          <ns3:TrackPointExtension>
            <ns3:hr>81</ns3:hr>
            <ns3:cad>0</ns3:cad>
          </ns3:TrackPointExtension>
        </extensions>
      </trkpt>
      <trkpt lat="43.77951082773506641387939453125" lon="1.56883939169347286224365234375">
        <ele>133.600006103515625</ele>
        <time>2026-08-13T07:19:26.000Z</time>
        <extensions>
          <ns3:TrackPointExtension>
            <ns3:hr>81</ns3:hr>
            <ns3:cad>0</ns3:cad>
          </ns3:TrackPointExtension>
        </extensions>
      </trkpt>
      <trkpt lat="43.77950705587863922119140625" lon="1.56884760595858097076416015625">
        <ele>133.399993896484375</ele>
        <time>2026-08-13T07:19:27.000Z</time>
        <extensions>
          <ns3:TrackPointExtension>
            <ns3:hr>81</ns3:hr>
            <ns3:cad>0</ns3:cad>
          </ns3:TrackPointExtension>
        </extensions>
      </trkpt>
      <trkpt lat="43.77950076945126056671142578125" lon="1.5688537247478961944580078125">
        <ele>133.600006103515625</ele>
        <time>2026-08-13T07:19:28.000Z</time>
        <extensions>
          <ns3:TrackPointExtension>
            <ns3:hr>81</ns3:hr>
            <ns3:cad>0</ns3:cad>
          </ns3:TrackPointExtension>
        </extensions>
      </trkpt>
      <trkpt lat="43.77949540503323078155517578125" lon="1.56886118464171886444091796875">
        <ele>133.600006103515625</ele>
        <time>2026-08-13T07:19:29.000Z</time>
        <extensions>
          <ns3:TrackPointExtension>
            <ns3:hr>81</ns3:hr>
            <ns3:cad>0</ns3:cad>
          </ns3:TrackPointExtension>
        </extensions>
      </trkpt>
      <trkpt lat="43.77948970533907413482666015625" lon="1.56886654905974864959716796875">
        <ele>133.600006103515625</ele>
        <time>2026-08-13T07:19:30.000Z</time>
        <extensions>
          <ns3:TrackPointExtension>
            <ns3:hr>81</ns3:hr>
            <ns3:cad>0</ns3:cad>
          </ns3:TrackPointExtension>
        </extensions>
      </trkpt>
      <trkpt lat="43.779483921825885772705078125" lon="1.5688738413155078887939453125">
        <ele>133.600006103515625</ele>
        <time>2026-08-13T07:19:31.000Z</time>
        <extensions>
          <ns3:TrackPointExtension>
            <ns3:hr>81</ns3:hr>
            <ns3:cad>0</ns3:cad>
          </ns3:TrackPointExtension>
        </extensions>
      </trkpt>
      <trkpt lat="43.779478557407855987548828125" lon="1.56888431869447231292724609375">
        <ele>133.600006103515625</ele>
        <time>2026-08-13T07:19:32.000Z</time>
        <extensions>
          <ns3:TrackPointExtension>
            <ns3:hr>82</ns3:hr>
            <ns3:cad>0</ns3:cad>
          </ns3:TrackPointExtension>
        </extensions>
      </trkpt>
      <trkpt lat="43.7794740311801433563232421875" lon="1.56889471225440502166748046875">
        <ele>133.600006103515625</ele>
        <time>2026-08-13T07:19:33.000Z</time>
        <extensions>
          <ns3:TrackPointExtension>
            <ns3:hr>83</ns3:hr>
            <ns3:cad>80</ns3:cad>
          </ns3:TrackPointExtension>
        </extensions>
      </trkpt>
      <trkpt lat="43.7794683314859867095947265625" lon="1.56890259124338626861572265625">
        <ele>133.600006103515625</ele>
        <time>2026-08-13T07:19:34.000Z</time>
        <extensions>
          <ns3:TrackPointExtension>
            <ns3:hr>85</ns3:hr>
            <ns3:cad>80</ns3:cad>
          </ns3:TrackPointExtension>
        </extensions>
      </trkpt>
      <trkpt lat="43.7794643081724643707275390625" lon="1.56890921294689178466796875">
        <ele>133.600006103515625</ele>
        <time>2026-08-13T07:19:35.000Z</time>
        <extensions>
          <ns3:TrackPointExtension>
            <ns3:hr>86</ns3:hr>
            <ns3:cad>80</ns3:cad>
          </ns3:TrackPointExtension>
        </extensions>
      </trkpt>
      <trkpt lat="43.7794592790305614471435546875" lon="1.56891725957393646240234375">
        <ele>133.600006103515625</ele>
        <time>2026-08-13T07:19:36.000Z</time>
        <extensions>
          <ns3:TrackPointExtension>
            <ns3:hr>85</ns3:hr>
            <ns3:cad>79</ns3:cad>
          </ns3:TrackPointExtension>
        </extensions>
      </trkpt>
      <trkpt lat="43.779457770287990570068359375" lon="1.56892304308712482452392578125">
        <ele>133.8000030517578125</ele>
        <time>2026-08-13T07:19:37.000Z</time>
        <extensions>
          <ns3:TrackPointExtension>
            <ns3:hr>84</ns3:hr>
            <ns3:cad>0</ns3:cad>
          </ns3:TrackPointExtension>
        </extensions>
      </trkpt>
      <trkpt lat="43.7794549204409122467041015625" lon="1.56893360428512096405029296875">
        <ele>133.8000030517578125</ele>
        <time>2026-08-13T07:19:38.000Z</time>
        <extensions>
          <ns3:TrackPointExtension>
            <ns3:hr>84</ns3:hr>
            <ns3:cad>0</ns3:cad>
          </ns3:TrackPointExtension>
        </extensions>
      </trkpt>
      <trkpt lat="43.7794519029557704925537109375" lon="1.56894248910248279571533203125">
        <ele>133.8000030517578125</ele>
        <time>2026-08-13T07:19:39.000Z</time>
        <extensions>
          <ns3:TrackPointExtension>
            <ns3:hr>83</ns3:hr>
            <ns3:cad>76</ns3:cad>
          </ns3:TrackPointExtension>
        </extensions>
      </trkpt>
      <trkpt lat="43.779446370899677276611328125" lon="1.5689529664814472198486328125">
        <ele>133.8000030517578125</ele>
        <time>2026-08-13T07:19:40.000Z</time>
        <extensions>
          <ns3:TrackPointExtension>
            <ns3:hr>83</ns3:hr>
            <ns3:cad>77</ns3:cad>
          </ns3:TrackPointExtension>
        </extensions>
      </trkpt>
      <trkpt lat="43.7794441916048526763916015625" lon="1.56896126456558704376220703125">
        <ele>133.8000030517578125</ele>
        <time>2026-08-13T07:19:41.000Z</time>
        <extensions>
          <ns3:TrackPointExtension>
            <ns3:hr>83</ns3:hr>
            <ns3:cad>77</ns3:cad>
          </ns3:TrackPointExtension>
        </extensions>
      </trkpt>
      <trkpt lat="43.7794408388435840606689453125" lon="1.56897182576358318328857421875">
        <ele>133.8000030517578125</ele>
        <time>2026-08-13T07:19:42.000Z</time>
        <extensions>
          <ns3:TrackPointExtension>
            <ns3:hr>83</ns3:hr>
            <ns3:cad>77</ns3:cad>
          </ns3:TrackPointExtension>
        </extensions>
      </trkpt>
      <trkpt lat="43.779434971511363983154296875" lon="1.56898071058094501495361328125">
        <ele>133.8000030517578125</ele>
        <time>2026-08-13T07:19:43.000Z</time>
        <extensions>
          <ns3:TrackPointExtension>
            <ns3:hr>82</ns3:hr>
            <ns3:cad>41</ns3:cad>
          </ns3:TrackPointExtension>
        </extensions>
      </trkpt>
      <trkpt lat="43.77943270839750766754150390625" lon="1.56898967921733856201171875">
        <ele>133.8000030517578125</ele>
        <time>2026-08-13T07:19:44.000Z</time>
        <extensions>
          <ns3:TrackPointExtension>
            <ns3:hr>82</ns3:hr>
            <ns3:cad>41</ns3:cad>
          </ns3:TrackPointExtension>
        </extensions>
      </trkpt>
      <trkpt lat="43.7794299423694610595703125" lon="1.56900174915790557861328125">
        <ele>133.8000030517578125</ele>
        <time>2026-08-13T07:19:45.000Z</time>
        <extensions>
          <ns3:TrackPointExtension>
            <ns3:hr>82</ns3:hr>
            <ns3:cad>42</ns3:cad>
          </ns3:TrackPointExtension>
        </extensions>
      </trkpt>
      <trkpt lat="43.77942751161754131317138671875" lon="1.56901189126074314117431640625">
        <ele>133.8000030517578125</ele>
        <time>2026-08-13T07:19:46.000Z</time>
        <extensions>
          <ns3:TrackPointExtension>
            <ns3:hr>81</ns3:hr>
            <ns3:cad>42</ns3:cad>
          </ns3:TrackPointExtension>
        </extensions>
      </trkpt>
      <trkpt lat="43.77942315302789211273193359375" lon="1.5690247155725955963134765625">
        <ele>133.8000030517578125</ele>
        <time>2026-08-13T07:19:47.000Z</time>
        <extensions>
          <ns3:TrackPointExtension>
            <ns3:hr>80</ns3:hr>
            <ns3:cad>42</ns3:cad>
          </ns3:TrackPointExtension>
        </extensions>
      </trkpt>
      <trkpt lat="43.77941845916211605072021484375" lon="1.56903653405606746673583984375">
        <ele>133.8000030517578125</ele>
        <time>2026-08-13T07:19:48.000Z</time>
        <extensions>
          <ns3:TrackPointExtension>
            <ns3:hr>80</ns3:hr>
            <ns3:cad>42</ns3:cad>
          </ns3:TrackPointExtension>
        </extensions>
      </trkpt>
      <trkpt lat="43.77941317856311798095703125" lon="1.569047681987285614013671875">
        <ele>134</ele>
        <time>2026-08-13T07:19:49.000Z</time>
        <extensions>
          <ns3:TrackPointExtension>
            <ns3:hr>79</ns3:hr>
            <ns3:cad>42</ns3:cad>
          </ns3:TrackPointExtension>
        </extensions>
      </trkpt>
      <trkpt lat="43.7794086523354053497314453125" lon="1.5690572373569011688232421875">
        <ele>134</ele>
        <time>2026-08-13T07:19:50.000Z</time>
        <extensions>
          <ns3:TrackPointExtension>
            <ns3:hr>79</ns3:hr>
            <ns3:cad>42</ns3:cad>
          </ns3:TrackPointExtension>
        </extensions>
      </trkpt>
      <trkpt lat="43.7794049642980098724365234375" lon="1.56906469725072383880615234375">
        <ele>134.1999969482421875</ele>
        <time>2026-08-13T07:19:51.000Z</time>
        <extensions>
          <ns3:TrackPointExtension>
            <ns3:hr>79</ns3:hr>
            <ns3:cad>43</ns3:cad>
          </ns3:TrackPointExtension>
        </extensions>
      </trkpt>
      <trkpt lat="43.77939867787063121795654296875" lon="1.56907542608678340911865234375">
        <ele>134.1999969482421875</ele>
        <time>2026-08-13T07:19:52.000Z</time>
        <extensions>
          <ns3:TrackPointExtension>
            <ns3:hr>79</ns3:hr>
            <ns3:cad>44</ns3:cad>
          </ns3:TrackPointExtension>
        </extensions>
      </trkpt>
      <trkpt lat="43.7793950736522674560546875" lon="1.56908783130347728729248046875">
        <ele>134.1999969482421875</ele>
        <time>2026-08-13T07:19:53.000Z</time>
        <extensions>
          <ns3:TrackPointExtension>
            <ns3:hr>80</ns3:hr>
            <ns3:cad>44</ns3:cad>
          </ns3:TrackPointExtension>
        </extensions>
      </trkpt>
      <trkpt lat="43.7793910503387451171875" lon="1.569096632301807403564453125">
        <ele>134</ele>
        <time>2026-08-13T07:19:54.000Z</time>
        <extensions>
          <ns3:TrackPointExtension>
            <ns3:hr>79</ns3:hr>
            <ns3:cad>44</ns3:cad>
          </ns3:TrackPointExtension>
        </extensions>
      </trkpt>
      <trkpt lat="43.77938677556812763214111328125" lon="1.56910778023302555084228515625">
        <ele>134</ele>
        <time>2026-08-13T07:19:55.000Z</time>
        <extensions>
          <ns3:TrackPointExtension>
            <ns3:hr>79</ns3:hr>
            <ns3:cad>44</ns3:cad>
          </ns3:TrackPointExtension>
        </extensions>
      </trkpt>
      <trkpt lat="43.7793808244168758392333984375" lon="1.56911850906908512115478515625">
        <ele>134.1999969482421875</ele>
        <time>2026-08-13T07:19:56.000Z</time>
        <extensions>
          <ns3:TrackPointExtension>
            <ns3:hr>79</ns3:hr>
            <ns3:cad>44</ns3:cad>
          </ns3:TrackPointExtension>
        </extensions>
      </trkpt>
      <trkpt lat="43.77937830984592437744140625" lon="1.569130830466747283935546875">
        <ele>134.1999969482421875</ele>
        <time>2026-08-13T07:19:57.000Z</time>
        <extensions>
          <ns3:TrackPointExtension>
            <ns3:hr>80</ns3:hr>
            <ns3:cad>47</ns3:cad>
          </ns3:TrackPointExtension>
        </extensions>
      </trkpt>
      <trkpt lat="43.77937789075076580047607421875" lon="1.56913678161799907684326171875">
        <ele>134.1999969482421875</ele>
        <time>2026-08-13T07:19:58.000Z</time>
        <extensions>
          <ns3:TrackPointExtension>
            <ns3:hr>80</ns3:hr>
            <ns3:cad>47</ns3:cad>
          </ns3:TrackPointExtension>
        </extensions>
      </trkpt>
      <trkpt lat="43.7793721072375774383544921875" lon="1.5691497735679149627685546875">
        <ele>134.1999969482421875</ele>
        <time>2026-08-13T07:19:59.000Z</time>
        <extensions>
          <ns3:TrackPointExtension>
            <ns3:hr>80</ns3:hr>
            <ns3:cad>45</ns3:cad>
          </ns3:TrackPointExtension>
        </extensions>
      </trkpt>
      <trkpt lat="43.779367916285991668701171875" lon="1.56916125677525997161865234375">
        <ele>134.399993896484375</ele>
        <time>2026-08-13T07:20:00.000Z</time>
        <extensions>
          <ns3:TrackPointExtension>
            <ns3:hr>80</ns3:hr>
            <ns3:cad>43</ns3:cad>
          </ns3:TrackPointExtension>
        </extensions>
      </trkpt>
      <trkpt lat="43.77936447970569133758544921875" lon="1.56916938722133636474609375">
        <ele>134.399993896484375</ele>
        <time>2026-08-13T07:20:01.000Z</time>
        <extensions>
          <ns3:TrackPointExtension>
            <ns3:hr>80</ns3:hr>
            <ns3:cad>43</ns3:cad>
          </ns3:TrackPointExtension>
        </extensions>
      </trkpt>
      <trkpt lat="43.77935978583991527557373046875" lon="1.56917735002934932708740234375">
        <ele>134.399993896484375</ele>
        <time>2026-08-13T07:20:02.000Z</time>
        <extensions>
          <ns3:TrackPointExtension>
            <ns3:hr>81</ns3:hr>
            <ns3:cad>43</ns3:cad>
          </ns3:TrackPointExtension>
        </extensions>
      </trkpt>
      <trkpt lat="43.77935341559350490570068359375" lon="1.56918941996991634368896484375">
        <ele>134.399993896484375</ele>
        <time>2026-08-13T07:20:03.000Z</time>
        <extensions>
          <ns3:TrackPointExtension>
            <ns3:hr>81</ns3:hr>
            <ns3:cad>42</ns3:cad>
          </ns3:TrackPointExtension>
        </extensions>
      </trkpt>
      <trkpt lat="43.77934788353741168975830078125" lon="1.56919864006340503692626953125">
        <ele>134.399993896484375</ele>
        <time>2026-08-13T07:20:04.000Z</time>
        <extensions>
          <ns3:TrackPointExtension>
            <ns3:hr>82</ns3:hr>
            <ns3:cad>42</ns3:cad>
          </ns3:TrackPointExtension>
        </extensions>
      </trkpt>
      <trkpt lat="43.77934251911938190460205078125" lon="1.56920584850013256072998046875">
        <ele>134.399993896484375</ele>
        <time>2026-08-13T07:20:05.000Z</time>
        <extensions>
          <ns3:TrackPointExtension>
            <ns3:hr>82</ns3:hr>
            <ns3:cad>43</ns3:cad>
          </ns3:TrackPointExtension>
        </extensions>
      </trkpt>
      <trkpt lat="43.77933547832071781158447265625" lon="1.5692091174423694610595703125">
        <ele>134.399993896484375</ele>
        <time>2026-08-13T07:20:06.000Z</time>
        <extensions>
          <ns3:TrackPointExtension>
            <ns3:hr>82</ns3:hr>
            <ns3:cad>43</ns3:cad>
          </ns3:TrackPointExtension>
        </extensions>
      </trkpt>
      <trkpt lat="43.77933246083557605743408203125" lon="1.56921540386974811553955078125">
        <ele>134.600006103515625</ele>
        <time>2026-08-13T07:20:07.000Z</time>
        <extensions>
          <ns3:TrackPointExtension>
            <ns3:hr>81</ns3:hr>
            <ns3:cad>43</ns3:cad>
          </ns3:TrackPointExtension>
        </extensions>
      </trkpt>
      <trkpt lat="43.7793265096843242645263671875" lon="1.56922034919261932373046875">
        <ele>134.600006103515625</ele>
        <time>2026-08-13T07:20:08.000Z</time>
        <extensions>
          <ns3:TrackPointExtension>
            <ns3:hr>81</ns3:hr>
            <ns3:cad>43</ns3:cad>
          </ns3:TrackPointExtension>
        </extensions>
      </trkpt>
      <trkpt lat="43.77932257018983364105224609375" lon="1.56922831200063228607177734375">
        <ele>134.600006103515625</ele>
        <time>2026-08-13T07:20:09.000Z</time>
        <extensions>
          <ns3:TrackPointExtension>
            <ns3:hr>81</ns3:hr>
            <ns3:cad>43</ns3:cad>
          </ns3:TrackPointExtension>
        </extensions>
      </trkpt>
      <trkpt lat="43.779318965971469879150390625" lon="1.5692349337041378021240234375">
        <ele>134.600006103515625</ele>
        <time>2026-08-13T07:20:10.000Z</time>
        <extensions>
          <ns3:TrackPointExtension>
            <ns3:hr>81</ns3:hr>
            <ns3:cad>43</ns3:cad>
          </ns3:TrackPointExtension>
        </extensions>
      </trkpt>
      <trkpt lat="43.7793141044676303863525390625" lon="1.5692389570176601409912109375">
        <ele>134.600006103515625</ele>
        <time>2026-08-13T07:20:11.000Z</time>
        <extensions>
          <ns3:TrackPointExtension>
            <ns3:hr>81</ns3:hr>
            <ns3:cad>43</ns3:cad>
          </ns3:TrackPointExtension>
        </extensions>
      </trkpt>
      <trkpt lat="43.77930999733507633209228515625" lon="1.56924742273986339569091796875">
        <ele>134.600006103515625</ele>
        <time>2026-08-13T07:20:12.000Z</time>
        <extensions>
          <ns3:TrackPointExtension>
            <ns3:hr>81</ns3:hr>
            <ns3:cad>43</ns3:cad>
          </ns3:TrackPointExtension>
        </extensions>
      </trkpt>
      <trkpt lat="43.77930329181253910064697265625" lon="1.5692537091672420501708984375">
        <ele>134.600006103515625</ele>
        <time>2026-08-13T07:20:13.000Z</time>
        <extensions>
          <ns3:TrackPointExtension>
            <ns3:hr>82</ns3:hr>
            <ns3:cad>43</ns3:cad>
          </ns3:TrackPointExtension>
        </extensions>
      </trkpt>
      <trkpt lat="43.77929675392806529998779296875" lon="1.569257564842700958251953125">
        <ele>134.600006103515625</ele>
        <time>2026-08-13T07:20:14.000Z</time>
        <extensions>
          <ns3:TrackPointExtension>
            <ns3:hr>82</ns3:hr>
            <ns3:cad>77</ns3:cad>
          </ns3:TrackPointExtension>
        </extensions>
      </trkpt>
      <trkpt lat="43.7792899645864963531494140625" lon="1.56926217488944530487060546875">
        <ele>134.8000030517578125</ele>
        <time>2026-08-13T07:20:15.000Z</time>
        <extensions>
          <ns3:TrackPointExtension>
            <ns3:hr>85</ns3:hr>
            <ns3:cad>77</ns3:cad>
          </ns3:TrackPointExtension>
        </extensions>
      </trkpt>
      <trkpt lat="43.77928300760686397552490234375" lon="1.56926921568810939788818359375">
        <ele>134.8000030517578125</ele>
        <time>2026-08-13T07:20:16.000Z</time>
        <extensions>
          <ns3:TrackPointExtension>
            <ns3:hr>86</ns3:hr>
            <ns3:cad>77</ns3:cad>
          </ns3:TrackPointExtension>
        </extensions>
      </trkpt>
      <trkpt lat="43.77927630208432674407958984375" lon="1.5692791901528835296630859375">
        <ele>134.8000030517578125</ele>
        <time>2026-08-13T07:20:17.000Z</time>
        <extensions>
          <ns3:TrackPointExtension>
            <ns3:hr>87</ns3:hr>
            <ns3:cad>77</ns3:cad>
          </ns3:TrackPointExtension>
        </extensions>
      </trkpt>
      <trkpt lat="43.77927043475210666656494140625" lon="1.56928681768476963043212890625">
        <ele>134.8000030517578125</ele>
        <time>2026-08-13T07:20:18.000Z</time>
        <extensions>
          <ns3:TrackPointExtension>
            <ns3:hr>87</ns3:hr>
            <ns3:cad>40</ns3:cad>
          </ns3:TrackPointExtension>
        </extensions>
      </trkpt>
      <trkpt lat="43.779264986515045166015625" lon="1.56928983516991138458251953125">
        <ele>134.8000030517578125</ele>
        <time>2026-08-13T07:20:19.000Z</time>
        <extensions>
          <ns3:TrackPointExtension>
            <ns3:hr>87</ns3:hr>
            <ns3:cad>40</ns3:cad>
          </ns3:TrackPointExtension>
        </extensions>
      </trkpt>
      <trkpt lat="43.77925585024058818817138671875" lon="1.5692989714443683624267578125">
        <ele>134.8000030517578125</ele>
        <time>2026-08-13T07:20:20.000Z</time>
        <extensions>
          <ns3:TrackPointExtension>
            <ns3:hr>86</ns3:hr>
            <ns3:cad>40</ns3:cad>
          </ns3:TrackPointExtension>
        </extensions>
      </trkpt>
      <trkpt lat="43.779249228537082672119140625" lon="1.56930810771882534027099609375">
        <ele>135</ele>
        <time>2026-08-13T07:20:21.000Z</time>
        <extensions>
          <ns3:TrackPointExtension>
            <ns3:hr>86</ns3:hr>
            <ns3:cad>45</ns3:cad>
          </ns3:TrackPointExtension>
        </extensions>
      </trkpt>
      <trkpt lat="43.77924277447164058685302734375" lon="1.56931682489812374114990234375">
        <ele>135</ele>
        <time>2026-08-13T07:20:22.000Z</time>
        <extensions>
          <ns3:TrackPointExtension>
            <ns3:hr>83</ns3:hr>
            <ns3:cad>45</ns3:cad>
          </ns3:TrackPointExtension>
        </extensions>
      </trkpt>
      <trkpt lat="43.7792356498539447784423828125" lon="1.56932294368743896484375">
        <ele>135.1999969482421875</ele>
        <time>2026-08-13T07:20:23.000Z</time>
        <extensions>
          <ns3:TrackPointExtension>
            <ns3:hr>83</ns3:hr>
            <ns3:cad>45</ns3:cad>
          </ns3:TrackPointExtension>
        </extensions>
      </trkpt>
      <trkpt lat="43.779232464730739593505859375" lon="1.56933325342833995819091796875">
        <ele>135.1999969482421875</ele>
        <time>2026-08-13T07:20:24.000Z</time>
        <extensions>
          <ns3:TrackPointExtension>
            <ns3:hr>83</ns3:hr>
            <ns3:cad>45</ns3:cad>
          </ns3:TrackPointExtension>
        </extensions>
      </trkpt>
      <trkpt lat="43.77922676503658294677734375" lon="1.56933610327541828155517578125">
        <ele>135.1999969482421875</ele>
        <time>2026-08-13T07:20:25.000Z</time>
        <extensions>
          <ns3:TrackPointExtension>
            <ns3:hr>83</ns3:hr>
            <ns3:cad>41</ns3:cad>
          </ns3:TrackPointExtension>
        </extensions>
      </trkpt>
      <trkpt lat="43.77922047860920429229736328125" lon="1.56933970749378204345703125">
        <ele>135.1999969482421875</ele>
        <time>2026-08-13T07:20:26.000Z</time>
        <extensions>
          <ns3:TrackPointExtension>
            <ns3:hr>84</ns3:hr>
            <ns3:cad>0</ns3:cad>
          </ns3:TrackPointExtension>
        </extensions>
      </trkpt>
      <trkpt lat="43.77921544946730136871337890625" lon="1.56934641301631927490234375">
        <ele>135.1999969482421875</ele>
        <time>2026-08-13T07:20:27.000Z</time>
        <extensions>
          <ns3:TrackPointExtension>
            <ns3:hr>85</ns3:hr>
            <ns3:cad>0</ns3:cad>
          </ns3:TrackPointExtension>
        </extensions>
      </trkpt>
      <trkpt lat="43.7792101688683032989501953125" lon="1.56935085542500019073486328125">
        <ele>135</ele>
        <time>2026-08-13T07:20:28.000Z</time>
        <extensions>
          <ns3:TrackPointExtension>
            <ns3:hr>86</ns3:hr>
            <ns3:cad>41</ns3:cad>
          </ns3:TrackPointExtension>
        </extensions>
      </trkpt>
      <trkpt lat="43.77920706756412982940673828125" lon="1.5693589858710765838623046875">
        <ele>135</ele>
        <time>2026-08-13T07:20:29.000Z</time>
        <extensions>
          <ns3:TrackPointExtension>
            <ns3:hr>86</ns3:hr>
            <ns3:cad>0</ns3:cad>
          </ns3:TrackPointExtension>
        </extensions>
      </trkpt>
      <trkpt lat="43.7791991047561168670654296875" lon="1.56937013380229473114013671875">
        <ele>135</ele>
        <time>2026-08-13T07:20:30.000Z</time>
        <extensions>
          <ns3:TrackPointExtension>
            <ns3:hr>86</ns3:hr>
            <ns3:cad>0</ns3:cad>
          </ns3:TrackPointExtension>
        </extensions>
      </trkpt>
      <trkpt lat="43.77919256687164306640625" lon="1.56937667168676853179931640625">
        <ele>134.8000030517578125</ele>
        <time>2026-08-13T07:20:31.000Z</time>
        <extensions>
          <ns3:TrackPointExtension>
            <ns3:hr>86</ns3:hr>
            <ns3:cad>0</ns3:cad>
          </ns3:TrackPointExtension>
        </extensions>
      </trkpt>
      <trkpt lat="43.77918125130236148834228515625" lon="1.56938622705638408660888671875">
        <ele>134.8000030517578125</ele>
        <time>2026-08-13T07:20:32.000Z</time>
        <extensions>
          <ns3:TrackPointExtension>
            <ns3:hr>85</ns3:hr>
            <ns3:cad>43</ns3:cad>
          </ns3:TrackPointExtension>
        </extensions>
      </trkpt>
      <trkpt lat="43.77917421050369739532470703125" lon="1.56939477659761905670166015625">
        <ele>135</ele>
        <time>2026-08-13T07:20:33.000Z</time>
        <extensions>
          <ns3:TrackPointExtension>
            <ns3:hr>83</ns3:hr>
            <ns3:cad>43</ns3:cad>
          </ns3:TrackPointExtension>
        </extensions>
      </trkpt>
      <trkpt lat="43.77916499041020870208740234375" lon="1.56940198503434658050537109375">
        <ele>135</ele>
        <time>2026-08-13T07:20:34.000Z</time>
        <extensions>
          <ns3:TrackPointExtension>
            <ns3:hr>83</ns3:hr>
            <ns3:cad>43</ns3:cad>
          </ns3:TrackPointExtension>
        </extensions>
      </trkpt>
      <trkpt lat="43.77915836870670318603515625" lon="1.56940349377691745758056640625">
        <ele>135</ele>
        <time>2026-08-13T07:20:35.000Z</time>
        <extensions>
          <ns3:TrackPointExtension>
            <ns3:hr>82</ns3:hr>
            <ns3:cad>43</ns3:cad>
          </ns3:TrackPointExtension>
        </extensions>
      </trkpt>
      <trkpt lat="43.77915224991738796234130859375" lon="1.5694076009094715118408203125">
        <ele>135</ele>
        <time>2026-08-13T07:20:36.000Z</time>
        <extensions>
          <ns3:TrackPointExtension>
            <ns3:hr>82</ns3:hr>
            <ns3:cad>41</ns3:cad>
          </ns3:TrackPointExtension>
        </extensions>
      </trkpt>
      <trkpt lat="43.7791471369564533233642578125" lon="1.56941388733685016632080078125">
        <ele>135</ele>
        <time>2026-08-13T07:20:37.000Z</time>
        <extensions>
          <ns3:TrackPointExtension>
            <ns3:hr>82</ns3:hr>
            <ns3:cad>41</ns3:cad>
          </ns3:TrackPointExtension>
        </extensions>
      </trkpt>
      <trkpt lat="43.77913615666329860687255859375" lon="1.56942151486873626708984375">
        <ele>135</ele>
        <time>2026-08-13T07:20:38.000Z</time>
        <extensions>
          <ns3:TrackPointExtension>
            <ns3:hr>83</ns3:hr>
            <ns3:cad>41</ns3:cad>
          </ns3:TrackPointExtension>
        </extensions>
      </trkpt>
      <trkpt lat="43.77912844531238079071044921875" lon="1.5694250352680683135986328125">
        <ele>135</ele>
        <time>2026-08-13T07:20:39.000Z</time>
        <extensions>
          <ns3:TrackPointExtension>
            <ns3:hr>83</ns3:hr>
            <ns3:cad>46</ns3:cad>
          </ns3:TrackPointExtension>
        </extensions>
      </trkpt>
      <trkpt lat="43.77912090159952640533447265625" lon="1.5694246999919414520263671875">
        <ele>134.8000030517578125</ele>
        <time>2026-08-13T07:20:40.000Z</time>
        <extensions>
          <ns3:TrackPointExtension>
            <ns3:hr>84</ns3:hr>
            <ns3:cad>46</ns3:cad>
          </ns3:TrackPointExtension>
        </extensions>
      </trkpt>
      <trkpt lat="43.77911436371505260467529296875" lon="1.5694277174770832061767578125">
        <ele>134.8000030517578125</ele>
        <time>2026-08-13T07:20:41.000Z</time>
        <extensions>
          <ns3:TrackPointExtension>
            <ns3:hr>86</ns3:hr>
            <ns3:cad>46</ns3:cad>
          </ns3:TrackPointExtension>
        </extensions>
      </trkpt>
      <trkpt lat="43.779107071459293365478515625" lon="1.569433249533176422119140625">
        <ele>134.600006103515625</ele>
        <time>2026-08-13T07:20:42.000Z</time>
        <extensions>
          <ns3:TrackPointExtension>
            <ns3:hr>86</ns3:hr>
            <ns3:cad>46</ns3:cad>
          </ns3:TrackPointExtension>
        </extensions>
      </trkpt>
      <trkpt lat="43.7790985219180583953857421875" lon="1.56944255344569683074951171875">
        <ele>134.399993896484375</ele>
        <time>2026-08-13T07:20:43.000Z</time>
        <extensions>
          <ns3:TrackPointExtension>
            <ns3:hr>85</ns3:hr>
            <ns3:cad>46</ns3:cad>
          </ns3:TrackPointExtension>
        </extensions>
      </trkpt>
      <trkpt lat="43.77909072674810886383056640625" lon="1.5694481693208217620849609375">
        <ele>134.399993896484375</ele>
        <time>2026-08-13T07:20:44.000Z</time>
        <extensions>
          <ns3:TrackPointExtension>
            <ns3:hr>85</ns3:hr>
            <ns3:cad>46</ns3:cad>
          </ns3:TrackPointExtension>
        </extensions>
      </trkpt>
      <trkpt lat="43.77908326685428619384765625" lon="1.5694538690149784088134765625">
        <ele>134.399993896484375</ele>
        <time>2026-08-13T07:20:45.000Z</time>
        <extensions>
          <ns3:TrackPointExtension>
            <ns3:hr>85</ns3:hr>
            <ns3:cad>46</ns3:cad>
          </ns3:TrackPointExtension>
        </extensions>
      </trkpt>
      <trkpt lat="43.77907630987465381622314453125" lon="1.56946568749845027923583984375">
        <ele>134.600006103515625</ele>
        <time>2026-08-13T07:20:46.000Z</time>
        <extensions>
          <ns3:TrackPointExtension>
            <ns3:hr>85</ns3:hr>
            <ns3:cad>45</ns3:cad>
          </ns3:TrackPointExtension>
        </extensions>
      </trkpt>
      <trkpt lat="43.779071867465972900390625" lon="1.569473482668399810791015625">
        <ele>134.600006103515625</ele>
        <time>2026-08-13T07:20:47.000Z</time>
        <extensions>
          <ns3:TrackPointExtension>
            <ns3:hr>85</ns3:hr>
            <ns3:cad>45</ns3:cad>
          </ns3:TrackPointExtension>
        </extensions>
      </trkpt>
      <trkpt lat="43.77906641922891139984130859375" lon="1.56947658397257328033447265625">
        <ele>134.600006103515625</ele>
        <time>2026-08-13T07:20:48.000Z</time>
        <extensions>
          <ns3:TrackPointExtension>
            <ns3:hr>85</ns3:hr>
            <ns3:cad>45</ns3:cad>
          </ns3:TrackPointExtension>
        </extensions>
      </trkpt>
      <trkpt lat="43.779061473906040191650390625" lon="1.569483540952205657958984375">
        <ele>134.8000030517578125</ele>
        <time>2026-08-13T07:20:49.000Z</time>
        <extensions>
          <ns3:TrackPointExtension>
            <ns3:hr>85</ns3:hr>
            <ns3:cad>44</ns3:cad>
          </ns3:TrackPointExtension>
        </extensions>
      </trkpt>
      <trkpt lat="43.7790579535067081451416015625" lon="1.56949535943567752838134765625">
        <ele>134.8000030517578125</ele>
        <time>2026-08-13T07:20:50.000Z</time>
        <extensions>
          <ns3:TrackPointExtension>
            <ns3:hr>86</ns3:hr>
            <ns3:cad>44</ns3:cad>
          </ns3:TrackPointExtension>
        </extensions>
      </trkpt>
      <trkpt lat="43.7790532596409320831298828125" lon="1.56950642354786396026611328125">
        <ele>134.8000030517578125</ele>
        <time>2026-08-13T07:20:51.000Z</time>
        <extensions>
          <ns3:TrackPointExtension>
            <ns3:hr>86</ns3:hr>
            <ns3:cad>44</ns3:cad>
          </ns3:TrackPointExtension>
        </extensions>
      </trkpt>
      <trkpt lat="43.77905116416513919830322265625" lon="1.5695189125835895538330078125">
        <ele>134.8000030517578125</ele>
        <time>2026-08-13T07:20:52.000Z</time>
        <extensions>
          <ns3:TrackPointExtension>
            <ns3:hr>86</ns3:hr>
            <ns3:cad>0</ns3:cad>
          </ns3:TrackPointExtension>
        </extensions>
      </trkpt>
      <trkpt lat="43.77904839813709259033203125" lon="1.56952938996255397796630859375">
        <ele>134.8000030517578125</ele>
        <time>2026-08-13T07:20:53.000Z</time>
        <extensions>
          <ns3:TrackPointExtension>
            <ns3:hr>85</ns3:hr>
            <ns3:cad>0</ns3:cad>
          </ns3:TrackPointExtension>
        </extensions>
      </trkpt>
      <trkpt lat="43.7790472246706485748291015625" lon="1.56954246573150157928466796875">
        <ele>134.8000030517578125</ele>
        <time>2026-08-13T07:20:54.000Z</time>
        <extensions>
          <ns3:TrackPointExtension>
            <ns3:hr>85</ns3:hr>
            <ns3:cad>79</ns3:cad>
          </ns3:TrackPointExtension>
        </extensions>
      </trkpt>
      <trkpt lat="43.779042698442935943603515625" lon="1.56955386511981487274169921875">
        <ele>134.8000030517578125</ele>
        <time>2026-08-13T07:20:55.000Z</time>
        <extensions>
          <ns3:TrackPointExtension>
            <ns3:hr>85</ns3:hr>
            <ns3:cad>79</ns3:cad>
          </ns3:TrackPointExtension>
        </extensions>
      </trkpt>
      <trkpt lat="43.7790408544242382049560546875" lon="1.56956744380295276641845703125">
        <ele>134.8000030517578125</ele>
        <time>2026-08-13T07:20:56.000Z</time>
        <extensions>
          <ns3:TrackPointExtension>
            <ns3:hr>85</ns3:hr>
            <ns3:cad>79</ns3:cad>
          </ns3:TrackPointExtension>
        </extensions>
      </trkpt>
      <trkpt lat="43.77903909422457218170166015625" lon="1.56958512961864471435546875">
        <ele>134.8000030517578125</ele>
        <time>2026-08-13T07:20:57.000Z</time>
        <extensions>
          <ns3:TrackPointExtension>
            <ns3:hr>85</ns3:hr>
            <ns3:cad>79</ns3:cad>
          </ns3:TrackPointExtension>
        </extensions>
      </trkpt>
      <trkpt lat="43.7790358252823352813720703125" lon="1.56959510408341884613037109375">
        <ele>134.8000030517578125</ele>
        <time>2026-08-13T07:20:58.000Z</time>
        <extensions>
          <ns3:TrackPointExtension>
            <ns3:hr>86</ns3:hr>
            <ns3:cad>79</ns3:cad>
          </ns3:TrackPointExtension>
        </extensions>
      </trkpt>
      <trkpt lat="43.77903222106397151947021484375" lon="1.56960465945303440093994140625">
        <ele>134.8000030517578125</ele>
        <time>2026-08-13T07:20:59.000Z</time>
        <extensions>
          <ns3:TrackPointExtension>
            <ns3:hr>85</ns3:hr>
            <ns3:cad>77</ns3:cad>
          </ns3:TrackPointExtension>
        </extensions>
      </trkpt>
      <trkpt lat="43.779029957950115203857421875" lon="1.56961823813617229461669921875">
        <ele>134.8000030517578125</ele>
        <time>2026-08-13T07:21:00.000Z</time>
        <extensions>
          <ns3:TrackPointExtension>
            <ns3:hr>85</ns3:hr>
            <ns3:cad>80</ns3:cad>
          </ns3:TrackPointExtension>
        </extensions>
      </trkpt>
      <trkpt lat="43.77902752719819545745849609375" lon="1.5696278773248195648193359375">
        <ele>135</ele>
        <time>2026-08-13T07:21:01.000Z</time>
        <extensions>
          <ns3:TrackPointExtension>
            <ns3:hr>84</ns3:hr>
            <ns3:cad>41</ns3:cad>
          </ns3:TrackPointExtension>
        </extensions>
      </trkpt>
      <trkpt lat="43.77902668900787830352783203125" lon="1.56964019872248172760009765625">
        <ele>135</ele>
        <time>2026-08-13T07:21:02.000Z</time>
        <extensions>
          <ns3:TrackPointExtension>
            <ns3:hr>84</ns3:hr>
            <ns3:cad>41</ns3:cad>
          </ns3:TrackPointExtension>
        </extensions>
      </trkpt>
      <trkpt lat="43.77902534790337085723876953125" lon="1.56965042464435100555419921875">
        <ele>135</ele>
        <time>2026-08-13T07:21:03.000Z</time>
        <extensions>
          <ns3:TrackPointExtension>
            <ns3:hr>84</ns3:hr>
            <ns3:cad>41</ns3:cad>
          </ns3:TrackPointExtension>
        </extensions>
      </trkpt>
      <trkpt lat="43.77902886830270290374755859375" lon="1.569649837911128997802734375">
        <ele>135</ele>
        <time>2026-08-13T07:21:04.000Z</time>
        <extensions>
          <ns3:TrackPointExtension>
            <ns3:hr>83</ns3:hr>
            <ns3:cad>41</ns3:cad>
          </ns3:TrackPointExtension>
        </extensions>
      </trkpt>
      <trkpt lat="43.7790311314165592193603515625" lon="1.5696674399077892303466796875">
        <ele>135</ele>
        <time>2026-08-13T07:21:05.000Z</time>
        <extensions>
          <ns3:TrackPointExtension>
            <ns3:hr>83</ns3:hr>
            <ns3:cad>41</ns3:cad>
          </ns3:TrackPointExtension>
        </extensions>
      </trkpt>
      <trkpt lat="43.779030628502368927001953125" lon="1.56967691145837306976318359375">
        <ele>135</ele>
        <time>2026-08-13T07:21:06.000Z</time>
        <extensions>
          <ns3:TrackPointExtension>
            <ns3:hr>83</ns3:hr>
            <ns3:cad>41</ns3:cad>
          </ns3:TrackPointExtension>
        </extensions>
      </trkpt>
      <trkpt lat="43.77902920357882976531982421875" lon="1.56968428753316402435302734375">
        <ele>135</ele>
        <time>2026-08-13T07:21:07.000Z</time>
        <extensions>
          <ns3:TrackPointExtension>
            <ns3:hr>82</ns3:hr>
            <ns3:cad>74</ns3:cad>
          </ns3:TrackPointExtension>
        </extensions>
      </trkpt>
      <trkpt lat="43.77902685664594173431396484375" lon="1.56969417817890644073486328125">
        <ele>135.1999969482421875</ele>
        <time>2026-08-13T07:21:08.000Z</time>
        <extensions>
          <ns3:TrackPointExtension>
            <ns3:hr>82</ns3:hr>
            <ns3:cad>74</ns3:cad>
          </ns3:TrackPointExtension>
        </extensions>
      </trkpt>
      <trkpt lat="43.779027946293354034423828125" lon="1.56970306299626827239990234375">
        <ele>135.1999969482421875</ele>
        <time>2026-08-13T07:21:09.000Z</time>
        <extensions>
          <ns3:TrackPointExtension>
            <ns3:hr>81</ns3:hr>
            <ns3:cad>74</ns3:cad>
          </ns3:TrackPointExtension>
        </extensions>
      </trkpt>
      <trkpt lat="43.77902425825595855712890625" lon="1.5697140432894229888916015625">
        <ele>135.1999969482421875</ele>
        <time>2026-08-13T07:21:10.000Z</time>
        <extensions>
          <ns3:TrackPointExtension>
            <ns3:hr>81</ns3:hr>
            <ns3:cad>72</ns3:cad>
          </ns3:TrackPointExtension>
        </extensions>
      </trkpt>
      <trkpt lat="43.77901696600019931793212890625" lon="1.56972728669643402099609375">
        <ele>135.1999969482421875</ele>
        <time>2026-08-13T07:21:11.000Z</time>
        <extensions>
          <ns3:TrackPointExtension>
            <ns3:hr>81</ns3:hr>
            <ns3:cad>0</ns3:cad>
          </ns3:TrackPointExtension>
        </extensions>
      </trkpt>
      <trkpt lat="43.7790103442966938018798828125" lon="1.56973776407539844512939453125">
        <ele>135.1999969482421875</ele>
        <time>2026-08-13T07:21:12.000Z</time>
        <extensions>
          <ns3:TrackPointExtension>
            <ns3:hr>81</ns3:hr>
            <ns3:cad>0</ns3:cad>
          </ns3:TrackPointExtension>
        </extensions>
      </trkpt>
      <trkpt lat="43.7790076620876789093017578125" lon="1.5697462297976016998291015625">
        <ele>135.399993896484375</ele>
        <time>2026-08-13T07:21:13.000Z</time>
        <extensions>
          <ns3:TrackPointExtension>
            <ns3:hr>81</ns3:hr>
            <ns3:cad>40</ns3:cad>
          </ns3:TrackPointExtension>
        </extensions>
      </trkpt>
      <trkpt lat="43.77900338731706142425537109375" lon="1.56975871883332729339599609375">
        <ele>135.399993896484375</ele>
        <time>2026-08-13T07:21:14.000Z</time>
        <extensions>
          <ns3:TrackPointExtension>
            <ns3:hr>80</ns3:hr>
            <ns3:cad>76</ns3:cad>
          </ns3:TrackPointExtension>
        </extensions>
      </trkpt>
      <trkpt lat="43.77899718470871448516845703125" lon="1.56977145932614803314208984375">
        <ele>135.399993896484375</ele>
        <time>2026-08-13T07:21:15.000Z</time>
        <extensions>
          <ns3:TrackPointExtension>
            <ns3:hr>81</ns3:hr>
            <ns3:cad>76</ns3:cad>
          </ns3:TrackPointExtension>
        </extensions>
      </trkpt>
      <trkpt lat="43.77899399958550930023193359375" lon="1.56978227198123931884765625">
        <ele>135.399993896484375</ele>
        <time>2026-08-13T07:21:16.000Z</time>
        <extensions>
          <ns3:TrackPointExtension>
            <ns3:hr>81</ns3:hr>
            <ns3:cad>41</ns3:cad>
          </ns3:TrackPointExtension>
        </extensions>
      </trkpt>
      <trkpt lat="43.77899114973843097686767578125" lon="1.56979409046471118927001953125">
        <ele>135.399993896484375</ele>
        <time>2026-08-13T07:21:17.000Z</time>
        <extensions>
          <ns3:TrackPointExtension>
            <ns3:hr>81</ns3:hr>
            <ns3:cad>77</ns3:cad>
          </ns3:TrackPointExtension>
        </extensions>
      </trkpt>
      <trkpt lat="43.77898545004427433013916015625" lon="1.5697995387017726898193359375">
        <ele>135.399993896484375</ele>
        <time>2026-08-13T07:21:18.000Z</time>
        <extensions>
          <ns3:TrackPointExtension>
            <ns3:hr>82</ns3:hr>
            <ns3:cad>77</ns3:cad>
          </ns3:TrackPointExtension>
        </extensions>
      </trkpt>
      <trkpt lat="43.77897907979786396026611328125" lon="1.56981403939425945281982421875">
        <ele>135.399993896484375</ele>
        <time>2026-08-13T07:21:19.000Z</time>
        <extensions>
          <ns3:TrackPointExtension>
            <ns3:hr>82</ns3:hr>
            <ns3:cad>77</ns3:cad>
          </ns3:TrackPointExtension>
        </extensions>
      </trkpt>
      <trkpt lat="43.77897421829402446746826171875" lon="1.56982493586838245391845703125">
        <ele>135.600006103515625</ele>
        <time>2026-08-13T07:21:20.000Z</time>
        <extensions>
          <ns3:TrackPointExtension>
            <ns3:hr>84</ns3:hr>
            <ns3:cad>77</ns3:cad>
          </ns3:TrackPointExtension>
        </extensions>
      </trkpt>
      <trkpt lat="43.77896784804761409759521484375" lon="1.56983147375285625457763671875">
        <ele>135.600006103515625</ele>
        <time>2026-08-13T07:21:21.000Z</time>
        <extensions>
          <ns3:TrackPointExtension>
            <ns3:hr>86</ns3:hr>
            <ns3:cad>77</ns3:cad>
          </ns3:TrackPointExtension>
        </extensions>
      </trkpt>
      <trkpt lat="43.778963573276996612548828125" lon="1.5698391012847423553466796875">
        <ele>135.600006103515625</ele>
        <time>2026-08-13T07:21:22.000Z</time>
        <extensions>
          <ns3:TrackPointExtension>
            <ns3:hr>86</ns3:hr>
            <ns3:cad>76</ns3:cad>
          </ns3:TrackPointExtension>
        </extensions>
      </trkpt>
      <trkpt lat="43.7789607234299182891845703125" lon="1.56984957866370677947998046875">
        <ele>135.8000030517578125</ele>
        <time>2026-08-13T07:21:23.000Z</time>
        <extensions>
          <ns3:TrackPointExtension>
            <ns3:hr>87</ns3:hr>
            <ns3:cad>76</ns3:cad>
          </ns3:TrackPointExtension>
        </extensions>
      </trkpt>
      <trkpt lat="43.77895594574511051177978515625" lon="1.56986064277589321136474609375">
        <ele>135.8000030517578125</ele>
        <time>2026-08-13T07:21:24.000Z</time>
        <extensions>
          <ns3:TrackPointExtension>
            <ns3:hr>89</ns3:hr>
            <ns3:cad>76</ns3:cad>
          </ns3:TrackPointExtension>
        </extensions>
      </trkpt>
      <trkpt lat="43.7789513356983661651611328125" lon="1.56986969523131847381591796875">
        <ele>135.8000030517578125</ele>
        <time>2026-08-13T07:21:25.000Z</time>
        <extensions>
          <ns3:TrackPointExtension>
            <ns3:hr>90</ns3:hr>
            <ns3:cad>0</ns3:cad>
          </ns3:TrackPointExtension>
        </extensions>
      </trkpt>
      <trkpt lat="43.7789469771087169647216796875" lon="1.56988511793315410614013671875">
        <ele>136</ele>
        <time>2026-08-13T07:21:26.000Z</time>
        <extensions>
          <ns3:TrackPointExtension>
            <ns3:hr>91</ns3:hr>
            <ns3:cad>0</ns3:cad>
          </ns3:TrackPointExtension>
        </extensions>
      </trkpt>
      <trkpt lat="43.778942786157131195068359375" lon="1.5698974393308162689208984375">
        <ele>135.8000030517578125</ele>
        <time>2026-08-13T07:21:27.000Z</time>
        <extensions>
          <ns3:TrackPointExtension>
            <ns3:hr>92</ns3:hr>
            <ns3:cad>0</ns3:cad>
          </ns3:TrackPointExtension>
        </extensions>
      </trkpt>
      <trkpt lat="43.778938762843608856201171875" lon="1.5699078328907489776611328125">
        <ele>135.8000030517578125</ele>
        <time>2026-08-13T07:21:28.000Z</time>
        <extensions>
          <ns3:TrackPointExtension>
            <ns3:hr>92</ns3:hr>
            <ns3:cad>0</ns3:cad>
          </ns3:TrackPointExtension>
        </extensions>
      </trkpt>
      <trkpt lat="43.7789345718920230865478515625" lon="1.56991814263164997100830078125">
        <ele>135.8000030517578125</ele>
        <time>2026-08-13T07:21:29.000Z</time>
        <extensions>
          <ns3:TrackPointExtension>
            <ns3:hr>92</ns3:hr>
            <ns3:cad>0</ns3:cad>
          </ns3:TrackPointExtension>
        </extensions>
      </trkpt>
      <trkpt lat="43.778930716216564178466796875" lon="1.569928117096424102783203125">
        <ele>135.8000030517578125</ele>
        <time>2026-08-13T07:21:30.000Z</time>
        <extensions>
          <ns3:TrackPointExtension>
            <ns3:hr>92</ns3:hr>
            <ns3:cad>40</ns3:cad>
          </ns3:TrackPointExtension>
        </extensions>
      </trkpt>
      <trkpt lat="43.7789258547127246856689453125" lon="1.56993624754250049591064453125">
        <ele>135.8000030517578125</ele>
        <time>2026-08-13T07:21:31.000Z</time>
        <extensions>
          <ns3:TrackPointExtension>
            <ns3:hr>91</ns3:hr>
            <ns3:cad>41</ns3:cad>
          </ns3:TrackPointExtension>
        </extensions>
      </trkpt>
      <trkpt lat="43.77892459742724895477294921875" lon="1.569947898387908935546875">
        <ele>135.8000030517578125</ele>
        <time>2026-08-13T07:21:32.000Z</time>
        <extensions>
          <ns3:TrackPointExtension>
            <ns3:hr>90</ns3:hr>
            <ns3:cad>41</ns3:cad>
          </ns3:TrackPointExtension>
        </extensions>
      </trkpt>
      <trkpt lat="43.77892124466598033905029296875" lon="1.569955609738826751708984375">
        <ele>135.8000030517578125</ele>
        <time>2026-08-13T07:21:33.000Z</time>
        <extensions>
          <ns3:TrackPointExtension>
            <ns3:hr>89</ns3:hr>
            <ns3:cad>41</ns3:cad>
          </ns3:TrackPointExtension>
        </extensions>
      </trkpt>
      <trkpt lat="43.77892007119953632354736328125" lon="1.56996591947972774505615234375">
        <ele>135.8000030517578125</ele>
        <time>2026-08-13T07:21:34.000Z</time>
        <extensions>
          <ns3:TrackPointExtension>
            <ns3:hr>87</ns3:hr>
            <ns3:cad>41</ns3:cad>
          </ns3:TrackPointExtension>
        </extensions>
      </trkpt>
      <trkpt lat="43.77891621552407741546630859375" lon="1.5699782408773899078369140625">
        <ele>135.8000030517578125</ele>
        <time>2026-08-13T07:21:35.000Z</time>
        <extensions>
          <ns3:TrackPointExtension>
            <ns3:hr>86</ns3:hr>
            <ns3:cad>41</ns3:cad>
          </ns3:TrackPointExtension>
        </extensions>
      </trkpt>
      <trkpt lat="43.77891638316214084625244140625" lon="1.5699869580566883087158203125">
        <ele>135.8000030517578125</ele>
        <time>2026-08-13T07:21:36.000Z</time>
        <extensions>
          <ns3:TrackPointExtension>
            <ns3:hr>86</ns3:hr>
            <ns3:cad>41</ns3:cad>
          </ns3:TrackPointExtension>
        </extensions>
      </trkpt>
      <trkpt lat="43.77891638316214084625244140625" lon="1.57000489532947540283203125">
        <ele>135.8000030517578125</ele>
        <time>2026-08-13T07:21:37.000Z</time>
        <extensions>
          <ns3:TrackPointExtension>
            <ns3:hr>86</ns3:hr>
            <ns3:cad>40</ns3:cad>
          </ns3:TrackPointExtension>
        </extensions>
      </trkpt>
      <trkpt lat="43.7789176404476165771484375" lon="1.57001696527004241943359375">
        <ele>135.8000030517578125</ele>
        <time>2026-08-13T07:21:38.000Z</time>
        <extensions>
          <ns3:TrackPointExtension>
            <ns3:hr>85</ns3:hr>
            <ns3:cad>40</ns3:cad>
          </ns3:TrackPointExtension>
        </extensions>
      </trkpt>
      <trkpt lat="43.77891973592340946197509765625" lon="1.5700297057628631591796875">
        <ele>136</ele>
        <time>2026-08-13T07:21:39.000Z</time>
        <extensions>
          <ns3:TrackPointExtension>
            <ns3:hr>85</ns3:hr>
            <ns3:cad>40</ns3:cad>
          </ns3:TrackPointExtension>
        </extensions>
      </trkpt>
      <trkpt lat="43.7789251841604709625244140625" lon="1.5700404345989227294921875">
        <ele>136</ele>
        <time>2026-08-13T07:21:40.000Z</time>
        <extensions>
          <ns3:TrackPointExtension>
            <ns3:hr>85</ns3:hr>
            <ns3:cad>40</ns3:cad>
          </ns3:TrackPointExtension>
        </extensions>
      </trkpt>
      <trkpt lat="43.77892434597015380859375" lon="1.5700499899685382843017578125">
        <ele>136</ele>
        <time>2026-08-13T07:21:41.000Z</time>
        <extensions>
          <ns3:TrackPointExtension>
            <ns3:hr>84</ns3:hr>
            <ns3:cad>40</ns3:cad>
          </ns3:TrackPointExtension>
        </extensions>
      </trkpt>
      <trkpt lat="43.7789248488843441009521484375" lon="1.5700620599091053009033203125">
        <ele>136</ele>
        <time>2026-08-13T07:21:42.000Z</time>
        <extensions>
          <ns3:TrackPointExtension>
            <ns3:hr>84</ns3:hr>
            <ns3:cad>40</ns3:cad>
          </ns3:TrackPointExtension>
        </extensions>
      </trkpt>
      <trkpt lat="43.77892099320888519287109375" lon="1.57007119618356227874755859375">
        <ele>136</ele>
        <time>2026-08-13T07:21:43.000Z</time>
        <extensions>
          <ns3:TrackPointExtension>
            <ns3:hr>83</ns3:hr>
            <ns3:cad>40</ns3:cad>
          </ns3:TrackPointExtension>
        </extensions>
      </trkpt>
      <trkpt lat="43.77891554497182369232177734375" lon="1.5700717829167842864990234375">
        <ele>136</ele>
        <time>2026-08-13T07:21:44.000Z</time>
        <extensions>
          <ns3:TrackPointExtension>
            <ns3:hr>83</ns3:hr>
            <ns3:cad>40</ns3:cad>
          </ns3:TrackPointExtension>
        </extensions>
      </trkpt>
      <trkpt lat="43.77891386859118938446044921875" lon="1.570082344114780426025390625">
        <ele>136</ele>
        <time>2026-08-13T07:21:45.000Z</time>
        <extensions>
          <ns3:TrackPointExtension>
            <ns3:hr>82</ns3:hr>
            <ns3:cad>0</ns3:cad>
          </ns3:TrackPointExtension>
        </extensions>
      </trkpt>
      <trkpt lat="43.77891361713409423828125" lon="1.57009449787437915802001953125">
        <ele>136</ele>
        <time>2026-08-13T07:21:46.000Z</time>
        <extensions>
          <ns3:TrackPointExtension>
            <ns3:hr>82</ns3:hr>
            <ns3:cad>0</ns3:cad>
          </ns3:TrackPointExtension>
        </extensions>
      </trkpt>
      <trkpt lat="43.77891001291573047637939453125" lon="1.57010614871978759765625">
        <ele>136</ele>
        <time>2026-08-13T07:21:47.000Z</time>
        <extensions>
          <ns3:TrackPointExtension>
            <ns3:hr>82</ns3:hr>
            <ns3:cad>0</ns3:cad>
          </ns3:TrackPointExtension>
        </extensions>
      </trkpt>
      <trkpt lat="43.778904564678668975830078125" lon="1.57011863775551319122314453125">
        <ele>136.1999969482421875</ele>
        <time>2026-08-13T07:21:48.000Z</time>
        <extensions>
          <ns3:TrackPointExtension>
            <ns3:hr>82</ns3:hr>
            <ns3:cad>0</ns3:cad>
          </ns3:TrackPointExtension>
        </extensions>
      </trkpt>
      <trkpt lat="43.77890146337449550628662109375" lon="1.57013808377087116241455078125">
        <ele>136.1999969482421875</ele>
        <time>2026-08-13T07:21:49.000Z</time>
        <extensions>
          <ns3:TrackPointExtension>
            <ns3:hr>83</ns3:hr>
            <ns3:cad>0</ns3:cad>
          </ns3:TrackPointExtension>
        </extensions>
      </trkpt>
      <trkpt lat="43.77889844588935375213623046875" lon="1.57014965079724788665771484375">
        <ele>136.1999969482421875</ele>
        <time>2026-08-13T07:21:50.000Z</time>
        <extensions>
          <ns3:TrackPointExtension>
            <ns3:hr>83</ns3:hr>
            <ns3:cad>0</ns3:cad>
          </ns3:TrackPointExtension>
        </extensions>
      </trkpt>
      <trkpt lat="43.7788963504135608673095703125" lon="1.570162139832973480224609375">
        <ele>136.1999969482421875</ele>
        <time>2026-08-13T07:21:51.000Z</time>
        <extensions>
          <ns3:TrackPointExtension>
            <ns3:hr>84</ns3:hr>
            <ns3:cad>0</ns3:cad>
          </ns3:TrackPointExtension>
        </extensions>
      </trkpt>
      <trkpt lat="43.7788960151374340057373046875" lon="1.57017915509641170501708984375">
        <ele>136.1999969482421875</ele>
        <time>2026-08-13T07:21:52.000Z</time>
        <extensions>
          <ns3:TrackPointExtension>
            <ns3:hr>85</ns3:hr>
            <ns3:cad>0</ns3:cad>
          </ns3:TrackPointExtension>
        </extensions>
      </trkpt>
      <trkpt lat="43.77889408729970455169677734375" lon="1.57019197940826416015625">
        <ele>136.1999969482421875</ele>
        <time>2026-08-13T07:21:53.000Z</time>
        <extensions>
          <ns3:TrackPointExtension>
            <ns3:hr>86</ns3:hr>
            <ns3:cad>40</ns3:cad>
          </ns3:TrackPointExtension>
        </extensions>
      </trkpt>
      <trkpt lat="43.77889274619519710540771484375" lon="1.57020111568272113800048828125">
        <ele>136.1999969482421875</ele>
        <time>2026-08-13T07:21:54.000Z</time>
        <extensions>
          <ns3:TrackPointExtension>
            <ns3:hr>87</ns3:hr>
            <ns3:cad>40</ns3:cad>
          </ns3:TrackPointExtension>
        </extensions>
      </trkpt>
      <trkpt lat="43.77889106981456279754638671875" lon="1.570213101804256439208984375">
        <ele>136.399993896484375</ele>
        <time>2026-08-13T07:21:55.000Z</time>
        <extensions>
          <ns3:TrackPointExtension>
            <ns3:hr>87</ns3:hr>
            <ns3:cad>40</ns3:cad>
          </ns3:TrackPointExtension>
        </extensions>
      </trkpt>
      <trkpt lat="43.7788903154432773590087890625" lon="1.57022760249674320220947265625">
        <ele>136.399993896484375</ele>
        <time>2026-08-13T07:21:56.000Z</time>
        <extensions>
          <ns3:TrackPointExtension>
            <ns3:hr>87</ns3:hr>
            <ns3:cad>40</ns3:cad>
          </ns3:TrackPointExtension>
        </extensions>
      </trkpt>
      <trkpt lat="43.778891824185848236083984375" lon="1.57023682259023189544677734375">
        <ele>136.399993896484375</ele>
        <time>2026-08-13T07:21:57.000Z</time>
        <extensions>
          <ns3:TrackPointExtension>
            <ns3:hr>87</ns3:hr>
            <ns3:cad>41</ns3:cad>
          </ns3:TrackPointExtension>
        </extensions>
      </trkpt>
      <trkpt lat="43.77889442257583141326904296875" lon="1.570248305797576904296875">
        <ele>136.399993896484375</ele>
        <time>2026-08-13T07:21:58.000Z</time>
        <extensions>
          <ns3:TrackPointExtension>
            <ns3:hr>88</ns3:hr>
            <ns3:cad>42</ns3:cad>
          </ns3:TrackPointExtension>
        </extensions>
      </trkpt>
      <trkpt lat="43.7788963504135608673095703125" lon="1.57026096247136592864990234375">
        <ele>136.399993896484375</ele>
        <time>2026-08-13T07:21:59.000Z</time>
        <extensions>
          <ns3:TrackPointExtension>
            <ns3:hr>89</ns3:hr>
            <ns3:cad>42</ns3:cad>
          </ns3:TrackPointExtension>
        </extensions>
      </trkpt>
      <trkpt lat="43.7788990326225757598876953125" lon="1.5702724456787109375">
        <ele>136.399993896484375</ele>
        <time>2026-08-13T07:22:00.000Z</time>
        <extensions>
          <ns3:TrackPointExtension>
            <ns3:hr>90</ns3:hr>
            <ns3:cad>41</ns3:cad>
          </ns3:TrackPointExtension>
        </extensions>
      </trkpt>
      <trkpt lat="43.77890381030738353729248046875" lon="1.5702877007424831390380859375">
        <ele>136.399993896484375</ele>
        <time>2026-08-13T07:22:01.000Z</time>
        <extensions>
          <ns3:TrackPointExtension>
            <ns3:hr>90</ns3:hr>
            <ns3:cad>41</ns3:cad>
          </ns3:TrackPointExtension>
        </extensions>
      </trkpt>
      <trkpt lat="43.77890867181122303009033203125" lon="1.57029750756919384002685546875">
        <ele>136.399993896484375</ele>
        <time>2026-08-13T07:22:02.000Z</time>
        <extensions>
          <ns3:TrackPointExtension>
            <ns3:hr>90</ns3:hr>
            <ns3:cad>40</ns3:cad>
          </ns3:TrackPointExtension>
        </extensions>
      </trkpt>
      <trkpt lat="43.778912611305713653564453125" lon="1.5703113377094268798828125">
        <ele>136.399993896484375</ele>
        <time>2026-08-13T07:22:03.000Z</time>
        <extensions>
          <ns3:TrackPointExtension>
            <ns3:hr>89</ns3:hr>
            <ns3:cad>40</ns3:cad>
          </ns3:TrackPointExtension>
        </extensions>
      </trkpt>
      <trkpt lat="43.77891772426664829254150390625" lon="1.57032315619289875030517578125">
        <ele>136.399993896484375</ele>
        <time>2026-08-13T07:22:04.000Z</time>
        <extensions>
          <ns3:TrackPointExtension>
            <ns3:hr>88</ns3:hr>
            <ns3:cad>40</ns3:cad>
          </ns3:TrackPointExtension>
        </extensions>
      </trkpt>
      <trkpt lat="43.7789201550185680389404296875" lon="1.57033078372478485107421875">
        <ele>136.399993896484375</ele>
        <time>2026-08-13T07:22:05.000Z</time>
        <extensions>
          <ns3:TrackPointExtension>
            <ns3:hr>87</ns3:hr>
            <ns3:cad>41</ns3:cad>
          </ns3:TrackPointExtension>
        </extensions>
      </trkpt>
      <trkpt lat="43.7789251841604709625244140625" lon="1.57034511677920818328857421875">
        <ele>136.399993896484375</ele>
        <time>2026-08-13T07:22:06.000Z</time>
        <extensions>
          <ns3:TrackPointExtension>
            <ns3:hr>87</ns3:hr>
            <ns3:cad>41</ns3:cad>
          </ns3:TrackPointExtension>
        </extensions>
      </trkpt>
      <trkpt lat="43.77893264405429363250732421875" lon="1.57035970129072666168212890625">
        <ele>136.600006103515625</ele>
        <time>2026-08-13T07:22:07.000Z</time>
        <extensions>
          <ns3:TrackPointExtension>
            <ns3:hr>86</ns3:hr>
            <ns3:cad>41</ns3:cad>
          </ns3:TrackPointExtension>
        </extensions>
      </trkpt>
      <trkpt lat="43.7789355777204036712646484375" lon="1.57036489807069301605224609375">
        <ele>136.600006103515625</ele>
        <time>2026-08-13T07:22:08.000Z</time>
        <extensions>
          <ns3:TrackPointExtension>
            <ns3:hr>86</ns3:hr>
            <ns3:cad>41</ns3:cad>
          </ns3:TrackPointExtension>
        </extensions>
      </trkpt>
      <trkpt lat="43.77894270233809947967529296875" lon="1.5703783929347991943359375">
        <ele>136.399993896484375</ele>
        <time>2026-08-13T07:22:09.000Z</time>
        <extensions>
          <ns3:TrackPointExtension>
            <ns3:hr>86</ns3:hr>
            <ns3:cad>43</ns3:cad>
          </ns3:TrackPointExtension>
        </extensions>
      </trkpt>
      <trkpt lat="43.77894655801355838775634765625" lon="1.5703864395618438720703125">
        <ele>136.399993896484375</ele>
        <time>2026-08-13T07:22:10.000Z</time>
        <extensions>
          <ns3:TrackPointExtension>
            <ns3:hr>86</ns3:hr>
            <ns3:cad>45</ns3:cad>
          </ns3:TrackPointExtension>
        </extensions>
      </trkpt>
      <trkpt lat="43.7789471447467803955078125" lon="1.5703953243792057037353515625">
        <ele>136.399993896484375</ele>
        <time>2026-08-13T07:22:11.000Z</time>
        <extensions>
          <ns3:TrackPointExtension>
            <ns3:hr>85</ns3:hr>
            <ns3:cad>43</ns3:cad>
          </ns3:TrackPointExtension>
        </extensions>
      </trkpt>
      <trkpt lat="43.7789489887654781341552734375" lon="1.570403873920440673828125">
        <ele>136.399993896484375</ele>
        <time>2026-08-13T07:22:12.000Z</time>
        <extensions>
          <ns3:TrackPointExtension>
            <ns3:hr>86</ns3:hr>
            <ns3:cad>43</ns3:cad>
          </ns3:TrackPointExtension>
        </extensions>
      </trkpt>
      <trkpt lat="43.7789530120790004730224609375" lon="1.57041418366134166717529296875">
        <ele>136.399993896484375</ele>
        <time>2026-08-13T07:22:13.000Z</time>
        <extensions>
          <ns3:TrackPointExtension>
            <ns3:hr>85</ns3:hr>
            <ns3:cad>43</ns3:cad>
          </ns3:TrackPointExtension>
        </extensions>
      </trkpt>
      <trkpt lat="43.7789580412209033966064453125" lon="1.570423655211925506591796875">
        <ele>136.399993896484375</ele>
        <time>2026-08-13T07:22:14.000Z</time>
        <extensions>
          <ns3:TrackPointExtension>
            <ns3:hr>85</ns3:hr>
            <ns3:cad>41</ns3:cad>
          </ns3:TrackPointExtension>
        </extensions>
      </trkpt>
      <trkpt lat="43.7789617292582988739013671875" lon="1.57042994163930416107177734375">
        <ele>136.399993896484375</ele>
        <time>2026-08-13T07:22:15.000Z</time>
        <extensions>
          <ns3:TrackPointExtension>
            <ns3:hr>86</ns3:hr>
            <ns3:cad>41</ns3:cad>
          </ns3:TrackPointExtension>
        </extensions>
      </trkpt>
      <trkpt lat="43.7789684347808361053466796875" lon="1.5704392455518245697021484375">
        <ele>136.600006103515625</ele>
        <time>2026-08-13T07:22:16.000Z</time>
        <extensions>
          <ns3:TrackPointExtension>
            <ns3:hr>86</ns3:hr>
            <ns3:cad>41</ns3:cad>
          </ns3:TrackPointExtension>
        </extensions>
      </trkpt>
      <trkpt lat="43.778975643217563629150390625" lon="1.57045014202594757080078125">
        <ele>136.600006103515625</ele>
        <time>2026-08-13T07:22:17.000Z</time>
        <extensions>
          <ns3:TrackPointExtension>
            <ns3:hr>86</ns3:hr>
            <ns3:cad>41</ns3:cad>
          </ns3:TrackPointExtension>
        </extensions>
      </trkpt>
      <trkpt lat="43.77897799015045166015625" lon="1.57046078704297542572021484375">
        <ele>136.600006103515625</ele>
        <time>2026-08-13T07:22:18.000Z</time>
        <extensions>
          <ns3:TrackPointExtension>
            <ns3:hr>86</ns3:hr>
            <ns3:cad>41</ns3:cad>
          </ns3:TrackPointExtension>
        </extensions>
      </trkpt>
      <trkpt lat="43.7789781577885150909423828125" lon="1.57046933658421039581298828125">
        <ele>136.600006103515625</ele>
        <time>2026-08-13T07:22:19.000Z</time>
        <extensions>
          <ns3:TrackPointExtension>
            <ns3:hr>86</ns3:hr>
            <ns3:cad>41</ns3:cad>
          </ns3:TrackPointExtension>
        </extensions>
      </trkpt>
      <trkpt lat="43.778984360396862030029296875" lon="1.57048710621893405914306640625">
        <ele>136.600006103515625</ele>
        <time>2026-08-13T07:22:20.000Z</time>
        <extensions>
          <ns3:TrackPointExtension>
            <ns3:hr>87</ns3:hr>
            <ns3:cad>41</ns3:cad>
          </ns3:TrackPointExtension>
        </extensions>
      </trkpt>
      <trkpt lat="43.77898871898651123046875" lon="1.5705012716352939605712890625">
        <ele>136.399993896484375</ele>
        <time>2026-08-13T07:22:21.000Z</time>
        <extensions>
          <ns3:TrackPointExtension>
            <ns3:hr>87</ns3:hr>
            <ns3:cad>41</ns3:cad>
          </ns3:TrackPointExtension>
        </extensions>
      </trkpt>
      <trkpt lat="43.7789908982813358306884765625" lon="1.570511497557163238525390625">
        <ele>136.399993896484375</ele>
        <time>2026-08-13T07:22:22.000Z</time>
        <extensions>
          <ns3:TrackPointExtension>
            <ns3:hr>87</ns3:hr>
            <ns3:cad>41</ns3:cad>
          </ns3:TrackPointExtension>
        </extensions>
      </trkpt>
      <trkpt lat="43.77899785526096820831298828125" lon="1.57052633352577686309814453125">
        <ele>136.399993896484375</ele>
        <time>2026-08-13T07:22:23.000Z</time>
        <extensions>
          <ns3:TrackPointExtension>
            <ns3:hr>87</ns3:hr>
            <ns3:cad>44</ns3:cad>
          </ns3:TrackPointExtension>
        </extensions>
      </trkpt>
      <trkpt lat="43.77900280058383941650390625" lon="1.5705420076847076416015625">
        <ele>136.399993896484375</ele>
        <time>2026-08-13T07:22:24.000Z</time>
        <extensions>
          <ns3:TrackPointExtension>
            <ns3:hr>87</ns3:hr>
            <ns3:cad>44</ns3:cad>
          </ns3:TrackPointExtension>
        </extensions>
      </trkpt>
      <trkpt lat="43.77900573424994945526123046875" lon="1.57055214978754520416259765625">
        <ele>136.399993896484375</ele>
        <time>2026-08-13T07:22:25.000Z</time>
        <extensions>
          <ns3:TrackPointExtension>
            <ns3:hr>87</ns3:hr>
            <ns3:cad>43</ns3:cad>
          </ns3:TrackPointExtension>
        </extensions>
      </trkpt>
      <trkpt lat="43.77900841645896434783935546875" lon="1.57055877149105072021484375">
        <ele>136.399993896484375</ele>
        <time>2026-08-13T07:22:26.000Z</time>
        <extensions>
          <ns3:TrackPointExtension>
            <ns3:hr>87</ns3:hr>
            <ns3:cad>43</ns3:cad>
          </ns3:TrackPointExtension>
        </extensions>
      </trkpt>
      <trkpt lat="43.77901679836213588714599609375" lon="1.57057754695415496826171875">
        <ele>136.399993896484375</ele>
        <time>2026-08-13T07:22:27.000Z</time>
        <extensions>
          <ns3:TrackPointExtension>
            <ns3:hr>88</ns3:hr>
            <ns3:cad>43</ns3:cad>
          </ns3:TrackPointExtension>
        </extensions>
      </trkpt>
      <trkpt lat="43.7790200673043727874755859375" lon="1.5705871023237705230712890625">
        <ele>136.399993896484375</ele>
        <time>2026-08-13T07:22:28.000Z</time>
        <extensions>
          <ns3:TrackPointExtension>
            <ns3:hr>87</ns3:hr>
            <ns3:cad>43</ns3:cad>
          </ns3:TrackPointExtension>
        </extensions>
      </trkpt>
      <trkpt lat="43.77902065403759479522705078125" lon="1.5705944783985614776611328125">
        <ele>136.399993896484375</ele>
        <time>2026-08-13T07:22:29.000Z</time>
        <extensions>
          <ns3:TrackPointExtension>
            <ns3:hr>86</ns3:hr>
            <ns3:cad>43</ns3:cad>
          </ns3:TrackPointExtension>
        </extensions>
      </trkpt>
      <trkpt lat="43.77902316860854625701904296875" lon="1.57060512341558933258056640625">
        <ele>136.399993896484375</ele>
        <time>2026-08-13T07:22:30.000Z</time>
        <extensions>
          <ns3:TrackPointExtension>
            <ns3:hr>86</ns3:hr>
            <ns3:cad>0</ns3:cad>
          </ns3:TrackPointExtension>
        </extensions>
      </trkpt>
      <trkpt lat="43.779027275741100311279296875" lon="1.57061635516583919525146484375">
        <ele>136.399993896484375</ele>
        <time>2026-08-13T07:22:31.000Z</time>
        <extensions>
          <ns3:TrackPointExtension>
            <ns3:hr>86</ns3:hr>
            <ns3:cad>0</ns3:cad>
          </ns3:TrackPointExtension>
        </extensions>
      </trkpt>
      <trkpt lat="43.77902803011238574981689453125" lon="1.57062389887869358062744140625">
        <ele>136.1999969482421875</ele>
        <time>2026-08-13T07:22:32.000Z</time>
        <extensions>
          <ns3:TrackPointExtension>
            <ns3:hr>86</ns3:hr>
            <ns3:cad>43</ns3:cad>
          </ns3:TrackPointExtension>
        </extensions>
      </trkpt>
      <trkpt lat="43.7790297903120517730712890625" lon="1.57063395716249942779541015625">
        <ele>136.1999969482421875</ele>
        <time>2026-08-13T07:22:33.000Z</time>
        <extensions>
          <ns3:TrackPointExtension>
            <ns3:hr>87</ns3:hr>
            <ns3:cad>43</ns3:cad>
          </ns3:TrackPointExtension>
        </extensions>
      </trkpt>
      <trkpt lat="43.77903020940721035003662109375" lon="1.57064326107501983642578125">
        <ele>136.1999969482421875</ele>
        <time>2026-08-13T07:22:34.000Z</time>
        <extensions>
          <ns3:TrackPointExtension>
            <ns3:hr>86</ns3:hr>
            <ns3:cad>0</ns3:cad>
          </ns3:TrackPointExtension>
        </extensions>
      </trkpt>
      <trkpt lat="43.77903289161622524261474609375" lon="1.57065625302493572235107421875">
        <ele>136</ele>
        <time>2026-08-13T07:22:35.000Z</time>
        <extensions>
          <ns3:TrackPointExtension>
            <ns3:hr>86</ns3:hr>
            <ns3:cad>0</ns3:cad>
          </ns3:TrackPointExtension>
        </extensions>
      </trkpt>
      <trkpt lat="43.7790348194539546966552734375" lon="1.57066832296550273895263671875">
        <ele>136</ele>
        <time>2026-08-13T07:22:36.000Z</time>
        <extensions>
          <ns3:TrackPointExtension>
            <ns3:hr>87</ns3:hr>
            <ns3:cad>0</ns3:cad>
          </ns3:TrackPointExtension>
        </extensions>
      </trkpt>
      <trkpt lat="43.7790381722152233123779296875" lon="1.570679135620594024658203125">
        <ele>136</ele>
        <time>2026-08-13T07:22:37.000Z</time>
        <extensions>
          <ns3:TrackPointExtension>
            <ns3:hr>87</ns3:hr>
            <ns3:cad>40</ns3:cad>
          </ns3:TrackPointExtension>
        </extensions>
      </trkpt>
      <trkpt lat="43.77903993241488933563232421875" lon="1.570689864456653594970703125">
        <ele>136</ele>
        <time>2026-08-13T07:22:38.000Z</time>
        <extensions>
          <ns3:TrackPointExtension>
            <ns3:hr>87</ns3:hr>
            <ns3:cad>40</ns3:cad>
          </ns3:TrackPointExtension>
        </extensions>
      </trkpt>
      <trkpt lat="43.7790418602526187896728515625" lon="1.57070151530206203460693359375">
        <ele>136</ele>
        <time>2026-08-13T07:22:39.000Z</time>
        <extensions>
          <ns3:TrackPointExtension>
            <ns3:hr>87</ns3:hr>
            <ns3:cad>0</ns3:cad>
          </ns3:TrackPointExtension>
        </extensions>
      </trkpt>
      <trkpt lat="43.77904278226196765899658203125" lon="1.57071308232843875885009765625">
        <ele>136</ele>
        <time>2026-08-13T07:22:40.000Z</time>
        <extensions>
          <ns3:TrackPointExtension>
            <ns3:hr>87</ns3:hr>
            <ns3:cad>0</ns3:cad>
          </ns3:TrackPointExtension>
        </extensions>
      </trkpt>
      <trkpt lat="43.77904571592807769775390625" lon="1.5707208774983882904052734375">
        <ele>136</ele>
        <time>2026-08-13T07:22:41.000Z</time>
        <extensions>
          <ns3:TrackPointExtension>
            <ns3:hr>86</ns3:hr>
            <ns3:cad>0</ns3:cad>
          </ns3:TrackPointExtension>
        </extensions>
      </trkpt>
      <trkpt lat="43.779046721756458282470703125" lon="1.570730097591876983642578125">
        <ele>136</ele>
        <time>2026-08-13T07:22:42.000Z</time>
        <extensions>
          <ns3:TrackPointExtension>
            <ns3:hr>87</ns3:hr>
            <ns3:cad>0</ns3:cad>
          </ns3:TrackPointExtension>
        </extensions>
      </trkpt>
      <trkpt lat="43.7790492363274097442626953125" lon="1.5707366354763507843017578125">
        <ele>135.8000030517578125</ele>
        <time>2026-08-13T07:22:43.000Z</time>
        <extensions>
          <ns3:TrackPointExtension>
            <ns3:hr>87</ns3:hr>
            <ns3:cad>0</ns3:cad>
          </ns3:TrackPointExtension>
        </extensions>
      </trkpt>
      <trkpt lat="43.7790586240589618682861328125" lon="1.57075054943561553955078125">
        <ele>135.8000030517578125</ele>
        <time>2026-08-13T07:22:44.000Z</time>
        <extensions>
          <ns3:TrackPointExtension>
            <ns3:hr>86</ns3:hr>
            <ns3:cad>0</ns3:cad>
          </ns3:TrackPointExtension>
        </extensions>
      </trkpt>
      <trkpt lat="43.77906524576246738433837890625" lon="1.57076152972877025604248046875">
        <ele>135.8000030517578125</ele>
        <time>2026-08-13T07:22:45.000Z</time>
        <extensions>
          <ns3:TrackPointExtension>
            <ns3:hr>87</ns3:hr>
            <ns3:cad>0</ns3:cad>
          </ns3:TrackPointExtension>
        </extensions>
      </trkpt>
      <trkpt lat="43.77906851470470428466796875" lon="1.57077133655548095703125">
        <ele>136</ele>
        <time>2026-08-13T07:22:46.000Z</time>
        <extensions>
          <ns3:TrackPointExtension>
            <ns3:hr>86</ns3:hr>
            <ns3:cad>0</ns3:cad>
          </ns3:TrackPointExtension>
        </extensions>
      </trkpt>
      <trkpt lat="43.7790716998279094696044921875" lon="1.5707802213728427886962890625">
        <ele>136</ele>
        <time>2026-08-13T07:22:47.000Z</time>
        <extensions>
          <ns3:TrackPointExtension>
            <ns3:hr>86</ns3:hr>
            <ns3:cad>0</ns3:cad>
          </ns3:TrackPointExtension>
        </extensions>
      </trkpt>
      <trkpt lat="43.7790784053504467010498046875" lon="1.570795141160488128662109375">
        <ele>136</ele>
        <time>2026-08-13T07:22:48.000Z</time>
        <extensions>
          <ns3:TrackPointExtension>
            <ns3:hr>84</ns3:hr>
            <ns3:cad>43</ns3:cad>
          </ns3:TrackPointExtension>
        </extensions>
      </trkpt>
      <trkpt lat="43.77908603288233280181884765625" lon="1.57081215642392635345458984375">
        <ele>135.8000030517578125</ele>
        <time>2026-08-13T07:22:49.000Z</time>
        <extensions>
          <ns3:TrackPointExtension>
            <ns3:hr>82</ns3:hr>
            <ns3:cad>43</ns3:cad>
          </ns3:TrackPointExtension>
        </extensions>
      </trkpt>
      <trkpt lat="43.77909072674810886383056640625" lon="1.57082288525998592376708984375">
        <ele>135.8000030517578125</ele>
        <time>2026-08-13T07:22:50.000Z</time>
        <extensions>
          <ns3:TrackPointExtension>
            <ns3:hr>81</ns3:hr>
            <ns3:cad>43</ns3:cad>
          </ns3:TrackPointExtension>
        </extensions>
      </trkpt>
      <trkpt lat="43.77909667789936065673828125" lon="1.57083638012409210205078125">
        <ele>135.8000030517578125</ele>
        <time>2026-08-13T07:22:51.000Z</time>
        <extensions>
          <ns3:TrackPointExtension>
            <ns3:hr>81</ns3:hr>
            <ns3:cad>43</ns3:cad>
          </ns3:TrackPointExtension>
        </extensions>
      </trkpt>
      <trkpt lat="43.77910112030804157257080078125" lon="1.5708486177027225494384765625">
        <ele>135.8000030517578125</ele>
        <time>2026-08-13T07:22:52.000Z</time>
        <extensions>
          <ns3:TrackPointExtension>
            <ns3:hr>80</ns3:hr>
            <ns3:cad>44</ns3:cad>
          </ns3:TrackPointExtension>
        </extensions>
      </trkpt>
      <trkpt lat="43.77910715527832508087158203125" lon="1.5708593465387821197509765625">
        <ele>135.8000030517578125</ele>
        <time>2026-08-13T07:22:53.000Z</time>
        <extensions>
          <ns3:TrackPointExtension>
            <ns3:hr>80</ns3:hr>
            <ns3:cad>47</ns3:cad>
          </ns3:TrackPointExtension>
        </extensions>
      </trkpt>
      <trkpt lat="43.7791119329631328582763671875" lon="1.57087015919387340545654296875">
        <ele>135.8000030517578125</ele>
        <time>2026-08-13T07:22:54.000Z</time>
        <extensions>
          <ns3:TrackPointExtension>
            <ns3:hr>80</ns3:hr>
            <ns3:cad>47</ns3:cad>
          </ns3:TrackPointExtension>
        </extensions>
      </trkpt>
      <trkpt lat="43.77911386080086231231689453125" lon="1.57088373787701129913330078125">
        <ele>135.8000030517578125</ele>
        <time>2026-08-13T07:22:55.000Z</time>
        <extensions>
          <ns3:TrackPointExtension>
            <ns3:hr>80</ns3:hr>
            <ns3:cad>47</ns3:cad>
          </ns3:TrackPointExtension>
        </extensions>
      </trkpt>
      <trkpt lat="43.77911888994276523590087890625" lon="1.570895053446292877197265625">
        <ele>135.8000030517578125</ele>
        <time>2026-08-13T07:22:56.000Z</time>
        <extensions>
          <ns3:TrackPointExtension>
            <ns3:hr>80</ns3:hr>
            <ns3:cad>47</ns3:cad>
          </ns3:TrackPointExtension>
        </extensions>
      </trkpt>
      <trkpt lat="43.77912391908466815948486328125" lon="1.5709052793681621551513671875">
        <ele>135.8000030517578125</ele>
        <time>2026-08-13T07:22:57.000Z</time>
        <extensions>
          <ns3:TrackPointExtension>
            <ns3:hr>80</ns3:hr>
            <ns3:cad>47</ns3:cad>
          </ns3:TrackPointExtension>
        </extensions>
      </trkpt>
      <trkpt lat="43.7791256792843341827392578125" lon="1.5709160082042217254638671875">
        <ele>135.8000030517578125</ele>
        <time>2026-08-13T07:22:58.000Z</time>
        <extensions>
          <ns3:TrackPointExtension>
            <ns3:hr>80</ns3:hr>
            <ns3:cad>47</ns3:cad>
          </ns3:TrackPointExtension>
        </extensions>
      </trkpt>
      <trkpt lat="43.7791266851127147674560546875" lon="1.5709264017641544342041015625">
        <ele>135.8000030517578125</ele>
        <time>2026-08-13T07:22:59.000Z</time>
        <extensions>
          <ns3:TrackPointExtension>
            <ns3:hr>80</ns3:hr>
            <ns3:cad>47</ns3:cad>
          </ns3:TrackPointExtension>
        </extensions>
      </trkpt>
      <trkpt lat="43.7791300378739833831787109375" lon="1.57093738205730915069580078125">
        <ele>135.8000030517578125</ele>
        <time>2026-08-13T07:23:00.000Z</time>
        <extensions>
          <ns3:TrackPointExtension>
            <ns3:hr>80</ns3:hr>
            <ns3:cad>45</ns3:cad>
          </ns3:TrackPointExtension>
        </extensions>
      </trkpt>
      <trkpt lat="43.77913615666329860687255859375" lon="1.57093268819153308868408203125">
        <ele>135.600006103515625</ele>
        <time>2026-08-13T07:23:01.000Z</time>
        <extensions>
          <ns3:TrackPointExtension>
            <ns3:hr>80</ns3:hr>
            <ns3:cad>45</ns3:cad>
          </ns3:TrackPointExtension>
        </extensions>
      </trkpt>
      <trkpt lat="43.77914495766162872314453125" lon="1.57093771733343601226806640625">
        <ele>135.600006103515625</ele>
        <time>2026-08-13T07:23:02.000Z</time>
        <extensions>
          <ns3:TrackPointExtension>
            <ns3:hr>80</ns3:hr>
            <ns3:cad>45</ns3:cad>
          </ns3:TrackPointExtension>
        </extensions>
      </trkpt>
      <trkpt lat="43.77915107645094394683837890625" lon="1.5709468536078929901123046875">
        <ele>135.600006103515625</ele>
        <time>2026-08-13T07:23:03.000Z</time>
        <extensions>
          <ns3:TrackPointExtension>
            <ns3:hr>80</ns3:hr>
            <ns3:cad>41</ns3:cad>
          </ns3:TrackPointExtension>
        </extensions>
      </trkpt>
      <trkpt lat="43.779160045087337493896484375" lon="1.57096034847199916839599609375">
        <ele>135.600006103515625</ele>
        <time>2026-08-13T07:23:04.000Z</time>
        <extensions>
          <ns3:TrackPointExtension>
            <ns3:hr>79</ns3:hr>
            <ns3:cad>41</ns3:cad>
          </ns3:TrackPointExtension>
        </extensions>
      </trkpt>
      <trkpt lat="43.77916465513408184051513671875" lon="1.5709699876606464385986328125">
        <ele>135.399993896484375</ele>
        <time>2026-08-13T07:23:05.000Z</time>
        <extensions>
          <ns3:TrackPointExtension>
            <ns3:hr>79</ns3:hr>
            <ns3:cad>41</ns3:cad>
          </ns3:TrackPointExtension>
        </extensions>
      </trkpt>
      <trkpt lat="43.77916918136179447174072265625" lon="1.57097945921123027801513671875">
        <ele>135.399993896484375</ele>
        <time>2026-08-13T07:23:06.000Z</time>
        <extensions>
          <ns3:TrackPointExtension>
            <ns3:hr>78</ns3:hr>
            <ns3:cad>43</ns3:cad>
          </ns3:TrackPointExtension>
        </extensions>
      </trkpt>
      <trkpt lat="43.77917605452239513397216796875" lon="1.57099463045597076416015625">
        <ele>135.1999969482421875</ele>
        <time>2026-08-13T07:23:07.000Z</time>
        <extensions>
          <ns3:TrackPointExtension>
            <ns3:hr>78</ns3:hr>
            <ns3:cad>43</ns3:cad>
          </ns3:TrackPointExtension>
        </extensions>
      </trkpt>
      <trkpt lat="43.779184520244598388671875" lon="1.57100644893944263458251953125">
        <ele>135.1999969482421875</ele>
        <time>2026-08-13T07:23:08.000Z</time>
        <extensions>
          <ns3:TrackPointExtension>
            <ns3:hr>78</ns3:hr>
            <ns3:cad>43</ns3:cad>
          </ns3:TrackPointExtension>
        </extensions>
      </trkpt>
      <trkpt lat="43.77918644808232784271240234375" lon="1.57101332210004329681396484375">
        <ele>135.1999969482421875</ele>
        <time>2026-08-13T07:23:09.000Z</time>
        <extensions>
          <ns3:TrackPointExtension>
            <ns3:hr>79</ns3:hr>
            <ns3:cad>43</ns3:cad>
          </ns3:TrackPointExtension>
        </extensions>
      </trkpt>
      <trkpt lat="43.7791917286813259124755859375" lon="1.5710246376693248748779296875">
        <ele>135.1999969482421875</ele>
        <time>2026-08-13T07:23:10.000Z</time>
        <extensions>
          <ns3:TrackPointExtension>
            <ns3:hr>79</ns3:hr>
            <ns3:cad>43</ns3:cad>
          </ns3:TrackPointExtension>
        </extensions>
      </trkpt>
      <trkpt lat="43.7791974283754825592041015625" lon="1.57103293575346469879150390625">
        <ele>135.1999969482421875</ele>
        <time>2026-08-13T07:23:11.000Z</time>
        <extensions>
          <ns3:TrackPointExtension>
            <ns3:hr>79</ns3:hr>
            <ns3:cad>43</ns3:cad>
          </ns3:TrackPointExtension>
        </extensions>
      </trkpt>
      <trkpt lat="43.7791992723941802978515625" lon="1.571037881076335906982421875">
        <ele>135.1999969482421875</ele>
        <time>2026-08-13T07:23:12.000Z</time>
        <extensions>
          <ns3:TrackPointExtension>
            <ns3:hr>79</ns3:hr>
            <ns3:cad>41</ns3:cad>
          </ns3:TrackPointExtension>
        </extensions>
      </trkpt>
      <trkpt lat="43.77920321188867092132568359375" lon="1.571044586598873138427734375">
        <ele>135.1999969482421875</ele>
        <time>2026-08-13T07:23:13.000Z</time>
        <extensions>
          <ns3:TrackPointExtension>
            <ns3:hr>78</ns3:hr>
            <ns3:cad>41</ns3:cad>
          </ns3:TrackPointExtension>
        </extensions>
      </trkpt>
      <trkpt lat="43.77920656464993953704833984375" lon="1.57105221413075923919677734375">
        <ele>135</ele>
        <time>2026-08-13T07:23:14.000Z</time>
        <extensions>
          <ns3:TrackPointExtension>
            <ns3:hr>79</ns3:hr>
            <ns3:cad>41</ns3:cad>
          </ns3:TrackPointExtension>
        </extensions>
      </trkpt>
      <trkpt lat="43.779214359819889068603515625" lon="1.57106277532875537872314453125">
        <ele>135</ele>
        <time>2026-08-13T07:23:15.000Z</time>
        <extensions>
          <ns3:TrackPointExtension>
            <ns3:hr>79</ns3:hr>
            <ns3:cad>43</ns3:cad>
          </ns3:TrackPointExtension>
        </extensions>
      </trkpt>
      <trkpt lat="43.7792182154953479766845703125" lon="1.57107115723192691802978515625">
        <ele>135</ele>
        <time>2026-08-13T07:23:16.000Z</time>
        <extensions>
          <ns3:TrackPointExtension>
            <ns3:hr>80</ns3:hr>
            <ns3:cad>44</ns3:cad>
          </ns3:TrackPointExtension>
        </extensions>
      </trkpt>
      <trkpt lat="43.77922617830336093902587890625" lon="1.57108155079185962677001953125">
        <ele>135</ele>
        <time>2026-08-13T07:23:17.000Z</time>
        <extensions>
          <ns3:TrackPointExtension>
            <ns3:hr>80</ns3:hr>
            <ns3:cad>44</ns3:cad>
          </ns3:TrackPointExtension>
        </extensions>
      </trkpt>
      <trkpt lat="43.77923355437815189361572265625" lon="1.57109479419887065887451171875">
        <ele>135</ele>
        <time>2026-08-13T07:23:18.000Z</time>
        <extensions>
          <ns3:TrackPointExtension>
            <ns3:hr>80</ns3:hr>
            <ns3:cad>44</ns3:cad>
          </ns3:TrackPointExtension>
        </extensions>
      </trkpt>
      <trkpt lat="43.77923757769167423248291015625" lon="1.57110149972140789031982421875">
        <ele>135</ele>
        <time>2026-08-13T07:23:19.000Z</time>
        <extensions>
          <ns3:TrackPointExtension>
            <ns3:hr>81</ns3:hr>
            <ns3:cad>44</ns3:cad>
          </ns3:TrackPointExtension>
        </extensions>
      </trkpt>
      <trkpt lat="43.77924663014709949493408203125" lon="1.5711124800145626068115234375">
        <ele>135</ele>
        <time>2026-08-13T07:23:20.000Z</time>
        <extensions>
          <ns3:TrackPointExtension>
            <ns3:hr>81</ns3:hr>
            <ns3:cad>43</ns3:cad>
          </ns3:TrackPointExtension>
        </extensions>
      </trkpt>
      <trkpt lat="43.77925534732639789581298828125" lon="1.57112614251673221588134765625">
        <ele>135</ele>
        <time>2026-08-13T07:23:21.000Z</time>
        <extensions>
          <ns3:TrackPointExtension>
            <ns3:hr>81</ns3:hr>
            <ns3:cad>43</ns3:cad>
          </ns3:TrackPointExtension>
        </extensions>
      </trkpt>
      <trkpt lat="43.779262639582157135009765625" lon="1.57113670371472835540771484375">
        <ele>135</ele>
        <time>2026-08-13T07:23:22.000Z</time>
        <extensions>
          <ns3:TrackPointExtension>
            <ns3:hr>82</ns3:hr>
            <ns3:cad>43</ns3:cad>
          </ns3:TrackPointExtension>
        </extensions>
      </trkpt>
      <trkpt lat="43.779264651238918304443359375" lon="1.57114609144628047943115234375">
        <ele>135</ele>
        <time>2026-08-13T07:23:23.000Z</time>
        <extensions>
          <ns3:TrackPointExtension>
            <ns3:hr>82</ns3:hr>
            <ns3:cad>43</ns3:cad>
          </ns3:TrackPointExtension>
        </extensions>
      </trkpt>
      <trkpt lat="43.7792695127427577972412109375" lon="1.57115899957716464996337890625">
        <ele>135</ele>
        <time>2026-08-13T07:23:24.000Z</time>
        <extensions>
          <ns3:TrackPointExtension>
            <ns3:hr>82</ns3:hr>
            <ns3:cad>42</ns3:cad>
          </ns3:TrackPointExtension>
        </extensions>
      </trkpt>
      <trkpt lat="43.77927714027464389801025390625" lon="1.57117308117449283599853515625">
        <ele>135</ele>
        <time>2026-08-13T07:23:25.000Z</time>
        <extensions>
          <ns3:TrackPointExtension>
            <ns3:hr>82</ns3:hr>
            <ns3:cad>42</ns3:cad>
          </ns3:TrackPointExtension>
        </extensions>
      </trkpt>
      <trkpt lat="43.77928451634943485260009765625" lon="1.57118096016347408294677734375">
        <ele>135</ele>
        <time>2026-08-13T07:23:26.000Z</time>
        <extensions>
          <ns3:TrackPointExtension>
            <ns3:hr>82</ns3:hr>
            <ns3:cad>0</ns3:cad>
          </ns3:TrackPointExtension>
        </extensions>
      </trkpt>
      <trkpt lat="43.77928954549133777618408203125" lon="1.5711889229714870452880859375">
        <ele>135</ele>
        <time>2026-08-13T07:23:27.000Z</time>
        <extensions>
          <ns3:TrackPointExtension>
            <ns3:hr>82</ns3:hr>
            <ns3:cad>0</ns3:cad>
          </ns3:TrackPointExtension>
        </extensions>
      </trkpt>
      <trkpt lat="43.77929474227130413055419921875" lon="1.57120174728333950042724609375">
        <ele>135</ele>
        <time>2026-08-13T07:23:28.000Z</time>
        <extensions>
          <ns3:TrackPointExtension>
            <ns3:hr>82</ns3:hr>
            <ns3:cad>0</ns3:cad>
          </ns3:TrackPointExtension>
        </extensions>
      </trkpt>
      <trkpt lat="43.77930060960352420806884765625" lon="1.57121348194777965545654296875">
        <ele>135</ele>
        <time>2026-08-13T07:23:29.000Z</time>
        <extensions>
          <ns3:TrackPointExtension>
            <ns3:hr>82</ns3:hr>
            <ns3:cad>0</ns3:cad>
          </ns3:TrackPointExtension>
        </extensions>
      </trkpt>
      <trkpt lat="43.77930530346930027008056640625" lon="1.5712241269648075103759765625">
        <ele>135</ele>
        <time>2026-08-13T07:23:30.000Z</time>
        <extensions>
          <ns3:TrackPointExtension>
            <ns3:hr>81</ns3:hr>
            <ns3:cad>0</ns3:cad>
          </ns3:TrackPointExtension>
        </extensions>
      </trkpt>
      <trkpt lat="43.77930949442088603973388671875" lon="1.5712321735918521881103515625">
        <ele>134.8000030517578125</ele>
        <time>2026-08-13T07:23:31.000Z</time>
        <extensions>
          <ns3:TrackPointExtension>
            <ns3:hr>82</ns3:hr>
            <ns3:cad>0</ns3:cad>
          </ns3:TrackPointExtension>
        </extensions>
      </trkpt>
      <trkpt lat="43.779316283762454986572265625" lon="1.57124566845595836639404296875">
        <ele>134.8000030517578125</ele>
        <time>2026-08-13T07:23:32.000Z</time>
        <extensions>
          <ns3:TrackPointExtension>
            <ns3:hr>81</ns3:hr>
            <ns3:cad>0</ns3:cad>
          </ns3:TrackPointExtension>
        </extensions>
      </trkpt>
      <trkpt lat="43.77931737340986728668212890625" lon="1.57125840894877910614013671875">
        <ele>134.8000030517578125</ele>
        <time>2026-08-13T07:23:33.000Z</time>
        <extensions>
          <ns3:TrackPointExtension>
            <ns3:hr>81</ns3:hr>
            <ns3:cad>0</ns3:cad>
          </ns3:TrackPointExtension>
        </extensions>
      </trkpt>
      <trkpt lat="43.77931770868599414825439453125" lon="1.57126528210937976837158203125">
        <ele>134.8000030517578125</ele>
        <time>2026-08-13T07:23:34.000Z</time>
        <extensions>
          <ns3:TrackPointExtension>
            <ns3:hr>80</ns3:hr>
            <ns3:cad>42</ns3:cad>
          </ns3:TrackPointExtension>
        </extensions>
      </trkpt>
      <trkpt lat="43.77932466566562652587890625" lon="1.57127819024026393890380859375">
        <ele>134.8000030517578125</ele>
        <time>2026-08-13T07:23:35.000Z</time>
        <extensions>
          <ns3:TrackPointExtension>
            <ns3:hr>80</ns3:hr>
            <ns3:cad>42</ns3:cad>
          </ns3:TrackPointExtension>
        </extensions>
      </trkpt>
      <trkpt lat="43.77932961098849773406982421875" lon="1.57128942199051380157470703125">
        <ele>134.8000030517578125</ele>
        <time>2026-08-13T07:23:36.000Z</time>
        <extensions>
          <ns3:TrackPointExtension>
            <ns3:hr>79</ns3:hr>
            <ns3:cad>42</ns3:cad>
          </ns3:TrackPointExtension>
        </extensions>
      </trkpt>
      <trkpt lat="43.7793348915874958038330078125" lon="1.5713005699217319488525390625">
        <ele>134.8000030517578125</ele>
        <time>2026-08-13T07:23:37.000Z</time>
        <extensions>
          <ns3:TrackPointExtension>
            <ns3:hr>78</ns3:hr>
            <ns3:cad>41</ns3:cad>
          </ns3:TrackPointExtension>
        </extensions>
      </trkpt>
      <trkpt lat="43.779339082539081573486328125" lon="1.571314148604869842529296875">
        <ele>134.8000030517578125</ele>
        <time>2026-08-13T07:23:38.000Z</time>
        <extensions>
          <ns3:TrackPointExtension>
            <ns3:hr>78</ns3:hr>
            <ns3:cad>41</ns3:cad>
          </ns3:TrackPointExtension>
        </extensions>
      </trkpt>
      <trkpt lat="43.77934285439550876617431640625" lon="1.571326218545436859130859375">
        <ele>134.8000030517578125</ele>
        <time>2026-08-13T07:23:39.000Z</time>
        <extensions>
          <ns3:TrackPointExtension>
            <ns3:hr>78</ns3:hr>
            <ns3:cad>41</ns3:cad>
          </ns3:TrackPointExtension>
        </extensions>
      </trkpt>
      <trkpt lat="43.77935006283223628997802734375" lon="1.57133468426764011383056640625">
        <ele>134.8000030517578125</ele>
        <time>2026-08-13T07:23:40.000Z</time>
        <extensions>
          <ns3:TrackPointExtension>
            <ns3:hr>77</ns3:hr>
            <ns3:cad>41</ns3:cad>
          </ns3:TrackPointExtension>
        </extensions>
      </trkpt>
      <trkpt lat="43.77935324795544147491455078125" lon="1.57134088687598705291748046875">
        <ele>134.8000030517578125</ele>
        <time>2026-08-13T07:23:41.000Z</time>
        <extensions>
          <ns3:TrackPointExtension>
            <ns3:hr>77</ns3:hr>
            <ns3:cad>0</ns3:cad>
          </ns3:TrackPointExtension>
        </extensions>
      </trkpt>
      <trkpt lat="43.77935760654509067535400390625" lon="1.5713555552065372467041015625">
        <ele>134.8000030517578125</ele>
        <time>2026-08-13T07:23:42.000Z</time>
        <extensions>
          <ns3:TrackPointExtension>
            <ns3:hr>77</ns3:hr>
            <ns3:cad>0</ns3:cad>
          </ns3:TrackPointExtension>
        </extensions>
      </trkpt>
      <trkpt lat="43.7793657369911670684814453125" lon="1.57137257046997547149658203125">
        <ele>134.8000030517578125</ele>
        <time>2026-08-13T07:23:43.000Z</time>
        <extensions>
          <ns3:TrackPointExtension>
            <ns3:hr>76</ns3:hr>
            <ns3:cad>0</ns3:cad>
          </ns3:TrackPointExtension>
        </extensions>
      </trkpt>
      <trkpt lat="43.779366575181484222412109375" lon="1.5713773481547832489013671875">
        <ele>134.8000030517578125</ele>
        <time>2026-08-13T07:23:44.000Z</time>
        <extensions>
          <ns3:TrackPointExtension>
            <ns3:hr>76</ns3:hr>
            <ns3:cad>0</ns3:cad>
          </ns3:TrackPointExtension>
        </extensions>
      </trkpt>
      <trkpt lat="43.7793711014091968536376953125" lon="1.57138430513441562652587890625">
        <ele>134.600006103515625</ele>
        <time>2026-08-13T07:23:45.000Z</time>
        <extensions>
          <ns3:TrackPointExtension>
            <ns3:hr>76</ns3:hr>
            <ns3:cad>0</ns3:cad>
          </ns3:TrackPointExtension>
        </extensions>
      </trkpt>
      <trkpt lat="43.7793762981891632080078125" lon="1.571395285427570343017578125">
        <ele>134.600006103515625</ele>
        <time>2026-08-13T07:23:46.000Z</time>
        <extensions>
          <ns3:TrackPointExtension>
            <ns3:hr>75</ns3:hr>
            <ns3:cad>0</ns3:cad>
          </ns3:TrackPointExtension>
        </extensions>
      </trkpt>
      <trkpt lat="43.779381997883319854736328125" lon="1.571401990950107574462890625">
        <ele>134.600006103515625</ele>
        <time>2026-08-13T07:23:47.000Z</time>
        <extensions>
          <ns3:TrackPointExtension>
            <ns3:hr>75</ns3:hr>
            <ns3:cad>0</ns3:cad>
          </ns3:TrackPointExtension>
        </extensions>
      </trkpt>
      <trkpt lat="43.77939046360552310943603515625" lon="1.5714122168719768524169921875">
        <ele>134.8000030517578125</ele>
        <time>2026-08-13T07:23:48.000Z</time>
        <extensions>
          <ns3:TrackPointExtension>
            <ns3:hr>76</ns3:hr>
            <ns3:cad>0</ns3:cad>
          </ns3:TrackPointExtension>
        </extensions>
      </trkpt>
      <trkpt lat="43.7793992646038532257080078125" lon="1.57142118550837039947509765625">
        <ele>134.8000030517578125</ele>
        <time>2026-08-13T07:23:49.000Z</time>
        <extensions>
          <ns3:TrackPointExtension>
            <ns3:hr>76</ns3:hr>
            <ns3:cad>0</ns3:cad>
          </ns3:TrackPointExtension>
        </extensions>
      </trkpt>
      <trkpt lat="43.7794079817831516265869140625" lon="1.571430154144763946533203125">
        <ele>134.8000030517578125</ele>
        <time>2026-08-13T07:23:50.000Z</time>
        <extensions>
          <ns3:TrackPointExtension>
            <ns3:hr>77</ns3:hr>
            <ns3:cad>0</ns3:cad>
          </ns3:TrackPointExtension>
        </extensions>
      </trkpt>
      <trkpt lat="43.77941695041954517364501953125" lon="1.571442224085330963134765625">
        <ele>134.8000030517578125</ele>
        <time>2026-08-13T07:23:51.000Z</time>
        <extensions>
          <ns3:TrackPointExtension>
            <ns3:hr>77</ns3:hr>
            <ns3:cad>0</ns3:cad>
          </ns3:TrackPointExtension>
        </extensions>
      </trkpt>
      <trkpt lat="43.77942449413239955902099609375" lon="1.57145353965461254119873046875">
        <ele>134.8000030517578125</ele>
        <time>2026-08-13T07:23:52.000Z</time>
        <extensions>
          <ns3:TrackPointExtension>
            <ns3:hr>77</ns3:hr>
            <ns3:cad>43</ns3:cad>
          </ns3:TrackPointExtension>
        </extensions>
      </trkpt>
      <trkpt lat="43.7794287689030170440673828125" lon="1.5714641846716403961181640625">
        <ele>134.8000030517578125</ele>
        <time>2026-08-13T07:23:53.000Z</time>
        <extensions>
          <ns3:TrackPointExtension>
            <ns3:hr>78</ns3:hr>
            <ns3:cad>43</ns3:cad>
          </ns3:TrackPointExtension>
        </extensions>
      </trkpt>
      <trkpt lat="43.77943421714007854461669921875" lon="1.5714715607464313507080078125">
        <ele>134.8000030517578125</ele>
        <time>2026-08-13T07:23:54.000Z</time>
        <extensions>
          <ns3:TrackPointExtension>
            <ns3:hr>78</ns3:hr>
            <ns3:cad>45</ns3:cad>
          </ns3:TrackPointExtension>
        </extensions>
      </trkpt>
      <trkpt lat="43.7794378213584423065185546875" lon="1.57147935591638088226318359375">
        <ele>134.8000030517578125</ele>
        <time>2026-08-13T07:23:55.000Z</time>
        <extensions>
          <ns3:TrackPointExtension>
            <ns3:hr>79</ns3:hr>
            <ns3:cad>45</ns3:cad>
          </ns3:TrackPointExtension>
        </extensions>
      </trkpt>
      <trkpt lat="43.779442012310028076171875" lon="1.571490503847599029541015625">
        <ele>134.8000030517578125</ele>
        <time>2026-08-13T07:23:56.000Z</time>
        <extensions>
          <ns3:TrackPointExtension>
            <ns3:hr>79</ns3:hr>
            <ns3:cad>45</ns3:cad>
          </ns3:TrackPointExtension>
        </extensions>
      </trkpt>
      <trkpt lat="43.77944645471870899200439453125" lon="1.57150148414075374603271484375">
        <ele>134.8000030517578125</ele>
        <time>2026-08-13T07:23:57.000Z</time>
        <extensions>
          <ns3:TrackPointExtension>
            <ns3:hr>79</ns3:hr>
            <ns3:cad>45</ns3:cad>
          </ns3:TrackPointExtension>
        </extensions>
      </trkpt>
      <trkpt lat="43.7794515676796436309814453125" lon="1.57150986604392528533935546875">
        <ele>134.8000030517578125</ele>
        <time>2026-08-13T07:23:58.000Z</time>
        <extensions>
          <ns3:TrackPointExtension>
            <ns3:hr>79</ns3:hr>
            <ns3:cad>45</ns3:cad>
          </ns3:TrackPointExtension>
        </extensions>
      </trkpt>
      <trkpt lat="43.77945500425994396209716796875" lon="1.5715282224118709564208984375">
        <ele>134.8000030517578125</ele>
        <time>2026-08-13T07:23:59.000Z</time>
        <extensions>
          <ns3:TrackPointExtension>
            <ns3:hr>79</ns3:hr>
            <ns3:cad>45</ns3:cad>
          </ns3:TrackPointExtension>
        </extensions>
      </trkpt>
      <trkpt lat="43.779458105564117431640625" lon="1.57154054380953311920166015625">
        <ele>134.8000030517578125</ele>
        <time>2026-08-13T07:24:00.000Z</time>
        <extensions>
          <ns3:TrackPointExtension>
            <ns3:hr>79</ns3:hr>
            <ns3:cad>45</ns3:cad>
          </ns3:TrackPointExtension>
        </extensions>
      </trkpt>
      <trkpt lat="43.7794626317918300628662109375" lon="1.5715491771697998046875">
        <ele>134.8000030517578125</ele>
        <time>2026-08-13T07:24:01.000Z</time>
        <extensions>
          <ns3:TrackPointExtension>
            <ns3:hr>79</ns3:hr>
            <ns3:cad>44</ns3:cad>
          </ns3:TrackPointExtension>
        </extensions>
      </trkpt>
      <trkpt lat="43.7794747017323970794677734375" lon="1.5715620853006839752197265625">
        <ele>134.8000030517578125</ele>
        <time>2026-08-13T07:24:02.000Z</time>
        <extensions>
          <ns3:TrackPointExtension>
            <ns3:hr>79</ns3:hr>
            <ns3:cad>44</ns3:cad>
          </ns3:TrackPointExtension>
        </extensions>
      </trkpt>
      <trkpt lat="43.77947998233139514923095703125" lon="1.57157138921320438385009765625">
        <ele>134.8000030517578125</ele>
        <time>2026-08-13T07:24:03.000Z</time>
        <extensions>
          <ns3:TrackPointExtension>
            <ns3:hr>79</ns3:hr>
            <ns3:cad>45</ns3:cad>
          </ns3:TrackPointExtension>
        </extensions>
      </trkpt>
      <trkpt lat="43.77948115579783916473388671875" lon="1.5715827047824859619140625">
        <ele>134.600006103515625</ele>
        <time>2026-08-13T07:24:04.000Z</time>
        <extensions>
          <ns3:TrackPointExtension>
            <ns3:hr>78</ns3:hr>
            <ns3:cad>45</ns3:cad>
          </ns3:TrackPointExtension>
        </extensions>
      </trkpt>
      <trkpt lat="43.77948685549199581146240234375" lon="1.571593768894672393798828125">
        <ele>134.600006103515625</ele>
        <time>2026-08-13T07:24:05.000Z</time>
        <extensions>
          <ns3:TrackPointExtension>
            <ns3:hr>79</ns3:hr>
            <ns3:cad>45</ns3:cad>
          </ns3:TrackPointExtension>
        </extensions>
      </trkpt>
      <trkpt lat="43.7794928066432476043701171875" lon="1.5716076828539371490478515625">
        <ele>134.600006103515625</ele>
        <time>2026-08-13T07:24:06.000Z</time>
        <extensions>
          <ns3:TrackPointExtension>
            <ns3:hr>79</ns3:hr>
            <ns3:cad>46</ns3:cad>
          </ns3:TrackPointExtension>
        </extensions>
      </trkpt>
      <trkpt lat="43.77949708141386508941650390625" lon="1.57161824405193328857421875">
        <ele>134.600006103515625</ele>
        <time>2026-08-13T07:24:07.000Z</time>
        <extensions>
          <ns3:TrackPointExtension>
            <ns3:hr>79</ns3:hr>
            <ns3:cad>46</ns3:cad>
          </ns3:TrackPointExtension>
        </extensions>
      </trkpt>
      <trkpt lat="43.77950093708932399749755859375" lon="1.57162821851670742034912109375">
        <ele>134.600006103515625</ele>
        <time>2026-08-13T07:24:08.000Z</time>
        <extensions>
          <ns3:TrackPointExtension>
            <ns3:hr>79</ns3:hr>
            <ns3:cad>46</ns3:cad>
          </ns3:TrackPointExtension>
        </extensions>
      </trkpt>
      <trkpt lat="43.77950412221252918243408203125" lon="1.57164238393306732177734375">
        <ele>134.399993896484375</ele>
        <time>2026-08-13T07:24:09.000Z</time>
        <extensions>
          <ns3:TrackPointExtension>
            <ns3:hr>79</ns3:hr>
            <ns3:cad>46</ns3:cad>
          </ns3:TrackPointExtension>
        </extensions>
      </trkpt>
      <trkpt lat="43.77950613386929035186767578125" lon="1.571654118597507476806640625">
        <ele>134.399993896484375</ele>
        <time>2026-08-13T07:24:10.000Z</time>
        <extensions>
          <ns3:TrackPointExtension>
            <ns3:hr>79</ns3:hr>
            <ns3:cad>45</ns3:cad>
          </ns3:TrackPointExtension>
        </extensions>
      </trkpt>
      <trkpt lat="43.77950764261186122894287109375" lon="1.57166275195777416229248046875">
        <ele>134.399993896484375</ele>
        <time>2026-08-13T07:24:11.000Z</time>
        <extensions>
          <ns3:TrackPointExtension>
            <ns3:hr>80</ns3:hr>
            <ns3:cad>45</ns3:cad>
          </ns3:TrackPointExtension>
        </extensions>
      </trkpt>
      <trkpt lat="43.779511749744415283203125" lon="1.5716683678328990936279296875">
        <ele>134.1999969482421875</ele>
        <time>2026-08-13T07:24:12.000Z</time>
        <extensions>
          <ns3:TrackPointExtension>
            <ns3:hr>80</ns3:hr>
            <ns3:cad>47</ns3:cad>
          </ns3:TrackPointExtension>
        </extensions>
      </trkpt>
      <trkpt lat="43.77951820380985736846923828125" lon="1.57167951576411724090576171875">
        <ele>134.1999969482421875</ele>
        <time>2026-08-13T07:24:13.000Z</time>
        <extensions>
          <ns3:TrackPointExtension>
            <ns3:hr>81</ns3:hr>
            <ns3:cad>44</ns3:cad>
          </ns3:TrackPointExtension>
        </extensions>
      </trkpt>
      <trkpt lat="43.7795236520469188690185546875" lon="1.57168957404792308807373046875">
        <ele>134.1999969482421875</ele>
        <time>2026-08-13T07:24:14.000Z</time>
        <extensions>
          <ns3:TrackPointExtension>
            <ns3:hr>81</ns3:hr>
            <ns3:cad>44</ns3:cad>
          </ns3:TrackPointExtension>
        </extensions>
      </trkpt>
      <trkpt lat="43.77952323295176029205322265625" lon="1.5716995485126972198486328125">
        <ele>134.1999969482421875</ele>
        <time>2026-08-13T07:24:15.000Z</time>
        <extensions>
          <ns3:TrackPointExtension>
            <ns3:hr>81</ns3:hr>
            <ns3:cad>44</ns3:cad>
          </ns3:TrackPointExtension>
        </extensions>
      </trkpt>
      <trkpt lat="43.7795243225991725921630859375" lon="1.5717116184532642364501953125">
        <ele>134.1999969482421875</ele>
        <time>2026-08-13T07:24:16.000Z</time>
        <extensions>
          <ns3:TrackPointExtension>
            <ns3:hr>81</ns3:hr>
            <ns3:cad>44</ns3:cad>
          </ns3:TrackPointExtension>
        </extensions>
      </trkpt>
      <trkpt lat="43.77952759154140949249267578125" lon="1.5717243589460849761962890625">
        <ele>134.1999969482421875</ele>
        <time>2026-08-13T07:24:17.000Z</time>
        <extensions>
          <ns3:TrackPointExtension>
            <ns3:hr>81</ns3:hr>
            <ns3:cad>43</ns3:cad>
          </ns3:TrackPointExtension>
        </extensions>
      </trkpt>
      <trkpt lat="43.7795313633978366851806640625" lon="1.571737267076969146728515625">
        <ele>134.1999969482421875</ele>
        <time>2026-08-13T07:24:18.000Z</time>
        <extensions>
          <ns3:TrackPointExtension>
            <ns3:hr>81</ns3:hr>
            <ns3:cad>43</ns3:cad>
          </ns3:TrackPointExtension>
        </extensions>
      </trkpt>
      <trkpt lat="43.77953312359750270843505859375" lon="1.571748666465282440185546875">
        <ele>134</ele>
        <time>2026-08-13T07:24:19.000Z</time>
        <extensions>
          <ns3:TrackPointExtension>
            <ns3:hr>82</ns3:hr>
            <ns3:cad>43</ns3:cad>
          </ns3:TrackPointExtension>
        </extensions>
      </trkpt>
      <trkpt lat="43.77953521907329559326171875" lon="1.57176082022488117218017578125">
        <ele>134</ele>
        <time>2026-08-13T07:24:20.000Z</time>
        <extensions>
          <ns3:TrackPointExtension>
            <ns3:hr>82</ns3:hr>
            <ns3:cad>43</ns3:cad>
          </ns3:TrackPointExtension>
        </extensions>
      </trkpt>
      <trkpt lat="43.779540248215198516845703125" lon="1.571776159107685089111328125">
        <ele>134</ele>
        <time>2026-08-13T07:24:21.000Z</time>
        <extensions>
          <ns3:TrackPointExtension>
            <ns3:hr>82</ns3:hr>
            <ns3:cad>43</ns3:cad>
          </ns3:TrackPointExtension>
        </extensions>
      </trkpt>
      <trkpt lat="43.77954519353806972503662109375" lon="1.57178848050534725189208984375">
        <ele>133.8000030517578125</ele>
        <time>2026-08-13T07:24:22.000Z</time>
        <extensions>
          <ns3:TrackPointExtension>
            <ns3:hr>81</ns3:hr>
            <ns3:cad>44</ns3:cad>
          </ns3:TrackPointExtension>
        </extensions>
      </trkpt>
      <trkpt lat="43.77954686991870403289794921875" lon="1.5717994607985019683837890625">
        <ele>133.8000030517578125</ele>
        <time>2026-08-13T07:24:23.000Z</time>
        <extensions>
          <ns3:TrackPointExtension>
            <ns3:hr>82</ns3:hr>
            <ns3:cad>45</ns3:cad>
          </ns3:TrackPointExtension>
        </extensions>
      </trkpt>
      <trkpt lat="43.77955491654574871063232421875" lon="1.571811027824878692626953125">
        <ele>133.8000030517578125</ele>
        <time>2026-08-13T07:24:24.000Z</time>
        <extensions>
          <ns3:TrackPointExtension>
            <ns3:hr>82</ns3:hr>
            <ns3:cad>45</ns3:cad>
          </ns3:TrackPointExtension>
        </extensions>
      </trkpt>
      <trkpt lat="43.7795578502118587493896484375" lon="1.57182049937546253204345703125">
        <ele>133.8000030517578125</ele>
        <time>2026-08-13T07:24:25.000Z</time>
        <extensions>
          <ns3:TrackPointExtension>
            <ns3:hr>81</ns3:hr>
            <ns3:cad>45</ns3:cad>
          </ns3:TrackPointExtension>
        </extensions>
      </trkpt>
      <trkpt lat="43.77956204116344451904296875" lon="1.57182938419282436370849609375">
        <ele>133.8000030517578125</ele>
        <time>2026-08-13T07:24:26.000Z</time>
        <extensions>
          <ns3:TrackPointExtension>
            <ns3:hr>82</ns3:hr>
            <ns3:cad>45</ns3:cad>
          </ns3:TrackPointExtension>
        </extensions>
      </trkpt>
      <trkpt lat="43.77956346608698368072509765625" lon="1.571831144392490386962890625">
        <ele>134</ele>
        <time>2026-08-13T07:24:27.000Z</time>
        <extensions>
          <ns3:TrackPointExtension>
            <ns3:hr>81</ns3:hr>
            <ns3:cad>45</ns3:cad>
          </ns3:TrackPointExtension>
        </extensions>
      </trkpt>
      <trkpt lat="43.77956983633339405059814453125" lon="1.57184480689465999603271484375">
        <ele>134</ele>
        <time>2026-08-13T07:24:28.000Z</time>
        <extensions>
          <ns3:TrackPointExtension>
            <ns3:hr>82</ns3:hr>
            <ns3:cad>45</ns3:cad>
          </ns3:TrackPointExtension>
        </extensions>
      </trkpt>
      <trkpt lat="43.779574446380138397216796875" lon="1.57185788266360759735107421875">
        <ele>133.8000030517578125</ele>
        <time>2026-08-13T07:24:29.000Z</time>
        <extensions>
          <ns3:TrackPointExtension>
            <ns3:hr>82</ns3:hr>
            <ns3:cad>44</ns3:cad>
          </ns3:TrackPointExtension>
        </extensions>
      </trkpt>
      <trkpt lat="43.7795766256749629974365234375" lon="1.5718685276806354522705078125">
        <ele>133.8000030517578125</ele>
        <time>2026-08-13T07:24:30.000Z</time>
        <extensions>
          <ns3:TrackPointExtension>
            <ns3:hr>82</ns3:hr>
            <ns3:cad>0</ns3:cad>
          </ns3:TrackPointExtension>
        </extensions>
      </trkpt>
      <trkpt lat="43.77958190627396106719970703125" lon="1.5718826092779636383056640625">
        <ele>133.8000030517578125</ele>
        <time>2026-08-13T07:24:31.000Z</time>
        <extensions>
          <ns3:TrackPointExtension>
            <ns3:hr>82</ns3:hr>
            <ns3:cad>0</ns3:cad>
          </ns3:TrackPointExtension>
        </extensions>
      </trkpt>
      <trkpt lat="43.77958660013973712921142578125" lon="1.57189719378948211669921875">
        <ele>133.8000030517578125</ele>
        <time>2026-08-13T07:24:32.000Z</time>
        <extensions>
          <ns3:TrackPointExtension>
            <ns3:hr>81</ns3:hr>
            <ns3:cad>43</ns3:cad>
          </ns3:TrackPointExtension>
        </extensions>
      </trkpt>
      <trkpt lat="43.779593221843242645263671875" lon="1.571905575692653656005859375">
        <ele>133.8000030517578125</ele>
        <time>2026-08-13T07:24:33.000Z</time>
        <extensions>
          <ns3:TrackPointExtension>
            <ns3:hr>82</ns3:hr>
            <ns3:cad>43</ns3:cad>
          </ns3:TrackPointExtension>
        </extensions>
      </trkpt>
      <trkpt lat="43.77959766425192356109619140625" lon="1.57191471196711063385009765625">
        <ele>133.8000030517578125</ele>
        <time>2026-08-13T07:24:34.000Z</time>
        <extensions>
          <ns3:TrackPointExtension>
            <ns3:hr>82</ns3:hr>
            <ns3:cad>0</ns3:cad>
          </ns3:TrackPointExtension>
        </extensions>
      </trkpt>
      <trkpt lat="43.77960587851703166961669921875" lon="1.571931727230548858642578125">
        <ele>133.8000030517578125</ele>
        <time>2026-08-13T07:24:35.000Z</time>
        <extensions>
          <ns3:TrackPointExtension>
            <ns3:hr>82</ns3:hr>
            <ns3:cad>0</ns3:cad>
          </ns3:TrackPointExtension>
        </extensions>
      </trkpt>
      <trkpt lat="43.77961099147796630859375" lon="1.57194270752370357513427734375">
        <ele>133.8000030517578125</ele>
        <time>2026-08-13T07:24:36.000Z</time>
        <extensions>
          <ns3:TrackPointExtension>
            <ns3:hr>82</ns3:hr>
            <ns3:cad>0</ns3:cad>
          </ns3:TrackPointExtension>
        </extensions>
      </trkpt>
      <trkpt lat="43.7796151824295520782470703125" lon="1.57195150852203369140625">
        <ele>133.8000030517578125</ele>
        <time>2026-08-13T07:24:37.000Z</time>
        <extensions>
          <ns3:TrackPointExtension>
            <ns3:hr>82</ns3:hr>
            <ns3:cad>0</ns3:cad>
          </ns3:TrackPointExtension>
        </extensions>
      </trkpt>
      <trkpt lat="43.7796195410192012786865234375" lon="1.57196022570133209228515625">
        <ele>133.8000030517578125</ele>
        <time>2026-08-13T07:24:38.000Z</time>
        <extensions>
          <ns3:TrackPointExtension>
            <ns3:hr>81</ns3:hr>
            <ns3:cad>0</ns3:cad>
          </ns3:TrackPointExtension>
        </extensions>
      </trkpt>
      <trkpt lat="43.7796218879520893096923828125" lon="1.5719689428806304931640625">
        <ele>133.8000030517578125</ele>
        <time>2026-08-13T07:24:39.000Z</time>
        <extensions>
          <ns3:TrackPointExtension>
            <ns3:hr>81</ns3:hr>
            <ns3:cad>0</ns3:cad>
          </ns3:TrackPointExtension>
        </extensions>
      </trkpt>
      <trkpt lat="43.77963052131235599517822265625" lon="1.57198310829699039459228515625">
        <ele>133.600006103515625</ele>
        <time>2026-08-13T07:24:40.000Z</time>
        <extensions>
          <ns3:TrackPointExtension>
            <ns3:hr>81</ns3:hr>
            <ns3:cad>0</ns3:cad>
          </ns3:TrackPointExtension>
        </extensions>
      </trkpt>
      <trkpt lat="43.77963622100651264190673828125" lon="1.57199417240917682647705078125">
        <ele>133.8000030517578125</ele>
        <time>2026-08-13T07:24:41.000Z</time>
        <extensions>
          <ns3:TrackPointExtension>
            <ns3:hr>81</ns3:hr>
            <ns3:cad>0</ns3:cad>
          </ns3:TrackPointExtension>
        </extensions>
      </trkpt>
      <trkpt lat="43.77963655628263950347900390625" lon="1.57200909219682216644287109375">
        <ele>133.8000030517578125</ele>
        <time>2026-08-13T07:24:42.000Z</time>
        <extensions>
          <ns3:TrackPointExtension>
            <ns3:hr>81</ns3:hr>
            <ns3:cad>0</ns3:cad>
          </ns3:TrackPointExtension>
        </extensions>
      </trkpt>
      <trkpt lat="43.77964921295642852783203125" lon="1.5720157139003276824951171875">
        <ele>133.8000030517578125</ele>
        <time>2026-08-13T07:24:43.000Z</time>
        <extensions>
          <ns3:TrackPointExtension>
            <ns3:hr>81</ns3:hr>
            <ns3:cad>0</ns3:cad>
          </ns3:TrackPointExtension>
        </extensions>
      </trkpt>
      <trkpt lat="43.7796604447066783905029296875" lon="1.5720304660499095916748046875">
        <ele>133.8000030517578125</ele>
        <time>2026-08-13T07:24:44.000Z</time>
        <extensions>
          <ns3:TrackPointExtension>
            <ns3:hr>82</ns3:hr>
            <ns3:cad>0</ns3:cad>
          </ns3:TrackPointExtension>
        </extensions>
      </trkpt>
      <trkpt lat="43.7796664796769618988037109375" lon="1.5720411948859691619873046875">
        <ele>133.8000030517578125</ele>
        <time>2026-08-13T07:24:45.000Z</time>
        <extensions>
          <ns3:TrackPointExtension>
            <ns3:hr>81</ns3:hr>
            <ns3:cad>0</ns3:cad>
          </ns3:TrackPointExtension>
        </extensions>
      </trkpt>
      <trkpt lat="43.77967092208564281463623046875" lon="1.57205133698880672454833984375">
        <ele>133.8000030517578125</ele>
        <time>2026-08-13T07:24:46.000Z</time>
        <extensions>
          <ns3:TrackPointExtension>
            <ns3:hr>82</ns3:hr>
            <ns3:cad>43</ns3:cad>
          </ns3:TrackPointExtension>
        </extensions>
      </trkpt>
      <trkpt lat="43.7796762026846408843994140625" lon="1.57206617295742034912109375">
        <ele>133.600006103515625</ele>
        <time>2026-08-13T07:24:47.000Z</time>
        <extensions>
          <ns3:TrackPointExtension>
            <ns3:hr>81</ns3:hr>
            <ns3:cad>43</ns3:cad>
          </ns3:TrackPointExtension>
        </extensions>
      </trkpt>
      <trkpt lat="43.7796808965504169464111328125" lon="1.5720770694315433502197265625">
        <ele>133.600006103515625</ele>
        <time>2026-08-13T07:24:48.000Z</time>
        <extensions>
          <ns3:TrackPointExtension>
            <ns3:hr>81</ns3:hr>
            <ns3:cad>43</ns3:cad>
          </ns3:TrackPointExtension>
        </extensions>
      </trkpt>
      <trkpt lat="43.779684416949748992919921875" lon="1.57208687625825405120849609375">
        <ele>133.600006103515625</ele>
        <time>2026-08-13T07:24:49.000Z</time>
        <extensions>
          <ns3:TrackPointExtension>
            <ns3:hr>81</ns3:hr>
            <ns3:cad>43</ns3:cad>
          </ns3:TrackPointExtension>
        </extensions>
      </trkpt>
      <trkpt lat="43.77968902699649333953857421875" lon="1.57209928147494792938232421875">
        <ele>133.600006103515625</ele>
        <time>2026-08-13T07:24:50.000Z</time>
        <extensions>
          <ns3:TrackPointExtension>
            <ns3:hr>82</ns3:hr>
            <ns3:cad>43</ns3:cad>
          </ns3:TrackPointExtension>
        </extensions>
      </trkpt>
      <trkpt lat="43.779695816338062286376953125" lon="1.57210833393037319183349609375">
        <ele>133.600006103515625</ele>
        <time>2026-08-13T07:24:51.000Z</time>
        <extensions>
          <ns3:TrackPointExtension>
            <ns3:hr>82</ns3:hr>
            <ns3:cad>43</ns3:cad>
          </ns3:TrackPointExtension>
        </extensions>
      </trkpt>
      <trkpt lat="43.7797006778419017791748046875" lon="1.5721206553280353546142578125">
        <ele>133.600006103515625</ele>
        <time>2026-08-13T07:24:52.000Z</time>
        <extensions>
          <ns3:TrackPointExtension>
            <ns3:hr>82</ns3:hr>
            <ns3:cad>43</ns3:cad>
          </ns3:TrackPointExtension>
        </extensions>
      </trkpt>
      <trkpt lat="43.77970411442220211029052734375" lon="1.5721285343170166015625">
        <ele>133.600006103515625</ele>
        <time>2026-08-13T07:24:53.000Z</time>
        <extensions>
          <ns3:TrackPointExtension>
            <ns3:hr>82</ns3:hr>
            <ns3:cad>43</ns3:cad>
          </ns3:TrackPointExtension>
        </extensions>
      </trkpt>
      <trkpt lat="43.7797083891928195953369140625" lon="1.57213968224823474884033203125">
        <ele>133.600006103515625</ele>
        <time>2026-08-13T07:24:54.000Z</time>
        <extensions>
          <ns3:TrackPointExtension>
            <ns3:hr>82</ns3:hr>
            <ns3:cad>41</ns3:cad>
          </ns3:TrackPointExtension>
        </extensions>
      </trkpt>
      <trkpt lat="43.77971601672470569610595703125" lon="1.5721468068659305572509765625">
        <ele>133.600006103515625</ele>
        <time>2026-08-13T07:24:55.000Z</time>
        <extensions>
          <ns3:TrackPointExtension>
            <ns3:hr>82</ns3:hr>
            <ns3:cad>41</ns3:cad>
          </ns3:TrackPointExtension>
        </extensions>
      </trkpt>
      <trkpt lat="43.779719285666942596435546875" lon="1.57215200364589691162109375">
        <ele>133.600006103515625</ele>
        <time>2026-08-13T07:24:56.000Z</time>
        <extensions>
          <ns3:TrackPointExtension>
            <ns3:hr>82</ns3:hr>
            <ns3:cad>41</ns3:cad>
          </ns3:TrackPointExtension>
        </extensions>
      </trkpt>
      <trkpt lat="43.77972431480884552001953125" lon="1.5721585415303707122802734375">
        <ele>133.600006103515625</ele>
        <time>2026-08-13T07:24:57.000Z</time>
        <extensions>
          <ns3:TrackPointExtension>
            <ns3:hr>82</ns3:hr>
            <ns3:cad>0</ns3:cad>
          </ns3:TrackPointExtension>
        </extensions>
      </trkpt>
      <trkpt lat="43.779734037816524505615234375" lon="1.57217036001384258270263671875">
        <ele>133.600006103515625</ele>
        <time>2026-08-13T07:24:58.000Z</time>
        <extensions>
          <ns3:TrackPointExtension>
            <ns3:hr>82</ns3:hr>
            <ns3:cad>0</ns3:cad>
          </ns3:TrackPointExtension>
        </extensions>
      </trkpt>
      <trkpt lat="43.77974099479615688323974609375" lon="1.5721793286502361297607421875">
        <ele>133.600006103515625</ele>
        <time>2026-08-13T07:24:59.000Z</time>
        <extensions>
          <ns3:TrackPointExtension>
            <ns3:hr>82</ns3:hr>
            <ns3:cad>41</ns3:cad>
          </ns3:TrackPointExtension>
        </extensions>
      </trkpt>
      <trkpt lat="43.7797445990145206451416015625" lon="1.5721853636205196380615234375">
        <ele>133.600006103515625</ele>
        <time>2026-08-13T07:25:00.000Z</time>
        <extensions>
          <ns3:TrackPointExtension>
            <ns3:hr>82</ns3:hr>
            <ns3:cad>41</ns3:cad>
          </ns3:TrackPointExtension>
        </extensions>
      </trkpt>
      <trkpt lat="43.77975381910800933837890625" lon="1.5722001157701015472412109375">
        <ele>133.399993896484375</ele>
        <time>2026-08-13T07:25:01.000Z</time>
        <extensions>
          <ns3:TrackPointExtension>
            <ns3:hr>83</ns3:hr>
            <ns3:cad>0</ns3:cad>
          </ns3:TrackPointExtension>
        </extensions>
      </trkpt>
      <trkpt lat="43.7797586806118488311767578125" lon="1.5722105093300342559814453125">
        <ele>133.399993896484375</ele>
        <time>2026-08-13T07:25:02.000Z</time>
        <extensions>
          <ns3:TrackPointExtension>
            <ns3:hr>82</ns3:hr>
            <ns3:cad>0</ns3:cad>
          </ns3:TrackPointExtension>
        </extensions>
      </trkpt>
      <trkpt lat="43.77976412884891033172607421875" lon="1.5722202323377132415771484375">
        <ele>133.399993896484375</ele>
        <time>2026-08-13T07:25:03.000Z</time>
        <extensions>
          <ns3:TrackPointExtension>
            <ns3:hr>81</ns3:hr>
            <ns3:cad>0</ns3:cad>
          </ns3:TrackPointExtension>
        </extensions>
      </trkpt>
      <trkpt lat="43.77977184019982814788818359375" lon="1.57223389483988285064697265625">
        <ele>133.399993896484375</ele>
        <time>2026-08-13T07:25:04.000Z</time>
        <extensions>
          <ns3:TrackPointExtension>
            <ns3:hr>80</ns3:hr>
            <ns3:cad>42</ns3:cad>
          </ns3:TrackPointExtension>
        </extensions>
      </trkpt>
      <trkpt lat="43.77977804280817508697509765625" lon="1.572246886789798736572265625">
        <ele>133.399993896484375</ele>
        <time>2026-08-13T07:25:05.000Z</time>
        <extensions>
          <ns3:TrackPointExtension>
            <ns3:hr>79</ns3:hr>
            <ns3:cad>42</ns3:cad>
          </ns3:TrackPointExtension>
        </extensions>
      </trkpt>
      <trkpt lat="43.77978122793138027191162109375" lon="1.57225820235908031463623046875">
        <ele>133.399993896484375</ele>
        <time>2026-08-13T07:25:06.000Z</time>
        <extensions>
          <ns3:TrackPointExtension>
            <ns3:hr>77</ns3:hr>
            <ns3:cad>42</ns3:cad>
          </ns3:TrackPointExtension>
        </extensions>
      </trkpt>
      <trkpt lat="43.77978424541652202606201171875" lon="1.57226323150098323822021484375">
        <ele>133.399993896484375</ele>
        <time>2026-08-13T07:25:07.000Z</time>
        <extensions>
          <ns3:TrackPointExtension>
            <ns3:hr>76</ns3:hr>
            <ns3:cad>41</ns3:cad>
          </ns3:TrackPointExtension>
        </extensions>
      </trkpt>
      <trkpt lat="43.7797932140529155731201171875" lon="1.572282426059246063232421875">
        <ele>133.399993896484375</ele>
        <time>2026-08-13T07:25:08.000Z</time>
        <extensions>
          <ns3:TrackPointExtension>
            <ns3:hr>76</ns3:hr>
            <ns3:cad>41</ns3:cad>
          </ns3:TrackPointExtension>
        </extensions>
      </trkpt>
      <trkpt lat="43.77980050630867481231689453125" lon="1.57229013741016387939453125">
        <ele>133.399993896484375</ele>
        <time>2026-08-13T07:25:09.000Z</time>
        <extensions>
          <ns3:TrackPointExtension>
            <ns3:hr>76</ns3:hr>
            <ns3:cad>42</ns3:cad>
          </ns3:TrackPointExtension>
        </extensions>
      </trkpt>
      <trkpt lat="43.77980670891702175140380859375" lon="1.57229281961917877197265625">
        <ele>133.399993896484375</ele>
        <time>2026-08-13T07:25:10.000Z</time>
        <extensions>
          <ns3:TrackPointExtension>
            <ns3:hr>77</ns3:hr>
            <ns3:cad>42</ns3:cad>
          </ns3:TrackPointExtension>
        </extensions>
      </trkpt>
      <trkpt lat="43.7798123247921466827392578125" lon="1.572301872074604034423828125">
        <ele>133.399993896484375</ele>
        <time>2026-08-13T07:25:11.000Z</time>
        <extensions>
          <ns3:TrackPointExtension>
            <ns3:hr>77</ns3:hr>
            <ns3:cad>42</ns3:cad>
          </ns3:TrackPointExtension>
        </extensions>
      </trkpt>
      <trkpt lat="43.77982129342854022979736328125" lon="1.5723176300525665283203125">
        <ele>133.399993896484375</ele>
        <time>2026-08-13T07:25:12.000Z</time>
        <extensions>
          <ns3:TrackPointExtension>
            <ns3:hr>77</ns3:hr>
            <ns3:cad>42</ns3:cad>
          </ns3:TrackPointExtension>
        </extensions>
      </trkpt>
      <trkpt lat="43.77982296980917453765869140625" lon="1.57232324592769145965576171875">
        <ele>133.399993896484375</ele>
        <time>2026-08-13T07:25:13.000Z</time>
        <extensions>
          <ns3:TrackPointExtension>
            <ns3:hr>77</ns3:hr>
            <ns3:cad>43</ns3:cad>
          </ns3:TrackPointExtension>
        </extensions>
      </trkpt>
      <trkpt lat="43.77982732839882373809814453125" lon="1.5723322145640850067138671875">
        <ele>133.399993896484375</ele>
        <time>2026-08-13T07:25:14.000Z</time>
        <extensions>
          <ns3:TrackPointExtension>
            <ns3:hr>77</ns3:hr>
            <ns3:cad>43</ns3:cad>
          </ns3:TrackPointExtension>
        </extensions>
      </trkpt>
      <trkpt lat="43.7798351235687732696533203125" lon="1.5723452903330326080322265625">
        <ele>133.1999969482421875</ele>
        <time>2026-08-13T07:25:15.000Z</time>
        <extensions>
          <ns3:TrackPointExtension>
            <ns3:hr>78</ns3:hr>
            <ns3:cad>43</ns3:cad>
          </ns3:TrackPointExtension>
        </extensions>
      </trkpt>
      <trkpt lat="43.7798403203487396240234375" lon="1.572352163493633270263671875">
        <ele>133.399993896484375</ele>
        <time>2026-08-13T07:25:16.000Z</time>
        <extensions>
          <ns3:TrackPointExtension>
            <ns3:hr>78</ns3:hr>
            <ns3:cad>43</ns3:cad>
          </ns3:TrackPointExtension>
        </extensions>
      </trkpt>
      <trkpt lat="43.77984308637678623199462890625" lon="1.57236213795840740203857421875">
        <ele>133.1999969482421875</ele>
        <time>2026-08-13T07:25:17.000Z</time>
        <extensions>
          <ns3:TrackPointExtension>
            <ns3:hr>78</ns3:hr>
            <ns3:cad>0</ns3:cad>
          </ns3:TrackPointExtension>
        </extensions>
      </trkpt>
      <trkpt lat="43.7798485346138477325439453125" lon="1.572370268404483795166015625">
        <ele>133.1999969482421875</ele>
        <time>2026-08-13T07:25:18.000Z</time>
        <extensions>
          <ns3:TrackPointExtension>
            <ns3:hr>78</ns3:hr>
            <ns3:cad>0</ns3:cad>
          </ns3:TrackPointExtension>
        </extensions>
      </trkpt>
      <trkpt lat="43.77985800616443157196044921875" lon="1.572379656136035919189453125">
        <ele>133.1999969482421875</ele>
        <time>2026-08-13T07:25:19.000Z</time>
        <extensions>
          <ns3:TrackPointExtension>
            <ns3:hr>77</ns3:hr>
            <ns3:cad>0</ns3:cad>
          </ns3:TrackPointExtension>
        </extensions>
      </trkpt>
      <trkpt lat="43.7798649631440639495849609375" lon="1.5723865292966365814208984375">
        <ele>133.1999969482421875</ele>
        <time>2026-08-13T07:25:20.000Z</time>
        <extensions>
          <ns3:TrackPointExtension>
            <ns3:hr>77</ns3:hr>
            <ns3:cad>0</ns3:cad>
          </ns3:TrackPointExtension>
        </extensions>
      </trkpt>
      <trkpt lat="43.7798673100769519805908203125" lon="1.57239398919045925140380859375">
        <ele>133.1999969482421875</ele>
        <time>2026-08-13T07:25:21.000Z</time>
        <extensions>
          <ns3:TrackPointExtension>
            <ns3:hr>76</ns3:hr>
            <ns3:cad>41</ns3:cad>
          </ns3:TrackPointExtension>
        </extensions>
      </trkpt>
      <trkpt lat="43.779871501028537750244140625" lon="1.5724034607410430908203125">
        <ele>133.1999969482421875</ele>
        <time>2026-08-13T07:25:22.000Z</time>
        <extensions>
          <ns3:TrackPointExtension>
            <ns3:hr>75</ns3:hr>
            <ns3:cad>41</ns3:cad>
          </ns3:TrackPointExtension>
        </extensions>
      </trkpt>
      <trkpt lat="43.77987979911267757415771484375" lon="1.57241745851933956146240234375">
        <ele>133.1999969482421875</ele>
        <time>2026-08-13T07:25:23.000Z</time>
        <extensions>
          <ns3:TrackPointExtension>
            <ns3:hr>75</ns3:hr>
            <ns3:cad>41</ns3:cad>
          </ns3:TrackPointExtension>
        </extensions>
      </trkpt>
      <trkpt lat="43.77988533116877079010009765625" lon="1.57242516987025737762451171875">
        <ele>133.1999969482421875</ele>
        <time>2026-08-13T07:25:24.000Z</time>
        <extensions>
          <ns3:TrackPointExtension>
            <ns3:hr>75</ns3:hr>
            <ns3:cad>43</ns3:cad>
          </ns3:TrackPointExtension>
        </extensions>
      </trkpt>
      <trkpt lat="43.77989061176776885986328125" lon="1.5724287740886211395263671875">
        <ele>133.1999969482421875</ele>
        <time>2026-08-13T07:25:25.000Z</time>
        <extensions>
          <ns3:TrackPointExtension>
            <ns3:hr>75</ns3:hr>
            <ns3:cad>43</ns3:cad>
          </ns3:TrackPointExtension>
        </extensions>
      </trkpt>
      <trkpt lat="43.7799035198986530303955078125" lon="1.572444029152393341064453125">
        <ele>133.1999969482421875</ele>
        <time>2026-08-13T07:25:26.000Z</time>
        <extensions>
          <ns3:TrackPointExtension>
            <ns3:hr>75</ns3:hr>
            <ns3:cad>43</ns3:cad>
          </ns3:TrackPointExtension>
        </extensions>
      </trkpt>
      <trkpt lat="43.779909722506999969482421875" lon="1.5724552609026432037353515625">
        <ele>133.1999969482421875</ele>
        <time>2026-08-13T07:25:27.000Z</time>
        <extensions>
          <ns3:TrackPointExtension>
            <ns3:hr>75</ns3:hr>
            <ns3:cad>43</ns3:cad>
          </ns3:TrackPointExtension>
        </extensions>
      </trkpt>
      <trkpt lat="43.77991315908730030059814453125" lon="1.57246573828160762786865234375">
        <ele>133.1999969482421875</ele>
        <time>2026-08-13T07:25:28.000Z</time>
        <extensions>
          <ns3:TrackPointExtension>
            <ns3:hr>75</ns3:hr>
            <ns3:cad>43</ns3:cad>
          </ns3:TrackPointExtension>
        </extensions>
      </trkpt>
      <trkpt lat="43.7799219600856304168701171875" lon="1.5724814124405384063720703125">
        <ele>133.1999969482421875</ele>
        <time>2026-08-13T07:25:29.000Z</time>
        <extensions>
          <ns3:TrackPointExtension>
            <ns3:hr>75</ns3:hr>
            <ns3:cad>44</ns3:cad>
          </ns3:TrackPointExtension>
        </extensions>
      </trkpt>
      <trkpt lat="43.7799290008842945098876953125" lon="1.57249205745756626129150390625">
        <ele>133.1999969482421875</ele>
        <time>2026-08-13T07:25:30.000Z</time>
        <extensions>
          <ns3:TrackPointExtension>
            <ns3:hr>75</ns3:hr>
            <ns3:cad>44</ns3:cad>
          </ns3:TrackPointExtension>
        </extensions>
      </trkpt>
      <trkpt lat="43.7799326889216899871826171875" lon="1.57250094227492809295654296875">
        <ele>133.1999969482421875</ele>
        <time>2026-08-13T07:25:31.000Z</time>
        <extensions>
          <ns3:TrackPointExtension>
            <ns3:hr>75</ns3:hr>
            <ns3:cad>44</ns3:cad>
          </ns3:TrackPointExtension>
        </extensions>
      </trkpt>
      <trkpt lat="43.77993796952068805694580078125" lon="1.57251033000648021697998046875">
        <ele>133.1999969482421875</ele>
        <time>2026-08-13T07:25:32.000Z</time>
        <extensions>
          <ns3:TrackPointExtension>
            <ns3:hr>75</ns3:hr>
            <ns3:cad>44</ns3:cad>
          </ns3:TrackPointExtension>
        </extensions>
      </trkpt>
      <trkpt lat="43.779945932328701019287109375" lon="1.5725187957286834716796875">
        <ele>133.1999969482421875</ele>
        <time>2026-08-13T07:25:33.000Z</time>
        <extensions>
          <ns3:TrackPointExtension>
            <ns3:hr>75</ns3:hr>
            <ns3:cad>44</ns3:cad>
          </ns3:TrackPointExtension>
        </extensions>
      </trkpt>
      <trkpt lat="43.77995439805090427398681640625" lon="1.5725266747176647186279296875">
        <ele>133.1999969482421875</ele>
        <time>2026-08-13T07:25:34.000Z</time>
        <extensions>
          <ns3:TrackPointExtension>
            <ns3:hr>74</ns3:hr>
            <ns3:cad>44</ns3:cad>
          </ns3:TrackPointExtension>
        </extensions>
      </trkpt>
      <trkpt lat="43.77995858900249004364013671875" lon="1.57253279350697994232177734375">
        <ele>133.1999969482421875</ele>
        <time>2026-08-13T07:25:35.000Z</time>
        <extensions>
          <ns3:TrackPointExtension>
            <ns3:hr>74</ns3:hr>
            <ns3:cad>44</ns3:cad>
          </ns3:TrackPointExtension>
        </extensions>
      </trkpt>
      <trkpt lat="43.77996194176375865936279296875" lon="1.57253916375339031219482421875">
        <ele>133</ele>
        <time>2026-08-13T07:25:36.000Z</time>
        <extensions>
          <ns3:TrackPointExtension>
            <ns3:hr>74</ns3:hr>
            <ns3:cad>44</ns3:cad>
          </ns3:TrackPointExtension>
        </extensions>
      </trkpt>
      <trkpt lat="43.77996931783854961395263671875" lon="1.57255341298878192901611328125">
        <ele>133</ele>
        <time>2026-08-13T07:25:37.000Z</time>
        <extensions>
          <ns3:TrackPointExtension>
            <ns3:hr>74</ns3:hr>
            <ns3:cad>44</ns3:cad>
          </ns3:TrackPointExtension>
        </extensions>
      </trkpt>
      <trkpt lat="43.77997535280883312225341796875" lon="1.57256179489195346832275390625">
        <ele>133</ele>
        <time>2026-08-13T07:25:38.000Z</time>
        <extensions>
          <ns3:TrackPointExtension>
            <ns3:hr>75</ns3:hr>
            <ns3:cad>45</ns3:cad>
          </ns3:TrackPointExtension>
        </extensions>
      </trkpt>
      <trkpt lat="43.77997778356075286865234375" lon="1.57256682403385639190673828125">
        <ele>133</ele>
        <time>2026-08-13T07:25:39.000Z</time>
        <extensions>
          <ns3:TrackPointExtension>
            <ns3:hr>75</ns3:hr>
            <ns3:cad>46</ns3:cad>
          </ns3:TrackPointExtension>
        </extensions>
      </trkpt>
      <trkpt lat="43.779985494911670684814453125" lon="1.57257973216474056243896484375">
        <ele>133</ele>
        <time>2026-08-13T07:25:40.000Z</time>
        <extensions>
          <ns3:TrackPointExtension>
            <ns3:hr>75</ns3:hr>
            <ns3:cad>46</ns3:cad>
          </ns3:TrackPointExtension>
        </extensions>
      </trkpt>
      <trkpt lat="43.7799930386245250701904296875" lon="1.57259196974337100982666015625">
        <ele>133</ele>
        <time>2026-08-13T07:25:41.000Z</time>
        <extensions>
          <ns3:TrackPointExtension>
            <ns3:hr>75</ns3:hr>
            <ns3:cad>45</ns3:cad>
          </ns3:TrackPointExtension>
        </extensions>
      </trkpt>
      <trkpt lat="43.77999722957611083984375" lon="1.5726021118462085723876953125">
        <ele>133</ele>
        <time>2026-08-13T07:25:42.000Z</time>
        <extensions>
          <ns3:TrackPointExtension>
            <ns3:hr>75</ns3:hr>
            <ns3:cad>43</ns3:cad>
          </ns3:TrackPointExtension>
        </extensions>
      </trkpt>
      <trkpt lat="43.779999911785125732421875" lon="1.5726091526448726654052734375">
        <ele>133</ele>
        <time>2026-08-13T07:25:43.000Z</time>
        <extensions>
          <ns3:TrackPointExtension>
            <ns3:hr>74</ns3:hr>
            <ns3:cad>42</ns3:cad>
          </ns3:TrackPointExtension>
        </extensions>
      </trkpt>
      <trkpt lat="43.7800039350986480712890625" lon="1.57262139022350311279296875">
        <ele>133</ele>
        <time>2026-08-13T07:25:44.000Z</time>
        <extensions>
          <ns3:TrackPointExtension>
            <ns3:hr>75</ns3:hr>
            <ns3:cad>42</ns3:cad>
          </ns3:TrackPointExtension>
        </extensions>
      </trkpt>
      <trkpt lat="43.78001022152602672576904296875" lon="1.57263320870697498321533203125">
        <ele>132.8000030517578125</ele>
        <time>2026-08-13T07:25:45.000Z</time>
        <extensions>
          <ns3:TrackPointExtension>
            <ns3:hr>75</ns3:hr>
            <ns3:cad>43</ns3:cad>
          </ns3:TrackPointExtension>
        </extensions>
      </trkpt>
      <trkpt lat="43.7800191901624202728271484375" lon="1.57264418900012969970703125">
        <ele>132.8000030517578125</ele>
        <time>2026-08-13T07:25:46.000Z</time>
        <extensions>
          <ns3:TrackPointExtension>
            <ns3:hr>76</ns3:hr>
            <ns3:cad>44</ns3:cad>
          </ns3:TrackPointExtension>
        </extensions>
      </trkpt>
      <trkpt lat="43.7800242193043231964111328125" lon="1.57265298999845981597900390625">
        <ele>132.8000030517578125</ele>
        <time>2026-08-13T07:25:47.000Z</time>
        <extensions>
          <ns3:TrackPointExtension>
            <ns3:hr>78</ns3:hr>
            <ns3:cad>46</ns3:cad>
          </ns3:TrackPointExtension>
        </extensions>
      </trkpt>
      <trkpt lat="43.78003008663654327392578125" lon="1.57266606576740741729736328125">
        <ele>132.8000030517578125</ele>
        <time>2026-08-13T07:25:48.000Z</time>
        <extensions>
          <ns3:TrackPointExtension>
            <ns3:hr>79</ns3:hr>
            <ns3:cad>47</ns3:cad>
          </ns3:TrackPointExtension>
        </extensions>
      </trkpt>
      <trkpt lat="43.78003737889230251312255859375" lon="1.57267637550830841064453125">
        <ele>132.8000030517578125</ele>
        <time>2026-08-13T07:25:49.000Z</time>
        <extensions>
          <ns3:TrackPointExtension>
            <ns3:hr>81</ns3:hr>
            <ns3:cad>46</ns3:cad>
          </ns3:TrackPointExtension>
        </extensions>
      </trkpt>
      <trkpt lat="43.78004358150064945220947265625" lon="1.57268467359244823455810546875">
        <ele>132.8000030517578125</ele>
        <time>2026-08-13T07:25:50.000Z</time>
        <extensions>
          <ns3:TrackPointExtension>
            <ns3:hr>82</ns3:hr>
            <ns3:cad>46</ns3:cad>
          </ns3:TrackPointExtension>
        </extensions>
      </trkpt>
      <trkpt lat="43.7800473533570766448974609375" lon="1.57269121147692203521728515625">
        <ele>132.8000030517578125</ele>
        <time>2026-08-13T07:25:51.000Z</time>
        <extensions>
          <ns3:TrackPointExtension>
            <ns3:hr>83</ns3:hr>
            <ns3:cad>46</ns3:cad>
          </ns3:TrackPointExtension>
        </extensions>
      </trkpt>
      <trkpt lat="43.7800533883273601531982421875" lon="1.57270495779812335968017578125">
        <ele>132.8000030517578125</ele>
        <time>2026-08-13T07:25:52.000Z</time>
        <extensions>
          <ns3:TrackPointExtension>
            <ns3:hr>83</ns3:hr>
            <ns3:cad>44</ns3:cad>
          </ns3:TrackPointExtension>
        </extensions>
      </trkpt>
      <trkpt lat="43.7800594232976436614990234375" lon="1.5727154351770877838134765625">
        <ele>132.8000030517578125</ele>
        <time>2026-08-13T07:25:53.000Z</time>
        <extensions>
          <ns3:TrackPointExtension>
            <ns3:hr>83</ns3:hr>
            <ns3:cad>43</ns3:cad>
          </ns3:TrackPointExtension>
        </extensions>
      </trkpt>
      <trkpt lat="43.78006420098245143890380859375" lon="1.57272557727992534637451171875">
        <ele>132.8000030517578125</ele>
        <time>2026-08-13T07:25:54.000Z</time>
        <extensions>
          <ns3:TrackPointExtension>
            <ns3:hr>82</ns3:hr>
            <ns3:cad>43</ns3:cad>
          </ns3:TrackPointExtension>
        </extensions>
      </trkpt>
      <trkpt lat="43.78006361424922943115234375" lon="1.5727362222969532012939453125">
        <ele>132.8000030517578125</ele>
        <time>2026-08-13T07:25:55.000Z</time>
        <extensions>
          <ns3:TrackPointExtension>
            <ns3:hr>82</ns3:hr>
            <ns3:cad>43</ns3:cad>
          </ns3:TrackPointExtension>
        </extensions>
      </trkpt>
      <trkpt lat="43.7800651229918003082275390625" lon="1.5727459453046321868896484375">
        <ele>132.8000030517578125</ele>
        <time>2026-08-13T07:25:56.000Z</time>
        <extensions>
          <ns3:TrackPointExtension>
            <ns3:hr>82</ns3:hr>
            <ns3:cad>44</ns3:cad>
          </ns3:TrackPointExtension>
        </extensions>
      </trkpt>
      <trkpt lat="43.7800667993724346160888671875" lon="1.572754494845867156982421875">
        <ele>132.8000030517578125</ele>
        <time>2026-08-13T07:25:57.000Z</time>
        <extensions>
          <ns3:TrackPointExtension>
            <ns3:hr>82</ns3:hr>
            <ns3:cad>44</ns3:cad>
          </ns3:TrackPointExtension>
        </extensions>
      </trkpt>
      <trkpt lat="43.78007224760949611663818359375" lon="1.5727637149393558502197265625">
        <ele>132.8000030517578125</ele>
        <time>2026-08-13T07:25:58.000Z</time>
        <extensions>
          <ns3:TrackPointExtension>
            <ns3:hr>82</ns3:hr>
            <ns3:cad>44</ns3:cad>
          </ns3:TrackPointExtension>
        </extensions>
      </trkpt>
      <trkpt lat="43.78007970750331878662109375" lon="1.57277134247124195098876953125">
        <ele>132.8000030517578125</ele>
        <time>2026-08-13T07:25:59.000Z</time>
        <extensions>
          <ns3:TrackPointExtension>
            <ns3:hr>82</ns3:hr>
            <ns3:cad>44</ns3:cad>
          </ns3:TrackPointExtension>
        </extensions>
      </trkpt>
      <trkpt lat="43.78009068779647350311279296875" lon="1.5727841667830944061279296875">
        <ele>132.8000030517578125</ele>
        <time>2026-08-13T07:26:00.000Z</time>
        <extensions>
          <ns3:TrackPointExtension>
            <ns3:hr>82</ns3:hr>
            <ns3:cad>43</ns3:cad>
          </ns3:TrackPointExtension>
        </extensions>
      </trkpt>
      <trkpt lat="43.7800979800522327423095703125" lon="1.57279598526656627655029296875">
        <ele>132.8000030517578125</ele>
        <time>2026-08-13T07:26:01.000Z</time>
        <extensions>
          <ns3:TrackPointExtension>
            <ns3:hr>82</ns3:hr>
            <ns3:cad>41</ns3:cad>
          </ns3:TrackPointExtension>
        </extensions>
      </trkpt>
      <trkpt lat="43.78009839914739131927490234375" lon="1.57280520536005496978759765625">
        <ele>132.8000030517578125</ele>
        <time>2026-08-13T07:26:02.000Z</time>
        <extensions>
          <ns3:TrackPointExtension>
            <ns3:hr>81</ns3:hr>
            <ns3:cad>41</ns3:cad>
          </ns3:TrackPointExtension>
        </extensions>
      </trkpt>
      <trkpt lat="43.78010510466992855072021484375" lon="1.572815515100955963134765625">
        <ele>132.600006103515625</ele>
        <time>2026-08-13T07:26:03.000Z</time>
        <extensions>
          <ns3:TrackPointExtension>
            <ns3:hr>82</ns3:hr>
            <ns3:cad>43</ns3:cad>
          </ns3:TrackPointExtension>
        </extensions>
      </trkpt>
      <trkpt lat="43.78011516295373439788818359375" lon="1.57282683067023754119873046875">
        <ele>132.600006103515625</ele>
        <time>2026-08-13T07:26:04.000Z</time>
        <extensions>
          <ns3:TrackPointExtension>
            <ns3:hr>82</ns3:hr>
            <ns3:cad>43</ns3:cad>
          </ns3:TrackPointExtension>
        </extensions>
      </trkpt>
      <trkpt lat="43.78012052737176418304443359375" lon="1.57283521257340908050537109375">
        <ele>132.600006103515625</ele>
        <time>2026-08-13T07:26:05.000Z</time>
        <extensions>
          <ns3:TrackPointExtension>
            <ns3:hr>81</ns3:hr>
            <ns3:cad>43</ns3:cad>
          </ns3:TrackPointExtension>
        </extensions>
      </trkpt>
      <trkpt lat="43.7801224552094936370849609375" lon="1.572843007743358612060546875">
        <ele>132.600006103515625</ele>
        <time>2026-08-13T07:26:06.000Z</time>
        <extensions>
          <ns3:TrackPointExtension>
            <ns3:hr>82</ns3:hr>
            <ns3:cad>43</ns3:cad>
          </ns3:TrackPointExtension>
        </extensions>
      </trkpt>
      <trkpt lat="43.78012656234204769134521484375" lon="1.5728473663330078125">
        <ele>132.600006103515625</ele>
        <time>2026-08-13T07:26:07.000Z</time>
        <extensions>
          <ns3:TrackPointExtension>
            <ns3:hr>81</ns3:hr>
            <ns3:cad>43</ns3:cad>
          </ns3:TrackPointExtension>
        </extensions>
      </trkpt>
      <trkpt lat="43.7801305018365383148193359375" lon="1.572859100997447967529296875">
        <ele>132.600006103515625</ele>
        <time>2026-08-13T07:26:08.000Z</time>
        <extensions>
          <ns3:TrackPointExtension>
            <ns3:hr>81</ns3:hr>
            <ns3:cad>43</ns3:cad>
          </ns3:TrackPointExtension>
        </extensions>
      </trkpt>
      <trkpt lat="43.7801365368068218231201171875" lon="1.57287217676639556884765625">
        <ele>132.600006103515625</ele>
        <time>2026-08-13T07:26:09.000Z</time>
        <extensions>
          <ns3:TrackPointExtension>
            <ns3:hr>81</ns3:hr>
            <ns3:cad>44</ns3:cad>
          </ns3:TrackPointExtension>
        </extensions>
      </trkpt>
      <trkpt lat="43.78013947047293186187744140625" lon="1.57288013957440853118896484375">
        <ele>132.600006103515625</ele>
        <time>2026-08-13T07:26:10.000Z</time>
        <extensions>
          <ns3:TrackPointExtension>
            <ns3:hr>82</ns3:hr>
            <ns3:cad>44</ns3:cad>
          </ns3:TrackPointExtension>
        </extensions>
      </trkpt>
      <trkpt lat="43.7801452539861202239990234375" lon="1.57288516871631145477294921875">
        <ele>132.600006103515625</ele>
        <time>2026-08-13T07:26:11.000Z</time>
        <extensions>
          <ns3:TrackPointExtension>
            <ns3:hr>81</ns3:hr>
            <ns3:cad>44</ns3:cad>
          </ns3:TrackPointExtension>
        </extensions>
      </trkpt>
      <trkpt lat="43.7801533006131649017333984375" lon="1.57290075905621051788330078125">
        <ele>132.399993896484375</ele>
        <time>2026-08-13T07:26:12.000Z</time>
        <extensions>
          <ns3:TrackPointExtension>
            <ns3:hr>81</ns3:hr>
            <ns3:cad>45</ns3:cad>
          </ns3:TrackPointExtension>
        </extensions>
      </trkpt>
      <trkpt lat="43.78015707246959209442138671875" lon="1.57290411181747913360595703125">
        <ele>132.399993896484375</ele>
        <time>2026-08-13T07:26:13.000Z</time>
        <extensions>
          <ns3:TrackPointExtension>
            <ns3:hr>82</ns3:hr>
            <ns3:cad>47</ns3:cad>
          </ns3:TrackPointExtension>
        </extensions>
      </trkpt>
      <trkpt lat="43.7801595032215118408203125" lon="1.57291383482515811920166015625">
        <ele>132.399993896484375</ele>
        <time>2026-08-13T07:26:14.000Z</time>
        <extensions>
          <ns3:TrackPointExtension>
            <ns3:hr>82</ns3:hr>
            <ns3:cad>47</ns3:cad>
          </ns3:TrackPointExtension>
        </extensions>
      </trkpt>
      <trkpt lat="43.7801663763821125030517578125" lon="1.5729280002415180206298828125">
        <ele>132.399993896484375</ele>
        <time>2026-08-13T07:26:15.000Z</time>
        <extensions>
          <ns3:TrackPointExtension>
            <ns3:hr>82</ns3:hr>
            <ns3:cad>45</ns3:cad>
          </ns3:TrackPointExtension>
        </extensions>
      </trkpt>
      <trkpt lat="43.78017249517142772674560546875" lon="1.57294233329594135284423828125">
        <ele>132.399993896484375</ele>
        <time>2026-08-13T07:26:16.000Z</time>
        <extensions>
          <ns3:TrackPointExtension>
            <ns3:hr>82</ns3:hr>
            <ns3:cad>45</ns3:cad>
          </ns3:TrackPointExtension>
        </extensions>
      </trkpt>
      <trkpt lat="43.7801787815988063812255859375" lon="1.572954654693603515625">
        <ele>132.1999969482421875</ele>
        <time>2026-08-13T07:26:17.000Z</time>
        <extensions>
          <ns3:TrackPointExtension>
            <ns3:hr>82</ns3:hr>
            <ns3:cad>43</ns3:cad>
          </ns3:TrackPointExtension>
        </extensions>
      </trkpt>
      <trkpt lat="43.78018339164555072784423828125" lon="1.5729645453393459320068359375">
        <ele>132.1999969482421875</ele>
        <time>2026-08-13T07:26:18.000Z</time>
        <extensions>
          <ns3:TrackPointExtension>
            <ns3:hr>82</ns3:hr>
            <ns3:cad>43</ns3:cad>
          </ns3:TrackPointExtension>
        </extensions>
      </trkpt>
      <trkpt lat="43.78018892370164394378662109375" lon="1.5729789622128009796142578125">
        <ele>132.1999969482421875</ele>
        <time>2026-08-13T07:26:19.000Z</time>
        <extensions>
          <ns3:TrackPointExtension>
            <ns3:hr>82</ns3:hr>
            <ns3:cad>43</ns3:cad>
          </ns3:TrackPointExtension>
        </extensions>
      </trkpt>
      <trkpt lat="43.78019529394805431365966796875" lon="1.572987847030162811279296875">
        <ele>132.1999969482421875</ele>
        <time>2026-08-13T07:26:20.000Z</time>
        <extensions>
          <ns3:TrackPointExtension>
            <ns3:hr>81</ns3:hr>
            <ns3:cad>43</ns3:cad>
          </ns3:TrackPointExtension>
        </extensions>
      </trkpt>
      <trkpt lat="43.78020334057509899139404296875" lon="1.5730061195790767669677734375">
        <ele>132.1999969482421875</ele>
        <time>2026-08-13T07:26:21.000Z</time>
        <extensions>
          <ns3:TrackPointExtension>
            <ns3:hr>82</ns3:hr>
            <ns3:cad>43</ns3:cad>
          </ns3:TrackPointExtension>
        </extensions>
      </trkpt>
      <trkpt lat="43.7802066095173358917236328125" lon="1.573013328015804290771484375">
        <ele>132.1999969482421875</ele>
        <time>2026-08-13T07:26:22.000Z</time>
        <extensions>
          <ns3:TrackPointExtension>
            <ns3:hr>82</ns3:hr>
            <ns3:cad>42</ns3:cad>
          </ns3:TrackPointExtension>
        </extensions>
      </trkpt>
      <trkpt lat="43.7802158296108245849609375" lon="1.57302112318575382232666015625">
        <ele>132.1999969482421875</ele>
        <time>2026-08-13T07:26:23.000Z</time>
        <extensions>
          <ns3:TrackPointExtension>
            <ns3:hr>82</ns3:hr>
            <ns3:cad>42</ns3:cad>
          </ns3:TrackPointExtension>
        </extensions>
      </trkpt>
      <trkpt lat="43.78022127784788608551025390625" lon="1.573026068508625030517578125">
        <ele>132.1999969482421875</ele>
        <time>2026-08-13T07:26:24.000Z</time>
        <extensions>
          <ns3:TrackPointExtension>
            <ns3:hr>81</ns3:hr>
            <ns3:cad>42</ns3:cad>
          </ns3:TrackPointExtension>
        </extensions>
      </trkpt>
      <trkpt lat="43.7802287377417087554931640625" lon="1.573034785687923431396484375">
        <ele>132.1999969482421875</ele>
        <time>2026-08-13T07:26:25.000Z</time>
        <extensions>
          <ns3:TrackPointExtension>
            <ns3:hr>82</ns3:hr>
            <ns3:cad>42</ns3:cad>
          </ns3:TrackPointExtension>
        </extensions>
      </trkpt>
      <trkpt lat="43.78023385070264339447021484375" lon="1.57304341904819011688232421875">
        <ele>132.1999969482421875</ele>
        <time>2026-08-13T07:26:26.000Z</time>
        <extensions>
          <ns3:TrackPointExtension>
            <ns3:hr>82</ns3:hr>
            <ns3:cad>43</ns3:cad>
          </ns3:TrackPointExtension>
        </extensions>
      </trkpt>
      <trkpt lat="43.78023929893970489501953125" lon="1.573055572807788848876953125">
        <ele>132.1999969482421875</ele>
        <time>2026-08-13T07:26:27.000Z</time>
        <extensions>
          <ns3:TrackPointExtension>
            <ns3:hr>82</ns3:hr>
            <ns3:cad>43</ns3:cad>
          </ns3:TrackPointExtension>
        </extensions>
      </trkpt>
      <trkpt lat="43.7802458368241786956787109375" lon="1.573064960539340972900390625">
        <ele>132.1999969482421875</ele>
        <time>2026-08-13T07:26:28.000Z</time>
        <extensions>
          <ns3:TrackPointExtension>
            <ns3:hr>82</ns3:hr>
            <ns3:cad>43</ns3:cad>
          </ns3:TrackPointExtension>
        </extensions>
      </trkpt>
      <trkpt lat="43.780252039432525634765625" lon="1.573072336614131927490234375">
        <ele>132.1999969482421875</ele>
        <time>2026-08-13T07:26:29.000Z</time>
        <extensions>
          <ns3:TrackPointExtension>
            <ns3:hr>83</ns3:hr>
            <ns3:cad>48</ns3:cad>
          </ns3:TrackPointExtension>
        </extensions>
      </trkpt>
      <trkpt lat="43.7802533805370330810546875" lon="1.57307694666087627410888671875">
        <ele>132.1999969482421875</ele>
        <time>2026-08-13T07:26:30.000Z</time>
        <extensions>
          <ns3:TrackPointExtension>
            <ns3:hr>83</ns3:hr>
            <ns3:cad>48</ns3:cad>
          </ns3:TrackPointExtension>
        </extensions>
      </trkpt>
      <trkpt lat="43.78026033751666545867919921875" lon="1.5730847418308258056640625">
        <ele>132</ele>
        <time>2026-08-13T07:26:31.000Z</time>
        <extensions>
          <ns3:TrackPointExtension>
            <ns3:hr>83</ns3:hr>
            <ns3:cad>48</ns3:cad>
          </ns3:TrackPointExtension>
        </extensions>
      </trkpt>
      <trkpt lat="43.78026922233402729034423828125" lon="1.5730976499617099761962890625">
        <ele>132</ele>
        <time>2026-08-13T07:26:32.000Z</time>
        <extensions>
          <ns3:TrackPointExtension>
            <ns3:hr>83</ns3:hr>
            <ns3:cad>48</ns3:cad>
          </ns3:TrackPointExtension>
        </extensions>
      </trkpt>
      <trkpt lat="43.780279196798801422119140625" lon="1.57310829497873783111572265625">
        <ele>132</ele>
        <time>2026-08-13T07:26:33.000Z</time>
        <extensions>
          <ns3:TrackPointExtension>
            <ns3:hr>83</ns3:hr>
            <ns3:cad>50</ns3:cad>
          </ns3:TrackPointExtension>
        </extensions>
      </trkpt>
      <trkpt lat="43.78028682433068752288818359375" lon="1.57311550341546535491943359375">
        <ele>132</ele>
        <time>2026-08-13T07:26:34.000Z</time>
        <extensions>
          <ns3:TrackPointExtension>
            <ns3:hr>83</ns3:hr>
            <ns3:cad>52</ns3:cad>
          </ns3:TrackPointExtension>
        </extensions>
      </trkpt>
      <trkpt lat="43.78028933890163898468017578125" lon="1.573125310242176055908203125">
        <ele>132</ele>
        <time>2026-08-13T07:26:35.000Z</time>
        <extensions>
          <ns3:TrackPointExtension>
            <ns3:hr>84</ns3:hr>
            <ns3:cad>52</ns3:cad>
          </ns3:TrackPointExtension>
        </extensions>
      </trkpt>
      <trkpt lat="43.7802944518625736236572265625" lon="1.573132686316967010498046875">
        <ele>132</ele>
        <time>2026-08-13T07:26:36.000Z</time>
        <extensions>
          <ns3:TrackPointExtension>
            <ns3:hr>84</ns3:hr>
            <ns3:cad>52</ns3:cad>
          </ns3:TrackPointExtension>
        </extensions>
      </trkpt>
      <trkpt lat="43.780299983918666839599609375" lon="1.5731449238955974578857421875">
        <ele>132</ele>
        <time>2026-08-13T07:26:37.000Z</time>
        <extensions>
          <ns3:TrackPointExtension>
            <ns3:hr>85</ns3:hr>
            <ns3:cad>50</ns3:cad>
          </ns3:TrackPointExtension>
        </extensions>
      </trkpt>
      <trkpt lat="43.78030492924153804779052734375" lon="1.5731516294181346893310546875">
        <ele>132</ele>
        <time>2026-08-13T07:26:38.000Z</time>
        <extensions>
          <ns3:TrackPointExtension>
            <ns3:hr>85</ns3:hr>
            <ns3:cad>50</ns3:cad>
          </ns3:TrackPointExtension>
        </extensions>
      </trkpt>
      <trkpt lat="43.780310042202472686767578125" lon="1.57316026277840137481689453125">
        <ele>132</ele>
        <time>2026-08-13T07:26:39.000Z</time>
        <extensions>
          <ns3:TrackPointExtension>
            <ns3:hr>85</ns3:hr>
            <ns3:cad>50</ns3:cad>
          </ns3:TrackPointExtension>
        </extensions>
      </trkpt>
      <trkpt lat="43.780316747725009918212890625" lon="1.57317099161446094512939453125">
        <ele>132</ele>
        <time>2026-08-13T07:26:40.000Z</time>
        <extensions>
          <ns3:TrackPointExtension>
            <ns3:hr>85</ns3:hr>
            <ns3:cad>45</ns3:cad>
          </ns3:TrackPointExtension>
        </extensions>
      </trkpt>
      <trkpt lat="43.780321441590785980224609375" lon="1.57317618839442729949951171875">
        <ele>132</ele>
        <time>2026-08-13T07:26:41.000Z</time>
        <extensions>
          <ns3:TrackPointExtension>
            <ns3:hr>86</ns3:hr>
            <ns3:cad>45</ns3:cad>
          </ns3:TrackPointExtension>
        </extensions>
      </trkpt>
      <trkpt lat="43.78032512962818145751953125" lon="1.57318775542080402374267578125">
        <ele>132</ele>
        <time>2026-08-13T07:26:42.000Z</time>
        <extensions>
          <ns3:TrackPointExtension>
            <ns3:hr>85</ns3:hr>
            <ns3:cad>44</ns3:cad>
          </ns3:TrackPointExtension>
        </extensions>
      </trkpt>
      <trkpt lat="43.780330829322338104248046875" lon="1.57319697551429271697998046875">
        <ele>132</ele>
        <time>2026-08-13T07:26:43.000Z</time>
        <extensions>
          <ns3:TrackPointExtension>
            <ns3:hr>85</ns3:hr>
            <ns3:cad>43</ns3:cad>
          </ns3:TrackPointExtension>
        </extensions>
      </trkpt>
      <trkpt lat="43.78033761866390705108642578125" lon="1.57320720143616199493408203125">
        <ele>132.1999969482421875</ele>
        <time>2026-08-13T07:26:44.000Z</time>
        <extensions>
          <ns3:TrackPointExtension>
            <ns3:hr>85</ns3:hr>
            <ns3:cad>43</ns3:cad>
          </ns3:TrackPointExtension>
        </extensions>
      </trkpt>
      <trkpt lat="43.7803434021770954132080078125" lon="1.57321709208190441131591796875">
        <ele>132.1999969482421875</ele>
        <time>2026-08-13T07:26:45.000Z</time>
        <extensions>
          <ns3:TrackPointExtension>
            <ns3:hr>85</ns3:hr>
            <ns3:cad>43</ns3:cad>
          </ns3:TrackPointExtension>
        </extensions>
      </trkpt>
      <trkpt lat="43.7803499400615692138671875" lon="1.573229245841503143310546875">
        <ele>132.1999969482421875</ele>
        <time>2026-08-13T07:26:46.000Z</time>
        <extensions>
          <ns3:TrackPointExtension>
            <ns3:hr>84</ns3:hr>
            <ns3:cad>43</ns3:cad>
          </ns3:TrackPointExtension>
        </extensions>
      </trkpt>
      <trkpt lat="43.78035840578377246856689453125" lon="1.5732418186962604522705078125">
        <ele>132.1999969482421875</ele>
        <time>2026-08-13T07:26:47.000Z</time>
        <extensions>
          <ns3:TrackPointExtension>
            <ns3:hr>83</ns3:hr>
            <ns3:cad>43</ns3:cad>
          </ns3:TrackPointExtension>
        </extensions>
      </trkpt>
      <trkpt lat="43.78036670386791229248046875" lon="1.57325330190360546112060546875">
        <ele>132.1999969482421875</ele>
        <time>2026-08-13T07:26:48.000Z</time>
        <extensions>
          <ns3:TrackPointExtension>
            <ns3:hr>83</ns3:hr>
            <ns3:cad>43</ns3:cad>
          </ns3:TrackPointExtension>
        </extensions>
      </trkpt>
      <trkpt lat="43.780372403562068939208984375" lon="1.573263444006443023681640625">
        <ele>132</ele>
        <time>2026-08-13T07:26:49.000Z</time>
        <extensions>
          <ns3:TrackPointExtension>
            <ns3:hr>83</ns3:hr>
            <ns3:cad>43</ns3:cad>
          </ns3:TrackPointExtension>
        </extensions>
      </trkpt>
      <trkpt lat="43.78037366084754467010498046875" lon="1.5732552297413349151611328125">
        <ele>131.8000030517578125</ele>
        <time>2026-08-13T07:26:50.000Z</time>
        <extensions>
          <ns3:TrackPointExtension>
            <ns3:hr>83</ns3:hr>
            <ns3:cad>43</ns3:cad>
          </ns3:TrackPointExtension>
        </extensions>
      </trkpt>
      <trkpt lat="43.78038170747458934783935546875" lon="1.57326101325452327728271484375">
        <ele>131.8000030517578125</ele>
        <time>2026-08-13T07:26:51.000Z</time>
        <extensions>
          <ns3:TrackPointExtension>
            <ns3:hr>82</ns3:hr>
            <ns3:cad>0</ns3:cad>
          </ns3:TrackPointExtension>
        </extensions>
      </trkpt>
      <trkpt lat="43.78038891591131687164306640625" lon="1.57327107153832912445068359375">
        <ele>131.600006103515625</ele>
        <time>2026-08-13T07:26:52.000Z</time>
        <extensions>
          <ns3:TrackPointExtension>
            <ns3:hr>82</ns3:hr>
            <ns3:cad>0</ns3:cad>
          </ns3:TrackPointExtension>
        </extensions>
      </trkpt>
      <trkpt lat="43.78039780072867870330810546875" lon="1.57328548841178417205810546875">
        <ele>131.399993896484375</ele>
        <time>2026-08-13T07:26:53.000Z</time>
        <extensions>
          <ns3:TrackPointExtension>
            <ns3:hr>83</ns3:hr>
            <ns3:cad>0</ns3:cad>
          </ns3:TrackPointExtension>
        </extensions>
      </trkpt>
      <trkpt lat="43.78040567971765995025634765625" lon="1.5732981450855731964111328125">
        <ele>131.399993896484375</ele>
        <time>2026-08-13T07:26:54.000Z</time>
        <extensions>
          <ns3:TrackPointExtension>
            <ns3:hr>83</ns3:hr>
            <ns3:cad>0</ns3:cad>
          </ns3:TrackPointExtension>
        </extensions>
      </trkpt>
      <trkpt lat="43.7804128043353557586669921875" lon="1.5733068622648715972900390625">
        <ele>131.1999969482421875</ele>
        <time>2026-08-13T07:26:55.000Z</time>
        <extensions>
          <ns3:TrackPointExtension>
            <ns3:hr>83</ns3:hr>
            <ns3:cad>0</ns3:cad>
          </ns3:TrackPointExtension>
        </extensions>
      </trkpt>
      <trkpt lat="43.78042093478143215179443359375" lon="1.57331666909158229827880859375">
        <ele>131.1999969482421875</ele>
        <time>2026-08-13T07:26:56.000Z</time>
        <extensions>
          <ns3:TrackPointExtension>
            <ns3:hr>83</ns3:hr>
            <ns3:cad>0</ns3:cad>
          </ns3:TrackPointExtension>
        </extensions>
      </trkpt>
      <trkpt lat="43.78042747266590595245361328125" lon="1.5733289904892444610595703125">
        <ele>131.1999969482421875</ele>
        <time>2026-08-13T07:26:57.000Z</time>
        <extensions>
          <ns3:TrackPointExtension>
            <ns3:hr>84</ns3:hr>
            <ns3:cad>0</ns3:cad>
          </ns3:TrackPointExtension>
        </extensions>
      </trkpt>
      <trkpt lat="43.7804278917610645294189453125" lon="1.57333963550627231597900390625">
        <ele>131.1999969482421875</ele>
        <time>2026-08-13T07:26:58.000Z</time>
        <extensions>
          <ns3:TrackPointExtension>
            <ns3:hr>84</ns3:hr>
            <ns3:cad>0</ns3:cad>
          </ns3:TrackPointExtension>
        </extensions>
      </trkpt>
      <trkpt lat="43.780434429645538330078125" lon="1.57335002906620502471923828125">
        <ele>131.1999969482421875</ele>
        <time>2026-08-13T07:26:59.000Z</time>
        <extensions>
          <ns3:TrackPointExtension>
            <ns3:hr>84</ns3:hr>
            <ns3:cad>0</ns3:cad>
          </ns3:TrackPointExtension>
        </extensions>
      </trkpt>
      <trkpt lat="43.78043971024453639984130859375" lon="1.57335899770259857177734375">
        <ele>131.1999969482421875</ele>
        <time>2026-08-13T07:27:00.000Z</time>
        <extensions>
          <ns3:TrackPointExtension>
            <ns3:hr>85</ns3:hr>
            <ns3:cad>0</ns3:cad>
          </ns3:TrackPointExtension>
        </extensions>
      </trkpt>
      <trkpt lat="43.78044390119612216949462890625" lon="1.5733702294528484344482421875">
        <ele>131</ele>
        <time>2026-08-13T07:27:01.000Z</time>
        <extensions>
          <ns3:TrackPointExtension>
            <ns3:hr>85</ns3:hr>
            <ns3:cad>45</ns3:cad>
          </ns3:TrackPointExtension>
        </extensions>
      </trkpt>
      <trkpt lat="43.78044976852834224700927734375" lon="1.57338255085051059722900390625">
        <ele>131</ele>
        <time>2026-08-13T07:27:02.000Z</time>
        <extensions>
          <ns3:TrackPointExtension>
            <ns3:hr>85</ns3:hr>
            <ns3:cad>45</ns3:cad>
          </ns3:TrackPointExtension>
        </extensions>
      </trkpt>
      <trkpt lat="43.7804543785750865936279296875" lon="1.57339042983949184417724609375">
        <ele>131</ele>
        <time>2026-08-13T07:27:03.000Z</time>
        <extensions>
          <ns3:TrackPointExtension>
            <ns3:hr>85</ns3:hr>
            <ns3:cad>46</ns3:cad>
          </ns3:TrackPointExtension>
        </extensions>
      </trkpt>
      <trkpt lat="43.78045915625989437103271484375" lon="1.5734007395803928375244140625">
        <ele>131</ele>
        <time>2026-08-13T07:27:04.000Z</time>
        <extensions>
          <ns3:TrackPointExtension>
            <ns3:hr>84</ns3:hr>
            <ns3:cad>46</ns3:cad>
          </ns3:TrackPointExtension>
        </extensions>
      </trkpt>
      <trkpt lat="43.78046385012567043304443359375" lon="1.573410294950008392333984375">
        <ele>131</ele>
        <time>2026-08-13T07:27:05.000Z</time>
        <extensions>
          <ns3:TrackPointExtension>
            <ns3:hr>84</ns3:hr>
            <ns3:cad>43</ns3:cad>
          </ns3:TrackPointExtension>
        </extensions>
      </trkpt>
      <trkpt lat="43.7804706394672393798828125" lon="1.57341926358640193939208984375">
        <ele>130.8000030517578125</ele>
        <time>2026-08-13T07:27:06.000Z</time>
        <extensions>
          <ns3:TrackPointExtension>
            <ns3:hr>84</ns3:hr>
            <ns3:cad>43</ns3:cad>
          </ns3:TrackPointExtension>
        </extensions>
      </trkpt>
      <trkpt lat="43.78047399222850799560546875" lon="1.57342613674700260162353515625">
        <ele>130.8000030517578125</ele>
        <time>2026-08-13T07:27:07.000Z</time>
        <extensions>
          <ns3:TrackPointExtension>
            <ns3:hr>80</ns3:hr>
            <ns3:cad>43</ns3:cad>
          </ns3:TrackPointExtension>
        </extensions>
      </trkpt>
      <trkpt lat="43.7804842181503772735595703125" lon="1.57344373874366283416748046875">
        <ele>130.8000030517578125</ele>
        <time>2026-08-13T07:27:08.000Z</time>
        <extensions>
          <ns3:TrackPointExtension>
            <ns3:hr>79</ns3:hr>
            <ns3:cad>43</ns3:cad>
          </ns3:TrackPointExtension>
        </extensions>
      </trkpt>
      <trkpt lat="43.78048916347324848175048828125" lon="1.57345597632229328155517578125">
        <ele>130.8000030517578125</ele>
        <time>2026-08-13T07:27:09.000Z</time>
        <extensions>
          <ns3:TrackPointExtension>
            <ns3:hr>78</ns3:hr>
            <ns3:cad>43</ns3:cad>
          </ns3:TrackPointExtension>
        </extensions>
      </trkpt>
      <trkpt lat="43.7804946117103099822998046875" lon="1.573466621339321136474609375">
        <ele>130.600006103515625</ele>
        <time>2026-08-13T07:27:10.000Z</time>
        <extensions>
          <ns3:TrackPointExtension>
            <ns3:hr>78</ns3:hr>
            <ns3:cad>43</ns3:cad>
          </ns3:TrackPointExtension>
        </extensions>
      </trkpt>
      <trkpt lat="43.78050173632800579071044921875" lon="1.57348631881177425384521484375">
        <ele>130.600006103515625</ele>
        <time>2026-08-13T07:27:11.000Z</time>
        <extensions>
          <ns3:TrackPointExtension>
            <ns3:hr>78</ns3:hr>
            <ns3:cad>43</ns3:cad>
          </ns3:TrackPointExtension>
        </extensions>
      </trkpt>
      <trkpt lat="43.78050810657441616058349609375" lon="1.57349822111427783966064453125">
        <ele>130.600006103515625</ele>
        <time>2026-08-13T07:27:12.000Z</time>
        <extensions>
          <ns3:TrackPointExtension>
            <ns3:hr>78</ns3:hr>
            <ns3:cad>43</ns3:cad>
          </ns3:TrackPointExtension>
        </extensions>
      </trkpt>
      <trkpt lat="43.780513890087604522705078125" lon="1.5735117159783840179443359375">
        <ele>130.600006103515625</ele>
        <time>2026-08-13T07:27:13.000Z</time>
        <extensions>
          <ns3:TrackPointExtension>
            <ns3:hr>78</ns3:hr>
            <ns3:cad>43</ns3:cad>
          </ns3:TrackPointExtension>
        </extensions>
      </trkpt>
      <trkpt lat="43.78051447682082653045654296875" lon="1.57351984642446041107177734375">
        <ele>130.600006103515625</ele>
        <time>2026-08-13T07:27:14.000Z</time>
        <extensions>
          <ns3:TrackPointExtension>
            <ns3:hr>78</ns3:hr>
            <ns3:cad>43</ns3:cad>
          </ns3:TrackPointExtension>
        </extensions>
      </trkpt>
      <trkpt lat="43.78051749430596828460693359375" lon="1.57352990470826625823974609375">
        <ele>130.600006103515625</ele>
        <time>2026-08-13T07:27:15.000Z</time>
        <extensions>
          <ns3:TrackPointExtension>
            <ns3:hr>78</ns3:hr>
            <ns3:cad>43</ns3:cad>
          </ns3:TrackPointExtension>
        </extensions>
      </trkpt>
      <trkpt lat="43.78052671439945697784423828125" lon="1.57353778369724750518798828125">
        <ele>130.399993896484375</ele>
        <time>2026-08-13T07:27:16.000Z</time>
        <extensions>
          <ns3:TrackPointExtension>
            <ns3:hr>78</ns3:hr>
            <ns3:cad>0</ns3:cad>
          </ns3:TrackPointExtension>
        </extensions>
      </trkpt>
      <trkpt lat="43.78053191117942333221435546875" lon="1.57354834489524364471435546875">
        <ele>130.399993896484375</ele>
        <time>2026-08-13T07:27:17.000Z</time>
        <extensions>
          <ns3:TrackPointExtension>
            <ns3:hr>79</ns3:hr>
            <ns3:cad>0</ns3:cad>
          </ns3:TrackPointExtension>
        </extensions>
      </trkpt>
      <trkpt lat="43.78053568303585052490234375" lon="1.57355220057070255279541015625">
        <ele>130.399993896484375</ele>
        <time>2026-08-13T07:27:18.000Z</time>
        <extensions>
          <ns3:TrackPointExtension>
            <ns3:hr>79</ns3:hr>
            <ns3:cad>0</ns3:cad>
          </ns3:TrackPointExtension>
        </extensions>
      </trkpt>
      <trkpt lat="43.780542053282260894775390625" lon="1.5735648572444915771484375">
        <ele>130.399993896484375</ele>
        <time>2026-08-13T07:27:19.000Z</time>
        <extensions>
          <ns3:TrackPointExtension>
            <ns3:hr>79</ns3:hr>
            <ns3:cad>0</ns3:cad>
          </ns3:TrackPointExtension>
        </extensions>
      </trkpt>
      <trkpt lat="43.78054716624319553375244140625" lon="1.57357717864215373992919921875">
        <ele>130.399993896484375</ele>
        <time>2026-08-13T07:27:20.000Z</time>
        <extensions>
          <ns3:TrackPointExtension>
            <ns3:hr>79</ns3:hr>
            <ns3:cad>0</ns3:cad>
          </ns3:TrackPointExtension>
        </extensions>
      </trkpt>
      <trkpt lat="43.78055169247090816497802734375" lon="1.57358606345951557159423828125">
        <ele>130.1999969482421875</ele>
        <time>2026-08-13T07:27:21.000Z</time>
        <extensions>
          <ns3:TrackPointExtension>
            <ns3:hr>79</ns3:hr>
            <ns3:cad>0</ns3:cad>
          </ns3:TrackPointExtension>
        </extensions>
      </trkpt>
      <trkpt lat="43.7805563025176525115966796875" lon="1.5735955350100994110107421875">
        <ele>130.1999969482421875</ele>
        <time>2026-08-13T07:27:22.000Z</time>
        <extensions>
          <ns3:TrackPointExtension>
            <ns3:hr>79</ns3:hr>
            <ns3:cad>0</ns3:cad>
          </ns3:TrackPointExtension>
        </extensions>
      </trkpt>
      <trkpt lat="43.78056124784052371978759765625" lon="1.57360282726585865020751953125">
        <ele>130.1999969482421875</ele>
        <time>2026-08-13T07:27:23.000Z</time>
        <extensions>
          <ns3:TrackPointExtension>
            <ns3:hr>80</ns3:hr>
            <ns3:cad>0</ns3:cad>
          </ns3:TrackPointExtension>
        </extensions>
      </trkpt>
      <trkpt lat="43.78056912682950496673583984375" lon="1.57361171208322048187255859375">
        <ele>130</ele>
        <time>2026-08-13T07:27:24.000Z</time>
        <extensions>
          <ns3:TrackPointExtension>
            <ns3:hr>80</ns3:hr>
            <ns3:cad>0</ns3:cad>
          </ns3:TrackPointExtension>
        </extensions>
      </trkpt>
      <trkpt lat="43.78057918511331081390380859375" lon="1.5736250393092632293701171875">
        <ele>130</ele>
        <time>2026-08-13T07:27:25.000Z</time>
        <extensions>
          <ns3:TrackPointExtension>
            <ns3:hr>81</ns3:hr>
            <ns3:cad>0</ns3:cad>
          </ns3:TrackPointExtension>
        </extensions>
      </trkpt>
      <trkpt lat="43.780582286417484283447265625" lon="1.57363392412662506103515625">
        <ele>130</ele>
        <time>2026-08-13T07:27:26.000Z</time>
        <extensions>
          <ns3:TrackPointExtension>
            <ns3:hr>82</ns3:hr>
            <ns3:cad>0</ns3:cad>
          </ns3:TrackPointExtension>
        </extensions>
      </trkpt>
      <trkpt lat="43.7805881537497043609619140625" lon="1.57364222221076488494873046875">
        <ele>130</ele>
        <time>2026-08-13T07:27:27.000Z</time>
        <extensions>
          <ns3:TrackPointExtension>
            <ns3:hr>83</ns3:hr>
            <ns3:cad>0</ns3:cad>
          </ns3:TrackPointExtension>
        </extensions>
      </trkpt>
      <trkpt lat="43.78058924339711666107177734375" lon="1.57365496270358562469482421875">
        <ele>130</ele>
        <time>2026-08-13T07:27:28.000Z</time>
        <extensions>
          <ns3:TrackPointExtension>
            <ns3:hr>83</ns3:hr>
            <ns3:cad>0</ns3:cad>
          </ns3:TrackPointExtension>
        </extensions>
      </trkpt>
      <trkpt lat="43.780593685805797576904296875" lon="1.57366736792027950286865234375">
        <ele>130</ele>
        <time>2026-08-13T07:27:29.000Z</time>
        <extensions>
          <ns3:TrackPointExtension>
            <ns3:hr>83</ns3:hr>
            <ns3:cad>44</ns3:cad>
          </ns3:TrackPointExtension>
        </extensions>
      </trkpt>
      <trkpt lat="43.78060081042349338531494140625" lon="1.57368429936468601226806640625">
        <ele>129.8000030517578125</ele>
        <time>2026-08-13T07:27:30.000Z</time>
        <extensions>
          <ns3:TrackPointExtension>
            <ns3:hr>83</ns3:hr>
            <ns3:cad>44</ns3:cad>
          </ns3:TrackPointExtension>
        </extensions>
      </trkpt>
      <trkpt lat="43.78060718066990375518798828125" lon="1.57369703985750675201416015625">
        <ele>129.8000030517578125</ele>
        <time>2026-08-13T07:27:31.000Z</time>
        <extensions>
          <ns3:TrackPointExtension>
            <ns3:hr>84</ns3:hr>
            <ns3:cad>44</ns3:cad>
          </ns3:TrackPointExtension>
        </extensions>
      </trkpt>
      <trkpt lat="43.78061187453567981719970703125" lon="1.57371045090258121490478515625">
        <ele>129.8000030517578125</ele>
        <time>2026-08-13T07:27:32.000Z</time>
        <extensions>
          <ns3:TrackPointExtension>
            <ns3:hr>84</ns3:hr>
            <ns3:cad>44</ns3:cad>
          </ns3:TrackPointExtension>
        </extensions>
      </trkpt>
      <trkpt lat="43.7806186638772487640380859375" lon="1.5737239457666873931884765625">
        <ele>129.8000030517578125</ele>
        <time>2026-08-13T07:27:33.000Z</time>
        <extensions>
          <ns3:TrackPointExtension>
            <ns3:hr>85</ns3:hr>
            <ns3:cad>44</ns3:cad>
          </ns3:TrackPointExtension>
        </extensions>
      </trkpt>
      <trkpt lat="43.78062562085688114166259765625" lon="1.573734842240810394287109375">
        <ele>129.8000030517578125</ele>
        <time>2026-08-13T07:27:34.000Z</time>
        <extensions>
          <ns3:TrackPointExtension>
            <ns3:hr>85</ns3:hr>
            <ns3:cad>44</ns3:cad>
          </ns3:TrackPointExtension>
        </extensions>
      </trkpt>
      <trkpt lat="43.780630566179752349853515625" lon="1.57374314032495021820068359375">
        <ele>129.8000030517578125</ele>
        <time>2026-08-13T07:27:35.000Z</time>
        <extensions>
          <ns3:TrackPointExtension>
            <ns3:hr>85</ns3:hr>
            <ns3:cad>44</ns3:cad>
          </ns3:TrackPointExtension>
        </extensions>
      </trkpt>
      <trkpt lat="43.7806360982358455657958984375" lon="1.57375336624681949615478515625">
        <ele>129.600006103515625</ele>
        <time>2026-08-13T07:27:36.000Z</time>
        <extensions>
          <ns3:TrackPointExtension>
            <ns3:hr>85</ns3:hr>
            <ns3:cad>44</ns3:cad>
          </ns3:TrackPointExtension>
        </extensions>
      </trkpt>
      <trkpt lat="43.78064389340579509735107421875" lon="1.57376543618738651275634765625">
        <ele>129.600006103515625</ele>
        <time>2026-08-13T07:27:37.000Z</time>
        <extensions>
          <ns3:TrackPointExtension>
            <ns3:hr>85</ns3:hr>
            <ns3:cad>44</ns3:cad>
          </ns3:TrackPointExtension>
        </extensions>
      </trkpt>
      <trkpt lat="43.78065101802349090576171875" lon="1.5737759135663509368896484375">
        <ele>129.600006103515625</ele>
        <time>2026-08-13T07:27:38.000Z</time>
        <extensions>
          <ns3:TrackPointExtension>
            <ns3:hr>85</ns3:hr>
            <ns3:cad>44</ns3:cad>
          </ns3:TrackPointExtension>
        </extensions>
      </trkpt>
      <trkpt lat="43.780656717717647552490234375" lon="1.57378253526985645294189453125">
        <ele>129.399993896484375</ele>
        <time>2026-08-13T07:27:39.000Z</time>
        <extensions>
          <ns3:TrackPointExtension>
            <ns3:hr>85</ns3:hr>
            <ns3:cad>44</ns3:cad>
          </ns3:TrackPointExtension>
        </extensions>
      </trkpt>
      <trkpt lat="43.78066241741180419921875" lon="1.57378605566918849945068359375">
        <ele>129.399993896484375</ele>
        <time>2026-08-13T07:27:40.000Z</time>
        <extensions>
          <ns3:TrackPointExtension>
            <ns3:hr>85</ns3:hr>
            <ns3:cad>47</ns3:cad>
          </ns3:TrackPointExtension>
        </extensions>
      </trkpt>
      <trkpt lat="43.7806723080575466156005859375" lon="1.5737997181713581085205078125">
        <ele>129.399993896484375</ele>
        <time>2026-08-13T07:27:41.000Z</time>
        <extensions>
          <ns3:TrackPointExtension>
            <ns3:hr>85</ns3:hr>
            <ns3:cad>47</ns3:cad>
          </ns3:TrackPointExtension>
        </extensions>
      </trkpt>
      <trkpt lat="43.78067725338041782379150390625" lon="1.5738141350448131561279296875">
        <ele>129.399993896484375</ele>
        <time>2026-08-13T07:27:42.000Z</time>
        <extensions>
          <ns3:TrackPointExtension>
            <ns3:hr>85</ns3:hr>
            <ns3:cad>47</ns3:cad>
          </ns3:TrackPointExtension>
        </extensions>
      </trkpt>
      <trkpt lat="43.78068043850362300872802734375" lon="1.573828049004077911376953125">
        <ele>129.399993896484375</ele>
        <time>2026-08-13T07:27:43.000Z</time>
        <extensions>
          <ns3:TrackPointExtension>
            <ns3:hr>85</ns3:hr>
            <ns3:cad>47</ns3:cad>
          </ns3:TrackPointExtension>
        </extensions>
      </trkpt>
      <trkpt lat="43.78068454563617706298828125" lon="1.573836766183376312255859375">
        <ele>129.399993896484375</ele>
        <time>2026-08-13T07:27:44.000Z</time>
        <extensions>
          <ns3:TrackPointExtension>
            <ns3:hr>84</ns3:hr>
            <ns3:cad>45</ns3:cad>
          </ns3:TrackPointExtension>
        </extensions>
      </trkpt>
      <trkpt lat="43.78069125115871429443359375" lon="1.57384975813329219818115234375">
        <ele>129.399993896484375</ele>
        <time>2026-08-13T07:27:45.000Z</time>
        <extensions>
          <ns3:TrackPointExtension>
            <ns3:hr>84</ns3:hr>
            <ns3:cad>45</ns3:cad>
          </ns3:TrackPointExtension>
        </extensions>
      </trkpt>
      <trkpt lat="43.78069552592933177947998046875" lon="1.57385512255132198333740234375">
        <ele>129.1999969482421875</ele>
        <time>2026-08-13T07:27:46.000Z</time>
        <extensions>
          <ns3:TrackPointExtension>
            <ns3:hr>84</ns3:hr>
            <ns3:cad>0</ns3:cad>
          </ns3:TrackPointExtension>
        </extensions>
      </trkpt>
      <trkpt lat="43.78070055507123470306396484375" lon="1.57386400736868381500244140625">
        <ele>129.1999969482421875</ele>
        <time>2026-08-13T07:27:47.000Z</time>
        <extensions>
          <ns3:TrackPointExtension>
            <ns3:hr>84</ns3:hr>
            <ns3:cad>0</ns3:cad>
          </ns3:TrackPointExtension>
        </extensions>
      </trkpt>
      <trkpt lat="43.78070893697440624237060546875" lon="1.5738751552999019622802734375">
        <ele>129.1999969482421875</ele>
        <time>2026-08-13T07:27:48.000Z</time>
        <extensions>
          <ns3:TrackPointExtension>
            <ns3:hr>84</ns3:hr>
            <ns3:cad>0</ns3:cad>
          </ns3:TrackPointExtension>
        </extensions>
      </trkpt>
      <trkpt lat="43.78071530722081661224365234375" lon="1.57388613559305667877197265625">
        <ele>129.1999969482421875</ele>
        <time>2026-08-13T07:27:49.000Z</time>
        <extensions>
          <ns3:TrackPointExtension>
            <ns3:hr>84</ns3:hr>
            <ns3:cad>0</ns3:cad>
          </ns3:TrackPointExtension>
        </extensions>
      </trkpt>
      <trkpt lat="43.78072368912398815155029296875" lon="1.57389535568654537200927734375">
        <ele>129</ele>
        <time>2026-08-13T07:27:50.000Z</time>
        <extensions>
          <ns3:TrackPointExtension>
            <ns3:hr>83</ns3:hr>
            <ns3:cad>0</ns3:cad>
          </ns3:TrackPointExtension>
        </extensions>
      </trkpt>
      <trkpt lat="43.78072905354201793670654296875" lon="1.57390172593295574188232421875">
        <ele>129</ele>
        <time>2026-08-13T07:27:51.000Z</time>
        <extensions>
          <ns3:TrackPointExtension>
            <ns3:hr>83</ns3:hr>
            <ns3:cad>0</ns3:cad>
          </ns3:TrackPointExtension>
        </extensions>
      </trkpt>
      <trkpt lat="43.78073659725487232208251953125" lon="1.57391228713095188140869140625">
        <ele>129</ele>
        <time>2026-08-13T07:27:52.000Z</time>
        <extensions>
          <ns3:TrackPointExtension>
            <ns3:hr>83</ns3:hr>
            <ns3:cad>45</ns3:cad>
          </ns3:TrackPointExtension>
        </extensions>
      </trkpt>
      <trkpt lat="43.78074363805353641510009765625" lon="1.57392150722444057464599609375">
        <ele>129</ele>
        <time>2026-08-13T07:27:53.000Z</time>
        <extensions>
          <ns3:TrackPointExtension>
            <ns3:hr>83</ns3:hr>
            <ns3:cad>45</ns3:cad>
          </ns3:TrackPointExtension>
        </extensions>
      </trkpt>
      <trkpt lat="43.78075160086154937744140625" lon="1.5739269554615020751953125">
        <ele>129</ele>
        <time>2026-08-13T07:27:54.000Z</time>
        <extensions>
          <ns3:TrackPointExtension>
            <ns3:hr>83</ns3:hr>
            <ns3:cad>44</ns3:cad>
          </ns3:TrackPointExtension>
        </extensions>
      </trkpt>
      <trkpt lat="43.78076258115470409393310546875" lon="1.57393508590757846832275390625">
        <ele>129</ele>
        <time>2026-08-13T07:27:55.000Z</time>
        <extensions>
          <ns3:TrackPointExtension>
            <ns3:hr>83</ns3:hr>
            <ns3:cad>44</ns3:cad>
          </ns3:TrackPointExtension>
        </extensions>
      </trkpt>
      <trkpt lat="43.78077364526689052581787109375" lon="1.57394447363913059234619140625">
        <ele>129</ele>
        <time>2026-08-13T07:27:56.000Z</time>
        <extensions>
          <ns3:TrackPointExtension>
            <ns3:hr>82</ns3:hr>
            <ns3:cad>44</ns3:cad>
          </ns3:TrackPointExtension>
        </extensions>
      </trkpt>
      <trkpt lat="43.78077884204685688018798828125" lon="1.57395872287452220916748046875">
        <ele>129</ele>
        <time>2026-08-13T07:27:57.000Z</time>
        <extensions>
          <ns3:TrackPointExtension>
            <ns3:hr>83</ns3:hr>
            <ns3:cad>44</ns3:cad>
          </ns3:TrackPointExtension>
        </extensions>
      </trkpt>
      <trkpt lat="43.78078219480812549591064453125" lon="1.573970876634120941162109375">
        <ele>128.8000030517578125</ele>
        <time>2026-08-13T07:27:58.000Z</time>
        <extensions>
          <ns3:TrackPointExtension>
            <ns3:hr>83</ns3:hr>
            <ns3:cad>44</ns3:cad>
          </ns3:TrackPointExtension>
        </extensions>
      </trkpt>
      <trkpt lat="43.78078856505453586578369140625" lon="1.57398235984146595001220703125">
        <ele>128.8000030517578125</ele>
        <time>2026-08-13T07:27:59.000Z</time>
        <extensions>
          <ns3:TrackPointExtension>
            <ns3:hr>83</ns3:hr>
            <ns3:cad>44</ns3:cad>
          </ns3:TrackPointExtension>
        </extensions>
      </trkpt>
      <trkpt lat="43.78079359419643878936767578125" lon="1.573989652097225189208984375">
        <ele>128.8000030517578125</ele>
        <time>2026-08-13T07:28:00.000Z</time>
        <extensions>
          <ns3:TrackPointExtension>
            <ns3:hr>83</ns3:hr>
            <ns3:cad>43</ns3:cad>
          </ns3:TrackPointExtension>
        </extensions>
      </trkpt>
      <trkpt lat="43.7808017246425151824951171875" lon="1.57400080002844333648681640625">
        <ele>128.8000030517578125</ele>
        <time>2026-08-13T07:28:01.000Z</time>
        <extensions>
          <ns3:TrackPointExtension>
            <ns3:hr>83</ns3:hr>
            <ns3:cad>44</ns3:cad>
          </ns3:TrackPointExtension>
        </extensions>
      </trkpt>
      <trkpt lat="43.7808085978031158447265625" lon="1.57400867901742458343505859375">
        <ele>128.600006103515625</ele>
        <time>2026-08-13T07:28:02.000Z</time>
        <extensions>
          <ns3:TrackPointExtension>
            <ns3:hr>82</ns3:hr>
            <ns3:cad>44</ns3:cad>
          </ns3:TrackPointExtension>
        </extensions>
      </trkpt>
      <trkpt lat="43.780817650258541107177734375" lon="1.5740156359970569610595703125">
        <ele>128.600006103515625</ele>
        <time>2026-08-13T07:28:03.000Z</time>
        <extensions>
          <ns3:TrackPointExtension>
            <ns3:hr>81</ns3:hr>
            <ns3:cad>44</ns3:cad>
          </ns3:TrackPointExtension>
        </extensions>
      </trkpt>
      <trkpt lat="43.7808278761804103851318359375" lon="1.57402552664279937744140625">
        <ele>128.600006103515625</ele>
        <time>2026-08-13T07:28:04.000Z</time>
        <extensions>
          <ns3:TrackPointExtension>
            <ns3:hr>79</ns3:hr>
            <ns3:cad>46</ns3:cad>
          </ns3:TrackPointExtension>
        </extensions>
      </trkpt>
      <trkpt lat="43.78083785064518451690673828125" lon="1.5740380994975566864013671875">
        <ele>128.600006103515625</ele>
        <time>2026-08-13T07:28:05.000Z</time>
        <extensions>
          <ns3:TrackPointExtension>
            <ns3:hr>78</ns3:hr>
            <ns3:cad>47</ns3:cad>
          </ns3:TrackPointExtension>
        </extensions>
      </trkpt>
      <trkpt lat="43.78084321506321430206298828125" lon="1.574045978486537933349609375">
        <ele>128.399993896484375</ele>
        <time>2026-08-13T07:28:06.000Z</time>
        <extensions>
          <ns3:TrackPointExtension>
            <ns3:hr>77</ns3:hr>
            <ns3:cad>47</ns3:cad>
          </ns3:TrackPointExtension>
        </extensions>
      </trkpt>
      <trkpt lat="43.78084740601480007171630859375" lon="1.5740551985800266265869140625">
        <ele>128.399993896484375</ele>
        <time>2026-08-13T07:28:07.000Z</time>
        <extensions>
          <ns3:TrackPointExtension>
            <ns3:hr>76</ns3:hr>
            <ns3:cad>47</ns3:cad>
          </ns3:TrackPointExtension>
        </extensions>
      </trkpt>
      <trkpt lat="43.78085226751863956451416015625" lon="1.57406634651124477386474609375">
        <ele>128.399993896484375</ele>
        <time>2026-08-13T07:28:08.000Z</time>
        <extensions>
          <ns3:TrackPointExtension>
            <ns3:hr>76</ns3:hr>
            <ns3:cad>46</ns3:cad>
          </ns3:TrackPointExtension>
        </extensions>
      </trkpt>
      <trkpt lat="43.7808627448976039886474609375" lon="1.57407891936600208282470703125">
        <ele>128.399993896484375</ele>
        <time>2026-08-13T07:28:09.000Z</time>
        <extensions>
          <ns3:TrackPointExtension>
            <ns3:hr>76</ns3:hr>
            <ns3:cad>46</ns3:cad>
          </ns3:TrackPointExtension>
        </extensions>
      </trkpt>
      <trkpt lat="43.7808684445917606353759765625" lon="1.57408587634563446044921875">
        <ele>128.399993896484375</ele>
        <time>2026-08-13T07:28:10.000Z</time>
        <extensions>
          <ns3:TrackPointExtension>
            <ns3:hr>77</ns3:hr>
            <ns3:cad>46</ns3:cad>
          </ns3:TrackPointExtension>
        </extensions>
      </trkpt>
      <trkpt lat="43.78087221644818782806396484375" lon="1.5740914084017276763916015625">
        <ele>128.1999969482421875</ele>
        <time>2026-08-13T07:28:11.000Z</time>
        <extensions>
          <ns3:TrackPointExtension>
            <ns3:hr>76</ns3:hr>
            <ns3:cad>46</ns3:cad>
          </ns3:TrackPointExtension>
        </extensions>
      </trkpt>
      <trkpt lat="43.7808754853904247283935546875" lon="1.574096940457820892333984375">
        <ele>128.1999969482421875</ele>
        <time>2026-08-13T07:28:12.000Z</time>
        <extensions>
          <ns3:TrackPointExtension>
            <ns3:hr>76</ns3:hr>
            <ns3:cad>46</ns3:cad>
          </ns3:TrackPointExtension>
        </extensions>
      </trkpt>
      <trkpt lat="43.78088529221713542938232421875" lon="1.57411244697868824005126953125">
        <ele>128.1999969482421875</ele>
        <time>2026-08-13T07:28:13.000Z</time>
        <extensions>
          <ns3:TrackPointExtension>
            <ns3:hr>75</ns3:hr>
            <ns3:cad>46</ns3:cad>
          </ns3:TrackPointExtension>
        </extensions>
      </trkpt>
      <trkpt lat="43.78089065663516521453857421875" lon="1.574126444756984710693359375">
        <ele>128.1999969482421875</ele>
        <time>2026-08-13T07:28:14.000Z</time>
        <extensions>
          <ns3:TrackPointExtension>
            <ns3:hr>74</ns3:hr>
            <ns3:cad>46</ns3:cad>
          </ns3:TrackPointExtension>
        </extensions>
      </trkpt>
      <trkpt lat="43.7808925844728946685791015625" lon="1.57413440756499767303466796875">
        <ele>128.1999969482421875</ele>
        <time>2026-08-13T07:28:15.000Z</time>
        <extensions>
          <ns3:TrackPointExtension>
            <ns3:hr>73</ns3:hr>
            <ns3:cad>46</ns3:cad>
          </ns3:TrackPointExtension>
        </extensions>
      </trkpt>
      <trkpt lat="43.7808992899954319000244140625" lon="1.574148572981357574462890625">
        <ele>128.1999969482421875</ele>
        <time>2026-08-13T07:28:16.000Z</time>
        <extensions>
          <ns3:TrackPointExtension>
            <ns3:hr>72</ns3:hr>
            <ns3:cad>46</ns3:cad>
          </ns3:TrackPointExtension>
        </extensions>
      </trkpt>
      <trkpt lat="43.78090909682214260101318359375" lon="1.5741665102541446685791015625">
        <ele>128.1999969482421875</ele>
        <time>2026-08-13T07:28:17.000Z</time>
        <extensions>
          <ns3:TrackPointExtension>
            <ns3:hr>71</ns3:hr>
            <ns3:cad>46</ns3:cad>
          </ns3:TrackPointExtension>
        </extensions>
      </trkpt>
      <trkpt lat="43.78091211430728435516357421875" lon="1.5741772390902042388916015625">
        <ele>128</ele>
        <time>2026-08-13T07:28:18.000Z</time>
        <extensions>
          <ns3:TrackPointExtension>
            <ns3:hr>70</ns3:hr>
            <ns3:cad>46</ns3:cad>
          </ns3:TrackPointExtension>
        </extensions>
      </trkpt>
      <trkpt lat="43.78091387450695037841796875" lon="1.5741849504411220550537109375">
        <ele>128</ele>
        <time>2026-08-13T07:28:19.000Z</time>
        <extensions>
          <ns3:TrackPointExtension>
            <ns3:hr>68</ns3:hr>
            <ns3:cad>45</ns3:cad>
          </ns3:TrackPointExtension>
        </extensions>
      </trkpt>
      <trkpt lat="43.78091881982982158660888671875" lon="1.57420062460005283355712890625">
        <ele>128</ele>
        <time>2026-08-13T07:28:20.000Z</time>
        <extensions>
          <ns3:TrackPointExtension>
            <ns3:hr>67</ns3:hr>
            <ns3:cad>45</ns3:cad>
          </ns3:TrackPointExtension>
        </extensions>
      </trkpt>
      <trkpt lat="43.78092334605753421783447265625" lon="1.574210934340953826904296875">
        <ele>128</ele>
        <time>2026-08-13T07:28:21.000Z</time>
        <extensions>
          <ns3:TrackPointExtension>
            <ns3:hr>67</ns3:hr>
            <ns3:cad>44</ns3:cad>
          </ns3:TrackPointExtension>
        </extensions>
      </trkpt>
      <trkpt lat="43.7809254415333271026611328125" lon="1.5742168016731739044189453125">
        <ele>128</ele>
        <time>2026-08-13T07:28:22.000Z</time>
        <extensions>
          <ns3:TrackPointExtension>
            <ns3:hr>67</ns3:hr>
            <ns3:cad>42</ns3:cad>
          </ns3:TrackPointExtension>
        </extensions>
      </trkpt>
      <trkpt lat="43.78093072213232517242431640625" lon="1.57423205673694610595703125">
        <ele>128</ele>
        <time>2026-08-13T07:28:23.000Z</time>
        <extensions>
          <ns3:TrackPointExtension>
            <ns3:hr>67</ns3:hr>
            <ns3:cad>42</ns3:cad>
          </ns3:TrackPointExtension>
        </extensions>
      </trkpt>
      <trkpt lat="43.7809346616268157958984375" lon="1.57424680888652801513671875">
        <ele>128</ele>
        <time>2026-08-13T07:28:24.000Z</time>
        <extensions>
          <ns3:TrackPointExtension>
            <ns3:hr>67</ns3:hr>
            <ns3:cad>42</ns3:cad>
          </ns3:TrackPointExtension>
        </extensions>
      </trkpt>
      <trkpt lat="43.7809346616268157958984375" lon="1.57424680888652801513671875">
        <ele>128</ele>
        <time>2026-08-13T07:28:25.000Z</time>
        <extensions>
          <ns3:TrackPointExtension>
            <ns3:hr>68</ns3:hr>
            <ns3:cad>43</ns3:cad>
          </ns3:TrackPointExtension>
        </extensions>
      </trkpt>
      <trkpt lat="43.78093759529292583465576171875" lon="1.5742647461593151092529296875">
        <ele>128</ele>
        <time>2026-08-13T07:28:26.000Z</time>
        <extensions>
          <ns3:TrackPointExtension>
            <ns3:hr>68</ns3:hr>
            <ns3:cad>43</ns3:cad>
          </ns3:TrackPointExtension>
        </extensions>
      </trkpt>
      <trkpt lat="43.78094195388257503509521484375" lon="1.57427958212792873382568359375">
        <ele>128</ele>
        <time>2026-08-13T07:28:27.000Z</time>
        <extensions>
          <ns3:TrackPointExtension>
            <ns3:hr>68</ns3:hr>
            <ns3:cad>43</ns3:cad>
          </ns3:TrackPointExtension>
        </extensions>
      </trkpt>
      <trkpt lat="43.78094547428190708160400390625" lon="1.5742929093539714813232421875">
        <ele>128</ele>
        <time>2026-08-13T07:28:28.000Z</time>
        <extensions>
          <ns3:TrackPointExtension>
            <ns3:hr>68</ns3:hr>
            <ns3:cad>42</ns3:cad>
          </ns3:TrackPointExtension>
        </extensions>
      </trkpt>
      <trkpt lat="43.78094782121479511260986328125" lon="1.57430137507617473602294921875">
        <ele>128</ele>
        <time>2026-08-13T07:28:29.000Z</time>
        <extensions>
          <ns3:TrackPointExtension>
            <ns3:hr>68</ns3:hr>
            <ns3:cad>42</ns3:cad>
          </ns3:TrackPointExtension>
        </extensions>
      </trkpt>
      <trkpt lat="43.78094782121479511260986328125" lon="1.574314869940280914306640625">
        <ele>128</ele>
        <time>2026-08-13T07:28:30.000Z</time>
        <extensions>
          <ns3:TrackPointExtension>
            <ns3:hr>69</ns3:hr>
            <ns3:cad>42</ns3:cad>
          </ns3:TrackPointExtension>
        </extensions>
      </trkpt>
      <trkpt lat="43.78094648011028766632080078125" lon="1.57432115636765956878662109375">
        <ele>128.1999969482421875</ele>
        <time>2026-08-13T07:28:31.000Z</time>
        <extensions>
          <ns3:TrackPointExtension>
            <ns3:hr>70</ns3:hr>
            <ns3:cad>43</ns3:cad>
          </ns3:TrackPointExtension>
        </extensions>
      </trkpt>
      <trkpt lat="43.78095184452831745147705078125" lon="1.57433523796498775482177734375">
        <ele>128.1999969482421875</ele>
        <time>2026-08-13T07:28:32.000Z</time>
        <extensions>
          <ns3:TrackPointExtension>
            <ns3:hr>70</ns3:hr>
            <ns3:cad>43</ns3:cad>
          </ns3:TrackPointExtension>
        </extensions>
      </trkpt>
      <trkpt lat="43.78095276653766632080078125" lon="1.5743425302207469940185546875">
        <ele>128</ele>
        <time>2026-08-13T07:28:33.000Z</time>
        <extensions>
          <ns3:TrackPointExtension>
            <ns3:hr>70</ns3:hr>
            <ns3:cad>43</ns3:cad>
          </ns3:TrackPointExtension>
        </extensions>
      </trkpt>
      <trkpt lat="43.78095419146120548248291015625" lon="1.57435501925647258758544921875">
        <ele>128</ele>
        <time>2026-08-13T07:28:34.000Z</time>
        <extensions>
          <ns3:TrackPointExtension>
            <ns3:hr>71</ns3:hr>
            <ns3:cad>43</ns3:cad>
          </ns3:TrackPointExtension>
        </extensions>
      </trkpt>
      <trkpt lat="43.78095469437539577484130859375" lon="1.5743636526167392730712890625">
        <ele>127.8000030517578125</ele>
        <time>2026-08-13T07:28:35.000Z</time>
        <extensions>
          <ns3:TrackPointExtension>
            <ns3:hr>71</ns3:hr>
            <ns3:cad>43</ns3:cad>
          </ns3:TrackPointExtension>
        </extensions>
      </trkpt>
      <trkpt lat="43.78095938824117183685302734375" lon="1.57438100315630435943603515625">
        <ele>127.8000030517578125</ele>
        <time>2026-08-13T07:28:36.000Z</time>
        <extensions>
          <ns3:TrackPointExtension>
            <ns3:hr>72</ns3:hr>
            <ns3:cad>44</ns3:cad>
          </ns3:TrackPointExtension>
        </extensions>
      </trkpt>
      <trkpt lat="43.78096215426921844482421875" lon="1.5743941627442836761474609375">
        <ele>127.8000030517578125</ele>
        <time>2026-08-13T07:28:37.000Z</time>
        <extensions>
          <ns3:TrackPointExtension>
            <ns3:hr>72</ns3:hr>
            <ns3:cad>44</ns3:cad>
          </ns3:TrackPointExtension>
        </extensions>
      </trkpt>
      <trkpt lat="43.78096349537372589111328125" lon="1.574404053390026092529296875">
        <ele>127.59999847412109375</ele>
        <time>2026-08-13T07:28:38.000Z</time>
        <extensions>
          <ns3:TrackPointExtension>
            <ns3:hr>72</ns3:hr>
            <ns3:cad>44</ns3:cad>
          </ns3:TrackPointExtension>
        </extensions>
      </trkpt>
      <trkpt lat="43.78096483647823333740234375" lon="1.57441712915897369384765625">
        <ele>127.59999847412109375</ele>
        <time>2026-08-13T07:28:39.000Z</time>
        <extensions>
          <ns3:TrackPointExtension>
            <ns3:hr>72</ns3:hr>
            <ns3:cad>0</ns3:cad>
          </ns3:TrackPointExtension>
        </extensions>
      </trkpt>
      <trkpt lat="43.78097330220043659210205078125" lon="1.57443632371723651885986328125">
        <ele>127.59999847412109375</ele>
        <time>2026-08-13T07:28:40.000Z</time>
        <extensions>
          <ns3:TrackPointExtension>
            <ns3:hr>73</ns3:hr>
            <ns3:cad>0</ns3:cad>
          </ns3:TrackPointExtension>
        </extensions>
      </trkpt>
      <trkpt lat="43.780975900590419769287109375" lon="1.5744464658200740814208984375">
        <ele>127.59999847412109375</ele>
        <time>2026-08-13T07:28:41.000Z</time>
        <extensions>
          <ns3:TrackPointExtension>
            <ns3:hr>73</ns3:hr>
            <ns3:cad>0</ns3:cad>
          </ns3:TrackPointExtension>
        </extensions>
      </trkpt>
      <trkpt lat="43.780976235866546630859375" lon="1.57445493154227733612060546875">
        <ele>127.59999847412109375</ele>
        <time>2026-08-13T07:28:42.000Z</time>
        <extensions>
          <ns3:TrackPointExtension>
            <ns3:hr>74</ns3:hr>
            <ns3:cad>0</ns3:cad>
          </ns3:TrackPointExtension>
        </extensions>
      </trkpt>
      <trkpt lat="43.78097883425652980804443359375" lon="1.57446901313960552215576171875">
        <ele>127.59999847412109375</ele>
        <time>2026-08-13T07:28:43.000Z</time>
        <extensions>
          <ns3:TrackPointExtension>
            <ns3:hr>74</ns3:hr>
            <ns3:cad>44</ns3:cad>
          </ns3:TrackPointExtension>
        </extensions>
      </trkpt>
      <trkpt lat="43.7809824384748935699462890625" lon="1.5744833461940288543701171875">
        <ele>127.59999847412109375</ele>
        <time>2026-08-13T07:28:44.000Z</time>
        <extensions>
          <ns3:TrackPointExtension>
            <ns3:hr>75</ns3:hr>
            <ns3:cad>44</ns3:cad>
          </ns3:TrackPointExtension>
        </extensions>
      </trkpt>
      <trkpt lat="43.78098495304584503173828125" lon="1.5744930692017078399658203125">
        <ele>127.59999847412109375</ele>
        <time>2026-08-13T07:28:45.000Z</time>
        <extensions>
          <ns3:TrackPointExtension>
            <ns3:hr>75</ns3:hr>
            <ns3:cad>44</ns3:cad>
          </ns3:TrackPointExtension>
        </extensions>
      </trkpt>
      <trkpt lat="43.78098621033132076263427734375" lon="1.57450287602841854095458984375">
        <ele>127.59999847412109375</ele>
        <time>2026-08-13T07:28:46.000Z</time>
        <extensions>
          <ns3:TrackPointExtension>
            <ns3:hr>76</ns3:hr>
            <ns3:cad>44</ns3:cad>
          </ns3:TrackPointExtension>
        </extensions>
      </trkpt>
      <trkpt lat="43.7809914909303188323974609375" lon="1.5745198912918567657470703125">
        <ele>127.59999847412109375</ele>
        <time>2026-08-13T07:28:47.000Z</time>
        <extensions>
          <ns3:TrackPointExtension>
            <ns3:hr>76</ns3:hr>
            <ns3:cad>43</ns3:cad>
          </ns3:TrackPointExtension>
        </extensions>
      </trkpt>
      <trkpt lat="43.780991993844509124755859375" lon="1.57453439198434352874755859375">
        <ele>127.59999847412109375</ele>
        <time>2026-08-13T07:28:48.000Z</time>
        <extensions>
          <ns3:TrackPointExtension>
            <ns3:hr>76</ns3:hr>
            <ns3:cad>43</ns3:cad>
          </ns3:TrackPointExtension>
        </extensions>
      </trkpt>
      <trkpt lat="43.78099207766354084014892578125" lon="1.57454377971589565277099609375">
        <ele>127.59999847412109375</ele>
        <time>2026-08-13T07:28:49.000Z</time>
        <extensions>
          <ns3:TrackPointExtension>
            <ns3:hr>76</ns3:hr>
            <ns3:cad>43</ns3:cad>
          </ns3:TrackPointExtension>
        </extensions>
      </trkpt>
      <trkpt lat="43.7809958495199680328369140625" lon="1.57455434091389179229736328125">
        <ele>127.40000152587890625</ele>
        <time>2026-08-13T07:28:50.000Z</time>
        <extensions>
          <ns3:TrackPointExtension>
            <ns3:hr>76</ns3:hr>
            <ns3:cad>44</ns3:cad>
          </ns3:TrackPointExtension>
        </extensions>
      </trkpt>
      <trkpt lat="43.781001381576061248779296875" lon="1.57457127235829830169677734375">
        <ele>127.40000152587890625</ele>
        <time>2026-08-13T07:28:51.000Z</time>
        <extensions>
          <ns3:TrackPointExtension>
            <ns3:hr>76</ns3:hr>
            <ns3:cad>44</ns3:cad>
          </ns3:TrackPointExtension>
        </extensions>
      </trkpt>
      <trkpt lat="43.781002052128314971923828125" lon="1.57458233647048473358154296875">
        <ele>127.40000152587890625</ele>
        <time>2026-08-13T07:28:52.000Z</time>
        <extensions>
          <ns3:TrackPointExtension>
            <ns3:hr>76</ns3:hr>
            <ns3:cad>44</ns3:cad>
          </ns3:TrackPointExtension>
        </extensions>
      </trkpt>
      <trkpt lat="43.78100247122347354888916015625" lon="1.5745894610881805419921875">
        <ele>127.40000152587890625</ele>
        <time>2026-08-13T07:28:53.000Z</time>
        <extensions>
          <ns3:TrackPointExtension>
            <ns3:hr>75</ns3:hr>
            <ns3:cad>44</ns3:cad>
          </ns3:TrackPointExtension>
        </extensions>
      </trkpt>
      <trkpt lat="43.78100699745118618011474609375" lon="1.57460614107549190521240234375">
        <ele>127.40000152587890625</ele>
        <time>2026-08-13T07:28:54.000Z</time>
        <extensions>
          <ns3:TrackPointExtension>
            <ns3:hr>75</ns3:hr>
            <ns3:cad>43</ns3:cad>
          </ns3:TrackPointExtension>
        </extensions>
      </trkpt>
      <trkpt lat="43.7810109369456768035888671875" lon="1.57462407834827899932861328125">
        <ele>127.40000152587890625</ele>
        <time>2026-08-13T07:28:55.000Z</time>
        <extensions>
          <ns3:TrackPointExtension>
            <ns3:hr>76</ns3:hr>
            <ns3:cad>43</ns3:cad>
          </ns3:TrackPointExtension>
        </extensions>
      </trkpt>
      <trkpt lat="43.781014122068881988525390625" lon="1.57463564537465572357177734375">
        <ele>127.40000152587890625</ele>
        <time>2026-08-13T07:28:56.000Z</time>
        <extensions>
          <ns3:TrackPointExtension>
            <ns3:hr>76</ns3:hr>
            <ns3:cad>42</ns3:cad>
          </ns3:TrackPointExtension>
        </extensions>
      </trkpt>
      <trkpt lat="43.78101454116404056549072265625" lon="1.57464218325912952423095703125">
        <ele>127.40000152587890625</ele>
        <time>2026-08-13T07:28:57.000Z</time>
        <extensions>
          <ns3:TrackPointExtension>
            <ns3:hr>77</ns3:hr>
            <ns3:cad>44</ns3:cad>
          </ns3:TrackPointExtension>
        </extensions>
      </trkpt>
      <trkpt lat="43.78101739101111888885498046875" lon="1.57465852797031402587890625">
        <ele>127.1999969482421875</ele>
        <time>2026-08-13T07:28:58.000Z</time>
        <extensions>
          <ns3:TrackPointExtension>
            <ns3:hr>78</ns3:hr>
            <ns3:cad>44</ns3:cad>
          </ns3:TrackPointExtension>
        </extensions>
      </trkpt>
      <trkpt lat="43.78102040849626064300537109375" lon="1.574679315090179443359375">
        <ele>127.1999969482421875</ele>
        <time>2026-08-13T07:28:59.000Z</time>
        <extensions>
          <ns3:TrackPointExtension>
            <ns3:hr>79</ns3:hr>
            <ns3:cad>44</ns3:cad>
          </ns3:TrackPointExtension>
        </extensions>
      </trkpt>
      <trkpt lat="43.781020157039165496826171875" lon="1.57469180412590503692626953125">
        <ele>127.1999969482421875</ele>
        <time>2026-08-13T07:29:00.000Z</time>
        <extensions>
          <ns3:TrackPointExtension>
            <ns3:hr>80</ns3:hr>
            <ns3:cad>44</ns3:cad>
          </ns3:TrackPointExtension>
        </extensions>
      </trkpt>
      <trkpt lat="43.78102493472397327423095703125" lon="1.574692390859127044677734375">
        <ele>127.1999969482421875</ele>
        <time>2026-08-13T07:29:01.000Z</time>
        <extensions>
          <ns3:TrackPointExtension>
            <ns3:hr>80</ns3:hr>
            <ns3:cad>44</ns3:cad>
          </ns3:TrackPointExtension>
        </extensions>
      </trkpt>
      <trkpt lat="43.7810283713042736053466796875" lon="1.574707143008708953857421875">
        <ele>127.1999969482421875</ele>
        <time>2026-08-13T07:29:02.000Z</time>
        <extensions>
          <ns3:TrackPointExtension>
            <ns3:hr>80</ns3:hr>
            <ns3:cad>44</ns3:cad>
          </ns3:TrackPointExtension>
        </extensions>
      </trkpt>
      <trkpt lat="43.781030215322971343994140625" lon="1.57472114078700542449951171875">
        <ele>127.1999969482421875</ele>
        <time>2026-08-13T07:29:03.000Z</time>
        <extensions>
          <ns3:TrackPointExtension>
            <ns3:hr>80</ns3:hr>
            <ns3:cad>47</ns3:cad>
          </ns3:TrackPointExtension>
        </extensions>
      </trkpt>
      <trkpt lat="43.78103415481746196746826171875" lon="1.5747307799756526947021484375">
        <ele>127.1999969482421875</ele>
        <time>2026-08-13T07:29:04.000Z</time>
        <extensions>
          <ns3:TrackPointExtension>
            <ns3:hr>80</ns3:hr>
            <ns3:cad>45</ns3:cad>
          </ns3:TrackPointExtension>
        </extensions>
      </trkpt>
      <trkpt lat="43.78103666938841342926025390625" lon="1.5747423470020294189453125">
        <ele>127.1999969482421875</ele>
        <time>2026-08-13T07:29:05.000Z</time>
        <extensions>
          <ns3:TrackPointExtension>
            <ns3:hr>80</ns3:hr>
            <ns3:cad>45</ns3:cad>
          </ns3:TrackPointExtension>
        </extensions>
      </trkpt>
      <trkpt lat="43.7810419499874114990234375" lon="1.5747582726180553436279296875">
        <ele>127.1999969482421875</ele>
        <time>2026-08-13T07:29:06.000Z</time>
        <extensions>
          <ns3:TrackPointExtension>
            <ns3:hr>80</ns3:hr>
            <ns3:cad>45</ns3:cad>
          </ns3:TrackPointExtension>
        </extensions>
      </trkpt>
      <trkpt lat="43.78104320727288722991943359375" lon="1.5747703425586223602294921875">
        <ele>127</ele>
        <time>2026-08-13T07:29:07.000Z</time>
        <extensions>
          <ns3:TrackPointExtension>
            <ns3:hr>80</ns3:hr>
            <ns3:cad>45</ns3:cad>
          </ns3:TrackPointExtension>
        </extensions>
      </trkpt>
      <trkpt lat="43.781042955815792083740234375" lon="1.574775874614715576171875">
        <ele>127</ele>
        <time>2026-08-13T07:29:08.000Z</time>
        <extensions>
          <ns3:TrackPointExtension>
            <ns3:hr>80</ns3:hr>
            <ns3:cad>45</ns3:cad>
          </ns3:TrackPointExtension>
        </extensions>
      </trkpt>
      <trkpt lat="43.78104421310126781463623046875" lon="1.5747911296784877777099609375">
        <ele>127</ele>
        <time>2026-08-13T07:29:09.000Z</time>
        <extensions>
          <ns3:TrackPointExtension>
            <ns3:hr>81</ns3:hr>
            <ns3:cad>43</ns3:cad>
          </ns3:TrackPointExtension>
        </extensions>
      </trkpt>
      <trkpt lat="43.78104823641479015350341796875" lon="1.57480898313224315643310546875">
        <ele>127</ele>
        <time>2026-08-13T07:29:10.000Z</time>
        <extensions>
          <ns3:TrackPointExtension>
            <ns3:hr>81</ns3:hr>
            <ns3:cad>43</ns3:cad>
          </ns3:TrackPointExtension>
        </extensions>
      </trkpt>
      <trkpt lat="43.78105192445218563079833984375" lon="1.5748182870447635650634765625">
        <ele>127</ele>
        <time>2026-08-13T07:29:11.000Z</time>
        <extensions>
          <ns3:TrackPointExtension>
            <ns3:hr>81</ns3:hr>
            <ns3:cad>43</ns3:cad>
          </ns3:TrackPointExtension>
        </extensions>
      </trkpt>
      <trkpt lat="43.78105293028056621551513671875" lon="1.5748254954814910888671875">
        <ele>127</ele>
        <time>2026-08-13T07:29:12.000Z</time>
        <extensions>
          <ns3:TrackPointExtension>
            <ns3:hr>80</ns3:hr>
            <ns3:cad>43</ns3:cad>
          </ns3:TrackPointExtension>
        </extensions>
      </trkpt>
      <trkpt lat="43.78105661831796169281005859375" lon="1.5748380683362483978271484375">
        <ele>127</ele>
        <time>2026-08-13T07:29:13.000Z</time>
        <extensions>
          <ns3:TrackPointExtension>
            <ns3:hr>81</ns3:hr>
            <ns3:cad>42</ns3:cad>
          </ns3:TrackPointExtension>
        </extensions>
      </trkpt>
      <trkpt lat="43.78106147982180118560791015625" lon="1.5748538263142108917236328125">
        <ele>127</ele>
        <time>2026-08-13T07:29:14.000Z</time>
        <extensions>
          <ns3:TrackPointExtension>
            <ns3:hr>80</ns3:hr>
            <ns3:cad>42</ns3:cad>
          </ns3:TrackPointExtension>
        </extensions>
      </trkpt>
      <trkpt lat="43.7810618989169597625732421875" lon="1.57486396841704845428466796875">
        <ele>127</ele>
        <time>2026-08-13T07:29:15.000Z</time>
        <extensions>
          <ns3:TrackPointExtension>
            <ns3:hr>80</ns3:hr>
            <ns3:cad>46</ns3:cad>
          </ns3:TrackPointExtension>
        </extensions>
      </trkpt>
      <trkpt lat="43.78106097690761089324951171875" lon="1.5748672373592853546142578125">
        <ele>127</ele>
        <time>2026-08-13T07:29:16.000Z</time>
        <extensions>
          <ns3:TrackPointExtension>
            <ns3:hr>79</ns3:hr>
            <ns3:cad>46</ns3:cad>
          </ns3:TrackPointExtension>
        </extensions>
      </trkpt>
      <trkpt lat="43.78106650896370410919189453125" lon="1.57488542608916759490966796875">
        <ele>127</ele>
        <time>2026-08-13T07:29:17.000Z</time>
        <extensions>
          <ns3:TrackPointExtension>
            <ns3:hr>79</ns3:hr>
            <ns3:cad>46</ns3:cad>
          </ns3:TrackPointExtension>
        </extensions>
      </trkpt>
      <trkpt lat="43.7810712866485118865966796875" lon="1.5748960711061954498291015625">
        <ele>127</ele>
        <time>2026-08-13T07:29:18.000Z</time>
        <extensions>
          <ns3:TrackPointExtension>
            <ns3:hr>78</ns3:hr>
            <ns3:cad>45</ns3:cad>
          </ns3:TrackPointExtension>
        </extensions>
      </trkpt>
      <trkpt lat="43.7810736335813999176025390625" lon="1.57490621320903301239013671875">
        <ele>127</ele>
        <time>2026-08-13T07:29:19.000Z</time>
        <extensions>
          <ns3:TrackPointExtension>
            <ns3:hr>78</ns3:hr>
            <ns3:cad>45</ns3:cad>
          </ns3:TrackPointExtension>
        </extensions>
      </trkpt>
      <trkpt lat="43.781077153980731964111328125" lon="1.57491895370185375213623046875">
        <ele>126.8000030517578125</ele>
        <time>2026-08-13T07:29:20.000Z</time>
        <extensions>
          <ns3:TrackPointExtension>
            <ns3:hr>78</ns3:hr>
            <ns3:cad>43</ns3:cad>
          </ns3:TrackPointExtension>
        </extensions>
      </trkpt>
      <trkpt lat="43.78108159638941287994384765625" lon="1.5749327838420867919921875">
        <ele>126.8000030517578125</ele>
        <time>2026-08-13T07:29:21.000Z</time>
        <extensions>
          <ns3:TrackPointExtension>
            <ns3:hr>78</ns3:hr>
            <ns3:cad>42</ns3:cad>
          </ns3:TrackPointExtension>
        </extensions>
      </trkpt>
      <trkpt lat="43.78108109347522258758544921875" lon="1.57494627870619297027587890625">
        <ele>126.8000030517578125</ele>
        <time>2026-08-13T07:29:22.000Z</time>
        <extensions>
          <ns3:TrackPointExtension>
            <ns3:hr>78</ns3:hr>
            <ns3:cad>42</ns3:cad>
          </ns3:TrackPointExtension>
        </extensions>
      </trkpt>
      <trkpt lat="43.78108193166553974151611328125" lon="1.57495616935193538665771484375">
        <ele>126.8000030517578125</ele>
        <time>2026-08-13T07:29:23.000Z</time>
        <extensions>
          <ns3:TrackPointExtension>
            <ns3:hr>78</ns3:hr>
            <ns3:cad>42</ns3:cad>
          </ns3:TrackPointExtension>
        </extensions>
      </trkpt>
      <trkpt lat="43.78108142875134944915771484375" lon="1.57497276552021503448486328125">
        <ele>126.8000030517578125</ele>
        <time>2026-08-13T07:29:24.000Z</time>
        <extensions>
          <ns3:TrackPointExtension>
            <ns3:hr>78</ns3:hr>
            <ns3:cad>44</ns3:cad>
          </ns3:TrackPointExtension>
        </extensions>
      </trkpt>
      <trkpt lat="43.78108260221779346466064453125" lon="1.5749891102313995361328125">
        <ele>126.8000030517578125</ele>
        <time>2026-08-13T07:29:25.000Z</time>
        <extensions>
          <ns3:TrackPointExtension>
            <ns3:hr>78</ns3:hr>
            <ns3:cad>44</ns3:cad>
          </ns3:TrackPointExtension>
        </extensions>
      </trkpt>
      <trkpt lat="43.78108293749392032623291015625" lon="1.5750025212764739990234375">
        <ele>126.8000030517578125</ele>
        <time>2026-08-13T07:29:26.000Z</time>
        <extensions>
          <ns3:TrackPointExtension>
            <ns3:hr>77</ns3:hr>
            <ns3:cad>44</ns3:cad>
          </ns3:TrackPointExtension>
        </extensions>
      </trkpt>
      <trkpt lat="43.7810848653316497802734375" lon="1.575013585388660430908203125">
        <ele>126.8000030517578125</ele>
        <time>2026-08-13T07:29:27.000Z</time>
        <extensions>
          <ns3:TrackPointExtension>
            <ns3:hr>77</ns3:hr>
            <ns3:cad>44</ns3:cad>
          </ns3:TrackPointExtension>
        </extensions>
      </trkpt>
      <trkpt lat="43.7810850329697132110595703125" lon="1.57502506859600543975830078125">
        <ele>126.8000030517578125</ele>
        <time>2026-08-13T07:29:28.000Z</time>
        <extensions>
          <ns3:TrackPointExtension>
            <ns3:hr>76</ns3:hr>
            <ns3:cad>43</ns3:cad>
          </ns3:TrackPointExtension>
        </extensions>
      </trkpt>
      <trkpt lat="43.7810880504548549652099609375" lon="1.57503697089850902557373046875">
        <ele>126.8000030517578125</ele>
        <time>2026-08-13T07:29:29.000Z</time>
        <extensions>
          <ns3:TrackPointExtension>
            <ns3:hr>75</ns3:hr>
            <ns3:cad>43</ns3:cad>
          </ns3:TrackPointExtension>
        </extensions>
      </trkpt>
      <trkpt lat="43.7810897268354892730712890625" lon="1.57505013048648834228515625">
        <ele>126.8000030517578125</ele>
        <time>2026-08-13T07:29:30.000Z</time>
        <extensions>
          <ns3:TrackPointExtension>
            <ns3:hr>75</ns3:hr>
            <ns3:cad>43</ns3:cad>
          </ns3:TrackPointExtension>
        </extensions>
      </trkpt>
      <trkpt lat="43.78109048120677471160888671875" lon="1.57505909912288188934326171875">
        <ele>126.8000030517578125</ele>
        <time>2026-08-13T07:29:31.000Z</time>
        <extensions>
          <ns3:TrackPointExtension>
            <ns3:hr>75</ns3:hr>
            <ns3:cad>43</ns3:cad>
          </ns3:TrackPointExtension>
        </extensions>
      </trkpt>
      <trkpt lat="43.78109148703515529632568359375" lon="1.57506999559700489044189453125">
        <ele>126.8000030517578125</ele>
        <time>2026-08-13T07:29:32.000Z</time>
        <extensions>
          <ns3:TrackPointExtension>
            <ns3:hr>75</ns3:hr>
            <ns3:cad>43</ns3:cad>
          </ns3:TrackPointExtension>
        </extensions>
      </trkpt>
      <trkpt lat="43.78109115175902843475341796875" lon="1.57508374191820621490478515625">
        <ele>126.59999847412109375</ele>
        <time>2026-08-13T07:29:33.000Z</time>
        <extensions>
          <ns3:TrackPointExtension>
            <ns3:hr>75</ns3:hr>
            <ns3:cad>43</ns3:cad>
          </ns3:TrackPointExtension>
        </extensions>
      </trkpt>
      <trkpt lat="43.7810917384922504425048828125" lon="1.57509581185877323150634765625">
        <ele>126.59999847412109375</ele>
        <time>2026-08-13T07:29:34.000Z</time>
        <extensions>
          <ns3:TrackPointExtension>
            <ns3:hr>75</ns3:hr>
            <ns3:cad>44</ns3:cad>
          </ns3:TrackPointExtension>
        </extensions>
      </trkpt>
      <trkpt lat="43.7810960970818996429443359375" lon="1.57510637305676937103271484375">
        <ele>126.59999847412109375</ele>
        <time>2026-08-13T07:29:35.000Z</time>
        <extensions>
          <ns3:TrackPointExtension>
            <ns3:hr>75</ns3:hr>
            <ns3:cad>45</ns3:cad>
          </ns3:TrackPointExtension>
        </extensions>
      </trkpt>
      <trkpt lat="43.78109634853899478912353515625" lon="1.5751243941485881805419921875">
        <ele>126.59999847412109375</ele>
        <time>2026-08-13T07:29:36.000Z</time>
        <extensions>
          <ns3:TrackPointExtension>
            <ns3:hr>76</ns3:hr>
            <ns3:cad>45</ns3:cad>
          </ns3:TrackPointExtension>
        </extensions>
      </trkpt>
      <trkpt lat="43.78109567798674106597900390625" lon="1.57513621263206005096435546875">
        <ele>126.59999847412109375</ele>
        <time>2026-08-13T07:29:37.000Z</time>
        <extensions>
          <ns3:TrackPointExtension>
            <ns3:hr>76</ns3:hr>
            <ns3:cad>45</ns3:cad>
          </ns3:TrackPointExtension>
        </extensions>
      </trkpt>
      <trkpt lat="43.78109534271061420440673828125" lon="1.575149036943912506103515625">
        <ele>126.59999847412109375</ele>
        <time>2026-08-13T07:29:38.000Z</time>
        <extensions>
          <ns3:TrackPointExtension>
            <ns3:hr>75</ns3:hr>
            <ns3:cad>45</ns3:cad>
          </ns3:TrackPointExtension>
        </extensions>
      </trkpt>
      <trkpt lat="43.7810982763767242431640625" lon="1.57515834085643291473388671875">
        <ele>126.59999847412109375</ele>
        <time>2026-08-13T07:29:39.000Z</time>
        <extensions>
          <ns3:TrackPointExtension>
            <ns3:hr>75</ns3:hr>
            <ns3:cad>45</ns3:cad>
          </ns3:TrackPointExtension>
        </extensions>
      </trkpt>
      <trkpt lat="43.78109836019575595855712890625" lon="1.57517124898731708526611328125">
        <ele>126.59999847412109375</ele>
        <time>2026-08-13T07:29:40.000Z</time>
        <extensions>
          <ns3:TrackPointExtension>
            <ns3:hr>75</ns3:hr>
            <ns3:cad>45</ns3:cad>
          </ns3:TrackPointExtension>
        </extensions>
      </trkpt>
      <trkpt lat="43.7810964323580265045166015625" lon="1.57518415711820125579833984375">
        <ele>126.59999847412109375</ele>
        <time>2026-08-13T07:29:41.000Z</time>
        <extensions>
          <ns3:TrackPointExtension>
            <ns3:hr>75</ns3:hr>
            <ns3:cad>44</ns3:cad>
          </ns3:TrackPointExtension>
        </extensions>
      </trkpt>
      <trkpt lat="43.781096599996089935302734375" lon="1.57518960535526275634765625">
        <ele>126.59999847412109375</ele>
        <time>2026-08-13T07:29:42.000Z</time>
        <extensions>
          <ns3:TrackPointExtension>
            <ns3:hr>76</ns3:hr>
            <ns3:cad>44</ns3:cad>
          </ns3:TrackPointExtension>
        </extensions>
      </trkpt>
      <trkpt lat="43.78109534271061420440673828125" lon="1.575204022228717803955078125">
        <ele>126.59999847412109375</ele>
        <time>2026-08-13T07:29:43.000Z</time>
        <extensions>
          <ns3:TrackPointExtension>
            <ns3:hr>76</ns3:hr>
            <ns3:cad>43</ns3:cad>
          </ns3:TrackPointExtension>
        </extensions>
      </trkpt>
      <trkpt lat="43.78109567798674106597900390625" lon="1.57521910965442657470703125">
        <ele>126.59999847412109375</ele>
        <time>2026-08-13T07:29:44.000Z</time>
        <extensions>
          <ns3:TrackPointExtension>
            <ns3:hr>76</ns3:hr>
            <ns3:cad>42</ns3:cad>
          </ns3:TrackPointExtension>
        </extensions>
      </trkpt>
      <trkpt lat="43.78109416924417018890380859375" lon="1.5752306766808032989501953125">
        <ele>126.59999847412109375</ele>
        <time>2026-08-13T07:29:45.000Z</time>
        <extensions>
          <ns3:TrackPointExtension>
            <ns3:hr>75</ns3:hr>
            <ns3:cad>42</ns3:cad>
          </ns3:TrackPointExtension>
        </extensions>
      </trkpt>
      <trkpt lat="43.781096599996089935302734375" lon="1.57523729838430881500244140625">
        <ele>126.59999847412109375</ele>
        <time>2026-08-13T07:29:46.000Z</time>
        <extensions>
          <ns3:TrackPointExtension>
            <ns3:hr>75</ns3:hr>
            <ns3:cad>42</ns3:cad>
          </ns3:TrackPointExtension>
        </extensions>
      </trkpt>
      <trkpt lat="43.78109819255769252777099609375" lon="1.57525490038096904754638671875">
        <ele>126.40000152587890625</ele>
        <time>2026-08-13T07:29:47.000Z</time>
        <extensions>
          <ns3:TrackPointExtension>
            <ns3:hr>75</ns3:hr>
            <ns3:cad>42</ns3:cad>
          </ns3:TrackPointExtension>
        </extensions>
      </trkpt>
      <trkpt lat="43.7810991145670413970947265625" lon="1.57526831142604351043701171875">
        <ele>126.40000152587890625</ele>
        <time>2026-08-13T07:29:48.000Z</time>
        <extensions>
          <ns3:TrackPointExtension>
            <ns3:hr>75</ns3:hr>
            <ns3:cad>43</ns3:cad>
          </ns3:TrackPointExtension>
        </extensions>
      </trkpt>
      <trkpt lat="43.78109919838607311248779296875" lon="1.5752796269953250885009765625">
        <ele>126.40000152587890625</ele>
        <time>2026-08-13T07:29:49.000Z</time>
        <extensions>
          <ns3:TrackPointExtension>
            <ns3:hr>75</ns3:hr>
            <ns3:cad>44</ns3:cad>
          </ns3:TrackPointExtension>
        </extensions>
      </trkpt>
      <trkpt lat="43.78109919838607311248779296875" lon="1.57528893090784549713134765625">
        <ele>126.40000152587890625</ele>
        <time>2026-08-13T07:29:50.000Z</time>
        <extensions>
          <ns3:TrackPointExtension>
            <ns3:hr>75</ns3:hr>
            <ns3:cad>44</ns3:cad>
          </ns3:TrackPointExtension>
        </extensions>
      </trkpt>
      <trkpt lat="43.78110154531896114349365234375" lon="1.5753041021525859832763671875">
        <ele>126.40000152587890625</ele>
        <time>2026-08-13T07:29:51.000Z</time>
        <extensions>
          <ns3:TrackPointExtension>
            <ns3:hr>75</ns3:hr>
            <ns3:cad>44</ns3:cad>
          </ns3:TrackPointExtension>
        </extensions>
      </trkpt>
      <trkpt lat="43.78110456280410289764404296875" lon="1.57531525008380413055419921875">
        <ele>126.40000152587890625</ele>
        <time>2026-08-13T07:29:52.000Z</time>
        <extensions>
          <ns3:TrackPointExtension>
            <ns3:hr>75</ns3:hr>
            <ns3:cad>44</ns3:cad>
          </ns3:TrackPointExtension>
        </extensions>
      </trkpt>
      <trkpt lat="43.78110640682280063629150390625" lon="1.575328744947910308837890625">
        <ele>126.40000152587890625</ele>
        <time>2026-08-13T07:29:53.000Z</time>
        <extensions>
          <ns3:TrackPointExtension>
            <ns3:hr>75</ns3:hr>
            <ns3:cad>44</ns3:cad>
          </ns3:TrackPointExtension>
        </extensions>
      </trkpt>
      <trkpt lat="43.78110657446086406707763671875" lon="1.57533704303205013275146484375">
        <ele>126.40000152587890625</ele>
        <time>2026-08-13T07:29:54.000Z</time>
        <extensions>
          <ns3:TrackPointExtension>
            <ns3:hr>75</ns3:hr>
            <ns3:cad>44</ns3:cad>
          </ns3:TrackPointExtension>
        </extensions>
      </trkpt>
      <trkpt lat="43.781106658279895782470703125" lon="1.57535498030483722686767578125">
        <ele>126.1999969482421875</ele>
        <time>2026-08-13T07:29:55.000Z</time>
        <extensions>
          <ns3:TrackPointExtension>
            <ns3:hr>74</ns3:hr>
            <ns3:cad>44</ns3:cad>
          </ns3:TrackPointExtension>
        </extensions>
      </trkpt>
      <trkpt lat="43.7811078317463397979736328125" lon="1.5753711573779582977294921875">
        <ele>126.1999969482421875</ele>
        <time>2026-08-13T07:29:56.000Z</time>
        <extensions>
          <ns3:TrackPointExtension>
            <ns3:hr>75</ns3:hr>
            <ns3:cad>44</ns3:cad>
          </ns3:TrackPointExtension>
        </extensions>
      </trkpt>
      <trkpt lat="43.78110892139375209808349609375" lon="1.57538146711885929107666015625">
        <ele>126.1999969482421875</ele>
        <time>2026-08-13T07:29:57.000Z</time>
        <extensions>
          <ns3:TrackPointExtension>
            <ns3:hr>75</ns3:hr>
            <ns3:cad>46</ns3:cad>
          </ns3:TrackPointExtension>
        </extensions>
      </trkpt>
      <trkpt lat="43.781109340488910675048828125" lon="1.5753902681171894073486328125">
        <ele>126.1999969482421875</ele>
        <time>2026-08-13T07:29:58.000Z</time>
        <extensions>
          <ns3:TrackPointExtension>
            <ns3:hr>74</ns3:hr>
            <ns3:cad>46</ns3:cad>
          </ns3:TrackPointExtension>
        </extensions>
      </trkpt>
      <trkpt lat="43.78110825084149837493896484375" lon="1.57540711574256420135498046875">
        <ele>126.1999969482421875</ele>
        <time>2026-08-13T07:29:59.000Z</time>
        <extensions>
          <ns3:TrackPointExtension>
            <ns3:hr>74</ns3:hr>
            <ns3:cad>47</ns3:cad>
          </ns3:TrackPointExtension>
        </extensions>
      </trkpt>
      <trkpt lat="43.78110724501311779022216796875" lon="1.5754194371402263641357421875">
        <ele>126.1999969482421875</ele>
        <time>2026-08-13T07:30:00.000Z</time>
        <extensions>
          <ns3:TrackPointExtension>
            <ns3:hr>74</ns3:hr>
            <ns3:cad>47</ns3:cad>
          </ns3:TrackPointExtension>
        </extensions>
      </trkpt>
      <trkpt lat="43.78110674209892749786376953125" lon="1.57542907632887363433837890625">
        <ele>126.1999969482421875</ele>
        <time>2026-08-13T07:30:01.000Z</time>
        <extensions>
          <ns3:TrackPointExtension>
            <ns3:hr>75</ns3:hr>
            <ns3:cad>47</ns3:cad>
          </ns3:TrackPointExtension>
        </extensions>
      </trkpt>
      <trkpt lat="43.78110808320343494415283203125" lon="1.575438044965267181396484375">
        <ele>126.1999969482421875</ele>
        <time>2026-08-13T07:30:02.000Z</time>
        <extensions>
          <ns3:TrackPointExtension>
            <ns3:hr>75</ns3:hr>
            <ns3:cad>47</ns3:cad>
          </ns3:TrackPointExtension>
        </extensions>
      </trkpt>
      <trkpt lat="43.78110833466053009033203125" lon="1.57545824535191059112548828125">
        <ele>126</ele>
        <time>2026-08-13T07:30:03.000Z</time>
        <extensions>
          <ns3:TrackPointExtension>
            <ns3:hr>75</ns3:hr>
            <ns3:cad>45</ns3:cad>
          </ns3:TrackPointExtension>
        </extensions>
      </trkpt>
      <trkpt lat="43.78110875375568866729736328125" lon="1.57547257840633392333984375">
        <ele>126</ele>
        <time>2026-08-13T07:30:04.000Z</time>
        <extensions>
          <ns3:TrackPointExtension>
            <ns3:hr>75</ns3:hr>
            <ns3:cad>45</ns3:cad>
          </ns3:TrackPointExtension>
        </extensions>
      </trkpt>
      <trkpt lat="43.7811048142611980438232421875" lon="1.57548372633755207061767578125">
        <ele>126</ele>
        <time>2026-08-13T07:30:05.000Z</time>
        <extensions>
          <ns3:TrackPointExtension>
            <ns3:hr>75</ns3:hr>
            <ns3:cad>44</ns3:cad>
          </ns3:TrackPointExtension>
        </extensions>
      </trkpt>
      <trkpt lat="43.78110221587121486663818359375" lon="1.575489677488803863525390625">
        <ele>126</ele>
        <time>2026-08-13T07:30:06.000Z</time>
        <extensions>
          <ns3:TrackPointExtension>
            <ns3:hr>75</ns3:hr>
            <ns3:cad>43</ns3:cad>
          </ns3:TrackPointExtension>
        </extensions>
      </trkpt>
      <trkpt lat="43.781102634966373443603515625" lon="1.5755066089332103729248046875">
        <ele>126</ele>
        <time>2026-08-13T07:30:07.000Z</time>
        <extensions>
          <ns3:TrackPointExtension>
            <ns3:hr>75</ns3:hr>
            <ns3:cad>43</ns3:cad>
          </ns3:TrackPointExtension>
        </extensions>
      </trkpt>
      <trkpt lat="43.78110229969024658203125" lon="1.57552312128245830535888671875">
        <ele>126</ele>
        <time>2026-08-13T07:30:08.000Z</time>
        <extensions>
          <ns3:TrackPointExtension>
            <ns3:hr>75</ns3:hr>
            <ns3:cad>44</ns3:cad>
          </ns3:TrackPointExtension>
        </extensions>
      </trkpt>
      <trkpt lat="43.78109936602413654327392578125" lon="1.57553493976593017578125">
        <ele>126</ele>
        <time>2026-08-13T07:30:09.000Z</time>
        <extensions>
          <ns3:TrackPointExtension>
            <ns3:hr>75</ns3:hr>
            <ns3:cad>45</ns3:cad>
          </ns3:TrackPointExtension>
        </extensions>
      </trkpt>
      <trkpt lat="43.78109685145318508148193359375" lon="1.57554407604038715362548828125">
        <ele>126</ele>
        <time>2026-08-13T07:30:10.000Z</time>
        <extensions>
          <ns3:TrackPointExtension>
            <ns3:hr>75</ns3:hr>
            <ns3:cad>45</ns3:cad>
          </ns3:TrackPointExtension>
        </extensions>
      </trkpt>
      <trkpt lat="43.7810930795967578887939453125" lon="1.5755565650761127471923828125">
        <ele>126</ele>
        <time>2026-08-13T07:30:11.000Z</time>
        <extensions>
          <ns3:TrackPointExtension>
            <ns3:hr>75</ns3:hr>
            <ns3:cad>45</ns3:cad>
          </ns3:TrackPointExtension>
        </extensions>
      </trkpt>
      <trkpt lat="43.78109157085418701171875" lon="1.57556871883571147918701171875">
        <ele>126</ele>
        <time>2026-08-13T07:30:12.000Z</time>
        <extensions>
          <ns3:TrackPointExtension>
            <ns3:hr>75</ns3:hr>
            <ns3:cad>45</ns3:cad>
          </ns3:TrackPointExtension>
        </extensions>
      </trkpt>
      <trkpt lat="43.78109157085418701171875" lon="1.575580872595310211181640625">
        <ele>125.8000030517578125</ele>
        <time>2026-08-13T07:30:13.000Z</time>
        <extensions>
          <ns3:TrackPointExtension>
            <ns3:hr>75</ns3:hr>
            <ns3:cad>44</ns3:cad>
          </ns3:TrackPointExtension>
        </extensions>
      </trkpt>
      <trkpt lat="43.7810870446264743804931640625" lon="1.57559637911617755889892578125">
        <ele>125.8000030517578125</ele>
        <time>2026-08-13T07:30:14.000Z</time>
        <extensions>
          <ns3:TrackPointExtension>
            <ns3:hr>75</ns3:hr>
            <ns3:cad>44</ns3:cad>
          </ns3:TrackPointExtension>
        </extensions>
      </trkpt>
      <trkpt lat="43.78108461387455463409423828125" lon="1.5756075270473957061767578125">
        <ele>125.8000030517578125</ele>
        <time>2026-08-13T07:30:15.000Z</time>
        <extensions>
          <ns3:TrackPointExtension>
            <ns3:hr>75</ns3:hr>
            <ns3:cad>45</ns3:cad>
          </ns3:TrackPointExtension>
        </extensions>
      </trkpt>
      <trkpt lat="43.78108142875134944915771484375" lon="1.57561431638896465301513671875">
        <ele>125.8000030517578125</ele>
        <time>2026-08-13T07:30:16.000Z</time>
        <extensions>
          <ns3:TrackPointExtension>
            <ns3:hr>75</ns3:hr>
            <ns3:cad>45</ns3:cad>
          </ns3:TrackPointExtension>
        </extensions>
      </trkpt>
      <trkpt lat="43.78107673488557338714599609375" lon="1.57562236301600933074951171875">
        <ele>125.8000030517578125</ele>
        <time>2026-08-13T07:30:17.000Z</time>
        <extensions>
          <ns3:TrackPointExtension>
            <ns3:hr>75</ns3:hr>
            <ns3:cad>45</ns3:cad>
          </ns3:TrackPointExtension>
        </extensions>
      </trkpt>
      <trkpt lat="43.78107187338173389434814453125" lon="1.57563141547143459320068359375">
        <ele>125.8000030517578125</ele>
        <time>2026-08-13T07:30:18.000Z</time>
        <extensions>
          <ns3:TrackPointExtension>
            <ns3:hr>76</ns3:hr>
            <ns3:cad>41</ns3:cad>
          </ns3:TrackPointExtension>
        </extensions>
      </trkpt>
      <trkpt lat="43.7810659222304821014404296875" lon="1.57563979737460613250732421875">
        <ele>125.8000030517578125</ele>
        <time>2026-08-13T07:30:19.000Z</time>
        <extensions>
          <ns3:TrackPointExtension>
            <ns3:hr>76</ns3:hr>
            <ns3:cad>41</ns3:cad>
          </ns3:TrackPointExtension>
        </extensions>
      </trkpt>
      <trkpt lat="43.7810660898685455322265625" lon="1.5756521187722682952880859375">
        <ele>125.8000030517578125</ele>
        <time>2026-08-13T07:30:20.000Z</time>
        <extensions>
          <ns3:TrackPointExtension>
            <ns3:hr>76</ns3:hr>
            <ns3:cad>42</ns3:cad>
          </ns3:TrackPointExtension>
        </extensions>
      </trkpt>
      <trkpt lat="43.781059049069881439208984375" lon="1.57566745765507221221923828125">
        <ele>125.8000030517578125</ele>
        <time>2026-08-13T07:30:21.000Z</time>
        <extensions>
          <ns3:TrackPointExtension>
            <ns3:hr>75</ns3:hr>
            <ns3:cad>42</ns3:cad>
          </ns3:TrackPointExtension>
        </extensions>
      </trkpt>
      <trkpt lat="43.7810541875660419464111328125" lon="1.57568053342401981353759765625">
        <ele>125.8000030517578125</ele>
        <time>2026-08-13T07:30:22.000Z</time>
        <extensions>
          <ns3:TrackPointExtension>
            <ns3:hr>76</ns3:hr>
            <ns3:cad>42</ns3:cad>
          </ns3:TrackPointExtension>
        </extensions>
      </trkpt>
      <trkpt lat="43.78104940988123416900634765625" lon="1.5756920166313648223876953125">
        <ele>125.8000030517578125</ele>
        <time>2026-08-13T07:30:23.000Z</time>
        <extensions>
          <ns3:TrackPointExtension>
            <ns3:hr>76</ns3:hr>
            <ns3:cad>41</ns3:cad>
          </ns3:TrackPointExtension>
        </extensions>
      </trkpt>
      <trkpt lat="43.78104354254901409149169921875" lon="1.57570098526775836944580078125">
        <ele>125.8000030517578125</ele>
        <time>2026-08-13T07:30:24.000Z</time>
        <extensions>
          <ns3:TrackPointExtension>
            <ns3:hr>75</ns3:hr>
            <ns3:cad>41</ns3:cad>
          </ns3:TrackPointExtension>
        </extensions>
      </trkpt>
      <trkpt lat="43.7810374237596988677978515625" lon="1.57571489922702312469482421875">
        <ele>125.8000030517578125</ele>
        <time>2026-08-13T07:30:25.000Z</time>
        <extensions>
          <ns3:TrackPointExtension>
            <ns3:hr>75</ns3:hr>
            <ns3:cad>43</ns3:cad>
          </ns3:TrackPointExtension>
        </extensions>
      </trkpt>
      <trkpt lat="43.78103281371295452117919921875" lon="1.575726382434368133544921875">
        <ele>125.8000030517578125</ele>
        <time>2026-08-13T07:30:26.000Z</time>
        <extensions>
          <ns3:TrackPointExtension>
            <ns3:hr>75</ns3:hr>
            <ns3:cad>43</ns3:cad>
          </ns3:TrackPointExtension>
        </extensions>
      </trkpt>
      <trkpt lat="43.78102786839008331298828125" lon="1.5757374465465545654296875">
        <ele>125.8000030517578125</ele>
        <time>2026-08-13T07:30:27.000Z</time>
        <extensions>
          <ns3:TrackPointExtension>
            <ns3:hr>74</ns3:hr>
            <ns3:cad>44</ns3:cad>
          </ns3:TrackPointExtension>
        </extensions>
      </trkpt>
      <trkpt lat="43.78102258779108524322509765625" lon="1.57574524171650409698486328125">
        <ele>125.8000030517578125</ele>
        <time>2026-08-13T07:30:28.000Z</time>
        <extensions>
          <ns3:TrackPointExtension>
            <ns3:hr>74</ns3:hr>
            <ns3:cad>44</ns3:cad>
          </ns3:TrackPointExtension>
        </extensions>
      </trkpt>
      <trkpt lat="43.78101571463048458099365234375" lon="1.5757620893418788909912109375">
        <ele>125.8000030517578125</ele>
        <time>2026-08-13T07:30:29.000Z</time>
        <extensions>
          <ns3:TrackPointExtension>
            <ns3:hr>74</ns3:hr>
            <ns3:cad>44</ns3:cad>
          </ns3:TrackPointExtension>
        </extensions>
      </trkpt>
      <trkpt lat="43.78101102076470851898193359375" lon="1.57577508129179477691650390625">
        <ele>125.8000030517578125</ele>
        <time>2026-08-13T07:30:30.000Z</time>
        <extensions>
          <ns3:TrackPointExtension>
            <ns3:hr>74</ns3:hr>
            <ns3:cad>44</ns3:cad>
          </ns3:TrackPointExtension>
        </extensions>
      </trkpt>
      <trkpt lat="43.7810072489082813262939453125" lon="1.575784385204315185546875">
        <ele>125.8000030517578125</ele>
        <time>2026-08-13T07:30:31.000Z</time>
        <extensions>
          <ns3:TrackPointExtension>
            <ns3:hr>73</ns3:hr>
            <ns3:cad>44</ns3:cad>
          </ns3:TrackPointExtension>
        </extensions>
      </trkpt>
      <trkpt lat="43.781003393232822418212890625" lon="1.575793437659740447998046875">
        <ele>125.8000030517578125</ele>
        <time>2026-08-13T07:30:32.000Z</time>
        <extensions>
          <ns3:TrackPointExtension>
            <ns3:hr>73</ns3:hr>
            <ns3:cad>45</ns3:cad>
          </ns3:TrackPointExtension>
        </extensions>
      </trkpt>
      <trkpt lat="43.780997693538665771484375" lon="1.57580651342868804931640625">
        <ele>125.8000030517578125</ele>
        <time>2026-08-13T07:30:33.000Z</time>
        <extensions>
          <ns3:TrackPointExtension>
            <ns3:hr>73</ns3:hr>
            <ns3:cad>46</ns3:cad>
          </ns3:TrackPointExtension>
        </extensions>
      </trkpt>
      <trkpt lat="43.78099325112998485565185546875" lon="1.57581296749413013458251953125">
        <ele>125.8000030517578125</ele>
        <time>2026-08-13T07:30:34.000Z</time>
        <extensions>
          <ns3:TrackPointExtension>
            <ns3:hr>73</ns3:hr>
            <ns3:cad>46</ns3:cad>
          </ns3:TrackPointExtension>
        </extensions>
      </trkpt>
      <trkpt lat="43.7809958495199680328369140625" lon="1.575833000242710113525390625">
        <ele>125.8000030517578125</ele>
        <time>2026-08-13T07:30:35.000Z</time>
        <extensions>
          <ns3:TrackPointExtension>
            <ns3:hr>74</ns3:hr>
            <ns3:cad>46</ns3:cad>
          </ns3:TrackPointExtension>
        </extensions>
      </trkpt>
      <trkpt lat="43.7809914909303188323974609375" lon="1.57583928667008876800537109375">
        <ele>125.8000030517578125</ele>
        <time>2026-08-13T07:30:36.000Z</time>
        <extensions>
          <ns3:TrackPointExtension>
            <ns3:hr>74</ns3:hr>
            <ns3:cad>46</ns3:cad>
          </ns3:TrackPointExtension>
        </extensions>
      </trkpt>
      <trkpt lat="43.78098788671195507049560546875" lon="1.57585487700998783111572265625">
        <ele>125.8000030517578125</ele>
        <time>2026-08-13T07:30:37.000Z</time>
        <extensions>
          <ns3:TrackPointExtension>
            <ns3:hr>74</ns3:hr>
            <ns3:cad>45</ns3:cad>
          </ns3:TrackPointExtension>
        </extensions>
      </trkpt>
      <trkpt lat="43.7809827737510204315185546875" lon="1.575861833989620208740234375">
        <ele>125.8000030517578125</ele>
        <time>2026-08-13T07:30:38.000Z</time>
        <extensions>
          <ns3:TrackPointExtension>
            <ns3:hr>74</ns3:hr>
            <ns3:cad>44</ns3:cad>
          </ns3:TrackPointExtension>
        </extensions>
      </trkpt>
      <trkpt lat="43.78098084591329097747802734375" lon="1.57587298192083835601806640625">
        <ele>125.8000030517578125</ele>
        <time>2026-08-13T07:30:39.000Z</time>
        <extensions>
          <ns3:TrackPointExtension>
            <ns3:hr>73</ns3:hr>
            <ns3:cad>43</ns3:cad>
          </ns3:TrackPointExtension>
        </extensions>
      </trkpt>
      <trkpt lat="43.78097447566688060760498046875" lon="1.57588873989880084991455078125">
        <ele>125.8000030517578125</ele>
        <time>2026-08-13T07:30:40.000Z</time>
        <extensions>
          <ns3:TrackPointExtension>
            <ns3:hr>74</ns3:hr>
            <ns3:cad>43</ns3:cad>
          </ns3:TrackPointExtension>
        </extensions>
      </trkpt>
      <trkpt lat="43.7809707038104534149169921875" lon="1.57590148039162158966064453125">
        <ele>125.8000030517578125</ele>
        <time>2026-08-13T07:30:41.000Z</time>
        <extensions>
          <ns3:TrackPointExtension>
            <ns3:hr>74</ns3:hr>
            <ns3:cad>43</ns3:cad>
          </ns3:TrackPointExtension>
        </extensions>
      </trkpt>
      <trkpt lat="43.7809666804969310760498046875" lon="1.57591321505606174468994140625">
        <ele>125.8000030517578125</ele>
        <time>2026-08-13T07:30:42.000Z</time>
        <extensions>
          <ns3:TrackPointExtension>
            <ns3:hr>74</ns3:hr>
            <ns3:cad>43</ns3:cad>
          </ns3:TrackPointExtension>
        </extensions>
      </trkpt>
      <trkpt lat="43.780964501202106475830078125" lon="1.575927548110485076904296875">
        <ele>125.8000030517578125</ele>
        <time>2026-08-13T07:30:43.000Z</time>
        <extensions>
          <ns3:TrackPointExtension>
            <ns3:hr>74</ns3:hr>
            <ns3:cad>43</ns3:cad>
          </ns3:TrackPointExtension>
        </extensions>
      </trkpt>
      <trkpt lat="43.78095938824117183685302734375" lon="1.57594489865005016326904296875">
        <ele>125.8000030517578125</ele>
        <time>2026-08-13T07:30:44.000Z</time>
        <extensions>
          <ns3:TrackPointExtension>
            <ns3:hr>74</ns3:hr>
            <ns3:cad>43</ns3:cad>
          </ns3:TrackPointExtension>
        </extensions>
      </trkpt>
      <trkpt lat="43.780953772366046905517578125" lon="1.57596032135188579559326171875">
        <ele>125.8000030517578125</ele>
        <time>2026-08-13T07:30:45.000Z</time>
        <extensions>
          <ns3:TrackPointExtension>
            <ns3:hr>74</ns3:hr>
            <ns3:cad>45</ns3:cad>
          </ns3:TrackPointExtension>
        </extensions>
      </trkpt>
      <trkpt lat="43.780946396291255950927734375" lon="1.57597540877759456634521484375">
        <ele>125.8000030517578125</ele>
        <time>2026-08-13T07:30:46.000Z</time>
        <extensions>
          <ns3:TrackPointExtension>
            <ns3:hr>74</ns3:hr>
            <ns3:cad>47</ns3:cad>
          </ns3:TrackPointExtension>
        </extensions>
      </trkpt>
      <trkpt lat="43.780943043529987335205078125" lon="1.57598429359495639801025390625">
        <ele>125.59999847412109375</ele>
        <time>2026-08-13T07:30:47.000Z</time>
        <extensions>
          <ns3:TrackPointExtension>
            <ns3:hr>74</ns3:hr>
            <ns3:cad>47</ns3:cad>
          </ns3:TrackPointExtension>
        </extensions>
      </trkpt>
      <trkpt lat="43.7809401936829090118408203125" lon="1.57599468715488910675048828125">
        <ele>125.59999847412109375</ele>
        <time>2026-08-13T07:30:48.000Z</time>
        <extensions>
          <ns3:TrackPointExtension>
            <ns3:hr>75</ns3:hr>
            <ns3:cad>47</ns3:cad>
          </ns3:TrackPointExtension>
        </extensions>
      </trkpt>
      <trkpt lat="43.7809334881603717803955078125" lon="1.57601111568510532379150390625">
        <ele>125.59999847412109375</ele>
        <time>2026-08-13T07:30:49.000Z</time>
        <extensions>
          <ns3:TrackPointExtension>
            <ns3:hr>76</ns3:hr>
            <ns3:cad>47</ns3:cad>
          </ns3:TrackPointExtension>
        </extensions>
      </trkpt>
      <trkpt lat="43.780930303037166595458984375" lon="1.57602737657725811004638671875">
        <ele>125.59999847412109375</ele>
        <time>2026-08-13T07:30:50.000Z</time>
        <extensions>
          <ns3:TrackPointExtension>
            <ns3:hr>76</ns3:hr>
            <ns3:cad>47</ns3:cad>
          </ns3:TrackPointExtension>
        </extensions>
      </trkpt>
      <trkpt lat="43.7809239327907562255859375" lon="1.57603827305138111114501953125">
        <ele>125.59999847412109375</ele>
        <time>2026-08-13T07:30:51.000Z</time>
        <extensions>
          <ns3:TrackPointExtension>
            <ns3:hr>77</ns3:hr>
            <ns3:cad>46</ns3:cad>
          </ns3:TrackPointExtension>
        </extensions>
      </trkpt>
      <trkpt lat="43.78092183731496334075927734375" lon="1.57604481093585491180419921875">
        <ele>125.59999847412109375</ele>
        <time>2026-08-13T07:30:52.000Z</time>
        <extensions>
          <ns3:TrackPointExtension>
            <ns3:hr>77</ns3:hr>
            <ns3:cad>46</ns3:cad>
          </ns3:TrackPointExtension>
        </extensions>
      </trkpt>
      <trkpt lat="43.7809207476675510406494140625" lon="1.57605654560029506683349609375">
        <ele>125.59999847412109375</ele>
        <time>2026-08-13T07:30:53.000Z</time>
        <extensions>
          <ns3:TrackPointExtension>
            <ns3:hr>78</ns3:hr>
            <ns3:cad>46</ns3:cad>
          </ns3:TrackPointExtension>
        </extensions>
      </trkpt>
      <trkpt lat="43.7809212505817413330078125" lon="1.57606962136924266815185546875">
        <ele>125.59999847412109375</ele>
        <time>2026-08-13T07:30:54.000Z</time>
        <extensions>
          <ns3:TrackPointExtension>
            <ns3:hr>78</ns3:hr>
            <ns3:cad>46</ns3:cad>
          </ns3:TrackPointExtension>
        </extensions>
      </trkpt>
      <trkpt lat="43.78092049621045589447021484375" lon="1.57608001492917537689208984375">
        <ele>125.59999847412109375</ele>
        <time>2026-08-13T07:30:55.000Z</time>
        <extensions>
          <ns3:TrackPointExtension>
            <ns3:hr>78</ns3:hr>
            <ns3:cad>45</ns3:cad>
          </ns3:TrackPointExtension>
        </extensions>
      </trkpt>
      <trkpt lat="43.7809153832495212554931640625" lon="1.57609560526907444000244140625">
        <ele>125.59999847412109375</ele>
        <time>2026-08-13T07:30:56.000Z</time>
        <extensions>
          <ns3:TrackPointExtension>
            <ns3:hr>79</ns3:hr>
            <ns3:cad>45</ns3:cad>
          </ns3:TrackPointExtension>
        </extensions>
      </trkpt>
      <trkpt lat="43.78090892918407917022705078125" lon="1.576107926666736602783203125">
        <ele>125.59999847412109375</ele>
        <time>2026-08-13T07:30:57.000Z</time>
        <extensions>
          <ns3:TrackPointExtension>
            <ns3:hr>78</ns3:hr>
            <ns3:cad>45</ns3:cad>
          </ns3:TrackPointExtension>
        </extensions>
      </trkpt>
      <trkpt lat="43.78090180456638336181640625" lon="1.57612024806439876556396484375">
        <ele>125.59999847412109375</ele>
        <time>2026-08-13T07:30:58.000Z</time>
        <extensions>
          <ns3:TrackPointExtension>
            <ns3:hr>77</ns3:hr>
            <ns3:cad>45</ns3:cad>
          </ns3:TrackPointExtension>
        </extensions>
      </trkpt>
      <trkpt lat="43.78089887090027332305908203125" lon="1.5761305578052997589111328125">
        <ele>125.59999847412109375</ele>
        <time>2026-08-13T07:30:59.000Z</time>
        <extensions>
          <ns3:TrackPointExtension>
            <ns3:hr>77</ns3:hr>
            <ns3:cad>45</ns3:cad>
          </ns3:TrackPointExtension>
        </extensions>
      </trkpt>
      <trkpt lat="43.7808952666819095611572265625" lon="1.57614438794553279876708984375">
        <ele>125.59999847412109375</ele>
        <time>2026-08-13T07:31:00.000Z</time>
        <extensions>
          <ns3:TrackPointExtension>
            <ns3:hr>78</ns3:hr>
            <ns3:cad>46</ns3:cad>
          </ns3:TrackPointExtension>
        </extensions>
      </trkpt>
      <trkpt lat="43.78089250065386295318603515625" lon="1.5761577151715755462646484375">
        <ele>125.59999847412109375</ele>
        <time>2026-08-13T07:31:01.000Z</time>
        <extensions>
          <ns3:TrackPointExtension>
            <ns3:hr>79</ns3:hr>
            <ns3:cad>46</ns3:cad>
          </ns3:TrackPointExtension>
        </extensions>
      </trkpt>
      <trkpt lat="43.7808888964354991912841796875" lon="1.576170623302459716796875">
        <ele>125.59999847412109375</ele>
        <time>2026-08-13T07:31:02.000Z</time>
        <extensions>
          <ns3:TrackPointExtension>
            <ns3:hr>79</ns3:hr>
            <ns3:cad>46</ns3:cad>
          </ns3:TrackPointExtension>
        </extensions>
      </trkpt>
      <trkpt lat="43.7808836996555328369140625" lon="1.5761828608810901641845703125">
        <ele>125.59999847412109375</ele>
        <time>2026-08-13T07:31:03.000Z</time>
        <extensions>
          <ns3:TrackPointExtension>
            <ns3:hr>79</ns3:hr>
            <ns3:cad>46</ns3:cad>
          </ns3:TrackPointExtension>
        </extensions>
      </trkpt>
      <trkpt lat="43.7808791734278202056884765625" lon="1.5761939249932765960693359375">
        <ele>125.59999847412109375</ele>
        <time>2026-08-13T07:31:04.000Z</time>
        <extensions>
          <ns3:TrackPointExtension>
            <ns3:hr>79</ns3:hr>
            <ns3:cad>46</ns3:cad>
          </ns3:TrackPointExtension>
        </extensions>
      </trkpt>
      <trkpt lat="43.78087556920945644378662109375" lon="1.5762053243815898895263671875">
        <ele>125.59999847412109375</ele>
        <time>2026-08-13T07:31:05.000Z</time>
        <extensions>
          <ns3:TrackPointExtension>
            <ns3:hr>79</ns3:hr>
            <ns3:cad>46</ns3:cad>
          </ns3:TrackPointExtension>
        </extensions>
      </trkpt>
      <trkpt lat="43.78086986951529979705810546875" lon="1.57622066326439380645751953125">
        <ele>125.59999847412109375</ele>
        <time>2026-08-13T07:31:06.000Z</time>
        <extensions>
          <ns3:TrackPointExtension>
            <ns3:hr>79</ns3:hr>
            <ns3:cad>46</ns3:cad>
          </ns3:TrackPointExtension>
        </extensions>
      </trkpt>
      <trkpt lat="43.7808644212782382965087890625" lon="1.57623440958559513092041015625">
        <ele>125.59999847412109375</ele>
        <time>2026-08-13T07:31:07.000Z</time>
        <extensions>
          <ns3:TrackPointExtension>
            <ns3:hr>79</ns3:hr>
            <ns3:cad>46</ns3:cad>
          </ns3:TrackPointExtension>
        </extensions>
      </trkpt>
      <trkpt lat="43.78085880540311336517333984375" lon="1.57624865882098674774169921875">
        <ele>125.59999847412109375</ele>
        <time>2026-08-13T07:31:08.000Z</time>
        <extensions>
          <ns3:TrackPointExtension>
            <ns3:hr>79</ns3:hr>
            <ns3:cad>45</ns3:cad>
          </ns3:TrackPointExtension>
        </extensions>
      </trkpt>
      <trkpt lat="43.780853189527988433837890625" lon="1.5762629918754100799560546875">
        <ele>125.59999847412109375</ele>
        <time>2026-08-13T07:31:09.000Z</time>
        <extensions>
          <ns3:TrackPointExtension>
            <ns3:hr>79</ns3:hr>
            <ns3:cad>45</ns3:cad>
          </ns3:TrackPointExtension>
        </extensions>
      </trkpt>
      <trkpt lat="43.78084874711930751800537109375" lon="1.5762753970921039581298828125">
        <ele>125.59999847412109375</ele>
        <time>2026-08-13T07:31:10.000Z</time>
        <extensions>
          <ns3:TrackPointExtension>
            <ns3:hr>79</ns3:hr>
            <ns3:cad>45</ns3:cad>
          </ns3:TrackPointExtension>
        </extensions>
      </trkpt>
      <trkpt lat="43.7808469869196414947509765625" lon="1.5762867964804172515869140625">
        <ele>125.59999847412109375</ele>
        <time>2026-08-13T07:31:11.000Z</time>
        <extensions>
          <ns3:TrackPointExtension>
            <ns3:hr>80</ns3:hr>
            <ns3:cad>44</ns3:cad>
          </ns3:TrackPointExtension>
        </extensions>
      </trkpt>
      <trkpt lat="43.7808399461209774017333984375" lon="1.57629878260195255279541015625">
        <ele>125.40000152587890625</ele>
        <time>2026-08-13T07:31:12.000Z</time>
        <extensions>
          <ns3:TrackPointExtension>
            <ns3:hr>80</ns3:hr>
            <ns3:cad>44</ns3:cad>
          </ns3:TrackPointExtension>
        </extensions>
      </trkpt>
      <trkpt lat="43.78083231858909130096435546875" lon="1.57631152309477329254150390625">
        <ele>125.40000152587890625</ele>
        <time>2026-08-13T07:31:13.000Z</time>
        <extensions>
          <ns3:TrackPointExtension>
            <ns3:hr>80</ns3:hr>
            <ns3:cad>44</ns3:cad>
          </ns3:TrackPointExtension>
        </extensions>
      </trkpt>
      <trkpt lat="43.78082678653299808502197265625" lon="1.5763206593692302703857421875">
        <ele>125.40000152587890625</ele>
        <time>2026-08-13T07:31:14.000Z</time>
        <extensions>
          <ns3:TrackPointExtension>
            <ns3:hr>80</ns3:hr>
            <ns3:cad>44</ns3:cad>
          </ns3:TrackPointExtension>
        </extensions>
      </trkpt>
      <trkpt lat="43.78082360140979290008544921875" lon="1.5763280354440212249755859375">
        <ele>125.40000152587890625</ele>
        <time>2026-08-13T07:31:15.000Z</time>
        <extensions>
          <ns3:TrackPointExtension>
            <ns3:hr>80</ns3:hr>
            <ns3:cad>45</ns3:cad>
          </ns3:TrackPointExtension>
        </extensions>
      </trkpt>
      <trkpt lat="43.78081798553466796875" lon="1.57634303905069828033447265625">
        <ele>125.40000152587890625</ele>
        <time>2026-08-13T07:31:16.000Z</time>
        <extensions>
          <ns3:TrackPointExtension>
            <ns3:hr>79</ns3:hr>
            <ns3:cad>43</ns3:cad>
          </ns3:TrackPointExtension>
        </extensions>
      </trkpt>
      <trkpt lat="43.7808124534785747528076171875" lon="1.576354019343852996826171875">
        <ele>125.40000152587890625</ele>
        <time>2026-08-13T07:31:17.000Z</time>
        <extensions>
          <ns3:TrackPointExtension>
            <ns3:hr>80</ns3:hr>
            <ns3:cad>43</ns3:cad>
          </ns3:TrackPointExtension>
        </extensions>
      </trkpt>
      <trkpt lat="43.78080784343183040618896484375" lon="1.57635896466672420501708984375">
        <ele>125.40000152587890625</ele>
        <time>2026-08-13T07:31:18.000Z</time>
        <extensions>
          <ns3:TrackPointExtension>
            <ns3:hr>79</ns3:hr>
            <ns3:cad>43</ns3:cad>
          </ns3:TrackPointExtension>
        </extensions>
      </trkpt>
      <trkpt lat="43.7808044068515300750732421875" lon="1.5763645805418491363525390625">
        <ele>125.40000152587890625</ele>
        <time>2026-08-13T07:31:19.000Z</time>
        <extensions>
          <ns3:TrackPointExtension>
            <ns3:hr>79</ns3:hr>
            <ns3:cad>43</ns3:cad>
          </ns3:TrackPointExtension>
        </extensions>
      </trkpt>
      <trkpt lat="43.780793510377407073974609375" lon="1.5763746388256549835205078125">
        <ele>125.40000152587890625</ele>
        <time>2026-08-13T07:31:20.000Z</time>
        <extensions>
          <ns3:TrackPointExtension>
            <ns3:hr>78</ns3:hr>
            <ns3:cad>43</ns3:cad>
          </ns3:TrackPointExtension>
        </extensions>
      </trkpt>
      <trkpt lat="43.780789487063884735107421875" lon="1.57638679258525371551513671875">
        <ele>125.40000152587890625</ele>
        <time>2026-08-13T07:31:21.000Z</time>
        <extensions>
          <ns3:TrackPointExtension>
            <ns3:hr>77</ns3:hr>
            <ns3:cad>44</ns3:cad>
          </ns3:TrackPointExtension>
        </extensions>
      </trkpt>
      <trkpt lat="43.7807852961122989654541015625" lon="1.5763960964977741241455078125">
        <ele>125.40000152587890625</ele>
        <time>2026-08-13T07:31:22.000Z</time>
        <extensions>
          <ns3:TrackPointExtension>
            <ns3:hr>77</ns3:hr>
            <ns3:cad>44</ns3:cad>
          </ns3:TrackPointExtension>
        </extensions>
      </trkpt>
      <trkpt lat="43.7807819433510303497314453125" lon="1.57640707679092884063720703125">
        <ele>125.40000152587890625</ele>
        <time>2026-08-13T07:31:23.000Z</time>
        <extensions>
          <ns3:TrackPointExtension>
            <ns3:hr>75</ns3:hr>
            <ns3:cad>44</ns3:cad>
          </ns3:TrackPointExtension>
        </extensions>
      </trkpt>
      <trkpt lat="43.7807790935039520263671875" lon="1.57642317004501819610595703125">
        <ele>125.40000152587890625</ele>
        <time>2026-08-13T07:31:24.000Z</time>
        <extensions>
          <ns3:TrackPointExtension>
            <ns3:hr>75</ns3:hr>
            <ns3:cad>44</ns3:cad>
          </ns3:TrackPointExtension>
        </extensions>
      </trkpt>
      <trkpt lat="43.78077632747590541839599609375" lon="1.57643808983266353607177734375">
        <ele>125.40000152587890625</ele>
        <time>2026-08-13T07:31:25.000Z</time>
        <extensions>
          <ns3:TrackPointExtension>
            <ns3:hr>75</ns3:hr>
            <ns3:cad>44</ns3:cad>
          </ns3:TrackPointExtension>
        </extensions>
      </trkpt>
      <trkpt lat="43.78077062778174877166748046875" lon="1.57644999213516712188720703125">
        <ele>125.1999969482421875</ele>
        <time>2026-08-13T07:31:26.000Z</time>
        <extensions>
          <ns3:TrackPointExtension>
            <ns3:hr>75</ns3:hr>
            <ns3:cad>44</ns3:cad>
          </ns3:TrackPointExtension>
        </extensions>
      </trkpt>
      <trkpt lat="43.7807658500969409942626953125" lon="1.57645837403833866119384765625">
        <ele>125.1999969482421875</ele>
        <time>2026-08-13T07:31:27.000Z</time>
        <extensions>
          <ns3:TrackPointExtension>
            <ns3:hr>75</ns3:hr>
            <ns3:cad>44</ns3:cad>
          </ns3:TrackPointExtension>
        </extensions>
      </trkpt>
      <trkpt lat="43.78076006658375263214111328125" lon="1.57647446729242801666259765625">
        <ele>125.1999969482421875</ele>
        <time>2026-08-13T07:31:28.000Z</time>
        <extensions>
          <ns3:TrackPointExtension>
            <ns3:hr>76</ns3:hr>
            <ns3:cad>44</ns3:cad>
          </ns3:TrackPointExtension>
        </extensions>
      </trkpt>
      <trkpt lat="43.780755288898944854736328125" lon="1.5764889679849147796630859375">
        <ele>125.1999969482421875</ele>
        <time>2026-08-13T07:31:29.000Z</time>
        <extensions>
          <ns3:TrackPointExtension>
            <ns3:hr>76</ns3:hr>
            <ns3:cad>46</ns3:cad>
          </ns3:TrackPointExtension>
        </extensions>
      </trkpt>
      <trkpt lat="43.78074891865253448486328125" lon="1.57649022527039051055908203125">
        <ele>125.1999969482421875</ele>
        <time>2026-08-13T07:31:30.000Z</time>
        <extensions>
          <ns3:TrackPointExtension>
            <ns3:hr>77</ns3:hr>
            <ns3:cad>46</ns3:cad>
          </ns3:TrackPointExtension>
        </extensions>
      </trkpt>
      <trkpt lat="43.78074464388191699981689453125" lon="1.57649039290845394134521484375">
        <ele>125.1999969482421875</ele>
        <time>2026-08-13T07:31:31.000Z</time>
        <extensions>
          <ns3:TrackPointExtension>
            <ns3:hr>77</ns3:hr>
            <ns3:cad>46</ns3:cad>
          </ns3:TrackPointExtension>
        </extensions>
      </trkpt>
      <trkpt lat="43.78073659725487232208251953125" lon="1.5765037201344966888427734375">
        <ele>125.1999969482421875</ele>
        <time>2026-08-13T07:31:32.000Z</time>
        <extensions>
          <ns3:TrackPointExtension>
            <ns3:hr>77</ns3:hr>
            <ns3:cad>46</ns3:cad>
          </ns3:TrackPointExtension>
        </extensions>
      </trkpt>
      <trkpt lat="43.780732490122318267822265625" lon="1.57651402987539768218994140625">
        <ele>125.1999969482421875</ele>
        <time>2026-08-13T07:31:33.000Z</time>
        <extensions>
          <ns3:TrackPointExtension>
            <ns3:hr>77</ns3:hr>
            <ns3:cad>45</ns3:cad>
          </ns3:TrackPointExtension>
        </extensions>
      </trkpt>
      <trkpt lat="43.78072720952332019805908203125" lon="1.576525010168552398681640625">
        <ele>125.1999969482421875</ele>
        <time>2026-08-13T07:31:34.000Z</time>
        <extensions>
          <ns3:TrackPointExtension>
            <ns3:hr>77</ns3:hr>
            <ns3:cad>43</ns3:cad>
          </ns3:TrackPointExtension>
        </extensions>
      </trkpt>
      <trkpt lat="43.78072385676205158233642578125" lon="1.57653682865202426910400390625">
        <ele>125.1999969482421875</ele>
        <time>2026-08-13T07:31:35.000Z</time>
        <extensions>
          <ns3:TrackPointExtension>
            <ns3:hr>76</ns3:hr>
            <ns3:cad>43</ns3:cad>
          </ns3:TrackPointExtension>
        </extensions>
      </trkpt>
      <trkpt lat="43.78071849234402179718017578125" lon="1.5765526704490184783935546875">
        <ele>125</ele>
        <time>2026-08-13T07:31:36.000Z</time>
        <extensions>
          <ns3:TrackPointExtension>
            <ns3:hr>76</ns3:hr>
            <ns3:cad>43</ns3:cad>
          </ns3:TrackPointExtension>
        </extensions>
      </trkpt>
      <trkpt lat="43.7807138822972774505615234375" lon="1.57656515948474407196044921875">
        <ele>125</ele>
        <time>2026-08-13T07:31:37.000Z</time>
        <extensions>
          <ns3:TrackPointExtension>
            <ns3:hr>75</ns3:hr>
            <ns3:cad>44</ns3:cad>
          </ns3:TrackPointExtension>
        </extensions>
      </trkpt>
      <trkpt lat="43.78071027807891368865966796875" lon="1.57657228410243988037109375">
        <ele>125</ele>
        <time>2026-08-13T07:31:38.000Z</time>
        <extensions>
          <ns3:TrackPointExtension>
            <ns3:hr>76</ns3:hr>
            <ns3:cad>44</ns3:cad>
          </ns3:TrackPointExtension>
        </extensions>
      </trkpt>
      <trkpt lat="43.780708014965057373046875" lon="1.57658695243299007415771484375">
        <ele>125</ele>
        <time>2026-08-13T07:31:39.000Z</time>
        <extensions>
          <ns3:TrackPointExtension>
            <ns3:hr>76</ns3:hr>
            <ns3:cad>44</ns3:cad>
          </ns3:TrackPointExtension>
        </extensions>
      </trkpt>
      <trkpt lat="43.78070189617574214935302734375" lon="1.5766012854874134063720703125">
        <ele>125</ele>
        <time>2026-08-13T07:31:40.000Z</time>
        <extensions>
          <ns3:TrackPointExtension>
            <ns3:hr>76</ns3:hr>
            <ns3:cad>46</ns3:cad>
          </ns3:TrackPointExtension>
        </extensions>
      </trkpt>
      <trkpt lat="43.78069602884352207183837890625" lon="1.57661125995218753814697265625">
        <ele>125</ele>
        <time>2026-08-13T07:31:41.000Z</time>
        <extensions>
          <ns3:TrackPointExtension>
            <ns3:hr>76</ns3:hr>
            <ns3:cad>46</ns3:cad>
          </ns3:TrackPointExtension>
        </extensions>
      </trkpt>
      <trkpt lat="43.7806937657296657562255859375" lon="1.57661855220794677734375">
        <ele>125</ele>
        <time>2026-08-13T07:31:42.000Z</time>
        <extensions>
          <ns3:TrackPointExtension>
            <ns3:hr>75</ns3:hr>
            <ns3:cad>46</ns3:cad>
          </ns3:TrackPointExtension>
        </extensions>
      </trkpt>
      <trkpt lat="43.7806917540729045867919921875" lon="1.57663204707205295562744140625">
        <ele>125</ele>
        <time>2026-08-13T07:31:43.000Z</time>
        <extensions>
          <ns3:TrackPointExtension>
            <ns3:hr>75</ns3:hr>
            <ns3:cad>44</ns3:cad>
          </ns3:TrackPointExtension>
        </extensions>
      </trkpt>
      <trkpt lat="43.78068731166422367095947265625" lon="1.57664981670677661895751953125">
        <ele>125</ele>
        <time>2026-08-13T07:31:44.000Z</time>
        <extensions>
          <ns3:TrackPointExtension>
            <ns3:hr>75</ns3:hr>
            <ns3:cad>43</ns3:cad>
          </ns3:TrackPointExtension>
        </extensions>
      </trkpt>
      <trkpt lat="43.7806830368936061859130859375" lon="1.57666347920894622802734375">
        <ele>125</ele>
        <time>2026-08-13T07:31:45.000Z</time>
        <extensions>
          <ns3:TrackPointExtension>
            <ns3:hr>75</ns3:hr>
            <ns3:cad>43</ns3:cad>
          </ns3:TrackPointExtension>
        </extensions>
      </trkpt>
      <trkpt lat="43.7806796841323375701904296875" lon="1.5766706876456737518310546875">
        <ele>125</ele>
        <time>2026-08-13T07:31:46.000Z</time>
        <extensions>
          <ns3:TrackPointExtension>
            <ns3:hr>75</ns3:hr>
            <ns3:cad>43</ns3:cad>
          </ns3:TrackPointExtension>
        </extensions>
      </trkpt>
      <trkpt lat="43.78067473880946636199951171875" lon="1.57668627798557281494140625">
        <ele>125</ele>
        <time>2026-08-13T07:31:47.000Z</time>
        <extensions>
          <ns3:TrackPointExtension>
            <ns3:hr>75</ns3:hr>
            <ns3:cad>44</ns3:cad>
          </ns3:TrackPointExtension>
        </extensions>
      </trkpt>
      <trkpt lat="43.7806718051433563232421875" lon="1.5766998566687107086181640625">
        <ele>124.8000030517578125</ele>
        <time>2026-08-13T07:31:48.000Z</time>
        <extensions>
          <ns3:TrackPointExtension>
            <ns3:hr>75</ns3:hr>
            <ns3:cad>44</ns3:cad>
          </ns3:TrackPointExtension>
        </extensions>
      </trkpt>
      <trkpt lat="43.7806666083633899688720703125" lon="1.576713435351848602294921875">
        <ele>124.8000030517578125</ele>
        <time>2026-08-13T07:31:49.000Z</time>
        <extensions>
          <ns3:TrackPointExtension>
            <ns3:hr>75</ns3:hr>
            <ns3:cad>46</ns3:cad>
          </ns3:TrackPointExtension>
        </extensions>
      </trkpt>
      <trkpt lat="43.78066535107791423797607421875" lon="1.57672458328306674957275390625">
        <ele>124.8000030517578125</ele>
        <time>2026-08-13T07:31:50.000Z</time>
        <extensions>
          <ns3:TrackPointExtension>
            <ns3:hr>75</ns3:hr>
            <ns3:cad>46</ns3:cad>
          </ns3:TrackPointExtension>
        </extensions>
      </trkpt>
      <trkpt lat="43.78066283650696277618408203125" lon="1.57674017362296581268310546875">
        <ele>124.8000030517578125</ele>
        <time>2026-08-13T07:31:51.000Z</time>
        <extensions>
          <ns3:TrackPointExtension>
            <ns3:hr>75</ns3:hr>
            <ns3:cad>44</ns3:cad>
          </ns3:TrackPointExtension>
        </extensions>
      </trkpt>
      <trkpt lat="43.78066216595470905303955078125" lon="1.57675266265869140625">
        <ele>124.8000030517578125</ele>
        <time>2026-08-13T07:31:52.000Z</time>
        <extensions>
          <ns3:TrackPointExtension>
            <ns3:hr>75</ns3:hr>
            <ns3:cad>44</ns3:cad>
          </ns3:TrackPointExtension>
        </extensions>
      </trkpt>
      <trkpt lat="43.7806582264602184295654296875" lon="1.576763056218624114990234375">
        <ele>124.8000030517578125</ele>
        <time>2026-08-13T07:31:53.000Z</time>
        <extensions>
          <ns3:TrackPointExtension>
            <ns3:hr>75</ns3:hr>
            <ns3:cad>44</ns3:cad>
          </ns3:TrackPointExtension>
        </extensions>
      </trkpt>
      <trkpt lat="43.78065613098442554473876953125" lon="1.57677688635885715484619140625">
        <ele>125</ele>
        <time>2026-08-13T07:31:54.000Z</time>
        <extensions>
          <ns3:TrackPointExtension>
            <ns3:hr>75</ns3:hr>
            <ns3:cad>45</ns3:cad>
          </ns3:TrackPointExtension>
        </extensions>
      </trkpt>
      <trkpt lat="43.78065168857574462890625" lon="1.57679482363164424896240234375">
        <ele>125</ele>
        <time>2026-08-13T07:31:55.000Z</time>
        <extensions>
          <ns3:TrackPointExtension>
            <ns3:hr>75</ns3:hr>
            <ns3:cad>45</ns3:cad>
          </ns3:TrackPointExtension>
        </extensions>
      </trkpt>
      <trkpt lat="43.7806511856615543365478515625" lon="1.57681041397154331207275390625">
        <ele>125</ele>
        <time>2026-08-13T07:31:56.000Z</time>
        <extensions>
          <ns3:TrackPointExtension>
            <ns3:hr>75</ns3:hr>
            <ns3:cad>45</ns3:cad>
          </ns3:TrackPointExtension>
        </extensions>
      </trkpt>
      <trkpt lat="43.78064699470996856689453125" lon="1.57682248391211032867431640625">
        <ele>125</ele>
        <time>2026-08-13T07:31:57.000Z</time>
        <extensions>
          <ns3:TrackPointExtension>
            <ns3:hr>75</ns3:hr>
            <ns3:cad>45</ns3:cad>
          </ns3:TrackPointExtension>
        </extensions>
      </trkpt>
      <trkpt lat="43.78064163029193878173828125" lon="1.5768208913505077362060546875">
        <ele>125</ele>
        <time>2026-08-13T07:31:58.000Z</time>
        <extensions>
          <ns3:TrackPointExtension>
            <ns3:hr>75</ns3:hr>
            <ns3:cad>47</ns3:cad>
          </ns3:TrackPointExtension>
        </extensions>
      </trkpt>
      <trkpt lat="43.78063919954001903533935546875" lon="1.57682516612112522125244140625">
        <ele>125</ele>
        <time>2026-08-13T07:31:59.000Z</time>
        <extensions>
          <ns3:TrackPointExtension>
            <ns3:hr>75</ns3:hr>
            <ns3:cad>47</ns3:cad>
          </ns3:TrackPointExtension>
        </extensions>
      </trkpt>
      <trkpt lat="43.78064087592065334320068359375" lon="1.57682172954082489013671875">
        <ele>125</ele>
        <time>2026-08-13T07:32:00.000Z</time>
        <extensions>
          <ns3:TrackPointExtension>
            <ns3:hr>75</ns3:hr>
            <ns3:cad>47</ns3:cad>
          </ns3:TrackPointExtension>
        </extensions>
      </trkpt>
      <trkpt lat="43.78064028918743133544921875" lon="1.5768232382833957672119140625">
        <ele>125</ele>
        <time>2026-08-13T07:32:01.000Z</time>
        <extensions>
          <ns3:TrackPointExtension>
            <ns3:hr>75</ns3:hr>
            <ns3:cad>47</ns3:cad>
          </ns3:TrackPointExtension>
        </extensions>
      </trkpt>
      <trkpt lat="43.78064154647290706634521484375" lon="1.57682281918823719024658203125">
        <ele>125.1999969482421875</ele>
        <time>2026-08-13T07:32:02.000Z</time>
        <extensions>
          <ns3:TrackPointExtension>
            <ns3:hr>74</ns3:hr>
            <ns3:cad>47</ns3:cad>
          </ns3:TrackPointExtension>
        </extensions>
      </trkpt>
      <trkpt lat="43.7806407921016216278076171875" lon="1.57682214863598346710205078125">
        <ele>125.1999969482421875</ele>
        <time>2026-08-13T07:32:03.000Z</time>
        <extensions>
          <ns3:TrackPointExtension>
            <ns3:hr>74</ns3:hr>
            <ns3:cad>47</ns3:cad>
          </ns3:TrackPointExtension>
        </extensions>
      </trkpt>
      <trkpt lat="43.7806428037583827972412109375" lon="1.57682575285434722900390625">
        <ele>125.1999969482421875</ele>
        <time>2026-08-13T07:32:04.000Z</time>
        <extensions>
          <ns3:TrackPointExtension>
            <ns3:hr>73</ns3:hr>
            <ns3:cad>0</ns3:cad>
          </ns3:TrackPointExtension>
        </extensions>
      </trkpt>
      <trkpt lat="43.7806458212435245513916015625" lon="1.57682768069207668304443359375">
        <ele>125.1999969482421875</ele>
        <time>2026-08-13T07:32:05.000Z</time>
        <extensions>
          <ns3:TrackPointExtension>
            <ns3:hr>72</ns3:hr>
            <ns3:cad>0</ns3:cad>
          </ns3:TrackPointExtension>
        </extensions>
      </trkpt>
      <trkpt lat="43.78064959309995174407958984375" lon="1.57683312892913818359375">
        <ele>125.1999969482421875</ele>
        <time>2026-08-13T07:32:06.000Z</time>
        <extensions>
          <ns3:TrackPointExtension>
            <ns3:hr>72</ns3:hr>
            <ns3:cad>0</ns3:cad>
          </ns3:TrackPointExtension>
        </extensions>
      </trkpt>
      <trkpt lat="43.78065235912799835205078125" lon="1.57684184610843658447265625">
        <ele>125.1999969482421875</ele>
        <time>2026-08-13T07:32:07.000Z</time>
        <extensions>
          <ns3:TrackPointExtension>
            <ns3:hr>72</ns3:hr>
            <ns3:cad>0</ns3:cad>
          </ns3:TrackPointExtension>
        </extensions>
      </trkpt>
      <trkpt lat="43.7806538678705692291259765625" lon="1.57685115002095699310302734375">
        <ele>125.1999969482421875</ele>
        <time>2026-08-13T07:32:08.000Z</time>
        <extensions>
          <ns3:TrackPointExtension>
            <ns3:hr>73</ns3:hr>
            <ns3:cad>0</ns3:cad>
          </ns3:TrackPointExtension>
        </extensions>
      </trkpt>
      <trkpt lat="43.78065076656639575958251953125" lon="1.5768661536276340484619140625">
        <ele>125.1999969482421875</ele>
        <time>2026-08-13T07:32:09.000Z</time>
        <extensions>
          <ns3:TrackPointExtension>
            <ns3:hr>73</ns3:hr>
            <ns3:cad>0</ns3:cad>
          </ns3:TrackPointExtension>
        </extensions>
      </trkpt>
      <trkpt lat="43.7806501798331737518310546875" lon="1.57688333652913570404052734375">
        <ele>125</ele>
        <time>2026-08-13T07:32:10.000Z</time>
        <extensions>
          <ns3:TrackPointExtension>
            <ns3:hr>73</ns3:hr>
            <ns3:cad>0</ns3:cad>
          </ns3:TrackPointExtension>
        </extensions>
      </trkpt>
      <trkpt lat="43.78064707852900028228759765625" lon="1.57689817249774932861328125">
        <ele>125</ele>
        <time>2026-08-13T07:32:11.000Z</time>
        <extensions>
          <ns3:TrackPointExtension>
            <ns3:hr>73</ns3:hr>
            <ns3:cad>0</ns3:cad>
          </ns3:TrackPointExtension>
        </extensions>
      </trkpt>
      <trkpt lat="43.78064288757741451263427734375" lon="1.57690546475350856781005859375">
        <ele>124.8000030517578125</ele>
        <time>2026-08-13T07:32:12.000Z</time>
        <extensions>
          <ns3:TrackPointExtension>
            <ns3:hr>74</ns3:hr>
            <ns3:cad>42</ns3:cad>
          </ns3:TrackPointExtension>
        </extensions>
      </trkpt>
      <trkpt lat="43.78063735552132129669189453125" lon="1.57691870816051959991455078125">
        <ele>124.8000030517578125</ele>
        <time>2026-08-13T07:32:13.000Z</time>
        <extensions>
          <ns3:TrackPointExtension>
            <ns3:hr>73</ns3:hr>
            <ns3:cad>42</ns3:cad>
          </ns3:TrackPointExtension>
        </extensions>
      </trkpt>
      <trkpt lat="43.78063450567424297332763671875" lon="1.5769358910620212554931640625">
        <ele>124.8000030517578125</ele>
        <time>2026-08-13T07:32:14.000Z</time>
        <extensions>
          <ns3:TrackPointExtension>
            <ns3:hr>73</ns3:hr>
            <ns3:cad>42</ns3:cad>
          </ns3:TrackPointExtension>
        </extensions>
      </trkpt>
      <trkpt lat="43.7806307338178157806396484375" lon="1.5769482962787151336669921875">
        <ele>124.8000030517578125</ele>
        <time>2026-08-13T07:32:15.000Z</time>
        <extensions>
          <ns3:TrackPointExtension>
            <ns3:hr>73</ns3:hr>
            <ns3:cad>42</ns3:cad>
          </ns3:TrackPointExtension>
        </extensions>
      </trkpt>
      <trkpt lat="43.78062796778976917266845703125" lon="1.5769578516483306884765625">
        <ele>124.8000030517578125</ele>
        <time>2026-08-13T07:32:16.000Z</time>
        <extensions>
          <ns3:TrackPointExtension>
            <ns3:hr>73</ns3:hr>
            <ns3:cad>42</ns3:cad>
          </ns3:TrackPointExtension>
        </extensions>
      </trkpt>
      <trkpt lat="43.780622184276580810546875" lon="1.57697637565433979034423828125">
        <ele>124.8000030517578125</ele>
        <time>2026-08-13T07:32:17.000Z</time>
        <extensions>
          <ns3:TrackPointExtension>
            <ns3:hr>73</ns3:hr>
            <ns3:cad>43</ns3:cad>
          </ns3:TrackPointExtension>
        </extensions>
      </trkpt>
      <trkpt lat="43.78061740659177303314208984375" lon="1.57698844559490680694580078125">
        <ele>124.8000030517578125</ele>
        <time>2026-08-13T07:32:18.000Z</time>
        <extensions>
          <ns3:TrackPointExtension>
            <ns3:hr>74</ns3:hr>
            <ns3:cad>43</ns3:cad>
          </ns3:TrackPointExtension>
        </extensions>
      </trkpt>
      <trkpt lat="43.78061237744987010955810546875" lon="1.57699464820325374603271484375">
        <ele>125</ele>
        <time>2026-08-13T07:32:19.000Z</time>
        <extensions>
          <ns3:TrackPointExtension>
            <ns3:hr>74</ns3:hr>
            <ns3:cad>41</ns3:cad>
          </ns3:TrackPointExtension>
        </extensions>
      </trkpt>
      <trkpt lat="43.7806141376495361328125" lon="1.57700621522963047027587890625">
        <ele>125</ele>
        <time>2026-08-13T07:32:20.000Z</time>
        <extensions>
          <ns3:TrackPointExtension>
            <ns3:hr>74</ns3:hr>
            <ns3:cad>41</ns3:cad>
          </ns3:TrackPointExtension>
        </extensions>
      </trkpt>
      <trkpt lat="43.7806102819740772247314453125" lon="1.5770254097878932952880859375">
        <ele>125</ele>
        <time>2026-08-13T07:32:21.000Z</time>
        <extensions>
          <ns3:TrackPointExtension>
            <ns3:hr>74</ns3:hr>
            <ns3:cad>41</ns3:cad>
          </ns3:TrackPointExtension>
        </extensions>
      </trkpt>
      <trkpt lat="43.78060583956539630889892578125" lon="1.57703588716685771942138671875">
        <ele>125</ele>
        <time>2026-08-13T07:32:22.000Z</time>
        <extensions>
          <ns3:TrackPointExtension>
            <ns3:hr>74</ns3:hr>
            <ns3:cad>42</ns3:cad>
          </ns3:TrackPointExtension>
        </extensions>
      </trkpt>
      <trkpt lat="43.780603073537349700927734375" lon="1.57704711891710758209228515625">
        <ele>125</ele>
        <time>2026-08-13T07:32:23.000Z</time>
        <extensions>
          <ns3:TrackPointExtension>
            <ns3:hr>73</ns3:hr>
            <ns3:cad>42</ns3:cad>
          </ns3:TrackPointExtension>
        </extensions>
      </trkpt>
      <trkpt lat="43.7806005589663982391357421875" lon="1.5770606137812137603759765625">
        <ele>125</ele>
        <time>2026-08-13T07:32:24.000Z</time>
        <extensions>
          <ns3:TrackPointExtension>
            <ns3:hr>74</ns3:hr>
            <ns3:cad>43</ns3:cad>
          </ns3:TrackPointExtension>
        </extensions>
      </trkpt>
      <trkpt lat="43.7806002236902713775634765625" lon="1.577072851359844207763671875">
        <ele>125</ele>
        <time>2026-08-13T07:32:25.000Z</time>
        <extensions>
          <ns3:TrackPointExtension>
            <ns3:hr>74</ns3:hr>
            <ns3:cad>44</ns3:cad>
          </ns3:TrackPointExtension>
        </extensions>
      </trkpt>
      <trkpt lat="43.780600391328334808349609375" lon="1.57708332873880863189697265625">
        <ele>125</ele>
        <time>2026-08-13T07:32:26.000Z</time>
        <extensions>
          <ns3:TrackPointExtension>
            <ns3:hr>74</ns3:hr>
            <ns3:cad>42</ns3:cad>
          </ns3:TrackPointExtension>
        </extensions>
      </trkpt>
      <trkpt lat="43.78059963695704936981201171875" lon="1.57709020189940929412841796875">
        <ele>125</ele>
        <time>2026-08-13T07:32:27.000Z</time>
        <extensions>
          <ns3:TrackPointExtension>
            <ns3:hr>74</ns3:hr>
            <ns3:cad>42</ns3:cad>
          </ns3:TrackPointExtension>
        </extensions>
      </trkpt>
      <trkpt lat="43.7806012295186519622802734375" lon="1.5771005116403102874755859375">
        <ele>125</ele>
        <time>2026-08-13T07:32:28.000Z</time>
        <extensions>
          <ns3:TrackPointExtension>
            <ns3:hr>73</ns3:hr>
            <ns3:cad>42</ns3:cad>
          </ns3:TrackPointExtension>
        </extensions>
      </trkpt>
      <trkpt lat="43.78059846349060535430908203125" lon="1.57710872590541839599609375">
        <ele>125</ele>
        <time>2026-08-13T07:32:29.000Z</time>
        <extensions>
          <ns3:TrackPointExtension>
            <ns3:hr>73</ns3:hr>
            <ns3:cad>0</ns3:cad>
          </ns3:TrackPointExtension>
        </extensions>
      </trkpt>
      <trkpt lat="43.78059469163417816162109375" lon="1.57711769454181194305419921875">
        <ele>125</ele>
        <time>2026-08-13T07:32:30.000Z</time>
        <extensions>
          <ns3:TrackPointExtension>
            <ns3:hr>74</ns3:hr>
            <ns3:cad>0</ns3:cad>
          </ns3:TrackPointExtension>
        </extensions>
      </trkpt>
      <trkpt lat="43.7805925123393535614013671875" lon="1.5771320275962352752685546875">
        <ele>125</ele>
        <time>2026-08-13T07:32:31.000Z</time>
        <extensions>
          <ns3:TrackPointExtension>
            <ns3:hr>74</ns3:hr>
            <ns3:cad>0</ns3:cad>
          </ns3:TrackPointExtension>
        </extensions>
      </trkpt>
      <trkpt lat="43.7805918417870998382568359375" lon="1.5771447680890560150146484375">
        <ele>125</ele>
        <time>2026-08-13T07:32:32.000Z</time>
        <extensions>
          <ns3:TrackPointExtension>
            <ns3:hr>74</ns3:hr>
            <ns3:cad>43</ns3:cad>
          </ns3:TrackPointExtension>
        </extensions>
      </trkpt>
      <trkpt lat="43.780589662492275238037109375" lon="1.5771497972309589385986328125">
        <ele>125</ele>
        <time>2026-08-13T07:32:33.000Z</time>
        <extensions>
          <ns3:TrackPointExtension>
            <ns3:hr>73</ns3:hr>
            <ns3:cad>43</ns3:cad>
          </ns3:TrackPointExtension>
        </extensions>
      </trkpt>
      <trkpt lat="43.78058488480746746063232421875" lon="1.577160358428955078125">
        <ele>125</ele>
        <time>2026-08-13T07:32:34.000Z</time>
        <extensions>
          <ns3:TrackPointExtension>
            <ns3:hr>73</ns3:hr>
            <ns3:cad>43</ns3:cad>
          </ns3:TrackPointExtension>
        </extensions>
      </trkpt>
      <trkpt lat="43.7805791012942790985107421875" lon="1.577173769474029541015625">
        <ele>125</ele>
        <time>2026-08-13T07:32:35.000Z</time>
        <extensions>
          <ns3:TrackPointExtension>
            <ns3:hr>72</ns3:hr>
            <ns3:cad>44</ns3:cad>
          </ns3:TrackPointExtension>
        </extensions>
      </trkpt>
      <trkpt lat="43.7805770896375179290771484375" lon="1.57718257047235965728759765625">
        <ele>125</ele>
        <time>2026-08-13T07:32:36.000Z</time>
        <extensions>
          <ns3:TrackPointExtension>
            <ns3:hr>73</ns3:hr>
            <ns3:cad>44</ns3:cad>
          </ns3:TrackPointExtension>
        </extensions>
      </trkpt>
      <trkpt lat="43.780572228133678436279296875" lon="1.577188186347484588623046875">
        <ele>125</ele>
        <time>2026-08-13T07:32:37.000Z</time>
        <extensions>
          <ns3:TrackPointExtension>
            <ns3:hr>74</ns3:hr>
            <ns3:cad>44</ns3:cad>
          </ns3:TrackPointExtension>
        </extensions>
      </trkpt>
      <trkpt lat="43.78056677989661693572998046875" lon="1.57720126211643218994140625">
        <ele>125</ele>
        <time>2026-08-13T07:32:38.000Z</time>
        <extensions>
          <ns3:TrackPointExtension>
            <ns3:hr>74</ns3:hr>
            <ns3:cad>44</ns3:cad>
          </ns3:TrackPointExtension>
        </extensions>
      </trkpt>
      <trkpt lat="43.7805656902492046356201171875" lon="1.57721442170441150665283203125">
        <ele>125</ele>
        <time>2026-08-13T07:32:39.000Z</time>
        <extensions>
          <ns3:TrackPointExtension>
            <ns3:hr>74</ns3:hr>
            <ns3:cad>44</ns3:cad>
          </ns3:TrackPointExtension>
        </extensions>
      </trkpt>
      <trkpt lat="43.780562169849872589111328125" lon="1.5772245638072490692138671875">
        <ele>125</ele>
        <time>2026-08-13T07:32:40.000Z</time>
        <extensions>
          <ns3:TrackPointExtension>
            <ns3:hr>76</ns3:hr>
            <ns3:cad>41</ns3:cad>
          </ns3:TrackPointExtension>
        </extensions>
      </trkpt>
      <trkpt lat="43.78055755980312824249267578125" lon="1.5772450156509876251220703125">
        <ele>125</ele>
        <time>2026-08-13T07:32:41.000Z</time>
        <extensions>
          <ns3:TrackPointExtension>
            <ns3:hr>77</ns3:hr>
            <ns3:cad>41</ns3:cad>
          </ns3:TrackPointExtension>
        </extensions>
      </trkpt>
      <trkpt lat="43.78055253066122531890869140625" lon="1.57725716941058635711669921875">
        <ele>125</ele>
        <time>2026-08-13T07:32:42.000Z</time>
        <extensions>
          <ns3:TrackPointExtension>
            <ns3:hr>77</ns3:hr>
            <ns3:cad>41</ns3:cad>
          </ns3:TrackPointExtension>
        </extensions>
      </trkpt>
      <trkpt lat="43.7805492617189884185791015625" lon="1.5772644616663455963134765625">
        <ele>125</ele>
        <time>2026-08-13T07:32:43.000Z</time>
        <extensions>
          <ns3:TrackPointExtension>
            <ns3:hr>78</ns3:hr>
            <ns3:cad>41</ns3:cad>
          </ns3:TrackPointExtension>
        </extensions>
      </trkpt>
      <trkpt lat="43.780545406043529510498046875" lon="1.57727946527302265167236328125">
        <ele>125</ele>
        <time>2026-08-13T07:32:44.000Z</time>
        <extensions>
          <ns3:TrackPointExtension>
            <ns3:hr>78</ns3:hr>
            <ns3:cad>40</ns3:cad>
          </ns3:TrackPointExtension>
        </extensions>
      </trkpt>
      <trkpt lat="43.7805385328829288482666015625" lon="1.5772949717938899993896484375">
        <ele>125</ele>
        <time>2026-08-13T07:32:45.000Z</time>
        <extensions>
          <ns3:TrackPointExtension>
            <ns3:hr>78</ns3:hr>
            <ns3:cad>40</ns3:cad>
          </ns3:TrackPointExtension>
        </extensions>
      </trkpt>
      <trkpt lat="43.78053367137908935546875" lon="1.577302850782871246337890625">
        <ele>124.8000030517578125</ele>
        <time>2026-08-13T07:32:46.000Z</time>
        <extensions>
          <ns3:TrackPointExtension>
            <ns3:hr>77</ns3:hr>
            <ns3:cad>40</ns3:cad>
          </ns3:TrackPointExtension>
        </extensions>
      </trkpt>
      <trkpt lat="43.7805294804275035858154296875" lon="1.57731257379055023193359375">
        <ele>124.8000030517578125</ele>
        <time>2026-08-13T07:32:47.000Z</time>
        <extensions>
          <ns3:TrackPointExtension>
            <ns3:hr>77</ns3:hr>
            <ns3:cad>42</ns3:cad>
          </ns3:TrackPointExtension>
        </extensions>
      </trkpt>
      <trkpt lat="43.78052352927625179290771484375" lon="1.57732606865465641021728515625">
        <ele>124.8000030517578125</ele>
        <time>2026-08-13T07:32:48.000Z</time>
        <extensions>
          <ns3:TrackPointExtension>
            <ns3:hr>77</ns3:hr>
            <ns3:cad>42</ns3:cad>
          </ns3:TrackPointExtension>
        </extensions>
      </trkpt>
      <trkpt lat="43.780522607266902923583984375" lon="1.57733763568103313446044921875">
        <ele>124.8000030517578125</ele>
        <time>2026-08-13T07:32:49.000Z</time>
        <extensions>
          <ns3:TrackPointExtension>
            <ns3:hr>77</ns3:hr>
            <ns3:cad>43</ns3:cad>
          </ns3:TrackPointExtension>
        </extensions>
      </trkpt>
      <trkpt lat="43.780520260334014892578125" lon="1.57734610140323638916015625">
        <ele>124.8000030517578125</ele>
        <time>2026-08-13T07:32:50.000Z</time>
        <extensions>
          <ns3:TrackPointExtension>
            <ns3:hr>78</ns3:hr>
            <ns3:cad>44</ns3:cad>
          </ns3:TrackPointExtension>
        </extensions>
      </trkpt>
      <trkpt lat="43.78051766194403171539306640625" lon="1.57735859043896198272705078125">
        <ele>124.59999847412109375</ele>
        <time>2026-08-13T07:32:51.000Z</time>
        <extensions>
          <ns3:TrackPointExtension>
            <ns3:hr>78</ns3:hr>
            <ns3:cad>44</ns3:cad>
          </ns3:TrackPointExtension>
        </extensions>
      </trkpt>
      <trkpt lat="43.780513890087604522705078125" lon="1.5773700736463069915771484375">
        <ele>124.59999847412109375</ele>
        <time>2026-08-13T07:32:52.000Z</time>
        <extensions>
          <ns3:TrackPointExtension>
            <ns3:hr>78</ns3:hr>
            <ns3:cad>44</ns3:cad>
          </ns3:TrackPointExtension>
        </extensions>
      </trkpt>
      <trkpt lat="43.78051212988793849945068359375" lon="1.57737853936851024627685546875">
        <ele>124.59999847412109375</ele>
        <time>2026-08-13T07:32:53.000Z</time>
        <extensions>
          <ns3:TrackPointExtension>
            <ns3:hr>78</ns3:hr>
            <ns3:cad>44</ns3:cad>
          </ns3:TrackPointExtension>
        </extensions>
      </trkpt>
      <trkpt lat="43.780510537326335906982421875" lon="1.577385999262332916259765625">
        <ele>124.59999847412109375</ele>
        <time>2026-08-13T07:32:54.000Z</time>
        <extensions>
          <ns3:TrackPointExtension>
            <ns3:hr>77</ns3:hr>
            <ns3:cad>46</ns3:cad>
          </ns3:TrackPointExtension>
        </extensions>
      </trkpt>
      <trkpt lat="43.78050710074603557586669921875" lon="1.5773905254900455474853515625">
        <ele>124.59999847412109375</ele>
        <time>2026-08-13T07:32:55.000Z</time>
        <extensions>
          <ns3:TrackPointExtension>
            <ns3:hr>78</ns3:hr>
            <ns3:cad>46</ns3:cad>
          </ns3:TrackPointExtension>
        </extensions>
      </trkpt>
      <trkpt lat="43.7805081903934478759765625" lon="1.57740385271608829498291015625">
        <ele>124.59999847412109375</ele>
        <time>2026-08-13T07:32:56.000Z</time>
        <extensions>
          <ns3:TrackPointExtension>
            <ns3:hr>78</ns3:hr>
            <ns3:cad>47</ns3:cad>
          </ns3:TrackPointExtension>
        </extensions>
      </trkpt>
      <trkpt lat="43.78050475381314754486083984375" lon="1.57741558738052845001220703125">
        <ele>124.59999847412109375</ele>
        <time>2026-08-13T07:32:57.000Z</time>
        <extensions>
          <ns3:TrackPointExtension>
            <ns3:hr>78</ns3:hr>
            <ns3:cad>47</ns3:cad>
          </ns3:TrackPointExtension>
        </extensions>
      </trkpt>
      <trkpt lat="43.78050022758543491363525390625" lon="1.57743000425398349761962890625">
        <ele>124.59999847412109375</ele>
        <time>2026-08-13T07:32:58.000Z</time>
        <extensions>
          <ns3:TrackPointExtension>
            <ns3:hr>78</ns3:hr>
            <ns3:cad>46</ns3:cad>
          </ns3:TrackPointExtension>
        </extensions>
      </trkpt>
      <trkpt lat="43.7804974615573883056640625" lon="1.5774414874613285064697265625">
        <ele>124.59999847412109375</ele>
        <time>2026-08-13T07:32:59.000Z</time>
        <extensions>
          <ns3:TrackPointExtension>
            <ns3:hr>78</ns3:hr>
            <ns3:cad>45</ns3:cad>
          </ns3:TrackPointExtension>
        </extensions>
      </trkpt>
      <trkpt lat="43.7804969586431980133056640625" lon="1.5774569101631641387939453125">
        <ele>124.59999847412109375</ele>
        <time>2026-08-13T07:33:00.000Z</time>
        <extensions>
          <ns3:TrackPointExtension>
            <ns3:hr>78</ns3:hr>
            <ns3:cad>45</ns3:cad>
          </ns3:TrackPointExtension>
        </extensions>
      </trkpt>
      <trkpt lat="43.78049436025321483612060546875" lon="1.5774716623127460479736328125">
        <ele>124.59999847412109375</ele>
        <time>2026-08-13T07:33:01.000Z</time>
        <extensions>
          <ns3:TrackPointExtension>
            <ns3:hr>78</ns3:hr>
            <ns3:cad>44</ns3:cad>
          </ns3:TrackPointExtension>
        </extensions>
      </trkpt>
      <trkpt lat="43.780491091310977935791015625" lon="1.57748297788202762603759765625">
        <ele>124.59999847412109375</ele>
        <time>2026-08-13T07:33:02.000Z</time>
        <extensions>
          <ns3:TrackPointExtension>
            <ns3:hr>78</ns3:hr>
            <ns3:cad>44</ns3:cad>
          </ns3:TrackPointExtension>
        </extensions>
      </trkpt>
      <trkpt lat="43.78048681654036045074462890625" lon="1.5774947963654994964599609375">
        <ele>124.59999847412109375</ele>
        <time>2026-08-13T07:33:03.000Z</time>
        <extensions>
          <ns3:TrackPointExtension>
            <ns3:hr>77</ns3:hr>
            <ns3:cad>44</ns3:cad>
          </ns3:TrackPointExtension>
        </extensions>
      </trkpt>
      <trkpt lat="43.78048279322683811187744140625" lon="1.57750627957284450531005859375">
        <ele>124.59999847412109375</ele>
        <time>2026-08-13T07:33:04.000Z</time>
        <extensions>
          <ns3:TrackPointExtension>
            <ns3:hr>78</ns3:hr>
            <ns3:cad>43</ns3:cad>
          </ns3:TrackPointExtension>
        </extensions>
      </trkpt>
      <trkpt lat="43.780479021370410919189453125" lon="1.57751399092376232147216796875">
        <ele>124.59999847412109375</ele>
        <time>2026-08-13T07:33:05.000Z</time>
        <extensions>
          <ns3:TrackPointExtension>
            <ns3:hr>78</ns3:hr>
            <ns3:cad>43</ns3:cad>
          </ns3:TrackPointExtension>
        </extensions>
      </trkpt>
      <trkpt lat="43.78047533333301544189453125" lon="1.57752505503594875335693359375">
        <ele>124.59999847412109375</ele>
        <time>2026-08-13T07:33:06.000Z</time>
        <extensions>
          <ns3:TrackPointExtension>
            <ns3:hr>78</ns3:hr>
            <ns3:cad>43</ns3:cad>
          </ns3:TrackPointExtension>
        </extensions>
      </trkpt>
      <trkpt lat="43.78047323785722255706787109375" lon="1.577534861862659454345703125">
        <ele>124.59999847412109375</ele>
        <time>2026-08-13T07:33:07.000Z</time>
        <extensions>
          <ns3:TrackPointExtension>
            <ns3:hr>78</ns3:hr>
            <ns3:cad>42</ns3:cad>
          </ns3:TrackPointExtension>
        </extensions>
      </trkpt>
      <trkpt lat="43.78046938218176364898681640625" lon="1.57754458487033843994140625">
        <ele>124.59999847412109375</ele>
        <time>2026-08-13T07:33:08.000Z</time>
        <extensions>
          <ns3:TrackPointExtension>
            <ns3:hr>78</ns3:hr>
            <ns3:cad>41</ns3:cad>
          </ns3:TrackPointExtension>
        </extensions>
      </trkpt>
      <trkpt lat="43.780466280877590179443359375" lon="1.57755489461123943328857421875">
        <ele>124.59999847412109375</ele>
        <time>2026-08-13T07:33:09.000Z</time>
        <extensions>
          <ns3:TrackPointExtension>
            <ns3:hr>79</ns3:hr>
            <ns3:cad>41</ns3:cad>
          </ns3:TrackPointExtension>
        </extensions>
      </trkpt>
      <trkpt lat="43.78046334721148014068603515625" lon="1.57756470143795013427734375">
        <ele>124.59999847412109375</ele>
        <time>2026-08-13T07:33:10.000Z</time>
        <extensions>
          <ns3:TrackPointExtension>
            <ns3:hr>79</ns3:hr>
            <ns3:cad>41</ns3:cad>
          </ns3:TrackPointExtension>
        </extensions>
      </trkpt>
      <trkpt lat="43.78046032972633838653564453125" lon="1.57757467590272426605224609375">
        <ele>124.40000152587890625</ele>
        <time>2026-08-13T07:33:11.000Z</time>
        <extensions>
          <ns3:TrackPointExtension>
            <ns3:hr>80</ns3:hr>
            <ns3:cad>0</ns3:cad>
          </ns3:TrackPointExtension>
        </extensions>
      </trkpt>
      <trkpt lat="43.7804573960602283477783203125" lon="1.57758473418653011322021484375">
        <ele>124.40000152587890625</ele>
        <time>2026-08-13T07:33:12.000Z</time>
        <extensions>
          <ns3:TrackPointExtension>
            <ns3:hr>80</ns3:hr>
            <ns3:cad>0</ns3:cad>
          </ns3:TrackPointExtension>
        </extensions>
      </trkpt>
      <trkpt lat="43.780454881489276885986328125" lon="1.57759512774646282196044921875">
        <ele>124.40000152587890625</ele>
        <time>2026-08-13T07:33:13.000Z</time>
        <extensions>
          <ns3:TrackPointExtension>
            <ns3:hr>80</ns3:hr>
            <ns3:cad>41</ns3:cad>
          </ns3:TrackPointExtension>
        </extensions>
      </trkpt>
      <trkpt lat="43.78045261837542057037353515625" lon="1.577605269849300384521484375">
        <ele>124.40000152587890625</ele>
        <time>2026-08-13T07:33:14.000Z</time>
        <extensions>
          <ns3:TrackPointExtension>
            <ns3:hr>80</ns3:hr>
            <ns3:cad>41</ns3:cad>
          </ns3:TrackPointExtension>
        </extensions>
      </trkpt>
      <trkpt lat="43.78045119345188140869140625" lon="1.577614657580852508544921875">
        <ele>124.40000152587890625</ele>
        <time>2026-08-13T07:33:15.000Z</time>
        <extensions>
          <ns3:TrackPointExtension>
            <ns3:hr>79</ns3:hr>
            <ns3:cad>41</ns3:cad>
          </ns3:TrackPointExtension>
        </extensions>
      </trkpt>
      <trkpt lat="43.7804464995861053466796875" lon="1.57762731425464153289794921875">
        <ele>124.40000152587890625</ele>
        <time>2026-08-13T07:33:16.000Z</time>
        <extensions>
          <ns3:TrackPointExtension>
            <ns3:hr>79</ns3:hr>
            <ns3:cad>41</ns3:cad>
          </ns3:TrackPointExtension>
        </extensions>
      </trkpt>
      <trkpt lat="43.780439794063568115234375" lon="1.5776396356523036956787109375">
        <ele>124.40000152587890625</ele>
        <time>2026-08-13T07:33:17.000Z</time>
        <extensions>
          <ns3:TrackPointExtension>
            <ns3:hr>79</ns3:hr>
            <ns3:cad>41</ns3:cad>
          </ns3:TrackPointExtension>
        </extensions>
      </trkpt>
      <trkpt lat="43.780435435473918914794921875" lon="1.57765296287834644317626953125">
        <ele>124.40000152587890625</ele>
        <time>2026-08-13T07:33:18.000Z</time>
        <extensions>
          <ns3:TrackPointExtension>
            <ns3:hr>79</ns3:hr>
            <ns3:cad>43</ns3:cad>
          </ns3:TrackPointExtension>
        </extensions>
      </trkpt>
      <trkpt lat="43.7804315797984600067138671875" lon="1.57766402699053287506103515625">
        <ele>124.40000152587890625</ele>
        <time>2026-08-13T07:33:19.000Z</time>
        <extensions>
          <ns3:TrackPointExtension>
            <ns3:hr>80</ns3:hr>
            <ns3:cad>43</ns3:cad>
          </ns3:TrackPointExtension>
        </extensions>
      </trkpt>
      <trkpt lat="43.78042814321815967559814453125" lon="1.577665619552135467529296875">
        <ele>124.40000152587890625</ele>
        <time>2026-08-13T07:33:20.000Z</time>
        <extensions>
          <ns3:TrackPointExtension>
            <ns3:hr>80</ns3:hr>
            <ns3:cad>43</ns3:cad>
          </ns3:TrackPointExtension>
        </extensions>
      </trkpt>
      <trkpt lat="43.78042194060981273651123046875" lon="1.577675342559814453125">
        <ele>124.40000152587890625</ele>
        <time>2026-08-13T07:33:21.000Z</time>
        <extensions>
          <ns3:TrackPointExtension>
            <ns3:hr>80</ns3:hr>
            <ns3:cad>0</ns3:cad>
          </ns3:TrackPointExtension>
        </extensions>
      </trkpt>
      <trkpt lat="43.78041506744921207427978515625" lon="1.577689759433269500732421875">
        <ele>124.59999847412109375</ele>
        <time>2026-08-13T07:33:22.000Z</time>
        <extensions>
          <ns3:TrackPointExtension>
            <ns3:hr>81</ns3:hr>
            <ns3:cad>43</ns3:cad>
          </ns3:TrackPointExtension>
        </extensions>
      </trkpt>
      <trkpt lat="43.780408613383769989013671875" lon="1.5777033381164073944091796875">
        <ele>124.59999847412109375</ele>
        <time>2026-08-13T07:33:23.000Z</time>
        <extensions>
          <ns3:TrackPointExtension>
            <ns3:hr>81</ns3:hr>
            <ns3:cad>43</ns3:cad>
          </ns3:TrackPointExtension>
        </extensions>
      </trkpt>
      <trkpt lat="43.78040299750864505767822265625" lon="1.577713228762149810791015625">
        <ele>124.59999847412109375</ele>
        <time>2026-08-13T07:33:24.000Z</time>
        <extensions>
          <ns3:TrackPointExtension>
            <ns3:hr>82</ns3:hr>
            <ns3:cad>43</ns3:cad>
          </ns3:TrackPointExtension>
        </extensions>
      </trkpt>
      <trkpt lat="43.780397213995456695556640625" lon="1.57772236503660678863525390625">
        <ele>124.59999847412109375</ele>
        <time>2026-08-13T07:33:25.000Z</time>
        <extensions>
          <ns3:TrackPointExtension>
            <ns3:hr>83</ns3:hr>
            <ns3:cad>0</ns3:cad>
          </ns3:TrackPointExtension>
        </extensions>
      </trkpt>
      <trkpt lat="43.78039084374904632568359375" lon="1.5777281485497951507568359375">
        <ele>124.40000152587890625</ele>
        <time>2026-08-13T07:33:26.000Z</time>
        <extensions>
          <ns3:TrackPointExtension>
            <ns3:hr>83</ns3:hr>
            <ns3:cad>0</ns3:cad>
          </ns3:TrackPointExtension>
        </extensions>
      </trkpt>
      <trkpt lat="43.7803843058645725250244140625" lon="1.57773443497717380523681640625">
        <ele>124.40000152587890625</ele>
        <time>2026-08-13T07:33:27.000Z</time>
        <extensions>
          <ns3:TrackPointExtension>
            <ns3:hr>83</ns3:hr>
            <ns3:cad>0</ns3:cad>
          </ns3:TrackPointExtension>
        </extensions>
      </trkpt>
      <trkpt lat="43.78037718124687671661376953125" lon="1.57774197869002819061279296875">
        <ele>124.40000152587890625</ele>
        <time>2026-08-13T07:33:28.000Z</time>
        <extensions>
          <ns3:TrackPointExtension>
            <ns3:hr>83</ns3:hr>
            <ns3:cad>0</ns3:cad>
          </ns3:TrackPointExtension>
        </extensions>
      </trkpt>
      <trkpt lat="43.7803712300956249237060546875" lon="1.5777475945651531219482421875">
        <ele>124.40000152587890625</ele>
        <time>2026-08-13T07:33:29.000Z</time>
        <extensions>
          <ns3:TrackPointExtension>
            <ns3:hr>83</ns3:hr>
            <ns3:cad>0</ns3:cad>
          </ns3:TrackPointExtension>
        </extensions>
      </trkpt>
      <trkpt lat="43.7803641892969608306884765625" lon="1.57775656320154666900634765625">
        <ele>124.40000152587890625</ele>
        <time>2026-08-13T07:33:30.000Z</time>
        <extensions>
          <ns3:TrackPointExtension>
            <ns3:hr>83</ns3:hr>
            <ns3:cad>0</ns3:cad>
          </ns3:TrackPointExtension>
        </extensions>
      </trkpt>
      <trkpt lat="43.78035807050764560699462890625" lon="1.5777640230953693389892578125">
        <ele>124.40000152587890625</ele>
        <time>2026-08-13T07:33:31.000Z</time>
        <extensions>
          <ns3:TrackPointExtension>
            <ns3:hr>83</ns3:hr>
            <ns3:cad>42</ns3:cad>
          </ns3:TrackPointExtension>
        </extensions>
      </trkpt>
      <trkpt lat="43.780350275337696075439453125" lon="1.57777399756014347076416015625">
        <ele>124.40000152587890625</ele>
        <time>2026-08-13T07:33:32.000Z</time>
        <extensions>
          <ns3:TrackPointExtension>
            <ns3:hr>83</ns3:hr>
            <ns3:cad>41</ns3:cad>
          </ns3:TrackPointExtension>
        </extensions>
      </trkpt>
      <trkpt lat="43.78034390509128570556640625" lon="1.57778036780655384063720703125">
        <ele>124.40000152587890625</ele>
        <time>2026-08-13T07:33:33.000Z</time>
        <extensions>
          <ns3:TrackPointExtension>
            <ns3:hr>83</ns3:hr>
            <ns3:cad>41</ns3:cad>
          </ns3:TrackPointExtension>
        </extensions>
      </trkpt>
      <trkpt lat="43.780338205397129058837890625" lon="1.577782966196537017822265625">
        <ele>124.40000152587890625</ele>
        <time>2026-08-13T07:33:34.000Z</time>
        <extensions>
          <ns3:TrackPointExtension>
            <ns3:hr>83</ns3:hr>
            <ns3:cad>41</ns3:cad>
          </ns3:TrackPointExtension>
        </extensions>
      </trkpt>
      <trkpt lat="43.78033393062651157379150390625" lon="1.5778009034693241119384765625">
        <ele>124.40000152587890625</ele>
        <time>2026-08-13T07:33:35.000Z</time>
        <extensions>
          <ns3:TrackPointExtension>
            <ns3:hr>82</ns3:hr>
            <ns3:cad>41</ns3:cad>
          </ns3:TrackPointExtension>
        </extensions>
      </trkpt>
      <trkpt lat="43.7803266383707523345947265625" lon="1.57780668698251247406005859375">
        <ele>124.40000152587890625</ele>
        <time>2026-08-13T07:33:36.000Z</time>
        <extensions>
          <ns3:TrackPointExtension>
            <ns3:hr>81</ns3:hr>
            <ns3:cad>41</ns3:cad>
          </ns3:TrackPointExtension>
        </extensions>
      </trkpt>
      <trkpt lat="43.7803209386765956878662109375" lon="1.57781154848635196685791015625">
        <ele>124.40000152587890625</ele>
        <time>2026-08-13T07:33:37.000Z</time>
        <extensions>
          <ns3:TrackPointExtension>
            <ns3:hr>81</ns3:hr>
            <ns3:cad>41</ns3:cad>
          </ns3:TrackPointExtension>
        </extensions>
      </trkpt>
      <trkpt lat="43.78031448461115360260009765625" lon="1.57781858928501605987548828125">
        <ele>124.40000152587890625</ele>
        <time>2026-08-13T07:33:38.000Z</time>
        <extensions>
          <ns3:TrackPointExtension>
            <ns3:hr>81</ns3:hr>
            <ns3:cad>0</ns3:cad>
          </ns3:TrackPointExtension>
        </extensions>
      </trkpt>
      <trkpt lat="43.780310042202472686767578125" lon="1.57782747410237789154052734375">
        <ele>124.40000152587890625</ele>
        <time>2026-08-13T07:33:39.000Z</time>
        <extensions>
          <ns3:TrackPointExtension>
            <ns3:hr>81</ns3:hr>
            <ns3:cad>0</ns3:cad>
          </ns3:TrackPointExtension>
        </extensions>
      </trkpt>
      <trkpt lat="43.780304677784442901611328125" lon="1.57783770002424716949462890625">
        <ele>124.40000152587890625</ele>
        <time>2026-08-13T07:33:40.000Z</time>
        <extensions>
          <ns3:TrackPointExtension>
            <ns3:hr>82</ns3:hr>
            <ns3:cad>0</ns3:cad>
          </ns3:TrackPointExtension>
        </extensions>
      </trkpt>
      <trkpt lat="43.78029822371900081634521484375" lon="1.5778451599180698394775390625">
        <ele>124.40000152587890625</ele>
        <time>2026-08-13T07:33:41.000Z</time>
        <extensions>
          <ns3:TrackPointExtension>
            <ns3:hr>82</ns3:hr>
            <ns3:cad>0</ns3:cad>
          </ns3:TrackPointExtension>
        </extensions>
      </trkpt>
      <trkpt lat="43.78029369749128818511962890625" lon="1.57785245217382907867431640625">
        <ele>124.40000152587890625</ele>
        <time>2026-08-13T07:33:42.000Z</time>
        <extensions>
          <ns3:TrackPointExtension>
            <ns3:hr>83</ns3:hr>
            <ns3:cad>0</ns3:cad>
          </ns3:TrackPointExtension>
        </extensions>
      </trkpt>
      <trkpt lat="43.78028850071132183074951171875" lon="1.57785949297249317169189453125">
        <ele>124.40000152587890625</ele>
        <time>2026-08-13T07:33:43.000Z</time>
        <extensions>
          <ns3:TrackPointExtension>
            <ns3:hr>83</ns3:hr>
            <ns3:cad>0</ns3:cad>
          </ns3:TrackPointExtension>
        </extensions>
      </trkpt>
      <trkpt lat="43.78028363920748233795166015625" lon="1.577866785228252410888671875">
        <ele>124.40000152587890625</ele>
        <time>2026-08-13T07:33:44.000Z</time>
        <extensions>
          <ns3:TrackPointExtension>
            <ns3:hr>83</ns3:hr>
            <ns3:cad>0</ns3:cad>
          </ns3:TrackPointExtension>
        </extensions>
      </trkpt>
      <trkpt lat="43.78027911297976970672607421875" lon="1.577877514064311981201171875">
        <ele>124.59999847412109375</ele>
        <time>2026-08-13T07:33:45.000Z</time>
        <extensions>
          <ns3:TrackPointExtension>
            <ns3:hr>84</ns3:hr>
            <ns3:cad>0</ns3:cad>
          </ns3:TrackPointExtension>
        </extensions>
      </trkpt>
      <trkpt lat="43.780273832380771636962890625" lon="1.57788296230137348175048828125">
        <ele>124.59999847412109375</ele>
        <time>2026-08-13T07:33:46.000Z</time>
        <extensions>
          <ns3:TrackPointExtension>
            <ns3:hr>85</ns3:hr>
            <ns3:cad>0</ns3:cad>
          </ns3:TrackPointExtension>
        </extensions>
      </trkpt>
      <trkpt lat="43.780266456305980682373046875" lon="1.5778910927474498748779296875">
        <ele>124.59999847412109375</ele>
        <time>2026-08-13T07:33:47.000Z</time>
        <extensions>
          <ns3:TrackPointExtension>
            <ns3:hr>85</ns3:hr>
            <ns3:cad>0</ns3:cad>
          </ns3:TrackPointExtension>
        </extensions>
      </trkpt>
      <trkpt lat="43.7802589125931262969970703125" lon="1.57789997756481170654296875">
        <ele>124.59999847412109375</ele>
        <time>2026-08-13T07:33:48.000Z</time>
        <extensions>
          <ns3:TrackPointExtension>
            <ns3:hr>85</ns3:hr>
            <ns3:cad>0</ns3:cad>
          </ns3:TrackPointExtension>
        </extensions>
      </trkpt>
      <trkpt lat="43.78025270998477935791015625" lon="1.5779095329344272613525390625">
        <ele>124.59999847412109375</ele>
        <time>2026-08-13T07:33:49.000Z</time>
        <extensions>
          <ns3:TrackPointExtension>
            <ns3:hr>85</ns3:hr>
            <ns3:cad>75</ns3:cad>
          </ns3:TrackPointExtension>
        </extensions>
      </trkpt>
      <trkpt lat="43.7802453339099884033203125" lon="1.57791799865663051605224609375">
        <ele>124.59999847412109375</ele>
        <time>2026-08-13T07:33:50.000Z</time>
        <extensions>
          <ns3:TrackPointExtension>
            <ns3:hr>86</ns3:hr>
            <ns3:cad>77</ns3:cad>
          </ns3:TrackPointExtension>
        </extensions>
      </trkpt>
      <trkpt lat="43.78023971803486347198486328125" lon="1.5779236145317554473876953125">
        <ele>124.59999847412109375</ele>
        <time>2026-08-13T07:33:51.000Z</time>
        <extensions>
          <ns3:TrackPointExtension>
            <ns3:hr>86</ns3:hr>
            <ns3:cad>77</ns3:cad>
          </ns3:TrackPointExtension>
        </extensions>
      </trkpt>
      <trkpt lat="43.78023586235940456390380859375" lon="1.57792747020721435546875">
        <ele>124.59999847412109375</ele>
        <time>2026-08-13T07:33:52.000Z</time>
        <extensions>
          <ns3:TrackPointExtension>
            <ns3:hr>86</ns3:hr>
            <ns3:cad>77</ns3:cad>
          </ns3:TrackPointExtension>
        </extensions>
      </trkpt>
      <trkpt lat="43.78023125231266021728515625" lon="1.57793216407299041748046875">
        <ele>124.59999847412109375</ele>
        <time>2026-08-13T07:33:53.000Z</time>
        <extensions>
          <ns3:TrackPointExtension>
            <ns3:hr>87</ns3:hr>
            <ns3:cad>0</ns3:cad>
          </ns3:TrackPointExtension>
        </extensions>
      </trkpt>
      <trkpt lat="43.78022798337042331695556640625" lon="1.57794021070003509521484375">
        <ele>124.59999847412109375</ele>
        <time>2026-08-13T07:33:54.000Z</time>
        <extensions>
          <ns3:TrackPointExtension>
            <ns3:hr>86</ns3:hr>
            <ns3:cad>0</ns3:cad>
          </ns3:TrackPointExtension>
        </extensions>
      </trkpt>
      <trkpt lat="43.78022345714271068572998046875" lon="1.577947922050952911376953125">
        <ele>124.59999847412109375</ele>
        <time>2026-08-13T07:33:55.000Z</time>
        <extensions>
          <ns3:TrackPointExtension>
            <ns3:hr>86</ns3:hr>
            <ns3:cad>0</ns3:cad>
          </ns3:TrackPointExtension>
        </extensions>
      </trkpt>
      <trkpt lat="43.780218176543712615966796875" lon="1.57795420847833156585693359375">
        <ele>124.59999847412109375</ele>
        <time>2026-08-13T07:33:56.000Z</time>
        <extensions>
          <ns3:TrackPointExtension>
            <ns3:hr>85</ns3:hr>
            <ns3:cad>0</ns3:cad>
          </ns3:TrackPointExtension>
        </extensions>
      </trkpt>
      <trkpt lat="43.78021272830665111541748046875" lon="1.577961333096027374267578125">
        <ele>124.59999847412109375</ele>
        <time>2026-08-13T07:33:57.000Z</time>
        <extensions>
          <ns3:TrackPointExtension>
            <ns3:hr>85</ns3:hr>
            <ns3:cad>43</ns3:cad>
          </ns3:TrackPointExtension>
        </extensions>
      </trkpt>
      <trkpt lat="43.78020904026925563812255859375" lon="1.57796971499919891357421875">
        <ele>124.59999847412109375</ele>
        <time>2026-08-13T07:33:58.000Z</time>
        <extensions>
          <ns3:TrackPointExtension>
            <ns3:hr>84</ns3:hr>
            <ns3:cad>43</ns3:cad>
          </ns3:TrackPointExtension>
        </extensions>
      </trkpt>
      <trkpt lat="43.78020753152668476104736328125" lon="1.5779812820255756378173828125">
        <ele>124.59999847412109375</ele>
        <time>2026-08-13T07:33:59.000Z</time>
        <extensions>
          <ns3:TrackPointExtension>
            <ns3:hr>84</ns3:hr>
            <ns3:cad>43</ns3:cad>
          </ns3:TrackPointExtension>
        </extensions>
      </trkpt>
      <trkpt lat="43.780204094946384429931640625" lon="1.57799310050904750823974609375">
        <ele>124.59999847412109375</ele>
        <time>2026-08-13T07:34:00.000Z</time>
        <extensions>
          <ns3:TrackPointExtension>
            <ns3:hr>83</ns3:hr>
            <ns3:cad>43</ns3:cad>
          </ns3:TrackPointExtension>
        </extensions>
      </trkpt>
      <trkpt lat="43.78020166419446468353271484375" lon="1.57800600863993167877197265625">
        <ele>124.59999847412109375</ele>
        <time>2026-08-13T07:34:01.000Z</time>
        <extensions>
          <ns3:TrackPointExtension>
            <ns3:hr>82</ns3:hr>
            <ns3:cad>43</ns3:cad>
          </ns3:TrackPointExtension>
        </extensions>
      </trkpt>
      <trkpt lat="43.78019713796675205230712890625" lon="1.5780215151607990264892578125">
        <ele>124.59999847412109375</ele>
        <time>2026-08-13T07:34:02.000Z</time>
        <extensions>
          <ns3:TrackPointExtension>
            <ns3:hr>82</ns3:hr>
            <ns3:cad>44</ns3:cad>
          </ns3:TrackPointExtension>
        </extensions>
      </trkpt>
      <trkpt lat="43.7801916897296905517578125" lon="1.57803718931972980499267578125">
        <ele>124.59999847412109375</ele>
        <time>2026-08-13T07:34:03.000Z</time>
        <extensions>
          <ns3:TrackPointExtension>
            <ns3:hr>82</ns3:hr>
            <ns3:cad>45</ns3:cad>
          </ns3:TrackPointExtension>
        </extensions>
      </trkpt>
      <trkpt lat="43.78018389455974102020263671875" lon="1.57804976217448711395263671875">
        <ele>124.59999847412109375</ele>
        <time>2026-08-13T07:34:04.000Z</time>
        <extensions>
          <ns3:TrackPointExtension>
            <ns3:hr>82</ns3:hr>
            <ns3:cad>46</ns3:cad>
          </ns3:TrackPointExtension>
        </extensions>
      </trkpt>
      <trkpt lat="43.780177943408489227294921875" lon="1.5780681185424327850341796875">
        <ele>124.59999847412109375</ele>
        <time>2026-08-13T07:34:05.000Z</time>
        <extensions>
          <ns3:TrackPointExtension>
            <ns3:hr>82</ns3:hr>
            <ns3:cad>46</ns3:cad>
          </ns3:TrackPointExtension>
        </extensions>
      </trkpt>
      <trkpt lat="43.7801734171807765960693359375" lon="1.57807943411171436309814453125">
        <ele>124.8000030517578125</ele>
        <time>2026-08-13T07:34:06.000Z</time>
        <extensions>
          <ns3:TrackPointExtension>
            <ns3:hr>82</ns3:hr>
            <ns3:cad>46</ns3:cad>
          </ns3:TrackPointExtension>
        </extensions>
      </trkpt>
      <trkpt lat="43.78016687929630279541015625" lon="1.57809846103191375732421875">
        <ele>124.8000030517578125</ele>
        <time>2026-08-13T07:34:07.000Z</time>
        <extensions>
          <ns3:TrackPointExtension>
            <ns3:hr>82</ns3:hr>
            <ns3:cad>48</ns3:cad>
          </ns3:TrackPointExtension>
        </extensions>
      </trkpt>
      <trkpt lat="43.78016361035406589508056640625" lon="1.57811748795211315155029296875">
        <ele>124.8000030517578125</ele>
        <time>2026-08-13T07:34:08.000Z</time>
        <extensions>
          <ns3:TrackPointExtension>
            <ns3:hr>83</ns3:hr>
            <ns3:cad>48</ns3:cad>
          </ns3:TrackPointExtension>
        </extensions>
      </trkpt>
      <trkpt lat="43.78015975467860698699951171875" lon="1.5781299769878387451171875">
        <ele>124.8000030517578125</ele>
        <time>2026-08-13T07:34:09.000Z</time>
        <extensions>
          <ns3:TrackPointExtension>
            <ns3:hr>83</ns3:hr>
            <ns3:cad>47</ns3:cad>
          </ns3:TrackPointExtension>
        </extensions>
      </trkpt>
      <trkpt lat="43.7801586650311946868896484375" lon="1.5781341679394245147705078125">
        <ele>124.8000030517578125</ele>
        <time>2026-08-13T07:34:10.000Z</time>
        <extensions>
          <ns3:TrackPointExtension>
            <ns3:hr>83</ns3:hr>
            <ns3:cad>47</ns3:cad>
          </ns3:TrackPointExtension>
        </extensions>
      </trkpt>
      <trkpt lat="43.780153132975101470947265625" lon="1.57814447768032550811767578125">
        <ele>124.59999847412109375</ele>
        <time>2026-08-13T07:34:11.000Z</time>
        <extensions>
          <ns3:TrackPointExtension>
            <ns3:hr>84</ns3:hr>
            <ns3:cad>49</ns3:cad>
          </ns3:TrackPointExtension>
        </extensions>
      </trkpt>
      <trkpt lat="43.78015137277543544769287109375" lon="1.57815881073474884033203125">
        <ele>124.59999847412109375</ele>
        <time>2026-08-13T07:34:12.000Z</time>
        <extensions>
          <ns3:TrackPointExtension>
            <ns3:hr>84</ns3:hr>
            <ns3:cad>49</ns3:cad>
          </ns3:TrackPointExtension>
        </extensions>
      </trkpt>
      <trkpt lat="43.78014869056642055511474609375" lon="1.57816761173307895660400390625">
        <ele>124.59999847412109375</ele>
        <time>2026-08-13T07:34:13.000Z</time>
        <extensions>
          <ns3:TrackPointExtension>
            <ns3:hr>85</ns3:hr>
            <ns3:cad>49</ns3:cad>
          </ns3:TrackPointExtension>
        </extensions>
      </trkpt>
      <trkpt lat="43.78014810383319854736328125" lon="1.57817750237882137298583984375">
        <ele>124.59999847412109375</ele>
        <time>2026-08-13T07:34:14.000Z</time>
        <extensions>
          <ns3:TrackPointExtension>
            <ns3:hr>85</ns3:hr>
            <ns3:cad>48</ns3:cad>
          </ns3:TrackPointExtension>
        </extensions>
      </trkpt>
      <trkpt lat="43.780145756900310516357421875" lon="1.57819175161421298980712890625">
        <ele>124.59999847412109375</ele>
        <time>2026-08-13T07:34:15.000Z</time>
        <extensions>
          <ns3:TrackPointExtension>
            <ns3:hr>85</ns3:hr>
            <ns3:cad>47</ns3:cad>
          </ns3:TrackPointExtension>
        </extensions>
      </trkpt>
      <trkpt lat="43.78014139831066131591796875" lon="1.57820834778249263763427734375">
        <ele>124.59999847412109375</ele>
        <time>2026-08-13T07:34:16.000Z</time>
        <extensions>
          <ns3:TrackPointExtension>
            <ns3:hr>85</ns3:hr>
            <ns3:cad>46</ns3:cad>
          </ns3:TrackPointExtension>
        </extensions>
      </trkpt>
      <trkpt lat="43.78013871610164642333984375" lon="1.5782240219414234161376953125">
        <ele>124.59999847412109375</ele>
        <time>2026-08-13T07:34:17.000Z</time>
        <extensions>
          <ns3:TrackPointExtension>
            <ns3:hr>85</ns3:hr>
            <ns3:cad>45</ns3:cad>
          </ns3:TrackPointExtension>
        </extensions>
      </trkpt>
      <trkpt lat="43.78013645298779010772705078125" lon="1.57823391258716583251953125">
        <ele>124.59999847412109375</ele>
        <time>2026-08-13T07:34:18.000Z</time>
        <extensions>
          <ns3:TrackPointExtension>
            <ns3:hr>85</ns3:hr>
            <ns3:cad>46</ns3:cad>
          </ns3:TrackPointExtension>
        </extensions>
      </trkpt>
      <trkpt lat="43.78013142384588718414306640625" lon="1.57824757508933544158935546875">
        <ele>124.59999847412109375</ele>
        <time>2026-08-13T07:34:19.000Z</time>
        <extensions>
          <ns3:TrackPointExtension>
            <ns3:hr>84</ns3:hr>
            <ns3:cad>46</ns3:cad>
          </ns3:TrackPointExtension>
        </extensions>
      </trkpt>
      <trkpt lat="43.780127651989459991455078125" lon="1.57825805246829986572265625">
        <ele>124.59999847412109375</ele>
        <time>2026-08-13T07:34:20.000Z</time>
        <extensions>
          <ns3:TrackPointExtension>
            <ns3:hr>83</ns3:hr>
            <ns3:cad>46</ns3:cad>
          </ns3:TrackPointExtension>
        </extensions>
      </trkpt>
      <trkpt lat="43.78012337721884250640869140625" lon="1.57826266251504421234130859375">
        <ele>124.59999847412109375</ele>
        <time>2026-08-13T07:34:21.000Z</time>
        <extensions>
          <ns3:TrackPointExtension>
            <ns3:hr>82</ns3:hr>
            <ns3:cad>45</ns3:cad>
          </ns3:TrackPointExtension>
        </extensions>
      </trkpt>
      <trkpt lat="43.78011650405824184417724609375" lon="1.57827104441821575164794921875">
        <ele>124.59999847412109375</ele>
        <time>2026-08-13T07:34:22.000Z</time>
        <extensions>
          <ns3:TrackPointExtension>
            <ns3:hr>82</ns3:hr>
            <ns3:cad>45</ns3:cad>
          </ns3:TrackPointExtension>
        </extensions>
      </trkpt>
      <trkpt lat="43.78011080436408519744873046875" lon="1.578286550939083099365234375">
        <ele>124.59999847412109375</ele>
        <time>2026-08-13T07:34:23.000Z</time>
        <extensions>
          <ns3:TrackPointExtension>
            <ns3:hr>83</ns3:hr>
            <ns3:cad>44</ns3:cad>
          </ns3:TrackPointExtension>
        </extensions>
      </trkpt>
      <trkpt lat="43.7801066972315311431884765625" lon="1.57829652540385723114013671875">
        <ele>124.59999847412109375</ele>
        <time>2026-08-13T07:34:24.000Z</time>
        <extensions>
          <ns3:TrackPointExtension>
            <ns3:hr>83</ns3:hr>
            <ns3:cad>44</ns3:cad>
          </ns3:TrackPointExtension>
        </extensions>
      </trkpt>
      <trkpt lat="43.78010191954672336578369140625" lon="1.57830658368766307830810546875">
        <ele>124.59999847412109375</ele>
        <time>2026-08-13T07:34:25.000Z</time>
        <extensions>
          <ns3:TrackPointExtension>
            <ns3:hr>83</ns3:hr>
            <ns3:cad>44</ns3:cad>
          </ns3:TrackPointExtension>
        </extensions>
      </trkpt>
      <trkpt lat="43.7800973094999790191650390625" lon="1.57831647433340549468994140625">
        <ele>124.59999847412109375</ele>
        <time>2026-08-13T07:34:26.000Z</time>
        <extensions>
          <ns3:TrackPointExtension>
            <ns3:hr>82</ns3:hr>
            <ns3:cad>44</ns3:cad>
          </ns3:TrackPointExtension>
        </extensions>
      </trkpt>
      <trkpt lat="43.78009353764355182647705078125" lon="1.578328125178813934326171875">
        <ele>124.8000030517578125</ele>
        <time>2026-08-13T07:34:27.000Z</time>
        <extensions>
          <ns3:TrackPointExtension>
            <ns3:hr>82</ns3:hr>
            <ns3:cad>44</ns3:cad>
          </ns3:TrackPointExtension>
        </extensions>
      </trkpt>
      <trkpt lat="43.78008314408361911773681640625" lon="1.57834430225193500518798828125">
        <ele>124.8000030517578125</ele>
        <time>2026-08-13T07:34:28.000Z</time>
        <extensions>
          <ns3:TrackPointExtension>
            <ns3:hr>82</ns3:hr>
            <ns3:cad>44</ns3:cad>
          </ns3:TrackPointExtension>
        </extensions>
      </trkpt>
      <trkpt lat="43.780078031122684478759765625" lon="1.57835201360285282135009765625">
        <ele>124.8000030517578125</ele>
        <time>2026-08-13T07:34:29.000Z</time>
        <extensions>
          <ns3:TrackPointExtension>
            <ns3:hr>82</ns3:hr>
            <ns3:cad>45</ns3:cad>
          </ns3:TrackPointExtension>
        </extensions>
      </trkpt>
      <trkpt lat="43.780071996152400970458984375" lon="1.5783594734966754913330078125">
        <ele>124.8000030517578125</ele>
        <time>2026-08-13T07:34:30.000Z</time>
        <extensions>
          <ns3:TrackPointExtension>
            <ns3:hr>81</ns3:hr>
            <ns3:cad>45</ns3:cad>
          </ns3:TrackPointExtension>
        </extensions>
      </trkpt>
      <trkpt lat="43.780065961182117462158203125" lon="1.5783660113811492919921875">
        <ele>124.8000030517578125</ele>
        <time>2026-08-13T07:34:31.000Z</time>
        <extensions>
          <ns3:TrackPointExtension>
            <ns3:hr>80</ns3:hr>
            <ns3:cad>45</ns3:cad>
          </ns3:TrackPointExtension>
        </extensions>
      </trkpt>
      <trkpt lat="43.7800597585737705230712890625" lon="1.57837598584592342376708984375">
        <ele>124.8000030517578125</ele>
        <time>2026-08-13T07:34:32.000Z</time>
        <extensions>
          <ns3:TrackPointExtension>
            <ns3:hr>79</ns3:hr>
            <ns3:cad>45</ns3:cad>
          </ns3:TrackPointExtension>
        </extensions>
      </trkpt>
      <trkpt lat="43.7800543941557407379150390625" lon="1.5783839486539363861083984375">
        <ele>124.59999847412109375</ele>
        <time>2026-08-13T07:34:33.000Z</time>
        <extensions>
          <ns3:TrackPointExtension>
            <ns3:hr>79</ns3:hr>
            <ns3:cad>45</ns3:cad>
          </ns3:TrackPointExtension>
        </extensions>
      </trkpt>
      <trkpt lat="43.78005087375640869140625" lon="1.57839191146194934844970703125">
        <ele>124.59999847412109375</ele>
        <time>2026-08-13T07:34:34.000Z</time>
        <extensions>
          <ns3:TrackPointExtension>
            <ns3:hr>79</ns3:hr>
            <ns3:cad>44</ns3:cad>
          </ns3:TrackPointExtension>
        </extensions>
      </trkpt>
      <trkpt lat="43.78004760481417179107666015625" lon="1.57840280793607234954833984375">
        <ele>124.59999847412109375</ele>
        <time>2026-08-13T07:34:35.000Z</time>
        <extensions>
          <ns3:TrackPointExtension>
            <ns3:hr>78</ns3:hr>
            <ns3:cad>44</ns3:cad>
          </ns3:TrackPointExtension>
        </extensions>
      </trkpt>
      <trkpt lat="43.78004425205290317535400390625" lon="1.57841269858181476593017578125">
        <ele>124.59999847412109375</ele>
        <time>2026-08-13T07:34:36.000Z</time>
        <extensions>
          <ns3:TrackPointExtension>
            <ns3:hr>79</ns3:hr>
            <ns3:cad>44</ns3:cad>
          </ns3:TrackPointExtension>
        </extensions>
      </trkpt>
      <trkpt lat="43.78004441969096660614013671875" lon="1.57842426560819149017333984375">
        <ele>124.59999847412109375</ele>
        <time>2026-08-13T07:34:37.000Z</time>
        <extensions>
          <ns3:TrackPointExtension>
            <ns3:hr>79</ns3:hr>
            <ns3:cad>43</ns3:cad>
          </ns3:TrackPointExtension>
        </extensions>
      </trkpt>
      <trkpt lat="43.78004106692969799041748046875" lon="1.57843499444425106048583984375">
        <ele>124.59999847412109375</ele>
        <time>2026-08-13T07:34:38.000Z</time>
        <extensions>
          <ns3:TrackPointExtension>
            <ns3:hr>78</ns3:hr>
            <ns3:cad>43</ns3:cad>
          </ns3:TrackPointExtension>
        </extensions>
      </trkpt>
      <trkpt lat="43.780035115778446197509765625" lon="1.57844589091837406158447265625">
        <ele>124.59999847412109375</ele>
        <time>2026-08-13T07:34:39.000Z</time>
        <extensions>
          <ns3:TrackPointExtension>
            <ns3:hr>79</ns3:hr>
            <ns3:cad>46</ns3:cad>
          </ns3:TrackPointExtension>
        </extensions>
      </trkpt>
      <trkpt lat="43.78002832643687725067138671875" lon="1.5784573741257190704345703125">
        <ele>124.8000030517578125</ele>
        <time>2026-08-13T07:34:40.000Z</time>
        <extensions>
          <ns3:TrackPointExtension>
            <ns3:hr>79</ns3:hr>
            <ns3:cad>46</ns3:cad>
          </ns3:TrackPointExtension>
        </extensions>
      </trkpt>
      <trkpt lat="43.78002095036208629608154296875" lon="1.578470282256603240966796875">
        <ele>124.8000030517578125</ele>
        <time>2026-08-13T07:34:41.000Z</time>
        <extensions>
          <ns3:TrackPointExtension>
            <ns3:hr>80</ns3:hr>
            <ns3:cad>47</ns3:cad>
          </ns3:TrackPointExtension>
        </extensions>
      </trkpt>
      <trkpt lat="43.78001323901116847991943359375" lon="1.5784805081784725189208984375">
        <ele>124.8000030517578125</ele>
        <time>2026-08-13T07:34:42.000Z</time>
        <extensions>
          <ns3:TrackPointExtension>
            <ns3:hr>80</ns3:hr>
            <ns3:cad>47</ns3:cad>
          </ns3:TrackPointExtension>
        </extensions>
      </trkpt>
      <trkpt lat="43.78000720404088497161865234375" lon="1.5784893929958343505859375">
        <ele>124.59999847412109375</ele>
        <time>2026-08-13T07:34:43.000Z</time>
        <extensions>
          <ns3:TrackPointExtension>
            <ns3:hr>80</ns3:hr>
            <ns3:cad>47</ns3:cad>
          </ns3:TrackPointExtension>
        </extensions>
      </trkpt>
      <trkpt lat="43.78000033088028430938720703125" lon="1.578499116003513336181640625">
        <ele>124.59999847412109375</ele>
        <time>2026-08-13T07:34:44.000Z</time>
        <extensions>
          <ns3:TrackPointExtension>
            <ns3:hr>80</ns3:hr>
            <ns3:cad>46</ns3:cad>
          </ns3:TrackPointExtension>
        </extensions>
      </trkpt>
      <trkpt lat="43.77999379299581050872802734375" lon="1.57851059921085834503173828125">
        <ele>124.59999847412109375</ele>
        <time>2026-08-13T07:34:45.000Z</time>
        <extensions>
          <ns3:TrackPointExtension>
            <ns3:hr>81</ns3:hr>
            <ns3:cad>46</ns3:cad>
          </ns3:TrackPointExtension>
        </extensions>
      </trkpt>
      <trkpt lat="43.77999010495841503143310546875" lon="1.57851814292371273040771484375">
        <ele>124.59999847412109375</ele>
        <time>2026-08-13T07:34:46.000Z</time>
        <extensions>
          <ns3:TrackPointExtension>
            <ns3:hr>82</ns3:hr>
            <ns3:cad>44</ns3:cad>
          </ns3:TrackPointExtension>
        </extensions>
      </trkpt>
      <trkpt lat="43.7799856625497341156005859375" lon="1.5785304643213748931884765625">
        <ele>124.59999847412109375</ele>
        <time>2026-08-13T07:34:47.000Z</time>
        <extensions>
          <ns3:TrackPointExtension>
            <ns3:hr>83</ns3:hr>
            <ns3:cad>44</ns3:cad>
          </ns3:TrackPointExtension>
        </extensions>
      </trkpt>
      <trkpt lat="43.77997753210365772247314453125" lon="1.57853876240551471710205078125">
        <ele>124.59999847412109375</ele>
        <time>2026-08-13T07:34:48.000Z</time>
        <extensions>
          <ns3:TrackPointExtension>
            <ns3:hr>83</ns3:hr>
            <ns3:cad>43</ns3:cad>
          </ns3:TrackPointExtension>
        </extensions>
      </trkpt>
      <trkpt lat="43.77997149713337421417236328125" lon="1.57854638993740081787109375">
        <ele>124.59999847412109375</ele>
        <time>2026-08-13T07:34:49.000Z</time>
        <extensions>
          <ns3:TrackPointExtension>
            <ns3:hr>84</ns3:hr>
            <ns3:cad>43</ns3:cad>
          </ns3:TrackPointExtension>
        </extensions>
      </trkpt>
      <trkpt lat="43.77996898256242275238037109375" lon="1.57855519093573093414306640625">
        <ele>124.59999847412109375</ele>
        <time>2026-08-13T07:34:50.000Z</time>
        <extensions>
          <ns3:TrackPointExtension>
            <ns3:hr>84</ns3:hr>
            <ns3:cad>43</ns3:cad>
          </ns3:TrackPointExtension>
        </extensions>
      </trkpt>
      <trkpt lat="43.77996646799147129058837890625" lon="1.57856558449566364288330078125">
        <ele>124.59999847412109375</ele>
        <time>2026-08-13T07:34:51.000Z</time>
        <extensions>
          <ns3:TrackPointExtension>
            <ns3:hr>84</ns3:hr>
            <ns3:cad>45</ns3:cad>
          </ns3:TrackPointExtension>
        </extensions>
      </trkpt>
      <trkpt lat="43.7799618579447269439697265625" lon="1.57857832498848438262939453125">
        <ele>124.59999847412109375</ele>
        <time>2026-08-13T07:34:52.000Z</time>
        <extensions>
          <ns3:TrackPointExtension>
            <ns3:hr>84</ns3:hr>
            <ns3:cad>46</ns3:cad>
          </ns3:TrackPointExtension>
        </extensions>
      </trkpt>
      <trkpt lat="43.7799581699073314666748046875" lon="1.57858620397746562957763671875">
        <ele>124.59999847412109375</ele>
        <time>2026-08-13T07:34:53.000Z</time>
        <extensions>
          <ns3:TrackPointExtension>
            <ns3:hr>84</ns3:hr>
            <ns3:cad>45</ns3:cad>
          </ns3:TrackPointExtension>
        </extensions>
      </trkpt>
      <trkpt lat="43.7799561582505702972412109375" lon="1.57859877683222293853759765625">
        <ele>124.59999847412109375</ele>
        <time>2026-08-13T07:34:54.000Z</time>
        <extensions>
          <ns3:TrackPointExtension>
            <ns3:hr>84</ns3:hr>
            <ns3:cad>45</ns3:cad>
          </ns3:TrackPointExtension>
        </extensions>
      </trkpt>
      <trkpt lat="43.779953308403491973876953125" lon="1.57861604355275630950927734375">
        <ele>124.59999847412109375</ele>
        <time>2026-08-13T07:34:55.000Z</time>
        <extensions>
          <ns3:TrackPointExtension>
            <ns3:hr>84</ns3:hr>
            <ns3:cad>44</ns3:cad>
          </ns3:TrackPointExtension>
        </extensions>
      </trkpt>
      <trkpt lat="43.77995071001350879669189453125" lon="1.5786288678646087646484375">
        <ele>124.59999847412109375</ele>
        <time>2026-08-13T07:34:56.000Z</time>
        <extensions>
          <ns3:TrackPointExtension>
            <ns3:hr>84</ns3:hr>
            <ns3:cad>44</ns3:cad>
          </ns3:TrackPointExtension>
        </extensions>
      </trkpt>
      <trkpt lat="43.77994568087160587310791015625" lon="1.57863884232938289642333984375">
        <ele>124.59999847412109375</ele>
        <time>2026-08-13T07:34:57.000Z</time>
        <extensions>
          <ns3:TrackPointExtension>
            <ns3:hr>84</ns3:hr>
            <ns3:cad>43</ns3:cad>
          </ns3:TrackPointExtension>
        </extensions>
      </trkpt>
      <trkpt lat="43.77994417212903499603271484375" lon="1.578654348850250244140625">
        <ele>124.59999847412109375</ele>
        <time>2026-08-13T07:34:58.000Z</time>
        <extensions>
          <ns3:TrackPointExtension>
            <ns3:hr>83</ns3:hr>
            <ns3:cad>43</ns3:cad>
          </ns3:TrackPointExtension>
        </extensions>
      </trkpt>
      <trkpt lat="43.7799420766532421112060546875" lon="1.57866952009499073028564453125">
        <ele>124.59999847412109375</ele>
        <time>2026-08-13T07:34:59.000Z</time>
        <extensions>
          <ns3:TrackPointExtension>
            <ns3:hr>82</ns3:hr>
            <ns3:cad>43</ns3:cad>
          </ns3:TrackPointExtension>
        </extensions>
      </trkpt>
      <trkpt lat="43.77993746660649776458740234375" lon="1.57868376933038234710693359375">
        <ele>124.59999847412109375</ele>
        <time>2026-08-13T07:35:00.000Z</time>
        <extensions>
          <ns3:TrackPointExtension>
            <ns3:hr>81</ns3:hr>
            <ns3:cad>43</ns3:cad>
          </ns3:TrackPointExtension>
        </extensions>
      </trkpt>
      <trkpt lat="43.77993595786392688751220703125" lon="1.5786932408809661865234375">
        <ele>124.59999847412109375</ele>
        <time>2026-08-13T07:35:01.000Z</time>
        <extensions>
          <ns3:TrackPointExtension>
            <ns3:hr>81</ns3:hr>
            <ns3:cad>43</ns3:cad>
          </ns3:TrackPointExtension>
        </extensions>
      </trkpt>
      <trkpt lat="43.77993210218846797943115234375" lon="1.5787120163440704345703125">
        <ele>124.59999847412109375</ele>
        <time>2026-08-13T07:35:02.000Z</time>
        <extensions>
          <ns3:TrackPointExtension>
            <ns3:hr>81</ns3:hr>
            <ns3:cad>43</ns3:cad>
          </ns3:TrackPointExtension>
        </extensions>
      </trkpt>
      <trkpt lat="43.7799330241978168487548828125" lon="1.5787254273891448974609375">
        <ele>124.59999847412109375</ele>
        <time>2026-08-13T07:35:03.000Z</time>
        <extensions>
          <ns3:TrackPointExtension>
            <ns3:hr>81</ns3:hr>
            <ns3:cad>43</ns3:cad>
          </ns3:TrackPointExtension>
        </extensions>
      </trkpt>
      <trkpt lat="43.77992958761751651763916015625" lon="1.5787363238632678985595703125">
        <ele>124.59999847412109375</ele>
        <time>2026-08-13T07:35:04.000Z</time>
        <extensions>
          <ns3:TrackPointExtension>
            <ns3:hr>81</ns3:hr>
            <ns3:cad>43</ns3:cad>
          </ns3:TrackPointExtension>
        </extensions>
      </trkpt>
      <trkpt lat="43.77992606721818447113037109375" lon="1.57874914817512035369873046875">
        <ele>124.59999847412109375</ele>
        <time>2026-08-13T07:35:05.000Z</time>
        <extensions>
          <ns3:TrackPointExtension>
            <ns3:hr>81</ns3:hr>
            <ns3:cad>43</ns3:cad>
          </ns3:TrackPointExtension>
        </extensions>
      </trkpt>
      <trkpt lat="43.77992254681885242462158203125" lon="1.57876222394406795501708984375">
        <ele>124.59999847412109375</ele>
        <time>2026-08-13T07:35:06.000Z</time>
        <extensions>
          <ns3:TrackPointExtension>
            <ns3:hr>81</ns3:hr>
            <ns3:cad>43</ns3:cad>
          </ns3:TrackPointExtension>
        </extensions>
      </trkpt>
      <trkpt lat="43.779918439686298370361328125" lon="1.5787705220282077789306640625">
        <ele>124.59999847412109375</ele>
        <time>2026-08-13T07:35:07.000Z</time>
        <extensions>
          <ns3:TrackPointExtension>
            <ns3:hr>81</ns3:hr>
            <ns3:cad>43</ns3:cad>
          </ns3:TrackPointExtension>
        </extensions>
      </trkpt>
      <trkpt lat="43.77991450019180774688720703125" lon="1.57877949066460132598876953125">
        <ele>124.59999847412109375</ele>
        <time>2026-08-13T07:35:08.000Z</time>
        <extensions>
          <ns3:TrackPointExtension>
            <ns3:hr>81</ns3:hr>
            <ns3:cad>43</ns3:cad>
          </ns3:TrackPointExtension>
        </extensions>
      </trkpt>
      <trkpt lat="43.77991072833538055419921875" lon="1.5787936560809612274169921875">
        <ele>124.59999847412109375</ele>
        <time>2026-08-13T07:35:09.000Z</time>
        <extensions>
          <ns3:TrackPointExtension>
            <ns3:hr>81</ns3:hr>
            <ns3:cad>42</ns3:cad>
          </ns3:TrackPointExtension>
        </extensions>
      </trkpt>
      <trkpt lat="43.77990645356476306915283203125" lon="1.578800193965435028076171875">
        <ele>124.59999847412109375</ele>
        <time>2026-08-13T07:35:10.000Z</time>
        <extensions>
          <ns3:TrackPointExtension>
            <ns3:hr>80</ns3:hr>
            <ns3:cad>42</ns3:cad>
          </ns3:TrackPointExtension>
        </extensions>
      </trkpt>
      <trkpt lat="43.77990326844155788421630859375" lon="1.5788070671260356903076171875">
        <ele>124.59999847412109375</ele>
        <time>2026-08-13T07:35:11.000Z</time>
        <extensions>
          <ns3:TrackPointExtension>
            <ns3:hr>80</ns3:hr>
            <ns3:cad>42</ns3:cad>
          </ns3:TrackPointExtension>
        </extensions>
      </trkpt>
      <trkpt lat="43.779896311461925506591796875" lon="1.57882123254239559173583984375">
        <ele>124.8000030517578125</ele>
        <time>2026-08-13T07:35:12.000Z</time>
        <extensions>
          <ns3:TrackPointExtension>
            <ns3:hr>79</ns3:hr>
            <ns3:cad>41</ns3:cad>
          </ns3:TrackPointExtension>
        </extensions>
      </trkpt>
      <trkpt lat="43.77989404834806919097900390625" lon="1.57883682288229465484619140625">
        <ele>124.8000030517578125</ele>
        <time>2026-08-13T07:35:13.000Z</time>
        <extensions>
          <ns3:TrackPointExtension>
            <ns3:hr>79</ns3:hr>
            <ns3:cad>41</ns3:cad>
          </ns3:TrackPointExtension>
        </extensions>
      </trkpt>
      <trkpt lat="43.779888264834880828857421875" lon="1.5788461267948150634765625">
        <ele>124.8000030517578125</ele>
        <time>2026-08-13T07:35:14.000Z</time>
        <extensions>
          <ns3:TrackPointExtension>
            <ns3:hr>79</ns3:hr>
            <ns3:cad>41</ns3:cad>
          </ns3:TrackPointExtension>
        </extensions>
      </trkpt>
      <trkpt lat="43.7798854149878025054931640625" lon="1.578852832317352294921875">
        <ele>124.8000030517578125</ele>
        <time>2026-08-13T07:35:15.000Z</time>
        <extensions>
          <ns3:TrackPointExtension>
            <ns3:hr>79</ns3:hr>
            <ns3:cad>41</ns3:cad>
          </ns3:TrackPointExtension>
        </extensions>
      </trkpt>
      <trkpt lat="43.77988348715007305145263671875" lon="1.5788674168288707733154296875">
        <ele>124.8000030517578125</ele>
        <time>2026-08-13T07:35:16.000Z</time>
        <extensions>
          <ns3:TrackPointExtension>
            <ns3:hr>79</ns3:hr>
            <ns3:cad>41</ns3:cad>
          </ns3:TrackPointExtension>
        </extensions>
      </trkpt>
      <trkpt lat="43.7798813916742801666259765625" lon="1.57888040877878665924072265625">
        <ele>124.8000030517578125</ele>
        <time>2026-08-13T07:35:17.000Z</time>
        <extensions>
          <ns3:TrackPointExtension>
            <ns3:hr>78</ns3:hr>
            <ns3:cad>43</ns3:cad>
          </ns3:TrackPointExtension>
        </extensions>
      </trkpt>
      <trkpt lat="43.779877535998821258544921875" lon="1.578892059624195098876953125">
        <ele>124.59999847412109375</ele>
        <time>2026-08-13T07:35:18.000Z</time>
        <extensions>
          <ns3:TrackPointExtension>
            <ns3:hr>78</ns3:hr>
            <ns3:cad>43</ns3:cad>
          </ns3:TrackPointExtension>
        </extensions>
      </trkpt>
      <trkpt lat="43.77987393178045749664306640625" lon="1.57890178263187408447265625">
        <ele>124.59999847412109375</ele>
        <time>2026-08-13T07:35:19.000Z</time>
        <extensions>
          <ns3:TrackPointExtension>
            <ns3:hr>77</ns3:hr>
            <ns3:cad>46</ns3:cad>
          </ns3:TrackPointExtension>
        </extensions>
      </trkpt>
      <trkpt lat="43.77987124957144260406494140625" lon="1.57891091890633106231689453125">
        <ele>124.8000030517578125</ele>
        <time>2026-08-13T07:35:20.000Z</time>
        <extensions>
          <ns3:TrackPointExtension>
            <ns3:hr>76</ns3:hr>
            <ns3:cad>46</ns3:cad>
          </ns3:TrackPointExtension>
        </extensions>
      </trkpt>
      <trkpt lat="43.77986605279147624969482421875" lon="1.578925587236881256103515625">
        <ele>124.8000030517578125</ele>
        <time>2026-08-13T07:35:21.000Z</time>
        <extensions>
          <ns3:TrackPointExtension>
            <ns3:hr>76</ns3:hr>
            <ns3:cad>46</ns3:cad>
          </ns3:TrackPointExtension>
        </extensions>
      </trkpt>
      <trkpt lat="43.77986001782119274139404296875" lon="1.57893287949264049530029296875">
        <ele>124.8000030517578125</ele>
        <time>2026-08-13T07:35:22.000Z</time>
        <extensions>
          <ns3:TrackPointExtension>
            <ns3:hr>76</ns3:hr>
            <ns3:cad>46</ns3:cad>
          </ns3:TrackPointExtension>
        </extensions>
      </trkpt>
      <trkpt lat="43.77985306084156036376953125" lon="1.578940339386463165283203125">
        <ele>124.8000030517578125</ele>
        <time>2026-08-13T07:35:23.000Z</time>
        <extensions>
          <ns3:TrackPointExtension>
            <ns3:hr>76</ns3:hr>
            <ns3:cad>46</ns3:cad>
          </ns3:TrackPointExtension>
        </extensions>
      </trkpt>
      <trkpt lat="43.77985331229865550994873046875" lon="1.57895249314606189727783203125">
        <ele>124.8000030517578125</ele>
        <time>2026-08-13T07:35:24.000Z</time>
        <extensions>
          <ns3:TrackPointExtension>
            <ns3:hr>76</ns3:hr>
            <ns3:cad>45</ns3:cad>
          </ns3:TrackPointExtension>
        </extensions>
      </trkpt>
      <trkpt lat="43.77984744496643543243408203125" lon="1.578968502581119537353515625">
        <ele>124.8000030517578125</ele>
        <time>2026-08-13T07:35:25.000Z</time>
        <extensions>
          <ns3:TrackPointExtension>
            <ns3:hr>76</ns3:hr>
            <ns3:cad>45</ns3:cad>
          </ns3:TrackPointExtension>
        </extensions>
      </trkpt>
      <trkpt lat="43.77984124235808849334716796875" lon="1.57897956669330596923828125">
        <ele>124.8000030517578125</ele>
        <time>2026-08-13T07:35:26.000Z</time>
        <extensions>
          <ns3:TrackPointExtension>
            <ns3:hr>76</ns3:hr>
            <ns3:cad>47</ns3:cad>
          </ns3:TrackPointExtension>
        </extensions>
      </trkpt>
      <trkpt lat="43.77983520738780498504638671875" lon="1.57898501493036746978759765625">
        <ele>124.59999847412109375</ele>
        <time>2026-08-13T07:35:27.000Z</time>
        <extensions>
          <ns3:TrackPointExtension>
            <ns3:hr>76</ns3:hr>
            <ns3:cad>47</ns3:cad>
          </ns3:TrackPointExtension>
        </extensions>
      </trkpt>
      <trkpt lat="43.77982682548463344573974609375" lon="1.57900194637477397918701171875">
        <ele>124.59999847412109375</ele>
        <time>2026-08-13T07:35:28.000Z</time>
        <extensions>
          <ns3:TrackPointExtension>
            <ns3:hr>76</ns3:hr>
            <ns3:cad>44</ns3:cad>
          </ns3:TrackPointExtension>
        </extensions>
      </trkpt>
      <trkpt lat="43.7798215448856353759765625" lon="1.579013764858245849609375">
        <ele>124.59999847412109375</ele>
        <time>2026-08-13T07:35:29.000Z</time>
        <extensions>
          <ns3:TrackPointExtension>
            <ns3:hr>75</ns3:hr>
            <ns3:cad>44</ns3:cad>
          </ns3:TrackPointExtension>
        </extensions>
      </trkpt>
      <trkpt lat="43.77981693483889102935791015625" lon="1.57902105711400508880615234375">
        <ele>124.8000030517578125</ele>
        <time>2026-08-13T07:35:30.000Z</time>
        <extensions>
          <ns3:TrackPointExtension>
            <ns3:hr>76</ns3:hr>
            <ns3:cad>44</ns3:cad>
          </ns3:TrackPointExtension>
        </extensions>
      </trkpt>
      <trkpt lat="43.77980872057378292083740234375" lon="1.57903513871133327484130859375">
        <ele>124.8000030517578125</ele>
        <time>2026-08-13T07:35:31.000Z</time>
        <extensions>
          <ns3:TrackPointExtension>
            <ns3:hr>77</ns3:hr>
            <ns3:cad>43</ns3:cad>
          </ns3:TrackPointExtension>
        </extensions>
      </trkpt>
      <trkpt lat="43.7798026017844676971435546875" lon="1.5790499746799468994140625">
        <ele>124.8000030517578125</ele>
        <time>2026-08-13T07:35:32.000Z</time>
        <extensions>
          <ns3:TrackPointExtension>
            <ns3:hr>79</ns3:hr>
            <ns3:cad>42</ns3:cad>
          </ns3:TrackPointExtension>
        </extensions>
      </trkpt>
      <trkpt lat="43.77979815937578678131103515625" lon="1.579061709344387054443359375">
        <ele>124.8000030517578125</ele>
        <time>2026-08-13T07:35:33.000Z</time>
        <extensions>
          <ns3:TrackPointExtension>
            <ns3:hr>79</ns3:hr>
            <ns3:cad>42</ns3:cad>
          </ns3:TrackPointExtension>
        </extensions>
      </trkpt>
      <trkpt lat="43.77979463897645473480224609375" lon="1.57906983979046344757080078125">
        <ele>124.59999847412109375</ele>
        <time>2026-08-13T07:35:34.000Z</time>
        <extensions>
          <ns3:TrackPointExtension>
            <ns3:hr>79</ns3:hr>
            <ns3:cad>42</ns3:cad>
          </ns3:TrackPointExtension>
        </extensions>
      </trkpt>
      <trkpt lat="43.7797891907393932342529296875" lon="1.57908123917877674102783203125">
        <ele>124.59999847412109375</ele>
        <time>2026-08-13T07:35:35.000Z</time>
        <extensions>
          <ns3:TrackPointExtension>
            <ns3:hr>79</ns3:hr>
            <ns3:cad>42</ns3:cad>
          </ns3:TrackPointExtension>
        </extensions>
      </trkpt>
      <trkpt lat="43.77978307195007801055908203125" lon="1.57909247092902660369873046875">
        <ele>124.59999847412109375</ele>
        <time>2026-08-13T07:35:36.000Z</time>
        <extensions>
          <ns3:TrackPointExtension>
            <ns3:hr>79</ns3:hr>
            <ns3:cad>42</ns3:cad>
          </ns3:TrackPointExtension>
        </extensions>
      </trkpt>
      <trkpt lat="43.7797777913510799407958984375" lon="1.57909783534705638885498046875">
        <ele>124.59999847412109375</ele>
        <time>2026-08-13T07:35:37.000Z</time>
        <extensions>
          <ns3:TrackPointExtension>
            <ns3:hr>79</ns3:hr>
            <ns3:cad>43</ns3:cad>
          </ns3:TrackPointExtension>
        </extensions>
      </trkpt>
      <trkpt lat="43.7797710858285427093505859375" lon="1.57910521142184734344482421875">
        <ele>124.59999847412109375</ele>
        <time>2026-08-13T07:35:38.000Z</time>
        <extensions>
          <ns3:TrackPointExtension>
            <ns3:hr>79</ns3:hr>
            <ns3:cad>44</ns3:cad>
          </ns3:TrackPointExtension>
        </extensions>
      </trkpt>
      <trkpt lat="43.77976463176310062408447265625" lon="1.57911795191466808319091796875">
        <ele>124.59999847412109375</ele>
        <time>2026-08-13T07:35:39.000Z</time>
        <extensions>
          <ns3:TrackPointExtension>
            <ns3:hr>79</ns3:hr>
            <ns3:cad>44</ns3:cad>
          </ns3:TrackPointExtension>
        </extensions>
      </trkpt>
      <trkpt lat="43.77976161427795886993408203125" lon="1.57912214286625385284423828125">
        <ele>124.59999847412109375</ele>
        <time>2026-08-13T07:35:40.000Z</time>
        <extensions>
          <ns3:TrackPointExtension>
            <ns3:hr>79</ns3:hr>
            <ns3:cad>44</ns3:cad>
          </ns3:TrackPointExtension>
        </extensions>
      </trkpt>
      <trkpt lat="43.77975356765091419219970703125" lon="1.57913035713136196136474609375">
        <ele>124.59999847412109375</ele>
        <time>2026-08-13T07:35:41.000Z</time>
        <extensions>
          <ns3:TrackPointExtension>
            <ns3:hr>79</ns3:hr>
            <ns3:cad>43</ns3:cad>
          </ns3:TrackPointExtension>
        </extensions>
      </trkpt>
      <trkpt lat="43.779744096100330352783203125" lon="1.5791410021483898162841796875">
        <ele>124.8000030517578125</ele>
        <time>2026-08-13T07:35:42.000Z</time>
        <extensions>
          <ns3:TrackPointExtension>
            <ns3:hr>78</ns3:hr>
            <ns3:cad>42</ns3:cad>
          </ns3:TrackPointExtension>
        </extensions>
      </trkpt>
      <trkpt lat="43.77973898313939571380615234375" lon="1.57914997078478336334228515625">
        <ele>124.8000030517578125</ele>
        <time>2026-08-13T07:35:43.000Z</time>
        <extensions>
          <ns3:TrackPointExtension>
            <ns3:hr>79</ns3:hr>
            <ns3:cad>42</ns3:cad>
          </ns3:TrackPointExtension>
        </extensions>
      </trkpt>
      <trkpt lat="43.77973462454974651336669921875" lon="1.57915667630732059478759765625">
        <ele>124.8000030517578125</ele>
        <time>2026-08-13T07:35:44.000Z</time>
        <extensions>
          <ns3:TrackPointExtension>
            <ns3:hr>78</ns3:hr>
            <ns3:cad>41</ns3:cad>
          </ns3:TrackPointExtension>
        </extensions>
      </trkpt>
      <trkpt lat="43.77972557209432125091552734375" lon="1.57917260192334651947021484375">
        <ele>124.8000030517578125</ele>
        <time>2026-08-13T07:35:45.000Z</time>
        <extensions>
          <ns3:TrackPointExtension>
            <ns3:hr>78</ns3:hr>
            <ns3:cad>41</ns3:cad>
          </ns3:TrackPointExtension>
        </extensions>
      </trkpt>
      <trkpt lat="43.779721967875957489013671875" lon="1.57918249256908893585205078125">
        <ele>124.8000030517578125</ele>
        <time>2026-08-13T07:35:46.000Z</time>
        <extensions>
          <ns3:TrackPointExtension>
            <ns3:hr>78</ns3:hr>
            <ns3:cad>41</ns3:cad>
          </ns3:TrackPointExtension>
        </extensions>
      </trkpt>
      <trkpt lat="43.779716603457927703857421875" lon="1.579192467033863067626953125">
        <ele>124.8000030517578125</ele>
        <time>2026-08-13T07:35:47.000Z</time>
        <extensions>
          <ns3:TrackPointExtension>
            <ns3:hr>78</ns3:hr>
            <ns3:cad>41</ns3:cad>
          </ns3:TrackPointExtension>
        </extensions>
      </trkpt>
      <trkpt lat="43.7797117419540882110595703125" lon="1.5792104043066501617431640625">
        <ele>124.8000030517578125</ele>
        <time>2026-08-13T07:35:48.000Z</time>
        <extensions>
          <ns3:TrackPointExtension>
            <ns3:hr>78</ns3:hr>
            <ns3:cad>42</ns3:cad>
          </ns3:TrackPointExtension>
        </extensions>
      </trkpt>
      <trkpt lat="43.77970864064991474151611328125" lon="1.5792214684188365936279296875">
        <ele>124.8000030517578125</ele>
        <time>2026-08-13T07:35:49.000Z</time>
        <extensions>
          <ns3:TrackPointExtension>
            <ns3:hr>78</ns3:hr>
            <ns3:cad>42</ns3:cad>
          </ns3:TrackPointExtension>
        </extensions>
      </trkpt>
      <trkpt lat="43.77970545552670955657958984375" lon="1.57922741957008838653564453125">
        <ele>124.8000030517578125</ele>
        <time>2026-08-13T07:35:50.000Z</time>
        <extensions>
          <ns3:TrackPointExtension>
            <ns3:hr>78</ns3:hr>
            <ns3:cad>42</ns3:cad>
          </ns3:TrackPointExtension>
        </extensions>
      </trkpt>
      <trkpt lat="43.77969791181385517120361328125" lon="1.57924150116741657257080078125">
        <ele>124.8000030517578125</ele>
        <time>2026-08-13T07:35:51.000Z</time>
        <extensions>
          <ns3:TrackPointExtension>
            <ns3:hr>78</ns3:hr>
            <ns3:cad>41</ns3:cad>
          </ns3:TrackPointExtension>
        </extensions>
      </trkpt>
      <trkpt lat="43.779691122472286224365234375" lon="1.57925273291766643524169921875">
        <ele>124.8000030517578125</ele>
        <time>2026-08-13T07:35:52.000Z</time>
        <extensions>
          <ns3:TrackPointExtension>
            <ns3:hr>79</ns3:hr>
            <ns3:cad>40</ns3:cad>
          </ns3:TrackPointExtension>
        </extensions>
      </trkpt>
      <trkpt lat="43.7796847522258758544921875" lon="1.57926119863986968994140625">
        <ele>124.8000030517578125</ele>
        <time>2026-08-13T07:35:53.000Z</time>
        <extensions>
          <ns3:TrackPointExtension>
            <ns3:hr>80</ns3:hr>
            <ns3:cad>40</ns3:cad>
          </ns3:TrackPointExtension>
        </extensions>
      </trkpt>
      <trkpt lat="43.77967963926494121551513671875" lon="1.579267568886280059814453125">
        <ele>124.8000030517578125</ele>
        <time>2026-08-13T07:35:54.000Z</time>
        <extensions>
          <ns3:TrackPointExtension>
            <ns3:hr>80</ns3:hr>
            <ns3:cad>40</ns3:cad>
          </ns3:TrackPointExtension>
        </extensions>
      </trkpt>
      <trkpt lat="43.77967243082821369171142578125" lon="1.57927720807492733001708984375">
        <ele>124.8000030517578125</ele>
        <time>2026-08-13T07:35:55.000Z</time>
        <extensions>
          <ns3:TrackPointExtension>
            <ns3:hr>80</ns3:hr>
            <ns3:cad>40</ns3:cad>
          </ns3:TrackPointExtension>
        </extensions>
      </trkpt>
      <trkpt lat="43.779668994247913360595703125" lon="1.57928860746324062347412109375">
        <ele>124.8000030517578125</ele>
        <time>2026-08-13T07:35:56.000Z</time>
        <extensions>
          <ns3:TrackPointExtension>
            <ns3:hr>80</ns3:hr>
            <ns3:cad>40</ns3:cad>
          </ns3:TrackPointExtension>
        </extensions>
      </trkpt>
      <trkpt lat="43.77966463565826416015625" lon="1.57929548062384128570556640625">
        <ele>124.8000030517578125</ele>
        <time>2026-08-13T07:35:57.000Z</time>
        <extensions>
          <ns3:TrackPointExtension>
            <ns3:hr>80</ns3:hr>
            <ns3:cad>44</ns3:cad>
          </ns3:TrackPointExtension>
        </extensions>
      </trkpt>
      <trkpt lat="43.7796607799828052520751953125" lon="1.579302437603473663330078125">
        <ele>124.8000030517578125</ele>
        <time>2026-08-13T07:35:58.000Z</time>
        <extensions>
          <ns3:TrackPointExtension>
            <ns3:hr>80</ns3:hr>
            <ns3:cad>44</ns3:cad>
          </ns3:TrackPointExtension>
        </extensions>
      </trkpt>
      <trkpt lat="43.779654242098331451416015625" lon="1.57931484282016754150390625">
        <ele>124.8000030517578125</ele>
        <time>2026-08-13T07:35:59.000Z</time>
        <extensions>
          <ns3:TrackPointExtension>
            <ns3:hr>80</ns3:hr>
            <ns3:cad>44</ns3:cad>
          </ns3:TrackPointExtension>
        </extensions>
      </trkpt>
      <trkpt lat="43.77964929677546024322509765625" lon="1.579322554171085357666015625">
        <ele>124.8000030517578125</ele>
        <time>2026-08-13T07:36:00.000Z</time>
        <extensions>
          <ns3:TrackPointExtension>
            <ns3:hr>80</ns3:hr>
            <ns3:cad>44</ns3:cad>
          </ns3:TrackPointExtension>
        </extensions>
      </trkpt>
      <trkpt lat="43.77964309416711330413818359375" lon="1.5793277509510517120361328125">
        <ele>124.8000030517578125</ele>
        <time>2026-08-13T07:36:01.000Z</time>
        <extensions>
          <ns3:TrackPointExtension>
            <ns3:hr>80</ns3:hr>
            <ns3:cad>44</ns3:cad>
          </ns3:TrackPointExtension>
        </extensions>
      </trkpt>
      <trkpt lat="43.779632113873958587646484375" lon="1.57933906652033329010009765625">
        <ele>124.8000030517578125</ele>
        <time>2026-08-13T07:36:02.000Z</time>
        <extensions>
          <ns3:TrackPointExtension>
            <ns3:hr>79</ns3:hr>
            <ns3:cad>43</ns3:cad>
          </ns3:TrackPointExtension>
        </extensions>
      </trkpt>
      <trkpt lat="43.779624737799167633056640625" lon="1.5793502144515514373779296875">
        <ele>124.8000030517578125</ele>
        <time>2026-08-13T07:36:03.000Z</time>
        <extensions>
          <ns3:TrackPointExtension>
            <ns3:hr>79</ns3:hr>
            <ns3:cad>43</ns3:cad>
          </ns3:TrackPointExtension>
        </extensions>
      </trkpt>
      <trkpt lat="43.7796168588101863861083984375" lon="1.579358763992786407470703125">
        <ele>124.8000030517578125</ele>
        <time>2026-08-13T07:36:04.000Z</time>
        <extensions>
          <ns3:TrackPointExtension>
            <ns3:hr>79</ns3:hr>
            <ns3:cad>43</ns3:cad>
          </ns3:TrackPointExtension>
        </extensions>
      </trkpt>
      <trkpt lat="43.77961032092571258544921875" lon="1.5793656371533870697021484375">
        <ele>124.8000030517578125</ele>
        <time>2026-08-13T07:36:05.000Z</time>
        <extensions>
          <ns3:TrackPointExtension>
            <ns3:hr>79</ns3:hr>
            <ns3:cad>42</ns3:cad>
          </ns3:TrackPointExtension>
        </extensions>
      </trkpt>
      <trkpt lat="43.77960252575576305389404296875" lon="1.5793807245790958404541015625">
        <ele>124.8000030517578125</ele>
        <time>2026-08-13T07:36:06.000Z</time>
        <extensions>
          <ns3:TrackPointExtension>
            <ns3:hr>79</ns3:hr>
            <ns3:cad>42</ns3:cad>
          </ns3:TrackPointExtension>
        </extensions>
      </trkpt>
      <trkpt lat="43.779598586261272430419921875" lon="1.57939053140580654144287109375">
        <ele>124.8000030517578125</ele>
        <time>2026-08-13T07:36:07.000Z</time>
        <extensions>
          <ns3:TrackPointExtension>
            <ns3:hr>78</ns3:hr>
            <ns3:cad>42</ns3:cad>
          </ns3:TrackPointExtension>
        </extensions>
      </trkpt>
      <trkpt lat="43.77959313802421092987060546875" lon="1.5793971531093120574951171875">
        <ele>124.8000030517578125</ele>
        <time>2026-08-13T07:36:08.000Z</time>
        <extensions>
          <ns3:TrackPointExtension>
            <ns3:hr>78</ns3:hr>
            <ns3:cad>43</ns3:cad>
          </ns3:TrackPointExtension>
        </extensions>
      </trkpt>
      <trkpt lat="43.77958961762487888336181640625" lon="1.579405032098293304443359375">
        <ele>124.8000030517578125</ele>
        <time>2026-08-13T07:36:09.000Z</time>
        <extensions>
          <ns3:TrackPointExtension>
            <ns3:hr>78</ns3:hr>
            <ns3:cad>44</ns3:cad>
          </ns3:TrackPointExtension>
        </extensions>
      </trkpt>
      <trkpt lat="43.7795828282833099365234375" lon="1.57941953279078006744384765625">
        <ele>124.8000030517578125</ele>
        <time>2026-08-13T07:36:10.000Z</time>
        <extensions>
          <ns3:TrackPointExtension>
            <ns3:hr>78</ns3:hr>
            <ns3:cad>44</ns3:cad>
          </ns3:TrackPointExtension>
        </extensions>
      </trkpt>
      <trkpt lat="43.7795746140182018280029296875" lon="1.57943227328360080718994140625">
        <ele>124.8000030517578125</ele>
        <time>2026-08-13T07:36:11.000Z</time>
        <extensions>
          <ns3:TrackPointExtension>
            <ns3:hr>78</ns3:hr>
            <ns3:cad>43</ns3:cad>
          </ns3:TrackPointExtension>
        </extensions>
      </trkpt>
      <trkpt lat="43.77956933341920375823974609375" lon="1.57943864353001117706298828125">
        <ele>124.8000030517578125</ele>
        <time>2026-08-13T07:36:12.000Z</time>
        <extensions>
          <ns3:TrackPointExtension>
            <ns3:hr>78</ns3:hr>
            <ns3:cad>43</ns3:cad>
          </ns3:TrackPointExtension>
        </extensions>
      </trkpt>
      <trkpt lat="43.77956497482955455780029296875" lon="1.5794501267373561859130859375">
        <ele>124.8000030517578125</ele>
        <time>2026-08-13T07:36:13.000Z</time>
        <extensions>
          <ns3:TrackPointExtension>
            <ns3:hr>78</ns3:hr>
            <ns3:cad>43</ns3:cad>
          </ns3:TrackPointExtension>
        </extensions>
      </trkpt>
      <trkpt lat="43.77955659292638301849365234375" lon="1.57946898601949214935302734375">
        <ele>124.8000030517578125</ele>
        <time>2026-08-13T07:36:14.000Z</time>
        <extensions>
          <ns3:TrackPointExtension>
            <ns3:hr>78</ns3:hr>
            <ns3:cad>43</ns3:cad>
          </ns3:TrackPointExtension>
        </extensions>
      </trkpt>
      <trkpt lat="43.77955206669867038726806640625" lon="1.5794776193797588348388671875">
        <ele>124.8000030517578125</ele>
        <time>2026-08-13T07:36:15.000Z</time>
        <extensions>
          <ns3:TrackPointExtension>
            <ns3:hr>77</ns3:hr>
            <ns3:cad>44</ns3:cad>
          </ns3:TrackPointExtension>
        </extensions>
      </trkpt>
      <trkpt lat="43.7795467860996723175048828125" lon="1.5794826485216617584228515625">
        <ele>124.8000030517578125</ele>
        <time>2026-08-13T07:36:16.000Z</time>
        <extensions>
          <ns3:TrackPointExtension>
            <ns3:hr>77</ns3:hr>
            <ns3:cad>44</ns3:cad>
          </ns3:TrackPointExtension>
        </extensions>
      </trkpt>
      <trkpt lat="43.77954016439616680145263671875" lon="1.57949480228126049041748046875">
        <ele>124.59999847412109375</ele>
        <time>2026-08-13T07:36:17.000Z</time>
        <extensions>
          <ns3:TrackPointExtension>
            <ns3:hr>77</ns3:hr>
            <ns3:cad>44</ns3:cad>
          </ns3:TrackPointExtension>
        </extensions>
      </trkpt>
      <trkpt lat="43.7795296870172023773193359375" lon="1.57950938679277896881103515625">
        <ele>124.59999847412109375</ele>
        <time>2026-08-13T07:36:18.000Z</time>
        <extensions>
          <ns3:TrackPointExtension>
            <ns3:hr>78</ns3:hr>
            <ns3:cad>44</ns3:cad>
          </ns3:TrackPointExtension>
        </extensions>
      </trkpt>
      <trkpt lat="43.77952516078948974609375" lon="1.57951978035271167755126953125">
        <ele>124.59999847412109375</ele>
        <time>2026-08-13T07:36:19.000Z</time>
        <extensions>
          <ns3:TrackPointExtension>
            <ns3:hr>78</ns3:hr>
            <ns3:cad>44</ns3:cad>
          </ns3:TrackPointExtension>
        </extensions>
      </trkpt>
      <trkpt lat="43.77951954491436481475830078125" lon="1.57952330075204372406005859375">
        <ele>124.59999847412109375</ele>
        <time>2026-08-13T07:36:20.000Z</time>
        <extensions>
          <ns3:TrackPointExtension>
            <ns3:hr>78</ns3:hr>
            <ns3:cad>44</ns3:cad>
          </ns3:TrackPointExtension>
        </extensions>
      </trkpt>
      <trkpt lat="43.77951116301119327545166015625" lon="1.57953939400613307952880859375">
        <ele>124.59999847412109375</ele>
        <time>2026-08-13T07:36:21.000Z</time>
        <extensions>
          <ns3:TrackPointExtension>
            <ns3:hr>78</ns3:hr>
            <ns3:cad>44</ns3:cad>
          </ns3:TrackPointExtension>
        </extensions>
      </trkpt>
      <trkpt lat="43.77950361929833889007568359375" lon="1.57955297268927097320556640625">
        <ele>124.59999847412109375</ele>
        <time>2026-08-13T07:36:22.000Z</time>
        <extensions>
          <ns3:TrackPointExtension>
            <ns3:hr>78</ns3:hr>
            <ns3:cad>44</ns3:cad>
          </ns3:TrackPointExtension>
        </extensions>
      </trkpt>
      <trkpt lat="43.77949691377580165863037109375" lon="1.57955515198409557342529296875">
        <ele>124.59999847412109375</ele>
        <time>2026-08-13T07:36:23.000Z</time>
        <extensions>
          <ns3:TrackPointExtension>
            <ns3:hr>78</ns3:hr>
            <ns3:cad>44</ns3:cad>
          </ns3:TrackPointExtension>
        </extensions>
      </trkpt>
      <trkpt lat="43.77948987297713756561279296875" lon="1.579558588564395904541015625">
        <ele>124.40000152587890625</ele>
        <time>2026-08-13T07:36:24.000Z</time>
        <extensions>
          <ns3:TrackPointExtension>
            <ns3:hr>78</ns3:hr>
            <ns3:cad>44</ns3:cad>
          </ns3:TrackPointExtension>
        </extensions>
      </trkpt>
      <trkpt lat="43.7794837541878223419189453125" lon="1.57957090996205806732177734375">
        <ele>124.40000152587890625</ele>
        <time>2026-08-13T07:36:25.000Z</time>
        <extensions>
          <ns3:TrackPointExtension>
            <ns3:hr>78</ns3:hr>
            <ns3:cad>45</ns3:cad>
          </ns3:TrackPointExtension>
        </extensions>
      </trkpt>
      <trkpt lat="43.77947746776044368743896484375" lon="1.579582728445529937744140625">
        <ele>124.40000152587890625</ele>
        <time>2026-08-13T07:36:26.000Z</time>
        <extensions>
          <ns3:TrackPointExtension>
            <ns3:hr>78</ns3:hr>
            <ns3:cad>45</ns3:cad>
          </ns3:TrackPointExtension>
        </extensions>
      </trkpt>
      <trkpt lat="43.77947193570435047149658203125" lon="1.5795922838151454925537109375">
        <ele>124.40000152587890625</ele>
        <time>2026-08-13T07:36:27.000Z</time>
        <extensions>
          <ns3:TrackPointExtension>
            <ns3:hr>78</ns3:hr>
            <ns3:cad>45</ns3:cad>
          </ns3:TrackPointExtension>
        </extensions>
      </trkpt>
      <trkpt lat="43.7794673256576061248779296875" lon="1.57959940843284130096435546875">
        <ele>124.40000152587890625</ele>
        <time>2026-08-13T07:36:28.000Z</time>
        <extensions>
          <ns3:TrackPointExtension>
            <ns3:hr>78</ns3:hr>
            <ns3:cad>45</ns3:cad>
          </ns3:TrackPointExtension>
        </extensions>
      </trkpt>
      <trkpt lat="43.77945953048765659332275390625" lon="1.57961114309728145599365234375">
        <ele>124.40000152587890625</ele>
        <time>2026-08-13T07:36:29.000Z</time>
        <extensions>
          <ns3:TrackPointExtension>
            <ns3:hr>78</ns3:hr>
            <ns3:cad>44</ns3:cad>
          </ns3:TrackPointExtension>
        </extensions>
      </trkpt>
      <trkpt lat="43.77945483662188053131103515625" lon="1.57962053082883358001708984375">
        <ele>124.40000152587890625</ele>
        <time>2026-08-13T07:36:30.000Z</time>
        <extensions>
          <ns3:TrackPointExtension>
            <ns3:hr>79</ns3:hr>
            <ns3:cad>44</ns3:cad>
          </ns3:TrackPointExtension>
        </extensions>
      </trkpt>
      <trkpt lat="43.7794487178325653076171875" lon="1.57962874509394168853759765625">
        <ele>124.40000152587890625</ele>
        <time>2026-08-13T07:36:31.000Z</time>
        <extensions>
          <ns3:TrackPointExtension>
            <ns3:hr>79</ns3:hr>
            <ns3:cad>44</ns3:cad>
          </ns3:TrackPointExtension>
        </extensions>
      </trkpt>
      <trkpt lat="43.77944410778582096099853515625" lon="1.5796362049877643585205078125">
        <ele>124.40000152587890625</ele>
        <time>2026-08-13T07:36:32.000Z</time>
        <extensions>
          <ns3:TrackPointExtension>
            <ns3:hr>79</ns3:hr>
            <ns3:cad>44</ns3:cad>
          </ns3:TrackPointExtension>
        </extensions>
      </trkpt>
      <trkpt lat="43.77943421714007854461669921875" lon="1.57964819110929965972900390625">
        <ele>124.40000152587890625</ele>
        <time>2026-08-13T07:36:33.000Z</time>
        <extensions>
          <ns3:TrackPointExtension>
            <ns3:hr>78</ns3:hr>
            <ns3:cad>44</ns3:cad>
          </ns3:TrackPointExtension>
        </extensions>
      </trkpt>
      <trkpt lat="43.77942818216979503631591796875" lon="1.57965908758342266082763671875">
        <ele>124.40000152587890625</ele>
        <time>2026-08-13T07:36:34.000Z</time>
        <extensions>
          <ns3:TrackPointExtension>
            <ns3:hr>78</ns3:hr>
            <ns3:cad>44</ns3:cad>
          </ns3:TrackPointExtension>
        </extensions>
      </trkpt>
      <trkpt lat="43.779425919055938720703125" lon="1.57966294325888156890869140625">
        <ele>124.1999969482421875</ele>
        <time>2026-08-13T07:36:35.000Z</time>
        <extensions>
          <ns3:TrackPointExtension>
            <ns3:hr>78</ns3:hr>
            <ns3:cad>45</ns3:cad>
          </ns3:TrackPointExtension>
        </extensions>
      </trkpt>
      <trkpt lat="43.77941787242889404296875" lon="1.57967266626656055450439453125">
        <ele>124.1999969482421875</ele>
        <time>2026-08-13T07:36:36.000Z</time>
        <extensions>
          <ns3:TrackPointExtension>
            <ns3:hr>78</ns3:hr>
            <ns3:cad>44</ns3:cad>
          </ns3:TrackPointExtension>
        </extensions>
      </trkpt>
      <trkpt lat="43.7794089876115322113037109375" lon="1.5796831436455249786376953125">
        <ele>124.1999969482421875</ele>
        <time>2026-08-13T07:36:37.000Z</time>
        <extensions>
          <ns3:TrackPointExtension>
            <ns3:hr>78</ns3:hr>
            <ns3:cad>44</ns3:cad>
          </ns3:TrackPointExtension>
        </extensions>
      </trkpt>
      <trkpt lat="43.77940404228866100311279296875" lon="1.5796911902725696563720703125">
        <ele>124.1999969482421875</ele>
        <time>2026-08-13T07:36:38.000Z</time>
        <extensions>
          <ns3:TrackPointExtension>
            <ns3:hr>78</ns3:hr>
            <ns3:cad>44</ns3:cad>
          </ns3:TrackPointExtension>
        </extensions>
      </trkpt>
      <trkpt lat="43.7793989293277263641357421875" lon="1.57969982363283634185791015625">
        <ele>124.1999969482421875</ele>
        <time>2026-08-13T07:36:39.000Z</time>
        <extensions>
          <ns3:TrackPointExtension>
            <ns3:hr>78</ns3:hr>
            <ns3:cad>44</ns3:cad>
          </ns3:TrackPointExtension>
        </extensions>
      </trkpt>
      <trkpt lat="43.77938945777714252471923828125" lon="1.57971004955470561981201171875">
        <ele>124.1999969482421875</ele>
        <time>2026-08-13T07:36:40.000Z</time>
        <extensions>
          <ns3:TrackPointExtension>
            <ns3:hr>77</ns3:hr>
            <ns3:cad>44</ns3:cad>
          </ns3:TrackPointExtension>
        </extensions>
      </trkpt>
      <trkpt lat="43.77938191406428813934326171875" lon="1.57971977256238460540771484375">
        <ele>124.1999969482421875</ele>
        <time>2026-08-13T07:36:41.000Z</time>
        <extensions>
          <ns3:TrackPointExtension>
            <ns3:hr>77</ns3:hr>
            <ns3:cad>44</ns3:cad>
          </ns3:TrackPointExtension>
        </extensions>
      </trkpt>
      <trkpt lat="43.7793747894465923309326171875" lon="1.5797258913516998291015625">
        <ele>124.1999969482421875</ele>
        <time>2026-08-13T07:36:42.000Z</time>
        <extensions>
          <ns3:TrackPointExtension>
            <ns3:hr>77</ns3:hr>
            <ns3:cad>44</ns3:cad>
          </ns3:TrackPointExtension>
        </extensions>
      </trkpt>
      <trkpt lat="43.7793657369911670684814453125" lon="1.57973335124552249908447265625">
        <ele>124.1999969482421875</ele>
        <time>2026-08-13T07:36:43.000Z</time>
        <extensions>
          <ns3:TrackPointExtension>
            <ns3:hr>77</ns3:hr>
            <ns3:cad>42</ns3:cad>
          </ns3:TrackPointExtension>
        </extensions>
      </trkpt>
      <trkpt lat="43.7793560139834880828857421875" lon="1.579740308225154876708984375">
        <ele>124.1999969482421875</ele>
        <time>2026-08-13T07:36:44.000Z</time>
        <extensions>
          <ns3:TrackPointExtension>
            <ns3:hr>77</ns3:hr>
            <ns3:cad>42</ns3:cad>
          </ns3:TrackPointExtension>
        </extensions>
      </trkpt>
      <trkpt lat="43.77934972755610942840576171875" lon="1.57974944449961185455322265625">
        <ele>124.1999969482421875</ele>
        <time>2026-08-13T07:36:45.000Z</time>
        <extensions>
          <ns3:TrackPointExtension>
            <ns3:hr>77</ns3:hr>
            <ns3:cad>42</ns3:cad>
          </ns3:TrackPointExtension>
        </extensions>
      </trkpt>
      <trkpt lat="43.779343105852603912353515625" lon="1.5797558985650539398193359375">
        <ele>124.1999969482421875</ele>
        <time>2026-08-13T07:36:46.000Z</time>
        <extensions>
          <ns3:TrackPointExtension>
            <ns3:hr>77</ns3:hr>
            <ns3:cad>43</ns3:cad>
          </ns3:TrackPointExtension>
        </extensions>
      </trkpt>
      <trkpt lat="43.77933765761554241180419921875" lon="1.57976352609694004058837890625">
        <ele>124.1999969482421875</ele>
        <time>2026-08-13T07:36:47.000Z</time>
        <extensions>
          <ns3:TrackPointExtension>
            <ns3:hr>77</ns3:hr>
            <ns3:cad>44</ns3:cad>
          </ns3:TrackPointExtension>
        </extensions>
      </trkpt>
      <trkpt lat="43.77933179028332233428955078125" lon="1.579773165285587310791015625">
        <ele>124.1999969482421875</ele>
        <time>2026-08-13T07:36:48.000Z</time>
        <extensions>
          <ns3:TrackPointExtension>
            <ns3:hr>77</ns3:hr>
            <ns3:cad>44</ns3:cad>
          </ns3:TrackPointExtension>
        </extensions>
      </trkpt>
      <trkpt lat="43.779326342046260833740234375" lon="1.5797830559313297271728515625">
        <ele>124</ele>
        <time>2026-08-13T07:36:49.000Z</time>
        <extensions>
          <ns3:TrackPointExtension>
            <ns3:hr>77</ns3:hr>
            <ns3:cad>44</ns3:cad>
          </ns3:TrackPointExtension>
        </extensions>
      </trkpt>
      <trkpt lat="43.779318965971469879150390625" lon="1.579792611300945281982421875">
        <ele>124</ele>
        <time>2026-08-13T07:36:50.000Z</time>
        <extensions>
          <ns3:TrackPointExtension>
            <ns3:hr>77</ns3:hr>
            <ns3:cad>43</ns3:cad>
          </ns3:TrackPointExtension>
        </extensions>
      </trkpt>
      <trkpt lat="43.77931125462055206298828125" lon="1.5798011608421802520751953125">
        <ele>124</ele>
        <time>2026-08-13T07:36:51.000Z</time>
        <extensions>
          <ns3:TrackPointExtension>
            <ns3:hr>77</ns3:hr>
            <ns3:cad>43</ns3:cad>
          </ns3:TrackPointExtension>
        </extensions>
      </trkpt>
      <trkpt lat="43.77930312417447566986083984375" lon="1.579812057316303253173828125">
        <ele>124</ele>
        <time>2026-08-13T07:36:52.000Z</time>
        <extensions>
          <ns3:TrackPointExtension>
            <ns3:hr>77</ns3:hr>
            <ns3:cad>43</ns3:cad>
          </ns3:TrackPointExtension>
        </extensions>
      </trkpt>
      <trkpt lat="43.7792980112135410308837890625" lon="1.57982253469526767730712890625">
        <ele>124</ele>
        <time>2026-08-13T07:36:53.000Z</time>
        <extensions>
          <ns3:TrackPointExtension>
            <ns3:hr>77</ns3:hr>
            <ns3:cad>45</ns3:cad>
          </ns3:TrackPointExtension>
        </extensions>
      </trkpt>
      <trkpt lat="43.779289461672306060791015625" lon="1.579827480018138885498046875">
        <ele>124</ele>
        <time>2026-08-13T07:36:54.000Z</time>
        <extensions>
          <ns3:TrackPointExtension>
            <ns3:hr>77</ns3:hr>
            <ns3:cad>45</ns3:cad>
          </ns3:TrackPointExtension>
        </extensions>
      </trkpt>
      <trkpt lat="43.77928351052105426788330078125" lon="1.5798336826264858245849609375">
        <ele>124</ele>
        <time>2026-08-13T07:36:55.000Z</time>
        <extensions>
          <ns3:TrackPointExtension>
            <ns3:hr>77</ns3:hr>
            <ns3:cad>45</ns3:cad>
          </ns3:TrackPointExtension>
        </extensions>
      </trkpt>
      <trkpt lat="43.7792755477130413055419921875" lon="1.57984684221446514129638671875">
        <ele>124</ele>
        <time>2026-08-13T07:36:56.000Z</time>
        <extensions>
          <ns3:TrackPointExtension>
            <ns3:hr>78</ns3:hr>
            <ns3:cad>45</ns3:cad>
          </ns3:TrackPointExtension>
        </extensions>
      </trkpt>
      <trkpt lat="43.779268004000186920166015625" lon="1.57985455356538295745849609375">
        <ele>124</ele>
        <time>2026-08-13T07:36:57.000Z</time>
        <extensions>
          <ns3:TrackPointExtension>
            <ns3:hr>78</ns3:hr>
            <ns3:cad>44</ns3:cad>
          </ns3:TrackPointExtension>
        </extensions>
      </trkpt>
      <trkpt lat="43.77926104702055454254150390625" lon="1.57985799014568328857421875">
        <ele>124</ele>
        <time>2026-08-13T07:36:58.000Z</time>
        <extensions>
          <ns3:TrackPointExtension>
            <ns3:hr>78</ns3:hr>
            <ns3:cad>44</ns3:cad>
          </ns3:TrackPointExtension>
        </extensions>
      </trkpt>
      <trkpt lat="43.779249228537082672119140625" lon="1.57987131737172603607177734375">
        <ele>124</ele>
        <time>2026-08-13T07:36:59.000Z</time>
        <extensions>
          <ns3:TrackPointExtension>
            <ns3:hr>79</ns3:hr>
            <ns3:cad>44</ns3:cad>
          </ns3:TrackPointExtension>
        </extensions>
      </trkpt>
      <trkpt lat="43.77923908643424510955810546875" lon="1.57988078892230987548828125">
        <ele>124</ele>
        <time>2026-08-13T07:37:00.000Z</time>
        <extensions>
          <ns3:TrackPointExtension>
            <ns3:hr>79</ns3:hr>
            <ns3:cad>43</ns3:cad>
          </ns3:TrackPointExtension>
        </extensions>
      </trkpt>
      <trkpt lat="43.77923288382589817047119140625" lon="1.579884476959705352783203125">
        <ele>124</ele>
        <time>2026-08-13T07:37:01.000Z</time>
        <extensions>
          <ns3:TrackPointExtension>
            <ns3:hr>79</ns3:hr>
            <ns3:cad>43</ns3:cad>
          </ns3:TrackPointExtension>
        </extensions>
      </trkpt>
      <trkpt lat="43.77922751940786838531494140625" lon="1.579892523586750030517578125">
        <ele>124</ele>
        <time>2026-08-13T07:37:02.000Z</time>
        <extensions>
          <ns3:TrackPointExtension>
            <ns3:hr>79</ns3:hr>
            <ns3:cad>43</ns3:cad>
          </ns3:TrackPointExtension>
        </extensions>
      </trkpt>
      <trkpt lat="43.7792198918759822845458984375" lon="1.57990316860377788543701171875">
        <ele>124</ele>
        <time>2026-08-13T07:37:03.000Z</time>
        <extensions>
          <ns3:TrackPointExtension>
            <ns3:hr>79</ns3:hr>
            <ns3:cad>43</ns3:cad>
          </ns3:TrackPointExtension>
        </extensions>
      </trkpt>
      <trkpt lat="43.77921712584793567657470703125" lon="1.57991054467856884002685546875">
        <ele>124</ele>
        <time>2026-08-13T07:37:04.000Z</time>
        <extensions>
          <ns3:TrackPointExtension>
            <ns3:hr>79</ns3:hr>
            <ns3:cad>44</ns3:cad>
          </ns3:TrackPointExtension>
        </extensions>
      </trkpt>
      <trkpt lat="43.77921142615377902984619140625" lon="1.579915992915630340576171875">
        <ele>124</ele>
        <time>2026-08-13T07:37:05.000Z</time>
        <extensions>
          <ns3:TrackPointExtension>
            <ns3:hr>79</ns3:hr>
            <ns3:cad>44</ns3:cad>
          </ns3:TrackPointExtension>
        </extensions>
      </trkpt>
      <trkpt lat="43.7792034633457660675048828125" lon="1.5799235366284847259521484375">
        <ele>124</ele>
        <time>2026-08-13T07:37:06.000Z</time>
        <extensions>
          <ns3:TrackPointExtension>
            <ns3:hr>79</ns3:hr>
            <ns3:cad>44</ns3:cad>
          </ns3:TrackPointExtension>
        </extensions>
      </trkpt>
      <trkpt lat="43.77919751219451427459716796875" lon="1.57992663793265819549560546875">
        <ele>124</ele>
        <time>2026-08-13T07:37:07.000Z</time>
        <extensions>
          <ns3:TrackPointExtension>
            <ns3:hr>79</ns3:hr>
            <ns3:cad>43</ns3:cad>
          </ns3:TrackPointExtension>
        </extensions>
      </trkpt>
      <trkpt lat="43.77919256687164306640625" lon="1.57993300817906856536865234375">
        <ele>124</ele>
        <time>2026-08-13T07:37:08.000Z</time>
        <extensions>
          <ns3:TrackPointExtension>
            <ns3:hr>79</ns3:hr>
            <ns3:cad>41</ns3:cad>
          </ns3:TrackPointExtension>
        </extensions>
      </trkpt>
      <trkpt lat="43.7791877053678035736083984375" lon="1.579936780035495758056640625">
        <ele>124</ele>
        <time>2026-08-13T07:37:09.000Z</time>
        <extensions>
          <ns3:TrackPointExtension>
            <ns3:hr>79</ns3:hr>
            <ns3:cad>40</ns3:cad>
          </ns3:TrackPointExtension>
        </extensions>
      </trkpt>
      <trkpt lat="43.77918384969234466552734375" lon="1.579944156110286712646484375">
        <ele>124</ele>
        <time>2026-08-13T07:37:10.000Z</time>
        <extensions>
          <ns3:TrackPointExtension>
            <ns3:hr>80</ns3:hr>
            <ns3:cad>0</ns3:cad>
          </ns3:TrackPointExtension>
        </extensions>
      </trkpt>
      <trkpt lat="43.7791763059794902801513671875" lon="1.5799480117857456207275390625">
        <ele>124</ele>
        <time>2026-08-13T07:37:11.000Z</time>
        <extensions>
          <ns3:TrackPointExtension>
            <ns3:hr>79</ns3:hr>
            <ns3:cad>0</ns3:cad>
          </ns3:TrackPointExtension>
        </extensions>
      </trkpt>
      <trkpt lat="43.7791769765317440032958984375" lon="1.57994926907122135162353515625">
        <ele>124</ele>
        <time>2026-08-13T07:37:12.000Z</time>
        <extensions>
          <ns3:TrackPointExtension>
            <ns3:hr>79</ns3:hr>
            <ns3:cad>0</ns3:cad>
          </ns3:TrackPointExtension>
        </extensions>
      </trkpt>
      <trkpt lat="43.77917446196079254150390625" lon="1.57996125519275665283203125">
        <ele>124</ele>
        <time>2026-08-13T07:37:13.000Z</time>
        <extensions>
          <ns3:TrackPointExtension>
            <ns3:hr>79</ns3:hr>
            <ns3:cad>0</ns3:cad>
          </ns3:TrackPointExtension>
        </extensions>
      </trkpt>
      <trkpt lat="43.77917404286563396453857421875" lon="1.57996335066854953765869140625">
        <ele>124</ele>
        <time>2026-08-13T07:37:14.000Z</time>
        <extensions>
          <ns3:TrackPointExtension>
            <ns3:hr>79</ns3:hr>
            <ns3:cad>0</ns3:cad>
          </ns3:TrackPointExtension>
        </extensions>
      </trkpt>
      <trkpt lat="43.77917270176112651824951171875" lon="1.57996720634400844573974609375">
        <ele>123.8000030517578125</ele>
        <time>2026-08-13T07:37:15.000Z</time>
        <extensions>
          <ns3:TrackPointExtension>
            <ns3:hr>79</ns3:hr>
            <ns3:cad>0</ns3:cad>
          </ns3:TrackPointExtension>
        </extensions>
      </trkpt>
      <trkpt lat="43.77917270176112651824951171875" lon="1.5799661166965961456298828125">
        <ele>123.8000030517578125</ele>
        <time>2026-08-13T07:37:16.000Z</time>
        <extensions>
          <ns3:TrackPointExtension>
            <ns3:hr>79</ns3:hr>
            <ns3:cad>0</ns3:cad>
          </ns3:TrackPointExtension>
        </extensions>
      </trkpt>
      <trkpt lat="43.77917337231338024139404296875" lon="1.5799570642411708831787109375">
        <ele>123.8000030517578125</ele>
        <time>2026-08-13T07:37:17.000Z</time>
        <extensions>
          <ns3:TrackPointExtension>
            <ns3:hr>79</ns3:hr>
            <ns3:cad>0</ns3:cad>
          </ns3:TrackPointExtension>
        </extensions>
      </trkpt>
      <trkpt lat="43.77917052246630191802978515625" lon="1.57995798625051975250244140625">
        <ele>123.8000030517578125</ele>
        <time>2026-08-13T07:37:18.000Z</time>
        <extensions>
          <ns3:TrackPointExtension>
            <ns3:hr>79</ns3:hr>
            <ns3:cad>0</ns3:cad>
          </ns3:TrackPointExtension>
        </extensions>
      </trkpt>
      <trkpt lat="43.77916767261922359466552734375" lon="1.57996184192597866058349609375">
        <ele>123.8000030517578125</ele>
        <time>2026-08-13T07:37:19.000Z</time>
        <extensions>
          <ns3:TrackPointExtension>
            <ns3:hr>79</ns3:hr>
            <ns3:cad>0</ns3:cad>
          </ns3:TrackPointExtension>
        </extensions>
      </trkpt>
      <trkpt lat="43.779164068400859832763671875" lon="1.579964943230152130126953125">
        <ele>123.8000030517578125</ele>
        <time>2026-08-13T07:37:20.000Z</time>
        <extensions>
          <ns3:TrackPointExtension>
            <ns3:hr>78</ns3:hr>
            <ns3:cad>0</ns3:cad>
          </ns3:TrackPointExtension>
        </extensions>
      </trkpt>
      <trkpt lat="43.77916113473474979400634765625" lon="1.5799704752862453460693359375">
        <ele>123.8000030517578125</ele>
        <time>2026-08-13T07:37:21.000Z</time>
        <extensions>
          <ns3:TrackPointExtension>
            <ns3:hr>78</ns3:hr>
            <ns3:cad>0</ns3:cad>
          </ns3:TrackPointExtension>
        </extensions>
      </trkpt>
      <trkpt lat="43.77915727905929088592529296875" lon="1.57997055910527706146240234375">
        <ele>123.8000030517578125</ele>
        <time>2026-08-13T07:37:22.000Z</time>
        <extensions>
          <ns3:TrackPointExtension>
            <ns3:hr>78</ns3:hr>
            <ns3:cad>0</ns3:cad>
          </ns3:TrackPointExtension>
        </extensions>
      </trkpt>
      <trkpt lat="43.7791491486132144927978515625" lon="1.57997659407556056976318359375">
        <ele>123.8000030517578125</ele>
        <time>2026-08-13T07:37:23.000Z</time>
        <extensions>
          <ns3:TrackPointExtension>
            <ns3:hr>78</ns3:hr>
            <ns3:cad>0</ns3:cad>
          </ns3:TrackPointExtension>
        </extensions>
      </trkpt>
      <trkpt lat="43.779144287109375" lon="1.579977683722972869873046875">
        <ele>123.8000030517578125</ele>
        <time>2026-08-13T07:37:24.000Z</time>
        <extensions>
          <ns3:TrackPointExtension>
            <ns3:hr>78</ns3:hr>
            <ns3:cad>0</ns3:cad>
          </ns3:TrackPointExtension>
        </extensions>
      </trkpt>
      <trkpt lat="43.7791357375681400299072265625" lon="1.57998162321746349334716796875">
        <ele>123.8000030517578125</ele>
        <time>2026-08-13T07:37:25.000Z</time>
        <extensions>
          <ns3:TrackPointExtension>
            <ns3:hr>77</ns3:hr>
            <ns3:cad>0</ns3:cad>
          </ns3:TrackPointExtension>
        </extensions>
      </trkpt>
      <trkpt lat="43.7791295349597930908203125" lon="1.5799879096448421478271484375">
        <ele>123.8000030517578125</ele>
        <time>2026-08-13T07:37:26.000Z</time>
        <extensions>
          <ns3:TrackPointExtension>
            <ns3:hr>78</ns3:hr>
            <ns3:cad>0</ns3:cad>
          </ns3:TrackPointExtension>
        </extensions>
      </trkpt>
      <trkpt lat="43.779123164713382720947265625" lon="1.57999687828123569488525390625">
        <ele>123.8000030517578125</ele>
        <time>2026-08-13T07:37:27.000Z</time>
        <extensions>
          <ns3:TrackPointExtension>
            <ns3:hr>78</ns3:hr>
            <ns3:cad>0</ns3:cad>
          </ns3:TrackPointExtension>
        </extensions>
      </trkpt>
      <trkpt lat="43.77912727184593677520751953125" lon="1.57999738119542598724365234375">
        <ele>123.8000030517578125</ele>
        <time>2026-08-13T07:37:28.000Z</time>
        <extensions>
          <ns3:TrackPointExtension>
            <ns3:hr>78</ns3:hr>
            <ns3:cad>40</ns3:cad>
          </ns3:TrackPointExtension>
        </extensions>
      </trkpt>
      <trkpt lat="43.77912408672273159027099609375" lon="1.58000308088958263397216796875">
        <ele>123.8000030517578125</ele>
        <time>2026-08-13T07:37:29.000Z</time>
        <extensions>
          <ns3:TrackPointExtension>
            <ns3:hr>79</ns3:hr>
            <ns3:cad>80</ns3:cad>
          </ns3:TrackPointExtension>
        </extensions>
      </trkpt>
      <trkpt lat="43.77911687828600406646728515625" lon="1.58001221716403961181640625">
        <ele>123.8000030517578125</ele>
        <time>2026-08-13T07:37:30.000Z</time>
        <extensions>
          <ns3:TrackPointExtension>
            <ns3:hr>79</ns3:hr>
            <ns3:cad>80</ns3:cad>
          </ns3:TrackPointExtension>
        </extensions>
      </trkpt>
      <trkpt lat="43.7791080772876739501953125" lon="1.580021940171718597412109375">
        <ele>123.8000030517578125</ele>
        <time>2026-08-13T07:37:31.000Z</time>
        <extensions>
          <ns3:TrackPointExtension>
            <ns3:hr>79</ns3:hr>
            <ns3:cad>0</ns3:cad>
          </ns3:TrackPointExtension>
        </extensions>
      </trkpt>
      <trkpt lat="43.7790991924703121185302734375" lon="1.58002965152263641357421875">
        <ele>123.8000030517578125</ele>
        <time>2026-08-13T07:37:32.000Z</time>
        <extensions>
          <ns3:TrackPointExtension>
            <ns3:hr>79</ns3:hr>
            <ns3:cad>0</ns3:cad>
          </ns3:TrackPointExtension>
        </extensions>
      </trkpt>
      <trkpt lat="43.7790918163955211639404296875" lon="1.580034680664539337158203125">
        <ele>123.8000030517578125</ele>
        <time>2026-08-13T07:37:33.000Z</time>
        <extensions>
          <ns3:TrackPointExtension>
            <ns3:hr>78</ns3:hr>
            <ns3:cad>0</ns3:cad>
          </ns3:TrackPointExtension>
        </extensions>
      </trkpt>
      <trkpt lat="43.77908620052039623260498046875" lon="1.58003744669258594512939453125">
        <ele>123.8000030517578125</ele>
        <time>2026-08-13T07:37:34.000Z</time>
        <extensions>
          <ns3:TrackPointExtension>
            <ns3:hr>78</ns3:hr>
            <ns3:cad>0</ns3:cad>
          </ns3:TrackPointExtension>
        </extensions>
      </trkpt>
      <trkpt lat="43.779079578816890716552734375" lon="1.5800422243773937225341796875">
        <ele>123.8000030517578125</ele>
        <time>2026-08-13T07:37:35.000Z</time>
        <extensions>
          <ns3:TrackPointExtension>
            <ns3:hr>78</ns3:hr>
            <ns3:cad>0</ns3:cad>
          </ns3:TrackPointExtension>
        </extensions>
      </trkpt>
      <trkpt lat="43.779073543846607208251953125" lon="1.580047421157360076904296875">
        <ele>123.8000030517578125</ele>
        <time>2026-08-13T07:37:36.000Z</time>
        <extensions>
          <ns3:TrackPointExtension>
            <ns3:hr>79</ns3:hr>
            <ns3:cad>0</ns3:cad>
          </ns3:TrackPointExtension>
        </extensions>
      </trkpt>
      <trkpt lat="43.77906583249568939208984375" lon="1.58005286939442157745361328125">
        <ele>123.8000030517578125</ele>
        <time>2026-08-13T07:37:37.000Z</time>
        <extensions>
          <ns3:TrackPointExtension>
            <ns3:hr>79</ns3:hr>
            <ns3:cad>0</ns3:cad>
          </ns3:TrackPointExtension>
        </extensions>
      </trkpt>
      <trkpt lat="43.77905619330704212188720703125" lon="1.5800603292882442474365234375">
        <ele>123.8000030517578125</ele>
        <time>2026-08-13T07:37:38.000Z</time>
        <extensions>
          <ns3:TrackPointExtension>
            <ns3:hr>79</ns3:hr>
            <ns3:cad>76</ns3:cad>
          </ns3:TrackPointExtension>
        </extensions>
      </trkpt>
      <trkpt lat="43.77905082888901233673095703125" lon="1.5800656937062740325927734375">
        <ele>123.8000030517578125</ele>
        <time>2026-08-13T07:37:39.000Z</time>
        <extensions>
          <ns3:TrackPointExtension>
            <ns3:hr>80</ns3:hr>
            <ns3:cad>76</ns3:cad>
          </ns3:TrackPointExtension>
        </extensions>
      </trkpt>
      <trkpt lat="43.77904630266129970550537109375" lon="1.58006988465785980224609375">
        <ele>123.8000030517578125</ele>
        <time>2026-08-13T07:37:40.000Z</time>
        <extensions>
          <ns3:TrackPointExtension>
            <ns3:hr>80</ns3:hr>
            <ns3:cad>77</ns3:cad>
          </ns3:TrackPointExtension>
        </extensions>
      </trkpt>
      <trkpt lat="43.77903959713876247406005859375" lon="1.580075919628143310546875">
        <ele>123.8000030517578125</ele>
        <time>2026-08-13T07:37:41.000Z</time>
        <extensions>
          <ns3:TrackPointExtension>
            <ns3:hr>81</ns3:hr>
            <ns3:cad>77</ns3:cad>
          </ns3:TrackPointExtension>
        </extensions>
      </trkpt>
      <trkpt lat="43.7790321372449398040771484375" lon="1.58008153550326824188232421875">
        <ele>123.8000030517578125</ele>
        <time>2026-08-13T07:37:42.000Z</time>
        <extensions>
          <ns3:TrackPointExtension>
            <ns3:hr>82</ns3:hr>
            <ns3:cad>77</ns3:cad>
          </ns3:TrackPointExtension>
        </extensions>
      </trkpt>
      <trkpt lat="43.77902350388467311859130859375" lon="1.58008472062647342681884765625">
        <ele>123.8000030517578125</ele>
        <time>2026-08-13T07:37:43.000Z</time>
        <extensions>
          <ns3:TrackPointExtension>
            <ns3:hr>83</ns3:hr>
            <ns3:cad>41</ns3:cad>
          </ns3:TrackPointExtension>
        </extensions>
      </trkpt>
      <trkpt lat="43.77901562489569187164306640625" lon="1.58009008504450321197509765625">
        <ele>123.8000030517578125</ele>
        <time>2026-08-13T07:37:44.000Z</time>
        <extensions>
          <ns3:TrackPointExtension>
            <ns3:hr>84</ns3:hr>
            <ns3:cad>41</ns3:cad>
          </ns3:TrackPointExtension>
        </extensions>
      </trkpt>
      <trkpt lat="43.7790088355541229248046875" lon="1.58009092323482036590576171875">
        <ele>123.8000030517578125</ele>
        <time>2026-08-13T07:37:45.000Z</time>
        <extensions>
          <ns3:TrackPointExtension>
            <ns3:hr>84</ns3:hr>
            <ns3:cad>77</ns3:cad>
          </ns3:TrackPointExtension>
        </extensions>
      </trkpt>
      <trkpt lat="43.7789982743561267852783203125" lon="1.58009243197739124298095703125">
        <ele>123.8000030517578125</ele>
        <time>2026-08-13T07:37:46.000Z</time>
        <extensions>
          <ns3:TrackPointExtension>
            <ns3:hr>85</ns3:hr>
            <ns3:cad>77</ns3:cad>
          </ns3:TrackPointExtension>
        </extensions>
      </trkpt>
      <trkpt lat="43.77899316139519214630126953125" lon="1.5800958685576915740966796875">
        <ele>124</ele>
        <time>2026-08-13T07:37:47.000Z</time>
        <extensions>
          <ns3:TrackPointExtension>
            <ns3:hr>85</ns3:hr>
            <ns3:cad>77</ns3:cad>
          </ns3:TrackPointExtension>
        </extensions>
      </trkpt>
      <trkpt lat="43.77898947335779666900634765625" lon="1.58009058795869350433349609375">
        <ele>124</ele>
        <time>2026-08-13T07:37:48.000Z</time>
        <extensions>
          <ns3:TrackPointExtension>
            <ns3:hr>84</ns3:hr>
            <ns3:cad>75</ns3:cad>
          </ns3:TrackPointExtension>
        </extensions>
      </trkpt>
      <trkpt lat="43.7789846956729888916015625" lon="1.58008891157805919647216796875">
        <ele>124</ele>
        <time>2026-08-13T07:37:49.000Z</time>
        <extensions>
          <ns3:TrackPointExtension>
            <ns3:hr>84</ns3:hr>
            <ns3:cad>75</ns3:cad>
          </ns3:TrackPointExtension>
        </extensions>
      </trkpt>
      <trkpt lat="43.77898125909268856048583984375" lon="1.580093018710613250732421875">
        <ele>124</ele>
        <time>2026-08-13T07:37:50.000Z</time>
        <extensions>
          <ns3:TrackPointExtension>
            <ns3:hr>84</ns3:hr>
            <ns3:cad>73</ns3:cad>
          </ns3:TrackPointExtension>
        </extensions>
      </trkpt>
      <trkpt lat="43.778972961008548736572265625" lon="1.5800941921770572662353515625">
        <ele>124</ele>
        <time>2026-08-13T07:37:51.000Z</time>
        <extensions>
          <ns3:TrackPointExtension>
            <ns3:hr>84</ns3:hr>
            <ns3:cad>40</ns3:cad>
          </ns3:TrackPointExtension>
        </extensions>
      </trkpt>
      <trkpt lat="43.77896332181990146636962890625" lon="1.5801008976995944976806640625">
        <ele>123.8000030517578125</ele>
        <time>2026-08-13T07:37:52.000Z</time>
        <extensions>
          <ns3:TrackPointExtension>
            <ns3:hr>84</ns3:hr>
            <ns3:cad>0</ns3:cad>
          </ns3:TrackPointExtension>
        </extensions>
      </trkpt>
      <trkpt lat="43.7789583764970302581787109375" lon="1.5801035799086093902587890625">
        <ele>123.8000030517578125</ele>
        <time>2026-08-13T07:37:53.000Z</time>
        <extensions>
          <ns3:TrackPointExtension>
            <ns3:hr>84</ns3:hr>
            <ns3:cad>0</ns3:cad>
          </ns3:TrackPointExtension>
        </extensions>
      </trkpt>
      <trkpt lat="43.77895628102123737335205078125" lon="1.58010701648890972137451171875">
        <ele>123.8000030517578125</ele>
        <time>2026-08-13T07:37:54.000Z</time>
        <extensions>
          <ns3:TrackPointExtension>
            <ns3:hr>83</ns3:hr>
            <ns3:cad>0</ns3:cad>
          </ns3:TrackPointExtension>
        </extensions>
      </trkpt>
      <trkpt lat="43.77894689328968524932861328125" lon="1.58011338673532009124755859375">
        <ele>123.8000030517578125</ele>
        <time>2026-08-13T07:37:55.000Z</time>
        <extensions>
          <ns3:TrackPointExtension>
            <ns3:hr>83</ns3:hr>
            <ns3:cad>41</ns3:cad>
          </ns3:TrackPointExtension>
        </extensions>
      </trkpt>
      <trkpt lat="43.77894085831940174102783203125" lon="1.5801159851253032684326171875">
        <ele>123.8000030517578125</ele>
        <time>2026-08-13T07:37:56.000Z</time>
        <extensions>
          <ns3:TrackPointExtension>
            <ns3:hr>83</ns3:hr>
            <ns3:cad>41</ns3:cad>
          </ns3:TrackPointExtension>
        </extensions>
      </trkpt>
      <trkpt lat="43.77893113531172275543212890625" lon="1.5801220200955867767333984375">
        <ele>123.8000030517578125</ele>
        <time>2026-08-13T07:37:57.000Z</time>
        <extensions>
          <ns3:TrackPointExtension>
            <ns3:hr>82</ns3:hr>
            <ns3:cad>41</ns3:cad>
          </ns3:TrackPointExtension>
        </extensions>
      </trkpt>
      <trkpt lat="43.77892375923693180084228515625" lon="1.58012713305652141571044921875">
        <ele>123.8000030517578125</ele>
        <time>2026-08-13T07:37:58.000Z</time>
        <extensions>
          <ns3:TrackPointExtension>
            <ns3:hr>82</ns3:hr>
            <ns3:cad>41</ns3:cad>
          </ns3:TrackPointExtension>
        </extensions>
      </trkpt>
      <trkpt lat="43.7789174728095531463623046875" lon="1.58013031817972660064697265625">
        <ele>124</ele>
        <time>2026-08-13T07:37:59.000Z</time>
        <extensions>
          <ns3:TrackPointExtension>
            <ns3:hr>82</ns3:hr>
            <ns3:cad>75</ns3:cad>
          </ns3:TrackPointExtension>
        </extensions>
      </trkpt>
      <trkpt lat="43.77891294658184051513671875" lon="1.58013551495969295501708984375">
        <ele>124</ele>
        <time>2026-08-13T07:38:00.000Z</time>
        <extensions>
          <ns3:TrackPointExtension>
            <ns3:hr>82</ns3:hr>
            <ns3:cad>75</ns3:cad>
          </ns3:TrackPointExtension>
        </extensions>
      </trkpt>
      <trkpt lat="43.778912611305713653564453125" lon="1.580140627920627593994140625">
        <ele>124</ele>
        <time>2026-08-13T07:38:01.000Z</time>
        <extensions>
          <ns3:TrackPointExtension>
            <ns3:hr>82</ns3:hr>
            <ns3:cad>75</ns3:cad>
          </ns3:TrackPointExtension>
        </extensions>
      </trkpt>
      <trkpt lat="43.77890800125896930694580078125" lon="1.580150686204433441162109375">
        <ele>124</ele>
        <time>2026-08-13T07:38:02.000Z</time>
        <extensions>
          <ns3:TrackPointExtension>
            <ns3:hr>82</ns3:hr>
            <ns3:cad>0</ns3:cad>
          </ns3:TrackPointExtension>
        </extensions>
      </trkpt>
      <trkpt lat="43.7789057381451129913330078125" lon="1.5801604092121124267578125">
        <ele>124</ele>
        <time>2026-08-13T07:38:03.000Z</time>
        <extensions>
          <ns3:TrackPointExtension>
            <ns3:hr>82</ns3:hr>
            <ns3:cad>0</ns3:cad>
          </ns3:TrackPointExtension>
        </extensions>
      </trkpt>
      <trkpt lat="43.7789023853838443756103515625" lon="1.58016703091561794281005859375">
        <ele>124</ele>
        <time>2026-08-13T07:38:04.000Z</time>
        <extensions>
          <ns3:TrackPointExtension>
            <ns3:hr>82</ns3:hr>
            <ns3:cad>0</ns3:cad>
          </ns3:TrackPointExtension>
        </extensions>
      </trkpt>
      <trkpt lat="43.77890087664127349853515625" lon="1.580174826085567474365234375">
        <ele>124</ele>
        <time>2026-08-13T07:38:05.000Z</time>
        <extensions>
          <ns3:TrackPointExtension>
            <ns3:hr>82</ns3:hr>
            <ns3:cad>77</ns3:cad>
          </ns3:TrackPointExtension>
        </extensions>
      </trkpt>
      <trkpt lat="43.778897188603878021240234375" lon="1.5801823697984218597412109375">
        <ele>123.8000030517578125</ele>
        <time>2026-08-13T07:38:06.000Z</time>
        <extensions>
          <ns3:TrackPointExtension>
            <ns3:hr>82</ns3:hr>
            <ns3:cad>0</ns3:cad>
          </ns3:TrackPointExtension>
        </extensions>
      </trkpt>
      <trkpt lat="43.77889140509068965911865234375" lon="1.58018765039741992950439453125">
        <ele>123.8000030517578125</ele>
        <time>2026-08-13T07:38:07.000Z</time>
        <extensions>
          <ns3:TrackPointExtension>
            <ns3:hr>82</ns3:hr>
            <ns3:cad>0</ns3:cad>
          </ns3:TrackPointExtension>
        </extensions>
      </trkpt>
      <trkpt lat="43.7788872979581356048583984375" lon="1.5801944397389888763427734375">
        <ele>123.8000030517578125</ele>
        <time>2026-08-13T07:38:08.000Z</time>
        <extensions>
          <ns3:TrackPointExtension>
            <ns3:hr>82</ns3:hr>
            <ns3:cad>0</ns3:cad>
          </ns3:TrackPointExtension>
        </extensions>
      </trkpt>
      <trkpt lat="43.7788809277117252349853515625" lon="1.58020265400409698486328125">
        <ele>123.8000030517578125</ele>
        <time>2026-08-13T07:38:09.000Z</time>
        <extensions>
          <ns3:TrackPointExtension>
            <ns3:hr>82</ns3:hr>
            <ns3:cad>0</ns3:cad>
          </ns3:TrackPointExtension>
        </extensions>
      </trkpt>
      <trkpt lat="43.7788752280175685882568359375" lon="1.58021313138306140899658203125">
        <ele>123.8000030517578125</ele>
        <time>2026-08-13T07:38:10.000Z</time>
        <extensions>
          <ns3:TrackPointExtension>
            <ns3:hr>81</ns3:hr>
            <ns3:cad>73</ns3:cad>
          </ns3:TrackPointExtension>
        </extensions>
      </trkpt>
      <trkpt lat="43.77887061797082424163818359375" lon="1.58022142946720123291015625">
        <ele>123.8000030517578125</ele>
        <time>2026-08-13T07:38:11.000Z</time>
        <extensions>
          <ns3:TrackPointExtension>
            <ns3:hr>81</ns3:hr>
            <ns3:cad>73</ns3:cad>
          </ns3:TrackPointExtension>
        </extensions>
      </trkpt>
      <trkpt lat="43.778869025409221649169921875" lon="1.58022905699908733367919921875">
        <ele>124</ele>
        <time>2026-08-13T07:38:12.000Z</time>
        <extensions>
          <ns3:TrackPointExtension>
            <ns3:hr>81</ns3:hr>
            <ns3:cad>71</ns3:cad>
          </ns3:TrackPointExtension>
        </extensions>
      </trkpt>
      <trkpt lat="43.77886542119085788726806640625" lon="1.580237187445163726806640625">
        <ele>124</ele>
        <time>2026-08-13T07:38:13.000Z</time>
        <extensions>
          <ns3:TrackPointExtension>
            <ns3:hr>80</ns3:hr>
            <ns3:cad>71</ns3:cad>
          </ns3:TrackPointExtension>
        </extensions>
      </trkpt>
      <trkpt lat="43.77886743284761905670166015625" lon="1.58024783246219158172607421875">
        <ele>124</ele>
        <time>2026-08-13T07:38:14.000Z</time>
        <extensions>
          <ns3:TrackPointExtension>
            <ns3:hr>80</ns3:hr>
            <ns3:cad>71</ns3:cad>
          </ns3:TrackPointExtension>
        </extensions>
      </trkpt>
      <trkpt lat="43.77886659465730190277099609375" lon="1.58025219105184078216552734375">
        <ele>124</ele>
        <time>2026-08-13T07:38:15.000Z</time>
        <extensions>
          <ns3:TrackPointExtension>
            <ns3:hr>80</ns3:hr>
            <ns3:cad>0</ns3:cad>
          </ns3:TrackPointExtension>
        </extensions>
      </trkpt>
      <trkpt lat="43.778865337371826171875" lon="1.58026032149791717529296875">
        <ele>124</ele>
        <time>2026-08-13T07:38:16.000Z</time>
        <extensions>
          <ns3:TrackPointExtension>
            <ns3:hr>80</ns3:hr>
            <ns3:cad>0</ns3:cad>
          </ns3:TrackPointExtension>
        </extensions>
      </trkpt>
      <trkpt lat="43.77886391244828701019287109375" lon="1.58026711083948612213134765625">
        <ele>124</ele>
        <time>2026-08-13T07:38:17.000Z</time>
        <extensions>
          <ns3:TrackPointExtension>
            <ns3:hr>79</ns3:hr>
            <ns3:cad>0</ns3:cad>
          </ns3:TrackPointExtension>
        </extensions>
      </trkpt>
      <trkpt lat="43.77886223606765270233154296875" lon="1.580274067819118499755859375">
        <ele>124</ele>
        <time>2026-08-13T07:38:18.000Z</time>
        <extensions>
          <ns3:TrackPointExtension>
            <ns3:hr>79</ns3:hr>
            <ns3:cad>41</ns3:cad>
          </ns3:TrackPointExtension>
        </extensions>
      </trkpt>
      <trkpt lat="43.77885469235479831695556640625" lon="1.5802864730358123779296875">
        <ele>124</ele>
        <time>2026-08-13T07:38:19.000Z</time>
        <extensions>
          <ns3:TrackPointExtension>
            <ns3:hr>79</ns3:hr>
            <ns3:cad>41</ns3:cad>
          </ns3:TrackPointExtension>
        </extensions>
      </trkpt>
      <trkpt lat="43.77885125577449798583984375" lon="1.58029644750058650970458984375">
        <ele>124</ele>
        <time>2026-08-13T07:38:20.000Z</time>
        <extensions>
          <ns3:TrackPointExtension>
            <ns3:hr>78</ns3:hr>
            <ns3:cad>41</ns3:cad>
          </ns3:TrackPointExtension>
        </extensions>
      </trkpt>
      <trkpt lat="43.7788484059274196624755859375" lon="1.580306254327297210693359375">
        <ele>124</ele>
        <time>2026-08-13T07:38:21.000Z</time>
        <extensions>
          <ns3:TrackPointExtension>
            <ns3:hr>78</ns3:hr>
            <ns3:cad>41</ns3:cad>
          </ns3:TrackPointExtension>
        </extensions>
      </trkpt>
      <trkpt lat="43.77884329296648502349853515625" lon="1.58031958155333995819091796875">
        <ele>123.8000030517578125</ele>
        <time>2026-08-13T07:38:22.000Z</time>
        <extensions>
          <ns3:TrackPointExtension>
            <ns3:hr>78</ns3:hr>
            <ns3:cad>77</ns3:cad>
          </ns3:TrackPointExtension>
        </extensions>
      </trkpt>
      <trkpt lat="43.77884061075747013092041015625" lon="1.580325029790401458740234375">
        <ele>123.8000030517578125</ele>
        <time>2026-08-13T07:38:23.000Z</time>
        <extensions>
          <ns3:TrackPointExtension>
            <ns3:hr>77</ns3:hr>
            <ns3:cad>77</ns3:cad>
          </ns3:TrackPointExtension>
        </extensions>
      </trkpt>
      <trkpt lat="43.77883373759686946868896484375" lon="1.580337099730968475341796875">
        <ele>123.8000030517578125</ele>
        <time>2026-08-13T07:38:24.000Z</time>
        <extensions>
          <ns3:TrackPointExtension>
            <ns3:hr>77</ns3:hr>
            <ns3:cad>41</ns3:cad>
          </ns3:TrackPointExtension>
        </extensions>
      </trkpt>
      <trkpt lat="43.77883004955947399139404296875" lon="1.58034305088222026824951171875">
        <ele>123.8000030517578125</ele>
        <time>2026-08-13T07:38:25.000Z</time>
        <extensions>
          <ns3:TrackPointExtension>
            <ns3:hr>77</ns3:hr>
            <ns3:cad>41</ns3:cad>
          </ns3:TrackPointExtension>
        </extensions>
      </trkpt>
      <trkpt lat="43.77882652916014194488525390625" lon="1.58035126514732837677001953125">
        <ele>123.59999847412109375</ele>
        <time>2026-08-13T07:38:26.000Z</time>
        <extensions>
          <ns3:TrackPointExtension>
            <ns3:hr>77</ns3:hr>
            <ns3:cad>41</ns3:cad>
          </ns3:TrackPointExtension>
        </extensions>
      </trkpt>
      <trkpt lat="43.7788219191133975982666015625" lon="1.580360233783721923828125">
        <ele>123.59999847412109375</ele>
        <time>2026-08-13T07:38:27.000Z</time>
        <extensions>
          <ns3:TrackPointExtension>
            <ns3:hr>77</ns3:hr>
            <ns3:cad>41</ns3:cad>
          </ns3:TrackPointExtension>
        </extensions>
      </trkpt>
      <trkpt lat="43.77881814725697040557861328125" lon="1.58036719076335430145263671875">
        <ele>123.59999847412109375</ele>
        <time>2026-08-13T07:38:28.000Z</time>
        <extensions>
          <ns3:TrackPointExtension>
            <ns3:hr>77</ns3:hr>
            <ns3:cad>41</ns3:cad>
          </ns3:TrackPointExtension>
        </extensions>
      </trkpt>
      <trkpt lat="43.7788098491728305816650390625" lon="1.5803781710565090179443359375">
        <ele>123.59999847412109375</ele>
        <time>2026-08-13T07:38:29.000Z</time>
        <extensions>
          <ns3:TrackPointExtension>
            <ns3:hr>78</ns3:hr>
            <ns3:cad>51</ns3:cad>
          </ns3:TrackPointExtension>
        </extensions>
      </trkpt>
      <trkpt lat="43.77880255691707134246826171875" lon="1.5803882293403148651123046875">
        <ele>123.59999847412109375</ele>
        <time>2026-08-13T07:38:30.000Z</time>
        <extensions>
          <ns3:TrackPointExtension>
            <ns3:hr>78</ns3:hr>
            <ns3:cad>51</ns3:cad>
          </ns3:TrackPointExtension>
        </extensions>
      </trkpt>
      <trkpt lat="43.77879786305129528045654296875" lon="1.5803919173777103424072265625">
        <ele>123.8000030517578125</ele>
        <time>2026-08-13T07:38:31.000Z</time>
        <extensions>
          <ns3:TrackPointExtension>
            <ns3:hr>78</ns3:hr>
            <ns3:cad>51</ns3:cad>
          </ns3:TrackPointExtension>
        </extensions>
      </trkpt>
      <trkpt lat="43.7787893973290920257568359375" lon="1.58039845526218414306640625">
        <ele>123.8000030517578125</ele>
        <time>2026-08-13T07:38:32.000Z</time>
        <extensions>
          <ns3:TrackPointExtension>
            <ns3:hr>77</ns3:hr>
            <ns3:cad>51</ns3:cad>
          </ns3:TrackPointExtension>
        </extensions>
      </trkpt>
      <trkpt lat="43.77877841703593730926513671875" lon="1.580407507717609405517578125">
        <ele>123.8000030517578125</ele>
        <time>2026-08-13T07:38:33.000Z</time>
        <extensions>
          <ns3:TrackPointExtension>
            <ns3:hr>77</ns3:hr>
            <ns3:cad>47</ns3:cad>
          </ns3:TrackPointExtension>
        </extensions>
      </trkpt>
      <trkpt lat="43.77877070568501949310302734375" lon="1.5804140456020832061767578125">
        <ele>123.59999847412109375</ele>
        <time>2026-08-13T07:38:34.000Z</time>
        <extensions>
          <ns3:TrackPointExtension>
            <ns3:hr>77</ns3:hr>
            <ns3:cad>47</ns3:cad>
          </ns3:TrackPointExtension>
        </extensions>
      </trkpt>
      <trkpt lat="43.7787632457911968231201171875" lon="1.5804210864007472991943359375">
        <ele>123.59999847412109375</ele>
        <time>2026-08-13T07:38:35.000Z</time>
        <extensions>
          <ns3:TrackPointExtension>
            <ns3:hr>77</ns3:hr>
            <ns3:cad>47</ns3:cad>
          </ns3:TrackPointExtension>
        </extensions>
      </trkpt>
      <trkpt lat="43.7787498347461223602294921875" lon="1.58042485825717449188232421875">
        <ele>123.59999847412109375</ele>
        <time>2026-08-13T07:38:36.000Z</time>
        <extensions>
          <ns3:TrackPointExtension>
            <ns3:hr>78</ns3:hr>
            <ns3:cad>45</ns3:cad>
          </ns3:TrackPointExtension>
        </extensions>
      </trkpt>
      <trkpt lat="43.77873918972909450531005859375" lon="1.5804259479045867919921875">
        <ele>123.59999847412109375</ele>
        <time>2026-08-13T07:38:37.000Z</time>
        <extensions>
          <ns3:TrackPointExtension>
            <ns3:hr>77</ns3:hr>
            <ns3:cad>45</ns3:cad>
          </ns3:TrackPointExtension>
        </extensions>
      </trkpt>
      <trkpt lat="43.77873097546398639678955078125" lon="1.580431647598743438720703125">
        <ele>123.59999847412109375</ele>
        <time>2026-08-13T07:38:38.000Z</time>
        <extensions>
          <ns3:TrackPointExtension>
            <ns3:hr>78</ns3:hr>
            <ns3:cad>45</ns3:cad>
          </ns3:TrackPointExtension>
        </extensions>
      </trkpt>
      <trkpt lat="43.77872309647500514984130859375" lon="1.5804328210651874542236328125">
        <ele>123.59999847412109375</ele>
        <time>2026-08-13T07:38:39.000Z</time>
        <extensions>
          <ns3:TrackPointExtension>
            <ns3:hr>78</ns3:hr>
            <ns3:cad>45</ns3:cad>
          </ns3:TrackPointExtension>
        </extensions>
      </trkpt>
      <trkpt lat="43.77871370874345302581787109375" lon="1.5804391913115978240966796875">
        <ele>123.59999847412109375</ele>
        <time>2026-08-13T07:38:40.000Z</time>
        <extensions>
          <ns3:TrackPointExtension>
            <ns3:hr>79</ns3:hr>
            <ns3:cad>44</ns3:cad>
          </ns3:TrackPointExtension>
        </extensions>
      </trkpt>
      <trkpt lat="43.77870314754545688629150390625" lon="1.58044405281543731689453125">
        <ele>123.8000030517578125</ele>
        <time>2026-08-13T07:38:41.000Z</time>
        <extensions>
          <ns3:TrackPointExtension>
            <ns3:hr>80</ns3:hr>
            <ns3:cad>44</ns3:cad>
          </ns3:TrackPointExtension>
        </extensions>
      </trkpt>
      <trkpt lat="43.77869300544261932373046875" lon="1.58044966869056224822998046875">
        <ele>123.8000030517578125</ele>
        <time>2026-08-13T07:38:42.000Z</time>
        <extensions>
          <ns3:TrackPointExtension>
            <ns3:hr>80</ns3:hr>
            <ns3:cad>44</ns3:cad>
          </ns3:TrackPointExtension>
        </extensions>
      </trkpt>
      <trkpt lat="43.77867816947400569915771484375" lon="1.5804576314985752105712890625">
        <ele>123.8000030517578125</ele>
        <time>2026-08-13T07:38:43.000Z</time>
        <extensions>
          <ns3:TrackPointExtension>
            <ns3:hr>80</ns3:hr>
            <ns3:cad>0</ns3:cad>
          </ns3:TrackPointExtension>
        </extensions>
      </trkpt>
      <trkpt lat="43.7786670215427875518798828125" lon="1.58047355711460113525390625">
        <ele>123.8000030517578125</ele>
        <time>2026-08-13T07:38:44.000Z</time>
        <extensions>
          <ns3:TrackPointExtension>
            <ns3:hr>80</ns3:hr>
            <ns3:cad>0</ns3:cad>
          </ns3:TrackPointExtension>
        </extensions>
      </trkpt>
      <trkpt lat="43.7786583043634891510009765625" lon="1.58048219047486782073974609375">
        <ele>123.8000030517578125</ele>
        <time>2026-08-13T07:38:45.000Z</time>
        <extensions>
          <ns3:TrackPointExtension>
            <ns3:hr>81</ns3:hr>
            <ns3:cad>0</ns3:cad>
          </ns3:TrackPointExtension>
        </extensions>
      </trkpt>
      <trkpt lat="43.778650760650634765625" lon="1.58049057237803936004638671875">
        <ele>123.8000030517578125</ele>
        <time>2026-08-13T07:38:46.000Z</time>
        <extensions>
          <ns3:TrackPointExtension>
            <ns3:hr>82</ns3:hr>
            <ns3:cad>0</ns3:cad>
          </ns3:TrackPointExtension>
        </extensions>
      </trkpt>
      <trkpt lat="43.7786442227661609649658203125" lon="1.58049912191927433013916015625">
        <ele>123.8000030517578125</ele>
        <time>2026-08-13T07:38:47.000Z</time>
        <extensions>
          <ns3:TrackPointExtension>
            <ns3:hr>82</ns3:hr>
            <ns3:cad>47</ns3:cad>
          </ns3:TrackPointExtension>
        </extensions>
      </trkpt>
      <trkpt lat="43.77863525412976741790771484375" lon="1.58051244914531707763671875">
        <ele>123.8000030517578125</ele>
        <time>2026-08-13T07:38:48.000Z</time>
        <extensions>
          <ns3:TrackPointExtension>
            <ns3:hr>82</ns3:hr>
            <ns3:cad>47</ns3:cad>
          </ns3:TrackPointExtension>
        </extensions>
      </trkpt>
      <trkpt lat="43.77862703986465930938720703125" lon="1.5805220045149326324462890625">
        <ele>123.8000030517578125</ele>
        <time>2026-08-13T07:38:49.000Z</time>
        <extensions>
          <ns3:TrackPointExtension>
            <ns3:hr>82</ns3:hr>
            <ns3:cad>47</ns3:cad>
          </ns3:TrackPointExtension>
        </extensions>
      </trkpt>
      <trkpt lat="43.77862058579921722412109375" lon="1.58052493818104267120361328125">
        <ele>123.8000030517578125</ele>
        <time>2026-08-13T07:38:50.000Z</time>
        <extensions>
          <ns3:TrackPointExtension>
            <ns3:hr>82</ns3:hr>
            <ns3:cad>44</ns3:cad>
          </ns3:TrackPointExtension>
        </extensions>
      </trkpt>
      <trkpt lat="43.77861245535314083099365234375" lon="1.580536924302577972412109375">
        <ele>123.8000030517578125</ele>
        <time>2026-08-13T07:38:51.000Z</time>
        <extensions>
          <ns3:TrackPointExtension>
            <ns3:hr>81</ns3:hr>
            <ns3:cad>44</ns3:cad>
          </ns3:TrackPointExtension>
        </extensions>
      </trkpt>
      <trkpt lat="43.7786056660115718841552734375" lon="1.5805451385676860809326171875">
        <ele>123.8000030517578125</ele>
        <time>2026-08-13T07:38:52.000Z</time>
        <extensions>
          <ns3:TrackPointExtension>
            <ns3:hr>82</ns3:hr>
            <ns3:cad>44</ns3:cad>
          </ns3:TrackPointExtension>
        </extensions>
      </trkpt>
      <trkpt lat="43.77859837375581264495849609375" lon="1.580553688108921051025390625">
        <ele>123.8000030517578125</ele>
        <time>2026-08-13T07:38:53.000Z</time>
        <extensions>
          <ns3:TrackPointExtension>
            <ns3:hr>82</ns3:hr>
            <ns3:cad>44</ns3:cad>
          </ns3:TrackPointExtension>
        </extensions>
      </trkpt>
      <trkpt lat="43.77859233878552913665771484375" lon="1.5805602259933948516845703125">
        <ele>123.8000030517578125</ele>
        <time>2026-08-13T07:38:54.000Z</time>
        <extensions>
          <ns3:TrackPointExtension>
            <ns3:hr>82</ns3:hr>
            <ns3:cad>43</ns3:cad>
          </ns3:TrackPointExtension>
        </extensions>
      </trkpt>
      <trkpt lat="43.778583370149135589599609375" lon="1.58057053573429584503173828125">
        <ele>123.8000030517578125</ele>
        <time>2026-08-13T07:38:55.000Z</time>
        <extensions>
          <ns3:TrackPointExtension>
            <ns3:hr>82</ns3:hr>
            <ns3:cad>43</ns3:cad>
          </ns3:TrackPointExtension>
        </extensions>
      </trkpt>
      <trkpt lat="43.7785751558840274810791015625" lon="1.580581851303577423095703125">
        <ele>123.8000030517578125</ele>
        <time>2026-08-13T07:38:56.000Z</time>
        <extensions>
          <ns3:TrackPointExtension>
            <ns3:hr>82</ns3:hr>
            <ns3:cad>43</ns3:cad>
          </ns3:TrackPointExtension>
        </extensions>
      </trkpt>
      <trkpt lat="43.7785704620182514190673828125" lon="1.58059031702578067779541015625">
        <ele>123.8000030517578125</ele>
        <time>2026-08-13T07:38:57.000Z</time>
        <extensions>
          <ns3:TrackPointExtension>
            <ns3:hr>82</ns3:hr>
            <ns3:cad>44</ns3:cad>
          </ns3:TrackPointExtension>
        </extensions>
      </trkpt>
      <trkpt lat="43.77856551669538021087646484375" lon="1.5805957652628421783447265625">
        <ele>124</ele>
        <time>2026-08-13T07:38:58.000Z</time>
        <extensions>
          <ns3:TrackPointExtension>
            <ns3:hr>83</ns3:hr>
            <ns3:cad>44</ns3:cad>
          </ns3:TrackPointExtension>
        </extensions>
      </trkpt>
      <trkpt lat="43.778561912477016448974609375" lon="1.5806095115840435028076171875">
        <ele>124</ele>
        <time>2026-08-13T07:38:59.000Z</time>
        <extensions>
          <ns3:TrackPointExtension>
            <ns3:hr>83</ns3:hr>
            <ns3:cad>44</ns3:cad>
          </ns3:TrackPointExtension>
        </extensions>
      </trkpt>
      <trkpt lat="43.77855847589671611785888671875" lon="1.580620072782039642333984375">
        <ele>124</ele>
        <time>2026-08-13T07:39:00.000Z</time>
        <extensions>
          <ns3:TrackPointExtension>
            <ns3:hr>83</ns3:hr>
            <ns3:cad>44</ns3:cad>
          </ns3:TrackPointExtension>
        </extensions>
      </trkpt>
      <trkpt lat="43.77855311147868633270263671875" lon="1.58062602393329143524169921875">
        <ele>124</ele>
        <time>2026-08-13T07:39:01.000Z</time>
        <extensions>
          <ns3:TrackPointExtension>
            <ns3:hr>83</ns3:hr>
            <ns3:cad>42</ns3:cad>
          </ns3:TrackPointExtension>
        </extensions>
      </trkpt>
      <trkpt lat="43.77854757942259311676025390625" lon="1.5806356631219387054443359375">
        <ele>124</ele>
        <time>2026-08-13T07:39:02.000Z</time>
        <extensions>
          <ns3:TrackPointExtension>
            <ns3:hr>83</ns3:hr>
            <ns3:cad>42</ns3:cad>
          </ns3:TrackPointExtension>
        </extensions>
      </trkpt>
      <trkpt lat="43.77854422666132450103759765625" lon="1.58064714632928371429443359375">
        <ele>124</ele>
        <time>2026-08-13T07:39:03.000Z</time>
        <extensions>
          <ns3:TrackPointExtension>
            <ns3:hr>84</ns3:hr>
            <ns3:cad>0</ns3:cad>
          </ns3:TrackPointExtension>
        </extensions>
      </trkpt>
      <trkpt lat="43.7785389460623264312744140625" lon="1.580659635365009307861328125">
        <ele>124</ele>
        <time>2026-08-13T07:39:04.000Z</time>
        <extensions>
          <ns3:TrackPointExtension>
            <ns3:hr>84</ns3:hr>
            <ns3:cad>0</ns3:cad>
          </ns3:TrackPointExtension>
        </extensions>
      </trkpt>
      <trkpt lat="43.77853249199688434600830078125" lon="1.58066759817302227020263671875">
        <ele>124</ele>
        <time>2026-08-13T07:39:05.000Z</time>
        <extensions>
          <ns3:TrackPointExtension>
            <ns3:hr>84</ns3:hr>
            <ns3:cad>0</ns3:cad>
          </ns3:TrackPointExtension>
        </extensions>
      </trkpt>
      <trkpt lat="43.778524696826934814453125" lon="1.58068017102777957916259765625">
        <ele>124</ele>
        <time>2026-08-13T07:39:06.000Z</time>
        <extensions>
          <ns3:TrackPointExtension>
            <ns3:hr>84</ns3:hr>
            <ns3:cad>0</ns3:cad>
          </ns3:TrackPointExtension>
        </extensions>
      </trkpt>
      <trkpt lat="43.77851924858987331390380859375" lon="1.58068972639739513397216796875">
        <ele>124</ele>
        <time>2026-08-13T07:39:07.000Z</time>
        <extensions>
          <ns3:TrackPointExtension>
            <ns3:hr>83</ns3:hr>
            <ns3:cad>0</ns3:cad>
          </ns3:TrackPointExtension>
        </extensions>
      </trkpt>
      <trkpt lat="43.7785121239721775054931640625" lon="1.5807010419666767120361328125">
        <ele>123.8000030517578125</ele>
        <time>2026-08-13T07:39:08.000Z</time>
        <extensions>
          <ns3:TrackPointExtension>
            <ns3:hr>84</ns3:hr>
            <ns3:cad>0</ns3:cad>
          </ns3:TrackPointExtension>
        </extensions>
      </trkpt>
      <trkpt lat="43.77850701101124286651611328125" lon="1.58071093261241912841796875">
        <ele>123.8000030517578125</ele>
        <time>2026-08-13T07:39:09.000Z</time>
        <extensions>
          <ns3:TrackPointExtension>
            <ns3:hr>84</ns3:hr>
            <ns3:cad>0</ns3:cad>
          </ns3:TrackPointExtension>
        </extensions>
      </trkpt>
      <trkpt lat="43.77850198186933994293212890625" lon="1.58072032034397125244140625">
        <ele>123.8000030517578125</ele>
        <time>2026-08-13T07:39:10.000Z</time>
        <extensions>
          <ns3:TrackPointExtension>
            <ns3:hr>84</ns3:hr>
            <ns3:cad>0</ns3:cad>
          </ns3:TrackPointExtension>
        </extensions>
      </trkpt>
      <trkpt lat="43.7784973718225955963134765625" lon="1.58073783852159976959228515625">
        <ele>123.8000030517578125</ele>
        <time>2026-08-13T07:39:11.000Z</time>
        <extensions>
          <ns3:TrackPointExtension>
            <ns3:hr>84</ns3:hr>
            <ns3:cad>44</ns3:cad>
          </ns3:TrackPointExtension>
        </extensions>
      </trkpt>
      <trkpt lat="43.778492175042629241943359375" lon="1.58075292594730854034423828125">
        <ele>123.8000030517578125</ele>
        <time>2026-08-13T07:39:12.000Z</time>
        <extensions>
          <ns3:TrackPointExtension>
            <ns3:hr>84</ns3:hr>
            <ns3:cad>44</ns3:cad>
          </ns3:TrackPointExtension>
        </extensions>
      </trkpt>
      <trkpt lat="43.77848873846232891082763671875" lon="1.58076214604079723358154296875">
        <ele>123.8000030517578125</ele>
        <time>2026-08-13T07:39:13.000Z</time>
        <extensions>
          <ns3:TrackPointExtension>
            <ns3:hr>83</ns3:hr>
            <ns3:cad>44</ns3:cad>
          </ns3:TrackPointExtension>
        </extensions>
      </trkpt>
      <trkpt lat="43.77848513424396514892578125" lon="1.58077036030590534210205078125">
        <ele>123.8000030517578125</ele>
        <time>2026-08-13T07:39:14.000Z</time>
        <extensions>
          <ns3:TrackPointExtension>
            <ns3:hr>84</ns3:hr>
            <ns3:cad>0</ns3:cad>
          </ns3:TrackPointExtension>
        </extensions>
      </trkpt>
      <trkpt lat="43.7784809432923793792724609375" lon="1.5807808376848697662353515625">
        <ele>123.8000030517578125</ele>
        <time>2026-08-13T07:39:15.000Z</time>
        <extensions>
          <ns3:TrackPointExtension>
            <ns3:hr>84</ns3:hr>
            <ns3:cad>0</ns3:cad>
          </ns3:TrackPointExtension>
        </extensions>
      </trkpt>
      <trkpt lat="43.77847465686500072479248046875" lon="1.58079081214964389801025390625">
        <ele>123.59999847412109375</ele>
        <time>2026-08-13T07:39:16.000Z</time>
        <extensions>
          <ns3:TrackPointExtension>
            <ns3:hr>83</ns3:hr>
            <ns3:cad>0</ns3:cad>
          </ns3:TrackPointExtension>
        </extensions>
      </trkpt>
      <trkpt lat="43.7784685380756855010986328125" lon="1.58080254681408405303955078125">
        <ele>123.59999847412109375</ele>
        <time>2026-08-13T07:39:17.000Z</time>
        <extensions>
          <ns3:TrackPointExtension>
            <ns3:hr>84</ns3:hr>
            <ns3:cad>46</ns3:cad>
          </ns3:TrackPointExtension>
        </extensions>
      </trkpt>
      <trkpt lat="43.77846526913344860076904296875" lon="1.580809839069843292236328125">
        <ele>123.8000030517578125</ele>
        <time>2026-08-13T07:39:18.000Z</time>
        <extensions>
          <ns3:TrackPointExtension>
            <ns3:hr>84</ns3:hr>
            <ns3:cad>46</ns3:cad>
          </ns3:TrackPointExtension>
        </extensions>
      </trkpt>
      <trkpt lat="43.77845839597284793853759765625" lon="1.58081964589655399322509765625">
        <ele>123.59999847412109375</ele>
        <time>2026-08-13T07:39:19.000Z</time>
        <extensions>
          <ns3:TrackPointExtension>
            <ns3:hr>84</ns3:hr>
            <ns3:cad>45</ns3:cad>
          </ns3:TrackPointExtension>
        </extensions>
      </trkpt>
      <trkpt lat="43.77845185808837413787841796875" lon="1.58083498477935791015625">
        <ele>123.59999847412109375</ele>
        <time>2026-08-13T07:39:20.000Z</time>
        <extensions>
          <ns3:TrackPointExtension>
            <ns3:hr>84</ns3:hr>
            <ns3:cad>45</ns3:cad>
          </ns3:TrackPointExtension>
        </extensions>
      </trkpt>
      <trkpt lat="43.77844624221324920654296875" lon="1.58084370195865631103515625">
        <ele>123.59999847412109375</ele>
        <time>2026-08-13T07:39:21.000Z</time>
        <extensions>
          <ns3:TrackPointExtension>
            <ns3:hr>84</ns3:hr>
            <ns3:cad>44</ns3:cad>
          </ns3:TrackPointExtension>
        </extensions>
      </trkpt>
      <trkpt lat="43.77844364382326602935791015625" lon="1.580854766070842742919921875">
        <ele>123.59999847412109375</ele>
        <time>2026-08-13T07:39:22.000Z</time>
        <extensions>
          <ns3:TrackPointExtension>
            <ns3:hr>84</ns3:hr>
            <ns3:cad>44</ns3:cad>
          </ns3:TrackPointExtension>
        </extensions>
      </trkpt>
      <trkpt lat="43.77843894995748996734619140625" lon="1.58087094314396381378173828125">
        <ele>123.59999847412109375</ele>
        <time>2026-08-13T07:39:23.000Z</time>
        <extensions>
          <ns3:TrackPointExtension>
            <ns3:hr>84</ns3:hr>
            <ns3:cad>44</ns3:cad>
          </ns3:TrackPointExtension>
        </extensions>
      </trkpt>
      <trkpt lat="43.7784340046346187591552734375" lon="1.58088552765548229217529296875">
        <ele>123.59999847412109375</ele>
        <time>2026-08-13T07:39:24.000Z</time>
        <extensions>
          <ns3:TrackPointExtension>
            <ns3:hr>84</ns3:hr>
            <ns3:cad>45</ns3:cad>
          </ns3:TrackPointExtension>
        </extensions>
      </trkpt>
      <trkpt lat="43.77842738293111324310302734375" lon="1.58089307136833667755126953125">
        <ele>123.59999847412109375</ele>
        <time>2026-08-13T07:39:25.000Z</time>
        <extensions>
          <ns3:TrackPointExtension>
            <ns3:hr>84</ns3:hr>
            <ns3:cad>44</ns3:cad>
          </ns3:TrackPointExtension>
        </extensions>
      </trkpt>
      <trkpt lat="43.77842000685632228851318359375" lon="1.580899022519588470458984375">
        <ele>123.59999847412109375</ele>
        <time>2026-08-13T07:39:26.000Z</time>
        <extensions>
          <ns3:TrackPointExtension>
            <ns3:hr>84</ns3:hr>
            <ns3:cad>44</ns3:cad>
          </ns3:TrackPointExtension>
        </extensions>
      </trkpt>
      <trkpt lat="43.778421096503734588623046875" lon="1.58091100864112377166748046875">
        <ele>123.59999847412109375</ele>
        <time>2026-08-13T07:39:27.000Z</time>
        <extensions>
          <ns3:TrackPointExtension>
            <ns3:hr>84</ns3:hr>
            <ns3:cad>44</ns3:cad>
          </ns3:TrackPointExtension>
        </extensions>
      </trkpt>
      <trkpt lat="43.77841950394213199615478515625" lon="1.58091804943978786468505859375">
        <ele>123.59999847412109375</ele>
        <time>2026-08-13T07:39:28.000Z</time>
        <extensions>
          <ns3:TrackPointExtension>
            <ns3:hr>85</ns3:hr>
            <ns3:cad>45</ns3:cad>
          </ns3:TrackPointExtension>
        </extensions>
      </trkpt>
      <trkpt lat="43.77841112203896045684814453125" lon="1.58093028701841831207275390625">
        <ele>123.59999847412109375</ele>
        <time>2026-08-13T07:39:29.000Z</time>
        <extensions>
          <ns3:TrackPointExtension>
            <ns3:hr>84</ns3:hr>
            <ns3:cad>45</ns3:cad>
          </ns3:TrackPointExtension>
        </extensions>
      </trkpt>
      <trkpt lat="43.7784085236489772796630859375" lon="1.58094453625380992889404296875">
        <ele>123.59999847412109375</ele>
        <time>2026-08-13T07:39:30.000Z</time>
        <extensions>
          <ns3:TrackPointExtension>
            <ns3:hr>84</ns3:hr>
            <ns3:cad>45</ns3:cad>
          </ns3:TrackPointExtension>
        </extensions>
      </trkpt>
      <trkpt lat="43.77840156666934490203857421875" lon="1.58095442689955234527587890625">
        <ele>123.8000030517578125</ele>
        <time>2026-08-13T07:39:31.000Z</time>
        <extensions>
          <ns3:TrackPointExtension>
            <ns3:hr>84</ns3:hr>
            <ns3:cad>45</ns3:cad>
          </ns3:TrackPointExtension>
        </extensions>
      </trkpt>
      <trkpt lat="43.778401650488376617431640625" lon="1.5809665806591510772705078125">
        <ele>123.59999847412109375</ele>
        <time>2026-08-13T07:39:32.000Z</time>
        <extensions>
          <ns3:TrackPointExtension>
            <ns3:hr>84</ns3:hr>
            <ns3:cad>79</ns3:cad>
          </ns3:TrackPointExtension>
        </extensions>
      </trkpt>
      <trkpt lat="43.77840206958353519439697265625" lon="1.58097236417233943939208984375">
        <ele>123.59999847412109375</ele>
        <time>2026-08-13T07:39:33.000Z</time>
        <extensions>
          <ns3:TrackPointExtension>
            <ns3:hr>84</ns3:hr>
            <ns3:cad>79</ns3:cad>
          </ns3:TrackPointExtension>
        </extensions>
      </trkpt>
      <trkpt lat="43.77839586697518825531005859375" lon="1.580984853208065032958984375">
        <ele>123.59999847412109375</ele>
        <time>2026-08-13T07:39:34.000Z</time>
        <extensions>
          <ns3:TrackPointExtension>
            <ns3:hr>84</ns3:hr>
            <ns3:cad>0</ns3:cad>
          </ns3:TrackPointExtension>
        </extensions>
      </trkpt>
      <trkpt lat="43.7783924303948879241943359375" lon="1.5810027904808521270751953125">
        <ele>123.59999847412109375</ele>
        <time>2026-08-13T07:39:35.000Z</time>
        <extensions>
          <ns3:TrackPointExtension>
            <ns3:hr>84</ns3:hr>
            <ns3:cad>40</ns3:cad>
          </ns3:TrackPointExtension>
        </extensions>
      </trkpt>
      <trkpt lat="43.778388909995555877685546875" lon="1.58101343549787998199462890625">
        <ele>123.40000152587890625</ele>
        <time>2026-08-13T07:39:36.000Z</time>
        <extensions>
          <ns3:TrackPointExtension>
            <ns3:hr>84</ns3:hr>
            <ns3:cad>40</ns3:cad>
          </ns3:TrackPointExtension>
        </extensions>
      </trkpt>
      <trkpt lat="43.77838631160557270050048828125" lon="1.581022404134273529052734375">
        <ele>123.40000152587890625</ele>
        <time>2026-08-13T07:39:37.000Z</time>
        <extensions>
          <ns3:TrackPointExtension>
            <ns3:hr>84</ns3:hr>
            <ns3:cad>40</ns3:cad>
          </ns3:TrackPointExtension>
        </extensions>
      </trkpt>
      <trkpt lat="43.77838077954947948455810546875" lon="1.5810346417129039764404296875">
        <ele>123.59999847412109375</ele>
        <time>2026-08-13T07:39:38.000Z</time>
        <extensions>
          <ns3:TrackPointExtension>
            <ns3:hr>83</ns3:hr>
            <ns3:cad>40</ns3:cad>
          </ns3:TrackPointExtension>
        </extensions>
      </trkpt>
      <trkpt lat="43.7783749960362911224365234375" lon="1.58104830421507358551025390625">
        <ele>123.59999847412109375</ele>
        <time>2026-08-13T07:39:39.000Z</time>
        <extensions>
          <ns3:TrackPointExtension>
            <ns3:hr>83</ns3:hr>
            <ns3:cad>43</ns3:cad>
          </ns3:TrackPointExtension>
        </extensions>
      </trkpt>
      <trkpt lat="43.778369128704071044921875" lon="1.5810540877282619476318359375">
        <ele>123.59999847412109375</ele>
        <time>2026-08-13T07:39:40.000Z</time>
        <extensions>
          <ns3:TrackPointExtension>
            <ns3:hr>83</ns3:hr>
            <ns3:cad>43</ns3:cad>
          </ns3:TrackPointExtension>
        </extensions>
      </trkpt>
      <trkpt lat="43.77836116589605808258056640625" lon="1.58106087706983089447021484375">
        <ele>123.59999847412109375</ele>
        <time>2026-08-13T07:39:41.000Z</time>
        <extensions>
          <ns3:TrackPointExtension>
            <ns3:hr>80</ns3:hr>
            <ns3:cad>44</ns3:cad>
          </ns3:TrackPointExtension>
        </extensions>
      </trkpt>
      <trkpt lat="43.77834943123161792755126953125" lon="1.581070683896541595458984375">
        <ele>123.40000152587890625</ele>
        <time>2026-08-13T07:39:42.000Z</time>
        <extensions>
          <ns3:TrackPointExtension>
            <ns3:hr>79</ns3:hr>
            <ns3:cad>44</ns3:cad>
          </ns3:TrackPointExtension>
        </extensions>
      </trkpt>
      <trkpt lat="43.77834138460457324981689453125" lon="1.58107663504779338836669921875">
        <ele>123.59999847412109375</ele>
        <time>2026-08-13T07:39:43.000Z</time>
        <extensions>
          <ns3:TrackPointExtension>
            <ns3:hr>78</ns3:hr>
            <ns3:cad>44</ns3:cad>
          </ns3:TrackPointExtension>
        </extensions>
      </trkpt>
      <trkpt lat="43.77833434380590915679931640625" lon="1.58107847906649112701416015625">
        <ele>123.59999847412109375</ele>
        <time>2026-08-13T07:39:44.000Z</time>
        <extensions>
          <ns3:TrackPointExtension>
            <ns3:hr>77</ns3:hr>
            <ns3:cad>43</ns3:cad>
          </ns3:TrackPointExtension>
        </extensions>
      </trkpt>
      <trkpt lat="43.77832847647368907928466796875" lon="1.58108820207417011260986328125">
        <ele>123.59999847412109375</ele>
        <time>2026-08-13T07:39:45.000Z</time>
        <extensions>
          <ns3:TrackPointExtension>
            <ns3:hr>77</ns3:hr>
            <ns3:cad>43</ns3:cad>
          </ns3:TrackPointExtension>
        </extensions>
      </trkpt>
      <trkpt lat="43.77832227386534214019775390625" lon="1.58110463060438632965087890625">
        <ele>123.59999847412109375</ele>
        <time>2026-08-13T07:39:46.000Z</time>
        <extensions>
          <ns3:TrackPointExtension>
            <ns3:hr>76</ns3:hr>
            <ns3:cad>43</ns3:cad>
          </ns3:TrackPointExtension>
        </extensions>
      </trkpt>
      <trkpt lat="43.77831707708537578582763671875" lon="1.58111502416431903839111328125">
        <ele>123.59999847412109375</ele>
        <time>2026-08-13T07:39:47.000Z</time>
        <extensions>
          <ns3:TrackPointExtension>
            <ns3:hr>77</ns3:hr>
            <ns3:cad>43</ns3:cad>
          </ns3:TrackPointExtension>
        </extensions>
      </trkpt>
      <trkpt lat="43.7783122994005680084228515625" lon="1.58112265169620513916015625">
        <ele>123.59999847412109375</ele>
        <time>2026-08-13T07:39:48.000Z</time>
        <extensions>
          <ns3:TrackPointExtension>
            <ns3:hr>77</ns3:hr>
            <ns3:cad>43</ns3:cad>
          </ns3:TrackPointExtension>
        </extensions>
      </trkpt>
      <trkpt lat="43.77830601297318935394287109375" lon="1.5811345539987087249755859375">
        <ele>123.59999847412109375</ele>
        <time>2026-08-13T07:39:49.000Z</time>
        <extensions>
          <ns3:TrackPointExtension>
            <ns3:hr>77</ns3:hr>
            <ns3:cad>43</ns3:cad>
          </ns3:TrackPointExtension>
        </extensions>
      </trkpt>
      <trkpt lat="43.77830031327903270721435546875" lon="1.58114804886281490325927734375">
        <ele>123.59999847412109375</ele>
        <time>2026-08-13T07:39:50.000Z</time>
        <extensions>
          <ns3:TrackPointExtension>
            <ns3:hr>76</ns3:hr>
            <ns3:cad>43</ns3:cad>
          </ns3:TrackPointExtension>
        </extensions>
      </trkpt>
      <trkpt lat="43.77829595468938350677490234375" lon="1.58115752041339874267578125">
        <ele>123.59999847412109375</ele>
        <time>2026-08-13T07:39:51.000Z</time>
        <extensions>
          <ns3:TrackPointExtension>
            <ns3:hr>77</ns3:hr>
            <ns3:cad>0</ns3:cad>
          </ns3:TrackPointExtension>
        </extensions>
      </trkpt>
      <trkpt lat="43.77829176373779773712158203125" lon="1.5811603702604770660400390625">
        <ele>123.59999847412109375</ele>
        <time>2026-08-13T07:39:52.000Z</time>
        <extensions>
          <ns3:TrackPointExtension>
            <ns3:hr>77</ns3:hr>
            <ns3:cad>0</ns3:cad>
          </ns3:TrackPointExtension>
        </extensions>
      </trkpt>
      <trkpt lat="43.7782888300716876983642578125" lon="1.5811717696487903594970703125">
        <ele>123.59999847412109375</ele>
        <time>2026-08-13T07:39:53.000Z</time>
        <extensions>
          <ns3:TrackPointExtension>
            <ns3:hr>76</ns3:hr>
            <ns3:cad>0</ns3:cad>
          </ns3:TrackPointExtension>
        </extensions>
      </trkpt>
      <trkpt lat="43.7782844714820384979248046875" lon="1.5811881981790065765380859375">
        <ele>123.59999847412109375</ele>
        <time>2026-08-13T07:39:54.000Z</time>
        <extensions>
          <ns3:TrackPointExtension>
            <ns3:hr>77</ns3:hr>
            <ns3:cad>0</ns3:cad>
          </ns3:TrackPointExtension>
        </extensions>
      </trkpt>
      <trkpt lat="43.77828053198754787445068359375" lon="1.5812006033957004547119140625">
        <ele>123.59999847412109375</ele>
        <time>2026-08-13T07:39:55.000Z</time>
        <extensions>
          <ns3:TrackPointExtension>
            <ns3:hr>77</ns3:hr>
            <ns3:cad>0</ns3:cad>
          </ns3:TrackPointExtension>
        </extensions>
      </trkpt>
      <trkpt lat="43.77827701158821582794189453125" lon="1.58121124841272830963134765625">
        <ele>123.59999847412109375</ele>
        <time>2026-08-13T07:39:56.000Z</time>
        <extensions>
          <ns3:TrackPointExtension>
            <ns3:hr>76</ns3:hr>
            <ns3:cad>0</ns3:cad>
          </ns3:TrackPointExtension>
        </extensions>
      </trkpt>
      <trkpt lat="43.7782717309892177581787109375" lon="1.5812220610678195953369140625">
        <ele>123.59999847412109375</ele>
        <time>2026-08-13T07:39:57.000Z</time>
        <extensions>
          <ns3:TrackPointExtension>
            <ns3:hr>77</ns3:hr>
            <ns3:cad>0</ns3:cad>
          </ns3:TrackPointExtension>
        </extensions>
      </trkpt>
      <trkpt lat="43.77826427109539508819580078125" lon="1.5812337957322597503662109375">
        <ele>123.59999847412109375</ele>
        <time>2026-08-13T07:39:58.000Z</time>
        <extensions>
          <ns3:TrackPointExtension>
            <ns3:hr>78</ns3:hr>
            <ns3:cad>0</ns3:cad>
          </ns3:TrackPointExtension>
        </extensions>
      </trkpt>
      <trkpt lat="43.77825639210641384124755859375" lon="1.58123656176030635833740234375">
        <ele>123.59999847412109375</ele>
        <time>2026-08-13T07:39:59.000Z</time>
        <extensions>
          <ns3:TrackPointExtension>
            <ns3:hr>78</ns3:hr>
            <ns3:cad>45</ns3:cad>
          </ns3:TrackPointExtension>
        </extensions>
      </trkpt>
      <trkpt lat="43.77824666909873485565185546875" lon="1.58124276436865329742431640625">
        <ele>123.40000152587890625</ele>
        <time>2026-08-13T07:40:00.000Z</time>
        <extensions>
          <ns3:TrackPointExtension>
            <ns3:hr>78</ns3:hr>
            <ns3:cad>46</ns3:cad>
          </ns3:TrackPointExtension>
        </extensions>
      </trkpt>
      <trkpt lat="43.77823845483362674713134765625" lon="1.5812493860721588134765625">
        <ele>123.59999847412109375</ele>
        <time>2026-08-13T07:40:01.000Z</time>
        <extensions>
          <ns3:TrackPointExtension>
            <ns3:hr>77</ns3:hr>
            <ns3:cad>46</ns3:cad>
          </ns3:TrackPointExtension>
        </extensions>
      </trkpt>
      <trkpt lat="43.77823166549205780029296875" lon="1.5812574326992034912109375">
        <ele>123.59999847412109375</ele>
        <time>2026-08-13T07:40:02.000Z</time>
        <extensions>
          <ns3:TrackPointExtension>
            <ns3:hr>76</ns3:hr>
            <ns3:cad>43</ns3:cad>
          </ns3:TrackPointExtension>
        </extensions>
      </trkpt>
      <trkpt lat="43.77822504378855228424072265625" lon="1.58126589842140674591064453125">
        <ele>123.59999847412109375</ele>
        <time>2026-08-13T07:40:03.000Z</time>
        <extensions>
          <ns3:TrackPointExtension>
            <ns3:hr>75</ns3:hr>
            <ns3:cad>43</ns3:cad>
          </ns3:TrackPointExtension>
        </extensions>
      </trkpt>
      <trkpt lat="43.7782164104282855987548828125" lon="1.5812757052481174468994140625">
        <ele>123.59999847412109375</ele>
        <time>2026-08-13T07:40:04.000Z</time>
        <extensions>
          <ns3:TrackPointExtension>
            <ns3:hr>75</ns3:hr>
            <ns3:cad>41</ns3:cad>
          </ns3:TrackPointExtension>
        </extensions>
      </trkpt>
      <trkpt lat="43.778209201991558074951171875" lon="1.58129003830254077911376953125">
        <ele>123.59999847412109375</ele>
        <time>2026-08-13T07:40:05.000Z</time>
        <extensions>
          <ns3:TrackPointExtension>
            <ns3:hr>75</ns3:hr>
            <ns3:cad>41</ns3:cad>
          </ns3:TrackPointExtension>
        </extensions>
      </trkpt>
      <trkpt lat="43.77820526249706745147705078125" lon="1.58129976131021976470947265625">
        <ele>123.59999847412109375</ele>
        <time>2026-08-13T07:40:06.000Z</time>
        <extensions>
          <ns3:TrackPointExtension>
            <ns3:hr>75</ns3:hr>
            <ns3:cad>41</ns3:cad>
          </ns3:TrackPointExtension>
        </extensions>
      </trkpt>
      <trkpt lat="43.7781962938606739044189453125" lon="1.5813102386891841888427734375">
        <ele>123.59999847412109375</ele>
        <time>2026-08-13T07:40:07.000Z</time>
        <extensions>
          <ns3:TrackPointExtension>
            <ns3:hr>75</ns3:hr>
            <ns3:cad>41</ns3:cad>
          </ns3:TrackPointExtension>
        </extensions>
      </trkpt>
      <trkpt lat="43.7781907618045806884765625" lon="1.58132247626781463623046875">
        <ele>123.59999847412109375</ele>
        <time>2026-08-13T07:40:08.000Z</time>
        <extensions>
          <ns3:TrackPointExtension>
            <ns3:hr>74</ns3:hr>
            <ns3:cad>41</ns3:cad>
          </ns3:TrackPointExtension>
        </extensions>
      </trkpt>
      <trkpt lat="43.77818648703396320343017578125" lon="1.58132926560938358306884765625">
        <ele>123.59999847412109375</ele>
        <time>2026-08-13T07:40:09.000Z</time>
        <extensions>
          <ns3:TrackPointExtension>
            <ns3:hr>75</ns3:hr>
            <ns3:cad>0</ns3:cad>
          </ns3:TrackPointExtension>
        </extensions>
      </trkpt>
      <trkpt lat="43.7781822122633457183837890625" lon="1.5813340432941913604736328125">
        <ele>123.59999847412109375</ele>
        <time>2026-08-13T07:40:10.000Z</time>
        <extensions>
          <ns3:TrackPointExtension>
            <ns3:hr>75</ns3:hr>
            <ns3:cad>0</ns3:cad>
          </ns3:TrackPointExtension>
        </extensions>
      </trkpt>
      <trkpt lat="43.77817072905600070953369140625" lon="1.58134954981505870819091796875">
        <ele>123.59999847412109375</ele>
        <time>2026-08-13T07:40:11.000Z</time>
        <extensions>
          <ns3:TrackPointExtension>
            <ns3:hr>75</ns3:hr>
            <ns3:cad>0</ns3:cad>
          </ns3:TrackPointExtension>
        </extensions>
      </trkpt>
      <trkpt lat="43.7781620956957340240478515625" lon="1.58136405050754547119140625">
        <ele>123.59999847412109375</ele>
        <time>2026-08-13T07:40:12.000Z</time>
        <extensions>
          <ns3:TrackPointExtension>
            <ns3:hr>75</ns3:hr>
            <ns3:cad>0</ns3:cad>
          </ns3:TrackPointExtension>
        </extensions>
      </trkpt>
      <trkpt lat="43.7781597487628459930419921875" lon="1.5813705883920192718505859375">
        <ele>123.59999847412109375</ele>
        <time>2026-08-13T07:40:13.000Z</time>
        <extensions>
          <ns3:TrackPointExtension>
            <ns3:hr>75</ns3:hr>
            <ns3:cad>0</ns3:cad>
          </ns3:TrackPointExtension>
        </extensions>
      </trkpt>
      <trkpt lat="43.77815798856317996978759765625" lon="1.58137419261038303375244140625">
        <ele>123.59999847412109375</ele>
        <time>2026-08-13T07:40:14.000Z</time>
        <extensions>
          <ns3:TrackPointExtension>
            <ns3:hr>76</ns3:hr>
            <ns3:cad>0</ns3:cad>
          </ns3:TrackPointExtension>
        </extensions>
      </trkpt>
      <trkpt lat="43.7781543843448162078857421875" lon="1.58138022758066654205322265625">
        <ele>123.59999847412109375</ele>
        <time>2026-08-13T07:40:15.000Z</time>
        <extensions>
          <ns3:TrackPointExtension>
            <ns3:hr>76</ns3:hr>
            <ns3:cad>0</ns3:cad>
          </ns3:TrackPointExtension>
        </extensions>
      </trkpt>
      <trkpt lat="43.77814876846969127655029296875" lon="1.5813888609409332275390625">
        <ele>123.59999847412109375</ele>
        <time>2026-08-13T07:40:16.000Z</time>
        <extensions>
          <ns3:TrackPointExtension>
            <ns3:hr>76</ns3:hr>
            <ns3:cad>0</ns3:cad>
          </ns3:TrackPointExtension>
        </extensions>
      </trkpt>
      <trkpt lat="43.77814047038555145263671875" lon="1.581387184560298919677734375">
        <ele>123.59999847412109375</ele>
        <time>2026-08-13T07:40:17.000Z</time>
        <extensions>
          <ns3:TrackPointExtension>
            <ns3:hr>75</ns3:hr>
            <ns3:cad>0</ns3:cad>
          </ns3:TrackPointExtension>
        </extensions>
      </trkpt>
      <trkpt lat="43.77813787199556827545166015625" lon="1.5813994221389293670654296875">
        <ele>123.59999847412109375</ele>
        <time>2026-08-13T07:40:18.000Z</time>
        <extensions>
          <ns3:TrackPointExtension>
            <ns3:hr>75</ns3:hr>
            <ns3:cad>43</ns3:cad>
          </ns3:TrackPointExtension>
        </extensions>
      </trkpt>
      <trkpt lat="43.778132088482379913330078125" lon="1.58141073770821094512939453125">
        <ele>123.59999847412109375</ele>
        <time>2026-08-13T07:40:19.000Z</time>
        <extensions>
          <ns3:TrackPointExtension>
            <ns3:hr>75</ns3:hr>
            <ns3:cad>79</ns3:cad>
          </ns3:TrackPointExtension>
        </extensions>
      </trkpt>
      <trkpt lat="43.77812596969306468963623046875" lon="1.5814212150871753692626953125">
        <ele>123.59999847412109375</ele>
        <time>2026-08-13T07:40:20.000Z</time>
        <extensions>
          <ns3:TrackPointExtension>
            <ns3:hr>75</ns3:hr>
            <ns3:cad>79</ns3:cad>
          </ns3:TrackPointExtension>
        </extensions>
      </trkpt>
      <trkpt lat="43.77812026999890804290771484375" lon="1.58142867498099803924560546875">
        <ele>123.59999847412109375</ele>
        <time>2026-08-13T07:40:21.000Z</time>
        <extensions>
          <ns3:TrackPointExtension>
            <ns3:hr>76</ns3:hr>
            <ns3:cad>79</ns3:cad>
          </ns3:TrackPointExtension>
        </extensions>
      </trkpt>
      <trkpt lat="43.77811339683830738067626953125" lon="1.581443846225738525390625">
        <ele>123.59999847412109375</ele>
        <time>2026-08-13T07:40:22.000Z</time>
        <extensions>
          <ns3:TrackPointExtension>
            <ns3:hr>76</ns3:hr>
            <ns3:cad>43</ns3:cad>
          </ns3:TrackPointExtension>
        </extensions>
      </trkpt>
      <trkpt lat="43.7781067751348018646240234375" lon="1.58145792782306671142578125">
        <ele>123.59999847412109375</ele>
        <time>2026-08-13T07:40:23.000Z</time>
        <extensions>
          <ns3:TrackPointExtension>
            <ns3:hr>76</ns3:hr>
            <ns3:cad>42</ns3:cad>
          </ns3:TrackPointExtension>
        </extensions>
      </trkpt>
      <trkpt lat="43.778101913630962371826171875" lon="1.58146639354526996612548828125">
        <ele>123.40000152587890625</ele>
        <time>2026-08-13T07:40:24.000Z</time>
        <extensions>
          <ns3:TrackPointExtension>
            <ns3:hr>76</ns3:hr>
            <ns3:cad>42</ns3:cad>
          </ns3:TrackPointExtension>
        </extensions>
      </trkpt>
      <trkpt lat="43.778096549212932586669921875" lon="1.58148013986647129058837890625">
        <ele>123.40000152587890625</ele>
        <time>2026-08-13T07:40:25.000Z</time>
        <extensions>
          <ns3:TrackPointExtension>
            <ns3:hr>76</ns3:hr>
            <ns3:cad>42</ns3:cad>
          </ns3:TrackPointExtension>
        </extensions>
      </trkpt>
      <trkpt lat="43.77809009514749050140380859375" lon="1.5814949758350849151611328125">
        <ele>123.40000152587890625</ele>
        <time>2026-08-13T07:40:26.000Z</time>
        <extensions>
          <ns3:TrackPointExtension>
            <ns3:hr>76</ns3:hr>
            <ns3:cad>43</ns3:cad>
          </ns3:TrackPointExtension>
        </extensions>
      </trkpt>
      <trkpt lat="43.77808456309139728546142578125" lon="1.581501848995685577392578125">
        <ele>123.40000152587890625</ele>
        <time>2026-08-13T07:40:27.000Z</time>
        <extensions>
          <ns3:TrackPointExtension>
            <ns3:hr>75</ns3:hr>
            <ns3:cad>43</ns3:cad>
          </ns3:TrackPointExtension>
        </extensions>
      </trkpt>
      <trkpt lat="43.77807886339724063873291015625" lon="1.58150696195662021636962890625">
        <ele>123.40000152587890625</ele>
        <time>2026-08-13T07:40:28.000Z</time>
        <extensions>
          <ns3:TrackPointExtension>
            <ns3:hr>76</ns3:hr>
            <ns3:cad>43</ns3:cad>
          </ns3:TrackPointExtension>
        </extensions>
      </trkpt>
      <trkpt lat="43.778074085712432861328125" lon="1.581513583660125732421875">
        <ele>123.40000152587890625</ele>
        <time>2026-08-13T07:40:29.000Z</time>
        <extensions>
          <ns3:TrackPointExtension>
            <ns3:hr>76</ns3:hr>
            <ns3:cad>43</ns3:cad>
          </ns3:TrackPointExtension>
        </extensions>
      </trkpt>
      <trkpt lat="43.77806863747537136077880859375" lon="1.58153034746646881103515625">
        <ele>123.40000152587890625</ele>
        <time>2026-08-13T07:40:30.000Z</time>
        <extensions>
          <ns3:TrackPointExtension>
            <ns3:hr>75</ns3:hr>
            <ns3:cad>43</ns3:cad>
          </ns3:TrackPointExtension>
        </extensions>
      </trkpt>
      <trkpt lat="43.7780646979808807373046875" lon="1.58154183067381381988525390625">
        <ele>123.40000152587890625</ele>
        <time>2026-08-13T07:40:31.000Z</time>
        <extensions>
          <ns3:TrackPointExtension>
            <ns3:hr>76</ns3:hr>
            <ns3:cad>43</ns3:cad>
          </ns3:TrackPointExtension>
        </extensions>
      </trkpt>
      <trkpt lat="43.7780598364770412445068359375" lon="1.58154719509184360504150390625">
        <ele>123.40000152587890625</ele>
        <time>2026-08-13T07:40:32.000Z</time>
        <extensions>
          <ns3:TrackPointExtension>
            <ns3:hr>76</ns3:hr>
            <ns3:cad>43</ns3:cad>
          </ns3:TrackPointExtension>
        </extensions>
      </trkpt>
      <trkpt lat="43.77805623225867748260498046875" lon="1.58155725337564945220947265625">
        <ele>123.40000152587890625</ele>
        <time>2026-08-13T07:40:33.000Z</time>
        <extensions>
          <ns3:TrackPointExtension>
            <ns3:hr>75</ns3:hr>
            <ns3:cad>43</ns3:cad>
          </ns3:TrackPointExtension>
        </extensions>
      </trkpt>
      <trkpt lat="43.77805405296385288238525390625" lon="1.58157217316329479217529296875">
        <ele>123.40000152587890625</ele>
        <time>2026-08-13T07:40:34.000Z</time>
        <extensions>
          <ns3:TrackPointExtension>
            <ns3:hr>76</ns3:hr>
            <ns3:cad>43</ns3:cad>
          </ns3:TrackPointExtension>
        </extensions>
      </trkpt>
      <trkpt lat="43.778049610555171966552734375" lon="1.5815811417996883392333984375">
        <ele>123.40000152587890625</ele>
        <time>2026-08-13T07:40:35.000Z</time>
        <extensions>
          <ns3:TrackPointExtension>
            <ns3:hr>76</ns3:hr>
            <ns3:cad>41</ns3:cad>
          </ns3:TrackPointExtension>
        </extensions>
      </trkpt>
      <trkpt lat="43.77804349176585674285888671875" lon="1.5815928764641284942626953125">
        <ele>123.40000152587890625</ele>
        <time>2026-08-13T07:40:36.000Z</time>
        <extensions>
          <ns3:TrackPointExtension>
            <ns3:hr>76</ns3:hr>
            <ns3:cad>44</ns3:cad>
          </ns3:TrackPointExtension>
        </extensions>
      </trkpt>
      <trkpt lat="43.77803795970976352691650390625" lon="1.5816062875092029571533203125">
        <ele>123.1999969482421875</ele>
        <time>2026-08-13T07:40:37.000Z</time>
        <extensions>
          <ns3:TrackPointExtension>
            <ns3:hr>76</ns3:hr>
            <ns3:cad>44</ns3:cad>
          </ns3:TrackPointExtension>
        </extensions>
      </trkpt>
      <trkpt lat="43.77803594805300235748291015625" lon="1.5816190280020236968994140625">
        <ele>123.1999969482421875</ele>
        <time>2026-08-13T07:40:38.000Z</time>
        <extensions>
          <ns3:TrackPointExtension>
            <ns3:hr>76</ns3:hr>
            <ns3:cad>44</ns3:cad>
          </ns3:TrackPointExtension>
        </extensions>
      </trkpt>
      <trkpt lat="43.7780320085585117340087890625" lon="1.581628583371639251708984375">
        <ele>123.1999969482421875</ele>
        <time>2026-08-13T07:40:39.000Z</time>
        <extensions>
          <ns3:TrackPointExtension>
            <ns3:hr>76</ns3:hr>
            <ns3:cad>43</ns3:cad>
          </ns3:TrackPointExtension>
        </extensions>
      </trkpt>
      <trkpt lat="43.778027482330799102783203125" lon="1.5816409885883331298828125">
        <ele>123.1999969482421875</ele>
        <time>2026-08-13T07:40:40.000Z</time>
        <extensions>
          <ns3:TrackPointExtension>
            <ns3:hr>76</ns3:hr>
            <ns3:cad>43</ns3:cad>
          </ns3:TrackPointExtension>
        </extensions>
      </trkpt>
      <trkpt lat="43.77802245318889617919921875" lon="1.58165037631988525390625">
        <ele>123.1999969482421875</ele>
        <time>2026-08-13T07:40:41.000Z</time>
        <extensions>
          <ns3:TrackPointExtension>
            <ns3:hr>76</ns3:hr>
            <ns3:cad>43</ns3:cad>
          </ns3:TrackPointExtension>
        </extensions>
      </trkpt>
      <trkpt lat="43.77801817841827869415283203125" lon="1.5816663019359111785888671875">
        <ele>123.1999969482421875</ele>
        <time>2026-08-13T07:40:42.000Z</time>
        <extensions>
          <ns3:TrackPointExtension>
            <ns3:hr>77</ns3:hr>
            <ns3:cad>44</ns3:cad>
          </ns3:TrackPointExtension>
        </extensions>
      </trkpt>
      <trkpt lat="43.77801348455250263214111328125" lon="1.58167644403874874114990234375">
        <ele>123.40000152587890625</ele>
        <time>2026-08-13T07:40:43.000Z</time>
        <extensions>
          <ns3:TrackPointExtension>
            <ns3:hr>77</ns3:hr>
            <ns3:cad>45</ns3:cad>
          </ns3:TrackPointExtension>
        </extensions>
      </trkpt>
      <trkpt lat="43.77800929360091686248779296875" lon="1.58168583177030086517333984375">
        <ele>123.40000152587890625</ele>
        <time>2026-08-13T07:40:44.000Z</time>
        <extensions>
          <ns3:TrackPointExtension>
            <ns3:hr>77</ns3:hr>
            <ns3:cad>45</ns3:cad>
          </ns3:TrackPointExtension>
        </extensions>
      </trkpt>
      <trkpt lat="43.778004348278045654296875" lon="1.5816958062350749969482421875">
        <ele>123.40000152587890625</ele>
        <time>2026-08-13T07:40:45.000Z</time>
        <extensions>
          <ns3:TrackPointExtension>
            <ns3:hr>77</ns3:hr>
            <ns3:cad>45</ns3:cad>
          </ns3:TrackPointExtension>
        </extensions>
      </trkpt>
      <trkpt lat="43.77799605019390583038330078125" lon="1.58170661889016628265380859375">
        <ele>123.40000152587890625</ele>
        <time>2026-08-13T07:40:46.000Z</time>
        <extensions>
          <ns3:TrackPointExtension>
            <ns3:hr>78</ns3:hr>
            <ns3:cad>45</ns3:cad>
          </ns3:TrackPointExtension>
        </extensions>
      </trkpt>
      <trkpt lat="43.7779900990426540374755859375" lon="1.58172153867781162261962890625">
        <ele>123.40000152587890625</ele>
        <time>2026-08-13T07:40:47.000Z</time>
        <extensions>
          <ns3:TrackPointExtension>
            <ns3:hr>78</ns3:hr>
            <ns3:cad>44</ns3:cad>
          </ns3:TrackPointExtension>
        </extensions>
      </trkpt>
      <trkpt lat="43.777984566986560821533203125" lon="1.58172757364809513092041015625">
        <ele>123.40000152587890625</ele>
        <time>2026-08-13T07:40:48.000Z</time>
        <extensions>
          <ns3:TrackPointExtension>
            <ns3:hr>77</ns3:hr>
            <ns3:cad>44</ns3:cad>
          </ns3:TrackPointExtension>
        </extensions>
      </trkpt>
      <trkpt lat="43.77797794528305530548095703125" lon="1.581738553941249847412109375">
        <ele>123.40000152587890625</ele>
        <time>2026-08-13T07:40:49.000Z</time>
        <extensions>
          <ns3:TrackPointExtension>
            <ns3:hr>78</ns3:hr>
            <ns3:cad>44</ns3:cad>
          </ns3:TrackPointExtension>
        </extensions>
      </trkpt>
      <trkpt lat="43.77797283232212066650390625" lon="1.58174894750118255615234375">
        <ele>123.40000152587890625</ele>
        <time>2026-08-13T07:40:50.000Z</time>
        <extensions>
          <ns3:TrackPointExtension>
            <ns3:hr>78</ns3:hr>
            <ns3:cad>49</ns3:cad>
          </ns3:TrackPointExtension>
        </extensions>
      </trkpt>
      <trkpt lat="43.7779683060944080352783203125" lon="1.58176235854625701904296875">
        <ele>123.40000152587890625</ele>
        <time>2026-08-13T07:40:51.000Z</time>
        <extensions>
          <ns3:TrackPointExtension>
            <ns3:hr>78</ns3:hr>
            <ns3:cad>49</ns3:cad>
          </ns3:TrackPointExtension>
        </extensions>
      </trkpt>
      <trkpt lat="43.77796235494315624237060546875" lon="1.58177484758198261260986328125">
        <ele>123.40000152587890625</ele>
        <time>2026-08-13T07:40:52.000Z</time>
        <extensions>
          <ns3:TrackPointExtension>
            <ns3:hr>78</ns3:hr>
            <ns3:cad>49</ns3:cad>
          </ns3:TrackPointExtension>
        </extensions>
      </trkpt>
      <trkpt lat="43.7779569067060947418212890625" lon="1.58178524114191532135009765625">
        <ele>123.59999847412109375</ele>
        <time>2026-08-13T07:40:53.000Z</time>
        <extensions>
          <ns3:TrackPointExtension>
            <ns3:hr>78</ns3:hr>
            <ns3:cad>48</ns3:cad>
          </ns3:TrackPointExtension>
        </extensions>
      </trkpt>
      <trkpt lat="43.777953051030635833740234375" lon="1.58179680816829204559326171875">
        <ele>123.40000152587890625</ele>
        <time>2026-08-13T07:40:54.000Z</time>
        <extensions>
          <ns3:TrackPointExtension>
            <ns3:hr>79</ns3:hr>
            <ns3:cad>46</ns3:cad>
          </ns3:TrackPointExtension>
        </extensions>
      </trkpt>
      <trkpt lat="43.77794760279357433319091796875" lon="1.5818104706704616546630859375">
        <ele>123.40000152587890625</ele>
        <time>2026-08-13T07:40:55.000Z</time>
        <extensions>
          <ns3:TrackPointExtension>
            <ns3:hr>79</ns3:hr>
            <ns3:cad>45</ns3:cad>
          </ns3:TrackPointExtension>
        </extensions>
      </trkpt>
      <trkpt lat="43.7779388017952442169189453125" lon="1.58181977458298206329345703125">
        <ele>123.40000152587890625</ele>
        <time>2026-08-13T07:40:56.000Z</time>
        <extensions>
          <ns3:TrackPointExtension>
            <ns3:hr>80</ns3:hr>
            <ns3:cad>44</ns3:cad>
          </ns3:TrackPointExtension>
        </extensions>
      </trkpt>
      <trkpt lat="43.7779331021010875701904296875" lon="1.5818287432193756103515625">
        <ele>123.40000152587890625</ele>
        <time>2026-08-13T07:40:57.000Z</time>
        <extensions>
          <ns3:TrackPointExtension>
            <ns3:hr>80</ns3:hr>
            <ns3:cad>43</ns3:cad>
          </ns3:TrackPointExtension>
        </extensions>
      </trkpt>
      <trkpt lat="43.77792782150208950042724609375" lon="1.58183871768414974212646484375">
        <ele>123.59999847412109375</ele>
        <time>2026-08-13T07:40:58.000Z</time>
        <extensions>
          <ns3:TrackPointExtension>
            <ns3:hr>79</ns3:hr>
            <ns3:cad>43</ns3:cad>
          </ns3:TrackPointExtension>
        </extensions>
      </trkpt>
      <trkpt lat="43.77792262472212314605712890625" lon="1.58184953033924102783203125">
        <ele>123.59999847412109375</ele>
        <time>2026-08-13T07:40:59.000Z</time>
        <extensions>
          <ns3:TrackPointExtension>
            <ns3:hr>80</ns3:hr>
            <ns3:cad>43</ns3:cad>
          </ns3:TrackPointExtension>
        </extensions>
      </trkpt>
      <trkpt lat="43.77791575156152248382568359375" lon="1.58185816369950771331787109375">
        <ele>123.59999847412109375</ele>
        <time>2026-08-13T07:41:00.000Z</time>
        <extensions>
          <ns3:TrackPointExtension>
            <ns3:hr>80</ns3:hr>
            <ns3:cad>44</ns3:cad>
          </ns3:TrackPointExtension>
        </extensions>
      </trkpt>
      <trkpt lat="43.77791248261928558349609375" lon="1.5818694792687892913818359375">
        <ele>123.59999847412109375</ele>
        <time>2026-08-13T07:41:01.000Z</time>
        <extensions>
          <ns3:TrackPointExtension>
            <ns3:hr>81</ns3:hr>
            <ns3:cad>45</ns3:cad>
          </ns3:TrackPointExtension>
        </extensions>
      </trkpt>
      <trkpt lat="43.7779069505631923675537109375" lon="1.5818869136273860931396484375">
        <ele>123.8000030517578125</ele>
        <time>2026-08-13T07:41:02.000Z</time>
        <extensions>
          <ns3:TrackPointExtension>
            <ns3:hr>81</ns3:hr>
            <ns3:cad>45</ns3:cad>
          </ns3:TrackPointExtension>
        </extensions>
      </trkpt>
      <trkpt lat="43.7779042683541774749755859375" lon="1.58189705573022365570068359375">
        <ele>123.8000030517578125</ele>
        <time>2026-08-13T07:41:03.000Z</time>
        <extensions>
          <ns3:TrackPointExtension>
            <ns3:hr>82</ns3:hr>
            <ns3:cad>45</ns3:cad>
          </ns3:TrackPointExtension>
        </extensions>
      </trkpt>
      <trkpt lat="43.777898736298084259033203125" lon="1.5819073654711246490478515625">
        <ele>123.8000030517578125</ele>
        <time>2026-08-13T07:41:04.000Z</time>
        <extensions>
          <ns3:TrackPointExtension>
            <ns3:hr>83</ns3:hr>
            <ns3:cad>45</ns3:cad>
          </ns3:TrackPointExtension>
        </extensions>
      </trkpt>
      <trkpt lat="43.77789312042295932769775390625" lon="1.58191398717463016510009765625">
        <ele>124</ele>
        <time>2026-08-13T07:41:05.000Z</time>
        <extensions>
          <ns3:TrackPointExtension>
            <ns3:hr>84</ns3:hr>
            <ns3:cad>45</ns3:cad>
          </ns3:TrackPointExtension>
        </extensions>
      </trkpt>
      <trkpt lat="43.7778876721858978271484375" lon="1.58192320726811885833740234375">
        <ele>124</ele>
        <time>2026-08-13T07:41:06.000Z</time>
        <extensions>
          <ns3:TrackPointExtension>
            <ns3:hr>85</ns3:hr>
            <ns3:cad>43</ns3:cad>
          </ns3:TrackPointExtension>
        </extensions>
      </trkpt>
      <trkpt lat="43.7778804637491703033447265625" lon="1.58193401992321014404296875">
        <ele>124</ele>
        <time>2026-08-13T07:41:07.000Z</time>
        <extensions>
          <ns3:TrackPointExtension>
            <ns3:hr>85</ns3:hr>
            <ns3:cad>43</ns3:cad>
          </ns3:TrackPointExtension>
        </extensions>
      </trkpt>
      <trkpt lat="43.77787535078823566436767578125" lon="1.5819462575018405914306640625">
        <ele>123.8000030517578125</ele>
        <time>2026-08-13T07:41:08.000Z</time>
        <extensions>
          <ns3:TrackPointExtension>
            <ns3:hr>85</ns3:hr>
            <ns3:cad>43</ns3:cad>
          </ns3:TrackPointExtension>
        </extensions>
      </trkpt>
      <trkpt lat="43.77787032164633274078369140625" lon="1.5819522924721240997314453125">
        <ele>123.8000030517578125</ele>
        <time>2026-08-13T07:41:09.000Z</time>
        <extensions>
          <ns3:TrackPointExtension>
            <ns3:hr>84</ns3:hr>
            <ns3:cad>43</ns3:cad>
          </ns3:TrackPointExtension>
        </extensions>
      </trkpt>
      <trkpt lat="43.77786294557154178619384765625" lon="1.5819646976888179779052734375">
        <ele>123.8000030517578125</ele>
        <time>2026-08-13T07:41:10.000Z</time>
        <extensions>
          <ns3:TrackPointExtension>
            <ns3:hr>84</ns3:hr>
            <ns3:cad>43</ns3:cad>
          </ns3:TrackPointExtension>
        </extensions>
      </trkpt>
      <trkpt lat="43.77785825170576572418212890625" lon="1.5819789469242095947265625">
        <ele>123.8000030517578125</ele>
        <time>2026-08-13T07:41:11.000Z</time>
        <extensions>
          <ns3:TrackPointExtension>
            <ns3:hr>84</ns3:hr>
            <ns3:cad>49</ns3:cad>
          </ns3:TrackPointExtension>
        </extensions>
      </trkpt>
      <trkpt lat="43.7778528034687042236328125" lon="1.58198975957930088043212890625">
        <ele>123.8000030517578125</ele>
        <time>2026-08-13T07:41:12.000Z</time>
        <extensions>
          <ns3:TrackPointExtension>
            <ns3:hr>84</ns3:hr>
            <ns3:cad>49</ns3:cad>
          </ns3:TrackPointExtension>
        </extensions>
      </trkpt>
      <trkpt lat="43.77784735523164272308349609375" lon="1.582004092633724212646484375">
        <ele>123.8000030517578125</ele>
        <time>2026-08-13T07:41:13.000Z</time>
        <extensions>
          <ns3:TrackPointExtension>
            <ns3:hr>85</ns3:hr>
            <ns3:cad>49</ns3:cad>
          </ns3:TrackPointExtension>
        </extensions>
      </trkpt>
      <trkpt lat="43.7778385542333126068115234375" lon="1.5820166654884815216064453125">
        <ele>123.8000030517578125</ele>
        <time>2026-08-13T07:41:14.000Z</time>
        <extensions>
          <ns3:TrackPointExtension>
            <ns3:hr>85</ns3:hr>
            <ns3:cad>46</ns3:cad>
          </ns3:TrackPointExtension>
        </extensions>
      </trkpt>
      <trkpt lat="43.77783411182463169097900390625" lon="1.58202362246811389923095703125">
        <ele>123.8000030517578125</ele>
        <time>2026-08-13T07:41:15.000Z</time>
        <extensions>
          <ns3:TrackPointExtension>
            <ns3:hr>85</ns3:hr>
            <ns3:cad>44</ns3:cad>
          </ns3:TrackPointExtension>
        </extensions>
      </trkpt>
      <trkpt lat="43.77782589755952358245849609375" lon="1.58202613703906536102294921875">
        <ele>123.8000030517578125</ele>
        <time>2026-08-13T07:41:16.000Z</time>
        <extensions>
          <ns3:TrackPointExtension>
            <ns3:hr>85</ns3:hr>
            <ns3:cad>44</ns3:cad>
          </ns3:TrackPointExtension>
        </extensions>
      </trkpt>
      <trkpt lat="43.77782036550343036651611328125" lon="1.58204256556928157806396484375">
        <ele>123.8000030517578125</ele>
        <time>2026-08-13T07:41:17.000Z</time>
        <extensions>
          <ns3:TrackPointExtension>
            <ns3:hr>85</ns3:hr>
            <ns3:cad>44</ns3:cad>
          </ns3:TrackPointExtension>
        </extensions>
      </trkpt>
      <trkpt lat="43.77781617455184459686279296875" lon="1.5820565633475780487060546875">
        <ele>123.8000030517578125</ele>
        <time>2026-08-13T07:41:18.000Z</time>
        <extensions>
          <ns3:TrackPointExtension>
            <ns3:hr>86</ns3:hr>
            <ns3:cad>43</ns3:cad>
          </ns3:TrackPointExtension>
        </extensions>
      </trkpt>
      <trkpt lat="43.77781131304800510406494140625" lon="1.5820652805268764495849609375">
        <ele>123.8000030517578125</ele>
        <time>2026-08-13T07:41:19.000Z</time>
        <extensions>
          <ns3:TrackPointExtension>
            <ns3:hr>86</ns3:hr>
            <ns3:cad>43</ns3:cad>
          </ns3:TrackPointExtension>
        </extensions>
      </trkpt>
      <trkpt lat="43.7778072059154510498046875" lon="1.5820703096687793731689453125">
        <ele>124</ele>
        <time>2026-08-13T07:41:20.000Z</time>
        <extensions>
          <ns3:TrackPointExtension>
            <ns3:hr>86</ns3:hr>
            <ns3:cad>42</ns3:cad>
          </ns3:TrackPointExtension>
        </extensions>
      </trkpt>
      <trkpt lat="43.777803517878055572509765625" lon="1.58208380453288555145263671875">
        <ele>124</ele>
        <time>2026-08-13T07:41:21.000Z</time>
        <extensions>
          <ns3:TrackPointExtension>
            <ns3:hr>87</ns3:hr>
            <ns3:cad>42</ns3:cad>
          </ns3:TrackPointExtension>
        </extensions>
      </trkpt>
      <trkpt lat="43.77779689617455005645751953125" lon="1.58209721557796001434326171875">
        <ele>124</ele>
        <time>2026-08-13T07:41:22.000Z</time>
        <extensions>
          <ns3:TrackPointExtension>
            <ns3:hr>88</ns3:hr>
            <ns3:cad>42</ns3:cad>
          </ns3:TrackPointExtension>
        </extensions>
      </trkpt>
      <trkpt lat="43.77779153175652027130126953125" lon="1.5821078605949878692626953125">
        <ele>124</ele>
        <time>2026-08-13T07:41:23.000Z</time>
        <extensions>
          <ns3:TrackPointExtension>
            <ns3:hr>88</ns3:hr>
            <ns3:cad>44</ns3:cad>
          </ns3:TrackPointExtension>
        </extensions>
      </trkpt>
      <trkpt lat="43.7777875922620296478271484375" lon="1.58211817033588886260986328125">
        <ele>124</ele>
        <time>2026-08-13T07:41:24.000Z</time>
        <extensions>
          <ns3:TrackPointExtension>
            <ns3:hr>90</ns3:hr>
            <ns3:cad>44</ns3:cad>
          </ns3:TrackPointExtension>
        </extensions>
      </trkpt>
      <trkpt lat="43.77777359448373317718505859375" lon="1.5821346826851367950439453125">
        <ele>124</ele>
        <time>2026-08-13T07:41:25.000Z</time>
        <extensions>
          <ns3:TrackPointExtension>
            <ns3:hr>90</ns3:hr>
            <ns3:cad>44</ns3:cad>
          </ns3:TrackPointExtension>
        </extensions>
      </trkpt>
      <trkpt lat="43.7777664698660373687744140625" lon="1.582141220569610595703125">
        <ele>124</ele>
        <time>2026-08-13T07:41:26.000Z</time>
        <extensions>
          <ns3:TrackPointExtension>
            <ns3:hr>90</ns3:hr>
            <ns3:cad>44</ns3:cad>
          </ns3:TrackPointExtension>
        </extensions>
      </trkpt>
      <trkpt lat="43.77775959670543670654296875" lon="1.58214851282536983489990234375">
        <ele>124</ele>
        <time>2026-08-13T07:41:27.000Z</time>
        <extensions>
          <ns3:TrackPointExtension>
            <ns3:hr>89</ns3:hr>
            <ns3:cad>44</ns3:cad>
          </ns3:TrackPointExtension>
        </extensions>
      </trkpt>
      <trkpt lat="43.777749203145503997802734375" lon="1.58216041512787342071533203125">
        <ele>124</ele>
        <time>2026-08-13T07:41:28.000Z</time>
        <extensions>
          <ns3:TrackPointExtension>
            <ns3:hr>86</ns3:hr>
            <ns3:cad>43</ns3:cad>
          </ns3:TrackPointExtension>
        </extensions>
      </trkpt>
      <trkpt lat="43.7777416594326496124267578125" lon="1.5821692161262035369873046875">
        <ele>124</ele>
        <time>2026-08-13T07:41:29.000Z</time>
        <extensions>
          <ns3:TrackPointExtension>
            <ns3:hr>86</ns3:hr>
            <ns3:cad>42</ns3:cad>
          </ns3:TrackPointExtension>
        </extensions>
      </trkpt>
      <trkpt lat="43.7777374684810638427734375" lon="1.58217449672520160675048828125">
        <ele>124</ele>
        <time>2026-08-13T07:41:30.000Z</time>
        <extensions>
          <ns3:TrackPointExtension>
            <ns3:hr>87</ns3:hr>
            <ns3:cad>42</ns3:cad>
          </ns3:TrackPointExtension>
        </extensions>
      </trkpt>
      <trkpt lat="43.7777356244623661041259765625" lon="1.5821796096861362457275390625">
        <ele>124</ele>
        <time>2026-08-13T07:41:31.000Z</time>
        <extensions>
          <ns3:TrackPointExtension>
            <ns3:hr>87</ns3:hr>
            <ns3:cad>42</ns3:cad>
          </ns3:TrackPointExtension>
        </extensions>
      </trkpt>
      <trkpt lat="43.77773604355752468109130859375" lon="1.5821930207312107086181640625">
        <ele>124</ele>
        <time>2026-08-13T07:41:32.000Z</time>
        <extensions>
          <ns3:TrackPointExtension>
            <ns3:hr>87</ns3:hr>
            <ns3:cad>42</ns3:cad>
          </ns3:TrackPointExtension>
        </extensions>
      </trkpt>
      <trkpt lat="43.7777321040630340576171875" lon="1.58220416866242885589599609375">
        <ele>124</ele>
        <time>2026-08-13T07:41:33.000Z</time>
        <extensions>
          <ns3:TrackPointExtension>
            <ns3:hr>87</ns3:hr>
            <ns3:cad>42</ns3:cad>
          </ns3:TrackPointExtension>
        </extensions>
      </trkpt>
      <trkpt lat="43.777726404368877410888671875" lon="1.582207940518856048583984375">
        <ele>124</ele>
        <time>2026-08-13T07:41:34.000Z</time>
        <extensions>
          <ns3:TrackPointExtension>
            <ns3:hr>87</ns3:hr>
            <ns3:cad>42</ns3:cad>
          </ns3:TrackPointExtension>
        </extensions>
      </trkpt>
      <trkpt lat="43.777722381055355072021484375" lon="1.5822091139853000640869140625">
        <ele>124</ele>
        <time>2026-08-13T07:41:35.000Z</time>
        <extensions>
          <ns3:TrackPointExtension>
            <ns3:hr>86</ns3:hr>
            <ns3:cad>43</ns3:cad>
          </ns3:TrackPointExtension>
        </extensions>
      </trkpt>
      <trkpt lat="43.7777175195515155792236328125" lon="1.58222394995391368865966796875">
        <ele>124</ele>
        <time>2026-08-13T07:41:36.000Z</time>
        <extensions>
          <ns3:TrackPointExtension>
            <ns3:hr>85</ns3:hr>
            <ns3:cad>43</ns3:cad>
          </ns3:TrackPointExtension>
        </extensions>
      </trkpt>
      <trkpt lat="43.7777141667902469635009765625" lon="1.5822419710457324981689453125">
        <ele>124</ele>
        <time>2026-08-13T07:41:37.000Z</time>
        <extensions>
          <ns3:TrackPointExtension>
            <ns3:hr>84</ns3:hr>
            <ns3:cad>0</ns3:cad>
          </ns3:TrackPointExtension>
        </extensions>
      </trkpt>
      <trkpt lat="43.77770754508674144744873046875" lon="1.5822526998817920684814453125">
        <ele>124</ele>
        <time>2026-08-13T07:41:38.000Z</time>
        <extensions>
          <ns3:TrackPointExtension>
            <ns3:hr>83</ns3:hr>
            <ns3:cad>45</ns3:cad>
          </ns3:TrackPointExtension>
        </extensions>
      </trkpt>
      <trkpt lat="43.7777034379541873931884765625" lon="1.5822506882250308990478515625">
        <ele>124</ele>
        <time>2026-08-13T07:41:39.000Z</time>
        <extensions>
          <ns3:TrackPointExtension>
            <ns3:hr>83</ns3:hr>
            <ns3:cad>45</ns3:cad>
          </ns3:TrackPointExtension>
        </extensions>
      </trkpt>
      <trkpt lat="43.77769111655652523040771484375" lon="1.582261584699153900146484375">
        <ele>124</ele>
        <time>2026-08-13T07:41:40.000Z</time>
        <extensions>
          <ns3:TrackPointExtension>
            <ns3:hr>83</ns3:hr>
            <ns3:cad>45</ns3:cad>
          </ns3:TrackPointExtension>
        </extensions>
      </trkpt>
      <trkpt lat="43.77768893726170063018798828125" lon="1.58227357082068920135498046875">
        <ele>124</ele>
        <time>2026-08-13T07:41:41.000Z</time>
        <extensions>
          <ns3:TrackPointExtension>
            <ns3:hr>82</ns3:hr>
            <ns3:cad>46</ns3:cad>
          </ns3:TrackPointExtension>
        </extensions>
      </trkpt>
      <trkpt lat="43.77768407575786113739013671875" lon="1.5822848863899707794189453125">
        <ele>124</ele>
        <time>2026-08-13T07:41:42.000Z</time>
        <extensions>
          <ns3:TrackPointExtension>
            <ns3:hr>82</ns3:hr>
            <ns3:cad>46</ns3:cad>
          </ns3:TrackPointExtension>
        </extensions>
      </trkpt>
      <trkpt lat="43.77767636440694332122802734375" lon="1.5822976268827915191650390625">
        <ele>124</ele>
        <time>2026-08-13T07:41:43.000Z</time>
        <extensions>
          <ns3:TrackPointExtension>
            <ns3:hr>82</ns3:hr>
            <ns3:cad>45</ns3:cad>
          </ns3:TrackPointExtension>
        </extensions>
      </trkpt>
      <trkpt lat="43.7776682339608669281005859375" lon="1.58230793662369251251220703125">
        <ele>124</ele>
        <time>2026-08-13T07:41:44.000Z</time>
        <extensions>
          <ns3:TrackPointExtension>
            <ns3:hr>82</ns3:hr>
            <ns3:cad>44</ns3:cad>
          </ns3:TrackPointExtension>
        </extensions>
      </trkpt>
      <trkpt lat="43.7776615284383296966552734375" lon="1.5823224373161792755126953125">
        <ele>124.1999969482421875</ele>
        <time>2026-08-13T07:41:45.000Z</time>
        <extensions>
          <ns3:TrackPointExtension>
            <ns3:hr>82</ns3:hr>
            <ns3:cad>45</ns3:cad>
          </ns3:TrackPointExtension>
        </extensions>
      </trkpt>
      <trkpt lat="43.77765608020126819610595703125" lon="1.58233526162803173065185546875">
        <ele>124.1999969482421875</ele>
        <time>2026-08-13T07:41:46.000Z</time>
        <extensions>
          <ns3:TrackPointExtension>
            <ns3:hr>82</ns3:hr>
            <ns3:cad>45</ns3:cad>
          </ns3:TrackPointExtension>
        </extensions>
      </trkpt>
      <trkpt lat="43.7776507996022701263427734375" lon="1.582347415387630462646484375">
        <ele>124.1999969482421875</ele>
        <time>2026-08-13T07:41:47.000Z</time>
        <extensions>
          <ns3:TrackPointExtension>
            <ns3:hr>82</ns3:hr>
            <ns3:cad>46</ns3:cad>
          </ns3:TrackPointExtension>
        </extensions>
      </trkpt>
      <trkpt lat="43.7776447646319866180419921875" lon="1.582358144223690032958984375">
        <ele>124.40000152587890625</ele>
        <time>2026-08-13T07:41:48.000Z</time>
        <extensions>
          <ns3:TrackPointExtension>
            <ns3:hr>82</ns3:hr>
            <ns3:cad>46</ns3:cad>
          </ns3:TrackPointExtension>
        </extensions>
      </trkpt>
      <trkpt lat="43.7776380591094493865966796875" lon="1.58236996270716190338134765625">
        <ele>124.40000152587890625</ele>
        <time>2026-08-13T07:41:49.000Z</time>
        <extensions>
          <ns3:TrackPointExtension>
            <ns3:hr>82</ns3:hr>
            <ns3:cad>45</ns3:cad>
          </ns3:TrackPointExtension>
        </extensions>
      </trkpt>
      <trkpt lat="43.77763160504400730133056640625" lon="1.58237683586776256561279296875">
        <ele>124.40000152587890625</ele>
        <time>2026-08-13T07:41:50.000Z</time>
        <extensions>
          <ns3:TrackPointExtension>
            <ns3:hr>82</ns3:hr>
            <ns3:cad>45</ns3:cad>
          </ns3:TrackPointExtension>
        </extensions>
      </trkpt>
      <trkpt lat="43.7776273302733898162841796875" lon="1.5823920071125030517578125">
        <ele>124.40000152587890625</ele>
        <time>2026-08-13T07:41:51.000Z</time>
        <extensions>
          <ns3:TrackPointExtension>
            <ns3:hr>83</ns3:hr>
            <ns3:cad>44</ns3:cad>
          </ns3:TrackPointExtension>
        </extensions>
      </trkpt>
      <trkpt lat="43.77762012183666229248046875" lon="1.58240835182368755340576171875">
        <ele>124.1999969482421875</ele>
        <time>2026-08-13T07:41:52.000Z</time>
        <extensions>
          <ns3:TrackPointExtension>
            <ns3:hr>83</ns3:hr>
            <ns3:cad>43</ns3:cad>
          </ns3:TrackPointExtension>
        </extensions>
      </trkpt>
      <trkpt lat="43.7776149250566959381103515625" lon="1.582413800060749053955078125">
        <ele>124.1999969482421875</ele>
        <time>2026-08-13T07:41:53.000Z</time>
        <extensions>
          <ns3:TrackPointExtension>
            <ns3:hr>83</ns3:hr>
            <ns3:cad>43</ns3:cad>
          </ns3:TrackPointExtension>
        </extensions>
      </trkpt>
      <trkpt lat="43.7776122428476810455322265625" lon="1.58242193050682544708251953125">
        <ele>124.1999969482421875</ele>
        <time>2026-08-13T07:41:54.000Z</time>
        <extensions>
          <ns3:TrackPointExtension>
            <ns3:hr>83</ns3:hr>
            <ns3:cad>43</ns3:cad>
          </ns3:TrackPointExtension>
        </extensions>
      </trkpt>
      <trkpt lat="43.777603693306446075439453125" lon="1.58243425190448760986328125">
        <ele>124.1999969482421875</ele>
        <time>2026-08-13T07:41:55.000Z</time>
        <extensions>
          <ns3:TrackPointExtension>
            <ns3:hr>83</ns3:hr>
            <ns3:cad>43</ns3:cad>
          </ns3:TrackPointExtension>
        </extensions>
      </trkpt>
      <trkpt lat="43.77759790979325771331787109375" lon="1.5824424661695957183837890625">
        <ele>124.1999969482421875</ele>
        <time>2026-08-13T07:41:56.000Z</time>
        <extensions>
          <ns3:TrackPointExtension>
            <ns3:hr>83</ns3:hr>
            <ns3:cad>43</ns3:cad>
          </ns3:TrackPointExtension>
        </extensions>
      </trkpt>
      <trkpt lat="43.77759019844233989715576171875" lon="1.5824478305876255035400390625">
        <ele>124.1999969482421875</ele>
        <time>2026-08-13T07:41:57.000Z</time>
        <extensions>
          <ns3:TrackPointExtension>
            <ns3:hr>83</ns3:hr>
            <ns3:cad>43</ns3:cad>
          </ns3:TrackPointExtension>
        </extensions>
      </trkpt>
      <trkpt lat="43.7775819003582000732421875" lon="1.5824588946998119354248046875">
        <ele>124.1999969482421875</ele>
        <time>2026-08-13T07:41:58.000Z</time>
        <extensions>
          <ns3:TrackPointExtension>
            <ns3:hr>84</ns3:hr>
            <ns3:cad>42</ns3:cad>
          </ns3:TrackPointExtension>
        </extensions>
      </trkpt>
      <trkpt lat="43.77757594920694828033447265625" lon="1.58247255720198154449462890625">
        <ele>124.1999969482421875</ele>
        <time>2026-08-13T07:41:59.000Z</time>
        <extensions>
          <ns3:TrackPointExtension>
            <ns3:hr>83</ns3:hr>
            <ns3:cad>42</ns3:cad>
          </ns3:TrackPointExtension>
        </extensions>
      </trkpt>
      <trkpt lat="43.7775699980556964874267578125" lon="1.58247716724872589111328125">
        <ele>124.1999969482421875</ele>
        <time>2026-08-13T07:42:00.000Z</time>
        <extensions>
          <ns3:TrackPointExtension>
            <ns3:hr>83</ns3:hr>
            <ns3:cad>42</ns3:cad>
          </ns3:TrackPointExtension>
        </extensions>
      </trkpt>
      <trkpt lat="43.77756488509476184844970703125" lon="1.5824830345809459686279296875">
        <ele>124.1999969482421875</ele>
        <time>2026-08-13T07:42:01.000Z</time>
        <extensions>
          <ns3:TrackPointExtension>
            <ns3:hr>83</ns3:hr>
            <ns3:cad>42</ns3:cad>
          </ns3:TrackPointExtension>
        </extensions>
      </trkpt>
      <trkpt lat="43.77755817957222461700439453125" lon="1.582495607435703277587890625">
        <ele>124.1999969482421875</ele>
        <time>2026-08-13T07:42:02.000Z</time>
        <extensions>
          <ns3:TrackPointExtension>
            <ns3:hr>83</ns3:hr>
            <ns3:cad>41</ns3:cad>
          </ns3:TrackPointExtension>
        </extensions>
      </trkpt>
      <trkpt lat="43.77755306661128997802734375" lon="1.582500971853733062744140625">
        <ele>124.1999969482421875</ele>
        <time>2026-08-13T07:42:03.000Z</time>
        <extensions>
          <ns3:TrackPointExtension>
            <ns3:hr>83</ns3:hr>
            <ns3:cad>41</ns3:cad>
          </ns3:TrackPointExtension>
        </extensions>
      </trkpt>
      <trkpt lat="43.77754594199359416961669921875" lon="1.58250340260565280914306640625">
        <ele>124.1999969482421875</ele>
        <time>2026-08-13T07:42:04.000Z</time>
        <extensions>
          <ns3:TrackPointExtension>
            <ns3:hr>83</ns3:hr>
            <ns3:cad>41</ns3:cad>
          </ns3:TrackPointExtension>
        </extensions>
      </trkpt>
      <trkpt lat="43.77753789536654949188232421875" lon="1.58251346088945865631103515625">
        <ele>124.1999969482421875</ele>
        <time>2026-08-13T07:42:05.000Z</time>
        <extensions>
          <ns3:TrackPointExtension>
            <ns3:hr>83</ns3:hr>
            <ns3:cad>41</ns3:cad>
          </ns3:TrackPointExtension>
        </extensions>
      </trkpt>
      <trkpt lat="43.77753160893917083740234375" lon="1.58252469263970851898193359375">
        <ele>124.1999969482421875</ele>
        <time>2026-08-13T07:42:06.000Z</time>
        <extensions>
          <ns3:TrackPointExtension>
            <ns3:hr>83</ns3:hr>
            <ns3:cad>43</ns3:cad>
          </ns3:TrackPointExtension>
        </extensions>
      </trkpt>
      <trkpt lat="43.7775267474353313446044921875" lon="1.5825299732387065887451171875">
        <ele>124.1999969482421875</ele>
        <time>2026-08-13T07:42:07.000Z</time>
        <extensions>
          <ns3:TrackPointExtension>
            <ns3:hr>83</ns3:hr>
            <ns3:cad>43</ns3:cad>
          </ns3:TrackPointExtension>
        </extensions>
      </trkpt>
      <trkpt lat="43.777521215379238128662109375" lon="1.58254019916057586669921875">
        <ele>124.1999969482421875</ele>
        <time>2026-08-13T07:42:08.000Z</time>
        <extensions>
          <ns3:TrackPointExtension>
            <ns3:hr>83</ns3:hr>
            <ns3:cad>41</ns3:cad>
          </ns3:TrackPointExtension>
        </extensions>
      </trkpt>
      <trkpt lat="43.7775136716663837432861328125" lon="1.58255101181566715240478515625">
        <ele>124.1999969482421875</ele>
        <time>2026-08-13T07:42:09.000Z</time>
        <extensions>
          <ns3:TrackPointExtension>
            <ns3:hr>83</ns3:hr>
            <ns3:cad>41</ns3:cad>
          </ns3:TrackPointExtension>
        </extensions>
      </trkpt>
      <trkpt lat="43.77750822342932224273681640625" lon="1.58255889080464839935302734375">
        <ele>124.1999969482421875</ele>
        <time>2026-08-13T07:42:10.000Z</time>
        <extensions>
          <ns3:TrackPointExtension>
            <ns3:hr>83</ns3:hr>
            <ns3:cad>42</ns3:cad>
          </ns3:TrackPointExtension>
        </extensions>
      </trkpt>
      <trkpt lat="43.7775042839348316192626953125" lon="1.5825621597468852996826171875">
        <ele>124.1999969482421875</ele>
        <time>2026-08-13T07:42:11.000Z</time>
        <extensions>
          <ns3:TrackPointExtension>
            <ns3:hr>82</ns3:hr>
            <ns3:cad>43</ns3:cad>
          </ns3:TrackPointExtension>
        </extensions>
      </trkpt>
      <trkpt lat="43.77749598585069179534912109375" lon="1.582574062049388885498046875">
        <ele>124.1999969482421875</ele>
        <time>2026-08-13T07:42:12.000Z</time>
        <extensions>
          <ns3:TrackPointExtension>
            <ns3:hr>81</ns3:hr>
            <ns3:cad>43</ns3:cad>
          </ns3:TrackPointExtension>
        </extensions>
      </trkpt>
      <trkpt lat="43.7774875201284885406494140625" lon="1.58257749862968921661376953125">
        <ele>124.1999969482421875</ele>
        <time>2026-08-13T07:42:13.000Z</time>
        <extensions>
          <ns3:TrackPointExtension>
            <ns3:hr>79</ns3:hr>
            <ns3:cad>42</ns3:cad>
          </ns3:TrackPointExtension>
        </extensions>
      </trkpt>
      <trkpt lat="43.77748735249042510986328125" lon="1.58257909119129180908203125">
        <ele>124.1999969482421875</ele>
        <time>2026-08-13T07:42:14.000Z</time>
        <extensions>
          <ns3:TrackPointExtension>
            <ns3:hr>77</ns3:hr>
            <ns3:cad>42</ns3:cad>
          </ns3:TrackPointExtension>
        </extensions>
      </trkpt>
      <trkpt lat="43.777479641139507293701171875" lon="1.58258713781833648681640625">
        <ele>124.1999969482421875</ele>
        <time>2026-08-13T07:42:15.000Z</time>
        <extensions>
          <ns3:TrackPointExtension>
            <ns3:hr>76</ns3:hr>
            <ns3:cad>42</ns3:cad>
          </ns3:TrackPointExtension>
        </extensions>
      </trkpt>
      <trkpt lat="43.77746949903666973114013671875" lon="1.58259895630180835723876953125">
        <ele>124.1999969482421875</ele>
        <time>2026-08-13T07:42:16.000Z</time>
        <extensions>
          <ns3:TrackPointExtension>
            <ns3:hr>76</ns3:hr>
            <ns3:cad>42</ns3:cad>
          </ns3:TrackPointExtension>
        </extensions>
      </trkpt>
      <trkpt lat="43.777466230094432830810546875" lon="1.58260968513786792755126953125">
        <ele>124.40000152587890625</ele>
        <time>2026-08-13T07:42:17.000Z</time>
        <extensions>
          <ns3:TrackPointExtension>
            <ns3:hr>76</ns3:hr>
            <ns3:cad>42</ns3:cad>
          </ns3:TrackPointExtension>
        </extensions>
      </trkpt>
      <trkpt lat="43.77746321260929107666015625" lon="1.58261454664170742034912109375">
        <ele>124.40000152587890625</ele>
        <time>2026-08-13T07:42:18.000Z</time>
        <extensions>
          <ns3:TrackPointExtension>
            <ns3:hr>75</ns3:hr>
            <ns3:cad>41</ns3:cad>
          </ns3:TrackPointExtension>
        </extensions>
      </trkpt>
      <trkpt lat="43.77745323814451694488525390625" lon="1.58262695185840129852294921875">
        <ele>124.40000152587890625</ele>
        <time>2026-08-13T07:42:19.000Z</time>
        <extensions>
          <ns3:TrackPointExtension>
            <ns3:hr>75</ns3:hr>
            <ns3:cad>41</ns3:cad>
          </ns3:TrackPointExtension>
        </extensions>
      </trkpt>
      <trkpt lat="43.77744376659393310546875" lon="1.5826379321515560150146484375">
        <ele>124.40000152587890625</ele>
        <time>2026-08-13T07:42:20.000Z</time>
        <extensions>
          <ns3:TrackPointExtension>
            <ns3:hr>75</ns3:hr>
            <ns3:cad>41</ns3:cad>
          </ns3:TrackPointExtension>
        </extensions>
      </trkpt>
      <trkpt lat="43.7774372287094593048095703125" lon="1.58264539204537868499755859375">
        <ele>124.40000152587890625</ele>
        <time>2026-08-13T07:42:21.000Z</time>
        <extensions>
          <ns3:TrackPointExtension>
            <ns3:hr>76</ns3:hr>
            <ns3:cad>41</ns3:cad>
          </ns3:TrackPointExtension>
        </extensions>
      </trkpt>
      <trkpt lat="43.77743194811046123504638671875" lon="1.58264874480664730072021484375">
        <ele>124.1999969482421875</ele>
        <time>2026-08-13T07:42:22.000Z</time>
        <extensions>
          <ns3:TrackPointExtension>
            <ns3:hr>75</ns3:hr>
            <ns3:cad>44</ns3:cad>
          </ns3:TrackPointExtension>
        </extensions>
      </trkpt>
      <trkpt lat="43.77742256037890911102294921875" lon="1.58266098238527774810791015625">
        <ele>124.1999969482421875</ele>
        <time>2026-08-13T07:42:23.000Z</time>
        <extensions>
          <ns3:TrackPointExtension>
            <ns3:hr>75</ns3:hr>
            <ns3:cad>44</ns3:cad>
          </ns3:TrackPointExtension>
        </extensions>
      </trkpt>
      <trkpt lat="43.77741535194218158721923828125" lon="1.58267137594521045684814453125">
        <ele>124.1999969482421875</ele>
        <time>2026-08-13T07:42:24.000Z</time>
        <extensions>
          <ns3:TrackPointExtension>
            <ns3:hr>75</ns3:hr>
            <ns3:cad>44</ns3:cad>
          </ns3:TrackPointExtension>
        </extensions>
      </trkpt>
      <trkpt lat="43.7774073891341686248779296875" lon="1.58267791382968425750732421875">
        <ele>124.1999969482421875</ele>
        <time>2026-08-13T07:42:25.000Z</time>
        <extensions>
          <ns3:TrackPointExtension>
            <ns3:hr>75</ns3:hr>
            <ns3:cad>44</ns3:cad>
          </ns3:TrackPointExtension>
        </extensions>
      </trkpt>
      <trkpt lat="43.77739992924034595489501953125" lon="1.58268629573285579681396484375">
        <ele>124.1999969482421875</ele>
        <time>2026-08-13T07:42:26.000Z</time>
        <extensions>
          <ns3:TrackPointExtension>
            <ns3:hr>75</ns3:hr>
            <ns3:cad>44</ns3:cad>
          </ns3:TrackPointExtension>
        </extensions>
      </trkpt>
      <trkpt lat="43.77739054150879383087158203125" lon="1.58270155079662799835205078125">
        <ele>124.1999969482421875</ele>
        <time>2026-08-13T07:42:27.000Z</time>
        <extensions>
          <ns3:TrackPointExtension>
            <ns3:hr>75</ns3:hr>
            <ns3:cad>44</ns3:cad>
          </ns3:TrackPointExtension>
        </extensions>
      </trkpt>
      <trkpt lat="43.7773869372904300689697265625" lon="1.5827106870710849761962890625">
        <ele>124.1999969482421875</ele>
        <time>2026-08-13T07:42:28.000Z</time>
        <extensions>
          <ns3:TrackPointExtension>
            <ns3:hr>75</ns3:hr>
            <ns3:cad>44</ns3:cad>
          </ns3:TrackPointExtension>
        </extensions>
      </trkpt>
      <trkpt lat="43.77738014794886112213134765625" lon="1.58271932043135166168212890625">
        <ele>124.1999969482421875</ele>
        <time>2026-08-13T07:42:29.000Z</time>
        <extensions>
          <ns3:TrackPointExtension>
            <ns3:hr>76</ns3:hr>
            <ns3:cad>44</ns3:cad>
          </ns3:TrackPointExtension>
        </extensions>
      </trkpt>
      <trkpt lat="43.777374364435672760009765625" lon="1.58272803761065006256103515625">
        <ele>124.1999969482421875</ele>
        <time>2026-08-13T07:42:30.000Z</time>
        <extensions>
          <ns3:TrackPointExtension>
            <ns3:hr>76</ns3:hr>
            <ns3:cad>43</ns3:cad>
          </ns3:TrackPointExtension>
        </extensions>
      </trkpt>
      <trkpt lat="43.77736489288508892059326171875" lon="1.5827398560941219329833984375">
        <ele>124.1999969482421875</ele>
        <time>2026-08-13T07:42:31.000Z</time>
        <extensions>
          <ns3:TrackPointExtension>
            <ns3:hr>76</ns3:hr>
            <ns3:cad>43</ns3:cad>
          </ns3:TrackPointExtension>
        </extensions>
      </trkpt>
      <trkpt lat="43.77735600806772708892822265625" lon="1.58274983055889606475830078125">
        <ele>124.1999969482421875</ele>
        <time>2026-08-13T07:42:32.000Z</time>
        <extensions>
          <ns3:TrackPointExtension>
            <ns3:hr>76</ns3:hr>
            <ns3:cad>44</ns3:cad>
          </ns3:TrackPointExtension>
        </extensions>
      </trkpt>
      <trkpt lat="43.77734762616455554962158203125" lon="1.58275737427175045013427734375">
        <ele>124.1999969482421875</ele>
        <time>2026-08-13T07:42:33.000Z</time>
        <extensions>
          <ns3:TrackPointExtension>
            <ns3:hr>77</ns3:hr>
            <ns3:cad>44</ns3:cad>
          </ns3:TrackPointExtension>
        </extensions>
      </trkpt>
      <trkpt lat="43.77734041772782802581787109375" lon="1.58276609145104885101318359375">
        <ele>124.40000152587890625</ele>
        <time>2026-08-13T07:42:34.000Z</time>
        <extensions>
          <ns3:TrackPointExtension>
            <ns3:hr>77</ns3:hr>
            <ns3:cad>44</ns3:cad>
          </ns3:TrackPointExtension>
        </extensions>
      </trkpt>
      <trkpt lat="43.77733555622398853302001953125" lon="1.58277891576290130615234375">
        <ele>124.40000152587890625</ele>
        <time>2026-08-13T07:42:35.000Z</time>
        <extensions>
          <ns3:TrackPointExtension>
            <ns3:hr>77</ns3:hr>
            <ns3:cad>44</ns3:cad>
          </ns3:TrackPointExtension>
        </extensions>
      </trkpt>
      <trkpt lat="43.77733035944402217864990234375" lon="1.582789979875087738037109375">
        <ele>124.40000152587890625</ele>
        <time>2026-08-13T07:42:36.000Z</time>
        <extensions>
          <ns3:TrackPointExtension>
            <ns3:hr>77</ns3:hr>
            <ns3:cad>44</ns3:cad>
          </ns3:TrackPointExtension>
        </extensions>
      </trkpt>
      <trkpt lat="43.77732449211180210113525390625" lon="1.58279408700764179229736328125">
        <ele>124.40000152587890625</ele>
        <time>2026-08-13T07:42:37.000Z</time>
        <extensions>
          <ns3:TrackPointExtension>
            <ns3:hr>77</ns3:hr>
            <ns3:cad>44</ns3:cad>
          </ns3:TrackPointExtension>
        </extensions>
      </trkpt>
      <trkpt lat="43.7773185409605503082275390625" lon="1.58279769122600555419921875">
        <ele>124.40000152587890625</ele>
        <time>2026-08-13T07:42:38.000Z</time>
        <extensions>
          <ns3:TrackPointExtension>
            <ns3:hr>77</ns3:hr>
            <ns3:cad>44</ns3:cad>
          </ns3:TrackPointExtension>
        </extensions>
      </trkpt>
      <trkpt lat="43.77731191925704479217529296875" lon="1.58281001262366771697998046875">
        <ele>124.40000152587890625</ele>
        <time>2026-08-13T07:42:39.000Z</time>
        <extensions>
          <ns3:TrackPointExtension>
            <ns3:hr>77</ns3:hr>
            <ns3:cad>47</ns3:cad>
          </ns3:TrackPointExtension>
        </extensions>
      </trkpt>
      <trkpt lat="43.77730672247707843780517578125" lon="1.58281437121331691741943359375">
        <ele>124.40000152587890625</ele>
        <time>2026-08-13T07:42:40.000Z</time>
        <extensions>
          <ns3:TrackPointExtension>
            <ns3:hr>78</ns3:hr>
            <ns3:cad>45</ns3:cad>
          </ns3:TrackPointExtension>
        </extensions>
      </trkpt>
      <trkpt lat="43.77730429172515869140625" lon="1.58281889744102954864501953125">
        <ele>124.1999969482421875</ele>
        <time>2026-08-13T07:42:41.000Z</time>
        <extensions>
          <ns3:TrackPointExtension>
            <ns3:hr>78</ns3:hr>
            <ns3:cad>45</ns3:cad>
          </ns3:TrackPointExtension>
        </extensions>
      </trkpt>
      <trkpt lat="43.77729817293584346771240234375" lon="1.58283214084804058074951171875">
        <ele>124.1999969482421875</ele>
        <time>2026-08-13T07:42:42.000Z</time>
        <extensions>
          <ns3:TrackPointExtension>
            <ns3:hr>78</ns3:hr>
            <ns3:cad>45</ns3:cad>
          </ns3:TrackPointExtension>
        </extensions>
      </trkpt>
      <trkpt lat="43.7772890366613864898681640625" lon="1.582844965159893035888671875">
        <ele>124.1999969482421875</ele>
        <time>2026-08-13T07:42:43.000Z</time>
        <extensions>
          <ns3:TrackPointExtension>
            <ns3:hr>78</ns3:hr>
            <ns3:cad>46</ns3:cad>
          </ns3:TrackPointExtension>
        </extensions>
      </trkpt>
      <trkpt lat="43.77728241495788097381591796875" lon="1.5828538499772548675537109375">
        <ele>124.1999969482421875</ele>
        <time>2026-08-13T07:42:44.000Z</time>
        <extensions>
          <ns3:TrackPointExtension>
            <ns3:hr>78</ns3:hr>
            <ns3:cad>46</ns3:cad>
          </ns3:TrackPointExtension>
        </extensions>
      </trkpt>
      <trkpt lat="43.777275793254375457763671875" lon="1.58285879530012607574462890625">
        <ele>124.1999969482421875</ele>
        <time>2026-08-13T07:42:45.000Z</time>
        <extensions>
          <ns3:TrackPointExtension>
            <ns3:hr>78</ns3:hr>
            <ns3:cad>46</ns3:cad>
          </ns3:TrackPointExtension>
        </extensions>
      </trkpt>
      <trkpt lat="43.77726548351347446441650390625" lon="1.58287321217358112335205078125">
        <ele>124.1999969482421875</ele>
        <time>2026-08-13T07:42:46.000Z</time>
        <extensions>
          <ns3:TrackPointExtension>
            <ns3:hr>77</ns3:hr>
            <ns3:cad>46</ns3:cad>
          </ns3:TrackPointExtension>
        </extensions>
      </trkpt>
      <trkpt lat="43.77725559286773204803466796875" lon="1.58288888633251190185546875">
        <ele>124.1999969482421875</ele>
        <time>2026-08-13T07:42:47.000Z</time>
        <extensions>
          <ns3:TrackPointExtension>
            <ns3:hr>77</ns3:hr>
            <ns3:cad>46</ns3:cad>
          </ns3:TrackPointExtension>
        </extensions>
      </trkpt>
      <trkpt lat="43.77724863588809967041015625" lon="1.58289785496890544891357421875">
        <ele>124.1999969482421875</ele>
        <time>2026-08-13T07:42:48.000Z</time>
        <extensions>
          <ns3:TrackPointExtension>
            <ns3:hr>77</ns3:hr>
            <ns3:cad>46</ns3:cad>
          </ns3:TrackPointExtension>
        </extensions>
      </trkpt>
      <trkpt lat="43.77724184654653072357177734375" lon="1.582909338176250457763671875">
        <ele>124.1999969482421875</ele>
        <time>2026-08-13T07:42:49.000Z</time>
        <extensions>
          <ns3:TrackPointExtension>
            <ns3:hr>77</ns3:hr>
            <ns3:cad>46</ns3:cad>
          </ns3:TrackPointExtension>
        </extensions>
      </trkpt>
      <trkpt lat="43.7772370688617229461669921875" lon="1.58292316831648349761962890625">
        <ele>124.1999969482421875</ele>
        <time>2026-08-13T07:42:50.000Z</time>
        <extensions>
          <ns3:TrackPointExtension>
            <ns3:hr>77</ns3:hr>
            <ns3:cad>46</ns3:cad>
          </ns3:TrackPointExtension>
        </extensions>
      </trkpt>
      <trkpt lat="43.7772343866527080535888671875" lon="1.5829356573522090911865234375">
        <ele>124.1999969482421875</ele>
        <time>2026-08-13T07:42:51.000Z</time>
        <extensions>
          <ns3:TrackPointExtension>
            <ns3:hr>77</ns3:hr>
            <ns3:cad>44</ns3:cad>
          </ns3:TrackPointExtension>
        </extensions>
      </trkpt>
      <trkpt lat="43.77723254263401031494140625" lon="1.5829463861882686614990234375">
        <ele>124.1999969482421875</ele>
        <time>2026-08-13T07:42:52.000Z</time>
        <extensions>
          <ns3:TrackPointExtension>
            <ns3:hr>77</ns3:hr>
            <ns3:cad>44</ns3:cad>
          </ns3:TrackPointExtension>
        </extensions>
      </trkpt>
      <trkpt lat="43.77723027952015399932861328125" lon="1.582951582968235015869140625">
        <ele>124.1999969482421875</ele>
        <time>2026-08-13T07:42:53.000Z</time>
        <extensions>
          <ns3:TrackPointExtension>
            <ns3:hr>77</ns3:hr>
            <ns3:cad>44</ns3:cad>
          </ns3:TrackPointExtension>
        </extensions>
      </trkpt>
      <trkpt lat="43.77722642384469509124755859375" lon="1.58296222798526287078857421875">
        <ele>124.1999969482421875</ele>
        <time>2026-08-13T07:42:54.000Z</time>
        <extensions>
          <ns3:TrackPointExtension>
            <ns3:hr>77</ns3:hr>
            <ns3:cad>43</ns3:cad>
          </ns3:TrackPointExtension>
        </extensions>
      </trkpt>
      <trkpt lat="43.77722072415053844451904296875" lon="1.58297781832516193389892578125">
        <ele>124</ele>
        <time>2026-08-13T07:42:55.000Z</time>
        <extensions>
          <ns3:TrackPointExtension>
            <ns3:hr>77</ns3:hr>
            <ns3:cad>43</ns3:cad>
          </ns3:TrackPointExtension>
        </extensions>
      </trkpt>
      <trkpt lat="43.7772189639508724212646484375" lon="1.582989133894443511962890625">
        <ele>124</ele>
        <time>2026-08-13T07:42:56.000Z</time>
        <extensions>
          <ns3:TrackPointExtension>
            <ns3:hr>77</ns3:hr>
            <ns3:cad>43</ns3:cad>
          </ns3:TrackPointExtension>
        </extensions>
      </trkpt>
      <trkpt lat="43.77721519209444522857666015625" lon="1.582999192178249359130859375">
        <ele>124</ele>
        <time>2026-08-13T07:42:57.000Z</time>
        <extensions>
          <ns3:TrackPointExtension>
            <ns3:hr>77</ns3:hr>
            <ns3:cad>47</ns3:cad>
          </ns3:TrackPointExtension>
        </extensions>
      </trkpt>
      <trkpt lat="43.7772115878760814666748046875" lon="1.5830089151859283447265625">
        <ele>124</ele>
        <time>2026-08-13T07:42:58.000Z</time>
        <extensions>
          <ns3:TrackPointExtension>
            <ns3:hr>78</ns3:hr>
            <ns3:cad>47</ns3:cad>
          </ns3:TrackPointExtension>
        </extensions>
      </trkpt>
      <trkpt lat="43.77720479853451251983642578125" lon="1.58302257768809795379638671875">
        <ele>124</ele>
        <time>2026-08-13T07:42:59.000Z</time>
        <extensions>
          <ns3:TrackPointExtension>
            <ns3:hr>78</ns3:hr>
            <ns3:cad>46</ns3:cad>
          </ns3:TrackPointExtension>
        </extensions>
      </trkpt>
      <trkpt lat="43.77719909884035587310791015625" lon="1.5830332227051258087158203125">
        <ele>124</ele>
        <time>2026-08-13T07:43:00.000Z</time>
        <extensions>
          <ns3:TrackPointExtension>
            <ns3:hr>79</ns3:hr>
            <ns3:cad>45</ns3:cad>
          </ns3:TrackPointExtension>
        </extensions>
      </trkpt>
      <trkpt lat="43.77719289623200893402099609375" lon="1.583035401999950408935546875">
        <ele>124</ele>
        <time>2026-08-13T07:43:01.000Z</time>
        <extensions>
          <ns3:TrackPointExtension>
            <ns3:hr>79</ns3:hr>
            <ns3:cad>45</ns3:cad>
          </ns3:TrackPointExtension>
        </extensions>
      </trkpt>
      <trkpt lat="43.77718635834753513336181640625" lon="1.58304872922599315643310546875">
        <ele>124</ele>
        <time>2026-08-13T07:43:02.000Z</time>
        <extensions>
          <ns3:TrackPointExtension>
            <ns3:hr>79</ns3:hr>
            <ns3:cad>45</ns3:cad>
          </ns3:TrackPointExtension>
        </extensions>
      </trkpt>
      <trkpt lat="43.77718283794820308685302734375" lon="1.58306230790913105010986328125">
        <ele>124</ele>
        <time>2026-08-13T07:43:03.000Z</time>
        <extensions>
          <ns3:TrackPointExtension>
            <ns3:hr>78</ns3:hr>
            <ns3:cad>44</ns3:cad>
          </ns3:TrackPointExtension>
        </extensions>
      </trkpt>
      <trkpt lat="43.77717814408242702484130859375" lon="1.5830727852880954742431640625">
        <ele>124</ele>
        <time>2026-08-13T07:43:04.000Z</time>
        <extensions>
          <ns3:TrackPointExtension>
            <ns3:hr>78</ns3:hr>
            <ns3:cad>44</ns3:cad>
          </ns3:TrackPointExtension>
        </extensions>
      </trkpt>
      <trkpt lat="43.77717177383601665496826171875" lon="1.58308242447674274444580078125">
        <ele>124</ele>
        <time>2026-08-13T07:43:05.000Z</time>
        <extensions>
          <ns3:TrackPointExtension>
            <ns3:hr>78</ns3:hr>
            <ns3:cad>43</ns3:cad>
          </ns3:TrackPointExtension>
        </extensions>
      </trkpt>
      <trkpt lat="43.77716540358960628509521484375" lon="1.5830955840647220611572265625">
        <ele>124</ele>
        <time>2026-08-13T07:43:06.000Z</time>
        <extensions>
          <ns3:TrackPointExtension>
            <ns3:hr>78</ns3:hr>
            <ns3:cad>43</ns3:cad>
          </ns3:TrackPointExtension>
        </extensions>
      </trkpt>
      <trkpt lat="43.77715903334319591522216796875" lon="1.5831100009381771087646484375">
        <ele>124</ele>
        <time>2026-08-13T07:43:07.000Z</time>
        <extensions>
          <ns3:TrackPointExtension>
            <ns3:hr>78</ns3:hr>
            <ns3:cad>43</ns3:cad>
          </ns3:TrackPointExtension>
        </extensions>
      </trkpt>
      <trkpt lat="43.77715350128710269927978515625" lon="1.58311913721263408660888671875">
        <ele>124</ele>
        <time>2026-08-13T07:43:08.000Z</time>
        <extensions>
          <ns3:TrackPointExtension>
            <ns3:hr>77</ns3:hr>
            <ns3:cad>43</ns3:cad>
          </ns3:TrackPointExtension>
        </extensions>
      </trkpt>
      <trkpt lat="43.7771495617926120758056640625" lon="1.5831247530877590179443359375">
        <ele>124</ele>
        <time>2026-08-13T07:43:09.000Z</time>
        <extensions>
          <ns3:TrackPointExtension>
            <ns3:hr>76</ns3:hr>
            <ns3:cad>46</ns3:cad>
          </ns3:TrackPointExtension>
        </extensions>
      </trkpt>
      <trkpt lat="43.77714260481297969818115234375" lon="1.583130620419979095458984375">
        <ele>124</ele>
        <time>2026-08-13T07:43:10.000Z</time>
        <extensions>
          <ns3:TrackPointExtension>
            <ns3:hr>76</ns3:hr>
            <ns3:cad>46</ns3:cad>
          </ns3:TrackPointExtension>
        </extensions>
      </trkpt>
      <trkpt lat="43.77713623456656932830810546875" lon="1.5831361524760723114013671875">
        <ele>124</ele>
        <time>2026-08-13T07:43:11.000Z</time>
        <extensions>
          <ns3:TrackPointExtension>
            <ns3:hr>77</ns3:hr>
            <ns3:cad>46</ns3:cad>
          </ns3:TrackPointExtension>
        </extensions>
      </trkpt>
      <trkpt lat="43.77712634392082691192626953125" lon="1.58314562402665615081787109375">
        <ele>124</ele>
        <time>2026-08-13T07:43:12.000Z</time>
        <extensions>
          <ns3:TrackPointExtension>
            <ns3:hr>77</ns3:hr>
            <ns3:cad>46</ns3:cad>
          </ns3:TrackPointExtension>
        </extensions>
      </trkpt>
      <trkpt lat="43.7771200574934482574462890625" lon="1.5831586159765720367431640625">
        <ele>124</ele>
        <time>2026-08-13T07:43:13.000Z</time>
        <extensions>
          <ns3:TrackPointExtension>
            <ns3:hr>77</ns3:hr>
            <ns3:cad>0</ns3:cad>
          </ns3:TrackPointExtension>
        </extensions>
      </trkpt>
      <trkpt lat="43.77711276523768901824951171875" lon="1.58316691406071186065673828125">
        <ele>124</ele>
        <time>2026-08-13T07:43:14.000Z</time>
        <extensions>
          <ns3:TrackPointExtension>
            <ns3:hr>77</ns3:hr>
            <ns3:cad>0</ns3:cad>
          </ns3:TrackPointExtension>
        </extensions>
      </trkpt>
      <trkpt lat="43.77710404805839061737060546875" lon="1.58317378722131252288818359375">
        <ele>123.8000030517578125</ele>
        <time>2026-08-13T07:43:15.000Z</time>
        <extensions>
          <ns3:TrackPointExtension>
            <ns3:hr>77</ns3:hr>
            <ns3:cad>0</ns3:cad>
          </ns3:TrackPointExtension>
        </extensions>
      </trkpt>
      <trkpt lat="43.77709365449845790863037109375" lon="1.58318124711513519287109375">
        <ele>123.8000030517578125</ele>
        <time>2026-08-13T07:43:16.000Z</time>
        <extensions>
          <ns3:TrackPointExtension>
            <ns3:hr>76</ns3:hr>
            <ns3:cad>0</ns3:cad>
          </ns3:TrackPointExtension>
        </extensions>
      </trkpt>
      <trkpt lat="43.77708191983401775360107421875" lon="1.5831904672086238861083984375">
        <ele>123.8000030517578125</ele>
        <time>2026-08-13T07:43:17.000Z</time>
        <extensions>
          <ns3:TrackPointExtension>
            <ns3:hr>77</ns3:hr>
            <ns3:cad>0</ns3:cad>
          </ns3:TrackPointExtension>
        </extensions>
      </trkpt>
      <trkpt lat="43.77707320265471935272216796875" lon="1.5831993520259857177734375">
        <ele>123.8000030517578125</ele>
        <time>2026-08-13T07:43:18.000Z</time>
        <extensions>
          <ns3:TrackPointExtension>
            <ns3:hr>77</ns3:hr>
            <ns3:cad>0</ns3:cad>
          </ns3:TrackPointExtension>
        </extensions>
      </trkpt>
      <trkpt lat="43.77706599421799182891845703125" lon="1.58320731483399868011474609375">
        <ele>123.8000030517578125</ele>
        <time>2026-08-13T07:43:19.000Z</time>
        <extensions>
          <ns3:TrackPointExtension>
            <ns3:hr>76</ns3:hr>
            <ns3:cad>0</ns3:cad>
          </ns3:TrackPointExtension>
        </extensions>
      </trkpt>
      <trkpt lat="43.7770566903054714202880859375" lon="1.5832172892987728118896484375">
        <ele>123.8000030517578125</ele>
        <time>2026-08-13T07:43:20.000Z</time>
        <extensions>
          <ns3:TrackPointExtension>
            <ns3:hr>76</ns3:hr>
            <ns3:cad>44</ns3:cad>
          </ns3:TrackPointExtension>
        </extensions>
      </trkpt>
      <trkpt lat="43.77704822458326816558837890625" lon="1.58322826959192752838134765625">
        <ele>123.8000030517578125</ele>
        <time>2026-08-13T07:43:21.000Z</time>
        <extensions>
          <ns3:TrackPointExtension>
            <ns3:hr>76</ns3:hr>
            <ns3:cad>44</ns3:cad>
          </ns3:TrackPointExtension>
        </extensions>
      </trkpt>
      <trkpt lat="43.777040429413318634033203125" lon="1.58323765732347965240478515625">
        <ele>123.8000030517578125</ele>
        <time>2026-08-13T07:43:22.000Z</time>
        <extensions>
          <ns3:TrackPointExtension>
            <ns3:hr>76</ns3:hr>
            <ns3:cad>44</ns3:cad>
          </ns3:TrackPointExtension>
        </extensions>
      </trkpt>
      <trkpt lat="43.77703414298593997955322265625" lon="1.58324562013149261474609375">
        <ele>123.59999847412109375</ele>
        <time>2026-08-13T07:43:23.000Z</time>
        <extensions>
          <ns3:TrackPointExtension>
            <ns3:hr>76</ns3:hr>
            <ns3:cad>44</ns3:cad>
          </ns3:TrackPointExtension>
        </extensions>
      </trkpt>
      <trkpt lat="43.777029030025005340576171875" lon="1.58325308002531528472900390625">
        <ele>123.59999847412109375</ele>
        <time>2026-08-13T07:43:24.000Z</time>
        <extensions>
          <ns3:TrackPointExtension>
            <ns3:hr>77</ns3:hr>
            <ns3:cad>44</ns3:cad>
          </ns3:TrackPointExtension>
        </extensions>
      </trkpt>
      <trkpt lat="43.77702022902667522430419921875" lon="1.58326917327940464019775390625">
        <ele>123.59999847412109375</ele>
        <time>2026-08-13T07:43:25.000Z</time>
        <extensions>
          <ns3:TrackPointExtension>
            <ns3:hr>76</ns3:hr>
            <ns3:cad>44</ns3:cad>
          </ns3:TrackPointExtension>
        </extensions>
      </trkpt>
      <trkpt lat="43.77701167948544025421142578125" lon="1.583276800811290740966796875">
        <ele>123.59999847412109375</ele>
        <time>2026-08-13T07:43:26.000Z</time>
        <extensions>
          <ns3:TrackPointExtension>
            <ns3:hr>76</ns3:hr>
            <ns3:cad>47</ns3:cad>
          </ns3:TrackPointExtension>
        </extensions>
      </trkpt>
      <trkpt lat="43.77700648270547389984130859375" lon="1.5832840092480182647705078125">
        <ele>123.59999847412109375</ele>
        <time>2026-08-13T07:43:27.000Z</time>
        <extensions>
          <ns3:TrackPointExtension>
            <ns3:hr>77</ns3:hr>
            <ns3:cad>47</ns3:cad>
          </ns3:TrackPointExtension>
        </extensions>
      </trkpt>
      <trkpt lat="43.77699977718293666839599609375" lon="1.58329532481729984283447265625">
        <ele>123.59999847412109375</ele>
        <time>2026-08-13T07:43:28.000Z</time>
        <extensions>
          <ns3:TrackPointExtension>
            <ns3:hr>77</ns3:hr>
            <ns3:cad>46</ns3:cad>
          </ns3:TrackPointExtension>
        </extensions>
      </trkpt>
      <trkpt lat="43.7769944965839385986328125" lon="1.58330638892948627471923828125">
        <ele>123.59999847412109375</ele>
        <time>2026-08-13T07:43:29.000Z</time>
        <extensions>
          <ns3:TrackPointExtension>
            <ns3:hr>77</ns3:hr>
            <ns3:cad>46</ns3:cad>
          </ns3:TrackPointExtension>
        </extensions>
      </trkpt>
      <trkpt lat="43.77698821015655994415283203125" lon="1.58331929706037044525146484375">
        <ele>123.59999847412109375</ele>
        <time>2026-08-13T07:43:30.000Z</time>
        <extensions>
          <ns3:TrackPointExtension>
            <ns3:hr>77</ns3:hr>
            <ns3:cad>45</ns3:cad>
          </ns3:TrackPointExtension>
        </extensions>
      </trkpt>
      <trkpt lat="43.7769819237291812896728515625" lon="1.58333170227706432342529296875">
        <ele>123.59999847412109375</ele>
        <time>2026-08-13T07:43:31.000Z</time>
        <extensions>
          <ns3:TrackPointExtension>
            <ns3:hr>78</ns3:hr>
            <ns3:cad>45</ns3:cad>
          </ns3:TrackPointExtension>
        </extensions>
      </trkpt>
      <trkpt lat="43.7769748829305171966552734375" lon="1.58333388157188892364501953125">
        <ele>123.59999847412109375</ele>
        <time>2026-08-13T07:43:32.000Z</time>
        <extensions>
          <ns3:TrackPointExtension>
            <ns3:hr>77</ns3:hr>
            <ns3:cad>45</ns3:cad>
          </ns3:TrackPointExtension>
        </extensions>
      </trkpt>
      <trkpt lat="43.7769623100757598876953125" lon="1.58333807252347469329833984375">
        <ele>123.59999847412109375</ele>
        <time>2026-08-13T07:43:33.000Z</time>
        <extensions>
          <ns3:TrackPointExtension>
            <ns3:hr>77</ns3:hr>
            <ns3:cad>45</ns3:cad>
          </ns3:TrackPointExtension>
        </extensions>
      </trkpt>
      <trkpt lat="43.77695518545806407928466796875" lon="1.58334360457956790924072265625">
        <ele>123.59999847412109375</ele>
        <time>2026-08-13T07:43:34.000Z</time>
        <extensions>
          <ns3:TrackPointExtension>
            <ns3:hr>78</ns3:hr>
            <ns3:cad>44</ns3:cad>
          </ns3:TrackPointExtension>
        </extensions>
      </trkpt>
      <trkpt lat="43.77694965340197086334228515625" lon="1.58334729261696338653564453125">
        <ele>123.59999847412109375</ele>
        <time>2026-08-13T07:43:35.000Z</time>
        <extensions>
          <ns3:TrackPointExtension>
            <ns3:hr>78</ns3:hr>
            <ns3:cad>44</ns3:cad>
          </ns3:TrackPointExtension>
        </extensions>
      </trkpt>
      <trkpt lat="43.77694328315556049346923828125" lon="1.5833483822643756866455078125">
        <ele>123.59999847412109375</ele>
        <time>2026-08-13T07:43:36.000Z</time>
        <extensions>
          <ns3:TrackPointExtension>
            <ns3:hr>78</ns3:hr>
            <ns3:cad>44</ns3:cad>
          </ns3:TrackPointExtension>
        </extensions>
      </trkpt>
      <trkpt lat="43.77693842165172100067138671875" lon="1.5833547525107860565185546875">
        <ele>123.59999847412109375</ele>
        <time>2026-08-13T07:43:37.000Z</time>
        <extensions>
          <ns3:TrackPointExtension>
            <ns3:hr>77</ns3:hr>
            <ns3:cad>48</ns3:cad>
          </ns3:TrackPointExtension>
        </extensions>
      </trkpt>
      <trkpt lat="43.776926100254058837890625" lon="1.583368666470050811767578125">
        <ele>123.59999847412109375</ele>
        <time>2026-08-13T07:43:38.000Z</time>
        <extensions>
          <ns3:TrackPointExtension>
            <ns3:hr>78</ns3:hr>
            <ns3:cad>48</ns3:cad>
          </ns3:TrackPointExtension>
        </extensions>
      </trkpt>
      <trkpt lat="43.77692165784537792205810546875" lon="1.5833768807351589202880859375">
        <ele>123.59999847412109375</ele>
        <time>2026-08-13T07:43:39.000Z</time>
        <extensions>
          <ns3:TrackPointExtension>
            <ns3:hr>78</ns3:hr>
            <ns3:cad>0</ns3:cad>
          </ns3:TrackPointExtension>
        </extensions>
      </trkpt>
      <trkpt lat="43.776914365589618682861328125" lon="1.583384759724140167236328125">
        <ele>123.59999847412109375</ele>
        <time>2026-08-13T07:43:40.000Z</time>
        <extensions>
          <ns3:TrackPointExtension>
            <ns3:hr>77</ns3:hr>
            <ns3:cad>0</ns3:cad>
          </ns3:TrackPointExtension>
        </extensions>
      </trkpt>
      <trkpt lat="43.7769071571528911590576171875" lon="1.58339557237923145294189453125">
        <ele>123.59999847412109375</ele>
        <time>2026-08-13T07:43:41.000Z</time>
        <extensions>
          <ns3:TrackPointExtension>
            <ns3:hr>78</ns3:hr>
            <ns3:cad>0</ns3:cad>
          </ns3:TrackPointExtension>
        </extensions>
      </trkpt>
      <trkpt lat="43.776899278163909912109375" lon="1.58341149799525737762451171875">
        <ele>123.59999847412109375</ele>
        <time>2026-08-13T07:43:42.000Z</time>
        <extensions>
          <ns3:TrackPointExtension>
            <ns3:hr>78</ns3:hr>
            <ns3:cad>0</ns3:cad>
          </ns3:TrackPointExtension>
        </extensions>
      </trkpt>
      <trkpt lat="43.77689265646040439605712890625" lon="1.5834211371839046478271484375">
        <ele>123.59999847412109375</ele>
        <time>2026-08-13T07:43:43.000Z</time>
        <extensions>
          <ns3:TrackPointExtension>
            <ns3:hr>77</ns3:hr>
            <ns3:cad>0</ns3:cad>
          </ns3:TrackPointExtension>
        </extensions>
      </trkpt>
      <trkpt lat="43.7768867053091526031494140625" lon="1.58342977054417133331298828125">
        <ele>123.59999847412109375</ele>
        <time>2026-08-13T07:43:44.000Z</time>
        <extensions>
          <ns3:TrackPointExtension>
            <ns3:hr>78</ns3:hr>
            <ns3:cad>0</ns3:cad>
          </ns3:TrackPointExtension>
        </extensions>
      </trkpt>
      <trkpt lat="43.776880837976932525634765625" lon="1.5834392420947551727294921875">
        <ele>123.59999847412109375</ele>
        <time>2026-08-13T07:43:45.000Z</time>
        <extensions>
          <ns3:TrackPointExtension>
            <ns3:hr>78</ns3:hr>
            <ns3:cad>0</ns3:cad>
          </ns3:TrackPointExtension>
        </extensions>
      </trkpt>
      <trkpt lat="43.77687488682568073272705078125" lon="1.58345139585435390472412109375">
        <ele>123.59999847412109375</ele>
        <time>2026-08-13T07:43:46.000Z</time>
        <extensions>
          <ns3:TrackPointExtension>
            <ns3:hr>78</ns3:hr>
            <ns3:cad>47</ns3:cad>
          </ns3:TrackPointExtension>
        </extensions>
      </trkpt>
      <trkpt lat="43.77686885185539722442626953125" lon="1.583457849919795989990234375">
        <ele>123.59999847412109375</ele>
        <time>2026-08-13T07:43:47.000Z</time>
        <extensions>
          <ns3:TrackPointExtension>
            <ns3:hr>78</ns3:hr>
            <ns3:cad>47</ns3:cad>
          </ns3:TrackPointExtension>
        </extensions>
      </trkpt>
      <trkpt lat="43.77686197869479656219482421875" lon="1.583467908203601837158203125">
        <ele>123.40000152587890625</ele>
        <time>2026-08-13T07:43:48.000Z</time>
        <extensions>
          <ns3:TrackPointExtension>
            <ns3:hr>78</ns3:hr>
            <ns3:cad>45</ns3:cad>
          </ns3:TrackPointExtension>
        </extensions>
      </trkpt>
      <trkpt lat="43.77685661427676677703857421875" lon="1.5834757871925830841064453125">
        <ele>123.40000152587890625</ele>
        <time>2026-08-13T07:43:49.000Z</time>
        <extensions>
          <ns3:TrackPointExtension>
            <ns3:hr>78</ns3:hr>
            <ns3:cad>45</ns3:cad>
          </ns3:TrackPointExtension>
        </extensions>
      </trkpt>
      <trkpt lat="43.77685057930648326873779296875" lon="1.5834871865808963775634765625">
        <ele>123.40000152587890625</ele>
        <time>2026-08-13T07:43:50.000Z</time>
        <extensions>
          <ns3:TrackPointExtension>
            <ns3:hr>78</ns3:hr>
            <ns3:cad>45</ns3:cad>
          </ns3:TrackPointExtension>
        </extensions>
      </trkpt>
      <trkpt lat="43.77684320323169231414794921875" lon="1.5834969095885753631591796875">
        <ele>123.40000152587890625</ele>
        <time>2026-08-13T07:43:51.000Z</time>
        <extensions>
          <ns3:TrackPointExtension>
            <ns3:hr>78</ns3:hr>
            <ns3:cad>45</ns3:cad>
          </ns3:TrackPointExtension>
        </extensions>
      </trkpt>
      <trkpt lat="43.77683565951883792877197265625" lon="1.583505459129810333251953125">
        <ele>123.40000152587890625</ele>
        <time>2026-08-13T07:43:52.000Z</time>
        <extensions>
          <ns3:TrackPointExtension>
            <ns3:hr>78</ns3:hr>
            <ns3:cad>44</ns3:cad>
          </ns3:TrackPointExtension>
        </extensions>
      </trkpt>
      <trkpt lat="43.776828534901142120361328125" lon="1.58351476304233074188232421875">
        <ele>123.40000152587890625</ele>
        <time>2026-08-13T07:43:53.000Z</time>
        <extensions>
          <ns3:TrackPointExtension>
            <ns3:hr>78</ns3:hr>
            <ns3:cad>44</ns3:cad>
          </ns3:TrackPointExtension>
        </extensions>
      </trkpt>
      <trkpt lat="43.77681604586541652679443359375" lon="1.58353253267705440521240234375">
        <ele>123.40000152587890625</ele>
        <time>2026-08-13T07:43:54.000Z</time>
        <extensions>
          <ns3:TrackPointExtension>
            <ns3:hr>78</ns3:hr>
            <ns3:cad>43</ns3:cad>
          </ns3:TrackPointExtension>
        </extensions>
      </trkpt>
      <trkpt lat="43.7768099270761013031005859375" lon="1.58354141749441623687744140625">
        <ele>123.40000152587890625</ele>
        <time>2026-08-13T07:43:55.000Z</time>
        <extensions>
          <ns3:TrackPointExtension>
            <ns3:hr>79</ns3:hr>
            <ns3:cad>44</ns3:cad>
          </ns3:TrackPointExtension>
        </extensions>
      </trkpt>
      <trkpt lat="43.77680548466742038726806640625" lon="1.583546698093414306640625">
        <ele>123.40000152587890625</ele>
        <time>2026-08-13T07:43:56.000Z</time>
        <extensions>
          <ns3:TrackPointExtension>
            <ns3:hr>79</ns3:hr>
            <ns3:cad>44</ns3:cad>
          </ns3:TrackPointExtension>
        </extensions>
      </trkpt>
      <trkpt lat="43.77679743804037570953369140625" lon="1.5835629589855670928955078125">
        <ele>123.40000152587890625</ele>
        <time>2026-08-13T07:43:57.000Z</time>
        <extensions>
          <ns3:TrackPointExtension>
            <ns3:hr>79</ns3:hr>
            <ns3:cad>44</ns3:cad>
          </ns3:TrackPointExtension>
        </extensions>
      </trkpt>
      <trkpt lat="43.77679190598428249359130859375" lon="1.58357192762196063995361328125">
        <ele>123.40000152587890625</ele>
        <time>2026-08-13T07:43:58.000Z</time>
        <extensions>
          <ns3:TrackPointExtension>
            <ns3:hr>79</ns3:hr>
            <ns3:cad>44</ns3:cad>
          </ns3:TrackPointExtension>
        </extensions>
      </trkpt>
      <trkpt lat="43.7767852842807769775390625" lon="1.58357494510710239410400390625">
        <ele>123.40000152587890625</ele>
        <time>2026-08-13T07:43:59.000Z</time>
        <extensions>
          <ns3:TrackPointExtension>
            <ns3:hr>80</ns3:hr>
            <ns3:cad>44</ns3:cad>
          </ns3:TrackPointExtension>
        </extensions>
      </trkpt>
      <trkpt lat="43.7767774052917957305908203125" lon="1.583583243191242218017578125">
        <ele>123.40000152587890625</ele>
        <time>2026-08-13T07:44:00.000Z</time>
        <extensions>
          <ns3:TrackPointExtension>
            <ns3:hr>80</ns3:hr>
            <ns3:cad>44</ns3:cad>
          </ns3:TrackPointExtension>
        </extensions>
      </trkpt>
      <trkpt lat="43.77677111886441707611083984375" lon="1.5835927985608577728271484375">
        <ele>123.40000152587890625</ele>
        <time>2026-08-13T07:44:01.000Z</time>
        <extensions>
          <ns3:TrackPointExtension>
            <ns3:hr>80</ns3:hr>
            <ns3:cad>43</ns3:cad>
          </ns3:TrackPointExtension>
        </extensions>
      </trkpt>
      <trkpt lat="43.77676508389413356781005859375" lon="1.58359564840793609619140625">
        <ele>123.40000152587890625</ele>
        <time>2026-08-13T07:44:02.000Z</time>
        <extensions>
          <ns3:TrackPointExtension>
            <ns3:hr>80</ns3:hr>
            <ns3:cad>43</ns3:cad>
          </ns3:TrackPointExtension>
        </extensions>
      </trkpt>
      <trkpt lat="43.7767593003809452056884765625" lon="1.5836052037775516510009765625">
        <ele>123.40000152587890625</ele>
        <time>2026-08-13T07:44:03.000Z</time>
        <extensions>
          <ns3:TrackPointExtension>
            <ns3:hr>80</ns3:hr>
            <ns3:cad>43</ns3:cad>
          </ns3:TrackPointExtension>
        </extensions>
      </trkpt>
      <trkpt lat="43.7767525948584079742431640625" lon="1.58361786045134067535400390625">
        <ele>123.40000152587890625</ele>
        <time>2026-08-13T07:44:04.000Z</time>
        <extensions>
          <ns3:TrackPointExtension>
            <ns3:hr>80</ns3:hr>
            <ns3:cad>43</ns3:cad>
          </ns3:TrackPointExtension>
        </extensions>
      </trkpt>
      <trkpt lat="43.7767462246119976043701171875" lon="1.58362490125000476837158203125">
        <ele>123.40000152587890625</ele>
        <time>2026-08-13T07:44:05.000Z</time>
        <extensions>
          <ns3:TrackPointExtension>
            <ns3:hr>80</ns3:hr>
            <ns3:cad>43</ns3:cad>
          </ns3:TrackPointExtension>
        </extensions>
      </trkpt>
      <trkpt lat="43.77674010582268238067626953125" lon="1.583630181849002838134765625">
        <ele>123.40000152587890625</ele>
        <time>2026-08-13T07:44:06.000Z</time>
        <extensions>
          <ns3:TrackPointExtension>
            <ns3:hr>79</ns3:hr>
            <ns3:cad>43</ns3:cad>
          </ns3:TrackPointExtension>
        </extensions>
      </trkpt>
      <trkpt lat="43.7767321430146694183349609375" lon="1.583640910685062408447265625">
        <ele>123.40000152587890625</ele>
        <time>2026-08-13T07:44:07.000Z</time>
        <extensions>
          <ns3:TrackPointExtension>
            <ns3:hr>80</ns3:hr>
            <ns3:cad>41</ns3:cad>
          </ns3:TrackPointExtension>
        </extensions>
      </trkpt>
      <trkpt lat="43.77672552131116390228271484375" lon="1.58365474082529544830322265625">
        <ele>123.40000152587890625</ele>
        <time>2026-08-13T07:44:08.000Z</time>
        <extensions>
          <ns3:TrackPointExtension>
            <ns3:hr>79</ns3:hr>
            <ns3:cad>40</ns3:cad>
          </ns3:TrackPointExtension>
        </extensions>
      </trkpt>
      <trkpt lat="43.7767227552831172943115234375" lon="1.58366798423230648040771484375">
        <ele>123.40000152587890625</ele>
        <time>2026-08-13T07:44:09.000Z</time>
        <extensions>
          <ns3:TrackPointExtension>
            <ns3:hr>79</ns3:hr>
            <ns3:cad>40</ns3:cad>
          </ns3:TrackPointExtension>
        </extensions>
      </trkpt>
      <trkpt lat="43.77671848051249980926513671875" lon="1.5836772881448268890380859375">
        <ele>123.40000152587890625</ele>
        <time>2026-08-13T07:44:10.000Z</time>
        <extensions>
          <ns3:TrackPointExtension>
            <ns3:hr>79</ns3:hr>
            <ns3:cad>40</ns3:cad>
          </ns3:TrackPointExtension>
        </extensions>
      </trkpt>
      <trkpt lat="43.776712529361248016357421875" lon="1.58368005417287349700927734375">
        <ele>123.40000152587890625</ele>
        <time>2026-08-13T07:44:11.000Z</time>
        <extensions>
          <ns3:TrackPointExtension>
            <ns3:hr>80</ns3:hr>
            <ns3:cad>44</ns3:cad>
          </ns3:TrackPointExtension>
        </extensions>
      </trkpt>
      <trkpt lat="43.77670473419129848480224609375" lon="1.58369447104632854461669921875">
        <ele>123.40000152587890625</ele>
        <time>2026-08-13T07:44:12.000Z</time>
        <extensions>
          <ns3:TrackPointExtension>
            <ns3:hr>80</ns3:hr>
            <ns3:cad>44</ns3:cad>
          </ns3:TrackPointExtension>
        </extensions>
      </trkpt>
      <trkpt lat="43.77669853158295154571533203125" lon="1.58370385877788066864013671875">
        <ele>123.40000152587890625</ele>
        <time>2026-08-13T07:44:13.000Z</time>
        <extensions>
          <ns3:TrackPointExtension>
            <ns3:hr>80</ns3:hr>
            <ns3:cad>44</ns3:cad>
          </ns3:TrackPointExtension>
        </extensions>
      </trkpt>
      <trkpt lat="43.7766932509839534759521484375" lon="1.58370922319591045379638671875">
        <ele>123.40000152587890625</ele>
        <time>2026-08-13T07:44:14.000Z</time>
        <extensions>
          <ns3:TrackPointExtension>
            <ns3:hr>80</ns3:hr>
            <ns3:cad>44</ns3:cad>
          </ns3:TrackPointExtension>
        </extensions>
      </trkpt>
      <trkpt lat="43.7766887247562408447265625" lon="1.58371810801327228546142578125">
        <ele>123.40000152587890625</ele>
        <time>2026-08-13T07:44:15.000Z</time>
        <extensions>
          <ns3:TrackPointExtension>
            <ns3:hr>80</ns3:hr>
            <ns3:cad>44</ns3:cad>
          </ns3:TrackPointExtension>
        </extensions>
      </trkpt>
      <trkpt lat="43.77668512053787708282470703125" lon="1.5837277472019195556640625">
        <ele>123.40000152587890625</ele>
        <time>2026-08-13T07:44:16.000Z</time>
        <extensions>
          <ns3:TrackPointExtension>
            <ns3:hr>79</ns3:hr>
            <ns3:cad>44</ns3:cad>
          </ns3:TrackPointExtension>
        </extensions>
      </trkpt>
      <trkpt lat="43.77668176777660846710205078125" lon="1.58373336307704448699951171875">
        <ele>123.40000152587890625</ele>
        <time>2026-08-13T07:44:17.000Z</time>
        <extensions>
          <ns3:TrackPointExtension>
            <ns3:hr>79</ns3:hr>
            <ns3:cad>44</ns3:cad>
          </ns3:TrackPointExtension>
        </extensions>
      </trkpt>
      <trkpt lat="43.77668126486241817474365234375" lon="1.58373906277120113372802734375">
        <ele>123.40000152587890625</ele>
        <time>2026-08-13T07:44:18.000Z</time>
        <extensions>
          <ns3:TrackPointExtension>
            <ns3:hr>79</ns3:hr>
            <ns3:cad>0</ns3:cad>
          </ns3:TrackPointExtension>
        </extensions>
      </trkpt>
      <trkpt lat="43.77667506225407123565673828125" lon="1.58375331200659275054931640625">
        <ele>123.40000152587890625</ele>
        <time>2026-08-13T07:44:19.000Z</time>
        <extensions>
          <ns3:TrackPointExtension>
            <ns3:hr>79</ns3:hr>
            <ns3:cad>0</ns3:cad>
          </ns3:TrackPointExtension>
        </extensions>
      </trkpt>
      <trkpt lat="43.77667137421667575836181640625" lon="1.58376395702362060546875">
        <ele>123.40000152587890625</ele>
        <time>2026-08-13T07:44:20.000Z</time>
        <extensions>
          <ns3:TrackPointExtension>
            <ns3:hr>79</ns3:hr>
            <ns3:cad>0</ns3:cad>
          </ns3:TrackPointExtension>
        </extensions>
      </trkpt>
      <trkpt lat="43.77666818909347057342529296875" lon="1.58376974053680896759033203125">
        <ele>123.40000152587890625</ele>
        <time>2026-08-13T07:44:21.000Z</time>
        <extensions>
          <ns3:TrackPointExtension>
            <ns3:hr>78</ns3:hr>
            <ns3:cad>41</ns3:cad>
          </ns3:TrackPointExtension>
        </extensions>
      </trkpt>
      <trkpt lat="43.77666399814188480377197265625" lon="1.58378248102962970733642578125">
        <ele>123.40000152587890625</ele>
        <time>2026-08-13T07:44:22.000Z</time>
        <extensions>
          <ns3:TrackPointExtension>
            <ns3:hr>78</ns3:hr>
            <ns3:cad>41</ns3:cad>
          </ns3:TrackPointExtension>
        </extensions>
      </trkpt>
      <trkpt lat="43.77665930427610874176025390625" lon="1.58379974775016307830810546875">
        <ele>123.40000152587890625</ele>
        <time>2026-08-13T07:44:23.000Z</time>
        <extensions>
          <ns3:TrackPointExtension>
            <ns3:hr>78</ns3:hr>
            <ns3:cad>43</ns3:cad>
          </ns3:TrackPointExtension>
        </extensions>
      </trkpt>
      <trkpt lat="43.7766565382480621337890625" lon="1.58381081186234951019287109375">
        <ele>123.40000152587890625</ele>
        <time>2026-08-13T07:44:24.000Z</time>
        <extensions>
          <ns3:TrackPointExtension>
            <ns3:hr>78</ns3:hr>
            <ns3:cad>43</ns3:cad>
          </ns3:TrackPointExtension>
        </extensions>
      </trkpt>
      <trkpt lat="43.77665125764906406402587890625" lon="1.5838201157748699188232421875">
        <ele>123.40000152587890625</ele>
        <time>2026-08-13T07:44:25.000Z</time>
        <extensions>
          <ns3:TrackPointExtension>
            <ns3:hr>78</ns3:hr>
            <ns3:cad>43</ns3:cad>
          </ns3:TrackPointExtension>
        </extensions>
      </trkpt>
      <trkpt lat="43.7766431272029876708984375" lon="1.58383461646735668182373046875">
        <ele>123.40000152587890625</ele>
        <time>2026-08-13T07:44:26.000Z</time>
        <extensions>
          <ns3:TrackPointExtension>
            <ns3:hr>77</ns3:hr>
            <ns3:cad>43</ns3:cad>
          </ns3:TrackPointExtension>
        </extensions>
      </trkpt>
      <trkpt lat="43.7766375951468944549560546875" lon="1.58384777605533599853515625">
        <ele>123.40000152587890625</ele>
        <time>2026-08-13T07:44:27.000Z</time>
        <extensions>
          <ns3:TrackPointExtension>
            <ns3:hr>77</ns3:hr>
            <ns3:cad>43</ns3:cad>
          </ns3:TrackPointExtension>
        </extensions>
      </trkpt>
      <trkpt lat="43.77663248218595981597900390625" lon="1.58385808579623699188232421875">
        <ele>123.40000152587890625</ele>
        <time>2026-08-13T07:44:28.000Z</time>
        <extensions>
          <ns3:TrackPointExtension>
            <ns3:hr>77</ns3:hr>
            <ns3:cad>43</ns3:cad>
          </ns3:TrackPointExtension>
        </extensions>
      </trkpt>
      <trkpt lat="43.776626698672771453857421875" lon="1.5838637016713619232177734375">
        <ele>123.40000152587890625</ele>
        <time>2026-08-13T07:44:29.000Z</time>
        <extensions>
          <ns3:TrackPointExtension>
            <ns3:hr>77</ns3:hr>
            <ns3:cad>43</ns3:cad>
          </ns3:TrackPointExtension>
        </extensions>
      </trkpt>
      <trkpt lat="43.776619993150234222412109375" lon="1.583875603973865509033203125">
        <ele>123.40000152587890625</ele>
        <time>2026-08-13T07:44:30.000Z</time>
        <extensions>
          <ns3:TrackPointExtension>
            <ns3:hr>77</ns3:hr>
            <ns3:cad>43</ns3:cad>
          </ns3:TrackPointExtension>
        </extensions>
      </trkpt>
      <trkpt lat="43.7766164727509021759033203125" lon="1.58388893119990825653076171875">
        <ele>123.40000152587890625</ele>
        <time>2026-08-13T07:44:31.000Z</time>
        <extensions>
          <ns3:TrackPointExtension>
            <ns3:hr>77</ns3:hr>
            <ns3:cad>43</ns3:cad>
          </ns3:TrackPointExtension>
        </extensions>
      </trkpt>
      <trkpt lat="43.77661161124706268310546875" lon="1.58389949239790439605712890625">
        <ele>123.40000152587890625</ele>
        <time>2026-08-13T07:44:32.000Z</time>
        <extensions>
          <ns3:TrackPointExtension>
            <ns3:hr>77</ns3:hr>
            <ns3:cad>43</ns3:cad>
          </ns3:TrackPointExtension>
        </extensions>
      </trkpt>
      <trkpt lat="43.77660800702869892120361328125" lon="1.58390703611075878143310546875">
        <ele>123.40000152587890625</ele>
        <time>2026-08-13T07:44:33.000Z</time>
        <extensions>
          <ns3:TrackPointExtension>
            <ns3:hr>78</ns3:hr>
            <ns3:cad>43</ns3:cad>
          </ns3:TrackPointExtension>
        </extensions>
      </trkpt>
      <trkpt lat="43.77660281024873256683349609375" lon="1.58391608856618404388427734375">
        <ele>123.40000152587890625</ele>
        <time>2026-08-13T07:44:34.000Z</time>
        <extensions>
          <ns3:TrackPointExtension>
            <ns3:hr>79</ns3:hr>
            <ns3:cad>43</ns3:cad>
          </ns3:TrackPointExtension>
        </extensions>
      </trkpt>
      <trkpt lat="43.77659820020198822021484375" lon="1.5839240513741970062255859375">
        <ele>123.40000152587890625</ele>
        <time>2026-08-13T07:44:35.000Z</time>
        <extensions>
          <ns3:TrackPointExtension>
            <ns3:hr>80</ns3:hr>
            <ns3:cad>44</ns3:cad>
          </ns3:TrackPointExtension>
        </extensions>
      </trkpt>
      <trkpt lat="43.77659275196492671966552734375" lon="1.58393737860023975372314453125">
        <ele>123.40000152587890625</ele>
        <time>2026-08-13T07:44:36.000Z</time>
        <extensions>
          <ns3:TrackPointExtension>
            <ns3:hr>81</ns3:hr>
            <ns3:cad>44</ns3:cad>
          </ns3:TrackPointExtension>
        </extensions>
      </trkpt>
      <trkpt lat="43.776585124433040618896484375" lon="1.5839518792927265167236328125">
        <ele>123.40000152587890625</ele>
        <time>2026-08-13T07:44:37.000Z</time>
        <extensions>
          <ns3:TrackPointExtension>
            <ns3:hr>81</ns3:hr>
            <ns3:cad>44</ns3:cad>
          </ns3:TrackPointExtension>
        </extensions>
      </trkpt>
      <trkpt lat="43.7765782512724399566650390625" lon="1.583960093557834625244140625">
        <ele>123.40000152587890625</ele>
        <time>2026-08-13T07:44:38.000Z</time>
        <extensions>
          <ns3:TrackPointExtension>
            <ns3:hr>81</ns3:hr>
            <ns3:cad>44</ns3:cad>
          </ns3:TrackPointExtension>
        </extensions>
      </trkpt>
      <trkpt lat="43.77657179720699787139892578125" lon="1.583972834050655364990234375">
        <ele>123.40000152587890625</ele>
        <time>2026-08-13T07:44:39.000Z</time>
        <extensions>
          <ns3:TrackPointExtension>
            <ns3:hr>82</ns3:hr>
            <ns3:cad>45</ns3:cad>
          </ns3:TrackPointExtension>
        </extensions>
      </trkpt>
      <trkpt lat="43.77656140364706516265869140625" lon="1.5839907713234424591064453125">
        <ele>123.40000152587890625</ele>
        <time>2026-08-13T07:44:40.000Z</time>
        <extensions>
          <ns3:TrackPointExtension>
            <ns3:hr>81</ns3:hr>
            <ns3:cad>47</ns3:cad>
          </ns3:TrackPointExtension>
        </extensions>
      </trkpt>
      <trkpt lat="43.77655587159097194671630859375" lon="1.58400258980691432952880859375">
        <ele>123.40000152587890625</ele>
        <time>2026-08-13T07:44:41.000Z</time>
        <extensions>
          <ns3:TrackPointExtension>
            <ns3:hr>81</ns3:hr>
            <ns3:cad>48</ns3:cad>
          </ns3:TrackPointExtension>
        </extensions>
      </trkpt>
      <trkpt lat="43.7765484116971492767333984375" lon="1.5840115584433078765869140625">
        <ele>123.40000152587890625</ele>
        <time>2026-08-13T07:44:42.000Z</time>
        <extensions>
          <ns3:TrackPointExtension>
            <ns3:hr>81</ns3:hr>
            <ns3:cad>48</ns3:cad>
          </ns3:TrackPointExtension>
        </extensions>
      </trkpt>
      <trkpt lat="43.7765371799468994140625" lon="1.5840212814509868621826171875">
        <ele>123.40000152587890625</ele>
        <time>2026-08-13T07:44:43.000Z</time>
        <extensions>
          <ns3:TrackPointExtension>
            <ns3:hr>81</ns3:hr>
            <ns3:cad>48</ns3:cad>
          </ns3:TrackPointExtension>
        </extensions>
      </trkpt>
      <trkpt lat="43.77653391100466251373291015625" lon="1.584029495716094970703125">
        <ele>123.40000152587890625</ele>
        <time>2026-08-13T07:44:44.000Z</time>
        <extensions>
          <ns3:TrackPointExtension>
            <ns3:hr>81</ns3:hr>
            <ns3:cad>47</ns3:cad>
          </ns3:TrackPointExtension>
        </extensions>
      </trkpt>
      <trkpt lat="43.77653106115758419036865234375" lon="1.5840360336005687713623046875">
        <ele>123.40000152587890625</ele>
        <time>2026-08-13T07:44:45.000Z</time>
        <extensions>
          <ns3:TrackPointExtension>
            <ns3:hr>81</ns3:hr>
            <ns3:cad>47</ns3:cad>
          </ns3:TrackPointExtension>
        </extensions>
      </trkpt>
      <trkpt lat="43.776528798043727874755859375" lon="1.58404215238988399505615234375">
        <ele>123.40000152587890625</ele>
        <time>2026-08-13T07:44:46.000Z</time>
        <extensions>
          <ns3:TrackPointExtension>
            <ns3:hr>81</ns3:hr>
            <ns3:cad>47</ns3:cad>
          </ns3:TrackPointExtension>
        </extensions>
      </trkpt>
      <trkpt lat="43.7765272893011569976806640625" lon="1.5840514563024044036865234375">
        <ele>123.40000152587890625</ele>
        <time>2026-08-13T07:44:47.000Z</time>
        <extensions>
          <ns3:TrackPointExtension>
            <ns3:hr>81</ns3:hr>
            <ns3:cad>47</ns3:cad>
          </ns3:TrackPointExtension>
        </extensions>
      </trkpt>
      <trkpt lat="43.7765242718160152435302734375" lon="1.58406377770006656646728515625">
        <ele>123.40000152587890625</ele>
        <time>2026-08-13T07:44:48.000Z</time>
        <extensions>
          <ns3:TrackPointExtension>
            <ns3:hr>80</ns3:hr>
            <ns3:cad>43</ns3:cad>
          </ns3:TrackPointExtension>
        </extensions>
      </trkpt>
      <trkpt lat="43.77651982940733432769775390625" lon="1.58407584764063358306884765625">
        <ele>123.40000152587890625</ele>
        <time>2026-08-13T07:44:49.000Z</time>
        <extensions>
          <ns3:TrackPointExtension>
            <ns3:hr>80</ns3:hr>
            <ns3:cad>43</ns3:cad>
          </ns3:TrackPointExtension>
        </extensions>
      </trkpt>
      <trkpt lat="43.77651379443705081939697265625" lon="1.58408590592443943023681640625">
        <ele>123.40000152587890625</ele>
        <time>2026-08-13T07:44:50.000Z</time>
        <extensions>
          <ns3:TrackPointExtension>
            <ns3:hr>80</ns3:hr>
            <ns3:cad>0</ns3:cad>
          </ns3:TrackPointExtension>
        </extensions>
      </trkpt>
      <trkpt lat="43.7765065021812915802001953125" lon="1.5840923599898815155029296875">
        <ele>123.40000152587890625</ele>
        <time>2026-08-13T07:44:51.000Z</time>
        <extensions>
          <ns3:TrackPointExtension>
            <ns3:hr>80</ns3:hr>
            <ns3:cad>0</ns3:cad>
          </ns3:TrackPointExtension>
        </extensions>
      </trkpt>
      <trkpt lat="43.77649686299264430999755859375" lon="1.5841020829975605010986328125">
        <ele>123.40000152587890625</ele>
        <time>2026-08-13T07:44:52.000Z</time>
        <extensions>
          <ns3:TrackPointExtension>
            <ns3:hr>81</ns3:hr>
            <ns3:cad>0</ns3:cad>
          </ns3:TrackPointExtension>
        </extensions>
      </trkpt>
      <trkpt lat="43.77648881636559963226318359375" lon="1.58411004580557346343994140625">
        <ele>123.40000152587890625</ele>
        <time>2026-08-13T07:44:53.000Z</time>
        <extensions>
          <ns3:TrackPointExtension>
            <ns3:hr>80</ns3:hr>
            <ns3:cad>0</ns3:cad>
          </ns3:TrackPointExtension>
        </extensions>
      </trkpt>
      <trkpt lat="43.7764796800911426544189453125" lon="1.58411624841392040252685546875">
        <ele>123.1999969482421875</ele>
        <time>2026-08-13T07:44:54.000Z</time>
        <extensions>
          <ns3:TrackPointExtension>
            <ns3:hr>80</ns3:hr>
            <ns3:cad>0</ns3:cad>
          </ns3:TrackPointExtension>
        </extensions>
      </trkpt>
      <trkpt lat="43.776472471654415130615234375" lon="1.58412194810807704925537109375">
        <ele>123.1999969482421875</ele>
        <time>2026-08-13T07:44:55.000Z</time>
        <extensions>
          <ns3:TrackPointExtension>
            <ns3:hr>81</ns3:hr>
            <ns3:cad>0</ns3:cad>
          </ns3:TrackPointExtension>
        </extensions>
      </trkpt>
      <trkpt lat="43.7764649279415607452392578125" lon="1.5841285698115825653076171875">
        <ele>123.40000152587890625</ele>
        <time>2026-08-13T07:44:56.000Z</time>
        <extensions>
          <ns3:TrackPointExtension>
            <ns3:hr>80</ns3:hr>
            <ns3:cad>0</ns3:cad>
          </ns3:TrackPointExtension>
        </extensions>
      </trkpt>
      <trkpt lat="43.77646232955157756805419921875" lon="1.58414474688470363616943359375">
        <ele>123.40000152587890625</ele>
        <time>2026-08-13T07:44:57.000Z</time>
        <extensions>
          <ns3:TrackPointExtension>
            <ns3:hr>81</ns3:hr>
            <ns3:cad>0</ns3:cad>
          </ns3:TrackPointExtension>
        </extensions>
      </trkpt>
      <trkpt lat="43.77645361237227916717529296875" lon="1.58414944075047969818115234375">
        <ele>123.40000152587890625</ele>
        <time>2026-08-13T07:44:58.000Z</time>
        <extensions>
          <ns3:TrackPointExtension>
            <ns3:hr>81</ns3:hr>
            <ns3:cad>0</ns3:cad>
          </ns3:TrackPointExtension>
        </extensions>
      </trkpt>
      <trkpt lat="43.776446320116519927978515625" lon="1.5841515362262725830078125">
        <ele>123.40000152587890625</ele>
        <time>2026-08-13T07:44:59.000Z</time>
        <extensions>
          <ns3:TrackPointExtension>
            <ns3:hr>81</ns3:hr>
            <ns3:cad>0</ns3:cad>
          </ns3:TrackPointExtension>
        </extensions>
      </trkpt>
      <trkpt lat="43.776437602937221527099609375" lon="1.58415966667234897613525390625">
        <ele>123.1999969482421875</ele>
        <time>2026-08-13T07:45:00.000Z</time>
        <extensions>
          <ns3:TrackPointExtension>
            <ns3:hr>81</ns3:hr>
            <ns3:cad>0</ns3:cad>
          </ns3:TrackPointExtension>
        </extensions>
      </trkpt>
      <trkpt lat="43.77643148414790630340576171875" lon="1.58416721038520336151123046875">
        <ele>123.40000152587890625</ele>
        <time>2026-08-13T07:45:01.000Z</time>
        <extensions>
          <ns3:TrackPointExtension>
            <ns3:hr>81</ns3:hr>
            <ns3:cad>0</ns3:cad>
          </ns3:TrackPointExtension>
        </extensions>
      </trkpt>
      <trkpt lat="43.7764280475676059722900390625" lon="1.5841751731932163238525390625">
        <ele>123.40000152587890625</ele>
        <time>2026-08-13T07:45:02.000Z</time>
        <extensions>
          <ns3:TrackPointExtension>
            <ns3:hr>81</ns3:hr>
            <ns3:cad>0</ns3:cad>
          </ns3:TrackPointExtension>
        </extensions>
      </trkpt>
      <trkpt lat="43.77642092294991016387939453125" lon="1.58418296836316585540771484375">
        <ele>123.40000152587890625</ele>
        <time>2026-08-13T07:45:03.000Z</time>
        <extensions>
          <ns3:TrackPointExtension>
            <ns3:hr>81</ns3:hr>
            <ns3:cad>0</ns3:cad>
          </ns3:TrackPointExtension>
        </extensions>
      </trkpt>
      <trkpt lat="43.77641170285642147064208984375" lon="1.584196127951145172119140625">
        <ele>123.40000152587890625</ele>
        <time>2026-08-13T07:45:04.000Z</time>
        <extensions>
          <ns3:TrackPointExtension>
            <ns3:hr>81</ns3:hr>
            <ns3:cad>0</ns3:cad>
          </ns3:TrackPointExtension>
        </extensions>
      </trkpt>
      <trkpt lat="43.776403404772281646728515625" lon="1.58420291729271411895751953125">
        <ele>123.40000152587890625</ele>
        <time>2026-08-13T07:45:05.000Z</time>
        <extensions>
          <ns3:TrackPointExtension>
            <ns3:hr>81</ns3:hr>
            <ns3:cad>0</ns3:cad>
          </ns3:TrackPointExtension>
        </extensions>
      </trkpt>
      <trkpt lat="43.7763963639736175537109375" lon="1.58421079628169536590576171875">
        <ele>123.40000152587890625</ele>
        <time>2026-08-13T07:45:06.000Z</time>
        <extensions>
          <ns3:TrackPointExtension>
            <ns3:hr>81</ns3:hr>
            <ns3:cad>0</ns3:cad>
          </ns3:TrackPointExtension>
        </extensions>
      </trkpt>
      <trkpt lat="43.77638672478497028350830078125" lon="1.584222279489040374755859375">
        <ele>123.40000152587890625</ele>
        <time>2026-08-13T07:45:07.000Z</time>
        <extensions>
          <ns3:TrackPointExtension>
            <ns3:hr>81</ns3:hr>
            <ns3:cad>0</ns3:cad>
          </ns3:TrackPointExtension>
        </extensions>
      </trkpt>
      <trkpt lat="43.776381276547908782958984375" lon="1.5842328406870365142822265625">
        <ele>123.40000152587890625</ele>
        <time>2026-08-13T07:45:08.000Z</time>
        <extensions>
          <ns3:TrackPointExtension>
            <ns3:hr>81</ns3:hr>
            <ns3:cad>43</ns3:cad>
          </ns3:TrackPointExtension>
        </extensions>
      </trkpt>
      <trkpt lat="43.77637448720633983612060546875" lon="1.5842375345528125762939453125">
        <ele>123.40000152587890625</ele>
        <time>2026-08-13T07:45:09.000Z</time>
        <extensions>
          <ns3:TrackPointExtension>
            <ns3:hr>80</ns3:hr>
            <ns3:cad>43</ns3:cad>
          </ns3:TrackPointExtension>
        </extensions>
      </trkpt>
      <trkpt lat="43.77636778168380260467529296875" lon="1.58424365334212779998779296875">
        <ele>123.40000152587890625</ele>
        <time>2026-08-13T07:45:10.000Z</time>
        <extensions>
          <ns3:TrackPointExtension>
            <ns3:hr>80</ns3:hr>
            <ns3:cad>42</ns3:cad>
          </ns3:TrackPointExtension>
        </extensions>
      </trkpt>
      <trkpt lat="43.776359818875789642333984375" lon="1.5842512808740139007568359375">
        <ele>123.59999847412109375</ele>
        <time>2026-08-13T07:45:11.000Z</time>
        <extensions>
          <ns3:TrackPointExtension>
            <ns3:hr>80</ns3:hr>
            <ns3:cad>42</ns3:cad>
          </ns3:TrackPointExtension>
        </extensions>
      </trkpt>
      <trkpt lat="43.77635520882904529571533203125" lon="1.58426242880523204803466796875">
        <ele>123.59999847412109375</ele>
        <time>2026-08-13T07:45:12.000Z</time>
        <extensions>
          <ns3:TrackPointExtension>
            <ns3:hr>80</ns3:hr>
            <ns3:cad>42</ns3:cad>
          </ns3:TrackPointExtension>
        </extensions>
      </trkpt>
      <trkpt lat="43.77635034732520580291748046875" lon="1.58426343463361263275146484375">
        <ele>123.59999847412109375</ele>
        <time>2026-08-13T07:45:13.000Z</time>
        <extensions>
          <ns3:TrackPointExtension>
            <ns3:hr>80</ns3:hr>
            <ns3:cad>42</ns3:cad>
          </ns3:TrackPointExtension>
        </extensions>
      </trkpt>
      <trkpt lat="43.77634146250784397125244140625" lon="1.58427248708903789520263671875">
        <ele>123.59999847412109375</ele>
        <time>2026-08-13T07:45:14.000Z</time>
        <extensions>
          <ns3:TrackPointExtension>
            <ns3:hr>80</ns3:hr>
            <ns3:cad>42</ns3:cad>
          </ns3:TrackPointExtension>
        </extensions>
      </trkpt>
      <trkpt lat="43.77633140422403812408447265625" lon="1.5842824615538120269775390625">
        <ele>123.59999847412109375</ele>
        <time>2026-08-13T07:45:15.000Z</time>
        <extensions>
          <ns3:TrackPointExtension>
            <ns3:hr>80</ns3:hr>
            <ns3:cad>42</ns3:cad>
          </ns3:TrackPointExtension>
        </extensions>
      </trkpt>
      <trkpt lat="43.77632235176861286163330078125" lon="1.58428556285798549652099609375">
        <ele>123.59999847412109375</ele>
        <time>2026-08-13T07:45:16.000Z</time>
        <extensions>
          <ns3:TrackPointExtension>
            <ns3:hr>80</ns3:hr>
            <ns3:cad>42</ns3:cad>
          </ns3:TrackPointExtension>
        </extensions>
      </trkpt>
      <trkpt lat="43.7763147242367267608642578125" lon="1.5842895023524761199951171875">
        <ele>123.59999847412109375</ele>
        <time>2026-08-13T07:45:17.000Z</time>
        <extensions>
          <ns3:TrackPointExtension>
            <ns3:hr>80</ns3:hr>
            <ns3:cad>43</ns3:cad>
          </ns3:TrackPointExtension>
        </extensions>
      </trkpt>
      <trkpt lat="43.77630340866744518280029296875" lon="1.58429796807467937469482421875">
        <ele>123.59999847412109375</ele>
        <time>2026-08-13T07:45:18.000Z</time>
        <extensions>
          <ns3:TrackPointExtension>
            <ns3:hr>79</ns3:hr>
            <ns3:cad>43</ns3:cad>
          </ns3:TrackPointExtension>
        </extensions>
      </trkpt>
      <trkpt lat="43.77629653550684452056884765625" lon="1.58430668525397777557373046875">
        <ele>123.59999847412109375</ele>
        <time>2026-08-13T07:45:19.000Z</time>
        <extensions>
          <ns3:TrackPointExtension>
            <ns3:hr>80</ns3:hr>
            <ns3:cad>43</ns3:cad>
          </ns3:TrackPointExtension>
        </extensions>
      </trkpt>
      <trkpt lat="43.7762892432510852813720703125" lon="1.58430869691073894500732421875">
        <ele>123.59999847412109375</ele>
        <time>2026-08-13T07:45:20.000Z</time>
        <extensions>
          <ns3:TrackPointExtension>
            <ns3:hr>80</ns3:hr>
            <ns3:cad>44</ns3:cad>
          </ns3:TrackPointExtension>
        </extensions>
      </trkpt>
      <trkpt lat="43.7762810289859771728515625" lon="1.58431624062359333038330078125">
        <ele>123.59999847412109375</ele>
        <time>2026-08-13T07:45:21.000Z</time>
        <extensions>
          <ns3:TrackPointExtension>
            <ns3:hr>79</ns3:hr>
            <ns3:cad>43</ns3:cad>
          </ns3:TrackPointExtension>
        </extensions>
      </trkpt>
      <trkpt lat="43.77626971341669559478759765625" lon="1.5843226946890354156494140625">
        <ele>123.59999847412109375</ele>
        <time>2026-08-13T07:45:22.000Z</time>
        <extensions>
          <ns3:TrackPointExtension>
            <ns3:hr>80</ns3:hr>
            <ns3:cad>44</ns3:cad>
          </ns3:TrackPointExtension>
        </extensions>
      </trkpt>
      <trkpt lat="43.77626200206577777862548828125" lon="1.58432847820222377777099609375">
        <ele>123.59999847412109375</ele>
        <time>2026-08-13T07:45:23.000Z</time>
        <extensions>
          <ns3:TrackPointExtension>
            <ns3:hr>80</ns3:hr>
            <ns3:cad>44</ns3:cad>
          </ns3:TrackPointExtension>
        </extensions>
      </trkpt>
      <trkpt lat="43.77625429071485996246337890625" lon="1.58433283679187297821044921875">
        <ele>123.59999847412109375</ele>
        <time>2026-08-13T07:45:24.000Z</time>
        <extensions>
          <ns3:TrackPointExtension>
            <ns3:hr>80</ns3:hr>
            <ns3:cad>44</ns3:cad>
          </ns3:TrackPointExtension>
        </extensions>
      </trkpt>
      <trkpt lat="43.77624724991619586944580078125" lon="1.5843421407043933868408203125">
        <ele>123.59999847412109375</ele>
        <time>2026-08-13T07:45:25.000Z</time>
        <extensions>
          <ns3:TrackPointExtension>
            <ns3:hr>80</ns3:hr>
            <ns3:cad>43</ns3:cad>
          </ns3:TrackPointExtension>
        </extensions>
      </trkpt>
      <trkpt lat="43.77624155022203922271728515625" lon="1.5843508578836917877197265625">
        <ele>123.59999847412109375</ele>
        <time>2026-08-13T07:45:26.000Z</time>
        <extensions>
          <ns3:TrackPointExtension>
            <ns3:hr>80</ns3:hr>
            <ns3:cad>43</ns3:cad>
          </ns3:TrackPointExtension>
        </extensions>
      </trkpt>
      <trkpt lat="43.776235766708850860595703125" lon="1.58435580320656299591064453125">
        <ele>123.59999847412109375</ele>
        <time>2026-08-13T07:45:27.000Z</time>
        <extensions>
          <ns3:TrackPointExtension>
            <ns3:hr>80</ns3:hr>
            <ns3:cad>43</ns3:cad>
          </ns3:TrackPointExtension>
        </extensions>
      </trkpt>
      <trkpt lat="43.77622763626277446746826171875" lon="1.5843622572720050811767578125">
        <ele>123.59999847412109375</ele>
        <time>2026-08-13T07:45:28.000Z</time>
        <extensions>
          <ns3:TrackPointExtension>
            <ns3:hr>80</ns3:hr>
            <ns3:cad>42</ns3:cad>
          </ns3:TrackPointExtension>
        </extensions>
      </trkpt>
      <trkpt lat="43.7762154825031757354736328125" lon="1.5843726508319377899169921875">
        <ele>123.8000030517578125</ele>
        <time>2026-08-13T07:45:29.000Z</time>
        <extensions>
          <ns3:TrackPointExtension>
            <ns3:hr>81</ns3:hr>
            <ns3:cad>42</ns3:cad>
          </ns3:TrackPointExtension>
        </extensions>
      </trkpt>
      <trkpt lat="43.776208944618701934814453125" lon="1.58437977544963359832763671875">
        <ele>123.8000030517578125</ele>
        <time>2026-08-13T07:45:30.000Z</time>
        <extensions>
          <ns3:TrackPointExtension>
            <ns3:hr>80</ns3:hr>
            <ns3:cad>42</ns3:cad>
          </ns3:TrackPointExtension>
        </extensions>
      </trkpt>
      <trkpt lat="43.7762007303535938262939453125" lon="1.58438044600188732147216796875">
        <ele>123.8000030517578125</ele>
        <time>2026-08-13T07:45:31.000Z</time>
        <extensions>
          <ns3:TrackPointExtension>
            <ns3:hr>80</ns3:hr>
            <ns3:cad>42</ns3:cad>
          </ns3:TrackPointExtension>
        </extensions>
      </trkpt>
      <trkpt lat="43.7761886604130268096923828125" lon="1.5843947790563106536865234375">
        <ele>123.8000030517578125</ele>
        <time>2026-08-13T07:45:32.000Z</time>
        <extensions>
          <ns3:TrackPointExtension>
            <ns3:hr>79</ns3:hr>
            <ns3:cad>42</ns3:cad>
          </ns3:TrackPointExtension>
        </extensions>
      </trkpt>
      <trkpt lat="43.77617700956761837005615234375" lon="1.58440341241657733917236328125">
        <ele>123.8000030517578125</ele>
        <time>2026-08-13T07:45:33.000Z</time>
        <extensions>
          <ns3:TrackPointExtension>
            <ns3:hr>79</ns3:hr>
            <ns3:cad>42</ns3:cad>
          </ns3:TrackPointExtension>
        </extensions>
      </trkpt>
      <trkpt lat="43.7761695496737957000732421875" lon="1.58440760336816310882568359375">
        <ele>123.8000030517578125</ele>
        <time>2026-08-13T07:45:34.000Z</time>
        <extensions>
          <ns3:TrackPointExtension>
            <ns3:hr>79</ns3:hr>
            <ns3:cad>43</ns3:cad>
          </ns3:TrackPointExtension>
        </extensions>
      </trkpt>
      <trkpt lat="43.77616443671286106109619140625" lon="1.58441514708101749420166015625">
        <ele>123.8000030517578125</ele>
        <time>2026-08-13T07:45:35.000Z</time>
        <extensions>
          <ns3:TrackPointExtension>
            <ns3:hr>79</ns3:hr>
            <ns3:cad>43</ns3:cad>
          </ns3:TrackPointExtension>
        </extensions>
      </trkpt>
      <trkpt lat="43.77615840174257755279541015625" lon="1.58441715873777866363525390625">
        <ele>123.8000030517578125</ele>
        <time>2026-08-13T07:45:36.000Z</time>
        <extensions>
          <ns3:TrackPointExtension>
            <ns3:hr>78</ns3:hr>
            <ns3:cad>43</ns3:cad>
          </ns3:TrackPointExtension>
        </extensions>
      </trkpt>
      <trkpt lat="43.77614784054458141326904296875" lon="1.5844202600419521331787109375">
        <ele>124</ele>
        <time>2026-08-13T07:45:37.000Z</time>
        <extensions>
          <ns3:TrackPointExtension>
            <ns3:hr>79</ns3:hr>
            <ns3:cad>43</ns3:cad>
          </ns3:TrackPointExtension>
        </extensions>
      </trkpt>
      <trkpt lat="43.77613493241369724273681640625" lon="1.58442176878452301025390625">
        <ele>124</ele>
        <time>2026-08-13T07:45:38.000Z</time>
        <extensions>
          <ns3:TrackPointExtension>
            <ns3:hr>78</ns3:hr>
            <ns3:cad>44</ns3:cad>
          </ns3:TrackPointExtension>
        </extensions>
      </trkpt>
      <trkpt lat="43.77613015472888946533203125" lon="1.5844224393367767333984375">
        <ele>124</ele>
        <time>2026-08-13T07:45:39.000Z</time>
        <extensions>
          <ns3:TrackPointExtension>
            <ns3:hr>77</ns3:hr>
            <ns3:cad>44</ns3:cad>
          </ns3:TrackPointExtension>
        </extensions>
      </trkpt>
      <trkpt lat="43.77611850388348102569580078125" lon="1.584432162344455718994140625">
        <ele>124</ele>
        <time>2026-08-13T07:45:40.000Z</time>
        <extensions>
          <ns3:TrackPointExtension>
            <ns3:hr>77</ns3:hr>
            <ns3:cad>44</ns3:cad>
          </ns3:TrackPointExtension>
        </extensions>
      </trkpt>
      <trkpt lat="43.77611079253256320953369140625" lon="1.58443652093410491943359375">
        <ele>124</ele>
        <time>2026-08-13T07:45:41.000Z</time>
        <extensions>
          <ns3:TrackPointExtension>
            <ns3:hr>77</ns3:hr>
            <ns3:cad>44</ns3:cad>
          </ns3:TrackPointExtension>
        </extensions>
      </trkpt>
      <trkpt lat="43.7761040031909942626953125" lon="1.58443710766732692718505859375">
        <ele>124</ele>
        <time>2026-08-13T07:45:42.000Z</time>
        <extensions>
          <ns3:TrackPointExtension>
            <ns3:hr>77</ns3:hr>
            <ns3:cad>45</ns3:cad>
          </ns3:TrackPointExtension>
        </extensions>
      </trkpt>
      <trkpt lat="43.77609394490718841552734375" lon="1.584442220628261566162109375">
        <ele>124</ele>
        <time>2026-08-13T07:45:43.000Z</time>
        <extensions>
          <ns3:TrackPointExtension>
            <ns3:hr>77</ns3:hr>
            <ns3:cad>45</ns3:cad>
          </ns3:TrackPointExtension>
        </extensions>
      </trkpt>
      <trkpt lat="43.776082210242748260498046875" lon="1.58444817177951335906982421875">
        <ele>124</ele>
        <time>2026-08-13T07:45:44.000Z</time>
        <extensions>
          <ns3:TrackPointExtension>
            <ns3:hr>77</ns3:hr>
            <ns3:cad>44</ns3:cad>
          </ns3:TrackPointExtension>
        </extensions>
      </trkpt>
      <trkpt lat="43.77607307396829128265380859375" lon="1.5844511054456233978271484375">
        <ele>124</ele>
        <time>2026-08-13T07:45:45.000Z</time>
        <extensions>
          <ns3:TrackPointExtension>
            <ns3:hr>78</ns3:hr>
            <ns3:cad>43</ns3:cad>
          </ns3:TrackPointExtension>
        </extensions>
      </trkpt>
      <trkpt lat="43.77606670372188091278076171875" lon="1.5844531171023845672607421875">
        <ele>124</ele>
        <time>2026-08-13T07:45:46.000Z</time>
        <extensions>
          <ns3:TrackPointExtension>
            <ns3:hr>78</ns3:hr>
            <ns3:cad>43</ns3:cad>
          </ns3:TrackPointExtension>
        </extensions>
      </trkpt>
      <trkpt lat="43.77605438232421875" lon="1.58446468412876129150390625">
        <ele>124.1999969482421875</ele>
        <time>2026-08-13T07:45:47.000Z</time>
        <extensions>
          <ns3:TrackPointExtension>
            <ns3:hr>78</ns3:hr>
            <ns3:cad>43</ns3:cad>
          </ns3:TrackPointExtension>
        </extensions>
      </trkpt>
      <trkpt lat="43.776043318212032318115234375" lon="1.58447415567934513092041015625">
        <ele>124.1999969482421875</ele>
        <time>2026-08-13T07:45:48.000Z</time>
        <extensions>
          <ns3:TrackPointExtension>
            <ns3:hr>79</ns3:hr>
            <ns3:cad>43</ns3:cad>
          </ns3:TrackPointExtension>
        </extensions>
      </trkpt>
      <trkpt lat="43.77603267319500446319580078125" lon="1.5844782628118991851806640625">
        <ele>124.1999969482421875</ele>
        <time>2026-08-13T07:45:49.000Z</time>
        <extensions>
          <ns3:TrackPointExtension>
            <ns3:hr>79</ns3:hr>
            <ns3:cad>43</ns3:cad>
          </ns3:TrackPointExtension>
        </extensions>
      </trkpt>
      <trkpt lat="43.7760253809392452239990234375" lon="1.5844849683344364166259765625">
        <ele>124.1999969482421875</ele>
        <time>2026-08-13T07:45:50.000Z</time>
        <extensions>
          <ns3:TrackPointExtension>
            <ns3:hr>79</ns3:hr>
            <ns3:cad>43</ns3:cad>
          </ns3:TrackPointExtension>
        </extensions>
      </trkpt>
      <trkpt lat="43.77601825632154941558837890625" lon="1.58449527807533740997314453125">
        <ele>124.1999969482421875</ele>
        <time>2026-08-13T07:45:51.000Z</time>
        <extensions>
          <ns3:TrackPointExtension>
            <ns3:hr>79</ns3:hr>
            <ns3:cad>44</ns3:cad>
          </ns3:TrackPointExtension>
        </extensions>
      </trkpt>
      <trkpt lat="43.77601155079901218414306640625" lon="1.5845040790736675262451171875">
        <ele>124.1999969482421875</ele>
        <time>2026-08-13T07:45:52.000Z</time>
        <extensions>
          <ns3:TrackPointExtension>
            <ns3:hr>80</ns3:hr>
            <ns3:cad>44</ns3:cad>
          </ns3:TrackPointExtension>
        </extensions>
      </trkpt>
      <trkpt lat="43.77600467763841152191162109375" lon="1.58450801856815814971923828125">
        <ele>124.1999969482421875</ele>
        <time>2026-08-13T07:45:53.000Z</time>
        <extensions>
          <ns3:TrackPointExtension>
            <ns3:hr>80</ns3:hr>
            <ns3:cad>44</ns3:cad>
          </ns3:TrackPointExtension>
        </extensions>
      </trkpt>
      <trkpt lat="43.7759965471923351287841796875" lon="1.58451187424361705780029296875">
        <ele>124.40000152587890625</ele>
        <time>2026-08-13T07:45:54.000Z</time>
        <extensions>
          <ns3:TrackPointExtension>
            <ns3:hr>81</ns3:hr>
            <ns3:cad>44</ns3:cad>
          </ns3:TrackPointExtension>
        </extensions>
      </trkpt>
      <trkpt lat="43.77598640508949756622314453125" lon="1.58452059142291545867919921875">
        <ele>124.40000152587890625</ele>
        <time>2026-08-13T07:45:55.000Z</time>
        <extensions>
          <ns3:TrackPointExtension>
            <ns3:hr>81</ns3:hr>
            <ns3:cad>44</ns3:cad>
          </ns3:TrackPointExtension>
        </extensions>
      </trkpt>
      <trkpt lat="43.7759784422814846038818359375" lon="1.5845252014696598052978515625">
        <ele>124.40000152587890625</ele>
        <time>2026-08-13T07:45:56.000Z</time>
        <extensions>
          <ns3:TrackPointExtension>
            <ns3:hr>81</ns3:hr>
            <ns3:cad>43</ns3:cad>
          </ns3:TrackPointExtension>
        </extensions>
      </trkpt>
      <trkpt lat="43.77597115002572536468505859375" lon="1.58453039824962615966796875">
        <ele>124.40000152587890625</ele>
        <time>2026-08-13T07:45:57.000Z</time>
        <extensions>
          <ns3:TrackPointExtension>
            <ns3:hr>81</ns3:hr>
            <ns3:cad>43</ns3:cad>
          </ns3:TrackPointExtension>
        </extensions>
      </trkpt>
      <trkpt lat="43.77596125937998294830322265625" lon="1.584538109600543975830078125">
        <ele>124.40000152587890625</ele>
        <time>2026-08-13T07:45:58.000Z</time>
        <extensions>
          <ns3:TrackPointExtension>
            <ns3:hr>81</ns3:hr>
            <ns3:cad>43</ns3:cad>
          </ns3:TrackPointExtension>
        </extensions>
      </trkpt>
      <trkpt lat="43.775952793657779693603515625" lon="1.58454691059887409210205078125">
        <ele>124.40000152587890625</ele>
        <time>2026-08-13T07:45:59.000Z</time>
        <extensions>
          <ns3:TrackPointExtension>
            <ns3:hr>81</ns3:hr>
            <ns3:cad>44</ns3:cad>
          </ns3:TrackPointExtension>
        </extensions>
      </trkpt>
      <trkpt lat="43.77594717778265476226806640625" lon="1.58454917371273040771484375">
        <ele>124.59999847412109375</ele>
        <time>2026-08-13T07:46:00.000Z</time>
        <extensions>
          <ns3:TrackPointExtension>
            <ns3:hr>81</ns3:hr>
            <ns3:cad>43</ns3:cad>
          </ns3:TrackPointExtension>
        </extensions>
      </trkpt>
      <trkpt lat="43.77594332210719585418701171875" lon="1.58455596305429935455322265625">
        <ele>124.59999847412109375</ele>
        <time>2026-08-13T07:46:01.000Z</time>
        <extensions>
          <ns3:TrackPointExtension>
            <ns3:hr>81</ns3:hr>
            <ns3:cad>43</ns3:cad>
          </ns3:TrackPointExtension>
        </extensions>
      </trkpt>
      <trkpt lat="43.77593544311821460723876953125" lon="1.58457255922257900238037109375">
        <ele>124.59999847412109375</ele>
        <time>2026-08-13T07:46:02.000Z</time>
        <extensions>
          <ns3:TrackPointExtension>
            <ns3:hr>80</ns3:hr>
            <ns3:cad>43</ns3:cad>
          </ns3:TrackPointExtension>
        </extensions>
      </trkpt>
      <trkpt lat="43.775926642119884490966796875" lon="1.58458060584962368011474609375">
        <ele>124.59999847412109375</ele>
        <time>2026-08-13T07:46:03.000Z</time>
        <extensions>
          <ns3:TrackPointExtension>
            <ns3:hr>79</ns3:hr>
            <ns3:cad>43</ns3:cad>
          </ns3:TrackPointExtension>
        </extensions>
      </trkpt>
      <trkpt lat="43.7759189307689666748046875" lon="1.5845889039337635040283203125">
        <ele>124.59999847412109375</ele>
        <time>2026-08-13T07:46:04.000Z</time>
        <extensions>
          <ns3:TrackPointExtension>
            <ns3:hr>79</ns3:hr>
            <ns3:cad>43</ns3:cad>
          </ns3:TrackPointExtension>
        </extensions>
      </trkpt>
      <trkpt lat="43.77590895630419254302978515625" lon="1.5845946036279201507568359375">
        <ele>124.59999847412109375</ele>
        <time>2026-08-13T07:46:05.000Z</time>
        <extensions>
          <ns3:TrackPointExtension>
            <ns3:hr>79</ns3:hr>
            <ns3:cad>43</ns3:cad>
          </ns3:TrackPointExtension>
        </extensions>
      </trkpt>
      <trkpt lat="43.77589923329651355743408203125" lon="1.58460206352174282073974609375">
        <ele>124.8000030517578125</ele>
        <time>2026-08-13T07:46:06.000Z</time>
        <extensions>
          <ns3:TrackPointExtension>
            <ns3:hr>79</ns3:hr>
            <ns3:cad>44</ns3:cad>
          </ns3:TrackPointExtension>
        </extensions>
      </trkpt>
      <trkpt lat="43.7758909352123737335205078125" lon="1.58460809849202632904052734375">
        <ele>124.8000030517578125</ele>
        <time>2026-08-13T07:46:07.000Z</time>
        <extensions>
          <ns3:TrackPointExtension>
            <ns3:hr>79</ns3:hr>
            <ns3:cad>44</ns3:cad>
          </ns3:TrackPointExtension>
        </extensions>
      </trkpt>
      <trkpt lat="43.77588339149951934814453125" lon="1.5846130438148975372314453125">
        <ele>124.8000030517578125</ele>
        <time>2026-08-13T07:46:08.000Z</time>
        <extensions>
          <ns3:TrackPointExtension>
            <ns3:hr>79</ns3:hr>
            <ns3:cad>44</ns3:cad>
          </ns3:TrackPointExtension>
        </extensions>
      </trkpt>
      <trkpt lat="43.77587626688182353973388671875" lon="1.5846194140613079071044921875">
        <ele>124.8000030517578125</ele>
        <time>2026-08-13T07:46:09.000Z</time>
        <extensions>
          <ns3:TrackPointExtension>
            <ns3:hr>80</ns3:hr>
            <ns3:cad>45</ns3:cad>
          </ns3:TrackPointExtension>
        </extensions>
      </trkpt>
      <trkpt lat="43.77586687915027141571044921875" lon="1.58462519757449626922607421875">
        <ele>124.8000030517578125</ele>
        <time>2026-08-13T07:46:10.000Z</time>
        <extensions>
          <ns3:TrackPointExtension>
            <ns3:hr>80</ns3:hr>
            <ns3:cad>45</ns3:cad>
          </ns3:TrackPointExtension>
        </extensions>
      </trkpt>
      <trkpt lat="43.77586067654192447662353515625" lon="1.58463089726865291595458984375">
        <ele>124.8000030517578125</ele>
        <time>2026-08-13T07:46:11.000Z</time>
        <extensions>
          <ns3:TrackPointExtension>
            <ns3:hr>80</ns3:hr>
            <ns3:cad>45</ns3:cad>
          </ns3:TrackPointExtension>
        </extensions>
      </trkpt>
      <trkpt lat="43.775852881371974945068359375" lon="1.584636010229587554931640625">
        <ele>124.8000030517578125</ele>
        <time>2026-08-13T07:46:12.000Z</time>
        <extensions>
          <ns3:TrackPointExtension>
            <ns3:hr>80</ns3:hr>
            <ns3:cad>44</ns3:cad>
          </ns3:TrackPointExtension>
        </extensions>
      </trkpt>
      <trkpt lat="43.77584123052656650543212890625" lon="1.584644727408885955810546875">
        <ele>125</ele>
        <time>2026-08-13T07:46:13.000Z</time>
        <extensions>
          <ns3:TrackPointExtension>
            <ns3:hr>80</ns3:hr>
            <ns3:cad>44</ns3:cad>
          </ns3:TrackPointExtension>
        </extensions>
      </trkpt>
      <trkpt lat="43.7758325971662998199462890625" lon="1.58465671353042125701904296875">
        <ele>125</ele>
        <time>2026-08-13T07:46:14.000Z</time>
        <extensions>
          <ns3:TrackPointExtension>
            <ns3:hr>80</ns3:hr>
            <ns3:cad>44</ns3:cad>
          </ns3:TrackPointExtension>
        </extensions>
      </trkpt>
      <trkpt lat="43.775825388729572296142578125" lon="1.58466543070971965789794921875">
        <ele>125</ele>
        <time>2026-08-13T07:46:15.000Z</time>
        <extensions>
          <ns3:TrackPointExtension>
            <ns3:hr>80</ns3:hr>
            <ns3:cad>44</ns3:cad>
          </ns3:TrackPointExtension>
        </extensions>
      </trkpt>
      <trkpt lat="43.77581926994025707244873046875" lon="1.584673561155796051025390625">
        <ele>125</ele>
        <time>2026-08-13T07:46:16.000Z</time>
        <extensions>
          <ns3:TrackPointExtension>
            <ns3:hr>79</ns3:hr>
            <ns3:cad>44</ns3:cad>
          </ns3:TrackPointExtension>
        </extensions>
      </trkpt>
      <trkpt lat="43.775807283818721771240234375" lon="1.584683619439601898193359375">
        <ele>125</ele>
        <time>2026-08-13T07:46:17.000Z</time>
        <extensions>
          <ns3:TrackPointExtension>
            <ns3:hr>80</ns3:hr>
            <ns3:cad>43</ns3:cad>
          </ns3:TrackPointExtension>
        </extensions>
      </trkpt>
      <trkpt lat="43.77580099739134311676025390625" lon="1.5846898220479488372802734375">
        <ele>125</ele>
        <time>2026-08-13T07:46:18.000Z</time>
        <extensions>
          <ns3:TrackPointExtension>
            <ns3:hr>81</ns3:hr>
            <ns3:cad>43</ns3:cad>
          </ns3:TrackPointExtension>
        </extensions>
      </trkpt>
      <trkpt lat="43.77579412423074245452880859375" lon="1.58469535410404205322265625">
        <ele>125</ele>
        <time>2026-08-13T07:46:19.000Z</time>
        <extensions>
          <ns3:TrackPointExtension>
            <ns3:hr>82</ns3:hr>
            <ns3:cad>44</ns3:cad>
          </ns3:TrackPointExtension>
        </extensions>
      </trkpt>
      <trkpt lat="43.77578683197498321533203125" lon="1.5847089327871799468994140625">
        <ele>125</ele>
        <time>2026-08-13T07:46:20.000Z</time>
        <extensions>
          <ns3:TrackPointExtension>
            <ns3:hr>82</ns3:hr>
            <ns3:cad>42</ns3:cad>
          </ns3:TrackPointExtension>
        </extensions>
      </trkpt>
      <trkpt lat="43.7757762707769870758056640625" lon="1.584715135395526885986328125">
        <ele>125</ele>
        <time>2026-08-13T07:46:21.000Z</time>
        <extensions>
          <ns3:TrackPointExtension>
            <ns3:hr>82</ns3:hr>
            <ns3:cad>42</ns3:cad>
          </ns3:TrackPointExtension>
        </extensions>
      </trkpt>
      <trkpt lat="43.7757702358067035675048828125" lon="1.5847196616232395172119140625">
        <ele>125</ele>
        <time>2026-08-13T07:46:22.000Z</time>
        <extensions>
          <ns3:TrackPointExtension>
            <ns3:hr>83</ns3:hr>
            <ns3:cad>41</ns3:cad>
          </ns3:TrackPointExtension>
        </extensions>
      </trkpt>
      <trkpt lat="43.7757633626461029052734375" lon="1.58472619950771331787109375">
        <ele>125.1999969482421875</ele>
        <time>2026-08-13T07:46:23.000Z</time>
        <extensions>
          <ns3:TrackPointExtension>
            <ns3:hr>83</ns3:hr>
            <ns3:cad>41</ns3:cad>
          </ns3:TrackPointExtension>
        </extensions>
      </trkpt>
      <trkpt lat="43.7757531367242336273193359375" lon="1.58473516814410686492919921875">
        <ele>125.1999969482421875</ele>
        <time>2026-08-13T07:46:24.000Z</time>
        <extensions>
          <ns3:TrackPointExtension>
            <ns3:hr>83</ns3:hr>
            <ns3:cad>41</ns3:cad>
          </ns3:TrackPointExtension>
        </extensions>
      </trkpt>
      <trkpt lat="43.7757471017539501190185546875" lon="1.58474237658083438873291015625">
        <ele>125.1999969482421875</ele>
        <time>2026-08-13T07:46:25.000Z</time>
        <extensions>
          <ns3:TrackPointExtension>
            <ns3:hr>82</ns3:hr>
            <ns3:cad>43</ns3:cad>
          </ns3:TrackPointExtension>
        </extensions>
      </trkpt>
      <trkpt lat="43.77574148587882518768310546875" lon="1.58474774099886417388916015625">
        <ele>125.1999969482421875</ele>
        <time>2026-08-13T07:46:26.000Z</time>
        <extensions>
          <ns3:TrackPointExtension>
            <ns3:hr>82</ns3:hr>
            <ns3:cad>43</ns3:cad>
          </ns3:TrackPointExtension>
        </extensions>
      </trkpt>
      <trkpt lat="43.7757340259850025177001953125" lon="1.58475478179752826690673828125">
        <ele>125.1999969482421875</ele>
        <time>2026-08-13T07:46:27.000Z</time>
        <extensions>
          <ns3:TrackPointExtension>
            <ns3:hr>82</ns3:hr>
            <ns3:cad>43</ns3:cad>
          </ns3:TrackPointExtension>
        </extensions>
      </trkpt>
      <trkpt lat="43.77572639845311641693115234375" lon="1.58476777374744415283203125">
        <ele>125.1999969482421875</ele>
        <time>2026-08-13T07:46:28.000Z</time>
        <extensions>
          <ns3:TrackPointExtension>
            <ns3:hr>82</ns3:hr>
            <ns3:cad>43</ns3:cad>
          </ns3:TrackPointExtension>
        </extensions>
      </trkpt>
      <trkpt lat="43.77572103403508663177490234375" lon="1.58477338962256908416748046875">
        <ele>125.1999969482421875</ele>
        <time>2026-08-13T07:46:29.000Z</time>
        <extensions>
          <ns3:TrackPointExtension>
            <ns3:hr>82</ns3:hr>
            <ns3:cad>43</ns3:cad>
          </ns3:TrackPointExtension>
        </extensions>
      </trkpt>
      <trkpt lat="43.775713406503200531005859375" lon="1.584777496755123138427734375">
        <ele>125.1999969482421875</ele>
        <time>2026-08-13T07:46:30.000Z</time>
        <extensions>
          <ns3:TrackPointExtension>
            <ns3:hr>81</ns3:hr>
            <ns3:cad>43</ns3:cad>
          </ns3:TrackPointExtension>
        </extensions>
      </trkpt>
      <trkpt lat="43.77570443786680698394775390625" lon="1.58478520810604095458984375">
        <ele>125.1999969482421875</ele>
        <time>2026-08-13T07:46:31.000Z</time>
        <extensions>
          <ns3:TrackPointExtension>
            <ns3:hr>81</ns3:hr>
            <ns3:cad>43</ns3:cad>
          </ns3:TrackPointExtension>
        </extensions>
      </trkpt>
      <trkpt lat="43.7756964750587940216064453125" lon="1.584795601665973663330078125">
        <ele>125.1999969482421875</ele>
        <time>2026-08-13T07:46:32.000Z</time>
        <extensions>
          <ns3:TrackPointExtension>
            <ns3:hr>81</ns3:hr>
            <ns3:cad>43</ns3:cad>
          </ns3:TrackPointExtension>
        </extensions>
      </trkpt>
      <trkpt lat="43.77568851225078105926513671875" lon="1.5848028101027011871337890625">
        <ele>125.1999969482421875</ele>
        <time>2026-08-13T07:46:33.000Z</time>
        <extensions>
          <ns3:TrackPointExtension>
            <ns3:hr>81</ns3:hr>
            <ns3:cad>44</ns3:cad>
          </ns3:TrackPointExtension>
        </extensions>
      </trkpt>
      <trkpt lat="43.77568423748016357421875" lon="1.58480507321655750274658203125">
        <ele>125.1999969482421875</ele>
        <time>2026-08-13T07:46:34.000Z</time>
        <extensions>
          <ns3:TrackPointExtension>
            <ns3:hr>81</ns3:hr>
            <ns3:cad>43</ns3:cad>
          </ns3:TrackPointExtension>
        </extensions>
      </trkpt>
      <trkpt lat="43.775676190853118896484375" lon="1.58481739461421966552734375">
        <ele>125.1999969482421875</ele>
        <time>2026-08-13T07:46:35.000Z</time>
        <extensions>
          <ns3:TrackPointExtension>
            <ns3:hr>80</ns3:hr>
            <ns3:cad>43</ns3:cad>
          </ns3:TrackPointExtension>
        </extensions>
      </trkpt>
      <trkpt lat="43.77566671930253505706787109375" lon="1.584829129278659820556640625">
        <ele>125.1999969482421875</ele>
        <time>2026-08-13T07:46:36.000Z</time>
        <extensions>
          <ns3:TrackPointExtension>
            <ns3:hr>79</ns3:hr>
            <ns3:cad>43</ns3:cad>
          </ns3:TrackPointExtension>
        </extensions>
      </trkpt>
      <trkpt lat="43.775659762322902679443359375" lon="1.5848373435437679290771484375">
        <ele>125.1999969482421875</ele>
        <time>2026-08-13T07:46:37.000Z</time>
        <extensions>
          <ns3:TrackPointExtension>
            <ns3:hr>78</ns3:hr>
            <ns3:cad>43</ns3:cad>
          </ns3:TrackPointExtension>
        </extensions>
      </trkpt>
      <trkpt lat="43.7756542302668094635009765625" lon="1.58484178595244884490966796875">
        <ele>125.1999969482421875</ele>
        <time>2026-08-13T07:46:38.000Z</time>
        <extensions>
          <ns3:TrackPointExtension>
            <ns3:hr>78</ns3:hr>
            <ns3:cad>44</ns3:cad>
          </ns3:TrackPointExtension>
        </extensions>
      </trkpt>
      <trkpt lat="43.77564643509685993194580078125" lon="1.5848462283611297607421875">
        <ele>125</ele>
        <time>2026-08-13T07:46:39.000Z</time>
        <extensions>
          <ns3:TrackPointExtension>
            <ns3:hr>77</ns3:hr>
            <ns3:cad>44</ns3:cad>
          </ns3:TrackPointExtension>
        </extensions>
      </trkpt>
      <trkpt lat="43.77563553862273693084716796875" lon="1.5848604775965213775634765625">
        <ele>125</ele>
        <time>2026-08-13T07:46:40.000Z</time>
        <extensions>
          <ns3:TrackPointExtension>
            <ns3:hr>77</ns3:hr>
            <ns3:cad>46</ns3:cad>
          </ns3:TrackPointExtension>
        </extensions>
      </trkpt>
      <trkpt lat="43.77563000656664371490478515625" lon="1.58487011678516864776611328125">
        <ele>125</ele>
        <time>2026-08-13T07:46:41.000Z</time>
        <extensions>
          <ns3:TrackPointExtension>
            <ns3:hr>76</ns3:hr>
            <ns3:cad>46</ns3:cad>
          </ns3:TrackPointExtension>
        </extensions>
      </trkpt>
      <trkpt lat="43.7756223790347576141357421875" lon="1.5848703682422637939453125">
        <ele>125</ele>
        <time>2026-08-13T07:46:42.000Z</time>
        <extensions>
          <ns3:TrackPointExtension>
            <ns3:hr>76</ns3:hr>
            <ns3:cad>46</ns3:cad>
          </ns3:TrackPointExtension>
        </extensions>
      </trkpt>
      <trkpt lat="43.77561290748417377471923828125" lon="1.584876738488674163818359375">
        <ele>125</ele>
        <time>2026-08-13T07:46:43.000Z</time>
        <extensions>
          <ns3:TrackPointExtension>
            <ns3:hr>76</ns3:hr>
            <ns3:cad>46</ns3:cad>
          </ns3:TrackPointExtension>
        </extensions>
      </trkpt>
      <trkpt lat="43.7756039388477802276611328125" lon="1.58488847315311431884765625">
        <ele>125</ele>
        <time>2026-08-13T07:46:44.000Z</time>
        <extensions>
          <ns3:TrackPointExtension>
            <ns3:hr>76</ns3:hr>
            <ns3:cad>46</ns3:cad>
          </ns3:TrackPointExtension>
        </extensions>
      </trkpt>
      <trkpt lat="43.775596059858798980712890625" lon="1.58489526249468326568603515625">
        <ele>124.8000030517578125</ele>
        <time>2026-08-13T07:46:45.000Z</time>
        <extensions>
          <ns3:TrackPointExtension>
            <ns3:hr>76</ns3:hr>
            <ns3:cad>45</ns3:cad>
          </ns3:TrackPointExtension>
        </extensions>
      </trkpt>
      <trkpt lat="43.7755885161459445953369140625" lon="1.58490180037915706634521484375">
        <ele>124.8000030517578125</ele>
        <time>2026-08-13T07:46:46.000Z</time>
        <extensions>
          <ns3:TrackPointExtension>
            <ns3:hr>75</ns3:hr>
            <ns3:cad>45</ns3:cad>
          </ns3:TrackPointExtension>
        </extensions>
      </trkpt>
      <trkpt lat="43.77557887695729732513427734375" lon="1.5849074162542819976806640625">
        <ele>124.8000030517578125</ele>
        <time>2026-08-13T07:46:47.000Z</time>
        <extensions>
          <ns3:TrackPointExtension>
            <ns3:hr>75</ns3:hr>
            <ns3:cad>45</ns3:cad>
          </ns3:TrackPointExtension>
        </extensions>
      </trkpt>
      <trkpt lat="43.77556915394961833953857421875" lon="1.584918983280658721923828125">
        <ele>124.8000030517578125</ele>
        <time>2026-08-13T07:46:48.000Z</time>
        <extensions>
          <ns3:TrackPointExtension>
            <ns3:hr>75</ns3:hr>
            <ns3:cad>44</ns3:cad>
          </ns3:TrackPointExtension>
        </extensions>
      </trkpt>
      <trkpt lat="43.7755610235035419464111328125" lon="1.58492644317448139190673828125">
        <ele>124.8000030517578125</ele>
        <time>2026-08-13T07:46:49.000Z</time>
        <extensions>
          <ns3:TrackPointExtension>
            <ns3:hr>75</ns3:hr>
            <ns3:cad>44</ns3:cad>
          </ns3:TrackPointExtension>
        </extensions>
      </trkpt>
      <trkpt lat="43.77555356360971927642822265625" lon="1.5849268622696399688720703125">
        <ele>124.8000030517578125</ele>
        <time>2026-08-13T07:46:50.000Z</time>
        <extensions>
          <ns3:TrackPointExtension>
            <ns3:hr>75</ns3:hr>
            <ns3:cad>44</ns3:cad>
          </ns3:TrackPointExtension>
        </extensions>
      </trkpt>
      <trkpt lat="43.77554543316364288330078125" lon="1.5849335677921772003173828125">
        <ele>124.8000030517578125</ele>
        <time>2026-08-13T07:46:51.000Z</time>
        <extensions>
          <ns3:TrackPointExtension>
            <ns3:hr>75</ns3:hr>
            <ns3:cad>46</ns3:cad>
          </ns3:TrackPointExtension>
        </extensions>
      </trkpt>
      <trkpt lat="43.77554149366915225982666015625" lon="1.58493943512439727783203125">
        <ele>124.8000030517578125</ele>
        <time>2026-08-13T07:46:52.000Z</time>
        <extensions>
          <ns3:TrackPointExtension>
            <ns3:hr>75</ns3:hr>
            <ns3:cad>46</ns3:cad>
          </ns3:TrackPointExtension>
        </extensions>
      </trkpt>
      <trkpt lat="43.775537721812725067138671875" lon="1.5849503315985202789306640625">
        <ele>124.8000030517578125</ele>
        <time>2026-08-13T07:46:53.000Z</time>
        <extensions>
          <ns3:TrackPointExtension>
            <ns3:hr>75</ns3:hr>
            <ns3:cad>45</ns3:cad>
          </ns3:TrackPointExtension>
        </extensions>
      </trkpt>
      <trkpt lat="43.7755301780998706817626953125" lon="1.58495862968266010284423828125">
        <ele>124.59999847412109375</ele>
        <time>2026-08-13T07:46:54.000Z</time>
        <extensions>
          <ns3:TrackPointExtension>
            <ns3:hr>75</ns3:hr>
            <ns3:cad>44</ns3:cad>
          </ns3:TrackPointExtension>
        </extensions>
      </trkpt>
      <trkpt lat="43.7755251489579677581787109375" lon="1.58496583811938762664794921875">
        <ele>124.59999847412109375</ele>
        <time>2026-08-13T07:46:55.000Z</time>
        <extensions>
          <ns3:TrackPointExtension>
            <ns3:hr>75</ns3:hr>
            <ns3:cad>44</ns3:cad>
          </ns3:TrackPointExtension>
        </extensions>
      </trkpt>
      <trkpt lat="43.77551165409386157989501953125" lon="1.5849727950990200042724609375">
        <ele>124.59999847412109375</ele>
        <time>2026-08-13T07:46:56.000Z</time>
        <extensions>
          <ns3:TrackPointExtension>
            <ns3:hr>75</ns3:hr>
            <ns3:cad>44</ns3:cad>
          </ns3:TrackPointExtension>
        </extensions>
      </trkpt>
      <trkpt lat="43.77550343982875347137451171875" lon="1.5849771536886692047119140625">
        <ele>124.59999847412109375</ele>
        <time>2026-08-13T07:46:57.000Z</time>
        <extensions>
          <ns3:TrackPointExtension>
            <ns3:hr>74</ns3:hr>
            <ns3:cad>44</ns3:cad>
          </ns3:TrackPointExtension>
        </extensions>
      </trkpt>
      <trkpt lat="43.77549690194427967071533203125" lon="1.58497824333608150482177734375">
        <ele>124.59999847412109375</ele>
        <time>2026-08-13T07:46:58.000Z</time>
        <extensions>
          <ns3:TrackPointExtension>
            <ns3:hr>75</ns3:hr>
            <ns3:cad>44</ns3:cad>
          </ns3:TrackPointExtension>
        </extensions>
      </trkpt>
      <trkpt lat="43.77548734657466411590576171875" lon="1.58498494885861873626708984375">
        <ele>124.59999847412109375</ele>
        <time>2026-08-13T07:46:59.000Z</time>
        <extensions>
          <ns3:TrackPointExtension>
            <ns3:hr>74</ns3:hr>
            <ns3:cad>44</ns3:cad>
          </ns3:TrackPointExtension>
        </extensions>
      </trkpt>
      <trkpt lat="43.775474689900875091552734375" lon="1.584990061819553375244140625">
        <ele>124.59999847412109375</ele>
        <time>2026-08-13T07:47:00.000Z</time>
        <extensions>
          <ns3:TrackPointExtension>
            <ns3:hr>74</ns3:hr>
            <ns3:cad>44</ns3:cad>
          </ns3:TrackPointExtension>
        </extensions>
      </trkpt>
      <trkpt lat="43.775467313826084136962890625" lon="1.584994085133075714111328125">
        <ele>124.59999847412109375</ele>
        <time>2026-08-13T07:47:01.000Z</time>
        <extensions>
          <ns3:TrackPointExtension>
            <ns3:hr>75</ns3:hr>
            <ns3:cad>46</ns3:cad>
          </ns3:TrackPointExtension>
        </extensions>
      </trkpt>
      <trkpt lat="43.7754601053893566131591796875" lon="1.58499668352305889129638671875">
        <ele>124.59999847412109375</ele>
        <time>2026-08-13T07:47:02.000Z</time>
        <extensions>
          <ns3:TrackPointExtension>
            <ns3:hr>75</ns3:hr>
            <ns3:cad>46</ns3:cad>
          </ns3:TrackPointExtension>
        </extensions>
      </trkpt>
      <trkpt lat="43.7754522264003753662109375" lon="1.58500221557915210723876953125">
        <ele>124.8000030517578125</ele>
        <time>2026-08-13T07:47:03.000Z</time>
        <extensions>
          <ns3:TrackPointExtension>
            <ns3:hr>76</ns3:hr>
            <ns3:cad>46</ns3:cad>
          </ns3:TrackPointExtension>
        </extensions>
      </trkpt>
      <trkpt lat="43.77544485032558441162109375" lon="1.5850110165774822235107421875">
        <ele>124.8000030517578125</ele>
        <time>2026-08-13T07:47:04.000Z</time>
        <extensions>
          <ns3:TrackPointExtension>
            <ns3:hr>76</ns3:hr>
            <ns3:cad>46</ns3:cad>
          </ns3:TrackPointExtension>
        </extensions>
      </trkpt>
      <trkpt lat="43.77543470822274684906005859375" lon="1.58501730300486087799072265625">
        <ele>124.8000030517578125</ele>
        <time>2026-08-13T07:47:05.000Z</time>
        <extensions>
          <ns3:TrackPointExtension>
            <ns3:hr>76</ns3:hr>
            <ns3:cad>46</ns3:cad>
          </ns3:TrackPointExtension>
        </extensions>
      </trkpt>
      <trkpt lat="43.77542766742408275604248046875" lon="1.58501663245260715484619140625">
        <ele>124.8000030517578125</ele>
        <time>2026-08-13T07:47:06.000Z</time>
        <extensions>
          <ns3:TrackPointExtension>
            <ns3:hr>76</ns3:hr>
            <ns3:cad>46</ns3:cad>
          </ns3:TrackPointExtension>
        </extensions>
      </trkpt>
      <trkpt lat="43.77542129717767238616943359375" lon="1.58502836711704730987548828125">
        <ele>124.59999847412109375</ele>
        <time>2026-08-13T07:47:07.000Z</time>
        <extensions>
          <ns3:TrackPointExtension>
            <ns3:hr>76</ns3:hr>
            <ns3:cad>46</ns3:cad>
          </ns3:TrackPointExtension>
        </extensions>
      </trkpt>
      <trkpt lat="43.77541056834161281585693359375" lon="1.58503708429634571075439453125">
        <ele>124.59999847412109375</ele>
        <time>2026-08-13T07:47:08.000Z</time>
        <extensions>
          <ns3:TrackPointExtension>
            <ns3:hr>76</ns3:hr>
            <ns3:cad>46</ns3:cad>
          </ns3:TrackPointExtension>
        </extensions>
      </trkpt>
      <trkpt lat="43.7754037790000438690185546875" lon="1.585045047104358673095703125">
        <ele>124.59999847412109375</ele>
        <time>2026-08-13T07:47:09.000Z</time>
        <extensions>
          <ns3:TrackPointExtension>
            <ns3:hr>76</ns3:hr>
            <ns3:cad>46</ns3:cad>
          </ns3:TrackPointExtension>
        </extensions>
      </trkpt>
      <trkpt lat="43.77539615146815776824951171875" lon="1.5850448794662952423095703125">
        <ele>124.59999847412109375</ele>
        <time>2026-08-13T07:47:10.000Z</time>
        <extensions>
          <ns3:TrackPointExtension>
            <ns3:hr>76</ns3:hr>
            <ns3:cad>46</ns3:cad>
          </ns3:TrackPointExtension>
        </extensions>
      </trkpt>
      <trkpt lat="43.775387518107891082763671875" lon="1.58504563383758068084716796875">
        <ele>124.40000152587890625</ele>
        <time>2026-08-13T07:47:11.000Z</time>
        <extensions>
          <ns3:TrackPointExtension>
            <ns3:hr>76</ns3:hr>
            <ns3:cad>44</ns3:cad>
          </ns3:TrackPointExtension>
        </extensions>
      </trkpt>
      <trkpt lat="43.77537284977734088897705078125" lon="1.58505368046462535858154296875">
        <ele>124.40000152587890625</ele>
        <time>2026-08-13T07:47:12.000Z</time>
        <extensions>
          <ns3:TrackPointExtension>
            <ns3:hr>75</ns3:hr>
            <ns3:cad>44</ns3:cad>
          </ns3:TrackPointExtension>
        </extensions>
      </trkpt>
      <trkpt lat="43.77536312676966190338134765625" lon="1.5850603021681308746337890625">
        <ele>124.40000152587890625</ele>
        <time>2026-08-13T07:47:13.000Z</time>
        <extensions>
          <ns3:TrackPointExtension>
            <ns3:hr>74</ns3:hr>
            <ns3:cad>43</ns3:cad>
          </ns3:TrackPointExtension>
        </extensions>
      </trkpt>
      <trkpt lat="43.7753565050661563873291015625" lon="1.58505921252071857452392578125">
        <ele>124.40000152587890625</ele>
        <time>2026-08-13T07:47:14.000Z</time>
        <extensions>
          <ns3:TrackPointExtension>
            <ns3:hr>73</ns3:hr>
            <ns3:cad>43</ns3:cad>
          </ns3:TrackPointExtension>
        </extensions>
      </trkpt>
      <trkpt lat="43.77534703351557254791259765625" lon="1.58506214618682861328125">
        <ele>124.40000152587890625</ele>
        <time>2026-08-13T07:47:15.000Z</time>
        <extensions>
          <ns3:TrackPointExtension>
            <ns3:hr>75</ns3:hr>
            <ns3:cad>45</ns3:cad>
          </ns3:TrackPointExtension>
        </extensions>
      </trkpt>
      <trkpt lat="43.7753316946327686309814453125" lon="1.58507228828966617584228515625">
        <ele>124.40000152587890625</ele>
        <time>2026-08-13T07:47:16.000Z</time>
        <extensions>
          <ns3:TrackPointExtension>
            <ns3:hr>76</ns3:hr>
            <ns3:cad>45</ns3:cad>
          </ns3:TrackPointExtension>
        </extensions>
      </trkpt>
      <trkpt lat="43.775322474539279937744140625" lon="1.58507631160318851470947265625">
        <ele>124.40000152587890625</ele>
        <time>2026-08-13T07:47:17.000Z</time>
        <extensions>
          <ns3:TrackPointExtension>
            <ns3:hr>76</ns3:hr>
            <ns3:cad>45</ns3:cad>
          </ns3:TrackPointExtension>
        </extensions>
      </trkpt>
      <trkpt lat="43.775314427912235260009765625" lon="1.5850774012506008148193359375">
        <ele>124.40000152587890625</ele>
        <time>2026-08-13T07:47:18.000Z</time>
        <extensions>
          <ns3:TrackPointExtension>
            <ns3:hr>76</ns3:hr>
            <ns3:cad>45</ns3:cad>
          </ns3:TrackPointExtension>
        </extensions>
      </trkpt>
      <trkpt lat="43.77530269324779510498046875" lon="1.5850827656686305999755859375">
        <ele>124.40000152587890625</ele>
        <time>2026-08-13T07:47:19.000Z</time>
        <extensions>
          <ns3:TrackPointExtension>
            <ns3:hr>76</ns3:hr>
            <ns3:cad>44</ns3:cad>
          </ns3:TrackPointExtension>
        </extensions>
      </trkpt>
      <trkpt lat="43.77529037185013294219970703125" lon="1.58509005792438983917236328125">
        <ele>124.40000152587890625</ele>
        <time>2026-08-13T07:47:20.000Z</time>
        <extensions>
          <ns3:TrackPointExtension>
            <ns3:hr>74</ns3:hr>
            <ns3:cad>44</ns3:cad>
          </ns3:TrackPointExtension>
        </extensions>
      </trkpt>
      <trkpt lat="43.77528064884245395660400390625" lon="1.5850978530943393707275390625">
        <ele>124.40000152587890625</ele>
        <time>2026-08-13T07:47:21.000Z</time>
        <extensions>
          <ns3:TrackPointExtension>
            <ns3:hr>74</ns3:hr>
            <ns3:cad>44</ns3:cad>
          </ns3:TrackPointExtension>
        </extensions>
      </trkpt>
      <trkpt lat="43.77527293749153614044189453125" lon="1.58510179258882999420166015625">
        <ele>124.40000152587890625</ele>
        <time>2026-08-13T07:47:22.000Z</time>
        <extensions>
          <ns3:TrackPointExtension>
            <ns3:hr>74</ns3:hr>
            <ns3:cad>44</ns3:cad>
          </ns3:TrackPointExtension>
        </extensions>
      </trkpt>
      <trkpt lat="43.77526069991290569305419921875" lon="1.585106067359447479248046875">
        <ele>124.40000152587890625</ele>
        <time>2026-08-13T07:47:23.000Z</time>
        <extensions>
          <ns3:TrackPointExtension>
            <ns3:hr>75</ns3:hr>
            <ns3:cad>44</ns3:cad>
          </ns3:TrackPointExtension>
        </extensions>
      </trkpt>
      <trkpt lat="43.77524963580071926116943359375" lon="1.58511168323457241058349609375">
        <ele>124.40000152587890625</ele>
        <time>2026-08-13T07:47:24.000Z</time>
        <extensions>
          <ns3:TrackPointExtension>
            <ns3:hr>76</ns3:hr>
            <ns3:cad>44</ns3:cad>
          </ns3:TrackPointExtension>
        </extensions>
      </trkpt>
      <trkpt lat="43.77523974515497684478759765625" lon="1.5851132757961750030517578125">
        <ele>124.40000152587890625</ele>
        <time>2026-08-13T07:47:25.000Z</time>
        <extensions>
          <ns3:TrackPointExtension>
            <ns3:hr>76</ns3:hr>
            <ns3:cad>44</ns3:cad>
          </ns3:TrackPointExtension>
        </extensions>
      </trkpt>
      <trkpt lat="43.77523236908018589019775390625" lon="1.5851090848445892333984375">
        <ele>124.40000152587890625</ele>
        <time>2026-08-13T07:47:26.000Z</time>
        <extensions>
          <ns3:TrackPointExtension>
            <ns3:hr>77</ns3:hr>
            <ns3:cad>44</ns3:cad>
          </ns3:TrackPointExtension>
        </extensions>
      </trkpt>
      <trkpt lat="43.77522398717701435089111328125" lon="1.585114113986492156982421875">
        <ele>124.40000152587890625</ele>
        <time>2026-08-13T07:47:27.000Z</time>
        <extensions>
          <ns3:TrackPointExtension>
            <ns3:hr>79</ns3:hr>
            <ns3:cad>44</ns3:cad>
          </ns3:TrackPointExtension>
        </extensions>
      </trkpt>
      <trkpt lat="43.775213845074176788330078125" lon="1.5851216576993465423583984375">
        <ele>124.40000152587890625</ele>
        <time>2026-08-13T07:47:28.000Z</time>
        <extensions>
          <ns3:TrackPointExtension>
            <ns3:hr>79</ns3:hr>
            <ns3:cad>44</ns3:cad>
          </ns3:TrackPointExtension>
        </extensions>
      </trkpt>
      <trkpt lat="43.775205798447132110595703125" lon="1.58512559719383716583251953125">
        <ele>124.40000152587890625</ele>
        <time>2026-08-13T07:47:29.000Z</time>
        <extensions>
          <ns3:TrackPointExtension>
            <ns3:hr>80</ns3:hr>
            <ns3:cad>45</ns3:cad>
          </ns3:TrackPointExtension>
        </extensions>
      </trkpt>
      <trkpt lat="43.77519900910556316375732421875" lon="1.5851246751844882965087890625">
        <ele>124.40000152587890625</ele>
        <time>2026-08-13T07:47:30.000Z</time>
        <extensions>
          <ns3:TrackPointExtension>
            <ns3:hr>80</ns3:hr>
            <ns3:cad>45</ns3:cad>
          </ns3:TrackPointExtension>
        </extensions>
      </trkpt>
      <trkpt lat="43.7751912139356136322021484375" lon="1.58512878231704235076904296875">
        <ele>124.40000152587890625</ele>
        <time>2026-08-13T07:47:31.000Z</time>
        <extensions>
          <ns3:TrackPointExtension>
            <ns3:hr>81</ns3:hr>
            <ns3:cad>45</ns3:cad>
          </ns3:TrackPointExtension>
        </extensions>
      </trkpt>
      <trkpt lat="43.7751813232898712158203125" lon="1.58513783477246761322021484375">
        <ele>124.40000152587890625</ele>
        <time>2026-08-13T07:47:32.000Z</time>
        <extensions>
          <ns3:TrackPointExtension>
            <ns3:hr>81</ns3:hr>
            <ns3:cad>45</ns3:cad>
          </ns3:TrackPointExtension>
        </extensions>
      </trkpt>
      <trkpt lat="43.77517688088119029998779296875" lon="1.58514588139951229095458984375">
        <ele>124.40000152587890625</ele>
        <time>2026-08-13T07:47:33.000Z</time>
        <extensions>
          <ns3:TrackPointExtension>
            <ns3:hr>81</ns3:hr>
            <ns3:cad>45</ns3:cad>
          </ns3:TrackPointExtension>
        </extensions>
      </trkpt>
      <trkpt lat="43.77517101354897022247314453125" lon="1.585149653255939483642578125">
        <ele>124.40000152587890625</ele>
        <time>2026-08-13T07:47:34.000Z</time>
        <extensions>
          <ns3:TrackPointExtension>
            <ns3:hr>81</ns3:hr>
            <ns3:cad>47</ns3:cad>
          </ns3:TrackPointExtension>
        </extensions>
      </trkpt>
      <trkpt lat="43.77516196109354496002197265625" lon="1.5851592086255550384521484375">
        <ele>124.40000152587890625</ele>
        <time>2026-08-13T07:47:35.000Z</time>
        <extensions>
          <ns3:TrackPointExtension>
            <ns3:hr>81</ns3:hr>
            <ns3:cad>47</ns3:cad>
          </ns3:TrackPointExtension>
        </extensions>
      </trkpt>
      <trkpt lat="43.77515173517167568206787109375" lon="1.585170440375804901123046875">
        <ele>124.40000152587890625</ele>
        <time>2026-08-13T07:47:36.000Z</time>
        <extensions>
          <ns3:TrackPointExtension>
            <ns3:hr>81</ns3:hr>
            <ns3:cad>47</ns3:cad>
          </ns3:TrackPointExtension>
        </extensions>
      </trkpt>
      <trkpt lat="43.77514184452593326568603515625" lon="1.58517957665026187896728515625">
        <ele>124.40000152587890625</ele>
        <time>2026-08-13T07:47:37.000Z</time>
        <extensions>
          <ns3:TrackPointExtension>
            <ns3:hr>81</ns3:hr>
            <ns3:cad>47</ns3:cad>
          </ns3:TrackPointExtension>
        </extensions>
      </trkpt>
      <trkpt lat="43.77513212151825428009033203125" lon="1.58518510870635509490966796875">
        <ele>124.40000152587890625</ele>
        <time>2026-08-13T07:47:38.000Z</time>
        <extensions>
          <ns3:TrackPointExtension>
            <ns3:hr>81</ns3:hr>
            <ns3:cad>46</ns3:cad>
          </ns3:TrackPointExtension>
        </extensions>
      </trkpt>
      <trkpt lat="43.77512373961508274078369140625" lon="1.5851934067904949188232421875">
        <ele>124.40000152587890625</ele>
        <time>2026-08-13T07:47:39.000Z</time>
        <extensions>
          <ns3:TrackPointExtension>
            <ns3:hr>79</ns3:hr>
            <ns3:cad>44</ns3:cad>
          </ns3:TrackPointExtension>
        </extensions>
      </trkpt>
      <trkpt lat="43.7751169502735137939453125" lon="1.58520421944558620452880859375">
        <ele>124.1999969482421875</ele>
        <time>2026-08-13T07:47:40.000Z</time>
        <extensions>
          <ns3:TrackPointExtension>
            <ns3:hr>78</ns3:hr>
            <ns3:cad>43</ns3:cad>
          </ns3:TrackPointExtension>
        </extensions>
      </trkpt>
      <trkpt lat="43.77511200495064258575439453125" lon="1.5852101705968379974365234375">
        <ele>124.1999969482421875</ele>
        <time>2026-08-13T07:47:41.000Z</time>
        <extensions>
          <ns3:TrackPointExtension>
            <ns3:hr>77</ns3:hr>
            <ns3:cad>43</ns3:cad>
          </ns3:TrackPointExtension>
        </extensions>
      </trkpt>
      <trkpt lat="43.77510831691324710845947265625" lon="1.5852115117013454437255859375">
        <ele>124.1999969482421875</ele>
        <time>2026-08-13T07:47:42.000Z</time>
        <extensions>
          <ns3:TrackPointExtension>
            <ns3:hr>77</ns3:hr>
            <ns3:cad>43</ns3:cad>
          </ns3:TrackPointExtension>
        </extensions>
      </trkpt>
      <trkpt lat="43.775096833705902099609375" lon="1.58522106707096099853515625">
        <ele>124.1999969482421875</ele>
        <time>2026-08-13T07:47:43.000Z</time>
        <extensions>
          <ns3:TrackPointExtension>
            <ns3:hr>76</ns3:hr>
            <ns3:cad>43</ns3:cad>
          </ns3:TrackPointExtension>
        </extensions>
      </trkpt>
      <trkpt lat="43.77508887089788913726806640625" lon="1.58522852696478366851806640625">
        <ele>124.1999969482421875</ele>
        <time>2026-08-13T07:47:44.000Z</time>
        <extensions>
          <ns3:TrackPointExtension>
            <ns3:hr>76</ns3:hr>
            <ns3:cad>43</ns3:cad>
          </ns3:TrackPointExtension>
        </extensions>
      </trkpt>
      <trkpt lat="43.7750812433660030364990234375" lon="1.58523892052471637725830078125">
        <ele>124.1999969482421875</ele>
        <time>2026-08-13T07:47:45.000Z</time>
        <extensions>
          <ns3:TrackPointExtension>
            <ns3:hr>75</ns3:hr>
            <ns3:cad>43</ns3:cad>
          </ns3:TrackPointExtension>
        </extensions>
      </trkpt>
      <trkpt lat="43.775078393518924713134765625" lon="1.5852416865527629852294921875">
        <ele>124.40000152587890625</ele>
        <time>2026-08-13T07:47:46.000Z</time>
        <extensions>
          <ns3:TrackPointExtension>
            <ns3:hr>75</ns3:hr>
            <ns3:cad>44</ns3:cad>
          </ns3:TrackPointExtension>
        </extensions>
      </trkpt>
      <trkpt lat="43.77506875433027744293212890625" lon="1.58524814061820507049560546875">
        <ele>124.40000152587890625</ele>
        <time>2026-08-13T07:47:47.000Z</time>
        <extensions>
          <ns3:TrackPointExtension>
            <ns3:hr>75</ns3:hr>
            <ns3:cad>44</ns3:cad>
          </ns3:TrackPointExtension>
        </extensions>
      </trkpt>
      <trkpt lat="43.77506054006516933441162109375" lon="1.5852547623217105865478515625">
        <ele>124.40000152587890625</ele>
        <time>2026-08-13T07:47:48.000Z</time>
        <extensions>
          <ns3:TrackPointExtension>
            <ns3:hr>75</ns3:hr>
            <ns3:cad>44</ns3:cad>
          </ns3:TrackPointExtension>
        </extensions>
      </trkpt>
      <trkpt lat="43.77505316399037837982177734375" lon="1.5852597914636135101318359375">
        <ele>124.1999969482421875</ele>
        <time>2026-08-13T07:47:49.000Z</time>
        <extensions>
          <ns3:TrackPointExtension>
            <ns3:hr>75</ns3:hr>
            <ns3:cad>44</ns3:cad>
          </ns3:TrackPointExtension>
        </extensions>
      </trkpt>
      <trkpt lat="43.77504847012460231781005859375" lon="1.5852664969861507415771484375">
        <ele>124.1999969482421875</ele>
        <time>2026-08-13T07:47:50.000Z</time>
        <extensions>
          <ns3:TrackPointExtension>
            <ns3:hr>75</ns3:hr>
            <ns3:cad>46</ns3:cad>
          </ns3:TrackPointExtension>
        </extensions>
      </trkpt>
      <trkpt lat="43.7750386632978916168212890625" lon="1.5852778963744640350341796875">
        <ele>124.1999969482421875</ele>
        <time>2026-08-13T07:47:51.000Z</time>
        <extensions>
          <ns3:TrackPointExtension>
            <ns3:hr>75</ns3:hr>
            <ns3:cad>46</ns3:cad>
          </ns3:TrackPointExtension>
        </extensions>
      </trkpt>
      <trkpt lat="43.7750312872231006622314453125" lon="1.58528485335409641265869140625">
        <ele>124.1999969482421875</ele>
        <time>2026-08-13T07:47:52.000Z</time>
        <extensions>
          <ns3:TrackPointExtension>
            <ns3:hr>75</ns3:hr>
            <ns3:cad>46</ns3:cad>
          </ns3:TrackPointExtension>
        </extensions>
      </trkpt>
      <trkpt lat="43.775027096271514892578125" lon="1.58529222942888736724853515625">
        <ele>124.1999969482421875</ele>
        <time>2026-08-13T07:47:53.000Z</time>
        <extensions>
          <ns3:TrackPointExtension>
            <ns3:hr>75</ns3:hr>
            <ns3:cad>46</ns3:cad>
          </ns3:TrackPointExtension>
        </extensions>
      </trkpt>
      <trkpt lat="43.77502030692994594573974609375" lon="1.58530094660818576812744140625">
        <ele>124.1999969482421875</ele>
        <time>2026-08-13T07:47:54.000Z</time>
        <extensions>
          <ns3:TrackPointExtension>
            <ns3:hr>74</ns3:hr>
            <ns3:cad>46</ns3:cad>
          </ns3:TrackPointExtension>
        </extensions>
      </trkpt>
      <trkpt lat="43.775012679398059844970703125" lon="1.5853080712258815765380859375">
        <ele>124.1999969482421875</ele>
        <time>2026-08-13T07:47:55.000Z</time>
        <extensions>
          <ns3:TrackPointExtension>
            <ns3:hr>74</ns3:hr>
            <ns3:cad>46</ns3:cad>
          </ns3:TrackPointExtension>
        </extensions>
      </trkpt>
      <trkpt lat="43.7750044651329517364501953125" lon="1.5853167884051799774169921875">
        <ele>124.1999969482421875</ele>
        <time>2026-08-13T07:47:56.000Z</time>
        <extensions>
          <ns3:TrackPointExtension>
            <ns3:hr>74</ns3:hr>
            <ns3:cad>46</ns3:cad>
          </ns3:TrackPointExtension>
        </extensions>
      </trkpt>
      <trkpt lat="43.77499666996300220489501953125" lon="1.5853315405547618865966796875">
        <ele>124.1999969482421875</ele>
        <time>2026-08-13T07:47:57.000Z</time>
        <extensions>
          <ns3:TrackPointExtension>
            <ns3:hr>74</ns3:hr>
            <ns3:cad>47</ns3:cad>
          </ns3:TrackPointExtension>
        </extensions>
      </trkpt>
      <trkpt lat="43.7749910540878772735595703125" lon="1.5853399224579334259033203125">
        <ele>124.1999969482421875</ele>
        <time>2026-08-13T07:47:58.000Z</time>
        <extensions>
          <ns3:TrackPointExtension>
            <ns3:hr>73</ns3:hr>
            <ns3:cad>47</ns3:cad>
          </ns3:TrackPointExtension>
        </extensions>
      </trkpt>
      <trkpt lat="43.774987198412418365478515625" lon="1.58534620888531208038330078125">
        <ele>124.1999969482421875</ele>
        <time>2026-08-13T07:47:59.000Z</time>
        <extensions>
          <ns3:TrackPointExtension>
            <ns3:hr>72</ns3:hr>
            <ns3:cad>47</ns3:cad>
          </ns3:TrackPointExtension>
        </extensions>
      </trkpt>
      <trkpt lat="43.77497990615665912628173828125" lon="1.585352160036563873291015625">
        <ele>124.1999969482421875</ele>
        <time>2026-08-13T07:48:00.000Z</time>
        <extensions>
          <ns3:TrackPointExtension>
            <ns3:hr>72</ns3:hr>
            <ns3:cad>47</ns3:cad>
          </ns3:TrackPointExtension>
        </extensions>
      </trkpt>
      <trkpt lat="43.774969764053821563720703125" lon="1.5853643976151943206787109375">
        <ele>124.1999969482421875</ele>
        <time>2026-08-13T07:48:01.000Z</time>
        <extensions>
          <ns3:TrackPointExtension>
            <ns3:hr>72</ns3:hr>
            <ns3:cad>47</ns3:cad>
          </ns3:TrackPointExtension>
        </extensions>
      </trkpt>
      <trkpt lat="43.77496314235031604766845703125" lon="1.585373617708683013916015625">
        <ele>124.1999969482421875</ele>
        <time>2026-08-13T07:48:02.000Z</time>
        <extensions>
          <ns3:TrackPointExtension>
            <ns3:hr>72</ns3:hr>
            <ns3:cad>47</ns3:cad>
          </ns3:TrackPointExtension>
        </extensions>
      </trkpt>
      <trkpt lat="43.77495660446584224700927734375" lon="1.58537931740283966064453125">
        <ele>124.1999969482421875</ele>
        <time>2026-08-13T07:48:03.000Z</time>
        <extensions>
          <ns3:TrackPointExtension>
            <ns3:hr>73</ns3:hr>
            <ns3:cad>46</ns3:cad>
          </ns3:TrackPointExtension>
        </extensions>
      </trkpt>
      <trkpt lat="43.7749481387436389923095703125" lon="1.58538308925926685333251953125">
        <ele>124.1999969482421875</ele>
        <time>2026-08-13T07:48:04.000Z</time>
        <extensions>
          <ns3:TrackPointExtension>
            <ns3:hr>73</ns3:hr>
            <ns3:cad>46</ns3:cad>
          </ns3:TrackPointExtension>
        </extensions>
      </trkpt>
      <trkpt lat="43.774936906993389129638671875" lon="1.58539683558046817779541015625">
        <ele>124</ele>
        <time>2026-08-13T07:48:05.000Z</time>
        <extensions>
          <ns3:TrackPointExtension>
            <ns3:hr>73</ns3:hr>
            <ns3:cad>46</ns3:cad>
          </ns3:TrackPointExtension>
        </extensions>
      </trkpt>
      <trkpt lat="43.77493045292794704437255859375" lon="1.58540840260684490203857421875">
        <ele>124</ele>
        <time>2026-08-13T07:48:06.000Z</time>
        <extensions>
          <ns3:TrackPointExtension>
            <ns3:hr>73</ns3:hr>
            <ns3:cad>46</ns3:cad>
          </ns3:TrackPointExtension>
        </extensions>
      </trkpt>
      <trkpt lat="43.7749246694147586822509765625" lon="1.58541276119649410247802734375">
        <ele>124</ele>
        <time>2026-08-13T07:48:07.000Z</time>
        <extensions>
          <ns3:TrackPointExtension>
            <ns3:hr>73</ns3:hr>
            <ns3:cad>45</ns3:cad>
          </ns3:TrackPointExtension>
        </extensions>
      </trkpt>
      <trkpt lat="43.77491913735866546630859375" lon="1.5854175388813018798828125">
        <ele>124</ele>
        <time>2026-08-13T07:48:08.000Z</time>
        <extensions>
          <ns3:TrackPointExtension>
            <ns3:hr>73</ns3:hr>
            <ns3:cad>45</ns3:cad>
          </ns3:TrackPointExtension>
        </extensions>
      </trkpt>
      <trkpt lat="43.7749099172651767730712890625" lon="1.58543002791702747344970703125">
        <ele>124</ele>
        <time>2026-08-13T07:48:09.000Z</time>
        <extensions>
          <ns3:TrackPointExtension>
            <ns3:hr>73</ns3:hr>
            <ns3:cad>45</ns3:cad>
          </ns3:TrackPointExtension>
        </extensions>
      </trkpt>
      <trkpt lat="43.7749035470187664031982421875" lon="1.585440002381801605224609375">
        <ele>124</ele>
        <time>2026-08-13T07:48:10.000Z</time>
        <extensions>
          <ns3:TrackPointExtension>
            <ns3:hr>74</ns3:hr>
            <ns3:cad>45</ns3:cad>
          </ns3:TrackPointExtension>
        </extensions>
      </trkpt>
      <trkpt lat="43.77489742822945117950439453125" lon="1.58544369041919708251953125">
        <ele>124</ele>
        <time>2026-08-13T07:48:11.000Z</time>
        <extensions>
          <ns3:TrackPointExtension>
            <ns3:hr>74</ns3:hr>
            <ns3:cad>45</ns3:cad>
          </ns3:TrackPointExtension>
        </extensions>
      </trkpt>
      <trkpt lat="43.77489357255399227142333984375" lon="1.58545014448463916778564453125">
        <ele>124.1999969482421875</ele>
        <time>2026-08-13T07:48:12.000Z</time>
        <extensions>
          <ns3:TrackPointExtension>
            <ns3:hr>73</ns3:hr>
            <ns3:cad>45</ns3:cad>
          </ns3:TrackPointExtension>
        </extensions>
      </trkpt>
      <trkpt lat="43.774882592260837554931640625" lon="1.5854636393487453460693359375">
        <ele>124.1999969482421875</ele>
        <time>2026-08-13T07:48:13.000Z</time>
        <extensions>
          <ns3:TrackPointExtension>
            <ns3:hr>73</ns3:hr>
            <ns3:cad>45</ns3:cad>
          </ns3:TrackPointExtension>
        </extensions>
      </trkpt>
      <trkpt lat="43.77487664110958576202392578125" lon="1.5854740329086780548095703125">
        <ele>124.1999969482421875</ele>
        <time>2026-08-13T07:48:14.000Z</time>
        <extensions>
          <ns3:TrackPointExtension>
            <ns3:hr>73</ns3:hr>
            <ns3:cad>45</ns3:cad>
          </ns3:TrackPointExtension>
        </extensions>
      </trkpt>
      <trkpt lat="43.77486926503479480743408203125" lon="1.5854817442595958709716796875">
        <ele>124</ele>
        <time>2026-08-13T07:48:15.000Z</time>
        <extensions>
          <ns3:TrackPointExtension>
            <ns3:hr>73</ns3:hr>
            <ns3:cad>45</ns3:cad>
          </ns3:TrackPointExtension>
        </extensions>
      </trkpt>
      <trkpt lat="43.77486255951225757598876953125" lon="1.585487611591815948486328125">
        <ele>124</ele>
        <time>2026-08-13T07:48:16.000Z</time>
        <extensions>
          <ns3:TrackPointExtension>
            <ns3:hr>73</ns3:hr>
            <ns3:cad>46</ns3:cad>
          </ns3:TrackPointExtension>
        </extensions>
      </trkpt>
      <trkpt lat="43.7748535908758640289306640625" lon="1.58550110645592212677001953125">
        <ele>124</ele>
        <time>2026-08-13T07:48:17.000Z</time>
        <extensions>
          <ns3:TrackPointExtension>
            <ns3:hr>73</ns3:hr>
            <ns3:cad>46</ns3:cad>
          </ns3:TrackPointExtension>
        </extensions>
      </trkpt>
      <trkpt lat="43.7748478911817073822021484375" lon="1.585509069263935089111328125">
        <ele>124</ele>
        <time>2026-08-13T07:48:18.000Z</time>
        <extensions>
          <ns3:TrackPointExtension>
            <ns3:hr>74</ns3:hr>
            <ns3:cad>46</ns3:cad>
          </ns3:TrackPointExtension>
        </extensions>
      </trkpt>
      <trkpt lat="43.77484277822077274322509765625" lon="1.58551082946360111236572265625">
        <ele>124</ele>
        <time>2026-08-13T07:48:19.000Z</time>
        <extensions>
          <ns3:TrackPointExtension>
            <ns3:hr>74</ns3:hr>
            <ns3:cad>46</ns3:cad>
          </ns3:TrackPointExtension>
        </extensions>
      </trkpt>
      <trkpt lat="43.77483271993696689605712890625" lon="1.58551652915775775909423828125">
        <ele>124</ele>
        <time>2026-08-13T07:48:20.000Z</time>
        <extensions>
          <ns3:TrackPointExtension>
            <ns3:hr>74</ns3:hr>
            <ns3:cad>44</ns3:cad>
          </ns3:TrackPointExtension>
        </extensions>
      </trkpt>
      <trkpt lat="43.77482333220541477203369140625" lon="1.58552474342286586761474609375">
        <ele>124</ele>
        <time>2026-08-13T07:48:21.000Z</time>
        <extensions>
          <ns3:TrackPointExtension>
            <ns3:hr>74</ns3:hr>
            <ns3:cad>44</ns3:cad>
          </ns3:TrackPointExtension>
        </extensions>
      </trkpt>
      <trkpt lat="43.774816878139972686767578125" lon="1.585531868040561676025390625">
        <ele>124</ele>
        <time>2026-08-13T07:48:22.000Z</time>
        <extensions>
          <ns3:TrackPointExtension>
            <ns3:hr>75</ns3:hr>
            <ns3:cad>44</ns3:cad>
          </ns3:TrackPointExtension>
        </extensions>
      </trkpt>
      <trkpt lat="43.77481109462678432464599609375" lon="1.58553429879248142242431640625">
        <ele>124</ele>
        <time>2026-08-13T07:48:23.000Z</time>
        <extensions>
          <ns3:TrackPointExtension>
            <ns3:hr>75</ns3:hr>
            <ns3:cad>44</ns3:cad>
          </ns3:TrackPointExtension>
        </extensions>
      </trkpt>
      <trkpt lat="43.77480170689523220062255859375" lon="1.58554418943822383880615234375">
        <ele>124</ele>
        <time>2026-08-13T07:48:24.000Z</time>
        <extensions>
          <ns3:TrackPointExtension>
            <ns3:hr>75</ns3:hr>
            <ns3:cad>43</ns3:cad>
          </ns3:TrackPointExtension>
        </extensions>
      </trkpt>
      <trkpt lat="43.7747955881059169769287109375" lon="1.58555089496076107025146484375">
        <ele>124.1999969482421875</ele>
        <time>2026-08-13T07:48:25.000Z</time>
        <extensions>
          <ns3:TrackPointExtension>
            <ns3:hr>76</ns3:hr>
            <ns3:cad>43</ns3:cad>
          </ns3:TrackPointExtension>
        </extensions>
      </trkpt>
      <trkpt lat="43.77479064278304576873779296875" lon="1.58555508591234683990478515625">
        <ele>124.1999969482421875</ele>
        <time>2026-08-13T07:48:26.000Z</time>
        <extensions>
          <ns3:TrackPointExtension>
            <ns3:hr>76</ns3:hr>
            <ns3:cad>43</ns3:cad>
          </ns3:TrackPointExtension>
        </extensions>
      </trkpt>
      <trkpt lat="43.774780668318271636962890625" lon="1.58556112088263034820556640625">
        <ele>124.1999969482421875</ele>
        <time>2026-08-13T07:48:27.000Z</time>
        <extensions>
          <ns3:TrackPointExtension>
            <ns3:hr>76</ns3:hr>
            <ns3:cad>43</ns3:cad>
          </ns3:TrackPointExtension>
        </extensions>
      </trkpt>
      <trkpt lat="43.7747711129486560821533203125" lon="1.585569083690643310546875">
        <ele>124.1999969482421875</ele>
        <time>2026-08-13T07:48:28.000Z</time>
        <extensions>
          <ns3:TrackPointExtension>
            <ns3:hr>75</ns3:hr>
            <ns3:cad>43</ns3:cad>
          </ns3:TrackPointExtension>
        </extensions>
      </trkpt>
      <trkpt lat="43.77476348541676998138427734375" lon="1.58557469956576824188232421875">
        <ele>124.1999969482421875</ele>
        <time>2026-08-13T07:48:29.000Z</time>
        <extensions>
          <ns3:TrackPointExtension>
            <ns3:hr>75</ns3:hr>
            <ns3:cad>44</ns3:cad>
          </ns3:TrackPointExtension>
        </extensions>
      </trkpt>
      <trkpt lat="43.7747575342655181884765625" lon="1.58558056689798831939697265625">
        <ele>124.1999969482421875</ele>
        <time>2026-08-13T07:48:30.000Z</time>
        <extensions>
          <ns3:TrackPointExtension>
            <ns3:hr>75</ns3:hr>
            <ns3:cad>44</ns3:cad>
          </ns3:TrackPointExtension>
        </extensions>
      </trkpt>
      <trkpt lat="43.77474420703947544097900390625" lon="1.58558945171535015106201171875">
        <ele>124.1999969482421875</ele>
        <time>2026-08-13T07:48:31.000Z</time>
        <extensions>
          <ns3:TrackPointExtension>
            <ns3:hr>75</ns3:hr>
            <ns3:cad>43</ns3:cad>
          </ns3:TrackPointExtension>
        </extensions>
      </trkpt>
      <trkpt lat="43.774735070765018463134765625" lon="1.585598252713680267333984375">
        <ele>124.1999969482421875</ele>
        <time>2026-08-13T07:48:32.000Z</time>
        <extensions>
          <ns3:TrackPointExtension>
            <ns3:hr>75</ns3:hr>
            <ns3:cad>43</ns3:cad>
          </ns3:TrackPointExtension>
        </extensions>
      </trkpt>
      <trkpt lat="43.774726353585720062255859375" lon="1.58559984527528285980224609375">
        <ele>124</ele>
        <time>2026-08-13T07:48:33.000Z</time>
        <extensions>
          <ns3:TrackPointExtension>
            <ns3:hr>75</ns3:hr>
            <ns3:cad>43</ns3:cad>
          </ns3:TrackPointExtension>
        </extensions>
      </trkpt>
      <trkpt lat="43.7747157923877239227294921875" lon="1.58560336567461490631103515625">
        <ele>124</ele>
        <time>2026-08-13T07:48:34.000Z</time>
        <extensions>
          <ns3:TrackPointExtension>
            <ns3:hr>75</ns3:hr>
            <ns3:cad>42</ns3:cad>
          </ns3:TrackPointExtension>
        </extensions>
      </trkpt>
      <trkpt lat="43.77470363862812519073486328125" lon="1.58561266958713531494140625">
        <ele>124</ele>
        <time>2026-08-13T07:48:35.000Z</time>
        <extensions>
          <ns3:TrackPointExtension>
            <ns3:hr>75</ns3:hr>
            <ns3:cad>42</ns3:cad>
          </ns3:TrackPointExtension>
        </extensions>
      </trkpt>
      <trkpt lat="43.7746966816484928131103515625" lon="1.5856222249567508697509765625">
        <ele>124</ele>
        <time>2026-08-13T07:48:36.000Z</time>
        <extensions>
          <ns3:TrackPointExtension>
            <ns3:hr>74</ns3:hr>
            <ns3:cad>42</ns3:cad>
          </ns3:TrackPointExtension>
        </extensions>
      </trkpt>
      <trkpt lat="43.77468846738338470458984375" lon="1.58562264405190944671630859375">
        <ele>124</ele>
        <time>2026-08-13T07:48:37.000Z</time>
        <extensions>
          <ns3:TrackPointExtension>
            <ns3:hr>74</ns3:hr>
            <ns3:cad>44</ns3:cad>
          </ns3:TrackPointExtension>
        </extensions>
      </trkpt>
      <trkpt lat="43.77467664889991283416748046875" lon="1.58562968485057353973388671875">
        <ele>124</ele>
        <time>2026-08-13T07:48:38.000Z</time>
        <extensions>
          <ns3:TrackPointExtension>
            <ns3:hr>74</ns3:hr>
            <ns3:cad>44</ns3:cad>
          </ns3:TrackPointExtension>
        </extensions>
      </trkpt>
      <trkpt lat="43.77466835081577301025390625" lon="1.58563538454473018646240234375">
        <ele>124</ele>
        <time>2026-08-13T07:48:39.000Z</time>
        <extensions>
          <ns3:TrackPointExtension>
            <ns3:hr>74</ns3:hr>
            <ns3:cad>44</ns3:cad>
          </ns3:TrackPointExtension>
        </extensions>
      </trkpt>
      <trkpt lat="43.774661980569362640380859375" lon="1.58563957549631595611572265625">
        <ele>124.1999969482421875</ele>
        <time>2026-08-13T07:48:40.000Z</time>
        <extensions>
          <ns3:TrackPointExtension>
            <ns3:hr>74</ns3:hr>
            <ns3:cad>44</ns3:cad>
          </ns3:TrackPointExtension>
        </extensions>
      </trkpt>
      <trkpt lat="43.77465493977069854736328125" lon="1.585645191371440887451171875">
        <ele>124.1999969482421875</ele>
        <time>2026-08-13T07:48:41.000Z</time>
        <extensions>
          <ns3:TrackPointExtension>
            <ns3:hr>73</ns3:hr>
            <ns3:cad>44</ns3:cad>
          </ns3:TrackPointExtension>
        </extensions>
      </trkpt>
      <trkpt lat="43.7746467255055904388427734375" lon="1.58565499819815158843994140625">
        <ele>124.1999969482421875</ele>
        <time>2026-08-13T07:48:42.000Z</time>
        <extensions>
          <ns3:TrackPointExtension>
            <ns3:hr>73</ns3:hr>
            <ns3:cad>42</ns3:cad>
          </ns3:TrackPointExtension>
        </extensions>
      </trkpt>
      <trkpt lat="43.77464144490659236907958984375" lon="1.5856624580919742584228515625">
        <ele>124.1999969482421875</ele>
        <time>2026-08-13T07:48:43.000Z</time>
        <extensions>
          <ns3:TrackPointExtension>
            <ns3:hr>73</ns3:hr>
            <ns3:cad>42</ns3:cad>
          </ns3:TrackPointExtension>
        </extensions>
      </trkpt>
      <trkpt lat="43.77463792450726032257080078125" lon="1.58566572703421115875244140625">
        <ele>124</ele>
        <time>2026-08-13T07:48:44.000Z</time>
        <extensions>
          <ns3:TrackPointExtension>
            <ns3:hr>73</ns3:hr>
            <ns3:cad>42</ns3:cad>
          </ns3:TrackPointExtension>
        </extensions>
      </trkpt>
      <trkpt lat="43.77463289536535739898681640625" lon="1.58567461185157299041748046875">
        <ele>124</ele>
        <time>2026-08-13T07:48:45.000Z</time>
        <extensions>
          <ns3:TrackPointExtension>
            <ns3:hr>74</ns3:hr>
            <ns3:cad>42</ns3:cad>
          </ns3:TrackPointExtension>
        </extensions>
      </trkpt>
      <trkpt lat="43.77462484873831272125244140625" lon="1.58568701706826686859130859375">
        <ele>124</ele>
        <time>2026-08-13T07:48:46.000Z</time>
        <extensions>
          <ns3:TrackPointExtension>
            <ns3:hr>73</ns3:hr>
            <ns3:cad>42</ns3:cad>
          </ns3:TrackPointExtension>
        </extensions>
      </trkpt>
      <trkpt lat="43.77461914904415607452392578125" lon="1.5856892801821231842041015625">
        <ele>124</ele>
        <time>2026-08-13T07:48:47.000Z</time>
        <extensions>
          <ns3:TrackPointExtension>
            <ns3:hr>74</ns3:hr>
            <ns3:cad>45</ns3:cad>
          </ns3:TrackPointExtension>
        </extensions>
      </trkpt>
      <trkpt lat="43.7746153771877288818359375" lon="1.5856939740478992462158203125">
        <ele>124</ele>
        <time>2026-08-13T07:48:48.000Z</time>
        <extensions>
          <ns3:TrackPointExtension>
            <ns3:hr>74</ns3:hr>
            <ns3:cad>45</ns3:cad>
          </ns3:TrackPointExtension>
        </extensions>
      </trkpt>
      <trkpt lat="43.77460741437971591949462890625" lon="1.585706211626529693603515625">
        <ele>124</ele>
        <time>2026-08-13T07:48:49.000Z</time>
        <extensions>
          <ns3:TrackPointExtension>
            <ns3:hr>75</ns3:hr>
            <ns3:cad>45</ns3:cad>
          </ns3:TrackPointExtension>
        </extensions>
      </trkpt>
      <trkpt lat="43.7746024690568447113037109375" lon="1.5857154317200183868408203125">
        <ele>124</ele>
        <time>2026-08-13T07:48:50.000Z</time>
        <extensions>
          <ns3:TrackPointExtension>
            <ns3:hr>75</ns3:hr>
            <ns3:cad>44</ns3:cad>
          </ns3:TrackPointExtension>
        </extensions>
      </trkpt>
      <trkpt lat="43.7745977751910686492919921875" lon="1.58571853302419185638427734375">
        <ele>124</ele>
        <time>2026-08-13T07:48:51.000Z</time>
        <extensions>
          <ns3:TrackPointExtension>
            <ns3:hr>75</ns3:hr>
            <ns3:cad>44</ns3:cad>
          </ns3:TrackPointExtension>
        </extensions>
      </trkpt>
      <trkpt lat="43.774587213993072509765625" lon="1.58572859130799770355224609375">
        <ele>124</ele>
        <time>2026-08-13T07:48:52.000Z</time>
        <extensions>
          <ns3:TrackPointExtension>
            <ns3:hr>75</ns3:hr>
            <ns3:cad>44</ns3:cad>
          </ns3:TrackPointExtension>
        </extensions>
      </trkpt>
      <trkpt lat="43.7745800055563449859619140625" lon="1.58573730848729610443115234375">
        <ele>124</ele>
        <time>2026-08-13T07:48:53.000Z</time>
        <extensions>
          <ns3:TrackPointExtension>
            <ns3:hr>75</ns3:hr>
            <ns3:cad>43</ns3:cad>
          </ns3:TrackPointExtension>
        </extensions>
      </trkpt>
      <trkpt lat="43.7745749764144420623779296875" lon="1.585740745067596435546875">
        <ele>124</ele>
        <time>2026-08-13T07:48:54.000Z</time>
        <extensions>
          <ns3:TrackPointExtension>
            <ns3:hr>75</ns3:hr>
            <ns3:cad>42</ns3:cad>
          </ns3:TrackPointExtension>
        </extensions>
      </trkpt>
      <trkpt lat="43.7745665945112705230712890625" lon="1.58575189299881458282470703125">
        <ele>124</ele>
        <time>2026-08-13T07:48:55.000Z</time>
        <extensions>
          <ns3:TrackPointExtension>
            <ns3:hr>75</ns3:hr>
            <ns3:cad>42</ns3:cad>
          </ns3:TrackPointExtension>
        </extensions>
      </trkpt>
      <trkpt lat="43.77455695532262325286865234375" lon="1.58576195128262042999267578125">
        <ele>124.1999969482421875</ele>
        <time>2026-08-13T07:48:56.000Z</time>
        <extensions>
          <ns3:TrackPointExtension>
            <ns3:hr>74</ns3:hr>
            <ns3:cad>42</ns3:cad>
          </ns3:TrackPointExtension>
        </extensions>
      </trkpt>
      <trkpt lat="43.77455209381878376007080078125" lon="1.58577217720448970794677734375">
        <ele>124.1999969482421875</ele>
        <time>2026-08-13T07:48:57.000Z</time>
        <extensions>
          <ns3:TrackPointExtension>
            <ns3:hr>75</ns3:hr>
            <ns3:cad>42</ns3:cad>
          </ns3:TrackPointExtension>
        </extensions>
      </trkpt>
      <trkpt lat="43.77454807050526142120361328125" lon="1.58577896654605865478515625">
        <ele>124.1999969482421875</ele>
        <time>2026-08-13T07:48:58.000Z</time>
        <extensions>
          <ns3:TrackPointExtension>
            <ns3:hr>75</ns3:hr>
            <ns3:cad>42</ns3:cad>
          </ns3:TrackPointExtension>
        </extensions>
      </trkpt>
      <trkpt lat="43.77454186789691448211669921875" lon="1.58578692935407161712646484375">
        <ele>124</ele>
        <time>2026-08-13T07:48:59.000Z</time>
        <extensions>
          <ns3:TrackPointExtension>
            <ns3:hr>76</ns3:hr>
            <ns3:cad>42</ns3:cad>
          </ns3:TrackPointExtension>
        </extensions>
      </trkpt>
      <trkpt lat="43.774530552327632904052734375" lon="1.585798747837543487548828125">
        <ele>124</ele>
        <time>2026-08-13T07:49:00.000Z</time>
        <extensions>
          <ns3:TrackPointExtension>
            <ns3:hr>77</ns3:hr>
            <ns3:cad>42</ns3:cad>
          </ns3:TrackPointExtension>
        </extensions>
      </trkpt>
      <trkpt lat="43.77452376298606395721435546875" lon="1.58580972813069820404052734375">
        <ele>124</ele>
        <time>2026-08-13T07:49:01.000Z</time>
        <extensions>
          <ns3:TrackPointExtension>
            <ns3:hr>79</ns3:hr>
            <ns3:cad>42</ns3:cad>
          </ns3:TrackPointExtension>
        </extensions>
      </trkpt>
      <trkpt lat="43.77451521344482898712158203125" lon="1.58581693656742572784423828125">
        <ele>123.8000030517578125</ele>
        <time>2026-08-13T07:49:02.000Z</time>
        <extensions>
          <ns3:TrackPointExtension>
            <ns3:hr>80</ns3:hr>
            <ns3:cad>42</ns3:cad>
          </ns3:TrackPointExtension>
        </extensions>
      </trkpt>
      <trkpt lat="43.774505741894245147705078125" lon="1.58582649193704128265380859375">
        <ele>123.8000030517578125</ele>
        <time>2026-08-13T07:49:03.000Z</time>
        <extensions>
          <ns3:TrackPointExtension>
            <ns3:hr>80</ns3:hr>
            <ns3:cad>42</ns3:cad>
          </ns3:TrackPointExtension>
        </extensions>
      </trkpt>
      <trkpt lat="43.77449610270559787750244140625" lon="1.5858399868011474609375">
        <ele>123.8000030517578125</ele>
        <time>2026-08-13T07:49:04.000Z</time>
        <extensions>
          <ns3:TrackPointExtension>
            <ns3:hr>80</ns3:hr>
            <ns3:cad>46</ns3:cad>
          </ns3:TrackPointExtension>
        </extensions>
      </trkpt>
      <trkpt lat="43.774488978087902069091796875" lon="1.58585147000849246978759765625">
        <ele>123.8000030517578125</ele>
        <time>2026-08-13T07:49:05.000Z</time>
        <extensions>
          <ns3:TrackPointExtension>
            <ns3:hr>79</ns3:hr>
            <ns3:cad>46</ns3:cad>
          </ns3:TrackPointExtension>
        </extensions>
      </trkpt>
      <trkpt lat="43.774481602013111114501953125" lon="1.58585784025490283966064453125">
        <ele>123.8000030517578125</ele>
        <time>2026-08-13T07:49:06.000Z</time>
        <extensions>
          <ns3:TrackPointExtension>
            <ns3:hr>79</ns3:hr>
            <ns3:cad>46</ns3:cad>
          </ns3:TrackPointExtension>
        </extensions>
      </trkpt>
      <trkpt lat="43.77447213046252727508544921875" lon="1.585869826376438140869140625">
        <ele>123.8000030517578125</ele>
        <time>2026-08-13T07:49:07.000Z</time>
        <extensions>
          <ns3:TrackPointExtension>
            <ns3:hr>79</ns3:hr>
            <ns3:cad>45</ns3:cad>
          </ns3:TrackPointExtension>
        </extensions>
      </trkpt>
      <trkpt lat="43.774462826550006866455078125" lon="1.58588348887860774993896484375">
        <ele>123.8000030517578125</ele>
        <time>2026-08-13T07:49:08.000Z</time>
        <extensions>
          <ns3:TrackPointExtension>
            <ns3:hr>79</ns3:hr>
            <ns3:cad>45</ns3:cad>
          </ns3:TrackPointExtension>
        </extensions>
      </trkpt>
      <trkpt lat="43.774453438818454742431640625" lon="1.58588969148695468902587890625">
        <ele>123.8000030517578125</ele>
        <time>2026-08-13T07:49:09.000Z</time>
        <extensions>
          <ns3:TrackPointExtension>
            <ns3:hr>78</ns3:hr>
            <ns3:cad>45</ns3:cad>
          </ns3:TrackPointExtension>
        </extensions>
      </trkpt>
      <trkpt lat="43.77444765530526638031005859375" lon="1.58589405007660388946533203125">
        <ele>123.8000030517578125</ele>
        <time>2026-08-13T07:49:10.000Z</time>
        <extensions>
          <ns3:TrackPointExtension>
            <ns3:hr>78</ns3:hr>
            <ns3:cad>44</ns3:cad>
          </ns3:TrackPointExtension>
        </extensions>
      </trkpt>
      <trkpt lat="43.77443742938339710235595703125" lon="1.58590612001717090606689453125">
        <ele>123.8000030517578125</ele>
        <time>2026-08-13T07:49:11.000Z</time>
        <extensions>
          <ns3:TrackPointExtension>
            <ns3:hr>78</ns3:hr>
            <ns3:cad>43</ns3:cad>
          </ns3:TrackPointExtension>
        </extensions>
      </trkpt>
      <trkpt lat="43.77443122677505016326904296875" lon="1.58591316081583499908447265625">
        <ele>123.8000030517578125</ele>
        <time>2026-08-13T07:49:12.000Z</time>
        <extensions>
          <ns3:TrackPointExtension>
            <ns3:hr>78</ns3:hr>
            <ns3:cad>43</ns3:cad>
          </ns3:TrackPointExtension>
        </extensions>
      </trkpt>
      <trkpt lat="43.77442250959575176239013671875" lon="1.58591575920581817626953125">
        <ele>123.8000030517578125</ele>
        <time>2026-08-13T07:49:13.000Z</time>
        <extensions>
          <ns3:TrackPointExtension>
            <ns3:hr>79</ns3:hr>
            <ns3:cad>43</ns3:cad>
          </ns3:TrackPointExtension>
        </extensions>
      </trkpt>
      <trkpt lat="43.7744133733212947845458984375" lon="1.5859199501574039459228515625">
        <ele>123.8000030517578125</ele>
        <time>2026-08-13T07:49:14.000Z</time>
        <extensions>
          <ns3:TrackPointExtension>
            <ns3:hr>78</ns3:hr>
            <ns3:cad>43</ns3:cad>
          </ns3:TrackPointExtension>
        </extensions>
      </trkpt>
      <trkpt lat="43.77440289594233036041259765625" lon="1.58592506311833858489990234375">
        <ele>123.59999847412109375</ele>
        <time>2026-08-13T07:49:15.000Z</time>
        <extensions>
          <ns3:TrackPointExtension>
            <ns3:hr>78</ns3:hr>
            <ns3:cad>43</ns3:cad>
          </ns3:TrackPointExtension>
        </extensions>
      </trkpt>
      <trkpt lat="43.7743966095149517059326171875" lon="1.58592623658478260040283203125">
        <ele>123.8000030517578125</ele>
        <time>2026-08-13T07:49:16.000Z</time>
        <extensions>
          <ns3:TrackPointExtension>
            <ns3:hr>78</ns3:hr>
            <ns3:cad>44</ns3:cad>
          </ns3:TrackPointExtension>
        </extensions>
      </trkpt>
      <trkpt lat="43.774388730525970458984375" lon="1.58592891879379749298095703125">
        <ele>123.8000030517578125</ele>
        <time>2026-08-13T07:49:17.000Z</time>
        <extensions>
          <ns3:TrackPointExtension>
            <ns3:hr>78</ns3:hr>
            <ns3:cad>44</ns3:cad>
          </ns3:TrackPointExtension>
        </extensions>
      </trkpt>
      <trkpt lat="43.77437909133732318878173828125" lon="1.585936211049556732177734375">
        <ele>123.8000030517578125</ele>
        <time>2026-08-13T07:49:18.000Z</time>
        <extensions>
          <ns3:TrackPointExtension>
            <ns3:hr>78</ns3:hr>
            <ns3:cad>42</ns3:cad>
          </ns3:TrackPointExtension>
        </extensions>
      </trkpt>
      <trkpt lat="43.77437154762446880340576171875" lon="1.58593495376408100128173828125">
        <ele>123.8000030517578125</ele>
        <time>2026-08-13T07:49:19.000Z</time>
        <extensions>
          <ns3:TrackPointExtension>
            <ns3:hr>77</ns3:hr>
            <ns3:cad>42</ns3:cad>
          </ns3:TrackPointExtension>
        </extensions>
      </trkpt>
      <trkpt lat="43.7743624113500118255615234375" lon="1.58593294210731983184814453125">
        <ele>123.8000030517578125</ele>
        <time>2026-08-13T07:49:20.000Z</time>
        <extensions>
          <ns3:TrackPointExtension>
            <ns3:hr>77</ns3:hr>
            <ns3:cad>42</ns3:cad>
          </ns3:TrackPointExtension>
        </extensions>
      </trkpt>
      <trkpt lat="43.774351179599761962890625" lon="1.58593629486858844757080078125">
        <ele>123.8000030517578125</ele>
        <time>2026-08-13T07:49:21.000Z</time>
        <extensions>
          <ns3:TrackPointExtension>
            <ns3:hr>77</ns3:hr>
            <ns3:cad>41</ns3:cad>
          </ns3:TrackPointExtension>
        </extensions>
      </trkpt>
      <trkpt lat="43.77434380352497100830078125" lon="1.58593646250665187835693359375">
        <ele>123.8000030517578125</ele>
        <time>2026-08-13T07:49:22.000Z</time>
        <extensions>
          <ns3:TrackPointExtension>
            <ns3:hr>77</ns3:hr>
            <ns3:cad>40</ns3:cad>
          </ns3:TrackPointExtension>
        </extensions>
      </trkpt>
      <trkpt lat="43.77433441579341888427734375" lon="1.58594191074371337890625">
        <ele>123.8000030517578125</ele>
        <time>2026-08-13T07:49:23.000Z</time>
        <extensions>
          <ns3:TrackPointExtension>
            <ns3:hr>77</ns3:hr>
            <ns3:cad>40</ns3:cad>
          </ns3:TrackPointExtension>
        </extensions>
      </trkpt>
      <trkpt lat="43.7743230164051055908203125" lon="1.5859494544565677642822265625">
        <ele>123.8000030517578125</ele>
        <time>2026-08-13T07:49:24.000Z</time>
        <extensions>
          <ns3:TrackPointExtension>
            <ns3:hr>77</ns3:hr>
            <ns3:cad>40</ns3:cad>
          </ns3:TrackPointExtension>
        </extensions>
      </trkpt>
      <trkpt lat="43.77431564033031463623046875" lon="1.58595171757042407989501953125">
        <ele>123.8000030517578125</ele>
        <time>2026-08-13T07:49:25.000Z</time>
        <extensions>
          <ns3:TrackPointExtension>
            <ns3:hr>76</ns3:hr>
            <ns3:cad>40</ns3:cad>
          </ns3:TrackPointExtension>
        </extensions>
      </trkpt>
      <trkpt lat="43.7743124552071094512939453125" lon="1.5859512984752655029296875">
        <ele>124</ele>
        <time>2026-08-13T07:49:26.000Z</time>
        <extensions>
          <ns3:TrackPointExtension>
            <ns3:hr>75</ns3:hr>
            <ns3:cad>40</ns3:cad>
          </ns3:TrackPointExtension>
        </extensions>
      </trkpt>
      <trkpt lat="43.77430130727589130401611328125" lon="1.58595926128327846527099609375">
        <ele>124</ele>
        <time>2026-08-13T07:49:27.000Z</time>
        <extensions>
          <ns3:TrackPointExtension>
            <ns3:hr>74</ns3:hr>
            <ns3:cad>40</ns3:cad>
          </ns3:TrackPointExtension>
        </extensions>
      </trkpt>
      <trkpt lat="43.77429460175335407257080078125" lon="1.58596881665289402008056640625">
        <ele>124</ele>
        <time>2026-08-13T07:49:28.000Z</time>
        <extensions>
          <ns3:TrackPointExtension>
            <ns3:hr>74</ns3:hr>
            <ns3:cad>41</ns3:cad>
          </ns3:TrackPointExtension>
        </extensions>
      </trkpt>
      <trkpt lat="43.7742883153259754180908203125" lon="1.5859749354422092437744140625">
        <ele>124</ele>
        <time>2026-08-13T07:49:29.000Z</time>
        <extensions>
          <ns3:TrackPointExtension>
            <ns3:hr>73</ns3:hr>
            <ns3:cad>41</ns3:cad>
          </ns3:TrackPointExtension>
        </extensions>
      </trkpt>
      <trkpt lat="43.7742826156318187713623046875" lon="1.5859816409647464752197265625">
        <ele>124</ele>
        <time>2026-08-13T07:49:30.000Z</time>
        <extensions>
          <ns3:TrackPointExtension>
            <ns3:hr>73</ns3:hr>
            <ns3:cad>41</ns3:cad>
          </ns3:TrackPointExtension>
        </extensions>
      </trkpt>
      <trkpt lat="43.7742720544338226318359375" lon="1.58599245361983776092529296875">
        <ele>124</ele>
        <time>2026-08-13T07:49:31.000Z</time>
        <extensions>
          <ns3:TrackPointExtension>
            <ns3:hr>73</ns3:hr>
            <ns3:cad>42</ns3:cad>
          </ns3:TrackPointExtension>
        </extensions>
      </trkpt>
      <trkpt lat="43.77426526509225368499755859375" lon="1.58600024878978729248046875">
        <ele>123.8000030517578125</ele>
        <time>2026-08-13T07:49:32.000Z</time>
        <extensions>
          <ns3:TrackPointExtension>
            <ns3:hr>73</ns3:hr>
            <ns3:cad>43</ns3:cad>
          </ns3:TrackPointExtension>
        </extensions>
      </trkpt>
      <trkpt lat="43.7742611579596996307373046875" lon="1.58600603230297565460205078125">
        <ele>123.8000030517578125</ele>
        <time>2026-08-13T07:49:33.000Z</time>
        <extensions>
          <ns3:TrackPointExtension>
            <ns3:hr>74</ns3:hr>
            <ns3:cad>43</ns3:cad>
          </ns3:TrackPointExtension>
        </extensions>
      </trkpt>
      <trkpt lat="43.774251602590084075927734375" lon="1.58601768314838409423828125">
        <ele>123.8000030517578125</ele>
        <time>2026-08-13T07:49:34.000Z</time>
        <extensions>
          <ns3:TrackPointExtension>
            <ns3:hr>74</ns3:hr>
            <ns3:cad>43</ns3:cad>
          </ns3:TrackPointExtension>
        </extensions>
      </trkpt>
      <trkpt lat="43.77424246631562709808349609375" lon="1.58602195791900157928466796875">
        <ele>123.8000030517578125</ele>
        <time>2026-08-13T07:49:35.000Z</time>
        <extensions>
          <ns3:TrackPointExtension>
            <ns3:hr>74</ns3:hr>
            <ns3:cad>43</ns3:cad>
          </ns3:TrackPointExtension>
        </extensions>
      </trkpt>
      <trkpt lat="43.77423383295536041259765625" lon="1.5860269032418727874755859375">
        <ele>123.8000030517578125</ele>
        <time>2026-08-13T07:49:36.000Z</time>
        <extensions>
          <ns3:TrackPointExtension>
            <ns3:hr>74</ns3:hr>
            <ns3:cad>43</ns3:cad>
          </ns3:TrackPointExtension>
        </extensions>
      </trkpt>
      <trkpt lat="43.7742291390895843505859375" lon="1.58603184856474399566650390625">
        <ele>123.8000030517578125</ele>
        <time>2026-08-13T07:49:37.000Z</time>
        <extensions>
          <ns3:TrackPointExtension>
            <ns3:hr>75</ns3:hr>
            <ns3:cad>42</ns3:cad>
          </ns3:TrackPointExtension>
        </extensions>
      </trkpt>
      <trkpt lat="43.774216733872890472412109375" lon="1.58604291267693042755126953125">
        <ele>123.8000030517578125</ele>
        <time>2026-08-13T07:49:38.000Z</time>
        <extensions>
          <ns3:TrackPointExtension>
            <ns3:hr>75</ns3:hr>
            <ns3:cad>42</ns3:cad>
          </ns3:TrackPointExtension>
        </extensions>
      </trkpt>
      <trkpt lat="43.77420893870294094085693359375" lon="1.5860478579998016357421875">
        <ele>123.8000030517578125</ele>
        <time>2026-08-13T07:49:39.000Z</time>
        <extensions>
          <ns3:TrackPointExtension>
            <ns3:hr>76</ns3:hr>
            <ns3:cad>42</ns3:cad>
          </ns3:TrackPointExtension>
        </extensions>
      </trkpt>
      <trkpt lat="43.774203322827816009521484375" lon="1.5860473550856113433837890625">
        <ele>123.8000030517578125</ele>
        <time>2026-08-13T07:49:40.000Z</time>
        <extensions>
          <ns3:TrackPointExtension>
            <ns3:hr>75</ns3:hr>
            <ns3:cad>43</ns3:cad>
          </ns3:TrackPointExtension>
        </extensions>
      </trkpt>
      <trkpt lat="43.77419888041913509368896484375" lon="1.58604945056140422821044921875">
        <ele>123.8000030517578125</ele>
        <time>2026-08-13T07:49:41.000Z</time>
        <extensions>
          <ns3:TrackPointExtension>
            <ns3:hr>75</ns3:hr>
            <ns3:cad>43</ns3:cad>
          </ns3:TrackPointExtension>
        </extensions>
      </trkpt>
      <trkpt lat="43.77418748103082180023193359375" lon="1.58605649136006832122802734375">
        <ele>123.8000030517578125</ele>
        <time>2026-08-13T07:49:42.000Z</time>
        <extensions>
          <ns3:TrackPointExtension>
            <ns3:hr>74</ns3:hr>
            <ns3:cad>43</ns3:cad>
          </ns3:TrackPointExtension>
        </extensions>
      </trkpt>
      <trkpt lat="43.7741803564131259918212890625" lon="1.58605649136006832122802734375">
        <ele>124</ele>
        <time>2026-08-13T07:49:43.000Z</time>
        <extensions>
          <ns3:TrackPointExtension>
            <ns3:hr>72</ns3:hr>
            <ns3:cad>43</ns3:cad>
          </ns3:TrackPointExtension>
        </extensions>
      </trkpt>
      <trkpt lat="43.77417474053800106048583984375" lon="1.58605380915105342864990234375">
        <ele>124</ele>
        <time>2026-08-13T07:49:44.000Z</time>
        <extensions>
          <ns3:TrackPointExtension>
            <ns3:hr>71</ns3:hr>
            <ns3:cad>43</ns3:cad>
          </ns3:TrackPointExtension>
        </extensions>
      </trkpt>
      <trkpt lat="43.774166107177734375" lon="1.5860545635223388671875">
        <ele>124</ele>
        <time>2026-08-13T07:49:45.000Z</time>
        <extensions>
          <ns3:TrackPointExtension>
            <ns3:hr>71</ns3:hr>
            <ns3:cad>43</ns3:cad>
          </ns3:TrackPointExtension>
        </extensions>
      </trkpt>
      <trkpt lat="43.7741582281887531280517578125" lon="1.5860517136752605438232421875">
        <ele>124</ele>
        <time>2026-08-13T07:49:46.000Z</time>
        <extensions>
          <ns3:TrackPointExtension>
            <ns3:hr>72</ns3:hr>
            <ns3:cad>43</ns3:cad>
          </ns3:TrackPointExtension>
        </extensions>
      </trkpt>
      <trkpt lat="43.77415311522781848907470703125" lon="1.586043834686279296875">
        <ele>124</ele>
        <time>2026-08-13T07:49:47.000Z</time>
        <extensions>
          <ns3:TrackPointExtension>
            <ns3:hr>72</ns3:hr>
            <ns3:cad>42</ns3:cad>
          </ns3:TrackPointExtension>
        </extensions>
      </trkpt>
      <trkpt lat="43.77414154820144176483154296875" lon="1.5860342793166637420654296875">
        <ele>124</ele>
        <time>2026-08-13T07:49:48.000Z</time>
        <extensions>
          <ns3:TrackPointExtension>
            <ns3:hr>72</ns3:hr>
            <ns3:cad>41</ns3:cad>
          </ns3:TrackPointExtension>
        </extensions>
      </trkpt>
      <trkpt lat="43.77413433976471424102783203125" lon="1.58603017218410968780517578125">
        <ele>124</ele>
        <time>2026-08-13T07:49:49.000Z</time>
        <extensions>
          <ns3:TrackPointExtension>
            <ns3:hr>72</ns3:hr>
            <ns3:cad>41</ns3:cad>
          </ns3:TrackPointExtension>
        </extensions>
      </trkpt>
      <trkpt lat="43.77412713132798671722412109375" lon="1.5860282443463802337646484375">
        <ele>124</ele>
        <time>2026-08-13T07:49:50.000Z</time>
        <extensions>
          <ns3:TrackPointExtension>
            <ns3:hr>72</ns3:hr>
            <ns3:cad>41</ns3:cad>
          </ns3:TrackPointExtension>
        </extensions>
      </trkpt>
      <trkpt lat="43.77411321736872196197509765625" lon="1.5860232152044773101806640625">
        <ele>124.1999969482421875</ele>
        <time>2026-08-13T07:49:51.000Z</time>
        <extensions>
          <ns3:TrackPointExtension>
            <ns3:hr>73</ns3:hr>
            <ns3:cad>41</ns3:cad>
          </ns3:TrackPointExtension>
        </extensions>
      </trkpt>
      <trkpt lat="43.77410483546555042266845703125" lon="1.58602229319512844085693359375">
        <ele>124.1999969482421875</ele>
        <time>2026-08-13T07:49:52.000Z</time>
        <extensions>
          <ns3:TrackPointExtension>
            <ns3:hr>74</ns3:hr>
            <ns3:cad>40</ns3:cad>
          </ns3:TrackPointExtension>
        </extensions>
      </trkpt>
      <trkpt lat="43.77410081215202808380126953125" lon="1.58602095209062099456787109375">
        <ele>124.1999969482421875</ele>
        <time>2026-08-13T07:49:53.000Z</time>
        <extensions>
          <ns3:TrackPointExtension>
            <ns3:hr>74</ns3:hr>
            <ns3:cad>40</ns3:cad>
          </ns3:TrackPointExtension>
        </extensions>
      </trkpt>
      <trkpt lat="43.77409008331596851348876953125" lon="1.5860210359096527099609375">
        <ele>124.1999969482421875</ele>
        <time>2026-08-13T07:49:54.000Z</time>
        <extensions>
          <ns3:TrackPointExtension>
            <ns3:hr>74</ns3:hr>
            <ns3:cad>41</ns3:cad>
          </ns3:TrackPointExtension>
        </extensions>
      </trkpt>
      <trkpt lat="43.77408086322247982025146484375" lon="1.58602195791900157928466796875">
        <ele>124.1999969482421875</ele>
        <time>2026-08-13T07:49:55.000Z</time>
        <extensions>
          <ns3:TrackPointExtension>
            <ns3:hr>74</ns3:hr>
            <ns3:cad>41</ns3:cad>
          </ns3:TrackPointExtension>
        </extensions>
      </trkpt>
      <trkpt lat="43.7740764208137989044189453125" lon="1.58601709641516208648681640625">
        <ele>124.1999969482421875</ele>
        <time>2026-08-13T07:49:56.000Z</time>
        <extensions>
          <ns3:TrackPointExtension>
            <ns3:hr>74</ns3:hr>
            <ns3:cad>41</ns3:cad>
          </ns3:TrackPointExtension>
        </extensions>
      </trkpt>
      <trkpt lat="43.774065189063549041748046875" lon="1.58601776696741580963134765625">
        <ele>124.1999969482421875</ele>
        <time>2026-08-13T07:49:57.000Z</time>
        <extensions>
          <ns3:TrackPointExtension>
            <ns3:hr>74</ns3:hr>
            <ns3:cad>41</ns3:cad>
          </ns3:TrackPointExtension>
        </extensions>
      </trkpt>
      <trkpt lat="43.7740574777126312255859375" lon="1.5860208682715892791748046875">
        <ele>124.1999969482421875</ele>
        <time>2026-08-13T07:49:58.000Z</time>
        <extensions>
          <ns3:TrackPointExtension>
            <ns3:hr>74</ns3:hr>
            <ns3:cad>41</ns3:cad>
          </ns3:TrackPointExtension>
        </extensions>
      </trkpt>
      <trkpt lat="43.77405219711363315582275390625" lon="1.58602195791900157928466796875">
        <ele>124.1999969482421875</ele>
        <time>2026-08-13T07:49:59.000Z</time>
        <extensions>
          <ns3:TrackPointExtension>
            <ns3:hr>73</ns3:hr>
            <ns3:cad>41</ns3:cad>
          </ns3:TrackPointExtension>
        </extensions>
      </trkpt>
      <trkpt lat="43.7740432284772396087646484375" lon="1.58602698706090450286865234375">
        <ele>124.1999969482421875</ele>
        <time>2026-08-13T07:50:00.000Z</time>
        <extensions>
          <ns3:TrackPointExtension>
            <ns3:hr>74</ns3:hr>
            <ns3:cad>41</ns3:cad>
          </ns3:TrackPointExtension>
        </extensions>
      </trkpt>
      <trkpt lat="43.77403643913567066192626953125" lon="1.58603402785956859588623046875">
        <ele>124.1999969482421875</ele>
        <time>2026-08-13T07:50:01.000Z</time>
        <extensions>
          <ns3:TrackPointExtension>
            <ns3:hr>74</ns3:hr>
            <ns3:cad>40</ns3:cad>
          </ns3:TrackPointExtension>
        </extensions>
      </trkpt>
      <trkpt lat="43.77403073944151401519775390625" lon="1.586040817201137542724609375">
        <ele>124.1999969482421875</ele>
        <time>2026-08-13T07:50:02.000Z</time>
        <extensions>
          <ns3:TrackPointExtension>
            <ns3:hr>74</ns3:hr>
            <ns3:cad>40</ns3:cad>
          </ns3:TrackPointExtension>
        </extensions>
      </trkpt>
      <trkpt lat="43.77402587793767452239990234375" lon="1.5860446728765964508056640625">
        <ele>124.1999969482421875</ele>
        <time>2026-08-13T07:50:03.000Z</time>
        <extensions>
          <ns3:TrackPointExtension>
            <ns3:hr>75</ns3:hr>
            <ns3:cad>42</ns3:cad>
          </ns3:TrackPointExtension>
        </extensions>
      </trkpt>
      <trkpt lat="43.774014897644519805908203125" lon="1.58605330623686313629150390625">
        <ele>124.1999969482421875</ele>
        <time>2026-08-13T07:50:04.000Z</time>
        <extensions>
          <ns3:TrackPointExtension>
            <ns3:hr>75</ns3:hr>
            <ns3:cad>42</ns3:cad>
          </ns3:TrackPointExtension>
        </extensions>
      </trkpt>
      <trkpt lat="43.77400877885520458221435546875" lon="1.5860621072351932525634765625">
        <ele>124.1999969482421875</ele>
        <time>2026-08-13T07:50:05.000Z</time>
        <extensions>
          <ns3:TrackPointExtension>
            <ns3:hr>75</ns3:hr>
            <ns3:cad>42</ns3:cad>
          </ns3:TrackPointExtension>
        </extensions>
      </trkpt>
      <trkpt lat="43.77400207333266735076904296875" lon="1.5860651247203350067138671875">
        <ele>124.1999969482421875</ele>
        <time>2026-08-13T07:50:06.000Z</time>
        <extensions>
          <ns3:TrackPointExtension>
            <ns3:hr>75</ns3:hr>
            <ns3:cad>41</ns3:cad>
          </ns3:TrackPointExtension>
        </extensions>
      </trkpt>
      <trkpt lat="43.77399369142949581146240234375" lon="1.5860755182802677154541015625">
        <ele>124.1999969482421875</ele>
        <time>2026-08-13T07:50:07.000Z</time>
        <extensions>
          <ns3:TrackPointExtension>
            <ns3:hr>75</ns3:hr>
            <ns3:cad>41</ns3:cad>
          </ns3:TrackPointExtension>
        </extensions>
      </trkpt>
      <trkpt lat="43.77398732118308544158935546875" lon="1.58608783967792987823486328125">
        <ele>124.1999969482421875</ele>
        <time>2026-08-13T07:50:08.000Z</time>
        <extensions>
          <ns3:TrackPointExtension>
            <ns3:hr>74</ns3:hr>
            <ns3:cad>42</ns3:cad>
          </ns3:TrackPointExtension>
        </extensions>
      </trkpt>
      <trkpt lat="43.773984052240848541259765625" lon="1.58609320409595966339111328125">
        <ele>124.1999969482421875</ele>
        <time>2026-08-13T07:50:09.000Z</time>
        <extensions>
          <ns3:TrackPointExtension>
            <ns3:hr>74</ns3:hr>
            <ns3:cad>43</ns3:cad>
          </ns3:TrackPointExtension>
        </extensions>
      </trkpt>
      <trkpt lat="43.7739778496325016021728515625" lon="1.586103178560733795166015625">
        <ele>124.1999969482421875</ele>
        <time>2026-08-13T07:50:10.000Z</time>
        <extensions>
          <ns3:TrackPointExtension>
            <ns3:hr>74</ns3:hr>
            <ns3:cad>43</ns3:cad>
          </ns3:TrackPointExtension>
        </extensions>
      </trkpt>
      <trkpt lat="43.77396770752966403961181640625" lon="1.58611751161515712738037109375">
        <ele>124.1999969482421875</ele>
        <time>2026-08-13T07:50:11.000Z</time>
        <extensions>
          <ns3:TrackPointExtension>
            <ns3:hr>74</ns3:hr>
            <ns3:cad>42</ns3:cad>
          </ns3:TrackPointExtension>
        </extensions>
      </trkpt>
      <trkpt lat="43.7739624269306659698486328125" lon="1.5861268155276775360107421875">
        <ele>124.1999969482421875</ele>
        <time>2026-08-13T07:50:12.000Z</time>
        <extensions>
          <ns3:TrackPointExtension>
            <ns3:hr>73</ns3:hr>
            <ns3:cad>42</ns3:cad>
          </ns3:TrackPointExtension>
        </extensions>
      </trkpt>
      <trkpt lat="43.77395647577941417694091796875" lon="1.58612673170864582061767578125">
        <ele>124.1999969482421875</ele>
        <time>2026-08-13T07:50:13.000Z</time>
        <extensions>
          <ns3:TrackPointExtension>
            <ns3:hr>73</ns3:hr>
            <ns3:cad>42</ns3:cad>
          </ns3:TrackPointExtension>
        </extensions>
      </trkpt>
      <trkpt lat="43.77394616603851318359375" lon="1.5861362032592296600341796875">
        <ele>124.1999969482421875</ele>
        <time>2026-08-13T07:50:14.000Z</time>
        <extensions>
          <ns3:TrackPointExtension>
            <ns3:hr>72</ns3:hr>
            <ns3:cad>42</ns3:cad>
          </ns3:TrackPointExtension>
        </extensions>
      </trkpt>
      <trkpt lat="43.77394013106822967529296875" lon="1.586148105561733245849609375">
        <ele>124.1999969482421875</ele>
        <time>2026-08-13T07:50:15.000Z</time>
        <extensions>
          <ns3:TrackPointExtension>
            <ns3:hr>72</ns3:hr>
            <ns3:cad>42</ns3:cad>
          </ns3:TrackPointExtension>
        </extensions>
      </trkpt>
      <trkpt lat="43.77393619157373905181884765625" lon="1.5861596725881099700927734375">
        <ele>124.1999969482421875</ele>
        <time>2026-08-13T07:50:16.000Z</time>
        <extensions>
          <ns3:TrackPointExtension>
            <ns3:hr>72</ns3:hr>
            <ns3:cad>42</ns3:cad>
          </ns3:TrackPointExtension>
        </extensions>
      </trkpt>
      <trkpt lat="43.773932754993438720703125" lon="1.5861677192151546478271484375">
        <ele>124.1999969482421875</ele>
        <time>2026-08-13T07:50:17.000Z</time>
        <extensions>
          <ns3:TrackPointExtension>
            <ns3:hr>72</ns3:hr>
            <ns3:cad>43</ns3:cad>
          </ns3:TrackPointExtension>
        </extensions>
      </trkpt>
      <trkpt lat="43.77392470836639404296875" lon="1.58618104644119739532470703125">
        <ele>124.1999969482421875</ele>
        <time>2026-08-13T07:50:18.000Z</time>
        <extensions>
          <ns3:TrackPointExtension>
            <ns3:hr>72</ns3:hr>
            <ns3:cad>43</ns3:cad>
          </ns3:TrackPointExtension>
        </extensions>
      </trkpt>
      <trkpt lat="43.77391867339611053466796875" lon="1.586190350353717803955078125">
        <ele>124.1999969482421875</ele>
        <time>2026-08-13T07:50:19.000Z</time>
        <extensions>
          <ns3:TrackPointExtension>
            <ns3:hr>73</ns3:hr>
            <ns3:cad>44</ns3:cad>
          </ns3:TrackPointExtension>
        </extensions>
      </trkpt>
      <trkpt lat="43.773913644254207611083984375" lon="1.586199067533016204833984375">
        <ele>124.1999969482421875</ele>
        <time>2026-08-13T07:50:20.000Z</time>
        <extensions>
          <ns3:TrackPointExtension>
            <ns3:hr>73</ns3:hr>
            <ns3:cad>44</ns3:cad>
          </ns3:TrackPointExtension>
        </extensions>
      </trkpt>
      <trkpt lat="43.77390853129327297210693359375" lon="1.5862069465219974517822265625">
        <ele>124.1999969482421875</ele>
        <time>2026-08-13T07:50:21.000Z</time>
        <extensions>
          <ns3:TrackPointExtension>
            <ns3:hr>74</ns3:hr>
            <ns3:cad>44</ns3:cad>
          </ns3:TrackPointExtension>
        </extensions>
      </trkpt>
      <trkpt lat="43.773902915418148040771484375" lon="1.58622429706156253814697265625">
        <ele>124.1999969482421875</ele>
        <time>2026-08-13T07:50:22.000Z</time>
        <extensions>
          <ns3:TrackPointExtension>
            <ns3:hr>75</ns3:hr>
            <ns3:cad>44</ns3:cad>
          </ns3:TrackPointExtension>
        </extensions>
      </trkpt>
      <trkpt lat="43.773900903761386871337890625" lon="1.586235947906970977783203125">
        <ele>124.1999969482421875</ele>
        <time>2026-08-13T07:50:23.000Z</time>
        <extensions>
          <ns3:TrackPointExtension>
            <ns3:hr>75</ns3:hr>
            <ns3:cad>43</ns3:cad>
          </ns3:TrackPointExtension>
        </extensions>
      </trkpt>
      <trkpt lat="43.77389595843851566314697265625" lon="1.58624474890530109405517578125">
        <ele>124</ele>
        <time>2026-08-13T07:50:24.000Z</time>
        <extensions>
          <ns3:TrackPointExtension>
            <ns3:hr>75</ns3:hr>
            <ns3:cad>43</ns3:cad>
          </ns3:TrackPointExtension>
        </extensions>
      </trkpt>
      <trkpt lat="43.77389193512499332427978515625" lon="1.58625564537942409515380859375">
        <ele>124</ele>
        <time>2026-08-13T07:50:25.000Z</time>
        <extensions>
          <ns3:TrackPointExtension>
            <ns3:hr>76</ns3:hr>
            <ns3:cad>44</ns3:cad>
          </ns3:TrackPointExtension>
        </extensions>
      </trkpt>
      <trkpt lat="43.77388522960245609283447265625" lon="1.58627073280513286590576171875">
        <ele>124</ele>
        <time>2026-08-13T07:50:26.000Z</time>
        <extensions>
          <ns3:TrackPointExtension>
            <ns3:hr>76</ns3:hr>
            <ns3:cad>44</ns3:cad>
          </ns3:TrackPointExtension>
        </extensions>
      </trkpt>
      <trkpt lat="43.773879110813140869140625" lon="1.58627928234636783599853515625">
        <ele>124</ele>
        <time>2026-08-13T07:50:27.000Z</time>
        <extensions>
          <ns3:TrackPointExtension>
            <ns3:hr>76</ns3:hr>
            <ns3:cad>44</ns3:cad>
          </ns3:TrackPointExtension>
        </extensions>
      </trkpt>
      <trkpt lat="43.773874081671237945556640625" lon="1.58628883771598339080810546875">
        <ele>124</ele>
        <time>2026-08-13T07:50:28.000Z</time>
        <extensions>
          <ns3:TrackPointExtension>
            <ns3:hr>77</ns3:hr>
            <ns3:cad>44</ns3:cad>
          </ns3:TrackPointExtension>
        </extensions>
      </trkpt>
      <trkpt lat="43.7738702259957790374755859375" lon="1.58629797399044036865234375">
        <ele>124</ele>
        <time>2026-08-13T07:50:29.000Z</time>
        <extensions>
          <ns3:TrackPointExtension>
            <ns3:hr>76</ns3:hr>
            <ns3:cad>44</ns3:cad>
          </ns3:TrackPointExtension>
        </extensions>
      </trkpt>
      <trkpt lat="43.7738635204732418060302734375" lon="1.586311049759387969970703125">
        <ele>124</ele>
        <time>2026-08-13T07:50:30.000Z</time>
        <extensions>
          <ns3:TrackPointExtension>
            <ns3:hr>75</ns3:hr>
            <ns3:cad>44</ns3:cad>
          </ns3:TrackPointExtension>
        </extensions>
      </trkpt>
      <trkpt lat="43.77385740168392658233642578125" lon="1.586321778595447540283203125">
        <ele>124</ele>
        <time>2026-08-13T07:50:31.000Z</time>
        <extensions>
          <ns3:TrackPointExtension>
            <ns3:hr>75</ns3:hr>
            <ns3:cad>44</ns3:cad>
          </ns3:TrackPointExtension>
        </extensions>
      </trkpt>
      <trkpt lat="43.77385161817073822021484375" lon="1.58632479608058929443359375">
        <ele>124</ele>
        <time>2026-08-13T07:50:32.000Z</time>
        <extensions>
          <ns3:TrackPointExtension>
            <ns3:hr>75</ns3:hr>
            <ns3:cad>44</ns3:cad>
          </ns3:TrackPointExtension>
        </extensions>
      </trkpt>
      <trkpt lat="43.7738457508385181427001953125" lon="1.5863366983830928802490234375">
        <ele>123.8000030517578125</ele>
        <time>2026-08-13T07:50:33.000Z</time>
        <extensions>
          <ns3:TrackPointExtension>
            <ns3:hr>75</ns3:hr>
            <ns3:cad>45</ns3:cad>
          </ns3:TrackPointExtension>
        </extensions>
      </trkpt>
      <trkpt lat="43.7738397158682346343994140625" lon="1.58635388128459453582763671875">
        <ele>123.8000030517578125</ele>
        <time>2026-08-13T07:50:34.000Z</time>
        <extensions>
          <ns3:TrackPointExtension>
            <ns3:hr>74</ns3:hr>
            <ns3:cad>45</ns3:cad>
          </ns3:TrackPointExtension>
        </extensions>
      </trkpt>
      <trkpt lat="43.77383694984018802642822265625" lon="1.58636528067290782928466796875">
        <ele>123.8000030517578125</ele>
        <time>2026-08-13T07:50:35.000Z</time>
        <extensions>
          <ns3:TrackPointExtension>
            <ns3:hr>74</ns3:hr>
            <ns3:cad>45</ns3:cad>
          </ns3:TrackPointExtension>
        </extensions>
      </trkpt>
      <trkpt lat="43.77383284270763397216796875" lon="1.58637450076639652252197265625">
        <ele>123.8000030517578125</ele>
        <time>2026-08-13T07:50:36.000Z</time>
        <extensions>
          <ns3:TrackPointExtension>
            <ns3:hr>74</ns3:hr>
            <ns3:cad>45</ns3:cad>
          </ns3:TrackPointExtension>
        </extensions>
      </trkpt>
      <trkpt lat="43.77382840029895305633544921875" lon="1.58638120628893375396728515625">
        <ele>123.8000030517578125</ele>
        <time>2026-08-13T07:50:37.000Z</time>
        <extensions>
          <ns3:TrackPointExtension>
            <ns3:hr>73</ns3:hr>
            <ns3:cad>45</ns3:cad>
          </ns3:TrackPointExtension>
        </extensions>
      </trkpt>
      <trkpt lat="43.7738222815096378326416015625" lon="1.5863933600485324859619140625">
        <ele>123.8000030517578125</ele>
        <time>2026-08-13T07:50:38.000Z</time>
        <extensions>
          <ns3:TrackPointExtension>
            <ns3:hr>73</ns3:hr>
            <ns3:cad>45</ns3:cad>
          </ns3:TrackPointExtension>
        </extensions>
      </trkpt>
      <trkpt lat="43.773816414177417755126953125" lon="1.58640266396105289459228515625">
        <ele>123.8000030517578125</ele>
        <time>2026-08-13T07:50:39.000Z</time>
        <extensions>
          <ns3:TrackPointExtension>
            <ns3:hr>73</ns3:hr>
            <ns3:cad>45</ns3:cad>
          </ns3:TrackPointExtension>
        </extensions>
      </trkpt>
      <trkpt lat="43.77381348051130771636962890625" lon="1.5864124707877635955810546875">
        <ele>123.8000030517578125</ele>
        <time>2026-08-13T07:50:40.000Z</time>
        <extensions>
          <ns3:TrackPointExtension>
            <ns3:hr>73</ns3:hr>
            <ns3:cad>45</ns3:cad>
          </ns3:TrackPointExtension>
        </extensions>
      </trkpt>
      <trkpt lat="43.77380694262683391571044921875" lon="1.5864225290715694427490234375">
        <ele>123.8000030517578125</ele>
        <time>2026-08-13T07:50:41.000Z</time>
        <extensions>
          <ns3:TrackPointExtension>
            <ns3:hr>74</ns3:hr>
            <ns3:cad>45</ns3:cad>
          </ns3:TrackPointExtension>
        </extensions>
      </trkpt>
      <trkpt lat="43.77380291931331157684326171875" lon="1.5864319168031215667724609375">
        <ele>123.8000030517578125</ele>
        <time>2026-08-13T07:50:42.000Z</time>
        <extensions>
          <ns3:TrackPointExtension>
            <ns3:hr>75</ns3:hr>
            <ns3:cad>45</ns3:cad>
          </ns3:TrackPointExtension>
        </extensions>
      </trkpt>
      <trkpt lat="43.77379856072366237640380859375" lon="1.58644641749560832977294921875">
        <ele>123.8000030517578125</ele>
        <time>2026-08-13T07:50:43.000Z</time>
        <extensions>
          <ns3:TrackPointExtension>
            <ns3:hr>75</ns3:hr>
            <ns3:cad>43</ns3:cad>
          </ns3:TrackPointExtension>
        </extensions>
      </trkpt>
      <trkpt lat="43.7737921066582202911376953125" lon="1.58645647577941417694091796875">
        <ele>123.8000030517578125</ele>
        <time>2026-08-13T07:50:44.000Z</time>
        <extensions>
          <ns3:TrackPointExtension>
            <ns3:hr>75</ns3:hr>
            <ns3:cad>43</ns3:cad>
          </ns3:TrackPointExtension>
        </extensions>
      </trkpt>
      <trkpt lat="43.77378364093601703643798828125" lon="1.5864748321473598480224609375">
        <ele>123.8000030517578125</ele>
        <time>2026-08-13T07:50:45.000Z</time>
        <extensions>
          <ns3:TrackPointExtension>
            <ns3:hr>75</ns3:hr>
            <ns3:cad>43</ns3:cad>
          </ns3:TrackPointExtension>
        </extensions>
      </trkpt>
      <trkpt lat="43.773776181042194366455078125" lon="1.58649218268692493438720703125">
        <ele>123.8000030517578125</ele>
        <time>2026-08-13T07:50:46.000Z</time>
        <extensions>
          <ns3:TrackPointExtension>
            <ns3:hr>74</ns3:hr>
            <ns3:cad>45</ns3:cad>
          </ns3:TrackPointExtension>
        </extensions>
      </trkpt>
      <trkpt lat="43.773771822452545166015625" lon="1.58650257624685764312744140625">
        <ele>123.8000030517578125</ele>
        <time>2026-08-13T07:50:47.000Z</time>
        <extensions>
          <ns3:TrackPointExtension>
            <ns3:hr>74</ns3:hr>
            <ns3:cad>45</ns3:cad>
          </ns3:TrackPointExtension>
        </extensions>
      </trkpt>
      <trkpt lat="43.773767463862895965576171875" lon="1.58651330508291721343994140625">
        <ele>123.59999847412109375</ele>
        <time>2026-08-13T07:50:48.000Z</time>
        <extensions>
          <ns3:TrackPointExtension>
            <ns3:hr>74</ns3:hr>
            <ns3:cad>45</ns3:cad>
          </ns3:TrackPointExtension>
        </extensions>
      </trkpt>
      <trkpt lat="43.77376100979745388031005859375" lon="1.58652973361313343048095703125">
        <ele>123.59999847412109375</ele>
        <time>2026-08-13T07:50:49.000Z</time>
        <extensions>
          <ns3:TrackPointExtension>
            <ns3:hr>74</ns3:hr>
            <ns3:cad>45</ns3:cad>
          </ns3:TrackPointExtension>
        </extensions>
      </trkpt>
      <trkpt lat="43.77375564537942409515380859375" lon="1.58654331229627132415771484375">
        <ele>123.59999847412109375</ele>
        <time>2026-08-13T07:50:50.000Z</time>
        <extensions>
          <ns3:TrackPointExtension>
            <ns3:hr>74</ns3:hr>
            <ns3:cad>45</ns3:cad>
          </ns3:TrackPointExtension>
        </extensions>
      </trkpt>
      <trkpt lat="43.7737490236759185791015625" lon="1.58655286766588687896728515625">
        <ele>123.59999847412109375</ele>
        <time>2026-08-13T07:50:51.000Z</time>
        <extensions>
          <ns3:TrackPointExtension>
            <ns3:hr>74</ns3:hr>
            <ns3:cad>45</ns3:cad>
          </ns3:TrackPointExtension>
        </extensions>
      </trkpt>
      <trkpt lat="43.7737451680004596710205078125" lon="1.58656292594969272613525390625">
        <ele>123.59999847412109375</ele>
        <time>2026-08-13T07:50:52.000Z</time>
        <extensions>
          <ns3:TrackPointExtension>
            <ns3:hr>74</ns3:hr>
            <ns3:cad>45</ns3:cad>
          </ns3:TrackPointExtension>
        </extensions>
      </trkpt>
      <trkpt lat="43.77373821102082729339599609375" lon="1.58657667227089405059814453125">
        <ele>123.59999847412109375</ele>
        <time>2026-08-13T07:50:53.000Z</time>
        <extensions>
          <ns3:TrackPointExtension>
            <ns3:hr>74</ns3:hr>
            <ns3:cad>44</ns3:cad>
          </ns3:TrackPointExtension>
        </extensions>
      </trkpt>
      <trkpt lat="43.77373251132667064666748046875" lon="1.586589999496936798095703125">
        <ele>123.59999847412109375</ele>
        <time>2026-08-13T07:50:54.000Z</time>
        <extensions>
          <ns3:TrackPointExtension>
            <ns3:hr>74</ns3:hr>
            <ns3:cad>44</ns3:cad>
          </ns3:TrackPointExtension>
        </extensions>
      </trkpt>
      <trkpt lat="43.773725219070911407470703125" lon="1.5866002254188060760498046875">
        <ele>123.59999847412109375</ele>
        <time>2026-08-13T07:50:55.000Z</time>
        <extensions>
          <ns3:TrackPointExtension>
            <ns3:hr>74</ns3:hr>
            <ns3:cad>44</ns3:cad>
          </ns3:TrackPointExtension>
        </extensions>
      </trkpt>
      <trkpt lat="43.7737170048058032989501953125" lon="1.58661045134067535400390625">
        <ele>123.59999847412109375</ele>
        <time>2026-08-13T07:50:56.000Z</time>
        <extensions>
          <ns3:TrackPointExtension>
            <ns3:hr>74</ns3:hr>
            <ns3:cad>44</ns3:cad>
          </ns3:TrackPointExtension>
        </extensions>
      </trkpt>
      <trkpt lat="43.77370904199779033660888671875" lon="1.5866240300238132476806640625">
        <ele>123.59999847412109375</ele>
        <time>2026-08-13T07:50:57.000Z</time>
        <extensions>
          <ns3:TrackPointExtension>
            <ns3:hr>74</ns3:hr>
            <ns3:cad>44</ns3:cad>
          </ns3:TrackPointExtension>
        </extensions>
      </trkpt>
      <trkpt lat="43.77369998954236507415771484375" lon="1.58663601614534854888916015625">
        <ele>123.59999847412109375</ele>
        <time>2026-08-13T07:50:58.000Z</time>
        <extensions>
          <ns3:TrackPointExtension>
            <ns3:hr>74</ns3:hr>
            <ns3:cad>45</ns3:cad>
          </ns3:TrackPointExtension>
        </extensions>
      </trkpt>
      <trkpt lat="43.7736955471336841583251953125" lon="1.5866481699049472808837890625">
        <ele>123.59999847412109375</ele>
        <time>2026-08-13T07:50:59.000Z</time>
        <extensions>
          <ns3:TrackPointExtension>
            <ns3:hr>73</ns3:hr>
            <ns3:cad>45</ns3:cad>
          </ns3:TrackPointExtension>
        </extensions>
      </trkpt>
      <trkpt lat="43.77368666231632232666015625" lon="1.58665738999843597412109375">
        <ele>123.40000152587890625</ele>
        <time>2026-08-13T07:51:00.000Z</time>
        <extensions>
          <ns3:TrackPointExtension>
            <ns3:hr>74</ns3:hr>
            <ns3:cad>44</ns3:cad>
          </ns3:TrackPointExtension>
        </extensions>
      </trkpt>
      <trkpt lat="43.7736821360886096954345703125" lon="1.58666484989225864410400390625">
        <ele>123.40000152587890625</ele>
        <time>2026-08-13T07:51:01.000Z</time>
        <extensions>
          <ns3:TrackPointExtension>
            <ns3:hr>74</ns3:hr>
            <ns3:cad>44</ns3:cad>
          </ns3:TrackPointExtension>
        </extensions>
      </trkpt>
      <trkpt lat="43.77367668785154819488525390625" lon="1.58667759038507938385009765625">
        <ele>123.59999847412109375</ele>
        <time>2026-08-13T07:51:02.000Z</time>
        <extensions>
          <ns3:TrackPointExtension>
            <ns3:hr>74</ns3:hr>
            <ns3:cad>44</ns3:cad>
          </ns3:TrackPointExtension>
        </extensions>
      </trkpt>
      <trkpt lat="43.773672245442867279052734375" lon="1.586684882640838623046875">
        <ele>123.59999847412109375</ele>
        <time>2026-08-13T07:51:03.000Z</time>
        <extensions>
          <ns3:TrackPointExtension>
            <ns3:hr>74</ns3:hr>
            <ns3:cad>47</ns3:cad>
          </ns3:TrackPointExtension>
        </extensions>
      </trkpt>
      <trkpt lat="43.77366445027291774749755859375" lon="1.58668580465018749237060546875">
        <ele>123.59999847412109375</ele>
        <time>2026-08-13T07:51:04.000Z</time>
        <extensions>
          <ns3:TrackPointExtension>
            <ns3:hr>74</ns3:hr>
            <ns3:cad>47</ns3:cad>
          </ns3:TrackPointExtension>
        </extensions>
      </trkpt>
      <trkpt lat="43.77365774475038051605224609375" lon="1.58669183962047100067138671875">
        <ele>123.40000152587890625</ele>
        <time>2026-08-13T07:51:05.000Z</time>
        <extensions>
          <ns3:TrackPointExtension>
            <ns3:hr>74</ns3:hr>
            <ns3:cad>47</ns3:cad>
          </ns3:TrackPointExtension>
        </extensions>
      </trkpt>
      <trkpt lat="43.77364869229495525360107421875" lon="1.5867055021226406097412109375">
        <ele>123.40000152587890625</ele>
        <time>2026-08-13T07:51:06.000Z</time>
        <extensions>
          <ns3:TrackPointExtension>
            <ns3:hr>74</ns3:hr>
            <ns3:cad>47</ns3:cad>
          </ns3:TrackPointExtension>
        </extensions>
      </trkpt>
      <trkpt lat="43.77364232204854488372802734375" lon="1.5867135487496852874755859375">
        <ele>123.40000152587890625</ele>
        <time>2026-08-13T07:51:07.000Z</time>
        <extensions>
          <ns3:TrackPointExtension>
            <ns3:hr>74</ns3:hr>
            <ns3:cad>47</ns3:cad>
          </ns3:TrackPointExtension>
        </extensions>
      </trkpt>
      <trkpt lat="43.77363435924053192138671875" lon="1.58671832643449306488037109375">
        <ele>123.40000152587890625</ele>
        <time>2026-08-13T07:51:08.000Z</time>
        <extensions>
          <ns3:TrackPointExtension>
            <ns3:hr>74</ns3:hr>
            <ns3:cad>47</ns3:cad>
          </ns3:TrackPointExtension>
        </extensions>
      </trkpt>
      <trkpt lat="43.77362631261348724365234375" lon="1.58672302030026912689208984375">
        <ele>123.40000152587890625</ele>
        <time>2026-08-13T07:51:09.000Z</time>
        <extensions>
          <ns3:TrackPointExtension>
            <ns3:hr>73</ns3:hr>
            <ns3:cad>42</ns3:cad>
          </ns3:TrackPointExtension>
        </extensions>
      </trkpt>
      <trkpt lat="43.773616589605808258056640625" lon="1.58672972582280635833740234375">
        <ele>123.40000152587890625</ele>
        <time>2026-08-13T07:51:10.000Z</time>
        <extensions>
          <ns3:TrackPointExtension>
            <ns3:hr>73</ns3:hr>
            <ns3:cad>42</ns3:cad>
          </ns3:TrackPointExtension>
        </extensions>
      </trkpt>
      <trkpt lat="43.7736056931316852569580078125" lon="1.58673643134534358978271484375">
        <ele>123.40000152587890625</ele>
        <time>2026-08-13T07:51:11.000Z</time>
        <extensions>
          <ns3:TrackPointExtension>
            <ns3:hr>73</ns3:hr>
            <ns3:cad>42</ns3:cad>
          </ns3:TrackPointExtension>
        </extensions>
      </trkpt>
      <trkpt lat="43.773595802485942840576171875" lon="1.5867447294294834136962890625">
        <ele>123.1999969482421875</ele>
        <time>2026-08-13T07:51:12.000Z</time>
        <extensions>
          <ns3:TrackPointExtension>
            <ns3:hr>74</ns3:hr>
            <ns3:cad>49</ns3:cad>
          </ns3:TrackPointExtension>
        </extensions>
      </trkpt>
      <trkpt lat="43.77358566038310527801513671875" lon="1.58675353042781352996826171875">
        <ele>123.1999969482421875</ele>
        <time>2026-08-13T07:51:13.000Z</time>
        <extensions>
          <ns3:TrackPointExtension>
            <ns3:hr>74</ns3:hr>
            <ns3:cad>49</ns3:cad>
          </ns3:TrackPointExtension>
        </extensions>
      </trkpt>
      <trkpt lat="43.7735771946609020233154296875" lon="1.58676006831228733062744140625">
        <ele>123.1999969482421875</ele>
        <time>2026-08-13T07:51:14.000Z</time>
        <extensions>
          <ns3:TrackPointExtension>
            <ns3:hr>74</ns3:hr>
            <ns3:cad>47</ns3:cad>
          </ns3:TrackPointExtension>
        </extensions>
      </trkpt>
      <trkpt lat="43.77356654964387416839599609375" lon="1.58676694147288799285888671875">
        <ele>123.1999969482421875</ele>
        <time>2026-08-13T07:51:15.000Z</time>
        <extensions>
          <ns3:TrackPointExtension>
            <ns3:hr>74</ns3:hr>
            <ns3:cad>47</ns3:cad>
          </ns3:TrackPointExtension>
        </extensions>
      </trkpt>
      <trkpt lat="43.7735570780932903289794921875" lon="1.5867698751389980316162109375">
        <ele>123.1999969482421875</ele>
        <time>2026-08-13T07:51:16.000Z</time>
        <extensions>
          <ns3:TrackPointExtension>
            <ns3:hr>75</ns3:hr>
            <ns3:cad>47</ns3:cad>
          </ns3:TrackPointExtension>
        </extensions>
      </trkpt>
      <trkpt lat="43.77354928292334079742431640625" lon="1.58677046187222003936767578125">
        <ele>123.1999969482421875</ele>
        <time>2026-08-13T07:51:17.000Z</time>
        <extensions>
          <ns3:TrackPointExtension>
            <ns3:hr>76</ns3:hr>
            <ns3:cad>47</ns3:cad>
          </ns3:TrackPointExtension>
        </extensions>
      </trkpt>
      <trkpt lat="43.7735379673540592193603515625" lon="1.586782447993755340576171875">
        <ele>123.1999969482421875</ele>
        <time>2026-08-13T07:51:18.000Z</time>
        <extensions>
          <ns3:TrackPointExtension>
            <ns3:hr>76</ns3:hr>
            <ns3:cad>47</ns3:cad>
          </ns3:TrackPointExtension>
        </extensions>
      </trkpt>
      <trkpt lat="43.7735275737941265106201171875" lon="1.58679091371595859527587890625">
        <ele>123.1999969482421875</ele>
        <time>2026-08-13T07:51:19.000Z</time>
        <extensions>
          <ns3:TrackPointExtension>
            <ns3:hr>76</ns3:hr>
            <ns3:cad>47</ns3:cad>
          </ns3:TrackPointExtension>
        </extensions>
      </trkpt>
      <trkpt lat="43.773521371185779571533203125" lon="1.5867997147142887115478515625">
        <ele>123.1999969482421875</ele>
        <time>2026-08-13T07:51:20.000Z</time>
        <extensions>
          <ns3:TrackPointExtension>
            <ns3:hr>76</ns3:hr>
            <ns3:cad>0</ns3:cad>
          </ns3:TrackPointExtension>
        </extensions>
      </trkpt>
      <trkpt lat="43.77351458184421062469482421875" lon="1.58680365420877933502197265625">
        <ele>123.1999969482421875</ele>
        <time>2026-08-13T07:51:21.000Z</time>
        <extensions>
          <ns3:TrackPointExtension>
            <ns3:hr>76</ns3:hr>
            <ns3:cad>47</ns3:cad>
          </ns3:TrackPointExtension>
        </extensions>
      </trkpt>
      <trkpt lat="43.77350829541683197021484375" lon="1.5868080966174602508544921875">
        <ele>123.1999969482421875</ele>
        <time>2026-08-13T07:51:22.000Z</time>
        <extensions>
          <ns3:TrackPointExtension>
            <ns3:hr>75</ns3:hr>
            <ns3:cad>47</ns3:cad>
          </ns3:TrackPointExtension>
        </extensions>
      </trkpt>
      <trkpt lat="43.773499242961406707763671875" lon="1.5868174843490123748779296875">
        <ele>123.1999969482421875</ele>
        <time>2026-08-13T07:51:23.000Z</time>
        <extensions>
          <ns3:TrackPointExtension>
            <ns3:hr>76</ns3:hr>
            <ns3:cad>47</ns3:cad>
          </ns3:TrackPointExtension>
        </extensions>
      </trkpt>
      <trkpt lat="43.77349220216274261474609375" lon="1.5868245251476764678955078125">
        <ele>123.1999969482421875</ele>
        <time>2026-08-13T07:51:24.000Z</time>
        <extensions>
          <ns3:TrackPointExtension>
            <ns3:hr>76</ns3:hr>
            <ns3:cad>47</ns3:cad>
          </ns3:TrackPointExtension>
        </extensions>
      </trkpt>
      <trkpt lat="43.7734853290021419525146484375" lon="1.586836092174053192138671875">
        <ele>123.1999969482421875</ele>
        <time>2026-08-13T07:51:25.000Z</time>
        <extensions>
          <ns3:TrackPointExtension>
            <ns3:hr>75</ns3:hr>
            <ns3:cad>47</ns3:cad>
          </ns3:TrackPointExtension>
        </extensions>
      </trkpt>
      <trkpt lat="43.773480467498302459716796875" lon="1.5868399478495121002197265625">
        <ele>123.1999969482421875</ele>
        <time>2026-08-13T07:51:26.000Z</time>
        <extensions>
          <ns3:TrackPointExtension>
            <ns3:hr>76</ns3:hr>
            <ns3:cad>47</ns3:cad>
          </ns3:TrackPointExtension>
        </extensions>
      </trkpt>
      <trkpt lat="43.773471750319004058837890625" lon="1.58684656955301761627197265625">
        <ele>123.1999969482421875</ele>
        <time>2026-08-13T07:51:27.000Z</time>
        <extensions>
          <ns3:TrackPointExtension>
            <ns3:hr>75</ns3:hr>
            <ns3:cad>46</ns3:cad>
          </ns3:TrackPointExtension>
        </extensions>
      </trkpt>
      <trkpt lat="43.77346378751099109649658203125" lon="1.5868546999990940093994140625">
        <ele>123.1999969482421875</ele>
        <time>2026-08-13T07:51:28.000Z</time>
        <extensions>
          <ns3:TrackPointExtension>
            <ns3:hr>76</ns3:hr>
            <ns3:cad>46</ns3:cad>
          </ns3:TrackPointExtension>
        </extensions>
      </trkpt>
      <trkpt lat="43.77345993183553218841552734375" lon="1.58685931004583835601806640625">
        <ele>123</ele>
        <time>2026-08-13T07:51:29.000Z</time>
        <extensions>
          <ns3:TrackPointExtension>
            <ns3:hr>76</ns3:hr>
            <ns3:cad>45</ns3:cad>
          </ns3:TrackPointExtension>
        </extensions>
      </trkpt>
      <trkpt lat="43.77345154993236064910888671875" lon="1.58686836250126361846923828125">
        <ele>123</ele>
        <time>2026-08-13T07:51:30.000Z</time>
        <extensions>
          <ns3:TrackPointExtension>
            <ns3:hr>76</ns3:hr>
            <ns3:cad>45</ns3:cad>
          </ns3:TrackPointExtension>
        </extensions>
      </trkpt>
      <trkpt lat="43.77344258129596710205078125" lon="1.5868758223950862884521484375">
        <ele>123</ele>
        <time>2026-08-13T07:51:31.000Z</time>
        <extensions>
          <ns3:TrackPointExtension>
            <ns3:hr>75</ns3:hr>
            <ns3:cad>46</ns3:cad>
          </ns3:TrackPointExtension>
        </extensions>
      </trkpt>
      <trkpt lat="43.77343243919312953948974609375" lon="1.58688227646052837371826171875">
        <ele>123</ele>
        <time>2026-08-13T07:51:32.000Z</time>
        <extensions>
          <ns3:TrackPointExtension>
            <ns3:hr>75</ns3:hr>
            <ns3:cad>46</ns3:cad>
          </ns3:TrackPointExtension>
        </extensions>
      </trkpt>
      <trkpt lat="43.77342506311833858489990234375" lon="1.5868899039924144744873046875">
        <ele>123</ele>
        <time>2026-08-13T07:51:33.000Z</time>
        <extensions>
          <ns3:TrackPointExtension>
            <ns3:hr>76</ns3:hr>
            <ns3:cad>47</ns3:cad>
          </ns3:TrackPointExtension>
        </extensions>
      </trkpt>
      <trkpt lat="43.77341684885323047637939453125" lon="1.58689769916236400604248046875">
        <ele>123</ele>
        <time>2026-08-13T07:51:34.000Z</time>
        <extensions>
          <ns3:TrackPointExtension>
            <ns3:hr>76</ns3:hr>
            <ns3:cad>47</ns3:cad>
          </ns3:TrackPointExtension>
        </extensions>
      </trkpt>
      <trkpt lat="43.7734119035303592681884765625" lon="1.586905829608440399169921875">
        <ele>123</ele>
        <time>2026-08-13T07:51:35.000Z</time>
        <extensions>
          <ns3:TrackPointExtension>
            <ns3:hr>76</ns3:hr>
            <ns3:cad>47</ns3:cad>
          </ns3:TrackPointExtension>
        </extensions>
      </trkpt>
      <trkpt lat="43.77340503036975860595703125" lon="1.586912535130977630615234375">
        <ele>123</ele>
        <time>2026-08-13T07:51:36.000Z</time>
        <extensions>
          <ns3:TrackPointExtension>
            <ns3:hr>77</ns3:hr>
            <ns3:cad>47</ns3:cad>
          </ns3:TrackPointExtension>
        </extensions>
      </trkpt>
      <trkpt lat="43.77339505590498447418212890625" lon="1.5869197435677051544189453125">
        <ele>123</ele>
        <time>2026-08-13T07:51:37.000Z</time>
        <extensions>
          <ns3:TrackPointExtension>
            <ns3:hr>77</ns3:hr>
            <ns3:cad>47</ns3:cad>
          </ns3:TrackPointExtension>
        </extensions>
      </trkpt>
      <trkpt lat="43.773387260735034942626953125" lon="1.5869220905005931854248046875">
        <ele>123</ele>
        <time>2026-08-13T07:51:38.000Z</time>
        <extensions>
          <ns3:TrackPointExtension>
            <ns3:hr>77</ns3:hr>
            <ns3:cad>47</ns3:cad>
          </ns3:TrackPointExtension>
        </extensions>
      </trkpt>
      <trkpt lat="43.77337812446057796478271484375" lon="1.58692485652863979339599609375">
        <ele>123</ele>
        <time>2026-08-13T07:51:39.000Z</time>
        <extensions>
          <ns3:TrackPointExtension>
            <ns3:hr>77</ns3:hr>
            <ns3:cad>46</ns3:cad>
          </ns3:TrackPointExtension>
        </extensions>
      </trkpt>
      <trkpt lat="43.77336974255740642547607421875" lon="1.58693156205117702484130859375">
        <ele>123</ele>
        <time>2026-08-13T07:51:40.000Z</time>
        <extensions>
          <ns3:TrackPointExtension>
            <ns3:hr>77</ns3:hr>
            <ns3:cad>45</ns3:cad>
          </ns3:TrackPointExtension>
        </extensions>
      </trkpt>
      <trkpt lat="43.77336169593036174774169921875" lon="1.58693843521177768707275390625">
        <ele>123</ele>
        <time>2026-08-13T07:51:41.000Z</time>
        <extensions>
          <ns3:TrackPointExtension>
            <ns3:hr>78</ns3:hr>
            <ns3:cad>44</ns3:cad>
          </ns3:TrackPointExtension>
        </extensions>
      </trkpt>
      <trkpt lat="43.77335608005523681640625" lon="1.58694094978272914886474609375">
        <ele>123</ele>
        <time>2026-08-13T07:51:42.000Z</time>
        <extensions>
          <ns3:TrackPointExtension>
            <ns3:hr>77</ns3:hr>
            <ns3:cad>44</ns3:cad>
          </ns3:TrackPointExtension>
        </extensions>
      </trkpt>
      <trkpt lat="43.7733455188572406768798828125" lon="1.58694899640977382659912109375">
        <ele>123</ele>
        <time>2026-08-13T07:51:43.000Z</time>
        <extensions>
          <ns3:TrackPointExtension>
            <ns3:hr>77</ns3:hr>
            <ns3:cad>44</ns3:cad>
          </ns3:TrackPointExtension>
        </extensions>
      </trkpt>
      <trkpt lat="43.773337639868259429931640625" lon="1.5869519300758838653564453125">
        <ele>123</ele>
        <time>2026-08-13T07:51:44.000Z</time>
        <extensions>
          <ns3:TrackPointExtension>
            <ns3:hr>77</ns3:hr>
            <ns3:cad>44</ns3:cad>
          </ns3:TrackPointExtension>
        </extensions>
      </trkpt>
      <trkpt lat="43.77332724630832672119140625" lon="1.58695922233164310455322265625">
        <ele>123</ele>
        <time>2026-08-13T07:51:45.000Z</time>
        <extensions>
          <ns3:TrackPointExtension>
            <ns3:hr>78</ns3:hr>
            <ns3:cad>45</ns3:cad>
          </ns3:TrackPointExtension>
        </extensions>
      </trkpt>
      <trkpt lat="43.77331878058612346649169921875" lon="1.5869670175015926361083984375">
        <ele>123</ele>
        <time>2026-08-13T07:51:46.000Z</time>
        <extensions>
          <ns3:TrackPointExtension>
            <ns3:hr>77</ns3:hr>
            <ns3:cad>45</ns3:cad>
          </ns3:TrackPointExtension>
        </extensions>
      </trkpt>
      <trkpt lat="43.773307465016841888427734375" lon="1.586976237595081329345703125">
        <ele>123</ele>
        <time>2026-08-13T07:51:47.000Z</time>
        <extensions>
          <ns3:TrackPointExtension>
            <ns3:hr>78</ns3:hr>
            <ns3:cad>45</ns3:cad>
          </ns3:TrackPointExtension>
        </extensions>
      </trkpt>
      <trkpt lat="43.7732984125614166259765625" lon="1.586982943117618560791015625">
        <ele>123</ele>
        <time>2026-08-13T07:51:48.000Z</time>
        <extensions>
          <ns3:TrackPointExtension>
            <ns3:hr>78</ns3:hr>
            <ns3:cad>48</ns3:cad>
          </ns3:TrackPointExtension>
        </extensions>
      </trkpt>
      <trkpt lat="43.773289024829864501953125" lon="1.586993001401424407958984375">
        <ele>123</ele>
        <time>2026-08-13T07:51:49.000Z</time>
        <extensions>
          <ns3:TrackPointExtension>
            <ns3:hr>78</ns3:hr>
            <ns3:cad>48</ns3:cad>
          </ns3:TrackPointExtension>
        </extensions>
      </trkpt>
      <trkpt lat="43.77328039146959781646728515625" lon="1.58700205385684967041015625">
        <ele>123</ele>
        <time>2026-08-13T07:51:50.000Z</time>
        <extensions>
          <ns3:TrackPointExtension>
            <ns3:hr>79</ns3:hr>
            <ns3:cad>48</ns3:cad>
          </ns3:TrackPointExtension>
        </extensions>
      </trkpt>
      <trkpt lat="43.7732747755944728851318359375" lon="1.5870085917413234710693359375">
        <ele>123</ele>
        <time>2026-08-13T07:51:51.000Z</time>
        <extensions>
          <ns3:TrackPointExtension>
            <ns3:hr>79</ns3:hr>
            <ns3:cad>47</ns3:cad>
          </ns3:TrackPointExtension>
        </extensions>
      </trkpt>
      <trkpt lat="43.7732689082622528076171875" lon="1.58701948821544647216796875">
        <ele>123</ele>
        <time>2026-08-13T07:51:52.000Z</time>
        <extensions>
          <ns3:TrackPointExtension>
            <ns3:hr>80</ns3:hr>
            <ns3:cad>47</ns3:cad>
          </ns3:TrackPointExtension>
        </extensions>
      </trkpt>
      <trkpt lat="43.77326379530131816864013671875" lon="1.587028205394744873046875">
        <ele>123</ele>
        <time>2026-08-13T07:51:53.000Z</time>
        <extensions>
          <ns3:TrackPointExtension>
            <ns3:hr>81</ns3:hr>
            <ns3:cad>45</ns3:cad>
          </ns3:TrackPointExtension>
        </extensions>
      </trkpt>
      <trkpt lat="43.77325591631233692169189453125" lon="1.5870407782495021820068359375">
        <ele>123</ele>
        <time>2026-08-13T07:51:54.000Z</time>
        <extensions>
          <ns3:TrackPointExtension>
            <ns3:hr>82</ns3:hr>
            <ns3:cad>45</ns3:cad>
          </ns3:TrackPointExtension>
        </extensions>
      </trkpt>
      <trkpt lat="43.77324803732335567474365234375" lon="1.5870427899062633514404296875">
        <ele>123</ele>
        <time>2026-08-13T07:51:55.000Z</time>
        <extensions>
          <ns3:TrackPointExtension>
            <ns3:hr>83</ns3:hr>
            <ns3:cad>48</ns3:cad>
          </ns3:TrackPointExtension>
        </extensions>
      </trkpt>
      <trkpt lat="43.7732389010488986968994140625" lon="1.58704941160976886749267578125">
        <ele>123</ele>
        <time>2026-08-13T07:51:56.000Z</time>
        <extensions>
          <ns3:TrackPointExtension>
            <ns3:hr>84</ns3:hr>
            <ns3:cad>48</ns3:cad>
          </ns3:TrackPointExtension>
        </extensions>
      </trkpt>
      <trkpt lat="43.77323060296475887298583984375" lon="1.58705796115100383758544921875">
        <ele>123</ele>
        <time>2026-08-13T07:51:57.000Z</time>
        <extensions>
          <ns3:TrackPointExtension>
            <ns3:hr>85</ns3:hr>
            <ns3:cad>48</ns3:cad>
          </ns3:TrackPointExtension>
        </extensions>
      </trkpt>
      <trkpt lat="43.7732214666903018951416015625" lon="1.58706600777804851531982421875">
        <ele>123</ele>
        <time>2026-08-13T07:51:58.000Z</time>
        <extensions>
          <ns3:TrackPointExtension>
            <ns3:hr>85</ns3:hr>
            <ns3:cad>48</ns3:cad>
          </ns3:TrackPointExtension>
        </extensions>
      </trkpt>
      <trkpt lat="43.77321593463420867919921875" lon="1.5870733000338077545166015625">
        <ele>123</ele>
        <time>2026-08-13T07:51:59.000Z</time>
        <extensions>
          <ns3:TrackPointExtension>
            <ns3:hr>86</ns3:hr>
            <ns3:cad>47</ns3:cad>
          </ns3:TrackPointExtension>
        </extensions>
      </trkpt>
      <trkpt lat="43.77320696599781513214111328125" lon="1.5870800055563449859619140625">
        <ele>123</ele>
        <time>2026-08-13T07:52:00.000Z</time>
        <extensions>
          <ns3:TrackPointExtension>
            <ns3:hr>86</ns3:hr>
            <ns3:cad>45</ns3:cad>
          </ns3:TrackPointExtension>
        </extensions>
      </trkpt>
      <trkpt lat="43.7731976620852947235107421875" lon="1.5870880521833896636962890625">
        <ele>123</ele>
        <time>2026-08-13T07:52:01.000Z</time>
        <extensions>
          <ns3:TrackPointExtension>
            <ns3:hr>86</ns3:hr>
            <ns3:cad>45</ns3:cad>
          </ns3:TrackPointExtension>
        </extensions>
      </trkpt>
      <trkpt lat="43.77319020219147205352783203125" lon="1.5870950929820537567138671875">
        <ele>123</ele>
        <time>2026-08-13T07:52:02.000Z</time>
        <extensions>
          <ns3:TrackPointExtension>
            <ns3:hr>85</ns3:hr>
            <ns3:cad>45</ns3:cad>
          </ns3:TrackPointExtension>
        </extensions>
      </trkpt>
      <trkpt lat="43.77318240702152252197265625" lon="1.58710087649524211883544921875">
        <ele>123</ele>
        <time>2026-08-13T07:52:03.000Z</time>
        <extensions>
          <ns3:TrackPointExtension>
            <ns3:hr>85</ns3:hr>
            <ns3:cad>45</ns3:cad>
          </ns3:TrackPointExtension>
        </extensions>
      </trkpt>
      <trkpt lat="43.7731755338609218597412109375" lon="1.5871058218181133270263671875">
        <ele>123</ele>
        <time>2026-08-13T07:52:04.000Z</time>
        <extensions>
          <ns3:TrackPointExtension>
            <ns3:hr>85</ns3:hr>
            <ns3:cad>45</ns3:cad>
          </ns3:TrackPointExtension>
        </extensions>
      </trkpt>
      <trkpt lat="43.77316740341484546661376953125" lon="1.587113030254840850830078125">
        <ele>123</ele>
        <time>2026-08-13T07:52:05.000Z</time>
        <extensions>
          <ns3:TrackPointExtension>
            <ns3:hr>84</ns3:hr>
            <ns3:cad>46</ns3:cad>
          </ns3:TrackPointExtension>
        </extensions>
      </trkpt>
      <trkpt lat="43.77315985970199108123779296875" lon="1.58711965195834636688232421875">
        <ele>123</ele>
        <time>2026-08-13T07:52:06.000Z</time>
        <extensions>
          <ns3:TrackPointExtension>
            <ns3:hr>84</ns3:hr>
            <ns3:cad>47</ns3:cad>
          </ns3:TrackPointExtension>
        </extensions>
      </trkpt>
      <trkpt lat="43.77315147779881954193115234375" lon="1.58712568692862987518310546875">
        <ele>123</ele>
        <time>2026-08-13T07:52:07.000Z</time>
        <extensions>
          <ns3:TrackPointExtension>
            <ns3:hr>83</ns3:hr>
            <ns3:cad>47</ns3:cad>
          </ns3:TrackPointExtension>
        </extensions>
      </trkpt>
      <trkpt lat="43.77314259298145771026611328125" lon="1.5871346555650234222412109375">
        <ele>123</ele>
        <time>2026-08-13T07:52:08.000Z</time>
        <extensions>
          <ns3:TrackPointExtension>
            <ns3:hr>83</ns3:hr>
            <ns3:cad>47</ns3:cad>
          </ns3:TrackPointExtension>
        </extensions>
      </trkpt>
      <trkpt lat="43.77313471399247646331787109375" lon="1.58714010380208492279052734375">
        <ele>123</ele>
        <time>2026-08-13T07:52:09.000Z</time>
        <extensions>
          <ns3:TrackPointExtension>
            <ns3:hr>83</ns3:hr>
            <ns3:cad>47</ns3:cad>
          </ns3:TrackPointExtension>
        </extensions>
      </trkpt>
      <trkpt lat="43.7731267511844635009765625" lon="1.5871489048004150390625">
        <ele>123</ele>
        <time>2026-08-13T07:52:10.000Z</time>
        <extensions>
          <ns3:TrackPointExtension>
            <ns3:hr>83</ns3:hr>
            <ns3:cad>46</ns3:cad>
          </ns3:TrackPointExtension>
        </extensions>
      </trkpt>
      <trkpt lat="43.7731185369193553924560546875" lon="1.5871577896177768707275390625">
        <ele>123</ele>
        <time>2026-08-13T07:52:11.000Z</time>
        <extensions>
          <ns3:TrackPointExtension>
            <ns3:hr>82</ns3:hr>
            <ns3:cad>46</ns3:cad>
          </ns3:TrackPointExtension>
        </extensions>
      </trkpt>
      <trkpt lat="43.77311057411134243011474609375" lon="1.58716642297804355621337890625">
        <ele>123</ele>
        <time>2026-08-13T07:52:12.000Z</time>
        <extensions>
          <ns3:TrackPointExtension>
            <ns3:hr>82</ns3:hr>
            <ns3:cad>46</ns3:cad>
          </ns3:TrackPointExtension>
        </extensions>
      </trkpt>
      <trkpt lat="43.7731017731130123138427734375" lon="1.58717581070959568023681640625">
        <ele>123</ele>
        <time>2026-08-13T07:52:13.000Z</time>
        <extensions>
          <ns3:TrackPointExtension>
            <ns3:hr>81</ns3:hr>
            <ns3:cad>46</ns3:cad>
          </ns3:TrackPointExtension>
        </extensions>
      </trkpt>
      <trkpt lat="43.77309498377144336700439453125" lon="1.5871842764317989349365234375">
        <ele>123</ele>
        <time>2026-08-13T07:52:14.000Z</time>
        <extensions>
          <ns3:TrackPointExtension>
            <ns3:hr>81</ns3:hr>
            <ns3:cad>46</ns3:cad>
          </ns3:TrackPointExtension>
        </extensions>
      </trkpt>
      <trkpt lat="43.77308760769665241241455078125" lon="1.5871919877827167510986328125">
        <ele>123</ele>
        <time>2026-08-13T07:52:15.000Z</time>
        <extensions>
          <ns3:TrackPointExtension>
            <ns3:hr>81</ns3:hr>
            <ns3:cad>46</ns3:cad>
          </ns3:TrackPointExtension>
        </extensions>
      </trkpt>
      <trkpt lat="43.77308073453605175018310546875" lon="1.58719676546752452850341796875">
        <ele>123</ele>
        <time>2026-08-13T07:52:16.000Z</time>
        <extensions>
          <ns3:TrackPointExtension>
            <ns3:hr>80</ns3:hr>
            <ns3:cad>46</ns3:cad>
          </ns3:TrackPointExtension>
        </extensions>
      </trkpt>
      <trkpt lat="43.77307486720383167266845703125" lon="1.58720028586685657501220703125">
        <ele>123</ele>
        <time>2026-08-13T07:52:17.000Z</time>
        <extensions>
          <ns3:TrackPointExtension>
            <ns3:hr>80</ns3:hr>
            <ns3:cad>46</ns3:cad>
          </ns3:TrackPointExtension>
        </extensions>
      </trkpt>
      <trkpt lat="43.7730682455003261566162109375" lon="1.587202884256839752197265625">
        <ele>123</ele>
        <time>2026-08-13T07:52:18.000Z</time>
        <extensions>
          <ns3:TrackPointExtension>
            <ns3:hr>80</ns3:hr>
            <ns3:cad>46</ns3:cad>
          </ns3:TrackPointExtension>
        </extensions>
      </trkpt>
      <trkpt lat="43.77305894158780574798583984375" lon="1.5872065722942352294921875">
        <ele>123</ele>
        <time>2026-08-13T07:52:19.000Z</time>
        <extensions>
          <ns3:TrackPointExtension>
            <ns3:hr>79</ns3:hr>
            <ns3:cad>47</ns3:cad>
          </ns3:TrackPointExtension>
        </extensions>
      </trkpt>
      <trkpt lat="43.773046620190143585205078125" lon="1.5872164629399776458740234375">
        <ele>123</ele>
        <time>2026-08-13T07:52:20.000Z</time>
        <extensions>
          <ns3:TrackPointExtension>
            <ns3:hr>80</ns3:hr>
            <ns3:cad>50</ns3:cad>
          </ns3:TrackPointExtension>
        </extensions>
      </trkpt>
      <trkpt lat="43.77303496934473514556884765625" lon="1.5872228331863880157470703125">
        <ele>123</ele>
        <time>2026-08-13T07:52:21.000Z</time>
        <extensions>
          <ns3:TrackPointExtension>
            <ns3:hr>80</ns3:hr>
            <ns3:cad>50</ns3:cad>
          </ns3:TrackPointExtension>
        </extensions>
      </trkpt>
      <trkpt lat="43.77302507869899272918701171875" lon="1.58722761087119579315185546875">
        <ele>123</ele>
        <time>2026-08-13T07:52:22.000Z</time>
        <extensions>
          <ns3:TrackPointExtension>
            <ns3:hr>79</ns3:hr>
            <ns3:cad>48</ns3:cad>
          </ns3:TrackPointExtension>
        </extensions>
      </trkpt>
      <trkpt lat="43.7730169482529163360595703125" lon="1.58723364584147930145263671875">
        <ele>123</ele>
        <time>2026-08-13T07:52:23.000Z</time>
        <extensions>
          <ns3:TrackPointExtension>
            <ns3:hr>79</ns3:hr>
            <ns3:cad>48</ns3:cad>
          </ns3:TrackPointExtension>
        </extensions>
      </trkpt>
      <trkpt lat="43.77300865016877651214599609375" lon="1.58724236302077770233154296875">
        <ele>123</ele>
        <time>2026-08-13T07:52:24.000Z</time>
        <extensions>
          <ns3:TrackPointExtension>
            <ns3:hr>79</ns3:hr>
            <ns3:cad>46</ns3:cad>
          </ns3:TrackPointExtension>
        </extensions>
      </trkpt>
      <trkpt lat="43.772996999323368072509765625" lon="1.587250493466854095458984375">
        <ele>123</ele>
        <time>2026-08-13T07:52:25.000Z</time>
        <extensions>
          <ns3:TrackPointExtension>
            <ns3:hr>79</ns3:hr>
            <ns3:cad>46</ns3:cad>
          </ns3:TrackPointExtension>
        </extensions>
      </trkpt>
      <trkpt lat="43.77298652194440364837646484375" lon="1.58725208602845668792724609375">
        <ele>123</ele>
        <time>2026-08-13T07:52:26.000Z</time>
        <extensions>
          <ns3:TrackPointExtension>
            <ns3:hr>79</ns3:hr>
            <ns3:cad>47</ns3:cad>
          </ns3:TrackPointExtension>
        </extensions>
      </trkpt>
      <trkpt lat="43.77297411672770977020263671875" lon="1.5872577019035816192626953125">
        <ele>123</ele>
        <time>2026-08-13T07:52:27.000Z</time>
        <extensions>
          <ns3:TrackPointExtension>
            <ns3:hr>80</ns3:hr>
            <ns3:cad>47</ns3:cad>
          </ns3:TrackPointExtension>
        </extensions>
      </trkpt>
      <trkpt lat="43.772962130606174468994140625" lon="1.58726625144481658935546875">
        <ele>123</ele>
        <time>2026-08-13T07:52:28.000Z</time>
        <extensions>
          <ns3:TrackPointExtension>
            <ns3:hr>80</ns3:hr>
            <ns3:cad>47</ns3:cad>
          </ns3:TrackPointExtension>
        </extensions>
      </trkpt>
      <trkpt lat="43.772952742874622344970703125" lon="1.58727488480508327484130859375">
        <ele>123.1999969482421875</ele>
        <time>2026-08-13T07:52:29.000Z</time>
        <extensions>
          <ns3:TrackPointExtension>
            <ns3:hr>80</ns3:hr>
            <ns3:cad>46</ns3:cad>
          </ns3:TrackPointExtension>
        </extensions>
      </trkpt>
      <trkpt lat="43.7729435227811336517333984375" lon="1.58727907575666904449462890625">
        <ele>123.1999969482421875</ele>
        <time>2026-08-13T07:52:30.000Z</time>
        <extensions>
          <ns3:TrackPointExtension>
            <ns3:hr>80</ns3:hr>
            <ns3:cad>46</ns3:cad>
          </ns3:TrackPointExtension>
        </extensions>
      </trkpt>
      <trkpt lat="43.77293522469699382781982421875" lon="1.58728100359439849853515625">
        <ele>123.1999969482421875</ele>
        <time>2026-08-13T07:52:31.000Z</time>
        <extensions>
          <ns3:TrackPointExtension>
            <ns3:hr>80</ns3:hr>
            <ns3:cad>46</ns3:cad>
          </ns3:TrackPointExtension>
        </extensions>
      </trkpt>
      <trkpt lat="43.7729234062135219573974609375" lon="1.5872892178595066070556640625">
        <ele>123</ele>
        <time>2026-08-13T07:52:32.000Z</time>
        <extensions>
          <ns3:TrackPointExtension>
            <ns3:hr>80</ns3:hr>
            <ns3:cad>46</ns3:cad>
          </ns3:TrackPointExtension>
        </extensions>
      </trkpt>
      <trkpt lat="43.77291209064424037933349609375" lon="1.58729935996234416961669921875">
        <ele>123</ele>
        <time>2026-08-13T07:52:33.000Z</time>
        <extensions>
          <ns3:TrackPointExtension>
            <ns3:hr>80</ns3:hr>
            <ns3:cad>47</ns3:cad>
          </ns3:TrackPointExtension>
        </extensions>
      </trkpt>
      <trkpt lat="43.772906474769115447998046875" lon="1.5873059816658496856689453125">
        <ele>123</ele>
        <time>2026-08-13T07:52:34.000Z</time>
        <extensions>
          <ns3:TrackPointExtension>
            <ns3:hr>81</ns3:hr>
            <ns3:cad>47</ns3:cad>
          </ns3:TrackPointExtension>
        </extensions>
      </trkpt>
      <trkpt lat="43.77290085889399051666259765625" lon="1.587307155132293701171875">
        <ele>123</ele>
        <time>2026-08-13T07:52:35.000Z</time>
        <extensions>
          <ns3:TrackPointExtension>
            <ns3:hr>81</ns3:hr>
            <ns3:cad>46</ns3:cad>
          </ns3:TrackPointExtension>
        </extensions>
      </trkpt>
      <trkpt lat="43.7728935666382312774658203125" lon="1.58731587231159210205078125">
        <ele>123</ele>
        <time>2026-08-13T07:52:36.000Z</time>
        <extensions>
          <ns3:TrackPointExtension>
            <ns3:hr>81</ns3:hr>
            <ns3:cad>46</ns3:cad>
          </ns3:TrackPointExtension>
        </extensions>
      </trkpt>
      <trkpt lat="43.77288593910634517669677734375" lon="1.587328277528285980224609375">
        <ele>123</ele>
        <time>2026-08-13T07:52:37.000Z</time>
        <extensions>
          <ns3:TrackPointExtension>
            <ns3:hr>81</ns3:hr>
            <ns3:cad>46</ns3:cad>
          </ns3:TrackPointExtension>
        </extensions>
      </trkpt>
      <trkpt lat="43.7728778086602687835693359375" lon="1.58733624033629894256591796875">
        <ele>123.1999969482421875</ele>
        <time>2026-08-13T07:52:38.000Z</time>
        <extensions>
          <ns3:TrackPointExtension>
            <ns3:hr>82</ns3:hr>
            <ns3:cad>46</ns3:cad>
          </ns3:TrackPointExtension>
        </extensions>
      </trkpt>
      <trkpt lat="43.77286934293806552886962890625" lon="1.58733992837369441986083984375">
        <ele>123</ele>
        <time>2026-08-13T07:52:39.000Z</time>
        <extensions>
          <ns3:TrackPointExtension>
            <ns3:hr>82</ns3:hr>
            <ns3:cad>46</ns3:cad>
          </ns3:TrackPointExtension>
        </extensions>
      </trkpt>
      <trkpt lat="43.7728613801300525665283203125" lon="1.58734629862010478973388671875">
        <ele>123</ele>
        <time>2026-08-13T07:52:40.000Z</time>
        <extensions>
          <ns3:TrackPointExtension>
            <ns3:hr>82</ns3:hr>
            <ns3:cad>46</ns3:cad>
          </ns3:TrackPointExtension>
        </extensions>
      </trkpt>
      <trkpt lat="43.7728506512939929962158203125" lon="1.58735954202711582183837890625">
        <ele>123</ele>
        <time>2026-08-13T07:52:41.000Z</time>
        <extensions>
          <ns3:TrackPointExtension>
            <ns3:hr>83</ns3:hr>
            <ns3:cad>46</ns3:cad>
          </ns3:TrackPointExtension>
        </extensions>
      </trkpt>
      <trkpt lat="43.77284319140017032623291015625" lon="1.58736591227352619171142578125">
        <ele>123</ele>
        <time>2026-08-13T07:52:42.000Z</time>
        <extensions>
          <ns3:TrackPointExtension>
            <ns3:hr>83</ns3:hr>
            <ns3:cad>46</ns3:cad>
          </ns3:TrackPointExtension>
        </extensions>
      </trkpt>
      <trkpt lat="43.77283514477312564849853515625" lon="1.58737085759639739990234375">
        <ele>123</ele>
        <time>2026-08-13T07:52:43.000Z</time>
        <extensions>
          <ns3:TrackPointExtension>
            <ns3:hr>83</ns3:hr>
            <ns3:cad>46</ns3:cad>
          </ns3:TrackPointExtension>
        </extensions>
      </trkpt>
      <trkpt lat="43.77283045090734958648681640625" lon="1.58737982623279094696044921875">
        <ele>123.1999969482421875</ele>
        <time>2026-08-13T07:52:44.000Z</time>
        <extensions>
          <ns3:TrackPointExtension>
            <ns3:hr>82</ns3:hr>
            <ns3:cad>46</ns3:cad>
          </ns3:TrackPointExtension>
        </extensions>
      </trkpt>
      <trkpt lat="43.77281972207129001617431640625" lon="1.58739021979272365570068359375">
        <ele>123.1999969482421875</ele>
        <time>2026-08-13T07:52:45.000Z</time>
        <extensions>
          <ns3:TrackPointExtension>
            <ns3:hr>82</ns3:hr>
            <ns3:cad>46</ns3:cad>
          </ns3:TrackPointExtension>
        </extensions>
      </trkpt>
      <trkpt lat="43.7728084065020084381103515625" lon="1.58739843405783176422119140625">
        <ele>123.1999969482421875</ele>
        <time>2026-08-13T07:52:46.000Z</time>
        <extensions>
          <ns3:TrackPointExtension>
            <ns3:hr>81</ns3:hr>
            <ns3:cad>0</ns3:cad>
          </ns3:TrackPointExtension>
        </extensions>
      </trkpt>
      <trkpt lat="43.7727993540465831756591796875" lon="1.5874012000858783721923828125">
        <ele>123.1999969482421875</ele>
        <time>2026-08-13T07:52:47.000Z</time>
        <extensions>
          <ns3:TrackPointExtension>
            <ns3:hr>81</ns3:hr>
            <ns3:cad>0</ns3:cad>
          </ns3:TrackPointExtension>
        </extensions>
      </trkpt>
      <trkpt lat="43.77279373817145824432373046875" lon="1.58740497194230556488037109375">
        <ele>123</ele>
        <time>2026-08-13T07:52:48.000Z</time>
        <extensions>
          <ns3:TrackPointExtension>
            <ns3:hr>81</ns3:hr>
            <ns3:cad>45</ns3:cad>
          </ns3:TrackPointExtension>
        </extensions>
      </trkpt>
      <trkpt lat="43.772781752049922943115234375" lon="1.5874159522354602813720703125">
        <ele>123</ele>
        <time>2026-08-13T07:52:49.000Z</time>
        <extensions>
          <ns3:TrackPointExtension>
            <ns3:hr>81</ns3:hr>
            <ns3:cad>45</ns3:cad>
          </ns3:TrackPointExtension>
        </extensions>
      </trkpt>
      <trkpt lat="43.77277068793773651123046875" lon="1.587423495948314666748046875">
        <ele>123</ele>
        <time>2026-08-13T07:52:50.000Z</time>
        <extensions>
          <ns3:TrackPointExtension>
            <ns3:hr>81</ns3:hr>
            <ns3:cad>45</ns3:cad>
          </ns3:TrackPointExtension>
        </extensions>
      </trkpt>
      <trkpt lat="43.7727601267397403717041015625" lon="1.58743011765182018280029296875">
        <ele>123</ele>
        <time>2026-08-13T07:52:51.000Z</time>
        <extensions>
          <ns3:TrackPointExtension>
            <ns3:hr>82</ns3:hr>
            <ns3:cad>47</ns3:cad>
          </ns3:TrackPointExtension>
        </extensions>
      </trkpt>
      <trkpt lat="43.77275149337947368621826171875" lon="1.587432883679866790771484375">
        <ele>123.1999969482421875</ele>
        <time>2026-08-13T07:52:52.000Z</time>
        <extensions>
          <ns3:TrackPointExtension>
            <ns3:hr>81</ns3:hr>
            <ns3:cad>47</ns3:cad>
          </ns3:TrackPointExtension>
        </extensions>
      </trkpt>
      <trkpt lat="43.7727396748960018157958984375" lon="1.58744369633495807647705078125">
        <ele>123.1999969482421875</ele>
        <time>2026-08-13T07:52:53.000Z</time>
        <extensions>
          <ns3:TrackPointExtension>
            <ns3:hr>81</ns3:hr>
            <ns3:cad>47</ns3:cad>
          </ns3:TrackPointExtension>
        </extensions>
      </trkpt>
      <trkpt lat="43.77273037098348140716552734375" lon="1.5874545089900493621826171875">
        <ele>123.1999969482421875</ele>
        <time>2026-08-13T07:52:54.000Z</time>
        <extensions>
          <ns3:TrackPointExtension>
            <ns3:hr>81</ns3:hr>
            <ns3:cad>46</ns3:cad>
          </ns3:TrackPointExtension>
        </extensions>
      </trkpt>
      <trkpt lat="43.77272215671837329864501953125" lon="1.58745911903679370880126953125">
        <ele>123.1999969482421875</ele>
        <time>2026-08-13T07:52:55.000Z</time>
        <extensions>
          <ns3:TrackPointExtension>
            <ns3:hr>82</ns3:hr>
            <ns3:cad>46</ns3:cad>
          </ns3:TrackPointExtension>
        </extensions>
      </trkpt>
      <trkpt lat="43.77271411009132862091064453125" lon="1.58745844848453998565673828125">
        <ele>123.1999969482421875</ele>
        <time>2026-08-13T07:52:56.000Z</time>
        <extensions>
          <ns3:TrackPointExtension>
            <ns3:hr>81</ns3:hr>
            <ns3:cad>47</ns3:cad>
          </ns3:TrackPointExtension>
        </extensions>
      </trkpt>
      <trkpt lat="43.77270405180752277374267578125" lon="1.5874649025499820709228515625">
        <ele>123.1999969482421875</ele>
        <time>2026-08-13T07:52:57.000Z</time>
        <extensions>
          <ns3:TrackPointExtension>
            <ns3:hr>81</ns3:hr>
            <ns3:cad>47</ns3:cad>
          </ns3:TrackPointExtension>
        </extensions>
      </trkpt>
      <trkpt lat="43.77269516699016094207763671875" lon="1.5874721109867095947265625">
        <ele>123.1999969482421875</ele>
        <time>2026-08-13T07:52:58.000Z</time>
        <extensions>
          <ns3:TrackPointExtension>
            <ns3:hr>82</ns3:hr>
            <ns3:cad>47</ns3:cad>
          </ns3:TrackPointExtension>
        </extensions>
      </trkpt>
      <trkpt lat="43.7726841866970062255859375" lon="1.58747948706150054931640625">
        <ele>123.1999969482421875</ele>
        <time>2026-08-13T07:52:59.000Z</time>
        <extensions>
          <ns3:TrackPointExtension>
            <ns3:hr>81</ns3:hr>
            <ns3:cad>46</ns3:cad>
          </ns3:TrackPointExtension>
        </extensions>
      </trkpt>
      <trkpt lat="43.77267278730869293212890625" lon="1.5874853543937206268310546875">
        <ele>123.1999969482421875</ele>
        <time>2026-08-13T07:53:00.000Z</time>
        <extensions>
          <ns3:TrackPointExtension>
            <ns3:hr>82</ns3:hr>
            <ns3:cad>46</ns3:cad>
          </ns3:TrackPointExtension>
        </extensions>
      </trkpt>
      <trkpt lat="43.772665746510028839111328125" lon="1.58748946152627468109130859375">
        <ele>123.1999969482421875</ele>
        <time>2026-08-13T07:53:01.000Z</time>
        <extensions>
          <ns3:TrackPointExtension>
            <ns3:hr>81</ns3:hr>
            <ns3:cad>46</ns3:cad>
          </ns3:TrackPointExtension>
        </extensions>
      </trkpt>
      <trkpt lat="43.77265711314976215362548828125" lon="1.587496586143970489501953125">
        <ele>123.1999969482421875</ele>
        <time>2026-08-13T07:53:02.000Z</time>
        <extensions>
          <ns3:TrackPointExtension>
            <ns3:hr>81</ns3:hr>
            <ns3:cad>46</ns3:cad>
          </ns3:TrackPointExtension>
        </extensions>
      </trkpt>
      <trkpt lat="43.7726471386849880218505859375" lon="1.58750639297068119049072265625">
        <ele>123.1999969482421875</ele>
        <time>2026-08-13T07:53:03.000Z</time>
        <extensions>
          <ns3:TrackPointExtension>
            <ns3:hr>81</ns3:hr>
            <ns3:cad>47</ns3:cad>
          </ns3:TrackPointExtension>
        </extensions>
      </trkpt>
      <trkpt lat="43.7726384215056896209716796875" lon="1.5875135175883769989013671875">
        <ele>123.1999969482421875</ele>
        <time>2026-08-13T07:53:04.000Z</time>
        <extensions>
          <ns3:TrackPointExtension>
            <ns3:hr>82</ns3:hr>
            <ns3:cad>47</ns3:cad>
          </ns3:TrackPointExtension>
        </extensions>
      </trkpt>
      <trkpt lat="43.7726305425167083740234375" lon="1.5875185467302799224853515625">
        <ele>123.1999969482421875</ele>
        <time>2026-08-13T07:53:05.000Z</time>
        <extensions>
          <ns3:TrackPointExtension>
            <ns3:hr>81</ns3:hr>
            <ns3:cad>48</ns3:cad>
          </ns3:TrackPointExtension>
        </extensions>
      </trkpt>
      <trkpt lat="43.7726206518709659576416015625" lon="1.587521731853485107421875">
        <ele>123.1999969482421875</ele>
        <time>2026-08-13T07:53:06.000Z</time>
        <extensions>
          <ns3:TrackPointExtension>
            <ns3:hr>82</ns3:hr>
            <ns3:cad>48</ns3:cad>
          </ns3:TrackPointExtension>
        </extensions>
      </trkpt>
      <trkpt lat="43.77261000685393810272216796875" lon="1.587526760995388031005859375">
        <ele>123.1999969482421875</ele>
        <time>2026-08-13T07:53:07.000Z</time>
        <extensions>
          <ns3:TrackPointExtension>
            <ns3:hr>82</ns3:hr>
            <ns3:cad>48</ns3:cad>
          </ns3:TrackPointExtension>
        </extensions>
      </trkpt>
      <trkpt lat="43.7726002000272274017333984375" lon="1.5875312872231006622314453125">
        <ele>123.1999969482421875</ele>
        <time>2026-08-13T07:53:08.000Z</time>
        <extensions>
          <ns3:TrackPointExtension>
            <ns3:hr>82</ns3:hr>
            <ns3:cad>48</ns3:cad>
          </ns3:TrackPointExtension>
        </extensions>
      </trkpt>
      <trkpt lat="43.77259089611470699310302734375" lon="1.58753656782209873199462890625">
        <ele>123.1999969482421875</ele>
        <time>2026-08-13T07:53:09.000Z</time>
        <extensions>
          <ns3:TrackPointExtension>
            <ns3:hr>82</ns3:hr>
            <ns3:cad>47</ns3:cad>
          </ns3:TrackPointExtension>
        </extensions>
      </trkpt>
      <trkpt lat="43.7725841067731380462646484375" lon="1.58753983676433563232421875">
        <ele>123.40000152587890625</ele>
        <time>2026-08-13T07:53:10.000Z</time>
        <extensions>
          <ns3:TrackPointExtension>
            <ns3:hr>82</ns3:hr>
            <ns3:cad>47</ns3:cad>
          </ns3:TrackPointExtension>
        </extensions>
      </trkpt>
      <trkpt lat="43.772571869194507598876953125" lon="1.58754679374396800994873046875">
        <ele>123.40000152587890625</ele>
        <time>2026-08-13T07:53:11.000Z</time>
        <extensions>
          <ns3:TrackPointExtension>
            <ns3:hr>83</ns3:hr>
            <ns3:cad>47</ns3:cad>
          </ns3:TrackPointExtension>
        </extensions>
      </trkpt>
      <trkpt lat="43.772561810910701751708984375" lon="1.587556935846805572509765625">
        <ele>123.40000152587890625</ele>
        <time>2026-08-13T07:53:12.000Z</time>
        <extensions>
          <ns3:TrackPointExtension>
            <ns3:hr>82</ns3:hr>
            <ns3:cad>47</ns3:cad>
          </ns3:TrackPointExtension>
        </extensions>
      </trkpt>
      <trkpt lat="43.77255351282656192779541015625" lon="1.5875617973506450653076171875">
        <ele>123.40000152587890625</ele>
        <time>2026-08-13T07:53:13.000Z</time>
        <extensions>
          <ns3:TrackPointExtension>
            <ns3:hr>83</ns3:hr>
            <ns3:cad>47</ns3:cad>
          </ns3:TrackPointExtension>
        </extensions>
      </trkpt>
      <trkpt lat="43.77254546619951725006103515625" lon="1.58756422810256481170654296875">
        <ele>123.1999969482421875</ele>
        <time>2026-08-13T07:53:14.000Z</time>
        <extensions>
          <ns3:TrackPointExtension>
            <ns3:hr>83</ns3:hr>
            <ns3:cad>47</ns3:cad>
          </ns3:TrackPointExtension>
        </extensions>
      </trkpt>
      <trkpt lat="43.77253641374409198760986328125" lon="1.58756934106349945068359375">
        <ele>123.1999969482421875</ele>
        <time>2026-08-13T07:53:15.000Z</time>
        <extensions>
          <ns3:TrackPointExtension>
            <ns3:hr>83</ns3:hr>
            <ns3:cad>47</ns3:cad>
          </ns3:TrackPointExtension>
        </extensions>
      </trkpt>
      <trkpt lat="43.77252350561320781707763671875" lon="1.58757545985281467437744140625">
        <ele>123.1999969482421875</ele>
        <time>2026-08-13T07:53:16.000Z</time>
        <extensions>
          <ns3:TrackPointExtension>
            <ns3:hr>83</ns3:hr>
            <ns3:cad>46</ns3:cad>
          </ns3:TrackPointExtension>
        </extensions>
      </trkpt>
      <trkpt lat="43.77251244150102138519287109375" lon="1.5875835902988910675048828125">
        <ele>123.1999969482421875</ele>
        <time>2026-08-13T07:53:17.000Z</time>
        <extensions>
          <ns3:TrackPointExtension>
            <ns3:hr>83</ns3:hr>
            <ns3:cad>46</ns3:cad>
          </ns3:TrackPointExtension>
        </extensions>
      </trkpt>
      <trkpt lat="43.772502802312374114990234375" lon="1.587586440145969390869140625">
        <ele>123.1999969482421875</ele>
        <time>2026-08-13T07:53:18.000Z</time>
        <extensions>
          <ns3:TrackPointExtension>
            <ns3:hr>82</ns3:hr>
            <ns3:cad>46</ns3:cad>
          </ns3:TrackPointExtension>
        </extensions>
      </trkpt>
      <trkpt lat="43.77249467186629772186279296875" lon="1.58758920617401599884033203125">
        <ele>123.1999969482421875</ele>
        <time>2026-08-13T07:53:19.000Z</time>
        <extensions>
          <ns3:TrackPointExtension>
            <ns3:hr>82</ns3:hr>
            <ns3:cad>47</ns3:cad>
          </ns3:TrackPointExtension>
        </extensions>
      </trkpt>
      <trkpt lat="43.77248193137347698211669921875" lon="1.58760094083845615386962890625">
        <ele>123.40000152587890625</ele>
        <time>2026-08-13T07:53:20.000Z</time>
        <extensions>
          <ns3:TrackPointExtension>
            <ns3:hr>82</ns3:hr>
            <ns3:cad>47</ns3:cad>
          </ns3:TrackPointExtension>
        </extensions>
      </trkpt>
      <trkpt lat="43.7724717892706394195556640625" lon="1.5876110829412937164306640625">
        <ele>123.40000152587890625</ele>
        <time>2026-08-13T07:53:21.000Z</time>
        <extensions>
          <ns3:TrackPointExtension>
            <ns3:hr>82</ns3:hr>
            <ns3:cad>46</ns3:cad>
          </ns3:TrackPointExtension>
        </extensions>
      </trkpt>
      <trkpt lat="43.772462904453277587890625" lon="1.587619967758655548095703125">
        <ele>123.40000152587890625</ele>
        <time>2026-08-13T07:53:22.000Z</time>
        <extensions>
          <ns3:TrackPointExtension>
            <ns3:hr>82</ns3:hr>
            <ns3:cad>46</ns3:cad>
          </ns3:TrackPointExtension>
        </extensions>
      </trkpt>
      <trkpt lat="43.77245552837848663330078125" lon="1.58762457780539989471435546875">
        <ele>123.40000152587890625</ele>
        <time>2026-08-13T07:53:23.000Z</time>
        <extensions>
          <ns3:TrackPointExtension>
            <ns3:hr>82</ns3:hr>
            <ns3:cad>45</ns3:cad>
          </ns3:TrackPointExtension>
        </extensions>
      </trkpt>
      <trkpt lat="43.7724486552178859710693359375" lon="1.5876322053372859954833984375">
        <ele>123.40000152587890625</ele>
        <time>2026-08-13T07:53:24.000Z</time>
        <extensions>
          <ns3:TrackPointExtension>
            <ns3:hr>83</ns3:hr>
            <ns3:cad>45</ns3:cad>
          </ns3:TrackPointExtension>
        </extensions>
      </trkpt>
      <trkpt lat="43.772438429296016693115234375" lon="1.587644778192043304443359375">
        <ele>123.40000152587890625</ele>
        <time>2026-08-13T07:53:25.000Z</time>
        <extensions>
          <ns3:TrackPointExtension>
            <ns3:hr>83</ns3:hr>
            <ns3:cad>45</ns3:cad>
          </ns3:TrackPointExtension>
        </extensions>
      </trkpt>
      <trkpt lat="43.7724278680980205535888671875" lon="1.58765056170523166656494140625">
        <ele>123.40000152587890625</ele>
        <time>2026-08-13T07:53:26.000Z</time>
        <extensions>
          <ns3:TrackPointExtension>
            <ns3:hr>83</ns3:hr>
            <ns3:cad>47</ns3:cad>
          </ns3:TrackPointExtension>
        </extensions>
      </trkpt>
      <trkpt lat="43.7724240124225616455078125" lon="1.5876536630094051361083984375">
        <ele>123.40000152587890625</ele>
        <time>2026-08-13T07:53:27.000Z</time>
        <extensions>
          <ns3:TrackPointExtension>
            <ns3:hr>83</ns3:hr>
            <ns3:cad>47</ns3:cad>
          </ns3:TrackPointExtension>
        </extensions>
      </trkpt>
      <trkpt lat="43.7724151276051998138427734375" lon="1.5876586921513080596923828125">
        <ele>123.40000152587890625</ele>
        <time>2026-08-13T07:53:28.000Z</time>
        <extensions>
          <ns3:TrackPointExtension>
            <ns3:hr>83</ns3:hr>
            <ns3:cad>47</ns3:cad>
          </ns3:TrackPointExtension>
        </extensions>
      </trkpt>
      <trkpt lat="43.77240129746496677398681640625" lon="1.5876670740544795989990234375">
        <ele>123.40000152587890625</ele>
        <time>2026-08-13T07:53:29.000Z</time>
        <extensions>
          <ns3:TrackPointExtension>
            <ns3:hr>83</ns3:hr>
            <ns3:cad>47</ns3:cad>
          </ns3:TrackPointExtension>
        </extensions>
      </trkpt>
      <trkpt lat="43.772388808429241180419921875" lon="1.58767855726182460784912109375">
        <ele>123.40000152587890625</ele>
        <time>2026-08-13T07:53:30.000Z</time>
        <extensions>
          <ns3:TrackPointExtension>
            <ns3:hr>82</ns3:hr>
            <ns3:cad>47</ns3:cad>
          </ns3:TrackPointExtension>
        </extensions>
      </trkpt>
      <trkpt lat="43.7723784148693084716796875" lon="1.58768090419471263885498046875">
        <ele>123.40000152587890625</ele>
        <time>2026-08-13T07:53:31.000Z</time>
        <extensions>
          <ns3:TrackPointExtension>
            <ns3:hr>83</ns3:hr>
            <ns3:cad>47</ns3:cad>
          </ns3:TrackPointExtension>
        </extensions>
      </trkpt>
      <trkpt lat="43.77237129025161266326904296875" lon="1.5876841731369495391845703125">
        <ele>123.40000152587890625</ele>
        <time>2026-08-13T07:53:32.000Z</time>
        <extensions>
          <ns3:TrackPointExtension>
            <ns3:hr>83</ns3:hr>
            <ns3:cad>47</ns3:cad>
          </ns3:TrackPointExtension>
        </extensions>
      </trkpt>
      <trkpt lat="43.77235762774944305419921875" lon="1.58769138157367706298828125">
        <ele>123.40000152587890625</ele>
        <time>2026-08-13T07:53:33.000Z</time>
        <extensions>
          <ns3:TrackPointExtension>
            <ns3:hr>83</ns3:hr>
            <ns3:cad>47</ns3:cad>
          </ns3:TrackPointExtension>
        </extensions>
      </trkpt>
      <trkpt lat="43.77234865911304950714111328125" lon="1.5877026133239269256591796875">
        <ele>123.40000152587890625</ele>
        <time>2026-08-13T07:53:34.000Z</time>
        <extensions>
          <ns3:TrackPointExtension>
            <ns3:hr>83</ns3:hr>
            <ns3:cad>47</ns3:cad>
          </ns3:TrackPointExtension>
        </extensions>
      </trkpt>
      <trkpt lat="43.77233843319118022918701171875" lon="1.5877083130180835723876953125">
        <ele>123.40000152587890625</ele>
        <time>2026-08-13T07:53:35.000Z</time>
        <extensions>
          <ns3:TrackPointExtension>
            <ns3:hr>84</ns3:hr>
            <ns3:cad>47</ns3:cad>
          </ns3:TrackPointExtension>
        </extensions>
      </trkpt>
      <trkpt lat="43.77233139239251613616943359375" lon="1.58771124668419361114501953125">
        <ele>123.40000152587890625</ele>
        <time>2026-08-13T07:53:36.000Z</time>
        <extensions>
          <ns3:TrackPointExtension>
            <ns3:hr>84</ns3:hr>
            <ns3:cad>47</ns3:cad>
          </ns3:TrackPointExtension>
        </extensions>
      </trkpt>
      <trkpt lat="43.7723194062709808349609375" lon="1.5877188742160797119140625">
        <ele>123.40000152587890625</ele>
        <time>2026-08-13T07:53:37.000Z</time>
        <extensions>
          <ns3:TrackPointExtension>
            <ns3:hr>84</ns3:hr>
            <ns3:cad>46</ns3:cad>
          </ns3:TrackPointExtension>
        </extensions>
      </trkpt>
      <trkpt lat="43.7723100185394287109375" lon="1.587729267776012420654296875">
        <ele>123.40000152587890625</ele>
        <time>2026-08-13T07:53:38.000Z</time>
        <extensions>
          <ns3:TrackPointExtension>
            <ns3:hr>85</ns3:hr>
            <ns3:cad>46</ns3:cad>
          </ns3:TrackPointExtension>
        </extensions>
      </trkpt>
      <trkpt lat="43.77230104990303516387939453125" lon="1.58773672766983509063720703125">
        <ele>123.59999847412109375</ele>
        <time>2026-08-13T07:53:39.000Z</time>
        <extensions>
          <ns3:TrackPointExtension>
            <ns3:hr>85</ns3:hr>
            <ns3:cad>46</ns3:cad>
          </ns3:TrackPointExtension>
        </extensions>
      </trkpt>
      <trkpt lat="43.772292919456958770751953125" lon="1.58773756586015224456787109375">
        <ele>123.59999847412109375</ele>
        <time>2026-08-13T07:53:40.000Z</time>
        <extensions>
          <ns3:TrackPointExtension>
            <ns3:hr>85</ns3:hr>
            <ns3:cad>46</ns3:cad>
          </ns3:TrackPointExtension>
        </extensions>
      </trkpt>
      <trkpt lat="43.77228227443993091583251953125" lon="1.58774326555430889129638671875">
        <ele>123.59999847412109375</ele>
        <time>2026-08-13T07:53:41.000Z</time>
        <extensions>
          <ns3:TrackPointExtension>
            <ns3:hr>86</ns3:hr>
            <ns3:cad>46</ns3:cad>
          </ns3:TrackPointExtension>
        </extensions>
      </trkpt>
      <trkpt lat="43.7722699530422687530517578125" lon="1.58774913288652896881103515625">
        <ele>123.59999847412109375</ele>
        <time>2026-08-13T07:53:42.000Z</time>
        <extensions>
          <ns3:TrackPointExtension>
            <ns3:hr>86</ns3:hr>
            <ns3:cad>47</ns3:cad>
          </ns3:TrackPointExtension>
        </extensions>
      </trkpt>
      <trkpt lat="43.772261403501033782958984375" lon="1.58775550313293933868408203125">
        <ele>123.59999847412109375</ele>
        <time>2026-08-13T07:53:43.000Z</time>
        <extensions>
          <ns3:TrackPointExtension>
            <ns3:hr>87</ns3:hr>
            <ns3:cad>46</ns3:cad>
          </ns3:TrackPointExtension>
        </extensions>
      </trkpt>
      <trkpt lat="43.77225561998784542083740234375" lon="1.58776002936065196990966796875">
        <ele>123.59999847412109375</ele>
        <time>2026-08-13T07:53:44.000Z</time>
        <extensions>
          <ns3:TrackPointExtension>
            <ns3:hr>87</ns3:hr>
            <ns3:cad>46</ns3:cad>
          </ns3:TrackPointExtension>
        </extensions>
      </trkpt>
      <trkpt lat="43.772249333560466766357421875" lon="1.5877659805119037628173828125">
        <ele>123.59999847412109375</ele>
        <time>2026-08-13T07:53:45.000Z</time>
        <extensions>
          <ns3:TrackPointExtension>
            <ns3:hr>87</ns3:hr>
            <ns3:cad>46</ns3:cad>
          </ns3:TrackPointExtension>
        </extensions>
      </trkpt>
      <trkpt lat="43.77224472351372241973876953125" lon="1.58777712844312191009521484375">
        <ele>123.59999847412109375</ele>
        <time>2026-08-13T07:53:46.000Z</time>
        <extensions>
          <ns3:TrackPointExtension>
            <ns3:hr>87</ns3:hr>
            <ns3:cad>46</ns3:cad>
          </ns3:TrackPointExtension>
        </extensions>
      </trkpt>
      <trkpt lat="43.7722401134669780731201171875" lon="1.58778483979403972625732421875">
        <ele>123.59999847412109375</ele>
        <time>2026-08-13T07:53:47.000Z</time>
        <extensions>
          <ns3:TrackPointExtension>
            <ns3:hr>87</ns3:hr>
            <ns3:cad>45</ns3:cad>
          </ns3:TrackPointExtension>
        </extensions>
      </trkpt>
      <trkpt lat="43.77223365940153598785400390625" lon="1.58779171295464038848876953125">
        <ele>123.59999847412109375</ele>
        <time>2026-08-13T07:53:48.000Z</time>
        <extensions>
          <ns3:TrackPointExtension>
            <ns3:hr>83</ns3:hr>
            <ns3:cad>45</ns3:cad>
          </ns3:TrackPointExtension>
        </extensions>
      </trkpt>
      <trkpt lat="43.77222645096480846405029296875" lon="1.587794311344623565673828125">
        <ele>123.59999847412109375</ele>
        <time>2026-08-13T07:53:49.000Z</time>
        <extensions>
          <ns3:TrackPointExtension>
            <ns3:hr>79</ns3:hr>
            <ns3:cad>45</ns3:cad>
          </ns3:TrackPointExtension>
        </extensions>
      </trkpt>
      <trkpt lat="43.7722126208245754241943359375" lon="1.587801016867160797119140625">
        <ele>123.59999847412109375</ele>
        <time>2026-08-13T07:53:50.000Z</time>
        <extensions>
          <ns3:TrackPointExtension>
            <ns3:hr>78</ns3:hr>
            <ns3:cad>46</ns3:cad>
          </ns3:TrackPointExtension>
        </extensions>
      </trkpt>
      <trkpt lat="43.7722045741975307464599609375" lon="1.587813086807727813720703125">
        <ele>123.59999847412109375</ele>
        <time>2026-08-13T07:53:51.000Z</time>
        <extensions>
          <ns3:TrackPointExtension>
            <ns3:hr>78</ns3:hr>
            <ns3:cad>46</ns3:cad>
          </ns3:TrackPointExtension>
        </extensions>
      </trkpt>
      <trkpt lat="43.7721960246562957763671875" lon="1.58781920559704303741455078125">
        <ele>123.59999847412109375</ele>
        <time>2026-08-13T07:53:52.000Z</time>
        <extensions>
          <ns3:TrackPointExtension>
            <ns3:hr>78</ns3:hr>
            <ns3:cad>46</ns3:cad>
          </ns3:TrackPointExtension>
        </extensions>
      </trkpt>
      <trkpt lat="43.77218864858150482177734375" lon="1.58781803213059902191162109375">
        <ele>123.59999847412109375</ele>
        <time>2026-08-13T07:53:53.000Z</time>
        <extensions>
          <ns3:TrackPointExtension>
            <ns3:hr>77</ns3:hr>
            <ns3:cad>46</ns3:cad>
          </ns3:TrackPointExtension>
        </extensions>
      </trkpt>
      <trkpt lat="43.7721772491931915283203125" lon="1.5878273360431194305419921875">
        <ele>123.8000030517578125</ele>
        <time>2026-08-13T07:53:54.000Z</time>
        <extensions>
          <ns3:TrackPointExtension>
            <ns3:hr>77</ns3:hr>
            <ns3:cad>46</ns3:cad>
          </ns3:TrackPointExtension>
        </extensions>
      </trkpt>
      <trkpt lat="43.7721656821668148040771484375" lon="1.58784024417400360107421875">
        <ele>123.8000030517578125</ele>
        <time>2026-08-13T07:53:55.000Z</time>
        <extensions>
          <ns3:TrackPointExtension>
            <ns3:hr>76</ns3:hr>
            <ns3:cad>46</ns3:cad>
          </ns3:TrackPointExtension>
        </extensions>
      </trkpt>
      <trkpt lat="43.77215537242591381072998046875" lon="1.58784870989620685577392578125">
        <ele>123.8000030517578125</ele>
        <time>2026-08-13T07:53:56.000Z</time>
        <extensions>
          <ns3:TrackPointExtension>
            <ns3:hr>76</ns3:hr>
            <ns3:cad>45</ns3:cad>
          </ns3:TrackPointExtension>
        </extensions>
      </trkpt>
      <trkpt lat="43.772150762379169464111328125" lon="1.5878538228571414947509765625">
        <ele>123.8000030517578125</ele>
        <time>2026-08-13T07:53:57.000Z</time>
        <extensions>
          <ns3:TrackPointExtension>
            <ns3:hr>76</ns3:hr>
            <ns3:cad>45</ns3:cad>
          </ns3:TrackPointExtension>
        </extensions>
      </trkpt>
      <trkpt lat="43.77214170992374420166015625" lon="1.58786932937800884246826171875">
        <ele>123.8000030517578125</ele>
        <time>2026-08-13T07:53:58.000Z</time>
        <extensions>
          <ns3:TrackPointExtension>
            <ns3:hr>76</ns3:hr>
            <ns3:cad>45</ns3:cad>
          </ns3:TrackPointExtension>
        </extensions>
      </trkpt>
      <trkpt lat="43.7721308134496212005615234375" lon="1.587884835898876190185546875">
        <ele>123.8000030517578125</ele>
        <time>2026-08-13T07:53:59.000Z</time>
        <extensions>
          <ns3:TrackPointExtension>
            <ns3:hr>77</ns3:hr>
            <ns3:cad>45</ns3:cad>
          </ns3:TrackPointExtension>
        </extensions>
      </trkpt>
      <trkpt lat="43.7721210904419422149658203125" lon="1.587891541421413421630859375">
        <ele>123.8000030517578125</ele>
        <time>2026-08-13T07:54:00.000Z</time>
        <extensions>
          <ns3:TrackPointExtension>
            <ns3:hr>76</ns3:hr>
            <ns3:cad>45</ns3:cad>
          </ns3:TrackPointExtension>
        </extensions>
      </trkpt>
      <trkpt lat="43.7721153907477855682373046875" lon="1.587897241115570068359375">
        <ele>123.8000030517578125</ele>
        <time>2026-08-13T07:54:01.000Z</time>
        <extensions>
          <ns3:TrackPointExtension>
            <ns3:hr>77</ns3:hr>
            <ns3:cad>45</ns3:cad>
          </ns3:TrackPointExtension>
        </extensions>
      </trkpt>
      <trkpt lat="43.7721039913594722747802734375" lon="1.58790838904678821563720703125">
        <ele>123.8000030517578125</ele>
        <time>2026-08-13T07:54:02.000Z</time>
        <extensions>
          <ns3:TrackPointExtension>
            <ns3:hr>77</ns3:hr>
            <ns3:cad>45</ns3:cad>
          </ns3:TrackPointExtension>
        </extensions>
      </trkpt>
      <trkpt lat="43.772095106542110443115234375" lon="1.587918698787689208984375">
        <ele>123.8000030517578125</ele>
        <time>2026-08-13T07:54:03.000Z</time>
        <extensions>
          <ns3:TrackPointExtension>
            <ns3:hr>77</ns3:hr>
            <ns3:cad>44</ns3:cad>
          </ns3:TrackPointExtension>
        </extensions>
      </trkpt>
      <trkpt lat="43.7720885686576366424560546875" lon="1.58792414702475070953369140625">
        <ele>123.8000030517578125</ele>
        <time>2026-08-13T07:54:04.000Z</time>
        <extensions>
          <ns3:TrackPointExtension>
            <ns3:hr>77</ns3:hr>
            <ns3:cad>45</ns3:cad>
          </ns3:TrackPointExtension>
        </extensions>
      </trkpt>
      <trkpt lat="43.77208043821156024932861328125" lon="1.58792833797633647918701171875">
        <ele>123.8000030517578125</ele>
        <time>2026-08-13T07:54:05.000Z</time>
        <extensions>
          <ns3:TrackPointExtension>
            <ns3:hr>77</ns3:hr>
            <ns3:cad>45</ns3:cad>
          </ns3:TrackPointExtension>
        </extensions>
      </trkpt>
      <trkpt lat="43.7720718048512935638427734375" lon="1.5879349596798419952392578125">
        <ele>123.8000030517578125</ele>
        <time>2026-08-13T07:54:06.000Z</time>
        <extensions>
          <ns3:TrackPointExtension>
            <ns3:hr>76</ns3:hr>
            <ns3:cad>45</ns3:cad>
          </ns3:TrackPointExtension>
        </extensions>
      </trkpt>
      <trkpt lat="43.77206124365329742431640625" lon="1.5879470296204090118408203125">
        <ele>123.8000030517578125</ele>
        <time>2026-08-13T07:54:07.000Z</time>
        <extensions>
          <ns3:TrackPointExtension>
            <ns3:hr>77</ns3:hr>
            <ns3:cad>45</ns3:cad>
          </ns3:TrackPointExtension>
        </extensions>
      </trkpt>
      <trkpt lat="43.7720547057688236236572265625" lon="1.58795666880905628204345703125">
        <ele>124</ele>
        <time>2026-08-13T07:54:08.000Z</time>
        <extensions>
          <ns3:TrackPointExtension>
            <ns3:hr>77</ns3:hr>
            <ns3:cad>45</ns3:cad>
          </ns3:TrackPointExtension>
        </extensions>
      </trkpt>
      <trkpt lat="43.77204892225563526153564453125" lon="1.5879647992551326751708984375">
        <ele>124</ele>
        <time>2026-08-13T07:54:09.000Z</time>
        <extensions>
          <ns3:TrackPointExtension>
            <ns3:hr>77</ns3:hr>
            <ns3:cad>45</ns3:cad>
          </ns3:TrackPointExtension>
        </extensions>
      </trkpt>
      <trkpt lat="43.7720406241714954376220703125" lon="1.58797435462474822998046875">
        <ele>124</ele>
        <time>2026-08-13T07:54:10.000Z</time>
        <extensions>
          <ns3:TrackPointExtension>
            <ns3:hr>78</ns3:hr>
            <ns3:cad>45</ns3:cad>
          </ns3:TrackPointExtension>
        </extensions>
      </trkpt>
      <trkpt lat="43.77203098498284816741943359375" lon="1.58798516727983951568603515625">
        <ele>123.8000030517578125</ele>
        <time>2026-08-13T07:54:11.000Z</time>
        <extensions>
          <ns3:TrackPointExtension>
            <ns3:hr>78</ns3:hr>
            <ns3:cad>45</ns3:cad>
          </ns3:TrackPointExtension>
        </extensions>
      </trkpt>
      <trkpt lat="43.772022686898708343505859375" lon="1.58799321390688419342041015625">
        <ele>124</ele>
        <time>2026-08-13T07:54:12.000Z</time>
        <extensions>
          <ns3:TrackPointExtension>
            <ns3:hr>78</ns3:hr>
            <ns3:cad>45</ns3:cad>
          </ns3:TrackPointExtension>
        </extensions>
      </trkpt>
      <trkpt lat="43.77201472409069538116455078125" lon="1.58799991942942142486572265625">
        <ele>124</ele>
        <time>2026-08-13T07:54:13.000Z</time>
        <extensions>
          <ns3:TrackPointExtension>
            <ns3:hr>78</ns3:hr>
            <ns3:cad>45</ns3:cad>
          </ns3:TrackPointExtension>
        </extensions>
      </trkpt>
      <trkpt lat="43.7720067612826824188232421875" lon="1.5880080498754978179931640625">
        <ele>124</ele>
        <time>2026-08-13T07:54:14.000Z</time>
        <extensions>
          <ns3:TrackPointExtension>
            <ns3:hr>78</ns3:hr>
            <ns3:cad>45</ns3:cad>
          </ns3:TrackPointExtension>
        </extensions>
      </trkpt>
      <trkpt lat="43.7719970382750034332275390625" lon="1.588017605245113372802734375">
        <ele>124</ele>
        <time>2026-08-13T07:54:15.000Z</time>
        <extensions>
          <ns3:TrackPointExtension>
            <ns3:hr>78</ns3:hr>
            <ns3:cad>45</ns3:cad>
          </ns3:TrackPointExtension>
        </extensions>
      </trkpt>
      <trkpt lat="43.7719913385808467864990234375" lon="1.58802263438701629638671875">
        <ele>124</ele>
        <time>2026-08-13T07:54:16.000Z</time>
        <extensions>
          <ns3:TrackPointExtension>
            <ns3:hr>77</ns3:hr>
            <ns3:cad>45</ns3:cad>
          </ns3:TrackPointExtension>
        </extensions>
      </trkpt>
      <trkpt lat="43.77198304049670696258544921875" lon="1.58803059719502925872802734375">
        <ele>124</ele>
        <time>2026-08-13T07:54:17.000Z</time>
        <extensions>
          <ns3:TrackPointExtension>
            <ns3:hr>78</ns3:hr>
            <ns3:cad>45</ns3:cad>
          </ns3:TrackPointExtension>
        </extensions>
      </trkpt>
      <trkpt lat="43.77197750844061374664306640625" lon="1.58803646452724933624267578125">
        <ele>124</ele>
        <time>2026-08-13T07:54:18.000Z</time>
        <extensions>
          <ns3:TrackPointExtension>
            <ns3:hr>78</ns3:hr>
            <ns3:cad>45</ns3:cad>
          </ns3:TrackPointExtension>
        </extensions>
      </trkpt>
      <trkpt lat="43.7719661928713321685791015625" lon="1.58804476261138916015625">
        <ele>124</ele>
        <time>2026-08-13T07:54:19.000Z</time>
        <extensions>
          <ns3:TrackPointExtension>
            <ns3:hr>78</ns3:hr>
            <ns3:cad>46</ns3:cad>
          </ns3:TrackPointExtension>
        </extensions>
      </trkpt>
      <trkpt lat="43.77195504494011402130126953125" lon="1.5880556590855121612548828125">
        <ele>124</ele>
        <time>2026-08-13T07:54:20.000Z</time>
        <extensions>
          <ns3:TrackPointExtension>
            <ns3:hr>78</ns3:hr>
            <ns3:cad>47</ns3:cad>
          </ns3:TrackPointExtension>
        </extensions>
      </trkpt>
      <trkpt lat="43.77194590866565704345703125" lon="1.58806420862674713134765625">
        <ele>124</ele>
        <time>2026-08-13T07:54:21.000Z</time>
        <extensions>
          <ns3:TrackPointExtension>
            <ns3:hr>78</ns3:hr>
            <ns3:cad>47</ns3:cad>
          </ns3:TrackPointExtension>
        </extensions>
      </trkpt>
      <trkpt lat="43.77193660475313663482666015625" lon="1.588067226111888885498046875">
        <ele>124</ele>
        <time>2026-08-13T07:54:22.000Z</time>
        <extensions>
          <ns3:TrackPointExtension>
            <ns3:hr>78</ns3:hr>
            <ns3:cad>46</ns3:cad>
          </ns3:TrackPointExtension>
        </extensions>
      </trkpt>
      <trkpt lat="43.77192554064095020294189453125" lon="1.58807694911956787109375">
        <ele>124</ele>
        <time>2026-08-13T07:54:23.000Z</time>
        <extensions>
          <ns3:TrackPointExtension>
            <ns3:hr>78</ns3:hr>
            <ns3:cad>46</ns3:cad>
          </ns3:TrackPointExtension>
        </extensions>
      </trkpt>
      <trkpt lat="43.77191447652876377105712890625" lon="1.58808700740337371826171875">
        <ele>124</ele>
        <time>2026-08-13T07:54:24.000Z</time>
        <extensions>
          <ns3:TrackPointExtension>
            <ns3:hr>79</ns3:hr>
            <ns3:cad>45</ns3:cad>
          </ns3:TrackPointExtension>
        </extensions>
      </trkpt>
      <trkpt lat="43.77190374769270420074462890625" lon="1.5880930423736572265625">
        <ele>124</ele>
        <time>2026-08-13T07:54:25.000Z</time>
        <extensions>
          <ns3:TrackPointExtension>
            <ns3:hr>79</ns3:hr>
            <ns3:cad>45</ns3:cad>
          </ns3:TrackPointExtension>
        </extensions>
      </trkpt>
      <trkpt lat="43.77189586870372295379638671875" lon="1.58809840679168701171875">
        <ele>124</ele>
        <time>2026-08-13T07:54:26.000Z</time>
        <extensions>
          <ns3:TrackPointExtension>
            <ns3:hr>79</ns3:hr>
            <ns3:cad>45</ns3:cad>
          </ns3:TrackPointExtension>
        </extensions>
      </trkpt>
      <trkpt lat="43.771887235343456268310546875" lon="1.58810636959969997406005859375">
        <ele>124</ele>
        <time>2026-08-13T07:54:27.000Z</time>
        <extensions>
          <ns3:TrackPointExtension>
            <ns3:hr>79</ns3:hr>
            <ns3:cad>46</ns3:cad>
          </ns3:TrackPointExtension>
        </extensions>
      </trkpt>
      <trkpt lat="43.77187692560255527496337890625" lon="1.58812095411121845245361328125">
        <ele>124</ele>
        <time>2026-08-13T07:54:28.000Z</time>
        <extensions>
          <ns3:TrackPointExtension>
            <ns3:hr>79</ns3:hr>
            <ns3:cad>46</ns3:cad>
          </ns3:TrackPointExtension>
        </extensions>
      </trkpt>
      <trkpt lat="43.77186988480389118194580078125" lon="1.58812765963375568389892578125">
        <ele>124</ele>
        <time>2026-08-13T07:54:29.000Z</time>
        <extensions>
          <ns3:TrackPointExtension>
            <ns3:hr>79</ns3:hr>
            <ns3:cad>46</ns3:cad>
          </ns3:TrackPointExtension>
        </extensions>
      </trkpt>
      <trkpt lat="43.7718634307384490966796875" lon="1.5881327725946903228759765625">
        <ele>124</ele>
        <time>2026-08-13T07:54:30.000Z</time>
        <extensions>
          <ns3:TrackPointExtension>
            <ns3:hr>79</ns3:hr>
            <ns3:cad>46</ns3:cad>
          </ns3:TrackPointExtension>
        </extensions>
      </trkpt>
      <trkpt lat="43.77185043878853321075439453125" lon="1.58813394606113433837890625">
        <ele>124</ele>
        <time>2026-08-13T07:54:31.000Z</time>
        <extensions>
          <ns3:TrackPointExtension>
            <ns3:hr>79</ns3:hr>
            <ns3:cad>46</ns3:cad>
          </ns3:TrackPointExtension>
        </extensions>
      </trkpt>
      <trkpt lat="43.7718428112566471099853515625" lon="1.58814140595495700836181640625">
        <ele>124</ele>
        <time>2026-08-13T07:54:32.000Z</time>
        <extensions>
          <ns3:TrackPointExtension>
            <ns3:hr>79</ns3:hr>
            <ns3:cad>46</ns3:cad>
          </ns3:TrackPointExtension>
        </extensions>
      </trkpt>
      <trkpt lat="43.7718364410102367401123046875" lon="1.58815230242908000946044921875">
        <ele>124</ele>
        <time>2026-08-13T07:54:33.000Z</time>
        <extensions>
          <ns3:TrackPointExtension>
            <ns3:hr>80</ns3:hr>
            <ns3:cad>46</ns3:cad>
          </ns3:TrackPointExtension>
        </extensions>
      </trkpt>
      <trkpt lat="43.77183048985898494720458984375" lon="1.58815766684710979461669921875">
        <ele>124</ele>
        <time>2026-08-13T07:54:34.000Z</time>
        <extensions>
          <ns3:TrackPointExtension>
            <ns3:hr>79</ns3:hr>
            <ns3:cad>46</ns3:cad>
          </ns3:TrackPointExtension>
        </extensions>
      </trkpt>
      <trkpt lat="43.771823532879352569580078125" lon="1.58816454000771045684814453125">
        <ele>124</ele>
        <time>2026-08-13T07:54:35.000Z</time>
        <extensions>
          <ns3:TrackPointExtension>
            <ns3:hr>79</ns3:hr>
            <ns3:cad>46</ns3:cad>
          </ns3:TrackPointExtension>
        </extensions>
      </trkpt>
      <trkpt lat="43.77181523479521274566650390625" lon="1.58817962743341922760009765625">
        <ele>124</ele>
        <time>2026-08-13T07:54:36.000Z</time>
        <extensions>
          <ns3:TrackPointExtension>
            <ns3:hr>80</ns3:hr>
            <ns3:cad>46</ns3:cad>
          </ns3:TrackPointExtension>
        </extensions>
      </trkpt>
      <trkpt lat="43.77180735580623149871826171875" lon="1.5881931222975254058837890625">
        <ele>124</ele>
        <time>2026-08-13T07:54:37.000Z</time>
        <extensions>
          <ns3:TrackPointExtension>
            <ns3:hr>79</ns3:hr>
            <ns3:cad>47</ns3:cad>
          </ns3:TrackPointExtension>
        </extensions>
      </trkpt>
      <trkpt lat="43.7718002311885356903076171875" lon="1.588199324905872344970703125">
        <ele>124</ele>
        <time>2026-08-13T07:54:38.000Z</time>
        <extensions>
          <ns3:TrackPointExtension>
            <ns3:hr>79</ns3:hr>
            <ns3:cad>47</ns3:cad>
          </ns3:TrackPointExtension>
        </extensions>
      </trkpt>
      <trkpt lat="43.77179662697017192840576171875" lon="1.58820879645645618438720703125">
        <ele>124</ele>
        <time>2026-08-13T07:54:39.000Z</time>
        <extensions>
          <ns3:TrackPointExtension>
            <ns3:hr>78</ns3:hr>
            <ns3:cad>47</ns3:cad>
          </ns3:TrackPointExtension>
        </extensions>
      </trkpt>
      <trkpt lat="43.77178355120122432708740234375" lon="1.588224805891513824462890625">
        <ele>124</ele>
        <time>2026-08-13T07:54:40.000Z</time>
        <extensions>
          <ns3:TrackPointExtension>
            <ns3:hr>77</ns3:hr>
            <ns3:cad>47</ns3:cad>
          </ns3:TrackPointExtension>
        </extensions>
      </trkpt>
      <trkpt lat="43.77177466638386249542236328125" lon="1.58823679201304912567138671875">
        <ele>124.1999969482421875</ele>
        <time>2026-08-13T07:54:41.000Z</time>
        <extensions>
          <ns3:TrackPointExtension>
            <ns3:hr>76</ns3:hr>
            <ns3:cad>46</ns3:cad>
          </ns3:TrackPointExtension>
        </extensions>
      </trkpt>
      <trkpt lat="43.77176578156650066375732421875" lon="1.58824659883975982666015625">
        <ele>124.1999969482421875</ele>
        <time>2026-08-13T07:54:42.000Z</time>
        <extensions>
          <ns3:TrackPointExtension>
            <ns3:hr>76</ns3:hr>
            <ns3:cad>46</ns3:cad>
          </ns3:TrackPointExtension>
        </extensions>
      </trkpt>
      <trkpt lat="43.77175706438720226287841796875" lon="1.58825598657131195068359375">
        <ele>124.1999969482421875</ele>
        <time>2026-08-13T07:54:43.000Z</time>
        <extensions>
          <ns3:TrackPointExtension>
            <ns3:hr>76</ns3:hr>
            <ns3:cad>45</ns3:cad>
          </ns3:TrackPointExtension>
        </extensions>
      </trkpt>
      <trkpt lat="43.7717449106276035308837890625" lon="1.588268391788005828857421875">
        <ele>124.1999969482421875</ele>
        <time>2026-08-13T07:54:44.000Z</time>
        <extensions>
          <ns3:TrackPointExtension>
            <ns3:hr>77</ns3:hr>
            <ns3:cad>44</ns3:cad>
          </ns3:TrackPointExtension>
        </extensions>
      </trkpt>
      <trkpt lat="43.77173669636249542236328125" lon="1.58827853389084339141845703125">
        <ele>124.1999969482421875</ele>
        <time>2026-08-13T07:54:45.000Z</time>
        <extensions>
          <ns3:TrackPointExtension>
            <ns3:hr>78</ns3:hr>
            <ns3:cad>44</ns3:cad>
          </ns3:TrackPointExtension>
        </extensions>
      </trkpt>
      <trkpt lat="43.7717331759631633758544921875" lon="1.58828339539468288421630859375">
        <ele>124.1999969482421875</ele>
        <time>2026-08-13T07:54:46.000Z</time>
        <extensions>
          <ns3:TrackPointExtension>
            <ns3:hr>78</ns3:hr>
            <ns3:cad>45</ns3:cad>
          </ns3:TrackPointExtension>
        </extensions>
      </trkpt>
      <trkpt lat="43.77172051928937435150146484375" lon="1.588287167251110076904296875">
        <ele>124.1999969482421875</ele>
        <time>2026-08-13T07:54:47.000Z</time>
        <extensions>
          <ns3:TrackPointExtension>
            <ns3:hr>79</ns3:hr>
            <ns3:cad>45</ns3:cad>
          </ns3:TrackPointExtension>
        </extensions>
      </trkpt>
      <trkpt lat="43.7717120535671710968017578125" lon="1.58829898573458194732666015625">
        <ele>124.1999969482421875</ele>
        <time>2026-08-13T07:54:48.000Z</time>
        <extensions>
          <ns3:TrackPointExtension>
            <ns3:hr>79</ns3:hr>
            <ns3:cad>45</ns3:cad>
          </ns3:TrackPointExtension>
        </extensions>
      </trkpt>
      <trkpt lat="43.7717051804065704345703125" lon="1.5883040986955165863037109375">
        <ele>124.1999969482421875</ele>
        <time>2026-08-13T07:54:49.000Z</time>
        <extensions>
          <ns3:TrackPointExtension>
            <ns3:hr>80</ns3:hr>
            <ns3:cad>45</ns3:cad>
          </ns3:TrackPointExtension>
        </extensions>
      </trkpt>
      <trkpt lat="43.771698474884033203125" lon="1.58830535598099231719970703125">
        <ele>124.1999969482421875</ele>
        <time>2026-08-13T07:54:50.000Z</time>
        <extensions>
          <ns3:TrackPointExtension>
            <ns3:hr>80</ns3:hr>
            <ns3:cad>45</ns3:cad>
          </ns3:TrackPointExtension>
        </extensions>
      </trkpt>
      <trkpt lat="43.77169051207602024078369140625" lon="1.58831004984676837921142578125">
        <ele>124.1999969482421875</ele>
        <time>2026-08-13T07:54:51.000Z</time>
        <extensions>
          <ns3:TrackPointExtension>
            <ns3:hr>81</ns3:hr>
            <ns3:cad>0</ns3:cad>
          </ns3:TrackPointExtension>
        </extensions>
      </trkpt>
      <trkpt lat="43.77168715931475162506103515625" lon="1.588311977684497833251953125">
        <ele>124.1999969482421875</ele>
        <time>2026-08-13T07:54:52.000Z</time>
        <extensions>
          <ns3:TrackPointExtension>
            <ns3:hr>81</ns3:hr>
            <ns3:cad>0</ns3:cad>
          </ns3:TrackPointExtension>
        </extensions>
      </trkpt>
      <trkpt lat="43.77167995087802410125732421875" lon="1.58831499516963958740234375">
        <ele>124.1999969482421875</ele>
        <time>2026-08-13T07:54:53.000Z</time>
        <extensions>
          <ns3:TrackPointExtension>
            <ns3:hr>81</ns3:hr>
            <ns3:cad>0</ns3:cad>
          </ns3:TrackPointExtension>
        </extensions>
      </trkpt>
      <trkpt lat="43.771686069667339324951171875" lon="1.58831633627414703369140625">
        <ele>124.1999969482421875</ele>
        <time>2026-08-13T07:54:54.000Z</time>
        <extensions>
          <ns3:TrackPointExtension>
            <ns3:hr>81</ns3:hr>
            <ns3:cad>0</ns3:cad>
          </ns3:TrackPointExtension>
        </extensions>
      </trkpt>
      <trkpt lat="43.77168313600122928619384765625" lon="1.58831926994025707244873046875">
        <ele>124.40000152587890625</ele>
        <time>2026-08-13T07:54:55.000Z</time>
        <extensions>
          <ns3:TrackPointExtension>
            <ns3:hr>82</ns3:hr>
            <ns3:cad>0</ns3:cad>
          </ns3:TrackPointExtension>
        </extensions>
      </trkpt>
      <trkpt lat="43.7716812081634998321533203125" lon="1.588322035968303680419921875">
        <ele>124.40000152587890625</ele>
        <time>2026-08-13T07:54:56.000Z</time>
        <extensions>
          <ns3:TrackPointExtension>
            <ns3:hr>82</ns3:hr>
            <ns3:cad>0</ns3:cad>
          </ns3:TrackPointExtension>
        </extensions>
      </trkpt>
      <trkpt lat="43.77168078906834125518798828125" lon="1.58832178451120853424072265625">
        <ele>124.40000152587890625</ele>
        <time>2026-08-13T07:54:57.000Z</time>
        <extensions>
          <ns3:TrackPointExtension>
            <ns3:hr>82</ns3:hr>
            <ns3:cad>0</ns3:cad>
          </ns3:TrackPointExtension>
        </extensions>
      </trkpt>
      <trkpt lat="43.77167961560189723968505859375" lon="1.58832077868282794952392578125">
        <ele>124.40000152587890625</ele>
        <time>2026-08-13T07:54:58.000Z</time>
        <extensions>
          <ns3:TrackPointExtension>
            <ns3:hr>82</ns3:hr>
            <ns3:cad>0</ns3:cad>
          </ns3:TrackPointExtension>
        </extensions>
      </trkpt>
      <trkpt lat="43.77167827449738979339599609375" lon="1.588324047625064849853515625">
        <ele>124.1999969482421875</ele>
        <time>2026-08-13T07:54:59.000Z</time>
        <extensions>
          <ns3:TrackPointExtension>
            <ns3:hr>82</ns3:hr>
            <ns3:cad>0</ns3:cad>
          </ns3:TrackPointExtension>
        </extensions>
      </trkpt>
      <trkpt lat="43.77167726866900920867919921875" lon="1.58832564018666744232177734375">
        <ele>124.40000152587890625</ele>
        <time>2026-08-13T07:55:00.000Z</time>
        <extensions>
          <ns3:TrackPointExtension>
            <ns3:hr>82</ns3:hr>
            <ns3:cad>0</ns3:cad>
          </ns3:TrackPointExtension>
        </extensions>
      </trkpt>
      <trkpt lat="43.771676011383533477783203125" lon="1.58832765184342861175537109375">
        <ele>124.40000152587890625</ele>
        <time>2026-08-13T07:55:01.000Z</time>
        <extensions>
          <ns3:TrackPointExtension>
            <ns3:hr>82</ns3:hr>
            <ns3:cad>0</ns3:cad>
          </ns3:TrackPointExtension>
        </extensions>
      </trkpt>
      <trkpt lat="43.77167458645999431610107421875" lon="1.5883292444050312042236328125">
        <ele>124.40000152587890625</ele>
        <time>2026-08-13T07:55:02.000Z</time>
        <extensions>
          <ns3:TrackPointExtension>
            <ns3:hr>82</ns3:hr>
            <ns3:cad>0</ns3:cad>
          </ns3:TrackPointExtension>
        </extensions>
      </trkpt>
      <trkpt lat="43.77167006023228168487548828125" lon="1.588328741490840911865234375">
        <ele>124.40000152587890625</ele>
        <time>2026-08-13T07:55:03.000Z</time>
        <extensions>
          <ns3:TrackPointExtension>
            <ns3:hr>82</ns3:hr>
            <ns3:cad>0</ns3:cad>
          </ns3:TrackPointExtension>
        </extensions>
      </trkpt>
      <trkpt lat="43.77167039550840854644775390625" lon="1.58833133988082408905029296875">
        <ele>124.59999847412109375</ele>
        <time>2026-08-13T07:55:04.000Z</time>
        <extensions>
          <ns3:TrackPointExtension>
            <ns3:hr>83</ns3:hr>
            <ns3:cad>0</ns3:cad>
          </ns3:TrackPointExtension>
        </extensions>
      </trkpt>
      <trkpt lat="43.77167056314647197723388671875" lon="1.5883325971662998199462890625">
        <ele>124.59999847412109375</ele>
        <time>2026-08-13T07:55:05.000Z</time>
        <extensions>
          <ns3:TrackPointExtension>
            <ns3:hr>82</ns3:hr>
            <ns3:cad>0</ns3:cad>
          </ns3:TrackPointExtension>
        </extensions>
      </trkpt>
      <trkpt lat="43.7716751731932163238525390625" lon="1.58832647837698459625244140625">
        <ele>124.59999847412109375</ele>
        <time>2026-08-13T07:55:06.000Z</time>
        <extensions>
          <ns3:TrackPointExtension>
            <ns3:hr>82</ns3:hr>
            <ns3:cad>0</ns3:cad>
          </ns3:TrackPointExtension>
        </extensions>
      </trkpt>
      <trkpt lat="43.77167793922126293182373046875" lon="1.588326729834079742431640625">
        <ele>124.59999847412109375</ele>
        <time>2026-08-13T07:55:07.000Z</time>
        <extensions>
          <ns3:TrackPointExtension>
            <ns3:hr>83</ns3:hr>
            <ns3:cad>0</ns3:cad>
          </ns3:TrackPointExtension>
        </extensions>
      </trkpt>
      <trkpt lat="43.77167659811675548553466796875" lon="1.58832899294793605804443359375">
        <ele>124.59999847412109375</ele>
        <time>2026-08-13T07:55:08.000Z</time>
        <extensions>
          <ns3:TrackPointExtension>
            <ns3:hr>83</ns3:hr>
            <ns3:cad>0</ns3:cad>
          </ns3:TrackPointExtension>
        </extensions>
      </trkpt>
      <trkpt lat="43.77167710103094577789306640625" lon="1.588328741490840911865234375">
        <ele>124.59999847412109375</ele>
        <time>2026-08-13T07:55:09.000Z</time>
        <extensions>
          <ns3:TrackPointExtension>
            <ns3:hr>83</ns3:hr>
            <ns3:cad>0</ns3:cad>
          </ns3:TrackPointExtension>
        </extensions>
      </trkpt>
      <trkpt lat="43.7716781906783580780029296875" lon="1.58832983113825321197509765625">
        <ele>124.40000152587890625</ele>
        <time>2026-08-13T07:55:10.000Z</time>
        <extensions>
          <ns3:TrackPointExtension>
            <ns3:hr>84</ns3:hr>
            <ns3:cad>0</ns3:cad>
          </ns3:TrackPointExtension>
        </extensions>
      </trkpt>
      <trkpt lat="43.77168129198253154754638671875" lon="1.58832916058599948883056640625">
        <ele>124.40000152587890625</ele>
        <time>2026-08-13T07:55:11.000Z</time>
        <extensions>
          <ns3:TrackPointExtension>
            <ns3:hr>85</ns3:hr>
            <ns3:cad>0</ns3:cad>
          </ns3:TrackPointExtension>
        </extensions>
      </trkpt>
      <trkpt lat="43.77168313600122928619384765625" lon="1.5883292444050312042236328125">
        <ele>124.40000152587890625</ele>
        <time>2026-08-13T07:55:12.000Z</time>
        <extensions>
          <ns3:TrackPointExtension>
            <ns3:hr>85</ns3:hr>
            <ns3:cad>0</ns3:cad>
          </ns3:TrackPointExtension>
        </extensions>
      </trkpt>
      <trkpt lat="43.77168414182960987091064453125" lon="1.588332764804363250732421875">
        <ele>124.40000152587890625</ele>
        <time>2026-08-13T07:55:13.000Z</time>
        <extensions>
          <ns3:TrackPointExtension>
            <ns3:hr>85</ns3:hr>
            <ns3:cad>0</ns3:cad>
          </ns3:TrackPointExtension>
        </extensions>
      </trkpt>
      <trkpt lat="43.7716838903725147247314453125" lon="1.58833444118499755859375">
        <ele>124.40000152587890625</ele>
        <time>2026-08-13T07:55:14.000Z</time>
        <extensions>
          <ns3:TrackPointExtension>
            <ns3:hr>83</ns3:hr>
            <ns3:cad>0</ns3:cad>
          </ns3:TrackPointExtension>
        </extensions>
      </trkpt>
      <trkpt lat="43.7716848962008953094482421875" lon="1.588335447013378143310546875">
        <ele>124.40000152587890625</ele>
        <time>2026-08-13T07:55:15.000Z</time>
        <extensions>
          <ns3:TrackPointExtension>
            <ns3:hr>80</ns3:hr>
            <ns3:cad>0</ns3:cad>
          </ns3:TrackPointExtension>
        </extensions>
      </trkpt>
      <trkpt lat="43.771686069667339324951171875" lon="1.58833804540336132049560546875">
        <ele>124.40000152587890625</ele>
        <time>2026-08-13T07:55:16.000Z</time>
        <extensions>
          <ns3:TrackPointExtension>
            <ns3:hr>78</ns3:hr>
            <ns3:cad>0</ns3:cad>
          </ns3:TrackPointExtension>
        </extensions>
      </trkpt>
      <trkpt lat="43.7716879136860370635986328125" lon="1.58833854831755161285400390625">
        <ele>124.40000152587890625</ele>
        <time>2026-08-13T07:55:17.000Z</time>
        <extensions>
          <ns3:TrackPointExtension>
            <ns3:hr>78</ns3:hr>
            <ns3:cad>0</ns3:cad>
          </ns3:TrackPointExtension>
        </extensions>
      </trkpt>
      <trkpt lat="43.7716890871524810791015625" lon="1.5883411467075347900390625">
        <ele>124.40000152587890625</ele>
        <time>2026-08-13T07:55:18.000Z</time>
        <extensions>
          <ns3:TrackPointExtension>
            <ns3:hr>78</ns3:hr>
            <ns3:cad>0</ns3:cad>
          </ns3:TrackPointExtension>
        </extensions>
      </trkpt>
      <trkpt lat="43.77169185318052768707275390625" lon="1.58834240399301052093505859375">
        <ele>124.40000152587890625</ele>
        <time>2026-08-13T07:55:19.000Z</time>
        <extensions>
          <ns3:TrackPointExtension>
            <ns3:hr>77</ns3:hr>
            <ns3:cad>0</ns3:cad>
          </ns3:TrackPointExtension>
        </extensions>
      </trkpt>
      <trkpt lat="43.7716944515705108642578125" lon="1.58834340982139110565185546875">
        <ele>124.40000152587890625</ele>
        <time>2026-08-13T07:55:20.000Z</time>
        <extensions>
          <ns3:TrackPointExtension>
            <ns3:hr>77</ns3:hr>
            <ns3:cad>0</ns3:cad>
          </ns3:TrackPointExtension>
        </extensions>
      </trkpt>
      <trkpt lat="43.77169654704630374908447265625" lon="1.588342823088169097900390625">
        <ele>124.40000152587890625</ele>
        <time>2026-08-13T07:55:21.000Z</time>
        <extensions>
          <ns3:TrackPointExtension>
            <ns3:hr>77</ns3:hr>
            <ns3:cad>0</ns3:cad>
          </ns3:TrackPointExtension>
        </extensions>
      </trkpt>
      <trkpt lat="43.771697469055652618408203125" lon="1.5883466787636280059814453125">
        <ele>124.40000152587890625</ele>
        <time>2026-08-13T07:55:22.000Z</time>
        <extensions>
          <ns3:TrackPointExtension>
            <ns3:hr>77</ns3:hr>
            <ns3:cad>0</ns3:cad>
          </ns3:TrackPointExtension>
        </extensions>
      </trkpt>
      <trkpt lat="43.77170124091207981109619140625" lon="1.5883453376591205596923828125">
        <ele>124.40000152587890625</ele>
        <time>2026-08-13T07:55:23.000Z</time>
        <extensions>
          <ns3:TrackPointExtension>
            <ns3:hr>77</ns3:hr>
            <ns3:cad>0</ns3:cad>
          </ns3:TrackPointExtension>
        </extensions>
      </trkpt>
      <trkpt lat="43.771706856787204742431640625" lon="1.58834491856396198272705078125">
        <ele>124.40000152587890625</ele>
        <time>2026-08-13T07:55:24.000Z</time>
        <extensions>
          <ns3:TrackPointExtension>
            <ns3:hr>77</ns3:hr>
            <ns3:cad>0</ns3:cad>
          </ns3:TrackPointExtension>
        </extensions>
      </trkpt>
      <trkpt lat="43.77171046100556850433349609375" lon="1.58834072761237621307373046875">
        <ele>124.59999847412109375</ele>
        <time>2026-08-13T07:55:25.000Z</time>
        <extensions>
          <ns3:TrackPointExtension>
            <ns3:hr>77</ns3:hr>
            <ns3:cad>0</ns3:cad>
          </ns3:TrackPointExtension>
        </extensions>
      </trkpt>
      <trkpt lat="43.77171196974813938140869140625" lon="1.58834055997431278228759765625">
        <ele>124.59999847412109375</ele>
        <time>2026-08-13T07:55:26.000Z</time>
        <extensions>
          <ns3:TrackPointExtension>
            <ns3:hr>78</ns3:hr>
            <ns3:cad>0</ns3:cad>
          </ns3:TrackPointExtension>
        </extensions>
      </trkpt>
      <trkpt lat="43.77171934582293033599853515625" lon="1.5883359499275684356689453125">
        <ele>124.59999847412109375</ele>
        <time>2026-08-13T07:55:27.000Z</time>
        <extensions>
          <ns3:TrackPointExtension>
            <ns3:hr>78</ns3:hr>
            <ns3:cad>0</ns3:cad>
          </ns3:TrackPointExtension>
        </extensions>
      </trkpt>
      <trkpt lat="43.771722614765167236328125" lon="1.58833167515695095062255859375">
        <ele>124.59999847412109375</ele>
        <time>2026-08-13T07:55:28.000Z</time>
        <extensions>
          <ns3:TrackPointExtension>
            <ns3:hr>78</ns3:hr>
            <ns3:cad>0</ns3:cad>
          </ns3:TrackPointExtension>
        </extensions>
      </trkpt>
      <trkpt lat="43.7717234529554843902587890625" lon="1.58833108842372894287109375">
        <ele>124.59999847412109375</ele>
        <time>2026-08-13T07:55:29.000Z</time>
        <extensions>
          <ns3:TrackPointExtension>
            <ns3:hr>78</ns3:hr>
            <ns3:cad>0</ns3:cad>
          </ns3:TrackPointExtension>
        </extensions>
      </trkpt>
      <trkpt lat="43.771721608936786651611328125" lon="1.58833251334726810455322265625">
        <ele>124.59999847412109375</ele>
        <time>2026-08-13T07:55:30.000Z</time>
        <extensions>
          <ns3:TrackPointExtension>
            <ns3:hr>78</ns3:hr>
            <ns3:cad>0</ns3:cad>
          </ns3:TrackPointExtension>
        </extensions>
      </trkpt>
      <trkpt lat="43.7717221118509769439697265625" lon="1.58833108842372894287109375">
        <ele>124.40000152587890625</ele>
        <time>2026-08-13T07:55:31.000Z</time>
        <extensions>
          <ns3:TrackPointExtension>
            <ns3:hr>78</ns3:hr>
            <ns3:cad>0</ns3:cad>
          </ns3:TrackPointExtension>
        </extensions>
      </trkpt>
      <trkpt lat="43.77172152511775493621826171875" lon="1.5883319266140460968017578125">
        <ele>124.40000152587890625</ele>
        <time>2026-08-13T07:55:32.000Z</time>
        <extensions>
          <ns3:TrackPointExtension>
            <ns3:hr>78</ns3:hr>
            <ns3:cad>0</ns3:cad>
          </ns3:TrackPointExtension>
        </extensions>
      </trkpt>
      <trkpt lat="43.771722614765167236328125" lon="1.58833100460469722747802734375">
        <ele>124.40000152587890625</ele>
        <time>2026-08-13T07:55:33.000Z</time>
        <extensions>
          <ns3:TrackPointExtension>
            <ns3:hr>78</ns3:hr>
            <ns3:cad>0</ns3:cad>
          </ns3:TrackPointExtension>
        </extensions>
      </trkpt>
      <trkpt lat="43.7717257998883724212646484375" lon="1.58833133988082408905029296875">
        <ele>124.40000152587890625</ele>
        <time>2026-08-13T07:55:34.000Z</time>
        <extensions>
          <ns3:TrackPointExtension>
            <ns3:hr>78</ns3:hr>
            <ns3:cad>0</ns3:cad>
          </ns3:TrackPointExtension>
        </extensions>
      </trkpt>
      <trkpt lat="43.7717254646122455596923828125" lon="1.58833117224276065826416015625">
        <ele>124.59999847412109375</ele>
        <time>2026-08-13T07:55:35.000Z</time>
        <extensions>
          <ns3:TrackPointExtension>
            <ns3:hr>78</ns3:hr>
            <ns3:cad>0</ns3:cad>
          </ns3:TrackPointExtension>
        </extensions>
      </trkpt>
      <trkpt lat="43.77172487787902355194091796875" lon="1.58833201043307781219482421875">
        <ele>124.59999847412109375</ele>
        <time>2026-08-13T07:55:36.000Z</time>
        <extensions>
          <ns3:TrackPointExtension>
            <ns3:hr>78</ns3:hr>
            <ns3:cad>0</ns3:cad>
          </ns3:TrackPointExtension>
        </extensions>
      </trkpt>
      <trkpt lat="43.771723620593547821044921875" lon="1.58833217807114124298095703125">
        <ele>124.59999847412109375</ele>
        <time>2026-08-13T07:55:37.000Z</time>
        <extensions>
          <ns3:TrackPointExtension>
            <ns3:hr>78</ns3:hr>
            <ns3:cad>0</ns3:cad>
          </ns3:TrackPointExtension>
        </extensions>
      </trkpt>
      <trkpt lat="43.77172060310840606689453125" lon="1.5883319266140460968017578125">
        <ele>124.59999847412109375</ele>
        <time>2026-08-13T07:55:38.000Z</time>
        <extensions>
          <ns3:TrackPointExtension>
            <ns3:hr>78</ns3:hr>
            <ns3:cad>0</ns3:cad>
          </ns3:TrackPointExtension>
        </extensions>
      </trkpt>
      <trkpt lat="43.77171783708035945892333984375" lon="1.5883339382708072662353515625">
        <ele>124.40000152587890625</ele>
        <time>2026-08-13T07:55:39.000Z</time>
        <extensions>
          <ns3:TrackPointExtension>
            <ns3:hr>78</ns3:hr>
            <ns3:cad>0</ns3:cad>
          </ns3:TrackPointExtension>
        </extensions>
      </trkpt>
      <trkpt lat="43.77171448431909084320068359375" lon="1.58833804540336132049560546875">
        <ele>124.59999847412109375</ele>
        <time>2026-08-13T07:55:40.000Z</time>
        <extensions>
          <ns3:TrackPointExtension>
            <ns3:hr>77</ns3:hr>
            <ns3:cad>0</ns3:cad>
          </ns3:TrackPointExtension>
        </extensions>
      </trkpt>
      <trkpt lat="43.77170987427234649658203125" lon="1.5883359499275684356689453125">
        <ele>124.59999847412109375</ele>
        <time>2026-08-13T07:55:41.000Z</time>
        <extensions>
          <ns3:TrackPointExtension>
            <ns3:hr>73</ns3:hr>
            <ns3:cad>0</ns3:cad>
          </ns3:TrackPointExtension>
        </extensions>
      </trkpt>
      <trkpt lat="43.771704845130443572998046875" lon="1.5883322618901729583740234375">
        <ele>124.59999847412109375</ele>
        <time>2026-08-13T07:55:42.000Z</time>
        <extensions>
          <ns3:TrackPointExtension>
            <ns3:hr>67</ns3:hr>
            <ns3:cad>0</ns3:cad>
          </ns3:TrackPointExtension>
        </extensions>
      </trkpt>
      <trkpt lat="43.77170476131141185760498046875" lon="1.58832983113825321197509765625">
        <ele>124.59999847412109375</ele>
        <time>2026-08-13T07:55:43.000Z</time>
        <extensions>
          <ns3:TrackPointExtension>
            <ns3:hr>64</ns3:hr>
            <ns3:cad>0</ns3:cad>
          </ns3:TrackPointExtension>
        </extensions>
      </trkpt>
      <trkpt lat="43.771704845130443572998046875" lon="1.58832547254860401153564453125">
        <ele>124.40000152587890625</ele>
        <time>2026-08-13T07:55:44.000Z</time>
        <extensions>
          <ns3:TrackPointExtension>
            <ns3:hr>64</ns3:hr>
            <ns3:cad>0</ns3:cad>
          </ns3:TrackPointExtension>
        </extensions>
      </trkpt>
      <trkpt lat="43.77170342020690441131591796875" lon="1.58832044340670108795166015625">
        <ele>124.40000152587890625</ele>
        <time>2026-08-13T07:55:45.000Z</time>
        <extensions>
          <ns3:TrackPointExtension>
            <ns3:hr>64</ns3:hr>
            <ns3:cad>0</ns3:cad>
          </ns3:TrackPointExtension>
        </extensions>
      </trkpt>
      <trkpt lat="43.77170274965465068817138671875" lon="1.5883158333599567413330078125">
        <ele>124.40000152587890625</ele>
        <time>2026-08-13T07:55:46.000Z</time>
        <extensions>
          <ns3:TrackPointExtension>
            <ns3:hr>64</ns3:hr>
            <ns3:cad>0</ns3:cad>
          </ns3:TrackPointExtension>
        </extensions>
      </trkpt>
      <trkpt lat="43.771701492369174957275390625" lon="1.58831357024610042572021484375">
        <ele>124.1999969482421875</ele>
        <time>2026-08-13T07:55:47.000Z</time>
        <extensions>
          <ns3:TrackPointExtension>
            <ns3:hr>64</ns3:hr>
            <ns3:cad>0</ns3:cad>
          </ns3:TrackPointExtension>
        </extensions>
      </trkpt>
      <trkpt lat="43.7716909311711788177490234375" lon="1.5883154980838298797607421875">
        <ele>124.1999969482421875</ele>
        <time>2026-08-13T07:55:48.000Z</time>
        <extensions>
          <ns3:TrackPointExtension>
            <ns3:hr>65</ns3:hr>
            <ns3:cad>0</ns3:cad>
          </ns3:TrackPointExtension>
        </extensions>
      </trkpt>
      <trkpt lat="43.771689422428607940673828125" lon="1.58831289969384670257568359375">
        <ele>124.1999969482421875</ele>
        <time>2026-08-13T07:55:49.000Z</time>
        <extensions>
          <ns3:TrackPointExtension>
            <ns3:hr>65</ns3:hr>
            <ns3:cad>0</ns3:cad>
          </ns3:TrackPointExtension>
        </extensions>
      </trkpt>
      <trkpt lat="43.77168950624763965606689453125" lon="1.58831021748483180999755859375">
        <ele>124.40000152587890625</ele>
        <time>2026-08-13T07:55:50.000Z</time>
        <extensions>
          <ns3:TrackPointExtension>
            <ns3:hr>66</ns3:hr>
            <ns3:cad>0</ns3:cad>
          </ns3:TrackPointExtension>
        </extensions>
      </trkpt>
      <trkpt lat="43.77168975770473480224609375" lon="1.5883091278374195098876953125">
        <ele>124.40000152587890625</ele>
        <time>2026-08-13T07:55:51.000Z</time>
        <extensions>
          <ns3:TrackPointExtension>
            <ns3:hr>66</ns3:hr>
            <ns3:cad>0</ns3:cad>
          </ns3:TrackPointExtension>
        </extensions>
      </trkpt>
      <trkpt lat="43.77169352956116199493408203125" lon="1.5883128158748149871826171875">
        <ele>124.40000152587890625</ele>
        <time>2026-08-13T07:55:52.000Z</time>
        <extensions>
          <ns3:TrackPointExtension>
            <ns3:hr>66</ns3:hr>
            <ns3:cad>0</ns3:cad>
          </ns3:TrackPointExtension>
        </extensions>
      </trkpt>
      <trkpt lat="43.77169512212276458740234375" lon="1.58831541426479816436767578125">
        <ele>124.40000152587890625</ele>
        <time>2026-08-13T07:55:53.000Z</time>
        <extensions>
          <ns3:TrackPointExtension>
            <ns3:hr>66</ns3:hr>
            <ns3:cad>0</ns3:cad>
          </ns3:TrackPointExtension>
        </extensions>
      </trkpt>
      <trkpt lat="43.77169403247535228729248046875" lon="1.5883181802928447723388671875">
        <ele>124.1999969482421875</ele>
        <time>2026-08-13T07:55:54.000Z</time>
        <extensions>
          <ns3:TrackPointExtension>
            <ns3:hr>67</ns3:hr>
            <ns3:cad>0</ns3:cad>
          </ns3:TrackPointExtension>
        </extensions>
      </trkpt>
      <trkpt lat="43.7716929428279399871826171875" lon="1.58831901848316192626953125">
        <ele>124.1999969482421875</ele>
        <time>2026-08-13T07:55:55.000Z</time>
        <extensions>
          <ns3:TrackPointExtension>
            <ns3:hr>69</ns3:hr>
            <ns3:cad>0</ns3:cad>
          </ns3:TrackPointExtension>
        </extensions>
      </trkpt>
      <trkpt lat="43.771692775189876556396484375" lon="1.58832061104476451873779296875">
        <ele>124.1999969482421875</ele>
        <time>2026-08-13T07:55:56.000Z</time>
        <extensions>
          <ns3:TrackPointExtension>
            <ns3:hr>70</ns3:hr>
            <ns3:cad>0</ns3:cad>
          </ns3:TrackPointExtension>
        </extensions>
      </trkpt>
      <trkpt lat="43.77169151790440082550048828125" lon="1.588323377072811126708984375">
        <ele>124.1999969482421875</ele>
        <time>2026-08-13T07:55:57.000Z</time>
        <extensions>
          <ns3:TrackPointExtension>
            <ns3:hr>70</ns3:hr>
            <ns3:cad>0</ns3:cad>
          </ns3:TrackPointExtension>
        </extensions>
      </trkpt>
      <trkpt lat="43.77169202081859111785888671875" lon="1.58832362852990627288818359375">
        <ele>124.1999969482421875</ele>
        <time>2026-08-13T07:55:58.000Z</time>
        <extensions>
          <ns3:TrackPointExtension>
            <ns3:hr>70</ns3:hr>
            <ns3:cad>0</ns3:cad>
          </ns3:TrackPointExtension>
        </extensions>
      </trkpt>
      <trkpt lat="43.7716932781040668487548828125" lon="1.58832463435828685760498046875">
        <ele>124.1999969482421875</ele>
        <time>2026-08-13T07:55:59.000Z</time>
        <extensions>
          <ns3:TrackPointExtension>
            <ns3:hr>69</ns3:hr>
            <ns3:cad>0</ns3:cad>
          </ns3:TrackPointExtension>
        </extensions>
      </trkpt>
      <trkpt lat="43.77169772051274776458740234375" lon="1.58832714892923831939697265625">
        <ele>124.1999969482421875</ele>
        <time>2026-08-13T07:56:00.000Z</time>
        <extensions>
          <ns3:TrackPointExtension>
            <ns3:hr>68</ns3:hr>
            <ns3:cad>0</ns3:cad>
          </ns3:TrackPointExtension>
        </extensions>
      </trkpt>
      <trkpt lat="43.77169922925531864166259765625" lon="1.58832698129117488861083984375">
        <ele>124.1999969482421875</ele>
        <time>2026-08-13T07:56:01.000Z</time>
        <extensions>
          <ns3:TrackPointExtension>
            <ns3:hr>67</ns3:hr>
            <ns3:cad>0</ns3:cad>
          </ns3:TrackPointExtension>
        </extensions>
      </trkpt>
      <trkpt lat="43.771698474884033203125" lon="1.58832983113825321197509765625">
        <ele>124.1999969482421875</ele>
        <time>2026-08-13T07:56:02.000Z</time>
        <extensions>
          <ns3:TrackPointExtension>
            <ns3:hr>64</ns3:hr>
            <ns3:cad>0</ns3:cad>
          </ns3:TrackPointExtension>
        </extensions>
      </trkpt>
      <trkpt lat="43.77169453538954257965087890625" lon="1.5883322618901729583740234375">
        <ele>124.40000152587890625</ele>
        <time>2026-08-13T07:56:03.000Z</time>
        <extensions>
          <ns3:TrackPointExtension>
            <ns3:hr>63</ns3:hr>
            <ns3:cad>0</ns3:cad>
          </ns3:TrackPointExtension>
        </extensions>
      </trkpt>
      <trkpt lat="43.7716892547905445098876953125" lon="1.58832999877631664276123046875">
        <ele>124.40000152587890625</ele>
        <time>2026-08-13T07:56:04.000Z</time>
        <extensions>
          <ns3:TrackPointExtension>
            <ns3:hr>62</ns3:hr>
            <ns3:cad>0</ns3:cad>
          </ns3:TrackPointExtension>
        </extensions>
      </trkpt>
      <trkpt lat="43.7716848962008953094482421875" lon="1.588330082595348358154296875">
        <ele>124.59999847412109375</ele>
        <time>2026-08-13T07:56:05.000Z</time>
        <extensions>
          <ns3:TrackPointExtension>
            <ns3:hr>62</ns3:hr>
            <ns3:cad>0</ns3:cad>
          </ns3:TrackPointExtension>
        </extensions>
      </trkpt>
      <trkpt lat="43.77168196253478527069091796875" lon="1.588331423699855804443359375">
        <ele>124.59999847412109375</ele>
        <time>2026-08-13T07:56:06.000Z</time>
        <extensions>
          <ns3:TrackPointExtension>
            <ns3:hr>61</ns3:hr>
            <ns3:cad>0</ns3:cad>
          </ns3:TrackPointExtension>
        </extensions>
      </trkpt>
      <trkpt lat="43.77168514765799045562744140625" lon="1.58833016641438007354736328125">
        <ele>124.59999847412109375</ele>
        <time>2026-08-13T07:56:07.000Z</time>
        <extensions>
          <ns3:TrackPointExtension>
            <ns3:hr>61</ns3:hr>
            <ns3:cad>0</ns3:cad>
          </ns3:TrackPointExtension>
        </extensions>
      </trkpt>
      <trkpt lat="43.771687410771846771240234375" lon="1.58832899294793605804443359375">
        <ele>124.59999847412109375</ele>
        <time>2026-08-13T07:56:08.000Z</time>
        <extensions>
          <ns3:TrackPointExtension>
            <ns3:hr>60</ns3:hr>
            <ns3:cad>0</ns3:cad>
          </ns3:TrackPointExtension>
        </extensions>
      </trkpt>
      <trkpt lat="43.77168682403862476348876953125" lon="1.5883275680243968963623046875">
        <ele>124.59999847412109375</ele>
        <time>2026-08-13T07:56:09.000Z</time>
        <extensions>
          <ns3:TrackPointExtension>
            <ns3:hr>60</ns3:hr>
            <ns3:cad>0</ns3:cad>
          </ns3:TrackPointExtension>
        </extensions>
      </trkpt>
      <trkpt lat="43.77168841660022735595703125" lon="1.5883289091289043426513671875">
        <ele>124.59999847412109375</ele>
        <time>2026-08-13T07:56:10.000Z</time>
        <extensions>
          <ns3:TrackPointExtension>
            <ns3:hr>60</ns3:hr>
            <ns3:cad>0</ns3:cad>
          </ns3:TrackPointExtension>
        </extensions>
      </trkpt>
      <trkpt lat="43.7716889195144176483154296875" lon="1.58832748420536518096923828125">
        <ele>124.40000152587890625</ele>
        <time>2026-08-13T07:56:11.000Z</time>
        <extensions>
          <ns3:TrackPointExtension>
            <ns3:hr>60</ns3:hr>
            <ns3:cad>0</ns3:cad>
          </ns3:TrackPointExtension>
        </extensions>
      </trkpt>
      <trkpt lat="43.77169051207602024078369140625" lon="1.58832849003374576568603515625">
        <ele>124.40000152587890625</ele>
        <time>2026-08-13T07:56:12.000Z</time>
        <extensions>
          <ns3:TrackPointExtension>
            <ns3:hr>59</ns3:hr>
            <ns3:cad>0</ns3:cad>
          </ns3:TrackPointExtension>
        </extensions>
      </trkpt>
      <trkpt lat="43.77169084735214710235595703125" lon="1.58832974731922149658203125">
        <ele>124.40000152587890625</ele>
        <time>2026-08-13T07:56:13.000Z</time>
        <extensions>
          <ns3:TrackPointExtension>
            <ns3:hr>60</ns3:hr>
            <ns3:cad>0</ns3:cad>
          </ns3:TrackPointExtension>
        </extensions>
      </trkpt>
      <trkpt lat="43.7716922722756862640380859375" lon="1.5883201919496059417724609375">
        <ele>124.40000152587890625</ele>
        <time>2026-08-13T07:56:14.000Z</time>
        <extensions>
          <ns3:TrackPointExtension>
            <ns3:hr>60</ns3:hr>
            <ns3:cad>0</ns3:cad>
          </ns3:TrackPointExtension>
        </extensions>
      </trkpt>
      <trkpt lat="43.77169453538954257965087890625" lon="1.58832027576863765716552734375">
        <ele>124.40000152587890625</ele>
        <time>2026-08-13T07:56:15.000Z</time>
        <extensions>
          <ns3:TrackPointExtension>
            <ns3:hr>60</ns3:hr>
            <ns3:cad>0</ns3:cad>
          </ns3:TrackPointExtension>
        </extensions>
      </trkpt>
      <trkpt lat="43.77169604413211345672607421875" lon="1.5883171744644641876220703125">
        <ele>124.40000152587890625</ele>
        <time>2026-08-13T07:56:16.000Z</time>
        <extensions>
          <ns3:TrackPointExtension>
            <ns3:hr>59</ns3:hr>
            <ns3:cad>0</ns3:cad>
          </ns3:TrackPointExtension>
        </extensions>
      </trkpt>
      <trkpt lat="43.77169570885598659515380859375" lon="1.5883170068264007568359375">
        <ele>124.40000152587890625</ele>
        <time>2026-08-13T07:56:17.000Z</time>
        <extensions>
          <ns3:TrackPointExtension>
            <ns3:hr>60</ns3:hr>
            <ns3:cad>0</ns3:cad>
          </ns3:TrackPointExtension>
        </extensions>
      </trkpt>
      <trkpt lat="43.771695457398891448974609375" lon="1.5883168391883373260498046875">
        <ele>124.1999969482421875</ele>
        <time>2026-08-13T07:56:18.000Z</time>
        <extensions>
          <ns3:TrackPointExtension>
            <ns3:hr>62</ns3:hr>
            <ns3:cad>0</ns3:cad>
          </ns3:TrackPointExtension>
        </extensions>
      </trkpt>
      <trkpt lat="43.7716909311711788177490234375" lon="1.58832170069217681884765625">
        <ele>124.1999969482421875</ele>
        <time>2026-08-13T07:56:19.000Z</time>
        <extensions>
          <ns3:TrackPointExtension>
            <ns3:hr>64</ns3:hr>
            <ns3:cad>0</ns3:cad>
          </ns3:TrackPointExtension>
        </extensions>
      </trkpt>
      <trkpt lat="43.7716926075518131256103515625" lon="1.58832346089184284210205078125">
        <ele>124.1999969482421875</ele>
        <time>2026-08-13T07:56:20.000Z</time>
        <extensions>
          <ns3:TrackPointExtension>
            <ns3:hr>70</ns3:hr>
            <ns3:cad>0</ns3:cad>
          </ns3:TrackPointExtension>
        </extensions>
      </trkpt>
      <trkpt lat="43.77169386483728885650634765625" lon="1.58832245506346225738525390625">
        <ele>124.1999969482421875</ele>
        <time>2026-08-13T07:56:21.000Z</time>
        <extensions>
          <ns3:TrackPointExtension>
            <ns3:hr>71</ns3:hr>
            <ns3:cad>0</ns3:cad>
          </ns3:TrackPointExtension>
        </extensions>
      </trkpt>
      <trkpt lat="43.771697469055652618408203125" lon="1.5883191861212253570556640625">
        <ele>124.1999969482421875</ele>
        <time>2026-08-13T07:56:22.000Z</time>
        <extensions>
          <ns3:TrackPointExtension>
            <ns3:hr>72</ns3:hr>
            <ns3:cad>0</ns3:cad>
          </ns3:TrackPointExtension>
        </extensions>
      </trkpt>
      <trkpt lat="43.7716922722756862640380859375" lon="1.58832170069217681884765625">
        <ele>124.1999969482421875</ele>
        <time>2026-08-13T07:56:23.000Z</time>
        <extensions>
          <ns3:TrackPointExtension>
            <ns3:hr>73</ns3:hr>
            <ns3:cad>0</ns3:cad>
          </ns3:TrackPointExtension>
        </extensions>
      </trkpt>
      <trkpt lat="43.771688751876354217529296875" lon="1.58832170069217681884765625">
        <ele>124.1999969482421875</ele>
        <time>2026-08-13T07:56:24.000Z</time>
        <extensions>
          <ns3:TrackPointExtension>
            <ns3:hr>73</ns3:hr>
            <ns3:cad>0</ns3:cad>
          </ns3:TrackPointExtension>
        </extensions>
      </trkpt>
      <trkpt lat="43.77168883569538593292236328125" lon="1.5883218683302402496337890625">
        <ele>124.1999969482421875</ele>
        <time>2026-08-13T07:56:25.000Z</time>
        <extensions>
          <ns3:TrackPointExtension>
            <ns3:hr>73</ns3:hr>
            <ns3:cad>0</ns3:cad>
          </ns3:TrackPointExtension>
        </extensions>
      </trkpt>
      <trkpt lat="43.77168573439121246337890625" lon="1.58832295797765254974365234375">
        <ele>124.1999969482421875</ele>
        <time>2026-08-13T07:56:26.000Z</time>
        <extensions>
          <ns3:TrackPointExtension>
            <ns3:hr>71</ns3:hr>
            <ns3:cad>0</ns3:cad>
          </ns3:TrackPointExtension>
        </extensions>
      </trkpt>
      <trkpt lat="43.77168581821024417877197265625" lon="1.58832480199635028839111328125">
        <ele>124.1999969482421875</ele>
        <time>2026-08-13T07:56:27.000Z</time>
        <extensions>
          <ns3:TrackPointExtension>
            <ns3:hr>68</ns3:hr>
            <ns3:cad>0</ns3:cad>
          </ns3:TrackPointExtension>
        </extensions>
      </trkpt>
      <trkpt lat="43.77168933860957622528076171875" lon="1.58832480199635028839111328125">
        <ele>124.1999969482421875</ele>
        <time>2026-08-13T07:56:28.000Z</time>
        <extensions>
          <ns3:TrackPointExtension>
            <ns3:hr>68</ns3:hr>
            <ns3:cad>0</ns3:cad>
          </ns3:TrackPointExtension>
        </extensions>
      </trkpt>
      <trkpt lat="43.77169252373278141021728515625" lon="1.5883255563676357269287109375">
        <ele>124.1999969482421875</ele>
        <time>2026-08-13T07:56:29.000Z</time>
        <extensions>
          <ns3:TrackPointExtension>
            <ns3:hr>68</ns3:hr>
            <ns3:cad>0</ns3:cad>
          </ns3:TrackPointExtension>
        </extensions>
      </trkpt>
      <trkpt lat="43.7716942839324474334716796875" lon="1.58832647837698459625244140625">
        <ele>124.1999969482421875</ele>
        <time>2026-08-13T07:56:30.000Z</time>
        <extensions>
          <ns3:TrackPointExtension>
            <ns3:hr>67</ns3:hr>
            <ns3:cad>0</ns3:cad>
          </ns3:TrackPointExtension>
        </extensions>
      </trkpt>
      <trkpt lat="43.77169436775147914886474609375" lon="1.588327400386333465576171875">
        <ele>124.1999969482421875</ele>
        <time>2026-08-13T07:56:31.000Z</time>
        <extensions>
          <ns3:TrackPointExtension>
            <ns3:hr>67</ns3:hr>
            <ns3:cad>0</ns3:cad>
          </ns3:TrackPointExtension>
        </extensions>
      </trkpt>
      <trkpt lat="43.771694116294384002685546875" lon="1.588328741490840911865234375">
        <ele>124.1999969482421875</ele>
        <time>2026-08-13T07:56:32.000Z</time>
        <extensions>
          <ns3:TrackPointExtension>
            <ns3:hr>67</ns3:hr>
            <ns3:cad>0</ns3:cad>
          </ns3:TrackPointExtension>
        </extensions>
      </trkpt>
      <trkpt lat="43.77169285900890827178955078125" lon="1.58833117224276065826416015625">
        <ele>124.1999969482421875</ele>
        <time>2026-08-13T07:56:33.000Z</time>
        <extensions>
          <ns3:TrackPointExtension>
            <ns3:hr>68</ns3:hr>
            <ns3:cad>0</ns3:cad>
          </ns3:TrackPointExtension>
        </extensions>
      </trkpt>
      <trkpt lat="43.77170048654079437255859375" lon="1.58833452500402927398681640625">
        <ele>124.1999969482421875</ele>
        <time>2026-08-13T07:56:34.000Z</time>
        <extensions>
          <ns3:TrackPointExtension>
            <ns3:hr>67</ns3:hr>
            <ns3:cad>0</ns3:cad>
          </ns3:TrackPointExtension>
        </extensions>
      </trkpt>
      <trkpt lat="43.77170308493077754974365234375" lon="1.58833318389952182769775390625">
        <ele>124.40000152587890625</ele>
        <time>2026-08-13T07:56:35.000Z</time>
        <extensions>
          <ns3:TrackPointExtension>
            <ns3:hr>67</ns3:hr>
            <ns3:cad>0</ns3:cad>
          </ns3:TrackPointExtension>
        </extensions>
      </trkpt>
      <trkpt lat="43.7717051804065704345703125" lon="1.5883277356624603271484375">
        <ele>124.40000152587890625</ele>
        <time>2026-08-13T07:56:36.000Z</time>
        <extensions>
          <ns3:TrackPointExtension>
            <ns3:hr>67</ns3:hr>
            <ns3:cad>0</ns3:cad>
          </ns3:TrackPointExtension>
        </extensions>
      </trkpt>
      <trkpt lat="43.7717046774923801422119140625" lon="1.588332094252109527587890625">
        <ele>124.40000152587890625</ele>
        <time>2026-08-13T07:56:37.000Z</time>
        <extensions>
          <ns3:TrackPointExtension>
            <ns3:hr>66</ns3:hr>
            <ns3:cad>0</ns3:cad>
          </ns3:TrackPointExtension>
        </extensions>
      </trkpt>
      <trkpt lat="43.77170777879655361175537109375" lon="1.5883315913379192352294921875">
        <ele>124.59999847412109375</ele>
        <time>2026-08-13T07:56:38.000Z</time>
        <extensions>
          <ns3:TrackPointExtension>
            <ns3:hr>66</ns3:hr>
            <ns3:cad>0</ns3:cad>
          </ns3:TrackPointExtension>
        </extensions>
      </trkpt>
      <trkpt lat="43.7717105448246002197265625" lon="1.58833066932857036590576171875">
        <ele>124.59999847412109375</ele>
        <time>2026-08-13T07:56:39.000Z</time>
        <extensions>
          <ns3:TrackPointExtension>
            <ns3:hr>67</ns3:hr>
            <ns3:cad>0</ns3:cad>
          </ns3:TrackPointExtension>
        </extensions>
      </trkpt>
      <trkpt lat="43.7717110477387905120849609375" lon="1.5883295796811580657958984375">
        <ele>124.40000152587890625</ele>
        <time>2026-08-13T07:56:40.000Z</time>
        <extensions>
          <ns3:TrackPointExtension>
            <ns3:hr>67</ns3:hr>
            <ns3:cad>0</ns3:cad>
          </ns3:TrackPointExtension>
        </extensions>
      </trkpt>
      <trkpt lat="43.77171280793845653533935546875" lon="1.58832698129117488861083984375">
        <ele>124.40000152587890625</ele>
        <time>2026-08-13T07:56:41.000Z</time>
        <extensions>
          <ns3:TrackPointExtension>
            <ns3:hr>66</ns3:hr>
            <ns3:cad>0</ns3:cad>
          </ns3:TrackPointExtension>
        </extensions>
      </trkpt>
      <trkpt lat="43.771714903414249420166015625" lon="1.58832664601504802703857421875">
        <ele>124.59999847412109375</ele>
        <time>2026-08-13T07:56:42.000Z</time>
        <extensions>
          <ns3:TrackPointExtension>
            <ns3:hr>66</ns3:hr>
            <ns3:cad>0</ns3:cad>
          </ns3:TrackPointExtension>
        </extensions>
      </trkpt>
      <trkpt lat="43.7717144005000591278076171875" lon="1.58832999877631664276123046875">
        <ele>124.59999847412109375</ele>
        <time>2026-08-13T07:56:43.000Z</time>
        <extensions>
          <ns3:TrackPointExtension>
            <ns3:hr>66</ns3:hr>
            <ns3:cad>0</ns3:cad>
          </ns3:TrackPointExtension>
        </extensions>
      </trkpt>
      <trkpt lat="43.7717144005000591278076171875" lon="1.58833050169050693511962890625">
        <ele>124.40000152587890625</ele>
        <time>2026-08-13T07:56:44.000Z</time>
        <extensions>
          <ns3:TrackPointExtension>
            <ns3:hr>66</ns3:hr>
            <ns3:cad>0</ns3:cad>
          </ns3:TrackPointExtension>
        </extensions>
      </trkpt>
      <trkpt lat="43.7717113830149173736572265625" lon="1.58833469264209270477294921875">
        <ele>124.40000152587890625</ele>
        <time>2026-08-13T07:56:45.000Z</time>
        <extensions>
          <ns3:TrackPointExtension>
            <ns3:hr>66</ns3:hr>
            <ns3:cad>0</ns3:cad>
          </ns3:TrackPointExtension>
        </extensions>
      </trkpt>
      <trkpt lat="43.77170811407268047332763671875" lon="1.5883403085172176361083984375">
        <ele>124.40000152587890625</ele>
        <time>2026-08-13T07:56:46.000Z</time>
        <extensions>
          <ns3:TrackPointExtension>
            <ns3:hr>67</ns3:hr>
            <ns3:cad>0</ns3:cad>
          </ns3:TrackPointExtension>
        </extensions>
      </trkpt>
      <trkpt lat="43.77170727588236331939697265625" lon="1.58834123052656650543212890625">
        <ele>124.40000152587890625</ele>
        <time>2026-08-13T07:56:47.000Z</time>
        <extensions>
          <ns3:TrackPointExtension>
            <ns3:hr>66</ns3:hr>
            <ns3:cad>0</ns3:cad>
          </ns3:TrackPointExtension>
        </extensions>
      </trkpt>
      <trkpt lat="43.7717056833207607269287109375" lon="1.58834273926913738250732421875">
        <ele>124.40000152587890625</ele>
        <time>2026-08-13T07:56:48.000Z</time>
        <extensions>
          <ns3:TrackPointExtension>
            <ns3:hr>66</ns3:hr>
            <ns3:cad>0</ns3:cad>
          </ns3:TrackPointExtension>
        </extensions>
      </trkpt>
      <trkpt lat="43.77170342020690441131591796875" lon="1.58834625966846942901611328125">
        <ele>124.40000152587890625</ele>
        <time>2026-08-13T07:56:49.000Z</time>
        <extensions>
          <ns3:TrackPointExtension>
            <ns3:hr>67</ns3:hr>
            <ns3:cad>0</ns3:cad>
          </ns3:TrackPointExtension>
        </extensions>
      </trkpt>
      <trkpt lat="43.77170308493077754974365234375" lon="1.58834709785878658294677734375">
        <ele>124.40000152587890625</ele>
        <time>2026-08-13T07:56:50.000Z</time>
        <extensions>
          <ns3:TrackPointExtension>
            <ns3:hr>67</ns3:hr>
            <ns3:cad>0</ns3:cad>
          </ns3:TrackPointExtension>
        </extensions>
      </trkpt>
      <trkpt lat="43.77170358784496784210205078125" lon="1.5883406437933444976806640625">
        <ele>124.40000152587890625</ele>
        <time>2026-08-13T07:56:51.000Z</time>
        <extensions>
          <ns3:TrackPointExtension>
            <ns3:hr>68</ns3:hr>
            <ns3:cad>0</ns3:cad>
          </ns3:TrackPointExtension>
        </extensions>
      </trkpt>
      <trkpt lat="43.77170409075915813446044921875" lon="1.588341481983661651611328125">
        <ele>124.40000152587890625</ele>
        <time>2026-08-13T07:56:52.000Z</time>
        <extensions>
          <ns3:TrackPointExtension>
            <ns3:hr>70</ns3:hr>
            <ns3:cad>0</ns3:cad>
          </ns3:TrackPointExtension>
        </extensions>
      </trkpt>
      <trkpt lat="43.77170316874980926513671875" lon="1.58833838067948818206787109375">
        <ele>124.40000152587890625</ele>
        <time>2026-08-13T07:56:53.000Z</time>
        <extensions>
          <ns3:TrackPointExtension>
            <ns3:hr>70</ns3:hr>
            <ns3:cad>0</ns3:cad>
          </ns3:TrackPointExtension>
        </extensions>
      </trkpt>
      <trkpt lat="43.771702833473682403564453125" lon="1.58833838067948818206787109375">
        <ele>124.40000152587890625</ele>
        <time>2026-08-13T07:56:54.000Z</time>
        <extensions>
          <ns3:TrackPointExtension>
            <ns3:hr>70</ns3:hr>
            <ns3:cad>0</ns3:cad>
          </ns3:TrackPointExtension>
        </extensions>
      </trkpt>
      <trkpt lat="43.771702833473682403564453125" lon="1.58833838067948818206787109375">
        <ele>124.40000152587890625</ele>
        <time>2026-08-13T07:56:55.000Z</time>
        <extensions>
          <ns3:TrackPointExtension>
            <ns3:hr>70</ns3:hr>
            <ns3:cad>0</ns3:cad>
          </ns3:TrackPointExtension>
        </extensions>
      </trkpt>
      <trkpt lat="43.771702833473682403564453125" lon="1.58833838067948818206787109375">
        <ele>124.40000152587890625</ele>
        <time>2026-08-13T07:56:56.000Z</time>
        <extensions>
          <ns3:TrackPointExtension>
            <ns3:hr>69</ns3:hr>
            <ns3:cad>0</ns3:cad>
          </ns3:TrackPointExtension>
        </extensions>
      </trkpt>
      <trkpt lat="43.771702833473682403564453125" lon="1.58833838067948818206787109375">
        <ele>124.40000152587890625</ele>
        <time>2026-08-13T07:56:57.000Z</time>
        <extensions>
          <ns3:TrackPointExtension>
            <ns3:hr>67</ns3:hr>
            <ns3:cad>0</ns3:cad>
          </ns3:TrackPointExtension>
        </extensions>
      </trkpt>
      <trkpt lat="43.771702833473682403564453125" lon="1.58833838067948818206787109375">
        <ele>124.40000152587890625</ele>
        <time>2026-08-13T07:56:58.000Z</time>
        <extensions>
          <ns3:TrackPointExtension>
            <ns3:hr>65</ns3:hr>
            <ns3:cad>0</ns3:cad>
          </ns3:TrackPointExtension>
        </extensions>
      </trkpt>
      <trkpt lat="43.771702833473682403564453125" lon="1.58833838067948818206787109375">
        <ele>124.40000152587890625</ele>
        <time>2026-08-13T07:56:59.000Z</time>
        <extensions>
          <ns3:TrackPointExtension>
            <ns3:hr>66</ns3:hr>
            <ns3:cad>0</ns3:cad>
          </ns3:TrackPointExtension>
        </extensions>
      </trkpt>
      <trkpt lat="43.77170316874980926513671875" lon="1.588338799774646759033203125">
        <ele>124.40000152587890625</ele>
        <time>2026-08-13T07:57:00.000Z</time>
        <extensions>
          <ns3:TrackPointExtension>
            <ns3:hr>67</ns3:hr>
            <ns3:cad>0</ns3:cad>
          </ns3:TrackPointExtension>
        </extensions>
      </trkpt>
      <trkpt lat="43.7717026658356189727783203125" lon="1.5883376263082027435302734375">
        <ele>124.40000152587890625</ele>
        <time>2026-08-13T07:57:01.000Z</time>
        <extensions>
          <ns3:TrackPointExtension>
            <ns3:hr>66</ns3:hr>
            <ns3:cad>0</ns3:cad>
          </ns3:TrackPointExtension>
        </extensions>
      </trkpt>
      <trkpt lat="43.7717023305594921112060546875" lon="1.5883409790694713592529296875">
        <ele>124.40000152587890625</ele>
        <time>2026-08-13T07:57:02.000Z</time>
        <extensions>
          <ns3:TrackPointExtension>
            <ns3:hr>67</ns3:hr>
            <ns3:cad>0</ns3:cad>
          </ns3:TrackPointExtension>
        </extensions>
      </trkpt>
      <trkpt lat="43.771702162921428680419921875" lon="1.58834424801170825958251953125">
        <ele>124.40000152587890625</ele>
        <time>2026-08-13T07:57:03.000Z</time>
        <extensions>
          <ns3:TrackPointExtension>
            <ns3:hr>67</ns3:hr>
            <ns3:cad>0</ns3:cad>
          </ns3:TrackPointExtension>
        </extensions>
      </trkpt>
      <trkpt lat="43.7717016600072383880615234375" lon="1.58834181725978851318359375">
        <ele>124.40000152587890625</ele>
        <time>2026-08-13T07:57:04.000Z</time>
        <extensions>
          <ns3:TrackPointExtension>
            <ns3:hr>66</ns3:hr>
            <ns3:cad>0</ns3:cad>
          </ns3:TrackPointExtension>
        </extensions>
      </trkpt>
      <trkpt lat="43.77170224674046039581298828125" lon="1.58834324218332767486572265625">
        <ele>124.40000152587890625</ele>
        <time>2026-08-13T07:57:05.000Z</time>
        <extensions>
          <ns3:TrackPointExtension>
            <ns3:hr>67</ns3:hr>
            <ns3:cad>0</ns3:cad>
          </ns3:TrackPointExtension>
        </extensions>
      </trkpt>
      <trkpt lat="43.771701157093048095703125" lon="1.58834106288850307464599609375">
        <ele>124.40000152587890625</ele>
        <time>2026-08-13T07:57:06.000Z</time>
        <extensions>
          <ns3:TrackPointExtension>
            <ns3:hr>67</ns3:hr>
            <ns3:cad>0</ns3:cad>
          </ns3:TrackPointExtension>
        </extensions>
      </trkpt>
      <trkpt lat="43.77170342020690441131591796875" lon="1.58834039233624935150146484375">
        <ele>124.40000152587890625</ele>
        <time>2026-08-13T07:57:07.000Z</time>
        <extensions>
          <ns3:TrackPointExtension>
            <ns3:hr>68</ns3:hr>
            <ns3:cad>0</ns3:cad>
          </ns3:TrackPointExtension>
        </extensions>
      </trkpt>
      <trkpt lat="43.77170392312109470367431640625" lon="1.58833703957498073577880859375">
        <ele>124.40000152587890625</ele>
        <time>2026-08-13T07:57:08.000Z</time>
        <extensions>
          <ns3:TrackPointExtension>
            <ns3:hr>68</ns3:hr>
            <ns3:cad>0</ns3:cad>
          </ns3:TrackPointExtension>
        </extensions>
      </trkpt>
      <trkpt lat="43.77170492894947528839111328125" lon="1.58833645284175872802734375">
        <ele>124.40000152587890625</ele>
        <time>2026-08-13T07:57:09.000Z</time>
        <extensions>
          <ns3:TrackPointExtension>
            <ns3:hr>69</ns3:hr>
            <ns3:cad>0</ns3:cad>
          </ns3:TrackPointExtension>
        </extensions>
      </trkpt>
      <trkpt lat="43.77170476131141185760498046875" lon="1.58833486028015613555908203125">
        <ele>124.40000152587890625</ele>
        <time>2026-08-13T07:57:10.000Z</time>
        <extensions>
          <ns3:TrackPointExtension>
            <ns3:hr>69</ns3:hr>
            <ns3:cad>0</ns3:cad>
          </ns3:TrackPointExtension>
        </extensions>
      </trkpt>
      <trkpt lat="43.7717063538730144500732421875" lon="1.58833284862339496612548828125">
        <ele>124.40000152587890625</ele>
        <time>2026-08-13T07:57:11.000Z</time>
        <extensions>
          <ns3:TrackPointExtension>
            <ns3:hr>68</ns3:hr>
            <ns3:cad>0</ns3:cad>
          </ns3:TrackPointExtension>
        </extensions>
      </trkpt>
      <trkpt lat="43.77170627005398273468017578125" lon="1.58833502791821956634521484375">
        <ele>124.40000152587890625</ele>
        <time>2026-08-13T07:57:12.000Z</time>
        <extensions>
          <ns3:TrackPointExtension>
            <ns3:hr>67</ns3:hr>
            <ns3:cad>0</ns3:cad>
          </ns3:TrackPointExtension>
        </extensions>
      </trkpt>
      <trkpt lat="43.771709538996219635009765625" lon="1.5883349440991878509521484375">
        <ele>124.40000152587890625</ele>
        <time>2026-08-13T07:57:13.000Z</time>
        <extensions>
          <ns3:TrackPointExtension>
            <ns3:hr>67</ns3:hr>
            <ns3:cad>0</ns3:cad>
          </ns3:TrackPointExtension>
        </extensions>
      </trkpt>
      <trkpt lat="43.77170945517718791961669921875" lon="1.5883356146514415740966796875">
        <ele>124.40000152587890625</ele>
        <time>2026-08-13T07:57:14.000Z</time>
        <extensions>
          <ns3:TrackPointExtension>
            <ns3:hr>66</ns3:hr>
            <ns3:cad>0</ns3:cad>
          </ns3:TrackPointExtension>
        </extensions>
      </trkpt>
      <trkpt lat="43.77170995809137821197509765625" lon="1.58833938650786876678466796875">
        <ele>124.40000152587890625</ele>
        <time>2026-08-13T07:57:15.000Z</time>
        <extensions>
          <ns3:TrackPointExtension>
            <ns3:hr>66</ns3:hr>
            <ns3:cad>0</ns3:cad>
          </ns3:TrackPointExtension>
        </extensions>
      </trkpt>
      <trkpt lat="43.77170861698687076568603515625" lon="1.588340811431407928466796875">
        <ele>124.40000152587890625</ele>
        <time>2026-08-13T07:57:16.000Z</time>
        <extensions>
          <ns3:TrackPointExtension>
            <ns3:hr>67</ns3:hr>
            <ns3:cad>0</ns3:cad>
          </ns3:TrackPointExtension>
        </extensions>
      </trkpt>
      <trkpt lat="43.77170727588236331939697265625" lon="1.58833787776529788970947265625">
        <ele>124.59999847412109375</ele>
        <time>2026-08-13T07:57:17.000Z</time>
        <extensions>
          <ns3:TrackPointExtension>
            <ns3:hr>67</ns3:hr>
            <ns3:cad>0</ns3:cad>
          </ns3:TrackPointExtension>
        </extensions>
      </trkpt>
      <trkpt lat="43.77170325256884098052978515625" lon="1.5883386321365833282470703125">
        <ele>124.59999847412109375</ele>
        <time>2026-08-13T07:57:18.000Z</time>
        <extensions>
          <ns3:TrackPointExtension>
            <ns3:hr>67</ns3:hr>
            <ns3:cad>0</ns3:cad>
          </ns3:TrackPointExtension>
        </extensions>
      </trkpt>
      <trkpt lat="43.7716966308653354644775390625" lon="1.5883443318307399749755859375">
        <ele>124.59999847412109375</ele>
        <time>2026-08-13T07:57:19.000Z</time>
        <extensions>
          <ns3:TrackPointExtension>
            <ns3:hr>67</ns3:hr>
            <ns3:cad>0</ns3:cad>
          </ns3:TrackPointExtension>
        </extensions>
      </trkpt>
      <trkpt lat="43.77169202081859111785888671875" lon="1.588353216648101806640625">
        <ele>124.59999847412109375</ele>
        <time>2026-08-13T07:57:20.000Z</time>
        <extensions>
          <ns3:TrackPointExtension>
            <ns3:hr>67</ns3:hr>
            <ns3:cad>0</ns3:cad>
          </ns3:TrackPointExtension>
        </extensions>
      </trkpt>
      <trkpt lat="43.7716864049434661865234375" lon="1.5883604250848293304443359375">
        <ele>124.59999847412109375</ele>
        <time>2026-08-13T07:57:21.000Z</time>
        <extensions>
          <ns3:TrackPointExtension>
            <ns3:hr>67</ns3:hr>
            <ns3:cad>0</ns3:cad>
          </ns3:TrackPointExtension>
        </extensions>
      </trkpt>
      <trkpt lat="43.7716781906783580780029296875" lon="1.588370986282825469970703125">
        <ele>124.59999847412109375</ele>
        <time>2026-08-13T07:57:22.000Z</time>
        <extensions>
          <ns3:TrackPointExtension>
            <ns3:hr>67</ns3:hr>
            <ns3:cad>0</ns3:cad>
          </ns3:TrackPointExtension>
        </extensions>
      </trkpt>
      <trkpt lat="43.771673999726772308349609375" lon="1.5883738361299037933349609375">
        <ele>124.59999847412109375</ele>
        <time>2026-08-13T07:57:23.000Z</time>
        <extensions>
          <ns3:TrackPointExtension>
            <ns3:hr>67</ns3:hr>
            <ns3:cad>0</ns3:cad>
          </ns3:TrackPointExtension>
        </extensions>
      </trkpt>
      <trkpt lat="43.77166905440390110015869140625" lon="1.58837878145277500152587890625">
        <ele>124.59999847412109375</ele>
        <time>2026-08-13T07:57:24.000Z</time>
        <extensions>
          <ns3:TrackPointExtension>
            <ns3:hr>67</ns3:hr>
            <ns3:cad>0</ns3:cad>
          </ns3:TrackPointExtension>
        </extensions>
      </trkpt>
      <trkpt lat="43.77165983431041240692138671875" lon="1.588385067880153656005859375">
        <ele>124.59999847412109375</ele>
        <time>2026-08-13T07:57:25.000Z</time>
        <extensions>
          <ns3:TrackPointExtension>
            <ns3:hr>68</ns3:hr>
            <ns3:cad>0</ns3:cad>
          </ns3:TrackPointExtension>
        </extensions>
      </trkpt>
      <trkpt lat="43.77165765501558780670166015625" lon="1.5883869118988513946533203125">
        <ele>124.59999847412109375</ele>
        <time>2026-08-13T07:57:26.000Z</time>
        <extensions>
          <ns3:TrackPointExtension>
            <ns3:hr>67</ns3:hr>
            <ns3:cad>79</ns3:cad>
          </ns3:TrackPointExtension>
        </extensions>
      </trkpt>
      <trkpt lat="43.7716542184352874755859375" lon="1.58839118666946887969970703125">
        <ele>124.59999847412109375</ele>
        <time>2026-08-13T07:57:27.000Z</time>
        <extensions>
          <ns3:TrackPointExtension>
            <ns3:hr>67</ns3:hr>
            <ns3:cad>79</ns3:cad>
          </ns3:TrackPointExtension>
        </extensions>
      </trkpt>
      <trkpt lat="43.771646507084369659423828125" lon="1.58839805983006954193115234375">
        <ele>124.59999847412109375</ele>
        <time>2026-08-13T07:57:28.000Z</time>
        <extensions>
          <ns3:TrackPointExtension>
            <ns3:hr>67</ns3:hr>
            <ns3:cad>79</ns3:cad>
          </ns3:TrackPointExtension>
        </extensions>
      </trkpt>
      <trkpt lat="43.7716403044760227203369140625" lon="1.58840208314359188079833984375">
        <ele>124.59999847412109375</ele>
        <time>2026-08-13T07:57:29.000Z</time>
        <extensions>
          <ns3:TrackPointExtension>
            <ns3:hr>67</ns3:hr>
            <ns3:cad>79</ns3:cad>
          </ns3:TrackPointExtension>
        </extensions>
      </trkpt>
      <trkpt lat="43.77163720317184925079345703125" lon="1.58840526826679706573486328125">
        <ele>124.59999847412109375</ele>
        <time>2026-08-13T07:57:30.000Z</time>
        <extensions>
          <ns3:TrackPointExtension>
            <ns3:hr>67</ns3:hr>
            <ns3:cad>40</ns3:cad>
          </ns3:TrackPointExtension>
        </extensions>
      </trkpt>
      <trkpt lat="43.77162806689739227294921875" lon="1.5884157456457614898681640625">
        <ele>124.59999847412109375</ele>
        <time>2026-08-13T07:57:31.000Z</time>
        <extensions>
          <ns3:TrackPointExtension>
            <ns3:hr>67</ns3:hr>
            <ns3:cad>40</ns3:cad>
          </ns3:TrackPointExtension>
        </extensions>
      </trkpt>
      <trkpt lat="43.77161943353712558746337890625" lon="1.5884231217205524444580078125">
        <ele>124.59999847412109375</ele>
        <time>2026-08-13T07:57:32.000Z</time>
        <extensions>
          <ns3:TrackPointExtension>
            <ns3:hr>67</ns3:hr>
            <ns3:cad>40</ns3:cad>
          </ns3:TrackPointExtension>
        </extensions>
      </trkpt>
      <trkpt lat="43.7716104649007320404052734375" lon="1.58843225799500942230224609375">
        <ele>124.59999847412109375</ele>
        <time>2026-08-13T07:57:33.000Z</time>
        <extensions>
          <ns3:TrackPointExtension>
            <ns3:hr>68</ns3:hr>
            <ns3:cad>40</ns3:cad>
          </ns3:TrackPointExtension>
        </extensions>
      </trkpt>
      <trkpt lat="43.771604932844638824462890625" lon="1.58843795768916606903076171875">
        <ele>124.59999847412109375</ele>
        <time>2026-08-13T07:57:34.000Z</time>
        <extensions>
          <ns3:TrackPointExtension>
            <ns3:hr>68</ns3:hr>
            <ns3:cad>40</ns3:cad>
          </ns3:TrackPointExtension>
        </extensions>
      </trkpt>
      <trkpt lat="43.7715903483331203460693359375" lon="1.58844684250652790069580078125">
        <ele>124.59999847412109375</ele>
        <time>2026-08-13T07:57:35.000Z</time>
        <extensions>
          <ns3:TrackPointExtension>
            <ns3:hr>68</ns3:hr>
            <ns3:cad>44</ns3:cad>
          </ns3:TrackPointExtension>
        </extensions>
      </trkpt>
      <trkpt lat="43.77158137969672679901123046875" lon="1.58844617195427417755126953125">
        <ele>124.59999847412109375</ele>
        <time>2026-08-13T07:57:36.000Z</time>
        <extensions>
          <ns3:TrackPointExtension>
            <ns3:hr>69</ns3:hr>
            <ns3:cad>44</ns3:cad>
          </ns3:TrackPointExtension>
        </extensions>
      </trkpt>
      <trkpt lat="43.7715766020119190216064453125" lon="1.5884442441165447235107421875">
        <ele>124.59999847412109375</ele>
        <time>2026-08-13T07:57:37.000Z</time>
        <extensions>
          <ns3:TrackPointExtension>
            <ns3:hr>68</ns3:hr>
            <ns3:cad>44</ns3:cad>
          </ns3:TrackPointExtension>
        </extensions>
      </trkpt>
      <trkpt lat="43.77156612463295459747314453125" lon="1.58845086582005023956298828125">
        <ele>124.59999847412109375</ele>
        <time>2026-08-13T07:57:38.000Z</time>
        <extensions>
          <ns3:TrackPointExtension>
            <ns3:hr>68</ns3:hr>
            <ns3:cad>44</ns3:cad>
          </ns3:TrackPointExtension>
        </extensions>
      </trkpt>
      <trkpt lat="43.771555982530117034912109375" lon="1.58845941536128520965576171875">
        <ele>124.59999847412109375</ele>
        <time>2026-08-13T07:57:39.000Z</time>
        <extensions>
          <ns3:TrackPointExtension>
            <ns3:hr>69</ns3:hr>
            <ns3:cad>43</ns3:cad>
          </ns3:TrackPointExtension>
        </extensions>
      </trkpt>
      <trkpt lat="43.77154885791242122650146484375" lon="1.5884653665125370025634765625">
        <ele>124.59999847412109375</ele>
        <time>2026-08-13T07:57:40.000Z</time>
        <extensions>
          <ns3:TrackPointExtension>
            <ns3:hr>69</ns3:hr>
            <ns3:cad>43</ns3:cad>
          </ns3:TrackPointExtension>
        </extensions>
      </trkpt>
      <trkpt lat="43.771544583141803741455078125" lon="1.58847098238766193389892578125">
        <ele>124.59999847412109375</ele>
        <time>2026-08-13T07:57:41.000Z</time>
        <extensions>
          <ns3:TrackPointExtension>
            <ns3:hr>69</ns3:hr>
            <ns3:cad>43</ns3:cad>
          </ns3:TrackPointExtension>
        </extensions>
      </trkpt>
      <trkpt lat="43.771534860134124755859375" lon="1.58847902901470661163330078125">
        <ele>124.59999847412109375</ele>
        <time>2026-08-13T07:57:42.000Z</time>
        <extensions>
          <ns3:TrackPointExtension>
            <ns3:hr>69</ns3:hr>
            <ns3:cad>42</ns3:cad>
          </ns3:TrackPointExtension>
        </extensions>
      </trkpt>
      <trkpt lat="43.77152505330741405487060546875" lon="1.58849076367914676666259765625">
        <ele>124.59999847412109375</ele>
        <time>2026-08-13T07:57:43.000Z</time>
        <extensions>
          <ns3:TrackPointExtension>
            <ns3:hr>70</ns3:hr>
            <ns3:cad>42</ns3:cad>
          </ns3:TrackPointExtension>
        </extensions>
      </trkpt>
      <trkpt lat="43.771517761051654815673828125" lon="1.58849696628749370574951171875">
        <ele>124.59999847412109375</ele>
        <time>2026-08-13T07:57:44.000Z</time>
        <extensions>
          <ns3:TrackPointExtension>
            <ns3:hr>71</ns3:hr>
            <ns3:cad>43</ns3:cad>
          </ns3:TrackPointExtension>
        </extensions>
      </trkpt>
      <trkpt lat="43.77150946296751499176025390625" lon="1.588501073420047760009765625">
        <ele>124.59999847412109375</ele>
        <time>2026-08-13T07:57:45.000Z</time>
        <extensions>
          <ns3:TrackPointExtension>
            <ns3:hr>72</ns3:hr>
            <ns3:cad>44</ns3:cad>
          </ns3:TrackPointExtension>
        </extensions>
      </trkpt>
      <trkpt lat="43.7714991532266139984130859375" lon="1.58850836567580699920654296875">
        <ele>124.59999847412109375</ele>
        <time>2026-08-13T07:57:46.000Z</time>
        <extensions>
          <ns3:TrackPointExtension>
            <ns3:hr>72</ns3:hr>
            <ns3:cad>44</ns3:cad>
          </ns3:TrackPointExtension>
        </extensions>
      </trkpt>
      <trkpt lat="43.7714901007711887359619140625" lon="1.58851607702672481536865234375">
        <ele>124.59999847412109375</ele>
        <time>2026-08-13T07:57:47.000Z</time>
        <extensions>
          <ns3:TrackPointExtension>
            <ns3:hr>73</ns3:hr>
            <ns3:cad>44</ns3:cad>
          </ns3:TrackPointExtension>
        </extensions>
      </trkpt>
      <trkpt lat="43.771483898162841796875" lon="1.58851976506412029266357421875">
        <ele>124.59999847412109375</ele>
        <time>2026-08-13T07:57:48.000Z</time>
        <extensions>
          <ns3:TrackPointExtension>
            <ns3:hr>73</ns3:hr>
            <ns3:cad>44</ns3:cad>
          </ns3:TrackPointExtension>
        </extensions>
      </trkpt>
      <trkpt lat="43.77147023566067218780517578125" lon="1.58852797932922840118408203125">
        <ele>124.59999847412109375</ele>
        <time>2026-08-13T07:57:49.000Z</time>
        <extensions>
          <ns3:TrackPointExtension>
            <ns3:hr>73</ns3:hr>
            <ns3:cad>44</ns3:cad>
          </ns3:TrackPointExtension>
        </extensions>
      </trkpt>
      <trkpt lat="43.77145950682461261749267578125" lon="1.58853359520435333251953125">
        <ele>124.59999847412109375</ele>
        <time>2026-08-13T07:57:50.000Z</time>
        <extensions>
          <ns3:TrackPointExtension>
            <ns3:hr>74</ns3:hr>
            <ns3:cad>43</ns3:cad>
          </ns3:TrackPointExtension>
        </extensions>
      </trkpt>
      <trkpt lat="43.77144835889339447021484375" lon="1.58853719942271709442138671875">
        <ele>124.59999847412109375</ele>
        <time>2026-08-13T07:57:51.000Z</time>
        <extensions>
          <ns3:TrackPointExtension>
            <ns3:hr>75</ns3:hr>
            <ns3:cad>42</ns3:cad>
          </ns3:TrackPointExtension>
        </extensions>
      </trkpt>
      <trkpt lat="43.77144299447536468505859375" lon="1.588540636003017425537109375">
        <ele>124.59999847412109375</ele>
        <time>2026-08-13T07:57:52.000Z</time>
        <extensions>
          <ns3:TrackPointExtension>
            <ns3:hr>76</ns3:hr>
            <ns3:cad>42</ns3:cad>
          </ns3:TrackPointExtension>
        </extensions>
      </trkpt>
      <trkpt lat="43.77143570221960544586181640625" lon="1.58854725770652294158935546875">
        <ele>124.59999847412109375</ele>
        <time>2026-08-13T07:57:53.000Z</time>
        <extensions>
          <ns3:TrackPointExtension>
            <ns3:hr>77</ns3:hr>
            <ns3:cad>42</ns3:cad>
          </ns3:TrackPointExtension>
        </extensions>
      </trkpt>
      <trkpt lat="43.77143519930541515350341796875" lon="1.588556729257106781005859375">
        <ele>124.59999847412109375</ele>
        <time>2026-08-13T07:57:54.000Z</time>
        <extensions>
          <ns3:TrackPointExtension>
            <ns3:hr>78</ns3:hr>
            <ns3:cad>42</ns3:cad>
          </ns3:TrackPointExtension>
        </extensions>
      </trkpt>
      <trkpt lat="43.7714310921728610992431640625" lon="1.5885548852384090423583984375">
        <ele>124.59999847412109375</ele>
        <time>2026-08-13T07:57:55.000Z</time>
        <extensions>
          <ns3:TrackPointExtension>
            <ns3:hr>77</ns3:hr>
            <ns3:cad>43</ns3:cad>
          </ns3:TrackPointExtension>
        </extensions>
      </trkpt>
      <trkpt lat="43.77142095007002353668212890625" lon="1.588563434779644012451171875">
        <ele>124.59999847412109375</ele>
        <time>2026-08-13T07:57:56.000Z</time>
        <extensions>
          <ns3:TrackPointExtension>
            <ns3:hr>77</ns3:hr>
            <ns3:cad>43</ns3:cad>
          </ns3:TrackPointExtension>
        </extensions>
      </trkpt>
      <trkpt lat="43.77141256816685199737548828125" lon="1.58857055939733982086181640625">
        <ele>124.59999847412109375</ele>
        <time>2026-08-13T07:57:57.000Z</time>
        <extensions>
          <ns3:TrackPointExtension>
            <ns3:hr>77</ns3:hr>
            <ns3:cad>43</ns3:cad>
          </ns3:TrackPointExtension>
        </extensions>
      </trkpt>
      <trkpt lat="43.771404437720775604248046875" lon="1.5885773487389087677001953125">
        <ele>124.59999847412109375</ele>
        <time>2026-08-13T07:57:58.000Z</time>
        <extensions>
          <ns3:TrackPointExtension>
            <ns3:hr>77</ns3:hr>
            <ns3:cad>43</ns3:cad>
          </ns3:TrackPointExtension>
        </extensions>
      </trkpt>
      <trkpt lat="43.77139429561793804168701171875" lon="1.588582210242748260498046875">
        <ele>124.59999847412109375</ele>
        <time>2026-08-13T07:57:59.000Z</time>
        <extensions>
          <ns3:TrackPointExtension>
            <ns3:hr>77</ns3:hr>
            <ns3:cad>43</ns3:cad>
          </ns3:TrackPointExtension>
        </extensions>
      </trkpt>
      <trkpt lat="43.771382980048656463623046875" lon="1.588589586317539215087890625">
        <ele>124.8000030517578125</ele>
        <time>2026-08-13T07:58:00.000Z</time>
        <extensions>
          <ns3:TrackPointExtension>
            <ns3:hr>78</ns3:hr>
            <ns3:cad>43</ns3:cad>
          </ns3:TrackPointExtension>
        </extensions>
      </trkpt>
      <trkpt lat="43.77137216739356517791748046875" lon="1.58859604038298130035400390625">
        <ele>124.8000030517578125</ele>
        <time>2026-08-13T07:58:01.000Z</time>
        <extensions>
          <ns3:TrackPointExtension>
            <ns3:hr>77</ns3:hr>
            <ns3:cad>43</ns3:cad>
          </ns3:TrackPointExtension>
        </extensions>
      </trkpt>
      <trkpt lat="43.77136479131877422332763671875" lon="1.588600985705852508544921875">
        <ele>124.8000030517578125</ele>
        <time>2026-08-13T07:58:02.000Z</time>
        <extensions>
          <ns3:TrackPointExtension>
            <ns3:hr>77</ns3:hr>
            <ns3:cad>43</ns3:cad>
          </ns3:TrackPointExtension>
        </extensions>
      </trkpt>
      <trkpt lat="43.7713596783578395843505859375" lon="1.5886065177619457244873046875">
        <ele>124.8000030517578125</ele>
        <time>2026-08-13T07:58:03.000Z</time>
        <extensions>
          <ns3:TrackPointExtension>
            <ns3:hr>77</ns3:hr>
            <ns3:cad>43</ns3:cad>
          </ns3:TrackPointExtension>
        </extensions>
      </trkpt>
      <trkpt lat="43.77134769223630428314208984375" lon="1.58861330710351467132568359375">
        <ele>124.8000030517578125</ele>
        <time>2026-08-13T07:58:04.000Z</time>
        <extensions>
          <ns3:TrackPointExtension>
            <ns3:hr>77</ns3:hr>
            <ns3:cad>43</ns3:cad>
          </ns3:TrackPointExtension>
        </extensions>
      </trkpt>
      <trkpt lat="43.7713362090289592742919921875" lon="1.58862051554024219512939453125">
        <ele>124.8000030517578125</ele>
        <time>2026-08-13T07:58:05.000Z</time>
        <extensions>
          <ns3:TrackPointExtension>
            <ns3:hr>78</ns3:hr>
            <ns3:cad>43</ns3:cad>
          </ns3:TrackPointExtension>
        </extensions>
      </trkpt>
      <trkpt lat="43.77132774330675601959228515625" lon="1.58862453885376453399658203125">
        <ele>124.8000030517578125</ele>
        <time>2026-08-13T07:58:06.000Z</time>
        <extensions>
          <ns3:TrackPointExtension>
            <ns3:hr>77</ns3:hr>
            <ns3:cad>45</ns3:cad>
          </ns3:TrackPointExtension>
        </extensions>
      </trkpt>
      <trkpt lat="43.77131969667971134185791015625" lon="1.58862872980535030364990234375">
        <ele>124.8000030517578125</ele>
        <time>2026-08-13T07:58:07.000Z</time>
        <extensions>
          <ns3:TrackPointExtension>
            <ns3:hr>77</ns3:hr>
            <ns3:cad>45</ns3:cad>
          </ns3:TrackPointExtension>
        </extensions>
      </trkpt>
      <trkpt lat="43.77130729146301746368408203125" lon="1.58863476477563381195068359375">
        <ele>124.8000030517578125</ele>
        <time>2026-08-13T07:58:08.000Z</time>
        <extensions>
          <ns3:TrackPointExtension>
            <ns3:hr>77</ns3:hr>
            <ns3:cad>45</ns3:cad>
          </ns3:TrackPointExtension>
        </extensions>
      </trkpt>
      <trkpt lat="43.77130343578755855560302734375" lon="1.58864415250718593597412109375">
        <ele>124.8000030517578125</ele>
        <time>2026-08-13T07:58:09.000Z</time>
        <extensions>
          <ns3:TrackPointExtension>
            <ns3:hr>77</ns3:hr>
            <ns3:cad>44</ns3:cad>
          </ns3:TrackPointExtension>
        </extensions>
      </trkpt>
      <trkpt lat="43.7712986581027507781982421875" lon="1.58864817582070827484130859375">
        <ele>125</ele>
        <time>2026-08-13T07:58:10.000Z</time>
        <extensions>
          <ns3:TrackPointExtension>
            <ns3:hr>77</ns3:hr>
            <ns3:cad>44</ns3:cad>
          </ns3:TrackPointExtension>
        </extensions>
      </trkpt>
      <trkpt lat="43.7712922878563404083251953125" lon="1.58865253441035747528076171875">
        <ele>125</ele>
        <time>2026-08-13T07:58:11.000Z</time>
        <extensions>
          <ns3:TrackPointExtension>
            <ns3:hr>76</ns3:hr>
            <ns3:cad>44</ns3:cad>
          </ns3:TrackPointExtension>
        </extensions>
      </trkpt>
      <trkpt lat="43.7712835706770420074462890625" lon="1.58865672536194324493408203125">
        <ele>125</ele>
        <time>2026-08-13T07:58:12.000Z</time>
        <extensions>
          <ns3:TrackPointExtension>
            <ns3:hr>76</ns3:hr>
            <ns3:cad>44</ns3:cad>
          </ns3:TrackPointExtension>
        </extensions>
      </trkpt>
      <trkpt lat="43.77127527259290218353271484375" lon="1.588660664856433868408203125">
        <ele>125.1999969482421875</ele>
        <time>2026-08-13T07:58:13.000Z</time>
        <extensions>
          <ns3:TrackPointExtension>
            <ns3:hr>76</ns3:hr>
            <ns3:cad>43</ns3:cad>
          </ns3:TrackPointExtension>
        </extensions>
      </trkpt>
      <trkpt lat="43.77126999199390411376953125" lon="1.58866368234157562255859375">
        <ele>125.1999969482421875</ele>
        <time>2026-08-13T07:58:14.000Z</time>
        <extensions>
          <ns3:TrackPointExtension>
            <ns3:hr>76</ns3:hr>
            <ns3:cad>43</ns3:cad>
          </ns3:TrackPointExtension>
        </extensions>
      </trkpt>
      <trkpt lat="43.77126487903296947479248046875" lon="1.58867013640701770782470703125">
        <ele>125</ele>
        <time>2026-08-13T07:58:15.000Z</time>
        <extensions>
          <ns3:TrackPointExtension>
            <ns3:hr>75</ns3:hr>
            <ns3:cad>43</ns3:cad>
          </ns3:TrackPointExtension>
        </extensions>
      </trkpt>
      <trkpt lat="43.77125750295817852020263671875" lon="1.58868321217596530914306640625">
        <ele>125</ele>
        <time>2026-08-13T07:58:16.000Z</time>
        <extensions>
          <ns3:TrackPointExtension>
            <ns3:hr>75</ns3:hr>
            <ns3:cad>43</ns3:cad>
          </ns3:TrackPointExtension>
        </extensions>
      </trkpt>
      <trkpt lat="43.77124878577888011932373046875" lon="1.58869444392621517181396484375">
        <ele>125</ele>
        <time>2026-08-13T07:58:17.000Z</time>
        <extensions>
          <ns3:TrackPointExtension>
            <ns3:hr>75</ns3:hr>
            <ns3:cad>43</ns3:cad>
          </ns3:TrackPointExtension>
        </extensions>
      </trkpt>
      <trkpt lat="43.77124073915183544158935546875" lon="1.5887034125626087188720703125">
        <ele>125</ele>
        <time>2026-08-13T07:58:18.000Z</time>
        <extensions>
          <ns3:TrackPointExtension>
            <ns3:hr>75</ns3:hr>
            <ns3:cad>45</ns3:cad>
          </ns3:TrackPointExtension>
        </extensions>
      </trkpt>
      <trkpt lat="43.77123705111443996429443359375" lon="1.58870257437229156494140625">
        <ele>124.8000030517578125</ele>
        <time>2026-08-13T07:58:19.000Z</time>
        <extensions>
          <ns3:TrackPointExtension>
            <ns3:hr>75</ns3:hr>
            <ns3:cad>45</ns3:cad>
          </ns3:TrackPointExtension>
        </extensions>
      </trkpt>
      <trkpt lat="43.771227411925792694091796875" lon="1.58870919607579708099365234375">
        <ele>125</ele>
        <time>2026-08-13T07:58:20.000Z</time>
        <extensions>
          <ns3:TrackPointExtension>
            <ns3:hr>75</ns3:hr>
            <ns3:cad>45</ns3:cad>
          </ns3:TrackPointExtension>
        </extensions>
      </trkpt>
      <trkpt lat="43.77122037112712860107421875" lon="1.5887181647121906280517578125">
        <ele>125</ele>
        <time>2026-08-13T07:58:21.000Z</time>
        <extensions>
          <ns3:TrackPointExtension>
            <ns3:hr>75</ns3:hr>
            <ns3:cad>45</ns3:cad>
          </ns3:TrackPointExtension>
        </extensions>
      </trkpt>
      <trkpt lat="43.77121232450008392333984375" lon="1.58872579224407672882080078125">
        <ele>125</ele>
        <time>2026-08-13T07:58:22.000Z</time>
        <extensions>
          <ns3:TrackPointExtension>
            <ns3:hr>74</ns3:hr>
            <ns3:cad>47</ns3:cad>
          </ns3:TrackPointExtension>
        </extensions>
      </trkpt>
      <trkpt lat="43.77120159566402435302734375" lon="1.5887322463095188140869140625">
        <ele>124.8000030517578125</ele>
        <time>2026-08-13T07:58:23.000Z</time>
        <extensions>
          <ns3:TrackPointExtension>
            <ns3:hr>75</ns3:hr>
            <ns3:cad>47</ns3:cad>
          </ns3:TrackPointExtension>
        </extensions>
      </trkpt>
      <trkpt lat="43.77119011245667934417724609375" lon="1.58874238841235637664794921875">
        <ele>124.8000030517578125</ele>
        <time>2026-08-13T07:58:24.000Z</time>
        <extensions>
          <ns3:TrackPointExtension>
            <ns3:hr>75</ns3:hr>
            <ns3:cad>45</ns3:cad>
          </ns3:TrackPointExtension>
        </extensions>
      </trkpt>
      <trkpt lat="43.77117821015417575836181640625" lon="1.5887500159442424774169921875">
        <ele>124.8000030517578125</ele>
        <time>2026-08-13T07:58:25.000Z</time>
        <extensions>
          <ns3:TrackPointExtension>
            <ns3:hr>75</ns3:hr>
            <ns3:cad>44</ns3:cad>
          </ns3:TrackPointExtension>
        </extensions>
      </trkpt>
      <trkpt lat="43.7711675651371479034423828125" lon="1.58875781111419200897216796875">
        <ele>124.8000030517578125</ele>
        <time>2026-08-13T07:58:26.000Z</time>
        <extensions>
          <ns3:TrackPointExtension>
            <ns3:hr>74</ns3:hr>
            <ns3:cad>44</ns3:cad>
          </ns3:TrackPointExtension>
        </extensions>
      </trkpt>
      <trkpt lat="43.77115993760526180267333984375" lon="1.588761247694492340087890625">
        <ele>124.8000030517578125</ele>
        <time>2026-08-13T07:58:27.000Z</time>
        <extensions>
          <ns3:TrackPointExtension>
            <ns3:hr>74</ns3:hr>
            <ns3:cad>44</ns3:cad>
          </ns3:TrackPointExtension>
        </extensions>
      </trkpt>
      <trkpt lat="43.7711497955024242401123046875" lon="1.5887721441686153411865234375">
        <ele>124.8000030517578125</ele>
        <time>2026-08-13T07:58:28.000Z</time>
        <extensions>
          <ns3:TrackPointExtension>
            <ns3:hr>74</ns3:hr>
            <ns3:cad>44</ns3:cad>
          </ns3:TrackPointExtension>
        </extensions>
      </trkpt>
      <trkpt lat="43.7711430899798870086669921875" lon="1.5887796878814697265625">
        <ele>125</ele>
        <time>2026-08-13T07:58:29.000Z</time>
        <extensions>
          <ns3:TrackPointExtension>
            <ns3:hr>74</ns3:hr>
            <ns3:cad>44</ns3:cad>
          </ns3:TrackPointExtension>
        </extensions>
      </trkpt>
      <trkpt lat="43.77113680355250835418701171875" lon="1.58878714777529239654541015625">
        <ele>125</ele>
        <time>2026-08-13T07:58:30.000Z</time>
        <extensions>
          <ns3:TrackPointExtension>
            <ns3:hr>74</ns3:hr>
            <ns3:cad>44</ns3:cad>
          </ns3:TrackPointExtension>
        </extensions>
      </trkpt>
      <trkpt lat="43.77112993039190769195556640625" lon="1.588796116411685943603515625">
        <ele>125</ele>
        <time>2026-08-13T07:58:31.000Z</time>
        <extensions>
          <ns3:TrackPointExtension>
            <ns3:hr>74</ns3:hr>
            <ns3:cad>44</ns3:cad>
          </ns3:TrackPointExtension>
        </extensions>
      </trkpt>
      <trkpt lat="43.7711259908974170684814453125" lon="1.58880458213388919830322265625">
        <ele>125</ele>
        <time>2026-08-13T07:58:32.000Z</time>
        <extensions>
          <ns3:TrackPointExtension>
            <ns3:hr>74</ns3:hr>
            <ns3:cad>43</ns3:cad>
          </ns3:TrackPointExtension>
        </extensions>
      </trkpt>
      <trkpt lat="43.77111718989908695220947265625" lon="1.58881212584674358367919921875">
        <ele>125</ele>
        <time>2026-08-13T07:58:33.000Z</time>
        <extensions>
          <ns3:TrackPointExtension>
            <ns3:hr>74</ns3:hr>
            <ns3:cad>43</ns3:cad>
          </ns3:TrackPointExtension>
        </extensions>
      </trkpt>
      <trkpt lat="43.77110905945301055908203125" lon="1.58881899900734424591064453125">
        <ele>125</ele>
        <time>2026-08-13T07:58:34.000Z</time>
        <extensions>
          <ns3:TrackPointExtension>
            <ns3:hr>73</ns3:hr>
            <ns3:cad>43</ns3:cad>
          </ns3:TrackPointExtension>
        </extensions>
      </trkpt>
      <trkpt lat="43.771097995340824127197265625" lon="1.58882268704473972320556640625">
        <ele>125</ele>
        <time>2026-08-13T07:58:35.000Z</time>
        <extensions>
          <ns3:TrackPointExtension>
            <ns3:hr>74</ns3:hr>
            <ns3:cad>43</ns3:cad>
          </ns3:TrackPointExtension>
        </extensions>
      </trkpt>
      <trkpt lat="43.77108936198055744171142578125" lon="1.58882997930049896240234375">
        <ele>125</ele>
        <time>2026-08-13T07:58:36.000Z</time>
        <extensions>
          <ns3:TrackPointExtension>
            <ns3:hr>74</ns3:hr>
            <ns3:cad>0</ns3:cad>
          </ns3:TrackPointExtension>
        </extensions>
      </trkpt>
      <trkpt lat="43.77108215354382991790771484375" lon="1.5888298116624355316162109375">
        <ele>125</ele>
        <time>2026-08-13T07:58:37.000Z</time>
        <extensions>
          <ns3:TrackPointExtension>
            <ns3:hr>75</ns3:hr>
            <ns3:cad>0</ns3:cad>
          </ns3:TrackPointExtension>
        </extensions>
      </trkpt>
      <trkpt lat="43.77106907777488231658935546875" lon="1.58883559517562389373779296875">
        <ele>125</ele>
        <time>2026-08-13T07:58:38.000Z</time>
        <extensions>
          <ns3:TrackPointExtension>
            <ns3:hr>76</ns3:hr>
            <ns3:cad>43</ns3:cad>
          </ns3:TrackPointExtension>
        </extensions>
      </trkpt>
      <trkpt lat="43.771058432757854461669921875" lon="1.5888412110507488250732421875">
        <ele>125</ele>
        <time>2026-08-13T07:58:39.000Z</time>
        <extensions>
          <ns3:TrackPointExtension>
            <ns3:hr>76</ns3:hr>
            <ns3:cad>43</ns3:cad>
          </ns3:TrackPointExtension>
        </extensions>
      </trkpt>
      <trkpt lat="43.7710512243211269378662109375" lon="1.588841713964939117431640625">
        <ele>125</ele>
        <time>2026-08-13T07:58:40.000Z</time>
        <extensions>
          <ns3:TrackPointExtension>
            <ns3:hr>76</ns3:hr>
            <ns3:cad>43</ns3:cad>
          </ns3:TrackPointExtension>
        </extensions>
      </trkpt>
      <trkpt lat="43.7710438482463359832763671875" lon="1.588846407830715179443359375">
        <ele>125.1999969482421875</ele>
        <time>2026-08-13T07:58:41.000Z</time>
        <extensions>
          <ns3:TrackPointExtension>
            <ns3:hr>75</ns3:hr>
            <ns3:cad>43</ns3:cad>
          </ns3:TrackPointExtension>
        </extensions>
      </trkpt>
      <trkpt lat="43.77103571780025959014892578125" lon="1.5888482518494129180908203125">
        <ele>125.1999969482421875</ele>
        <time>2026-08-13T07:58:42.000Z</time>
        <extensions>
          <ns3:TrackPointExtension>
            <ns3:hr>75</ns3:hr>
            <ns3:cad>43</ns3:cad>
          </ns3:TrackPointExtension>
        </extensions>
      </trkpt>
      <trkpt lat="43.7710264138877391815185546875" lon="1.58885722048580646514892578125">
        <ele>125</ele>
        <time>2026-08-13T07:58:43.000Z</time>
        <extensions>
          <ns3:TrackPointExtension>
            <ns3:hr>75</ns3:hr>
            <ns3:cad>43</ns3:cad>
          </ns3:TrackPointExtension>
        </extensions>
      </trkpt>
      <trkpt lat="43.7710190378129482269287109375" lon="1.588861830532550811767578125">
        <ele>125</ele>
        <time>2026-08-13T07:58:44.000Z</time>
        <extensions>
          <ns3:TrackPointExtension>
            <ns3:hr>75</ns3:hr>
            <ns3:cad>43</ns3:cad>
          </ns3:TrackPointExtension>
        </extensions>
      </trkpt>
      <trkpt lat="43.77101107500493526458740234375" lon="1.5888660214841365814208984375">
        <ele>125</ele>
        <time>2026-08-13T07:58:45.000Z</time>
        <extensions>
          <ns3:TrackPointExtension>
            <ns3:hr>75</ns3:hr>
            <ns3:cad>45</ns3:cad>
          </ns3:TrackPointExtension>
        </extensions>
      </trkpt>
      <trkpt lat="43.77100185491144657135009765625" lon="1.5888717211782932281494140625">
        <ele>125</ele>
        <time>2026-08-13T07:58:46.000Z</time>
        <extensions>
          <ns3:TrackPointExtension>
            <ns3:hr>75</ns3:hr>
            <ns3:cad>45</ns3:cad>
          </ns3:TrackPointExtension>
        </extensions>
      </trkpt>
      <trkpt lat="43.770992718636989593505859375" lon="1.58888228237628936767578125">
        <ele>125</ele>
        <time>2026-08-13T07:58:47.000Z</time>
        <extensions>
          <ns3:TrackPointExtension>
            <ns3:hr>76</ns3:hr>
            <ns3:cad>45</ns3:cad>
          </ns3:TrackPointExtension>
        </extensions>
      </trkpt>
      <trkpt lat="43.77098701894283294677734375" lon="1.58888940699398517608642578125">
        <ele>125.1999969482421875</ele>
        <time>2026-08-13T07:58:48.000Z</time>
        <extensions>
          <ns3:TrackPointExtension>
            <ns3:hr>77</ns3:hr>
            <ns3:cad>45</ns3:cad>
          </ns3:TrackPointExtension>
        </extensions>
      </trkpt>
      <trkpt lat="43.77098291181027889251708984375" lon="1.588892675936222076416015625">
        <ele>125.1999969482421875</ele>
        <time>2026-08-13T07:58:49.000Z</time>
        <extensions>
          <ns3:TrackPointExtension>
            <ns3:hr>78</ns3:hr>
            <ns3:cad>45</ns3:cad>
          </ns3:TrackPointExtension>
        </extensions>
      </trkpt>
      <trkpt lat="43.77097427845001220703125" lon="1.58890047110617160797119140625">
        <ele>125.1999969482421875</ele>
        <time>2026-08-13T07:58:50.000Z</time>
        <extensions>
          <ns3:TrackPointExtension>
            <ns3:hr>78</ns3:hr>
            <ns3:cad>45</ns3:cad>
          </ns3:TrackPointExtension>
        </extensions>
      </trkpt>
      <trkpt lat="43.77096681855618953704833984375" lon="1.588906757533550262451171875">
        <ele>125.1999969482421875</ele>
        <time>2026-08-13T07:58:51.000Z</time>
        <extensions>
          <ns3:TrackPointExtension>
            <ns3:hr>79</ns3:hr>
            <ns3:cad>45</ns3:cad>
          </ns3:TrackPointExtension>
        </extensions>
      </trkpt>
      <trkpt lat="43.77095843665301799774169921875" lon="1.58891187049448490142822265625">
        <ele>125.1999969482421875</ele>
        <time>2026-08-13T07:58:52.000Z</time>
        <extensions>
          <ns3:TrackPointExtension>
            <ns3:hr>79</ns3:hr>
            <ns3:cad>45</ns3:cad>
          </ns3:TrackPointExtension>
        </extensions>
      </trkpt>
      <trkpt lat="43.7709560059010982513427734375" lon="1.58892058767378330230712890625">
        <ele>125.1999969482421875</ele>
        <time>2026-08-13T07:58:53.000Z</time>
        <extensions>
          <ns3:TrackPointExtension>
            <ns3:hr>78</ns3:hr>
            <ns3:cad>0</ns3:cad>
          </ns3:TrackPointExtension>
        </extensions>
      </trkpt>
      <trkpt lat="43.77094770781695842742919921875" lon="1.58892863430082798004150390625">
        <ele>125.1999969482421875</ele>
        <time>2026-08-13T07:58:54.000Z</time>
        <extensions>
          <ns3:TrackPointExtension>
            <ns3:hr>78</ns3:hr>
            <ns3:cad>0</ns3:cad>
          </ns3:TrackPointExtension>
        </extensions>
      </trkpt>
      <trkpt lat="43.7709412537515163421630859375" lon="1.58893969841301441192626953125">
        <ele>125.1999969482421875</ele>
        <time>2026-08-13T07:58:55.000Z</time>
        <extensions>
          <ns3:TrackPointExtension>
            <ns3:hr>78</ns3:hr>
            <ns3:cad>44</ns3:cad>
          </ns3:TrackPointExtension>
        </extensions>
      </trkpt>
      <trkpt lat="43.7709352187812328338623046875" lon="1.58894338645040988922119140625">
        <ele>125.1999969482421875</ele>
        <time>2026-08-13T07:58:56.000Z</time>
        <extensions>
          <ns3:TrackPointExtension>
            <ns3:hr>79</ns3:hr>
            <ns3:cad>44</ns3:cad>
          </ns3:TrackPointExtension>
        </extensions>
      </trkpt>
      <trkpt lat="43.77092591486871242523193359375" lon="1.58895201981067657470703125">
        <ele>125.1999969482421875</ele>
        <time>2026-08-13T07:58:57.000Z</time>
        <extensions>
          <ns3:TrackPointExtension>
            <ns3:hr>78</ns3:hr>
            <ns3:cad>44</ns3:cad>
          </ns3:TrackPointExtension>
        </extensions>
      </trkpt>
      <trkpt lat="43.77091535367071628570556640625" lon="1.58896350301802158355712890625">
        <ele>125.1999969482421875</ele>
        <time>2026-08-13T07:58:58.000Z</time>
        <extensions>
          <ns3:TrackPointExtension>
            <ns3:hr>78</ns3:hr>
            <ns3:cad>43</ns3:cad>
          </ns3:TrackPointExtension>
        </extensions>
      </trkpt>
      <trkpt lat="43.7709073908627033233642578125" lon="1.5889728069305419921875">
        <ele>125.40000152587890625</ele>
        <time>2026-08-13T07:58:59.000Z</time>
        <extensions>
          <ns3:TrackPointExtension>
            <ns3:hr>78</ns3:hr>
            <ns3:cad>42</ns3:cad>
          </ns3:TrackPointExtension>
        </extensions>
      </trkpt>
      <trkpt lat="43.7709016911685466766357421875" lon="1.5889766626060009002685546875">
        <ele>125.40000152587890625</ele>
        <time>2026-08-13T07:59:00.000Z</time>
        <extensions>
          <ns3:TrackPointExtension>
            <ns3:hr>78</ns3:hr>
            <ns3:cad>43</ns3:cad>
          </ns3:TrackPointExtension>
        </extensions>
      </trkpt>
      <trkpt lat="43.77088903449475765228271484375" lon="1.58898554742336273193359375">
        <ele>125.40000152587890625</ele>
        <time>2026-08-13T07:59:01.000Z</time>
        <extensions>
          <ns3:TrackPointExtension>
            <ns3:hr>78</ns3:hr>
            <ns3:cad>43</ns3:cad>
          </ns3:TrackPointExtension>
        </extensions>
      </trkpt>
      <trkpt lat="43.77088082022964954376220703125" lon="1.588992588222026824951171875">
        <ele>125.40000152587890625</ele>
        <time>2026-08-13T07:59:02.000Z</time>
        <extensions>
          <ns3:TrackPointExtension>
            <ns3:hr>79</ns3:hr>
            <ns3:cad>43</ns3:cad>
          </ns3:TrackPointExtension>
        </extensions>
      </trkpt>
      <trkpt lat="43.7708731926977634429931640625" lon="1.58899652771651744842529296875">
        <ele>125.40000152587890625</ele>
        <time>2026-08-13T07:59:03.000Z</time>
        <extensions>
          <ns3:TrackPointExtension>
            <ns3:hr>78</ns3:hr>
            <ns3:cad>44</ns3:cad>
          </ns3:TrackPointExtension>
        </extensions>
      </trkpt>
      <trkpt lat="43.77086338587105274200439453125" lon="1.58900407142937183380126953125">
        <ele>125.59999847412109375</ele>
        <time>2026-08-13T07:59:04.000Z</time>
        <extensions>
          <ns3:TrackPointExtension>
            <ns3:hr>78</ns3:hr>
            <ns3:cad>44</ns3:cad>
          </ns3:TrackPointExtension>
        </extensions>
      </trkpt>
      <trkpt lat="43.7708547525107860565185546875" lon="1.5890132077038288116455078125">
        <ele>125.59999847412109375</ele>
        <time>2026-08-13T07:59:05.000Z</time>
        <extensions>
          <ns3:TrackPointExtension>
            <ns3:hr>78</ns3:hr>
            <ns3:cad>44</ns3:cad>
          </ns3:TrackPointExtension>
        </extensions>
      </trkpt>
      <trkpt lat="43.77084729261696338653564453125" lon="1.58901949413120746612548828125">
        <ele>125.59999847412109375</ele>
        <time>2026-08-13T07:59:06.000Z</time>
        <extensions>
          <ns3:TrackPointExtension>
            <ns3:hr>78</ns3:hr>
            <ns3:cad>44</ns3:cad>
          </ns3:TrackPointExtension>
        </extensions>
      </trkpt>
      <trkpt lat="43.77084259875118732452392578125" lon="1.589026115834712982177734375">
        <ele>125.59999847412109375</ele>
        <time>2026-08-13T07:59:07.000Z</time>
        <extensions>
          <ns3:TrackPointExtension>
            <ns3:hr>77</ns3:hr>
            <ns3:cad>42</ns3:cad>
          </ns3:TrackPointExtension>
        </extensions>
      </trkpt>
      <trkpt lat="43.77083438448607921600341796875" lon="1.58903122879564762115478515625">
        <ele>125.59999847412109375</ele>
        <time>2026-08-13T07:59:08.000Z</time>
        <extensions>
          <ns3:TrackPointExtension>
            <ns3:hr>77</ns3:hr>
            <ns3:cad>42</ns3:cad>
          </ns3:TrackPointExtension>
        </extensions>
      </trkpt>
      <trkpt lat="43.77082851715385913848876953125" lon="1.58902921713888645172119140625">
        <ele>125.59999847412109375</ele>
        <time>2026-08-13T07:59:09.000Z</time>
        <extensions>
          <ns3:TrackPointExtension>
            <ns3:hr>77</ns3:hr>
            <ns3:cad>42</ns3:cad>
          </ns3:TrackPointExtension>
        </extensions>
      </trkpt>
      <trkpt lat="43.7708192132413387298583984375" lon="1.58901697956025600433349609375">
        <ele>125.59999847412109375</ele>
        <time>2026-08-13T07:59:10.000Z</time>
        <extensions>
          <ns3:TrackPointExtension>
            <ns3:hr>77</ns3:hr>
            <ns3:cad>42</ns3:cad>
          </ns3:TrackPointExtension>
        </extensions>
      </trkpt>
      <trkpt lat="43.77081074751913547515869140625" lon="1.58900574781000614166259765625">
        <ele>125.8000030517578125</ele>
        <time>2026-08-13T07:59:11.000Z</time>
        <extensions>
          <ns3:TrackPointExtension>
            <ns3:hr>77</ns3:hr>
            <ns3:cad>0</ns3:cad>
          </ns3:TrackPointExtension>
        </extensions>
      </trkpt>
      <trkpt lat="43.7708088196814060211181640625" lon="1.58899988047778606414794921875">
        <ele>125.8000030517578125</ele>
        <time>2026-08-13T07:59:12.000Z</time>
        <extensions>
          <ns3:TrackPointExtension>
            <ns3:hr>77</ns3:hr>
            <ns3:cad>0</ns3:cad>
          </ns3:TrackPointExtension>
        </extensions>
      </trkpt>
      <trkpt lat="43.77080353908240795135498046875" lon="1.5889850445091724395751953125">
        <ele>125.8000030517578125</ele>
        <time>2026-08-13T07:59:13.000Z</time>
        <extensions>
          <ns3:TrackPointExtension>
            <ns3:hr>76</ns3:hr>
            <ns3:cad>40</ns3:cad>
          </ns3:TrackPointExtension>
        </extensions>
      </trkpt>
      <trkpt lat="43.7708014436066150665283203125" lon="1.58896744251251220703125">
        <ele>125.8000030517578125</ele>
        <time>2026-08-13T07:59:14.000Z</time>
        <extensions>
          <ns3:TrackPointExtension>
            <ns3:hr>76</ns3:hr>
            <ns3:cad>77</ns3:cad>
          </ns3:TrackPointExtension>
        </extensions>
      </trkpt>
      <trkpt lat="43.77080270089209079742431640625" lon="1.58895914442837238311767578125">
        <ele>126</ele>
        <time>2026-08-13T07:59:15.000Z</time>
        <extensions>
          <ns3:TrackPointExtension>
            <ns3:hr>76</ns3:hr>
            <ns3:cad>77</ns3:cad>
          </ns3:TrackPointExtension>
        </extensions>
      </trkpt>
      <trkpt lat="43.77080555073916912078857421875" lon="1.5889474935829639434814453125">
        <ele>126</ele>
        <time>2026-08-13T07:59:16.000Z</time>
        <extensions>
          <ns3:TrackPointExtension>
            <ns3:hr>75</ns3:hr>
            <ns3:cad>77</ns3:cad>
          </ns3:TrackPointExtension>
        </extensions>
      </trkpt>
      <trkpt lat="43.77080655656754970550537109375" lon="1.5889303945004940032958984375">
        <ele>126</ele>
        <time>2026-08-13T07:59:17.000Z</time>
        <extensions>
          <ns3:TrackPointExtension>
            <ns3:hr>75</ns3:hr>
            <ns3:cad>41</ns3:cad>
          </ns3:TrackPointExtension>
        </extensions>
      </trkpt>
      <trkpt lat="43.77080705948173999786376953125" lon="1.5889163129031658172607421875">
        <ele>126</ele>
        <time>2026-08-13T07:59:18.000Z</time>
        <extensions>
          <ns3:TrackPointExtension>
            <ns3:hr>75</ns3:hr>
            <ns3:cad>41</ns3:cad>
          </ns3:TrackPointExtension>
        </extensions>
      </trkpt>
      <trkpt lat="43.7708084844052791595458984375" lon="1.588905751705169677734375">
        <ele>126</ele>
        <time>2026-08-13T07:59:19.000Z</time>
        <extensions>
          <ns3:TrackPointExtension>
            <ns3:hr>75</ns3:hr>
            <ns3:cad>41</ns3:cad>
          </ns3:TrackPointExtension>
        </extensions>
      </trkpt>
      <trkpt lat="43.77081594429910182952880859375" lon="1.588887311518192291259765625">
        <ele>126.1999969482421875</ele>
        <time>2026-08-13T07:59:20.000Z</time>
        <extensions>
          <ns3:TrackPointExtension>
            <ns3:hr>76</ns3:hr>
            <ns3:cad>41</ns3:cad>
          </ns3:TrackPointExtension>
        </extensions>
      </trkpt>
      <trkpt lat="43.7708188779652118682861328125" lon="1.58887180499732494354248046875">
        <ele>126.1999969482421875</ele>
        <time>2026-08-13T07:59:21.000Z</time>
        <extensions>
          <ns3:TrackPointExtension>
            <ns3:hr>76</ns3:hr>
            <ns3:cad>41</ns3:cad>
          </ns3:TrackPointExtension>
        </extensions>
      </trkpt>
      <trkpt lat="43.7708218954503536224365234375" lon="1.58886325545608997344970703125">
        <ele>126.1999969482421875</ele>
        <time>2026-08-13T07:59:22.000Z</time>
        <extensions>
          <ns3:TrackPointExtension>
            <ns3:hr>76</ns3:hr>
            <ns3:cad>41</ns3:cad>
          </ns3:TrackPointExtension>
        </extensions>
      </trkpt>
      <trkpt lat="43.77082214690744876861572265625" lon="1.58884816803038120269775390625">
        <ele>126.1999969482421875</ele>
        <time>2026-08-13T07:59:23.000Z</time>
        <extensions>
          <ns3:TrackPointExtension>
            <ns3:hr>76</ns3:hr>
            <ns3:cad>41</ns3:cad>
          </ns3:TrackPointExtension>
        </extensions>
      </trkpt>
      <trkpt lat="43.7708249129354953765869140625" lon="1.58882503397762775421142578125">
        <ele>126.1999969482421875</ele>
        <time>2026-08-13T07:59:24.000Z</time>
        <extensions>
          <ns3:TrackPointExtension>
            <ns3:hr>76</ns3:hr>
            <ns3:cad>41</ns3:cad>
          </ns3:TrackPointExtension>
        </extensions>
      </trkpt>
      <trkpt lat="43.77082700841128826141357421875" lon="1.58881581388413906097412109375">
        <ele>126.1999969482421875</ele>
        <time>2026-08-13T07:59:25.000Z</time>
        <extensions>
          <ns3:TrackPointExtension>
            <ns3:hr>77</ns3:hr>
            <ns3:cad>43</ns3:cad>
          </ns3:TrackPointExtension>
        </extensions>
      </trkpt>
      <trkpt lat="43.77082985825836658477783203125" lon="1.58880315721035003662109375">
        <ele>126.1999969482421875</ele>
        <time>2026-08-13T07:59:26.000Z</time>
        <extensions>
          <ns3:TrackPointExtension>
            <ns3:hr>77</ns3:hr>
            <ns3:cad>43</ns3:cad>
          </ns3:TrackPointExtension>
        </extensions>
      </trkpt>
      <trkpt lat="43.77083371393382549285888671875" lon="1.588789410889148712158203125">
        <ele>126.1999969482421875</ele>
        <time>2026-08-13T07:59:27.000Z</time>
        <extensions>
          <ns3:TrackPointExtension>
            <ns3:hr>77</ns3:hr>
            <ns3:cad>43</ns3:cad>
          </ns3:TrackPointExtension>
        </extensions>
      </trkpt>
      <trkpt lat="43.77083974890410900115966796875" lon="1.58878379501402378082275390625">
        <ele>126.40000152587890625</ele>
        <time>2026-08-13T07:59:28.000Z</time>
        <extensions>
          <ns3:TrackPointExtension>
            <ns3:hr>77</ns3:hr>
            <ns3:cad>43</ns3:cad>
          </ns3:TrackPointExtension>
        </extensions>
      </trkpt>
      <trkpt lat="43.770845867693424224853515625" lon="1.58877474255859851837158203125">
        <ele>126.40000152587890625</ele>
        <time>2026-08-13T07:59:29.000Z</time>
        <extensions>
          <ns3:TrackPointExtension>
            <ns3:hr>78</ns3:hr>
            <ns3:cad>43</ns3:cad>
          </ns3:TrackPointExtension>
        </extensions>
      </trkpt>
      <trkpt lat="43.77084695734083652496337890625" lon="1.58876485191285610198974609375">
        <ele>126.40000152587890625</ele>
        <time>2026-08-13T07:59:30.000Z</time>
        <extensions>
          <ns3:TrackPointExtension>
            <ns3:hr>79</ns3:hr>
            <ns3:cad>43</ns3:cad>
          </ns3:TrackPointExtension>
        </extensions>
      </trkpt>
      <trkpt lat="43.77084779553115367889404296875" lon="1.5887614153325557708740234375">
        <ele>126.40000152587890625</ele>
        <time>2026-08-13T07:59:31.000Z</time>
        <extensions>
          <ns3:TrackPointExtension>
            <ns3:hr>79</ns3:hr>
            <ns3:cad>41</ns3:cad>
          </ns3:TrackPointExtension>
        </extensions>
      </trkpt>
      <trkpt lat="43.770851232111454010009765625" lon="1.58875613473355770111083984375">
        <ele>126.59999847412109375</ele>
        <time>2026-08-13T07:59:32.000Z</time>
        <extensions>
          <ns3:TrackPointExtension>
            <ns3:hr>80</ns3:hr>
            <ns3:cad>41</ns3:cad>
          </ns3:TrackPointExtension>
        </extensions>
      </trkpt>
      <trkpt lat="43.77085466869175434112548828125" lon="1.5887434780597686767578125">
        <ele>126.59999847412109375</ele>
        <time>2026-08-13T07:59:33.000Z</time>
        <extensions>
          <ns3:TrackPointExtension>
            <ns3:hr>81</ns3:hr>
            <ns3:cad>77</ns3:cad>
          </ns3:TrackPointExtension>
        </extensions>
      </trkpt>
      <trkpt lat="43.77085684798657894134521484375" lon="1.58873853273689746856689453125">
        <ele>126.59999847412109375</ele>
        <time>2026-08-13T07:59:34.000Z</time>
        <extensions>
          <ns3:TrackPointExtension>
            <ns3:hr>82</ns3:hr>
            <ns3:cad>76</ns3:cad>
          </ns3:TrackPointExtension>
        </extensions>
      </trkpt>
      <trkpt lat="43.770857937633991241455078125" lon="1.588731072843074798583984375">
        <ele>126.59999847412109375</ele>
        <time>2026-08-13T07:59:35.000Z</time>
        <extensions>
          <ns3:TrackPointExtension>
            <ns3:hr>82</ns3:hr>
            <ns3:cad>76</ns3:cad>
          </ns3:TrackPointExtension>
        </extensions>
      </trkpt>
      <trkpt lat="43.77085986547172069549560546875" lon="1.588714309036731719970703125">
        <ele>126.59999847412109375</ele>
        <time>2026-08-13T07:59:36.000Z</time>
        <extensions>
          <ns3:TrackPointExtension>
            <ns3:hr>82</ns3:hr>
            <ns3:cad>76</ns3:cad>
          </ns3:TrackPointExtension>
        </extensions>
      </trkpt>
      <trkpt lat="43.770861960947513580322265625" lon="1.5887034125626087188720703125">
        <ele>126.59999847412109375</ele>
        <time>2026-08-13T07:59:37.000Z</time>
        <extensions>
          <ns3:TrackPointExtension>
            <ns3:hr>82</ns3:hr>
            <ns3:cad>0</ns3:cad>
          </ns3:TrackPointExtension>
        </extensions>
      </trkpt>
      <trkpt lat="43.77086405642330646514892578125" lon="1.5886943601071834564208984375">
        <ele>126.59999847412109375</ele>
        <time>2026-08-13T07:59:38.000Z</time>
        <extensions>
          <ns3:TrackPointExtension>
            <ns3:hr>82</ns3:hr>
            <ns3:cad>0</ns3:cad>
          </ns3:TrackPointExtension>
        </extensions>
      </trkpt>
      <trkpt lat="43.7708668224513530731201171875" lon="1.58867550082504749298095703125">
        <ele>126.59999847412109375</ele>
        <time>2026-08-13T07:59:39.000Z</time>
        <extensions>
          <ns3:TrackPointExtension>
            <ns3:hr>82</ns3:hr>
            <ns3:cad>41</ns3:cad>
          </ns3:TrackPointExtension>
        </extensions>
      </trkpt>
      <trkpt lat="43.77087025903165340423583984375" lon="1.58866703510284423828125">
        <ele>126.8000030517578125</ele>
        <time>2026-08-13T07:59:40.000Z</time>
        <extensions>
          <ns3:TrackPointExtension>
            <ns3:hr>81</ns3:hr>
            <ns3:cad>42</ns3:cad>
          </ns3:TrackPointExtension>
        </extensions>
      </trkpt>
      <trkpt lat="43.77087059430778026580810546875" lon="1.5886594913899898529052734375">
        <ele>126.8000030517578125</ele>
        <time>2026-08-13T07:59:41.000Z</time>
        <extensions>
          <ns3:TrackPointExtension>
            <ns3:hr>80</ns3:hr>
            <ns3:cad>42</ns3:cad>
          </ns3:TrackPointExtension>
        </extensions>
      </trkpt>
      <trkpt lat="43.77087512053549289703369140625" lon="1.58864088356494903564453125">
        <ele>126.8000030517578125</ele>
        <time>2026-08-13T07:59:42.000Z</time>
        <extensions>
          <ns3:TrackPointExtension>
            <ns3:hr>79</ns3:hr>
            <ns3:cad>42</ns3:cad>
          </ns3:TrackPointExtension>
        </extensions>
      </trkpt>
      <trkpt lat="43.77087797038257122039794921875" lon="1.5886330045759677886962890625">
        <ele>126.8000030517578125</ele>
        <time>2026-08-13T07:59:43.000Z</time>
        <extensions>
          <ns3:TrackPointExtension>
            <ns3:hr>79</ns3:hr>
            <ns3:cad>41</ns3:cad>
          </ns3:TrackPointExtension>
        </extensions>
      </trkpt>
      <trkpt lat="43.7708790600299835205078125" lon="1.58862520940601825714111328125">
        <ele>126.8000030517578125</ele>
        <time>2026-08-13T07:59:44.000Z</time>
        <extensions>
          <ns3:TrackPointExtension>
            <ns3:hr>79</ns3:hr>
            <ns3:cad>41</ns3:cad>
          </ns3:TrackPointExtension>
        </extensions>
      </trkpt>
      <trkpt lat="43.77088216133415699005126953125" lon="1.58861112780869007110595703125">
        <ele>127</ele>
        <time>2026-08-13T07:59:45.000Z</time>
        <extensions>
          <ns3:TrackPointExtension>
            <ns3:hr>78</ns3:hr>
            <ns3:cad>79</ns3:cad>
          </ns3:TrackPointExtension>
        </extensions>
      </trkpt>
      <trkpt lat="43.770884759724140167236328125" lon="1.5886024944484233856201171875">
        <ele>127</ele>
        <time>2026-08-13T07:59:46.000Z</time>
        <extensions>
          <ns3:TrackPointExtension>
            <ns3:hr>78</ns3:hr>
            <ns3:cad>79</ns3:cad>
          </ns3:TrackPointExtension>
        </extensions>
      </trkpt>
      <trkpt lat="43.77088551409542560577392578125" lon="1.5885907597839832305908203125">
        <ele>127</ele>
        <time>2026-08-13T07:59:47.000Z</time>
        <extensions>
          <ns3:TrackPointExtension>
            <ns3:hr>78</ns3:hr>
            <ns3:cad>79</ns3:cad>
          </ns3:TrackPointExtension>
        </extensions>
      </trkpt>
      <trkpt lat="43.77088920213282108306884765625" lon="1.58857173286378383636474609375">
        <ele>127</ele>
        <time>2026-08-13T07:59:48.000Z</time>
        <extensions>
          <ns3:TrackPointExtension>
            <ns3:hr>78</ns3:hr>
            <ns3:cad>79</ns3:cad>
          </ns3:TrackPointExtension>
        </extensions>
      </trkpt>
      <trkpt lat="43.77089037559926509857177734375" lon="1.5885599143803119659423828125">
        <ele>127.1999969482421875</ele>
        <time>2026-08-13T07:59:49.000Z</time>
        <extensions>
          <ns3:TrackPointExtension>
            <ns3:hr>78</ns3:hr>
            <ns3:cad>79</ns3:cad>
          </ns3:TrackPointExtension>
        </extensions>
      </trkpt>
      <trkpt lat="43.77089423127472400665283203125" lon="1.58854968845844268798828125">
        <ele>127.1999969482421875</ele>
        <time>2026-08-13T07:59:50.000Z</time>
        <extensions>
          <ns3:TrackPointExtension>
            <ns3:hr>78</ns3:hr>
            <ns3:cad>79</ns3:cad>
          </ns3:TrackPointExtension>
        </extensions>
      </trkpt>
      <trkpt lat="43.77089842222630977630615234375" lon="1.588532924652099609375">
        <ele>127.1999969482421875</ele>
        <time>2026-08-13T07:59:51.000Z</time>
        <extensions>
          <ns3:TrackPointExtension>
            <ns3:hr>78</ns3:hr>
            <ns3:cad>79</ns3:cad>
          </ns3:TrackPointExtension>
        </extensions>
      </trkpt>
      <trkpt lat="43.7708983384072780609130859375" lon="1.5885240398347377777099609375">
        <ele>127.1999969482421875</ele>
        <time>2026-08-13T07:59:52.000Z</time>
        <extensions>
          <ns3:TrackPointExtension>
            <ns3:hr>78</ns3:hr>
            <ns3:cad>40</ns3:cad>
          </ns3:TrackPointExtension>
        </extensions>
      </trkpt>
      <trkpt lat="43.77090118825435638427734375" lon="1.588514149188995361328125">
        <ele>127.1999969482421875</ele>
        <time>2026-08-13T07:59:53.000Z</time>
        <extensions>
          <ns3:TrackPointExtension>
            <ns3:hr>78</ns3:hr>
            <ns3:cad>40</ns3:cad>
          </ns3:TrackPointExtension>
        </extensions>
      </trkpt>
      <trkpt lat="43.77090160734951496124267578125" lon="1.588505767285823822021484375">
        <ele>127.1999969482421875</ele>
        <time>2026-08-13T07:59:54.000Z</time>
        <extensions>
          <ns3:TrackPointExtension>
            <ns3:hr>78</ns3:hr>
            <ns3:cad>40</ns3:cad>
          </ns3:TrackPointExtension>
        </extensions>
      </trkpt>
      <trkpt lat="43.77090244553983211517333984375" lon="1.58849260769784450531005859375">
        <ele>127.40000152587890625</ele>
        <time>2026-08-13T07:59:55.000Z</time>
        <extensions>
          <ns3:TrackPointExtension>
            <ns3:hr>78</ns3:hr>
            <ns3:cad>40</ns3:cad>
          </ns3:TrackPointExtension>
        </extensions>
      </trkpt>
      <trkpt lat="43.77091032452881336212158203125" lon="1.58847953192889690399169921875">
        <ele>127.40000152587890625</ele>
        <time>2026-08-13T07:59:56.000Z</time>
        <extensions>
          <ns3:TrackPointExtension>
            <ns3:hr>78</ns3:hr>
            <ns3:cad>42</ns3:cad>
          </ns3:TrackPointExtension>
        </extensions>
      </trkpt>
      <trkpt lat="43.7709151022136211395263671875" lon="1.58847249113023281097412109375">
        <ele>127.40000152587890625</ele>
        <time>2026-08-13T07:59:57.000Z</time>
        <extensions>
          <ns3:TrackPointExtension>
            <ns3:hr>78</ns3:hr>
            <ns3:cad>42</ns3:cad>
          </ns3:TrackPointExtension>
        </extensions>
      </trkpt>
      <trkpt lat="43.7709201313555240631103515625" lon="1.58845623023808002471923828125">
        <ele>127.40000152587890625</ele>
        <time>2026-08-13T07:59:58.000Z</time>
        <extensions>
          <ns3:TrackPointExtension>
            <ns3:hr>78</ns3:hr>
            <ns3:cad>43</ns3:cad>
          </ns3:TrackPointExtension>
        </extensions>
      </trkpt>
      <trkpt lat="43.77092356793582439422607421875" lon="1.5884462557733058929443359375">
        <ele>127.40000152587890625</ele>
        <time>2026-08-13T07:59:59.000Z</time>
        <extensions>
          <ns3:TrackPointExtension>
            <ns3:hr>79</ns3:hr>
            <ns3:cad>44</ns3:cad>
          </ns3:TrackPointExtension>
        </extensions>
      </trkpt>
      <trkpt lat="43.77092876471579074859619140625" lon="1.58843644894659519195556640625">
        <ele>127.59999847412109375</ele>
        <time>2026-08-13T08:00:00.000Z</time>
        <extensions>
          <ns3:TrackPointExtension>
            <ns3:hr>79</ns3:hr>
            <ns3:cad>44</ns3:cad>
          </ns3:TrackPointExtension>
        </extensions>
      </trkpt>
      <trkpt lat="43.77093312330543994903564453125" lon="1.5884254686534404754638671875">
        <ele>127.59999847412109375</ele>
        <time>2026-08-13T08:00:01.000Z</time>
        <extensions>
          <ns3:TrackPointExtension>
            <ns3:hr>79</ns3:hr>
            <ns3:cad>42</ns3:cad>
          </ns3:TrackPointExtension>
        </extensions>
      </trkpt>
      <trkpt lat="43.77094008028507232666015625" lon="1.588415242731571197509765625">
        <ele>127.59999847412109375</ele>
        <time>2026-08-13T08:00:02.000Z</time>
        <extensions>
          <ns3:TrackPointExtension>
            <ns3:hr>79</ns3:hr>
            <ns3:cad>42</ns3:cad>
          </ns3:TrackPointExtension>
        </extensions>
      </trkpt>
      <trkpt lat="43.77094066701829433441162109375" lon="1.5884016640484333038330078125">
        <ele>127.59999847412109375</ele>
        <time>2026-08-13T08:00:03.000Z</time>
        <extensions>
          <ns3:TrackPointExtension>
            <ns3:hr>79</ns3:hr>
            <ns3:cad>40</ns3:cad>
          </ns3:TrackPointExtension>
        </extensions>
      </trkpt>
      <trkpt lat="43.770944774150848388671875" lon="1.588387079536914825439453125">
        <ele>127.8000030517578125</ele>
        <time>2026-08-13T08:00:04.000Z</time>
        <extensions>
          <ns3:TrackPointExtension>
            <ns3:hr>80</ns3:hr>
            <ns3:cad>40</ns3:cad>
          </ns3:TrackPointExtension>
        </extensions>
      </trkpt>
      <trkpt lat="43.77095005474984645843505859375" lon="1.5883818827569484710693359375">
        <ele>127.8000030517578125</ele>
        <time>2026-08-13T08:00:05.000Z</time>
        <extensions>
          <ns3:TrackPointExtension>
            <ns3:hr>80</ns3:hr>
            <ns3:cad>40</ns3:cad>
          </ns3:TrackPointExtension>
        </extensions>
      </trkpt>
      <trkpt lat="43.77095575444400310516357421875" lon="1.58837140537798404693603515625">
        <ele>128</ele>
        <time>2026-08-13T08:00:06.000Z</time>
        <extensions>
          <ns3:TrackPointExtension>
            <ns3:hr>80</ns3:hr>
            <ns3:cad>41</ns3:cad>
          </ns3:TrackPointExtension>
        </extensions>
      </trkpt>
      <trkpt lat="43.770955167710781097412109375" lon="1.5883590839803218841552734375">
        <ele>128</ele>
        <time>2026-08-13T08:00:07.000Z</time>
        <extensions>
          <ns3:TrackPointExtension>
            <ns3:hr>80</ns3:hr>
            <ns3:cad>79</ns3:cad>
          </ns3:TrackPointExtension>
        </extensions>
      </trkpt>
      <trkpt lat="43.77095659263432025909423828125" lon="1.5883507020771503448486328125">
        <ele>128</ele>
        <time>2026-08-13T08:00:08.000Z</time>
        <extensions>
          <ns3:TrackPointExtension>
            <ns3:hr>80</ns3:hr>
            <ns3:cad>79</ns3:cad>
          </ns3:TrackPointExtension>
        </extensions>
      </trkpt>
      <trkpt lat="43.77095961011946201324462890625" lon="1.58833771012723445892333984375">
        <ele>128</ele>
        <time>2026-08-13T08:00:09.000Z</time>
        <extensions>
          <ns3:TrackPointExtension>
            <ns3:hr>81</ns3:hr>
            <ns3:cad>79</ns3:cad>
          </ns3:TrackPointExtension>
        </extensions>
      </trkpt>
      <trkpt lat="43.77096380107104778289794921875" lon="1.58832647837698459625244140625">
        <ele>128</ele>
        <time>2026-08-13T08:00:10.000Z</time>
        <extensions>
          <ns3:TrackPointExtension>
            <ns3:hr>81</ns3:hr>
            <ns3:cad>76</ns3:cad>
          </ns3:TrackPointExtension>
        </extensions>
      </trkpt>
      <trkpt lat="43.770966567099094390869140625" lon="1.58831901848316192626953125">
        <ele>128.1999969482421875</ele>
        <time>2026-08-13T08:00:11.000Z</time>
        <extensions>
          <ns3:TrackPointExtension>
            <ns3:hr>81</ns3:hr>
            <ns3:cad>76</ns3:cad>
          </ns3:TrackPointExtension>
        </extensions>
      </trkpt>
      <trkpt lat="43.77097335644066333770751953125" lon="1.58831859938800334930419921875">
        <ele>128.1999969482421875</ele>
        <time>2026-08-13T08:00:12.000Z</time>
        <extensions>
          <ns3:TrackPointExtension>
            <ns3:hr>81</ns3:hr>
            <ns3:cad>76</ns3:cad>
          </ns3:TrackPointExtension>
        </extensions>
      </trkpt>
      <trkpt lat="43.77097335644066333770751953125" lon="1.58830636180937290191650390625">
        <ele>128.1999969482421875</ele>
        <time>2026-08-13T08:00:13.000Z</time>
        <extensions>
          <ns3:TrackPointExtension>
            <ns3:hr>81</ns3:hr>
            <ns3:cad>41</ns3:cad>
          </ns3:TrackPointExtension>
        </extensions>
      </trkpt>
      <trkpt lat="43.77097553573548793792724609375" lon="1.5882950462400913238525390625">
        <ele>128.1999969482421875</ele>
        <time>2026-08-13T08:00:14.000Z</time>
        <extensions>
          <ns3:TrackPointExtension>
            <ns3:hr>80</ns3:hr>
            <ns3:cad>41</ns3:cad>
          </ns3:TrackPointExtension>
        </extensions>
      </trkpt>
      <trkpt lat="43.77097704447805881500244140625" lon="1.58828607760369777679443359375">
        <ele>128.1999969482421875</ele>
        <time>2026-08-13T08:00:15.000Z</time>
        <extensions>
          <ns3:TrackPointExtension>
            <ns3:hr>79</ns3:hr>
            <ns3:cad>41</ns3:cad>
          </ns3:TrackPointExtension>
        </extensions>
      </trkpt>
      <trkpt lat="43.77098509110510349273681640625" lon="1.588267050683498382568359375">
        <ele>128.1999969482421875</ele>
        <time>2026-08-13T08:00:16.000Z</time>
        <extensions>
          <ns3:TrackPointExtension>
            <ns3:hr>79</ns3:hr>
            <ns3:cad>41</ns3:cad>
          </ns3:TrackPointExtension>
        </extensions>
      </trkpt>
      <trkpt lat="43.770988695323467254638671875" lon="1.5882601775228977203369140625">
        <ele>128.1999969482421875</ele>
        <time>2026-08-13T08:00:17.000Z</time>
        <extensions>
          <ns3:TrackPointExtension>
            <ns3:hr>80</ns3:hr>
            <ns3:cad>0</ns3:cad>
          </ns3:TrackPointExtension>
        </extensions>
      </trkpt>
      <trkpt lat="43.7709917128086090087890625" lon="1.58825196325778961181640625">
        <ele>128.399993896484375</ele>
        <time>2026-08-13T08:00:18.000Z</time>
        <extensions>
          <ns3:TrackPointExtension>
            <ns3:hr>80</ns3:hr>
            <ns3:cad>0</ns3:cad>
          </ns3:TrackPointExtension>
        </extensions>
      </trkpt>
      <trkpt lat="43.77099900506436824798583984375" lon="1.5882343612611293792724609375">
        <ele>128.399993896484375</ele>
        <time>2026-08-13T08:00:19.000Z</time>
        <extensions>
          <ns3:TrackPointExtension>
            <ns3:hr>80</ns3:hr>
            <ns3:cad>0</ns3:cad>
          </ns3:TrackPointExtension>
        </extensions>
      </trkpt>
      <trkpt lat="43.7709997594356536865234375" lon="1.58821717835962772369384765625">
        <ele>128.399993896484375</ele>
        <time>2026-08-13T08:00:20.000Z</time>
        <extensions>
          <ns3:TrackPointExtension>
            <ns3:hr>79</ns3:hr>
            <ns3:cad>0</ns3:cad>
          </ns3:TrackPointExtension>
        </extensions>
      </trkpt>
      <trkpt lat="43.77100219018757343292236328125" lon="1.58821013756096363067626953125">
        <ele>128.600006103515625</ele>
        <time>2026-08-13T08:00:21.000Z</time>
        <extensions>
          <ns3:TrackPointExtension>
            <ns3:hr>79</ns3:hr>
            <ns3:cad>41</ns3:cad>
          </ns3:TrackPointExtension>
        </extensions>
      </trkpt>
      <trkpt lat="43.77100604586303234100341796875" lon="1.5881984867155551910400390625">
        <ele>128.600006103515625</ele>
        <time>2026-08-13T08:00:22.000Z</time>
        <extensions>
          <ns3:TrackPointExtension>
            <ns3:hr>80</ns3:hr>
            <ns3:cad>41</ns3:cad>
          </ns3:TrackPointExtension>
        </extensions>
      </trkpt>
      <trkpt lat="43.771008811891078948974609375" lon="1.58818817697465419769287109375">
        <ele>128.600006103515625</ele>
        <time>2026-08-13T08:00:23.000Z</time>
        <extensions>
          <ns3:TrackPointExtension>
            <ns3:hr>80</ns3:hr>
            <ns3:cad>41</ns3:cad>
          </ns3:TrackPointExtension>
        </extensions>
      </trkpt>
      <trkpt lat="43.7710106559097766876220703125" lon="1.58817954361438751220703125">
        <ele>128.8000030517578125</ele>
        <time>2026-08-13T08:00:24.000Z</time>
        <extensions>
          <ns3:TrackPointExtension>
            <ns3:hr>80</ns3:hr>
            <ns3:cad>41</ns3:cad>
          </ns3:TrackPointExtension>
        </extensions>
      </trkpt>
      <trkpt lat="43.7710170261561870574951171875" lon="1.588168479502201080322265625">
        <ele>128.8000030517578125</ele>
        <time>2026-08-13T08:00:25.000Z</time>
        <extensions>
          <ns3:TrackPointExtension>
            <ns3:hr>80</ns3:hr>
            <ns3:cad>42</ns3:cad>
          </ns3:TrackPointExtension>
        </extensions>
      </trkpt>
      <trkpt lat="43.77101727761328220367431640625" lon="1.58816101960837841033935546875">
        <ele>128.8000030517578125</ele>
        <time>2026-08-13T08:00:26.000Z</time>
        <extensions>
          <ns3:TrackPointExtension>
            <ns3:hr>80</ns3:hr>
            <ns3:cad>42</ns3:cad>
          </ns3:TrackPointExtension>
        </extensions>
      </trkpt>
      <trkpt lat="43.7710197083652019500732421875" lon="1.58815816976130008697509765625">
        <ele>128.8000030517578125</ele>
        <time>2026-08-13T08:00:27.000Z</time>
        <extensions>
          <ns3:TrackPointExtension>
            <ns3:hr>80</ns3:hr>
            <ns3:cad>42</ns3:cad>
          </ns3:TrackPointExtension>
        </extensions>
      </trkpt>
      <trkpt lat="43.771028257906436920166015625" lon="1.58814794383943080902099609375">
        <ele>128.8000030517578125</ele>
        <time>2026-08-13T08:00:28.000Z</time>
        <extensions>
          <ns3:TrackPointExtension>
            <ns3:hr>81</ns3:hr>
            <ns3:cad>77</ns3:cad>
          </ns3:TrackPointExtension>
        </extensions>
      </trkpt>
      <trkpt lat="43.77103035338222980499267578125" lon="1.588142327964305877685546875">
        <ele>129</ele>
        <time>2026-08-13T08:00:29.000Z</time>
        <extensions>
          <ns3:TrackPointExtension>
            <ns3:hr>80</ns3:hr>
            <ns3:cad>77</ns3:cad>
          </ns3:TrackPointExtension>
        </extensions>
      </trkpt>
      <trkpt lat="43.7710347957909107208251953125" lon="1.58813637681305408477783203125">
        <ele>129</ele>
        <time>2026-08-13T08:00:30.000Z</time>
        <extensions>
          <ns3:TrackPointExtension>
            <ns3:hr>81</ns3:hr>
            <ns3:cad>77</ns3:cad>
          </ns3:TrackPointExtension>
        </extensions>
      </trkpt>
      <trkpt lat="43.7710391543805599212646484375" lon="1.58812263049185276031494140625">
        <ele>129.1999969482421875</ele>
        <time>2026-08-13T08:00:31.000Z</time>
        <extensions>
          <ns3:TrackPointExtension>
            <ns3:hr>81</ns3:hr>
            <ns3:cad>76</ns3:cad>
          </ns3:TrackPointExtension>
        </extensions>
      </trkpt>
      <trkpt lat="43.7710421718657016754150390625" lon="1.588114835321903228759765625">
        <ele>129.1999969482421875</ele>
        <time>2026-08-13T08:00:32.000Z</time>
        <extensions>
          <ns3:TrackPointExtension>
            <ns3:hr>81</ns3:hr>
            <ns3:cad>75</ns3:cad>
          </ns3:TrackPointExtension>
        </extensions>
      </trkpt>
      <trkpt lat="43.7710455246269702911376953125" lon="1.5881039388477802276611328125">
        <ele>129.1999969482421875</ele>
        <time>2026-08-13T08:00:33.000Z</time>
        <extensions>
          <ns3:TrackPointExtension>
            <ns3:hr>81</ns3:hr>
            <ns3:cad>75</ns3:cad>
          </ns3:TrackPointExtension>
        </extensions>
      </trkpt>
      <trkpt lat="43.771051056683063507080078125" lon="1.58808709122240543365478515625">
        <ele>129.1999969482421875</ele>
        <time>2026-08-13T08:00:34.000Z</time>
        <extensions>
          <ns3:TrackPointExtension>
            <ns3:hr>81</ns3:hr>
            <ns3:cad>76</ns3:cad>
          </ns3:TrackPointExtension>
        </extensions>
      </trkpt>
      <trkpt lat="43.771055079996585845947265625" lon="1.588075943291187286376953125">
        <ele>129.399993896484375</ele>
        <time>2026-08-13T08:00:35.000Z</time>
        <extensions>
          <ns3:TrackPointExtension>
            <ns3:hr>82</ns3:hr>
            <ns3:cad>76</ns3:cad>
          </ns3:TrackPointExtension>
        </extensions>
      </trkpt>
      <trkpt lat="43.77105382271111011505126953125" lon="1.5880717523396015167236328125">
        <ele>129.399993896484375</ele>
        <time>2026-08-13T08:00:36.000Z</time>
        <extensions>
          <ns3:TrackPointExtension>
            <ns3:hr>82</ns3:hr>
            <ns3:cad>76</ns3:cad>
          </ns3:TrackPointExtension>
        </extensions>
      </trkpt>
      <trkpt lat="43.77105675637722015380859375" lon="1.58805976621806621551513671875">
        <ele>129.399993896484375</ele>
        <time>2026-08-13T08:00:37.000Z</time>
        <extensions>
          <ns3:TrackPointExtension>
            <ns3:hr>82</ns3:hr>
            <ns3:cad>76</ns3:cad>
          </ns3:TrackPointExtension>
        </extensions>
      </trkpt>
      <trkpt lat="43.77106086350977420806884765625" lon="1.5880499593913555145263671875">
        <ele>129.399993896484375</ele>
        <time>2026-08-13T08:00:38.000Z</time>
        <extensions>
          <ns3:TrackPointExtension>
            <ns3:hr>83</ns3:hr>
            <ns3:cad>76</ns3:cad>
          </ns3:TrackPointExtension>
        </extensions>
      </trkpt>
      <trkpt lat="43.77106321044266223907470703125" lon="1.58804484643042087554931640625">
        <ele>129.600006103515625</ele>
        <time>2026-08-13T08:00:39.000Z</time>
        <extensions>
          <ns3:TrackPointExtension>
            <ns3:hr>83</ns3:hr>
            <ns3:cad>41</ns3:cad>
          </ns3:TrackPointExtension>
        </extensions>
      </trkpt>
      <trkpt lat="43.7710653059184551239013671875" lon="1.588026992976665496826171875">
        <ele>129.600006103515625</ele>
        <time>2026-08-13T08:00:40.000Z</time>
        <extensions>
          <ns3:TrackPointExtension>
            <ns3:hr>83</ns3:hr>
            <ns3:cad>41</ns3:cad>
          </ns3:TrackPointExtension>
        </extensions>
      </trkpt>
      <trkpt lat="43.77106773667037487030029296875" lon="1.5880174376070499420166015625">
        <ele>129.600006103515625</ele>
        <time>2026-08-13T08:00:41.000Z</time>
        <extensions>
          <ns3:TrackPointExtension>
            <ns3:hr>84</ns3:hr>
            <ns3:cad>40</ns3:cad>
          </ns3:TrackPointExtension>
        </extensions>
      </trkpt>
      <trkpt lat="43.77107310108840465545654296875" lon="1.58801056444644927978515625">
        <ele>129.600006103515625</ele>
        <time>2026-08-13T08:00:42.000Z</time>
        <extensions>
          <ns3:TrackPointExtension>
            <ns3:hr>84</ns3:hr>
            <ns3:cad>40</ns3:cad>
          </ns3:TrackPointExtension>
        </extensions>
      </trkpt>
      <trkpt lat="43.771079219877719879150390625" lon="1.587997488677501678466796875">
        <ele>129.8000030517578125</ele>
        <time>2026-08-13T08:00:43.000Z</time>
        <extensions>
          <ns3:TrackPointExtension>
            <ns3:hr>84</ns3:hr>
            <ns3:cad>40</ns3:cad>
          </ns3:TrackPointExtension>
        </extensions>
      </trkpt>
      <trkpt lat="43.7710824050009250640869140625" lon="1.58799136988818645477294921875">
        <ele>129.8000030517578125</ele>
        <time>2026-08-13T08:00:44.000Z</time>
        <extensions>
          <ns3:TrackPointExtension>
            <ns3:hr>83</ns3:hr>
            <ns3:cad>41</ns3:cad>
          </ns3:TrackPointExtension>
        </extensions>
      </trkpt>
      <trkpt lat="43.7710869312286376953125" lon="1.5879825688898563385009765625">
        <ele>129.8000030517578125</ele>
        <time>2026-08-13T08:00:45.000Z</time>
        <extensions>
          <ns3:TrackPointExtension>
            <ns3:hr>83</ns3:hr>
            <ns3:cad>41</ns3:cad>
          </ns3:TrackPointExtension>
        </extensions>
      </trkpt>
      <trkpt lat="43.77109305001795291900634765625" lon="1.58797167241573333740234375">
        <ele>130</ele>
        <time>2026-08-13T08:00:46.000Z</time>
        <extensions>
          <ns3:TrackPointExtension>
            <ns3:hr>83</ns3:hr>
            <ns3:cad>40</ns3:cad>
          </ns3:TrackPointExtension>
        </extensions>
      </trkpt>
      <trkpt lat="43.77109724096953868865966796875" lon="1.58796387724578380584716796875">
        <ele>130</ele>
        <time>2026-08-13T08:00:47.000Z</time>
        <extensions>
          <ns3:TrackPointExtension>
            <ns3:hr>83</ns3:hr>
            <ns3:cad>40</ns3:cad>
          </ns3:TrackPointExtension>
        </extensions>
      </trkpt>
      <trkpt lat="43.7710998393595218658447265625" lon="1.58795130439102649688720703125">
        <ele>130.1999969482421875</ele>
        <time>2026-08-13T08:00:48.000Z</time>
        <extensions>
          <ns3:TrackPointExtension>
            <ns3:hr>83</ns3:hr>
            <ns3:cad>76</ns3:cad>
          </ns3:TrackPointExtension>
        </extensions>
      </trkpt>
      <trkpt lat="43.77110310830175876617431640625" lon="1.587934456765651702880859375">
        <ele>130.1999969482421875</ele>
        <time>2026-08-13T08:00:49.000Z</time>
        <extensions>
          <ns3:TrackPointExtension>
            <ns3:hr>83</ns3:hr>
            <ns3:cad>76</ns3:cad>
          </ns3:TrackPointExtension>
        </extensions>
      </trkpt>
      <trkpt lat="43.7711075507104396820068359375" lon="1.587921045720577239990234375">
        <ele>130.1999969482421875</ele>
        <time>2026-08-13T08:00:50.000Z</time>
        <extensions>
          <ns3:TrackPointExtension>
            <ns3:hr>82</ns3:hr>
            <ns3:cad>76</ns3:cad>
          </ns3:TrackPointExtension>
        </extensions>
      </trkpt>
      <trkpt lat="43.77110905945301055908203125" lon="1.58791534602642059326171875">
        <ele>130.1999969482421875</ele>
        <time>2026-08-13T08:00:51.000Z</time>
        <extensions>
          <ns3:TrackPointExtension>
            <ns3:hr>83</ns3:hr>
            <ns3:cad>0</ns3:cad>
          </ns3:TrackPointExtension>
        </extensions>
      </trkpt>
      <trkpt lat="43.771112076938152313232421875" lon="1.58790084533393383026123046875">
        <ele>130.399993896484375</ele>
        <time>2026-08-13T08:00:52.000Z</time>
        <extensions>
          <ns3:TrackPointExtension>
            <ns3:hr>83</ns3:hr>
            <ns3:cad>0</ns3:cad>
          </ns3:TrackPointExtension>
        </extensions>
      </trkpt>
      <trkpt lat="43.77111232839524745941162109375" lon="1.58789413981139659881591796875">
        <ele>130.399993896484375</ele>
        <time>2026-08-13T08:00:53.000Z</time>
        <extensions>
          <ns3:TrackPointExtension>
            <ns3:hr>82</ns3:hr>
            <ns3:cad>42</ns3:cad>
          </ns3:TrackPointExtension>
        </extensions>
      </trkpt>
      <trkpt lat="43.7711155973374843597412109375" lon="1.58789296634495258331298828125">
        <ele>130.600006103515625</ele>
        <time>2026-08-13T08:00:54.000Z</time>
        <extensions>
          <ns3:TrackPointExtension>
            <ns3:hr>83</ns3:hr>
            <ns3:cad>42</ns3:cad>
          </ns3:TrackPointExtension>
        </extensions>
      </trkpt>
      <trkpt lat="43.7711177766323089599609375" lon="1.58788676373660564422607421875">
        <ele>130.600006103515625</ele>
        <time>2026-08-13T08:00:55.000Z</time>
        <extensions>
          <ns3:TrackPointExtension>
            <ns3:hr>83</ns3:hr>
            <ns3:cad>42</ns3:cad>
          </ns3:TrackPointExtension>
        </extensions>
      </trkpt>
      <trkpt lat="43.7711204588413238525390625" lon="1.5878799743950366973876953125">
        <ele>130.600006103515625</ele>
        <time>2026-08-13T08:00:56.000Z</time>
        <extensions>
          <ns3:TrackPointExtension>
            <ns3:hr>83</ns3:hr>
            <ns3:cad>42</ns3:cad>
          </ns3:TrackPointExtension>
        </extensions>
      </trkpt>
      <trkpt lat="43.7711298465728759765625" lon="1.58786312676966190338134765625">
        <ele>130.8000030517578125</ele>
        <time>2026-08-13T08:00:57.000Z</time>
        <extensions>
          <ns3:TrackPointExtension>
            <ns3:hr>83</ns3:hr>
            <ns3:cad>77</ns3:cad>
          </ns3:TrackPointExtension>
        </extensions>
      </trkpt>
      <trkpt lat="43.77113160677254199981689453125" lon="1.58784870989620685577392578125">
        <ele>130.8000030517578125</ele>
        <time>2026-08-13T08:00:58.000Z</time>
        <extensions>
          <ns3:TrackPointExtension>
            <ns3:hr>83</ns3:hr>
            <ns3:cad>77</ns3:cad>
          </ns3:TrackPointExtension>
        </extensions>
      </trkpt>
      <trkpt lat="43.77113722264766693115234375" lon="1.587842591106891632080078125">
        <ele>130.8000030517578125</ele>
        <time>2026-08-13T08:00:59.000Z</time>
        <extensions>
          <ns3:TrackPointExtension>
            <ns3:hr>83</ns3:hr>
            <ns3:cad>0</ns3:cad>
          </ns3:TrackPointExtension>
        </extensions>
      </trkpt>
      <trkpt lat="43.7711430899798870086669921875" lon="1.587828509509563446044921875">
        <ele>130.8000030517578125</ele>
        <time>2026-08-13T08:01:00.000Z</time>
        <extensions>
          <ns3:TrackPointExtension>
            <ns3:hr>82</ns3:hr>
            <ns3:cad>0</ns3:cad>
          </ns3:TrackPointExtension>
        </extensions>
      </trkpt>
      <trkpt lat="43.7711471132934093475341796875" lon="1.58781702630221843719482421875">
        <ele>131</ele>
        <time>2026-08-13T08:01:01.000Z</time>
        <extensions>
          <ns3:TrackPointExtension>
            <ns3:hr>83</ns3:hr>
            <ns3:cad>0</ns3:cad>
          </ns3:TrackPointExtension>
        </extensions>
      </trkpt>
      <trkpt lat="43.77115122042596340179443359375" lon="1.5878129191696643829345703125">
        <ele>131</ele>
        <time>2026-08-13T08:01:02.000Z</time>
        <extensions>
          <ns3:TrackPointExtension>
            <ns3:hr>83</ns3:hr>
            <ns3:cad>0</ns3:cad>
          </ns3:TrackPointExtension>
        </extensions>
      </trkpt>
      <trkpt lat="43.77115859650075435638427734375" lon="1.58780093304812908172607421875">
        <ele>131</ele>
        <time>2026-08-13T08:01:03.000Z</time>
        <extensions>
          <ns3:TrackPointExtension>
            <ns3:hr>83</ns3:hr>
            <ns3:cad>40</ns3:cad>
          </ns3:TrackPointExtension>
        </extensions>
      </trkpt>
      <trkpt lat="43.771161027252674102783203125" lon="1.587794981896877288818359375">
        <ele>131.1999969482421875</ele>
        <time>2026-08-13T08:01:04.000Z</time>
        <extensions>
          <ns3:TrackPointExtension>
            <ns3:hr>83</ns3:hr>
            <ns3:cad>40</ns3:cad>
          </ns3:TrackPointExtension>
        </extensions>
      </trkpt>
      <trkpt lat="43.771164380013942718505859375" lon="1.5877886116504669189453125">
        <ele>131.1999969482421875</ele>
        <time>2026-08-13T08:01:05.000Z</time>
        <extensions>
          <ns3:TrackPointExtension>
            <ns3:hr>83</ns3:hr>
            <ns3:cad>40</ns3:cad>
          </ns3:TrackPointExtension>
        </extensions>
      </trkpt>
      <trkpt lat="43.77117075026035308837890625" lon="1.58777855336666107177734375">
        <ele>131.399993896484375</ele>
        <time>2026-08-13T08:01:06.000Z</time>
        <extensions>
          <ns3:TrackPointExtension>
            <ns3:hr>83</ns3:hr>
            <ns3:cad>79</ns3:cad>
          </ns3:TrackPointExtension>
        </extensions>
      </trkpt>
      <trkpt lat="43.7711756117641925811767578125" lon="1.58776522614061832427978515625">
        <ele>131.399993896484375</ele>
        <time>2026-08-13T08:01:07.000Z</time>
        <extensions>
          <ns3:TrackPointExtension>
            <ns3:hr>83</ns3:hr>
            <ns3:cad>79</ns3:cad>
          </ns3:TrackPointExtension>
        </extensions>
      </trkpt>
      <trkpt lat="43.77117770723998546600341796875" lon="1.5877529047429561614990234375">
        <ele>131.399993896484375</ele>
        <time>2026-08-13T08:01:08.000Z</time>
        <extensions>
          <ns3:TrackPointExtension>
            <ns3:hr>83</ns3:hr>
            <ns3:cad>76</ns3:cad>
          </ns3:TrackPointExtension>
        </extensions>
      </trkpt>
      <trkpt lat="43.7711803056299686431884765625" lon="1.58773924224078655242919921875">
        <ele>131.600006103515625</ele>
        <time>2026-08-13T08:01:09.000Z</time>
        <extensions>
          <ns3:TrackPointExtension>
            <ns3:hr>83</ns3:hr>
            <ns3:cad>76</ns3:cad>
          </ns3:TrackPointExtension>
        </extensions>
      </trkpt>
      <trkpt lat="43.771181143820285797119140625" lon="1.58773287199437618255615234375">
        <ele>131.600006103515625</ele>
        <time>2026-08-13T08:01:10.000Z</time>
        <extensions>
          <ns3:TrackPointExtension>
            <ns3:hr>84</ns3:hr>
            <ns3:cad>75</ns3:cad>
          </ns3:TrackPointExtension>
        </extensions>
      </trkpt>
      <trkpt lat="43.77118575386703014373779296875" lon="1.58771728165447711944580078125">
        <ele>131.600006103515625</ele>
        <time>2026-08-13T08:01:11.000Z</time>
        <extensions>
          <ns3:TrackPointExtension>
            <ns3:hr>84</ns3:hr>
            <ns3:cad>75</ns3:cad>
          </ns3:TrackPointExtension>
        </extensions>
      </trkpt>
      <trkpt lat="43.77118960954248905181884765625" lon="1.58770437352359294891357421875">
        <ele>131.8000030517578125</ele>
        <time>2026-08-13T08:01:12.000Z</time>
        <extensions>
          <ns3:TrackPointExtension>
            <ns3:hr>84</ns3:hr>
            <ns3:cad>74</ns3:cad>
          </ns3:TrackPointExtension>
        </extensions>
      </trkpt>
      <trkpt lat="43.771191872656345367431640625" lon="1.58769565634429454803466796875">
        <ele>131.8000030517578125</ele>
        <time>2026-08-13T08:01:13.000Z</time>
        <extensions>
          <ns3:TrackPointExtension>
            <ns3:hr>83</ns3:hr>
            <ns3:cad>74</ns3:cad>
          </ns3:TrackPointExtension>
        </extensions>
      </trkpt>
      <trkpt lat="43.77119866199791431427001953125" lon="1.5876878611743450164794921875">
        <ele>131.8000030517578125</ele>
        <time>2026-08-13T08:01:14.000Z</time>
        <extensions>
          <ns3:TrackPointExtension>
            <ns3:hr>83</ns3:hr>
            <ns3:cad>74</ns3:cad>
          </ns3:TrackPointExtension>
        </extensions>
      </trkpt>
      <trkpt lat="43.77120402641594409942626953125" lon="1.587680317461490631103515625">
        <ele>132</ele>
        <time>2026-08-13T08:01:15.000Z</time>
        <extensions>
          <ns3:TrackPointExtension>
            <ns3:hr>83</ns3:hr>
            <ns3:cad>75</ns3:cad>
          </ns3:TrackPointExtension>
        </extensions>
      </trkpt>
      <trkpt lat="43.7712067924439907073974609375" lon="1.5876747854053974151611328125">
        <ele>132</ele>
        <time>2026-08-13T08:01:16.000Z</time>
        <extensions>
          <ns3:TrackPointExtension>
            <ns3:hr>83</ns3:hr>
            <ns3:cad>75</ns3:cad>
          </ns3:TrackPointExtension>
        </extensions>
      </trkpt>
      <trkpt lat="43.77121408469974994659423828125" lon="1.58766045235097408294677734375">
        <ele>132.1999969482421875</ele>
        <time>2026-08-13T08:01:17.000Z</time>
        <extensions>
          <ns3:TrackPointExtension>
            <ns3:hr>83</ns3:hr>
            <ns3:cad>75</ns3:cad>
          </ns3:TrackPointExtension>
        </extensions>
      </trkpt>
      <trkpt lat="43.771218359470367431640625" lon="1.58765207044780254364013671875">
        <ele>132.1999969482421875</ele>
        <time>2026-08-13T08:01:18.000Z</time>
        <extensions>
          <ns3:TrackPointExtension>
            <ns3:hr>83</ns3:hr>
            <ns3:cad>41</ns3:cad>
          </ns3:TrackPointExtension>
        </extensions>
      </trkpt>
      <trkpt lat="43.771217353641986846923828125" lon="1.587643437087535858154296875">
        <ele>132.1999969482421875</ele>
        <time>2026-08-13T08:01:19.000Z</time>
        <extensions>
          <ns3:TrackPointExtension>
            <ns3:hr>84</ns3:hr>
            <ns3:cad>41</ns3:cad>
          </ns3:TrackPointExtension>
        </extensions>
      </trkpt>
      <trkpt lat="43.77121978439390659332275390625" lon="1.5876311995089054107666015625">
        <ele>132.399993896484375</ele>
        <time>2026-08-13T08:01:20.000Z</time>
        <extensions>
          <ns3:TrackPointExtension>
            <ns3:hr>86</ns3:hr>
            <ns3:cad>79</ns3:cad>
          </ns3:TrackPointExtension>
        </extensions>
      </trkpt>
      <trkpt lat="43.771221376955509185791015625" lon="1.58761971630156040191650390625">
        <ele>132.399993896484375</ele>
        <time>2026-08-13T08:01:21.000Z</time>
        <extensions>
          <ns3:TrackPointExtension>
            <ns3:hr>88</ns3:hr>
            <ns3:cad>79</ns3:cad>
          </ns3:TrackPointExtension>
        </extensions>
      </trkpt>
      <trkpt lat="43.77122179605066776275634765625" lon="1.5876142680644989013671875">
        <ele>132.399993896484375</ele>
        <time>2026-08-13T08:01:22.000Z</time>
        <extensions>
          <ns3:TrackPointExtension>
            <ns3:hr>88</ns3:hr>
            <ns3:cad>78</ns3:cad>
          </ns3:TrackPointExtension>
        </extensions>
      </trkpt>
      <trkpt lat="43.7712232209742069244384765625" lon="1.5875993482768535614013671875">
        <ele>132.600006103515625</ele>
        <time>2026-08-13T08:01:23.000Z</time>
        <extensions>
          <ns3:TrackPointExtension>
            <ns3:hr>88</ns3:hr>
            <ns3:cad>78</ns3:cad>
          </ns3:TrackPointExtension>
        </extensions>
      </trkpt>
      <trkpt lat="43.77122305333614349365234375" lon="1.58758652396500110626220703125">
        <ele>132.600006103515625</ele>
        <time>2026-08-13T08:01:24.000Z</time>
        <extensions>
          <ns3:TrackPointExtension>
            <ns3:hr>88</ns3:hr>
            <ns3:cad>79</ns3:cad>
          </ns3:TrackPointExtension>
        </extensions>
      </trkpt>
      <trkpt lat="43.77122439444065093994140625" lon="1.58757948316633701324462890625">
        <ele>132.8000030517578125</ele>
        <time>2026-08-13T08:01:25.000Z</time>
        <extensions>
          <ns3:TrackPointExtension>
            <ns3:hr>87</ns3:hr>
            <ns3:cad>79</ns3:cad>
          </ns3:TrackPointExtension>
        </extensions>
      </trkpt>
      <trkpt lat="43.771226406097412109375" lon="1.58756196498870849609375">
        <ele>132.8000030517578125</ele>
        <time>2026-08-13T08:01:26.000Z</time>
        <extensions>
          <ns3:TrackPointExtension>
            <ns3:hr>87</ns3:hr>
            <ns3:cad>80</ns3:cad>
          </ns3:TrackPointExtension>
        </extensions>
      </trkpt>
      <trkpt lat="43.771223388612270355224609375" lon="1.58755936659872531890869140625">
        <ele>132.8000030517578125</ele>
        <time>2026-08-13T08:01:27.000Z</time>
        <extensions>
          <ns3:TrackPointExtension>
            <ns3:hr>86</ns3:hr>
            <ns3:cad>80</ns3:cad>
          </ns3:TrackPointExtension>
        </extensions>
      </trkpt>
      <trkpt lat="43.77122707664966583251953125" lon="1.587556935846805572509765625">
        <ele>133</ele>
        <time>2026-08-13T08:01:28.000Z</time>
        <extensions>
          <ns3:TrackPointExtension>
            <ns3:hr>86</ns3:hr>
            <ns3:cad>41</ns3:cad>
          </ns3:TrackPointExtension>
        </extensions>
      </trkpt>
      <trkpt lat="43.7712289206683635711669921875" lon="1.58754327334463596343994140625">
        <ele>133</ele>
        <time>2026-08-13T08:01:29.000Z</time>
        <extensions>
          <ns3:TrackPointExtension>
            <ns3:hr>86</ns3:hr>
            <ns3:cad>41</ns3:cad>
          </ns3:TrackPointExtension>
        </extensions>
      </trkpt>
      <trkpt lat="43.77122707664966583251953125" lon="1.58752868883311748504638671875">
        <ele>133.1999969482421875</ele>
        <time>2026-08-13T08:01:30.000Z</time>
        <extensions>
          <ns3:TrackPointExtension>
            <ns3:hr>86</ns3:hr>
            <ns3:cad>41</ns3:cad>
          </ns3:TrackPointExtension>
        </extensions>
      </trkpt>
      <trkpt lat="43.77122598700225353240966796875" lon="1.587521731853485107421875">
        <ele>133.1999969482421875</ele>
        <time>2026-08-13T08:01:31.000Z</time>
        <extensions>
          <ns3:TrackPointExtension>
            <ns3:hr>86</ns3:hr>
            <ns3:cad>0</ns3:cad>
          </ns3:TrackPointExtension>
        </extensions>
      </trkpt>
      <trkpt lat="43.77122313715517520904541015625" lon="1.58750404603779315948486328125">
        <ele>133.399993896484375</ele>
        <time>2026-08-13T08:01:32.000Z</time>
        <extensions>
          <ns3:TrackPointExtension>
            <ns3:hr>86</ns3:hr>
            <ns3:cad>0</ns3:cad>
          </ns3:TrackPointExtension>
        </extensions>
      </trkpt>
      <trkpt lat="43.77122397534549236297607421875" lon="1.58749155700206756591796875">
        <ele>133.399993896484375</ele>
        <time>2026-08-13T08:01:33.000Z</time>
        <extensions>
          <ns3:TrackPointExtension>
            <ns3:hr>87</ns3:hr>
            <ns3:cad>0</ns3:cad>
          </ns3:TrackPointExtension>
        </extensions>
      </trkpt>
      <trkpt lat="43.7712252326309680938720703125" lon="1.58748744986951351165771484375">
        <ele>133.600006103515625</ele>
        <time>2026-08-13T08:01:34.000Z</time>
        <extensions>
          <ns3:TrackPointExtension>
            <ns3:hr>87</ns3:hr>
            <ns3:cad>0</ns3:cad>
          </ns3:TrackPointExtension>
        </extensions>
      </trkpt>
      <trkpt lat="43.7712250649929046630859375" lon="1.58747487701475620269775390625">
        <ele>133.600006103515625</ele>
        <time>2026-08-13T08:01:35.000Z</time>
        <extensions>
          <ns3:TrackPointExtension>
            <ns3:hr>87</ns3:hr>
            <ns3:cad>43</ns3:cad>
          </ns3:TrackPointExtension>
        </extensions>
      </trkpt>
      <trkpt lat="43.77122179605066776275634765625" lon="1.587463058531284332275390625">
        <ele>133.600006103515625</ele>
        <time>2026-08-13T08:01:36.000Z</time>
        <extensions>
          <ns3:TrackPointExtension>
            <ns3:hr>87</ns3:hr>
            <ns3:cad>43</ns3:cad>
          </ns3:TrackPointExtension>
        </extensions>
      </trkpt>
      <trkpt lat="43.77122171223163604736328125" lon="1.58745693974196910858154296875">
        <ele>133.8000030517578125</ele>
        <time>2026-08-13T08:01:37.000Z</time>
        <extensions>
          <ns3:TrackPointExtension>
            <ns3:hr>87</ns3:hr>
            <ns3:cad>40</ns3:cad>
          </ns3:TrackPointExtension>
        </extensions>
      </trkpt>
      <trkpt lat="43.771220035851001739501953125" lon="1.58744285814464092254638671875">
        <ele>133.8000030517578125</ele>
        <time>2026-08-13T08:01:38.000Z</time>
        <extensions>
          <ns3:TrackPointExtension>
            <ns3:hr>87</ns3:hr>
            <ns3:cad>40</ns3:cad>
          </ns3:TrackPointExtension>
        </extensions>
      </trkpt>
      <trkpt lat="43.7712178565561771392822265625" lon="1.5874296985566616058349609375">
        <ele>134</ele>
        <time>2026-08-13T08:01:39.000Z</time>
        <extensions>
          <ns3:TrackPointExtension>
            <ns3:hr>88</ns3:hr>
            <ns3:cad>40</ns3:cad>
          </ns3:TrackPointExtension>
        </extensions>
      </trkpt>
      <trkpt lat="43.77121525816619396209716796875" lon="1.58742240630090236663818359375">
        <ele>134</ele>
        <time>2026-08-13T08:01:40.000Z</time>
        <extensions>
          <ns3:TrackPointExtension>
            <ns3:hr>88</ns3:hr>
            <ns3:cad>41</ns3:cad>
          </ns3:TrackPointExtension>
        </extensions>
      </trkpt>
      <trkpt lat="43.7712165154516696929931640625" lon="1.587409414350986480712890625">
        <ele>134.1999969482421875</ele>
        <time>2026-08-13T08:01:41.000Z</time>
        <extensions>
          <ns3:TrackPointExtension>
            <ns3:hr>88</ns3:hr>
            <ns3:cad>41</ns3:cad>
          </ns3:TrackPointExtension>
        </extensions>
      </trkpt>
      <trkpt lat="43.7712148390710353851318359375" lon="1.587394662201404571533203125">
        <ele>134.399993896484375</ele>
        <time>2026-08-13T08:01:42.000Z</time>
        <extensions>
          <ns3:TrackPointExtension>
            <ns3:hr>87</ns3:hr>
            <ns3:cad>40</ns3:cad>
          </ns3:TrackPointExtension>
        </extensions>
      </trkpt>
      <trkpt lat="43.77121626399457454681396484375" lon="1.58738401718437671661376953125">
        <ele>134.399993896484375</ele>
        <time>2026-08-13T08:01:43.000Z</time>
        <extensions>
          <ns3:TrackPointExtension>
            <ns3:hr>88</ns3:hr>
            <ns3:cad>40</ns3:cad>
          </ns3:TrackPointExtension>
        </extensions>
      </trkpt>
      <trkpt lat="43.7712185271084308624267578125" lon="1.5873730368912220001220703125">
        <ele>134.600006103515625</ele>
        <time>2026-08-13T08:01:44.000Z</time>
        <extensions>
          <ns3:TrackPointExtension>
            <ns3:hr>88</ns3:hr>
            <ns3:cad>41</ns3:cad>
          </ns3:TrackPointExtension>
        </extensions>
      </trkpt>
      <trkpt lat="43.7712228856980800628662109375" lon="1.587355770170688629150390625">
        <ele>134.600006103515625</ele>
        <time>2026-08-13T08:01:45.000Z</time>
        <extensions>
          <ns3:TrackPointExtension>
            <ns3:hr>89</ns3:hr>
            <ns3:cad>41</ns3:cad>
          </ns3:TrackPointExtension>
        </extensions>
      </trkpt>
      <trkpt lat="43.771223388612270355224609375" lon="1.58734160475432872772216796875">
        <ele>134.600006103515625</ele>
        <time>2026-08-13T08:01:46.000Z</time>
        <extensions>
          <ns3:TrackPointExtension>
            <ns3:hr>90</ns3:hr>
            <ns3:cad>41</ns3:cad>
          </ns3:TrackPointExtension>
        </extensions>
      </trkpt>
      <trkpt lat="43.771225400269031524658203125" lon="1.5873338095843791961669921875">
        <ele>134.8000030517578125</ele>
        <time>2026-08-13T08:01:47.000Z</time>
        <extensions>
          <ns3:TrackPointExtension>
            <ns3:hr>90</ns3:hr>
            <ns3:cad>40</ns3:cad>
          </ns3:TrackPointExtension>
        </extensions>
      </trkpt>
      <trkpt lat="43.77122707664966583251953125" lon="1.587317883968353271484375">
        <ele>134.8000030517578125</ele>
        <time>2026-08-13T08:01:48.000Z</time>
        <extensions>
          <ns3:TrackPointExtension>
            <ns3:hr>91</ns3:hr>
            <ns3:cad>40</ns3:cad>
          </ns3:TrackPointExtension>
        </extensions>
      </trkpt>
      <trkpt lat="43.7712277472019195556640625" lon="1.587307490408420562744140625">
        <ele>134.8000030517578125</ele>
        <time>2026-08-13T08:01:49.000Z</time>
        <extensions>
          <ns3:TrackPointExtension>
            <ns3:hr>93</ns3:hr>
            <ns3:cad>41</ns3:cad>
          </ns3:TrackPointExtension>
        </extensions>
      </trkpt>
      <trkpt lat="43.7712272442877292633056640625" lon="1.58729399554431438446044921875">
        <ele>135</ele>
        <time>2026-08-13T08:01:50.000Z</time>
        <extensions>
          <ns3:TrackPointExtension>
            <ns3:hr>93</ns3:hr>
            <ns3:cad>41</ns3:cad>
          </ns3:TrackPointExtension>
        </extensions>
      </trkpt>
      <trkpt lat="43.7712295912206172943115234375" lon="1.58727832138538360595703125">
        <ele>135</ele>
        <time>2026-08-13T08:01:51.000Z</time>
        <extensions>
          <ns3:TrackPointExtension>
            <ns3:hr>94</ns3:hr>
            <ns3:cad>41</ns3:cad>
          </ns3:TrackPointExtension>
        </extensions>
      </trkpt>
      <trkpt lat="43.77123051322996616363525390625" lon="1.58727119676768779754638671875">
        <ele>135.1999969482421875</ele>
        <time>2026-08-13T08:01:52.000Z</time>
        <extensions>
          <ns3:TrackPointExtension>
            <ns3:hr>94</ns3:hr>
            <ns3:cad>79</ns3:cad>
          </ns3:TrackPointExtension>
        </extensions>
      </trkpt>
      <trkpt lat="43.7712362967431545257568359375" lon="1.5872617252171039581298828125">
        <ele>135.399993896484375</ele>
        <time>2026-08-13T08:01:53.000Z</time>
        <extensions>
          <ns3:TrackPointExtension>
            <ns3:hr>95</ns3:hr>
            <ns3:cad>79</ns3:cad>
          </ns3:TrackPointExtension>
        </extensions>
      </trkpt>
      <trkpt lat="43.77123914659023284912109375" lon="1.58725074492394924163818359375">
        <ele>135.399993896484375</ele>
        <time>2026-08-13T08:01:54.000Z</time>
        <extensions>
          <ns3:TrackPointExtension>
            <ns3:hr>97</ns3:hr>
            <ns3:cad>78</ns3:cad>
          </ns3:TrackPointExtension>
        </extensions>
      </trkpt>
      <trkpt lat="43.7712331116199493408203125" lon="1.58724571578204631805419921875">
        <ele>135.600006103515625</ele>
        <time>2026-08-13T08:01:55.000Z</time>
        <extensions>
          <ns3:TrackPointExtension>
            <ns3:hr>98</ns3:hr>
            <ns3:cad>77</ns3:cad>
          </ns3:TrackPointExtension>
        </extensions>
      </trkpt>
      <trkpt lat="43.77123286016285419464111328125" lon="1.5872352384030818939208984375">
        <ele>135.600006103515625</ele>
        <time>2026-08-13T08:01:56.000Z</time>
        <extensions>
          <ns3:TrackPointExtension>
            <ns3:hr>98</ns3:hr>
            <ns3:cad>77</ns3:cad>
          </ns3:TrackPointExtension>
        </extensions>
      </trkpt>
      <trkpt lat="43.771235458552837371826171875" lon="1.58722543157637119293212890625">
        <ele>135.600006103515625</ele>
        <time>2026-08-13T08:01:57.000Z</time>
        <extensions>
          <ns3:TrackPointExtension>
            <ns3:hr>98</ns3:hr>
            <ns3:cad>77</ns3:cad>
          </ns3:TrackPointExtension>
        </extensions>
      </trkpt>
      <trkpt lat="43.77123990096151828765869140625" lon="1.58721537329256534576416015625">
        <ele>135.8000030517578125</ele>
        <time>2026-08-13T08:01:58.000Z</time>
        <extensions>
          <ns3:TrackPointExtension>
            <ns3:hr>98</ns3:hr>
            <ns3:cad>76</ns3:cad>
          </ns3:TrackPointExtension>
        </extensions>
      </trkpt>
      <trkpt lat="43.7712487019598484039306640625" lon="1.58720196224749088287353515625">
        <ele>135.8000030517578125</ele>
        <time>2026-08-13T08:01:59.000Z</time>
        <extensions>
          <ns3:TrackPointExtension>
            <ns3:hr>98</ns3:hr>
            <ns3:cad>76</ns3:cad>
          </ns3:TrackPointExtension>
        </extensions>
      </trkpt>
      <trkpt lat="43.77125322818756103515625" lon="1.5871919877827167510986328125">
        <ele>136</ele>
        <time>2026-08-13T08:02:00.000Z</time>
        <extensions>
          <ns3:TrackPointExtension>
            <ns3:hr>98</ns3:hr>
            <ns3:cad>76</ns3:cad>
          </ns3:TrackPointExtension>
        </extensions>
      </trkpt>
      <trkpt lat="43.7712567485868930816650390625" lon="1.58718503080308437347412109375">
        <ele>136</ele>
        <time>2026-08-13T08:02:01.000Z</time>
        <extensions>
          <ns3:TrackPointExtension>
            <ns3:hr>98</ns3:hr>
            <ns3:cad>76</ns3:cad>
          </ns3:TrackPointExtension>
        </extensions>
      </trkpt>
      <trkpt lat="43.77126052044332027435302734375" lon="1.587178073823451995849609375">
        <ele>136.1999969482421875</ele>
        <time>2026-08-13T08:02:02.000Z</time>
        <extensions>
          <ns3:TrackPointExtension>
            <ns3:hr>98</ns3:hr>
            <ns3:cad>79</ns3:cad>
          </ns3:TrackPointExtension>
        </extensions>
      </trkpt>
      <trkpt lat="43.77126521430909633636474609375" lon="1.58716876991093158721923828125">
        <ele>136.1999969482421875</ele>
        <time>2026-08-13T08:02:03.000Z</time>
        <extensions>
          <ns3:TrackPointExtension>
            <ns3:hr>98</ns3:hr>
            <ns3:cad>79</ns3:cad>
          </ns3:TrackPointExtension>
        </extensions>
      </trkpt>
      <trkpt lat="43.77127007581293582916259765625" lon="1.5871577896177768707275390625">
        <ele>136.399993896484375</ele>
        <time>2026-08-13T08:02:04.000Z</time>
        <extensions>
          <ns3:TrackPointExtension>
            <ns3:hr>98</ns3:hr>
            <ns3:cad>79</ns3:cad>
          </ns3:TrackPointExtension>
        </extensions>
      </trkpt>
      <trkpt lat="43.77127510495483875274658203125" lon="1.587142534554004669189453125">
        <ele>136.399993896484375</ele>
        <time>2026-08-13T08:02:05.000Z</time>
        <extensions>
          <ns3:TrackPointExtension>
            <ns3:hr>98</ns3:hr>
            <ns3:cad>41</ns3:cad>
          </ns3:TrackPointExtension>
        </extensions>
      </trkpt>
      <trkpt lat="43.7712785415351390838623046875" lon="1.58713188953697681427001953125">
        <ele>136.399993896484375</ele>
        <time>2026-08-13T08:02:06.000Z</time>
        <extensions>
          <ns3:TrackPointExtension>
            <ns3:hr>98</ns3:hr>
            <ns3:cad>41</ns3:cad>
          </ns3:TrackPointExtension>
        </extensions>
      </trkpt>
      <trkpt lat="43.77128298394381999969482421875" lon="1.587119735777378082275390625">
        <ele>136.399993896484375</ele>
        <time>2026-08-13T08:02:07.000Z</time>
        <extensions>
          <ns3:TrackPointExtension>
            <ns3:hr>97</ns3:hr>
            <ns3:cad>41</ns3:cad>
          </ns3:TrackPointExtension>
        </extensions>
      </trkpt>
      <trkpt lat="43.77128784544765949249267578125" lon="1.5871088393032550811767578125">
        <ele>136.600006103515625</ele>
        <time>2026-08-13T08:02:08.000Z</time>
        <extensions>
          <ns3:TrackPointExtension>
            <ns3:hr>97</ns3:hr>
            <ns3:cad>41</ns3:cad>
          </ns3:TrackPointExtension>
        </extensions>
      </trkpt>
      <trkpt lat="43.771293796598911285400390625" lon="1.587094254791736602783203125">
        <ele>136.600006103515625</ele>
        <time>2026-08-13T08:02:09.000Z</time>
        <extensions>
          <ns3:TrackPointExtension>
            <ns3:hr>97</ns3:hr>
            <ns3:cad>80</ns3:cad>
          </ns3:TrackPointExtension>
        </extensions>
      </trkpt>
      <trkpt lat="43.77129974775016307830810546875" lon="1.5870870463550090789794921875">
        <ele>136.8000030517578125</ele>
        <time>2026-08-13T08:02:10.000Z</time>
        <extensions>
          <ns3:TrackPointExtension>
            <ns3:hr>97</ns3:hr>
            <ns3:cad>80</ns3:cad>
          </ns3:TrackPointExtension>
        </extensions>
      </trkpt>
      <trkpt lat="43.7713046930730342864990234375" lon="1.58707673661410808563232421875">
        <ele>136.8000030517578125</ele>
        <time>2026-08-13T08:02:11.000Z</time>
        <extensions>
          <ns3:TrackPointExtension>
            <ns3:hr>96</ns3:hr>
            <ns3:cad>80</ns3:cad>
          </ns3:TrackPointExtension>
        </extensions>
      </trkpt>
      <trkpt lat="43.77130628563463687896728515625" lon="1.5870699472725391387939453125">
        <ele>137</ele>
        <time>2026-08-13T08:02:12.000Z</time>
        <extensions>
          <ns3:TrackPointExtension>
            <ns3:hr>96</ns3:hr>
            <ns3:cad>80</ns3:cad>
          </ns3:TrackPointExtension>
        </extensions>
      </trkpt>
      <trkpt lat="43.7713073752820491790771484375" lon="1.587062068283557891845703125">
        <ele>137</ele>
        <time>2026-08-13T08:02:13.000Z</time>
        <extensions>
          <ns3:TrackPointExtension>
            <ns3:hr>95</ns3:hr>
            <ns3:cad>79</ns3:cad>
          </ns3:TrackPointExtension>
        </extensions>
      </trkpt>
      <trkpt lat="43.77131215296685695648193359375" lon="1.58705863170325756072998046875">
        <ele>137.1999969482421875</ele>
        <time>2026-08-13T08:02:14.000Z</time>
        <extensions>
          <ns3:TrackPointExtension>
            <ns3:hr>94</ns3:hr>
            <ns3:cad>77</ns3:cad>
          </ns3:TrackPointExtension>
        </extensions>
      </trkpt>
      <trkpt lat="43.77131584100425243377685546875" lon="1.58705167472362518310546875">
        <ele>137.1999969482421875</ele>
        <time>2026-08-13T08:02:15.000Z</time>
        <extensions>
          <ns3:TrackPointExtension>
            <ns3:hr>94</ns3:hr>
            <ns3:cad>41</ns3:cad>
          </ns3:TrackPointExtension>
        </extensions>
      </trkpt>
      <trkpt lat="43.77131902612745761871337890625" lon="1.58704572357237339019775390625">
        <ele>137.399993896484375</ele>
        <time>2026-08-13T08:02:16.000Z</time>
        <extensions>
          <ns3:TrackPointExtension>
            <ns3:hr>93</ns3:hr>
            <ns3:cad>41</ns3:cad>
          </ns3:TrackPointExtension>
        </extensions>
      </trkpt>
      <trkpt lat="43.771321959793567657470703125" lon="1.5870364196598529815673828125">
        <ele>137.399993896484375</ele>
        <time>2026-08-13T08:02:17.000Z</time>
        <extensions>
          <ns3:TrackPointExtension>
            <ns3:hr>93</ns3:hr>
            <ns3:cad>41</ns3:cad>
          </ns3:TrackPointExtension>
        </extensions>
      </trkpt>
      <trkpt lat="43.7713269889354705810546875" lon="1.58702761866152286529541015625">
        <ele>137.600006103515625</ele>
        <time>2026-08-13T08:02:18.000Z</time>
        <extensions>
          <ns3:TrackPointExtension>
            <ns3:hr>93</ns3:hr>
            <ns3:cad>77</ns3:cad>
          </ns3:TrackPointExtension>
        </extensions>
      </trkpt>
      <trkpt lat="43.7713325209915637969970703125" lon="1.5870206616818904876708984375">
        <ele>137.600006103515625</ele>
        <time>2026-08-13T08:02:19.000Z</time>
        <extensions>
          <ns3:TrackPointExtension>
            <ns3:hr>93</ns3:hr>
            <ns3:cad>77</ns3:cad>
          </ns3:TrackPointExtension>
        </extensions>
      </trkpt>
      <trkpt lat="43.771336711943149566650390625" lon="1.587010435760021209716796875">
        <ele>137.8000030517578125</ele>
        <time>2026-08-13T08:02:20.000Z</time>
        <extensions>
          <ns3:TrackPointExtension>
            <ns3:hr>94</ns3:hr>
            <ns3:cad>76</ns3:cad>
          </ns3:TrackPointExtension>
        </extensions>
      </trkpt>
      <trkpt lat="43.771339394152164459228515625" lon="1.5870000422000885009765625">
        <ele>137.8000030517578125</ele>
        <time>2026-08-13T08:02:21.000Z</time>
        <extensions>
          <ns3:TrackPointExtension>
            <ns3:hr>94</ns3:hr>
            <ns3:cad>76</ns3:cad>
          </ns3:TrackPointExtension>
        </extensions>
      </trkpt>
      <trkpt lat="43.77134065143764019012451171875" lon="1.58699274994432926177978515625">
        <ele>138</ele>
        <time>2026-08-13T08:02:22.000Z</time>
        <extensions>
          <ns3:TrackPointExtension>
            <ns3:hr>94</ns3:hr>
            <ns3:cad>76</ns3:cad>
          </ns3:TrackPointExtension>
        </extensions>
      </trkpt>
      <trkpt lat="43.77134785987436771392822265625" lon="1.58698336221277713775634765625">
        <ele>138</ele>
        <time>2026-08-13T08:02:23.000Z</time>
        <extensions>
          <ns3:TrackPointExtension>
            <ns3:hr>94</ns3:hr>
            <ns3:cad>41</ns3:cad>
          </ns3:TrackPointExtension>
        </extensions>
      </trkpt>
      <trkpt lat="43.77135288901627063751220703125" lon="1.58697129227221012115478515625">
        <ele>138.1999969482421875</ele>
        <time>2026-08-13T08:02:24.000Z</time>
        <extensions>
          <ns3:TrackPointExtension>
            <ns3:hr>94</ns3:hr>
            <ns3:cad>41</ns3:cad>
          </ns3:TrackPointExtension>
        </extensions>
      </trkpt>
      <trkpt lat="43.7713553197681903839111328125" lon="1.586966179311275482177734375">
        <ele>138.399993896484375</ele>
        <time>2026-08-13T08:02:25.000Z</time>
        <extensions>
          <ns3:TrackPointExtension>
            <ns3:hr>94</ns3:hr>
            <ns3:cad>42</ns3:cad>
          </ns3:TrackPointExtension>
        </extensions>
      </trkpt>
      <trkpt lat="43.771356828510761260986328125" lon="1.5869576297700405120849609375">
        <ele>138.600006103515625</ele>
        <time>2026-08-13T08:02:26.000Z</time>
        <extensions>
          <ns3:TrackPointExtension>
            <ns3:hr>94</ns3:hr>
            <ns3:cad>42</ns3:cad>
          </ns3:TrackPointExtension>
        </extensions>
      </trkpt>
      <trkpt lat="43.77135984599590301513671875" lon="1.58694765530526638031005859375">
        <ele>138.600006103515625</ele>
        <time>2026-08-13T08:02:27.000Z</time>
        <extensions>
          <ns3:TrackPointExtension>
            <ns3:hr>95</ns3:hr>
            <ns3:cad>42</ns3:cad>
          </ns3:TrackPointExtension>
        </extensions>
      </trkpt>
      <trkpt lat="43.77136613242328166961669921875" lon="1.58693659119307994842529296875">
        <ele>138.8000030517578125</ele>
        <time>2026-08-13T08:02:28.000Z</time>
        <extensions>
          <ns3:TrackPointExtension>
            <ns3:hr>95</ns3:hr>
            <ns3:cad>42</ns3:cad>
          </ns3:TrackPointExtension>
        </extensions>
      </trkpt>
      <trkpt lat="43.771374262869358062744140625" lon="1.5869177319109439849853515625">
        <ele>139</ele>
        <time>2026-08-13T08:02:29.000Z</time>
        <extensions>
          <ns3:TrackPointExtension>
            <ns3:hr>95</ns3:hr>
            <ns3:cad>42</ns3:cad>
          </ns3:TrackPointExtension>
        </extensions>
      </trkpt>
      <trkpt lat="43.771378286182880401611328125" lon="1.5869036503136157989501953125">
        <ele>139.1999969482421875</ele>
        <time>2026-08-13T08:02:30.000Z</time>
        <extensions>
          <ns3:TrackPointExtension>
            <ns3:hr>94</ns3:hr>
            <ns3:cad>42</ns3:cad>
          </ns3:TrackPointExtension>
        </extensions>
      </trkpt>
      <trkpt lat="43.77138289622962474822998046875" lon="1.5868986211717128753662109375">
        <ele>139.1999969482421875</ele>
        <time>2026-08-13T08:02:31.000Z</time>
        <extensions>
          <ns3:TrackPointExtension>
            <ns3:hr>95</ns3:hr>
            <ns3:cad>42</ns3:cad>
          </ns3:TrackPointExtension>
        </extensions>
      </trkpt>
      <trkpt lat="43.771390020847320556640625" lon="1.58689065836369991302490234375">
        <ele>139.399993896484375</ele>
        <time>2026-08-13T08:02:32.000Z</time>
        <extensions>
          <ns3:TrackPointExtension>
            <ns3:hr>95</ns3:hr>
            <ns3:cad>43</ns3:cad>
          </ns3:TrackPointExtension>
        </extensions>
      </trkpt>
      <trkpt lat="43.7713994085788726806640625" lon="1.58688328228890895843505859375">
        <ele>139.600006103515625</ele>
        <time>2026-08-13T08:02:33.000Z</time>
        <extensions>
          <ns3:TrackPointExtension>
            <ns3:hr>96</ns3:hr>
            <ns3:cad>43</ns3:cad>
          </ns3:TrackPointExtension>
        </extensions>
      </trkpt>
      <trkpt lat="43.77141483128070831298828125" lon="1.5868691168725490570068359375">
        <ele>139.600006103515625</ele>
        <time>2026-08-13T08:02:34.000Z</time>
        <extensions>
          <ns3:TrackPointExtension>
            <ns3:hr>97</ns3:hr>
            <ns3:cad>43</ns3:cad>
          </ns3:TrackPointExtension>
        </extensions>
      </trkpt>
      <trkpt lat="43.771427571773529052734375" lon="1.5868543647229671478271484375">
        <ele>139.8000030517578125</ele>
        <time>2026-08-13T08:02:35.000Z</time>
        <extensions>
          <ns3:TrackPointExtension>
            <ns3:hr>97</ns3:hr>
            <ns3:cad>43</ns3:cad>
          </ns3:TrackPointExtension>
        </extensions>
      </trkpt>
      <trkpt lat="43.77143754623830318450927734375" lon="1.58684455789625644683837890625">
        <ele>140</ele>
        <time>2026-08-13T08:02:36.000Z</time>
        <extensions>
          <ns3:TrackPointExtension>
            <ns3:hr>97</ns3:hr>
            <ns3:cad>47</ns3:cad>
          </ns3:TrackPointExtension>
        </extensions>
      </trkpt>
      <trkpt lat="43.7714445032179355621337890625" lon="1.586834751069545745849609375">
        <ele>140.1999969482421875</ele>
        <time>2026-08-13T08:02:37.000Z</time>
        <extensions>
          <ns3:TrackPointExtension>
            <ns3:hr>97</ns3:hr>
            <ns3:cad>47</ns3:cad>
          </ns3:TrackPointExtension>
        </extensions>
      </trkpt>
      <trkpt lat="43.7714503705501556396484375" lon="1.58682812936604022979736328125">
        <ele>140.399993896484375</ele>
        <time>2026-08-13T08:02:38.000Z</time>
        <extensions>
          <ns3:TrackPointExtension>
            <ns3:hr>97</ns3:hr>
            <ns3:cad>48</ns3:cad>
          </ns3:TrackPointExtension>
        </extensions>
      </trkpt>
      <trkpt lat="43.77145749516785144805908203125" lon="1.58682092092931270599365234375">
        <ele>140.600006103515625</ele>
        <time>2026-08-13T08:02:39.000Z</time>
        <extensions>
          <ns3:TrackPointExtension>
            <ns3:hr>97</ns3:hr>
            <ns3:cad>48</ns3:cad>
          </ns3:TrackPointExtension>
        </extensions>
      </trkpt>
      <trkpt lat="43.77146805636584758758544921875" lon="1.5868042409420013427734375">
        <ele>140.600006103515625</ele>
        <time>2026-08-13T08:02:40.000Z</time>
        <extensions>
          <ns3:TrackPointExtension>
            <ns3:hr>97</ns3:hr>
            <ns3:cad>48</ns3:cad>
          </ns3:TrackPointExtension>
        </extensions>
      </trkpt>
      <trkpt lat="43.771475516259670257568359375" lon="1.58678974024951457977294921875">
        <ele>140.8000030517578125</ele>
        <time>2026-08-13T08:02:41.000Z</time>
        <extensions>
          <ns3:TrackPointExtension>
            <ns3:hr>98</ns3:hr>
            <ns3:cad>48</ns3:cad>
          </ns3:TrackPointExtension>
        </extensions>
      </trkpt>
      <trkpt lat="43.7714857421815395355224609375" lon="1.586775071918964385986328125">
        <ele>141</ele>
        <time>2026-08-13T08:02:42.000Z</time>
        <extensions>
          <ns3:TrackPointExtension>
            <ns3:hr>97</ns3:hr>
            <ns3:cad>48</ns3:cad>
          </ns3:TrackPointExtension>
        </extensions>
      </trkpt>
      <trkpt lat="43.77149068750441074371337890625" lon="1.586764343082904815673828125">
        <ele>141.1999969482421875</ele>
        <time>2026-08-13T08:02:43.000Z</time>
        <extensions>
          <ns3:TrackPointExtension>
            <ns3:hr>97</ns3:hr>
            <ns3:cad>52</ns3:cad>
          </ns3:TrackPointExtension>
        </extensions>
      </trkpt>
      <trkpt lat="43.77149839885532855987548828125" lon="1.586760990321636199951171875">
        <ele>141.399993896484375</ele>
        <time>2026-08-13T08:02:44.000Z</time>
        <extensions>
          <ns3:TrackPointExtension>
            <ns3:hr>97</ns3:hr>
            <ns3:cad>52</ns3:cad>
          </ns3:TrackPointExtension>
        </extensions>
      </trkpt>
      <trkpt lat="43.7715058587491512298583984375" lon="1.58675001002848148345947265625">
        <ele>141.600006103515625</ele>
        <time>2026-08-13T08:02:45.000Z</time>
        <extensions>
          <ns3:TrackPointExtension>
            <ns3:hr>97</ns3:hr>
            <ns3:cad>49</ns3:cad>
          </ns3:TrackPointExtension>
        </extensions>
      </trkpt>
      <trkpt lat="43.77151113934814929962158203125" lon="1.58673777244985103607177734375">
        <ele>141.8000030517578125</ele>
        <time>2026-08-13T08:02:46.000Z</time>
        <extensions>
          <ns3:TrackPointExtension>
            <ns3:hr>98</ns3:hr>
            <ns3:cad>49</ns3:cad>
          </ns3:TrackPointExtension>
        </extensions>
      </trkpt>
      <trkpt lat="43.771517761051654815673828125" lon="1.5867184102535247802734375">
        <ele>141.8000030517578125</ele>
        <time>2026-08-13T08:02:47.000Z</time>
        <extensions>
          <ns3:TrackPointExtension>
            <ns3:hr>98</ns3:hr>
            <ns3:cad>51</ns3:cad>
          </ns3:TrackPointExtension>
        </extensions>
      </trkpt>
      <trkpt lat="43.771527148783206939697265625" lon="1.58670156262814998626708984375">
        <ele>142</ele>
        <time>2026-08-13T08:02:48.000Z</time>
        <extensions>
          <ns3:TrackPointExtension>
            <ns3:hr>98</ns3:hr>
            <ns3:cad>51</ns3:cad>
          </ns3:TrackPointExtension>
        </extensions>
      </trkpt>
      <trkpt lat="43.77153209410607814788818359375" lon="1.58668882213532924652099609375">
        <ele>142.1999969482421875</ele>
        <time>2026-08-13T08:02:49.000Z</time>
        <extensions>
          <ns3:TrackPointExtension>
            <ns3:hr>99</ns3:hr>
            <ns3:cad>50</ns3:cad>
          </ns3:TrackPointExtension>
        </extensions>
      </trkpt>
      <trkpt lat="43.771530501544475555419921875" lon="1.5866837091743946075439453125">
        <ele>142.399993896484375</ele>
        <time>2026-08-13T08:02:50.000Z</time>
        <extensions>
          <ns3:TrackPointExtension>
            <ns3:hr>99</ns3:hr>
            <ns3:cad>50</ns3:cad>
          </ns3:TrackPointExtension>
        </extensions>
      </trkpt>
      <trkpt lat="43.771535195410251617431640625" lon="1.58666987903416156768798828125">
        <ele>142.399993896484375</ele>
        <time>2026-08-13T08:02:51.000Z</time>
        <extensions>
          <ns3:TrackPointExtension>
            <ns3:hr>100</ns3:hr>
            <ns3:cad>51</ns3:cad>
          </ns3:TrackPointExtension>
        </extensions>
      </trkpt>
      <trkpt lat="43.771542571485042572021484375" lon="1.5866572223603725433349609375">
        <ele>142.600006103515625</ele>
        <time>2026-08-13T08:02:52.000Z</time>
        <extensions>
          <ns3:TrackPointExtension>
            <ns3:hr>101</ns3:hr>
            <ns3:cad>51</ns3:cad>
          </ns3:TrackPointExtension>
        </extensions>
      </trkpt>
      <trkpt lat="43.77154818736016750335693359375" lon="1.5866481699049472808837890625">
        <ele>142.600006103515625</ele>
        <time>2026-08-13T08:02:53.000Z</time>
        <extensions>
          <ns3:TrackPointExtension>
            <ns3:hr>102</ns3:hr>
            <ns3:cad>51</ns3:cad>
          </ns3:TrackPointExtension>
        </extensions>
      </trkpt>
      <trkpt lat="43.7715534679591655731201171875" lon="1.5866401232779026031494140625">
        <ele>142.8000030517578125</ele>
        <time>2026-08-13T08:02:54.000Z</time>
        <extensions>
          <ns3:TrackPointExtension>
            <ns3:hr>103</ns3:hr>
            <ns3:cad>51</ns3:cad>
          </ns3:TrackPointExtension>
        </extensions>
      </trkpt>
      <trkpt lat="43.7715561501681804656982421875" lon="1.58663048408925533294677734375">
        <ele>143</ele>
        <time>2026-08-13T08:02:55.000Z</time>
        <extensions>
          <ns3:TrackPointExtension>
            <ns3:hr>104</ns3:hr>
            <ns3:cad>51</ns3:cad>
          </ns3:TrackPointExtension>
        </extensions>
      </trkpt>
      <trkpt lat="43.7715630233287811279296875" lon="1.58661321736872196197509765625">
        <ele>143.1999969482421875</ele>
        <time>2026-08-13T08:02:56.000Z</time>
        <extensions>
          <ns3:TrackPointExtension>
            <ns3:hr>106</ns3:hr>
            <ns3:cad>49</ns3:cad>
          </ns3:TrackPointExtension>
        </extensions>
      </trkpt>
      <trkpt lat="43.771566711366176605224609375" lon="1.58660349436104297637939453125">
        <ele>143.1999969482421875</ele>
        <time>2026-08-13T08:02:57.000Z</time>
        <extensions>
          <ns3:TrackPointExtension>
            <ns3:hr>107</ns3:hr>
            <ns3:cad>49</ns3:cad>
          </ns3:TrackPointExtension>
        </extensions>
      </trkpt>
      <trkpt lat="43.77157065086066722869873046875" lon="1.5865972079336643218994140625">
        <ele>143.399993896484375</ele>
        <time>2026-08-13T08:02:58.000Z</time>
        <extensions>
          <ns3:TrackPointExtension>
            <ns3:hr>108</ns3:hr>
            <ns3:cad>49</ns3:cad>
          </ns3:TrackPointExtension>
        </extensions>
      </trkpt>
      <trkpt lat="43.77157383598387241363525390625" lon="1.586583964526653289794921875">
        <ele>143.600006103515625</ele>
        <time>2026-08-13T08:02:59.000Z</time>
        <extensions>
          <ns3:TrackPointExtension>
            <ns3:hr>109</ns3:hr>
            <ns3:cad>49</ns3:cad>
          </ns3:TrackPointExtension>
        </extensions>
      </trkpt>
      <trkpt lat="43.77157568000257015228271484375" lon="1.5865764208137989044189453125">
        <ele>143.600006103515625</ele>
        <time>2026-08-13T08:03:00.000Z</time>
        <extensions>
          <ns3:TrackPointExtension>
            <ns3:hr>110</ns3:hr>
            <ns3:cad>49</ns3:cad>
          </ns3:TrackPointExtension>
        </extensions>
      </trkpt>
      <trkpt lat="43.77158221788704395294189453125" lon="1.5865589864552021026611328125">
        <ele>143.8000030517578125</ele>
        <time>2026-08-13T08:03:01.000Z</time>
        <extensions>
          <ns3:TrackPointExtension>
            <ns3:hr>111</ns3:hr>
            <ns3:cad>47</ns3:cad>
          </ns3:TrackPointExtension>
        </extensions>
      </trkpt>
      <trkpt lat="43.7715896777808666229248046875" lon="1.58654482103884220123291015625">
        <ele>144</ele>
        <time>2026-08-13T08:03:02.000Z</time>
        <extensions>
          <ns3:TrackPointExtension>
            <ns3:hr>111</ns3:hr>
            <ns3:cad>47</ns3:cad>
          </ns3:TrackPointExtension>
        </extensions>
      </trkpt>
      <trkpt lat="43.77159378491342067718505859375" lon="1.5865261293947696685791015625">
        <ele>144.1999969482421875</ele>
        <time>2026-08-13T08:03:03.000Z</time>
        <extensions>
          <ns3:TrackPointExtension>
            <ns3:hr>112</ns3:hr>
            <ns3:cad>47</ns3:cad>
          </ns3:TrackPointExtension>
        </extensions>
      </trkpt>
      <trkpt lat="43.77160124480724334716796875" lon="1.586515568196773529052734375">
        <ele>144.399993896484375</ele>
        <time>2026-08-13T08:03:04.000Z</time>
        <extensions>
          <ns3:TrackPointExtension>
            <ns3:hr>112</ns3:hr>
            <ns3:cad>47</ns3:cad>
          </ns3:TrackPointExtension>
        </extensions>
      </trkpt>
      <trkpt lat="43.77160266973078250885009765625" lon="1.58650743775069713592529296875">
        <ele>144.600006103515625</ele>
        <time>2026-08-13T08:03:05.000Z</time>
        <extensions>
          <ns3:TrackPointExtension>
            <ns3:hr>112</ns3:hr>
            <ns3:cad>47</ns3:cad>
          </ns3:TrackPointExtension>
        </extensions>
      </trkpt>
      <trkpt lat="43.77160392701625823974609375" lon="1.586495451629161834716796875">
        <ele>144.8000030517578125</ele>
        <time>2026-08-13T08:03:06.000Z</time>
        <extensions>
          <ns3:TrackPointExtension>
            <ns3:hr>113</ns3:hr>
            <ns3:cad>47</ns3:cad>
          </ns3:TrackPointExtension>
        </extensions>
      </trkpt>
      <trkpt lat="43.77160669304430484771728515625" lon="1.58648706972599029541015625">
        <ele>145</ele>
        <time>2026-08-13T08:03:07.000Z</time>
        <extensions>
          <ns3:TrackPointExtension>
            <ns3:hr>113</ns3:hr>
            <ns3:cad>50</ns3:cad>
          </ns3:TrackPointExtension>
        </extensions>
      </trkpt>
      <trkpt lat="43.771608956158161163330078125" lon="1.5864741615951061248779296875">
        <ele>145.1999969482421875</ele>
        <time>2026-08-13T08:03:08.000Z</time>
        <extensions>
          <ns3:TrackPointExtension>
            <ns3:hr>113</ns3:hr>
            <ns3:cad>50</ns3:cad>
          </ns3:TrackPointExtension>
        </extensions>
      </trkpt>
      <trkpt lat="43.7716108001768589019775390625" lon="1.58645362593233585357666015625">
        <ele>145.399993896484375</ele>
        <time>2026-08-13T08:03:09.000Z</time>
        <extensions>
          <ns3:TrackPointExtension>
            <ns3:hr>112</ns3:hr>
            <ns3:cad>50</ns3:cad>
          </ns3:TrackPointExtension>
        </extensions>
      </trkpt>
      <trkpt lat="43.77161465585231781005859375" lon="1.586430408060550689697265625">
        <ele>145.600006103515625</ele>
        <time>2026-08-13T08:03:10.000Z</time>
        <extensions>
          <ns3:TrackPointExtension>
            <ns3:hr>113</ns3:hr>
            <ns3:cad>52</ns3:cad>
          </ns3:TrackPointExtension>
        </extensions>
      </trkpt>
      <trkpt lat="43.77162010408937931060791015625" lon="1.58640618436038494110107421875">
        <ele>145.8000030517578125</ele>
        <time>2026-08-13T08:03:11.000Z</time>
        <extensions>
          <ns3:TrackPointExtension>
            <ns3:hr>113</ns3:hr>
            <ns3:cad>52</ns3:cad>
          </ns3:TrackPointExtension>
        </extensions>
      </trkpt>
      <trkpt lat="43.771623037755489349365234375" lon="1.58638640306890010833740234375">
        <ele>146</ele>
        <time>2026-08-13T08:03:12.000Z</time>
        <extensions>
          <ns3:TrackPointExtension>
            <ns3:hr>113</ns3:hr>
            <ns3:cad>53</ns3:cad>
          </ns3:TrackPointExtension>
        </extensions>
      </trkpt>
      <trkpt lat="43.771629072725772857666015625" lon="1.58637232147157192230224609375">
        <ele>146.1999969482421875</ele>
        <time>2026-08-13T08:03:13.000Z</time>
        <extensions>
          <ns3:TrackPointExtension>
            <ns3:hr>113</ns3:hr>
            <ns3:cad>53</ns3:cad>
          </ns3:TrackPointExtension>
        </extensions>
      </trkpt>
      <trkpt lat="43.77163535915315151214599609375" lon="1.58636058680713176727294921875">
        <ele>146.399993896484375</ele>
        <time>2026-08-13T08:03:14.000Z</time>
        <extensions>
          <ns3:TrackPointExtension>
            <ns3:hr>114</ns3:hr>
            <ns3:cad>53</ns3:cad>
          </ns3:TrackPointExtension>
        </extensions>
      </trkpt>
      <trkpt lat="43.77163955010473728179931640625" lon="1.58634935505688190460205078125">
        <ele>146.600006103515625</ele>
        <time>2026-08-13T08:03:15.000Z</time>
        <extensions>
          <ns3:TrackPointExtension>
            <ns3:hr>114</ns3:hr>
            <ns3:cad>53</ns3:cad>
          </ns3:TrackPointExtension>
        </extensions>
      </trkpt>
      <trkpt lat="43.77164441160857677459716796875" lon="1.58633686602115631103515625">
        <ele>146.8000030517578125</ele>
        <time>2026-08-13T08:03:16.000Z</time>
        <extensions>
          <ns3:TrackPointExtension>
            <ns3:hr>114</ns3:hr>
            <ns3:cad>53</ns3:cad>
          </ns3:TrackPointExtension>
        </extensions>
      </trkpt>
      <trkpt lat="43.77165145240724086761474609375" lon="1.58632001839578151702880859375">
        <ele>147</ele>
        <time>2026-08-13T08:03:17.000Z</time>
        <extensions>
          <ns3:TrackPointExtension>
            <ns3:hr>115</ns3:hr>
            <ns3:cad>53</ns3:cad>
          </ns3:TrackPointExtension>
        </extensions>
      </trkpt>
      <trkpt lat="43.77165748737752437591552734375" lon="1.58630509860813617706298828125">
        <ele>147.1999969482421875</ele>
        <time>2026-08-13T08:03:18.000Z</time>
        <extensions>
          <ns3:TrackPointExtension>
            <ns3:hr>115</ns3:hr>
            <ns3:cad>53</ns3:cad>
          </ns3:TrackPointExtension>
        </extensions>
      </trkpt>
      <trkpt lat="43.7716647796332836151123046875" lon="1.5862907655537128448486328125">
        <ele>147.399993896484375</ele>
        <time>2026-08-13T08:03:19.000Z</time>
        <extensions>
          <ns3:TrackPointExtension>
            <ns3:hr>115</ns3:hr>
            <ns3:cad>52</ns3:cad>
          </ns3:TrackPointExtension>
        </extensions>
      </trkpt>
      <trkpt lat="43.77167257480323314666748046875" lon="1.5862740017473697662353515625">
        <ele>147.600006103515625</ele>
        <time>2026-08-13T08:03:20.000Z</time>
        <extensions>
          <ns3:TrackPointExtension>
            <ns3:hr>116</ns3:hr>
            <ns3:cad>52</ns3:cad>
          </ns3:TrackPointExtension>
        </extensions>
      </trkpt>
      <trkpt lat="43.771678023040294647216796875" lon="1.58626285381615161895751953125">
        <ele>147.8000030517578125</ele>
        <time>2026-08-13T08:03:21.000Z</time>
        <extensions>
          <ns3:TrackPointExtension>
            <ns3:hr>117</ns3:hr>
            <ns3:cad>52</ns3:cad>
          </ns3:TrackPointExtension>
        </extensions>
      </trkpt>
      <trkpt lat="43.77168045379221439361572265625" lon="1.58625111915171146392822265625">
        <ele>148</ele>
        <time>2026-08-13T08:03:22.000Z</time>
        <extensions>
          <ns3:TrackPointExtension>
            <ns3:hr>117</ns3:hr>
            <ns3:cad>51</ns3:cad>
          </ns3:TrackPointExtension>
        </extensions>
      </trkpt>
      <trkpt lat="43.7716837227344512939453125" lon="1.5862364508211612701416015625">
        <ele>148.1999969482421875</ele>
        <time>2026-08-13T08:03:23.000Z</time>
        <extensions>
          <ns3:TrackPointExtension>
            <ns3:hr>118</ns3:hr>
            <ns3:cad>51</ns3:cad>
          </ns3:TrackPointExtension>
        </extensions>
      </trkpt>
      <trkpt lat="43.7716890871524810791015625" lon="1.58621608279645442962646484375">
        <ele>148.399993896484375</ele>
        <time>2026-08-13T08:03:24.000Z</time>
        <extensions>
          <ns3:TrackPointExtension>
            <ns3:hr>118</ns3:hr>
            <ns3:cad>51</ns3:cad>
          </ns3:TrackPointExtension>
        </extensions>
      </trkpt>
      <trkpt lat="43.77169512212276458740234375" lon="1.58619873225688934326171875">
        <ele>148.600006103515625</ele>
        <time>2026-08-13T08:03:25.000Z</time>
        <extensions>
          <ns3:TrackPointExtension>
            <ns3:hr>119</ns3:hr>
            <ns3:cad>51</ns3:cad>
          </ns3:TrackPointExtension>
        </extensions>
      </trkpt>
      <trkpt lat="43.77169956453144550323486328125" lon="1.586186327040195465087890625">
        <ele>148.8000030517578125</ele>
        <time>2026-08-13T08:03:26.000Z</time>
        <extensions>
          <ns3:TrackPointExtension>
            <ns3:hr>119</ns3:hr>
            <ns3:cad>51</ns3:cad>
          </ns3:TrackPointExtension>
        </extensions>
      </trkpt>
      <trkpt lat="43.7717060185968875885009765625" lon="1.58617299981415271759033203125">
        <ele>148.8000030517578125</ele>
        <time>2026-08-13T08:03:27.000Z</time>
        <extensions>
          <ns3:TrackPointExtension>
            <ns3:hr>120</ns3:hr>
            <ns3:cad>51</ns3:cad>
          </ns3:TrackPointExtension>
        </extensions>
      </trkpt>
      <trkpt lat="43.7717127241194248199462890625" lon="1.58615673892199993133544921875">
        <ele>149</ele>
        <time>2026-08-13T08:03:28.000Z</time>
        <extensions>
          <ns3:TrackPointExtension>
            <ns3:hr>120</ns3:hr>
            <ns3:cad>51</ns3:cad>
          </ns3:TrackPointExtension>
        </extensions>
      </trkpt>
      <trkpt lat="43.77172051928937435150146484375" lon="1.5861445851624011993408203125">
        <ele>149.1999969482421875</ele>
        <time>2026-08-13T08:03:29.000Z</time>
        <extensions>
          <ns3:TrackPointExtension>
            <ns3:hr>121</ns3:hr>
            <ns3:cad>51</ns3:cad>
          </ns3:TrackPointExtension>
        </extensions>
      </trkpt>
      <trkpt lat="43.77172705717384815216064453125" lon="1.58613343723118305206298828125">
        <ele>149.1999969482421875</ele>
        <time>2026-08-13T08:03:30.000Z</time>
        <extensions>
          <ns3:TrackPointExtension>
            <ns3:hr>122</ns3:hr>
            <ns3:cad>0</ns3:cad>
          </ns3:TrackPointExtension>
        </extensions>
      </trkpt>
      <trkpt lat="43.7717348523437976837158203125" lon="1.58611918799579143524169921875">
        <ele>149.399993896484375</ele>
        <time>2026-08-13T08:03:31.000Z</time>
        <extensions>
          <ns3:TrackPointExtension>
            <ns3:hr>123</ns3:hr>
            <ns3:cad>0</ns3:cad>
          </ns3:TrackPointExtension>
        </extensions>
      </trkpt>
      <trkpt lat="43.77174675464630126953125" lon="1.58610527403652667999267578125">
        <ele>149.600006103515625</ele>
        <time>2026-08-13T08:03:32.000Z</time>
        <extensions>
          <ns3:TrackPointExtension>
            <ns3:hr>123</ns3:hr>
            <ns3:cad>0</ns3:cad>
          </ns3:TrackPointExtension>
        </extensions>
      </trkpt>
      <trkpt lat="43.771756477653980255126953125" lon="1.58609303645789623260498046875">
        <ele>149.8000030517578125</ele>
        <time>2026-08-13T08:03:33.000Z</time>
        <extensions>
          <ns3:TrackPointExtension>
            <ns3:hr>124</ns3:hr>
            <ns3:cad>0</ns3:cad>
          </ns3:TrackPointExtension>
        </extensions>
      </trkpt>
      <trkpt lat="43.77176695503294467926025390625" lon="1.5860795415937900543212890625">
        <ele>149.8000030517578125</ele>
        <time>2026-08-13T08:03:34.000Z</time>
        <extensions>
          <ns3:TrackPointExtension>
            <ns3:hr>124</ns3:hr>
            <ns3:cad>55</ns3:cad>
          </ns3:TrackPointExtension>
        </extensions>
      </trkpt>
      <trkpt lat="43.7717770971357822418212890625" lon="1.58606621436774730682373046875">
        <ele>150</ele>
        <time>2026-08-13T08:03:35.000Z</time>
        <extensions>
          <ns3:TrackPointExtension>
            <ns3:hr>124</ns3:hr>
            <ns3:cad>55</ns3:cad>
          </ns3:TrackPointExtension>
        </extensions>
      </trkpt>
      <trkpt lat="43.77178765833377838134765625" lon="1.58605146221816539764404296875">
        <ele>150.1999969482421875</ele>
        <time>2026-08-13T08:03:36.000Z</time>
        <extensions>
          <ns3:TrackPointExtension>
            <ns3:hr>125</ns3:hr>
            <ns3:cad>55</ns3:cad>
          </ns3:TrackPointExtension>
        </extensions>
      </trkpt>
      <trkpt lat="43.7717968784272670745849609375" lon="1.58603955991566181182861328125">
        <ele>150.399993896484375</ele>
        <time>2026-08-13T08:03:37.000Z</time>
        <extensions>
          <ns3:TrackPointExtension>
            <ns3:hr>125</ns3:hr>
            <ns3:cad>55</ns3:cad>
          </ns3:TrackPointExtension>
        </extensions>
      </trkpt>
      <trkpt lat="43.77180500887334346771240234375" lon="1.58602832816541194915771484375">
        <ele>150.600006103515625</ele>
        <time>2026-08-13T08:03:38.000Z</time>
        <extensions>
          <ns3:TrackPointExtension>
            <ns3:hr>126</ns3:hr>
            <ns3:cad>55</ns3:cad>
          </ns3:TrackPointExtension>
        </extensions>
      </trkpt>
      <trkpt lat="43.77181456424295902252197265625" lon="1.58601491712033748626708984375">
        <ele>150.8000030517578125</ele>
        <time>2026-08-13T08:03:39.000Z</time>
        <extensions>
          <ns3:TrackPointExtension>
            <ns3:hr>126</ns3:hr>
            <ns3:cad>55</ns3:cad>
          </ns3:TrackPointExtension>
        </extensions>
      </trkpt>
      <trkpt lat="43.771824203431606292724609375" lon="1.58600150607526302337646484375">
        <ele>151</ele>
        <time>2026-08-13T08:03:40.000Z</time>
        <extensions>
          <ns3:TrackPointExtension>
            <ns3:hr>126</ns3:hr>
            <ns3:cad>55</ns3:cad>
          </ns3:TrackPointExtension>
        </extensions>
      </trkpt>
      <trkpt lat="43.771836273372173309326171875" lon="1.58598482608795166015625">
        <ele>151.1999969482421875</ele>
        <time>2026-08-13T08:03:41.000Z</time>
        <extensions>
          <ns3:TrackPointExtension>
            <ns3:hr>126</ns3:hr>
            <ns3:cad>55</ns3:cad>
          </ns3:TrackPointExtension>
        </extensions>
      </trkpt>
      <trkpt lat="43.77184926532208919525146484375" lon="1.5859642066061496734619140625">
        <ele>151.399993896484375</ele>
        <time>2026-08-13T08:03:42.000Z</time>
        <extensions>
          <ns3:TrackPointExtension>
            <ns3:hr>126</ns3:hr>
            <ns3:cad>55</ns3:cad>
          </ns3:TrackPointExtension>
        </extensions>
      </trkpt>
      <trkpt lat="43.7718599103391170501708984375" lon="1.58594819717109203338623046875">
        <ele>151.600006103515625</ele>
        <time>2026-08-13T08:03:43.000Z</time>
        <extensions>
          <ns3:TrackPointExtension>
            <ns3:hr>127</ns3:hr>
            <ns3:cad>55</ns3:cad>
          </ns3:TrackPointExtension>
        </extensions>
      </trkpt>
      <trkpt lat="43.77186887897551059722900390625" lon="1.58593310974538326263427734375">
        <ele>151.8000030517578125</ele>
        <time>2026-08-13T08:03:44.000Z</time>
        <extensions>
          <ns3:TrackPointExtension>
            <ns3:hr>127</ns3:hr>
            <ns3:cad>55</ns3:cad>
          </ns3:TrackPointExtension>
        </extensions>
      </trkpt>
      <trkpt lat="43.77187742851674556732177734375" lon="1.58592271618545055389404296875">
        <ele>152</ele>
        <time>2026-08-13T08:03:45.000Z</time>
        <extensions>
          <ns3:TrackPointExtension>
            <ns3:hr>127</ns3:hr>
            <ns3:cad>55</ns3:cad>
          </ns3:TrackPointExtension>
        </extensions>
      </trkpt>
      <trkpt lat="43.77188597805798053741455078125" lon="1.58591039478778839111328125">
        <ele>152.1999969482421875</ele>
        <time>2026-08-13T08:03:46.000Z</time>
        <extensions>
          <ns3:TrackPointExtension>
            <ns3:hr>127</ns3:hr>
            <ns3:cad>55</ns3:cad>
          </ns3:TrackPointExtension>
        </extensions>
      </trkpt>
      <trkpt lat="43.77189335413277149200439453125" lon="1.58590092323720455169677734375">
        <ele>152.399993896484375</ele>
        <time>2026-08-13T08:03:47.000Z</time>
        <extensions>
          <ns3:TrackPointExtension>
            <ns3:hr>126</ns3:hr>
            <ns3:cad>55</ns3:cad>
          </ns3:TrackPointExtension>
        </extensions>
      </trkpt>
      <trkpt lat="43.7718964554369449615478515625" lon="1.58588826656341552734375">
        <ele>152.600006103515625</ele>
        <time>2026-08-13T08:03:48.000Z</time>
        <extensions>
          <ns3:TrackPointExtension>
            <ns3:hr>127</ns3:hr>
            <ns3:cad>55</ns3:cad>
          </ns3:TrackPointExtension>
        </extensions>
      </trkpt>
      <trkpt lat="43.77190073020756244659423828125" lon="1.58587276004254817962646484375">
        <ele>152.8000030517578125</ele>
        <time>2026-08-13T08:03:49.000Z</time>
        <extensions>
          <ns3:TrackPointExtension>
            <ns3:hr>127</ns3:hr>
            <ns3:cad>55</ns3:cad>
          </ns3:TrackPointExtension>
        </extensions>
      </trkpt>
      <trkpt lat="43.7719065137207508087158203125" lon="1.585856415331363677978515625">
        <ele>153</ele>
        <time>2026-08-13T08:03:50.000Z</time>
        <extensions>
          <ns3:TrackPointExtension>
            <ns3:hr>127</ns3:hr>
            <ns3:cad>55</ns3:cad>
          </ns3:TrackPointExtension>
        </extensions>
      </trkpt>
      <trkpt lat="43.7719117105007171630859375" lon="1.5858394838869571685791015625">
        <ele>153.1999969482421875</ele>
        <time>2026-08-13T08:03:51.000Z</time>
        <extensions>
          <ns3:TrackPointExtension>
            <ns3:hr>126</ns3:hr>
            <ns3:cad>55</ns3:cad>
          </ns3:TrackPointExtension>
        </extensions>
      </trkpt>
      <trkpt lat="43.7719185836613178253173828125" lon="1.58582012169063091278076171875">
        <ele>153.1999969482421875</ele>
        <time>2026-08-13T08:03:52.000Z</time>
        <extensions>
          <ns3:TrackPointExtension>
            <ns3:hr>127</ns3:hr>
            <ns3:cad>55</ns3:cad>
          </ns3:TrackPointExtension>
        </extensions>
      </trkpt>
      <trkpt lat="43.77192386426031589508056640625" lon="1.585799418389797210693359375">
        <ele>153.1999969482421875</ele>
        <time>2026-08-13T08:03:53.000Z</time>
        <extensions>
          <ns3:TrackPointExtension>
            <ns3:hr>127</ns3:hr>
            <ns3:cad>54</ns3:cad>
          </ns3:TrackPointExtension>
        </extensions>
      </trkpt>
      <trkpt lat="43.77192981541156768798828125" lon="1.5857791341841220855712890625">
        <ele>153.399993896484375</ele>
        <time>2026-08-13T08:03:54.000Z</time>
        <extensions>
          <ns3:TrackPointExtension>
            <ns3:hr>127</ns3:hr>
            <ns3:cad>54</ns3:cad>
          </ns3:TrackPointExtension>
        </extensions>
      </trkpt>
      <trkpt lat="43.771936185657978057861328125" lon="1.58576061017811298370361328125">
        <ele>153.600006103515625</ele>
        <time>2026-08-13T08:03:55.000Z</time>
        <extensions>
          <ns3:TrackPointExtension>
            <ns3:hr>127</ns3:hr>
            <ns3:cad>54</ns3:cad>
          </ns3:TrackPointExtension>
        </extensions>
      </trkpt>
      <trkpt lat="43.771942220628261566162109375" lon="1.5857462771236896514892578125">
        <ele>153.8000030517578125</ele>
        <time>2026-08-13T08:03:56.000Z</time>
        <extensions>
          <ns3:TrackPointExtension>
            <ns3:hr>128</ns3:hr>
            <ns3:cad>54</ns3:cad>
          </ns3:TrackPointExtension>
        </extensions>
      </trkpt>
      <trkpt lat="43.7719474174082279205322265625" lon="1.5857340395450592041015625">
        <ele>154</ele>
        <time>2026-08-13T08:03:57.000Z</time>
        <extensions>
          <ns3:TrackPointExtension>
            <ns3:hr>128</ns3:hr>
            <ns3:cad>53</ns3:cad>
          </ns3:TrackPointExtension>
        </extensions>
      </trkpt>
      <trkpt lat="43.7719527818262577056884765625" lon="1.58572406508028507232666015625">
        <ele>154.1999969482421875</ele>
        <time>2026-08-13T08:03:58.000Z</time>
        <extensions>
          <ns3:TrackPointExtension>
            <ns3:hr>129</ns3:hr>
            <ns3:cad>53</ns3:cad>
          </ns3:TrackPointExtension>
        </extensions>
      </trkpt>
      <trkpt lat="43.77195521257817745208740234375" lon="1.58572104759514331817626953125">
        <ele>154.1999969482421875</ele>
        <time>2026-08-13T08:03:59.000Z</time>
        <extensions>
          <ns3:TrackPointExtension>
            <ns3:hr>129</ns3:hr>
            <ns3:cad>53</ns3:cad>
          </ns3:TrackPointExtension>
        </extensions>
      </trkpt>
      <trkpt lat="43.7719581462442874908447265625" lon="1.5857228077948093414306640625">
        <ele>154.399993896484375</ele>
        <time>2026-08-13T08:04:00.000Z</time>
        <extensions>
          <ns3:TrackPointExtension>
            <ns3:hr>129</ns3:hr>
            <ns3:cad>0</ns3:cad>
          </ns3:TrackPointExtension>
        </extensions>
      </trkpt>
      <trkpt lat="43.77195856533944606781005859375" lon="1.5857259929180145263671875">
        <ele>154.600006103515625</ele>
        <time>2026-08-13T08:04:01.000Z</time>
        <extensions>
          <ns3:TrackPointExtension>
            <ns3:hr>130</ns3:hr>
            <ns3:cad>0</ns3:cad>
          </ns3:TrackPointExtension>
        </extensions>
      </trkpt>
      <trkpt lat="43.77195663750171661376953125" lon="1.5857295133173465728759765625">
        <ele>154.600006103515625</ele>
        <time>2026-08-13T08:04:02.000Z</time>
        <extensions>
          <ns3:TrackPointExtension>
            <ns3:hr>130</ns3:hr>
            <ns3:cad>0</ns3:cad>
          </ns3:TrackPointExtension>
        </extensions>
      </trkpt>
      <trkpt lat="43.7719564698636531829833984375" lon="1.58572959713637828826904296875">
        <ele>154.600006103515625</ele>
        <time>2026-08-13T08:04:03.000Z</time>
        <extensions>
          <ns3:TrackPointExtension>
            <ns3:hr>130</ns3:hr>
            <ns3:cad>0</ns3:cad>
          </ns3:TrackPointExtension>
        </extensions>
      </trkpt>
      <trkpt lat="43.7719557993113994598388671875" lon="1.58572909422218799591064453125">
        <ele>154.600006103515625</ele>
        <time>2026-08-13T08:04:04.000Z</time>
        <extensions>
          <ns3:TrackPointExtension>
            <ns3:hr>131</ns3:hr>
            <ns3:cad>0</ns3:cad>
          </ns3:TrackPointExtension>
        </extensions>
      </trkpt>
      <trkpt lat="43.77195554785430431365966796875" lon="1.5857275016605854034423828125">
        <ele>154.600006103515625</ele>
        <time>2026-08-13T08:04:05.000Z</time>
        <extensions>
          <ns3:TrackPointExtension>
            <ns3:hr>131</ns3:hr>
            <ns3:cad>0</ns3:cad>
          </ns3:TrackPointExtension>
        </extensions>
      </trkpt>
      <trkpt lat="43.7719561345875263214111328125" lon="1.58572674728929996490478515625">
        <ele>154.399993896484375</ele>
        <time>2026-08-13T08:04:06.000Z</time>
        <extensions>
          <ns3:TrackPointExtension>
            <ns3:hr>131</ns3:hr>
            <ns3:cad>0</ns3:cad>
          </ns3:TrackPointExtension>
        </extensions>
      </trkpt>
      <trkpt lat="43.77195705659687519073486328125" lon="1.5857233107089996337890625">
        <ele>154.399993896484375</ele>
        <time>2026-08-13T08:04:07.000Z</time>
        <extensions>
          <ns3:TrackPointExtension>
            <ns3:hr>130</ns3:hr>
            <ns3:cad>0</ns3:cad>
          </ns3:TrackPointExtension>
        </extensions>
      </trkpt>
      <trkpt lat="43.771958984434604644775390625" lon="1.585718281567096710205078125">
        <ele>154.399993896484375</ele>
        <time>2026-08-13T08:04:08.000Z</time>
        <extensions>
          <ns3:TrackPointExtension>
            <ns3:hr>130</ns3:hr>
            <ns3:cad>0</ns3:cad>
          </ns3:TrackPointExtension>
        </extensions>
      </trkpt>
      <trkpt lat="43.7719591520726680755615234375" lon="1.5857181139290332794189453125">
        <ele>154.399993896484375</ele>
        <time>2026-08-13T08:04:09.000Z</time>
        <extensions>
          <ns3:TrackPointExtension>
            <ns3:hr>130</ns3:hr>
            <ns3:cad>0</ns3:cad>
          </ns3:TrackPointExtension>
        </extensions>
      </trkpt>
      <trkpt lat="43.7719591520726680755615234375" lon="1.5857181139290332794189453125">
        <ele>154.600006103515625</ele>
        <time>2026-08-13T08:04:10.000Z</time>
        <extensions>
          <ns3:TrackPointExtension>
            <ns3:hr>129</ns3:hr>
            <ns3:cad>0</ns3:cad>
          </ns3:TrackPointExtension>
        </extensions>
      </trkpt>
      <trkpt lat="43.7719591520726680755615234375" lon="1.5857181139290332794189453125">
        <ele>154.600006103515625</ele>
        <time>2026-08-13T08:04:11.000Z</time>
        <extensions>
          <ns3:TrackPointExtension>
            <ns3:hr>129</ns3:hr>
            <ns3:cad>0</ns3:cad>
          </ns3:TrackPointExtension>
        </extensions>
      </trkpt>
      <trkpt lat="43.7719591520726680755615234375" lon="1.5857181139290332794189453125">
        <ele>154.600006103515625</ele>
        <time>2026-08-13T08:04:12.000Z</time>
        <extensions>
          <ns3:TrackPointExtension>
            <ns3:hr>129</ns3:hr>
            <ns3:cad>0</ns3:cad>
          </ns3:TrackPointExtension>
        </extensions>
      </trkpt>
      <trkpt lat="43.77195890061557292938232421875" lon="1.58571727573871612548828125">
        <ele>154.600006103515625</ele>
        <time>2026-08-13T08:04:13.000Z</time>
        <extensions>
          <ns3:TrackPointExtension>
            <ns3:hr>128</ns3:hr>
            <ns3:cad>0</ns3:cad>
          </ns3:TrackPointExtension>
        </extensions>
      </trkpt>
      <trkpt lat="43.7719574756920337677001953125" lon="1.5857083909213542938232421875">
        <ele>154.600006103515625</ele>
        <time>2026-08-13T08:04:14.000Z</time>
        <extensions>
          <ns3:TrackPointExtension>
            <ns3:hr>128</ns3:hr>
            <ns3:cad>0</ns3:cad>
          </ns3:TrackPointExtension>
        </extensions>
      </trkpt>
      <trkpt lat="43.77195722423493862152099609375" lon="1.585700847208499908447265625">
        <ele>154.600006103515625</ele>
        <time>2026-08-13T08:04:15.000Z</time>
        <extensions>
          <ns3:TrackPointExtension>
            <ns3:hr>127</ns3:hr>
            <ns3:cad>0</ns3:cad>
          </ns3:TrackPointExtension>
        </extensions>
      </trkpt>
      <trkpt lat="43.77195588313043117523193359375" lon="1.585694141685962677001953125">
        <ele>154.600006103515625</ele>
        <time>2026-08-13T08:04:16.000Z</time>
        <extensions>
          <ns3:TrackPointExtension>
            <ns3:hr>127</ns3:hr>
            <ns3:cad>0</ns3:cad>
          </ns3:TrackPointExtension>
        </extensions>
      </trkpt>
      <trkpt lat="43.7719537876546382904052734375" lon="1.585685424506664276123046875">
        <ele>154.600006103515625</ele>
        <time>2026-08-13T08:04:17.000Z</time>
        <extensions>
          <ns3:TrackPointExtension>
            <ns3:hr>127</ns3:hr>
            <ns3:cad>0</ns3:cad>
          </ns3:TrackPointExtension>
        </extensions>
      </trkpt>
      <trkpt lat="43.77195068635046482086181640625" lon="1.58567729406058788299560546875">
        <ele>154.8000030517578125</ele>
        <time>2026-08-13T08:04:18.000Z</time>
        <extensions>
          <ns3:TrackPointExtension>
            <ns3:hr>126</ns3:hr>
            <ns3:cad>0</ns3:cad>
          </ns3:TrackPointExtension>
        </extensions>
      </trkpt>
      <trkpt lat="43.771947920322418212890625" lon="1.58567033708095550537109375">
        <ele>154.8000030517578125</ele>
        <time>2026-08-13T08:04:19.000Z</time>
        <extensions>
          <ns3:TrackPointExtension>
            <ns3:hr>126</ns3:hr>
            <ns3:cad>0</ns3:cad>
          </ns3:TrackPointExtension>
        </extensions>
      </trkpt>
      <trkpt lat="43.771947920322418212890625" lon="1.58566363155841827392578125">
        <ele>154.8000030517578125</ele>
        <time>2026-08-13T08:04:20.000Z</time>
        <extensions>
          <ns3:TrackPointExtension>
            <ns3:hr>125</ns3:hr>
            <ns3:cad>0</ns3:cad>
          </ns3:TrackPointExtension>
        </extensions>
      </trkpt>
      <trkpt lat="43.7719470821321010589599609375" lon="1.58565835095942020416259765625">
        <ele>154.600006103515625</ele>
        <time>2026-08-13T08:04:21.000Z</time>
        <extensions>
          <ns3:TrackPointExtension>
            <ns3:hr>124</ns3:hr>
            <ns3:cad>0</ns3:cad>
          </ns3:TrackPointExtension>
        </extensions>
      </trkpt>
      <trkpt lat="43.77194590866565704345703125" lon="1.58565650694072246551513671875">
        <ele>154.600006103515625</ele>
        <time>2026-08-13T08:04:22.000Z</time>
        <extensions>
          <ns3:TrackPointExtension>
            <ns3:hr>123</ns3:hr>
            <ns3:cad>0</ns3:cad>
          </ns3:TrackPointExtension>
        </extensions>
      </trkpt>
      <trkpt lat="43.7719452381134033203125" lon="1.58565483056008815765380859375">
        <ele>154.600006103515625</ele>
        <time>2026-08-13T08:04:23.000Z</time>
        <extensions>
          <ns3:TrackPointExtension>
            <ns3:hr>121</ns3:hr>
            <ns3:cad>0</ns3:cad>
          </ns3:TrackPointExtension>
        </extensions>
      </trkpt>
      <trkpt lat="43.77194314263761043548583984375" lon="1.5856544114649295806884765625">
        <ele>154.600006103515625</ele>
        <time>2026-08-13T08:04:24.000Z</time>
        <extensions>
          <ns3:TrackPointExtension>
            <ns3:hr>120</ns3:hr>
            <ns3:cad>0</ns3:cad>
          </ns3:TrackPointExtension>
        </extensions>
      </trkpt>
      <trkpt lat="43.77194180153310298919677734375" lon="1.5856547467410564422607421875">
        <ele>154.600006103515625</ele>
        <time>2026-08-13T08:04:25.000Z</time>
        <extensions>
          <ns3:TrackPointExtension>
            <ns3:hr>119</ns3:hr>
            <ns3:cad>0</ns3:cad>
          </ns3:TrackPointExtension>
        </extensions>
      </trkpt>
      <trkpt lat="43.77193777821958065032958984375" lon="1.58564795739948749542236328125">
        <ele>154.600006103515625</ele>
        <time>2026-08-13T08:04:26.000Z</time>
        <extensions>
          <ns3:TrackPointExtension>
            <ns3:hr>118</ns3:hr>
            <ns3:cad>0</ns3:cad>
          </ns3:TrackPointExtension>
        </extensions>
      </trkpt>
      <trkpt lat="43.77193559892475605010986328125" lon="1.58564493991434574127197265625">
        <ele>154.600006103515625</ele>
        <time>2026-08-13T08:04:27.000Z</time>
        <extensions>
          <ns3:TrackPointExtension>
            <ns3:hr>118</ns3:hr>
            <ns3:cad>0</ns3:cad>
          </ns3:TrackPointExtension>
        </extensions>
      </trkpt>
      <trkpt lat="43.7719333358108997344970703125" lon="1.58564192242920398712158203125">
        <ele>154.600006103515625</ele>
        <time>2026-08-13T08:04:28.000Z</time>
        <extensions>
          <ns3:TrackPointExtension>
            <ns3:hr>117</ns3:hr>
            <ns3:cad>0</ns3:cad>
          </ns3:TrackPointExtension>
        </extensions>
      </trkpt>
      <trkpt lat="43.77193224616348743438720703125" lon="1.585639826953411102294921875">
        <ele>154.8000030517578125</ele>
        <time>2026-08-13T08:04:29.000Z</time>
        <extensions>
          <ns3:TrackPointExtension>
            <ns3:hr>117</ns3:hr>
            <ns3:cad>0</ns3:cad>
          </ns3:TrackPointExtension>
        </extensions>
      </trkpt>
      <trkpt lat="43.77193274907767772674560546875" lon="1.58564024604856967926025390625">
        <ele>154.8000030517578125</ele>
        <time>2026-08-13T08:04:30.000Z</time>
        <extensions>
          <ns3:TrackPointExtension>
            <ns3:hr>116</ns3:hr>
            <ns3:cad>0</ns3:cad>
          </ns3:TrackPointExtension>
        </extensions>
      </trkpt>
      <trkpt lat="43.7719333358108997344970703125" lon="1.58564242534339427947998046875">
        <ele>154.8000030517578125</ele>
        <time>2026-08-13T08:04:31.000Z</time>
        <extensions>
          <ns3:TrackPointExtension>
            <ns3:hr>116</ns3:hr>
            <ns3:cad>0</ns3:cad>
          </ns3:TrackPointExtension>
        </extensions>
      </trkpt>
      <trkpt lat="43.77193450927734375" lon="1.58564619719982147216796875">
        <ele>154.600006103515625</ele>
        <time>2026-08-13T08:04:32.000Z</time>
        <extensions>
          <ns3:TrackPointExtension>
            <ns3:hr>114</ns3:hr>
            <ns3:cad>0</ns3:cad>
          </ns3:TrackPointExtension>
        </extensions>
      </trkpt>
      <trkpt lat="43.7719360180199146270751953125" lon="1.58564846031367778778076171875">
        <ele>154.600006103515625</ele>
        <time>2026-08-13T08:04:33.000Z</time>
        <extensions>
          <ns3:TrackPointExtension>
            <ns3:hr>112</ns3:hr>
            <ns3:cad>0</ns3:cad>
          </ns3:TrackPointExtension>
        </extensions>
      </trkpt>
      <trkpt lat="43.77193626947700977325439453125" lon="1.58564753830432891845703125">
        <ele>154.600006103515625</ele>
        <time>2026-08-13T08:04:34.000Z</time>
        <extensions>
          <ns3:TrackPointExtension>
            <ns3:hr>111</ns3:hr>
            <ns3:cad>0</ns3:cad>
          </ns3:TrackPointExtension>
        </extensions>
      </trkpt>
      <trkpt lat="43.771936856210231781005859375" lon="1.5856477059423923492431640625">
        <ele>154.600006103515625</ele>
        <time>2026-08-13T08:04:35.000Z</time>
        <extensions>
          <ns3:TrackPointExtension>
            <ns3:hr>110</ns3:hr>
            <ns3:cad>0</ns3:cad>
          </ns3:TrackPointExtension>
        </extensions>
      </trkpt>
      <trkpt lat="43.77193744294345378875732421875" lon="1.58565885387361049652099609375">
        <ele>154.600006103515625</ele>
        <time>2026-08-13T08:04:36.000Z</time>
        <extensions>
          <ns3:TrackPointExtension>
            <ns3:hr>109</ns3:hr>
            <ns3:cad>0</ns3:cad>
          </ns3:TrackPointExtension>
        </extensions>
      </trkpt>
      <trkpt lat="43.77193727530539035797119140625" lon="1.58566094934940338134765625">
        <ele>154.600006103515625</ele>
        <time>2026-08-13T08:04:37.000Z</time>
        <extensions>
          <ns3:TrackPointExtension>
            <ns3:hr>108</ns3:hr>
            <ns3:cad>0</ns3:cad>
          </ns3:TrackPointExtension>
        </extensions>
      </trkpt>
      <trkpt lat="43.7719387002289295196533203125" lon="1.5856637991964817047119140625">
        <ele>154.600006103515625</ele>
        <time>2026-08-13T08:04:38.000Z</time>
        <extensions>
          <ns3:TrackPointExtension>
            <ns3:hr>107</ns3:hr>
            <ns3:cad>0</ns3:cad>
          </ns3:TrackPointExtension>
        </extensions>
      </trkpt>
      <trkpt lat="43.7719420529901981353759765625" lon="1.58566589467227458953857421875">
        <ele>154.600006103515625</ele>
        <time>2026-08-13T08:04:39.000Z</time>
        <extensions>
          <ns3:TrackPointExtension>
            <ns3:hr>106</ns3:hr>
            <ns3:cad>0</ns3:cad>
          </ns3:TrackPointExtension>
        </extensions>
      </trkpt>
      <trkpt lat="43.77194515429437160491943359375" lon="1.5856664814054965972900390625">
        <ele>154.600006103515625</ele>
        <time>2026-08-13T08:04:40.000Z</time>
        <extensions>
          <ns3:TrackPointExtension>
            <ns3:hr>106</ns3:hr>
            <ns3:cad>0</ns3:cad>
          </ns3:TrackPointExtension>
        </extensions>
      </trkpt>
      <trkpt lat="43.77194599248468875885009765625" lon="1.58566296100616455078125">
        <ele>154.600006103515625</ele>
        <time>2026-08-13T08:04:41.000Z</time>
        <extensions>
          <ns3:TrackPointExtension>
            <ns3:hr>105</ns3:hr>
            <ns3:cad>0</ns3:cad>
          </ns3:TrackPointExtension>
        </extensions>
      </trkpt>
      <trkpt lat="43.7719517759978771209716796875" lon="1.585670001804828643798828125">
        <ele>154.600006103515625</ele>
        <time>2026-08-13T08:04:42.000Z</time>
        <extensions>
          <ns3:TrackPointExtension>
            <ns3:hr>104</ns3:hr>
            <ns3:cad>0</ns3:cad>
          </ns3:TrackPointExtension>
        </extensions>
      </trkpt>
      <trkpt lat="43.7719541229307651519775390625" lon="1.58567301928997039794921875">
        <ele>154.600006103515625</ele>
        <time>2026-08-13T08:04:43.000Z</time>
        <extensions>
          <ns3:TrackPointExtension>
            <ns3:hr>104</ns3:hr>
            <ns3:cad>0</ns3:cad>
          </ns3:TrackPointExtension>
        </extensions>
      </trkpt>
      <trkpt lat="43.77195437438786029815673828125" lon="1.58567301928997039794921875">
        <ele>154.600006103515625</ele>
        <time>2026-08-13T08:04:44.000Z</time>
        <extensions>
          <ns3:TrackPointExtension>
            <ns3:hr>103</ns3:hr>
            <ns3:cad>0</ns3:cad>
          </ns3:TrackPointExtension>
        </extensions>
      </trkpt>
      <trkpt lat="43.77195437438786029815673828125" lon="1.58567301928997039794921875">
        <ele>154.600006103515625</ele>
        <time>2026-08-13T08:04:45.000Z</time>
        <extensions>
          <ns3:TrackPointExtension>
            <ns3:hr>103</ns3:hr>
            <ns3:cad>0</ns3:cad>
          </ns3:TrackPointExtension>
        </extensions>
      </trkpt>
      <trkpt lat="43.7719547934830188751220703125" lon="1.58567301928997039794921875">
        <ele>154.8000030517578125</ele>
        <time>2026-08-13T08:04:46.000Z</time>
        <extensions>
          <ns3:TrackPointExtension>
            <ns3:hr>102</ns3:hr>
            <ns3:cad>0</ns3:cad>
          </ns3:TrackPointExtension>
        </extensions>
      </trkpt>
      <trkpt lat="43.77196066081523895263671875" lon="1.58568316139280796051025390625">
        <ele>154.600006103515625</ele>
        <time>2026-08-13T08:04:47.000Z</time>
        <extensions>
          <ns3:TrackPointExtension>
            <ns3:hr>100</ns3:hr>
            <ns3:cad>0</ns3:cad>
          </ns3:TrackPointExtension>
        </extensions>
      </trkpt>
      <trkpt lat="43.77196024172008037567138671875" lon="1.58569305203855037689208984375">
        <ele>154.600006103515625</ele>
        <time>2026-08-13T08:04:48.000Z</time>
        <extensions>
          <ns3:TrackPointExtension>
            <ns3:hr>98</ns3:hr>
            <ns3:cad>0</ns3:cad>
          </ns3:TrackPointExtension>
        </extensions>
      </trkpt>
      <trkpt lat="43.77195806242525577545166015625" lon="1.58568936400115489959716796875">
        <ele>154.600006103515625</ele>
        <time>2026-08-13T08:04:49.000Z</time>
        <extensions>
          <ns3:TrackPointExtension>
            <ns3:hr>96</ns3:hr>
            <ns3:cad>0</ns3:cad>
          </ns3:TrackPointExtension>
        </extensions>
      </trkpt>
      <trkpt lat="43.77195538021624088287353515625" lon="1.5856872685253620147705078125">
        <ele>154.600006103515625</ele>
        <time>2026-08-13T08:04:50.000Z</time>
        <extensions>
          <ns3:TrackPointExtension>
            <ns3:hr>94</ns3:hr>
            <ns3:cad>0</ns3:cad>
          </ns3:TrackPointExtension>
        </extensions>
      </trkpt>
      <trkpt lat="43.77195940352976322174072265625" lon="1.58568416722118854522705078125">
        <ele>154.399993896484375</ele>
        <time>2026-08-13T08:04:51.000Z</time>
        <extensions>
          <ns3:TrackPointExtension>
            <ns3:hr>94</ns3:hr>
            <ns3:cad>0</ns3:cad>
          </ns3:TrackPointExtension>
        </extensions>
      </trkpt>
      <trkpt lat="43.7719544582068920135498046875" lon="1.58568450249731540679931640625">
        <ele>154.399993896484375</ele>
        <time>2026-08-13T08:04:52.000Z</time>
        <extensions>
          <ns3:TrackPointExtension>
            <ns3:hr>93</ns3:hr>
            <ns3:cad>0</ns3:cad>
          </ns3:TrackPointExtension>
        </extensions>
      </trkpt>
      <trkpt lat="43.7719554640352725982666015625" lon="1.58568081445991992950439453125">
        <ele>154.399993896484375</ele>
        <time>2026-08-13T08:04:53.000Z</time>
        <extensions>
          <ns3:TrackPointExtension>
            <ns3:hr>93</ns3:hr>
            <ns3:cad>0</ns3:cad>
          </ns3:TrackPointExtension>
        </extensions>
      </trkpt>
      <trkpt lat="43.7719557993113994598388671875" lon="1.5856772102415561676025390625">
        <ele>154.399993896484375</ele>
        <time>2026-08-13T08:04:54.000Z</time>
        <extensions>
          <ns3:TrackPointExtension>
            <ns3:hr>94</ns3:hr>
            <ns3:cad>0</ns3:cad>
          </ns3:TrackPointExtension>
        </extensions>
      </trkpt>
      <trkpt lat="43.77195663750171661376953125" lon="1.5856750309467315673828125">
        <ele>154.399993896484375</ele>
        <time>2026-08-13T08:04:55.000Z</time>
        <extensions>
          <ns3:TrackPointExtension>
            <ns3:hr>95</ns3:hr>
            <ns3:cad>0</ns3:cad>
          </ns3:TrackPointExtension>
        </extensions>
      </trkpt>
      <trkpt lat="43.7719591520726680755615234375" lon="1.58567528240382671356201171875">
        <ele>154.399993896484375</ele>
        <time>2026-08-13T08:04:56.000Z</time>
        <extensions>
          <ns3:TrackPointExtension>
            <ns3:hr>95</ns3:hr>
            <ns3:cad>0</ns3:cad>
          </ns3:TrackPointExtension>
        </extensions>
      </trkpt>
      <trkpt lat="43.77195906825363636016845703125" lon="1.585673354566097259521484375">
        <ele>154.399993896484375</ele>
        <time>2026-08-13T08:04:57.000Z</time>
        <extensions>
          <ns3:TrackPointExtension>
            <ns3:hr>95</ns3:hr>
            <ns3:cad>0</ns3:cad>
          </ns3:TrackPointExtension>
        </extensions>
      </trkpt>
      <trkpt lat="43.7719601579010486602783203125" lon="1.585673354566097259521484375">
        <ele>154.399993896484375</ele>
        <time>2026-08-13T08:04:58.000Z</time>
        <extensions>
          <ns3:TrackPointExtension>
            <ns3:hr>95</ns3:hr>
            <ns3:cad>0</ns3:cad>
          </ns3:TrackPointExtension>
        </extensions>
      </trkpt>
      <trkpt lat="43.77195940352976322174072265625" lon="1.58567293547093868255615234375">
        <ele>154.399993896484375</ele>
        <time>2026-08-13T08:04:59.000Z</time>
        <extensions>
          <ns3:TrackPointExtension>
            <ns3:hr>94</ns3:hr>
            <ns3:cad>0</ns3:cad>
          </ns3:TrackPointExtension>
        </extensions>
      </trkpt>
      <trkpt lat="43.77196627669036388397216796875" lon="1.5856768749654293060302734375">
        <ele>154.399993896484375</ele>
        <time>2026-08-13T08:05:00.000Z</time>
        <extensions>
          <ns3:TrackPointExtension>
            <ns3:hr>94</ns3:hr>
            <ns3:cad>0</ns3:cad>
          </ns3:TrackPointExtension>
        </extensions>
      </trkpt>
      <trkpt lat="43.7719692103564739227294921875" lon="1.58567863516509532928466796875">
        <ele>154.399993896484375</ele>
        <time>2026-08-13T08:05:01.000Z</time>
        <extensions>
          <ns3:TrackPointExtension>
            <ns3:hr>95</ns3:hr>
            <ns3:cad>0</ns3:cad>
          </ns3:TrackPointExtension>
        </extensions>
      </trkpt>
      <trkpt lat="43.7719695456326007843017578125" lon="1.58567897044122219085693359375">
        <ele>154.399993896484375</ele>
        <time>2026-08-13T08:05:02.000Z</time>
        <extensions>
          <ns3:TrackPointExtension>
            <ns3:hr>95</ns3:hr>
            <ns3:cad>0</ns3:cad>
          </ns3:TrackPointExtension>
        </extensions>
      </trkpt>
      <trkpt lat="43.77197080291807651519775390625" lon="1.58567972481250762939453125">
        <ele>154.399993896484375</ele>
        <time>2026-08-13T08:05:03.000Z</time>
        <extensions>
          <ns3:TrackPointExtension>
            <ns3:hr>95</ns3:hr>
            <ns3:cad>0</ns3:cad>
          </ns3:TrackPointExtension>
        </extensions>
      </trkpt>
      <trkpt lat="43.771972395479679107666015625" lon="1.585682742297649383544921875">
        <ele>154.399993896484375</ele>
        <time>2026-08-13T08:05:04.000Z</time>
        <extensions>
          <ns3:TrackPointExtension>
            <ns3:hr>96</ns3:hr>
            <ns3:cad>0</ns3:cad>
          </ns3:TrackPointExtension>
        </extensions>
      </trkpt>
      <trkpt lat="43.77197138965129852294921875" lon="1.58568265847861766815185546875">
        <ele>154.399993896484375</ele>
        <time>2026-08-13T08:05:05.000Z</time>
        <extensions>
          <ns3:TrackPointExtension>
            <ns3:hr>96</ns3:hr>
            <ns3:cad>0</ns3:cad>
          </ns3:TrackPointExtension>
        </extensions>
      </trkpt>
      <trkpt lat="43.771969377994537353515625" lon="1.585682742297649383544921875">
        <ele>154.399993896484375</ele>
        <time>2026-08-13T08:05:06.000Z</time>
        <extensions>
          <ns3:TrackPointExtension>
            <ns3:hr>96</ns3:hr>
            <ns3:cad>0</ns3:cad>
          </ns3:TrackPointExtension>
        </extensions>
      </trkpt>
      <trkpt lat="43.77196644432842731475830078125" lon="1.585681401193141937255859375">
        <ele>154.399993896484375</ele>
        <time>2026-08-13T08:05:07.000Z</time>
        <extensions>
          <ns3:TrackPointExtension>
            <ns3:hr>95</ns3:hr>
            <ns3:cad>0</ns3:cad>
          </ns3:TrackPointExtension>
        </extensions>
      </trkpt>
      <trkpt lat="43.77196334302425384521484375" lon="1.58568299375474452972412109375">
        <ele>154.399993896484375</ele>
        <time>2026-08-13T08:05:08.000Z</time>
        <extensions>
          <ns3:TrackPointExtension>
            <ns3:hr>94</ns3:hr>
            <ns3:cad>0</ns3:cad>
          </ns3:TrackPointExtension>
        </extensions>
      </trkpt>
      <trkpt lat="43.77196074463427066802978515625" lon="1.5856829099357128143310546875">
        <ele>154.399993896484375</ele>
        <time>2026-08-13T08:05:09.000Z</time>
        <extensions>
          <ns3:TrackPointExtension>
            <ns3:hr>90</ns3:hr>
            <ns3:cad>0</ns3:cad>
          </ns3:TrackPointExtension>
        </extensions>
      </trkpt>
      <trkpt lat="43.77195797860622406005859375" lon="1.58568508923053741455078125">
        <ele>154.399993896484375</ele>
        <time>2026-08-13T08:05:10.000Z</time>
        <extensions>
          <ns3:TrackPointExtension>
            <ns3:hr>89</ns3:hr>
            <ns3:cad>0</ns3:cad>
          </ns3:TrackPointExtension>
        </extensions>
      </trkpt>
      <trkpt lat="43.7719544582068920135498046875" lon="1.58568433485925197601318359375">
        <ele>154.399993896484375</ele>
        <time>2026-08-13T08:05:11.000Z</time>
        <extensions>
          <ns3:TrackPointExtension>
            <ns3:hr>88</ns3:hr>
            <ns3:cad>0</ns3:cad>
          </ns3:TrackPointExtension>
        </extensions>
      </trkpt>
      <trkpt lat="43.77194833941757678985595703125" lon="1.58568240702152252197265625">
        <ele>154.600006103515625</ele>
        <time>2026-08-13T08:05:12.000Z</time>
        <extensions>
          <ns3:TrackPointExtension>
            <ns3:hr>87</ns3:hr>
            <ns3:cad>0</ns3:cad>
          </ns3:TrackPointExtension>
        </extensions>
      </trkpt>
      <trkpt lat="43.77194331027567386627197265625" lon="1.5856815688312053680419921875">
        <ele>154.600006103515625</ele>
        <time>2026-08-13T08:05:13.000Z</time>
        <extensions>
          <ns3:TrackPointExtension>
            <ns3:hr>85</ns3:hr>
            <ns3:cad>0</ns3:cad>
          </ns3:TrackPointExtension>
        </extensions>
      </trkpt>
      <trkpt lat="43.77194347791373729705810546875" lon="1.58568399958312511444091796875">
        <ele>154.399993896484375</ele>
        <time>2026-08-13T08:05:14.000Z</time>
        <extensions>
          <ns3:TrackPointExtension>
            <ns3:hr>82</ns3:hr>
            <ns3:cad>0</ns3:cad>
          </ns3:TrackPointExtension>
        </extensions>
      </trkpt>
      <trkpt lat="43.7719438970088958740234375" lon="1.58568316139280796051025390625">
        <ele>154.600006103515625</ele>
        <time>2026-08-13T08:05:15.000Z</time>
        <extensions>
          <ns3:TrackPointExtension>
            <ns3:hr>81</ns3:hr>
            <ns3:cad>0</ns3:cad>
          </ns3:TrackPointExtension>
        </extensions>
      </trkpt>
      <trkpt lat="43.7719440646469593048095703125" lon="1.58568282611668109893798828125">
        <ele>154.399993896484375</ele>
        <time>2026-08-13T08:05:16.000Z</time>
        <extensions>
          <ns3:TrackPointExtension>
            <ns3:hr>79</ns3:hr>
            <ns3:cad>0</ns3:cad>
          </ns3:TrackPointExtension>
        </extensions>
      </trkpt>
      <trkpt lat="43.77194381318986415863037109375" lon="1.58568249084055423736572265625">
        <ele>154.399993896484375</ele>
        <time>2026-08-13T08:05:17.000Z</time>
        <extensions>
          <ns3:TrackPointExtension>
            <ns3:hr>79</ns3:hr>
            <ns3:cad>0</ns3:cad>
          </ns3:TrackPointExtension>
        </extensions>
      </trkpt>
      <trkpt lat="43.77194498665630817413330078125" lon="1.585684753954410552978515625">
        <ele>154.600006103515625</ele>
        <time>2026-08-13T08:05:18.000Z</time>
        <extensions>
          <ns3:TrackPointExtension>
            <ns3:hr>79</ns3:hr>
            <ns3:cad>0</ns3:cad>
          </ns3:TrackPointExtension>
        </extensions>
      </trkpt>
      <trkpt lat="43.77194859087467193603515625" lon="1.5856869332492351531982421875">
        <ele>154.600006103515625</ele>
        <time>2026-08-13T08:05:19.000Z</time>
        <extensions>
          <ns3:TrackPointExtension>
            <ns3:hr>79</ns3:hr>
            <ns3:cad>0</ns3:cad>
          </ns3:TrackPointExtension>
        </extensions>
      </trkpt>
      <trkpt lat="43.77194867469370365142822265625" lon="1.58568969927728176116943359375">
        <ele>154.600006103515625</ele>
        <time>2026-08-13T08:05:20.000Z</time>
        <extensions>
          <ns3:TrackPointExtension>
            <ns3:hr>80</ns3:hr>
            <ns3:cad>0</ns3:cad>
          </ns3:TrackPointExtension>
        </extensions>
      </trkpt>
      <trkpt lat="43.77194833941757678985595703125" lon="1.5856906212866306304931640625">
        <ele>154.8000030517578125</ele>
        <time>2026-08-13T08:05:21.000Z</time>
        <extensions>
          <ns3:TrackPointExtension>
            <ns3:hr>80</ns3:hr>
            <ns3:cad>0</ns3:cad>
          </ns3:TrackPointExtension>
        </extensions>
      </trkpt>
      <trkpt lat="43.7719504348933696746826171875" lon="1.58569221384823322296142578125">
        <ele>154.8000030517578125</ele>
        <time>2026-08-13T08:05:22.000Z</time>
        <extensions>
          <ns3:TrackPointExtension>
            <ns3:hr>80</ns3:hr>
            <ns3:cad>0</ns3:cad>
          </ns3:TrackPointExtension>
        </extensions>
      </trkpt>
      <trkpt lat="43.771953284740447998046875" lon="1.58569472841918468475341796875">
        <ele>154.8000030517578125</ele>
        <time>2026-08-13T08:05:23.000Z</time>
        <extensions>
          <ns3:TrackPointExtension>
            <ns3:hr>80</ns3:hr>
            <ns3:cad>0</ns3:cad>
          </ns3:TrackPointExtension>
        </extensions>
      </trkpt>
      <trkpt lat="43.77195253036916255950927734375" lon="1.58569439314305782318115234375">
        <ele>154.8000030517578125</ele>
        <time>2026-08-13T08:05:24.000Z</time>
        <extensions>
          <ns3:TrackPointExtension>
            <ns3:hr>80</ns3:hr>
            <ns3:cad>0</ns3:cad>
          </ns3:TrackPointExtension>
        </extensions>
      </trkpt>
      <trkpt lat="43.7719524465501308441162109375" lon="1.58569447696208953857421875">
        <ele>154.8000030517578125</ele>
        <time>2026-08-13T08:05:25.000Z</time>
        <extensions>
          <ns3:TrackPointExtension>
            <ns3:hr>79</ns3:hr>
            <ns3:cad>0</ns3:cad>
          </ns3:TrackPointExtension>
        </extensions>
      </trkpt>
      <trkpt lat="43.7719524465501308441162109375" lon="1.58569447696208953857421875">
        <ele>154.8000030517578125</ele>
        <time>2026-08-13T08:05:26.000Z</time>
        <extensions>
          <ns3:TrackPointExtension>
            <ns3:hr>78</ns3:hr>
            <ns3:cad>0</ns3:cad>
          </ns3:TrackPointExtension>
        </extensions>
      </trkpt>
      <trkpt lat="43.7719524465501308441162109375" lon="1.58569447696208953857421875">
        <ele>154.8000030517578125</ele>
        <time>2026-08-13T08:05:27.000Z</time>
        <extensions>
          <ns3:TrackPointExtension>
            <ns3:hr>76</ns3:hr>
            <ns3:cad>0</ns3:cad>
          </ns3:TrackPointExtension>
        </extensions>
      </trkpt>
      <trkpt lat="43.7719524465501308441162109375" lon="1.58569447696208953857421875">
        <ele>154.8000030517578125</ele>
        <time>2026-08-13T08:05:28.000Z</time>
        <extensions>
          <ns3:TrackPointExtension>
            <ns3:hr>74</ns3:hr>
            <ns3:cad>0</ns3:cad>
          </ns3:TrackPointExtension>
        </extensions>
      </trkpt>
      <trkpt lat="43.7719524465501308441162109375" lon="1.58569447696208953857421875">
        <ele>154.8000030517578125</ele>
        <time>2026-08-13T08:05:29.000Z</time>
        <extensions>
          <ns3:TrackPointExtension>
            <ns3:hr>73</ns3:hr>
            <ns3:cad>0</ns3:cad>
          </ns3:TrackPointExtension>
        </extensions>
      </trkpt>
      <trkpt lat="43.7719524465501308441162109375" lon="1.58569447696208953857421875">
        <ele>154.8000030517578125</ele>
        <time>2026-08-13T08:05:30.000Z</time>
        <extensions>
          <ns3:TrackPointExtension>
            <ns3:hr>72</ns3:hr>
            <ns3:cad>0</ns3:cad>
          </ns3:TrackPointExtension>
        </extensions>
      </trkpt>
      <trkpt lat="43.7719524465501308441162109375" lon="1.58569447696208953857421875">
        <ele>154.8000030517578125</ele>
        <time>2026-08-13T08:05:31.000Z</time>
        <extensions>
          <ns3:TrackPointExtension>
            <ns3:hr>72</ns3:hr>
            <ns3:cad>0</ns3:cad>
          </ns3:TrackPointExtension>
        </extensions>
      </trkpt>
      <trkpt lat="43.7719524465501308441162109375" lon="1.58569447696208953857421875">
        <ele>154.8000030517578125</ele>
        <time>2026-08-13T08:05:32.000Z</time>
        <extensions>
          <ns3:TrackPointExtension>
            <ns3:hr>72</ns3:hr>
            <ns3:cad>0</ns3:cad>
          </ns3:TrackPointExtension>
        </extensions>
      </trkpt>
      <trkpt lat="43.7719524465501308441162109375" lon="1.58569447696208953857421875">
        <ele>154.8000030517578125</ele>
        <time>2026-08-13T08:05:33.000Z</time>
        <extensions>
          <ns3:TrackPointExtension>
            <ns3:hr>72</ns3:hr>
            <ns3:cad>0</ns3:cad>
          </ns3:TrackPointExtension>
        </extensions>
      </trkpt>
      <trkpt lat="43.7719524465501308441162109375" lon="1.58569447696208953857421875">
        <ele>154.8000030517578125</ele>
        <time>2026-08-13T08:05:34.000Z</time>
        <extensions>
          <ns3:TrackPointExtension>
            <ns3:hr>72</ns3:hr>
            <ns3:cad>0</ns3:cad>
          </ns3:TrackPointExtension>
        </extensions>
      </trkpt>
      <trkpt lat="43.7719524465501308441162109375" lon="1.58569447696208953857421875">
        <ele>154.8000030517578125</ele>
        <time>2026-08-13T08:05:35.000Z</time>
        <extensions>
          <ns3:TrackPointExtension>
            <ns3:hr>71</ns3:hr>
            <ns3:cad>0</ns3:cad>
          </ns3:TrackPointExtension>
        </extensions>
      </trkpt>
      <trkpt lat="43.7719524465501308441162109375" lon="1.58569447696208953857421875">
        <ele>154.8000030517578125</ele>
        <time>2026-08-13T08:05:36.000Z</time>
        <extensions>
          <ns3:TrackPointExtension>
            <ns3:hr>71</ns3:hr>
            <ns3:cad>0</ns3:cad>
          </ns3:TrackPointExtension>
        </extensions>
      </trkpt>
      <trkpt lat="43.7719524465501308441162109375" lon="1.58569447696208953857421875">
        <ele>154.8000030517578125</ele>
        <time>2026-08-13T08:05:37.000Z</time>
        <extensions>
          <ns3:TrackPointExtension>
            <ns3:hr>70</ns3:hr>
            <ns3:cad>0</ns3:cad>
          </ns3:TrackPointExtension>
        </extensions>
      </trkpt>
      <trkpt lat="43.7719524465501308441162109375" lon="1.58569447696208953857421875">
        <ele>154.8000030517578125</ele>
        <time>2026-08-13T08:05:38.000Z</time>
        <extensions>
          <ns3:TrackPointExtension>
            <ns3:hr>69</ns3:hr>
            <ns3:cad>0</ns3:cad>
          </ns3:TrackPointExtension>
        </extensions>
      </trkpt>
      <trkpt lat="43.7719524465501308441162109375" lon="1.58569447696208953857421875">
        <ele>154.8000030517578125</ele>
        <time>2026-08-13T08:05:39.000Z</time>
        <extensions>
          <ns3:TrackPointExtension>
            <ns3:hr>69</ns3:hr>
            <ns3:cad>0</ns3:cad>
          </ns3:TrackPointExtension>
        </extensions>
      </trkpt>
      <trkpt lat="43.7719524465501308441162109375" lon="1.58569447696208953857421875">
        <ele>154.8000030517578125</ele>
        <time>2026-08-13T08:05:40.000Z</time>
        <extensions>
          <ns3:TrackPointExtension>
            <ns3:hr>69</ns3:hr>
            <ns3:cad>0</ns3:cad>
          </ns3:TrackPointExtension>
        </extensions>
      </trkpt>
      <trkpt lat="43.7719524465501308441162109375" lon="1.58569447696208953857421875">
        <ele>154.8000030517578125</ele>
        <time>2026-08-13T08:05:41.000Z</time>
        <extensions>
          <ns3:TrackPointExtension>
            <ns3:hr>69</ns3:hr>
            <ns3:cad>0</ns3:cad>
          </ns3:TrackPointExtension>
        </extensions>
      </trkpt>
      <trkpt lat="43.7719524465501308441162109375" lon="1.58569447696208953857421875">
        <ele>154.8000030517578125</ele>
        <time>2026-08-13T08:05:42.000Z</time>
        <extensions>
          <ns3:TrackPointExtension>
            <ns3:hr>69</ns3:hr>
            <ns3:cad>0</ns3:cad>
          </ns3:TrackPointExtension>
        </extensions>
      </trkpt>
      <trkpt lat="43.7719524465501308441162109375" lon="1.58569447696208953857421875">
        <ele>154.8000030517578125</ele>
        <time>2026-08-13T08:05:43.000Z</time>
        <extensions>
          <ns3:TrackPointExtension>
            <ns3:hr>69</ns3:hr>
            <ns3:cad>0</ns3:cad>
          </ns3:TrackPointExtension>
        </extensions>
      </trkpt>
      <trkpt lat="43.7719524465501308441162109375" lon="1.58569447696208953857421875">
        <ele>154.8000030517578125</ele>
        <time>2026-08-13T08:05:44.000Z</time>
        <extensions>
          <ns3:TrackPointExtension>
            <ns3:hr>69</ns3:hr>
            <ns3:cad>0</ns3:cad>
          </ns3:TrackPointExtension>
        </extensions>
      </trkpt>
      <trkpt lat="43.7719524465501308441162109375" lon="1.58569447696208953857421875">
        <ele>154.8000030517578125</ele>
        <time>2026-08-13T08:05:45.000Z</time>
        <extensions>
          <ns3:TrackPointExtension>
            <ns3:hr>69</ns3:hr>
            <ns3:cad>0</ns3:cad>
          </ns3:TrackPointExtension>
        </extensions>
      </trkpt>
      <trkpt lat="43.7719524465501308441162109375" lon="1.58569447696208953857421875">
        <ele>154.600006103515625</ele>
        <time>2026-08-13T08:05:46.000Z</time>
        <extensions>
          <ns3:TrackPointExtension>
            <ns3:hr>68</ns3:hr>
            <ns3:cad>0</ns3:cad>
          </ns3:TrackPointExtension>
        </extensions>
      </trkpt>
      <trkpt lat="43.7719524465501308441162109375" lon="1.58569447696208953857421875">
        <ele>154.600006103515625</ele>
        <time>2026-08-13T08:05:47.000Z</time>
        <extensions>
          <ns3:TrackPointExtension>
            <ns3:hr>69</ns3:hr>
            <ns3:cad>0</ns3:cad>
          </ns3:TrackPointExtension>
        </extensions>
      </trkpt>
      <trkpt lat="43.7719524465501308441162109375" lon="1.58569447696208953857421875">
        <ele>154.600006103515625</ele>
        <time>2026-08-13T08:05:48.000Z</time>
        <extensions>
          <ns3:TrackPointExtension>
            <ns3:hr>70</ns3:hr>
            <ns3:cad>0</ns3:cad>
          </ns3:TrackPointExtension>
        </extensions>
      </trkpt>
      <trkpt lat="43.7719551287591457366943359375" lon="1.5856886096298694610595703125">
        <ele>154.600006103515625</ele>
        <time>2026-08-13T08:05:49.000Z</time>
        <extensions>
          <ns3:TrackPointExtension>
            <ns3:hr>71</ns3:hr>
            <ns3:cad>0</ns3:cad>
          </ns3:TrackPointExtension>
        </extensions>
      </trkpt>
      <trkpt lat="43.77196066081523895263671875" lon="1.5856830775737762451171875">
        <ele>154.399993896484375</ele>
        <time>2026-08-13T08:05:50.000Z</time>
        <extensions>
          <ns3:TrackPointExtension>
            <ns3:hr>72</ns3:hr>
            <ns3:cad>0</ns3:cad>
          </ns3:TrackPointExtension>
        </extensions>
      </trkpt>
      <trkpt lat="43.77196795307099819183349609375" lon="1.58568047918379306793212890625">
        <ele>154.399993896484375</ele>
        <time>2026-08-13T08:05:51.000Z</time>
        <extensions>
          <ns3:TrackPointExtension>
            <ns3:hr>73</ns3:hr>
            <ns3:cad>0</ns3:cad>
          </ns3:TrackPointExtension>
        </extensions>
      </trkpt>
      <trkpt lat="43.771968372166156768798828125" lon="1.58568165265023708343505859375">
        <ele>154.399993896484375</ele>
        <time>2026-08-13T08:05:52.000Z</time>
        <extensions>
          <ns3:TrackPointExtension>
            <ns3:hr>74</ns3:hr>
            <ns3:cad>0</ns3:cad>
          </ns3:TrackPointExtension>
        </extensions>
      </trkpt>
      <trkpt lat="43.77196962945163249969482421875" lon="1.58568232320249080657958984375">
        <ele>154.399993896484375</ele>
        <time>2026-08-13T08:05:53.000Z</time>
        <extensions>
          <ns3:TrackPointExtension>
            <ns3:hr>74</ns3:hr>
            <ns3:cad>0</ns3:cad>
          </ns3:TrackPointExtension>
        </extensions>
      </trkpt>
      <trkpt lat="43.77197273075580596923828125" lon="1.5856803953647613525390625">
        <ele>154.399993896484375</ele>
        <time>2026-08-13T08:05:54.000Z</time>
        <extensions>
          <ns3:TrackPointExtension>
            <ns3:hr>75</ns3:hr>
            <ns3:cad>0</ns3:cad>
          </ns3:TrackPointExtension>
        </extensions>
      </trkpt>
      <trkpt lat="43.77197465859353542327880859375" lon="1.58567578531801700592041015625">
        <ele>154.399993896484375</ele>
        <time>2026-08-13T08:05:55.000Z</time>
        <extensions>
          <ns3:TrackPointExtension>
            <ns3:hr>76</ns3:hr>
            <ns3:cad>0</ns3:cad>
          </ns3:TrackPointExtension>
        </extensions>
      </trkpt>
      <trkpt lat="43.771977759897708892822265625" lon="1.58566991798579692840576171875">
        <ele>154.600006103515625</ele>
        <time>2026-08-13T08:05:56.000Z</time>
        <extensions>
          <ns3:TrackPointExtension>
            <ns3:hr>77</ns3:hr>
            <ns3:cad>0</ns3:cad>
          </ns3:TrackPointExtension>
        </extensions>
      </trkpt>
      <trkpt lat="43.7719841301441192626953125" lon="1.58566136844456195831298828125">
        <ele>154.600006103515625</ele>
        <time>2026-08-13T08:05:57.000Z</time>
        <extensions>
          <ns3:TrackPointExtension>
            <ns3:hr>78</ns3:hr>
            <ns3:cad>0</ns3:cad>
          </ns3:TrackPointExtension>
        </extensions>
      </trkpt>
      <trkpt lat="43.771989159286022186279296875" lon="1.58565290272235870361328125">
        <ele>154.600006103515625</ele>
        <time>2026-08-13T08:05:58.000Z</time>
        <extensions>
          <ns3:TrackPointExtension>
            <ns3:hr>79</ns3:hr>
            <ns3:cad>0</ns3:cad>
          </ns3:TrackPointExtension>
        </extensions>
      </trkpt>
      <trkpt lat="43.77199351787567138671875" lon="1.58564477227628231048583984375">
        <ele>154.600006103515625</ele>
        <time>2026-08-13T08:05:59.000Z</time>
        <extensions>
          <ns3:TrackPointExtension>
            <ns3:hr>79</ns3:hr>
            <ns3:cad>0</ns3:cad>
          </ns3:TrackPointExtension>
        </extensions>
      </trkpt>
      <trkpt lat="43.771994523704051971435546875" lon="1.585644520819187164306640625">
        <ele>154.600006103515625</ele>
        <time>2026-08-13T08:06:00.000Z</time>
        <extensions>
          <ns3:TrackPointExtension>
            <ns3:hr>80</ns3:hr>
            <ns3:cad>0</ns3:cad>
          </ns3:TrackPointExtension>
        </extensions>
      </trkpt>
      <trkpt lat="43.77199762500822544097900390625" lon="1.585638821125030517578125">
        <ele>154.399993896484375</ele>
        <time>2026-08-13T08:06:01.000Z</time>
        <extensions>
          <ns3:TrackPointExtension>
            <ns3:hr>80</ns3:hr>
            <ns3:cad>0</ns3:cad>
          </ns3:TrackPointExtension>
        </extensions>
      </trkpt>
      <trkpt lat="43.77200298942625522613525390625" lon="1.58563077449798583984375">
        <ele>154.399993896484375</ele>
        <time>2026-08-13T08:06:02.000Z</time>
        <extensions>
          <ns3:TrackPointExtension>
            <ns3:hr>80</ns3:hr>
            <ns3:cad>0</ns3:cad>
          </ns3:TrackPointExtension>
        </extensions>
      </trkpt>
      <trkpt lat="43.77200215123593807220458984375" lon="1.58562666736543178558349609375">
        <ele>154.399993896484375</ele>
        <time>2026-08-13T08:06:03.000Z</time>
        <extensions>
          <ns3:TrackPointExtension>
            <ns3:hr>81</ns3:hr>
            <ns3:cad>0</ns3:cad>
          </ns3:TrackPointExtension>
        </extensions>
      </trkpt>
      <trkpt lat="43.77200164832174777984619140625" lon="1.585623733699321746826171875">
        <ele>154.600006103515625</ele>
        <time>2026-08-13T08:06:04.000Z</time>
        <extensions>
          <ns3:TrackPointExtension>
            <ns3:hr>82</ns3:hr>
            <ns3:cad>0</ns3:cad>
          </ns3:TrackPointExtension>
        </extensions>
      </trkpt>
      <trkpt lat="43.772001229226589202880859375" lon="1.5856202132999897003173828125">
        <ele>154.600006103515625</ele>
        <time>2026-08-13T08:06:05.000Z</time>
        <extensions>
          <ns3:TrackPointExtension>
            <ns3:hr>82</ns3:hr>
            <ns3:cad>0</ns3:cad>
          </ns3:TrackPointExtension>
        </extensions>
      </trkpt>
      <trkpt lat="43.7719987146556377410888671875" lon="1.58561845310032367706298828125">
        <ele>154.600006103515625</ele>
        <time>2026-08-13T08:06:06.000Z</time>
        <extensions>
          <ns3:TrackPointExtension>
            <ns3:hr>82</ns3:hr>
            <ns3:cad>0</ns3:cad>
          </ns3:TrackPointExtension>
        </extensions>
      </trkpt>
      <trkpt lat="43.771996535360813140869140625" lon="1.585617363452911376953125">
        <ele>154.600006103515625</ele>
        <time>2026-08-13T08:06:07.000Z</time>
        <extensions>
          <ns3:TrackPointExtension>
            <ns3:hr>82</ns3:hr>
            <ns3:cad>0</ns3:cad>
          </ns3:TrackPointExtension>
        </extensions>
      </trkpt>
      <trkpt lat="43.77199418842792510986328125" lon="1.58561644144356250762939453125">
        <ele>154.600006103515625</ele>
        <time>2026-08-13T08:06:08.000Z</time>
        <extensions>
          <ns3:TrackPointExtension>
            <ns3:hr>81</ns3:hr>
            <ns3:cad>0</ns3:cad>
          </ns3:TrackPointExtension>
        </extensions>
      </trkpt>
      <trkpt lat="43.77199175767600536346435546875" lon="1.58561627380549907684326171875">
        <ele>154.600006103515625</ele>
        <time>2026-08-13T08:06:09.000Z</time>
        <extensions>
          <ns3:TrackPointExtension>
            <ns3:hr>80</ns3:hr>
            <ns3:cad>0</ns3:cad>
          </ns3:TrackPointExtension>
        </extensions>
      </trkpt>
      <trkpt lat="43.7719894945621490478515625" lon="1.58561535179615020751953125">
        <ele>154.600006103515625</ele>
        <time>2026-08-13T08:06:10.000Z</time>
        <extensions>
          <ns3:TrackPointExtension>
            <ns3:hr>80</ns3:hr>
            <ns3:cad>0</ns3:cad>
          </ns3:TrackPointExtension>
        </extensions>
      </trkpt>
      <trkpt lat="43.7719866447150707244873046875" lon="1.58561711199581623077392578125">
        <ele>154.600006103515625</ele>
        <time>2026-08-13T08:06:11.000Z</time>
        <extensions>
          <ns3:TrackPointExtension>
            <ns3:hr>81</ns3:hr>
            <ns3:cad>0</ns3:cad>
          </ns3:TrackPointExtension>
        </extensions>
      </trkpt>
      <trkpt lat="43.77198521979153156280517578125" lon="1.58561803400516510009765625">
        <ele>154.600006103515625</ele>
        <time>2026-08-13T08:06:12.000Z</time>
        <extensions>
          <ns3:TrackPointExtension>
            <ns3:hr>80</ns3:hr>
            <ns3:cad>0</ns3:cad>
          </ns3:TrackPointExtension>
        </extensions>
      </trkpt>
      <trkpt lat="43.7719822861254215240478515625" lon="1.58561979420483112335205078125">
        <ele>154.600006103515625</ele>
        <time>2026-08-13T08:06:13.000Z</time>
        <extensions>
          <ns3:TrackPointExtension>
            <ns3:hr>80</ns3:hr>
            <ns3:cad>0</ns3:cad>
          </ns3:TrackPointExtension>
        </extensions>
      </trkpt>
      <trkpt lat="43.771979101002216339111328125" lon="1.58562205731868743896484375">
        <ele>154.600006103515625</ele>
        <time>2026-08-13T08:06:14.000Z</time>
        <extensions>
          <ns3:TrackPointExtension>
            <ns3:hr>79</ns3:hr>
            <ns3:cad>0</ns3:cad>
          </ns3:TrackPointExtension>
        </extensions>
      </trkpt>
      <trkpt lat="43.77197700552642345428466796875" lon="1.58562205731868743896484375">
        <ele>154.600006103515625</ele>
        <time>2026-08-13T08:06:15.000Z</time>
        <extensions>
          <ns3:TrackPointExtension>
            <ns3:hr>79</ns3:hr>
            <ns3:cad>0</ns3:cad>
          </ns3:TrackPointExtension>
        </extensions>
      </trkpt>
      <trkpt lat="43.7719734013080596923828125" lon="1.58561945892870426177978515625">
        <ele>154.600006103515625</ele>
        <time>2026-08-13T08:06:16.000Z</time>
        <extensions>
          <ns3:TrackPointExtension>
            <ns3:hr>78</ns3:hr>
            <ns3:cad>0</ns3:cad>
          </ns3:TrackPointExtension>
        </extensions>
      </trkpt>
      <trkpt lat="43.77197206020355224609375" lon="1.58561275340616703033447265625">
        <ele>154.600006103515625</ele>
        <time>2026-08-13T08:06:17.000Z</time>
        <extensions>
          <ns3:TrackPointExtension>
            <ns3:hr>79</ns3:hr>
            <ns3:cad>0</ns3:cad>
          </ns3:TrackPointExtension>
        </extensions>
      </trkpt>
      <trkpt lat="43.77197180874645709991455078125" lon="1.58560671843588352203369140625">
        <ele>154.8000030517578125</ele>
        <time>2026-08-13T08:06:18.000Z</time>
        <extensions>
          <ns3:TrackPointExtension>
            <ns3:hr>79</ns3:hr>
            <ns3:cad>0</ns3:cad>
          </ns3:TrackPointExtension>
        </extensions>
      </trkpt>
      <trkpt lat="43.771973736584186553955078125" lon="1.58559791743755340576171875">
        <ele>154.8000030517578125</ele>
        <time>2026-08-13T08:06:19.000Z</time>
        <extensions>
          <ns3:TrackPointExtension>
            <ns3:hr>79</ns3:hr>
            <ns3:cad>0</ns3:cad>
          </ns3:TrackPointExtension>
        </extensions>
      </trkpt>
      <trkpt lat="43.77197465859353542327880859375" lon="1.585592217743396759033203125">
        <ele>155</ele>
        <time>2026-08-13T08:06:20.000Z</time>
        <extensions>
          <ns3:TrackPointExtension>
            <ns3:hr>79</ns3:hr>
            <ns3:cad>0</ns3:cad>
          </ns3:TrackPointExtension>
        </extensions>
      </trkpt>
      <trkpt lat="43.77197985537350177764892578125" lon="1.58558341674506664276123046875">
        <ele>155</ele>
        <time>2026-08-13T08:06:21.000Z</time>
        <extensions>
          <ns3:TrackPointExtension>
            <ns3:hr>79</ns3:hr>
            <ns3:cad>73</ns3:cad>
          </ns3:TrackPointExtension>
        </extensions>
      </trkpt>
      <trkpt lat="43.77198320813477039337158203125" lon="1.58557654358446598052978515625">
        <ele>155.1999969482421875</ele>
        <time>2026-08-13T08:06:22.000Z</time>
        <extensions>
          <ns3:TrackPointExtension>
            <ns3:hr>80</ns3:hr>
            <ns3:cad>73</ns3:cad>
          </ns3:TrackPointExtension>
        </extensions>
      </trkpt>
      <trkpt lat="43.77198387868702411651611328125" lon="1.5855726040899753570556640625">
        <ele>155.399993896484375</ele>
        <time>2026-08-13T08:06:23.000Z</time>
        <extensions>
          <ns3:TrackPointExtension>
            <ns3:hr>80</ns3:hr>
            <ns3:cad>73</ns3:cad>
          </ns3:TrackPointExtension>
        </extensions>
      </trkpt>
      <trkpt lat="43.77198706381022930145263671875" lon="1.585563719272613525390625">
        <ele>155.600006103515625</ele>
        <time>2026-08-13T08:06:24.000Z</time>
        <extensions>
          <ns3:TrackPointExtension>
            <ns3:hr>80</ns3:hr>
            <ns3:cad>73</ns3:cad>
          </ns3:TrackPointExtension>
        </extensions>
      </trkpt>
      <trkpt lat="43.7719926796853542327880859375" lon="1.58555475063621997833251953125">
        <ele>155.600006103515625</ele>
        <time>2026-08-13T08:06:25.000Z</time>
        <extensions>
          <ns3:TrackPointExtension>
            <ns3:hr>80</ns3:hr>
            <ns3:cad>41</ns3:cad>
          </ns3:TrackPointExtension>
        </extensions>
      </trkpt>
      <trkpt lat="43.77199594862759113311767578125" lon="1.58555307425558567047119140625">
        <ele>155.8000030517578125</ele>
        <time>2026-08-13T08:06:26.000Z</time>
        <extensions>
          <ns3:TrackPointExtension>
            <ns3:hr>80</ns3:hr>
            <ns3:cad>41</ns3:cad>
          </ns3:TrackPointExtension>
        </extensions>
      </trkpt>
      <trkpt lat="43.7719977088272571563720703125" lon="1.58554351888597011566162109375">
        <ele>155.8000030517578125</ele>
        <time>2026-08-13T08:06:27.000Z</time>
        <extensions>
          <ns3:TrackPointExtension>
            <ns3:hr>80</ns3:hr>
            <ns3:cad>41</ns3:cad>
          </ns3:TrackPointExtension>
        </extensions>
      </trkpt>
      <trkpt lat="43.77200550399720668792724609375" lon="1.5855300240218639373779296875">
        <ele>156</ele>
        <time>2026-08-13T08:06:28.000Z</time>
        <extensions>
          <ns3:TrackPointExtension>
            <ns3:hr>81</ns3:hr>
            <ns3:cad>41</ns3:cad>
          </ns3:TrackPointExtension>
        </extensions>
      </trkpt>
      <trkpt lat="43.77200818620622158050537109375" lon="1.58552147448062896728515625">
        <ele>156.1999969482421875</ele>
        <time>2026-08-13T08:06:29.000Z</time>
        <extensions>
          <ns3:TrackPointExtension>
            <ns3:hr>81</ns3:hr>
            <ns3:cad>41</ns3:cad>
          </ns3:TrackPointExtension>
        </extensions>
      </trkpt>
      <trkpt lat="43.77200818620622158050537109375" lon="1.58551384694874286651611328125">
        <ele>156.1999969482421875</ele>
        <time>2026-08-13T08:06:30.000Z</time>
        <extensions>
          <ns3:TrackPointExtension>
            <ns3:hr>81</ns3:hr>
            <ns3:cad>40</ns3:cad>
          </ns3:TrackPointExtension>
        </extensions>
      </trkpt>
      <trkpt lat="43.77201288007199764251708984375" lon="1.58550001680850982666015625">
        <ele>156.399993896484375</ele>
        <time>2026-08-13T08:06:31.000Z</time>
        <extensions>
          <ns3:TrackPointExtension>
            <ns3:hr>81</ns3:hr>
            <ns3:cad>40</ns3:cad>
          </ns3:TrackPointExtension>
        </extensions>
      </trkpt>
      <trkpt lat="43.7720174901187419891357421875" lon="1.58549540676176548004150390625">
        <ele>156.399993896484375</ele>
        <time>2026-08-13T08:06:32.000Z</time>
        <extensions>
          <ns3:TrackPointExtension>
            <ns3:hr>81</ns3:hr>
            <ns3:cad>40</ns3:cad>
          </ns3:TrackPointExtension>
        </extensions>
      </trkpt>
      <trkpt lat="43.772019334137439727783203125" lon="1.58548803068697452545166015625">
        <ele>156.600006103515625</ele>
        <time>2026-08-13T08:06:33.000Z</time>
        <extensions>
          <ns3:TrackPointExtension>
            <ns3:hr>82</ns3:hr>
            <ns3:cad>40</ns3:cad>
          </ns3:TrackPointExtension>
        </extensions>
      </trkpt>
      <trkpt lat="43.77202570438385009765625" lon="1.5854765474796295166015625">
        <ele>156.600006103515625</ele>
        <time>2026-08-13T08:06:34.000Z</time>
        <extensions>
          <ns3:TrackPointExtension>
            <ns3:hr>82</ns3:hr>
            <ns3:cad>40</ns3:cad>
          </ns3:TrackPointExtension>
        </extensions>
      </trkpt>
      <trkpt lat="43.772030733525753021240234375" lon="1.5854649804532527923583984375">
        <ele>156.600006103515625</ele>
        <time>2026-08-13T08:06:35.000Z</time>
        <extensions>
          <ns3:TrackPointExtension>
            <ns3:hr>83</ns3:hr>
            <ns3:cad>41</ns3:cad>
          </ns3:TrackPointExtension>
        </extensions>
      </trkpt>
      <trkpt lat="43.77203710377216339111328125" lon="1.585456430912017822265625">
        <ele>156.600006103515625</ele>
        <time>2026-08-13T08:06:36.000Z</time>
        <extensions>
          <ns3:TrackPointExtension>
            <ns3:hr>83</ns3:hr>
            <ns3:cad>43</ns3:cad>
          </ns3:TrackPointExtension>
        </extensions>
      </trkpt>
      <trkpt lat="43.77204456366598606109619140625" lon="1.58544234931468963623046875">
        <ele>156.600006103515625</ele>
        <time>2026-08-13T08:06:37.000Z</time>
        <extensions>
          <ns3:TrackPointExtension>
            <ns3:hr>83</ns3:hr>
            <ns3:cad>43</ns3:cad>
          </ns3:TrackPointExtension>
        </extensions>
      </trkpt>
      <trkpt lat="43.77204339019954204559326171875" lon="1.5854314528405666351318359375">
        <ele>156.8000030517578125</ele>
        <time>2026-08-13T08:06:38.000Z</time>
        <extensions>
          <ns3:TrackPointExtension>
            <ns3:hr>84</ns3:hr>
            <ns3:cad>43</ns3:cad>
          </ns3:TrackPointExtension>
        </extensions>
      </trkpt>
      <trkpt lat="43.77204741351306438446044921875" lon="1.585424579679965972900390625">
        <ele>156.8000030517578125</ele>
        <time>2026-08-13T08:06:39.000Z</time>
        <extensions>
          <ns3:TrackPointExtension>
            <ns3:hr>85</ns3:hr>
            <ns3:cad>79</ns3:cad>
          </ns3:TrackPointExtension>
        </extensions>
      </trkpt>
      <trkpt lat="43.772052861750125885009765625" lon="1.585414521396160125732421875">
        <ele>156.8000030517578125</ele>
        <time>2026-08-13T08:06:40.000Z</time>
        <extensions>
          <ns3:TrackPointExtension>
            <ns3:hr>86</ns3:hr>
            <ns3:cad>79</ns3:cad>
          </ns3:TrackPointExtension>
        </extensions>
      </trkpt>
      <trkpt lat="43.77205763943493366241455078125" lon="1.58540882170200347900390625">
        <ele>156.8000030517578125</ele>
        <time>2026-08-13T08:06:41.000Z</time>
        <extensions>
          <ns3:TrackPointExtension>
            <ns3:hr>88</ns3:hr>
            <ns3:cad>79</ns3:cad>
          </ns3:TrackPointExtension>
        </extensions>
      </trkpt>
      <trkpt lat="43.7720654346048831939697265625" lon="1.585401110351085662841796875">
        <ele>156.8000030517578125</ele>
        <time>2026-08-13T08:06:42.000Z</time>
        <extensions>
          <ns3:TrackPointExtension>
            <ns3:hr>89</ns3:hr>
            <ns3:cad>77</ns3:cad>
          </ns3:TrackPointExtension>
        </extensions>
      </trkpt>
      <trkpt lat="43.7720691226422786712646484375" lon="1.58539348281919956207275390625">
        <ele>157</ele>
        <time>2026-08-13T08:06:43.000Z</time>
        <extensions>
          <ns3:TrackPointExtension>
            <ns3:hr>90</ns3:hr>
            <ns3:cad>0</ns3:cad>
          </ns3:TrackPointExtension>
        </extensions>
      </trkpt>
      <trkpt lat="43.7720691226422786712646484375" lon="1.58539029769599437713623046875">
        <ele>157</ele>
        <time>2026-08-13T08:06:44.000Z</time>
        <extensions>
          <ns3:TrackPointExtension>
            <ns3:hr>91</ns3:hr>
            <ns3:cad>0</ns3:cad>
          </ns3:TrackPointExtension>
        </extensions>
      </trkpt>
      <trkpt lat="43.77207289449870586395263671875" lon="1.5853848494589328765869140625">
        <ele>157</ele>
        <time>2026-08-13T08:06:45.000Z</time>
        <extensions>
          <ns3:TrackPointExtension>
            <ns3:hr>92</ns3:hr>
            <ns3:cad>0</ns3:cad>
          </ns3:TrackPointExtension>
        </extensions>
      </trkpt>
      <trkpt lat="43.772074989974498748779296875" lon="1.585380323231220245361328125">
        <ele>157</ele>
        <time>2026-08-13T08:06:46.000Z</time>
        <extensions>
          <ns3:TrackPointExtension>
            <ns3:hr>93</ns3:hr>
            <ns3:cad>0</ns3:cad>
          </ns3:TrackPointExtension>
        </extensions>
      </trkpt>
      <trkpt lat="43.77207708545029163360595703125" lon="1.5853781439363956451416015625">
        <ele>157.1999969482421875</ele>
        <time>2026-08-13T08:06:47.000Z</time>
        <extensions>
          <ns3:TrackPointExtension>
            <ns3:hr>93</ns3:hr>
            <ns3:cad>0</ns3:cad>
          </ns3:TrackPointExtension>
        </extensions>
      </trkpt>
      <trkpt lat="43.77207909710705280303955078125" lon="1.58537655137479305267333984375">
        <ele>157.1999969482421875</ele>
        <time>2026-08-13T08:06:48.000Z</time>
        <extensions>
          <ns3:TrackPointExtension>
            <ns3:hr>95</ns3:hr>
            <ns3:cad>0</ns3:cad>
          </ns3:TrackPointExtension>
        </extensions>
      </trkpt>
      <trkpt lat="43.77207926474511623382568359375" lon="1.58537470735609531402587890625">
        <ele>157.1999969482421875</ele>
        <time>2026-08-13T08:06:49.000Z</time>
        <extensions>
          <ns3:TrackPointExtension>
            <ns3:hr>95</ns3:hr>
            <ns3:cad>0</ns3:cad>
          </ns3:TrackPointExtension>
        </extensions>
      </trkpt>
      <trkpt lat="43.7720798514783382415771484375" lon="1.58537168987095355987548828125">
        <ele>157.399993896484375</ele>
        <time>2026-08-13T08:06:50.000Z</time>
        <extensions>
          <ns3:TrackPointExtension>
            <ns3:hr>96</ns3:hr>
            <ns3:cad>0</ns3:cad>
          </ns3:TrackPointExtension>
        </extensions>
      </trkpt>
      <trkpt lat="43.7720801867544651031494140625" lon="1.5853692591190338134765625">
        <ele>157.399993896484375</ele>
        <time>2026-08-13T08:06:51.000Z</time>
        <extensions>
          <ns3:TrackPointExtension>
            <ns3:hr>96</ns3:hr>
            <ns3:cad>0</ns3:cad>
          </ns3:TrackPointExtension>
        </extensions>
      </trkpt>
      <trkpt lat="43.77208228223025798797607421875" lon="1.585365571081638336181640625">
        <ele>157.399993896484375</ele>
        <time>2026-08-13T08:06:52.000Z</time>
        <extensions>
          <ns3:TrackPointExtension>
            <ns3:hr>96</ns3:hr>
            <ns3:cad>0</ns3:cad>
          </ns3:TrackPointExtension>
        </extensions>
      </trkpt>
      <trkpt lat="43.77208538353443145751953125" lon="1.5853637270629405975341796875">
        <ele>157.399993896484375</ele>
        <time>2026-08-13T08:06:53.000Z</time>
        <extensions>
          <ns3:TrackPointExtension>
            <ns3:hr>95</ns3:hr>
            <ns3:cad>0</ns3:cad>
          </ns3:TrackPointExtension>
        </extensions>
      </trkpt>
      <trkpt lat="43.7720875628292560577392578125" lon="1.5853610448539257049560546875">
        <ele>157.399993896484375</ele>
        <time>2026-08-13T08:06:54.000Z</time>
        <extensions>
          <ns3:TrackPointExtension>
            <ns3:hr>95</ns3:hr>
            <ns3:cad>0</ns3:cad>
          </ns3:TrackPointExtension>
        </extensions>
      </trkpt>
      <trkpt lat="43.772090412676334381103515625" lon="1.58535827882587909698486328125">
        <ele>157.399993896484375</ele>
        <time>2026-08-13T08:06:55.000Z</time>
        <extensions>
          <ns3:TrackPointExtension>
            <ns3:hr>95</ns3:hr>
            <ns3:cad>0</ns3:cad>
          </ns3:TrackPointExtension>
        </extensions>
      </trkpt>
      <trkpt lat="43.7720922566950321197509765625" lon="1.58535677008330821990966796875">
        <ele>157.399993896484375</ele>
        <time>2026-08-13T08:06:56.000Z</time>
        <extensions>
          <ns3:TrackPointExtension>
            <ns3:hr>94</ns3:hr>
            <ns3:cad>0</ns3:cad>
          </ns3:TrackPointExtension>
        </extensions>
      </trkpt>
      <trkpt lat="43.7720956094563007354736328125" lon="1.58535324968397617340087890625">
        <ele>157.399993896484375</ele>
        <time>2026-08-13T08:06:57.000Z</time>
        <extensions>
          <ns3:TrackPointExtension>
            <ns3:hr>94</ns3:hr>
            <ns3:cad>0</ns3:cad>
          </ns3:TrackPointExtension>
        </extensions>
      </trkpt>
      <trkpt lat="43.77209804020822048187255859375" lon="1.58534956164658069610595703125">
        <ele>157.399993896484375</ele>
        <time>2026-08-13T08:06:58.000Z</time>
        <extensions>
          <ns3:TrackPointExtension>
            <ns3:hr>93</ns3:hr>
            <ns3:cad>0</ns3:cad>
          </ns3:TrackPointExtension>
        </extensions>
      </trkpt>
      <trkpt lat="43.772101812064647674560546875" lon="1.5853469632565975189208984375">
        <ele>157.399993896484375</ele>
        <time>2026-08-13T08:06:59.000Z</time>
        <extensions>
          <ns3:TrackPointExtension>
            <ns3:hr>91</ns3:hr>
            <ns3:cad>0</ns3:cad>
          </ns3:TrackPointExtension>
        </extensions>
      </trkpt>
      <trkpt lat="43.77210441045463085174560546875" lon="1.5853436104953289031982421875">
        <ele>157.399993896484375</ele>
        <time>2026-08-13T08:07:00.000Z</time>
        <extensions>
          <ns3:TrackPointExtension>
            <ns3:hr>90</ns3:hr>
            <ns3:cad>0</ns3:cad>
          </ns3:TrackPointExtension>
        </extensions>
      </trkpt>
      <trkpt lat="43.772108517587184906005859375" lon="1.5853397548198699951171875">
        <ele>157.399993896484375</ele>
        <time>2026-08-13T08:07:01.000Z</time>
        <extensions>
          <ns3:TrackPointExtension>
            <ns3:hr>89</ns3:hr>
            <ns3:cad>0</ns3:cad>
          </ns3:TrackPointExtension>
        </extensions>
      </trkpt>
      <trkpt lat="43.77210952341556549072265625" lon="1.58533765934407711029052734375">
        <ele>157.399993896484375</ele>
        <time>2026-08-13T08:07:02.000Z</time>
        <extensions>
          <ns3:TrackPointExtension>
            <ns3:hr>88</ns3:hr>
            <ns3:cad>0</ns3:cad>
          </ns3:TrackPointExtension>
        </extensions>
      </trkpt>
      <trkpt lat="43.77211153507232666015625" lon="1.5853409282863140106201171875">
        <ele>157.399993896484375</ele>
        <time>2026-08-13T08:07:03.000Z</time>
        <extensions>
          <ns3:TrackPointExtension>
            <ns3:hr>87</ns3:hr>
            <ns3:cad>0</ns3:cad>
          </ns3:TrackPointExtension>
        </extensions>
      </trkpt>
      <trkpt lat="43.7721103616058826446533203125" lon="1.585342101752758026123046875">
        <ele>157.399993896484375</ele>
        <time>2026-08-13T08:07:04.000Z</time>
        <extensions>
          <ns3:TrackPointExtension>
            <ns3:hr>84</ns3:hr>
            <ns3:cad>0</ns3:cad>
          </ns3:TrackPointExtension>
        </extensions>
      </trkpt>
      <trkpt lat="43.7721073441207408905029296875" lon="1.5853446163237094879150390625">
        <ele>157.399993896484375</ele>
        <time>2026-08-13T08:07:05.000Z</time>
        <extensions>
          <ns3:TrackPointExtension>
            <ns3:hr>80</ns3:hr>
            <ns3:cad>0</ns3:cad>
          </ns3:TrackPointExtension>
        </extensions>
      </trkpt>
      <trkpt lat="43.7721075117588043212890625" lon="1.5853452868759632110595703125">
        <ele>157.399993896484375</ele>
        <time>2026-08-13T08:07:06.000Z</time>
        <extensions>
          <ns3:TrackPointExtension>
            <ns3:hr>77</ns3:hr>
            <ns3:cad>0</ns3:cad>
          </ns3:TrackPointExtension>
        </extensions>
      </trkpt>
      <trkpt lat="43.77210390754044055938720703125" lon="1.58535224385559558868408203125">
        <ele>157.399993896484375</ele>
        <time>2026-08-13T08:07:07.000Z</time>
        <extensions>
          <ns3:TrackPointExtension>
            <ns3:hr>76</ns3:hr>
            <ns3:cad>0</ns3:cad>
          </ns3:TrackPointExtension>
        </extensions>
      </trkpt>
      <trkpt lat="43.77209736965596675872802734375" lon="1.58536364324390888214111328125">
        <ele>157.399993896484375</ele>
        <time>2026-08-13T08:07:08.000Z</time>
        <extensions>
          <ns3:TrackPointExtension>
            <ns3:hr>76</ns3:hr>
            <ns3:cad>0</ns3:cad>
          </ns3:TrackPointExtension>
        </extensions>
      </trkpt>
      <trkpt lat="43.7720954418182373046875" lon="1.58536649309098720550537109375">
        <ele>157.399993896484375</ele>
        <time>2026-08-13T08:07:09.000Z</time>
        <extensions>
          <ns3:TrackPointExtension>
            <ns3:hr>76</ns3:hr>
            <ns3:cad>0</ns3:cad>
          </ns3:TrackPointExtension>
        </extensions>
      </trkpt>
      <trkpt lat="43.77209669910371303558349609375" lon="1.58536531962454319000244140625">
        <ele>157.399993896484375</ele>
        <time>2026-08-13T08:07:10.000Z</time>
        <extensions>
          <ns3:TrackPointExtension>
            <ns3:hr>77</ns3:hr>
            <ns3:cad>0</ns3:cad>
          </ns3:TrackPointExtension>
        </extensions>
      </trkpt>
      <trkpt lat="43.77208965830504894256591796875" lon="1.5853679180145263671875">
        <ele>157.399993896484375</ele>
        <time>2026-08-13T08:07:11.000Z</time>
        <extensions>
          <ns3:TrackPointExtension>
            <ns3:hr>77</ns3:hr>
            <ns3:cad>0</ns3:cad>
          </ns3:TrackPointExtension>
        </extensions>
      </trkpt>
      <trkpt lat="43.77208194695413112640380859375" lon="1.58536716364324092864990234375">
        <ele>157.399993896484375</ele>
        <time>2026-08-13T08:07:12.000Z</time>
        <extensions>
          <ns3:TrackPointExtension>
            <ns3:hr>78</ns3:hr>
            <ns3:cad>0</ns3:cad>
          </ns3:TrackPointExtension>
        </extensions>
      </trkpt>
      <trkpt lat="43.7720761634409427642822265625" lon="1.5853680856525897979736328125">
        <ele>157.399993896484375</ele>
        <time>2026-08-13T08:07:13.000Z</time>
        <extensions>
          <ns3:TrackPointExtension>
            <ns3:hr>78</ns3:hr>
            <ns3:cad>0</ns3:cad>
          </ns3:TrackPointExtension>
        </extensions>
      </trkpt>
      <trkpt lat="43.77207440324127674102783203125" lon="1.58536565490067005157470703125">
        <ele>157.399993896484375</ele>
        <time>2026-08-13T08:07:14.000Z</time>
        <extensions>
          <ns3:TrackPointExtension>
            <ns3:hr>78</ns3:hr>
            <ns3:cad>0</ns3:cad>
          </ns3:TrackPointExtension>
        </extensions>
      </trkpt>
      <trkpt lat="43.77206258475780487060546875" lon="1.58535383641719818115234375">
        <ele>157.399993896484375</ele>
        <time>2026-08-13T08:07:15.000Z</time>
        <extensions>
          <ns3:TrackPointExtension>
            <ns3:hr>78</ns3:hr>
            <ns3:cad>0</ns3:cad>
          </ns3:TrackPointExtension>
        </extensions>
      </trkpt>
      <trkpt lat="43.77205663360655307769775390625" lon="1.58534981310367584228515625">
        <ele>157.399993896484375</ele>
        <time>2026-08-13T08:07:16.000Z</time>
        <extensions>
          <ns3:TrackPointExtension>
            <ns3:hr>78</ns3:hr>
            <ns3:cad>0</ns3:cad>
          </ns3:TrackPointExtension>
        </extensions>
      </trkpt>
      <trkpt lat="43.772051520645618438720703125" lon="1.5853479690849781036376953125">
        <ele>157.399993896484375</ele>
        <time>2026-08-13T08:07:17.000Z</time>
        <extensions>
          <ns3:TrackPointExtension>
            <ns3:hr>77</ns3:hr>
            <ns3:cad>0</ns3:cad>
          </ns3:TrackPointExtension>
        </extensions>
      </trkpt>
      <trkpt lat="43.77204506658017635345458984375" lon="1.58534537069499492645263671875">
        <ele>157.399993896484375</ele>
        <time>2026-08-13T08:07:18.000Z</time>
        <extensions>
          <ns3:TrackPointExtension>
            <ns3:hr>77</ns3:hr>
            <ns3:cad>0</ns3:cad>
          </ns3:TrackPointExtension>
        </extensions>
      </trkpt>
      <trkpt lat="43.7720409594476222991943359375" lon="1.5853426046669483184814453125">
        <ele>157.399993896484375</ele>
        <time>2026-08-13T08:07:19.000Z</time>
        <extensions>
          <ns3:TrackPointExtension>
            <ns3:hr>77</ns3:hr>
            <ns3:cad>0</ns3:cad>
          </ns3:TrackPointExtension>
        </extensions>
      </trkpt>
      <trkpt lat="43.7720319069921970367431640625" lon="1.58534000627696514129638671875">
        <ele>157.600006103515625</ele>
        <time>2026-08-13T08:07:20.000Z</time>
        <extensions>
          <ns3:TrackPointExtension>
            <ns3:hr>77</ns3:hr>
            <ns3:cad>0</ns3:cad>
          </ns3:TrackPointExtension>
        </extensions>
      </trkpt>
      <trkpt lat="43.77201841212809085845947265625" lon="1.5853409282863140106201171875">
        <ele>157.600006103515625</ele>
        <time>2026-08-13T08:07:21.000Z</time>
        <extensions>
          <ns3:TrackPointExtension>
            <ns3:hr>77</ns3:hr>
            <ns3:cad>0</ns3:cad>
          </ns3:TrackPointExtension>
        </extensions>
      </trkpt>
      <trkpt lat="43.7720127962529659271240234375" lon="1.58533933572471141815185546875">
        <ele>157.600006103515625</ele>
        <time>2026-08-13T08:07:22.000Z</time>
        <extensions>
          <ns3:TrackPointExtension>
            <ns3:hr>77</ns3:hr>
            <ns3:cad>0</ns3:cad>
          </ns3:TrackPointExtension>
        </extensions>
      </trkpt>
      <trkpt lat="43.77200114540755748748779296875" lon="1.5853343904018402099609375">
        <ele>157.600006103515625</ele>
        <time>2026-08-13T08:07:23.000Z</time>
        <extensions>
          <ns3:TrackPointExtension>
            <ns3:hr>77</ns3:hr>
            <ns3:cad>0</ns3:cad>
          </ns3:TrackPointExtension>
        </extensions>
      </trkpt>
      <trkpt lat="43.77199276350438594818115234375" lon="1.5853317081928253173828125">
        <ele>157.8000030517578125</ele>
        <time>2026-08-13T08:07:24.000Z</time>
        <extensions>
          <ns3:TrackPointExtension>
            <ns3:hr>77</ns3:hr>
            <ns3:cad>0</ns3:cad>
          </ns3:TrackPointExtension>
        </extensions>
      </trkpt>
      <trkpt lat="43.77198438160121440887451171875" lon="1.585327349603176116943359375">
        <ele>157.8000030517578125</ele>
        <time>2026-08-13T08:07:25.000Z</time>
        <extensions>
          <ns3:TrackPointExtension>
            <ns3:hr>78</ns3:hr>
            <ns3:cad>77</ns3:cad>
          </ns3:TrackPointExtension>
        </extensions>
      </trkpt>
      <trkpt lat="43.77197532914578914642333984375" lon="1.5853288583457469940185546875">
        <ele>158</ele>
        <time>2026-08-13T08:07:26.000Z</time>
        <extensions>
          <ns3:TrackPointExtension>
            <ns3:hr>79</ns3:hr>
            <ns3:cad>79</ns3:cad>
          </ns3:TrackPointExtension>
        </extensions>
      </trkpt>
      <trkpt lat="43.771962337195873260498046875" lon="1.5853285230696201324462890625">
        <ele>158</ele>
        <time>2026-08-13T08:07:27.000Z</time>
        <extensions>
          <ns3:TrackPointExtension>
            <ns3:hr>80</ns3:hr>
            <ns3:cad>79</ns3:cad>
          </ns3:TrackPointExtension>
        </extensions>
      </trkpt>
      <trkpt lat="43.7719507701694965362548828125" lon="1.5853265114128589630126953125">
        <ele>158</ele>
        <time>2026-08-13T08:07:28.000Z</time>
        <extensions>
          <ns3:TrackPointExtension>
            <ns3:hr>80</ns3:hr>
            <ns3:cad>79</ns3:cad>
          </ns3:TrackPointExtension>
        </extensions>
      </trkpt>
      <trkpt lat="43.7719387002289295196533203125" lon="1.58532525412738323211669921875">
        <ele>158</ele>
        <time>2026-08-13T08:07:29.000Z</time>
        <extensions>
          <ns3:TrackPointExtension>
            <ns3:hr>80</ns3:hr>
            <ns3:cad>79</ns3:cad>
          </ns3:TrackPointExtension>
        </extensions>
      </trkpt>
      <trkpt lat="43.77192906104028224945068359375" lon="1.5853285230696201324462890625">
        <ele>158</ele>
        <time>2026-08-13T08:07:30.000Z</time>
        <extensions>
          <ns3:TrackPointExtension>
            <ns3:hr>81</ns3:hr>
            <ns3:cad>79</ns3:cad>
          </ns3:TrackPointExtension>
        </extensions>
      </trkpt>
      <trkpt lat="43.77192000858485698699951171875" lon="1.58532458357512950897216796875">
        <ele>158</ele>
        <time>2026-08-13T08:07:31.000Z</time>
        <extensions>
          <ns3:TrackPointExtension>
            <ns3:hr>81</ns3:hr>
            <ns3:cad>79</ns3:cad>
          </ns3:TrackPointExtension>
        </extensions>
      </trkpt>
      <trkpt lat="43.771917410194873809814453125" lon="1.5853288583457469940185546875">
        <ele>158</ele>
        <time>2026-08-13T08:07:32.000Z</time>
        <extensions>
          <ns3:TrackPointExtension>
            <ns3:hr>81</ns3:hr>
            <ns3:cad>0</ns3:cad>
          </ns3:TrackPointExtension>
        </extensions>
      </trkpt>
      <trkpt lat="43.77190844155848026275634765625" lon="1.58532827161252498626708984375">
        <ele>158</ele>
        <time>2026-08-13T08:07:33.000Z</time>
        <extensions>
          <ns3:TrackPointExtension>
            <ns3:hr>82</ns3:hr>
            <ns3:cad>0</ns3:cad>
          </ns3:TrackPointExtension>
        </extensions>
      </trkpt>
      <trkpt lat="43.77190626226365566253662109375" lon="1.58532391302287578582763671875">
        <ele>158</ele>
        <time>2026-08-13T08:07:34.000Z</time>
        <extensions>
          <ns3:TrackPointExtension>
            <ns3:hr>82</ns3:hr>
            <ns3:cad>0</ns3:cad>
          </ns3:TrackPointExtension>
        </extensions>
      </trkpt>
      <trkpt lat="43.7718991376459598541259765625" lon="1.5853214822709560394287109375">
        <ele>158.1999969482421875</ele>
        <time>2026-08-13T08:07:35.000Z</time>
        <extensions>
          <ns3:TrackPointExtension>
            <ns3:hr>82</ns3:hr>
            <ns3:cad>0</ns3:cad>
          </ns3:TrackPointExtension>
        </extensions>
      </trkpt>
      <trkpt lat="43.7718884088099002838134765625" lon="1.58532609231770038604736328125">
        <ele>158.1999969482421875</ele>
        <time>2026-08-13T08:07:36.000Z</time>
        <extensions>
          <ns3:TrackPointExtension>
            <ns3:hr>82</ns3:hr>
            <ns3:cad>0</ns3:cad>
          </ns3:TrackPointExtension>
        </extensions>
      </trkpt>
      <trkpt lat="43.771882541477680206298828125" lon="1.58532030880451202392578125">
        <ele>158.1999969482421875</ele>
        <time>2026-08-13T08:07:37.000Z</time>
        <extensions>
          <ns3:TrackPointExtension>
            <ns3:hr>82</ns3:hr>
            <ns3:cad>0</ns3:cad>
          </ns3:TrackPointExtension>
        </extensions>
      </trkpt>
      <trkpt lat="43.77187483012676239013671875" lon="1.58531653694808483123779296875">
        <ele>158.1999969482421875</ele>
        <time>2026-08-13T08:07:38.000Z</time>
        <extensions>
          <ns3:TrackPointExtension>
            <ns3:hr>82</ns3:hr>
            <ns3:cad>0</ns3:cad>
          </ns3:TrackPointExtension>
        </extensions>
      </trkpt>
      <trkpt lat="43.7718666158616542816162109375" lon="1.5853141061961650848388671875">
        <ele>158.1999969482421875</ele>
        <time>2026-08-13T08:07:39.000Z</time>
        <extensions>
          <ns3:TrackPointExtension>
            <ns3:hr>82</ns3:hr>
            <ns3:cad>75</ns3:cad>
          </ns3:TrackPointExtension>
        </extensions>
      </trkpt>
      <trkpt lat="43.77185597084462642669677734375" lon="1.5853124298155307769775390625">
        <ele>158.1999969482421875</ele>
        <time>2026-08-13T08:07:40.000Z</time>
        <extensions>
          <ns3:TrackPointExtension>
            <ns3:hr>82</ns3:hr>
            <ns3:cad>75</ns3:cad>
          </ns3:TrackPointExtension>
        </extensions>
      </trkpt>
      <trkpt lat="43.7718473374843597412109375" lon="1.58531234599649906158447265625">
        <ele>158.1999969482421875</ele>
        <time>2026-08-13T08:07:41.000Z</time>
        <extensions>
          <ns3:TrackPointExtension>
            <ns3:hr>82</ns3:hr>
            <ns3:cad>75</ns3:cad>
          </ns3:TrackPointExtension>
        </extensions>
      </trkpt>
      <trkpt lat="43.77184356562793254852294921875" lon="1.5853134356439113616943359375">
        <ele>158.1999969482421875</ele>
        <time>2026-08-13T08:07:42.000Z</time>
        <extensions>
          <ns3:TrackPointExtension>
            <ns3:hr>82</ns3:hr>
            <ns3:cad>41</ns3:cad>
          </ns3:TrackPointExtension>
        </extensions>
      </trkpt>
      <trkpt lat="43.77183333970606327056884765625" lon="1.58531385473906993865966796875">
        <ele>158.1999969482421875</ele>
        <time>2026-08-13T08:07:43.000Z</time>
        <extensions>
          <ns3:TrackPointExtension>
            <ns3:hr>82</ns3:hr>
            <ns3:cad>41</ns3:cad>
          </ns3:TrackPointExtension>
        </extensions>
      </trkpt>
      <trkpt lat="43.771820850670337677001953125" lon="1.58531402237713336944580078125">
        <ele>158.399993896484375</ele>
        <time>2026-08-13T08:07:44.000Z</time>
        <extensions>
          <ns3:TrackPointExtension>
            <ns3:hr>83</ns3:hr>
            <ns3:cad>42</ns3:cad>
          </ns3:TrackPointExtension>
        </extensions>
      </trkpt>
      <trkpt lat="43.7718156538903713226318359375" lon="1.58531972207129001617431640625">
        <ele>158.399993896484375</ele>
        <time>2026-08-13T08:07:45.000Z</time>
        <extensions>
          <ns3:TrackPointExtension>
            <ns3:hr>84</ns3:hr>
            <ns3:cad>42</ns3:cad>
          </ns3:TrackPointExtension>
        </extensions>
      </trkpt>
      <trkpt lat="43.77180970273911952972412109375" lon="1.585324667394161224365234375">
        <ele>158.399993896484375</ele>
        <time>2026-08-13T08:07:46.000Z</time>
        <extensions>
          <ns3:TrackPointExtension>
            <ns3:hr>85</ns3:hr>
            <ns3:cad>45</ns3:cad>
          </ns3:TrackPointExtension>
        </extensions>
      </trkpt>
      <trkpt lat="43.77180014736950397491455078125" lon="1.58533296547830104827880859375">
        <ele>158.399993896484375</ele>
        <time>2026-08-13T08:07:47.000Z</time>
        <extensions>
          <ns3:TrackPointExtension>
            <ns3:hr>85</ns3:hr>
            <ns3:cad>45</ns3:cad>
          </ns3:TrackPointExtension>
        </extensions>
      </trkpt>
      <trkpt lat="43.77179176546633243560791015625" lon="1.58534176647663116455078125">
        <ele>158.399993896484375</ele>
        <time>2026-08-13T08:07:48.000Z</time>
        <extensions>
          <ns3:TrackPointExtension>
            <ns3:hr>85</ns3:hr>
            <ns3:cad>45</ns3:cad>
          </ns3:TrackPointExtension>
        </extensions>
      </trkpt>
      <trkpt lat="43.77178455702960491180419921875" lon="1.58534604124724864959716796875">
        <ele>158.1999969482421875</ele>
        <time>2026-08-13T08:07:49.000Z</time>
        <extensions>
          <ns3:TrackPointExtension>
            <ns3:hr>85</ns3:hr>
            <ns3:cad>45</ns3:cad>
          </ns3:TrackPointExtension>
        </extensions>
      </trkpt>
      <trkpt lat="43.77178036607801914215087890625" lon="1.58535006456077098846435546875">
        <ele>158.1999969482421875</ele>
        <time>2026-08-13T08:07:50.000Z</time>
        <extensions>
          <ns3:TrackPointExtension>
            <ns3:hr>85</ns3:hr>
            <ns3:cad>45</ns3:cad>
          </ns3:TrackPointExtension>
        </extensions>
      </trkpt>
      <trkpt lat="43.77177231945097446441650390625" lon="1.585358195006847381591796875">
        <ele>158.1999969482421875</ele>
        <time>2026-08-13T08:07:51.000Z</time>
        <extensions>
          <ns3:TrackPointExtension>
            <ns3:hr>86</ns3:hr>
            <ns3:cad>46</ns3:cad>
          </ns3:TrackPointExtension>
        </extensions>
      </trkpt>
      <trkpt lat="43.7717623449862003326416015625" lon="1.5853692591190338134765625">
        <ele>158.1999969482421875</ele>
        <time>2026-08-13T08:07:52.000Z</time>
        <extensions>
          <ns3:TrackPointExtension>
            <ns3:hr>85</ns3:hr>
            <ns3:cad>46</ns3:cad>
          </ns3:TrackPointExtension>
        </extensions>
      </trkpt>
      <trkpt lat="43.771754801273345947265625" lon="1.58537403680384159088134765625">
        <ele>158.1999969482421875</ele>
        <time>2026-08-13T08:07:53.000Z</time>
        <extensions>
          <ns3:TrackPointExtension>
            <ns3:hr>85</ns3:hr>
            <ns3:cad>46</ns3:cad>
          </ns3:TrackPointExtension>
        </extensions>
      </trkpt>
      <trkpt lat="43.77174868248403072357177734375" lon="1.58537822775542736053466796875">
        <ele>158.1999969482421875</ele>
        <time>2026-08-13T08:07:54.000Z</time>
        <extensions>
          <ns3:TrackPointExtension>
            <ns3:hr>86</ns3:hr>
            <ns3:cad>43</ns3:cad>
          </ns3:TrackPointExtension>
        </extensions>
      </trkpt>
      <trkpt lat="43.77173661254346370697021484375" lon="1.58538493327796459197998046875">
        <ele>158.1999969482421875</ele>
        <time>2026-08-13T08:07:55.000Z</time>
        <extensions>
          <ns3:TrackPointExtension>
            <ns3:hr>85</ns3:hr>
            <ns3:cad>43</ns3:cad>
          </ns3:TrackPointExtension>
        </extensions>
      </trkpt>
      <trkpt lat="43.77172999083995819091796875" lon="1.5853922255337238311767578125">
        <ele>158.399993896484375</ele>
        <time>2026-08-13T08:07:56.000Z</time>
        <extensions>
          <ns3:TrackPointExtension>
            <ns3:hr>85</ns3:hr>
            <ns3:cad>45</ns3:cad>
          </ns3:TrackPointExtension>
        </extensions>
      </trkpt>
      <trkpt lat="43.77172605134546756744384765625" lon="1.58539666794240474700927734375">
        <ele>158.399993896484375</ele>
        <time>2026-08-13T08:07:57.000Z</time>
        <extensions>
          <ns3:TrackPointExtension>
            <ns3:hr>85</ns3:hr>
            <ns3:cad>45</ns3:cad>
          </ns3:TrackPointExtension>
        </extensions>
      </trkpt>
      <trkpt lat="43.77171716652810573577880859375" lon="1.585404463112354278564453125">
        <ele>158.399993896484375</ele>
        <time>2026-08-13T08:07:58.000Z</time>
        <extensions>
          <ns3:TrackPointExtension>
            <ns3:hr>85</ns3:hr>
            <ns3:cad>0</ns3:cad>
          </ns3:TrackPointExtension>
        </extensions>
      </trkpt>
      <trkpt lat="43.77170761115849018096923828125" lon="1.58541510812938213348388671875">
        <ele>158.399993896484375</ele>
        <time>2026-08-13T08:07:59.000Z</time>
        <extensions>
          <ns3:TrackPointExtension>
            <ns3:hr>85</ns3:hr>
            <ns3:cad>42</ns3:cad>
          </ns3:TrackPointExtension>
        </extensions>
      </trkpt>
      <trkpt lat="43.77170258201658725738525390625" lon="1.58541561104357242584228515625">
        <ele>158.399993896484375</ele>
        <time>2026-08-13T08:08:00.000Z</time>
        <extensions>
          <ns3:TrackPointExtension>
            <ns3:hr>85</ns3:hr>
            <ns3:cad>42</ns3:cad>
          </ns3:TrackPointExtension>
        </extensions>
      </trkpt>
      <trkpt lat="43.771693445742130279541015625" lon="1.58542491495609283447265625">
        <ele>158.399993896484375</ele>
        <time>2026-08-13T08:08:01.000Z</time>
        <extensions>
          <ns3:TrackPointExtension>
            <ns3:hr>85</ns3:hr>
            <ns3:cad>42</ns3:cad>
          </ns3:TrackPointExtension>
        </extensions>
      </trkpt>
      <trkpt lat="43.77168573439121246337890625" lon="1.58543036319315433502197265625">
        <ele>158.399993896484375</ele>
        <time>2026-08-13T08:08:02.000Z</time>
        <extensions>
          <ns3:TrackPointExtension>
            <ns3:hr>85</ns3:hr>
            <ns3:cad>41</ns3:cad>
          </ns3:TrackPointExtension>
        </extensions>
      </trkpt>
      <trkpt lat="43.77167693339288234710693359375" lon="1.58543690107762813568115234375">
        <ele>158.399993896484375</ele>
        <time>2026-08-13T08:08:03.000Z</time>
        <extensions>
          <ns3:TrackPointExtension>
            <ns3:hr>85</ns3:hr>
            <ns3:cad>41</ns3:cad>
          </ns3:TrackPointExtension>
        </extensions>
      </trkpt>
      <trkpt lat="43.7716688029468059539794921875" lon="1.58544142730534076690673828125">
        <ele>158.399993896484375</ele>
        <time>2026-08-13T08:08:04.000Z</time>
        <extensions>
          <ns3:TrackPointExtension>
            <ns3:hr>85</ns3:hr>
            <ns3:cad>41</ns3:cad>
          </ns3:TrackPointExtension>
        </extensions>
      </trkpt>
      <trkpt lat="43.77165916375815868377685546875" lon="1.5854515694081783294677734375">
        <ele>158.399993896484375</ele>
        <time>2026-08-13T08:08:05.000Z</time>
        <extensions>
          <ns3:TrackPointExtension>
            <ns3:hr>85</ns3:hr>
            <ns3:cad>41</ns3:cad>
          </ns3:TrackPointExtension>
        </extensions>
      </trkpt>
      <trkpt lat="43.77165262587368488311767578125" lon="1.58546104095876216888427734375">
        <ele>158.399993896484375</ele>
        <time>2026-08-13T08:08:06.000Z</time>
        <extensions>
          <ns3:TrackPointExtension>
            <ns3:hr>85</ns3:hr>
            <ns3:cad>0</ns3:cad>
          </ns3:TrackPointExtension>
        </extensions>
      </trkpt>
      <trkpt lat="43.77164952456951141357421875" lon="1.58546380698680877685546875">
        <ele>158.399993896484375</ele>
        <time>2026-08-13T08:08:07.000Z</time>
        <extensions>
          <ns3:TrackPointExtension>
            <ns3:hr>85</ns3:hr>
            <ns3:cad>0</ns3:cad>
          </ns3:TrackPointExtension>
        </extensions>
      </trkpt>
      <trkpt lat="43.771641813218593597412109375" lon="1.58547093160450458526611328125">
        <ele>158.399993896484375</ele>
        <time>2026-08-13T08:08:08.000Z</time>
        <extensions>
          <ns3:TrackPointExtension>
            <ns3:hr>84</ns3:hr>
            <ns3:cad>0</ns3:cad>
          </ns3:TrackPointExtension>
        </extensions>
      </trkpt>
      <trkpt lat="43.77163343131542205810546875" lon="1.58548534847795963287353515625">
        <ele>158.399993896484375</ele>
        <time>2026-08-13T08:08:09.000Z</time>
        <extensions>
          <ns3:TrackPointExtension>
            <ns3:hr>84</ns3:hr>
            <ns3:cad>0</ns3:cad>
          </ns3:TrackPointExtension>
        </extensions>
      </trkpt>
      <trkpt lat="43.77162748016417026519775390625" lon="1.58549406565725803375244140625">
        <ele>158.399993896484375</ele>
        <time>2026-08-13T08:08:10.000Z</time>
        <extensions>
          <ns3:TrackPointExtension>
            <ns3:hr>84</ns3:hr>
            <ns3:cad>0</ns3:cad>
          </ns3:TrackPointExtension>
        </extensions>
      </trkpt>
      <trkpt lat="43.77162161283195018768310546875" lon="1.5855006873607635498046875">
        <ele>158.399993896484375</ele>
        <time>2026-08-13T08:08:11.000Z</time>
        <extensions>
          <ns3:TrackPointExtension>
            <ns3:hr>84</ns3:hr>
            <ns3:cad>42</ns3:cad>
          </ns3:TrackPointExtension>
        </extensions>
      </trkpt>
      <trkpt lat="43.7716148234903812408447265625" lon="1.58550764434039592742919921875">
        <ele>158.399993896484375</ele>
        <time>2026-08-13T08:08:12.000Z</time>
        <extensions>
          <ns3:TrackPointExtension>
            <ns3:hr>83</ns3:hr>
            <ns3:cad>43</ns3:cad>
          </ns3:TrackPointExtension>
        </extensions>
      </trkpt>
      <trkpt lat="43.7716071121394634246826171875" lon="1.58551854081451892852783203125">
        <ele>158.399993896484375</ele>
        <time>2026-08-13T08:08:13.000Z</time>
        <extensions>
          <ns3:TrackPointExtension>
            <ns3:hr>83</ns3:hr>
            <ns3:cad>43</ns3:cad>
          </ns3:TrackPointExtension>
        </extensions>
      </trkpt>
      <trkpt lat="43.77160124480724334716796875" lon="1.58552558161318302154541015625">
        <ele>158.399993896484375</ele>
        <time>2026-08-13T08:08:14.000Z</time>
        <extensions>
          <ns3:TrackPointExtension>
            <ns3:hr>83</ns3:hr>
            <ns3:cad>44</ns3:cad>
          </ns3:TrackPointExtension>
        </extensions>
      </trkpt>
      <trkpt lat="43.77159412018954753875732421875" lon="1.5855327062308788299560546875">
        <ele>158.399993896484375</ele>
        <time>2026-08-13T08:08:15.000Z</time>
        <extensions>
          <ns3:TrackPointExtension>
            <ns3:hr>83</ns3:hr>
            <ns3:cad>44</ns3:cad>
          </ns3:TrackPointExtension>
        </extensions>
      </trkpt>
      <trkpt lat="43.7715886719524860382080078125" lon="1.585550643503665924072265625">
        <ele>158.399993896484375</ele>
        <time>2026-08-13T08:08:16.000Z</time>
        <extensions>
          <ns3:TrackPointExtension>
            <ns3:hr>82</ns3:hr>
            <ns3:cad>44</ns3:cad>
          </ns3:TrackPointExtension>
        </extensions>
      </trkpt>
      <trkpt lat="43.771582134068012237548828125" lon="1.58556380309164524078369140625">
        <ele>158.399993896484375</ele>
        <time>2026-08-13T08:08:17.000Z</time>
        <extensions>
          <ns3:TrackPointExtension>
            <ns3:hr>82</ns3:hr>
            <ns3:cad>45</ns3:cad>
          </ns3:TrackPointExtension>
        </extensions>
      </trkpt>
      <trkpt lat="43.771576099097728729248046875" lon="1.58557109534740447998046875">
        <ele>158.1999969482421875</ele>
        <time>2026-08-13T08:08:18.000Z</time>
        <extensions>
          <ns3:TrackPointExtension>
            <ns3:hr>82</ns3:hr>
            <ns3:cad>46</ns3:cad>
          </ns3:TrackPointExtension>
        </extensions>
      </trkpt>
      <trkpt lat="43.7715715728700160980224609375" lon="1.58558090217411518096923828125">
        <ele>158.1999969482421875</ele>
        <time>2026-08-13T08:08:19.000Z</time>
        <extensions>
          <ns3:TrackPointExtension>
            <ns3:hr>81</ns3:hr>
            <ns3:cad>46</ns3:cad>
          </ns3:TrackPointExtension>
        </extensions>
      </trkpt>
      <trkpt lat="43.77155874855816364288330078125" lon="1.58559565432369709014892578125">
        <ele>158.1999969482421875</ele>
        <time>2026-08-13T08:08:20.000Z</time>
        <extensions>
          <ns3:TrackPointExtension>
            <ns3:hr>81</ns3:hr>
            <ns3:cad>46</ns3:cad>
          </ns3:TrackPointExtension>
        </extensions>
      </trkpt>
      <trkpt lat="43.771551959216594696044921875" lon="1.58560269512236118316650390625">
        <ele>158.1999969482421875</ele>
        <time>2026-08-13T08:08:21.000Z</time>
        <extensions>
          <ns3:TrackPointExtension>
            <ns3:hr>81</ns3:hr>
            <ns3:cad>43</ns3:cad>
          </ns3:TrackPointExtension>
        </extensions>
      </trkpt>
      <trkpt lat="43.7715467624366283416748046875" lon="1.58561191521584987640380859375">
        <ele>158.1999969482421875</ele>
        <time>2026-08-13T08:08:22.000Z</time>
        <extensions>
          <ns3:TrackPointExtension>
            <ns3:hr>80</ns3:hr>
            <ns3:cad>43</ns3:cad>
          </ns3:TrackPointExtension>
        </extensions>
      </trkpt>
      <trkpt lat="43.77154081128537654876708984375" lon="1.5856218896806240081787109375">
        <ele>158.1999969482421875</ele>
        <time>2026-08-13T08:08:23.000Z</time>
        <extensions>
          <ns3:TrackPointExtension>
            <ns3:hr>80</ns3:hr>
            <ns3:cad>43</ns3:cad>
          </ns3:TrackPointExtension>
        </extensions>
      </trkpt>
      <trkpt lat="43.77153175882995128631591796875" lon="1.58562633208930492401123046875">
        <ele>158.1999969482421875</ele>
        <time>2026-08-13T08:08:24.000Z</time>
        <extensions>
          <ns3:TrackPointExtension>
            <ns3:hr>80</ns3:hr>
            <ns3:cad>43</ns3:cad>
          </ns3:TrackPointExtension>
        </extensions>
      </trkpt>
      <trkpt lat="43.7715273164212703704833984375" lon="1.58563454635441303253173828125">
        <ele>158.1999969482421875</ele>
        <time>2026-08-13T08:08:25.000Z</time>
        <extensions>
          <ns3:TrackPointExtension>
            <ns3:hr>79</ns3:hr>
            <ns3:cad>43</ns3:cad>
          </ns3:TrackPointExtension>
        </extensions>
      </trkpt>
      <trkpt lat="43.77152346074581146240234375" lon="1.58564309589564800262451171875">
        <ele>158.1999969482421875</ele>
        <time>2026-08-13T08:08:26.000Z</time>
        <extensions>
          <ns3:TrackPointExtension>
            <ns3:hr>79</ns3:hr>
            <ns3:cad>44</ns3:cad>
          </ns3:TrackPointExtension>
        </extensions>
      </trkpt>
      <trkpt lat="43.7715165875852108001708984375" lon="1.58565198071300983428955078125">
        <ele>158.1999969482421875</ele>
        <time>2026-08-13T08:08:27.000Z</time>
        <extensions>
          <ns3:TrackPointExtension>
            <ns3:hr>79</ns3:hr>
            <ns3:cad>44</ns3:cad>
          </ns3:TrackPointExtension>
        </extensions>
      </trkpt>
      <trkpt lat="43.77151130698621273040771484375" lon="1.58566053025424480438232421875">
        <ele>158.1999969482421875</ele>
        <time>2026-08-13T08:08:28.000Z</time>
        <extensions>
          <ns3:TrackPointExtension>
            <ns3:hr>78</ns3:hr>
            <ns3:cad>45</ns3:cad>
          </ns3:TrackPointExtension>
        </extensions>
      </trkpt>
      <trkpt lat="43.77150376327335834503173828125" lon="1.58567243255674839019775390625">
        <ele>158.1999969482421875</ele>
        <time>2026-08-13T08:08:29.000Z</time>
        <extensions>
          <ns3:TrackPointExtension>
            <ns3:hr>78</ns3:hr>
            <ns3:cad>46</ns3:cad>
          </ns3:TrackPointExtension>
        </extensions>
      </trkpt>
      <trkpt lat="43.77149739302694797515869140625" lon="1.5856808982789516448974609375">
        <ele>158.1999969482421875</ele>
        <time>2026-08-13T08:08:30.000Z</time>
        <extensions>
          <ns3:TrackPointExtension>
            <ns3:hr>77</ns3:hr>
            <ns3:cad>46</ns3:cad>
          </ns3:TrackPointExtension>
        </extensions>
      </trkpt>
      <trkpt lat="43.77148783765733242034912109375" lon="1.58569036982953548431396484375">
        <ele>158.1999969482421875</ele>
        <time>2026-08-13T08:08:31.000Z</time>
        <extensions>
          <ns3:TrackPointExtension>
            <ns3:hr>77</ns3:hr>
            <ns3:cad>46</ns3:cad>
          </ns3:TrackPointExtension>
        </extensions>
      </trkpt>
      <trkpt lat="43.771481215953826904296875" lon="1.58569925464689731597900390625">
        <ele>158.1999969482421875</ele>
        <time>2026-08-13T08:08:32.000Z</time>
        <extensions>
          <ns3:TrackPointExtension>
            <ns3:hr>77</ns3:hr>
            <ns3:cad>45</ns3:cad>
          </ns3:TrackPointExtension>
        </extensions>
      </trkpt>
      <trkpt lat="43.771478198468685150146484375" lon="1.58570914529263973236083984375">
        <ele>158.1999969482421875</ele>
        <time>2026-08-13T08:08:33.000Z</time>
        <extensions>
          <ns3:TrackPointExtension>
            <ns3:hr>77</ns3:hr>
            <ns3:cad>44</ns3:cad>
          </ns3:TrackPointExtension>
        </extensions>
      </trkpt>
      <trkpt lat="43.77147249877452850341796875" lon="1.58571333624422550201416015625">
        <ele>158.1999969482421875</ele>
        <time>2026-08-13T08:08:34.000Z</time>
        <extensions>
          <ns3:TrackPointExtension>
            <ns3:hr>77</ns3:hr>
            <ns3:cad>44</ns3:cad>
          </ns3:TrackPointExtension>
        </extensions>
      </trkpt>
      <trkpt lat="43.77146101556718349456787109375" lon="1.585721634328365325927734375">
        <ele>158.1999969482421875</ele>
        <time>2026-08-13T08:08:35.000Z</time>
        <extensions>
          <ns3:TrackPointExtension>
            <ns3:hr>76</ns3:hr>
            <ns3:cad>44</ns3:cad>
          </ns3:TrackPointExtension>
        </extensions>
      </trkpt>
      <trkpt lat="43.77145146019756793975830078125" lon="1.5857326984405517578125">
        <ele>158.1999969482421875</ele>
        <time>2026-08-13T08:08:36.000Z</time>
        <extensions>
          <ns3:TrackPointExtension>
            <ns3:hr>76</ns3:hr>
            <ns3:cad>44</ns3:cad>
          </ns3:TrackPointExtension>
        </extensions>
      </trkpt>
      <trkpt lat="43.77144299447536468505859375" lon="1.58573932014405727386474609375">
        <ele>158.1999969482421875</ele>
        <time>2026-08-13T08:08:37.000Z</time>
        <extensions>
          <ns3:TrackPointExtension>
            <ns3:hr>76</ns3:hr>
            <ns3:cad>44</ns3:cad>
          </ns3:TrackPointExtension>
        </extensions>
      </trkpt>
      <trkpt lat="43.77143519930541515350341796875" lon="1.585743092000484466552734375">
        <ele>158.1999969482421875</ele>
        <time>2026-08-13T08:08:38.000Z</time>
        <extensions>
          <ns3:TrackPointExtension>
            <ns3:hr>76</ns3:hr>
            <ns3:cad>44</ns3:cad>
          </ns3:TrackPointExtension>
        </extensions>
      </trkpt>
      <trkpt lat="43.77142245881259441375732421875" lon="1.5857509709894657135009765625">
        <ele>158.1999969482421875</ele>
        <time>2026-08-13T08:08:39.000Z</time>
        <extensions>
          <ns3:TrackPointExtension>
            <ns3:hr>76</ns3:hr>
            <ns3:cad>44</ns3:cad>
          </ns3:TrackPointExtension>
        </extensions>
      </trkpt>
      <trkpt lat="43.77141206525266170501708984375" lon="1.58576278947293758392333984375">
        <ele>158.1999969482421875</ele>
        <time>2026-08-13T08:08:40.000Z</time>
        <extensions>
          <ns3:TrackPointExtension>
            <ns3:hr>76</ns3:hr>
            <ns3:cad>44</ns3:cad>
          </ns3:TrackPointExtension>
        </extensions>
      </trkpt>
      <trkpt lat="43.7714059464633464813232421875" lon="1.58576421439647674560546875">
        <ele>158.1999969482421875</ele>
        <time>2026-08-13T08:08:41.000Z</time>
        <extensions>
          <ns3:TrackPointExtension>
            <ns3:hr>77</ns3:hr>
            <ns3:cad>44</ns3:cad>
          </ns3:TrackPointExtension>
        </extensions>
      </trkpt>
      <trkpt lat="43.771400414407253265380859375" lon="1.5857690759003162384033203125">
        <ele>158.1999969482421875</ele>
        <time>2026-08-13T08:08:42.000Z</time>
        <extensions>
          <ns3:TrackPointExtension>
            <ns3:hr>77</ns3:hr>
            <ns3:cad>44</ns3:cad>
          </ns3:TrackPointExtension>
        </extensions>
      </trkpt>
      <trkpt lat="43.7713895179331302642822265625" lon="1.58578391186892986297607421875">
        <ele>158.1999969482421875</ele>
        <time>2026-08-13T08:08:43.000Z</time>
        <extensions>
          <ns3:TrackPointExtension>
            <ns3:hr>77</ns3:hr>
            <ns3:cad>44</ns3:cad>
          </ns3:TrackPointExtension>
        </extensions>
      </trkpt>
      <trkpt lat="43.77138222567737102508544921875" lon="1.585791371762752532958984375">
        <ele>158</ele>
        <time>2026-08-13T08:08:44.000Z</time>
        <extensions>
          <ns3:TrackPointExtension>
            <ns3:hr>77</ns3:hr>
            <ns3:cad>44</ns3:cad>
          </ns3:TrackPointExtension>
        </extensions>
      </trkpt>
      <trkpt lat="43.771379292011260986328125" lon="1.58579681999981403350830078125">
        <ele>158</ele>
        <time>2026-08-13T08:08:45.000Z</time>
        <extensions>
          <ns3:TrackPointExtension>
            <ns3:hr>77</ns3:hr>
            <ns3:cad>44</ns3:cad>
          </ns3:TrackPointExtension>
        </extensions>
      </trkpt>
      <trkpt lat="43.77137585543096065521240234375" lon="1.58580386079847812652587890625">
        <ele>158</ele>
        <time>2026-08-13T08:08:46.000Z</time>
        <extensions>
          <ns3:TrackPointExtension>
            <ns3:hr>76</ns3:hr>
            <ns3:cad>0</ns3:cad>
          </ns3:TrackPointExtension>
        </extensions>
      </trkpt>
      <trkpt lat="43.7713690660893917083740234375" lon="1.58581475727260112762451171875">
        <ele>158</ele>
        <time>2026-08-13T08:08:47.000Z</time>
        <extensions>
          <ns3:TrackPointExtension>
            <ns3:hr>77</ns3:hr>
            <ns3:cad>0</ns3:cad>
          </ns3:TrackPointExtension>
        </extensions>
      </trkpt>
      <trkpt lat="43.7713623605668544769287109375" lon="1.585825569927692413330078125">
        <ele>158</ele>
        <time>2026-08-13T08:08:48.000Z</time>
        <extensions>
          <ns3:TrackPointExtension>
            <ns3:hr>77</ns3:hr>
            <ns3:cad>0</ns3:cad>
          </ns3:TrackPointExtension>
        </extensions>
      </trkpt>
      <trkpt lat="43.7713538110256195068359375" lon="1.58583101816475391387939453125">
        <ele>158</ele>
        <time>2026-08-13T08:08:49.000Z</time>
        <extensions>
          <ns3:TrackPointExtension>
            <ns3:hr>76</ns3:hr>
            <ns3:cad>45</ns3:cad>
          </ns3:TrackPointExtension>
        </extensions>
      </trkpt>
      <trkpt lat="43.77134702168405055999755859375" lon="1.58583118580281734466552734375">
        <ele>158</ele>
        <time>2026-08-13T08:08:50.000Z</time>
        <extensions>
          <ns3:TrackPointExtension>
            <ns3:hr>77</ns3:hr>
            <ns3:cad>45</ns3:cad>
          </ns3:TrackPointExtension>
        </extensions>
      </trkpt>
      <trkpt lat="43.771338723599910736083984375" lon="1.585840322077274322509765625">
        <ele>158</ele>
        <time>2026-08-13T08:08:51.000Z</time>
        <extensions>
          <ns3:TrackPointExtension>
            <ns3:hr>77</ns3:hr>
            <ns3:cad>45</ns3:cad>
          </ns3:TrackPointExtension>
        </extensions>
      </trkpt>
      <trkpt lat="43.77133143134415149688720703125" lon="1.585855744779109954833984375">
        <ele>158</ele>
        <time>2026-08-13T08:08:52.000Z</time>
        <extensions>
          <ns3:TrackPointExtension>
            <ns3:hr>76</ns3:hr>
            <ns3:cad>46</ns3:cad>
          </ns3:TrackPointExtension>
        </extensions>
      </trkpt>
      <trkpt lat="43.77132489345967769622802734375" lon="1.585865803062915802001953125">
        <ele>158</ele>
        <time>2026-08-13T08:08:53.000Z</time>
        <extensions>
          <ns3:TrackPointExtension>
            <ns3:hr>77</ns3:hr>
            <ns3:cad>46</ns3:cad>
          </ns3:TrackPointExtension>
        </extensions>
      </trkpt>
      <trkpt lat="43.77131802029907703399658203125" lon="1.5858735144138336181640625">
        <ele>158</ele>
        <time>2026-08-13T08:08:54.000Z</time>
        <extensions>
          <ns3:TrackPointExtension>
            <ns3:hr>77</ns3:hr>
            <ns3:cad>46</ns3:cad>
          </ns3:TrackPointExtension>
        </extensions>
      </trkpt>
      <trkpt lat="43.77130779437720775604248046875" lon="1.5858857519924640655517578125">
        <ele>158</ele>
        <time>2026-08-13T08:08:55.000Z</time>
        <extensions>
          <ns3:TrackPointExtension>
            <ns3:hr>77</ns3:hr>
            <ns3:cad>46</ns3:cad>
          </ns3:TrackPointExtension>
        </extensions>
      </trkpt>
      <trkpt lat="43.77129991538822650909423828125" lon="1.5858978219330310821533203125">
        <ele>158</ele>
        <time>2026-08-13T08:08:56.000Z</time>
        <extensions>
          <ns3:TrackPointExtension>
            <ns3:hr>78</ns3:hr>
            <ns3:cad>46</ns3:cad>
          </ns3:TrackPointExtension>
        </extensions>
      </trkpt>
      <trkpt lat="43.7712939642369747161865234375" lon="1.5859088860452175140380859375">
        <ele>158</ele>
        <time>2026-08-13T08:08:57.000Z</time>
        <extensions>
          <ns3:TrackPointExtension>
            <ns3:hr>79</ns3:hr>
            <ns3:cad>46</ns3:cad>
          </ns3:TrackPointExtension>
        </extensions>
      </trkpt>
      <trkpt lat="43.7712865881621837615966796875" lon="1.58591668121516704559326171875">
        <ele>158</ele>
        <time>2026-08-13T08:08:58.000Z</time>
        <extensions>
          <ns3:TrackPointExtension>
            <ns3:hr>79</ns3:hr>
            <ns3:cad>46</ns3:cad>
          </ns3:TrackPointExtension>
        </extensions>
      </trkpt>
      <trkpt lat="43.77128197811543941497802734375" lon="1.58592606894671916961669921875">
        <ele>158</ele>
        <time>2026-08-13T08:08:59.000Z</time>
        <extensions>
          <ns3:TrackPointExtension>
            <ns3:hr>79</ns3:hr>
            <ns3:cad>46</ns3:cad>
          </ns3:TrackPointExtension>
        </extensions>
      </trkpt>
      <trkpt lat="43.77127393148839473724365234375" lon="1.58594048582017421722412109375">
        <ele>158</ele>
        <time>2026-08-13T08:09:00.000Z</time>
        <extensions>
          <ns3:TrackPointExtension>
            <ns3:hr>79</ns3:hr>
            <ns3:cad>46</ns3:cad>
          </ns3:TrackPointExtension>
        </extensions>
      </trkpt>
      <trkpt lat="43.7712661363184452056884765625" lon="1.5859531424939632415771484375">
        <ele>158</ele>
        <time>2026-08-13T08:09:01.000Z</time>
        <extensions>
          <ns3:TrackPointExtension>
            <ns3:hr>78</ns3:hr>
            <ns3:cad>46</ns3:cad>
          </ns3:TrackPointExtension>
        </extensions>
      </trkpt>
      <trkpt lat="43.77126119099557399749755859375" lon="1.58595959655940532684326171875">
        <ele>158</ele>
        <time>2026-08-13T08:09:02.000Z</time>
        <extensions>
          <ns3:TrackPointExtension>
            <ns3:hr>79</ns3:hr>
            <ns3:cad>48</ns3:cad>
          </ns3:TrackPointExtension>
        </extensions>
      </trkpt>
      <trkpt lat="43.7712517194449901580810546875" lon="1.5859642066061496734619140625">
        <ele>158</ele>
        <time>2026-08-13T08:09:03.000Z</time>
        <extensions>
          <ns3:TrackPointExtension>
            <ns3:hr>79</ns3:hr>
            <ns3:cad>48</ns3:cad>
          </ns3:TrackPointExtension>
        </extensions>
      </trkpt>
      <trkpt lat="43.77124224789440631866455078125" lon="1.585976779460906982421875">
        <ele>158</ele>
        <time>2026-08-13T08:09:04.000Z</time>
        <extensions>
          <ns3:TrackPointExtension>
            <ns3:hr>79</ns3:hr>
            <ns3:cad>46</ns3:cad>
          </ns3:TrackPointExtension>
        </extensions>
      </trkpt>
      <trkpt lat="43.7712309323251247406005859375" lon="1.585992872714996337890625">
        <ele>158</ele>
        <time>2026-08-13T08:09:05.000Z</time>
        <extensions>
          <ns3:TrackPointExtension>
            <ns3:hr>79</ns3:hr>
            <ns3:cad>46</ns3:cad>
          </ns3:TrackPointExtension>
        </extensions>
      </trkpt>
      <trkpt lat="43.77122665755450725555419921875" lon="1.58600586466491222381591796875">
        <ele>158</ele>
        <time>2026-08-13T08:09:06.000Z</time>
        <extensions>
          <ns3:TrackPointExtension>
            <ns3:hr>79</ns3:hr>
            <ns3:cad>46</ns3:cad>
          </ns3:TrackPointExtension>
        </extensions>
      </trkpt>
      <trkpt lat="43.77122129313647747039794921875" lon="1.58600888215005397796630859375">
        <ele>158</ele>
        <time>2026-08-13T08:09:07.000Z</time>
        <extensions>
          <ns3:TrackPointExtension>
            <ns3:hr>79</ns3:hr>
            <ns3:cad>46</ns3:cad>
          </ns3:TrackPointExtension>
        </extensions>
      </trkpt>
      <trkpt lat="43.77121509052813053131103515625" lon="1.58601525239646434783935546875">
        <ele>158</ele>
        <time>2026-08-13T08:09:08.000Z</time>
        <extensions>
          <ns3:TrackPointExtension>
            <ns3:hr>79</ns3:hr>
            <ns3:cad>46</ns3:cad>
          </ns3:TrackPointExtension>
        </extensions>
      </trkpt>
      <trkpt lat="43.77120553515851497650146484375" lon="1.586026065051555633544921875">
        <ele>158</ele>
        <time>2026-08-13T08:09:09.000Z</time>
        <extensions>
          <ns3:TrackPointExtension>
            <ns3:hr>80</ns3:hr>
            <ns3:cad>46</ns3:cad>
          </ns3:TrackPointExtension>
        </extensions>
      </trkpt>
      <trkpt lat="43.771197907626628875732421875" lon="1.58603553660213947296142578125">
        <ele>158</ele>
        <time>2026-08-13T08:09:10.000Z</time>
        <extensions>
          <ns3:TrackPointExtension>
            <ns3:hr>80</ns3:hr>
            <ns3:cad>46</ns3:cad>
          </ns3:TrackPointExtension>
        </extensions>
      </trkpt>
      <trkpt lat="43.7711901962757110595703125" lon="1.58604358322918415069580078125">
        <ele>158</ele>
        <time>2026-08-13T08:09:11.000Z</time>
        <extensions>
          <ns3:TrackPointExtension>
            <ns3:hr>80</ns3:hr>
            <ns3:cad>46</ns3:cad>
          </ns3:TrackPointExtension>
        </extensions>
      </trkpt>
      <trkpt lat="43.7711853347718715667724609375" lon="1.5860500372946262359619140625">
        <ele>158</ele>
        <time>2026-08-13T08:09:12.000Z</time>
        <extensions>
          <ns3:TrackPointExtension>
            <ns3:hr>80</ns3:hr>
            <ns3:cad>47</ns3:cad>
          </ns3:TrackPointExtension>
        </extensions>
      </trkpt>
      <trkpt lat="43.771173767745494842529296875" lon="1.58606084994971752166748046875">
        <ele>157.8000030517578125</ele>
        <time>2026-08-13T08:09:13.000Z</time>
        <extensions>
          <ns3:TrackPointExtension>
            <ns3:hr>79</ns3:hr>
            <ns3:cad>47</ns3:cad>
          </ns3:TrackPointExtension>
        </extensions>
      </trkpt>
      <trkpt lat="43.771164715290069580078125" lon="1.58607141114771366119384765625">
        <ele>157.8000030517578125</ele>
        <time>2026-08-13T08:09:14.000Z</time>
        <extensions>
          <ns3:TrackPointExtension>
            <ns3:hr>79</ns3:hr>
            <ns3:cad>47</ns3:cad>
          </ns3:TrackPointExtension>
        </extensions>
      </trkpt>
      <trkpt lat="43.77115775831043720245361328125" lon="1.58607560209929943084716796875">
        <ele>157.8000030517578125</ele>
        <time>2026-08-13T08:09:15.000Z</time>
        <extensions>
          <ns3:TrackPointExtension>
            <ns3:hr>79</ns3:hr>
            <ns3:cad>47</ns3:cad>
          </ns3:TrackPointExtension>
        </extensions>
      </trkpt>
      <trkpt lat="43.77115524373948574066162109375" lon="1.5860818885266780853271484375">
        <ele>157.8000030517578125</ele>
        <time>2026-08-13T08:09:16.000Z</time>
        <extensions>
          <ns3:TrackPointExtension>
            <ns3:hr>80</ns3:hr>
            <ns3:cad>47</ns3:cad>
          </ns3:TrackPointExtension>
        </extensions>
      </trkpt>
      <trkpt lat="43.7711471132934093475341796875" lon="1.5860966406762599945068359375">
        <ele>157.8000030517578125</ele>
        <time>2026-08-13T08:09:17.000Z</time>
        <extensions>
          <ns3:TrackPointExtension>
            <ns3:hr>80</ns3:hr>
            <ns3:cad>47</ns3:cad>
          </ns3:TrackPointExtension>
        </extensions>
      </trkpt>
      <trkpt lat="43.77114166505634784698486328125" lon="1.586104519665241241455078125">
        <ele>157.8000030517578125</ele>
        <time>2026-08-13T08:09:18.000Z</time>
        <extensions>
          <ns3:TrackPointExtension>
            <ns3:hr>79</ns3:hr>
            <ns3:cad>45</ns3:cad>
          </ns3:TrackPointExtension>
        </extensions>
      </trkpt>
      <trkpt lat="43.77113495953381061553955078125" lon="1.58610996790230274200439453125">
        <ele>157.8000030517578125</ele>
        <time>2026-08-13T08:09:19.000Z</time>
        <extensions>
          <ns3:TrackPointExtension>
            <ns3:hr>79</ns3:hr>
            <ns3:cad>44</ns3:cad>
          </ns3:TrackPointExtension>
        </extensions>
      </trkpt>
      <trkpt lat="43.77112590707838535308837890625" lon="1.58611834980547428131103515625">
        <ele>157.8000030517578125</ele>
        <time>2026-08-13T08:09:20.000Z</time>
        <extensions>
          <ns3:TrackPointExtension>
            <ns3:hr>79</ns3:hr>
            <ns3:cad>44</ns3:cad>
          </ns3:TrackPointExtension>
        </extensions>
      </trkpt>
      <trkpt lat="43.7711152620613574981689453125" lon="1.5861251391470432281494140625">
        <ele>157.600006103515625</ele>
        <time>2026-08-13T08:09:21.000Z</time>
        <extensions>
          <ns3:TrackPointExtension>
            <ns3:hr>80</ns3:hr>
            <ns3:cad>44</ns3:cad>
          </ns3:TrackPointExtension>
        </extensions>
      </trkpt>
      <trkpt lat="43.7711062096059322357177734375" lon="1.58613301813602447509765625">
        <ele>157.600006103515625</ele>
        <time>2026-08-13T08:09:22.000Z</time>
        <extensions>
          <ns3:TrackPointExtension>
            <ns3:hr>79</ns3:hr>
            <ns3:cad>44</ns3:cad>
          </ns3:TrackPointExtension>
        </extensions>
      </trkpt>
      <trkpt lat="43.77109891735017299652099609375" lon="1.58613628707826137542724609375">
        <ele>157.600006103515625</ele>
        <time>2026-08-13T08:09:23.000Z</time>
        <extensions>
          <ns3:TrackPointExtension>
            <ns3:hr>80</ns3:hr>
            <ns3:cad>44</ns3:cad>
          </ns3:TrackPointExtension>
        </extensions>
      </trkpt>
      <trkpt lat="43.77108952961862087249755859375" lon="1.58614500425755977630615234375">
        <ele>157.600006103515625</ele>
        <time>2026-08-13T08:09:24.000Z</time>
        <extensions>
          <ns3:TrackPointExtension>
            <ns3:hr>80</ns3:hr>
            <ns3:cad>44</ns3:cad>
          </ns3:TrackPointExtension>
        </extensions>
      </trkpt>
      <trkpt lat="43.7710777111351490020751953125" lon="1.58615489490330219268798828125">
        <ele>157.600006103515625</ele>
        <time>2026-08-13T08:09:25.000Z</time>
        <extensions>
          <ns3:TrackPointExtension>
            <ns3:hr>80</ns3:hr>
            <ns3:cad>44</ns3:cad>
          </ns3:TrackPointExtension>
        </extensions>
      </trkpt>
      <trkpt lat="43.77106773667037487030029296875" lon="1.58616126514971256256103515625">
        <ele>157.600006103515625</ele>
        <time>2026-08-13T08:09:26.000Z</time>
        <extensions>
          <ns3:TrackPointExtension>
            <ns3:hr>80</ns3:hr>
            <ns3:cad>44</ns3:cad>
          </ns3:TrackPointExtension>
        </extensions>
      </trkpt>
      <trkpt lat="43.77106077969074249267578125" lon="1.58616595901548862457275390625">
        <ele>157.600006103515625</ele>
        <time>2026-08-13T08:09:27.000Z</time>
        <extensions>
          <ns3:TrackPointExtension>
            <ns3:hr>80</ns3:hr>
            <ns3:cad>44</ns3:cad>
          </ns3:TrackPointExtension>
        </extensions>
      </trkpt>
      <trkpt lat="43.7710539065301418304443359375" lon="1.58617434091866016387939453125">
        <ele>157.600006103515625</ele>
        <time>2026-08-13T08:09:28.000Z</time>
        <extensions>
          <ns3:TrackPointExtension>
            <ns3:hr>80</ns3:hr>
            <ns3:cad>44</ns3:cad>
          </ns3:TrackPointExtension>
        </extensions>
      </trkpt>
      <trkpt lat="43.77104242332279682159423828125" lon="1.5861831419169902801513671875">
        <ele>157.8000030517578125</ele>
        <time>2026-08-13T08:09:29.000Z</time>
        <extensions>
          <ns3:TrackPointExtension>
            <ns3:hr>80</ns3:hr>
            <ns3:cad>45</ns3:cad>
          </ns3:TrackPointExtension>
        </extensions>
      </trkpt>
      <trkpt lat="43.77103320322930812835693359375" lon="1.586191020905971527099609375">
        <ele>157.8000030517578125</ele>
        <time>2026-08-13T08:09:30.000Z</time>
        <extensions>
          <ns3:TrackPointExtension>
            <ns3:hr>80</ns3:hr>
            <ns3:cad>45</ns3:cad>
          </ns3:TrackPointExtension>
        </extensions>
      </trkpt>
      <trkpt lat="43.77102767117321491241455078125" lon="1.586198396980762481689453125">
        <ele>157.8000030517578125</ele>
        <time>2026-08-13T08:09:31.000Z</time>
        <extensions>
          <ns3:TrackPointExtension>
            <ns3:hr>79</ns3:hr>
            <ns3:cad>46</ns3:cad>
          </ns3:TrackPointExtension>
        </extensions>
      </trkpt>
      <trkpt lat="43.77101861871778964996337890625" lon="1.5862087905406951904296875">
        <ele>157.8000030517578125</ele>
        <time>2026-08-13T08:09:32.000Z</time>
        <extensions>
          <ns3:TrackPointExtension>
            <ns3:hr>79</ns3:hr>
            <ns3:cad>46</ns3:cad>
          </ns3:TrackPointExtension>
        </extensions>
      </trkpt>
      <trkpt lat="43.77100571058690547943115234375" lon="1.58622329123318195343017578125">
        <ele>157.8000030517578125</ele>
        <time>2026-08-13T08:09:33.000Z</time>
        <extensions>
          <ns3:TrackPointExtension>
            <ns3:hr>79</ns3:hr>
            <ns3:cad>44</ns3:cad>
          </ns3:TrackPointExtension>
        </extensions>
      </trkpt>
      <trkpt lat="43.7710002623498439788818359375" lon="1.5862275660037994384765625">
        <ele>157.8000030517578125</ele>
        <time>2026-08-13T08:09:34.000Z</time>
        <extensions>
          <ns3:TrackPointExtension>
            <ns3:hr>79</ns3:hr>
            <ns3:cad>44</ns3:cad>
          </ns3:TrackPointExtension>
        </extensions>
      </trkpt>
      <trkpt lat="43.77099498175084590911865234375" lon="1.5862327627837657928466796875">
        <ele>157.8000030517578125</ele>
        <time>2026-08-13T08:09:35.000Z</time>
        <extensions>
          <ns3:TrackPointExtension>
            <ns3:hr>79</ns3:hr>
            <ns3:cad>45</ns3:cad>
          </ns3:TrackPointExtension>
        </extensions>
      </trkpt>
      <trkpt lat="43.770985342562198638916015625" lon="1.5862414799630641937255859375">
        <ele>157.8000030517578125</ele>
        <time>2026-08-13T08:09:36.000Z</time>
        <extensions>
          <ns3:TrackPointExtension>
            <ns3:hr>79</ns3:hr>
            <ns3:cad>45</ns3:cad>
          </ns3:TrackPointExtension>
        </extensions>
      </trkpt>
      <trkpt lat="43.77097637392580509185791015625" lon="1.58625581301748752593994140625">
        <ele>157.8000030517578125</ele>
        <time>2026-08-13T08:09:37.000Z</time>
        <extensions>
          <ns3:TrackPointExtension>
            <ns3:hr>79</ns3:hr>
            <ns3:cad>45</ns3:cad>
          </ns3:TrackPointExtension>
        </extensions>
      </trkpt>
      <trkpt lat="43.77097092568874359130859375" lon="1.5862652845680713653564453125">
        <ele>157.8000030517578125</ele>
        <time>2026-08-13T08:09:38.000Z</time>
        <extensions>
          <ns3:TrackPointExtension>
            <ns3:hr>79</ns3:hr>
            <ns3:cad>43</ns3:cad>
          </ns3:TrackPointExtension>
        </extensions>
      </trkpt>
      <trkpt lat="43.7709583528339862823486328125" lon="1.58626453019678592681884765625">
        <ele>157.8000030517578125</ele>
        <time>2026-08-13T08:09:39.000Z</time>
        <extensions>
          <ns3:TrackPointExtension>
            <ns3:hr>79</ns3:hr>
            <ns3:cad>45</ns3:cad>
          </ns3:TrackPointExtension>
        </extensions>
      </trkpt>
      <trkpt lat="43.77095139585435390472412109375" lon="1.5862691402435302734375">
        <ele>157.8000030517578125</ele>
        <time>2026-08-13T08:09:40.000Z</time>
        <extensions>
          <ns3:TrackPointExtension>
            <ns3:hr>79</ns3:hr>
            <ns3:cad>45</ns3:cad>
          </ns3:TrackPointExtension>
        </extensions>
      </trkpt>
      <trkpt lat="43.77094368450343608856201171875" lon="1.58627517521381378173828125">
        <ele>158</ele>
        <time>2026-08-13T08:09:41.000Z</time>
        <extensions>
          <ns3:TrackPointExtension>
            <ns3:hr>78</ns3:hr>
            <ns3:cad>45</ns3:cad>
          </ns3:TrackPointExtension>
        </extensions>
      </trkpt>
      <trkpt lat="43.7709342129528522491455078125" lon="1.5862820483744144439697265625">
        <ele>158</ele>
        <time>2026-08-13T08:09:42.000Z</time>
        <extensions>
          <ns3:TrackPointExtension>
            <ns3:hr>78</ns3:hr>
            <ns3:cad>45</ns3:cad>
          </ns3:TrackPointExtension>
        </extensions>
      </trkpt>
      <trkpt lat="43.7709300220012664794921875" lon="1.5862837247550487518310546875">
        <ele>158</ele>
        <time>2026-08-13T08:09:43.000Z</time>
        <extensions>
          <ns3:TrackPointExtension>
            <ns3:hr>78</ns3:hr>
            <ns3:cad>45</ns3:cad>
          </ns3:TrackPointExtension>
        </extensions>
      </trkpt>
      <trkpt lat="43.77091669477522373199462890625" lon="1.586287580430507659912109375">
        <ele>158</ele>
        <time>2026-08-13T08:09:44.000Z</time>
        <extensions>
          <ns3:TrackPointExtension>
            <ns3:hr>78</ns3:hr>
            <ns3:cad>45</ns3:cad>
          </ns3:TrackPointExtension>
        </extensions>
      </trkpt>
      <trkpt lat="43.77090789377689361572265625" lon="1.58629638142883777618408203125">
        <ele>157.8000030517578125</ele>
        <time>2026-08-13T08:09:45.000Z</time>
        <extensions>
          <ns3:TrackPointExtension>
            <ns3:hr>77</ns3:hr>
            <ns3:cad>44</ns3:cad>
          </ns3:TrackPointExtension>
        </extensions>
      </trkpt>
      <trkpt lat="43.7709003500640392303466796875" lon="1.5863025002181529998779296875">
        <ele>157.8000030517578125</ele>
        <time>2026-08-13T08:09:46.000Z</time>
        <extensions>
          <ns3:TrackPointExtension>
            <ns3:hr>77</ns3:hr>
            <ns3:cad>0</ns3:cad>
          </ns3:TrackPointExtension>
        </extensions>
      </trkpt>
      <trkpt lat="43.77089724875986576080322265625" lon="1.586309373378753662109375">
        <ele>157.8000030517578125</ele>
        <time>2026-08-13T08:09:47.000Z</time>
        <extensions>
          <ns3:TrackPointExtension>
            <ns3:hr>77</ns3:hr>
            <ns3:cad>0</ns3:cad>
          </ns3:TrackPointExtension>
        </extensions>
      </trkpt>
      <trkpt lat="43.7708902917802333831787109375" lon="1.5863159112632274627685546875">
        <ele>157.8000030517578125</ele>
        <time>2026-08-13T08:09:48.000Z</time>
        <extensions>
          <ns3:TrackPointExtension>
            <ns3:hr>77</ns3:hr>
            <ns3:cad>0</ns3:cad>
          </ns3:TrackPointExtension>
        </extensions>
      </trkpt>
      <trkpt lat="43.7708790600299835205078125" lon="1.5863246284425258636474609375">
        <ele>157.8000030517578125</ele>
        <time>2026-08-13T08:09:49.000Z</time>
        <extensions>
          <ns3:TrackPointExtension>
            <ns3:hr>77</ns3:hr>
            <ns3:cad>0</ns3:cad>
          </ns3:TrackPointExtension>
        </extensions>
      </trkpt>
      <trkpt lat="43.77086908556520938873291015625" lon="1.5863336808979511260986328125">
        <ele>157.8000030517578125</ele>
        <time>2026-08-13T08:09:50.000Z</time>
        <extensions>
          <ns3:TrackPointExtension>
            <ns3:hr>77</ns3:hr>
            <ns3:cad>0</ns3:cad>
          </ns3:TrackPointExtension>
        </extensions>
      </trkpt>
      <trkpt lat="43.770859949290752410888671875" lon="1.58634197898209095001220703125">
        <ele>157.8000030517578125</ele>
        <time>2026-08-13T08:09:51.000Z</time>
        <extensions>
          <ns3:TrackPointExtension>
            <ns3:hr>77</ns3:hr>
            <ns3:cad>0</ns3:cad>
          </ns3:TrackPointExtension>
        </extensions>
      </trkpt>
      <trkpt lat="43.770853243768215179443359375" lon="1.5863464213907718658447265625">
        <ele>157.8000030517578125</ele>
        <time>2026-08-13T08:09:52.000Z</time>
        <extensions>
          <ns3:TrackPointExtension>
            <ns3:hr>77</ns3:hr>
            <ns3:cad>52</ns3:cad>
          </ns3:TrackPointExtension>
        </extensions>
      </trkpt>
      <trkpt lat="43.77084544859826564788818359375" lon="1.5863504447042942047119140625">
        <ele>157.8000030517578125</ele>
        <time>2026-08-13T08:09:53.000Z</time>
        <extensions>
          <ns3:TrackPointExtension>
            <ns3:hr>77</ns3:hr>
            <ns3:cad>52</ns3:cad>
          </ns3:TrackPointExtension>
        </extensions>
      </trkpt>
      <trkpt lat="43.77083622850477695465087890625" lon="1.58635924570262432098388671875">
        <ele>157.8000030517578125</ele>
        <time>2026-08-13T08:09:54.000Z</time>
        <extensions>
          <ns3:TrackPointExtension>
            <ns3:hr>78</ns3:hr>
            <ns3:cad>52</ns3:cad>
          </ns3:TrackPointExtension>
        </extensions>
      </trkpt>
      <trkpt lat="43.77082918770611286163330078125" lon="1.5863641910254955291748046875">
        <ele>157.8000030517578125</ele>
        <time>2026-08-13T08:09:55.000Z</time>
        <extensions>
          <ns3:TrackPointExtension>
            <ns3:hr>77</ns3:hr>
            <ns3:cad>52</ns3:cad>
          </ns3:TrackPointExtension>
        </extensions>
      </trkpt>
      <trkpt lat="43.77082298509776592254638671875" lon="1.5863675437867641448974609375">
        <ele>157.8000030517578125</ele>
        <time>2026-08-13T08:09:56.000Z</time>
        <extensions>
          <ns3:TrackPointExtension>
            <ns3:hr>77</ns3:hr>
            <ns3:cad>52</ns3:cad>
          </ns3:TrackPointExtension>
        </extensions>
      </trkpt>
      <trkpt lat="43.770813010632991790771484375" lon="1.5863712318241596221923828125">
        <ele>157.8000030517578125</ele>
        <time>2026-08-13T08:09:57.000Z</time>
        <extensions>
          <ns3:TrackPointExtension>
            <ns3:hr>77</ns3:hr>
            <ns3:cad>48</ns3:cad>
          </ns3:TrackPointExtension>
        </extensions>
      </trkpt>
      <trkpt lat="43.77080085687339305877685546875" lon="1.5863796137273311614990234375">
        <ele>157.8000030517578125</ele>
        <time>2026-08-13T08:09:58.000Z</time>
        <extensions>
          <ns3:TrackPointExtension>
            <ns3:hr>78</ns3:hr>
            <ns3:cad>47</ns3:cad>
          </ns3:TrackPointExtension>
        </extensions>
      </trkpt>
      <trkpt lat="43.77079297788441181182861328125" lon="1.58638405613601207733154296875">
        <ele>157.8000030517578125</ele>
        <time>2026-08-13T08:09:59.000Z</time>
        <extensions>
          <ns3:TrackPointExtension>
            <ns3:hr>77</ns3:hr>
            <ns3:cad>47</ns3:cad>
          </ns3:TrackPointExtension>
        </extensions>
      </trkpt>
      <trkpt lat="43.77078987658023834228515625" lon="1.5863831341266632080078125">
        <ele>157.8000030517578125</ele>
        <time>2026-08-13T08:10:00.000Z</time>
        <extensions>
          <ns3:TrackPointExtension>
            <ns3:hr>77</ns3:hr>
            <ns3:cad>47</ns3:cad>
          </ns3:TrackPointExtension>
        </extensions>
      </trkpt>
      <trkpt lat="43.770783841609954833984375" lon="1.5863943658769130706787109375">
        <ele>157.8000030517578125</ele>
        <time>2026-08-13T08:10:01.000Z</time>
        <extensions>
          <ns3:TrackPointExtension>
            <ns3:hr>78</ns3:hr>
            <ns3:cad>47</ns3:cad>
          </ns3:TrackPointExtension>
        </extensions>
      </trkpt>
      <trkpt lat="43.7707716040313243865966796875" lon="1.58640769310295581817626953125">
        <ele>157.8000030517578125</ele>
        <time>2026-08-13T08:10:02.000Z</time>
        <extensions>
          <ns3:TrackPointExtension>
            <ns3:hr>77</ns3:hr>
            <ns3:cad>45</ns3:cad>
          </ns3:TrackPointExtension>
        </extensions>
      </trkpt>
      <trkpt lat="43.77076045610010623931884765625" lon="1.58641657792031764984130859375">
        <ele>157.8000030517578125</ele>
        <time>2026-08-13T08:10:03.000Z</time>
        <extensions>
          <ns3:TrackPointExtension>
            <ns3:hr>78</ns3:hr>
            <ns3:cad>45</ns3:cad>
          </ns3:TrackPointExtension>
        </extensions>
      </trkpt>
      <trkpt lat="43.7707555107772350311279296875" lon="1.5864193439483642578125">
        <ele>157.8000030517578125</ele>
        <time>2026-08-13T08:10:04.000Z</time>
        <extensions>
          <ns3:TrackPointExtension>
            <ns3:hr>78</ns3:hr>
            <ns3:cad>45</ns3:cad>
          </ns3:TrackPointExtension>
        </extensions>
      </trkpt>
      <trkpt lat="43.77074419520795345306396484375" lon="1.58642697148025035858154296875">
        <ele>157.8000030517578125</ele>
        <time>2026-08-13T08:10:05.000Z</time>
        <extensions>
          <ns3:TrackPointExtension>
            <ns3:hr>78</ns3:hr>
            <ns3:cad>45</ns3:cad>
          </ns3:TrackPointExtension>
        </extensions>
      </trkpt>
      <trkpt lat="43.7707303650677204132080078125" lon="1.58643870614469051361083984375">
        <ele>157.8000030517578125</ele>
        <time>2026-08-13T08:10:06.000Z</time>
        <extensions>
          <ns3:TrackPointExtension>
            <ns3:hr>78</ns3:hr>
            <ns3:cad>46</ns3:cad>
          </ns3:TrackPointExtension>
        </extensions>
      </trkpt>
      <trkpt lat="43.7707229889929294586181640625" lon="1.5864506922662258148193359375">
        <ele>157.8000030517578125</ele>
        <time>2026-08-13T08:10:07.000Z</time>
        <extensions>
          <ns3:TrackPointExtension>
            <ns3:hr>77</ns3:hr>
            <ns3:cad>46</ns3:cad>
          </ns3:TrackPointExtension>
        </extensions>
      </trkpt>
      <trkpt lat="43.77071318216621875762939453125" lon="1.58645479939877986907958984375">
        <ele>157.8000030517578125</ele>
        <time>2026-08-13T08:10:08.000Z</time>
        <extensions>
          <ns3:TrackPointExtension>
            <ns3:hr>78</ns3:hr>
            <ns3:cad>46</ns3:cad>
          </ns3:TrackPointExtension>
        </extensions>
      </trkpt>
      <trkpt lat="43.7707065604627132415771484375" lon="1.5864563919603824615478515625">
        <ele>157.8000030517578125</ele>
        <time>2026-08-13T08:10:09.000Z</time>
        <extensions>
          <ns3:TrackPointExtension>
            <ns3:hr>78</ns3:hr>
            <ns3:cad>46</ns3:cad>
          </ns3:TrackPointExtension>
        </extensions>
      </trkpt>
      <trkpt lat="43.7706951610743999481201171875" lon="1.586465947329998016357421875">
        <ele>157.8000030517578125</ele>
        <time>2026-08-13T08:10:10.000Z</time>
        <extensions>
          <ns3:TrackPointExtension>
            <ns3:hr>77</ns3:hr>
            <ns3:cad>46</ns3:cad>
          </ns3:TrackPointExtension>
        </extensions>
      </trkpt>
      <trkpt lat="43.7706824205815792083740234375" lon="1.58647835254669189453125">
        <ele>157.8000030517578125</ele>
        <time>2026-08-13T08:10:11.000Z</time>
        <extensions>
          <ns3:TrackPointExtension>
            <ns3:hr>78</ns3:hr>
            <ns3:cad>46</ns3:cad>
          </ns3:TrackPointExtension>
        </extensions>
      </trkpt>
      <trkpt lat="43.77067211084067821502685546875" lon="1.5864837169647216796875">
        <ele>157.8000030517578125</ele>
        <time>2026-08-13T08:10:12.000Z</time>
        <extensions>
          <ns3:TrackPointExtension>
            <ns3:hr>77</ns3:hr>
            <ns3:cad>47</ns3:cad>
          </ns3:TrackPointExtension>
        </extensions>
      </trkpt>
      <trkpt lat="43.7706669978797435760498046875" lon="1.58648572862148284912109375">
        <ele>157.600006103515625</ele>
        <time>2026-08-13T08:10:13.000Z</time>
        <extensions>
          <ns3:TrackPointExtension>
            <ns3:hr>77</ns3:hr>
            <ns3:cad>47</ns3:cad>
          </ns3:TrackPointExtension>
        </extensions>
      </trkpt>
      <trkpt lat="43.770654089748859405517578125" lon="1.5864949487149715423583984375">
        <ele>157.600006103515625</ele>
        <time>2026-08-13T08:10:14.000Z</time>
        <extensions>
          <ns3:TrackPointExtension>
            <ns3:hr>77</ns3:hr>
            <ns3:cad>47</ns3:cad>
          </ns3:TrackPointExtension>
        </extensions>
      </trkpt>
      <trkpt lat="43.7706411816179752349853515625" lon="1.58650048077106475830078125">
        <ele>157.600006103515625</ele>
        <time>2026-08-13T08:10:15.000Z</time>
        <extensions>
          <ns3:TrackPointExtension>
            <ns3:hr>76</ns3:hr>
            <ns3:cad>46</ns3:cad>
          </ns3:TrackPointExtension>
        </extensions>
      </trkpt>
      <trkpt lat="43.7706322968006134033203125" lon="1.58650458790361881256103515625">
        <ele>157.600006103515625</ele>
        <time>2026-08-13T08:10:16.000Z</time>
        <extensions>
          <ns3:TrackPointExtension>
            <ns3:hr>76</ns3:hr>
            <ns3:cad>48</ns3:cad>
          </ns3:TrackPointExtension>
        </extensions>
      </trkpt>
      <trkpt lat="43.77062617801129817962646484375" lon="1.58650592900812625885009765625">
        <ele>157.600006103515625</ele>
        <time>2026-08-13T08:10:17.000Z</time>
        <extensions>
          <ns3:TrackPointExtension>
            <ns3:hr>76</ns3:hr>
            <ns3:cad>48</ns3:cad>
          </ns3:TrackPointExtension>
        </extensions>
      </trkpt>
      <trkpt lat="43.7706187181174755096435546875" lon="1.5865113772451877593994140625">
        <ele>157.600006103515625</ele>
        <time>2026-08-13T08:10:18.000Z</time>
        <extensions>
          <ns3:TrackPointExtension>
            <ns3:hr>75</ns3:hr>
            <ns3:cad>48</ns3:cad>
          </ns3:TrackPointExtension>
        </extensions>
      </trkpt>
      <trkpt lat="43.77060757018625736236572265625" lon="1.586518920958042144775390625">
        <ele>157.600006103515625</ele>
        <time>2026-08-13T08:10:19.000Z</time>
        <extensions>
          <ns3:TrackPointExtension>
            <ns3:hr>76</ns3:hr>
            <ns3:cad>46</ns3:cad>
          </ns3:TrackPointExtension>
        </extensions>
      </trkpt>
      <trkpt lat="43.7705979309976100921630859375" lon="1.58652336336672306060791015625">
        <ele>157.8000030517578125</ele>
        <time>2026-08-13T08:10:20.000Z</time>
        <extensions>
          <ns3:TrackPointExtension>
            <ns3:hr>76</ns3:hr>
            <ns3:cad>46</ns3:cad>
          </ns3:TrackPointExtension>
        </extensions>
      </trkpt>
      <trkpt lat="43.7705915607511997222900390625" lon="1.58652487210929393768310546875">
        <ele>157.8000030517578125</ele>
        <time>2026-08-13T08:10:21.000Z</time>
        <extensions>
          <ns3:TrackPointExtension>
            <ns3:hr>76</ns3:hr>
            <ns3:cad>46</ns3:cad>
          </ns3:TrackPointExtension>
        </extensions>
      </trkpt>
      <trkpt lat="43.77058460377156734466552734375" lon="1.58652772195637226104736328125">
        <ele>157.8000030517578125</ele>
        <time>2026-08-13T08:10:22.000Z</time>
        <extensions>
          <ns3:TrackPointExtension>
            <ns3:hr>76</ns3:hr>
            <ns3:cad>45</ns3:cad>
          </ns3:TrackPointExtension>
        </extensions>
      </trkpt>
      <trkpt lat="43.7705724500119686126708984375" lon="1.5865355171263217926025390625">
        <ele>157.8000030517578125</ele>
        <time>2026-08-13T08:10:23.000Z</time>
        <extensions>
          <ns3:TrackPointExtension>
            <ns3:hr>76</ns3:hr>
            <ns3:cad>44</ns3:cad>
          </ns3:TrackPointExtension>
        </extensions>
      </trkpt>
      <trkpt lat="43.77056482248008251190185546875" lon="1.58654247410595417022705078125">
        <ele>157.600006103515625</ele>
        <time>2026-08-13T08:10:24.000Z</time>
        <extensions>
          <ns3:TrackPointExtension>
            <ns3:hr>77</ns3:hr>
            <ns3:cad>45</ns3:cad>
          </ns3:TrackPointExtension>
        </extensions>
      </trkpt>
      <trkpt lat="43.7705597095191478729248046875" lon="1.58654683269560337066650390625">
        <ele>157.600006103515625</ele>
        <time>2026-08-13T08:10:25.000Z</time>
        <extensions>
          <ns3:TrackPointExtension>
            <ns3:hr>77</ns3:hr>
            <ns3:cad>46</ns3:cad>
          </ns3:TrackPointExtension>
        </extensions>
      </trkpt>
      <trkpt lat="43.77054889686405658721923828125" lon="1.58655756153166294097900390625">
        <ele>157.8000030517578125</ele>
        <time>2026-08-13T08:10:26.000Z</time>
        <extensions>
          <ns3:TrackPointExtension>
            <ns3:hr>77</ns3:hr>
            <ns3:cad>47</ns3:cad>
          </ns3:TrackPointExtension>
        </extensions>
      </trkpt>
      <trkpt lat="43.77053531818091869354248046875" lon="1.58656778745353221893310546875">
        <ele>157.8000030517578125</ele>
        <time>2026-08-13T08:10:27.000Z</time>
        <extensions>
          <ns3:TrackPointExtension>
            <ns3:hr>78</ns3:hr>
            <ns3:cad>47</ns3:cad>
          </ns3:TrackPointExtension>
        </extensions>
      </trkpt>
      <trkpt lat="43.77052995376288890838623046875" lon="1.58657583408057689666748046875">
        <ele>157.8000030517578125</ele>
        <time>2026-08-13T08:10:28.000Z</time>
        <extensions>
          <ns3:TrackPointExtension>
            <ns3:hr>78</ns3:hr>
            <ns3:cad>47</ns3:cad>
          </ns3:TrackPointExtension>
        </extensions>
      </trkpt>
      <trkpt lat="43.77052031457424163818359375" lon="1.58657818101346492767333984375">
        <ele>157.8000030517578125</ele>
        <time>2026-08-13T08:10:29.000Z</time>
        <extensions>
          <ns3:TrackPointExtension>
            <ns3:hr>78</ns3:hr>
            <ns3:cad>46</ns3:cad>
          </ns3:TrackPointExtension>
        </extensions>
      </trkpt>
      <trkpt lat="43.77051268704235553741455078125" lon="1.58658170141279697418212890625">
        <ele>158</ele>
        <time>2026-08-13T08:10:30.000Z</time>
        <extensions>
          <ns3:TrackPointExtension>
            <ns3:hr>79</ns3:hr>
            <ns3:cad>0</ns3:cad>
          </ns3:TrackPointExtension>
        </extensions>
      </trkpt>
      <trkpt lat="43.770498521625995635986328125" lon="1.5865915082395076751708984375">
        <ele>158</ele>
        <time>2026-08-13T08:10:31.000Z</time>
        <extensions>
          <ns3:TrackPointExtension>
            <ns3:hr>80</ns3:hr>
            <ns3:cad>0</ns3:cad>
          </ns3:TrackPointExtension>
        </extensions>
      </trkpt>
      <trkpt lat="43.7704909779131412506103515625" lon="1.58659695647656917572021484375">
        <ele>158</ele>
        <time>2026-08-13T08:10:32.000Z</time>
        <extensions>
          <ns3:TrackPointExtension>
            <ns3:hr>80</ns3:hr>
            <ns3:cad>0</ns3:cad>
          </ns3:TrackPointExtension>
        </extensions>
      </trkpt>
      <trkpt lat="43.7704822607338428497314453125" lon="1.586601398885250091552734375">
        <ele>158</ele>
        <time>2026-08-13T08:10:33.000Z</time>
        <extensions>
          <ns3:TrackPointExtension>
            <ns3:hr>81</ns3:hr>
            <ns3:cad>0</ns3:cad>
          </ns3:TrackPointExtension>
        </extensions>
      </trkpt>
      <trkpt lat="43.7704715318977832794189453125" lon="1.58660768531262874603271484375">
        <ele>158</ele>
        <time>2026-08-13T08:10:34.000Z</time>
        <extensions>
          <ns3:TrackPointExtension>
            <ns3:hr>81</ns3:hr>
            <ns3:cad>0</ns3:cad>
          </ns3:TrackPointExtension>
        </extensions>
      </trkpt>
      <trkpt lat="43.7704594619572162628173828125" lon="1.586616151034832000732421875">
        <ele>157.8000030517578125</ele>
        <time>2026-08-13T08:10:35.000Z</time>
        <extensions>
          <ns3:TrackPointExtension>
            <ns3:hr>81</ns3:hr>
            <ns3:cad>0</ns3:cad>
          </ns3:TrackPointExtension>
        </extensions>
      </trkpt>
      <trkpt lat="43.77045351080596446990966796875" lon="1.5866193361580371856689453125">
        <ele>157.8000030517578125</ele>
        <time>2026-08-13T08:10:36.000Z</time>
        <extensions>
          <ns3:TrackPointExtension>
            <ns3:hr>81</ns3:hr>
            <ns3:cad>45</ns3:cad>
          </ns3:TrackPointExtension>
        </extensions>
      </trkpt>
      <trkpt lat="43.7704460509121417999267578125" lon="1.58662260510027408599853515625">
        <ele>157.8000030517578125</ele>
        <time>2026-08-13T08:10:37.000Z</time>
        <extensions>
          <ns3:TrackPointExtension>
            <ns3:hr>81</ns3:hr>
            <ns3:cad>45</ns3:cad>
          </ns3:TrackPointExtension>
        </extensions>
      </trkpt>
      <trkpt lat="43.7704383395612239837646484375" lon="1.5866283886134624481201171875">
        <ele>157.8000030517578125</ele>
        <time>2026-08-13T08:10:38.000Z</time>
        <extensions>
          <ns3:TrackPointExtension>
            <ns3:hr>81</ns3:hr>
            <ns3:cad>0</ns3:cad>
          </ns3:TrackPointExtension>
        </extensions>
      </trkpt>
      <trkpt lat="43.77043255604803562164306640625" lon="1.5866387821733951568603515625">
        <ele>157.8000030517578125</ele>
        <time>2026-08-13T08:10:39.000Z</time>
        <extensions>
          <ns3:TrackPointExtension>
            <ns3:hr>81</ns3:hr>
            <ns3:cad>0</ns3:cad>
          </ns3:TrackPointExtension>
        </extensions>
      </trkpt>
      <trkpt lat="43.77042643725872039794921875" lon="1.5866468288004398345947265625">
        <ele>157.8000030517578125</ele>
        <time>2026-08-13T08:10:40.000Z</time>
        <extensions>
          <ns3:TrackPointExtension>
            <ns3:hr>82</ns3:hr>
            <ns3:cad>44</ns3:cad>
          </ns3:TrackPointExtension>
        </extensions>
      </trkpt>
      <trkpt lat="43.77042115665972232818603515625" lon="1.5866505168378353118896484375">
        <ele>157.8000030517578125</ele>
        <time>2026-08-13T08:10:41.000Z</time>
        <extensions>
          <ns3:TrackPointExtension>
            <ns3:hr>82</ns3:hr>
            <ns3:cad>44</ns3:cad>
          </ns3:TrackPointExtension>
        </extensions>
      </trkpt>
      <trkpt lat="43.77041243948042392730712890625" lon="1.5866595692932605743408203125">
        <ele>157.8000030517578125</ele>
        <time>2026-08-13T08:10:42.000Z</time>
        <extensions>
          <ns3:TrackPointExtension>
            <ns3:hr>82</ns3:hr>
            <ns3:cad>44</ns3:cad>
          </ns3:TrackPointExtension>
        </extensions>
      </trkpt>
      <trkpt lat="43.77039886079728603363037109375" lon="1.58667122013866901397705078125">
        <ele>158</ele>
        <time>2026-08-13T08:10:43.000Z</time>
        <extensions>
          <ns3:TrackPointExtension>
            <ns3:hr>82</ns3:hr>
            <ns3:cad>44</ns3:cad>
          </ns3:TrackPointExtension>
        </extensions>
      </trkpt>
      <trkpt lat="43.77039148472249507904052734375" lon="1.58668077550828456878662109375">
        <ele>158</ele>
        <time>2026-08-13T08:10:44.000Z</time>
        <extensions>
          <ns3:TrackPointExtension>
            <ns3:hr>83</ns3:hr>
            <ns3:cad>44</ns3:cad>
          </ns3:TrackPointExtension>
        </extensions>
      </trkpt>
      <trkpt lat="43.770384527742862701416015625" lon="1.586688570678234100341796875">
        <ele>158</ele>
        <time>2026-08-13T08:10:45.000Z</time>
        <extensions>
          <ns3:TrackPointExtension>
            <ns3:hr>83</ns3:hr>
            <ns3:cad>44</ns3:cad>
          </ns3:TrackPointExtension>
        </extensions>
      </trkpt>
      <trkpt lat="43.77037681639194488525390625" lon="1.58670189790427684783935546875">
        <ele>158</ele>
        <time>2026-08-13T08:10:46.000Z</time>
        <extensions>
          <ns3:TrackPointExtension>
            <ns3:hr>83</ns3:hr>
            <ns3:cad>44</ns3:cad>
          </ns3:TrackPointExtension>
        </extensions>
      </trkpt>
      <trkpt lat="43.77036768011748790740966796875" lon="1.58671698532998561859130859375">
        <ele>158</ele>
        <time>2026-08-13T08:10:47.000Z</time>
        <extensions>
          <ns3:TrackPointExtension>
            <ns3:hr>82</ns3:hr>
            <ns3:cad>45</ns3:cad>
          </ns3:TrackPointExtension>
        </extensions>
      </trkpt>
      <trkpt lat="43.770361728966236114501953125" lon="1.58672419376671314239501953125">
        <ele>157.8000030517578125</ele>
        <time>2026-08-13T08:10:48.000Z</time>
        <extensions>
          <ns3:TrackPointExtension>
            <ns3:hr>83</ns3:hr>
            <ns3:cad>45</ns3:cad>
          </ns3:TrackPointExtension>
        </extensions>
      </trkpt>
      <trkpt lat="43.770355023443698883056640625" lon="1.58673240803182125091552734375">
        <ele>157.8000030517578125</ele>
        <time>2026-08-13T08:10:49.000Z</time>
        <extensions>
          <ns3:TrackPointExtension>
            <ns3:hr>82</ns3:hr>
            <ns3:cad>45</ns3:cad>
          </ns3:TrackPointExtension>
        </extensions>
      </trkpt>
      <trkpt lat="43.77034588716924190521240234375" lon="1.58674062229692935943603515625">
        <ele>157.8000030517578125</ele>
        <time>2026-08-13T08:10:50.000Z</time>
        <extensions>
          <ns3:TrackPointExtension>
            <ns3:hr>82</ns3:hr>
            <ns3:cad>44</ns3:cad>
          </ns3:TrackPointExtension>
        </extensions>
      </trkpt>
      <trkpt lat="43.77033901400864124298095703125" lon="1.586747579276561737060546875">
        <ele>157.8000030517578125</ele>
        <time>2026-08-13T08:10:51.000Z</time>
        <extensions>
          <ns3:TrackPointExtension>
            <ns3:hr>82</ns3:hr>
            <ns3:cad>44</ns3:cad>
          </ns3:TrackPointExtension>
        </extensions>
      </trkpt>
      <trkpt lat="43.77033364959061145782470703125" lon="1.58675319515168666839599609375">
        <ele>157.8000030517578125</ele>
        <time>2026-08-13T08:10:52.000Z</time>
        <extensions>
          <ns3:TrackPointExtension>
            <ns3:hr>82</ns3:hr>
            <ns3:cad>44</ns3:cad>
          </ns3:TrackPointExtension>
        </extensions>
      </trkpt>
      <trkpt lat="43.7703320570290088653564453125" lon="1.5867601521313190460205078125">
        <ele>157.8000030517578125</ele>
        <time>2026-08-13T08:10:53.000Z</time>
        <extensions>
          <ns3:TrackPointExtension>
            <ns3:hr>82</ns3:hr>
            <ns3:cad>0</ns3:cad>
          </ns3:TrackPointExtension>
        </extensions>
      </trkpt>
      <trkpt lat="43.77032610587775707244873046875" lon="1.58676601946353912353515625">
        <ele>157.8000030517578125</ele>
        <time>2026-08-13T08:10:54.000Z</time>
        <extensions>
          <ns3:TrackPointExtension>
            <ns3:hr>82</ns3:hr>
            <ns3:cad>0</ns3:cad>
          </ns3:TrackPointExtension>
        </extensions>
      </trkpt>
      <trkpt lat="43.77031780779361724853515625" lon="1.586772389709949493408203125">
        <ele>157.8000030517578125</ele>
        <time>2026-08-13T08:10:55.000Z</time>
        <extensions>
          <ns3:TrackPointExtension>
            <ns3:hr>82</ns3:hr>
            <ns3:cad>0</ns3:cad>
          </ns3:TrackPointExtension>
        </extensions>
      </trkpt>
      <trkpt lat="43.7703048996627330780029296875" lon="1.58678337000310420989990234375">
        <ele>157.8000030517578125</ele>
        <time>2026-08-13T08:10:56.000Z</time>
        <extensions>
          <ns3:TrackPointExtension>
            <ns3:hr>83</ns3:hr>
            <ns3:cad>0</ns3:cad>
          </ns3:TrackPointExtension>
        </extensions>
      </trkpt>
      <trkpt lat="43.7702975235879421234130859375" lon="1.58679912798106670379638671875">
        <ele>157.600006103515625</ele>
        <time>2026-08-13T08:10:57.000Z</time>
        <extensions>
          <ns3:TrackPointExtension>
            <ns3:hr>83</ns3:hr>
            <ns3:cad>48</ns3:cad>
          </ns3:TrackPointExtension>
        </extensions>
      </trkpt>
      <trkpt lat="43.7702894769608974456787109375" lon="1.58681086264550685882568359375">
        <ele>157.600006103515625</ele>
        <time>2026-08-13T08:10:58.000Z</time>
        <extensions>
          <ns3:TrackPointExtension>
            <ns3:hr>83</ns3:hr>
            <ns3:cad>50</ns3:cad>
          </ns3:TrackPointExtension>
        </extensions>
      </trkpt>
      <trkpt lat="43.77028025686740875244140625" lon="1.58682410605251789093017578125">
        <ele>157.600006103515625</ele>
        <time>2026-08-13T08:10:59.000Z</time>
        <extensions>
          <ns3:TrackPointExtension>
            <ns3:hr>82</ns3:hr>
            <ns3:cad>50</ns3:cad>
          </ns3:TrackPointExtension>
        </extensions>
      </trkpt>
      <trkpt lat="43.77027028240263462066650390625" lon="1.58683751709759235382080078125">
        <ele>157.600006103515625</ele>
        <time>2026-08-13T08:11:00.000Z</time>
        <extensions>
          <ns3:TrackPointExtension>
            <ns3:hr>83</ns3:hr>
            <ns3:cad>47</ns3:cad>
          </ns3:TrackPointExtension>
        </extensions>
      </trkpt>
      <trkpt lat="43.77026148140430450439453125" lon="1.5868506766855716705322265625">
        <ele>157.600006103515625</ele>
        <time>2026-08-13T08:11:01.000Z</time>
        <extensions>
          <ns3:TrackPointExtension>
            <ns3:hr>83</ns3:hr>
            <ns3:cad>47</ns3:cad>
          </ns3:TrackPointExtension>
        </extensions>
      </trkpt>
      <trkpt lat="43.77025335095822811126708984375" lon="1.58685780130326747894287109375">
        <ele>157.600006103515625</ele>
        <time>2026-08-13T08:11:02.000Z</time>
        <extensions>
          <ns3:TrackPointExtension>
            <ns3:hr>82</ns3:hr>
            <ns3:cad>47</ns3:cad>
          </ns3:TrackPointExtension>
        </extensions>
      </trkpt>
      <trkpt lat="43.77024547196924686431884765625" lon="1.586867272853851318359375">
        <ele>157.8000030517578125</ele>
        <time>2026-08-13T08:11:03.000Z</time>
        <extensions>
          <ns3:TrackPointExtension>
            <ns3:hr>83</ns3:hr>
            <ns3:cad>47</ns3:cad>
          </ns3:TrackPointExtension>
        </extensions>
      </trkpt>
      <trkpt lat="43.77023491077125072479248046875" lon="1.5868657641112804412841796875">
        <ele>157.600006103515625</ele>
        <time>2026-08-13T08:11:04.000Z</time>
        <extensions>
          <ns3:TrackPointExtension>
            <ns3:hr>83</ns3:hr>
            <ns3:cad>47</ns3:cad>
          </ns3:TrackPointExtension>
        </extensions>
      </trkpt>
      <trkpt lat="43.77022937871515750885009765625" lon="1.58687288872897624969482421875">
        <ele>157.600006103515625</ele>
        <time>2026-08-13T08:11:05.000Z</time>
        <extensions>
          <ns3:TrackPointExtension>
            <ns3:hr>83</ns3:hr>
            <ns3:cad>47</ns3:cad>
          </ns3:TrackPointExtension>
        </extensions>
      </trkpt>
      <trkpt lat="43.77021999098360538482666015625" lon="1.58688043244183063507080078125">
        <ele>157.600006103515625</ele>
        <time>2026-08-13T08:11:06.000Z</time>
        <extensions>
          <ns3:TrackPointExtension>
            <ns3:hr>83</ns3:hr>
            <ns3:cad>47</ns3:cad>
          </ns3:TrackPointExtension>
        </extensions>
      </trkpt>
      <trkpt lat="43.7702140398323535919189453125" lon="1.58688898198306560516357421875">
        <ele>157.600006103515625</ele>
        <time>2026-08-13T08:11:07.000Z</time>
        <extensions>
          <ns3:TrackPointExtension>
            <ns3:hr>83</ns3:hr>
            <ns3:cad>47</ns3:cad>
          </ns3:TrackPointExtension>
        </extensions>
      </trkpt>
      <trkpt lat="43.770206831395626068115234375" lon="1.58689451403915882110595703125">
        <ele>157.600006103515625</ele>
        <time>2026-08-13T08:11:08.000Z</time>
        <extensions>
          <ns3:TrackPointExtension>
            <ns3:hr>83</ns3:hr>
            <ns3:cad>47</ns3:cad>
          </ns3:TrackPointExtension>
        </extensions>
      </trkpt>
      <trkpt lat="43.77019735984504222869873046875" lon="1.5869039855897426605224609375">
        <ele>157.600006103515625</ele>
        <time>2026-08-13T08:11:09.000Z</time>
        <extensions>
          <ns3:TrackPointExtension>
            <ns3:hr>83</ns3:hr>
            <ns3:cad>46</ns3:cad>
          </ns3:TrackPointExtension>
        </extensions>
      </trkpt>
      <trkpt lat="43.77018931321799755096435546875" lon="1.58691295422613620758056640625">
        <ele>157.600006103515625</ele>
        <time>2026-08-13T08:11:10.000Z</time>
        <extensions>
          <ns3:TrackPointExtension>
            <ns3:hr>83</ns3:hr>
            <ns3:cad>46</ns3:cad>
          </ns3:TrackPointExtension>
        </extensions>
      </trkpt>
      <trkpt lat="43.77017942257225513458251953125" lon="1.5869173966348171234130859375">
        <ele>157.600006103515625</ele>
        <time>2026-08-13T08:11:11.000Z</time>
        <extensions>
          <ns3:TrackPointExtension>
            <ns3:hr>82</ns3:hr>
            <ns3:cad>45</ns3:cad>
          </ns3:TrackPointExtension>
        </extensions>
      </trkpt>
      <trkpt lat="43.770169951021671295166015625" lon="1.58692452125251293182373046875">
        <ele>157.600006103515625</ele>
        <time>2026-08-13T08:11:12.000Z</time>
        <extensions>
          <ns3:TrackPointExtension>
            <ns3:hr>82</ns3:hr>
            <ns3:cad>45</ns3:cad>
          </ns3:TrackPointExtension>
        </extensions>
      </trkpt>
      <trkpt lat="43.7701583839952945709228515625" lon="1.586933322250843048095703125">
        <ele>157.399993896484375</ele>
        <time>2026-08-13T08:11:13.000Z</time>
        <extensions>
          <ns3:TrackPointExtension>
            <ns3:hr>82</ns3:hr>
            <ns3:cad>45</ns3:cad>
          </ns3:TrackPointExtension>
        </extensions>
      </trkpt>
      <trkpt lat="43.77015016973018646240234375" lon="1.5869401954114437103271484375">
        <ele>157.399993896484375</ele>
        <time>2026-08-13T08:11:14.000Z</time>
        <extensions>
          <ns3:TrackPointExtension>
            <ns3:hr>82</ns3:hr>
            <ns3:cad>46</ns3:cad>
          </ns3:TrackPointExtension>
        </extensions>
      </trkpt>
      <trkpt lat="43.770141117274761199951171875" lon="1.586947739124298095703125">
        <ele>157.399993896484375</ele>
        <time>2026-08-13T08:11:15.000Z</time>
        <extensions>
          <ns3:TrackPointExtension>
            <ns3:hr>81</ns3:hr>
            <ns3:cad>46</ns3:cad>
          </ns3:TrackPointExtension>
        </extensions>
      </trkpt>
      <trkpt lat="43.7701325677335262298583984375" lon="1.586953438818454742431640625">
        <ele>157.399993896484375</ele>
        <time>2026-08-13T08:11:16.000Z</time>
        <extensions>
          <ns3:TrackPointExtension>
            <ns3:hr>82</ns3:hr>
            <ns3:cad>46</ns3:cad>
          </ns3:TrackPointExtension>
        </extensions>
      </trkpt>
      <trkpt lat="43.77012309618294239044189453125" lon="1.58696240745484828948974609375">
        <ele>157.399993896484375</ele>
        <time>2026-08-13T08:11:17.000Z</time>
        <extensions>
          <ns3:TrackPointExtension>
            <ns3:hr>82</ns3:hr>
            <ns3:cad>46</ns3:cad>
          </ns3:TrackPointExtension>
        </extensions>
      </trkpt>
      <trkpt lat="43.7701171450316905975341796875" lon="1.586970202624797821044921875">
        <ele>157.399993896484375</ele>
        <time>2026-08-13T08:11:18.000Z</time>
        <extensions>
          <ns3:TrackPointExtension>
            <ns3:hr>83</ns3:hr>
            <ns3:cad>46</ns3:cad>
          </ns3:TrackPointExtension>
        </extensions>
      </trkpt>
      <trkpt lat="43.77010834403336048126220703125" lon="1.58697565086185932159423828125">
        <ele>157.399993896484375</ele>
        <time>2026-08-13T08:11:19.000Z</time>
        <extensions>
          <ns3:TrackPointExtension>
            <ns3:hr>83</ns3:hr>
            <ns3:cad>46</ns3:cad>
          </ns3:TrackPointExtension>
        </extensions>
      </trkpt>
      <trkpt lat="43.77010096795856952667236328125" lon="1.58698051236569881439208984375">
        <ele>157.399993896484375</ele>
        <time>2026-08-13T08:11:20.000Z</time>
        <extensions>
          <ns3:TrackPointExtension>
            <ns3:hr>84</ns3:hr>
            <ns3:cad>46</ns3:cad>
          </ns3:TrackPointExtension>
        </extensions>
      </trkpt>
      <trkpt lat="43.770096860826015472412109375" lon="1.586988307535648345947265625">
        <ele>157.399993896484375</ele>
        <time>2026-08-13T08:11:21.000Z</time>
        <extensions>
          <ns3:TrackPointExtension>
            <ns3:hr>84</ns3:hr>
            <ns3:cad>46</ns3:cad>
          </ns3:TrackPointExtension>
        </extensions>
      </trkpt>
      <trkpt lat="43.77009116113185882568359375" lon="1.58699224703013896942138671875">
        <ele>157.1999969482421875</ele>
        <time>2026-08-13T08:11:22.000Z</time>
        <extensions>
          <ns3:TrackPointExtension>
            <ns3:hr>84</ns3:hr>
            <ns3:cad>46</ns3:cad>
          </ns3:TrackPointExtension>
        </extensions>
      </trkpt>
      <trkpt lat="43.77008185721933841705322265625" lon="1.58699979074299335479736328125">
        <ele>157.1999969482421875</ele>
        <time>2026-08-13T08:11:23.000Z</time>
        <extensions>
          <ns3:TrackPointExtension>
            <ns3:hr>84</ns3:hr>
            <ns3:cad>46</ns3:cad>
          </ns3:TrackPointExtension>
        </extensions>
      </trkpt>
      <trkpt lat="43.770070374011993408203125" lon="1.58701051957905292510986328125">
        <ele>157.399993896484375</ele>
        <time>2026-08-13T08:11:24.000Z</time>
        <extensions>
          <ns3:TrackPointExtension>
            <ns3:hr>83</ns3:hr>
            <ns3:cad>45</ns3:cad>
          </ns3:TrackPointExtension>
        </extensions>
      </trkpt>
      <trkpt lat="43.77006056718528270721435546875" lon="1.58701973967254161834716796875">
        <ele>157.399993896484375</ele>
        <time>2026-08-13T08:11:25.000Z</time>
        <extensions>
          <ns3:TrackPointExtension>
            <ns3:hr>81</ns3:hr>
            <ns3:cad>45</ns3:cad>
          </ns3:TrackPointExtension>
        </extensions>
      </trkpt>
      <trkpt lat="43.770054280757904052734375" lon="1.58702493645250797271728515625">
        <ele>157.399993896484375</ele>
        <time>2026-08-13T08:11:26.000Z</time>
        <extensions>
          <ns3:TrackPointExtension>
            <ns3:hr>81</ns3:hr>
            <ns3:cad>45</ns3:cad>
          </ns3:TrackPointExtension>
        </extensions>
      </trkpt>
      <trkpt lat="43.77004950307309627532958984375" lon="1.58702745102345943450927734375">
        <ele>157.399993896484375</ele>
        <time>2026-08-13T08:11:27.000Z</time>
        <extensions>
          <ns3:TrackPointExtension>
            <ns3:hr>80</ns3:hr>
            <ns3:cad>44</ns3:cad>
          </ns3:TrackPointExtension>
        </extensions>
      </trkpt>
      <trkpt lat="43.77003776840865612030029296875" lon="1.587038934230804443359375">
        <ele>157.399993896484375</ele>
        <time>2026-08-13T08:11:28.000Z</time>
        <extensions>
          <ns3:TrackPointExtension>
            <ns3:hr>80</ns3:hr>
            <ns3:cad>43</ns3:cad>
          </ns3:TrackPointExtension>
        </extensions>
      </trkpt>
      <trkpt lat="43.7700293026864528656005859375" lon="1.58705192618072032928466796875">
        <ele>157.399993896484375</ele>
        <time>2026-08-13T08:11:29.000Z</time>
        <extensions>
          <ns3:TrackPointExtension>
            <ns3:hr>79</ns3:hr>
            <ns3:cad>43</ns3:cad>
          </ns3:TrackPointExtension>
        </extensions>
      </trkpt>
      <trkpt lat="43.7700215913355350494384765625" lon="1.587060727179050445556640625">
        <ele>157.399993896484375</ele>
        <time>2026-08-13T08:11:30.000Z</time>
        <extensions>
          <ns3:TrackPointExtension>
            <ns3:hr>79</ns3:hr>
            <ns3:cad>43</ns3:cad>
          </ns3:TrackPointExtension>
        </extensions>
      </trkpt>
      <trkpt lat="43.77001647837460041046142578125" lon="1.5870676003396511077880859375">
        <ele>157.399993896484375</ele>
        <time>2026-08-13T08:11:31.000Z</time>
        <extensions>
          <ns3:TrackPointExtension>
            <ns3:hr>79</ns3:hr>
            <ns3:cad>43</ns3:cad>
          </ns3:TrackPointExtension>
        </extensions>
      </trkpt>
      <trkpt lat="43.7700068391859531402587890625" lon="1.58707656897604465484619140625">
        <ele>157.1999969482421875</ele>
        <time>2026-08-13T08:11:32.000Z</time>
        <extensions>
          <ns3:TrackPointExtension>
            <ns3:hr>78</ns3:hr>
            <ns3:cad>43</ns3:cad>
          </ns3:TrackPointExtension>
        </extensions>
      </trkpt>
      <trkpt lat="43.76999669708311557769775390625" lon="1.5870870463550090789794921875">
        <ele>157.399993896484375</ele>
        <time>2026-08-13T08:11:33.000Z</time>
        <extensions>
          <ns3:TrackPointExtension>
            <ns3:hr>78</ns3:hr>
            <ns3:cad>43</ns3:cad>
          </ns3:TrackPointExtension>
        </extensions>
      </trkpt>
      <trkpt lat="43.76998881809413433074951171875" lon="1.58709551207721233367919921875">
        <ele>157.399993896484375</ele>
        <time>2026-08-13T08:11:34.000Z</time>
        <extensions>
          <ns3:TrackPointExtension>
            <ns3:hr>78</ns3:hr>
            <ns3:cad>43</ns3:cad>
          </ns3:TrackPointExtension>
        </extensions>
      </trkpt>
      <trkpt lat="43.76998043619096279144287109375" lon="1.5871001221239566802978515625">
        <ele>157.1999969482421875</ele>
        <time>2026-08-13T08:11:35.000Z</time>
        <extensions>
          <ns3:TrackPointExtension>
            <ns3:hr>78</ns3:hr>
            <ns3:cad>43</ns3:cad>
          </ns3:TrackPointExtension>
        </extensions>
      </trkpt>
      <trkpt lat="43.76997188664972782135009765625" lon="1.58710858784615993499755859375">
        <ele>157.1999969482421875</ele>
        <time>2026-08-13T08:11:36.000Z</time>
        <extensions>
          <ns3:TrackPointExtension>
            <ns3:hr>78</ns3:hr>
            <ns3:cad>46</ns3:cad>
          </ns3:TrackPointExtension>
        </extensions>
      </trkpt>
      <trkpt lat="43.76996115781366825103759765625" lon="1.58711847849190235137939453125">
        <ele>157.1999969482421875</ele>
        <time>2026-08-13T08:11:37.000Z</time>
        <extensions>
          <ns3:TrackPointExtension>
            <ns3:hr>78</ns3:hr>
            <ns3:cad>46</ns3:cad>
          </ns3:TrackPointExtension>
        </extensions>
      </trkpt>
      <trkpt lat="43.76995294354856014251708984375" lon="1.587125770747661590576171875">
        <ele>157.1999969482421875</ele>
        <time>2026-08-13T08:11:38.000Z</time>
        <extensions>
          <ns3:TrackPointExtension>
            <ns3:hr>78</ns3:hr>
            <ns3:cad>46</ns3:cad>
          </ns3:TrackPointExtension>
        </extensions>
      </trkpt>
      <trkpt lat="43.76994431018829345703125" lon="1.5871274471282958984375">
        <ele>157</ele>
        <time>2026-08-13T08:11:39.000Z</time>
        <extensions>
          <ns3:TrackPointExtension>
            <ns3:hr>79</ns3:hr>
            <ns3:cad>46</ns3:cad>
          </ns3:TrackPointExtension>
        </extensions>
      </trkpt>
      <trkpt lat="43.76993768848478794097900390625" lon="1.5871314704418182373046875">
        <ele>157</ele>
        <time>2026-08-13T08:11:40.000Z</time>
        <extensions>
          <ns3:TrackPointExtension>
            <ns3:hr>79</ns3:hr>
            <ns3:cad>46</ns3:cad>
          </ns3:TrackPointExtension>
        </extensions>
      </trkpt>
      <trkpt lat="43.76992645673453807830810546875" lon="1.58713943324983119964599609375">
        <ele>157</ele>
        <time>2026-08-13T08:11:41.000Z</time>
        <extensions>
          <ns3:TrackPointExtension>
            <ns3:hr>80</ns3:hr>
            <ns3:cad>47</ns3:cad>
          </ns3:TrackPointExtension>
        </extensions>
      </trkpt>
      <trkpt lat="43.769917152822017669677734375" lon="1.58714421093463897705078125">
        <ele>157</ele>
        <time>2026-08-13T08:11:42.000Z</time>
        <extensions>
          <ns3:TrackPointExtension>
            <ns3:hr>80</ns3:hr>
            <ns3:cad>47</ns3:cad>
          </ns3:TrackPointExtension>
        </extensions>
      </trkpt>
      <trkpt lat="43.7699107825756072998046875" lon="1.58714513294398784637451171875">
        <ele>157</ele>
        <time>2026-08-13T08:11:43.000Z</time>
        <extensions>
          <ns3:TrackPointExtension>
            <ns3:hr>80</ns3:hr>
            <ns3:cad>47</ns3:cad>
          </ns3:TrackPointExtension>
        </extensions>
      </trkpt>
      <trkpt lat="43.769904077053070068359375" lon="1.58715032972395420074462890625">
        <ele>157</ele>
        <time>2026-08-13T08:11:44.000Z</time>
        <extensions>
          <ns3:TrackPointExtension>
            <ns3:hr>80</ns3:hr>
            <ns3:cad>47</ns3:cad>
          </ns3:TrackPointExtension>
        </extensions>
      </trkpt>
      <trkpt lat="43.76989494077861309051513671875" lon="1.58716038800776004791259765625">
        <ele>157</ele>
        <time>2026-08-13T08:11:45.000Z</time>
        <extensions>
          <ns3:TrackPointExtension>
            <ns3:hr>81</ns3:hr>
            <ns3:cad>47</ns3:cad>
          </ns3:TrackPointExtension>
        </extensions>
      </trkpt>
      <trkpt lat="43.76988739706575870513916015625" lon="1.58716910518705844879150390625">
        <ele>157</ele>
        <time>2026-08-13T08:11:46.000Z</time>
        <extensions>
          <ns3:TrackPointExtension>
            <ns3:hr>80</ns3:hr>
            <ns3:cad>46</ns3:cad>
          </ns3:TrackPointExtension>
        </extensions>
      </trkpt>
      <trkpt lat="43.769884966313838958740234375" lon="1.58717363141477108001708984375">
        <ele>157</ele>
        <time>2026-08-13T08:11:47.000Z</time>
        <extensions>
          <ns3:TrackPointExtension>
            <ns3:hr>80</ns3:hr>
            <ns3:cad>45</ns3:cad>
          </ns3:TrackPointExtension>
        </extensions>
      </trkpt>
      <trkpt lat="43.76987717114388942718505859375" lon="1.58717681653797626495361328125">
        <ele>156.8000030517578125</ele>
        <time>2026-08-13T08:11:48.000Z</time>
        <extensions>
          <ns3:TrackPointExtension>
            <ns3:hr>79</ns3:hr>
            <ns3:cad>44</ns3:cad>
          </ns3:TrackPointExtension>
        </extensions>
      </trkpt>
      <trkpt lat="43.7698640115559101104736328125" lon="1.58718218095600605010986328125">
        <ele>156.8000030517578125</ele>
        <time>2026-08-13T08:11:49.000Z</time>
        <extensions>
          <ns3:TrackPointExtension>
            <ns3:hr>79</ns3:hr>
            <ns3:cad>44</ns3:cad>
          </ns3:TrackPointExtension>
        </extensions>
      </trkpt>
      <trkpt lat="43.76985554583370685577392578125" lon="1.5871877968311309814453125">
        <ele>156.8000030517578125</ele>
        <time>2026-08-13T08:11:50.000Z</time>
        <extensions>
          <ns3:TrackPointExtension>
            <ns3:hr>79</ns3:hr>
            <ns3:cad>44</ns3:cad>
          </ns3:TrackPointExtension>
        </extensions>
      </trkpt>
      <trkpt lat="43.76984867267310619354248046875" lon="1.58718888647854328155517578125">
        <ele>156.8000030517578125</ele>
        <time>2026-08-13T08:11:51.000Z</time>
        <extensions>
          <ns3:TrackPointExtension>
            <ns3:hr>78</ns3:hr>
            <ns3:cad>44</ns3:cad>
          </ns3:TrackPointExtension>
        </extensions>
      </trkpt>
      <trkpt lat="43.76983995549380779266357421875" lon="1.587194502353668212890625">
        <ele>156.8000030517578125</ele>
        <time>2026-08-13T08:11:52.000Z</time>
        <extensions>
          <ns3:TrackPointExtension>
            <ns3:hr>78</ns3:hr>
            <ns3:cad>45</ns3:cad>
          </ns3:TrackPointExtension>
        </extensions>
      </trkpt>
      <trkpt lat="43.76982654444873332977294921875" lon="1.5872023813426494598388671875">
        <ele>156.8000030517578125</ele>
        <time>2026-08-13T08:11:53.000Z</time>
        <extensions>
          <ns3:TrackPointExtension>
            <ns3:hr>77</ns3:hr>
            <ns3:cad>45</ns3:cad>
          </ns3:TrackPointExtension>
        </extensions>
      </trkpt>
      <trkpt lat="43.7698160670697689056396484375" lon="1.5872092545032501220703125">
        <ele>156.8000030517578125</ele>
        <time>2026-08-13T08:11:54.000Z</time>
        <extensions>
          <ns3:TrackPointExtension>
            <ns3:hr>77</ns3:hr>
            <ns3:cad>45</ns3:cad>
          </ns3:TrackPointExtension>
        </extensions>
      </trkpt>
      <trkpt lat="43.769807852804660797119140625" lon="1.587212942540645599365234375">
        <ele>156.8000030517578125</ele>
        <time>2026-08-13T08:11:55.000Z</time>
        <extensions>
          <ns3:TrackPointExtension>
            <ns3:hr>76</ns3:hr>
            <ns3:cad>46</ns3:cad>
          </ns3:TrackPointExtension>
        </extensions>
      </trkpt>
      <trkpt lat="43.76980148255825042724609375" lon="1.58721587620675563812255859375">
        <ele>156.8000030517578125</ele>
        <time>2026-08-13T08:11:56.000Z</time>
        <extensions>
          <ns3:TrackPointExtension>
            <ns3:hr>75</ns3:hr>
            <ns3:cad>46</ns3:cad>
          </ns3:TrackPointExtension>
        </extensions>
      </trkpt>
      <trkpt lat="43.769788406789302825927734375" lon="1.5872245095670223236083984375">
        <ele>156.8000030517578125</ele>
        <time>2026-08-13T08:11:57.000Z</time>
        <extensions>
          <ns3:TrackPointExtension>
            <ns3:hr>74</ns3:hr>
            <ns3:cad>46</ns3:cad>
          </ns3:TrackPointExtension>
        </extensions>
      </trkpt>
      <trkpt lat="43.76978002488613128662109375" lon="1.58722828142344951629638671875">
        <ele>156.8000030517578125</ele>
        <time>2026-08-13T08:11:58.000Z</time>
        <extensions>
          <ns3:TrackPointExtension>
            <ns3:hr>74</ns3:hr>
            <ns3:cad>45</ns3:cad>
          </ns3:TrackPointExtension>
        </extensions>
      </trkpt>
      <trkpt lat="43.7697694636881351470947265625" lon="1.58723599277436733245849609375">
        <ele>156.8000030517578125</ele>
        <time>2026-08-13T08:11:59.000Z</time>
        <extensions>
          <ns3:TrackPointExtension>
            <ns3:hr>74</ns3:hr>
            <ns3:cad>45</ns3:cad>
          </ns3:TrackPointExtension>
        </extensions>
      </trkpt>
      <trkpt lat="43.76976368017494678497314453125" lon="1.58724085427820682525634765625">
        <ele>156.8000030517578125</ele>
        <time>2026-08-13T08:12:00.000Z</time>
        <extensions>
          <ns3:TrackPointExtension>
            <ns3:hr>73</ns3:hr>
            <ns3:cad>45</ns3:cad>
          </ns3:TrackPointExtension>
        </extensions>
      </trkpt>
      <trkpt lat="43.7697570584714412689208984375" lon="1.5872469730675220489501953125">
        <ele>157</ele>
        <time>2026-08-13T08:12:01.000Z</time>
        <extensions>
          <ns3:TrackPointExtension>
            <ns3:hr>75</ns3:hr>
            <ns3:cad>47</ns3:cad>
          </ns3:TrackPointExtension>
        </extensions>
      </trkpt>
      <trkpt lat="43.7697466649115085601806640625" lon="1.58726013265550136566162109375">
        <ele>157</ele>
        <time>2026-08-13T08:12:02.000Z</time>
        <extensions>
          <ns3:TrackPointExtension>
            <ns3:hr>75</ns3:hr>
            <ns3:cad>47</ns3:cad>
          </ns3:TrackPointExtension>
        </extensions>
      </trkpt>
      <trkpt lat="43.76973719336092472076416015625" lon="1.58726985566318035125732421875">
        <ele>157</ele>
        <time>2026-08-13T08:12:03.000Z</time>
        <extensions>
          <ns3:TrackPointExtension>
            <ns3:hr>75</ns3:hr>
            <ns3:cad>47</ns3:cad>
          </ns3:TrackPointExtension>
        </extensions>
      </trkpt>
      <trkpt lat="43.76972973346710205078125" lon="1.58727488480508327484130859375">
        <ele>157</ele>
        <time>2026-08-13T08:12:04.000Z</time>
        <extensions>
          <ns3:TrackPointExtension>
            <ns3:hr>75</ns3:hr>
            <ns3:cad>49</ns3:cad>
          </ns3:TrackPointExtension>
        </extensions>
      </trkpt>
      <trkpt lat="43.7697225250303745269775390625" lon="1.58728125505149364471435546875">
        <ele>157</ele>
        <time>2026-08-13T08:12:05.000Z</time>
        <extensions>
          <ns3:TrackPointExtension>
            <ns3:hr>74</ns3:hr>
            <ns3:cad>49</ns3:cad>
          </ns3:TrackPointExtension>
        </extensions>
      </trkpt>
      <trkpt lat="43.76971405930817127227783203125" lon="1.58728578127920627593994140625">
        <ele>157</ele>
        <time>2026-08-13T08:12:06.000Z</time>
        <extensions>
          <ns3:TrackPointExtension>
            <ns3:hr>74</ns3:hr>
            <ns3:cad>47</ns3:cad>
          </ns3:TrackPointExtension>
        </extensions>
      </trkpt>
      <trkpt lat="43.7697064317762851715087890625" lon="1.5872925706207752227783203125">
        <ele>157.1999969482421875</ele>
        <time>2026-08-13T08:12:07.000Z</time>
        <extensions>
          <ns3:TrackPointExtension>
            <ns3:hr>75</ns3:hr>
            <ns3:cad>47</ns3:cad>
          </ns3:TrackPointExtension>
        </extensions>
      </trkpt>
      <trkpt lat="43.7696921825408935546875" lon="1.58730003051459789276123046875">
        <ele>157.1999969482421875</ele>
        <time>2026-08-13T08:12:08.000Z</time>
        <extensions>
          <ns3:TrackPointExtension>
            <ns3:hr>75</ns3:hr>
            <ns3:cad>44</ns3:cad>
          </ns3:TrackPointExtension>
        </extensions>
      </trkpt>
      <trkpt lat="43.76968438737094402313232421875" lon="1.58730648458003997802734375">
        <ele>157.1999969482421875</ele>
        <time>2026-08-13T08:12:09.000Z</time>
        <extensions>
          <ns3:TrackPointExtension>
            <ns3:hr>75</ns3:hr>
            <ns3:cad>44</ns3:cad>
          </ns3:TrackPointExtension>
        </extensions>
      </trkpt>
      <trkpt lat="43.76967164687812328338623046875" lon="1.587316878139972686767578125">
        <ele>157.1999969482421875</ele>
        <time>2026-08-13T08:12:10.000Z</time>
        <extensions>
          <ns3:TrackPointExtension>
            <ns3:hr>74</ns3:hr>
            <ns3:cad>0</ns3:cad>
          </ns3:TrackPointExtension>
        </extensions>
      </trkpt>
      <trkpt lat="43.76966334879398345947265625" lon="1.58732593059539794921875">
        <ele>157.399993896484375</ele>
        <time>2026-08-13T08:12:11.000Z</time>
        <extensions>
          <ns3:TrackPointExtension>
            <ns3:hr>75</ns3:hr>
            <ns3:cad>0</ns3:cad>
          </ns3:TrackPointExtension>
        </extensions>
      </trkpt>
      <trkpt lat="43.76965806819498538970947265625" lon="1.5873291157186031341552734375">
        <ele>157.399993896484375</ele>
        <time>2026-08-13T08:12:12.000Z</time>
        <extensions>
          <ns3:TrackPointExtension>
            <ns3:hr>75</ns3:hr>
            <ns3:cad>0</ns3:cad>
          </ns3:TrackPointExtension>
        </extensions>
      </trkpt>
      <trkpt lat="43.76964868046343326568603515625" lon="1.5873406827449798583984375">
        <ele>157.399993896484375</ele>
        <time>2026-08-13T08:12:13.000Z</time>
        <extensions>
          <ns3:TrackPointExtension>
            <ns3:hr>75</ns3:hr>
            <ns3:cad>46</ns3:cad>
          </ns3:TrackPointExtension>
        </extensions>
      </trkpt>
      <trkpt lat="43.7696346826851367950439453125" lon="1.5873525850474834442138671875">
        <ele>157.399993896484375</ele>
        <time>2026-08-13T08:12:14.000Z</time>
        <extensions>
          <ns3:TrackPointExtension>
            <ns3:hr>75</ns3:hr>
            <ns3:cad>46</ns3:cad>
          </ns3:TrackPointExtension>
        </extensions>
      </trkpt>
      <trkpt lat="43.76962705515325069427490234375" lon="1.58736222423613071441650390625">
        <ele>157.399993896484375</ele>
        <time>2026-08-13T08:12:15.000Z</time>
        <extensions>
          <ns3:TrackPointExtension>
            <ns3:hr>76</ns3:hr>
            <ns3:cad>46</ns3:cad>
          </ns3:TrackPointExtension>
        </extensions>
      </trkpt>
      <trkpt lat="43.76961900852620601654052734375" lon="1.5873649902641773223876953125">
        <ele>157.600006103515625</ele>
        <time>2026-08-13T08:12:16.000Z</time>
        <extensions>
          <ns3:TrackPointExtension>
            <ns3:hr>76</ns3:hr>
            <ns3:cad>46</ns3:cad>
          </ns3:TrackPointExtension>
        </extensions>
      </trkpt>
      <trkpt lat="43.7696125544607639312744140625" lon="1.58737027086317539215087890625">
        <ele>157.600006103515625</ele>
        <time>2026-08-13T08:12:17.000Z</time>
        <extensions>
          <ns3:TrackPointExtension>
            <ns3:hr>77</ns3:hr>
            <ns3:cad>44</ns3:cad>
          </ns3:TrackPointExtension>
        </extensions>
      </trkpt>
      <trkpt lat="43.76960165798664093017578125" lon="1.58738133497536182403564453125">
        <ele>157.600006103515625</ele>
        <time>2026-08-13T08:12:18.000Z</time>
        <extensions>
          <ns3:TrackPointExtension>
            <ns3:hr>78</ns3:hr>
            <ns3:cad>44</ns3:cad>
          </ns3:TrackPointExtension>
        </extensions>
      </trkpt>
      <trkpt lat="43.769592605531215667724609375" lon="1.58738921396434307098388671875">
        <ele>157.600006103515625</ele>
        <time>2026-08-13T08:12:19.000Z</time>
        <extensions>
          <ns3:TrackPointExtension>
            <ns3:hr>79</ns3:hr>
            <ns3:cad>45</ns3:cad>
          </ns3:TrackPointExtension>
        </extensions>
      </trkpt>
      <trkpt lat="43.76958615146577358245849609375" lon="1.587392650544643402099609375">
        <ele>157.600006103515625</ele>
        <time>2026-08-13T08:12:20.000Z</time>
        <extensions>
          <ns3:TrackPointExtension>
            <ns3:hr>80</ns3:hr>
            <ns3:cad>45</ns3:cad>
          </ns3:TrackPointExtension>
        </extensions>
      </trkpt>
      <trkpt lat="43.76958263106644153594970703125" lon="1.587393321096897125244140625">
        <ele>157.600006103515625</ele>
        <time>2026-08-13T08:12:21.000Z</time>
        <extensions>
          <ns3:TrackPointExtension>
            <ns3:hr>82</ns3:hr>
            <ns3:cad>46</ns3:cad>
          </ns3:TrackPointExtension>
        </extensions>
      </trkpt>
      <trkpt lat="43.76957173459231853485107421875" lon="1.58740664832293987274169921875">
        <ele>157.600006103515625</ele>
        <time>2026-08-13T08:12:22.000Z</time>
        <extensions>
          <ns3:TrackPointExtension>
            <ns3:hr>84</ns3:hr>
            <ns3:cad>46</ns3:cad>
          </ns3:TrackPointExtension>
        </extensions>
      </trkpt>
      <trkpt lat="43.76956251449882984161376953125" lon="1.58741804771125316619873046875">
        <ele>157.600006103515625</ele>
        <time>2026-08-13T08:12:23.000Z</time>
        <extensions>
          <ns3:TrackPointExtension>
            <ns3:hr>84</ns3:hr>
            <ns3:cad>46</ns3:cad>
          </ns3:TrackPointExtension>
        </extensions>
      </trkpt>
      <trkpt lat="43.76955681480467319488525390625" lon="1.58742584288120269775390625">
        <ele>157.600006103515625</ele>
        <time>2026-08-13T08:12:24.000Z</time>
        <extensions>
          <ns3:TrackPointExtension>
            <ns3:hr>84</ns3:hr>
            <ns3:cad>46</ns3:cad>
          </ns3:TrackPointExtension>
        </extensions>
      </trkpt>
      <trkpt lat="43.769547007977962493896484375" lon="1.5874323807656764984130859375">
        <ele>157.600006103515625</ele>
        <time>2026-08-13T08:12:25.000Z</time>
        <extensions>
          <ns3:TrackPointExtension>
            <ns3:hr>84</ns3:hr>
            <ns3:cad>47</ns3:cad>
          </ns3:TrackPointExtension>
        </extensions>
      </trkpt>
      <trkpt lat="43.76954172737896442413330078125" lon="1.587438248097896575927734375">
        <ele>157.600006103515625</ele>
        <time>2026-08-13T08:12:26.000Z</time>
        <extensions>
          <ns3:TrackPointExtension>
            <ns3:hr>85</ns3:hr>
            <ns3:cad>47</ns3:cad>
          </ns3:TrackPointExtension>
        </extensions>
      </trkpt>
      <trkpt lat="43.7695300765335559844970703125" lon="1.58744889311492443084716796875">
        <ele>157.600006103515625</ele>
        <time>2026-08-13T08:12:27.000Z</time>
        <extensions>
          <ns3:TrackPointExtension>
            <ns3:hr>85</ns3:hr>
            <ns3:cad>47</ns3:cad>
          </ns3:TrackPointExtension>
        </extensions>
      </trkpt>
      <trkpt lat="43.769522197544574737548828125" lon="1.5874501504004001617431640625">
        <ele>157.600006103515625</ele>
        <time>2026-08-13T08:12:28.000Z</time>
        <extensions>
          <ns3:TrackPointExtension>
            <ns3:hr>86</ns3:hr>
            <ns3:cad>47</ns3:cad>
          </ns3:TrackPointExtension>
        </extensions>
      </trkpt>
      <trkpt lat="43.76951524056494235992431640625" lon="1.58745341934263706207275390625">
        <ele>157.600006103515625</ele>
        <time>2026-08-13T08:12:29.000Z</time>
        <extensions>
          <ns3:TrackPointExtension>
            <ns3:hr>86</ns3:hr>
            <ns3:cad>47</ns3:cad>
          </ns3:TrackPointExtension>
        </extensions>
      </trkpt>
      <trkpt lat="43.7695057690143585205078125" lon="1.58745911903679370880126953125">
        <ele>157.600006103515625</ele>
        <time>2026-08-13T08:12:30.000Z</time>
        <extensions>
          <ns3:TrackPointExtension>
            <ns3:hr>86</ns3:hr>
            <ns3:cad>47</ns3:cad>
          </ns3:TrackPointExtension>
        </extensions>
      </trkpt>
      <trkpt lat="43.76949143595993518829345703125" lon="1.58746498636901378631591796875">
        <ele>157.600006103515625</ele>
        <time>2026-08-13T08:12:31.000Z</time>
        <extensions>
          <ns3:TrackPointExtension>
            <ns3:hr>86</ns3:hr>
            <ns3:cad>47</ns3:cad>
          </ns3:TrackPointExtension>
        </extensions>
      </trkpt>
      <trkpt lat="43.7694801203906536102294921875" lon="1.5874716080725193023681640625">
        <ele>157.600006103515625</ele>
        <time>2026-08-13T08:12:32.000Z</time>
        <extensions>
          <ns3:TrackPointExtension>
            <ns3:hr>86</ns3:hr>
            <ns3:cad>46</ns3:cad>
          </ns3:TrackPointExtension>
        </extensions>
      </trkpt>
      <trkpt lat="43.76947416923940181732177734375" lon="1.58747412264347076416015625">
        <ele>157.600006103515625</ele>
        <time>2026-08-13T08:12:33.000Z</time>
        <extensions>
          <ns3:TrackPointExtension>
            <ns3:hr>87</ns3:hr>
            <ns3:cad>45</ns3:cad>
          </ns3:TrackPointExtension>
        </extensions>
      </trkpt>
      <trkpt lat="43.76946846954524517059326171875" lon="1.58747906796634197235107421875">
        <ele>157.600006103515625</ele>
        <time>2026-08-13T08:12:34.000Z</time>
        <extensions>
          <ns3:TrackPointExtension>
            <ns3:hr>87</ns3:hr>
            <ns3:cad>43</ns3:cad>
          </ns3:TrackPointExtension>
        </extensions>
      </trkpt>
      <trkpt lat="43.7694589979946613311767578125" lon="1.58748677931725978851318359375">
        <ele>157.600006103515625</ele>
        <time>2026-08-13T08:12:35.000Z</time>
        <extensions>
          <ns3:TrackPointExtension>
            <ns3:hr>87</ns3:hr>
            <ns3:cad>43</ns3:cad>
          </ns3:TrackPointExtension>
        </extensions>
      </trkpt>
      <trkpt lat="43.76945187337696552276611328125" lon="1.5874908864498138427734375">
        <ele>157.600006103515625</ele>
        <time>2026-08-13T08:12:36.000Z</time>
        <extensions>
          <ns3:TrackPointExtension>
            <ns3:hr>87</ns3:hr>
            <ns3:cad>44</ns3:cad>
          </ns3:TrackPointExtension>
        </extensions>
      </trkpt>
      <trkpt lat="43.76944717951118946075439453125" lon="1.58749097026884555816650390625">
        <ele>157.600006103515625</ele>
        <time>2026-08-13T08:12:37.000Z</time>
        <extensions>
          <ns3:TrackPointExtension>
            <ns3:hr>87</ns3:hr>
            <ns3:cad>44</ns3:cad>
          </ns3:TrackPointExtension>
        </extensions>
      </trkpt>
      <trkpt lat="43.76943963579833507537841796875" lon="1.587492562830448150634765625">
        <ele>157.399993896484375</ele>
        <time>2026-08-13T08:12:38.000Z</time>
        <extensions>
          <ns3:TrackPointExtension>
            <ns3:hr>86</ns3:hr>
            <ns3:cad>44</ns3:cad>
          </ns3:TrackPointExtension>
        </extensions>
      </trkpt>
      <trkpt lat="43.7694284878671169281005859375" lon="1.587498597800731658935546875">
        <ele>157.399993896484375</ele>
        <time>2026-08-13T08:12:39.000Z</time>
        <extensions>
          <ns3:TrackPointExtension>
            <ns3:hr>86</ns3:hr>
            <ns3:cad>44</ns3:cad>
          </ns3:TrackPointExtension>
        </extensions>
      </trkpt>
      <trkpt lat="43.76941633410751819610595703125" lon="1.58750069327652454376220703125">
        <ele>157.399993896484375</ele>
        <time>2026-08-13T08:12:40.000Z</time>
        <extensions>
          <ns3:TrackPointExtension>
            <ns3:hr>86</ns3:hr>
            <ns3:cad>44</ns3:cad>
          </ns3:TrackPointExtension>
        </extensions>
      </trkpt>
      <trkpt lat="43.7694113887846469879150390625" lon="1.58750270493328571319580078125">
        <ele>157.399993896484375</ele>
        <time>2026-08-13T08:12:41.000Z</time>
        <extensions>
          <ns3:TrackPointExtension>
            <ns3:hr>85</ns3:hr>
            <ns3:cad>44</ns3:cad>
          </ns3:TrackPointExtension>
        </extensions>
      </trkpt>
      <trkpt lat="43.7693976424634456634521484375" lon="1.58751276321709156036376953125">
        <ele>157.399993896484375</ele>
        <time>2026-08-13T08:12:42.000Z</time>
        <extensions>
          <ns3:TrackPointExtension>
            <ns3:hr>85</ns3:hr>
            <ns3:cad>44</ns3:cad>
          </ns3:TrackPointExtension>
        </extensions>
      </trkpt>
      <trkpt lat="43.769384063780307769775390625" lon="1.587517373263835906982421875">
        <ele>157.399993896484375</ele>
        <time>2026-08-13T08:12:43.000Z</time>
        <extensions>
          <ns3:TrackPointExtension>
            <ns3:hr>85</ns3:hr>
            <ns3:cad>44</ns3:cad>
          </ns3:TrackPointExtension>
        </extensions>
      </trkpt>
      <trkpt lat="43.76937568187713623046875" lon="1.58752106130123138427734375">
        <ele>157.399993896484375</ele>
        <time>2026-08-13T08:12:44.000Z</time>
        <extensions>
          <ns3:TrackPointExtension>
            <ns3:hr>85</ns3:hr>
            <ns3:cad>44</ns3:cad>
          </ns3:TrackPointExtension>
        </extensions>
      </trkpt>
      <trkpt lat="43.7693703174591064453125" lon="1.58752642571926116943359375">
        <ele>157.399993896484375</ele>
        <time>2026-08-13T08:12:45.000Z</time>
        <extensions>
          <ns3:TrackPointExtension>
            <ns3:hr>84</ns3:hr>
            <ns3:cad>44</ns3:cad>
          </ns3:TrackPointExtension>
        </extensions>
      </trkpt>
      <trkpt lat="43.76935900188982486724853515625" lon="1.5875319577753543853759765625">
        <ele>157.399993896484375</ele>
        <time>2026-08-13T08:12:46.000Z</time>
        <extensions>
          <ns3:TrackPointExtension>
            <ns3:hr>85</ns3:hr>
            <ns3:cad>44</ns3:cad>
          </ns3:TrackPointExtension>
        </extensions>
      </trkpt>
      <trkpt lat="43.76935162581503391265869140625" lon="1.58753790892660617828369140625">
        <ele>157.399993896484375</ele>
        <time>2026-08-13T08:12:47.000Z</time>
        <extensions>
          <ns3:TrackPointExtension>
            <ns3:hr>84</ns3:hr>
            <ns3:cad>45</ns3:cad>
          </ns3:TrackPointExtension>
        </extensions>
      </trkpt>
      <trkpt lat="43.769341148436069488525390625" lon="1.587538160383701324462890625">
        <ele>157.399993896484375</ele>
        <time>2026-08-13T08:12:48.000Z</time>
        <extensions>
          <ns3:TrackPointExtension>
            <ns3:hr>84</ns3:hr>
            <ns3:cad>45</ns3:cad>
          </ns3:TrackPointExtension>
        </extensions>
      </trkpt>
      <trkpt lat="43.76933201216161251068115234375" lon="1.58754092641174793243408203125">
        <ele>157.1999969482421875</ele>
        <time>2026-08-13T08:12:49.000Z</time>
        <extensions>
          <ns3:TrackPointExtension>
            <ns3:hr>84</ns3:hr>
            <ns3:cad>46</ns3:cad>
          </ns3:TrackPointExtension>
        </extensions>
      </trkpt>
      <trkpt lat="43.7693232111632823944091796875" lon="1.5875517390668392181396484375">
        <ele>157.1999969482421875</ele>
        <time>2026-08-13T08:12:50.000Z</time>
        <extensions>
          <ns3:TrackPointExtension>
            <ns3:hr>84</ns3:hr>
            <ns3:cad>46</ns3:cad>
          </ns3:TrackPointExtension>
        </extensions>
      </trkpt>
      <trkpt lat="43.76930954866111278533935546875" lon="1.58756288699805736541748046875">
        <ele>157.1999969482421875</ele>
        <time>2026-08-13T08:12:51.000Z</time>
        <extensions>
          <ns3:TrackPointExtension>
            <ns3:hr>84</ns3:hr>
            <ns3:cad>46</ns3:cad>
          </ns3:TrackPointExtension>
        </extensions>
      </trkpt>
      <trkpt lat="43.76929982565343379974365234375" lon="1.58756623975932598114013671875">
        <ele>157.1999969482421875</ele>
        <time>2026-08-13T08:12:52.000Z</time>
        <extensions>
          <ns3:TrackPointExtension>
            <ns3:hr>83</ns3:hr>
            <ns3:cad>46</ns3:cad>
          </ns3:TrackPointExtension>
        </extensions>
      </trkpt>
      <trkpt lat="43.769293539226055145263671875" lon="1.58756799995899200439453125">
        <ele>157.1999969482421875</ele>
        <time>2026-08-13T08:12:53.000Z</time>
        <extensions>
          <ns3:TrackPointExtension>
            <ns3:hr>83</ns3:hr>
            <ns3:cad>46</ns3:cad>
          </ns3:TrackPointExtension>
        </extensions>
      </trkpt>
      <trkpt lat="43.76928239129483699798583984375" lon="1.587573029100894927978515625">
        <ele>157.399993896484375</ele>
        <time>2026-08-13T08:12:54.000Z</time>
        <extensions>
          <ns3:TrackPointExtension>
            <ns3:hr>83</ns3:hr>
            <ns3:cad>46</ns3:cad>
          </ns3:TrackPointExtension>
        </extensions>
      </trkpt>
      <trkpt lat="43.76926898024976253509521484375" lon="1.5875799022614955902099609375">
        <ele>157.1999969482421875</ele>
        <time>2026-08-13T08:12:55.000Z</time>
        <extensions>
          <ns3:TrackPointExtension>
            <ns3:hr>82</ns3:hr>
            <ns3:cad>46</ns3:cad>
          </ns3:TrackPointExtension>
        </extensions>
      </trkpt>
      <trkpt lat="43.7692625261843204498291015625" lon="1.58758719451725482940673828125">
        <ele>157.1999969482421875</ele>
        <time>2026-08-13T08:12:56.000Z</time>
        <extensions>
          <ns3:TrackPointExtension>
            <ns3:hr>82</ns3:hr>
            <ns3:cad>46</ns3:cad>
          </ns3:TrackPointExtension>
        </extensions>
      </trkpt>
      <trkpt lat="43.76925640739500522613525390625" lon="1.58758903853595256805419921875">
        <ele>157.1999969482421875</ele>
        <time>2026-08-13T08:12:57.000Z</time>
        <extensions>
          <ns3:TrackPointExtension>
            <ns3:hr>82</ns3:hr>
            <ns3:cad>46</ns3:cad>
          </ns3:TrackPointExtension>
        </extensions>
      </trkpt>
      <trkpt lat="43.7692471034824848175048828125" lon="1.587593816220760345458984375">
        <ele>157.1999969482421875</ele>
        <time>2026-08-13T08:12:58.000Z</time>
        <extensions>
          <ns3:TrackPointExtension>
            <ns3:hr>81</ns3:hr>
            <ns3:cad>45</ns3:cad>
          </ns3:TrackPointExtension>
        </extensions>
      </trkpt>
      <trkpt lat="43.769232518970966339111328125" lon="1.5875995159149169921875">
        <ele>157.1999969482421875</ele>
        <time>2026-08-13T08:12:59.000Z</time>
        <extensions>
          <ns3:TrackPointExtension>
            <ns3:hr>81</ns3:hr>
            <ns3:cad>45</ns3:cad>
          </ns3:TrackPointExtension>
        </extensions>
      </trkpt>
      <trkpt lat="43.7692241370677947998046875" lon="1.587602198123931884765625">
        <ele>157.1999969482421875</ele>
        <time>2026-08-13T08:13:00.000Z</time>
        <extensions>
          <ns3:TrackPointExtension>
            <ns3:hr>81</ns3:hr>
            <ns3:cad>45</ns3:cad>
          </ns3:TrackPointExtension>
        </extensions>
      </trkpt>
      <trkpt lat="43.76921399496495723724365234375" lon="1.58760379068553447723388671875">
        <ele>157.1999969482421875</ele>
        <time>2026-08-13T08:13:01.000Z</time>
        <extensions>
          <ns3:TrackPointExtension>
            <ns3:hr>81</ns3:hr>
            <ns3:cad>45</ns3:cad>
          </ns3:TrackPointExtension>
        </extensions>
      </trkpt>
      <trkpt lat="43.76920443959534168243408203125" lon="1.58760496415197849273681640625">
        <ele>157.1999969482421875</ele>
        <time>2026-08-13T08:13:02.000Z</time>
        <extensions>
          <ns3:TrackPointExtension>
            <ns3:hr>80</ns3:hr>
            <ns3:cad>46</ns3:cad>
          </ns3:TrackPointExtension>
        </extensions>
      </trkpt>
      <trkpt lat="43.76919270493090152740478515625" lon="1.58761116676032543182373046875">
        <ele>157.1999969482421875</ele>
        <time>2026-08-13T08:13:03.000Z</time>
        <extensions>
          <ns3:TrackPointExtension>
            <ns3:hr>80</ns3:hr>
            <ns3:cad>46</ns3:cad>
          </ns3:TrackPointExtension>
        </extensions>
      </trkpt>
      <trkpt lat="43.769183568656444549560546875" lon="1.58761803992092609405517578125">
        <ele>157.1999969482421875</ele>
        <time>2026-08-13T08:13:04.000Z</time>
        <extensions>
          <ns3:TrackPointExtension>
            <ns3:hr>79</ns3:hr>
            <ns3:cad>46</ns3:cad>
          </ns3:TrackPointExtension>
        </extensions>
      </trkpt>
      <trkpt lat="43.76917661167681217193603515625" lon="1.58762122504413127899169921875">
        <ele>157.1999969482421875</ele>
        <time>2026-08-13T08:13:05.000Z</time>
        <extensions>
          <ns3:TrackPointExtension>
            <ns3:hr>79</ns3:hr>
            <ns3:cad>45</ns3:cad>
          </ns3:TrackPointExtension>
        </extensions>
      </trkpt>
      <trkpt lat="43.76916655339300632476806640625" lon="1.5876238234341144561767578125">
        <ele>157</ele>
        <time>2026-08-13T08:13:06.000Z</time>
        <extensions>
          <ns3:TrackPointExtension>
            <ns3:hr>78</ns3:hr>
            <ns3:cad>45</ns3:cad>
          </ns3:TrackPointExtension>
        </extensions>
      </trkpt>
      <trkpt lat="43.7691589258611202239990234375" lon="1.5876265056431293487548828125">
        <ele>157</ele>
        <time>2026-08-13T08:13:07.000Z</time>
        <extensions>
          <ns3:TrackPointExtension>
            <ns3:hr>78</ns3:hr>
            <ns3:cad>45</ns3:cad>
          </ns3:TrackPointExtension>
        </extensions>
      </trkpt>
      <trkpt lat="43.76914844848215579986572265625" lon="1.58763128332793712615966796875">
        <ele>157</ele>
        <time>2026-08-13T08:13:08.000Z</time>
        <extensions>
          <ns3:TrackPointExtension>
            <ns3:hr>78</ns3:hr>
            <ns3:cad>46</ns3:cad>
          </ns3:TrackPointExtension>
        </extensions>
      </trkpt>
      <trkpt lat="43.76913361251354217529296875" lon="1.587633378803730010986328125">
        <ele>157</ele>
        <time>2026-08-13T08:13:09.000Z</time>
        <extensions>
          <ns3:TrackPointExtension>
            <ns3:hr>77</ns3:hr>
            <ns3:cad>46</ns3:cad>
          </ns3:TrackPointExtension>
        </extensions>
      </trkpt>
      <trkpt lat="43.76912422478199005126953125" lon="1.587635390460491180419921875">
        <ele>157</ele>
        <time>2026-08-13T08:13:10.000Z</time>
        <extensions>
          <ns3:TrackPointExtension>
            <ns3:hr>77</ns3:hr>
            <ns3:cad>46</ns3:cad>
          </ns3:TrackPointExtension>
        </extensions>
      </trkpt>
      <trkpt lat="43.769115842878818511962890625" lon="1.58764100633561611175537109375">
        <ele>157</ele>
        <time>2026-08-13T08:13:11.000Z</time>
        <extensions>
          <ns3:TrackPointExtension>
            <ns3:hr>77</ns3:hr>
            <ns3:cad>46</ns3:cad>
          </ns3:TrackPointExtension>
        </extensions>
      </trkpt>
      <trkpt lat="43.769107125699520111083984375" lon="1.58764712512493133544921875">
        <ele>157</ele>
        <time>2026-08-13T08:13:12.000Z</time>
        <extensions>
          <ns3:TrackPointExtension>
            <ns3:hr>77</ns3:hr>
            <ns3:cad>46</ns3:cad>
          </ns3:TrackPointExtension>
        </extensions>
      </trkpt>
      <trkpt lat="43.769099414348602294921875" lon="1.58765290863811969757080078125">
        <ele>156.8000030517578125</ele>
        <time>2026-08-13T08:13:13.000Z</time>
        <extensions>
          <ns3:TrackPointExtension>
            <ns3:hr>77</ns3:hr>
            <ns3:cad>51</ns3:cad>
          </ns3:TrackPointExtension>
        </extensions>
      </trkpt>
      <trkpt lat="43.76909530721604824066162109375" lon="1.58765642903745174407958984375">
        <ele>156.8000030517578125</ele>
        <time>2026-08-13T08:13:14.000Z</time>
        <extensions>
          <ns3:TrackPointExtension>
            <ns3:hr>77</ns3:hr>
            <ns3:cad>51</ns3:cad>
          </ns3:TrackPointExtension>
        </extensions>
      </trkpt>
      <trkpt lat="43.76909396611154079437255859375" lon="1.587660871446132659912109375">
        <ele>156.8000030517578125</ele>
        <time>2026-08-13T08:13:15.000Z</time>
        <extensions>
          <ns3:TrackPointExtension>
            <ns3:hr>77</ns3:hr>
            <ns3:cad>0</ns3:cad>
          </ns3:TrackPointExtension>
        </extensions>
      </trkpt>
      <trkpt lat="43.76908407546579837799072265625" lon="1.5876700915396213531494140625">
        <ele>156.600006103515625</ele>
        <time>2026-08-13T08:13:16.000Z</time>
        <extensions>
          <ns3:TrackPointExtension>
            <ns3:hr>77</ns3:hr>
            <ns3:cad>0</ns3:cad>
          </ns3:TrackPointExtension>
        </extensions>
      </trkpt>
      <trkpt lat="43.7690757773816585540771484375" lon="1.58767662942409515380859375">
        <ele>156.600006103515625</ele>
        <time>2026-08-13T08:13:17.000Z</time>
        <extensions>
          <ns3:TrackPointExtension>
            <ns3:hr>77</ns3:hr>
            <ns3:cad>0</ns3:cad>
          </ns3:TrackPointExtension>
        </extensions>
      </trkpt>
      <trkpt lat="43.76906831748783588409423828125" lon="1.5876824967563152313232421875">
        <ele>156.600006103515625</ele>
        <time>2026-08-13T08:13:18.000Z</time>
        <extensions>
          <ns3:TrackPointExtension>
            <ns3:hr>77</ns3:hr>
            <ns3:cad>0</ns3:cad>
          </ns3:TrackPointExtension>
        </extensions>
      </trkpt>
      <trkpt lat="43.769062198698520660400390625" lon="1.58768660388886928558349609375">
        <ele>156.600006103515625</ele>
        <time>2026-08-13T08:13:19.000Z</time>
        <extensions>
          <ns3:TrackPointExtension>
            <ns3:hr>77</ns3:hr>
            <ns3:cad>47</ns3:cad>
          </ns3:TrackPointExtension>
        </extensions>
      </trkpt>
      <trkpt lat="43.769051469862461090087890625" lon="1.58769414760172367095947265625">
        <ele>156.600006103515625</ele>
        <time>2026-08-13T08:13:20.000Z</time>
        <extensions>
          <ns3:TrackPointExtension>
            <ns3:hr>76</ns3:hr>
            <ns3:cad>47</ns3:cad>
          </ns3:TrackPointExtension>
        </extensions>
      </trkpt>
      <trkpt lat="43.7690429203212261199951171875" lon="1.58770118840038776397705078125">
        <ele>156.600006103515625</ele>
        <time>2026-08-13T08:13:21.000Z</time>
        <extensions>
          <ns3:TrackPointExtension>
            <ns3:hr>76</ns3:hr>
            <ns3:cad>46</ns3:cad>
          </ns3:TrackPointExtension>
        </extensions>
      </trkpt>
      <trkpt lat="43.76903629861772060394287109375" lon="1.5877052955329418182373046875">
        <ele>156.600006103515625</ele>
        <time>2026-08-13T08:13:22.000Z</time>
        <extensions>
          <ns3:TrackPointExtension>
            <ns3:hr>76</ns3:hr>
            <ns3:cad>46</ns3:cad>
          </ns3:TrackPointExtension>
        </extensions>
      </trkpt>
      <trkpt lat="43.76902925781905651092529296875" lon="1.5877108275890350341796875">
        <ele>156.600006103515625</ele>
        <time>2026-08-13T08:13:23.000Z</time>
        <extensions>
          <ns3:TrackPointExtension>
            <ns3:hr>76</ns3:hr>
            <ns3:cad>46</ns3:cad>
          </ns3:TrackPointExtension>
        </extensions>
      </trkpt>
      <trkpt lat="43.76901970244944095611572265625" lon="1.5877156890928745269775390625">
        <ele>156.600006103515625</ele>
        <time>2026-08-13T08:13:24.000Z</time>
        <extensions>
          <ns3:TrackPointExtension>
            <ns3:hr>76</ns3:hr>
            <ns3:cad>46</ns3:cad>
          </ns3:TrackPointExtension>
        </extensions>
      </trkpt>
      <trkpt lat="43.7690070457756519317626953125" lon="1.5877284295856952667236328125">
        <ele>156.600006103515625</ele>
        <time>2026-08-13T08:13:25.000Z</time>
        <extensions>
          <ns3:TrackPointExtension>
            <ns3:hr>75</ns3:hr>
            <ns3:cad>46</ns3:cad>
          </ns3:TrackPointExtension>
        </extensions>
      </trkpt>
      <trkpt lat="43.76900075934827327728271484375" lon="1.58773404546082019805908203125">
        <ele>156.600006103515625</ele>
        <time>2026-08-13T08:13:26.000Z</time>
        <extensions>
          <ns3:TrackPointExtension>
            <ns3:hr>74</ns3:hr>
            <ns3:cad>46</ns3:cad>
          </ns3:TrackPointExtension>
        </extensions>
      </trkpt>
      <trkpt lat="43.768997155129909515380859375" lon="1.58773966133594512939453125">
        <ele>156.600006103515625</ele>
        <time>2026-08-13T08:13:27.000Z</time>
        <extensions>
          <ns3:TrackPointExtension>
            <ns3:hr>73</ns3:hr>
            <ns3:cad>46</ns3:cad>
          </ns3:TrackPointExtension>
        </extensions>
      </trkpt>
      <trkpt lat="43.7689854204654693603515625" lon="1.5877478756010532379150390625">
        <ele>156.600006103515625</ele>
        <time>2026-08-13T08:13:28.000Z</time>
        <extensions>
          <ns3:TrackPointExtension>
            <ns3:hr>72</ns3:hr>
            <ns3:cad>46</ns3:cad>
          </ns3:TrackPointExtension>
        </extensions>
      </trkpt>
      <trkpt lat="43.7689745239913463592529296875" lon="1.58775634132325649261474609375">
        <ele>156.600006103515625</ele>
        <time>2026-08-13T08:13:29.000Z</time>
        <extensions>
          <ns3:TrackPointExtension>
            <ns3:hr>72</ns3:hr>
            <ns3:cad>46</ns3:cad>
          </ns3:TrackPointExtension>
        </extensions>
      </trkpt>
      <trkpt lat="43.768965639173984527587890625" lon="1.58776539377868175506591796875">
        <ele>156.600006103515625</ele>
        <time>2026-08-13T08:13:30.000Z</time>
        <extensions>
          <ns3:TrackPointExtension>
            <ns3:hr>72</ns3:hr>
            <ns3:cad>45</ns3:cad>
          </ns3:TrackPointExtension>
        </extensions>
      </trkpt>
      <trkpt lat="43.768959939479827880859375" lon="1.5877671539783477783203125">
        <ele>156.399993896484375</ele>
        <time>2026-08-13T08:13:31.000Z</time>
        <extensions>
          <ns3:TrackPointExtension>
            <ns3:hr>73</ns3:hr>
            <ns3:cad>45</ns3:cad>
          </ns3:TrackPointExtension>
        </extensions>
      </trkpt>
      <trkpt lat="43.7689480371773242950439453125" lon="1.58777494914829730987548828125">
        <ele>156.399993896484375</ele>
        <time>2026-08-13T08:13:32.000Z</time>
        <extensions>
          <ns3:TrackPointExtension>
            <ns3:hr>72</ns3:hr>
            <ns3:cad>45</ns3:cad>
          </ns3:TrackPointExtension>
        </extensions>
      </trkpt>
      <trkpt lat="43.7689366377890110015869140625" lon="1.58778366632759571075439453125">
        <ele>156.399993896484375</ele>
        <time>2026-08-13T08:13:33.000Z</time>
        <extensions>
          <ns3:TrackPointExtension>
            <ns3:hr>72</ns3:hr>
            <ns3:cad>45</ns3:cad>
          </ns3:TrackPointExtension>
        </extensions>
      </trkpt>
      <trkpt lat="43.768926076591014862060546875" lon="1.58779422752559185028076171875">
        <ele>156.399993896484375</ele>
        <time>2026-08-13T08:13:34.000Z</time>
        <extensions>
          <ns3:TrackPointExtension>
            <ns3:hr>72</ns3:hr>
            <ns3:cad>45</ns3:cad>
          </ns3:TrackPointExtension>
        </extensions>
      </trkpt>
      <trkpt lat="43.7689195387065410614013671875" lon="1.58780177123844623565673828125">
        <ele>156.399993896484375</ele>
        <time>2026-08-13T08:13:35.000Z</time>
        <extensions>
          <ns3:TrackPointExtension>
            <ns3:hr>72</ns3:hr>
            <ns3:cad>45</ns3:cad>
          </ns3:TrackPointExtension>
        </extensions>
      </trkpt>
      <trkpt lat="43.76891224645078182220458984375" lon="1.58780344761908054351806640625">
        <ele>156.399993896484375</ele>
        <time>2026-08-13T08:13:36.000Z</time>
        <extensions>
          <ns3:TrackPointExtension>
            <ns3:hr>72</ns3:hr>
            <ns3:cad>46</ns3:cad>
          </ns3:TrackPointExtension>
        </extensions>
      </trkpt>
      <trkpt lat="43.7688984163105487823486328125" lon="1.58781099133193492889404296875">
        <ele>156.399993896484375</ele>
        <time>2026-08-13T08:13:37.000Z</time>
        <extensions>
          <ns3:TrackPointExtension>
            <ns3:hr>72</ns3:hr>
            <ns3:cad>47</ns3:cad>
          </ns3:TrackPointExtension>
        </extensions>
      </trkpt>
      <trkpt lat="43.7688886933028697967529296875" lon="1.58782146871089935302734375">
        <ele>156.399993896484375</ele>
        <time>2026-08-13T08:13:38.000Z</time>
        <extensions>
          <ns3:TrackPointExtension>
            <ns3:hr>72</ns3:hr>
            <ns3:cad>47</ns3:cad>
          </ns3:TrackPointExtension>
        </extensions>
      </trkpt>
      <trkpt lat="43.76887955702841281890869140625" lon="1.5878236480057239532470703125">
        <ele>156.399993896484375</ele>
        <time>2026-08-13T08:13:39.000Z</time>
        <extensions>
          <ns3:TrackPointExtension>
            <ns3:hr>73</ns3:hr>
            <ns3:cad>47</ns3:cad>
          </ns3:TrackPointExtension>
        </extensions>
      </trkpt>
      <trkpt lat="43.76887343823909759521484375" lon="1.58782792277634143829345703125">
        <ele>156.399993896484375</ele>
        <time>2026-08-13T08:13:40.000Z</time>
        <extensions>
          <ns3:TrackPointExtension>
            <ns3:hr>73</ns3:hr>
            <ns3:cad>47</ns3:cad>
          </ns3:TrackPointExtension>
        </extensions>
      </trkpt>
      <trkpt lat="43.7688665650784969329833984375" lon="1.58783580176532268524169921875">
        <ele>156.399993896484375</ele>
        <time>2026-08-13T08:13:41.000Z</time>
        <extensions>
          <ns3:TrackPointExtension>
            <ns3:hr>73</ns3:hr>
            <ns3:cad>47</ns3:cad>
          </ns3:TrackPointExtension>
        </extensions>
      </trkpt>
      <trkpt lat="43.7688561715185642242431640625" lon="1.58784560859203338623046875">
        <ele>156.399993896484375</ele>
        <time>2026-08-13T08:13:42.000Z</time>
        <extensions>
          <ns3:TrackPointExtension>
            <ns3:hr>73</ns3:hr>
            <ns3:cad>47</ns3:cad>
          </ns3:TrackPointExtension>
        </extensions>
      </trkpt>
      <trkpt lat="43.7688474543392658233642578125" lon="1.58785097301006317138671875">
        <ele>156.399993896484375</ele>
        <time>2026-08-13T08:13:43.000Z</time>
        <extensions>
          <ns3:TrackPointExtension>
            <ns3:hr>72</ns3:hr>
            <ns3:cad>47</ns3:cad>
          </ns3:TrackPointExtension>
        </extensions>
      </trkpt>
      <trkpt lat="43.7688459455966949462890625" lon="1.5878588519990444183349609375">
        <ele>156.399993896484375</ele>
        <time>2026-08-13T08:13:44.000Z</time>
        <extensions>
          <ns3:TrackPointExtension>
            <ns3:hr>72</ns3:hr>
            <ns3:cad>47</ns3:cad>
          </ns3:TrackPointExtension>
        </extensions>
      </trkpt>
      <trkpt lat="43.7688397429883480072021484375" lon="1.5878675691783428192138671875">
        <ele>156.399993896484375</ele>
        <time>2026-08-13T08:13:45.000Z</time>
        <extensions>
          <ns3:TrackPointExtension>
            <ns3:hr>72</ns3:hr>
            <ns3:cad>47</ns3:cad>
          </ns3:TrackPointExtension>
        </extensions>
      </trkpt>
      <trkpt lat="43.7688286788761615753173828125" lon="1.587877459824085235595703125">
        <ele>156.399993896484375</ele>
        <time>2026-08-13T08:13:46.000Z</time>
        <extensions>
          <ns3:TrackPointExtension>
            <ns3:hr>73</ns3:hr>
            <ns3:cad>47</ns3:cad>
          </ns3:TrackPointExtension>
        </extensions>
      </trkpt>
      <trkpt lat="43.7688206322491168975830078125" lon="1.5878824889659881591796875">
        <ele>156.399993896484375</ele>
        <time>2026-08-13T08:13:47.000Z</time>
        <extensions>
          <ns3:TrackPointExtension>
            <ns3:hr>73</ns3:hr>
            <ns3:cad>47</ns3:cad>
          </ns3:TrackPointExtension>
        </extensions>
      </trkpt>
      <trkpt lat="43.76881602220237255096435546875" lon="1.58788542263209819793701171875">
        <ele>156.399993896484375</ele>
        <time>2026-08-13T08:13:48.000Z</time>
        <extensions>
          <ns3:TrackPointExtension>
            <ns3:hr>73</ns3:hr>
            <ns3:cad>47</ns3:cad>
          </ns3:TrackPointExtension>
        </extensions>
      </trkpt>
      <trkpt lat="43.768806047737598419189453125" lon="1.58789246343076229095458984375">
        <ele>156.399993896484375</ele>
        <time>2026-08-13T08:13:49.000Z</time>
        <extensions>
          <ns3:TrackPointExtension>
            <ns3:hr>73</ns3:hr>
            <ns3:cad>47</ns3:cad>
          </ns3:TrackPointExtension>
        </extensions>
      </trkpt>
      <trkpt lat="43.76879456453025341033935546875" lon="1.587899588048458099365234375">
        <ele>156.399993896484375</ele>
        <time>2026-08-13T08:13:50.000Z</time>
        <extensions>
          <ns3:TrackPointExtension>
            <ns3:hr>72</ns3:hr>
            <ns3:cad>47</ns3:cad>
          </ns3:TrackPointExtension>
        </extensions>
      </trkpt>
      <trkpt lat="43.76878282986581325531005859375" lon="1.58790738321840763092041015625">
        <ele>156.399993896484375</ele>
        <time>2026-08-13T08:13:51.000Z</time>
        <extensions>
          <ns3:TrackPointExtension>
            <ns3:hr>73</ns3:hr>
            <ns3:cad>47</ns3:cad>
          </ns3:TrackPointExtension>
        </extensions>
      </trkpt>
      <trkpt lat="43.76877763308584690093994140625" lon="1.58791065216064453125">
        <ele>156.399993896484375</ele>
        <time>2026-08-13T08:13:52.000Z</time>
        <extensions>
          <ns3:TrackPointExtension>
            <ns3:hr>74</ns3:hr>
            <ns3:cad>47</ns3:cad>
          </ns3:TrackPointExtension>
        </extensions>
      </trkpt>
      <trkpt lat="43.76877293922007083892822265625" lon="1.58791224472224712371826171875">
        <ele>156.399993896484375</ele>
        <time>2026-08-13T08:13:53.000Z</time>
        <extensions>
          <ns3:TrackPointExtension>
            <ns3:hr>75</ns3:hr>
            <ns3:cad>47</ns3:cad>
          </ns3:TrackPointExtension>
        </extensions>
      </trkpt>
      <trkpt lat="43.76876036636531352996826171875" lon="1.5879146754741668701171875">
        <ele>156.399993896484375</ele>
        <time>2026-08-13T08:13:54.000Z</time>
        <extensions>
          <ns3:TrackPointExtension>
            <ns3:hr>76</ns3:hr>
            <ns3:cad>48</ns3:cad>
          </ns3:TrackPointExtension>
        </extensions>
      </trkpt>
      <trkpt lat="43.7687498889863491058349609375" lon="1.587919034063816070556640625">
        <ele>156.399993896484375</ele>
        <time>2026-08-13T08:13:55.000Z</time>
        <extensions>
          <ns3:TrackPointExtension>
            <ns3:hr>77</ns3:hr>
            <ns3:cad>48</ns3:cad>
          </ns3:TrackPointExtension>
        </extensions>
      </trkpt>
      <trkpt lat="43.768738992512226104736328125" lon="1.587919704616069793701171875">
        <ele>156.399993896484375</ele>
        <time>2026-08-13T08:13:56.000Z</time>
        <extensions>
          <ns3:TrackPointExtension>
            <ns3:hr>78</ns3:hr>
            <ns3:cad>48</ns3:cad>
          </ns3:TrackPointExtension>
        </extensions>
      </trkpt>
      <trkpt lat="43.76873052679002285003662109375" lon="1.58792079426348209381103515625">
        <ele>156.399993896484375</ele>
        <time>2026-08-13T08:13:57.000Z</time>
        <extensions>
          <ns3:TrackPointExtension>
            <ns3:hr>79</ns3:hr>
            <ns3:cad>47</ns3:cad>
          </ns3:TrackPointExtension>
        </extensions>
      </trkpt>
      <trkpt lat="43.76871728338301181793212890625" lon="1.58792213536798954010009765625">
        <ele>156.399993896484375</ele>
        <time>2026-08-13T08:13:58.000Z</time>
        <extensions>
          <ns3:TrackPointExtension>
            <ns3:hr>79</ns3:hr>
            <ns3:cad>47</ns3:cad>
          </ns3:TrackPointExtension>
        </extensions>
      </trkpt>
      <trkpt lat="43.76870705746114253997802734375" lon="1.58792716450989246368408203125">
        <ele>156.399993896484375</ele>
        <time>2026-08-13T08:13:59.000Z</time>
        <extensions>
          <ns3:TrackPointExtension>
            <ns3:hr>80</ns3:hr>
            <ns3:cad>49</ns3:cad>
          </ns3:TrackPointExtension>
        </extensions>
      </trkpt>
      <trkpt lat="43.76869431696832180023193359375" lon="1.58792682923376560211181640625">
        <ele>156.399993896484375</ele>
        <time>2026-08-13T08:14:00.000Z</time>
        <extensions>
          <ns3:TrackPointExtension>
            <ns3:hr>81</ns3:hr>
            <ns3:cad>49</ns3:cad>
          </ns3:TrackPointExtension>
        </extensions>
      </trkpt>
      <trkpt lat="43.76868274994194507598876953125" lon="1.5879329480230808258056640625">
        <ele>156.399993896484375</ele>
        <time>2026-08-13T08:14:01.000Z</time>
        <extensions>
          <ns3:TrackPointExtension>
            <ns3:hr>83</ns3:hr>
            <ns3:cad>48</ns3:cad>
          </ns3:TrackPointExtension>
        </extensions>
      </trkpt>
      <trkpt lat="43.7686734460294246673583984375" lon="1.58793722279369831085205078125">
        <ele>156.399993896484375</ele>
        <time>2026-08-13T08:14:02.000Z</time>
        <extensions>
          <ns3:TrackPointExtension>
            <ns3:hr>83</ns3:hr>
            <ns3:cad>47</ns3:cad>
          </ns3:TrackPointExtension>
        </extensions>
      </trkpt>
      <trkpt lat="43.76866288483142852783203125" lon="1.587939821183681488037109375">
        <ele>156.399993896484375</ele>
        <time>2026-08-13T08:14:03.000Z</time>
        <extensions>
          <ns3:TrackPointExtension>
            <ns3:hr>84</ns3:hr>
            <ns3:cad>47</ns3:cad>
          </ns3:TrackPointExtension>
        </extensions>
      </trkpt>
      <trkpt lat="43.76865358091890811920166015625" lon="1.58794493414461612701416015625">
        <ele>156.399993896484375</ele>
        <time>2026-08-13T08:14:04.000Z</time>
        <extensions>
          <ns3:TrackPointExtension>
            <ns3:hr>84</ns3:hr>
            <ns3:cad>47</ns3:cad>
          </ns3:TrackPointExtension>
        </extensions>
      </trkpt>
      <trkpt lat="43.7686439417302608489990234375" lon="1.58795197494328022003173828125">
        <ele>156.399993896484375</ele>
        <time>2026-08-13T08:14:05.000Z</time>
        <extensions>
          <ns3:TrackPointExtension>
            <ns3:hr>84</ns3:hr>
            <ns3:cad>47</ns3:cad>
          </ns3:TrackPointExtension>
        </extensions>
      </trkpt>
      <trkpt lat="43.76863815821707248687744140625" lon="1.58796186558902263641357421875">
        <ele>156.399993896484375</ele>
        <time>2026-08-13T08:14:06.000Z</time>
        <extensions>
          <ns3:TrackPointExtension>
            <ns3:hr>84</ns3:hr>
            <ns3:cad>47</ns3:cad>
          </ns3:TrackPointExtension>
        </extensions>
      </trkpt>
      <trkpt lat="43.76863069832324981689453125" lon="1.587966978549957275390625">
        <ele>156.399993896484375</ele>
        <time>2026-08-13T08:14:07.000Z</time>
        <extensions>
          <ns3:TrackPointExtension>
            <ns3:hr>85</ns3:hr>
            <ns3:cad>48</ns3:cad>
          </ns3:TrackPointExtension>
        </extensions>
      </trkpt>
      <trkpt lat="43.7686187960207462310791015625" lon="1.58797360025346279144287109375">
        <ele>156.600006103515625</ele>
        <time>2026-08-13T08:14:08.000Z</time>
        <extensions>
          <ns3:TrackPointExtension>
            <ns3:hr>85</ns3:hr>
            <ns3:cad>47</ns3:cad>
          </ns3:TrackPointExtension>
        </extensions>
      </trkpt>
      <trkpt lat="43.76860898919403553009033203125" lon="1.58797862939536571502685546875">
        <ele>156.600006103515625</ele>
        <time>2026-08-13T08:14:09.000Z</time>
        <extensions>
          <ns3:TrackPointExtension>
            <ns3:hr>85</ns3:hr>
            <ns3:cad>46</ns3:cad>
          </ns3:TrackPointExtension>
        </extensions>
      </trkpt>
      <trkpt lat="43.7686060555279254913330078125" lon="1.58799187280237674713134765625">
        <ele>156.600006103515625</ele>
        <time>2026-08-13T08:14:10.000Z</time>
        <extensions>
          <ns3:TrackPointExtension>
            <ns3:hr>84</ns3:hr>
            <ns3:cad>47</ns3:cad>
          </ns3:TrackPointExtension>
        </extensions>
      </trkpt>
      <trkpt lat="43.76859943382441997528076171875" lon="1.58800209872424602508544921875">
        <ele>156.600006103515625</ele>
        <time>2026-08-13T08:14:11.000Z</time>
        <extensions>
          <ns3:TrackPointExtension>
            <ns3:hr>84</ns3:hr>
            <ns3:cad>47</ns3:cad>
          </ns3:TrackPointExtension>
        </extensions>
      </trkpt>
      <trkpt lat="43.768588118255138397216796875" lon="1.5880057029426097869873046875">
        <ele>156.600006103515625</ele>
        <time>2026-08-13T08:14:12.000Z</time>
        <extensions>
          <ns3:TrackPointExtension>
            <ns3:hr>84</ns3:hr>
            <ns3:cad>47</ns3:cad>
          </ns3:TrackPointExtension>
        </extensions>
      </trkpt>
      <trkpt lat="43.76857562921941280364990234375" lon="1.5880107320845127105712890625">
        <ele>156.600006103515625</ele>
        <time>2026-08-13T08:14:13.000Z</time>
        <extensions>
          <ns3:TrackPointExtension>
            <ns3:hr>83</ns3:hr>
            <ns3:cad>47</ns3:cad>
          </ns3:TrackPointExtension>
        </extensions>
      </trkpt>
      <trkpt lat="43.76856691204011440277099609375" lon="1.58801467157900333404541015625">
        <ele>156.600006103515625</ele>
        <time>2026-08-13T08:14:14.000Z</time>
        <extensions>
          <ns3:TrackPointExtension>
            <ns3:hr>84</ns3:hr>
            <ns3:cad>46</ns3:cad>
          </ns3:TrackPointExtension>
        </extensions>
      </trkpt>
      <trkpt lat="43.7685607932507991790771484375" lon="1.5880241431295871734619140625">
        <ele>156.600006103515625</ele>
        <time>2026-08-13T08:14:15.000Z</time>
        <extensions>
          <ns3:TrackPointExtension>
            <ns3:hr>84</ns3:hr>
            <ns3:cad>46</ns3:cad>
          </ns3:TrackPointExtension>
        </extensions>
      </trkpt>
      <trkpt lat="43.76854931004345417022705078125" lon="1.58803042955696582794189453125">
        <ele>156.600006103515625</ele>
        <time>2026-08-13T08:14:16.000Z</time>
        <extensions>
          <ns3:TrackPointExtension>
            <ns3:hr>83</ns3:hr>
            <ns3:cad>46</ns3:cad>
          </ns3:TrackPointExtension>
        </extensions>
      </trkpt>
      <trkpt lat="43.7685390003025531768798828125" lon="1.58803177066147327423095703125">
        <ele>156.600006103515625</ele>
        <time>2026-08-13T08:14:17.000Z</time>
        <extensions>
          <ns3:TrackPointExtension>
            <ns3:hr>83</ns3:hr>
            <ns3:cad>46</ns3:cad>
          </ns3:TrackPointExtension>
        </extensions>
      </trkpt>
      <trkpt lat="43.76853388734161853790283203125" lon="1.5880358777940273284912109375">
        <ele>156.600006103515625</ele>
        <time>2026-08-13T08:14:18.000Z</time>
        <extensions>
          <ns3:TrackPointExtension>
            <ns3:hr>83</ns3:hr>
            <ns3:cad>46</ns3:cad>
          </ns3:TrackPointExtension>
        </extensions>
      </trkpt>
      <trkpt lat="43.768525756895542144775390625" lon="1.588041074573993682861328125">
        <ele>156.600006103515625</ele>
        <time>2026-08-13T08:14:19.000Z</time>
        <extensions>
          <ns3:TrackPointExtension>
            <ns3:hr>83</ns3:hr>
            <ns3:cad>0</ns3:cad>
          </ns3:TrackPointExtension>
        </extensions>
      </trkpt>
      <trkpt lat="43.76851913519203662872314453125" lon="1.58804501406848430633544921875">
        <ele>156.600006103515625</ele>
        <time>2026-08-13T08:14:20.000Z</time>
        <extensions>
          <ns3:TrackPointExtension>
            <ns3:hr>83</ns3:hr>
            <ns3:cad>0</ns3:cad>
          </ns3:TrackPointExtension>
        </extensions>
      </trkpt>
      <trkpt lat="43.76850522123277187347412109375" lon="1.588051132857799530029296875">
        <ele>156.600006103515625</ele>
        <time>2026-08-13T08:14:21.000Z</time>
        <extensions>
          <ns3:TrackPointExtension>
            <ns3:hr>83</ns3:hr>
            <ns3:cad>0</ns3:cad>
          </ns3:TrackPointExtension>
        </extensions>
      </trkpt>
      <trkpt lat="43.76849566586315631866455078125" lon="1.58805540762841701507568359375">
        <ele>156.600006103515625</ele>
        <time>2026-08-13T08:14:22.000Z</time>
        <extensions>
          <ns3:TrackPointExtension>
            <ns3:hr>83</ns3:hr>
            <ns3:cad>0</ns3:cad>
          </ns3:TrackPointExtension>
        </extensions>
      </trkpt>
      <trkpt lat="43.768486864864826202392578125" lon="1.58805859275162220001220703125">
        <ele>156.600006103515625</ele>
        <time>2026-08-13T08:14:23.000Z</time>
        <extensions>
          <ns3:TrackPointExtension>
            <ns3:hr>84</ns3:hr>
            <ns3:cad>0</ns3:cad>
          </ns3:TrackPointExtension>
        </extensions>
      </trkpt>
      <trkpt lat="43.76848007552325725555419921875" lon="1.5880606882274150848388671875">
        <ele>156.600006103515625</ele>
        <time>2026-08-13T08:14:24.000Z</time>
        <extensions>
          <ns3:TrackPointExtension>
            <ns3:hr>83</ns3:hr>
            <ns3:cad>46</ns3:cad>
          </ns3:TrackPointExtension>
        </extensions>
      </trkpt>
      <trkpt lat="43.7684716098010540008544921875" lon="1.588065214455127716064453125">
        <ele>156.600006103515625</ele>
        <time>2026-08-13T08:14:25.000Z</time>
        <extensions>
          <ns3:TrackPointExtension>
            <ns3:hr>83</ns3:hr>
            <ns3:cad>46</ns3:cad>
          </ns3:TrackPointExtension>
        </extensions>
      </trkpt>
      <trkpt lat="43.76846247352659702301025390625" lon="1.58806932158768177032470703125">
        <ele>156.600006103515625</ele>
        <time>2026-08-13T08:14:26.000Z</time>
        <extensions>
          <ns3:TrackPointExtension>
            <ns3:hr>84</ns3:hr>
            <ns3:cad>46</ns3:cad>
          </ns3:TrackPointExtension>
        </extensions>
      </trkpt>
      <trkpt lat="43.7684521637856960296630859375" lon="1.58807493746280670166015625">
        <ele>156.600006103515625</ele>
        <time>2026-08-13T08:14:27.000Z</time>
        <extensions>
          <ns3:TrackPointExtension>
            <ns3:hr>84</ns3:hr>
            <ns3:cad>46</ns3:cad>
          </ns3:TrackPointExtension>
        </extensions>
      </trkpt>
      <trkpt lat="43.76844570972025394439697265625" lon="1.58807787112891674041748046875">
        <ele>156.600006103515625</ele>
        <time>2026-08-13T08:14:28.000Z</time>
        <extensions>
          <ns3:TrackPointExtension>
            <ns3:hr>84</ns3:hr>
            <ns3:cad>46</ns3:cad>
          </ns3:TrackPointExtension>
        </extensions>
      </trkpt>
      <trkpt lat="43.76843246631324291229248046875" lon="1.58808457665145397186279296875">
        <ele>156.600006103515625</ele>
        <time>2026-08-13T08:14:29.000Z</time>
        <extensions>
          <ns3:TrackPointExtension>
            <ns3:hr>85</ns3:hr>
            <ns3:cad>46</ns3:cad>
          </ns3:TrackPointExtension>
        </extensions>
      </trkpt>
      <trkpt lat="43.76842039637267589569091796875" lon="1.5880922041833400726318359375">
        <ele>156.600006103515625</ele>
        <time>2026-08-13T08:14:30.000Z</time>
        <extensions>
          <ns3:TrackPointExtension>
            <ns3:hr>85</ns3:hr>
            <ns3:cad>46</ns3:cad>
          </ns3:TrackPointExtension>
        </extensions>
      </trkpt>
      <trkpt lat="43.7684109248220920562744140625" lon="1.588103771209716796875">
        <ele>156.600006103515625</ele>
        <time>2026-08-13T08:14:31.000Z</time>
        <extensions>
          <ns3:TrackPointExtension>
            <ns3:hr>86</ns3:hr>
            <ns3:cad>46</ns3:cad>
          </ns3:TrackPointExtension>
        </extensions>
      </trkpt>
      <trkpt lat="43.7684022076427936553955078125" lon="1.58810536377131938934326171875">
        <ele>156.600006103515625</ele>
        <time>2026-08-13T08:14:32.000Z</time>
        <extensions>
          <ns3:TrackPointExtension>
            <ns3:hr>86</ns3:hr>
            <ns3:cad>46</ns3:cad>
          </ns3:TrackPointExtension>
        </extensions>
      </trkpt>
      <trkpt lat="43.76839022152125835418701171875" lon="1.58810771070420742034912109375">
        <ele>156.600006103515625</ele>
        <time>2026-08-13T08:14:33.000Z</time>
        <extensions>
          <ns3:TrackPointExtension>
            <ns3:hr>86</ns3:hr>
            <ns3:cad>47</ns3:cad>
          </ns3:TrackPointExtension>
        </extensions>
      </trkpt>
      <trkpt lat="43.76837898977100849151611328125" lon="1.58811642788350582122802734375">
        <ele>156.600006103515625</ele>
        <time>2026-08-13T08:14:34.000Z</time>
        <extensions>
          <ns3:TrackPointExtension>
            <ns3:hr>86</ns3:hr>
            <ns3:cad>47</ns3:cad>
          </ns3:TrackPointExtension>
        </extensions>
      </trkpt>
      <trkpt lat="43.76836792565882205963134765625" lon="1.58812330104410648345947265625">
        <ele>156.600006103515625</ele>
        <time>2026-08-13T08:14:35.000Z</time>
        <extensions>
          <ns3:TrackPointExtension>
            <ns3:hr>86</ns3:hr>
            <ns3:cad>47</ns3:cad>
          </ns3:TrackPointExtension>
        </extensions>
      </trkpt>
      <trkpt lat="43.76835820265114307403564453125" lon="1.5881247259676456451416015625">
        <ele>156.600006103515625</ele>
        <time>2026-08-13T08:14:36.000Z</time>
        <extensions>
          <ns3:TrackPointExtension>
            <ns3:hr>87</ns3:hr>
            <ns3:cad>49</ns3:cad>
          </ns3:TrackPointExtension>
        </extensions>
      </trkpt>
      <trkpt lat="43.768346719443798065185546875" lon="1.58813000656664371490478515625">
        <ele>156.600006103515625</ele>
        <time>2026-08-13T08:14:37.000Z</time>
        <extensions>
          <ns3:TrackPointExtension>
            <ns3:hr>87</ns3:hr>
            <ns3:cad>49</ns3:cad>
          </ns3:TrackPointExtension>
        </extensions>
      </trkpt>
      <trkpt lat="43.7683328054845333099365234375" lon="1.58813528716564178466796875">
        <ele>156.600006103515625</ele>
        <time>2026-08-13T08:14:38.000Z</time>
        <extensions>
          <ns3:TrackPointExtension>
            <ns3:hr>86</ns3:hr>
            <ns3:cad>45</ns3:cad>
          </ns3:TrackPointExtension>
        </extensions>
      </trkpt>
      <trkpt lat="43.7683227472007274627685546875" lon="1.5881374664604663848876953125">
        <ele>156.600006103515625</ele>
        <time>2026-08-13T08:14:39.000Z</time>
        <extensions>
          <ns3:TrackPointExtension>
            <ns3:hr>86</ns3:hr>
            <ns3:cad>45</ns3:cad>
          </ns3:TrackPointExtension>
        </extensions>
      </trkpt>
      <trkpt lat="43.76831411384046077728271484375" lon="1.58813796937465667724609375">
        <ele>156.600006103515625</ele>
        <time>2026-08-13T08:14:40.000Z</time>
        <extensions>
          <ns3:TrackPointExtension>
            <ns3:hr>86</ns3:hr>
            <ns3:cad>45</ns3:cad>
          </ns3:TrackPointExtension>
        </extensions>
      </trkpt>
      <trkpt lat="43.76830757595598697662353515625" lon="1.58813939429819583892822265625">
        <ele>156.600006103515625</ele>
        <time>2026-08-13T08:14:41.000Z</time>
        <extensions>
          <ns3:TrackPointExtension>
            <ns3:hr>85</ns3:hr>
            <ns3:cad>45</ns3:cad>
          </ns3:TrackPointExtension>
        </extensions>
      </trkpt>
      <trkpt lat="43.7682965956628322601318359375" lon="1.58814601600170135498046875">
        <ele>156.600006103515625</ele>
        <time>2026-08-13T08:14:42.000Z</time>
        <extensions>
          <ns3:TrackPointExtension>
            <ns3:hr>85</ns3:hr>
            <ns3:cad>44</ns3:cad>
          </ns3:TrackPointExtension>
        </extensions>
      </trkpt>
      <trkpt lat="43.76828712411224842071533203125" lon="1.5881522186100482940673828125">
        <ele>156.600006103515625</ele>
        <time>2026-08-13T08:14:43.000Z</time>
        <extensions>
          <ns3:TrackPointExtension>
            <ns3:hr>85</ns3:hr>
            <ns3:cad>44</ns3:cad>
          </ns3:TrackPointExtension>
        </extensions>
      </trkpt>
      <trkpt lat="43.768278993666172027587890625" lon="1.58815406262874603271484375">
        <ele>156.600006103515625</ele>
        <time>2026-08-13T08:14:44.000Z</time>
        <extensions>
          <ns3:TrackPointExtension>
            <ns3:hr>85</ns3:hr>
            <ns3:cad>45</ns3:cad>
          </ns3:TrackPointExtension>
        </extensions>
      </trkpt>
      <trkpt lat="43.7682746350765228271484375" lon="1.5881533920764923095703125">
        <ele>156.600006103515625</ele>
        <time>2026-08-13T08:14:45.000Z</time>
        <extensions>
          <ns3:TrackPointExtension>
            <ns3:hr>84</ns3:hr>
            <ns3:cad>45</ns3:cad>
          </ns3:TrackPointExtension>
        </extensions>
      </trkpt>
      <trkpt lat="43.768263570964336395263671875" lon="1.5881579183042049407958984375">
        <ele>156.600006103515625</ele>
        <time>2026-08-13T08:14:46.000Z</time>
        <extensions>
          <ns3:TrackPointExtension>
            <ns3:hr>84</ns3:hr>
            <ns3:cad>45</ns3:cad>
          </ns3:TrackPointExtension>
        </extensions>
      </trkpt>
      <trkpt lat="43.7682526744902133941650390625" lon="1.58816470764577388763427734375">
        <ele>156.600006103515625</ele>
        <time>2026-08-13T08:14:47.000Z</time>
        <extensions>
          <ns3:TrackPointExtension>
            <ns3:hr>83</ns3:hr>
            <ns3:cad>45</ns3:cad>
          </ns3:TrackPointExtension>
        </extensions>
      </trkpt>
      <trkpt lat="43.76824387349188327789306640625" lon="1.588167138397693634033203125">
        <ele>156.399993896484375</ele>
        <time>2026-08-13T08:14:48.000Z</time>
        <extensions>
          <ns3:TrackPointExtension>
            <ns3:hr>82</ns3:hr>
            <ns3:cad>45</ns3:cad>
          </ns3:TrackPointExtension>
        </extensions>
      </trkpt>
      <trkpt lat="43.76824068836867809295654296875" lon="1.58817292191088199615478515625">
        <ele>156.399993896484375</ele>
        <time>2026-08-13T08:14:49.000Z</time>
        <extensions>
          <ns3:TrackPointExtension>
            <ns3:hr>80</ns3:hr>
            <ns3:cad>45</ns3:cad>
          </ns3:TrackPointExtension>
        </extensions>
      </trkpt>
      <trkpt lat="43.76822979189455509185791015625" lon="1.58818197436630725860595703125">
        <ele>156.399993896484375</ele>
        <time>2026-08-13T08:14:50.000Z</time>
        <extensions>
          <ns3:TrackPointExtension>
            <ns3:hr>78</ns3:hr>
            <ns3:cad>45</ns3:cad>
          </ns3:TrackPointExtension>
        </extensions>
      </trkpt>
      <trkpt lat="43.7682178057730197906494140625" lon="1.588187925517559051513671875">
        <ele>156.399993896484375</ele>
        <time>2026-08-13T08:14:51.000Z</time>
        <extensions>
          <ns3:TrackPointExtension>
            <ns3:hr>77</ns3:hr>
            <ns3:cad>45</ns3:cad>
          </ns3:TrackPointExtension>
        </extensions>
      </trkpt>
      <trkpt lat="43.76820984296500682830810546875" lon="1.58819404430687427520751953125">
        <ele>156.399993896484375</ele>
        <time>2026-08-13T08:14:52.000Z</time>
        <extensions>
          <ns3:TrackPointExtension>
            <ns3:hr>77</ns3:hr>
            <ns3:cad>45</ns3:cad>
          </ns3:TrackPointExtension>
        </extensions>
      </trkpt>
      <trkpt lat="43.768202550709247589111328125" lon="1.58819672651588916778564453125">
        <ele>156.399993896484375</ele>
        <time>2026-08-13T08:14:53.000Z</time>
        <extensions>
          <ns3:TrackPointExtension>
            <ns3:hr>77</ns3:hr>
            <ns3:cad>45</ns3:cad>
          </ns3:TrackPointExtension>
        </extensions>
      </trkpt>
      <trkpt lat="43.7681899778544902801513671875" lon="1.58820502460002899169921875">
        <ele>156.399993896484375</ele>
        <time>2026-08-13T08:14:54.000Z</time>
        <extensions>
          <ns3:TrackPointExtension>
            <ns3:hr>77</ns3:hr>
            <ns3:cad>45</ns3:cad>
          </ns3:TrackPointExtension>
        </extensions>
      </trkpt>
      <trkpt lat="43.7681780755519866943359375" lon="1.5882159210741519927978515625">
        <ele>156.399993896484375</ele>
        <time>2026-08-13T08:14:55.000Z</time>
        <extensions>
          <ns3:TrackPointExtension>
            <ns3:hr>76</ns3:hr>
            <ns3:cad>45</ns3:cad>
          </ns3:TrackPointExtension>
        </extensions>
      </trkpt>
      <trkpt lat="43.768171370029449462890625" lon="1.588224135339260101318359375">
        <ele>156.399993896484375</ele>
        <time>2026-08-13T08:14:56.000Z</time>
        <extensions>
          <ns3:TrackPointExtension>
            <ns3:hr>75</ns3:hr>
            <ns3:cad>45</ns3:cad>
          </ns3:TrackPointExtension>
        </extensions>
      </trkpt>
      <trkpt lat="43.7681648321449756622314453125" lon="1.5882289968430995941162109375">
        <ele>156.399993896484375</ele>
        <time>2026-08-13T08:14:57.000Z</time>
        <extensions>
          <ns3:TrackPointExtension>
            <ns3:hr>75</ns3:hr>
            <ns3:cad>46</ns3:cad>
          </ns3:TrackPointExtension>
        </extensions>
      </trkpt>
      <trkpt lat="43.76815251074731349945068359375" lon="1.58823427744209766387939453125">
        <ele>156.399993896484375</ele>
        <time>2026-08-13T08:14:58.000Z</time>
        <extensions>
          <ns3:TrackPointExtension>
            <ns3:hr>74</ns3:hr>
            <ns3:cad>46</ns3:cad>
          </ns3:TrackPointExtension>
        </extensions>
      </trkpt>
      <trkpt lat="43.76813960261642932891845703125" lon="1.5882387198507785797119140625">
        <ele>156.1999969482421875</ele>
        <time>2026-08-13T08:14:59.000Z</time>
        <extensions>
          <ns3:TrackPointExtension>
            <ns3:hr>75</ns3:hr>
            <ns3:cad>46</ns3:cad>
          </ns3:TrackPointExtension>
        </extensions>
      </trkpt>
      <trkpt lat="43.76812853850424289703369140625" lon="1.58824316225945949554443359375">
        <ele>156.1999969482421875</ele>
        <time>2026-08-13T08:15:00.000Z</time>
        <extensions>
          <ns3:TrackPointExtension>
            <ns3:hr>76</ns3:hr>
            <ns3:cad>46</ns3:cad>
          </ns3:TrackPointExtension>
        </extensions>
      </trkpt>
      <trkpt lat="43.76812233589589595794677734375" lon="1.5882414020597934722900390625">
        <ele>156.1999969482421875</ele>
        <time>2026-08-13T08:15:01.000Z</time>
        <extensions>
          <ns3:TrackPointExtension>
            <ns3:hr>77</ns3:hr>
            <ns3:cad>46</ns3:cad>
          </ns3:TrackPointExtension>
        </extensions>
      </trkpt>
      <trkpt lat="43.76811227761209011077880859375" lon="1.58824517391622066497802734375">
        <ele>156.1999969482421875</ele>
        <time>2026-08-13T08:15:02.000Z</time>
        <extensions>
          <ns3:TrackPointExtension>
            <ns3:hr>77</ns3:hr>
            <ns3:cad>46</ns3:cad>
          </ns3:TrackPointExtension>
        </extensions>
      </trkpt>
      <trkpt lat="43.76809903420507907867431640625" lon="1.58824936486780643463134765625">
        <ele>156.1999969482421875</ele>
        <time>2026-08-13T08:15:03.000Z</time>
        <extensions>
          <ns3:TrackPointExtension>
            <ns3:hr>78</ns3:hr>
            <ns3:cad>45</ns3:cad>
          </ns3:TrackPointExtension>
        </extensions>
      </trkpt>
      <trkpt lat="43.76808864064514636993408203125" lon="1.588253639638423919677734375">
        <ele>156.1999969482421875</ele>
        <time>2026-08-13T08:15:04.000Z</time>
        <extensions>
          <ns3:TrackPointExtension>
            <ns3:hr>78</ns3:hr>
            <ns3:cad>45</ns3:cad>
          </ns3:TrackPointExtension>
        </extensions>
      </trkpt>
      <trkpt lat="43.76808361150324344635009765625" lon="1.58825690858066082000732421875">
        <ele>156.1999969482421875</ele>
        <time>2026-08-13T08:15:05.000Z</time>
        <extensions>
          <ns3:TrackPointExtension>
            <ns3:hr>78</ns3:hr>
            <ns3:cad>46</ns3:cad>
          </ns3:TrackPointExtension>
        </extensions>
      </trkpt>
      <trkpt lat="43.768076486885547637939453125" lon="1.5882660448551177978515625">
        <ele>156</ele>
        <time>2026-08-13T08:15:06.000Z</time>
        <extensions>
          <ns3:TrackPointExtension>
            <ns3:hr>77</ns3:hr>
            <ns3:cad>46</ns3:cad>
          </ns3:TrackPointExtension>
        </extensions>
      </trkpt>
      <trkpt lat="43.7680652551352977752685546875" lon="1.58827752806246280670166015625">
        <ele>156</ele>
        <time>2026-08-13T08:15:07.000Z</time>
        <extensions>
          <ns3:TrackPointExtension>
            <ns3:hr>77</ns3:hr>
            <ns3:cad>46</ns3:cad>
          </ns3:TrackPointExtension>
        </extensions>
      </trkpt>
      <trkpt lat="43.76805377192795276641845703125" lon="1.58828540705144405364990234375">
        <ele>156</ele>
        <time>2026-08-13T08:15:08.000Z</time>
        <extensions>
          <ns3:TrackPointExtension>
            <ns3:hr>77</ns3:hr>
            <ns3:cad>46</ns3:cad>
          </ns3:TrackPointExtension>
        </extensions>
      </trkpt>
      <trkpt lat="43.76805209554731845855712890625" lon="1.588284485042095184326171875">
        <ele>156</ele>
        <time>2026-08-13T08:15:09.000Z</time>
        <extensions>
          <ns3:TrackPointExtension>
            <ns3:hr>76</ns3:hr>
            <ns3:cad>46</ns3:cad>
          </ns3:TrackPointExtension>
        </extensions>
      </trkpt>
      <trkpt lat="43.7680448032915592193603515625" lon="1.58828817307949066162109375">
        <ele>155.8000030517578125</ele>
        <time>2026-08-13T08:15:10.000Z</time>
        <extensions>
          <ns3:TrackPointExtension>
            <ns3:hr>76</ns3:hr>
            <ns3:cad>46</ns3:cad>
          </ns3:TrackPointExtension>
        </extensions>
      </trkpt>
      <trkpt lat="43.76803315244615077972412109375" lon="1.58829395659267902374267578125">
        <ele>155.8000030517578125</ele>
        <time>2026-08-13T08:15:11.000Z</time>
        <extensions>
          <ns3:TrackPointExtension>
            <ns3:hr>77</ns3:hr>
            <ns3:cad>46</ns3:cad>
          </ns3:TrackPointExtension>
        </extensions>
      </trkpt>
      <trkpt lat="43.76802661456167697906494140625" lon="1.588297225534915924072265625">
        <ele>155.8000030517578125</ele>
        <time>2026-08-13T08:15:12.000Z</time>
        <extensions>
          <ns3:TrackPointExtension>
            <ns3:hr>77</ns3:hr>
            <ns3:cad>46</ns3:cad>
          </ns3:TrackPointExtension>
        </extensions>
      </trkpt>
      <trkpt lat="43.7680230103433132171630859375" lon="1.58829697407782077789306640625">
        <ele>155.8000030517578125</ele>
        <time>2026-08-13T08:15:13.000Z</time>
        <extensions>
          <ns3:TrackPointExtension>
            <ns3:hr>77</ns3:hr>
            <ns3:cad>46</ns3:cad>
          </ns3:TrackPointExtension>
        </extensions>
      </trkpt>
      <trkpt lat="43.7680144608020782470703125" lon="1.588301248848438262939453125">
        <ele>155.600006103515625</ele>
        <time>2026-08-13T08:15:14.000Z</time>
        <extensions>
          <ns3:TrackPointExtension>
            <ns3:hr>77</ns3:hr>
            <ns3:cad>44</ns3:cad>
          </ns3:TrackPointExtension>
        </extensions>
      </trkpt>
      <trkpt lat="43.76800348050892353057861328125" lon="1.58830560743808746337890625">
        <ele>155.600006103515625</ele>
        <time>2026-08-13T08:15:15.000Z</time>
        <extensions>
          <ns3:TrackPointExtension>
            <ns3:hr>76</ns3:hr>
            <ns3:cad>44</ns3:cad>
          </ns3:TrackPointExtension>
        </extensions>
      </trkpt>
      <trkpt lat="43.7679928354918956756591796875" lon="1.58831139095127582550048828125">
        <ele>155.399993896484375</ele>
        <time>2026-08-13T08:15:16.000Z</time>
        <extensions>
          <ns3:TrackPointExtension>
            <ns3:hr>76</ns3:hr>
            <ns3:cad>43</ns3:cad>
          </ns3:TrackPointExtension>
        </extensions>
      </trkpt>
      <trkpt lat="43.7679844535887241363525390625" lon="1.58831222914159297943115234375">
        <ele>155.399993896484375</ele>
        <time>2026-08-13T08:15:17.000Z</time>
        <extensions>
          <ns3:TrackPointExtension>
            <ns3:hr>75</ns3:hr>
            <ns3:cad>43</ns3:cad>
          </ns3:TrackPointExtension>
        </extensions>
      </trkpt>
      <trkpt lat="43.7679794244468212127685546875" lon="1.58831373788416385650634765625">
        <ele>155.1999969482421875</ele>
        <time>2026-08-13T08:15:18.000Z</time>
        <extensions>
          <ns3:TrackPointExtension>
            <ns3:hr>74</ns3:hr>
            <ns3:cad>46</ns3:cad>
          </ns3:TrackPointExtension>
        </extensions>
      </trkpt>
      <trkpt lat="43.76797146163880825042724609375" lon="1.58831390552222728729248046875">
        <ele>155</ele>
        <time>2026-08-13T08:15:19.000Z</time>
        <extensions>
          <ns3:TrackPointExtension>
            <ns3:hr>74</ns3:hr>
            <ns3:cad>46</ns3:cad>
          </ns3:TrackPointExtension>
        </extensions>
      </trkpt>
      <trkpt lat="43.767964504659175872802734375" lon="1.58831097185611724853515625">
        <ele>154.8000030517578125</ele>
        <time>2026-08-13T08:15:20.000Z</time>
        <extensions>
          <ns3:TrackPointExtension>
            <ns3:hr>73</ns3:hr>
            <ns3:cad>47</ns3:cad>
          </ns3:TrackPointExtension>
        </extensions>
      </trkpt>
      <trkpt lat="43.76795453019440174102783203125" lon="1.58830451779067516326904296875">
        <ele>154.8000030517578125</ele>
        <time>2026-08-13T08:15:21.000Z</time>
        <extensions>
          <ns3:TrackPointExtension>
            <ns3:hr>73</ns3:hr>
            <ns3:cad>47</ns3:cad>
          </ns3:TrackPointExtension>
        </extensions>
      </trkpt>
      <trkpt lat="43.76794547773897647857666015625" lon="1.58829596824944019317626953125">
        <ele>154.600006103515625</ele>
        <time>2026-08-13T08:15:22.000Z</time>
        <extensions>
          <ns3:TrackPointExtension>
            <ns3:hr>74</ns3:hr>
            <ns3:cad>48</ns3:cad>
          </ns3:TrackPointExtension>
        </extensions>
      </trkpt>
      <trkpt lat="43.76793944276869297027587890625" lon="1.58829328604042530059814453125">
        <ele>154.600006103515625</ele>
        <time>2026-08-13T08:15:23.000Z</time>
        <extensions>
          <ns3:TrackPointExtension>
            <ns3:hr>74</ns3:hr>
            <ns3:cad>50</ns3:cad>
          </ns3:TrackPointExtension>
        </extensions>
      </trkpt>
      <trkpt lat="43.76793458126485347747802734375" lon="1.58828892745077610015869140625">
        <ele>154.399993896484375</ele>
        <time>2026-08-13T08:15:24.000Z</time>
        <extensions>
          <ns3:TrackPointExtension>
            <ns3:hr>74</ns3:hr>
            <ns3:cad>51</ns3:cad>
          </ns3:TrackPointExtension>
        </extensions>
      </trkpt>
      <trkpt lat="43.7679365091025829315185546875" lon="1.5882829762995243072509765625">
        <ele>154.399993896484375</ele>
        <time>2026-08-13T08:15:25.000Z</time>
        <extensions>
          <ns3:TrackPointExtension>
            <ns3:hr>73</ns3:hr>
            <ns3:cad>51</ns3:cad>
          </ns3:TrackPointExtension>
        </extensions>
      </trkpt>
      <trkpt lat="43.76793474890291690826416015625" lon="1.58827207982540130615234375">
        <ele>154.399993896484375</ele>
        <time>2026-08-13T08:15:26.000Z</time>
        <extensions>
          <ns3:TrackPointExtension>
            <ns3:hr>72</ns3:hr>
            <ns3:cad>51</ns3:cad>
          </ns3:TrackPointExtension>
        </extensions>
      </trkpt>
      <trkpt lat="43.76793122850358486175537109375" lon="1.5882608480751514434814453125">
        <ele>154.1999969482421875</ele>
        <time>2026-08-13T08:15:27.000Z</time>
        <extensions>
          <ns3:TrackPointExtension>
            <ns3:hr>72</ns3:hr>
            <ns3:cad>48</ns3:cad>
          </ns3:TrackPointExtension>
        </extensions>
      </trkpt>
      <trkpt lat="43.76792804338037967681884765625" lon="1.5882434137165546417236328125">
        <ele>154.1999969482421875</ele>
        <time>2026-08-13T08:15:28.000Z</time>
        <extensions>
          <ns3:TrackPointExtension>
            <ns3:hr>72</ns3:hr>
            <ns3:cad>48</ns3:cad>
          </ns3:TrackPointExtension>
        </extensions>
      </trkpt>
      <trkpt lat="43.7679264508187770843505859375" lon="1.58822237513959407806396484375">
        <ele>154.1999969482421875</ele>
        <time>2026-08-13T08:15:29.000Z</time>
        <extensions>
          <ns3:TrackPointExtension>
            <ns3:hr>72</ns3:hr>
            <ns3:cad>47</ns3:cad>
          </ns3:TrackPointExtension>
        </extensions>
      </trkpt>
      <trkpt lat="43.767924942076206207275390625" lon="1.58820695243775844573974609375">
        <ele>154.1999969482421875</ele>
        <time>2026-08-13T08:15:30.000Z</time>
        <extensions>
          <ns3:TrackPointExtension>
            <ns3:hr>72</ns3:hr>
            <ns3:cad>47</ns3:cad>
          </ns3:TrackPointExtension>
        </extensions>
      </trkpt>
      <trkpt lat="43.76792536117136478424072265625" lon="1.5881978161633014678955078125">
        <ele>154.1999969482421875</ele>
        <time>2026-08-13T08:15:31.000Z</time>
        <extensions>
          <ns3:TrackPointExtension>
            <ns3:hr>71</ns3:hr>
            <ns3:cad>45</ns3:cad>
          </ns3:TrackPointExtension>
        </extensions>
      </trkpt>
      <trkpt lat="43.767924942076206207275390625" lon="1.58818549476563930511474609375">
        <ele>154.1999969482421875</ele>
        <time>2026-08-13T08:15:32.000Z</time>
        <extensions>
          <ns3:TrackPointExtension>
            <ns3:hr>71</ns3:hr>
            <ns3:cad>43</ns3:cad>
          </ns3:TrackPointExtension>
        </extensions>
      </trkpt>
      <trkpt lat="43.76792703755199909210205078125" lon="1.58816822804510593414306640625">
        <ele>154.1999969482421875</ele>
        <time>2026-08-13T08:15:33.000Z</time>
        <extensions>
          <ns3:TrackPointExtension>
            <ns3:hr>71</ns3:hr>
            <ns3:cad>43</ns3:cad>
          </ns3:TrackPointExtension>
        </extensions>
      </trkpt>
      <trkpt lat="43.76792795956134796142578125" lon="1.58815406262874603271484375">
        <ele>154.1999969482421875</ele>
        <time>2026-08-13T08:15:34.000Z</time>
        <extensions>
          <ns3:TrackPointExtension>
            <ns3:hr>71</ns3:hr>
            <ns3:cad>43</ns3:cad>
          </ns3:TrackPointExtension>
        </extensions>
      </trkpt>
      <trkpt lat="43.76793039031326770782470703125" lon="1.58814241178333759307861328125">
        <ele>154.1999969482421875</ele>
        <time>2026-08-13T08:15:35.000Z</time>
        <extensions>
          <ns3:TrackPointExtension>
            <ns3:hr>72</ns3:hr>
            <ns3:cad>44</ns3:cad>
          </ns3:TrackPointExtension>
        </extensions>
      </trkpt>
      <trkpt lat="43.76793156377971172332763671875" lon="1.588130258023738861083984375">
        <ele>154.1999969482421875</ele>
        <time>2026-08-13T08:15:36.000Z</time>
        <extensions>
          <ns3:TrackPointExtension>
            <ns3:hr>71</ns3:hr>
            <ns3:cad>45</ns3:cad>
          </ns3:TrackPointExtension>
        </extensions>
      </trkpt>
      <trkpt lat="43.76793743111193180084228515625" lon="1.5881173498928546905517578125">
        <ele>154.1999969482421875</ele>
        <time>2026-08-13T08:15:37.000Z</time>
        <extensions>
          <ns3:TrackPointExtension>
            <ns3:hr>71</ns3:hr>
            <ns3:cad>46</ns3:cad>
          </ns3:TrackPointExtension>
        </extensions>
      </trkpt>
      <trkpt lat="43.7679422087967395782470703125" lon="1.5881066210567951202392578125">
        <ele>154.399993896484375</ele>
        <time>2026-08-13T08:15:38.000Z</time>
        <extensions>
          <ns3:TrackPointExtension>
            <ns3:hr>71</ns3:hr>
            <ns3:cad>46</ns3:cad>
          </ns3:TrackPointExtension>
        </extensions>
      </trkpt>
      <trkpt lat="43.76794405281543731689453125" lon="1.588100083172321319580078125">
        <ele>154.399993896484375</ele>
        <time>2026-08-13T08:15:39.000Z</time>
        <extensions>
          <ns3:TrackPointExtension>
            <ns3:hr>72</ns3:hr>
            <ns3:cad>46</ns3:cad>
          </ns3:TrackPointExtension>
        </extensions>
      </trkpt>
      <trkpt lat="43.7679509259760379791259765625" lon="1.58808491192758083343505859375">
        <ele>154.399993896484375</ele>
        <time>2026-08-13T08:15:40.000Z</time>
        <extensions>
          <ns3:TrackPointExtension>
            <ns3:hr>72</ns3:hr>
            <ns3:cad>46</ns3:cad>
          </ns3:TrackPointExtension>
        </extensions>
      </trkpt>
      <trkpt lat="43.76795620657503604888916015625" lon="1.58807225525379180908203125">
        <ele>154.399993896484375</ele>
        <time>2026-08-13T08:15:41.000Z</time>
        <extensions>
          <ns3:TrackPointExtension>
            <ns3:hr>72</ns3:hr>
            <ns3:cad>46</ns3:cad>
          </ns3:TrackPointExtension>
        </extensions>
      </trkpt>
      <trkpt lat="43.767961151897907257080078125" lon="1.58805884420871734619140625">
        <ele>154.399993896484375</ele>
        <time>2026-08-13T08:15:42.000Z</time>
        <extensions>
          <ns3:TrackPointExtension>
            <ns3:hr>73</ns3:hr>
            <ns3:cad>45</ns3:cad>
          </ns3:TrackPointExtension>
        </extensions>
      </trkpt>
      <trkpt lat="43.767964504659175872802734375" lon="1.58804954029619693756103515625">
        <ele>154.600006103515625</ele>
        <time>2026-08-13T08:15:43.000Z</time>
        <extensions>
          <ns3:TrackPointExtension>
            <ns3:hr>73</ns3:hr>
            <ns3:cad>44</ns3:cad>
          </ns3:TrackPointExtension>
        </extensions>
      </trkpt>
      <trkpt lat="43.76796844415366649627685546875" lon="1.58803713507950305938720703125">
        <ele>154.600006103515625</ele>
        <time>2026-08-13T08:15:44.000Z</time>
        <extensions>
          <ns3:TrackPointExtension>
            <ns3:hr>74</ns3:hr>
            <ns3:cad>43</ns3:cad>
          </ns3:TrackPointExtension>
        </extensions>
      </trkpt>
      <trkpt lat="43.76797213219106197357177734375" lon="1.58802087418735027313232421875">
        <ele>154.8000030517578125</ele>
        <time>2026-08-13T08:15:45.000Z</time>
        <extensions>
          <ns3:TrackPointExtension>
            <ns3:hr>74</ns3:hr>
            <ns3:cad>44</ns3:cad>
          </ns3:TrackPointExtension>
        </extensions>
      </trkpt>
      <trkpt lat="43.7679770775139331817626953125" lon="1.5880090557038784027099609375">
        <ele>154.8000030517578125</ele>
        <time>2026-08-13T08:15:46.000Z</time>
        <extensions>
          <ns3:TrackPointExtension>
            <ns3:hr>74</ns3:hr>
            <ns3:cad>44</ns3:cad>
          </ns3:TrackPointExtension>
        </extensions>
      </trkpt>
      <trkpt lat="43.76797649078071117401123046875" lon="1.58799983561038970947265625">
        <ele>154.8000030517578125</ele>
        <time>2026-08-13T08:15:47.000Z</time>
        <extensions>
          <ns3:TrackPointExtension>
            <ns3:hr>74</ns3:hr>
            <ns3:cad>44</ns3:cad>
          </ns3:TrackPointExtension>
        </extensions>
      </trkpt>
      <trkpt lat="43.7679844535887241363525390625" lon="1.58798768185079097747802734375">
        <ele>154.8000030517578125</ele>
        <time>2026-08-13T08:15:48.000Z</time>
        <extensions>
          <ns3:TrackPointExtension>
            <ns3:hr>74</ns3:hr>
            <ns3:cad>44</ns3:cad>
          </ns3:TrackPointExtension>
        </extensions>
      </trkpt>
      <trkpt lat="43.7679930031299591064453125" lon="1.58797209151089191436767578125">
        <ele>154.8000030517578125</ele>
        <time>2026-08-13T08:15:49.000Z</time>
        <extensions>
          <ns3:TrackPointExtension>
            <ns3:hr>74</ns3:hr>
            <ns3:cad>44</ns3:cad>
          </ns3:TrackPointExtension>
        </extensions>
      </trkpt>
      <trkpt lat="43.76799769699573516845703125" lon="1.58795968629419803619384765625">
        <ele>155</ele>
        <time>2026-08-13T08:15:50.000Z</time>
        <extensions>
          <ns3:TrackPointExtension>
            <ns3:hr>74</ns3:hr>
            <ns3:cad>44</ns3:cad>
          </ns3:TrackPointExtension>
        </extensions>
      </trkpt>
      <trkpt lat="43.7680015526711940765380859375" lon="1.5879503823816776275634765625">
        <ele>155</ele>
        <time>2026-08-13T08:15:51.000Z</time>
        <extensions>
          <ns3:TrackPointExtension>
            <ns3:hr>75</ns3:hr>
            <ns3:cad>45</ns3:cad>
          </ns3:TrackPointExtension>
        </extensions>
      </trkpt>
      <trkpt lat="43.76800565980374813079833984375" lon="1.58793554641306400299072265625">
        <ele>155.1999969482421875</ele>
        <time>2026-08-13T08:15:52.000Z</time>
        <extensions>
          <ns3:TrackPointExtension>
            <ns3:hr>75</ns3:hr>
            <ns3:cad>46</ns3:cad>
          </ns3:TrackPointExtension>
        </extensions>
      </trkpt>
      <trkpt lat="43.768010437488555908203125" lon="1.5879215486347675323486328125">
        <ele>155.1999969482421875</ele>
        <time>2026-08-13T08:15:53.000Z</time>
        <extensions>
          <ns3:TrackPointExtension>
            <ns3:hr>74</ns3:hr>
            <ns3:cad>46</ns3:cad>
          </ns3:TrackPointExtension>
        </extensions>
      </trkpt>
      <trkpt lat="43.7680139578878879547119140625" lon="1.58790922723710536956787109375">
        <ele>155.399993896484375</ele>
        <time>2026-08-13T08:15:54.000Z</time>
        <extensions>
          <ns3:TrackPointExtension>
            <ns3:hr>74</ns3:hr>
            <ns3:cad>46</ns3:cad>
          </ns3:TrackPointExtension>
        </extensions>
      </trkpt>
      <trkpt lat="43.76801990903913974761962890625" lon="1.587897241115570068359375">
        <ele>155.399993896484375</ele>
        <time>2026-08-13T08:15:55.000Z</time>
        <extensions>
          <ns3:TrackPointExtension>
            <ns3:hr>74</ns3:hr>
            <ns3:cad>46</ns3:cad>
          </ns3:TrackPointExtension>
        </extensions>
      </trkpt>
      <trkpt lat="43.76802225597202777862548828125" lon="1.58788844011723995208740234375">
        <ele>155.399993896484375</ele>
        <time>2026-08-13T08:15:56.000Z</time>
        <extensions>
          <ns3:TrackPointExtension>
            <ns3:hr>75</ns3:hr>
            <ns3:cad>46</ns3:cad>
          </ns3:TrackPointExtension>
        </extensions>
      </trkpt>
      <trkpt lat="43.76802342943847179412841796875" lon="1.58787754364311695098876953125">
        <ele>155.600006103515625</ele>
        <time>2026-08-13T08:15:57.000Z</time>
        <extensions>
          <ns3:TrackPointExtension>
            <ns3:hr>75</ns3:hr>
            <ns3:cad>46</ns3:cad>
          </ns3:TrackPointExtension>
        </extensions>
      </trkpt>
      <trkpt lat="43.76802409999072551727294921875" lon="1.58787402324378490447998046875">
        <ele>155.600006103515625</ele>
        <time>2026-08-13T08:15:58.000Z</time>
        <extensions>
          <ns3:TrackPointExtension>
            <ns3:hr>75</ns3:hr>
            <ns3:cad>43</ns3:cad>
          </ns3:TrackPointExtension>
        </extensions>
      </trkpt>
      <trkpt lat="43.76802845858037471771240234375" lon="1.58786362968385219573974609375">
        <ele>155.600006103515625</ele>
        <time>2026-08-13T08:15:59.000Z</time>
        <extensions>
          <ns3:TrackPointExtension>
            <ns3:hr>75</ns3:hr>
            <ns3:cad>42</ns3:cad>
          </ns3:TrackPointExtension>
        </extensions>
      </trkpt>
      <trkpt lat="43.76803130842745304107666015625" lon="1.5878538228571414947509765625">
        <ele>155.8000030517578125</ele>
        <time>2026-08-13T08:16:00.000Z</time>
        <extensions>
          <ns3:TrackPointExtension>
            <ns3:hr>76</ns3:hr>
            <ns3:cad>42</ns3:cad>
          </ns3:TrackPointExtension>
        </extensions>
      </trkpt>
      <trkpt lat="43.76803365536034107208251953125" lon="1.58784024417400360107421875">
        <ele>155.8000030517578125</ele>
        <time>2026-08-13T08:16:01.000Z</time>
        <extensions>
          <ns3:TrackPointExtension>
            <ns3:hr>76</ns3:hr>
            <ns3:cad>42</ns3:cad>
          </ns3:TrackPointExtension>
        </extensions>
      </trkpt>
      <trkpt lat="43.768036924302577972412109375" lon="1.58782809041440486907958984375">
        <ele>155.8000030517578125</ele>
        <time>2026-08-13T08:16:02.000Z</time>
        <extensions>
          <ns3:TrackPointExtension>
            <ns3:hr>76</ns3:hr>
            <ns3:cad>42</ns3:cad>
          </ns3:TrackPointExtension>
        </extensions>
      </trkpt>
      <trkpt lat="43.76803927123546600341796875" lon="1.58781434409320354461669921875">
        <ele>155.8000030517578125</ele>
        <time>2026-08-13T08:16:03.000Z</time>
        <extensions>
          <ns3:TrackPointExtension>
            <ns3:hr>77</ns3:hr>
            <ns3:cad>43</ns3:cad>
          </ns3:TrackPointExtension>
        </extensions>
      </trkpt>
      <trkpt lat="43.768044300377368927001953125" lon="1.58779942430555820465087890625">
        <ele>156</ele>
        <time>2026-08-13T08:16:04.000Z</time>
        <extensions>
          <ns3:TrackPointExtension>
            <ns3:hr>77</ns3:hr>
            <ns3:cad>44</ns3:cad>
          </ns3:TrackPointExtension>
        </extensions>
      </trkpt>
      <trkpt lat="43.76804823987185955047607421875" lon="1.5877827443182468414306640625">
        <ele>156</ele>
        <time>2026-08-13T08:16:05.000Z</time>
        <extensions>
          <ns3:TrackPointExtension>
            <ns3:hr>78</ns3:hr>
            <ns3:cad>44</ns3:cad>
          </ns3:TrackPointExtension>
        </extensions>
      </trkpt>
      <trkpt lat="43.7680545262992382049560546875" lon="1.58776841126382350921630859375">
        <ele>156</ele>
        <time>2026-08-13T08:16:06.000Z</time>
        <extensions>
          <ns3:TrackPointExtension>
            <ns3:hr>78</ns3:hr>
            <ns3:cad>45</ns3:cad>
          </ns3:TrackPointExtension>
        </extensions>
      </trkpt>
      <trkpt lat="43.76805846579372882843017578125" lon="1.58775349147617816925048828125">
        <ele>156</ele>
        <time>2026-08-13T08:16:07.000Z</time>
        <extensions>
          <ns3:TrackPointExtension>
            <ns3:hr>79</ns3:hr>
            <ns3:cad>45</ns3:cad>
          </ns3:TrackPointExtension>
        </extensions>
      </trkpt>
      <trkpt lat="43.76806114800274372100830078125" lon="1.5877384878695011138916015625">
        <ele>156</ele>
        <time>2026-08-13T08:16:08.000Z</time>
        <extensions>
          <ns3:TrackPointExtension>
            <ns3:hr>80</ns3:hr>
            <ns3:cad>45</ns3:cad>
          </ns3:TrackPointExtension>
        </extensions>
      </trkpt>
      <trkpt lat="43.76806315965950489044189453125" lon="1.58772356808185577392578125">
        <ele>156</ele>
        <time>2026-08-13T08:16:09.000Z</time>
        <extensions>
          <ns3:TrackPointExtension>
            <ns3:hr>80</ns3:hr>
            <ns3:cad>45</ns3:cad>
          </ns3:TrackPointExtension>
        </extensions>
      </trkpt>
      <trkpt lat="43.76806517131626605987548828125" lon="1.58771376125514507293701171875">
        <ele>156</ele>
        <time>2026-08-13T08:16:10.000Z</time>
        <extensions>
          <ns3:TrackPointExtension>
            <ns3:hr>81</ns3:hr>
            <ns3:cad>44</ns3:cad>
          </ns3:TrackPointExtension>
        </extensions>
      </trkpt>
      <trkpt lat="43.768069781363010406494140625" lon="1.58769548870623111724853515625">
        <ele>156.1999969482421875</ele>
        <time>2026-08-13T08:16:11.000Z</time>
        <extensions>
          <ns3:TrackPointExtension>
            <ns3:hr>82</ns3:hr>
            <ns3:cad>44</ns3:cad>
          </ns3:TrackPointExtension>
        </extensions>
      </trkpt>
      <trkpt lat="43.76807254739105701446533203125" lon="1.5876757912337779998779296875">
        <ele>156.1999969482421875</ele>
        <time>2026-08-13T08:16:12.000Z</time>
        <extensions>
          <ns3:TrackPointExtension>
            <ns3:hr>83</ns3:hr>
            <ns3:cad>43</ns3:cad>
          </ns3:TrackPointExtension>
        </extensions>
      </trkpt>
      <trkpt lat="43.76807522960007190704345703125" lon="1.5876640565693378448486328125">
        <ele>156.1999969482421875</ele>
        <time>2026-08-13T08:16:13.000Z</time>
        <extensions>
          <ns3:TrackPointExtension>
            <ns3:hr>84</ns3:hr>
            <ns3:cad>43</ns3:cad>
          </ns3:TrackPointExtension>
        </extensions>
      </trkpt>
      <trkpt lat="43.76807891763746738433837890625" lon="1.5876563452184200286865234375">
        <ele>156.1999969482421875</ele>
        <time>2026-08-13T08:16:14.000Z</time>
        <extensions>
          <ns3:TrackPointExtension>
            <ns3:hr>84</ns3:hr>
            <ns3:cad>43</ns3:cad>
          </ns3:TrackPointExtension>
        </extensions>
      </trkpt>
      <trkpt lat="43.768080174922943115234375" lon="1.58765391446650028228759765625">
        <ele>156.1999969482421875</ele>
        <time>2026-08-13T08:16:15.000Z</time>
        <extensions>
          <ns3:TrackPointExtension>
            <ns3:hr>85</ns3:hr>
            <ns3:cad>43</ns3:cad>
          </ns3:TrackPointExtension>
        </extensions>
      </trkpt>
      <trkpt lat="43.7680790014564990997314453125" lon="1.58764972351491451263427734375">
        <ele>156.1999969482421875</ele>
        <time>2026-08-13T08:16:16.000Z</time>
        <extensions>
          <ns3:TrackPointExtension>
            <ns3:hr>85</ns3:hr>
            <ns3:cad>43</ns3:cad>
          </ns3:TrackPointExtension>
        </extensions>
      </trkpt>
      <trkpt lat="43.76808025874197483062744140625" lon="1.58763706684112548828125">
        <ele>156.1999969482421875</ele>
        <time>2026-08-13T08:16:17.000Z</time>
        <extensions>
          <ns3:TrackPointExtension>
            <ns3:hr>84</ns3:hr>
            <ns3:cad>0</ns3:cad>
          </ns3:TrackPointExtension>
        </extensions>
      </trkpt>
      <trkpt lat="43.7680813483893871307373046875" lon="1.58762960694730281829833984375">
        <ele>156.1999969482421875</ele>
        <time>2026-08-13T08:16:18.000Z</time>
        <extensions>
          <ns3:TrackPointExtension>
            <ns3:hr>84</ns3:hr>
            <ns3:cad>0</ns3:cad>
          </ns3:TrackPointExtension>
        </extensions>
      </trkpt>
      <trkpt lat="43.76808193512260913848876953125" lon="1.5876238234341144561767578125">
        <ele>156.1999969482421875</ele>
        <time>2026-08-13T08:16:19.000Z</time>
        <extensions>
          <ns3:TrackPointExtension>
            <ns3:hr>84</ns3:hr>
            <ns3:cad>43</ns3:cad>
          </ns3:TrackPointExtension>
        </extensions>
      </trkpt>
      <trkpt lat="43.76808176748454570770263671875" lon="1.58760764636099338531494140625">
        <ele>156.1999969482421875</ele>
        <time>2026-08-13T08:16:20.000Z</time>
        <extensions>
          <ns3:TrackPointExtension>
            <ns3:hr>85</ns3:hr>
            <ns3:cad>43</ns3:cad>
          </ns3:TrackPointExtension>
        </extensions>
      </trkpt>
      <trkpt lat="43.76808109693229198455810546875" lon="1.5875946544110774993896484375">
        <ele>156.1999969482421875</ele>
        <time>2026-08-13T08:16:21.000Z</time>
        <extensions>
          <ns3:TrackPointExtension>
            <ns3:hr>84</ns3:hr>
            <ns3:cad>43</ns3:cad>
          </ns3:TrackPointExtension>
        </extensions>
      </trkpt>
      <trkpt lat="43.768080174922943115234375" lon="1.58758618868887424468994140625">
        <ele>156.1999969482421875</ele>
        <time>2026-08-13T08:16:22.000Z</time>
        <extensions>
          <ns3:TrackPointExtension>
            <ns3:hr>84</ns3:hr>
            <ns3:cad>43</ns3:cad>
          </ns3:TrackPointExtension>
        </extensions>
      </trkpt>
      <trkpt lat="43.76807975582778453826904296875" lon="1.58757428638637065887451171875">
        <ele>156.1999969482421875</ele>
        <time>2026-08-13T08:16:23.000Z</time>
        <extensions>
          <ns3:TrackPointExtension>
            <ns3:hr>84</ns3:hr>
            <ns3:cad>44</ns3:cad>
          </ns3:TrackPointExtension>
        </extensions>
      </trkpt>
      <trkpt lat="43.76807858236134052276611328125" lon="1.587559618055820465087890625">
        <ele>156.1999969482421875</ele>
        <time>2026-08-13T08:16:24.000Z</time>
        <extensions>
          <ns3:TrackPointExtension>
            <ns3:hr>84</ns3:hr>
            <ns3:cad>44</ns3:cad>
          </ns3:TrackPointExtension>
        </extensions>
      </trkpt>
      <trkpt lat="43.7680776603519916534423828125" lon="1.58754092641174793243408203125">
        <ele>156.1999969482421875</ele>
        <time>2026-08-13T08:16:25.000Z</time>
        <extensions>
          <ns3:TrackPointExtension>
            <ns3:hr>83</ns3:hr>
            <ns3:cad>44</ns3:cad>
          </ns3:TrackPointExtension>
        </extensions>
      </trkpt>
      <trkpt lat="43.76807606779038906097412109375" lon="1.5875275991857051849365234375">
        <ele>156.1999969482421875</ele>
        <time>2026-08-13T08:16:26.000Z</time>
        <extensions>
          <ns3:TrackPointExtension>
            <ns3:hr>83</ns3:hr>
            <ns3:cad>44</ns3:cad>
          </ns3:TrackPointExtension>
        </extensions>
      </trkpt>
      <trkpt lat="43.76807556487619876861572265625" lon="1.58751963637769222259521484375">
        <ele>156.1999969482421875</ele>
        <time>2026-08-13T08:16:27.000Z</time>
        <extensions>
          <ns3:TrackPointExtension>
            <ns3:hr>83</ns3:hr>
            <ns3:cad>45</ns3:cad>
          </ns3:TrackPointExtension>
        </extensions>
      </trkpt>
      <trkpt lat="43.7680753134191036224365234375" lon="1.5875084884464740753173828125">
        <ele>156</ele>
        <time>2026-08-13T08:16:28.000Z</time>
        <extensions>
          <ns3:TrackPointExtension>
            <ns3:hr>83</ns3:hr>
            <ns3:cad>46</ns3:cad>
          </ns3:TrackPointExtension>
        </extensions>
      </trkpt>
      <trkpt lat="43.76807791180908679962158203125" lon="1.58749365247786045074462890625">
        <ele>156</ele>
        <time>2026-08-13T08:16:29.000Z</time>
        <extensions>
          <ns3:TrackPointExtension>
            <ns3:hr>83</ns3:hr>
            <ns3:cad>49</ns3:cad>
          </ns3:TrackPointExtension>
        </extensions>
      </trkpt>
      <trkpt lat="43.76807942055165767669677734375" lon="1.58748007379472255706787109375">
        <ele>156</ele>
        <time>2026-08-13T08:16:30.000Z</time>
        <extensions>
          <ns3:TrackPointExtension>
            <ns3:hr>83</ns3:hr>
            <ns3:cad>49</ns3:cad>
          </ns3:TrackPointExtension>
        </extensions>
      </trkpt>
      <trkpt lat="43.768081851303577423095703125" lon="1.5874679200351238250732421875">
        <ele>156</ele>
        <time>2026-08-13T08:16:31.000Z</time>
        <extensions>
          <ns3:TrackPointExtension>
            <ns3:hr>83</ns3:hr>
            <ns3:cad>47</ns3:cad>
          </ns3:TrackPointExtension>
        </extensions>
      </trkpt>
      <trkpt lat="43.768083192408084869384765625" lon="1.58745325170457363128662109375">
        <ele>155.8000030517578125</ele>
        <time>2026-08-13T08:16:32.000Z</time>
        <extensions>
          <ns3:TrackPointExtension>
            <ns3:hr>83</ns3:hr>
            <ns3:cad>46</ns3:cad>
          </ns3:TrackPointExtension>
        </extensions>
      </trkpt>
      <trkpt lat="43.76808143220841884613037109375" lon="1.587435565888881683349609375">
        <ele>155.8000030517578125</ele>
        <time>2026-08-13T08:16:33.000Z</time>
        <extensions>
          <ns3:TrackPointExtension>
            <ns3:hr>83</ns3:hr>
            <ns3:cad>46</ns3:cad>
          </ns3:TrackPointExtension>
        </extensions>
      </trkpt>
      <trkpt lat="43.76808210276067256927490234375" lon="1.58742408268153667449951171875">
        <ele>156</ele>
        <time>2026-08-13T08:16:34.000Z</time>
        <extensions>
          <ns3:TrackPointExtension>
            <ns3:hr>83</ns3:hr>
            <ns3:cad>46</ns3:cad>
          </ns3:TrackPointExtension>
        </extensions>
      </trkpt>
      <trkpt lat="43.76808755099773406982421875" lon="1.58741335384547710418701171875">
        <ele>156</ele>
        <time>2026-08-13T08:16:35.000Z</time>
        <extensions>
          <ns3:TrackPointExtension>
            <ns3:hr>83</ns3:hr>
            <ns3:cad>44</ns3:cad>
          </ns3:TrackPointExtension>
        </extensions>
      </trkpt>
      <trkpt lat="43.768087886273860931396484375" lon="1.5874025411903858184814453125">
        <ele>156</ele>
        <time>2026-08-13T08:16:36.000Z</time>
        <extensions>
          <ns3:TrackPointExtension>
            <ns3:hr>83</ns3:hr>
            <ns3:cad>44</ns3:cad>
          </ns3:TrackPointExtension>
        </extensions>
      </trkpt>
      <trkpt lat="43.768091239035129547119140625" lon="1.587388627231121063232421875">
        <ele>156</ele>
        <time>2026-08-13T08:16:37.000Z</time>
        <extensions>
          <ns3:TrackPointExtension>
            <ns3:hr>83</ns3:hr>
            <ns3:cad>44</ns3:cad>
          </ns3:TrackPointExtension>
        </extensions>
      </trkpt>
      <trkpt lat="43.76809333451092243194580078125" lon="1.58737395890057086944580078125">
        <ele>156</ele>
        <time>2026-08-13T08:16:38.000Z</time>
        <extensions>
          <ns3:TrackPointExtension>
            <ns3:hr>83</ns3:hr>
            <ns3:cad>45</ns3:cad>
          </ns3:TrackPointExtension>
        </extensions>
      </trkpt>
      <trkpt lat="43.76809350214898586273193359375" lon="1.58735870383679866790771484375">
        <ele>156</ele>
        <time>2026-08-13T08:16:39.000Z</time>
        <extensions>
          <ns3:TrackPointExtension>
            <ns3:hr>83</ns3:hr>
            <ns3:cad>48</ns3:cad>
          </ns3:TrackPointExtension>
        </extensions>
      </trkpt>
      <trkpt lat="43.7680907361209392547607421875" lon="1.587349735200405120849609375">
        <ele>155.8000030517578125</ele>
        <time>2026-08-13T08:16:40.000Z</time>
        <extensions>
          <ns3:TrackPointExtension>
            <ns3:hr>84</ns3:hr>
            <ns3:cad>48</ns3:cad>
          </ns3:TrackPointExtension>
        </extensions>
      </trkpt>
      <trkpt lat="43.7680897302925586700439453125" lon="1.58733305521309375762939453125">
        <ele>155.8000030517578125</ele>
        <time>2026-08-13T08:16:41.000Z</time>
        <extensions>
          <ns3:TrackPointExtension>
            <ns3:hr>84</ns3:hr>
            <ns3:cad>47</ns3:cad>
          </ns3:TrackPointExtension>
        </extensions>
      </trkpt>
      <trkpt lat="43.76808679662644863128662109375" lon="1.5873177163302898406982421875">
        <ele>155.8000030517578125</ele>
        <time>2026-08-13T08:16:42.000Z</time>
        <extensions>
          <ns3:TrackPointExtension>
            <ns3:hr>84</ns3:hr>
            <ns3:cad>46</ns3:cad>
          </ns3:TrackPointExtension>
        </extensions>
      </trkpt>
      <trkpt lat="43.7680820189416408538818359375" lon="1.58730422146618366241455078125">
        <ele>155.600006103515625</ele>
        <time>2026-08-13T08:16:43.000Z</time>
        <extensions>
          <ns3:TrackPointExtension>
            <ns3:hr>83</ns3:hr>
            <ns3:cad>46</ns3:cad>
          </ns3:TrackPointExtension>
        </extensions>
      </trkpt>
      <trkpt lat="43.76808092929422855377197265625" lon="1.5872950851917266845703125">
        <ele>155.600006103515625</ele>
        <time>2026-08-13T08:16:44.000Z</time>
        <extensions>
          <ns3:TrackPointExtension>
            <ns3:hr>84</ns3:hr>
            <ns3:cad>45</ns3:cad>
          </ns3:TrackPointExtension>
        </extensions>
      </trkpt>
      <trkpt lat="43.76807791180908679962158203125" lon="1.587286032736301422119140625">
        <ele>155.399993896484375</ele>
        <time>2026-08-13T08:16:45.000Z</time>
        <extensions>
          <ns3:TrackPointExtension>
            <ns3:hr>83</ns3:hr>
            <ns3:cad>45</ns3:cad>
          </ns3:TrackPointExtension>
        </extensions>
      </trkpt>
      <trkpt lat="43.76807548105716705322265625" lon="1.58727354370057582855224609375">
        <ele>155.399993896484375</ele>
        <time>2026-08-13T08:16:46.000Z</time>
        <extensions>
          <ns3:TrackPointExtension>
            <ns3:hr>83</ns3:hr>
            <ns3:cad>44</ns3:cad>
          </ns3:TrackPointExtension>
        </extensions>
      </trkpt>
      <trkpt lat="43.76807321794331073760986328125" lon="1.5872580371797084808349609375">
        <ele>155.1999969482421875</ele>
        <time>2026-08-13T08:16:47.000Z</time>
        <extensions>
          <ns3:TrackPointExtension>
            <ns3:hr>83</ns3:hr>
            <ns3:cad>44</ns3:cad>
          </ns3:TrackPointExtension>
        </extensions>
      </trkpt>
      <trkpt lat="43.76807011663913726806640625" lon="1.587242782115936279296875">
        <ele>155.1999969482421875</ele>
        <time>2026-08-13T08:16:48.000Z</time>
        <extensions>
          <ns3:TrackPointExtension>
            <ns3:hr>84</ns3:hr>
            <ns3:cad>46</ns3:cad>
          </ns3:TrackPointExtension>
        </extensions>
      </trkpt>
      <trkpt lat="43.768065758049488067626953125" lon="1.58723113127052783966064453125">
        <ele>155.1999969482421875</ele>
        <time>2026-08-13T08:16:49.000Z</time>
        <extensions>
          <ns3:TrackPointExtension>
            <ns3:hr>83</ns3:hr>
            <ns3:cad>48</ns3:cad>
          </ns3:TrackPointExtension>
        </extensions>
      </trkpt>
      <trkpt lat="43.76806299202144145965576171875" lon="1.58721989952027797698974609375">
        <ele>155.1999969482421875</ele>
        <time>2026-08-13T08:16:50.000Z</time>
        <extensions>
          <ns3:TrackPointExtension>
            <ns3:hr>83</ns3:hr>
            <ns3:cad>49</ns3:cad>
          </ns3:TrackPointExtension>
        </extensions>
      </trkpt>
      <trkpt lat="43.76806030981242656707763671875" lon="1.587205566465854644775390625">
        <ele>155.1999969482421875</ele>
        <time>2026-08-13T08:16:51.000Z</time>
        <extensions>
          <ns3:TrackPointExtension>
            <ns3:hr>83</ns3:hr>
            <ns3:cad>49</ns3:cad>
          </ns3:TrackPointExtension>
        </extensions>
      </trkpt>
      <trkpt lat="43.76805880106985569000244140625" lon="1.58719441853463649749755859375">
        <ele>155</ele>
        <time>2026-08-13T08:16:52.000Z</time>
        <extensions>
          <ns3:TrackPointExtension>
            <ns3:hr>83</ns3:hr>
            <ns3:cad>49</ns3:cad>
          </ns3:TrackPointExtension>
        </extensions>
      </trkpt>
      <trkpt lat="43.76805611886084079742431640625" lon="1.58718016929924488067626953125">
        <ele>155</ele>
        <time>2026-08-13T08:16:53.000Z</time>
        <extensions>
          <ns3:TrackPointExtension>
            <ns3:hr>82</ns3:hr>
            <ns3:cad>48</ns3:cad>
          </ns3:TrackPointExtension>
        </extensions>
      </trkpt>
      <trkpt lat="43.76805427484214305877685546875" lon="1.58716675825417041778564453125">
        <ele>155</ele>
        <time>2026-08-13T08:16:54.000Z</time>
        <extensions>
          <ns3:TrackPointExtension>
            <ns3:hr>82</ns3:hr>
            <ns3:cad>48</ns3:cad>
          </ns3:TrackPointExtension>
        </extensions>
      </trkpt>
      <trkpt lat="43.76805000007152557373046875" lon="1.5871587954461574554443359375">
        <ele>155</ele>
        <time>2026-08-13T08:16:55.000Z</time>
        <extensions>
          <ns3:TrackPointExtension>
            <ns3:hr>82</ns3:hr>
            <ns3:cad>48</ns3:cad>
          </ns3:TrackPointExtension>
        </extensions>
      </trkpt>
      <trkpt lat="43.76805008389055728912353515625" lon="1.587142534554004669189453125">
        <ele>154.8000030517578125</ele>
        <time>2026-08-13T08:16:56.000Z</time>
        <extensions>
          <ns3:TrackPointExtension>
            <ns3:hr>82</ns3:hr>
            <ns3:cad>48</ns3:cad>
          </ns3:TrackPointExtension>
        </extensions>
      </trkpt>
      <trkpt lat="43.768048323690891265869140625" lon="1.5871245972812175750732421875">
        <ele>154.8000030517578125</ele>
        <time>2026-08-13T08:16:57.000Z</time>
        <extensions>
          <ns3:TrackPointExtension>
            <ns3:hr>82</ns3:hr>
            <ns3:cad>49</ns3:cad>
          </ns3:TrackPointExtension>
        </extensions>
      </trkpt>
      <trkpt lat="43.76804689876735210418701171875" lon="1.5871105156838893890380859375">
        <ele>154.8000030517578125</ele>
        <time>2026-08-13T08:16:58.000Z</time>
        <extensions>
          <ns3:TrackPointExtension>
            <ns3:hr>82</ns3:hr>
            <ns3:cad>49</ns3:cad>
          </ns3:TrackPointExtension>
        </extensions>
      </trkpt>
      <trkpt lat="43.7680466473102569580078125" lon="1.58709718845784664154052734375">
        <ele>154.600006103515625</ele>
        <time>2026-08-13T08:16:59.000Z</time>
        <extensions>
          <ns3:TrackPointExtension>
            <ns3:hr>81</ns3:hr>
            <ns3:cad>48</ns3:cad>
          </ns3:TrackPointExtension>
        </extensions>
      </trkpt>
      <trkpt lat="43.76804723404347896575927734375" lon="1.5870805084705352783203125">
        <ele>154.600006103515625</ele>
        <time>2026-08-13T08:17:00.000Z</time>
        <extensions>
          <ns3:TrackPointExtension>
            <ns3:hr>81</ns3:hr>
            <ns3:cad>48</ns3:cad>
          </ns3:TrackPointExtension>
        </extensions>
      </trkpt>
      <trkpt lat="43.768050335347652435302734375" lon="1.587060727179050445556640625">
        <ele>154.8000030517578125</ele>
        <time>2026-08-13T08:17:01.000Z</time>
        <extensions>
          <ns3:TrackPointExtension>
            <ns3:hr>81</ns3:hr>
            <ns3:cad>48</ns3:cad>
          </ns3:TrackPointExtension>
        </extensions>
      </trkpt>
      <trkpt lat="43.768053352832794189453125" lon="1.58704857341945171356201171875">
        <ele>154.8000030517578125</ele>
        <time>2026-08-13T08:17:02.000Z</time>
        <extensions>
          <ns3:TrackPointExtension>
            <ns3:hr>81</ns3:hr>
            <ns3:cad>47</ns3:cad>
          </ns3:TrackPointExtension>
        </extensions>
      </trkpt>
      <trkpt lat="43.76805645413696765899658203125" lon="1.587039940059185028076171875">
        <ele>154.8000030517578125</ele>
        <time>2026-08-13T08:17:03.000Z</time>
        <extensions>
          <ns3:TrackPointExtension>
            <ns3:hr>80</ns3:hr>
            <ns3:cad>47</ns3:cad>
          </ns3:TrackPointExtension>
        </extensions>
      </trkpt>
      <trkpt lat="43.76805712468922138214111328125" lon="1.587027199566364288330078125">
        <ele>154.8000030517578125</ele>
        <time>2026-08-13T08:17:04.000Z</time>
        <extensions>
          <ns3:TrackPointExtension>
            <ns3:hr>79</ns3:hr>
            <ns3:cad>47</ns3:cad>
          </ns3:TrackPointExtension>
        </extensions>
      </trkpt>
      <trkpt lat="43.768060393631458282470703125" lon="1.58701219595968723297119140625">
        <ele>155</ele>
        <time>2026-08-13T08:17:05.000Z</time>
        <extensions>
          <ns3:TrackPointExtension>
            <ns3:hr>78</ns3:hr>
            <ns3:cad>47</ns3:cad>
          </ns3:TrackPointExtension>
        </extensions>
      </trkpt>
      <trkpt lat="43.7680615670979022979736328125" lon="1.58700129948556423187255859375">
        <ele>155</ele>
        <time>2026-08-13T08:17:06.000Z</time>
        <extensions>
          <ns3:TrackPointExtension>
            <ns3:hr>79</ns3:hr>
            <ns3:cad>47</ns3:cad>
          </ns3:TrackPointExtension>
        </extensions>
      </trkpt>
      <trkpt lat="43.7680645845830440521240234375" lon="1.58699325285851955413818359375">
        <ele>155</ele>
        <time>2026-08-13T08:17:07.000Z</time>
        <extensions>
          <ns3:TrackPointExtension>
            <ns3:hr>79</ns3:hr>
            <ns3:cad>47</ns3:cad>
          </ns3:TrackPointExtension>
        </extensions>
      </trkpt>
      <trkpt lat="43.7680654227733612060546875" lon="1.58697866834700107574462890625">
        <ele>155</ele>
        <time>2026-08-13T08:17:08.000Z</time>
        <extensions>
          <ns3:TrackPointExtension>
            <ns3:hr>79</ns3:hr>
            <ns3:cad>47</ns3:cad>
          </ns3:TrackPointExtension>
        </extensions>
      </trkpt>
      <trkpt lat="43.76806366257369518280029296875" lon="1.586961485445499420166015625">
        <ele>155</ele>
        <time>2026-08-13T08:17:09.000Z</time>
        <extensions>
          <ns3:TrackPointExtension>
            <ns3:hr>78</ns3:hr>
            <ns3:cad>0</ns3:cad>
          </ns3:TrackPointExtension>
        </extensions>
      </trkpt>
      <trkpt lat="43.76806416548788547515869140625" lon="1.58695570193231105804443359375">
        <ele>155</ele>
        <time>2026-08-13T08:17:10.000Z</time>
        <extensions>
          <ns3:TrackPointExtension>
            <ns3:hr>78</ns3:hr>
            <ns3:cad>0</ns3:cad>
          </ns3:TrackPointExtension>
        </extensions>
      </trkpt>
      <trkpt lat="43.768065087497234344482421875" lon="1.58694975078105926513671875">
        <ele>155</ele>
        <time>2026-08-13T08:17:11.000Z</time>
        <extensions>
          <ns3:TrackPointExtension>
            <ns3:hr>78</ns3:hr>
            <ns3:cad>44</ns3:cad>
          </ns3:TrackPointExtension>
        </extensions>
      </trkpt>
      <trkpt lat="43.76806936226785182952880859375" lon="1.58693541772663593292236328125">
        <ele>155</ele>
        <time>2026-08-13T08:17:12.000Z</time>
        <extensions>
          <ns3:TrackPointExtension>
            <ns3:hr>78</ns3:hr>
            <ns3:cad>44</ns3:cad>
          </ns3:TrackPointExtension>
        </extensions>
      </trkpt>
      <trkpt lat="43.76806785352528095245361328125" lon="1.58691697753965854644775390625">
        <ele>155</ele>
        <time>2026-08-13T08:17:13.000Z</time>
        <extensions>
          <ns3:TrackPointExtension>
            <ns3:hr>78</ns3:hr>
            <ns3:cad>0</ns3:cad>
          </ns3:TrackPointExtension>
        </extensions>
      </trkpt>
      <trkpt lat="43.76806869171559810638427734375" lon="1.586899124085903167724609375">
        <ele>155</ele>
        <time>2026-08-13T08:17:14.000Z</time>
        <extensions>
          <ns3:TrackPointExtension>
            <ns3:hr>78</ns3:hr>
            <ns3:cad>0</ns3:cad>
          </ns3:TrackPointExtension>
        </extensions>
      </trkpt>
      <trkpt lat="43.7680707871913909912109375" lon="1.5868858806788921356201171875">
        <ele>155</ele>
        <time>2026-08-13T08:17:15.000Z</time>
        <extensions>
          <ns3:TrackPointExtension>
            <ns3:hr>78</ns3:hr>
            <ns3:cad>44</ns3:cad>
          </ns3:TrackPointExtension>
        </extensions>
      </trkpt>
      <trkpt lat="43.76806852407753467559814453125" lon="1.58687062561511993408203125">
        <ele>155</ele>
        <time>2026-08-13T08:17:16.000Z</time>
        <extensions>
          <ns3:TrackPointExtension>
            <ns3:hr>78</ns3:hr>
            <ns3:cad>45</ns3:cad>
          </ns3:TrackPointExtension>
        </extensions>
      </trkpt>
      <trkpt lat="43.768061734735965728759765625" lon="1.58685796894133090972900390625">
        <ele>155</ele>
        <time>2026-08-13T08:17:17.000Z</time>
        <extensions>
          <ns3:TrackPointExtension>
            <ns3:hr>78</ns3:hr>
            <ns3:cad>46</ns3:cad>
          </ns3:TrackPointExtension>
        </extensions>
      </trkpt>
      <trkpt lat="43.76805729232728481292724609375" lon="1.58684724010527133941650390625">
        <ele>155</ele>
        <time>2026-08-13T08:17:18.000Z</time>
        <extensions>
          <ns3:TrackPointExtension>
            <ns3:hr>78</ns3:hr>
            <ns3:cad>46</ns3:cad>
          </ns3:TrackPointExtension>
        </extensions>
      </trkpt>
      <trkpt lat="43.76805779524147510528564453125" lon="1.5868406184017658233642578125">
        <ele>154.8000030517578125</ele>
        <time>2026-08-13T08:17:19.000Z</time>
        <extensions>
          <ns3:TrackPointExtension>
            <ns3:hr>78</ns3:hr>
            <ns3:cad>46</ns3:cad>
          </ns3:TrackPointExtension>
        </extensions>
      </trkpt>
      <trkpt lat="43.76805461011826992034912109375" lon="1.586831398308277130126953125">
        <ele>154.8000030517578125</ele>
        <time>2026-08-13T08:17:20.000Z</time>
        <extensions>
          <ns3:TrackPointExtension>
            <ns3:hr>78</ns3:hr>
            <ns3:cad>46</ns3:cad>
          </ns3:TrackPointExtension>
        </extensions>
      </trkpt>
      <trkpt lat="43.76805511303246021270751953125" lon="1.586813963949680328369140625">
        <ele>154.8000030517578125</ele>
        <time>2026-08-13T08:17:21.000Z</time>
        <extensions>
          <ns3:TrackPointExtension>
            <ns3:hr>77</ns3:hr>
            <ns3:cad>46</ns3:cad>
          </ns3:TrackPointExtension>
        </extensions>
      </trkpt>
      <trkpt lat="43.76805578358471393585205078125" lon="1.586800552904605865478515625">
        <ele>154.8000030517578125</ele>
        <time>2026-08-13T08:17:22.000Z</time>
        <extensions>
          <ns3:TrackPointExtension>
            <ns3:hr>78</ns3:hr>
            <ns3:cad>46</ns3:cad>
          </ns3:TrackPointExtension>
        </extensions>
      </trkpt>
      <trkpt lat="43.76805779524147510528564453125" lon="1.58678638748824596405029296875">
        <ele>154.8000030517578125</ele>
        <time>2026-08-13T08:17:23.000Z</time>
        <extensions>
          <ns3:TrackPointExtension>
            <ns3:hr>78</ns3:hr>
            <ns3:cad>46</ns3:cad>
          </ns3:TrackPointExtension>
        </extensions>
      </trkpt>
      <trkpt lat="43.76805628649890422821044921875" lon="1.586773060262203216552734375">
        <ele>154.8000030517578125</ele>
        <time>2026-08-13T08:17:24.000Z</time>
        <extensions>
          <ns3:TrackPointExtension>
            <ns3:hr>78</ns3:hr>
            <ns3:cad>46</ns3:cad>
          </ns3:TrackPointExtension>
        </extensions>
      </trkpt>
      <trkpt lat="43.76805536448955535888671875" lon="1.58676199615001678466796875">
        <ele>154.8000030517578125</ele>
        <time>2026-08-13T08:17:25.000Z</time>
        <extensions>
          <ns3:TrackPointExtension>
            <ns3:hr>78</ns3:hr>
            <ns3:cad>43</ns3:cad>
          </ns3:TrackPointExtension>
        </extensions>
      </trkpt>
      <trkpt lat="43.76805268228054046630859375" lon="1.58675001002848148345947265625">
        <ele>154.8000030517578125</ele>
        <time>2026-08-13T08:17:26.000Z</time>
        <extensions>
          <ns3:TrackPointExtension>
            <ns3:hr>77</ns3:hr>
            <ns3:cad>43</ns3:cad>
          </ns3:TrackPointExtension>
        </extensions>
      </trkpt>
      <trkpt lat="43.76805259846150875091552734375" lon="1.58674213103950023651123046875">
        <ele>154.8000030517578125</ele>
        <time>2026-08-13T08:17:27.000Z</time>
        <extensions>
          <ns3:TrackPointExtension>
            <ns3:hr>78</ns3:hr>
            <ns3:cad>43</ns3:cad>
          </ns3:TrackPointExtension>
        </extensions>
      </trkpt>
      <trkpt lat="43.768050335347652435302734375" lon="1.5867306478321552276611328125">
        <ele>154.8000030517578125</ele>
        <time>2026-08-13T08:17:28.000Z</time>
        <extensions>
          <ns3:TrackPointExtension>
            <ns3:hr>78</ns3:hr>
            <ns3:cad>0</ns3:cad>
          </ns3:TrackPointExtension>
        </extensions>
      </trkpt>
      <trkpt lat="43.7680505029857158660888671875" lon="1.58671631477773189544677734375">
        <ele>154.600006103515625</ele>
        <time>2026-08-13T08:17:29.000Z</time>
        <extensions>
          <ns3:TrackPointExtension>
            <ns3:hr>78</ns3:hr>
            <ns3:cad>0</ns3:cad>
          </ns3:TrackPointExtension>
        </extensions>
      </trkpt>
      <trkpt lat="43.76804891042411327362060546875" lon="1.5867051668465137481689453125">
        <ele>154.600006103515625</ele>
        <time>2026-08-13T08:17:30.000Z</time>
        <extensions>
          <ns3:TrackPointExtension>
            <ns3:hr>78</ns3:hr>
            <ns3:cad>0</ns3:cad>
          </ns3:TrackPointExtension>
        </extensions>
      </trkpt>
      <trkpt lat="43.76804974861443042755126953125" lon="1.5866927616298198699951171875">
        <ele>154.600006103515625</ele>
        <time>2026-08-13T08:17:31.000Z</time>
        <extensions>
          <ns3:TrackPointExtension>
            <ns3:hr>78</ns3:hr>
            <ns3:cad>0</ns3:cad>
          </ns3:TrackPointExtension>
        </extensions>
      </trkpt>
      <trkpt lat="43.76804706640541553497314453125" lon="1.58667759038507938385009765625">
        <ele>154.600006103515625</ele>
        <time>2026-08-13T08:17:32.000Z</time>
        <extensions>
          <ns3:TrackPointExtension>
            <ns3:hr>78</ns3:hr>
            <ns3:cad>45</ns3:cad>
          </ns3:TrackPointExtension>
        </extensions>
      </trkpt>
      <trkpt lat="43.76804891042411327362060546875" lon="1.586661078035831451416015625">
        <ele>154.8000030517578125</ele>
        <time>2026-08-13T08:17:33.000Z</time>
        <extensions>
          <ns3:TrackPointExtension>
            <ns3:hr>78</ns3:hr>
            <ns3:cad>45</ns3:cad>
          </ns3:TrackPointExtension>
        </extensions>
      </trkpt>
      <trkpt lat="43.76805025152862071990966796875" lon="1.586649678647518157958984375">
        <ele>154.8000030517578125</ele>
        <time>2026-08-13T08:17:34.000Z</time>
        <extensions>
          <ns3:TrackPointExtension>
            <ns3:hr>77</ns3:hr>
            <ns3:cad>45</ns3:cad>
          </ns3:TrackPointExtension>
        </extensions>
      </trkpt>
      <trkpt lat="43.76805125735700130462646484375" lon="1.5866404585540294647216796875">
        <ele>154.8000030517578125</ele>
        <time>2026-08-13T08:17:35.000Z</time>
        <extensions>
          <ns3:TrackPointExtension>
            <ns3:hr>77</ns3:hr>
            <ns3:cad>45</ns3:cad>
          </ns3:TrackPointExtension>
        </extensions>
      </trkpt>
      <trkpt lat="43.7680518440902233123779296875" lon="1.58661983907222747802734375">
        <ele>154.8000030517578125</ele>
        <time>2026-08-13T08:17:36.000Z</time>
        <extensions>
          <ns3:TrackPointExtension>
            <ns3:hr>77</ns3:hr>
            <ns3:cad>45</ns3:cad>
          </ns3:TrackPointExtension>
        </extensions>
      </trkpt>
      <trkpt lat="43.76805293373763561248779296875" lon="1.58660701476037502288818359375">
        <ele>154.8000030517578125</ele>
        <time>2026-08-13T08:17:37.000Z</time>
        <extensions>
          <ns3:TrackPointExtension>
            <ns3:hr>77</ns3:hr>
            <ns3:cad>45</ns3:cad>
          </ns3:TrackPointExtension>
        </extensions>
      </trkpt>
      <trkpt lat="43.768054358661174774169921875" lon="1.58659645356237888336181640625">
        <ele>154.8000030517578125</ele>
        <time>2026-08-13T08:17:38.000Z</time>
        <extensions>
          <ns3:TrackPointExtension>
            <ns3:hr>78</ns3:hr>
            <ns3:cad>44</ns3:cad>
          </ns3:TrackPointExtension>
        </extensions>
      </trkpt>
      <trkpt lat="43.768058381974697113037109375" lon="1.58658362925052642822265625">
        <ele>155</ele>
        <time>2026-08-13T08:17:39.000Z</time>
        <extensions>
          <ns3:TrackPointExtension>
            <ns3:hr>78</ns3:hr>
            <ns3:cad>42</ns3:cad>
          </ns3:TrackPointExtension>
        </extensions>
      </trkpt>
      <trkpt lat="43.76805377192795276641845703125" lon="1.58657432533800601959228515625">
        <ele>155.1999969482421875</ele>
        <time>2026-08-13T08:17:40.000Z</time>
        <extensions>
          <ns3:TrackPointExtension>
            <ns3:hr>78</ns3:hr>
            <ns3:cad>42</ns3:cad>
          </ns3:TrackPointExtension>
        </extensions>
      </trkpt>
      <trkpt lat="43.76805075444281101226806640625" lon="1.58656485378742218017578125">
        <ele>155.1999969482421875</ele>
        <time>2026-08-13T08:17:41.000Z</time>
        <extensions>
          <ns3:TrackPointExtension>
            <ns3:hr>79</ns3:hr>
            <ns3:cad>42</ns3:cad>
          </ns3:TrackPointExtension>
        </extensions>
      </trkpt>
      <trkpt lat="43.7680498324334621429443359375" lon="1.5865569747984409332275390625">
        <ele>155.399993896484375</ele>
        <time>2026-08-13T08:17:42.000Z</time>
        <extensions>
          <ns3:TrackPointExtension>
            <ns3:hr>79</ns3:hr>
            <ns3:cad>42</ns3:cad>
          </ns3:TrackPointExtension>
        </extensions>
      </trkpt>
      <trkpt lat="43.7680448032915592193603515625" lon="1.58654197119176387786865234375">
        <ele>155.399993896484375</ele>
        <time>2026-08-13T08:17:43.000Z</time>
        <extensions>
          <ns3:TrackPointExtension>
            <ns3:hr>80</ns3:hr>
            <ns3:cad>45</ns3:cad>
          </ns3:TrackPointExtension>
        </extensions>
      </trkpt>
      <trkpt lat="43.76803868450224399566650390625" lon="1.58652939833700656890869140625">
        <ele>155.399993896484375</ele>
        <time>2026-08-13T08:17:44.000Z</time>
        <extensions>
          <ns3:TrackPointExtension>
            <ns3:hr>81</ns3:hr>
            <ns3:cad>45</ns3:cad>
          </ns3:TrackPointExtension>
        </extensions>
      </trkpt>
      <trkpt lat="43.768035583198070526123046875" lon="1.58652168698608875274658203125">
        <ele>155.399993896484375</ele>
        <time>2026-08-13T08:17:45.000Z</time>
        <extensions>
          <ns3:TrackPointExtension>
            <ns3:hr>82</ns3:hr>
            <ns3:cad>43</ns3:cad>
          </ns3:TrackPointExtension>
        </extensions>
      </trkpt>
      <trkpt lat="43.768034912645816802978515625" lon="1.586518250405788421630859375">
        <ele>155.399993896484375</ele>
        <time>2026-08-13T08:17:46.000Z</time>
        <extensions>
          <ns3:TrackPointExtension>
            <ns3:hr>82</ns3:hr>
            <ns3:cad>43</ns3:cad>
          </ns3:TrackPointExtension>
        </extensions>
      </trkpt>
      <trkpt lat="43.7680332362651824951171875" lon="1.58650542609393596649169921875">
        <ele>155.399993896484375</ele>
        <time>2026-08-13T08:17:47.000Z</time>
        <extensions>
          <ns3:TrackPointExtension>
            <ns3:hr>81</ns3:hr>
            <ns3:cad>43</ns3:cad>
          </ns3:TrackPointExtension>
        </extensions>
      </trkpt>
      <trkpt lat="43.768029548227787017822265625" lon="1.58649486489593982696533203125">
        <ele>155.399993896484375</ele>
        <time>2026-08-13T08:17:48.000Z</time>
        <extensions>
          <ns3:TrackPointExtension>
            <ns3:hr>81</ns3:hr>
            <ns3:cad>43</ns3:cad>
          </ns3:TrackPointExtension>
        </extensions>
      </trkpt>
      <trkpt lat="43.7680250220000743865966796875" lon="1.5864865668118000030517578125">
        <ele>155.399993896484375</ele>
        <time>2026-08-13T08:17:49.000Z</time>
        <extensions>
          <ns3:TrackPointExtension>
            <ns3:hr>81</ns3:hr>
            <ns3:cad>43</ns3:cad>
          </ns3:TrackPointExtension>
        </extensions>
      </trkpt>
      <trkpt lat="43.76802049577236175537109375" lon="1.586476676166057586669921875">
        <ele>155.1999969482421875</ele>
        <time>2026-08-13T08:17:50.000Z</time>
        <extensions>
          <ns3:TrackPointExtension>
            <ns3:hr>81</ns3:hr>
            <ns3:cad>44</ns3:cad>
          </ns3:TrackPointExtension>
        </extensions>
      </trkpt>
      <trkpt lat="43.7680169753730297088623046875" lon="1.58646569587290287017822265625">
        <ele>155.1999969482421875</ele>
        <time>2026-08-13T08:17:51.000Z</time>
        <extensions>
          <ns3:TrackPointExtension>
            <ns3:hr>81</ns3:hr>
            <ns3:cad>44</ns3:cad>
          </ns3:TrackPointExtension>
        </extensions>
      </trkpt>
      <trkpt lat="43.768012784421443939208984375" lon="1.58645446412265300750732421875">
        <ele>155.1999969482421875</ele>
        <time>2026-08-13T08:17:52.000Z</time>
        <extensions>
          <ns3:TrackPointExtension>
            <ns3:hr>80</ns3:hr>
            <ns3:cad>43</ns3:cad>
          </ns3:TrackPointExtension>
        </extensions>
      </trkpt>
      <trkpt lat="43.7680112756788730621337890625" lon="1.58644658513367176055908203125">
        <ele>155.1999969482421875</ele>
        <time>2026-08-13T08:17:53.000Z</time>
        <extensions>
          <ns3:TrackPointExtension>
            <ns3:hr>80</ns3:hr>
            <ns3:cad>43</ns3:cad>
          </ns3:TrackPointExtension>
        </extensions>
      </trkpt>
      <trkpt lat="43.76800616271793842315673828125" lon="1.58643476665019989013671875">
        <ele>155.1999969482421875</ele>
        <time>2026-08-13T08:17:54.000Z</time>
        <extensions>
          <ns3:TrackPointExtension>
            <ns3:hr>80</ns3:hr>
            <ns3:cad>43</ns3:cad>
          </ns3:TrackPointExtension>
        </extensions>
      </trkpt>
      <trkpt lat="43.76799903810024261474609375" lon="1.586421020328998565673828125">
        <ele>155.1999969482421875</ele>
        <time>2026-08-13T08:17:55.000Z</time>
        <extensions>
          <ns3:TrackPointExtension>
            <ns3:hr>81</ns3:hr>
            <ns3:cad>43</ns3:cad>
          </ns3:TrackPointExtension>
        </extensions>
      </trkpt>
      <trkpt lat="43.76799174584448337554931640625" lon="1.5864071063697338104248046875">
        <ele>155.1999969482421875</ele>
        <time>2026-08-13T08:17:56.000Z</time>
        <extensions>
          <ns3:TrackPointExtension>
            <ns3:hr>81</ns3:hr>
            <ns3:cad>43</ns3:cad>
          </ns3:TrackPointExtension>
        </extensions>
      </trkpt>
      <trkpt lat="43.767986632883548736572265625" lon="1.58639361150562763214111328125">
        <ele>155.1999969482421875</ele>
        <time>2026-08-13T08:17:57.000Z</time>
        <extensions>
          <ns3:TrackPointExtension>
            <ns3:hr>81</ns3:hr>
            <ns3:cad>43</ns3:cad>
          </ns3:TrackPointExtension>
        </extensions>
      </trkpt>
      <trkpt lat="43.7679821066558361053466796875" lon="1.58638288266956806182861328125">
        <ele>155</ele>
        <time>2026-08-13T08:17:58.000Z</time>
        <extensions>
          <ns3:TrackPointExtension>
            <ns3:hr>81</ns3:hr>
            <ns3:cad>43</ns3:cad>
          </ns3:TrackPointExtension>
        </extensions>
      </trkpt>
      <trkpt lat="43.76797783188521862030029296875" lon="1.58636913634836673736572265625">
        <ele>155</ele>
        <time>2026-08-13T08:17:59.000Z</time>
        <extensions>
          <ns3:TrackPointExtension>
            <ns3:hr>81</ns3:hr>
            <ns3:cad>44</ns3:cad>
          </ns3:TrackPointExtension>
        </extensions>
      </trkpt>
      <trkpt lat="43.76797179691493511199951171875" lon="1.58635832369327545166015625">
        <ele>155</ele>
        <time>2026-08-13T08:18:00.000Z</time>
        <extensions>
          <ns3:TrackPointExtension>
            <ns3:hr>82</ns3:hr>
            <ns3:cad>46</ns3:cad>
          </ns3:TrackPointExtension>
        </extensions>
      </trkpt>
      <trkpt lat="43.767967522144317626953125" lon="1.586351953446865081787109375">
        <ele>155</ele>
        <time>2026-08-13T08:18:01.000Z</time>
        <extensions>
          <ns3:TrackPointExtension>
            <ns3:hr>82</ns3:hr>
            <ns3:cad>46</ns3:cad>
          </ns3:TrackPointExtension>
        </extensions>
      </trkpt>
      <trkpt lat="43.76796760596334934234619140625" lon="1.5863387100398540496826171875">
        <ele>155</ele>
        <time>2026-08-13T08:18:02.000Z</time>
        <extensions>
          <ns3:TrackPointExtension>
            <ns3:hr>82</ns3:hr>
            <ns3:cad>46</ns3:cad>
          </ns3:TrackPointExtension>
        </extensions>
      </trkpt>
      <trkpt lat="43.767961822450160980224609375" lon="1.58632747828960418701171875">
        <ele>155</ele>
        <time>2026-08-13T08:18:03.000Z</time>
        <extensions>
          <ns3:TrackPointExtension>
            <ns3:hr>81</ns3:hr>
            <ns3:cad>46</ns3:cad>
          </ns3:TrackPointExtension>
        </extensions>
      </trkpt>
      <trkpt lat="43.76795436255633831024169921875" lon="1.58631767146289348602294921875">
        <ele>155</ele>
        <time>2026-08-13T08:18:04.000Z</time>
        <extensions>
          <ns3:TrackPointExtension>
            <ns3:hr>81</ns3:hr>
            <ns3:cad>46</ns3:cad>
          </ns3:TrackPointExtension>
        </extensions>
      </trkpt>
      <trkpt lat="43.76795084215700626373291015625" lon="1.58630627207458019256591796875">
        <ele>155</ele>
        <time>2026-08-13T08:18:05.000Z</time>
        <extensions>
          <ns3:TrackPointExtension>
            <ns3:hr>81</ns3:hr>
            <ns3:cad>46</ns3:cad>
          </ns3:TrackPointExtension>
        </extensions>
      </trkpt>
      <trkpt lat="43.76794648356735706329345703125" lon="1.5862951241433620452880859375">
        <ele>155</ele>
        <time>2026-08-13T08:18:06.000Z</time>
        <extensions>
          <ns3:TrackPointExtension>
            <ns3:hr>81</ns3:hr>
            <ns3:cad>46</ns3:cad>
          </ns3:TrackPointExtension>
        </extensions>
      </trkpt>
      <trkpt lat="43.76794447191059589385986328125" lon="1.58627475611865520477294921875">
        <ele>155</ele>
        <time>2026-08-13T08:18:07.000Z</time>
        <extensions>
          <ns3:TrackPointExtension>
            <ns3:hr>81</ns3:hr>
            <ns3:cad>45</ns3:cad>
          </ns3:TrackPointExtension>
        </extensions>
      </trkpt>
      <trkpt lat="43.7679385207593441009521484375" lon="1.58626033924520015716552734375">
        <ele>155</ele>
        <time>2026-08-13T08:18:08.000Z</time>
        <extensions>
          <ns3:TrackPointExtension>
            <ns3:hr>81</ns3:hr>
            <ns3:cad>45</ns3:cad>
          </ns3:TrackPointExtension>
        </extensions>
      </trkpt>
      <trkpt lat="43.76793324016034603118896484375" lon="1.58625262789428234100341796875">
        <ele>155</ele>
        <time>2026-08-13T08:18:09.000Z</time>
        <extensions>
          <ns3:TrackPointExtension>
            <ns3:hr>82</ns3:hr>
            <ns3:cad>44</ns3:cad>
          </ns3:TrackPointExtension>
        </extensions>
      </trkpt>
      <trkpt lat="43.7679281271994113922119140625" lon="1.58624609000980854034423828125">
        <ele>155</ele>
        <time>2026-08-13T08:18:10.000Z</time>
        <extensions>
          <ns3:TrackPointExtension>
            <ns3:hr>81</ns3:hr>
            <ns3:cad>44</ns3:cad>
          </ns3:TrackPointExtension>
        </extensions>
      </trkpt>
      <trkpt lat="43.7679237686097621917724609375" lon="1.58623091876506805419921875">
        <ele>155</ele>
        <time>2026-08-13T08:18:11.000Z</time>
        <extensions>
          <ns3:TrackPointExtension>
            <ns3:hr>81</ns3:hr>
            <ns3:cad>43</ns3:cad>
          </ns3:TrackPointExtension>
        </extensions>
      </trkpt>
      <trkpt lat="43.76791966147720813751220703125" lon="1.586215831339359283447265625">
        <ele>155</ele>
        <time>2026-08-13T08:18:12.000Z</time>
        <extensions>
          <ns3:TrackPointExtension>
            <ns3:hr>81</ns3:hr>
            <ns3:cad>43</ns3:cad>
          </ns3:TrackPointExtension>
        </extensions>
      </trkpt>
      <trkpt lat="43.76791496761143207550048828125" lon="1.586203761398792266845703125">
        <ele>155</ele>
        <time>2026-08-13T08:18:13.000Z</time>
        <extensions>
          <ns3:TrackPointExtension>
            <ns3:hr>80</ns3:hr>
            <ns3:cad>43</ns3:cad>
          </ns3:TrackPointExtension>
        </extensions>
      </trkpt>
      <trkpt lat="43.767913877964019775390625" lon="1.58619378693401813507080078125">
        <ele>154.8000030517578125</ele>
        <time>2026-08-13T08:18:14.000Z</time>
        <extensions>
          <ns3:TrackPointExtension>
            <ns3:hr>80</ns3:hr>
            <ns3:cad>43</ns3:cad>
          </ns3:TrackPointExtension>
        </extensions>
      </trkpt>
      <trkpt lat="43.76791228540241718292236328125" lon="1.58618657849729061126708984375">
        <ele>154.8000030517578125</ele>
        <time>2026-08-13T08:18:15.000Z</time>
        <extensions>
          <ns3:TrackPointExtension>
            <ns3:hr>80</ns3:hr>
            <ns3:cad>47</ns3:cad>
          </ns3:TrackPointExtension>
        </extensions>
      </trkpt>
      <trkpt lat="43.7679103575646877288818359375" lon="1.58616964705288410186767578125">
        <ele>154.8000030517578125</ele>
        <time>2026-08-13T08:18:16.000Z</time>
        <extensions>
          <ns3:TrackPointExtension>
            <ns3:hr>80</ns3:hr>
            <ns3:cad>47</ns3:cad>
          </ns3:TrackPointExtension>
        </extensions>
      </trkpt>
      <trkpt lat="43.76790708862245082855224609375" lon="1.58615657128393650054931640625">
        <ele>154.8000030517578125</ele>
        <time>2026-08-13T08:18:17.000Z</time>
        <extensions>
          <ns3:TrackPointExtension>
            <ns3:hr>80</ns3:hr>
            <ns3:cad>47</ns3:cad>
          </ns3:TrackPointExtension>
        </extensions>
      </trkpt>
      <trkpt lat="43.76790457405149936676025390625" lon="1.58614668063819408416748046875">
        <ele>154.8000030517578125</ele>
        <time>2026-08-13T08:18:18.000Z</time>
        <extensions>
          <ns3:TrackPointExtension>
            <ns3:hr>80</ns3:hr>
            <ns3:cad>47</ns3:cad>
          </ns3:TrackPointExtension>
        </extensions>
      </trkpt>
      <trkpt lat="43.767900131642818450927734375" lon="1.58613729290664196014404296875">
        <ele>154.8000030517578125</ele>
        <time>2026-08-13T08:18:19.000Z</time>
        <extensions>
          <ns3:TrackPointExtension>
            <ns3:hr>80</ns3:hr>
            <ns3:cad>47</ns3:cad>
          </ns3:TrackPointExtension>
        </extensions>
      </trkpt>
      <trkpt lat="43.76789552159607410430908203125" lon="1.586126647889614105224609375">
        <ele>154.8000030517578125</ele>
        <time>2026-08-13T08:18:20.000Z</time>
        <extensions>
          <ns3:TrackPointExtension>
            <ns3:hr>80</ns3:hr>
            <ns3:cad>47</ns3:cad>
          </ns3:TrackPointExtension>
        </extensions>
      </trkpt>
      <trkpt lat="43.7678939290344715118408203125" lon="1.586121618747711181640625">
        <ele>154.8000030517578125</ele>
        <time>2026-08-13T08:18:21.000Z</time>
        <extensions>
          <ns3:TrackPointExtension>
            <ns3:hr>79</ns3:hr>
            <ns3:cad>47</ns3:cad>
          </ns3:TrackPointExtension>
        </extensions>
      </trkpt>
      <trkpt lat="43.76789149828255176544189453125" lon="1.5861130692064762115478515625">
        <ele>154.8000030517578125</ele>
        <time>2026-08-13T08:18:22.000Z</time>
        <extensions>
          <ns3:TrackPointExtension>
            <ns3:hr>80</ns3:hr>
            <ns3:cad>47</ns3:cad>
          </ns3:TrackPointExtension>
        </extensions>
      </trkpt>
      <trkpt lat="43.767888061702251434326171875" lon="1.58611097373068332672119140625">
        <ele>154.8000030517578125</ele>
        <time>2026-08-13T08:18:23.000Z</time>
        <extensions>
          <ns3:TrackPointExtension>
            <ns3:hr>80</ns3:hr>
            <ns3:cad>47</ns3:cad>
          </ns3:TrackPointExtension>
        </extensions>
      </trkpt>
      <trkpt lat="43.767888061702251434326171875" lon="1.58610678277909755706787109375">
        <ele>154.8000030517578125</ele>
        <time>2026-08-13T08:18:24.000Z</time>
        <extensions>
          <ns3:TrackPointExtension>
            <ns3:hr>79</ns3:hr>
            <ns3:cad>0</ns3:cad>
          </ns3:TrackPointExtension>
        </extensions>
      </trkpt>
      <trkpt lat="43.76788881607353687286376953125" lon="1.586104519665241241455078125">
        <ele>154.8000030517578125</ele>
        <time>2026-08-13T08:18:25.000Z</time>
        <extensions>
          <ns3:TrackPointExtension>
            <ns3:hr>79</ns3:hr>
            <ns3:cad>0</ns3:cad>
          </ns3:TrackPointExtension>
        </extensions>
      </trkpt>
      <trkpt lat="43.76788831315934658050537109375" lon="1.5861036814749240875244140625">
        <ele>154.8000030517578125</ele>
        <time>2026-08-13T08:18:26.000Z</time>
        <extensions>
          <ns3:TrackPointExtension>
            <ns3:hr>79</ns3:hr>
            <ns3:cad>0</ns3:cad>
          </ns3:TrackPointExtension>
        </extensions>
      </trkpt>
      <trkpt lat="43.76788797788321971893310546875" lon="1.58609873615205287933349609375">
        <ele>154.8000030517578125</ele>
        <time>2026-08-13T08:18:27.000Z</time>
        <extensions>
          <ns3:TrackPointExtension>
            <ns3:hr>79</ns3:hr>
            <ns3:cad>0</ns3:cad>
          </ns3:TrackPointExtension>
        </extensions>
      </trkpt>
      <trkpt lat="43.76788613386452198028564453125" lon="1.58609010279178619384765625">
        <ele>154.8000030517578125</ele>
        <time>2026-08-13T08:18:28.000Z</time>
        <extensions>
          <ns3:TrackPointExtension>
            <ns3:hr>78</ns3:hr>
            <ns3:cad>0</ns3:cad>
          </ns3:TrackPointExtension>
        </extensions>
      </trkpt>
      <trkpt lat="43.76788412220776081085205078125" lon="1.586089767515659332275390625">
        <ele>154.600006103515625</ele>
        <time>2026-08-13T08:18:29.000Z</time>
        <extensions>
          <ns3:TrackPointExtension>
            <ns3:hr>78</ns3:hr>
            <ns3:cad>0</ns3:cad>
          </ns3:TrackPointExtension>
        </extensions>
      </trkpt>
      <trkpt lat="43.767882026731967926025390625" lon="1.586084067821502685546875">
        <ele>154.600006103515625</ele>
        <time>2026-08-13T08:18:30.000Z</time>
        <extensions>
          <ns3:TrackPointExtension>
            <ns3:hr>78</ns3:hr>
            <ns3:cad>0</ns3:cad>
          </ns3:TrackPointExtension>
        </extensions>
      </trkpt>
      <trkpt lat="43.767881356179714202880859375" lon="1.5860800445079803466796875">
        <ele>154.600006103515625</ele>
        <time>2026-08-13T08:18:31.000Z</time>
        <extensions>
          <ns3:TrackPointExtension>
            <ns3:hr>78</ns3:hr>
            <ns3:cad>0</ns3:cad>
          </ns3:TrackPointExtension>
        </extensions>
      </trkpt>
      <trkpt lat="43.76788102090358734130859375" lon="1.58607124350965023040771484375">
        <ele>154.600006103515625</ele>
        <time>2026-08-13T08:18:32.000Z</time>
        <extensions>
          <ns3:TrackPointExtension>
            <ns3:hr>78</ns3:hr>
            <ns3:cad>0</ns3:cad>
          </ns3:TrackPointExtension>
        </extensions>
      </trkpt>
      <trkpt lat="43.7678835354745388031005859375" lon="1.5860666334629058837890625">
        <ele>154.600006103515625</ele>
        <time>2026-08-13T08:18:33.000Z</time>
        <extensions>
          <ns3:TrackPointExtension>
            <ns3:hr>79</ns3:hr>
            <ns3:cad>0</ns3:cad>
          </ns3:TrackPointExtension>
        </extensions>
      </trkpt>
      <trkpt lat="43.767882026731967926025390625" lon="1.586060263216495513916015625">
        <ele>154.600006103515625</ele>
        <time>2026-08-13T08:18:34.000Z</time>
        <extensions>
          <ns3:TrackPointExtension>
            <ns3:hr>80</ns3:hr>
            <ns3:cad>0</ns3:cad>
          </ns3:TrackPointExtension>
        </extensions>
      </trkpt>
      <trkpt lat="43.76788437366485595703125" lon="1.58605883829295635223388671875">
        <ele>154.399993896484375</ele>
        <time>2026-08-13T08:18:35.000Z</time>
        <extensions>
          <ns3:TrackPointExtension>
            <ns3:hr>80</ns3:hr>
            <ns3:cad>0</ns3:cad>
          </ns3:TrackPointExtension>
        </extensions>
      </trkpt>
      <trkpt lat="43.767879344522953033447265625" lon="1.58605028875172138214111328125">
        <ele>154.399993896484375</ele>
        <time>2026-08-13T08:18:36.000Z</time>
        <extensions>
          <ns3:TrackPointExtension>
            <ns3:hr>80</ns3:hr>
            <ns3:cad>0</ns3:cad>
          </ns3:TrackPointExtension>
        </extensions>
      </trkpt>
      <trkpt lat="43.7678761593997478485107421875" lon="1.58604878000915050506591796875">
        <ele>154.399993896484375</ele>
        <time>2026-08-13T08:18:37.000Z</time>
        <extensions>
          <ns3:TrackPointExtension>
            <ns3:hr>81</ns3:hr>
            <ns3:cad>0</ns3:cad>
          </ns3:TrackPointExtension>
        </extensions>
      </trkpt>
      <trkpt lat="43.7678711302578449249267578125" lon="1.58604643307626247406005859375">
        <ele>154.1999969482421875</ele>
        <time>2026-08-13T08:18:38.000Z</time>
        <extensions>
          <ns3:TrackPointExtension>
            <ns3:hr>81</ns3:hr>
            <ns3:cad>0</ns3:cad>
          </ns3:TrackPointExtension>
        </extensions>
      </trkpt>
      <trkpt lat="43.76786652021110057830810546875" lon="1.586046516895294189453125">
        <ele>154.1999969482421875</ele>
        <time>2026-08-13T08:18:39.000Z</time>
        <extensions>
          <ns3:TrackPointExtension>
            <ns3:hr>81</ns3:hr>
            <ns3:cad>0</ns3:cad>
          </ns3:TrackPointExtension>
        </extensions>
      </trkpt>
      <trkpt lat="43.7678640894591808319091796875" lon="1.58604207448661327362060546875">
        <ele>154</ele>
        <time>2026-08-13T08:18:40.000Z</time>
        <extensions>
          <ns3:TrackPointExtension>
            <ns3:hr>80</ns3:hr>
            <ns3:cad>0</ns3:cad>
          </ns3:TrackPointExtension>
        </extensions>
      </trkpt>
      <trkpt lat="43.767857886850833892822265625" lon="1.586039476096630096435546875">
        <ele>154</ele>
        <time>2026-08-13T08:18:41.000Z</time>
        <extensions>
          <ns3:TrackPointExtension>
            <ns3:hr>79</ns3:hr>
            <ns3:cad>0</ns3:cad>
          </ns3:TrackPointExtension>
        </extensions>
      </trkpt>
      <trkpt lat="43.7678563781082630157470703125" lon="1.5860369615256786346435546875">
        <ele>154</ele>
        <time>2026-08-13T08:18:42.000Z</time>
        <extensions>
          <ns3:TrackPointExtension>
            <ns3:hr>76</ns3:hr>
            <ns3:cad>0</ns3:cad>
          </ns3:TrackPointExtension>
        </extensions>
      </trkpt>
      <trkpt lat="43.767854869365692138671875" lon="1.58603511750698089599609375">
        <ele>154</ele>
        <time>2026-08-13T08:18:43.000Z</time>
        <extensions>
          <ns3:TrackPointExtension>
            <ns3:hr>72</ns3:hr>
            <ns3:cad>0</ns3:cad>
          </ns3:TrackPointExtension>
        </extensions>
      </trkpt>
      <trkpt lat="43.767854869365692138671875" lon="1.58603402785956859588623046875">
        <ele>154</ele>
        <time>2026-08-13T08:18:44.000Z</time>
        <extensions>
          <ns3:TrackPointExtension>
            <ns3:hr>69</ns3:hr>
            <ns3:cad>0</ns3:cad>
          </ns3:TrackPointExtension>
        </extensions>
      </trkpt>
      <trkpt lat="43.76785327680408954620361328125" lon="1.5860319323837757110595703125">
        <ele>154</ele>
        <time>2026-08-13T08:18:45.000Z</time>
        <extensions>
          <ns3:TrackPointExtension>
            <ns3:hr>68</ns3:hr>
            <ns3:cad>0</ns3:cad>
          </ns3:TrackPointExtension>
        </extensions>
      </trkpt>
      <trkpt lat="43.7678530253469944000244140625" lon="1.586032770574092864990234375">
        <ele>154</ele>
        <time>2026-08-13T08:18:46.000Z</time>
        <extensions>
          <ns3:TrackPointExtension>
            <ns3:hr>68</ns3:hr>
            <ns3:cad>0</ns3:cad>
          </ns3:TrackPointExtension>
        </extensions>
      </trkpt>
      <trkpt lat="43.76785285770893096923828125" lon="1.58603268675506114959716796875">
        <ele>154</ele>
        <time>2026-08-13T08:18:47.000Z</time>
        <extensions>
          <ns3:TrackPointExtension>
            <ns3:hr>68</ns3:hr>
            <ns3:cad>0</ns3:cad>
          </ns3:TrackPointExtension>
        </extensions>
      </trkpt>
      <trkpt lat="43.76785285770893096923828125" lon="1.58603268675506114959716796875">
        <ele>154</ele>
        <time>2026-08-13T08:18:48.000Z</time>
        <extensions>
          <ns3:TrackPointExtension>
            <ns3:hr>68</ns3:hr>
            <ns3:cad>0</ns3:cad>
          </ns3:TrackPointExtension>
        </extensions>
      </trkpt>
      <trkpt lat="43.767852522432804107666015625" lon="1.58603243529796600341796875">
        <ele>154</ele>
        <time>2026-08-13T08:18:49.000Z</time>
        <extensions>
          <ns3:TrackPointExtension>
            <ns3:hr>68</ns3:hr>
            <ns3:cad>0</ns3:cad>
          </ns3:TrackPointExtension>
        </extensions>
      </trkpt>
      <trkpt lat="43.76784673891961574554443359375" lon="1.5860265679657459259033203125">
        <ele>154</ele>
        <time>2026-08-13T08:18:50.000Z</time>
        <extensions>
          <ns3:TrackPointExtension>
            <ns3:hr>67</ns3:hr>
            <ns3:cad>0</ns3:cad>
          </ns3:TrackPointExtension>
        </extensions>
      </trkpt>
      <trkpt lat="43.76784992404282093048095703125" lon="1.58602346666157245635986328125">
        <ele>154</ele>
        <time>2026-08-13T08:18:51.000Z</time>
        <extensions>
          <ns3:TrackPointExtension>
            <ns3:hr>67</ns3:hr>
            <ns3:cad>0</ns3:cad>
          </ns3:TrackPointExtension>
        </extensions>
      </trkpt>
      <trkpt lat="43.76784958876669406890869140625" lon="1.58602246083319187164306640625">
        <ele>154</ele>
        <time>2026-08-13T08:18:52.000Z</time>
        <extensions>
          <ns3:TrackPointExtension>
            <ns3:hr>68</ns3:hr>
            <ns3:cad>0</ns3:cad>
          </ns3:TrackPointExtension>
        </extensions>
      </trkpt>
      <trkpt lat="43.7678481638431549072265625" lon="1.58601902425289154052734375">
        <ele>153.8000030517578125</ele>
        <time>2026-08-13T08:18:53.000Z</time>
        <extensions>
          <ns3:TrackPointExtension>
            <ns3:hr>68</ns3:hr>
            <ns3:cad>0</ns3:cad>
          </ns3:TrackPointExtension>
        </extensions>
      </trkpt>
      <trkpt lat="43.76784958876669406890869140625" lon="1.58601994626224040985107421875">
        <ele>153.8000030517578125</ele>
        <time>2026-08-13T08:18:54.000Z</time>
        <extensions>
          <ns3:TrackPointExtension>
            <ns3:hr>68</ns3:hr>
            <ns3:cad>0</ns3:cad>
          </ns3:TrackPointExtension>
        </extensions>
      </trkpt>
      <trkpt lat="43.76785143278539180755615234375" lon="1.58602095209062099456787109375">
        <ele>153.8000030517578125</ele>
        <time>2026-08-13T08:18:55.000Z</time>
        <extensions>
          <ns3:TrackPointExtension>
            <ns3:hr>67</ns3:hr>
            <ns3:cad>0</ns3:cad>
          </ns3:TrackPointExtension>
        </extensions>
      </trkpt>
      <trkpt lat="43.767851851880550384521484375" lon="1.58602128736674785614013671875">
        <ele>153.8000030517578125</ele>
        <time>2026-08-13T08:18:56.000Z</time>
        <extensions>
          <ns3:TrackPointExtension>
            <ns3:hr>67</ns3:hr>
            <ns3:cad>0</ns3:cad>
          </ns3:TrackPointExtension>
        </extensions>
      </trkpt>
      <trkpt lat="43.767853192985057830810546875" lon="1.58602170646190643310546875">
        <ele>153.8000030517578125</ele>
        <time>2026-08-13T08:18:57.000Z</time>
        <extensions>
          <ns3:TrackPointExtension>
            <ns3:hr>66</ns3:hr>
            <ns3:cad>0</ns3:cad>
          </ns3:TrackPointExtension>
        </extensions>
      </trkpt>
      <trkpt lat="43.7678526900708675384521484375" lon="1.58602296374738216400146484375">
        <ele>153.8000030517578125</ele>
        <time>2026-08-13T08:18:58.000Z</time>
        <extensions>
          <ns3:TrackPointExtension>
            <ns3:hr>66</ns3:hr>
            <ns3:cad>0</ns3:cad>
          </ns3:TrackPointExtension>
        </extensions>
      </trkpt>
      <trkpt lat="43.76785160042345523834228515625" lon="1.5860222093760967254638671875">
        <ele>153.8000030517578125</ele>
        <time>2026-08-13T08:18:59.000Z</time>
        <extensions>
          <ns3:TrackPointExtension>
            <ns3:hr>66</ns3:hr>
            <ns3:cad>0</ns3:cad>
          </ns3:TrackPointExtension>
        </extensions>
      </trkpt>
      <trkpt lat="43.7678516842424869537353515625" lon="1.5860235504806041717529296875">
        <ele>153.8000030517578125</ele>
        <time>2026-08-13T08:19:00.000Z</time>
        <extensions>
          <ns3:TrackPointExtension>
            <ns3:hr>68</ns3:hr>
            <ns3:cad>0</ns3:cad>
          </ns3:TrackPointExtension>
        </extensions>
      </trkpt>
      <trkpt lat="43.7678513489663600921630859375" lon="1.58602665178477764129638671875">
        <ele>153.8000030517578125</ele>
        <time>2026-08-13T08:19:01.000Z</time>
        <extensions>
          <ns3:TrackPointExtension>
            <ns3:hr>69</ns3:hr>
            <ns3:cad>0</ns3:cad>
          </ns3:TrackPointExtension>
        </extensions>
      </trkpt>
      <trkpt lat="43.76784925349056720733642578125" lon="1.58602950163185596466064453125">
        <ele>153.8000030517578125</ele>
        <time>2026-08-13T08:19:02.000Z</time>
        <extensions>
          <ns3:TrackPointExtension>
            <ns3:hr>71</ns3:hr>
            <ns3:cad>0</ns3:cad>
          </ns3:TrackPointExtension>
        </extensions>
      </trkpt>
      <trkpt lat="43.7678493373095989227294921875" lon="1.58603067509829998016357421875">
        <ele>153.8000030517578125</ele>
        <time>2026-08-13T08:19:03.000Z</time>
        <extensions>
          <ns3:TrackPointExtension>
            <ns3:hr>72</ns3:hr>
            <ns3:cad>0</ns3:cad>
          </ns3:TrackPointExtension>
        </extensions>
      </trkpt>
      <trkpt lat="43.76785017549991607666015625" lon="1.5860331058502197265625">
        <ele>153.8000030517578125</ele>
        <time>2026-08-13T08:19:04.000Z</time>
        <extensions>
          <ns3:TrackPointExtension>
            <ns3:hr>73</ns3:hr>
            <ns3:cad>0</ns3:cad>
          </ns3:TrackPointExtension>
        </extensions>
      </trkpt>
      <trkpt lat="43.76785076223313808441162109375" lon="1.58603536896407604217529296875">
        <ele>153.8000030517578125</ele>
        <time>2026-08-13T08:19:05.000Z</time>
        <extensions>
          <ns3:TrackPointExtension>
            <ns3:hr>73</ns3:hr>
            <ns3:cad>0</ns3:cad>
          </ns3:TrackPointExtension>
        </extensions>
      </trkpt>
      <trkpt lat="43.76785294152796268463134765625" lon="1.58603779971599578857421875">
        <ele>153.8000030517578125</ele>
        <time>2026-08-13T08:19:06.000Z</time>
        <extensions>
          <ns3:TrackPointExtension>
            <ns3:hr>74</ns3:hr>
            <ns3:cad>0</ns3:cad>
          </ns3:TrackPointExtension>
        </extensions>
      </trkpt>
      <trkpt lat="43.76785755157470703125" lon="1.5860339440405368804931640625">
        <ele>153.8000030517578125</ele>
        <time>2026-08-13T08:19:07.000Z</time>
        <extensions>
          <ns3:TrackPointExtension>
            <ns3:hr>74</ns3:hr>
            <ns3:cad>0</ns3:cad>
          </ns3:TrackPointExtension>
        </extensions>
      </trkpt>
      <trkpt lat="43.76785730011761188507080078125" lon="1.586044840514659881591796875">
        <ele>154</ele>
        <time>2026-08-13T08:19:08.000Z</time>
        <extensions>
          <ns3:TrackPointExtension>
            <ns3:hr>74</ns3:hr>
            <ns3:cad>0</ns3:cad>
          </ns3:TrackPointExtension>
        </extensions>
      </trkpt>
      <trkpt lat="43.76785696484148502349853515625" lon="1.58603847026824951171875">
        <ele>154</ele>
        <time>2026-08-13T08:19:09.000Z</time>
        <extensions>
          <ns3:TrackPointExtension>
            <ns3:hr>73</ns3:hr>
            <ns3:cad>0</ns3:cad>
          </ns3:TrackPointExtension>
        </extensions>
      </trkpt>
      <trkpt lat="43.7678536958992481231689453125" lon="1.58604458905756473541259765625">
        <ele>154</ele>
        <time>2026-08-13T08:19:10.000Z</time>
        <extensions>
          <ns3:TrackPointExtension>
            <ns3:hr>70</ns3:hr>
            <ns3:cad>0</ns3:cad>
          </ns3:TrackPointExtension>
        </extensions>
      </trkpt>
      <trkpt lat="43.76785227097570896148681640625" lon="1.58604542724788188934326171875">
        <ele>154</ele>
        <time>2026-08-13T08:19:11.000Z</time>
        <extensions>
          <ns3:TrackPointExtension>
            <ns3:hr>66</ns3:hr>
            <ns3:cad>0</ns3:cad>
          </ns3:TrackPointExtension>
        </extensions>
      </trkpt>
      <trkpt lat="43.76785059459507465362548828125" lon="1.586048193275928497314453125">
        <ele>154</ele>
        <time>2026-08-13T08:19:12.000Z</time>
        <extensions>
          <ns3:TrackPointExtension>
            <ns3:hr>64</ns3:hr>
            <ns3:cad>0</ns3:cad>
          </ns3:TrackPointExtension>
        </extensions>
      </trkpt>
      <trkpt lat="43.767849504947662353515625" lon="1.58605213277041912078857421875">
        <ele>153.8000030517578125</ele>
        <time>2026-08-13T08:19:13.000Z</time>
        <extensions>
          <ns3:TrackPointExtension>
            <ns3:hr>64</ns3:hr>
            <ns3:cad>0</ns3:cad>
          </ns3:TrackPointExtension>
        </extensions>
      </trkpt>
      <trkpt lat="43.76784774474799633026123046875" lon="1.586050204932689666748046875">
        <ele>153.8000030517578125</ele>
        <time>2026-08-13T08:19:14.000Z</time>
        <extensions>
          <ns3:TrackPointExtension>
            <ns3:hr>64</ns3:hr>
            <ns3:cad>0</ns3:cad>
          </ns3:TrackPointExtension>
        </extensions>
      </trkpt>
      <trkpt lat="43.76784615218639373779296875" lon="1.58604358322918415069580078125">
        <ele>153.8000030517578125</ele>
        <time>2026-08-13T08:19:15.000Z</time>
        <extensions>
          <ns3:TrackPointExtension>
            <ns3:hr>64</ns3:hr>
            <ns3:cad>0</ns3:cad>
          </ns3:TrackPointExtension>
        </extensions>
      </trkpt>
      <trkpt lat="43.76784640364348888397216796875" lon="1.586042158305644989013671875">
        <ele>153.8000030517578125</ele>
        <time>2026-08-13T08:19:16.000Z</time>
        <extensions>
          <ns3:TrackPointExtension>
            <ns3:hr>63</ns3:hr>
            <ns3:cad>0</ns3:cad>
          </ns3:TrackPointExtension>
        </extensions>
      </trkpt>
      <trkpt lat="43.76784925349056720733642578125" lon="1.58604593016207218170166015625">
        <ele>153.8000030517578125</ele>
        <time>2026-08-13T08:19:17.000Z</time>
        <extensions>
          <ns3:TrackPointExtension>
            <ns3:hr>63</ns3:hr>
            <ns3:cad>0</ns3:cad>
          </ns3:TrackPointExtension>
        </extensions>
      </trkpt>
      <trkpt lat="43.7678469903767108917236328125" lon="1.58604718744754791259765625">
        <ele>153.8000030517578125</ele>
        <time>2026-08-13T08:19:18.000Z</time>
        <extensions>
          <ns3:TrackPointExtension>
            <ns3:hr>63</ns3:hr>
            <ns3:cad>0</ns3:cad>
          </ns3:TrackPointExtension>
        </extensions>
      </trkpt>
      <trkpt lat="43.76784523017704486846923828125" lon="1.586042828857898712158203125">
        <ele>153.600006103515625</ele>
        <time>2026-08-13T08:19:19.000Z</time>
        <extensions>
          <ns3:TrackPointExtension>
            <ns3:hr>63</ns3:hr>
            <ns3:cad>0</ns3:cad>
          </ns3:TrackPointExtension>
        </extensions>
      </trkpt>
      <trkpt lat="43.767838776111602783203125" lon="1.5860436670482158660888671875">
        <ele>153.399993896484375</ele>
        <time>2026-08-13T08:19:20.000Z</time>
        <extensions>
          <ns3:TrackPointExtension>
            <ns3:hr>63</ns3:hr>
            <ns3:cad>0</ns3:cad>
          </ns3:TrackPointExtension>
        </extensions>
      </trkpt>
      <trkpt lat="43.767825700342655181884765625" lon="1.58604525960981845855712890625">
        <ele>153.1999969482421875</ele>
        <time>2026-08-13T08:19:21.000Z</time>
        <extensions>
          <ns3:TrackPointExtension>
            <ns3:hr>63</ns3:hr>
            <ns3:cad>0</ns3:cad>
          </ns3:TrackPointExtension>
        </extensions>
      </trkpt>
      <trkpt lat="43.7678151391446590423583984375" lon="1.5860436670482158660888671875">
        <ele>152.8000030517578125</ele>
        <time>2026-08-13T08:19:22.000Z</time>
        <extensions>
          <ns3:TrackPointExtension>
            <ns3:hr>63</ns3:hr>
            <ns3:cad>0</ns3:cad>
          </ns3:TrackPointExtension>
        </extensions>
      </trkpt>
      <trkpt lat="43.7678060866892337799072265625" lon="1.586040146648883819580078125">
        <ele>152.600006103515625</ele>
        <time>2026-08-13T08:19:23.000Z</time>
        <extensions>
          <ns3:TrackPointExtension>
            <ns3:hr>63</ns3:hr>
            <ns3:cad>0</ns3:cad>
          </ns3:TrackPointExtension>
        </extensions>
      </trkpt>
      <trkpt lat="43.7678052484989166259765625" lon="1.58604525960981845855712890625">
        <ele>152.399993896484375</ele>
        <time>2026-08-13T08:19:24.000Z</time>
        <extensions>
          <ns3:TrackPointExtension>
            <ns3:hr>63</ns3:hr>
            <ns3:cad>0</ns3:cad>
          </ns3:TrackPointExtension>
        </extensions>
      </trkpt>
      <trkpt lat="43.76779627986252307891845703125" lon="1.58604048192501068115234375">
        <ele>152.1999969482421875</ele>
        <time>2026-08-13T08:19:25.000Z</time>
        <extensions>
          <ns3:TrackPointExtension>
            <ns3:hr>63</ns3:hr>
            <ns3:cad>0</ns3:cad>
          </ns3:TrackPointExtension>
        </extensions>
      </trkpt>
      <trkpt lat="43.76779175363481044769287109375" lon="1.5860413201153278350830078125">
        <ele>152</ele>
        <time>2026-08-13T08:19:26.000Z</time>
        <extensions>
          <ns3:TrackPointExtension>
            <ns3:hr>62</ns3:hr>
            <ns3:cad>0</ns3:cad>
          </ns3:TrackPointExtension>
        </extensions>
      </trkpt>
      <trkpt lat="43.76779141835868358612060546875" lon="1.5860409848392009735107421875">
        <ele>152.1999969482421875</ele>
        <time>2026-08-13T08:19:27.000Z</time>
        <extensions>
          <ns3:TrackPointExtension>
            <ns3:hr>62</ns3:hr>
            <ns3:cad>0</ns3:cad>
          </ns3:TrackPointExtension>
        </extensions>
      </trkpt>
      <trkpt lat="43.76778580248355865478515625" lon="1.58603805117309093475341796875">
        <ele>152.1999969482421875</ele>
        <time>2026-08-13T08:19:28.000Z</time>
        <extensions>
          <ns3:TrackPointExtension>
            <ns3:hr>62</ns3:hr>
            <ns3:cad>0</ns3:cad>
          </ns3:TrackPointExtension>
        </extensions>
      </trkpt>
      <trkpt lat="43.76778555102646350860595703125" lon="1.586038134992122650146484375">
        <ele>152.399993896484375</ele>
        <time>2026-08-13T08:19:29.000Z</time>
        <extensions>
          <ns3:TrackPointExtension>
            <ns3:hr>62</ns3:hr>
            <ns3:cad>0</ns3:cad>
          </ns3:TrackPointExtension>
        </extensions>
      </trkpt>
      <trkpt lat="43.76778521575033664703369140625" lon="1.5860379673540592193603515625">
        <ele>152.399993896484375</ele>
        <time>2026-08-13T08:19:30.000Z</time>
        <extensions>
          <ns3:TrackPointExtension>
            <ns3:hr>62</ns3:hr>
            <ns3:cad>0</ns3:cad>
          </ns3:TrackPointExtension>
        </extensions>
      </trkpt>
      <trkpt lat="43.76777599565684795379638671875" lon="1.586036123335361480712890625">
        <ele>152.600006103515625</ele>
        <time>2026-08-13T08:19:31.000Z</time>
        <extensions>
          <ns3:TrackPointExtension>
            <ns3:hr>62</ns3:hr>
            <ns3:cad>0</ns3:cad>
          </ns3:TrackPointExtension>
        </extensions>
      </trkpt>
      <trkpt lat="43.76776627264916896820068359375" lon="1.5860386379063129425048828125">
        <ele>152.8000030517578125</ele>
        <time>2026-08-13T08:19:32.000Z</time>
        <extensions>
          <ns3:TrackPointExtension>
            <ns3:hr>62</ns3:hr>
            <ns3:cad>0</ns3:cad>
          </ns3:TrackPointExtension>
        </extensions>
      </trkpt>
      <trkpt lat="43.76775856129825115203857421875" lon="1.58604408614337444305419921875">
        <ele>153</ele>
        <time>2026-08-13T08:19:33.000Z</time>
        <extensions>
          <ns3:TrackPointExtension>
            <ns3:hr>63</ns3:hr>
            <ns3:cad>0</ns3:cad>
          </ns3:TrackPointExtension>
        </extensions>
      </trkpt>
      <trkpt lat="43.7677537836134433746337890625" lon="1.586046181619167327880859375">
        <ele>153.1999969482421875</ele>
        <time>2026-08-13T08:19:34.000Z</time>
        <extensions>
          <ns3:TrackPointExtension>
            <ns3:hr>63</ns3:hr>
            <ns3:cad>0</ns3:cad>
          </ns3:TrackPointExtension>
        </extensions>
      </trkpt>
      <trkpt lat="43.76774816773831844329833984375" lon="1.58604458905756473541259765625">
        <ele>153.399993896484375</ele>
        <time>2026-08-13T08:19:35.000Z</time>
        <extensions>
          <ns3:TrackPointExtension>
            <ns3:hr>65</ns3:hr>
            <ns3:cad>0</ns3:cad>
          </ns3:TrackPointExtension>
        </extensions>
      </trkpt>
      <trkpt lat="43.7677437253296375274658203125" lon="1.5860478579998016357421875">
        <ele>153.600006103515625</ele>
        <time>2026-08-13T08:19:36.000Z</time>
        <extensions>
          <ns3:TrackPointExtension>
            <ns3:hr>67</ns3:hr>
            <ns3:cad>0</ns3:cad>
          </ns3:TrackPointExtension>
        </extensions>
      </trkpt>
      <trkpt lat="43.76774162985384464263916015625" lon="1.58604978583753108978271484375">
        <ele>153.8000030517578125</ele>
        <time>2026-08-13T08:19:37.000Z</time>
        <extensions>
          <ns3:TrackPointExtension>
            <ns3:hr>69</ns3:hr>
            <ns3:cad>0</ns3:cad>
          </ns3:TrackPointExtension>
        </extensions>
      </trkpt>
      <trkpt lat="43.76772545278072357177734375" lon="1.586056910455226898193359375">
        <ele>154</ele>
        <time>2026-08-13T08:19:38.000Z</time>
        <extensions>
          <ns3:TrackPointExtension>
            <ns3:hr>70</ns3:hr>
            <ns3:cad>0</ns3:cad>
          </ns3:TrackPointExtension>
        </extensions>
      </trkpt>
      <trkpt lat="43.76771346665918827056884765625" lon="1.5860621072351932525634765625">
        <ele>154</ele>
        <time>2026-08-13T08:19:39.000Z</time>
        <extensions>
          <ns3:TrackPointExtension>
            <ns3:hr>70</ns3:hr>
            <ns3:cad>0</ns3:cad>
          </ns3:TrackPointExtension>
        </extensions>
      </trkpt>
      <trkpt lat="43.76770441420376300811767578125" lon="1.5860664658248424530029296875">
        <ele>154</ele>
        <time>2026-08-13T08:19:40.000Z</time>
        <extensions>
          <ns3:TrackPointExtension>
            <ns3:hr>70</ns3:hr>
            <ns3:cad>0</ns3:cad>
          </ns3:TrackPointExtension>
        </extensions>
      </trkpt>
      <trkpt lat="43.76769603230059146881103515625" lon="1.58606973476707935333251953125">
        <ele>154</ele>
        <time>2026-08-13T08:19:41.000Z</time>
        <extensions>
          <ns3:TrackPointExtension>
            <ns3:hr>70</ns3:hr>
            <ns3:cad>0</ns3:cad>
          </ns3:TrackPointExtension>
        </extensions>
      </trkpt>
      <trkpt lat="43.7676894105970859527587890625" lon="1.586070321500301361083984375">
        <ele>154</ele>
        <time>2026-08-13T08:19:42.000Z</time>
        <extensions>
          <ns3:TrackPointExtension>
            <ns3:hr>71</ns3:hr>
            <ns3:cad>0</ns3:cad>
          </ns3:TrackPointExtension>
        </extensions>
      </trkpt>
      <trkpt lat="43.76768228597939014434814453125" lon="1.58606939949095249176025390625">
        <ele>154</ele>
        <time>2026-08-13T08:19:43.000Z</time>
        <extensions>
          <ns3:TrackPointExtension>
            <ns3:hr>71</ns3:hr>
            <ns3:cad>0</ns3:cad>
          </ns3:TrackPointExtension>
        </extensions>
      </trkpt>
      <trkpt lat="43.767677508294582366943359375" lon="1.5860704891383647918701171875">
        <ele>154</ele>
        <time>2026-08-13T08:19:44.000Z</time>
        <extensions>
          <ns3:TrackPointExtension>
            <ns3:hr>72</ns3:hr>
            <ns3:cad>0</ns3:cad>
          </ns3:TrackPointExtension>
        </extensions>
      </trkpt>
      <trkpt lat="43.7676726467907428741455078125" lon="1.5860741771757602691650390625">
        <ele>154.1999969482421875</ele>
        <time>2026-08-13T08:19:45.000Z</time>
        <extensions>
          <ns3:TrackPointExtension>
            <ns3:hr>75</ns3:hr>
            <ns3:cad>0</ns3:cad>
          </ns3:TrackPointExtension>
        </extensions>
      </trkpt>
      <trkpt lat="43.76766652800142765045166015625" lon="1.58607543446123600006103515625">
        <ele>154.1999969482421875</ele>
        <time>2026-08-13T08:19:46.000Z</time>
        <extensions>
          <ns3:TrackPointExtension>
            <ns3:hr>78</ns3:hr>
            <ns3:cad>0</ns3:cad>
          </ns3:TrackPointExtension>
        </extensions>
      </trkpt>
      <trkpt lat="43.76766149885952472686767578125" lon="1.58607191406190395355224609375">
        <ele>154.399993896484375</ele>
        <time>2026-08-13T08:19:47.000Z</time>
        <extensions>
          <ns3:TrackPointExtension>
            <ns3:hr>78</ns3:hr>
            <ns3:cad>0</ns3:cad>
          </ns3:TrackPointExtension>
        </extensions>
      </trkpt>
      <trkpt lat="43.76765462569892406463623046875" lon="1.5860693156719207763671875">
        <ele>154.399993896484375</ele>
        <time>2026-08-13T08:19:48.000Z</time>
        <extensions>
          <ns3:TrackPointExtension>
            <ns3:hr>78</ns3:hr>
            <ns3:cad>0</ns3:cad>
          </ns3:TrackPointExtension>
        </extensions>
      </trkpt>
      <trkpt lat="43.76764389686286449432373046875" lon="1.58607141114771366119384765625">
        <ele>154.600006103515625</ele>
        <time>2026-08-13T08:19:49.000Z</time>
        <extensions>
          <ns3:TrackPointExtension>
            <ns3:hr>78</ns3:hr>
            <ns3:cad>0</ns3:cad>
          </ns3:TrackPointExtension>
        </extensions>
      </trkpt>
      <trkpt lat="43.7676347605884075164794921875" lon="1.58607132732868194580078125">
        <ele>154.8000030517578125</ele>
        <time>2026-08-13T08:19:50.000Z</time>
        <extensions>
          <ns3:TrackPointExtension>
            <ns3:hr>78</ns3:hr>
            <ns3:cad>0</ns3:cad>
          </ns3:TrackPointExtension>
        </extensions>
      </trkpt>
      <trkpt lat="43.7676293961703777313232421875" lon="1.58607442863285541534423828125">
        <ele>155</ele>
        <time>2026-08-13T08:19:51.000Z</time>
        <extensions>
          <ns3:TrackPointExtension>
            <ns3:hr>78</ns3:hr>
            <ns3:cad>44</ns3:cad>
          </ns3:TrackPointExtension>
        </extensions>
      </trkpt>
      <trkpt lat="43.76761606894433498382568359375" lon="1.58607426099479198455810546875">
        <ele>155.1999969482421875</ele>
        <time>2026-08-13T08:19:52.000Z</time>
        <extensions>
          <ns3:TrackPointExtension>
            <ns3:hr>77</ns3:hr>
            <ns3:cad>44</ns3:cad>
          </ns3:TrackPointExtension>
        </extensions>
      </trkpt>
      <trkpt lat="43.7676072679460048675537109375" lon="1.58607308752834796905517578125">
        <ele>155.399993896484375</ele>
        <time>2026-08-13T08:19:53.000Z</time>
        <extensions>
          <ns3:TrackPointExtension>
            <ns3:hr>77</ns3:hr>
            <ns3:cad>44</ns3:cad>
          </ns3:TrackPointExtension>
        </extensions>
      </trkpt>
      <trkpt lat="43.767599724233150482177734375" lon="1.58607023768126964569091796875">
        <ele>155.399993896484375</ele>
        <time>2026-08-13T08:19:54.000Z</time>
        <extensions>
          <ns3:TrackPointExtension>
            <ns3:hr>77</ns3:hr>
            <ns3:cad>44</ns3:cad>
          </ns3:TrackPointExtension>
        </extensions>
      </trkpt>
      <trkpt lat="43.7675901688635349273681640625" lon="1.58606571145355701446533203125">
        <ele>155.600006103515625</ele>
        <time>2026-08-13T08:19:55.000Z</time>
        <extensions>
          <ns3:TrackPointExtension>
            <ns3:hr>77</ns3:hr>
            <ns3:cad>43</ns3:cad>
          </ns3:TrackPointExtension>
        </extensions>
      </trkpt>
      <trkpt lat="43.76758304424583911895751953125" lon="1.58606034703552722930908203125">
        <ele>155.8000030517578125</ele>
        <time>2026-08-13T08:19:56.000Z</time>
        <extensions>
          <ns3:TrackPointExtension>
            <ns3:hr>78</ns3:hr>
            <ns3:cad>42</ns3:cad>
          </ns3:TrackPointExtension>
        </extensions>
      </trkpt>
      <trkpt lat="43.7675817869603633880615234375" lon="1.5860567428171634674072265625">
        <ele>156</ele>
        <time>2026-08-13T08:19:57.000Z</time>
        <extensions>
          <ns3:TrackPointExtension>
            <ns3:hr>77</ns3:hr>
            <ns3:cad>41</ns3:cad>
          </ns3:TrackPointExtension>
        </extensions>
      </trkpt>
      <trkpt lat="43.7675713934004306793212890625" lon="1.58605045638978481292724609375">
        <ele>156</ele>
        <time>2026-08-13T08:19:58.000Z</time>
        <extensions>
          <ns3:TrackPointExtension>
            <ns3:hr>78</ns3:hr>
            <ns3:cad>41</ns3:cad>
          </ns3:TrackPointExtension>
        </extensions>
      </trkpt>
      <trkpt lat="43.7675683759152889251708984375" lon="1.5860473550856113433837890625">
        <ele>156.1999969482421875</ele>
        <time>2026-08-13T08:19:59.000Z</time>
        <extensions>
          <ns3:TrackPointExtension>
            <ns3:hr>78</ns3:hr>
            <ns3:cad>41</ns3:cad>
          </ns3:TrackPointExtension>
        </extensions>
      </trkpt>
      <trkpt lat="43.7675660289824008941650390625" lon="1.5860460139811038970947265625">
        <ele>156.1999969482421875</ele>
        <time>2026-08-13T08:20:00.000Z</time>
        <extensions>
          <ns3:TrackPointExtension>
            <ns3:hr>78</ns3:hr>
            <ns3:cad>41</ns3:cad>
          </ns3:TrackPointExtension>
        </extensions>
      </trkpt>
      <trkpt lat="43.7675563059747219085693359375" lon="1.5860356204211711883544921875">
        <ele>156.399993896484375</ele>
        <time>2026-08-13T08:20:01.000Z</time>
        <extensions>
          <ns3:TrackPointExtension>
            <ns3:hr>79</ns3:hr>
            <ns3:cad>41</ns3:cad>
          </ns3:TrackPointExtension>
        </extensions>
      </trkpt>
      <trkpt lat="43.76754918135702610015869140625" lon="1.58602849580347537994384765625">
        <ele>156.399993896484375</ele>
        <time>2026-08-13T08:20:02.000Z</time>
        <extensions>
          <ns3:TrackPointExtension>
            <ns3:hr>79</ns3:hr>
            <ns3:cad>41</ns3:cad>
          </ns3:TrackPointExtension>
        </extensions>
      </trkpt>
      <trkpt lat="43.7675462476909160614013671875" lon="1.58602413721382617950439453125">
        <ele>156.399993896484375</ele>
        <time>2026-08-13T08:20:03.000Z</time>
        <extensions>
          <ns3:TrackPointExtension>
            <ns3:hr>80</ns3:hr>
            <ns3:cad>44</ns3:cad>
          </ns3:TrackPointExtension>
        </extensions>
      </trkpt>
      <trkpt lat="43.7675408832728862762451171875" lon="1.586014665663242340087890625">
        <ele>156.600006103515625</ele>
        <time>2026-08-13T08:20:04.000Z</time>
        <extensions>
          <ns3:TrackPointExtension>
            <ns3:hr>80</ns3:hr>
            <ns3:cad>44</ns3:cad>
          </ns3:TrackPointExtension>
        </extensions>
      </trkpt>
      <trkpt lat="43.76753493212163448333740234375" lon="1.586003936827182769775390625">
        <ele>156.600006103515625</ele>
        <time>2026-08-13T08:20:05.000Z</time>
        <extensions>
          <ns3:TrackPointExtension>
            <ns3:hr>80</ns3:hr>
            <ns3:cad>44</ns3:cad>
          </ns3:TrackPointExtension>
        </extensions>
      </trkpt>
      <trkpt lat="43.767533004283905029296875" lon="1.58599563874304294586181640625">
        <ele>156.8000030517578125</ele>
        <time>2026-08-13T08:20:06.000Z</time>
        <extensions>
          <ns3:TrackPointExtension>
            <ns3:hr>80</ns3:hr>
            <ns3:cad>44</ns3:cad>
          </ns3:TrackPointExtension>
        </extensions>
      </trkpt>
      <trkpt lat="43.7675268016755580902099609375" lon="1.58597518689930438995361328125">
        <ele>156.8000030517578125</ele>
        <time>2026-08-13T08:20:07.000Z</time>
        <extensions>
          <ns3:TrackPointExtension>
            <ns3:hr>80</ns3:hr>
            <ns3:cad>78</ns3:cad>
          </ns3:TrackPointExtension>
        </extensions>
      </trkpt>
      <trkpt lat="43.767519928514957427978515625" lon="1.5859608538448810577392578125">
        <ele>157</ele>
        <time>2026-08-13T08:20:08.000Z</time>
        <extensions>
          <ns3:TrackPointExtension>
            <ns3:hr>81</ns3:hr>
            <ns3:cad>78</ns3:cad>
          </ns3:TrackPointExtension>
        </extensions>
      </trkpt>
      <trkpt lat="43.7675170786678791046142578125" lon="1.58595196902751922607421875">
        <ele>157</ele>
        <time>2026-08-13T08:20:09.000Z</time>
        <extensions>
          <ns3:TrackPointExtension>
            <ns3:hr>82</ns3:hr>
            <ns3:cad>79</ns3:cad>
          </ns3:TrackPointExtension>
        </extensions>
      </trkpt>
      <trkpt lat="43.76751028932631015777587890625" lon="1.58593453466892242431640625">
        <ele>157.1999969482421875</ele>
        <time>2026-08-13T08:20:10.000Z</time>
        <extensions>
          <ns3:TrackPointExtension>
            <ns3:hr>82</ns3:hr>
            <ns3:cad>79</ns3:cad>
          </ns3:TrackPointExtension>
        </extensions>
      </trkpt>
      <trkpt lat="43.76750492490828037261962890625" lon="1.58591886050999164581298828125">
        <ele>157.1999969482421875</ele>
        <time>2026-08-13T08:20:11.000Z</time>
        <extensions>
          <ns3:TrackPointExtension>
            <ns3:hr>83</ns3:hr>
            <ns3:cad>78</ns3:cad>
          </ns3:TrackPointExtension>
        </extensions>
      </trkpt>
      <trkpt lat="43.767502494156360626220703125" lon="1.585906036198139190673828125">
        <ele>157.1999969482421875</ele>
        <time>2026-08-13T08:20:12.000Z</time>
        <extensions>
          <ns3:TrackPointExtension>
            <ns3:hr>83</ns3:hr>
            <ns3:cad>78</ns3:cad>
          </ns3:TrackPointExtension>
        </extensions>
      </trkpt>
      <trkpt lat="43.76750157214701175689697265625" lon="1.585891284048557281494140625">
        <ele>157.399993896484375</ele>
        <time>2026-08-13T08:20:13.000Z</time>
        <extensions>
          <ns3:TrackPointExtension>
            <ns3:hr>86</ns3:hr>
            <ns3:cad>41</ns3:cad>
          </ns3:TrackPointExtension>
        </extensions>
      </trkpt>
      <trkpt lat="43.76749788410961627960205078125" lon="1.58587913028895854949951171875">
        <ele>157.399993896484375</ele>
        <time>2026-08-13T08:20:14.000Z</time>
        <extensions>
          <ns3:TrackPointExtension>
            <ns3:hr>88</ns3:hr>
            <ns3:cad>41</ns3:cad>
          </ns3:TrackPointExtension>
        </extensions>
      </trkpt>
      <trkpt lat="43.76749344170093536376953125" lon="1.58587007783353328704833984375">
        <ele>157.600006103515625</ele>
        <time>2026-08-13T08:20:15.000Z</time>
        <extensions>
          <ns3:TrackPointExtension>
            <ns3:hr>89</ns3:hr>
            <ns3:cad>41</ns3:cad>
          </ns3:TrackPointExtension>
        </extensions>
      </trkpt>
      <trkpt lat="43.767489083111286163330078125" lon="1.5858609415590763092041015625">
        <ele>157.600006103515625</ele>
        <time>2026-08-13T08:20:16.000Z</time>
        <extensions>
          <ns3:TrackPointExtension>
            <ns3:hr>90</ns3:hr>
            <ns3:cad>43</ns3:cad>
          </ns3:TrackPointExtension>
        </extensions>
      </trkpt>
      <trkpt lat="43.76747927628457546234130859375" lon="1.58584543503820896148681640625">
        <ele>157.8000030517578125</ele>
        <time>2026-08-13T08:20:17.000Z</time>
        <extensions>
          <ns3:TrackPointExtension>
            <ns3:hr>91</ns3:hr>
            <ns3:cad>43</ns3:cad>
          </ns3:TrackPointExtension>
        </extensions>
      </trkpt>
      <trkpt lat="43.76747374422848224639892578125" lon="1.58583520911633968353271484375">
        <ele>157.8000030517578125</ele>
        <time>2026-08-13T08:20:18.000Z</time>
        <extensions>
          <ns3:TrackPointExtension>
            <ns3:hr>92</ns3:hr>
            <ns3:cad>42</ns3:cad>
          </ns3:TrackPointExtension>
        </extensions>
      </trkpt>
      <trkpt lat="43.76747793518006801605224609375" lon="1.58582498319447040557861328125">
        <ele>158</ele>
        <time>2026-08-13T08:20:19.000Z</time>
        <extensions>
          <ns3:TrackPointExtension>
            <ns3:hr>94</ns3:hr>
            <ns3:cad>42</ns3:cad>
          </ns3:TrackPointExtension>
        </extensions>
      </trkpt>
      <trkpt lat="43.7674778513610363006591796875" lon="1.58580981194972991943359375">
        <ele>158</ele>
        <time>2026-08-13T08:20:20.000Z</time>
        <extensions>
          <ns3:TrackPointExtension>
            <ns3:hr>97</ns3:hr>
            <ns3:cad>42</ns3:cad>
          </ns3:TrackPointExtension>
        </extensions>
      </trkpt>
      <trkpt lat="43.7674768455326557159423828125" lon="1.58579505980014801025390625">
        <ele>158</ele>
        <time>2026-08-13T08:20:21.000Z</time>
        <extensions>
          <ns3:TrackPointExtension>
            <ns3:hr>100</ns3:hr>
            <ns3:cad>42</ns3:cad>
          </ns3:TrackPointExtension>
        </extensions>
      </trkpt>
      <trkpt lat="43.76747441478073596954345703125" lon="1.585786007344722747802734375">
        <ele>158</ele>
        <time>2026-08-13T08:20:22.000Z</time>
        <extensions>
          <ns3:TrackPointExtension>
            <ns3:hr>102</ns3:hr>
            <ns3:cad>0</ns3:cad>
          </ns3:TrackPointExtension>
        </extensions>
      </trkpt>
      <trkpt lat="43.767470978200435638427734375" lon="1.58577603287994861602783203125">
        <ele>158</ele>
        <time>2026-08-13T08:20:23.000Z</time>
        <extensions>
          <ns3:TrackPointExtension>
            <ns3:hr>103</ns3:hr>
            <ns3:cad>0</ns3:cad>
          </ns3:TrackPointExtension>
        </extensions>
      </trkpt>
      <trkpt lat="43.76746720634400844573974609375" lon="1.58576480112969875335693359375">
        <ele>158</ele>
        <time>2026-08-13T08:20:24.000Z</time>
        <extensions>
          <ns3:TrackPointExtension>
            <ns3:hr>103</ns3:hr>
            <ns3:cad>0</ns3:cad>
          </ns3:TrackPointExtension>
        </extensions>
      </trkpt>
      <trkpt lat="43.7674630992114543914794921875" lon="1.585751473903656005859375">
        <ele>158</ele>
        <time>2026-08-13T08:20:25.000Z</time>
        <extensions>
          <ns3:TrackPointExtension>
            <ns3:hr>104</ns3:hr>
            <ns3:cad>0</ns3:cad>
          </ns3:TrackPointExtension>
        </extensions>
      </trkpt>
      <trkpt lat="43.76746117137372493743896484375" lon="1.58574367873370647430419921875">
        <ele>158.1999969482421875</ele>
        <time>2026-08-13T08:20:26.000Z</time>
        <extensions>
          <ns3:TrackPointExtension>
            <ns3:hr>104</ns3:hr>
            <ns3:cad>0</ns3:cad>
          </ns3:TrackPointExtension>
        </extensions>
      </trkpt>
      <trkpt lat="43.76745815388858318328857421875" lon="1.58573093824088573455810546875">
        <ele>158.1999969482421875</ele>
        <time>2026-08-13T08:20:27.000Z</time>
        <extensions>
          <ns3:TrackPointExtension>
            <ns3:hr>105</ns3:hr>
            <ns3:cad>0</ns3:cad>
          </ns3:TrackPointExtension>
        </extensions>
      </trkpt>
      <trkpt lat="43.76745513640344142913818359375" lon="1.58571987412869930267333984375">
        <ele>158.1999969482421875</ele>
        <time>2026-08-13T08:20:28.000Z</time>
        <extensions>
          <ns3:TrackPointExtension>
            <ns3:hr>105</ns3:hr>
            <ns3:cad>0</ns3:cad>
          </ns3:TrackPointExtension>
        </extensions>
      </trkpt>
      <trkpt lat="43.7674547173082828521728515625" lon="1.58571501262485980987548828125">
        <ele>158.1999969482421875</ele>
        <time>2026-08-13T08:20:29.000Z</time>
        <extensions>
          <ns3:TrackPointExtension>
            <ns3:hr>105</ns3:hr>
            <ns3:cad>0</ns3:cad>
          </ns3:TrackPointExtension>
        </extensions>
      </trkpt>
      <trkpt lat="43.76744759269058704376220703125" lon="1.58570629544556140899658203125">
        <ele>158.399993896484375</ele>
        <time>2026-08-13T08:20:30.000Z</time>
        <extensions>
          <ns3:TrackPointExtension>
            <ns3:hr>105</ns3:hr>
            <ns3:cad>41</ns3:cad>
          </ns3:TrackPointExtension>
        </extensions>
      </trkpt>
      <trkpt lat="43.7674379535019397735595703125" lon="1.58569472841918468475341796875">
        <ele>158.399993896484375</ele>
        <time>2026-08-13T08:20:31.000Z</time>
        <extensions>
          <ns3:TrackPointExtension>
            <ns3:hr>106</ns3:hr>
            <ns3:cad>41</ns3:cad>
          </ns3:TrackPointExtension>
        </extensions>
      </trkpt>
      <trkpt lat="43.767432086169719696044921875" lon="1.5856855921447277069091796875">
        <ele>158.399993896484375</ele>
        <time>2026-08-13T08:20:32.000Z</time>
        <extensions>
          <ns3:TrackPointExtension>
            <ns3:hr>105</ns3:hr>
            <ns3:cad>42</ns3:cad>
          </ns3:TrackPointExtension>
        </extensions>
      </trkpt>
      <trkpt lat="43.76742563210427761077880859375" lon="1.58567494712769985198974609375">
        <ele>158.399993896484375</ele>
        <time>2026-08-13T08:20:33.000Z</time>
        <extensions>
          <ns3:TrackPointExtension>
            <ns3:hr>104</ns3:hr>
            <ns3:cad>42</ns3:cad>
          </ns3:TrackPointExtension>
        </extensions>
      </trkpt>
      <trkpt lat="43.7674198485910892486572265625" lon="1.58564996905624866485595703125">
        <ele>158.600006103515625</ele>
        <time>2026-08-13T08:20:34.000Z</time>
        <extensions>
          <ns3:TrackPointExtension>
            <ns3:hr>104</ns3:hr>
            <ns3:cad>42</ns3:cad>
          </ns3:TrackPointExtension>
        </extensions>
      </trkpt>
      <trkpt lat="43.76741725020110607147216796875" lon="1.5856416709721088409423828125">
        <ele>158.600006103515625</ele>
        <time>2026-08-13T08:20:35.000Z</time>
        <extensions>
          <ns3:TrackPointExtension>
            <ns3:hr>104</ns3:hr>
            <ns3:cad>41</ns3:cad>
          </ns3:TrackPointExtension>
        </extensions>
      </trkpt>
      <trkpt lat="43.76741523854434490203857421875" lon="1.585633791983127593994140625">
        <ele>158.600006103515625</ele>
        <time>2026-08-13T08:20:36.000Z</time>
        <extensions>
          <ns3:TrackPointExtension>
            <ns3:hr>103</ns3:hr>
            <ns3:cad>41</ns3:cad>
          </ns3:TrackPointExtension>
        </extensions>
      </trkpt>
      <trkpt lat="43.76741171814501285552978515625" lon="1.58561660908162593841552734375">
        <ele>158.600006103515625</ele>
        <time>2026-08-13T08:20:37.000Z</time>
        <extensions>
          <ns3:TrackPointExtension>
            <ns3:hr>102</ns3:hr>
            <ns3:cad>41</ns3:cad>
          </ns3:TrackPointExtension>
        </extensions>
      </trkpt>
      <trkpt lat="43.7674074433743953704833984375" lon="1.585602276027202606201171875">
        <ele>158.600006103515625</ele>
        <time>2026-08-13T08:20:38.000Z</time>
        <extensions>
          <ns3:TrackPointExtension>
            <ns3:hr>101</ns3:hr>
            <ns3:cad>41</ns3:cad>
          </ns3:TrackPointExtension>
        </extensions>
      </trkpt>
      <trkpt lat="43.76740635372698307037353515625" lon="1.5855964086949825286865234375">
        <ele>158.600006103515625</ele>
        <time>2026-08-13T08:20:39.000Z</time>
        <extensions>
          <ns3:TrackPointExtension>
            <ns3:hr>100</ns3:hr>
            <ns3:cad>41</ns3:cad>
          </ns3:TrackPointExtension>
        </extensions>
      </trkpt>
      <trkpt lat="43.76740098930895328521728515625" lon="1.58559330739080905914306640625">
        <ele>158.600006103515625</ele>
        <time>2026-08-13T08:20:40.000Z</time>
        <extensions>
          <ns3:TrackPointExtension>
            <ns3:hr>99</ns3:hr>
            <ns3:cad>41</ns3:cad>
          </ns3:TrackPointExtension>
        </extensions>
      </trkpt>
      <trkpt lat="43.7673900090157985687255859375" lon="1.5855793096125125885009765625">
        <ele>158.600006103515625</ele>
        <time>2026-08-13T08:20:41.000Z</time>
        <extensions>
          <ns3:TrackPointExtension>
            <ns3:hr>99</ns3:hr>
            <ns3:cad>41</ns3:cad>
          </ns3:TrackPointExtension>
        </extensions>
      </trkpt>
      <trkpt lat="43.76738321967422962188720703125" lon="1.5855679102241992950439453125">
        <ele>158.600006103515625</ele>
        <time>2026-08-13T08:20:42.000Z</time>
        <extensions>
          <ns3:TrackPointExtension>
            <ns3:hr>99</ns3:hr>
            <ns3:cad>42</ns3:cad>
          </ns3:TrackPointExtension>
        </extensions>
      </trkpt>
      <trkpt lat="43.7673796154558658599853515625" lon="1.5855596959590911865234375">
        <ele>158.8000030517578125</ele>
        <time>2026-08-13T08:20:43.000Z</time>
        <extensions>
          <ns3:TrackPointExtension>
            <ns3:hr>98</ns3:hr>
            <ns3:cad>42</ns3:cad>
          </ns3:TrackPointExtension>
        </extensions>
      </trkpt>
      <trkpt lat="43.76737232320010662078857421875" lon="1.5855494700372219085693359375">
        <ele>158.8000030517578125</ele>
        <time>2026-08-13T08:20:44.000Z</time>
        <extensions>
          <ns3:TrackPointExtension>
            <ns3:hr>98</ns3:hr>
            <ns3:cad>42</ns3:cad>
          </ns3:TrackPointExtension>
        </extensions>
      </trkpt>
      <trkpt lat="43.76736427657306194305419921875" lon="1.58553714863955974578857421875">
        <ele>158.8000030517578125</ele>
        <time>2026-08-13T08:20:45.000Z</time>
        <extensions>
          <ns3:TrackPointExtension>
            <ns3:hr>98</ns3:hr>
            <ns3:cad>43</ns3:cad>
          </ns3:TrackPointExtension>
        </extensions>
      </trkpt>
      <trkpt lat="43.76736125908792018890380859375" lon="1.585529856383800506591796875">
        <ele>158.8000030517578125</ele>
        <time>2026-08-13T08:20:46.000Z</time>
        <extensions>
          <ns3:TrackPointExtension>
            <ns3:hr>97</ns3:hr>
            <ns3:cad>43</ns3:cad>
          </ns3:TrackPointExtension>
        </extensions>
      </trkpt>
      <trkpt lat="43.76735991798341274261474609375" lon="1.58552147448062896728515625">
        <ele>158.8000030517578125</ele>
        <time>2026-08-13T08:20:47.000Z</time>
        <extensions>
          <ns3:TrackPointExtension>
            <ns3:hr>97</ns3:hr>
            <ns3:cad>43</ns3:cad>
          </ns3:TrackPointExtension>
        </extensions>
      </trkpt>
      <trkpt lat="43.7673531286418437957763671875" lon="1.58550697378814220428466796875">
        <ele>158.8000030517578125</ele>
        <time>2026-08-13T08:20:48.000Z</time>
        <extensions>
          <ns3:TrackPointExtension>
            <ns3:hr>97</ns3:hr>
            <ns3:cad>43</ns3:cad>
          </ns3:TrackPointExtension>
        </extensions>
      </trkpt>
      <trkpt lat="43.76734583638608455657958984375" lon="1.585496328771114349365234375">
        <ele>158.8000030517578125</ele>
        <time>2026-08-13T08:20:49.000Z</time>
        <extensions>
          <ns3:TrackPointExtension>
            <ns3:hr>97</ns3:hr>
            <ns3:cad>0</ns3:cad>
          </ns3:TrackPointExtension>
        </extensions>
      </trkpt>
      <trkpt lat="43.7673412263393402099609375" lon="1.58548467792570590972900390625">
        <ele>158.8000030517578125</ele>
        <time>2026-08-13T08:20:50.000Z</time>
        <extensions>
          <ns3:TrackPointExtension>
            <ns3:hr>96</ns3:hr>
            <ns3:cad>0</ns3:cad>
          </ns3:TrackPointExtension>
        </extensions>
      </trkpt>
      <trkpt lat="43.76733946613967418670654296875" lon="1.5854743681848049163818359375">
        <ele>159</ele>
        <time>2026-08-13T08:20:51.000Z</time>
        <extensions>
          <ns3:TrackPointExtension>
            <ns3:hr>96</ns3:hr>
            <ns3:cad>46</ns3:cad>
          </ns3:TrackPointExtension>
        </extensions>
      </trkpt>
      <trkpt lat="43.7673358619213104248046875" lon="1.5854609571397304534912109375">
        <ele>159</ele>
        <time>2026-08-13T08:20:52.000Z</time>
        <extensions>
          <ns3:TrackPointExtension>
            <ns3:hr>96</ns3:hr>
            <ns3:cad>46</ns3:cad>
          </ns3:TrackPointExtension>
        </extensions>
      </trkpt>
      <trkpt lat="43.7673320062458515167236328125" lon="1.58544176258146762847900390625">
        <ele>159</ele>
        <time>2026-08-13T08:20:53.000Z</time>
        <extensions>
          <ns3:TrackPointExtension>
            <ns3:hr>95</ns3:hr>
            <ns3:cad>46</ns3:cad>
          </ns3:TrackPointExtension>
        </extensions>
      </trkpt>
      <trkpt lat="43.7673283182084560394287109375" lon="1.5854336321353912353515625">
        <ele>159</ele>
        <time>2026-08-13T08:20:54.000Z</time>
        <extensions>
          <ns3:TrackPointExtension>
            <ns3:hr>94</ns3:hr>
            <ns3:cad>46</ns3:cad>
          </ns3:TrackPointExtension>
        </extensions>
      </trkpt>
      <trkpt lat="43.76732806675136089324951171875" lon="1.58542650751769542694091796875">
        <ele>159</ele>
        <time>2026-08-13T08:20:55.000Z</time>
        <extensions>
          <ns3:TrackPointExtension>
            <ns3:hr>94</ns3:hr>
            <ns3:cad>46</ns3:cad>
          </ns3:TrackPointExtension>
        </extensions>
      </trkpt>
      <trkpt lat="43.76732286997139453887939453125" lon="1.58541619777679443359375">
        <ele>159</ele>
        <time>2026-08-13T08:20:56.000Z</time>
        <extensions>
          <ns3:TrackPointExtension>
            <ns3:hr>93</ns3:hr>
            <ns3:cad>45</ns3:cad>
          </ns3:TrackPointExtension>
        </extensions>
      </trkpt>
      <trkpt lat="43.76731549389660358428955078125" lon="1.5854014456272125244140625">
        <ele>159</ele>
        <time>2026-08-13T08:20:57.000Z</time>
        <extensions>
          <ns3:TrackPointExtension>
            <ns3:hr>93</ns3:hr>
            <ns3:cad>45</ns3:cad>
          </ns3:TrackPointExtension>
        </extensions>
      </trkpt>
      <trkpt lat="43.7673105485737323760986328125" lon="1.5853928960859775543212890625">
        <ele>159</ele>
        <time>2026-08-13T08:20:58.000Z</time>
        <extensions>
          <ns3:TrackPointExtension>
            <ns3:hr>93</ns3:hr>
            <ns3:cad>45</ns3:cad>
          </ns3:TrackPointExtension>
        </extensions>
      </trkpt>
      <trkpt lat="43.767308704555034637451171875" lon="1.5853825025260448455810546875">
        <ele>159</ele>
        <time>2026-08-13T08:20:59.000Z</time>
        <extensions>
          <ns3:TrackPointExtension>
            <ns3:hr>92</ns3:hr>
            <ns3:cad>45</ns3:cad>
          </ns3:TrackPointExtension>
        </extensions>
      </trkpt>
      <trkpt lat="43.7673048488795757293701171875" lon="1.5853714384138584136962890625">
        <ele>159</ele>
        <time>2026-08-13T08:21:00.000Z</time>
        <extensions>
          <ns3:TrackPointExtension>
            <ns3:hr>92</ns3:hr>
            <ns3:cad>45</ns3:cad>
          </ns3:TrackPointExtension>
        </extensions>
      </trkpt>
      <trkpt lat="43.7672981433570384979248046875" lon="1.58535744063556194305419921875">
        <ele>159</ele>
        <time>2026-08-13T08:21:01.000Z</time>
        <extensions>
          <ns3:TrackPointExtension>
            <ns3:hr>91</ns3:hr>
            <ns3:cad>45</ns3:cad>
          </ns3:TrackPointExtension>
        </extensions>
      </trkpt>
      <trkpt lat="43.76729135401546955108642578125" lon="1.58534754998981952667236328125">
        <ele>159</ele>
        <time>2026-08-13T08:21:02.000Z</time>
        <extensions>
          <ns3:TrackPointExtension>
            <ns3:hr>91</ns3:hr>
            <ns3:cad>46</ns3:cad>
          </ns3:TrackPointExtension>
        </extensions>
      </trkpt>
      <trkpt lat="43.7672843970358371734619140625" lon="1.5853301994502544403076171875">
        <ele>159</ele>
        <time>2026-08-13T08:21:03.000Z</time>
        <extensions>
          <ns3:TrackPointExtension>
            <ns3:hr>90</ns3:hr>
            <ns3:cad>46</ns3:cad>
          </ns3:TrackPointExtension>
        </extensions>
      </trkpt>
      <trkpt lat="43.76728096045553684234619140625" lon="1.5853201411664485931396484375">
        <ele>159</ele>
        <time>2026-08-13T08:21:04.000Z</time>
        <extensions>
          <ns3:TrackPointExtension>
            <ns3:hr>89</ns3:hr>
            <ns3:cad>46</ns3:cad>
          </ns3:TrackPointExtension>
        </extensions>
      </trkpt>
      <trkpt lat="43.7672723270952701568603515625" lon="1.58530153334140777587890625">
        <ele>159</ele>
        <time>2026-08-13T08:21:05.000Z</time>
        <extensions>
          <ns3:TrackPointExtension>
            <ns3:hr>88</ns3:hr>
            <ns3:cad>46</ns3:cad>
          </ns3:TrackPointExtension>
        </extensions>
      </trkpt>
      <trkpt lat="43.7672676332294940948486328125" lon="1.5852886252105236053466796875">
        <ele>159</ele>
        <time>2026-08-13T08:21:06.000Z</time>
        <extensions>
          <ns3:TrackPointExtension>
            <ns3:hr>88</ns3:hr>
            <ns3:cad>45</ns3:cad>
          </ns3:TrackPointExtension>
        </extensions>
      </trkpt>
      <trkpt lat="43.76726553775370121002197265625" lon="1.58528703264892101287841796875">
        <ele>159.1999969482421875</ele>
        <time>2026-08-13T08:21:07.000Z</time>
        <extensions>
          <ns3:TrackPointExtension>
            <ns3:hr>88</ns3:hr>
            <ns3:cad>0</ns3:cad>
          </ns3:TrackPointExtension>
        </extensions>
      </trkpt>
      <trkpt lat="43.7672649510204792022705078125" lon="1.58527898602187633514404296875">
        <ele>159</ele>
        <time>2026-08-13T08:21:08.000Z</time>
        <extensions>
          <ns3:TrackPointExtension>
            <ns3:hr>87</ns3:hr>
            <ns3:cad>0</ns3:cad>
          </ns3:TrackPointExtension>
        </extensions>
      </trkpt>
      <trkpt lat="43.76726117916405200958251953125" lon="1.58526532351970672607421875">
        <ele>159</ele>
        <time>2026-08-13T08:21:09.000Z</time>
        <extensions>
          <ns3:TrackPointExtension>
            <ns3:hr>87</ns3:hr>
            <ns3:cad>0</ns3:cad>
          </ns3:TrackPointExtension>
        </extensions>
      </trkpt>
      <trkpt lat="43.7672575749456882476806640625" lon="1.58525736071169376373291015625">
        <ele>159</ele>
        <time>2026-08-13T08:21:10.000Z</time>
        <extensions>
          <ns3:TrackPointExtension>
            <ns3:hr>87</ns3:hr>
            <ns3:cad>0</ns3:cad>
          </ns3:TrackPointExtension>
        </extensions>
      </trkpt>
      <trkpt lat="43.767255060374736785888671875" lon="1.58524964936077594757080078125">
        <ele>159</ele>
        <time>2026-08-13T08:21:11.000Z</time>
        <extensions>
          <ns3:TrackPointExtension>
            <ns3:hr>87</ns3:hr>
            <ns3:cad>0</ns3:cad>
          </ns3:TrackPointExtension>
        </extensions>
      </trkpt>
      <trkpt lat="43.7672552280128002166748046875" lon="1.5852443687617778778076171875">
        <ele>159</ele>
        <time>2026-08-13T08:21:12.000Z</time>
        <extensions>
          <ns3:TrackPointExtension>
            <ns3:hr>87</ns3:hr>
            <ns3:cad>0</ns3:cad>
          </ns3:TrackPointExtension>
        </extensions>
      </trkpt>
      <trkpt lat="43.76725849695503711700439453125" lon="1.58524386584758758544921875">
        <ele>159</ele>
        <time>2026-08-13T08:21:13.000Z</time>
        <extensions>
          <ns3:TrackPointExtension>
            <ns3:hr>87</ns3:hr>
            <ns3:cad>0</ns3:cad>
          </ns3:TrackPointExtension>
        </extensions>
      </trkpt>
      <trkpt lat="43.7672605924308300018310546875" lon="1.58524462021887302398681640625">
        <ele>158.8000030517578125</ele>
        <time>2026-08-13T08:21:14.000Z</time>
        <extensions>
          <ns3:TrackPointExtension>
            <ns3:hr>87</ns3:hr>
            <ns3:cad>0</ns3:cad>
          </ns3:TrackPointExtension>
        </extensions>
      </trkpt>
      <trkpt lat="43.76726017333567142486572265625" lon="1.58524009399116039276123046875">
        <ele>159</ele>
        <time>2026-08-13T08:21:15.000Z</time>
        <extensions>
          <ns3:TrackPointExtension>
            <ns3:hr>87</ns3:hr>
            <ns3:cad>0</ns3:cad>
          </ns3:TrackPointExtension>
        </extensions>
      </trkpt>
      <trkpt lat="43.767264783382415771484375" lon="1.58523581922054290771484375">
        <ele>159</ele>
        <time>2026-08-13T08:21:16.000Z</time>
        <extensions>
          <ns3:TrackPointExtension>
            <ns3:hr>87</ns3:hr>
            <ns3:cad>0</ns3:cad>
          </ns3:TrackPointExtension>
        </extensions>
      </trkpt>
      <trkpt lat="43.76726218499243259429931640625" lon="1.58523892052471637725830078125">
        <ele>159</ele>
        <time>2026-08-13T08:21:17.000Z</time>
        <extensions>
          <ns3:TrackPointExtension>
            <ns3:hr>87</ns3:hr>
            <ns3:cad>0</ns3:cad>
          </ns3:TrackPointExtension>
        </extensions>
      </trkpt>
      <trkpt lat="43.7672622688114643096923828125" lon="1.58524059690535068511962890625">
        <ele>159</ele>
        <time>2026-08-13T08:21:18.000Z</time>
        <extensions>
          <ns3:TrackPointExtension>
            <ns3:hr>87</ns3:hr>
            <ns3:cad>0</ns3:cad>
          </ns3:TrackPointExtension>
        </extensions>
      </trkpt>
      <trkpt lat="43.76726369373500347137451171875" lon="1.58524227328598499298095703125">
        <ele>159</ele>
        <time>2026-08-13T08:21:19.000Z</time>
        <extensions>
          <ns3:TrackPointExtension>
            <ns3:hr>86</ns3:hr>
            <ns3:cad>0</ns3:cad>
          </ns3:TrackPointExtension>
        </extensions>
      </trkpt>
      <trkpt lat="43.7672639451920986175537109375" lon="1.58524227328598499298095703125">
        <ele>159</ele>
        <time>2026-08-13T08:21:20.000Z</time>
        <extensions>
          <ns3:TrackPointExtension>
            <ns3:hr>86</ns3:hr>
            <ns3:cad>0</ns3:cad>
          </ns3:TrackPointExtension>
        </extensions>
      </trkpt>
      <trkpt lat="43.7672639451920986175537109375" lon="1.58524227328598499298095703125">
        <ele>159</ele>
        <time>2026-08-13T08:21:21.000Z</time>
        <extensions>
          <ns3:TrackPointExtension>
            <ns3:hr>86</ns3:hr>
            <ns3:cad>0</ns3:cad>
          </ns3:TrackPointExtension>
        </extensions>
      </trkpt>
      <trkpt lat="43.7672639451920986175537109375" lon="1.58524227328598499298095703125">
        <ele>159</ele>
        <time>2026-08-13T08:21:22.000Z</time>
        <extensions>
          <ns3:TrackPointExtension>
            <ns3:hr>86</ns3:hr>
            <ns3:cad>0</ns3:cad>
          </ns3:TrackPointExtension>
        </extensions>
      </trkpt>
      <trkpt lat="43.7672639451920986175537109375" lon="1.58524227328598499298095703125">
        <ele>159.1999969482421875</ele>
        <time>2026-08-13T08:21:23.000Z</time>
        <extensions>
          <ns3:TrackPointExtension>
            <ns3:hr>86</ns3:hr>
            <ns3:cad>0</ns3:cad>
          </ns3:TrackPointExtension>
        </extensions>
      </trkpt>
      <trkpt lat="43.7672639451920986175537109375" lon="1.58524227328598499298095703125">
        <ele>159.1999969482421875</ele>
        <time>2026-08-13T08:21:24.000Z</time>
        <extensions>
          <ns3:TrackPointExtension>
            <ns3:hr>86</ns3:hr>
            <ns3:cad>0</ns3:cad>
          </ns3:TrackPointExtension>
        </extensions>
      </trkpt>
      <trkpt lat="43.7672639451920986175537109375" lon="1.58524227328598499298095703125">
        <ele>159.399993896484375</ele>
        <time>2026-08-13T08:21:25.000Z</time>
        <extensions>
          <ns3:TrackPointExtension>
            <ns3:hr>86</ns3:hr>
            <ns3:cad>0</ns3:cad>
          </ns3:TrackPointExtension>
        </extensions>
      </trkpt>
      <trkpt lat="43.7672639451920986175537109375" lon="1.58524227328598499298095703125">
        <ele>159.399993896484375</ele>
        <time>2026-08-13T08:21:26.000Z</time>
        <extensions>
          <ns3:TrackPointExtension>
            <ns3:hr>86</ns3:hr>
            <ns3:cad>0</ns3:cad>
          </ns3:TrackPointExtension>
        </extensions>
      </trkpt>
      <trkpt lat="43.7672639451920986175537109375" lon="1.58524227328598499298095703125">
        <ele>159.399993896484375</ele>
        <time>2026-08-13T08:21:27.000Z</time>
        <extensions>
          <ns3:TrackPointExtension>
            <ns3:hr>85</ns3:hr>
            <ns3:cad>0</ns3:cad>
          </ns3:TrackPointExtension>
        </extensions>
      </trkpt>
      <trkpt lat="43.7672639451920986175537109375" lon="1.58524227328598499298095703125">
        <ele>159.399993896484375</ele>
        <time>2026-08-13T08:21:28.000Z</time>
        <extensions>
          <ns3:TrackPointExtension>
            <ns3:hr>85</ns3:hr>
            <ns3:cad>0</ns3:cad>
          </ns3:TrackPointExtension>
        </extensions>
      </trkpt>
      <trkpt lat="43.7672639451920986175537109375" lon="1.58524227328598499298095703125">
        <ele>159.399993896484375</ele>
        <time>2026-08-13T08:21:29.000Z</time>
        <extensions>
          <ns3:TrackPointExtension>
            <ns3:hr>84</ns3:hr>
            <ns3:cad>0</ns3:cad>
          </ns3:TrackPointExtension>
        </extensions>
      </trkpt>
      <trkpt lat="43.7672639451920986175537109375" lon="1.58524227328598499298095703125">
        <ele>159.399993896484375</ele>
        <time>2026-08-13T08:21:30.000Z</time>
        <extensions>
          <ns3:TrackPointExtension>
            <ns3:hr>84</ns3:hr>
            <ns3:cad>0</ns3:cad>
          </ns3:TrackPointExtension>
        </extensions>
      </trkpt>
      <trkpt lat="43.7672639451920986175537109375" lon="1.58524227328598499298095703125">
        <ele>159.399993896484375</ele>
        <time>2026-08-13T08:21:31.000Z</time>
        <extensions>
          <ns3:TrackPointExtension>
            <ns3:hr>81</ns3:hr>
            <ns3:cad>0</ns3:cad>
          </ns3:TrackPointExtension>
        </extensions>
      </trkpt>
      <trkpt lat="43.7672639451920986175537109375" lon="1.58524227328598499298095703125">
        <ele>159.1999969482421875</ele>
        <time>2026-08-13T08:21:32.000Z</time>
        <extensions>
          <ns3:TrackPointExtension>
            <ns3:hr>75</ns3:hr>
            <ns3:cad>0</ns3:cad>
          </ns3:TrackPointExtension>
        </extensions>
      </trkpt>
      <trkpt lat="43.7672639451920986175537109375" lon="1.58524227328598499298095703125">
        <ele>159.1999969482421875</ele>
        <time>2026-08-13T08:21:33.000Z</time>
        <extensions>
          <ns3:TrackPointExtension>
            <ns3:hr>74</ns3:hr>
            <ns3:cad>0</ns3:cad>
          </ns3:TrackPointExtension>
        </extensions>
      </trkpt>
      <trkpt lat="43.7672639451920986175537109375" lon="1.58524227328598499298095703125">
        <ele>159.1999969482421875</ele>
        <time>2026-08-13T08:21:34.000Z</time>
        <extensions>
          <ns3:TrackPointExtension>
            <ns3:hr>74</ns3:hr>
            <ns3:cad>0</ns3:cad>
          </ns3:TrackPointExtension>
        </extensions>
      </trkpt>
      <trkpt lat="43.7672639451920986175537109375" lon="1.58524227328598499298095703125">
        <ele>159.399993896484375</ele>
        <time>2026-08-13T08:21:35.000Z</time>
        <extensions>
          <ns3:TrackPointExtension>
            <ns3:hr>75</ns3:hr>
            <ns3:cad>0</ns3:cad>
          </ns3:TrackPointExtension>
        </extensions>
      </trkpt>
      <trkpt lat="43.7672639451920986175537109375" lon="1.58524227328598499298095703125">
        <ele>159.399993896484375</ele>
        <time>2026-08-13T08:21:36.000Z</time>
        <extensions>
          <ns3:TrackPointExtension>
            <ns3:hr>75</ns3:hr>
            <ns3:cad>0</ns3:cad>
          </ns3:TrackPointExtension>
        </extensions>
      </trkpt>
      <trkpt lat="43.7672639451920986175537109375" lon="1.58524227328598499298095703125">
        <ele>159.399993896484375</ele>
        <time>2026-08-13T08:21:37.000Z</time>
        <extensions>
          <ns3:TrackPointExtension>
            <ns3:hr>75</ns3:hr>
            <ns3:cad>0</ns3:cad>
          </ns3:TrackPointExtension>
        </extensions>
      </trkpt>
      <trkpt lat="43.7672639451920986175537109375" lon="1.58524227328598499298095703125">
        <ele>159.399993896484375</ele>
        <time>2026-08-13T08:21:38.000Z</time>
        <extensions>
          <ns3:TrackPointExtension>
            <ns3:hr>75</ns3:hr>
            <ns3:cad>0</ns3:cad>
          </ns3:TrackPointExtension>
        </extensions>
      </trkpt>
      <trkpt lat="43.7672639451920986175537109375" lon="1.58524227328598499298095703125">
        <ele>159.399993896484375</ele>
        <time>2026-08-13T08:21:39.000Z</time>
        <extensions>
          <ns3:TrackPointExtension>
            <ns3:hr>75</ns3:hr>
            <ns3:cad>0</ns3:cad>
          </ns3:TrackPointExtension>
        </extensions>
      </trkpt>
      <trkpt lat="43.7672639451920986175537109375" lon="1.58524227328598499298095703125">
        <ele>159.399993896484375</ele>
        <time>2026-08-13T08:21:40.000Z</time>
        <extensions>
          <ns3:TrackPointExtension>
            <ns3:hr>75</ns3:hr>
            <ns3:cad>0</ns3:cad>
          </ns3:TrackPointExtension>
        </extensions>
      </trkpt>
      <trkpt lat="43.7672639451920986175537109375" lon="1.58524227328598499298095703125">
        <ele>159.399993896484375</ele>
        <time>2026-08-13T08:21:41.000Z</time>
        <extensions>
          <ns3:TrackPointExtension>
            <ns3:hr>74</ns3:hr>
            <ns3:cad>0</ns3:cad>
          </ns3:TrackPointExtension>
        </extensions>
      </trkpt>
      <trkpt lat="43.7672639451920986175537109375" lon="1.58524227328598499298095703125">
        <ele>159.399993896484375</ele>
        <time>2026-08-13T08:21:42.000Z</time>
        <extensions>
          <ns3:TrackPointExtension>
            <ns3:hr>73</ns3:hr>
            <ns3:cad>0</ns3:cad>
          </ns3:TrackPointExtension>
        </extensions>
      </trkpt>
      <trkpt lat="43.7672639451920986175537109375" lon="1.58524227328598499298095703125">
        <ele>159.399993896484375</ele>
        <time>2026-08-13T08:21:43.000Z</time>
        <extensions>
          <ns3:TrackPointExtension>
            <ns3:hr>71</ns3:hr>
            <ns3:cad>0</ns3:cad>
          </ns3:TrackPointExtension>
        </extensions>
      </trkpt>
      <trkpt lat="43.7672639451920986175537109375" lon="1.58524227328598499298095703125">
        <ele>159.399993896484375</ele>
        <time>2026-08-13T08:21:44.000Z</time>
        <extensions>
          <ns3:TrackPointExtension>
            <ns3:hr>70</ns3:hr>
            <ns3:cad>0</ns3:cad>
          </ns3:TrackPointExtension>
        </extensions>
      </trkpt>
      <trkpt lat="43.7672639451920986175537109375" lon="1.58524227328598499298095703125">
        <ele>159.399993896484375</ele>
        <time>2026-08-13T08:21:45.000Z</time>
        <extensions>
          <ns3:TrackPointExtension>
            <ns3:hr>69</ns3:hr>
            <ns3:cad>0</ns3:cad>
          </ns3:TrackPointExtension>
        </extensions>
      </trkpt>
      <trkpt lat="43.7672639451920986175537109375" lon="1.58524227328598499298095703125">
        <ele>159.399993896484375</ele>
        <time>2026-08-13T08:21:46.000Z</time>
        <extensions>
          <ns3:TrackPointExtension>
            <ns3:hr>68</ns3:hr>
            <ns3:cad>0</ns3:cad>
          </ns3:TrackPointExtension>
        </extensions>
      </trkpt>
      <trkpt lat="43.7672639451920986175537109375" lon="1.58524227328598499298095703125">
        <ele>159.399993896484375</ele>
        <time>2026-08-13T08:21:47.000Z</time>
        <extensions>
          <ns3:TrackPointExtension>
            <ns3:hr>68</ns3:hr>
            <ns3:cad>0</ns3:cad>
          </ns3:TrackPointExtension>
        </extensions>
      </trkpt>
      <trkpt lat="43.7672639451920986175537109375" lon="1.58524227328598499298095703125">
        <ele>159.399993896484375</ele>
        <time>2026-08-13T08:21:48.000Z</time>
        <extensions>
          <ns3:TrackPointExtension>
            <ns3:hr>69</ns3:hr>
            <ns3:cad>0</ns3:cad>
          </ns3:TrackPointExtension>
        </extensions>
      </trkpt>
      <trkpt lat="43.7672639451920986175537109375" lon="1.58524227328598499298095703125">
        <ele>159.399993896484375</ele>
        <time>2026-08-13T08:21:49.000Z</time>
        <extensions>
          <ns3:TrackPointExtension>
            <ns3:hr>69</ns3:hr>
            <ns3:cad>0</ns3:cad>
          </ns3:TrackPointExtension>
        </extensions>
      </trkpt>
      <trkpt lat="43.7672639451920986175537109375" lon="1.58524227328598499298095703125">
        <ele>159.399993896484375</ele>
        <time>2026-08-13T08:21:50.000Z</time>
        <extensions>
          <ns3:TrackPointExtension>
            <ns3:hr>70</ns3:hr>
            <ns3:cad>0</ns3:cad>
          </ns3:TrackPointExtension>
        </extensions>
      </trkpt>
      <trkpt lat="43.7672639451920986175537109375" lon="1.58524227328598499298095703125">
        <ele>159.399993896484375</ele>
        <time>2026-08-13T08:21:51.000Z</time>
        <extensions>
          <ns3:TrackPointExtension>
            <ns3:hr>70</ns3:hr>
            <ns3:cad>0</ns3:cad>
          </ns3:TrackPointExtension>
        </extensions>
      </trkpt>
      <trkpt lat="43.7672639451920986175537109375" lon="1.58524227328598499298095703125">
        <ele>159.399993896484375</ele>
        <time>2026-08-13T08:21:52.000Z</time>
        <extensions>
          <ns3:TrackPointExtension>
            <ns3:hr>72</ns3:hr>
            <ns3:cad>0</ns3:cad>
          </ns3:TrackPointExtension>
        </extensions>
      </trkpt>
      <trkpt lat="43.7672639451920986175537109375" lon="1.58524227328598499298095703125">
        <ele>159.399993896484375</ele>
        <time>2026-08-13T08:21:53.000Z</time>
        <extensions>
          <ns3:TrackPointExtension>
            <ns3:hr>73</ns3:hr>
            <ns3:cad>0</ns3:cad>
          </ns3:TrackPointExtension>
        </extensions>
      </trkpt>
      <trkpt lat="43.767259418964385986328125" lon="1.58524520695209503173828125">
        <ele>159.399993896484375</ele>
        <time>2026-08-13T08:21:54.000Z</time>
        <extensions>
          <ns3:TrackPointExtension>
            <ns3:hr>73</ns3:hr>
            <ns3:cad>0</ns3:cad>
          </ns3:TrackPointExtension>
        </extensions>
      </trkpt>
      <trkpt lat="43.76725028268992900848388671875" lon="1.58524143509566783905029296875">
        <ele>159.1999969482421875</ele>
        <time>2026-08-13T08:21:55.000Z</time>
        <extensions>
          <ns3:TrackPointExtension>
            <ns3:hr>72</ns3:hr>
            <ns3:cad>0</ns3:cad>
          </ns3:TrackPointExtension>
        </extensions>
      </trkpt>
      <trkpt lat="43.7672357819974422454833984375" lon="1.58523405902087688446044921875">
        <ele>159.1999969482421875</ele>
        <time>2026-08-13T08:21:56.000Z</time>
        <extensions>
          <ns3:TrackPointExtension>
            <ns3:hr>72</ns3:hr>
            <ns3:cad>0</ns3:cad>
          </ns3:TrackPointExtension>
        </extensions>
      </trkpt>
      <trkpt lat="43.76722295768558979034423828125" lon="1.585217379033565521240234375">
        <ele>159</ele>
        <time>2026-08-13T08:21:57.000Z</time>
        <extensions>
          <ns3:TrackPointExtension>
            <ns3:hr>72</ns3:hr>
            <ns3:cad>0</ns3:cad>
          </ns3:TrackPointExtension>
        </extensions>
      </trkpt>
      <trkpt lat="43.76721675507724285125732421875" lon="1.58520472235977649688720703125">
        <ele>159</ele>
        <time>2026-08-13T08:21:58.000Z</time>
        <extensions>
          <ns3:TrackPointExtension>
            <ns3:hr>72</ns3:hr>
            <ns3:cad>0</ns3:cad>
          </ns3:TrackPointExtension>
        </extensions>
      </trkpt>
      <trkpt lat="43.7672069482505321502685546875" lon="1.585187874734401702880859375">
        <ele>158.8000030517578125</ele>
        <time>2026-08-13T08:21:59.000Z</time>
        <extensions>
          <ns3:TrackPointExtension>
            <ns3:hr>72</ns3:hr>
            <ns3:cad>47</ns3:cad>
          </ns3:TrackPointExtension>
        </extensions>
      </trkpt>
      <trkpt lat="43.7671978957951068878173828125" lon="1.58517538569867610931396484375">
        <ele>158.8000030517578125</ele>
        <time>2026-08-13T08:22:00.000Z</time>
        <extensions>
          <ns3:TrackPointExtension>
            <ns3:hr>72</ns3:hr>
            <ns3:cad>47</ns3:cad>
          </ns3:TrackPointExtension>
        </extensions>
      </trkpt>
      <trkpt lat="43.767190016806125640869140625" lon="1.58516197465360164642333984375">
        <ele>158.8000030517578125</ele>
        <time>2026-08-13T08:22:01.000Z</time>
        <extensions>
          <ns3:TrackPointExtension>
            <ns3:hr>72</ns3:hr>
            <ns3:cad>47</ns3:cad>
          </ns3:TrackPointExtension>
        </extensions>
      </trkpt>
      <trkpt lat="43.7671829760074615478515625" lon="1.5851484797894954681396484375">
        <ele>158.8000030517578125</ele>
        <time>2026-08-13T08:22:02.000Z</time>
        <extensions>
          <ns3:TrackPointExtension>
            <ns3:hr>73</ns3:hr>
            <ns3:cad>47</ns3:cad>
          </ns3:TrackPointExtension>
        </extensions>
      </trkpt>
      <trkpt lat="43.76717652194201946258544921875" lon="1.5851333923637866973876953125">
        <ele>158.8000030517578125</ele>
        <time>2026-08-13T08:22:03.000Z</time>
        <extensions>
          <ns3:TrackPointExtension>
            <ns3:hr>72</ns3:hr>
            <ns3:cad>50</ns3:cad>
          </ns3:TrackPointExtension>
        </extensions>
      </trkpt>
      <trkpt lat="43.76716814003884792327880859375" lon="1.5851146169006824493408203125">
        <ele>158.8000030517578125</ele>
        <time>2026-08-13T08:22:04.000Z</time>
        <extensions>
          <ns3:TrackPointExtension>
            <ns3:hr>72</ns3:hr>
            <ns3:cad>51</ns3:cad>
          </ns3:TrackPointExtension>
        </extensions>
      </trkpt>
      <trkpt lat="43.76716109924018383026123046875" lon="1.58509558998048305511474609375">
        <ele>158.8000030517578125</ele>
        <time>2026-08-13T08:22:05.000Z</time>
        <extensions>
          <ns3:TrackPointExtension>
            <ns3:hr>72</ns3:hr>
            <ns3:cad>52</ns3:cad>
          </ns3:TrackPointExtension>
        </extensions>
      </trkpt>
      <trkpt lat="43.7671593390405178070068359375" lon="1.5850807540118694305419921875">
        <ele>158.8000030517578125</ele>
        <time>2026-08-13T08:22:06.000Z</time>
        <extensions>
          <ns3:TrackPointExtension>
            <ns3:hr>72</ns3:hr>
            <ns3:cad>52</ns3:cad>
          </ns3:TrackPointExtension>
        </extensions>
      </trkpt>
      <trkpt lat="43.767152465879917144775390625" lon="1.58506306819617748260498046875">
        <ele>158.8000030517578125</ele>
        <time>2026-08-13T08:22:07.000Z</time>
        <extensions>
          <ns3:TrackPointExtension>
            <ns3:hr>72</ns3:hr>
            <ns3:cad>53</ns3:cad>
          </ns3:TrackPointExtension>
        </extensions>
      </trkpt>
      <trkpt lat="43.7671482749283313751220703125" lon="1.58505066297948360443115234375">
        <ele>158.8000030517578125</ele>
        <time>2026-08-13T08:22:08.000Z</time>
        <extensions>
          <ns3:TrackPointExtension>
            <ns3:hr>73</ns3:hr>
            <ns3:cad>53</ns3:cad>
          </ns3:TrackPointExtension>
        </extensions>
      </trkpt>
      <trkpt lat="43.767144419252872467041015625" lon="1.58503708429634571075439453125">
        <ele>158.8000030517578125</ele>
        <time>2026-08-13T08:22:09.000Z</time>
        <extensions>
          <ns3:TrackPointExtension>
            <ns3:hr>76</ns3:hr>
            <ns3:cad>53</ns3:cad>
          </ns3:TrackPointExtension>
        </extensions>
      </trkpt>
      <trkpt lat="43.7671427428722381591796875" lon="1.5850274451076984405517578125">
        <ele>158.8000030517578125</ele>
        <time>2026-08-13T08:22:10.000Z</time>
        <extensions>
          <ns3:TrackPointExtension>
            <ns3:hr>80</ns3:hr>
            <ns3:cad>52</ns3:cad>
          </ns3:TrackPointExtension>
        </extensions>
      </trkpt>
      <trkpt lat="43.76714115031063556671142578125" lon="1.58501990139484405517578125">
        <ele>158.8000030517578125</ele>
        <time>2026-08-13T08:22:11.000Z</time>
        <extensions>
          <ns3:TrackPointExtension>
            <ns3:hr>80</ns3:hr>
            <ns3:cad>51</ns3:cad>
          </ns3:TrackPointExtension>
        </extensions>
      </trkpt>
      <trkpt lat="43.7671392224729061126708984375" lon="1.58501042984426021575927734375">
        <ele>158.8000030517578125</ele>
        <time>2026-08-13T08:22:12.000Z</time>
        <extensions>
          <ns3:TrackPointExtension>
            <ns3:hr>80</ns3:hr>
            <ns3:cad>0</ns3:cad>
          </ns3:TrackPointExtension>
        </extensions>
      </trkpt>
      <trkpt lat="43.767141401767730712890625" lon="1.58500925637781620025634765625">
        <ele>158.8000030517578125</ele>
        <time>2026-08-13T08:22:13.000Z</time>
        <extensions>
          <ns3:TrackPointExtension>
            <ns3:hr>80</ns3:hr>
            <ns3:cad>0</ns3:cad>
          </ns3:TrackPointExtension>
        </extensions>
      </trkpt>
      <trkpt lat="43.76714400015771389007568359375" lon="1.58501227386295795440673828125">
        <ele>158.8000030517578125</ele>
        <time>2026-08-13T08:22:14.000Z</time>
        <extensions>
          <ns3:TrackPointExtension>
            <ns3:hr>81</ns3:hr>
            <ns3:cad>0</ns3:cad>
          </ns3:TrackPointExtension>
        </extensions>
      </trkpt>
      <trkpt lat="43.76714567653834819793701171875" lon="1.58501260913908481597900390625">
        <ele>158.8000030517578125</ele>
        <time>2026-08-13T08:22:15.000Z</time>
        <extensions>
          <ns3:TrackPointExtension>
            <ns3:hr>80</ns3:hr>
            <ns3:cad>0</ns3:cad>
          </ns3:TrackPointExtension>
        </extensions>
      </trkpt>
      <trkpt lat="43.7671465985476970672607421875" lon="1.58501663245260715484619140625">
        <ele>158.8000030517578125</ele>
        <time>2026-08-13T08:22:16.000Z</time>
        <extensions>
          <ns3:TrackPointExtension>
            <ns3:hr>79</ns3:hr>
            <ns3:cad>0</ns3:cad>
          </ns3:TrackPointExtension>
        </extensions>
      </trkpt>
      <trkpt lat="43.767149113118648529052734375" lon="1.58502660691738128662109375">
        <ele>158.8000030517578125</ele>
        <time>2026-08-13T08:22:17.000Z</time>
        <extensions>
          <ns3:TrackPointExtension>
            <ns3:hr>76</ns3:hr>
            <ns3:cad>0</ns3:cad>
          </ns3:TrackPointExtension>
        </extensions>
      </trkpt>
      <trkpt lat="43.76714969985187053680419921875" lon="1.5850267745554447174072265625">
        <ele>158.8000030517578125</ele>
        <time>2026-08-13T08:22:18.000Z</time>
        <extensions>
          <ns3:TrackPointExtension>
            <ns3:hr>76</ns3:hr>
            <ns3:cad>0</ns3:cad>
          </ns3:TrackPointExtension>
        </extensions>
      </trkpt>
      <trkpt lat="43.7671509571373462677001953125" lon="1.58502819947898387908935546875">
        <ele>159</ele>
        <time>2026-08-13T08:22:19.000Z</time>
        <extensions>
          <ns3:TrackPointExtension>
            <ns3:hr>77</ns3:hr>
            <ns3:cad>0</ns3:cad>
          </ns3:TrackPointExtension>
        </extensions>
      </trkpt>
      <trkpt lat="43.76714685000479221343994140625" lon="1.5850227512419223785400390625">
        <ele>159</ele>
        <time>2026-08-13T08:22:20.000Z</time>
        <extensions>
          <ns3:TrackPointExtension>
            <ns3:hr>77</ns3:hr>
            <ns3:cad>0</ns3:cad>
          </ns3:TrackPointExtension>
        </extensions>
      </trkpt>
      <trkpt lat="43.76714651472866535186767578125" lon="1.5850227512419223785400390625">
        <ele>158.8000030517578125</ele>
        <time>2026-08-13T08:22:21.000Z</time>
        <extensions>
          <ns3:TrackPointExtension>
            <ns3:hr>76</ns3:hr>
            <ns3:cad>0</ns3:cad>
          </ns3:TrackPointExtension>
        </extensions>
      </trkpt>
      <trkpt lat="43.76714651472866535186767578125" lon="1.5850227512419223785400390625">
        <ele>158.8000030517578125</ele>
        <time>2026-08-13T08:22:22.000Z</time>
        <extensions>
          <ns3:TrackPointExtension>
            <ns3:hr>76</ns3:hr>
            <ns3:cad>0</ns3:cad>
          </ns3:TrackPointExtension>
        </extensions>
      </trkpt>
      <trkpt lat="43.76714651472866535186767578125" lon="1.5850227512419223785400390625">
        <ele>158.8000030517578125</ele>
        <time>2026-08-13T08:22:23.000Z</time>
        <extensions>
          <ns3:TrackPointExtension>
            <ns3:hr>75</ns3:hr>
            <ns3:cad>0</ns3:cad>
          </ns3:TrackPointExtension>
        </extensions>
      </trkpt>
      <trkpt lat="43.76714651472866535186767578125" lon="1.5850227512419223785400390625">
        <ele>158.8000030517578125</ele>
        <time>2026-08-13T08:22:24.000Z</time>
        <extensions>
          <ns3:TrackPointExtension>
            <ns3:hr>75</ns3:hr>
            <ns3:cad>0</ns3:cad>
          </ns3:TrackPointExtension>
        </extensions>
      </trkpt>
      <trkpt lat="43.7671455927193164825439453125" lon="1.5850224159657955169677734375">
        <ele>158.8000030517578125</ele>
        <time>2026-08-13T08:22:25.000Z</time>
        <extensions>
          <ns3:TrackPointExtension>
            <ns3:hr>75</ns3:hr>
            <ns3:cad>0</ns3:cad>
          </ns3:TrackPointExtension>
        </extensions>
      </trkpt>
      <trkpt lat="43.76714341342449188232421875" lon="1.58501361496746540069580078125">
        <ele>158.8000030517578125</ele>
        <time>2026-08-13T08:22:26.000Z</time>
        <extensions>
          <ns3:TrackPointExtension>
            <ns3:hr>75</ns3:hr>
            <ns3:cad>0</ns3:cad>
          </ns3:TrackPointExtension>
        </extensions>
      </trkpt>
      <trkpt lat="43.76714165322482585906982421875" lon="1.58500623889267444610595703125">
        <ele>158.8000030517578125</ele>
        <time>2026-08-13T08:22:27.000Z</time>
        <extensions>
          <ns3:TrackPointExtension>
            <ns3:hr>75</ns3:hr>
            <ns3:cad>0</ns3:cad>
          </ns3:TrackPointExtension>
        </extensions>
      </trkpt>
      <trkpt lat="43.767141066491603851318359375" lon="1.58500188030302524566650390625">
        <ele>158.8000030517578125</ele>
        <time>2026-08-13T08:22:28.000Z</time>
        <extensions>
          <ns3:TrackPointExtension>
            <ns3:hr>75</ns3:hr>
            <ns3:cad>0</ns3:cad>
          </ns3:TrackPointExtension>
        </extensions>
      </trkpt>
      <trkpt lat="43.76714064739644527435302734375" lon="1.584997437894344329833984375">
        <ele>158.8000030517578125</ele>
        <time>2026-08-13T08:22:29.000Z</time>
        <extensions>
          <ns3:TrackPointExtension>
            <ns3:hr>75</ns3:hr>
            <ns3:cad>0</ns3:cad>
          </ns3:TrackPointExtension>
        </extensions>
      </trkpt>
      <trkpt lat="43.7671408988535404205322265625" lon="1.5849972702562808990478515625">
        <ele>158.8000030517578125</ele>
        <time>2026-08-13T08:22:30.000Z</time>
        <extensions>
          <ns3:TrackPointExtension>
            <ns3:hr>75</ns3:hr>
            <ns3:cad>0</ns3:cad>
          </ns3:TrackPointExtension>
        </extensions>
      </trkpt>
      <trkpt lat="43.76714064739644527435302734375" lon="1.584997437894344329833984375">
        <ele>158.8000030517578125</ele>
        <time>2026-08-13T08:22:31.000Z</time>
        <extensions>
          <ns3:TrackPointExtension>
            <ns3:hr>75</ns3:hr>
            <ns3:cad>0</ns3:cad>
          </ns3:TrackPointExtension>
        </extensions>
      </trkpt>
      <trkpt lat="43.76714031212031841278076171875" lon="1.58499752171337604522705078125">
        <ele>158.8000030517578125</ele>
        <time>2026-08-13T08:22:32.000Z</time>
        <extensions>
          <ns3:TrackPointExtension>
            <ns3:hr>76</ns3:hr>
            <ns3:cad>0</ns3:cad>
          </ns3:TrackPointExtension>
        </extensions>
      </trkpt>
      <trkpt lat="43.7671375460922718048095703125" lon="1.58498905599117279052734375">
        <ele>158.8000030517578125</ele>
        <time>2026-08-13T08:22:33.000Z</time>
        <extensions>
          <ns3:TrackPointExtension>
            <ns3:hr>76</ns3:hr>
            <ns3:cad>0</ns3:cad>
          </ns3:TrackPointExtension>
        </extensions>
      </trkpt>
      <trkpt lat="43.76713804900646209716796875" lon="1.5849771536886692047119140625">
        <ele>158.600006103515625</ele>
        <time>2026-08-13T08:22:34.000Z</time>
        <extensions>
          <ns3:TrackPointExtension>
            <ns3:hr>76</ns3:hr>
            <ns3:cad>0</ns3:cad>
          </ns3:TrackPointExtension>
        </extensions>
      </trkpt>
      <trkpt lat="43.76713645644485950469970703125" lon="1.5849644131958484649658203125">
        <ele>158.600006103515625</ele>
        <time>2026-08-13T08:22:35.000Z</time>
        <extensions>
          <ns3:TrackPointExtension>
            <ns3:hr>76</ns3:hr>
            <ns3:cad>0</ns3:cad>
          </ns3:TrackPointExtension>
        </extensions>
      </trkpt>
      <trkpt lat="43.767137713730335235595703125" lon="1.5849469788372516632080078125">
        <ele>158.600006103515625</ele>
        <time>2026-08-13T08:22:36.000Z</time>
        <extensions>
          <ns3:TrackPointExtension>
            <ns3:hr>77</ns3:hr>
            <ns3:cad>0</ns3:cad>
          </ns3:TrackPointExtension>
        </extensions>
      </trkpt>
      <trkpt lat="43.76713402569293975830078125" lon="1.5849315561354160308837890625">
        <ele>158.600006103515625</ele>
        <time>2026-08-13T08:22:37.000Z</time>
        <extensions>
          <ns3:TrackPointExtension>
            <ns3:hr>77</ns3:hr>
            <ns3:cad>53</ns3:cad>
          </ns3:TrackPointExtension>
        </extensions>
      </trkpt>
      <trkpt lat="43.76712924800813198089599609375" lon="1.58490833826363086700439453125">
        <ele>158.600006103515625</ele>
        <time>2026-08-13T08:22:38.000Z</time>
        <extensions>
          <ns3:TrackPointExtension>
            <ns3:hr>77</ns3:hr>
            <ns3:cad>53</ns3:cad>
          </ns3:TrackPointExtension>
        </extensions>
      </trkpt>
      <trkpt lat="43.76712522469460964202880859375" lon="1.584885120391845703125">
        <ele>158.600006103515625</ele>
        <time>2026-08-13T08:22:39.000Z</time>
        <extensions>
          <ns3:TrackPointExtension>
            <ns3:hr>78</ns3:hr>
            <ns3:cad>53</ns3:cad>
          </ns3:TrackPointExtension>
        </extensions>
      </trkpt>
      <trkpt lat="43.7671211175620555877685546875" lon="1.58486424945294857025146484375">
        <ele>158.600006103515625</ele>
        <time>2026-08-13T08:22:40.000Z</time>
        <extensions>
          <ns3:TrackPointExtension>
            <ns3:hr>78</ns3:hr>
            <ns3:cad>53</ns3:cad>
          </ns3:TrackPointExtension>
        </extensions>
      </trkpt>
      <trkpt lat="43.76711499877274036407470703125" lon="1.58484212122857570648193359375">
        <ele>158.600006103515625</ele>
        <time>2026-08-13T08:22:41.000Z</time>
        <extensions>
          <ns3:TrackPointExtension>
            <ns3:hr>78</ns3:hr>
            <ns3:cad>52</ns3:cad>
          </ns3:TrackPointExtension>
        </extensions>
      </trkpt>
      <trkpt lat="43.767111562192440032958984375" lon="1.58482099883258342742919921875">
        <ele>158.600006103515625</ele>
        <time>2026-08-13T08:22:42.000Z</time>
        <extensions>
          <ns3:TrackPointExtension>
            <ns3:hr>78</ns3:hr>
            <ns3:cad>52</ns3:cad>
          </ns3:TrackPointExtension>
        </extensions>
      </trkpt>
      <trkpt lat="43.76710728742182254791259765625" lon="1.584800295531749725341796875">
        <ele>158.600006103515625</ele>
        <time>2026-08-13T08:22:43.000Z</time>
        <extensions>
          <ns3:TrackPointExtension>
            <ns3:hr>78</ns3:hr>
            <ns3:cad>52</ns3:cad>
          </ns3:TrackPointExtension>
        </extensions>
      </trkpt>
      <trkpt lat="43.767103850841522216796875" lon="1.58477908931672573089599609375">
        <ele>158.600006103515625</ele>
        <time>2026-08-13T08:22:44.000Z</time>
        <extensions>
          <ns3:TrackPointExtension>
            <ns3:hr>78</ns3:hr>
            <ns3:cad>51</ns3:cad>
          </ns3:TrackPointExtension>
        </extensions>
      </trkpt>
      <trkpt lat="43.76709907315671443939208984375" lon="1.584756709635257720947265625">
        <ele>158.600006103515625</ele>
        <time>2026-08-13T08:22:45.000Z</time>
        <extensions>
          <ns3:TrackPointExtension>
            <ns3:hr>79</ns3:hr>
            <ns3:cad>51</ns3:cad>
          </ns3:TrackPointExtension>
        </extensions>
      </trkpt>
      <trkpt lat="43.76709219999611377716064453125" lon="1.584734581410884857177734375">
        <ele>158.399993896484375</ele>
        <time>2026-08-13T08:22:46.000Z</time>
        <extensions>
          <ns3:TrackPointExtension>
            <ns3:hr>78</ns3:hr>
            <ns3:cad>51</ns3:cad>
          </ns3:TrackPointExtension>
        </extensions>
      </trkpt>
      <trkpt lat="43.76708499155938625335693359375" lon="1.58471672795712947845458984375">
        <ele>158.399993896484375</ele>
        <time>2026-08-13T08:22:47.000Z</time>
        <extensions>
          <ns3:TrackPointExtension>
            <ns3:hr>78</ns3:hr>
            <ns3:cad>53</ns3:cad>
          </ns3:TrackPointExtension>
        </extensions>
      </trkpt>
      <trkpt lat="43.767078034579753875732421875" lon="1.5846955217421054840087890625">
        <ele>158.399993896484375</ele>
        <time>2026-08-13T08:22:48.000Z</time>
        <extensions>
          <ns3:TrackPointExtension>
            <ns3:hr>79</ns3:hr>
            <ns3:cad>53</ns3:cad>
          </ns3:TrackPointExtension>
        </extensions>
      </trkpt>
      <trkpt lat="43.7670684792101383209228515625" lon="1.58467330969870090484619140625">
        <ele>158.399993896484375</ele>
        <time>2026-08-13T08:22:49.000Z</time>
        <extensions>
          <ns3:TrackPointExtension>
            <ns3:hr>79</ns3:hr>
            <ns3:cad>53</ns3:cad>
          </ns3:TrackPointExtension>
        </extensions>
      </trkpt>
      <trkpt lat="43.767060935497283935546875" lon="1.584652103483676910400390625">
        <ele>158.399993896484375</ele>
        <time>2026-08-13T08:22:50.000Z</time>
        <extensions>
          <ns3:TrackPointExtension>
            <ns3:hr>79</ns3:hr>
            <ns3:cad>53</ns3:cad>
          </ns3:TrackPointExtension>
        </extensions>
      </trkpt>
      <trkpt lat="43.7670547328889369964599609375" lon="1.5846370160579681396484375">
        <ele>158.399993896484375</ele>
        <time>2026-08-13T08:22:51.000Z</time>
        <extensions>
          <ns3:TrackPointExtension>
            <ns3:hr>78</ns3:hr>
            <ns3:cad>54</ns3:cad>
          </ns3:TrackPointExtension>
        </extensions>
      </trkpt>
      <trkpt lat="43.76704961992800235748291015625" lon="1.58462025225162506103515625">
        <ele>158.399993896484375</ele>
        <time>2026-08-13T08:22:52.000Z</time>
        <extensions>
          <ns3:TrackPointExtension>
            <ns3:hr>79</ns3:hr>
            <ns3:cad>54</ns3:cad>
          </ns3:TrackPointExtension>
        </extensions>
      </trkpt>
      <trkpt lat="43.76704526133835315704345703125" lon="1.58460457809269428253173828125">
        <ele>158.399993896484375</ele>
        <time>2026-08-13T08:22:53.000Z</time>
        <extensions>
          <ns3:TrackPointExtension>
            <ns3:hr>79</ns3:hr>
            <ns3:cad>54</ns3:cad>
          </ns3:TrackPointExtension>
        </extensions>
      </trkpt>
      <trkpt lat="43.7670408189296722412109375" lon="1.58459301106631755828857421875">
        <ele>158.399993896484375</ele>
        <time>2026-08-13T08:22:54.000Z</time>
        <extensions>
          <ns3:TrackPointExtension>
            <ns3:hr>79</ns3:hr>
            <ns3:cad>55</ns3:cad>
          </ns3:TrackPointExtension>
        </extensions>
      </trkpt>
      <trkpt lat="43.7670359574258327484130859375" lon="1.5845798514783382415771484375">
        <ele>158.1999969482421875</ele>
        <time>2026-08-13T08:22:55.000Z</time>
        <extensions>
          <ns3:TrackPointExtension>
            <ns3:hr>79</ns3:hr>
            <ns3:cad>55</ns3:cad>
          </ns3:TrackPointExtension>
        </extensions>
      </trkpt>
      <trkpt lat="43.76703017391264438629150390625" lon="1.5845650993287563323974609375">
        <ele>158.1999969482421875</ele>
        <time>2026-08-13T08:22:56.000Z</time>
        <extensions>
          <ns3:TrackPointExtension>
            <ns3:hr>80</ns3:hr>
            <ns3:cad>55</ns3:cad>
          </ns3:TrackPointExtension>
        </extensions>
      </trkpt>
      <trkpt lat="43.7670245580375194549560546875" lon="1.58455193974077701568603515625">
        <ele>158.1999969482421875</ele>
        <time>2026-08-13T08:22:57.000Z</time>
        <extensions>
          <ns3:TrackPointExtension>
            <ns3:hr>80</ns3:hr>
            <ns3:cad>54</ns3:cad>
          </ns3:TrackPointExtension>
        </extensions>
      </trkpt>
      <trkpt lat="43.76701894216239452362060546875" lon="1.5845362655818462371826171875">
        <ele>158.1999969482421875</ele>
        <time>2026-08-13T08:22:58.000Z</time>
        <extensions>
          <ns3:TrackPointExtension>
            <ns3:hr>79</ns3:hr>
            <ns3:cad>53</ns3:cad>
          </ns3:TrackPointExtension>
        </extensions>
      </trkpt>
      <trkpt lat="43.76701475121080875396728515625" lon="1.58452075906097888946533203125">
        <ele>158.1999969482421875</ele>
        <time>2026-08-13T08:22:59.000Z</time>
        <extensions>
          <ns3:TrackPointExtension>
            <ns3:hr>80</ns3:hr>
            <ns3:cad>53</ns3:cad>
          </ns3:TrackPointExtension>
        </extensions>
      </trkpt>
      <trkpt lat="43.76700854860246181488037109375" lon="1.5845087729394435882568359375">
        <ele>158.1999969482421875</ele>
        <time>2026-08-13T08:23:00.000Z</time>
        <extensions>
          <ns3:TrackPointExtension>
            <ns3:hr>80</ns3:hr>
            <ns3:cad>53</ns3:cad>
          </ns3:TrackPointExtension>
        </extensions>
      </trkpt>
      <trkpt lat="43.76700217835605144500732421875" lon="1.58449418842792510986328125">
        <ele>158</ele>
        <time>2026-08-13T08:23:01.000Z</time>
        <extensions>
          <ns3:TrackPointExtension>
            <ns3:hr>80</ns3:hr>
            <ns3:cad>53</ns3:cad>
          </ns3:TrackPointExtension>
        </extensions>
      </trkpt>
      <trkpt lat="43.76699647866189479827880859375" lon="1.584478430449962615966796875">
        <ele>158</ele>
        <time>2026-08-13T08:23:02.000Z</time>
        <extensions>
          <ns3:TrackPointExtension>
            <ns3:hr>79</ns3:hr>
            <ns3:cad>53</ns3:cad>
          </ns3:TrackPointExtension>
        </extensions>
      </trkpt>
      <trkpt lat="43.76699052751064300537109375" lon="1.5844680368900299072265625">
        <ele>158</ele>
        <time>2026-08-13T08:23:03.000Z</time>
        <extensions>
          <ns3:TrackPointExtension>
            <ns3:hr>79</ns3:hr>
            <ns3:cad>53</ns3:cad>
          </ns3:TrackPointExtension>
        </extensions>
      </trkpt>
      <trkpt lat="43.7669846601784229278564453125" lon="1.58445772714912891387939453125">
        <ele>158</ele>
        <time>2026-08-13T08:23:04.000Z</time>
        <extensions>
          <ns3:TrackPointExtension>
            <ns3:hr>79</ns3:hr>
            <ns3:cad>50</ns3:cad>
          </ns3:TrackPointExtension>
        </extensions>
      </trkpt>
      <trkpt lat="43.76698005013167858123779296875" lon="1.58445051871240139007568359375">
        <ele>157.8000030517578125</ele>
        <time>2026-08-13T08:23:05.000Z</time>
        <extensions>
          <ns3:TrackPointExtension>
            <ns3:hr>79</ns3:hr>
            <ns3:cad>47</ns3:cad>
          </ns3:TrackPointExtension>
        </extensions>
      </trkpt>
      <trkpt lat="43.76697317697107791900634765625" lon="1.58443911932408809661865234375">
        <ele>157.8000030517578125</ele>
        <time>2026-08-13T08:23:06.000Z</time>
        <extensions>
          <ns3:TrackPointExtension>
            <ns3:hr>79</ns3:hr>
            <ns3:cad>47</ns3:cad>
          </ns3:TrackPointExtension>
        </extensions>
      </trkpt>
      <trkpt lat="43.7669621966779232025146484375" lon="1.58442713320255279541015625">
        <ele>158</ele>
        <time>2026-08-13T08:23:07.000Z</time>
        <extensions>
          <ns3:TrackPointExtension>
            <ns3:hr>79</ns3:hr>
            <ns3:cad>48</ns3:cad>
          </ns3:TrackPointExtension>
        </extensions>
      </trkpt>
      <trkpt lat="43.76695423386991024017333984375" lon="1.58441632054746150970458984375">
        <ele>158</ele>
        <time>2026-08-13T08:23:08.000Z</time>
        <extensions>
          <ns3:TrackPointExtension>
            <ns3:hr>78</ns3:hr>
            <ns3:cad>49</ns3:cad>
          </ns3:TrackPointExtension>
        </extensions>
      </trkpt>
      <trkpt lat="43.76694870181381702423095703125" lon="1.58440391533076763153076171875">
        <ele>157.8000030517578125</ele>
        <time>2026-08-13T08:23:09.000Z</time>
        <extensions>
          <ns3:TrackPointExtension>
            <ns3:hr>77</ns3:hr>
            <ns3:cad>49</ns3:cad>
          </ns3:TrackPointExtension>
        </extensions>
      </trkpt>
      <trkpt lat="43.7669410742819309234619140625" lon="1.5843907557427883148193359375">
        <ele>157.8000030517578125</ele>
        <time>2026-08-13T08:23:10.000Z</time>
        <extensions>
          <ns3:TrackPointExtension>
            <ns3:hr>77</ns3:hr>
            <ns3:cad>47</ns3:cad>
          </ns3:TrackPointExtension>
        </extensions>
      </trkpt>
      <trkpt lat="43.76693311147391796112060546875" lon="1.58437524922192096710205078125">
        <ele>157.8000030517578125</ele>
        <time>2026-08-13T08:23:11.000Z</time>
        <extensions>
          <ns3:TrackPointExtension>
            <ns3:hr>76</ns3:hr>
            <ns3:cad>47</ns3:cad>
          </ns3:TrackPointExtension>
        </extensions>
      </trkpt>
      <trkpt lat="43.766927830874919891357421875" lon="1.5843635983765125274658203125">
        <ele>157.8000030517578125</ele>
        <time>2026-08-13T08:23:12.000Z</time>
        <extensions>
          <ns3:TrackPointExtension>
            <ns3:hr>76</ns3:hr>
            <ns3:cad>47</ns3:cad>
          </ns3:TrackPointExtension>
        </extensions>
      </trkpt>
      <trkpt lat="43.76693143509328365325927734375" lon="1.58435647375881671905517578125">
        <ele>157.8000030517578125</ele>
        <time>2026-08-13T08:23:13.000Z</time>
        <extensions>
          <ns3:TrackPointExtension>
            <ns3:hr>76</ns3:hr>
            <ns3:cad>44</ns3:cad>
          </ns3:TrackPointExtension>
        </extensions>
      </trkpt>
      <trkpt lat="43.76692942343652248382568359375" lon="1.58434675075113773345947265625">
        <ele>157.8000030517578125</ele>
        <time>2026-08-13T08:23:14.000Z</time>
        <extensions>
          <ns3:TrackPointExtension>
            <ns3:hr>76</ns3:hr>
            <ns3:cad>43</ns3:cad>
          </ns3:TrackPointExtension>
        </extensions>
      </trkpt>
      <trkpt lat="43.76692556776106357574462890625" lon="1.5843391232192516326904296875">
        <ele>157.8000030517578125</ele>
        <time>2026-08-13T08:23:15.000Z</time>
        <extensions>
          <ns3:TrackPointExtension>
            <ns3:hr>77</ns3:hr>
            <ns3:cad>43</ns3:cad>
          </ns3:TrackPointExtension>
        </extensions>
      </trkpt>
      <trkpt lat="43.7669216282665729522705078125" lon="1.58433216623961925506591796875">
        <ele>157.8000030517578125</ele>
        <time>2026-08-13T08:23:16.000Z</time>
        <extensions>
          <ns3:TrackPointExtension>
            <ns3:hr>76</ns3:hr>
            <ns3:cad>43</ns3:cad>
          </ns3:TrackPointExtension>
        </extensions>
      </trkpt>
      <trkpt lat="43.76692288555204868316650390625" lon="1.58433065749704837799072265625">
        <ele>157.8000030517578125</ele>
        <time>2026-08-13T08:23:17.000Z</time>
        <extensions>
          <ns3:TrackPointExtension>
            <ns3:hr>76</ns3:hr>
            <ns3:cad>43</ns3:cad>
          </ns3:TrackPointExtension>
        </extensions>
      </trkpt>
      <trkpt lat="43.7669179402291774749755859375" lon="1.58431716263294219970703125">
        <ele>157.8000030517578125</ele>
        <time>2026-08-13T08:23:18.000Z</time>
        <extensions>
          <ns3:TrackPointExtension>
            <ns3:hr>76</ns3:hr>
            <ns3:cad>43</ns3:cad>
          </ns3:TrackPointExtension>
        </extensions>
      </trkpt>
      <trkpt lat="43.76691483892500400543212890625" lon="1.58431070856750011444091796875">
        <ele>157.8000030517578125</ele>
        <time>2026-08-13T08:23:19.000Z</time>
        <extensions>
          <ns3:TrackPointExtension>
            <ns3:hr>74</ns3:hr>
            <ns3:cad>43</ns3:cad>
          </ns3:TrackPointExtension>
        </extensions>
      </trkpt>
      <trkpt lat="43.76691550947725772857666015625" lon="1.58430685289204120635986328125">
        <ele>157.8000030517578125</ele>
        <time>2026-08-13T08:23:20.000Z</time>
        <extensions>
          <ns3:TrackPointExtension>
            <ns3:hr>72</ns3:hr>
            <ns3:cad>42</ns3:cad>
          </ns3:TrackPointExtension>
        </extensions>
      </trkpt>
      <trkpt lat="43.76691408455371856689453125" lon="1.5843092836439609527587890625">
        <ele>157.8000030517578125</ele>
        <time>2026-08-13T08:23:21.000Z</time>
        <extensions>
          <ns3:TrackPointExtension>
            <ns3:hr>71</ns3:hr>
            <ns3:cad>43</ns3:cad>
          </ns3:TrackPointExtension>
        </extensions>
      </trkpt>
      <trkpt lat="43.7669045291841030120849609375" lon="1.58430299721658229827880859375">
        <ele>157.8000030517578125</ele>
        <time>2026-08-13T08:23:22.000Z</time>
        <extensions>
          <ns3:TrackPointExtension>
            <ns3:hr>71</ns3:hr>
            <ns3:cad>43</ns3:cad>
          </ns3:TrackPointExtension>
        </extensions>
      </trkpt>
      <trkpt lat="43.76689807511866092681884765625" lon="1.5842962078750133514404296875">
        <ele>157.8000030517578125</ele>
        <time>2026-08-13T08:23:23.000Z</time>
        <extensions>
          <ns3:TrackPointExtension>
            <ns3:hr>71</ns3:hr>
            <ns3:cad>43</ns3:cad>
          </ns3:TrackPointExtension>
        </extensions>
      </trkpt>
      <trkpt lat="43.7668951414525508880615234375" lon="1.5842844732105731964111328125">
        <ele>157.8000030517578125</ele>
        <time>2026-08-13T08:23:24.000Z</time>
        <extensions>
          <ns3:TrackPointExtension>
            <ns3:hr>72</ns3:hr>
            <ns3:cad>43</ns3:cad>
          </ns3:TrackPointExtension>
        </extensions>
      </trkpt>
      <trkpt lat="43.7668881006538867950439453125" lon="1.5842680446803569793701171875">
        <ele>157.8000030517578125</ele>
        <time>2026-08-13T08:23:25.000Z</time>
        <extensions>
          <ns3:TrackPointExtension>
            <ns3:hr>74</ns3:hr>
            <ns3:cad>43</ns3:cad>
          </ns3:TrackPointExtension>
        </extensions>
      </trkpt>
      <trkpt lat="43.76687929965555667877197265625" lon="1.58425488509237766265869140625">
        <ele>157.8000030517578125</ele>
        <time>2026-08-13T08:23:26.000Z</time>
        <extensions>
          <ns3:TrackPointExtension>
            <ns3:hr>75</ns3:hr>
            <ns3:cad>43</ns3:cad>
          </ns3:TrackPointExtension>
        </extensions>
      </trkpt>
      <trkpt lat="43.76687142066657543182373046875" lon="1.58425237052142620086669921875">
        <ele>157.8000030517578125</ele>
        <time>2026-08-13T08:23:27.000Z</time>
        <extensions>
          <ns3:TrackPointExtension>
            <ns3:hr>76</ns3:hr>
            <ns3:cad>42</ns3:cad>
          </ns3:TrackPointExtension>
        </extensions>
      </trkpt>
      <trkpt lat="43.76686672680079936981201171875" lon="1.584251783788204193115234375">
        <ele>157.8000030517578125</ele>
        <time>2026-08-13T08:23:28.000Z</time>
        <extensions>
          <ns3:TrackPointExtension>
            <ns3:hr>77</ns3:hr>
            <ns3:cad>40</ns3:cad>
          </ns3:TrackPointExtension>
        </extensions>
      </trkpt>
      <trkpt lat="43.76685499213635921478271484375" lon="1.58423694781959056854248046875">
        <ele>157.8000030517578125</ele>
        <time>2026-08-13T08:23:29.000Z</time>
        <extensions>
          <ns3:TrackPointExtension>
            <ns3:hr>77</ns3:hr>
            <ns3:cad>40</ns3:cad>
          </ns3:TrackPointExtension>
        </extensions>
      </trkpt>
      <trkpt lat="43.76684459857642650604248046875" lon="1.5842214412987232208251953125">
        <ele>157.8000030517578125</ele>
        <time>2026-08-13T08:23:30.000Z</time>
        <extensions>
          <ns3:TrackPointExtension>
            <ns3:hr>77</ns3:hr>
            <ns3:cad>40</ns3:cad>
          </ns3:TrackPointExtension>
        </extensions>
      </trkpt>
      <trkpt lat="43.76683940179646015167236328125" lon="1.58421381376683712005615234375">
        <ele>157.8000030517578125</ele>
        <time>2026-08-13T08:23:31.000Z</time>
        <extensions>
          <ns3:TrackPointExtension>
            <ns3:hr>77</ns3:hr>
            <ns3:cad>43</ns3:cad>
          </ns3:TrackPointExtension>
        </extensions>
      </trkpt>
      <trkpt lat="43.76683386974036693572998046875" lon="1.584202833473682403564453125">
        <ele>157.8000030517578125</ele>
        <time>2026-08-13T08:23:32.000Z</time>
        <extensions>
          <ns3:TrackPointExtension>
            <ns3:hr>77</ns3:hr>
            <ns3:cad>43</ns3:cad>
          </ns3:TrackPointExtension>
        </extensions>
      </trkpt>
      <trkpt lat="43.766825906932353973388671875" lon="1.5841859020292758941650390625">
        <ele>157.8000030517578125</ele>
        <time>2026-08-13T08:23:33.000Z</time>
        <extensions>
          <ns3:TrackPointExtension>
            <ns3:hr>77</ns3:hr>
            <ns3:cad>43</ns3:cad>
          </ns3:TrackPointExtension>
        </extensions>
      </trkpt>
      <trkpt lat="43.766817189753055572509765625" lon="1.58417777158319950103759765625">
        <ele>157.8000030517578125</ele>
        <time>2026-08-13T08:23:34.000Z</time>
        <extensions>
          <ns3:TrackPointExtension>
            <ns3:hr>78</ns3:hr>
            <ns3:cad>43</ns3:cad>
          </ns3:TrackPointExtension>
        </extensions>
      </trkpt>
      <trkpt lat="43.766811825335025787353515625" lon="1.5841714851558208465576171875">
        <ele>157.8000030517578125</ele>
        <time>2026-08-13T08:23:35.000Z</time>
        <extensions>
          <ns3:TrackPointExtension>
            <ns3:hr>78</ns3:hr>
            <ns3:cad>43</ns3:cad>
          </ns3:TrackPointExtension>
        </extensions>
      </trkpt>
      <trkpt lat="43.7668029405176639556884765625" lon="1.58416084013879299163818359375">
        <ele>157.8000030517578125</ele>
        <time>2026-08-13T08:23:36.000Z</time>
        <extensions>
          <ns3:TrackPointExtension>
            <ns3:hr>79</ns3:hr>
            <ns3:cad>43</ns3:cad>
          </ns3:TrackPointExtension>
        </extensions>
      </trkpt>
      <trkpt lat="43.76679665409028530120849609375" lon="1.5841657854616641998291015625">
        <ele>157.8000030517578125</ele>
        <time>2026-08-13T08:23:37.000Z</time>
        <extensions>
          <ns3:TrackPointExtension>
            <ns3:hr>80</ns3:hr>
            <ns3:cad>43</ns3:cad>
          </ns3:TrackPointExtension>
        </extensions>
      </trkpt>
      <trkpt lat="43.7667902000248432159423828125" lon="1.584165953099727630615234375">
        <ele>157.8000030517578125</ele>
        <time>2026-08-13T08:23:38.000Z</time>
        <extensions>
          <ns3:TrackPointExtension>
            <ns3:hr>81</ns3:hr>
            <ns3:cad>43</ns3:cad>
          </ns3:TrackPointExtension>
        </extensions>
      </trkpt>
      <trkpt lat="43.76678374595940113067626953125" lon="1.5841620974242687225341796875">
        <ele>157.8000030517578125</ele>
        <time>2026-08-13T08:23:39.000Z</time>
        <extensions>
          <ns3:TrackPointExtension>
            <ns3:hr>81</ns3:hr>
            <ns3:cad>43</ns3:cad>
          </ns3:TrackPointExtension>
        </extensions>
      </trkpt>
      <trkpt lat="43.766776621341705322265625" lon="1.58414952456951141357421875">
        <ele>157.8000030517578125</ele>
        <time>2026-08-13T08:23:40.000Z</time>
        <extensions>
          <ns3:TrackPointExtension>
            <ns3:hr>82</ns3:hr>
            <ns3:cad>43</ns3:cad>
          </ns3:TrackPointExtension>
        </extensions>
      </trkpt>
      <trkpt lat="43.766765557229518890380859375" lon="1.58414072357118129730224609375">
        <ele>157.8000030517578125</ele>
        <time>2026-08-13T08:23:41.000Z</time>
        <extensions>
          <ns3:TrackPointExtension>
            <ns3:hr>82</ns3:hr>
            <ns3:cad>43</ns3:cad>
          </ns3:TrackPointExtension>
        </extensions>
      </trkpt>
      <trkpt lat="43.76675759442150592803955078125" lon="1.5841349400579929351806640625">
        <ele>157.8000030517578125</ele>
        <time>2026-08-13T08:23:42.000Z</time>
        <extensions>
          <ns3:TrackPointExtension>
            <ns3:hr>81</ns3:hr>
            <ns3:cad>43</ns3:cad>
          </ns3:TrackPointExtension>
        </extensions>
      </trkpt>
      <trkpt lat="43.76674778759479522705078125" lon="1.5841278992593288421630859375">
        <ele>157.8000030517578125</ele>
        <time>2026-08-13T08:23:43.000Z</time>
        <extensions>
          <ns3:TrackPointExtension>
            <ns3:hr>81</ns3:hr>
            <ns3:cad>43</ns3:cad>
          </ns3:TrackPointExtension>
        </extensions>
      </trkpt>
      <trkpt lat="43.7667362205684185028076171875" lon="1.58412043936550617218017578125">
        <ele>157.8000030517578125</ele>
        <time>2026-08-13T08:23:44.000Z</time>
        <extensions>
          <ns3:TrackPointExtension>
            <ns3:hr>80</ns3:hr>
            <ns3:cad>0</ns3:cad>
          </ns3:TrackPointExtension>
        </extensions>
      </trkpt>
      <trkpt lat="43.766728006303310394287109375" lon="1.5841139853000640869140625">
        <ele>157.8000030517578125</ele>
        <time>2026-08-13T08:23:45.000Z</time>
        <extensions>
          <ns3:TrackPointExtension>
            <ns3:hr>79</ns3:hr>
            <ns3:cad>0</ns3:cad>
          </ns3:TrackPointExtension>
        </extensions>
      </trkpt>
      <trkpt lat="43.7667211331427097320556640625" lon="1.5841084532439708709716796875">
        <ele>157.8000030517578125</ele>
        <time>2026-08-13T08:23:46.000Z</time>
        <extensions>
          <ns3:TrackPointExtension>
            <ns3:hr>79</ns3:hr>
            <ns3:cad>44</ns3:cad>
          </ns3:TrackPointExtension>
        </extensions>
      </trkpt>
      <trkpt lat="43.76671417616307735443115234375" lon="1.5841027535498142242431640625">
        <ele>157.8000030517578125</ele>
        <time>2026-08-13T08:23:47.000Z</time>
        <extensions>
          <ns3:TrackPointExtension>
            <ns3:hr>79</ns3:hr>
            <ns3:cad>44</ns3:cad>
          </ns3:TrackPointExtension>
        </extensions>
      </trkpt>
      <trkpt lat="43.76670344732701778411865234375" lon="1.584097556769847869873046875">
        <ele>157.8000030517578125</ele>
        <time>2026-08-13T08:23:48.000Z</time>
        <extensions>
          <ns3:TrackPointExtension>
            <ns3:hr>78</ns3:hr>
            <ns3:cad>45</ns3:cad>
          </ns3:TrackPointExtension>
        </extensions>
      </trkpt>
      <trkpt lat="43.7666946463286876678466796875" lon="1.5840906836092472076416015625">
        <ele>157.8000030517578125</ele>
        <time>2026-08-13T08:23:49.000Z</time>
        <extensions>
          <ns3:TrackPointExtension>
            <ns3:hr>79</ns3:hr>
            <ns3:cad>45</ns3:cad>
          </ns3:TrackPointExtension>
        </extensions>
      </trkpt>
      <trkpt lat="43.7666882760822772979736328125" lon="1.58408439718186855316162109375">
        <ele>157.600006103515625</ele>
        <time>2026-08-13T08:23:50.000Z</time>
        <extensions>
          <ns3:TrackPointExtension>
            <ns3:hr>79</ns3:hr>
            <ns3:cad>45</ns3:cad>
          </ns3:TrackPointExtension>
        </extensions>
      </trkpt>
      <trkpt lat="43.7666829116642475128173828125" lon="1.5840729139745235443115234375">
        <ele>157.600006103515625</ele>
        <time>2026-08-13T08:23:51.000Z</time>
        <extensions>
          <ns3:TrackPointExtension>
            <ns3:hr>79</ns3:hr>
            <ns3:cad>44</ns3:cad>
          </ns3:TrackPointExtension>
        </extensions>
      </trkpt>
      <trkpt lat="43.7666775472462177276611328125" lon="1.58405841328203678131103515625">
        <ele>157.600006103515625</ele>
        <time>2026-08-13T08:23:52.000Z</time>
        <extensions>
          <ns3:TrackPointExtension>
            <ns3:hr>79</ns3:hr>
            <ns3:cad>44</ns3:cad>
          </ns3:TrackPointExtension>
        </extensions>
      </trkpt>
      <trkpt lat="43.7666706740856170654296875" lon="1.58405070193111896514892578125">
        <ele>157.600006103515625</ele>
        <time>2026-08-13T08:23:53.000Z</time>
        <extensions>
          <ns3:TrackPointExtension>
            <ns3:hr>79</ns3:hr>
            <ns3:cad>44</ns3:cad>
          </ns3:TrackPointExtension>
        </extensions>
      </trkpt>
      <trkpt lat="43.7666651420295238494873046875" lon="1.58404223620891571044921875">
        <ele>157.600006103515625</ele>
        <time>2026-08-13T08:23:54.000Z</time>
        <extensions>
          <ns3:TrackPointExtension>
            <ns3:hr>80</ns3:hr>
            <ns3:cad>44</ns3:cad>
          </ns3:TrackPointExtension>
        </extensions>
      </trkpt>
      <trkpt lat="43.7666577659547328948974609375" lon="1.5840360336005687713623046875">
        <ele>157.399993896484375</ele>
        <time>2026-08-13T08:23:55.000Z</time>
        <extensions>
          <ns3:TrackPointExtension>
            <ns3:hr>79</ns3:hr>
            <ns3:cad>46</ns3:cad>
          </ns3:TrackPointExtension>
        </extensions>
      </trkpt>
      <trkpt lat="43.76665164716541767120361328125" lon="1.584019772708415985107421875">
        <ele>157.399993896484375</ele>
        <time>2026-08-13T08:23:56.000Z</time>
        <extensions>
          <ns3:TrackPointExtension>
            <ns3:hr>79</ns3:hr>
            <ns3:cad>46</ns3:cad>
          </ns3:TrackPointExtension>
        </extensions>
      </trkpt>
      <trkpt lat="43.76664561219513416290283203125" lon="1.5840058587491512298583984375">
        <ele>157.399993896484375</ele>
        <time>2026-08-13T08:23:57.000Z</time>
        <extensions>
          <ns3:TrackPointExtension>
            <ns3:hr>78</ns3:hr>
            <ns3:cad>46</ns3:cad>
          </ns3:TrackPointExtension>
        </extensions>
      </trkpt>
      <trkpt lat="43.76664443872869014739990234375" lon="1.58399923704564571380615234375">
        <ele>157.399993896484375</ele>
        <time>2026-08-13T08:23:58.000Z</time>
        <extensions>
          <ns3:TrackPointExtension>
            <ns3:hr>78</ns3:hr>
            <ns3:cad>46</ns3:cad>
          </ns3:TrackPointExtension>
        </extensions>
      </trkpt>
      <trkpt lat="43.7666463665664196014404296875" lon="1.58398590981960296630859375">
        <ele>157.399993896484375</ele>
        <time>2026-08-13T08:23:59.000Z</time>
        <extensions>
          <ns3:TrackPointExtension>
            <ns3:hr>78</ns3:hr>
            <ns3:cad>47</ns3:cad>
          </ns3:TrackPointExtension>
        </extensions>
      </trkpt>
      <trkpt lat="43.7666518986225128173828125" lon="1.58397392369806766510009765625">
        <ele>157.399993896484375</ele>
        <time>2026-08-13T08:24:00.000Z</time>
        <extensions>
          <ns3:TrackPointExtension>
            <ns3:hr>78</ns3:hr>
            <ns3:cad>47</ns3:cad>
          </ns3:TrackPointExtension>
        </extensions>
      </trkpt>
      <trkpt lat="43.76665181480348110198974609375" lon="1.58396285958588123321533203125">
        <ele>157.399993896484375</ele>
        <time>2026-08-13T08:24:01.000Z</time>
        <extensions>
          <ns3:TrackPointExtension>
            <ns3:hr>79</ns3:hr>
            <ns3:cad>46</ns3:cad>
          </ns3:TrackPointExtension>
        </extensions>
      </trkpt>
      <trkpt lat="43.76665650866925716400146484375" lon="1.58395229838788509368896484375">
        <ele>157.399993896484375</ele>
        <time>2026-08-13T08:24:02.000Z</time>
        <extensions>
          <ns3:TrackPointExtension>
            <ns3:hr>78</ns3:hr>
            <ns3:cad>46</ns3:cad>
          </ns3:TrackPointExtension>
        </extensions>
      </trkpt>
      <trkpt lat="43.76666128635406494140625" lon="1.58394827507436275482177734375">
        <ele>157.399993896484375</ele>
        <time>2026-08-13T08:24:03.000Z</time>
        <extensions>
          <ns3:TrackPointExtension>
            <ns3:hr>78</ns3:hr>
            <ns3:cad>46</ns3:cad>
          </ns3:TrackPointExtension>
        </extensions>
      </trkpt>
      <trkpt lat="43.76666086725890636444091796875" lon="1.58394928090274333953857421875">
        <ele>157.399993896484375</ele>
        <time>2026-08-13T08:24:04.000Z</time>
        <extensions>
          <ns3:TrackPointExtension>
            <ns3:hr>78</ns3:hr>
            <ns3:cad>46</ns3:cad>
          </ns3:TrackPointExtension>
        </extensions>
      </trkpt>
      <trkpt lat="43.766660280525684356689453125" lon="1.58395078964531421661376953125">
        <ele>157.399993896484375</ele>
        <time>2026-08-13T08:24:05.000Z</time>
        <extensions>
          <ns3:TrackPointExtension>
            <ns3:hr>79</ns3:hr>
            <ns3:cad>45</ns3:cad>
          </ns3:TrackPointExtension>
        </extensions>
      </trkpt>
      <trkpt lat="43.76666472293436527252197265625" lon="1.5839411504566669464111328125">
        <ele>157.600006103515625</ele>
        <time>2026-08-13T08:24:06.000Z</time>
        <extensions>
          <ns3:TrackPointExtension>
            <ns3:hr>79</ns3:hr>
            <ns3:cad>0</ns3:cad>
          </ns3:TrackPointExtension>
        </extensions>
      </trkpt>
      <trkpt lat="43.76666598021984100341796875" lon="1.58393897116184234619140625">
        <ele>157.600006103515625</ele>
        <time>2026-08-13T08:24:07.000Z</time>
        <extensions>
          <ns3:TrackPointExtension>
            <ns3:hr>79</ns3:hr>
            <ns3:cad>0</ns3:cad>
          </ns3:TrackPointExtension>
        </extensions>
      </trkpt>
      <trkpt lat="43.766671009361743927001953125" lon="1.58392899669706821441650390625">
        <ele>157.600006103515625</ele>
        <time>2026-08-13T08:24:08.000Z</time>
        <extensions>
          <ns3:TrackPointExtension>
            <ns3:hr>79</ns3:hr>
            <ns3:cad>0</ns3:cad>
          </ns3:TrackPointExtension>
        </extensions>
      </trkpt>
      <trkpt lat="43.7666765414178371429443359375" lon="1.5839183516800403594970703125">
        <ele>157.600006103515625</ele>
        <time>2026-08-13T08:24:09.000Z</time>
        <extensions>
          <ns3:TrackPointExtension>
            <ns3:hr>79</ns3:hr>
            <ns3:cad>0</ns3:cad>
          </ns3:TrackPointExtension>
        </extensions>
      </trkpt>
      <trkpt lat="43.766684420406818389892578125" lon="1.58390535973012447357177734375">
        <ele>157.600006103515625</ele>
        <time>2026-08-13T08:24:10.000Z</time>
        <extensions>
          <ns3:TrackPointExtension>
            <ns3:hr>79</ns3:hr>
            <ns3:cad>0</ns3:cad>
          </ns3:TrackPointExtension>
        </extensions>
      </trkpt>
      <trkpt lat="43.76669053919613361358642578125" lon="1.58389563672244548797607421875">
        <ele>157.600006103515625</ele>
        <time>2026-08-13T08:24:11.000Z</time>
        <extensions>
          <ns3:TrackPointExtension>
            <ns3:hr>79</ns3:hr>
            <ns3:cad>0</ns3:cad>
          </ns3:TrackPointExtension>
        </extensions>
      </trkpt>
      <trkpt lat="43.76669908873736858367919921875" lon="1.5838865004479885101318359375">
        <ele>157.600006103515625</ele>
        <time>2026-08-13T08:24:12.000Z</time>
        <extensions>
          <ns3:TrackPointExtension>
            <ns3:hr>79</ns3:hr>
            <ns3:cad>0</ns3:cad>
          </ns3:TrackPointExtension>
        </extensions>
      </trkpt>
      <trkpt lat="43.76670931465923786163330078125" lon="1.58387887291610240936279296875">
        <ele>157.600006103515625</ele>
        <time>2026-08-13T08:24:13.000Z</time>
        <extensions>
          <ns3:TrackPointExtension>
            <ns3:hr>80</ns3:hr>
            <ns3:cad>0</ns3:cad>
          </ns3:TrackPointExtension>
        </extensions>
      </trkpt>
      <trkpt lat="43.76671819947659969329833984375" lon="1.58387317322194576263427734375">
        <ele>157.600006103515625</ele>
        <time>2026-08-13T08:24:14.000Z</time>
        <extensions>
          <ns3:TrackPointExtension>
            <ns3:hr>80</ns3:hr>
            <ns3:cad>43</ns3:cad>
          </ns3:TrackPointExtension>
        </extensions>
      </trkpt>
      <trkpt lat="43.76672741957008838653564453125" lon="1.5838690660893917083740234375">
        <ele>157.600006103515625</ele>
        <time>2026-08-13T08:24:15.000Z</time>
        <extensions>
          <ns3:TrackPointExtension>
            <ns3:hr>80</ns3:hr>
            <ns3:cad>44</ns3:cad>
          </ns3:TrackPointExtension>
        </extensions>
      </trkpt>
      <trkpt lat="43.76673814840614795684814453125" lon="1.58386412076652050018310546875">
        <ele>157.600006103515625</ele>
        <time>2026-08-13T08:24:16.000Z</time>
        <extensions>
          <ns3:TrackPointExtension>
            <ns3:hr>79</ns3:hr>
            <ns3:cad>44</ns3:cad>
          </ns3:TrackPointExtension>
        </extensions>
      </trkpt>
      <trkpt lat="43.76675206236541271209716796875" lon="1.5838549844920635223388671875">
        <ele>157.600006103515625</ele>
        <time>2026-08-13T08:24:17.000Z</time>
        <extensions>
          <ns3:TrackPointExtension>
            <ns3:hr>80</ns3:hr>
            <ns3:cad>44</ns3:cad>
          </ns3:TrackPointExtension>
        </extensions>
      </trkpt>
      <trkpt lat="43.76675994135439395904541015625" lon="1.5838476084172725677490234375">
        <ele>157.8000030517578125</ele>
        <time>2026-08-13T08:24:18.000Z</time>
        <extensions>
          <ns3:TrackPointExtension>
            <ns3:hr>80</ns3:hr>
            <ns3:cad>45</ns3:cad>
          </ns3:TrackPointExtension>
        </extensions>
      </trkpt>
      <trkpt lat="43.76676497049629688262939453125" lon="1.583834700286388397216796875">
        <ele>157.8000030517578125</ele>
        <time>2026-08-13T08:24:19.000Z</time>
        <extensions>
          <ns3:TrackPointExtension>
            <ns3:hr>80</ns3:hr>
            <ns3:cad>44</ns3:cad>
          </ns3:TrackPointExtension>
        </extensions>
      </trkpt>
      <trkpt lat="43.7667700834572315216064453125" lon="1.58382355235517024993896484375">
        <ele>157.8000030517578125</ele>
        <time>2026-08-13T08:24:20.000Z</time>
        <extensions>
          <ns3:TrackPointExtension>
            <ns3:hr>80</ns3:hr>
            <ns3:cad>44</ns3:cad>
          </ns3:TrackPointExtension>
        </extensions>
      </trkpt>
      <trkpt lat="43.76677519641816616058349609375" lon="1.58380544744431972503662109375">
        <ele>157.8000030517578125</ele>
        <time>2026-08-13T08:24:21.000Z</time>
        <extensions>
          <ns3:TrackPointExtension>
            <ns3:hr>80</ns3:hr>
            <ns3:cad>44</ns3:cad>
          </ns3:TrackPointExtension>
        </extensions>
      </trkpt>
      <trkpt lat="43.76676899380981922149658203125" lon="1.58378365449607372283935546875">
        <ele>157.8000030517578125</ele>
        <time>2026-08-13T08:24:22.000Z</time>
        <extensions>
          <ns3:TrackPointExtension>
            <ns3:hr>81</ns3:hr>
            <ns3:cad>44</ns3:cad>
          </ns3:TrackPointExtension>
        </extensions>
      </trkpt>
      <trkpt lat="43.76676647923886775970458984375" lon="1.58377426676452159881591796875">
        <ele>157.8000030517578125</ele>
        <time>2026-08-13T08:24:23.000Z</time>
        <extensions>
          <ns3:TrackPointExtension>
            <ns3:hr>82</ns3:hr>
            <ns3:cad>44</ns3:cad>
          </ns3:TrackPointExtension>
        </extensions>
      </trkpt>
      <trkpt lat="43.76676295883953571319580078125" lon="1.58376035280525684356689453125">
        <ele>157.8000030517578125</ele>
        <time>2026-08-13T08:24:24.000Z</time>
        <extensions>
          <ns3:TrackPointExtension>
            <ns3:hr>82</ns3:hr>
            <ns3:cad>45</ns3:cad>
          </ns3:TrackPointExtension>
        </extensions>
      </trkpt>
      <trkpt lat="43.76675558276474475860595703125" lon="1.5837473608553409576416015625">
        <ele>157.8000030517578125</ele>
        <time>2026-08-13T08:24:25.000Z</time>
        <extensions>
          <ns3:TrackPointExtension>
            <ns3:hr>83</ns3:hr>
            <ns3:cad>45</ns3:cad>
          </ns3:TrackPointExtension>
        </extensions>
      </trkpt>
      <trkpt lat="43.7667499668896198272705078125" lon="1.58373805694282054901123046875">
        <ele>157.8000030517578125</ele>
        <time>2026-08-13T08:24:26.000Z</time>
        <extensions>
          <ns3:TrackPointExtension>
            <ns3:hr>83</ns3:hr>
            <ns3:cad>45</ns3:cad>
          </ns3:TrackPointExtension>
        </extensions>
      </trkpt>
      <trkpt lat="43.76674485392868518829345703125" lon="1.5837326087057590484619140625">
        <ele>157.8000030517578125</ele>
        <time>2026-08-13T08:24:27.000Z</time>
        <extensions>
          <ns3:TrackPointExtension>
            <ns3:hr>83</ns3:hr>
            <ns3:cad>45</ns3:cad>
          </ns3:TrackPointExtension>
        </extensions>
      </trkpt>
      <trkpt lat="43.76673638820648193359375" lon="1.58371978439390659332275390625">
        <ele>157.8000030517578125</ele>
        <time>2026-08-13T08:24:28.000Z</time>
        <extensions>
          <ns3:TrackPointExtension>
            <ns3:hr>83</ns3:hr>
            <ns3:cad>44</ns3:cad>
          </ns3:TrackPointExtension>
        </extensions>
      </trkpt>
      <trkpt lat="43.76673026941716670989990234375" lon="1.58371693454682826995849609375">
        <ele>157.8000030517578125</ele>
        <time>2026-08-13T08:24:29.000Z</time>
        <extensions>
          <ns3:TrackPointExtension>
            <ns3:hr>83</ns3:hr>
            <ns3:cad>44</ns3:cad>
          </ns3:TrackPointExtension>
        </extensions>
      </trkpt>
      <trkpt lat="43.76672389917075634002685546875" lon="1.58371106721460819244384765625">
        <ele>157.8000030517578125</ele>
        <time>2026-08-13T08:24:30.000Z</time>
        <extensions>
          <ns3:TrackPointExtension>
            <ns3:hr>83</ns3:hr>
            <ns3:cad>0</ns3:cad>
          </ns3:TrackPointExtension>
        </extensions>
      </trkpt>
      <trkpt lat="43.76672339625656604766845703125" lon="1.58370737917721271514892578125">
        <ele>157.8000030517578125</ele>
        <time>2026-08-13T08:24:31.000Z</time>
        <extensions>
          <ns3:TrackPointExtension>
            <ns3:hr>83</ns3:hr>
            <ns3:cad>0</ns3:cad>
          </ns3:TrackPointExtension>
        </extensions>
      </trkpt>
      <trkpt lat="43.76672423444688320159912109375" lon="1.58370302058756351470947265625">
        <ele>157.8000030517578125</ele>
        <time>2026-08-13T08:24:32.000Z</time>
        <extensions>
          <ns3:TrackPointExtension>
            <ns3:hr>83</ns3:hr>
            <ns3:cad>0</ns3:cad>
          </ns3:TrackPointExtension>
        </extensions>
      </trkpt>
      <trkpt lat="43.76672490499913692474365234375" lon="1.5837014280259609222412109375">
        <ele>157.8000030517578125</ele>
        <time>2026-08-13T08:24:33.000Z</time>
        <extensions>
          <ns3:TrackPointExtension>
            <ns3:hr>83</ns3:hr>
            <ns3:cad>0</ns3:cad>
          </ns3:TrackPointExtension>
        </extensions>
      </trkpt>
      <trkpt lat="43.7667231447994709014892578125" lon="1.58369648270308971405029296875">
        <ele>157.8000030517578125</ele>
        <time>2026-08-13T08:24:34.000Z</time>
        <extensions>
          <ns3:TrackPointExtension>
            <ns3:hr>83</ns3:hr>
            <ns3:cad>0</ns3:cad>
          </ns3:TrackPointExtension>
        </extensions>
      </trkpt>
      <trkpt lat="43.76671887002885341644287109375" lon="1.583687849342823028564453125">
        <ele>157.8000030517578125</ele>
        <time>2026-08-13T08:24:35.000Z</time>
        <extensions>
          <ns3:TrackPointExtension>
            <ns3:hr>83</ns3:hr>
            <ns3:cad>0</ns3:cad>
          </ns3:TrackPointExtension>
        </extensions>
      </trkpt>
      <trkpt lat="43.76671602018177509307861328125" lon="1.5836809761822223663330078125">
        <ele>157.8000030517578125</ele>
        <time>2026-08-13T08:24:36.000Z</time>
        <extensions>
          <ns3:TrackPointExtension>
            <ns3:hr>83</ns3:hr>
            <ns3:cad>0</ns3:cad>
          </ns3:TrackPointExtension>
        </extensions>
      </trkpt>
      <trkpt lat="43.7667120806872844696044921875" lon="1.583681143820285797119140625">
        <ele>157.8000030517578125</ele>
        <time>2026-08-13T08:24:37.000Z</time>
        <extensions>
          <ns3:TrackPointExtension>
            <ns3:hr>85</ns3:hr>
            <ns3:cad>0</ns3:cad>
          </ns3:TrackPointExtension>
        </extensions>
      </trkpt>
      <trkpt lat="43.7667114101350307464599609375" lon="1.5836799703538417816162109375">
        <ele>157.8000030517578125</ele>
        <time>2026-08-13T08:24:38.000Z</time>
        <extensions>
          <ns3:TrackPointExtension>
            <ns3:hr>85</ns3:hr>
            <ns3:cad>0</ns3:cad>
          </ns3:TrackPointExtension>
        </extensions>
      </trkpt>
      <trkpt lat="43.76671317033469676971435546875" lon="1.58367745578289031982421875">
        <ele>157.8000030517578125</ele>
        <time>2026-08-13T08:24:39.000Z</time>
        <extensions>
          <ns3:TrackPointExtension>
            <ns3:hr>86</ns3:hr>
            <ns3:cad>0</ns3:cad>
          </ns3:TrackPointExtension>
        </extensions>
      </trkpt>
      <trkpt lat="43.76671425998210906982421875" lon="1.58367586322128772735595703125">
        <ele>157.8000030517578125</ele>
        <time>2026-08-13T08:24:40.000Z</time>
        <extensions>
          <ns3:TrackPointExtension>
            <ns3:hr>86</ns3:hr>
            <ns3:cad>0</ns3:cad>
          </ns3:TrackPointExtension>
        </extensions>
      </trkpt>
      <trkpt lat="43.76671560108661651611328125" lon="1.58367368392646312713623046875">
        <ele>157.8000030517578125</ele>
        <time>2026-08-13T08:24:41.000Z</time>
        <extensions>
          <ns3:TrackPointExtension>
            <ns3:hr>86</ns3:hr>
            <ns3:cad>0</ns3:cad>
          </ns3:TrackPointExtension>
        </extensions>
      </trkpt>
      <trkpt lat="43.76671635545790195465087890625" lon="1.58367318101227283477783203125">
        <ele>157.8000030517578125</ele>
        <time>2026-08-13T08:24:42.000Z</time>
        <extensions>
          <ns3:TrackPointExtension>
            <ns3:hr>85</ns3:hr>
            <ns3:cad>0</ns3:cad>
          </ns3:TrackPointExtension>
        </extensions>
      </trkpt>
      <trkpt lat="43.7667187862098217010498046875" lon="1.5836729295551776885986328125">
        <ele>157.8000030517578125</ele>
        <time>2026-08-13T08:24:43.000Z</time>
        <extensions>
          <ns3:TrackPointExtension>
            <ns3:hr>85</ns3:hr>
            <ns3:cad>0</ns3:cad>
          </ns3:TrackPointExtension>
        </extensions>
      </trkpt>
      <trkpt lat="43.76672021113336086273193359375" lon="1.58367251046001911163330078125">
        <ele>157.8000030517578125</ele>
        <time>2026-08-13T08:24:44.000Z</time>
        <extensions>
          <ns3:TrackPointExtension>
            <ns3:hr>85</ns3:hr>
            <ns3:cad>0</ns3:cad>
          </ns3:TrackPointExtension>
        </extensions>
      </trkpt>
      <trkpt lat="43.76672037877142429351806640625" lon="1.58367267809808254241943359375">
        <ele>157.8000030517578125</ele>
        <time>2026-08-13T08:24:45.000Z</time>
        <extensions>
          <ns3:TrackPointExtension>
            <ns3:hr>85</ns3:hr>
            <ns3:cad>0</ns3:cad>
          </ns3:TrackPointExtension>
        </extensions>
      </trkpt>
      <trkpt lat="43.76672021113336086273193359375" lon="1.58367267809808254241943359375">
        <ele>157.8000030517578125</ele>
        <time>2026-08-13T08:24:46.000Z</time>
        <extensions>
          <ns3:TrackPointExtension>
            <ns3:hr>84</ns3:hr>
            <ns3:cad>0</ns3:cad>
          </ns3:TrackPointExtension>
        </extensions>
      </trkpt>
      <trkpt lat="43.76672021113336086273193359375" lon="1.58367267809808254241943359375">
        <ele>157.8000030517578125</ele>
        <time>2026-08-13T08:24:47.000Z</time>
        <extensions>
          <ns3:TrackPointExtension>
            <ns3:hr>84</ns3:hr>
            <ns3:cad>0</ns3:cad>
          </ns3:TrackPointExtension>
        </extensions>
      </trkpt>
      <trkpt lat="43.76672021113336086273193359375" lon="1.58367267809808254241943359375">
        <ele>157.8000030517578125</ele>
        <time>2026-08-13T08:24:48.000Z</time>
        <extensions>
          <ns3:TrackPointExtension>
            <ns3:hr>83</ns3:hr>
            <ns3:cad>0</ns3:cad>
          </ns3:TrackPointExtension>
        </extensions>
      </trkpt>
      <trkpt lat="43.76672021113336086273193359375" lon="1.58367267809808254241943359375">
        <ele>157.8000030517578125</ele>
        <time>2026-08-13T08:24:49.000Z</time>
        <extensions>
          <ns3:TrackPointExtension>
            <ns3:hr>81</ns3:hr>
            <ns3:cad>0</ns3:cad>
          </ns3:TrackPointExtension>
        </extensions>
      </trkpt>
      <trkpt lat="43.76672021113336086273193359375" lon="1.58367267809808254241943359375">
        <ele>157.8000030517578125</ele>
        <time>2026-08-13T08:24:50.000Z</time>
        <extensions>
          <ns3:TrackPointExtension>
            <ns3:hr>79</ns3:hr>
            <ns3:cad>0</ns3:cad>
          </ns3:TrackPointExtension>
        </extensions>
      </trkpt>
      <trkpt lat="43.76672021113336086273193359375" lon="1.58367267809808254241943359375">
        <ele>157.8000030517578125</ele>
        <time>2026-08-13T08:24:51.000Z</time>
        <extensions>
          <ns3:TrackPointExtension>
            <ns3:hr>77</ns3:hr>
            <ns3:cad>0</ns3:cad>
          </ns3:TrackPointExtension>
        </extensions>
      </trkpt>
      <trkpt lat="43.76672021113336086273193359375" lon="1.58367267809808254241943359375">
        <ele>157.8000030517578125</ele>
        <time>2026-08-13T08:24:52.000Z</time>
        <extensions>
          <ns3:TrackPointExtension>
            <ns3:hr>75</ns3:hr>
            <ns3:cad>0</ns3:cad>
          </ns3:TrackPointExtension>
        </extensions>
      </trkpt>
      <trkpt lat="43.76672021113336086273193359375" lon="1.58367267809808254241943359375">
        <ele>157.8000030517578125</ele>
        <time>2026-08-13T08:24:53.000Z</time>
        <extensions>
          <ns3:TrackPointExtension>
            <ns3:hr>73</ns3:hr>
            <ns3:cad>0</ns3:cad>
          </ns3:TrackPointExtension>
        </extensions>
      </trkpt>
      <trkpt lat="43.76672021113336086273193359375" lon="1.58367267809808254241943359375">
        <ele>157.8000030517578125</ele>
        <time>2026-08-13T08:24:54.000Z</time>
        <extensions>
          <ns3:TrackPointExtension>
            <ns3:hr>72</ns3:hr>
            <ns3:cad>0</ns3:cad>
          </ns3:TrackPointExtension>
        </extensions>
      </trkpt>
      <trkpt lat="43.76672021113336086273193359375" lon="1.58367267809808254241943359375">
        <ele>157.8000030517578125</ele>
        <time>2026-08-13T08:24:55.000Z</time>
        <extensions>
          <ns3:TrackPointExtension>
            <ns3:hr>71</ns3:hr>
            <ns3:cad>0</ns3:cad>
          </ns3:TrackPointExtension>
        </extensions>
      </trkpt>
      <trkpt lat="43.76672021113336086273193359375" lon="1.58367267809808254241943359375">
        <ele>157.8000030517578125</ele>
        <time>2026-08-13T08:24:56.000Z</time>
        <extensions>
          <ns3:TrackPointExtension>
            <ns3:hr>71</ns3:hr>
            <ns3:cad>0</ns3:cad>
          </ns3:TrackPointExtension>
        </extensions>
      </trkpt>
      <trkpt lat="43.76672021113336086273193359375" lon="1.58367267809808254241943359375">
        <ele>157.8000030517578125</ele>
        <time>2026-08-13T08:24:57.000Z</time>
        <extensions>
          <ns3:TrackPointExtension>
            <ns3:hr>71</ns3:hr>
            <ns3:cad>0</ns3:cad>
          </ns3:TrackPointExtension>
        </extensions>
      </trkpt>
      <trkpt lat="43.76672021113336086273193359375" lon="1.58367267809808254241943359375">
        <ele>157.8000030517578125</ele>
        <time>2026-08-13T08:24:58.000Z</time>
        <extensions>
          <ns3:TrackPointExtension>
            <ns3:hr>71</ns3:hr>
            <ns3:cad>0</ns3:cad>
          </ns3:TrackPointExtension>
        </extensions>
      </trkpt>
      <trkpt lat="43.76672021113336086273193359375" lon="1.58367267809808254241943359375">
        <ele>157.8000030517578125</ele>
        <time>2026-08-13T08:24:59.000Z</time>
        <extensions>
          <ns3:TrackPointExtension>
            <ns3:hr>71</ns3:hr>
            <ns3:cad>0</ns3:cad>
          </ns3:TrackPointExtension>
        </extensions>
      </trkpt>
      <trkpt lat="43.76672021113336086273193359375" lon="1.58367267809808254241943359375">
        <ele>157.8000030517578125</ele>
        <time>2026-08-13T08:25:00.000Z</time>
        <extensions>
          <ns3:TrackPointExtension>
            <ns3:hr>71</ns3:hr>
            <ns3:cad>0</ns3:cad>
          </ns3:TrackPointExtension>
        </extensions>
      </trkpt>
      <trkpt lat="43.76672021113336086273193359375" lon="1.58367267809808254241943359375">
        <ele>157.8000030517578125</ele>
        <time>2026-08-13T08:25:01.000Z</time>
        <extensions>
          <ns3:TrackPointExtension>
            <ns3:hr>72</ns3:hr>
            <ns3:cad>0</ns3:cad>
          </ns3:TrackPointExtension>
        </extensions>
      </trkpt>
      <trkpt lat="43.76672021113336086273193359375" lon="1.58367267809808254241943359375">
        <ele>157.8000030517578125</ele>
        <time>2026-08-13T08:25:02.000Z</time>
        <extensions>
          <ns3:TrackPointExtension>
            <ns3:hr>72</ns3:hr>
            <ns3:cad>0</ns3:cad>
          </ns3:TrackPointExtension>
        </extensions>
      </trkpt>
      <trkpt lat="43.76672021113336086273193359375" lon="1.58367267809808254241943359375">
        <ele>157.8000030517578125</ele>
        <time>2026-08-13T08:25:03.000Z</time>
        <extensions>
          <ns3:TrackPointExtension>
            <ns3:hr>73</ns3:hr>
            <ns3:cad>0</ns3:cad>
          </ns3:TrackPointExtension>
        </extensions>
      </trkpt>
      <trkpt lat="43.76672021113336086273193359375" lon="1.58367267809808254241943359375">
        <ele>157.8000030517578125</ele>
        <time>2026-08-13T08:25:04.000Z</time>
        <extensions>
          <ns3:TrackPointExtension>
            <ns3:hr>77</ns3:hr>
            <ns3:cad>0</ns3:cad>
          </ns3:TrackPointExtension>
        </extensions>
      </trkpt>
      <trkpt lat="43.76672021113336086273193359375" lon="1.58367267809808254241943359375">
        <ele>157.8000030517578125</ele>
        <time>2026-08-13T08:25:05.000Z</time>
        <extensions>
          <ns3:TrackPointExtension>
            <ns3:hr>78</ns3:hr>
            <ns3:cad>0</ns3:cad>
          </ns3:TrackPointExtension>
        </extensions>
      </trkpt>
      <trkpt lat="43.76672021113336086273193359375" lon="1.58367267809808254241943359375">
        <ele>157.8000030517578125</ele>
        <time>2026-08-13T08:25:06.000Z</time>
        <extensions>
          <ns3:TrackPointExtension>
            <ns3:hr>77</ns3:hr>
            <ns3:cad>0</ns3:cad>
          </ns3:TrackPointExtension>
        </extensions>
      </trkpt>
      <trkpt lat="43.76672021113336086273193359375" lon="1.58367267809808254241943359375">
        <ele>157.8000030517578125</ele>
        <time>2026-08-13T08:25:07.000Z</time>
        <extensions>
          <ns3:TrackPointExtension>
            <ns3:hr>75</ns3:hr>
            <ns3:cad>0</ns3:cad>
          </ns3:TrackPointExtension>
        </extensions>
      </trkpt>
      <trkpt lat="43.76672021113336086273193359375" lon="1.58367267809808254241943359375">
        <ele>157.8000030517578125</ele>
        <time>2026-08-13T08:25:08.000Z</time>
        <extensions>
          <ns3:TrackPointExtension>
            <ns3:hr>75</ns3:hr>
            <ns3:cad>0</ns3:cad>
          </ns3:TrackPointExtension>
        </extensions>
      </trkpt>
      <trkpt lat="43.76672021113336086273193359375" lon="1.58367267809808254241943359375">
        <ele>157.8000030517578125</ele>
        <time>2026-08-13T08:25:09.000Z</time>
        <extensions>
          <ns3:TrackPointExtension>
            <ns3:hr>75</ns3:hr>
            <ns3:cad>0</ns3:cad>
          </ns3:TrackPointExtension>
        </extensions>
      </trkpt>
      <trkpt lat="43.76672021113336086273193359375" lon="1.58367267809808254241943359375">
        <ele>157.8000030517578125</ele>
        <time>2026-08-13T08:25:10.000Z</time>
        <extensions>
          <ns3:TrackPointExtension>
            <ns3:hr>75</ns3:hr>
            <ns3:cad>0</ns3:cad>
          </ns3:TrackPointExtension>
        </extensions>
      </trkpt>
      <trkpt lat="43.76672021113336086273193359375" lon="1.58367267809808254241943359375">
        <ele>157.8000030517578125</ele>
        <time>2026-08-13T08:25:11.000Z</time>
        <extensions>
          <ns3:TrackPointExtension>
            <ns3:hr>74</ns3:hr>
            <ns3:cad>0</ns3:cad>
          </ns3:TrackPointExtension>
        </extensions>
      </trkpt>
      <trkpt lat="43.76672021113336086273193359375" lon="1.58367267809808254241943359375">
        <ele>157.8000030517578125</ele>
        <time>2026-08-13T08:25:12.000Z</time>
        <extensions>
          <ns3:TrackPointExtension>
            <ns3:hr>75</ns3:hr>
            <ns3:cad>0</ns3:cad>
          </ns3:TrackPointExtension>
        </extensions>
      </trkpt>
      <trkpt lat="43.76672021113336086273193359375" lon="1.58367267809808254241943359375">
        <ele>157.8000030517578125</ele>
        <time>2026-08-13T08:25:13.000Z</time>
        <extensions>
          <ns3:TrackPointExtension>
            <ns3:hr>75</ns3:hr>
            <ns3:cad>0</ns3:cad>
          </ns3:TrackPointExtension>
        </extensions>
      </trkpt>
      <trkpt lat="43.76672021113336086273193359375" lon="1.58367267809808254241943359375">
        <ele>157.8000030517578125</ele>
        <time>2026-08-13T08:25:14.000Z</time>
        <extensions>
          <ns3:TrackPointExtension>
            <ns3:hr>74</ns3:hr>
            <ns3:cad>0</ns3:cad>
          </ns3:TrackPointExtension>
        </extensions>
      </trkpt>
      <trkpt lat="43.76672021113336086273193359375" lon="1.58367267809808254241943359375">
        <ele>157.8000030517578125</ele>
        <time>2026-08-13T08:25:15.000Z</time>
        <extensions>
          <ns3:TrackPointExtension>
            <ns3:hr>74</ns3:hr>
            <ns3:cad>0</ns3:cad>
          </ns3:TrackPointExtension>
        </extensions>
      </trkpt>
      <trkpt lat="43.76672021113336086273193359375" lon="1.58367267809808254241943359375">
        <ele>158</ele>
        <time>2026-08-13T08:25:16.000Z</time>
        <extensions>
          <ns3:TrackPointExtension>
            <ns3:hr>74</ns3:hr>
            <ns3:cad>0</ns3:cad>
          </ns3:TrackPointExtension>
        </extensions>
      </trkpt>
      <trkpt lat="43.76672021113336086273193359375" lon="1.58367267809808254241943359375">
        <ele>158</ele>
        <time>2026-08-13T08:25:17.000Z</time>
        <extensions>
          <ns3:TrackPointExtension>
            <ns3:hr>74</ns3:hr>
            <ns3:cad>0</ns3:cad>
          </ns3:TrackPointExtension>
        </extensions>
      </trkpt>
      <trkpt lat="43.76672021113336086273193359375" lon="1.58367267809808254241943359375">
        <ele>158</ele>
        <time>2026-08-13T08:25:18.000Z</time>
        <extensions>
          <ns3:TrackPointExtension>
            <ns3:hr>74</ns3:hr>
            <ns3:cad>0</ns3:cad>
          </ns3:TrackPointExtension>
        </extensions>
      </trkpt>
      <trkpt lat="43.76672021113336086273193359375" lon="1.58367267809808254241943359375">
        <ele>158</ele>
        <time>2026-08-13T08:25:19.000Z</time>
        <extensions>
          <ns3:TrackPointExtension>
            <ns3:hr>73</ns3:hr>
            <ns3:cad>0</ns3:cad>
          </ns3:TrackPointExtension>
        </extensions>
      </trkpt>
      <trkpt lat="43.76672021113336086273193359375" lon="1.58367267809808254241943359375">
        <ele>158</ele>
        <time>2026-08-13T08:25:20.000Z</time>
        <extensions>
          <ns3:TrackPointExtension>
            <ns3:hr>74</ns3:hr>
            <ns3:cad>0</ns3:cad>
          </ns3:TrackPointExtension>
        </extensions>
      </trkpt>
      <trkpt lat="43.76672021113336086273193359375" lon="1.58367267809808254241943359375">
        <ele>157.8000030517578125</ele>
        <time>2026-08-13T08:25:21.000Z</time>
        <extensions>
          <ns3:TrackPointExtension>
            <ns3:hr>74</ns3:hr>
            <ns3:cad>0</ns3:cad>
          </ns3:TrackPointExtension>
        </extensions>
      </trkpt>
      <trkpt lat="43.76672021113336086273193359375" lon="1.58367267809808254241943359375">
        <ele>157.8000030517578125</ele>
        <time>2026-08-13T08:25:22.000Z</time>
        <extensions>
          <ns3:TrackPointExtension>
            <ns3:hr>74</ns3:hr>
            <ns3:cad>0</ns3:cad>
          </ns3:TrackPointExtension>
        </extensions>
      </trkpt>
      <trkpt lat="43.76672021113336086273193359375" lon="1.58367267809808254241943359375">
        <ele>158</ele>
        <time>2026-08-13T08:25:23.000Z</time>
        <extensions>
          <ns3:TrackPointExtension>
            <ns3:hr>75</ns3:hr>
            <ns3:cad>0</ns3:cad>
          </ns3:TrackPointExtension>
        </extensions>
      </trkpt>
      <trkpt lat="43.76672021113336086273193359375" lon="1.58367267809808254241943359375">
        <ele>158</ele>
        <time>2026-08-13T08:25:24.000Z</time>
        <extensions>
          <ns3:TrackPointExtension>
            <ns3:hr>78</ns3:hr>
            <ns3:cad>0</ns3:cad>
          </ns3:TrackPointExtension>
        </extensions>
      </trkpt>
      <trkpt lat="43.76672021113336086273193359375" lon="1.58367267809808254241943359375">
        <ele>158</ele>
        <time>2026-08-13T08:25:25.000Z</time>
        <extensions>
          <ns3:TrackPointExtension>
            <ns3:hr>80</ns3:hr>
            <ns3:cad>0</ns3:cad>
          </ns3:TrackPointExtension>
        </extensions>
      </trkpt>
      <trkpt lat="43.76672021113336086273193359375" lon="1.58367267809808254241943359375">
        <ele>158</ele>
        <time>2026-08-13T08:25:26.000Z</time>
        <extensions>
          <ns3:TrackPointExtension>
            <ns3:hr>81</ns3:hr>
            <ns3:cad>0</ns3:cad>
          </ns3:TrackPointExtension>
        </extensions>
      </trkpt>
      <trkpt lat="43.76672021113336086273193359375" lon="1.58367267809808254241943359375">
        <ele>158</ele>
        <time>2026-08-13T08:25:27.000Z</time>
        <extensions>
          <ns3:TrackPointExtension>
            <ns3:hr>82</ns3:hr>
            <ns3:cad>0</ns3:cad>
          </ns3:TrackPointExtension>
        </extensions>
      </trkpt>
      <trkpt lat="43.76672021113336086273193359375" lon="1.58367267809808254241943359375">
        <ele>158</ele>
        <time>2026-08-13T08:25:28.000Z</time>
        <extensions>
          <ns3:TrackPointExtension>
            <ns3:hr>84</ns3:hr>
            <ns3:cad>0</ns3:cad>
          </ns3:TrackPointExtension>
        </extensions>
      </trkpt>
      <trkpt lat="43.76672021113336086273193359375" lon="1.58367267809808254241943359375">
        <ele>157.8000030517578125</ele>
        <time>2026-08-13T08:25:29.000Z</time>
        <extensions>
          <ns3:TrackPointExtension>
            <ns3:hr>85</ns3:hr>
            <ns3:cad>0</ns3:cad>
          </ns3:TrackPointExtension>
        </extensions>
      </trkpt>
      <trkpt lat="43.76672021113336086273193359375" lon="1.58367267809808254241943359375">
        <ele>157.8000030517578125</ele>
        <time>2026-08-13T08:25:30.000Z</time>
        <extensions>
          <ns3:TrackPointExtension>
            <ns3:hr>85</ns3:hr>
            <ns3:cad>0</ns3:cad>
          </ns3:TrackPointExtension>
        </extensions>
      </trkpt>
      <trkpt lat="43.76672021113336086273193359375" lon="1.58367267809808254241943359375">
        <ele>157.8000030517578125</ele>
        <time>2026-08-13T08:25:31.000Z</time>
        <extensions>
          <ns3:TrackPointExtension>
            <ns3:hr>85</ns3:hr>
            <ns3:cad>0</ns3:cad>
          </ns3:TrackPointExtension>
        </extensions>
      </trkpt>
      <trkpt lat="43.76672021113336086273193359375" lon="1.58367267809808254241943359375">
        <ele>157.8000030517578125</ele>
        <time>2026-08-13T08:25:32.000Z</time>
        <extensions>
          <ns3:TrackPointExtension>
            <ns3:hr>85</ns3:hr>
            <ns3:cad>0</ns3:cad>
          </ns3:TrackPointExtension>
        </extensions>
      </trkpt>
      <trkpt lat="43.76672021113336086273193359375" lon="1.58367267809808254241943359375">
        <ele>158</ele>
        <time>2026-08-13T08:25:33.000Z</time>
        <extensions>
          <ns3:TrackPointExtension>
            <ns3:hr>84</ns3:hr>
            <ns3:cad>0</ns3:cad>
          </ns3:TrackPointExtension>
        </extensions>
      </trkpt>
      <trkpt lat="43.76672021113336086273193359375" lon="1.58367267809808254241943359375">
        <ele>158</ele>
        <time>2026-08-13T08:25:34.000Z</time>
        <extensions>
          <ns3:TrackPointExtension>
            <ns3:hr>81</ns3:hr>
            <ns3:cad>0</ns3:cad>
          </ns3:TrackPointExtension>
        </extensions>
      </trkpt>
      <trkpt lat="43.76672021113336086273193359375" lon="1.58367737196385860443115234375">
        <ele>158</ele>
        <time>2026-08-13T08:25:35.000Z</time>
        <extensions>
          <ns3:TrackPointExtension>
            <ns3:hr>79</ns3:hr>
            <ns3:cad>0</ns3:cad>
          </ns3:TrackPointExtension>
        </extensions>
      </trkpt>
      <trkpt lat="43.76672004349529743194580078125" lon="1.5836819820106029510498046875">
        <ele>158</ele>
        <time>2026-08-13T08:25:36.000Z</time>
        <extensions>
          <ns3:TrackPointExtension>
            <ns3:hr>79</ns3:hr>
            <ns3:cad>0</ns3:cad>
          </ns3:TrackPointExtension>
        </extensions>
      </trkpt>
      <trkpt lat="43.76671828329563140869140625" lon="1.58368810079991817474365234375">
        <ele>158</ele>
        <time>2026-08-13T08:25:37.000Z</time>
        <extensions>
          <ns3:TrackPointExtension>
            <ns3:hr>78</ns3:hr>
            <ns3:cad>0</ns3:cad>
          </ns3:TrackPointExtension>
        </extensions>
      </trkpt>
      <trkpt lat="43.766716606914997100830078125" lon="1.5836923755705356597900390625">
        <ele>158</ele>
        <time>2026-08-13T08:25:38.000Z</time>
        <extensions>
          <ns3:TrackPointExtension>
            <ns3:hr>78</ns3:hr>
            <ns3:cad>0</ns3:cad>
          </ns3:TrackPointExtension>
        </extensions>
      </trkpt>
      <trkpt lat="43.766715936362743377685546875" lon="1.583694554865360260009765625">
        <ele>158</ele>
        <time>2026-08-13T08:25:39.000Z</time>
        <extensions>
          <ns3:TrackPointExtension>
            <ns3:hr>78</ns3:hr>
            <ns3:cad>0</ns3:cad>
          </ns3:TrackPointExtension>
        </extensions>
      </trkpt>
      <trkpt lat="43.7667150981724262237548828125" lon="1.5836967341601848602294921875">
        <ele>158</ele>
        <time>2026-08-13T08:25:40.000Z</time>
        <extensions>
          <ns3:TrackPointExtension>
            <ns3:hr>78</ns3:hr>
            <ns3:cad>0</ns3:cad>
          </ns3:TrackPointExtension>
        </extensions>
      </trkpt>
      <trkpt lat="43.766713254153728485107421875" lon="1.58369648270308971405029296875">
        <ele>158</ele>
        <time>2026-08-13T08:25:41.000Z</time>
        <extensions>
          <ns3:TrackPointExtension>
            <ns3:hr>78</ns3:hr>
            <ns3:cad>0</ns3:cad>
          </ns3:TrackPointExtension>
        </extensions>
      </trkpt>
      <trkpt lat="43.766711242496967315673828125" lon="1.58369312994182109832763671875">
        <ele>158</ele>
        <time>2026-08-13T08:25:42.000Z</time>
        <extensions>
          <ns3:TrackPointExtension>
            <ns3:hr>78</ns3:hr>
            <ns3:cad>0</ns3:cad>
          </ns3:TrackPointExtension>
        </extensions>
      </trkpt>
      <trkpt lat="43.7667114101350307464599609375" lon="1.58369312994182109832763671875">
        <ele>158</ele>
        <time>2026-08-13T08:25:43.000Z</time>
        <extensions>
          <ns3:TrackPointExtension>
            <ns3:hr>78</ns3:hr>
            <ns3:cad>0</ns3:cad>
          </ns3:TrackPointExtension>
        </extensions>
      </trkpt>
      <trkpt lat="43.7667114101350307464599609375" lon="1.58369312994182109832763671875">
        <ele>158.1999969482421875</ele>
        <time>2026-08-13T08:25:44.000Z</time>
        <extensions>
          <ns3:TrackPointExtension>
            <ns3:hr>79</ns3:hr>
            <ns3:cad>0</ns3:cad>
          </ns3:TrackPointExtension>
        </extensions>
      </trkpt>
      <trkpt lat="43.7667114101350307464599609375" lon="1.58369312994182109832763671875">
        <ele>158.1999969482421875</ele>
        <time>2026-08-13T08:25:45.000Z</time>
        <extensions>
          <ns3:TrackPointExtension>
            <ns3:hr>78</ns3:hr>
            <ns3:cad>0</ns3:cad>
          </ns3:TrackPointExtension>
        </extensions>
      </trkpt>
      <trkpt lat="43.7667114101350307464599609375" lon="1.58369312994182109832763671875">
        <ele>158.1999969482421875</ele>
        <time>2026-08-13T08:25:46.000Z</time>
        <extensions>
          <ns3:TrackPointExtension>
            <ns3:hr>78</ns3:hr>
            <ns3:cad>0</ns3:cad>
          </ns3:TrackPointExtension>
        </extensions>
      </trkpt>
      <trkpt lat="43.7667114101350307464599609375" lon="1.58369312994182109832763671875">
        <ele>158.1999969482421875</ele>
        <time>2026-08-13T08:25:47.000Z</time>
        <extensions>
          <ns3:TrackPointExtension>
            <ns3:hr>78</ns3:hr>
            <ns3:cad>0</ns3:cad>
          </ns3:TrackPointExtension>
        </extensions>
      </trkpt>
      <trkpt lat="43.7667114101350307464599609375" lon="1.58369312994182109832763671875">
        <ele>158.1999969482421875</ele>
        <time>2026-08-13T08:25:48.000Z</time>
        <extensions>
          <ns3:TrackPointExtension>
            <ns3:hr>78</ns3:hr>
            <ns3:cad>0</ns3:cad>
          </ns3:TrackPointExtension>
        </extensions>
      </trkpt>
      <trkpt lat="43.7667114101350307464599609375" lon="1.58369312994182109832763671875">
        <ele>158.1999969482421875</ele>
        <time>2026-08-13T08:25:49.000Z</time>
        <extensions>
          <ns3:TrackPointExtension>
            <ns3:hr>78</ns3:hr>
            <ns3:cad>0</ns3:cad>
          </ns3:TrackPointExtension>
        </extensions>
      </trkpt>
      <trkpt lat="43.7667114101350307464599609375" lon="1.58369312994182109832763671875">
        <ele>158.1999969482421875</ele>
        <time>2026-08-13T08:25:50.000Z</time>
        <extensions>
          <ns3:TrackPointExtension>
            <ns3:hr>78</ns3:hr>
            <ns3:cad>0</ns3:cad>
          </ns3:TrackPointExtension>
        </extensions>
      </trkpt>
      <trkpt lat="43.7667114101350307464599609375" lon="1.58369312994182109832763671875">
        <ele>158.1999969482421875</ele>
        <time>2026-08-13T08:25:51.000Z</time>
        <extensions>
          <ns3:TrackPointExtension>
            <ns3:hr>76</ns3:hr>
            <ns3:cad>0</ns3:cad>
          </ns3:TrackPointExtension>
        </extensions>
      </trkpt>
      <trkpt lat="43.7667114101350307464599609375" lon="1.58369312994182109832763671875">
        <ele>158.1999969482421875</ele>
        <time>2026-08-13T08:25:52.000Z</time>
        <extensions>
          <ns3:TrackPointExtension>
            <ns3:hr>75</ns3:hr>
            <ns3:cad>0</ns3:cad>
          </ns3:TrackPointExtension>
        </extensions>
      </trkpt>
      <trkpt lat="43.7667114101350307464599609375" lon="1.58369312994182109832763671875">
        <ele>158.1999969482421875</ele>
        <time>2026-08-13T08:25:53.000Z</time>
        <extensions>
          <ns3:TrackPointExtension>
            <ns3:hr>74</ns3:hr>
            <ns3:cad>0</ns3:cad>
          </ns3:TrackPointExtension>
        </extensions>
      </trkpt>
      <trkpt lat="43.7667114101350307464599609375" lon="1.58369312994182109832763671875">
        <ele>158.1999969482421875</ele>
        <time>2026-08-13T08:25:54.000Z</time>
        <extensions>
          <ns3:TrackPointExtension>
            <ns3:hr>73</ns3:hr>
            <ns3:cad>0</ns3:cad>
          </ns3:TrackPointExtension>
        </extensions>
      </trkpt>
      <trkpt lat="43.7667114101350307464599609375" lon="1.58369312994182109832763671875">
        <ele>158.1999969482421875</ele>
        <time>2026-08-13T08:25:55.000Z</time>
        <extensions>
          <ns3:TrackPointExtension>
            <ns3:hr>72</ns3:hr>
            <ns3:cad>0</ns3:cad>
          </ns3:TrackPointExtension>
        </extensions>
      </trkpt>
      <trkpt lat="43.7667114101350307464599609375" lon="1.58369312994182109832763671875">
        <ele>158.1999969482421875</ele>
        <time>2026-08-13T08:25:56.000Z</time>
        <extensions>
          <ns3:TrackPointExtension>
            <ns3:hr>72</ns3:hr>
            <ns3:cad>0</ns3:cad>
          </ns3:TrackPointExtension>
        </extensions>
      </trkpt>
      <trkpt lat="43.7667114101350307464599609375" lon="1.58369312994182109832763671875">
        <ele>158.1999969482421875</ele>
        <time>2026-08-13T08:25:57.000Z</time>
        <extensions>
          <ns3:TrackPointExtension>
            <ns3:hr>73</ns3:hr>
            <ns3:cad>0</ns3:cad>
          </ns3:TrackPointExtension>
        </extensions>
      </trkpt>
      <trkpt lat="43.7667114101350307464599609375" lon="1.58369312994182109832763671875">
        <ele>158.1999969482421875</ele>
        <time>2026-08-13T08:25:58.000Z</time>
        <extensions>
          <ns3:TrackPointExtension>
            <ns3:hr>73</ns3:hr>
            <ns3:cad>0</ns3:cad>
          </ns3:TrackPointExtension>
        </extensions>
      </trkpt>
      <trkpt lat="43.7667114101350307464599609375" lon="1.58369312994182109832763671875">
        <ele>158.1999969482421875</ele>
        <time>2026-08-13T08:25:59.000Z</time>
        <extensions>
          <ns3:TrackPointExtension>
            <ns3:hr>73</ns3:hr>
            <ns3:cad>0</ns3:cad>
          </ns3:TrackPointExtension>
        </extensions>
      </trkpt>
      <trkpt lat="43.7667114101350307464599609375" lon="1.58369312994182109832763671875">
        <ele>158</ele>
        <time>2026-08-13T08:26:00.000Z</time>
        <extensions>
          <ns3:TrackPointExtension>
            <ns3:hr>75</ns3:hr>
            <ns3:cad>0</ns3:cad>
          </ns3:TrackPointExtension>
        </extensions>
      </trkpt>
      <trkpt lat="43.7667114101350307464599609375" lon="1.58369312994182109832763671875">
        <ele>158</ele>
        <time>2026-08-13T08:26:01.000Z</time>
        <extensions>
          <ns3:TrackPointExtension>
            <ns3:hr>75</ns3:hr>
            <ns3:cad>0</ns3:cad>
          </ns3:TrackPointExtension>
        </extensions>
      </trkpt>
      <trkpt lat="43.7667114101350307464599609375" lon="1.58369312994182109832763671875">
        <ele>158</ele>
        <time>2026-08-13T08:26:02.000Z</time>
        <extensions>
          <ns3:TrackPointExtension>
            <ns3:hr>75</ns3:hr>
            <ns3:cad>0</ns3:cad>
          </ns3:TrackPointExtension>
        </extensions>
      </trkpt>
      <trkpt lat="43.7667114101350307464599609375" lon="1.58369312994182109832763671875">
        <ele>158</ele>
        <time>2026-08-13T08:26:03.000Z</time>
        <extensions>
          <ns3:TrackPointExtension>
            <ns3:hr>75</ns3:hr>
            <ns3:cad>0</ns3:cad>
          </ns3:TrackPointExtension>
        </extensions>
      </trkpt>
      <trkpt lat="43.7667114101350307464599609375" lon="1.58369312994182109832763671875">
        <ele>158</ele>
        <time>2026-08-13T08:26:04.000Z</time>
        <extensions>
          <ns3:TrackPointExtension>
            <ns3:hr>75</ns3:hr>
            <ns3:cad>0</ns3:cad>
          </ns3:TrackPointExtension>
        </extensions>
      </trkpt>
      <trkpt lat="43.7667114101350307464599609375" lon="1.58369312994182109832763671875">
        <ele>158</ele>
        <time>2026-08-13T08:26:05.000Z</time>
        <extensions>
          <ns3:TrackPointExtension>
            <ns3:hr>75</ns3:hr>
            <ns3:cad>0</ns3:cad>
          </ns3:TrackPointExtension>
        </extensions>
      </trkpt>
      <trkpt lat="43.76671937294304370880126953125" lon="1.58369245938956737518310546875">
        <ele>158</ele>
        <time>2026-08-13T08:26:06.000Z</time>
        <extensions>
          <ns3:TrackPointExtension>
            <ns3:hr>75</ns3:hr>
            <ns3:cad>0</ns3:cad>
          </ns3:TrackPointExtension>
        </extensions>
      </trkpt>
      <trkpt lat="43.766724653542041778564453125" lon="1.58369530923664569854736328125">
        <ele>158</ele>
        <time>2026-08-13T08:26:07.000Z</time>
        <extensions>
          <ns3:TrackPointExtension>
            <ns3:hr>75</ns3:hr>
            <ns3:cad>0</ns3:cad>
          </ns3:TrackPointExtension>
        </extensions>
      </trkpt>
      <trkpt lat="43.76672624610364437103271484375" lon="1.5836967341601848602294921875">
        <ele>158</ele>
        <time>2026-08-13T08:26:08.000Z</time>
        <extensions>
          <ns3:TrackPointExtension>
            <ns3:hr>75</ns3:hr>
            <ns3:cad>0</ns3:cad>
          </ns3:TrackPointExtension>
        </extensions>
      </trkpt>
      <trkpt lat="43.76672658137977123260498046875" lon="1.58369665034115314483642578125">
        <ele>158</ele>
        <time>2026-08-13T08:26:09.000Z</time>
        <extensions>
          <ns3:TrackPointExtension>
            <ns3:hr>75</ns3:hr>
            <ns3:cad>0</ns3:cad>
          </ns3:TrackPointExtension>
        </extensions>
      </trkpt>
      <trkpt lat="43.76673093996942043304443359375" lon="1.5836997516453266143798828125">
        <ele>158</ele>
        <time>2026-08-13T08:26:10.000Z</time>
        <extensions>
          <ns3:TrackPointExtension>
            <ns3:hr>75</ns3:hr>
            <ns3:cad>0</ns3:cad>
          </ns3:TrackPointExtension>
        </extensions>
      </trkpt>
      <trkpt lat="43.76673295162618160247802734375" lon="1.5837010927498340606689453125">
        <ele>158</ele>
        <time>2026-08-13T08:26:11.000Z</time>
        <extensions>
          <ns3:TrackPointExtension>
            <ns3:hr>75</ns3:hr>
            <ns3:cad>0</ns3:cad>
          </ns3:TrackPointExtension>
        </extensions>
      </trkpt>
      <trkpt lat="43.7667335383594036102294921875" lon="1.583701930940151214599609375">
        <ele>158</ele>
        <time>2026-08-13T08:26:12.000Z</time>
        <extensions>
          <ns3:TrackPointExtension>
            <ns3:hr>74</ns3:hr>
            <ns3:cad>0</ns3:cad>
          </ns3:TrackPointExtension>
        </extensions>
      </trkpt>
      <trkpt lat="43.7667335383594036102294921875" lon="1.583700589835643768310546875">
        <ele>158</ele>
        <time>2026-08-13T08:26:13.000Z</time>
        <extensions>
          <ns3:TrackPointExtension>
            <ns3:hr>74</ns3:hr>
            <ns3:cad>0</ns3:cad>
          </ns3:TrackPointExtension>
        </extensions>
      </trkpt>
      <trkpt lat="43.76673345454037189483642578125" lon="1.58370084129273891448974609375">
        <ele>158</ele>
        <time>2026-08-13T08:26:14.000Z</time>
        <extensions>
          <ns3:TrackPointExtension>
            <ns3:hr>74</ns3:hr>
            <ns3:cad>0</ns3:cad>
          </ns3:TrackPointExtension>
        </extensions>
      </trkpt>
      <trkpt lat="43.76673345454037189483642578125" lon="1.58370084129273891448974609375">
        <ele>158</ele>
        <time>2026-08-13T08:26:15.000Z</time>
        <extensions>
          <ns3:TrackPointExtension>
            <ns3:hr>73</ns3:hr>
            <ns3:cad>0</ns3:cad>
          </ns3:TrackPointExtension>
        </extensions>
      </trkpt>
      <trkpt lat="43.76673345454037189483642578125" lon="1.58370084129273891448974609375">
        <ele>158</ele>
        <time>2026-08-13T08:26:16.000Z</time>
        <extensions>
          <ns3:TrackPointExtension>
            <ns3:hr>73</ns3:hr>
            <ns3:cad>0</ns3:cad>
          </ns3:TrackPointExtension>
        </extensions>
      </trkpt>
      <trkpt lat="43.76673345454037189483642578125" lon="1.58370084129273891448974609375">
        <ele>158</ele>
        <time>2026-08-13T08:26:17.000Z</time>
        <extensions>
          <ns3:TrackPointExtension>
            <ns3:hr>72</ns3:hr>
            <ns3:cad>0</ns3:cad>
          </ns3:TrackPointExtension>
        </extensions>
      </trkpt>
      <trkpt lat="43.76673345454037189483642578125" lon="1.58370084129273891448974609375">
        <ele>157.8000030517578125</ele>
        <time>2026-08-13T08:26:18.000Z</time>
        <extensions>
          <ns3:TrackPointExtension>
            <ns3:hr>72</ns3:hr>
            <ns3:cad>0</ns3:cad>
          </ns3:TrackPointExtension>
        </extensions>
      </trkpt>
      <trkpt lat="43.76673345454037189483642578125" lon="1.58370084129273891448974609375">
        <ele>157.8000030517578125</ele>
        <time>2026-08-13T08:26:19.000Z</time>
        <extensions>
          <ns3:TrackPointExtension>
            <ns3:hr>72</ns3:hr>
            <ns3:cad>0</ns3:cad>
          </ns3:TrackPointExtension>
        </extensions>
      </trkpt>
      <trkpt lat="43.76673345454037189483642578125" lon="1.58370084129273891448974609375">
        <ele>157.8000030517578125</ele>
        <time>2026-08-13T08:26:20.000Z</time>
        <extensions>
          <ns3:TrackPointExtension>
            <ns3:hr>72</ns3:hr>
            <ns3:cad>0</ns3:cad>
          </ns3:TrackPointExtension>
        </extensions>
      </trkpt>
      <trkpt lat="43.76673345454037189483642578125" lon="1.58370084129273891448974609375">
        <ele>157.8000030517578125</ele>
        <time>2026-08-13T08:26:21.000Z</time>
        <extensions>
          <ns3:TrackPointExtension>
            <ns3:hr>72</ns3:hr>
            <ns3:cad>0</ns3:cad>
          </ns3:TrackPointExtension>
        </extensions>
      </trkpt>
      <trkpt lat="43.76673345454037189483642578125" lon="1.58370084129273891448974609375">
        <ele>158</ele>
        <time>2026-08-13T08:26:22.000Z</time>
        <extensions>
          <ns3:TrackPointExtension>
            <ns3:hr>72</ns3:hr>
            <ns3:cad>0</ns3:cad>
          </ns3:TrackPointExtension>
        </extensions>
      </trkpt>
      <trkpt lat="43.76673345454037189483642578125" lon="1.58370084129273891448974609375">
        <ele>158</ele>
        <time>2026-08-13T08:26:23.000Z</time>
        <extensions>
          <ns3:TrackPointExtension>
            <ns3:hr>73</ns3:hr>
            <ns3:cad>0</ns3:cad>
          </ns3:TrackPointExtension>
        </extensions>
      </trkpt>
      <trkpt lat="43.76673345454037189483642578125" lon="1.58370084129273891448974609375">
        <ele>158</ele>
        <time>2026-08-13T08:26:24.000Z</time>
        <extensions>
          <ns3:TrackPointExtension>
            <ns3:hr>74</ns3:hr>
            <ns3:cad>0</ns3:cad>
          </ns3:TrackPointExtension>
        </extensions>
      </trkpt>
      <trkpt lat="43.76673345454037189483642578125" lon="1.58370084129273891448974609375">
        <ele>158</ele>
        <time>2026-08-13T08:26:25.000Z</time>
        <extensions>
          <ns3:TrackPointExtension>
            <ns3:hr>75</ns3:hr>
            <ns3:cad>0</ns3:cad>
          </ns3:TrackPointExtension>
        </extensions>
      </trkpt>
      <trkpt lat="43.76673345454037189483642578125" lon="1.58370084129273891448974609375">
        <ele>158</ele>
        <time>2026-08-13T08:26:26.000Z</time>
        <extensions>
          <ns3:TrackPointExtension>
            <ns3:hr>77</ns3:hr>
            <ns3:cad>0</ns3:cad>
          </ns3:TrackPointExtension>
        </extensions>
      </trkpt>
      <trkpt lat="43.76673345454037189483642578125" lon="1.58370084129273891448974609375">
        <ele>158</ele>
        <time>2026-08-13T08:26:27.000Z</time>
        <extensions>
          <ns3:TrackPointExtension>
            <ns3:hr>77</ns3:hr>
            <ns3:cad>0</ns3:cad>
          </ns3:TrackPointExtension>
        </extensions>
      </trkpt>
      <trkpt lat="43.76673345454037189483642578125" lon="1.58370084129273891448974609375">
        <ele>158</ele>
        <time>2026-08-13T08:26:28.000Z</time>
        <extensions>
          <ns3:TrackPointExtension>
            <ns3:hr>77</ns3:hr>
            <ns3:cad>0</ns3:cad>
          </ns3:TrackPointExtension>
        </extensions>
      </trkpt>
      <trkpt lat="43.76673345454037189483642578125" lon="1.58370084129273891448974609375">
        <ele>158</ele>
        <time>2026-08-13T08:26:29.000Z</time>
        <extensions>
          <ns3:TrackPointExtension>
            <ns3:hr>76</ns3:hr>
            <ns3:cad>0</ns3:cad>
          </ns3:TrackPointExtension>
        </extensions>
      </trkpt>
      <trkpt lat="43.76673345454037189483642578125" lon="1.58370084129273891448974609375">
        <ele>158</ele>
        <time>2026-08-13T08:26:30.000Z</time>
        <extensions>
          <ns3:TrackPointExtension>
            <ns3:hr>76</ns3:hr>
            <ns3:cad>0</ns3:cad>
          </ns3:TrackPointExtension>
        </extensions>
      </trkpt>
      <trkpt lat="43.76673345454037189483642578125" lon="1.58370084129273891448974609375">
        <ele>158</ele>
        <time>2026-08-13T08:26:31.000Z</time>
        <extensions>
          <ns3:TrackPointExtension>
            <ns3:hr>76</ns3:hr>
            <ns3:cad>0</ns3:cad>
          </ns3:TrackPointExtension>
        </extensions>
      </trkpt>
      <trkpt lat="43.76673345454037189483642578125" lon="1.58370084129273891448974609375">
        <ele>158</ele>
        <time>2026-08-13T08:26:32.000Z</time>
        <extensions>
          <ns3:TrackPointExtension>
            <ns3:hr>77</ns3:hr>
            <ns3:cad>0</ns3:cad>
          </ns3:TrackPointExtension>
        </extensions>
      </trkpt>
      <trkpt lat="43.76673345454037189483642578125" lon="1.58370084129273891448974609375">
        <ele>158</ele>
        <time>2026-08-13T08:26:33.000Z</time>
        <extensions>
          <ns3:TrackPointExtension>
            <ns3:hr>77</ns3:hr>
            <ns3:cad>0</ns3:cad>
          </ns3:TrackPointExtension>
        </extensions>
      </trkpt>
      <trkpt lat="43.76673345454037189483642578125" lon="1.58370084129273891448974609375">
        <ele>158.1999969482421875</ele>
        <time>2026-08-13T08:26:34.000Z</time>
        <extensions>
          <ns3:TrackPointExtension>
            <ns3:hr>77</ns3:hr>
            <ns3:cad>0</ns3:cad>
          </ns3:TrackPointExtension>
        </extensions>
      </trkpt>
      <trkpt lat="43.76673345454037189483642578125" lon="1.58370084129273891448974609375">
        <ele>158.1999969482421875</ele>
        <time>2026-08-13T08:26:35.000Z</time>
        <extensions>
          <ns3:TrackPointExtension>
            <ns3:hr>77</ns3:hr>
            <ns3:cad>0</ns3:cad>
          </ns3:TrackPointExtension>
        </extensions>
      </trkpt>
      <trkpt lat="43.76673345454037189483642578125" lon="1.58370084129273891448974609375">
        <ele>158.1999969482421875</ele>
        <time>2026-08-13T08:26:36.000Z</time>
        <extensions>
          <ns3:TrackPointExtension>
            <ns3:hr>77</ns3:hr>
            <ns3:cad>0</ns3:cad>
          </ns3:TrackPointExtension>
        </extensions>
      </trkpt>
      <trkpt lat="43.76673345454037189483642578125" lon="1.58370084129273891448974609375">
        <ele>158.1999969482421875</ele>
        <time>2026-08-13T08:26:37.000Z</time>
        <extensions>
          <ns3:TrackPointExtension>
            <ns3:hr>76</ns3:hr>
            <ns3:cad>0</ns3:cad>
          </ns3:TrackPointExtension>
        </extensions>
      </trkpt>
      <trkpt lat="43.76673345454037189483642578125" lon="1.58370084129273891448974609375">
        <ele>158.1999969482421875</ele>
        <time>2026-08-13T08:26:38.000Z</time>
        <extensions>
          <ns3:TrackPointExtension>
            <ns3:hr>77</ns3:hr>
            <ns3:cad>0</ns3:cad>
          </ns3:TrackPointExtension>
        </extensions>
      </trkpt>
      <trkpt lat="43.76673211343586444854736328125" lon="1.5837014280259609222412109375">
        <ele>158</ele>
        <time>2026-08-13T08:26:39.000Z</time>
        <extensions>
          <ns3:TrackPointExtension>
            <ns3:hr>76</ns3:hr>
            <ns3:cad>0</ns3:cad>
          </ns3:TrackPointExtension>
        </extensions>
      </trkpt>
      <trkpt lat="43.76672876067459583282470703125" lon="1.58369899727404117584228515625">
        <ele>158</ele>
        <time>2026-08-13T08:26:40.000Z</time>
        <extensions>
          <ns3:TrackPointExtension>
            <ns3:hr>75</ns3:hr>
            <ns3:cad>0</ns3:cad>
          </ns3:TrackPointExtension>
        </extensions>
      </trkpt>
      <trkpt lat="43.76672364771366119384765625" lon="1.58369681797921657562255859375">
        <ele>158</ele>
        <time>2026-08-13T08:26:41.000Z</time>
        <extensions>
          <ns3:TrackPointExtension>
            <ns3:hr>75</ns3:hr>
            <ns3:cad>0</ns3:cad>
          </ns3:TrackPointExtension>
        </extensions>
      </trkpt>
      <trkpt lat="43.76672364771366119384765625" lon="1.5837062895298004150390625">
        <ele>158</ele>
        <time>2026-08-13T08:26:42.000Z</time>
        <extensions>
          <ns3:TrackPointExtension>
            <ns3:hr>75</ns3:hr>
            <ns3:cad>0</ns3:cad>
          </ns3:TrackPointExtension>
        </extensions>
      </trkpt>
      <trkpt lat="43.76671954058110713958740234375" lon="1.583714000880718231201171875">
        <ele>158</ele>
        <time>2026-08-13T08:26:43.000Z</time>
        <extensions>
          <ns3:TrackPointExtension>
            <ns3:hr>74</ns3:hr>
            <ns3:cad>0</ns3:cad>
          </ns3:TrackPointExtension>
        </extensions>
      </trkpt>
      <trkpt lat="43.766716606914997100830078125" lon="1.5837175212800502777099609375">
        <ele>158</ele>
        <time>2026-08-13T08:26:44.000Z</time>
        <extensions>
          <ns3:TrackPointExtension>
            <ns3:hr>74</ns3:hr>
            <ns3:cad>0</ns3:cad>
          </ns3:TrackPointExtension>
        </extensions>
      </trkpt>
      <trkpt lat="43.7667167745530605316162109375" lon="1.58371995203197002410888671875">
        <ele>158.1999969482421875</ele>
        <time>2026-08-13T08:26:45.000Z</time>
        <extensions>
          <ns3:TrackPointExtension>
            <ns3:hr>74</ns3:hr>
            <ns3:cad>0</ns3:cad>
          </ns3:TrackPointExtension>
        </extensions>
      </trkpt>
      <trkpt lat="43.7667171098291873931884765625" lon="1.58372011967003345489501953125">
        <ele>158.1999969482421875</ele>
        <time>2026-08-13T08:26:46.000Z</time>
        <extensions>
          <ns3:TrackPointExtension>
            <ns3:hr>75</ns3:hr>
            <ns3:cad>0</ns3:cad>
          </ns3:TrackPointExtension>
        </extensions>
      </trkpt>
      <trkpt lat="43.7667171098291873931884765625" lon="1.58372011967003345489501953125">
        <ele>158.1999969482421875</ele>
        <time>2026-08-13T08:26:47.000Z</time>
        <extensions>
          <ns3:TrackPointExtension>
            <ns3:hr>76</ns3:hr>
            <ns3:cad>0</ns3:cad>
          </ns3:TrackPointExtension>
        </extensions>
      </trkpt>
      <trkpt lat="43.7667171098291873931884765625" lon="1.58372011967003345489501953125">
        <ele>158.1999969482421875</ele>
        <time>2026-08-13T08:26:48.000Z</time>
        <extensions>
          <ns3:TrackPointExtension>
            <ns3:hr>76</ns3:hr>
            <ns3:cad>0</ns3:cad>
          </ns3:TrackPointExtension>
        </extensions>
      </trkpt>
      <trkpt lat="43.7667171098291873931884765625" lon="1.58372011967003345489501953125">
        <ele>158.1999969482421875</ele>
        <time>2026-08-13T08:26:49.000Z</time>
        <extensions>
          <ns3:TrackPointExtension>
            <ns3:hr>81</ns3:hr>
            <ns3:cad>0</ns3:cad>
          </ns3:TrackPointExtension>
        </extensions>
      </trkpt>
      <trkpt lat="43.7667174451053142547607421875" lon="1.58372062258422374725341796875">
        <ele>158.1999969482421875</ele>
        <time>2026-08-13T08:26:50.000Z</time>
        <extensions>
          <ns3:TrackPointExtension>
            <ns3:hr>82</ns3:hr>
            <ns3:cad>0</ns3:cad>
          </ns3:TrackPointExtension>
        </extensions>
      </trkpt>
      <trkpt lat="43.7667214684188365936279296875" lon="1.583726070821285247802734375">
        <ele>158.1999969482421875</ele>
        <time>2026-08-13T08:26:51.000Z</time>
        <extensions>
          <ns3:TrackPointExtension>
            <ns3:hr>83</ns3:hr>
            <ns3:cad>0</ns3:cad>
          </ns3:TrackPointExtension>
        </extensions>
      </trkpt>
      <trkpt lat="43.766723312437534332275390625" lon="1.583734117448329925537109375">
        <ele>158.1999969482421875</ele>
        <time>2026-08-13T08:26:52.000Z</time>
        <extensions>
          <ns3:TrackPointExtension>
            <ns3:hr>83</ns3:hr>
            <ns3:cad>0</ns3:cad>
          </ns3:TrackPointExtension>
        </extensions>
      </trkpt>
      <trkpt lat="43.7667244859039783477783203125" lon="1.58374182879924774169921875">
        <ele>158.1999969482421875</ele>
        <time>2026-08-13T08:26:53.000Z</time>
        <extensions>
          <ns3:TrackPointExtension>
            <ns3:hr>82</ns3:hr>
            <ns3:cad>0</ns3:cad>
          </ns3:TrackPointExtension>
        </extensions>
      </trkpt>
      <trkpt lat="43.7667238153517246246337890625" lon="1.583742164075374603271484375">
        <ele>158.1999969482421875</ele>
        <time>2026-08-13T08:26:54.000Z</time>
        <extensions>
          <ns3:TrackPointExtension>
            <ns3:hr>82</ns3:hr>
            <ns3:cad>0</ns3:cad>
          </ns3:TrackPointExtension>
        </extensions>
      </trkpt>
      <trkpt lat="43.76672222279012203216552734375" lon="1.58374392427504062652587890625">
        <ele>158.1999969482421875</ele>
        <time>2026-08-13T08:26:55.000Z</time>
        <extensions>
          <ns3:TrackPointExtension>
            <ns3:hr>81</ns3:hr>
            <ns3:cad>0</ns3:cad>
          </ns3:TrackPointExtension>
        </extensions>
      </trkpt>
      <trkpt lat="43.7667221389710903167724609375" lon="1.58374057151377201080322265625">
        <ele>158.1999969482421875</ele>
        <time>2026-08-13T08:26:56.000Z</time>
        <extensions>
          <ns3:TrackPointExtension>
            <ns3:hr>82</ns3:hr>
            <ns3:cad>0</ns3:cad>
          </ns3:TrackPointExtension>
        </extensions>
      </trkpt>
      <trkpt lat="43.7667234800755977630615234375" lon="1.583735458552837371826171875">
        <ele>158.1999969482421875</ele>
        <time>2026-08-13T08:26:57.000Z</time>
        <extensions>
          <ns3:TrackPointExtension>
            <ns3:hr>82</ns3:hr>
            <ns3:cad>0</ns3:cad>
          </ns3:TrackPointExtension>
        </extensions>
      </trkpt>
      <trkpt lat="43.76672322861850261688232421875" lon="1.58372967503964900970458984375">
        <ele>158.1999969482421875</ele>
        <time>2026-08-13T08:26:58.000Z</time>
        <extensions>
          <ns3:TrackPointExtension>
            <ns3:hr>82</ns3:hr>
            <ns3:cad>0</ns3:cad>
          </ns3:TrackPointExtension>
        </extensions>
      </trkpt>
      <trkpt lat="43.76672658137977123260498046875" lon="1.58372037112712860107421875">
        <ele>158.1999969482421875</ele>
        <time>2026-08-13T08:26:59.000Z</time>
        <extensions>
          <ns3:TrackPointExtension>
            <ns3:hr>82</ns3:hr>
            <ns3:cad>0</ns3:cad>
          </ns3:TrackPointExtension>
        </extensions>
      </trkpt>
      <trkpt lat="43.7667254917323589324951171875" lon="1.58372079022228717803955078125">
        <ele>158</ele>
        <time>2026-08-13T08:27:00.000Z</time>
        <extensions>
          <ns3:TrackPointExtension>
            <ns3:hr>82</ns3:hr>
            <ns3:cad>0</ns3:cad>
          </ns3:TrackPointExtension>
        </extensions>
      </trkpt>
      <trkpt lat="43.76672389917075634002685546875" lon="1.583720035851001739501953125">
        <ele>158</ele>
        <time>2026-08-13T08:27:01.000Z</time>
        <extensions>
          <ns3:TrackPointExtension>
            <ns3:hr>82</ns3:hr>
            <ns3:cad>0</ns3:cad>
          </ns3:TrackPointExtension>
        </extensions>
      </trkpt>
      <trkpt lat="43.76672389917075634002685546875" lon="1.5837158448994159698486328125">
        <ele>158</ele>
        <time>2026-08-13T08:27:02.000Z</time>
        <extensions>
          <ns3:TrackPointExtension>
            <ns3:hr>82</ns3:hr>
            <ns3:cad>0</ns3:cad>
          </ns3:TrackPointExtension>
        </extensions>
      </trkpt>
      <trkpt lat="43.76672607846558094024658203125" lon="1.58370922319591045379638671875">
        <ele>158</ele>
        <time>2026-08-13T08:27:03.000Z</time>
        <extensions>
          <ns3:TrackPointExtension>
            <ns3:hr>83</ns3:hr>
            <ns3:cad>0</ns3:cad>
          </ns3:TrackPointExtension>
        </extensions>
      </trkpt>
      <trkpt lat="43.76672565937042236328125" lon="1.5837061218917369842529296875">
        <ele>158</ele>
        <time>2026-08-13T08:27:04.000Z</time>
        <extensions>
          <ns3:TrackPointExtension>
            <ns3:hr>82</ns3:hr>
            <ns3:cad>0</ns3:cad>
          </ns3:TrackPointExtension>
        </extensions>
      </trkpt>
      <trkpt lat="43.766728341579437255859375" lon="1.58369715325534343719482421875">
        <ele>158</ele>
        <time>2026-08-13T08:27:05.000Z</time>
        <extensions>
          <ns3:TrackPointExtension>
            <ns3:hr>82</ns3:hr>
            <ns3:cad>0</ns3:cad>
          </ns3:TrackPointExtension>
        </extensions>
      </trkpt>
      <trkpt lat="43.7667298503220081329345703125" lon="1.58369396813213825225830078125">
        <ele>158</ele>
        <time>2026-08-13T08:27:06.000Z</time>
        <extensions>
          <ns3:TrackPointExtension>
            <ns3:hr>83</ns3:hr>
            <ns3:cad>0</ns3:cad>
          </ns3:TrackPointExtension>
        </extensions>
      </trkpt>
      <trkpt lat="43.76673177815973758697509765625" lon="1.58369363285601139068603515625">
        <ele>158</ele>
        <time>2026-08-13T08:27:07.000Z</time>
        <extensions>
          <ns3:TrackPointExtension>
            <ns3:hr>83</ns3:hr>
            <ns3:cad>0</ns3:cad>
          </ns3:TrackPointExtension>
        </extensions>
      </trkpt>
      <trkpt lat="43.76673395745456218719482421875" lon="1.58369195647537708282470703125">
        <ele>158</ele>
        <time>2026-08-13T08:27:08.000Z</time>
        <extensions>
          <ns3:TrackPointExtension>
            <ns3:hr>84</ns3:hr>
            <ns3:cad>0</ns3:cad>
          </ns3:TrackPointExtension>
        </extensions>
      </trkpt>
      <trkpt lat="43.76673328690230846405029296875" lon="1.58369380049407482147216796875">
        <ele>158</ele>
        <time>2026-08-13T08:27:09.000Z</time>
        <extensions>
          <ns3:TrackPointExtension>
            <ns3:hr>84</ns3:hr>
            <ns3:cad>0</ns3:cad>
          </ns3:TrackPointExtension>
        </extensions>
      </trkpt>
      <trkpt lat="43.7667350471019744873046875" lon="1.5836984105408191680908203125">
        <ele>158</ele>
        <time>2026-08-13T08:27:10.000Z</time>
        <extensions>
          <ns3:TrackPointExtension>
            <ns3:hr>83</ns3:hr>
            <ns3:cad>0</ns3:cad>
          </ns3:TrackPointExtension>
        </extensions>
      </trkpt>
      <trkpt lat="43.7667348794639110565185546875" lon="1.583697907626628875732421875">
        <ele>158</ele>
        <time>2026-08-13T08:27:11.000Z</time>
        <extensions>
          <ns3:TrackPointExtension>
            <ns3:hr>83</ns3:hr>
            <ns3:cad>0</ns3:cad>
          </ns3:TrackPointExtension>
        </extensions>
      </trkpt>
      <trkpt lat="43.7667358852922916412353515625" lon="1.58369564451277256011962890625">
        <ele>158</ele>
        <time>2026-08-13T08:27:12.000Z</time>
        <extensions>
          <ns3:TrackPointExtension>
            <ns3:hr>83</ns3:hr>
            <ns3:cad>0</ns3:cad>
          </ns3:TrackPointExtension>
        </extensions>
      </trkpt>
      <trkpt lat="43.76673462800681591033935546875" lon="1.583695225417613983154296875">
        <ele>158</ele>
        <time>2026-08-13T08:27:13.000Z</time>
        <extensions>
          <ns3:TrackPointExtension>
            <ns3:hr>79</ns3:hr>
            <ns3:cad>0</ns3:cad>
          </ns3:TrackPointExtension>
        </extensions>
      </trkpt>
      <trkpt lat="43.766734711825847625732421875" lon="1.58369547687470912933349609375">
        <ele>158</ele>
        <time>2026-08-13T08:27:14.000Z</time>
        <extensions>
          <ns3:TrackPointExtension>
            <ns3:hr>78</ns3:hr>
            <ns3:cad>0</ns3:cad>
          </ns3:TrackPointExtension>
        </extensions>
      </trkpt>
      <trkpt lat="43.7667352147400379180908203125" lon="1.58369564451277256011962890625">
        <ele>158</ele>
        <time>2026-08-13T08:27:15.000Z</time>
        <extensions>
          <ns3:TrackPointExtension>
            <ns3:hr>78</ns3:hr>
            <ns3:cad>0</ns3:cad>
          </ns3:TrackPointExtension>
        </extensions>
      </trkpt>
      <trkpt lat="43.7667352147400379180908203125" lon="1.58369564451277256011962890625">
        <ele>158</ele>
        <time>2026-08-13T08:27:16.000Z</time>
        <extensions>
          <ns3:TrackPointExtension>
            <ns3:hr>78</ns3:hr>
            <ns3:cad>0</ns3:cad>
          </ns3:TrackPointExtension>
        </extensions>
      </trkpt>
      <trkpt lat="43.7667352147400379180908203125" lon="1.58369564451277256011962890625">
        <ele>158</ele>
        <time>2026-08-13T08:27:17.000Z</time>
        <extensions>
          <ns3:TrackPointExtension>
            <ns3:hr>78</ns3:hr>
            <ns3:cad>0</ns3:cad>
          </ns3:TrackPointExtension>
        </extensions>
      </trkpt>
      <trkpt lat="43.7667352147400379180908203125" lon="1.58369564451277256011962890625">
        <ele>158</ele>
        <time>2026-08-13T08:27:18.000Z</time>
        <extensions>
          <ns3:TrackPointExtension>
            <ns3:hr>78</ns3:hr>
            <ns3:cad>0</ns3:cad>
          </ns3:TrackPointExtension>
        </extensions>
      </trkpt>
      <trkpt lat="43.7667352147400379180908203125" lon="1.58369564451277256011962890625">
        <ele>158</ele>
        <time>2026-08-13T08:27:19.000Z</time>
        <extensions>
          <ns3:TrackPointExtension>
            <ns3:hr>78</ns3:hr>
            <ns3:cad>0</ns3:cad>
          </ns3:TrackPointExtension>
        </extensions>
      </trkpt>
      <trkpt lat="43.7667352147400379180908203125" lon="1.58369564451277256011962890625">
        <ele>158</ele>
        <time>2026-08-13T08:27:20.000Z</time>
        <extensions>
          <ns3:TrackPointExtension>
            <ns3:hr>78</ns3:hr>
            <ns3:cad>0</ns3:cad>
          </ns3:TrackPointExtension>
        </extensions>
      </trkpt>
      <trkpt lat="43.7667352147400379180908203125" lon="1.58369564451277256011962890625">
        <ele>158</ele>
        <time>2026-08-13T08:27:21.000Z</time>
        <extensions>
          <ns3:TrackPointExtension>
            <ns3:hr>77</ns3:hr>
            <ns3:cad>0</ns3:cad>
          </ns3:TrackPointExtension>
        </extensions>
      </trkpt>
      <trkpt lat="43.7667352147400379180908203125" lon="1.58369564451277256011962890625">
        <ele>158</ele>
        <time>2026-08-13T08:27:22.000Z</time>
        <extensions>
          <ns3:TrackPointExtension>
            <ns3:hr>77</ns3:hr>
            <ns3:cad>0</ns3:cad>
          </ns3:TrackPointExtension>
        </extensions>
      </trkpt>
      <trkpt lat="43.7667352147400379180908203125" lon="1.58369564451277256011962890625">
        <ele>158</ele>
        <time>2026-08-13T08:27:23.000Z</time>
        <extensions>
          <ns3:TrackPointExtension>
            <ns3:hr>76</ns3:hr>
            <ns3:cad>0</ns3:cad>
          </ns3:TrackPointExtension>
        </extensions>
      </trkpt>
      <trkpt lat="43.76673529855906963348388671875" lon="1.5836960636079311370849609375">
        <ele>158</ele>
        <time>2026-08-13T08:27:24.000Z</time>
        <extensions>
          <ns3:TrackPointExtension>
            <ns3:hr>75</ns3:hr>
            <ns3:cad>0</ns3:cad>
          </ns3:TrackPointExtension>
        </extensions>
      </trkpt>
      <trkpt lat="43.76673093996942043304443359375" lon="1.58369631506502628326416015625">
        <ele>158</ele>
        <time>2026-08-13T08:27:25.000Z</time>
        <extensions>
          <ns3:TrackPointExtension>
            <ns3:hr>75</ns3:hr>
            <ns3:cad>0</ns3:cad>
          </ns3:TrackPointExtension>
        </extensions>
      </trkpt>
      <trkpt lat="43.76673144288361072540283203125" lon="1.58369279466569423675537109375">
        <ele>158</ele>
        <time>2026-08-13T08:27:26.000Z</time>
        <extensions>
          <ns3:TrackPointExtension>
            <ns3:hr>75</ns3:hr>
            <ns3:cad>0</ns3:cad>
          </ns3:TrackPointExtension>
        </extensions>
      </trkpt>
      <trkpt lat="43.76673169434070587158203125" lon="1.58369782380759716033935546875">
        <ele>158</ele>
        <time>2026-08-13T08:27:27.000Z</time>
        <extensions>
          <ns3:TrackPointExtension>
            <ns3:hr>75</ns3:hr>
            <ns3:cad>0</ns3:cad>
          </ns3:TrackPointExtension>
        </extensions>
      </trkpt>
      <trkpt lat="43.76673043705523014068603515625" lon="1.5837054513394832611083984375">
        <ele>158</ele>
        <time>2026-08-13T08:27:28.000Z</time>
        <extensions>
          <ns3:TrackPointExtension>
            <ns3:hr>75</ns3:hr>
            <ns3:cad>0</ns3:cad>
          </ns3:TrackPointExtension>
        </extensions>
      </trkpt>
      <trkpt lat="43.766726665198802947998046875" lon="1.58371358178555965423583984375">
        <ele>158</ele>
        <time>2026-08-13T08:27:29.000Z</time>
        <extensions>
          <ns3:TrackPointExtension>
            <ns3:hr>76</ns3:hr>
            <ns3:cad>0</ns3:cad>
          </ns3:TrackPointExtension>
        </extensions>
      </trkpt>
      <trkpt lat="43.76672691665589809417724609375" lon="1.583718024194240570068359375">
        <ele>158</ele>
        <time>2026-08-13T08:27:30.000Z</time>
        <extensions>
          <ns3:TrackPointExtension>
            <ns3:hr>76</ns3:hr>
            <ns3:cad>0</ns3:cad>
          </ns3:TrackPointExtension>
        </extensions>
      </trkpt>
      <trkpt lat="43.76672524027526378631591796875" lon="1.58372095786035060882568359375">
        <ele>158</ele>
        <time>2026-08-13T08:27:31.000Z</time>
        <extensions>
          <ns3:TrackPointExtension>
            <ns3:hr>76</ns3:hr>
            <ns3:cad>0</ns3:cad>
          </ns3:TrackPointExtension>
        </extensions>
      </trkpt>
      <trkpt lat="43.76672524027526378631591796875" lon="1.58372095786035060882568359375">
        <ele>158</ele>
        <time>2026-08-13T08:27:32.000Z</time>
        <extensions>
          <ns3:TrackPointExtension>
            <ns3:hr>77</ns3:hr>
            <ns3:cad>0</ns3:cad>
          </ns3:TrackPointExtension>
        </extensions>
      </trkpt>
      <trkpt lat="43.76672524027526378631591796875" lon="1.58372095786035060882568359375">
        <ele>158.1999969482421875</ele>
        <time>2026-08-13T08:27:33.000Z</time>
        <extensions>
          <ns3:TrackPointExtension>
            <ns3:hr>77</ns3:hr>
            <ns3:cad>0</ns3:cad>
          </ns3:TrackPointExtension>
        </extensions>
      </trkpt>
      <trkpt lat="43.76672524027526378631591796875" lon="1.58372095786035060882568359375">
        <ele>158.1999969482421875</ele>
        <time>2026-08-13T08:27:34.000Z</time>
        <extensions>
          <ns3:TrackPointExtension>
            <ns3:hr>80</ns3:hr>
            <ns3:cad>0</ns3:cad>
          </ns3:TrackPointExtension>
        </extensions>
      </trkpt>
      <trkpt lat="43.76672524027526378631591796875" lon="1.58372095786035060882568359375">
        <ele>158.1999969482421875</ele>
        <time>2026-08-13T08:27:35.000Z</time>
        <extensions>
          <ns3:TrackPointExtension>
            <ns3:hr>82</ns3:hr>
            <ns3:cad>0</ns3:cad>
          </ns3:TrackPointExtension>
        </extensions>
      </trkpt>
      <trkpt lat="43.76672524027526378631591796875" lon="1.58372095786035060882568359375">
        <ele>158.1999969482421875</ele>
        <time>2026-08-13T08:27:36.000Z</time>
        <extensions>
          <ns3:TrackPointExtension>
            <ns3:hr>83</ns3:hr>
            <ns3:cad>0</ns3:cad>
          </ns3:TrackPointExtension>
        </extensions>
      </trkpt>
      <trkpt lat="43.76672524027526378631591796875" lon="1.58372095786035060882568359375">
        <ele>158</ele>
        <time>2026-08-13T08:27:37.000Z</time>
        <extensions>
          <ns3:TrackPointExtension>
            <ns3:hr>84</ns3:hr>
            <ns3:cad>0</ns3:cad>
          </ns3:TrackPointExtension>
        </extensions>
      </trkpt>
      <trkpt lat="43.76672524027526378631591796875" lon="1.58372095786035060882568359375">
        <ele>158</ele>
        <time>2026-08-13T08:27:38.000Z</time>
        <extensions>
          <ns3:TrackPointExtension>
            <ns3:hr>84</ns3:hr>
            <ns3:cad>0</ns3:cad>
          </ns3:TrackPointExtension>
        </extensions>
      </trkpt>
      <trkpt lat="43.76672524027526378631591796875" lon="1.58372095786035060882568359375">
        <ele>158</ele>
        <time>2026-08-13T08:27:39.000Z</time>
        <extensions>
          <ns3:TrackPointExtension>
            <ns3:hr>84</ns3:hr>
            <ns3:cad>0</ns3:cad>
          </ns3:TrackPointExtension>
        </extensions>
      </trkpt>
      <trkpt lat="43.76672524027526378631591796875" lon="1.58372095786035060882568359375">
        <ele>158.1999969482421875</ele>
        <time>2026-08-13T08:27:40.000Z</time>
        <extensions>
          <ns3:TrackPointExtension>
            <ns3:hr>84</ns3:hr>
            <ns3:cad>0</ns3:cad>
          </ns3:TrackPointExtension>
        </extensions>
      </trkpt>
      <trkpt lat="43.76672524027526378631591796875" lon="1.58372095786035060882568359375">
        <ele>158.1999969482421875</ele>
        <time>2026-08-13T08:27:41.000Z</time>
        <extensions>
          <ns3:TrackPointExtension>
            <ns3:hr>83</ns3:hr>
            <ns3:cad>0</ns3:cad>
          </ns3:TrackPointExtension>
        </extensions>
      </trkpt>
      <trkpt lat="43.76672524027526378631591796875" lon="1.58372095786035060882568359375">
        <ele>158.1999969482421875</ele>
        <time>2026-08-13T08:27:42.000Z</time>
        <extensions>
          <ns3:TrackPointExtension>
            <ns3:hr>83</ns3:hr>
            <ns3:cad>0</ns3:cad>
          </ns3:TrackPointExtension>
        </extensions>
      </trkpt>
      <trkpt lat="43.76672524027526378631591796875" lon="1.58372095786035060882568359375">
        <ele>158.1999969482421875</ele>
        <time>2026-08-13T08:27:43.000Z</time>
        <extensions>
          <ns3:TrackPointExtension>
            <ns3:hr>82</ns3:hr>
            <ns3:cad>0</ns3:cad>
          </ns3:TrackPointExtension>
        </extensions>
      </trkpt>
      <trkpt lat="43.76672524027526378631591796875" lon="1.58372095786035060882568359375">
        <ele>158.1999969482421875</ele>
        <time>2026-08-13T08:27:44.000Z</time>
        <extensions>
          <ns3:TrackPointExtension>
            <ns3:hr>81</ns3:hr>
            <ns3:cad>0</ns3:cad>
          </ns3:TrackPointExtension>
        </extensions>
      </trkpt>
      <trkpt lat="43.76672524027526378631591796875" lon="1.58372095786035060882568359375">
        <ele>158.1999969482421875</ele>
        <time>2026-08-13T08:27:45.000Z</time>
        <extensions>
          <ns3:TrackPointExtension>
            <ns3:hr>80</ns3:hr>
            <ns3:cad>0</ns3:cad>
          </ns3:TrackPointExtension>
        </extensions>
      </trkpt>
      <trkpt lat="43.76672524027526378631591796875" lon="1.58372095786035060882568359375">
        <ele>158.1999969482421875</ele>
        <time>2026-08-13T08:27:46.000Z</time>
        <extensions>
          <ns3:TrackPointExtension>
            <ns3:hr>79</ns3:hr>
            <ns3:cad>0</ns3:cad>
          </ns3:TrackPointExtension>
        </extensions>
      </trkpt>
      <trkpt lat="43.76672524027526378631591796875" lon="1.58372095786035060882568359375">
        <ele>158.1999969482421875</ele>
        <time>2026-08-13T08:27:47.000Z</time>
        <extensions>
          <ns3:TrackPointExtension>
            <ns3:hr>78</ns3:hr>
            <ns3:cad>0</ns3:cad>
          </ns3:TrackPointExtension>
        </extensions>
      </trkpt>
      <trkpt lat="43.76672524027526378631591796875" lon="1.58372095786035060882568359375">
        <ele>158.1999969482421875</ele>
        <time>2026-08-13T08:27:48.000Z</time>
        <extensions>
          <ns3:TrackPointExtension>
            <ns3:hr>78</ns3:hr>
            <ns3:cad>0</ns3:cad>
          </ns3:TrackPointExtension>
        </extensions>
      </trkpt>
      <trkpt lat="43.76672524027526378631591796875" lon="1.58372095786035060882568359375">
        <ele>158.1999969482421875</ele>
        <time>2026-08-13T08:27:49.000Z</time>
        <extensions>
          <ns3:TrackPointExtension>
            <ns3:hr>78</ns3:hr>
            <ns3:cad>0</ns3:cad>
          </ns3:TrackPointExtension>
        </extensions>
      </trkpt>
      <trkpt lat="43.76672524027526378631591796875" lon="1.58372095786035060882568359375">
        <ele>158.1999969482421875</ele>
        <time>2026-08-13T08:27:50.000Z</time>
        <extensions>
          <ns3:TrackPointExtension>
            <ns3:hr>78</ns3:hr>
            <ns3:cad>0</ns3:cad>
          </ns3:TrackPointExtension>
        </extensions>
      </trkpt>
      <trkpt lat="43.76672524027526378631591796875" lon="1.58372095786035060882568359375">
        <ele>158.1999969482421875</ele>
        <time>2026-08-13T08:27:51.000Z</time>
        <extensions>
          <ns3:TrackPointExtension>
            <ns3:hr>77</ns3:hr>
            <ns3:cad>0</ns3:cad>
          </ns3:TrackPointExtension>
        </extensions>
      </trkpt>
      <trkpt lat="43.76672524027526378631591796875" lon="1.58372095786035060882568359375">
        <ele>158.1999969482421875</ele>
        <time>2026-08-13T08:27:52.000Z</time>
        <extensions>
          <ns3:TrackPointExtension>
            <ns3:hr>77</ns3:hr>
            <ns3:cad>0</ns3:cad>
          </ns3:TrackPointExtension>
        </extensions>
      </trkpt>
      <trkpt lat="43.76672524027526378631591796875" lon="1.58372095786035060882568359375">
        <ele>158.1999969482421875</ele>
        <time>2026-08-13T08:27:53.000Z</time>
        <extensions>
          <ns3:TrackPointExtension>
            <ns3:hr>77</ns3:hr>
            <ns3:cad>0</ns3:cad>
          </ns3:TrackPointExtension>
        </extensions>
      </trkpt>
      <trkpt lat="43.76672524027526378631591796875" lon="1.58372095786035060882568359375">
        <ele>158.1999969482421875</ele>
        <time>2026-08-13T08:27:54.000Z</time>
        <extensions>
          <ns3:TrackPointExtension>
            <ns3:hr>77</ns3:hr>
            <ns3:cad>0</ns3:cad>
          </ns3:TrackPointExtension>
        </extensions>
      </trkpt>
      <trkpt lat="43.76672524027526378631591796875" lon="1.58372095786035060882568359375">
        <ele>158.1999969482421875</ele>
        <time>2026-08-13T08:27:55.000Z</time>
        <extensions>
          <ns3:TrackPointExtension>
            <ns3:hr>77</ns3:hr>
            <ns3:cad>0</ns3:cad>
          </ns3:TrackPointExtension>
        </extensions>
      </trkpt>
      <trkpt lat="43.76672524027526378631591796875" lon="1.58372095786035060882568359375">
        <ele>158.1999969482421875</ele>
        <time>2026-08-13T08:27:56.000Z</time>
        <extensions>
          <ns3:TrackPointExtension>
            <ns3:hr>78</ns3:hr>
            <ns3:cad>0</ns3:cad>
          </ns3:TrackPointExtension>
        </extensions>
      </trkpt>
      <trkpt lat="43.76672524027526378631591796875" lon="1.58372095786035060882568359375">
        <ele>158.1999969482421875</ele>
        <time>2026-08-13T08:27:57.000Z</time>
        <extensions>
          <ns3:TrackPointExtension>
            <ns3:hr>78</ns3:hr>
            <ns3:cad>0</ns3:cad>
          </ns3:TrackPointExtension>
        </extensions>
      </trkpt>
      <trkpt lat="43.76672524027526378631591796875" lon="1.58372095786035060882568359375">
        <ele>158.1999969482421875</ele>
        <time>2026-08-13T08:27:58.000Z</time>
        <extensions>
          <ns3:TrackPointExtension>
            <ns3:hr>78</ns3:hr>
            <ns3:cad>0</ns3:cad>
          </ns3:TrackPointExtension>
        </extensions>
      </trkpt>
      <trkpt lat="43.76672524027526378631591796875" lon="1.58372095786035060882568359375">
        <ele>158.1999969482421875</ele>
        <time>2026-08-13T08:27:59.000Z</time>
        <extensions>
          <ns3:TrackPointExtension>
            <ns3:hr>79</ns3:hr>
            <ns3:cad>0</ns3:cad>
          </ns3:TrackPointExtension>
        </extensions>
      </trkpt>
      <trkpt lat="43.76672524027526378631591796875" lon="1.58372095786035060882568359375">
        <ele>158</ele>
        <time>2026-08-13T08:28:00.000Z</time>
        <extensions>
          <ns3:TrackPointExtension>
            <ns3:hr>80</ns3:hr>
            <ns3:cad>0</ns3:cad>
          </ns3:TrackPointExtension>
        </extensions>
      </trkpt>
      <trkpt lat="43.76672339625656604766845703125" lon="1.5837178565561771392822265625">
        <ele>158</ele>
        <time>2026-08-13T08:28:01.000Z</time>
        <extensions>
          <ns3:TrackPointExtension>
            <ns3:hr>81</ns3:hr>
            <ns3:cad>0</ns3:cad>
          </ns3:TrackPointExtension>
        </extensions>
      </trkpt>
      <trkpt lat="43.76672524027526378631591796875" lon="1.58372095786035060882568359375">
        <ele>158</ele>
        <time>2026-08-13T08:28:02.000Z</time>
        <extensions>
          <ns3:TrackPointExtension>
            <ns3:hr>82</ns3:hr>
            <ns3:cad>0</ns3:cad>
          </ns3:TrackPointExtension>
        </extensions>
      </trkpt>
      <trkpt lat="43.76672524027526378631591796875" lon="1.58372095786035060882568359375">
        <ele>158</ele>
        <time>2026-08-13T08:28:03.000Z</time>
        <extensions>
          <ns3:TrackPointExtension>
            <ns3:hr>83</ns3:hr>
            <ns3:cad>0</ns3:cad>
          </ns3:TrackPointExtension>
        </extensions>
      </trkpt>
      <trkpt lat="43.76672524027526378631591796875" lon="1.58372095786035060882568359375">
        <ele>158.1999969482421875</ele>
        <time>2026-08-13T08:28:04.000Z</time>
        <extensions>
          <ns3:TrackPointExtension>
            <ns3:hr>83</ns3:hr>
            <ns3:cad>0</ns3:cad>
          </ns3:TrackPointExtension>
        </extensions>
      </trkpt>
      <trkpt lat="43.76672524027526378631591796875" lon="1.58372095786035060882568359375">
        <ele>158.1999969482421875</ele>
        <time>2026-08-13T08:28:05.000Z</time>
        <extensions>
          <ns3:TrackPointExtension>
            <ns3:hr>84</ns3:hr>
            <ns3:cad>0</ns3:cad>
          </ns3:TrackPointExtension>
        </extensions>
      </trkpt>
      <trkpt lat="43.76672524027526378631591796875" lon="1.58372095786035060882568359375">
        <ele>158.1999969482421875</ele>
        <time>2026-08-13T08:28:06.000Z</time>
        <extensions>
          <ns3:TrackPointExtension>
            <ns3:hr>84</ns3:hr>
            <ns3:cad>0</ns3:cad>
          </ns3:TrackPointExtension>
        </extensions>
      </trkpt>
      <trkpt lat="43.76672524027526378631591796875" lon="1.58372095786035060882568359375">
        <ele>158.1999969482421875</ele>
        <time>2026-08-13T08:28:07.000Z</time>
        <extensions>
          <ns3:TrackPointExtension>
            <ns3:hr>84</ns3:hr>
            <ns3:cad>0</ns3:cad>
          </ns3:TrackPointExtension>
        </extensions>
      </trkpt>
      <trkpt lat="43.76672306098043918609619140625" lon="1.5837178565561771392822265625">
        <ele>158.1999969482421875</ele>
        <time>2026-08-13T08:28:08.000Z</time>
        <extensions>
          <ns3:TrackPointExtension>
            <ns3:hr>83</ns3:hr>
            <ns3:cad>0</ns3:cad>
          </ns3:TrackPointExtension>
        </extensions>
      </trkpt>
      <trkpt lat="43.76672524027526378631591796875" lon="1.58372095786035060882568359375">
        <ele>158.1999969482421875</ele>
        <time>2026-08-13T08:28:09.000Z</time>
        <extensions>
          <ns3:TrackPointExtension>
            <ns3:hr>83</ns3:hr>
            <ns3:cad>0</ns3:cad>
          </ns3:TrackPointExtension>
        </extensions>
      </trkpt>
      <trkpt lat="43.76672524027526378631591796875" lon="1.58372095786035060882568359375">
        <ele>158.1999969482421875</ele>
        <time>2026-08-13T08:28:10.000Z</time>
        <extensions>
          <ns3:TrackPointExtension>
            <ns3:hr>83</ns3:hr>
            <ns3:cad>0</ns3:cad>
          </ns3:TrackPointExtension>
        </extensions>
      </trkpt>
      <trkpt lat="43.76672524027526378631591796875" lon="1.58372095786035060882568359375">
        <ele>158.1999969482421875</ele>
        <time>2026-08-13T08:28:11.000Z</time>
        <extensions>
          <ns3:TrackPointExtension>
            <ns3:hr>84</ns3:hr>
            <ns3:cad>0</ns3:cad>
          </ns3:TrackPointExtension>
        </extensions>
      </trkpt>
      <trkpt lat="43.766720294952392578125" lon="1.58371911384165287017822265625">
        <ele>158.1999969482421875</ele>
        <time>2026-08-13T08:28:12.000Z</time>
        <extensions>
          <ns3:TrackPointExtension>
            <ns3:hr>84</ns3:hr>
            <ns3:cad>0</ns3:cad>
          </ns3:TrackPointExtension>
        </extensions>
      </trkpt>
      <trkpt lat="43.76671518199145793914794921875" lon="1.58371693454682826995849609375">
        <ele>158.1999969482421875</ele>
        <time>2026-08-13T08:28:13.000Z</time>
        <extensions>
          <ns3:TrackPointExtension>
            <ns3:hr>82</ns3:hr>
            <ns3:cad>0</ns3:cad>
          </ns3:TrackPointExtension>
        </extensions>
      </trkpt>
      <trkpt lat="43.76672524027526378631591796875" lon="1.58372095786035060882568359375">
        <ele>158.1999969482421875</ele>
        <time>2026-08-13T08:28:14.000Z</time>
        <extensions>
          <ns3:TrackPointExtension>
            <ns3:hr>76</ns3:hr>
            <ns3:cad>0</ns3:cad>
          </ns3:TrackPointExtension>
        </extensions>
      </trkpt>
      <trkpt lat="43.76672524027526378631591796875" lon="1.58372095786035060882568359375">
        <ele>158.1999969482421875</ele>
        <time>2026-08-13T08:28:15.000Z</time>
        <extensions>
          <ns3:TrackPointExtension>
            <ns3:hr>76</ns3:hr>
            <ns3:cad>0</ns3:cad>
          </ns3:TrackPointExtension>
        </extensions>
      </trkpt>
      <trkpt lat="43.76672524027526378631591796875" lon="1.58372095786035060882568359375">
        <ele>158.1999969482421875</ele>
        <time>2026-08-13T08:28:16.000Z</time>
        <extensions>
          <ns3:TrackPointExtension>
            <ns3:hr>76</ns3:hr>
            <ns3:cad>0</ns3:cad>
          </ns3:TrackPointExtension>
        </extensions>
      </trkpt>
      <trkpt lat="43.76672524027526378631591796875" lon="1.58372095786035060882568359375">
        <ele>158.1999969482421875</ele>
        <time>2026-08-13T08:28:17.000Z</time>
        <extensions>
          <ns3:TrackPointExtension>
            <ns3:hr>76</ns3:hr>
            <ns3:cad>0</ns3:cad>
          </ns3:TrackPointExtension>
        </extensions>
      </trkpt>
      <trkpt lat="43.76672524027526378631591796875" lon="1.58372095786035060882568359375">
        <ele>158.1999969482421875</ele>
        <time>2026-08-13T08:28:18.000Z</time>
        <extensions>
          <ns3:TrackPointExtension>
            <ns3:hr>79</ns3:hr>
            <ns3:cad>0</ns3:cad>
          </ns3:TrackPointExtension>
        </extensions>
      </trkpt>
      <trkpt lat="43.76672524027526378631591796875" lon="1.58372095786035060882568359375">
        <ele>158.1999969482421875</ele>
        <time>2026-08-13T08:28:19.000Z</time>
        <extensions>
          <ns3:TrackPointExtension>
            <ns3:hr>80</ns3:hr>
            <ns3:cad>0</ns3:cad>
          </ns3:TrackPointExtension>
        </extensions>
      </trkpt>
      <trkpt lat="43.76672524027526378631591796875" lon="1.58372095786035060882568359375">
        <ele>158.399993896484375</ele>
        <time>2026-08-13T08:28:20.000Z</time>
        <extensions>
          <ns3:TrackPointExtension>
            <ns3:hr>79</ns3:hr>
            <ns3:cad>0</ns3:cad>
          </ns3:TrackPointExtension>
        </extensions>
      </trkpt>
      <trkpt lat="43.76672524027526378631591796875" lon="1.58372095786035060882568359375">
        <ele>158.1999969482421875</ele>
        <time>2026-08-13T08:28:21.000Z</time>
        <extensions>
          <ns3:TrackPointExtension>
            <ns3:hr>79</ns3:hr>
            <ns3:cad>0</ns3:cad>
          </ns3:TrackPointExtension>
        </extensions>
      </trkpt>
      <trkpt lat="43.76672524027526378631591796875" lon="1.58372095786035060882568359375">
        <ele>158.1999969482421875</ele>
        <time>2026-08-13T08:28:22.000Z</time>
        <extensions>
          <ns3:TrackPointExtension>
            <ns3:hr>79</ns3:hr>
            <ns3:cad>0</ns3:cad>
          </ns3:TrackPointExtension>
        </extensions>
      </trkpt>
      <trkpt lat="43.76672524027526378631591796875" lon="1.58372095786035060882568359375">
        <ele>158.1999969482421875</ele>
        <time>2026-08-13T08:28:23.000Z</time>
        <extensions>
          <ns3:TrackPointExtension>
            <ns3:hr>78</ns3:hr>
            <ns3:cad>0</ns3:cad>
          </ns3:TrackPointExtension>
        </extensions>
      </trkpt>
      <trkpt lat="43.76672524027526378631591796875" lon="1.58372095786035060882568359375">
        <ele>158.1999969482421875</ele>
        <time>2026-08-13T08:28:24.000Z</time>
        <extensions>
          <ns3:TrackPointExtension>
            <ns3:hr>78</ns3:hr>
            <ns3:cad>0</ns3:cad>
          </ns3:TrackPointExtension>
        </extensions>
      </trkpt>
      <trkpt lat="43.76672524027526378631591796875" lon="1.58372095786035060882568359375">
        <ele>158.1999969482421875</ele>
        <time>2026-08-13T08:28:25.000Z</time>
        <extensions>
          <ns3:TrackPointExtension>
            <ns3:hr>78</ns3:hr>
            <ns3:cad>0</ns3:cad>
          </ns3:TrackPointExtension>
        </extensions>
      </trkpt>
      <trkpt lat="43.76672524027526378631591796875" lon="1.58372095786035060882568359375">
        <ele>158.1999969482421875</ele>
        <time>2026-08-13T08:28:26.000Z</time>
        <extensions>
          <ns3:TrackPointExtension>
            <ns3:hr>77</ns3:hr>
            <ns3:cad>0</ns3:cad>
          </ns3:TrackPointExtension>
        </extensions>
      </trkpt>
      <trkpt lat="43.76671970821917057037353515625" lon="1.58371777273714542388916015625">
        <ele>158.1999969482421875</ele>
        <time>2026-08-13T08:28:27.000Z</time>
        <extensions>
          <ns3:TrackPointExtension>
            <ns3:hr>76</ns3:hr>
            <ns3:cad>0</ns3:cad>
          </ns3:TrackPointExtension>
        </extensions>
      </trkpt>
      <trkpt lat="43.76671970821917057037353515625" lon="1.58371777273714542388916015625">
        <ele>158.1999969482421875</ele>
        <time>2026-08-13T08:28:28.000Z</time>
        <extensions>
          <ns3:TrackPointExtension>
            <ns3:hr>75</ns3:hr>
            <ns3:cad>0</ns3:cad>
          </ns3:TrackPointExtension>
        </extensions>
      </trkpt>
      <trkpt lat="43.76672524027526378631591796875" lon="1.58372095786035060882568359375">
        <ele>158.1999969482421875</ele>
        <time>2026-08-13T08:28:29.000Z</time>
        <extensions>
          <ns3:TrackPointExtension>
            <ns3:hr>75</ns3:hr>
            <ns3:cad>0</ns3:cad>
          </ns3:TrackPointExtension>
        </extensions>
      </trkpt>
      <trkpt lat="43.76672524027526378631591796875" lon="1.58372095786035060882568359375">
        <ele>158.399993896484375</ele>
        <time>2026-08-13T08:28:30.000Z</time>
        <extensions>
          <ns3:TrackPointExtension>
            <ns3:hr>74</ns3:hr>
            <ns3:cad>0</ns3:cad>
          </ns3:TrackPointExtension>
        </extensions>
      </trkpt>
      <trkpt lat="43.76672524027526378631591796875" lon="1.58372095786035060882568359375">
        <ele>158.399993896484375</ele>
        <time>2026-08-13T08:28:31.000Z</time>
        <extensions>
          <ns3:TrackPointExtension>
            <ns3:hr>74</ns3:hr>
            <ns3:cad>0</ns3:cad>
          </ns3:TrackPointExtension>
        </extensions>
      </trkpt>
      <trkpt lat="43.76672524027526378631591796875" lon="1.58372095786035060882568359375">
        <ele>158.399993896484375</ele>
        <time>2026-08-13T08:28:32.000Z</time>
        <extensions>
          <ns3:TrackPointExtension>
            <ns3:hr>74</ns3:hr>
            <ns3:cad>0</ns3:cad>
          </ns3:TrackPointExtension>
        </extensions>
      </trkpt>
      <trkpt lat="43.76672524027526378631591796875" lon="1.58372095786035060882568359375">
        <ele>158.399993896484375</ele>
        <time>2026-08-13T08:28:33.000Z</time>
        <extensions>
          <ns3:TrackPointExtension>
            <ns3:hr>74</ns3:hr>
            <ns3:cad>0</ns3:cad>
          </ns3:TrackPointExtension>
        </extensions>
      </trkpt>
      <trkpt lat="43.76672524027526378631591796875" lon="1.58372095786035060882568359375">
        <ele>158.399993896484375</ele>
        <time>2026-08-13T08:28:34.000Z</time>
        <extensions>
          <ns3:TrackPointExtension>
            <ns3:hr>74</ns3:hr>
            <ns3:cad>0</ns3:cad>
          </ns3:TrackPointExtension>
        </extensions>
      </trkpt>
      <trkpt lat="43.76672524027526378631591796875" lon="1.58372095786035060882568359375">
        <ele>158.399993896484375</ele>
        <time>2026-08-13T08:28:35.000Z</time>
        <extensions>
          <ns3:TrackPointExtension>
            <ns3:hr>73</ns3:hr>
            <ns3:cad>0</ns3:cad>
          </ns3:TrackPointExtension>
        </extensions>
      </trkpt>
      <trkpt lat="43.76672524027526378631591796875" lon="1.58372095786035060882568359375">
        <ele>158.399993896484375</ele>
        <time>2026-08-13T08:28:36.000Z</time>
        <extensions>
          <ns3:TrackPointExtension>
            <ns3:hr>74</ns3:hr>
            <ns3:cad>0</ns3:cad>
          </ns3:TrackPointExtension>
        </extensions>
      </trkpt>
      <trkpt lat="43.76672524027526378631591796875" lon="1.58372095786035060882568359375">
        <ele>158.399993896484375</ele>
        <time>2026-08-13T08:28:37.000Z</time>
        <extensions>
          <ns3:TrackPointExtension>
            <ns3:hr>74</ns3:hr>
            <ns3:cad>0</ns3:cad>
          </ns3:TrackPointExtension>
        </extensions>
      </trkpt>
      <trkpt lat="43.76672524027526378631591796875" lon="1.58372095786035060882568359375">
        <ele>158.399993896484375</ele>
        <time>2026-08-13T08:28:38.000Z</time>
        <extensions>
          <ns3:TrackPointExtension>
            <ns3:hr>74</ns3:hr>
            <ns3:cad>0</ns3:cad>
          </ns3:TrackPointExtension>
        </extensions>
      </trkpt>
      <trkpt lat="43.76672524027526378631591796875" lon="1.58372095786035060882568359375">
        <ele>158.399993896484375</ele>
        <time>2026-08-13T08:28:39.000Z</time>
        <extensions>
          <ns3:TrackPointExtension>
            <ns3:hr>74</ns3:hr>
            <ns3:cad>0</ns3:cad>
          </ns3:TrackPointExtension>
        </extensions>
      </trkpt>
      <trkpt lat="43.76672524027526378631591796875" lon="1.58372095786035060882568359375">
        <ele>158.399993896484375</ele>
        <time>2026-08-13T08:28:40.000Z</time>
        <extensions>
          <ns3:TrackPointExtension>
            <ns3:hr>74</ns3:hr>
            <ns3:cad>0</ns3:cad>
          </ns3:TrackPointExtension>
        </extensions>
      </trkpt>
      <trkpt lat="43.76672524027526378631591796875" lon="1.58372095786035060882568359375">
        <ele>158.399993896484375</ele>
        <time>2026-08-13T08:28:41.000Z</time>
        <extensions>
          <ns3:TrackPointExtension>
            <ns3:hr>74</ns3:hr>
            <ns3:cad>0</ns3:cad>
          </ns3:TrackPointExtension>
        </extensions>
      </trkpt>
      <trkpt lat="43.76672524027526378631591796875" lon="1.58372095786035060882568359375">
        <ele>158.399993896484375</ele>
        <time>2026-08-13T08:28:42.000Z</time>
        <extensions>
          <ns3:TrackPointExtension>
            <ns3:hr>74</ns3:hr>
            <ns3:cad>0</ns3:cad>
          </ns3:TrackPointExtension>
        </extensions>
      </trkpt>
      <trkpt lat="43.76672524027526378631591796875" lon="1.58372095786035060882568359375">
        <ele>158.399993896484375</ele>
        <time>2026-08-13T08:28:43.000Z</time>
        <extensions>
          <ns3:TrackPointExtension>
            <ns3:hr>74</ns3:hr>
            <ns3:cad>0</ns3:cad>
          </ns3:TrackPointExtension>
        </extensions>
      </trkpt>
      <trkpt lat="43.76672524027526378631591796875" lon="1.58372095786035060882568359375">
        <ele>158.399993896484375</ele>
        <time>2026-08-13T08:28:44.000Z</time>
        <extensions>
          <ns3:TrackPointExtension>
            <ns3:hr>74</ns3:hr>
            <ns3:cad>0</ns3:cad>
          </ns3:TrackPointExtension>
        </extensions>
      </trkpt>
      <trkpt lat="43.76672524027526378631591796875" lon="1.58372095786035060882568359375">
        <ele>158.399993896484375</ele>
        <time>2026-08-13T08:28:45.000Z</time>
        <extensions>
          <ns3:TrackPointExtension>
            <ns3:hr>74</ns3:hr>
            <ns3:cad>0</ns3:cad>
          </ns3:TrackPointExtension>
        </extensions>
      </trkpt>
      <trkpt lat="43.76672524027526378631591796875" lon="1.58372095786035060882568359375">
        <ele>158.399993896484375</ele>
        <time>2026-08-13T08:28:46.000Z</time>
        <extensions>
          <ns3:TrackPointExtension>
            <ns3:hr>73</ns3:hr>
            <ns3:cad>0</ns3:cad>
          </ns3:TrackPointExtension>
        </extensions>
      </trkpt>
      <trkpt lat="43.76672524027526378631591796875" lon="1.58372095786035060882568359375">
        <ele>158.399993896484375</ele>
        <time>2026-08-13T08:28:47.000Z</time>
        <extensions>
          <ns3:TrackPointExtension>
            <ns3:hr>73</ns3:hr>
            <ns3:cad>0</ns3:cad>
          </ns3:TrackPointExtension>
        </extensions>
      </trkpt>
      <trkpt lat="43.76672524027526378631591796875" lon="1.58372095786035060882568359375">
        <ele>158.399993896484375</ele>
        <time>2026-08-13T08:28:48.000Z</time>
        <extensions>
          <ns3:TrackPointExtension>
            <ns3:hr>73</ns3:hr>
            <ns3:cad>0</ns3:cad>
          </ns3:TrackPointExtension>
        </extensions>
      </trkpt>
      <trkpt lat="43.76672524027526378631591796875" lon="1.58372095786035060882568359375">
        <ele>158.399993896484375</ele>
        <time>2026-08-13T08:28:49.000Z</time>
        <extensions>
          <ns3:TrackPointExtension>
            <ns3:hr>74</ns3:hr>
            <ns3:cad>0</ns3:cad>
          </ns3:TrackPointExtension>
        </extensions>
      </trkpt>
      <trkpt lat="43.76672524027526378631591796875" lon="1.58372095786035060882568359375">
        <ele>158.399993896484375</ele>
        <time>2026-08-13T08:28:50.000Z</time>
        <extensions>
          <ns3:TrackPointExtension>
            <ns3:hr>73</ns3:hr>
            <ns3:cad>0</ns3:cad>
          </ns3:TrackPointExtension>
        </extensions>
      </trkpt>
      <trkpt lat="43.76672524027526378631591796875" lon="1.58372095786035060882568359375">
        <ele>158.399993896484375</ele>
        <time>2026-08-13T08:28:51.000Z</time>
        <extensions>
          <ns3:TrackPointExtension>
            <ns3:hr>73</ns3:hr>
            <ns3:cad>0</ns3:cad>
          </ns3:TrackPointExtension>
        </extensions>
      </trkpt>
      <trkpt lat="43.76672524027526378631591796875" lon="1.58372095786035060882568359375">
        <ele>158.1999969482421875</ele>
        <time>2026-08-13T08:28:52.000Z</time>
        <extensions>
          <ns3:TrackPointExtension>
            <ns3:hr>72</ns3:hr>
            <ns3:cad>0</ns3:cad>
          </ns3:TrackPointExtension>
        </extensions>
      </trkpt>
      <trkpt lat="43.76673169434070587158203125" lon="1.583714000880718231201171875">
        <ele>158.1999969482421875</ele>
        <time>2026-08-13T08:28:53.000Z</time>
        <extensions>
          <ns3:TrackPointExtension>
            <ns3:hr>72</ns3:hr>
            <ns3:cad>0</ns3:cad>
          </ns3:TrackPointExtension>
        </extensions>
      </trkpt>
      <trkpt lat="43.7667345441877841949462890625" lon="1.5837134979665279388427734375">
        <ele>158.1999969482421875</ele>
        <time>2026-08-13T08:28:54.000Z</time>
        <extensions>
          <ns3:TrackPointExtension>
            <ns3:hr>71</ns3:hr>
            <ns3:cad>0</ns3:cad>
          </ns3:TrackPointExtension>
        </extensions>
      </trkpt>
      <trkpt lat="43.76673228107392787933349609375" lon="1.5837074629962444305419921875">
        <ele>158.1999969482421875</ele>
        <time>2026-08-13T08:28:55.000Z</time>
        <extensions>
          <ns3:TrackPointExtension>
            <ns3:hr>71</ns3:hr>
            <ns3:cad>0</ns3:cad>
          </ns3:TrackPointExtension>
        </extensions>
      </trkpt>
      <trkpt lat="43.766723982989788055419921875" lon="1.5837027691304683685302734375">
        <ele>158.1999969482421875</ele>
        <time>2026-08-13T08:28:56.000Z</time>
        <extensions>
          <ns3:TrackPointExtension>
            <ns3:hr>72</ns3:hr>
            <ns3:cad>0</ns3:cad>
          </ns3:TrackPointExtension>
        </extensions>
      </trkpt>
      <trkpt lat="43.76672004349529743194580078125" lon="1.5836982429027557373046875">
        <ele>158.1999969482421875</ele>
        <time>2026-08-13T08:28:57.000Z</time>
        <extensions>
          <ns3:TrackPointExtension>
            <ns3:hr>72</ns3:hr>
            <ns3:cad>0</ns3:cad>
          </ns3:TrackPointExtension>
        </extensions>
      </trkpt>
      <trkpt lat="43.76671551726758480072021484375" lon="1.5836953930556774139404296875">
        <ele>158.1999969482421875</ele>
        <time>2026-08-13T08:28:58.000Z</time>
        <extensions>
          <ns3:TrackPointExtension>
            <ns3:hr>71</ns3:hr>
            <ns3:cad>0</ns3:cad>
          </ns3:TrackPointExtension>
        </extensions>
      </trkpt>
      <trkpt lat="43.76671367324888706207275390625" lon="1.58370050601661205291748046875">
        <ele>158.1999969482421875</ele>
        <time>2026-08-13T08:28:59.000Z</time>
        <extensions>
          <ns3:TrackPointExtension>
            <ns3:hr>71</ns3:hr>
            <ns3:cad>0</ns3:cad>
          </ns3:TrackPointExtension>
        </extensions>
      </trkpt>
      <trkpt lat="43.76671132631599903106689453125" lon="1.58370151184499263763427734375">
        <ele>158.1999969482421875</ele>
        <time>2026-08-13T08:29:00.000Z</time>
        <extensions>
          <ns3:TrackPointExtension>
            <ns3:hr>71</ns3:hr>
            <ns3:cad>0</ns3:cad>
          </ns3:TrackPointExtension>
        </extensions>
      </trkpt>
      <trkpt lat="43.7667093984782695770263671875" lon="1.58370318822562694549560546875">
        <ele>158.1999969482421875</ele>
        <time>2026-08-13T08:29:01.000Z</time>
        <extensions>
          <ns3:TrackPointExtension>
            <ns3:hr>71</ns3:hr>
            <ns3:cad>0</ns3:cad>
          </ns3:TrackPointExtension>
        </extensions>
      </trkpt>
      <trkpt lat="43.7667095661163330078125" lon="1.58370302058756351470947265625">
        <ele>158.1999969482421875</ele>
        <time>2026-08-13T08:29:02.000Z</time>
        <extensions>
          <ns3:TrackPointExtension>
            <ns3:hr>71</ns3:hr>
            <ns3:cad>0</ns3:cad>
          </ns3:TrackPointExtension>
        </extensions>
      </trkpt>
      <trkpt lat="43.7667095661163330078125" lon="1.58370302058756351470947265625">
        <ele>158.1999969482421875</ele>
        <time>2026-08-13T08:29:03.000Z</time>
        <extensions>
          <ns3:TrackPointExtension>
            <ns3:hr>71</ns3:hr>
            <ns3:cad>0</ns3:cad>
          </ns3:TrackPointExtension>
        </extensions>
      </trkpt>
      <trkpt lat="43.7667095661163330078125" lon="1.58370302058756351470947265625">
        <ele>158.1999969482421875</ele>
        <time>2026-08-13T08:29:04.000Z</time>
        <extensions>
          <ns3:TrackPointExtension>
            <ns3:hr>71</ns3:hr>
            <ns3:cad>0</ns3:cad>
          </ns3:TrackPointExtension>
        </extensions>
      </trkpt>
      <trkpt lat="43.7667095661163330078125" lon="1.58370302058756351470947265625">
        <ele>158.1999969482421875</ele>
        <time>2026-08-13T08:29:05.000Z</time>
        <extensions>
          <ns3:TrackPointExtension>
            <ns3:hr>71</ns3:hr>
            <ns3:cad>0</ns3:cad>
          </ns3:TrackPointExtension>
        </extensions>
      </trkpt>
      <trkpt lat="43.7667095661163330078125" lon="1.58370302058756351470947265625">
        <ele>158.1999969482421875</ele>
        <time>2026-08-13T08:29:06.000Z</time>
        <extensions>
          <ns3:TrackPointExtension>
            <ns3:hr>70</ns3:hr>
            <ns3:cad>0</ns3:cad>
          </ns3:TrackPointExtension>
        </extensions>
      </trkpt>
      <trkpt lat="43.7667095661163330078125" lon="1.58370302058756351470947265625">
        <ele>158.1999969482421875</ele>
        <time>2026-08-13T08:29:07.000Z</time>
        <extensions>
          <ns3:TrackPointExtension>
            <ns3:hr>70</ns3:hr>
            <ns3:cad>0</ns3:cad>
          </ns3:TrackPointExtension>
        </extensions>
      </trkpt>
      <trkpt lat="43.7667095661163330078125" lon="1.58370302058756351470947265625">
        <ele>158.1999969482421875</ele>
        <time>2026-08-13T08:29:08.000Z</time>
        <extensions>
          <ns3:TrackPointExtension>
            <ns3:hr>72</ns3:hr>
            <ns3:cad>0</ns3:cad>
          </ns3:TrackPointExtension>
        </extensions>
      </trkpt>
      <trkpt lat="43.7667095661163330078125" lon="1.58370302058756351470947265625">
        <ele>158.1999969482421875</ele>
        <time>2026-08-13T08:29:09.000Z</time>
        <extensions>
          <ns3:TrackPointExtension>
            <ns3:hr>76</ns3:hr>
            <ns3:cad>0</ns3:cad>
          </ns3:TrackPointExtension>
        </extensions>
      </trkpt>
      <trkpt lat="43.7667095661163330078125" lon="1.58370302058756351470947265625">
        <ele>158.1999969482421875</ele>
        <time>2026-08-13T08:29:10.000Z</time>
        <extensions>
          <ns3:TrackPointExtension>
            <ns3:hr>77</ns3:hr>
            <ns3:cad>0</ns3:cad>
          </ns3:TrackPointExtension>
        </extensions>
      </trkpt>
      <trkpt lat="43.7667095661163330078125" lon="1.58370302058756351470947265625">
        <ele>158.1999969482421875</ele>
        <time>2026-08-13T08:29:11.000Z</time>
        <extensions>
          <ns3:TrackPointExtension>
            <ns3:hr>77</ns3:hr>
            <ns3:cad>0</ns3:cad>
          </ns3:TrackPointExtension>
        </extensions>
      </trkpt>
      <trkpt lat="43.7667095661163330078125" lon="1.58370302058756351470947265625">
        <ele>158.1999969482421875</ele>
        <time>2026-08-13T08:29:12.000Z</time>
        <extensions>
          <ns3:TrackPointExtension>
            <ns3:hr>78</ns3:hr>
            <ns3:cad>0</ns3:cad>
          </ns3:TrackPointExtension>
        </extensions>
      </trkpt>
      <trkpt lat="43.7667095661163330078125" lon="1.58370302058756351470947265625">
        <ele>158.1999969482421875</ele>
        <time>2026-08-13T08:29:13.000Z</time>
        <extensions>
          <ns3:TrackPointExtension>
            <ns3:hr>78</ns3:hr>
            <ns3:cad>0</ns3:cad>
          </ns3:TrackPointExtension>
        </extensions>
      </trkpt>
      <trkpt lat="43.7667095661163330078125" lon="1.58370302058756351470947265625">
        <ele>158.1999969482421875</ele>
        <time>2026-08-13T08:29:14.000Z</time>
        <extensions>
          <ns3:TrackPointExtension>
            <ns3:hr>78</ns3:hr>
            <ns3:cad>0</ns3:cad>
          </ns3:TrackPointExtension>
        </extensions>
      </trkpt>
      <trkpt lat="43.7667095661163330078125" lon="1.58370302058756351470947265625">
        <ele>158.1999969482421875</ele>
        <time>2026-08-13T08:29:15.000Z</time>
        <extensions>
          <ns3:TrackPointExtension>
            <ns3:hr>78</ns3:hr>
            <ns3:cad>0</ns3:cad>
          </ns3:TrackPointExtension>
        </extensions>
      </trkpt>
      <trkpt lat="43.7667095661163330078125" lon="1.58370302058756351470947265625">
        <ele>158.1999969482421875</ele>
        <time>2026-08-13T08:29:16.000Z</time>
        <extensions>
          <ns3:TrackPointExtension>
            <ns3:hr>78</ns3:hr>
            <ns3:cad>0</ns3:cad>
          </ns3:TrackPointExtension>
        </extensions>
      </trkpt>
      <trkpt lat="43.7667095661163330078125" lon="1.58370302058756351470947265625">
        <ele>158.1999969482421875</ele>
        <time>2026-08-13T08:29:17.000Z</time>
        <extensions>
          <ns3:TrackPointExtension>
            <ns3:hr>78</ns3:hr>
            <ns3:cad>0</ns3:cad>
          </ns3:TrackPointExtension>
        </extensions>
      </trkpt>
      <trkpt lat="43.7667095661163330078125" lon="1.58370302058756351470947265625">
        <ele>158.1999969482421875</ele>
        <time>2026-08-13T08:29:18.000Z</time>
        <extensions>
          <ns3:TrackPointExtension>
            <ns3:hr>79</ns3:hr>
            <ns3:cad>0</ns3:cad>
          </ns3:TrackPointExtension>
        </extensions>
      </trkpt>
      <trkpt lat="43.7667095661163330078125" lon="1.58370302058756351470947265625">
        <ele>158.399993896484375</ele>
        <time>2026-08-13T08:29:19.000Z</time>
        <extensions>
          <ns3:TrackPointExtension>
            <ns3:hr>79</ns3:hr>
            <ns3:cad>0</ns3:cad>
          </ns3:TrackPointExtension>
        </extensions>
      </trkpt>
      <trkpt lat="43.7667095661163330078125" lon="1.58370302058756351470947265625">
        <ele>158.399993896484375</ele>
        <time>2026-08-13T08:29:20.000Z</time>
        <extensions>
          <ns3:TrackPointExtension>
            <ns3:hr>78</ns3:hr>
            <ns3:cad>0</ns3:cad>
          </ns3:TrackPointExtension>
        </extensions>
      </trkpt>
      <trkpt lat="43.7667095661163330078125" lon="1.58370302058756351470947265625">
        <ele>158.399993896484375</ele>
        <time>2026-08-13T08:29:21.000Z</time>
        <extensions>
          <ns3:TrackPointExtension>
            <ns3:hr>78</ns3:hr>
            <ns3:cad>0</ns3:cad>
          </ns3:TrackPointExtension>
        </extensions>
      </trkpt>
      <trkpt lat="43.7667095661163330078125" lon="1.58370302058756351470947265625">
        <ele>158.1999969482421875</ele>
        <time>2026-08-13T08:29:22.000Z</time>
        <extensions>
          <ns3:TrackPointExtension>
            <ns3:hr>79</ns3:hr>
            <ns3:cad>0</ns3:cad>
          </ns3:TrackPointExtension>
        </extensions>
      </trkpt>
      <trkpt lat="43.7667095661163330078125" lon="1.58370302058756351470947265625">
        <ele>158.1999969482421875</ele>
        <time>2026-08-13T08:29:23.000Z</time>
        <extensions>
          <ns3:TrackPointExtension>
            <ns3:hr>78</ns3:hr>
            <ns3:cad>0</ns3:cad>
          </ns3:TrackPointExtension>
        </extensions>
      </trkpt>
      <trkpt lat="43.7667095661163330078125" lon="1.58370302058756351470947265625">
        <ele>158.1999969482421875</ele>
        <time>2026-08-13T08:29:24.000Z</time>
        <extensions>
          <ns3:TrackPointExtension>
            <ns3:hr>75</ns3:hr>
            <ns3:cad>0</ns3:cad>
          </ns3:TrackPointExtension>
        </extensions>
      </trkpt>
      <trkpt lat="43.76671216450631618499755859375" lon="1.5836987458169460296630859375">
        <ele>158.1999969482421875</ele>
        <time>2026-08-13T08:29:25.000Z</time>
        <extensions>
          <ns3:TrackPointExtension>
            <ns3:hr>74</ns3:hr>
            <ns3:cad>0</ns3:cad>
          </ns3:TrackPointExtension>
        </extensions>
      </trkpt>
      <trkpt lat="43.76671828329563140869140625" lon="1.5836977399885654449462890625">
        <ele>158.1999969482421875</ele>
        <time>2026-08-13T08:29:26.000Z</time>
        <extensions>
          <ns3:TrackPointExtension>
            <ns3:hr>69</ns3:hr>
            <ns3:cad>0</ns3:cad>
          </ns3:TrackPointExtension>
        </extensions>
      </trkpt>
      <trkpt lat="43.76672356389462947845458984375" lon="1.58369380049407482147216796875">
        <ele>158.1999969482421875</ele>
        <time>2026-08-13T08:29:27.000Z</time>
        <extensions>
          <ns3:TrackPointExtension>
            <ns3:hr>67</ns3:hr>
            <ns3:cad>0</ns3:cad>
          </ns3:TrackPointExtension>
        </extensions>
      </trkpt>
      <trkpt lat="43.7667216360569000244140625" lon="1.5836903639137744903564453125">
        <ele>158.1999969482421875</ele>
        <time>2026-08-13T08:29:28.000Z</time>
        <extensions>
          <ns3:TrackPointExtension>
            <ns3:hr>68</ns3:hr>
            <ns3:cad>0</ns3:cad>
          </ns3:TrackPointExtension>
        </extensions>
      </trkpt>
      <trkpt lat="43.76672230660915374755859375" lon="1.5836813114583492279052734375">
        <ele>158.1999969482421875</ele>
        <time>2026-08-13T08:29:29.000Z</time>
        <extensions>
          <ns3:TrackPointExtension>
            <ns3:hr>68</ns3:hr>
            <ns3:cad>0</ns3:cad>
          </ns3:TrackPointExtension>
        </extensions>
      </trkpt>
      <trkpt lat="43.7667228095233440399169921875" lon="1.58368106000125408172607421875">
        <ele>158.1999969482421875</ele>
        <time>2026-08-13T08:29:30.000Z</time>
        <extensions>
          <ns3:TrackPointExtension>
            <ns3:hr>69</ns3:hr>
            <ns3:cad>0</ns3:cad>
          </ns3:TrackPointExtension>
        </extensions>
      </trkpt>
      <trkpt lat="43.76672767102718353271484375" lon="1.5836772881448268890380859375">
        <ele>158.1999969482421875</ele>
        <time>2026-08-13T08:29:31.000Z</time>
        <extensions>
          <ns3:TrackPointExtension>
            <ns3:hr>68</ns3:hr>
            <ns3:cad>0</ns3:cad>
          </ns3:TrackPointExtension>
        </extensions>
      </trkpt>
      <trkpt lat="43.76672976650297641754150390625" lon="1.58367435447871685028076171875">
        <ele>158.399993896484375</ele>
        <time>2026-08-13T08:29:32.000Z</time>
        <extensions>
          <ns3:TrackPointExtension>
            <ns3:hr>68</ns3:hr>
            <ns3:cad>0</ns3:cad>
          </ns3:TrackPointExtension>
        </extensions>
      </trkpt>
      <trkpt lat="43.76673010177910327911376953125" lon="1.58367435447871685028076171875">
        <ele>158.399993896484375</ele>
        <time>2026-08-13T08:29:33.000Z</time>
        <extensions>
          <ns3:TrackPointExtension>
            <ns3:hr>67</ns3:hr>
            <ns3:cad>0</ns3:cad>
          </ns3:TrackPointExtension>
        </extensions>
      </trkpt>
      <trkpt lat="43.76673571765422821044921875" lon="1.583670414984226226806640625">
        <ele>158.399993896484375</ele>
        <time>2026-08-13T08:29:34.000Z</time>
        <extensions>
          <ns3:TrackPointExtension>
            <ns3:hr>67</ns3:hr>
            <ns3:cad>0</ns3:cad>
          </ns3:TrackPointExtension>
        </extensions>
      </trkpt>
      <trkpt lat="43.76673714257776737213134765625" lon="1.58367150463163852691650390625">
        <ele>158.399993896484375</ele>
        <time>2026-08-13T08:29:35.000Z</time>
        <extensions>
          <ns3:TrackPointExtension>
            <ns3:hr>66</ns3:hr>
            <ns3:cad>0</ns3:cad>
          </ns3:TrackPointExtension>
        </extensions>
      </trkpt>
      <trkpt lat="43.7667516432702541351318359375" lon="1.583671756088733673095703125">
        <ele>158.399993896484375</ele>
        <time>2026-08-13T08:29:36.000Z</time>
        <extensions>
          <ns3:TrackPointExtension>
            <ns3:hr>66</ns3:hr>
            <ns3:cad>0</ns3:cad>
          </ns3:TrackPointExtension>
        </extensions>
      </trkpt>
      <trkpt lat="43.76675876788794994354248046875" lon="1.58367385156452655792236328125">
        <ele>158.600006103515625</ele>
        <time>2026-08-13T08:29:37.000Z</time>
        <extensions>
          <ns3:TrackPointExtension>
            <ns3:hr>66</ns3:hr>
            <ns3:cad>0</ns3:cad>
          </ns3:TrackPointExtension>
        </extensions>
      </trkpt>
      <trkpt lat="43.7667560018599033355712890625" lon="1.5836742706596851348876953125">
        <ele>158.399993896484375</ele>
        <time>2026-08-13T08:29:38.000Z</time>
        <extensions>
          <ns3:TrackPointExtension>
            <ns3:hr>67</ns3:hr>
            <ns3:cad>0</ns3:cad>
          </ns3:TrackPointExtension>
        </extensions>
      </trkpt>
      <trkpt lat="43.76675860024988651275634765625" lon="1.58368323929607868194580078125">
        <ele>158.399993896484375</ele>
        <time>2026-08-13T08:29:39.000Z</time>
        <extensions>
          <ns3:TrackPointExtension>
            <ns3:hr>67</ns3:hr>
            <ns3:cad>0</ns3:cad>
          </ns3:TrackPointExtension>
        </extensions>
      </trkpt>
      <trkpt lat="43.76676061190664768218994140625" lon="1.583686508238315582275390625">
        <ele>158.600006103515625</ele>
        <time>2026-08-13T08:29:40.000Z</time>
        <extensions>
          <ns3:TrackPointExtension>
            <ns3:hr>68</ns3:hr>
            <ns3:cad>0</ns3:cad>
          </ns3:TrackPointExtension>
        </extensions>
      </trkpt>
      <trkpt lat="43.76676388084888458251953125" lon="1.583689860999584197998046875">
        <ele>158.600006103515625</ele>
        <time>2026-08-13T08:29:41.000Z</time>
        <extensions>
          <ns3:TrackPointExtension>
            <ns3:hr>68</ns3:hr>
            <ns3:cad>0</ns3:cad>
          </ns3:TrackPointExtension>
        </extensions>
      </trkpt>
      <trkpt lat="43.76676882617175579071044921875" lon="1.58368826843798160552978515625">
        <ele>158.600006103515625</ele>
        <time>2026-08-13T08:29:42.000Z</time>
        <extensions>
          <ns3:TrackPointExtension>
            <ns3:hr>69</ns3:hr>
            <ns3:cad>0</ns3:cad>
          </ns3:TrackPointExtension>
        </extensions>
      </trkpt>
      <trkpt lat="43.7667754478752613067626953125" lon="1.58369095064699649810791015625">
        <ele>158.600006103515625</ele>
        <time>2026-08-13T08:29:43.000Z</time>
        <extensions>
          <ns3:TrackPointExtension>
            <ns3:hr>70</ns3:hr>
            <ns3:cad>0</ns3:cad>
          </ns3:TrackPointExtension>
        </extensions>
      </trkpt>
      <trkpt lat="43.76678089611232280731201171875" lon="1.58369329757988452911376953125">
        <ele>158.600006103515625</ele>
        <time>2026-08-13T08:29:44.000Z</time>
        <extensions>
          <ns3:TrackPointExtension>
            <ns3:hr>71</ns3:hr>
            <ns3:cad>0</ns3:cad>
          </ns3:TrackPointExtension>
        </extensions>
      </trkpt>
      <trkpt lat="43.766791708767414093017578125" lon="1.58370318822562694549560546875">
        <ele>158.600006103515625</ele>
        <time>2026-08-13T08:29:45.000Z</time>
        <extensions>
          <ns3:TrackPointExtension>
            <ns3:hr>72</ns3:hr>
            <ns3:cad>74</ns3:cad>
          </ns3:TrackPointExtension>
        </extensions>
      </trkpt>
      <trkpt lat="43.76680143177509307861328125" lon="1.5837108157575130462646484375">
        <ele>158.600006103515625</ele>
        <time>2026-08-13T08:29:46.000Z</time>
        <extensions>
          <ns3:TrackPointExtension>
            <ns3:hr>72</ns3:hr>
            <ns3:cad>74</ns3:cad>
          </ns3:TrackPointExtension>
        </extensions>
      </trkpt>
      <trkpt lat="43.7668123282492160797119140625" lon="1.583718024194240570068359375">
        <ele>158.8000030517578125</ele>
        <time>2026-08-13T08:29:47.000Z</time>
        <extensions>
          <ns3:TrackPointExtension>
            <ns3:hr>73</ns3:hr>
            <ns3:cad>74</ns3:cad>
          </ns3:TrackPointExtension>
        </extensions>
      </trkpt>
      <trkpt lat="43.7668235599994659423828125" lon="1.5837218798696994781494140625">
        <ele>158.8000030517578125</ele>
        <time>2026-08-13T08:29:48.000Z</time>
        <extensions>
          <ns3:TrackPointExtension>
            <ns3:hr>73</ns3:hr>
            <ns3:cad>74</ns3:cad>
          </ns3:TrackPointExtension>
        </extensions>
      </trkpt>
      <trkpt lat="43.7668342888355255126953125" lon="1.58372632227838039398193359375">
        <ele>158.8000030517578125</ele>
        <time>2026-08-13T08:29:49.000Z</time>
        <extensions>
          <ns3:TrackPointExtension>
            <ns3:hr>73</ns3:hr>
            <ns3:cad>44</ns3:cad>
          </ns3:TrackPointExtension>
        </extensions>
      </trkpt>
      <trkpt lat="43.7668465264141559600830078125" lon="1.58372305333614349365234375">
        <ele>158.8000030517578125</ele>
        <time>2026-08-13T08:29:50.000Z</time>
        <extensions>
          <ns3:TrackPointExtension>
            <ns3:hr>74</ns3:hr>
            <ns3:cad>44</ns3:cad>
          </ns3:TrackPointExtension>
        </extensions>
      </trkpt>
      <trkpt lat="43.7668552435934543609619140625" lon="1.5837248973548412322998046875">
        <ele>158.8000030517578125</ele>
        <time>2026-08-13T08:29:51.000Z</time>
        <extensions>
          <ns3:TrackPointExtension>
            <ns3:hr>74</ns3:hr>
            <ns3:cad>44</ns3:cad>
          </ns3:TrackPointExtension>
        </extensions>
      </trkpt>
      <trkpt lat="43.7668612785637378692626953125" lon="1.5837250649929046630859375">
        <ele>158.8000030517578125</ele>
        <time>2026-08-13T08:29:52.000Z</time>
        <extensions>
          <ns3:TrackPointExtension>
            <ns3:hr>75</ns3:hr>
            <ns3:cad>44</ns3:cad>
          </ns3:TrackPointExtension>
        </extensions>
      </trkpt>
      <trkpt lat="43.766873516142368316650390625" lon="1.58372146077454090118408203125">
        <ele>158.8000030517578125</ele>
        <time>2026-08-13T08:29:53.000Z</time>
        <extensions>
          <ns3:TrackPointExtension>
            <ns3:hr>75</ns3:hr>
            <ns3:cad>42</ns3:cad>
          </ns3:TrackPointExtension>
        </extensions>
      </trkpt>
      <trkpt lat="43.76687997020781040191650390625" lon="1.58372037112712860107421875">
        <ele>158.8000030517578125</ele>
        <time>2026-08-13T08:29:54.000Z</time>
        <extensions>
          <ns3:TrackPointExtension>
            <ns3:hr>76</ns3:hr>
            <ns3:cad>42</ns3:cad>
          </ns3:TrackPointExtension>
        </extensions>
      </trkpt>
      <trkpt lat="43.766887597739696502685546875" lon="1.58372162841260433197021484375">
        <ele>158.8000030517578125</ele>
        <time>2026-08-13T08:29:55.000Z</time>
        <extensions>
          <ns3:TrackPointExtension>
            <ns3:hr>76</ns3:hr>
            <ns3:cad>43</ns3:cad>
          </ns3:TrackPointExtension>
        </extensions>
      </trkpt>
      <trkpt lat="43.76689304597675800323486328125" lon="1.58371944911777973175048828125">
        <ele>158.8000030517578125</ele>
        <time>2026-08-13T08:29:56.000Z</time>
        <extensions>
          <ns3:TrackPointExtension>
            <ns3:hr>77</ns3:hr>
            <ns3:cad>44</ns3:cad>
          </ns3:TrackPointExtension>
        </extensions>
      </trkpt>
      <trkpt lat="43.766901008784770965576171875" lon="1.5837156772613525390625">
        <ele>158.8000030517578125</ele>
        <time>2026-08-13T08:29:57.000Z</time>
        <extensions>
          <ns3:TrackPointExtension>
            <ns3:hr>77</ns3:hr>
            <ns3:cad>44</ns3:cad>
          </ns3:TrackPointExtension>
        </extensions>
      </trkpt>
      <trkpt lat="43.76690494827926158905029296875" lon="1.58372011967003345489501953125">
        <ele>158.8000030517578125</ele>
        <time>2026-08-13T08:29:58.000Z</time>
        <extensions>
          <ns3:TrackPointExtension>
            <ns3:hr>77</ns3:hr>
            <ns3:cad>44</ns3:cad>
          </ns3:TrackPointExtension>
        </extensions>
      </trkpt>
      <trkpt lat="43.76691584475338459014892578125" lon="1.58372045494616031646728515625">
        <ele>158.8000030517578125</ele>
        <time>2026-08-13T08:29:59.000Z</time>
        <extensions>
          <ns3:TrackPointExtension>
            <ns3:hr>78</ns3:hr>
            <ns3:cad>44</ns3:cad>
          </ns3:TrackPointExtension>
        </extensions>
      </trkpt>
      <trkpt lat="43.76692674122750759124755859375" lon="1.58371911384165287017822265625">
        <ele>158.8000030517578125</ele>
        <time>2026-08-13T08:30:00.000Z</time>
        <extensions>
          <ns3:TrackPointExtension>
            <ns3:hr>78</ns3:hr>
            <ns3:cad>44</ns3:cad>
          </ns3:TrackPointExtension>
        </extensions>
      </trkpt>
      <trkpt lat="43.76692942343652248382568359375" lon="1.58371676690876483917236328125">
        <ele>158.8000030517578125</ele>
        <time>2026-08-13T08:30:01.000Z</time>
        <extensions>
          <ns3:TrackPointExtension>
            <ns3:hr>78</ns3:hr>
            <ns3:cad>42</ns3:cad>
          </ns3:TrackPointExtension>
        </extensions>
      </trkpt>
      <trkpt lat="43.7669427506625652313232421875" lon="1.5837114863097667694091796875">
        <ele>158.8000030517578125</ele>
        <time>2026-08-13T08:30:02.000Z</time>
        <extensions>
          <ns3:TrackPointExtension>
            <ns3:hr>78</ns3:hr>
            <ns3:cad>0</ns3:cad>
          </ns3:TrackPointExtension>
        </extensions>
      </trkpt>
      <trkpt lat="43.766951300203800201416015625" lon="1.58371098339557647705078125">
        <ele>158.8000030517578125</ele>
        <time>2026-08-13T08:30:03.000Z</time>
        <extensions>
          <ns3:TrackPointExtension>
            <ns3:hr>78</ns3:hr>
            <ns3:cad>0</ns3:cad>
          </ns3:TrackPointExtension>
        </extensions>
      </trkpt>
      <trkpt lat="43.76695808954536914825439453125" lon="1.583709977567195892333984375">
        <ele>158.8000030517578125</ele>
        <time>2026-08-13T08:30:04.000Z</time>
        <extensions>
          <ns3:TrackPointExtension>
            <ns3:hr>77</ns3:hr>
            <ns3:cad>79</ns3:cad>
          </ns3:TrackPointExtension>
        </extensions>
      </trkpt>
      <trkpt lat="43.766968734562397003173828125" lon="1.58370503224432468414306640625">
        <ele>158.8000030517578125</ele>
        <time>2026-08-13T08:30:05.000Z</time>
        <extensions>
          <ns3:TrackPointExtension>
            <ns3:hr>77</ns3:hr>
            <ns3:cad>79</ns3:cad>
          </ns3:TrackPointExtension>
        </extensions>
      </trkpt>
      <trkpt lat="43.7669766135513782501220703125" lon="1.5837000869214534759521484375">
        <ele>159</ele>
        <time>2026-08-13T08:30:06.000Z</time>
        <extensions>
          <ns3:TrackPointExtension>
            <ns3:hr>76</ns3:hr>
            <ns3:cad>79</ns3:cad>
          </ns3:TrackPointExtension>
        </extensions>
      </trkpt>
      <trkpt lat="43.766980133950710296630859375" lon="1.583696566522121429443359375">
        <ele>159</ele>
        <time>2026-08-13T08:30:07.000Z</time>
        <extensions>
          <ns3:TrackPointExtension>
            <ns3:hr>76</ns3:hr>
            <ns3:cad>79</ns3:cad>
          </ns3:TrackPointExtension>
        </extensions>
      </trkpt>
      <trkpt lat="43.76699195243418216705322265625" lon="1.5836901962757110595703125">
        <ele>159</ele>
        <time>2026-08-13T08:30:08.000Z</time>
        <extensions>
          <ns3:TrackPointExtension>
            <ns3:hr>76</ns3:hr>
            <ns3:cad>79</ns3:cad>
          </ns3:TrackPointExtension>
        </extensions>
      </trkpt>
      <trkpt lat="43.766996562480926513671875" lon="1.5836866758763790130615234375">
        <ele>159</ele>
        <time>2026-08-13T08:30:09.000Z</time>
        <extensions>
          <ns3:TrackPointExtension>
            <ns3:hr>76</ns3:hr>
            <ns3:cad>0</ns3:cad>
          </ns3:TrackPointExtension>
        </extensions>
      </trkpt>
      <trkpt lat="43.7669977359473705291748046875" lon="1.5836863406002521514892578125">
        <ele>159</ele>
        <time>2026-08-13T08:30:10.000Z</time>
        <extensions>
          <ns3:TrackPointExtension>
            <ns3:hr>76</ns3:hr>
            <ns3:cad>0</ns3:cad>
          </ns3:TrackPointExtension>
        </extensions>
      </trkpt>
      <trkpt lat="43.76700393855571746826171875" lon="1.583681143820285797119140625">
        <ele>159</ele>
        <time>2026-08-13T08:30:11.000Z</time>
        <extensions>
          <ns3:TrackPointExtension>
            <ns3:hr>76</ns3:hr>
            <ns3:cad>41</ns3:cad>
          </ns3:TrackPointExtension>
        </extensions>
      </trkpt>
      <trkpt lat="43.76701198518276214599609375" lon="1.58367603085935115814208984375">
        <ele>159</ele>
        <time>2026-08-13T08:30:12.000Z</time>
        <extensions>
          <ns3:TrackPointExtension>
            <ns3:hr>76</ns3:hr>
            <ns3:cad>78</ns3:cad>
          </ns3:TrackPointExtension>
        </extensions>
      </trkpt>
      <trkpt lat="43.76701894216239452362060546875" lon="1.58367812633514404296875">
        <ele>159</ele>
        <time>2026-08-13T08:30:13.000Z</time>
        <extensions>
          <ns3:TrackPointExtension>
            <ns3:hr>76</ns3:hr>
            <ns3:cad>78</ns3:cad>
          </ns3:TrackPointExtension>
        </extensions>
      </trkpt>
      <trkpt lat="43.76703134737908840179443359375" lon="1.58366865478456020355224609375">
        <ele>159</ele>
        <time>2026-08-13T08:30:14.000Z</time>
        <extensions>
          <ns3:TrackPointExtension>
            <ns3:hr>76</ns3:hr>
            <ns3:cad>78</ns3:cad>
          </ns3:TrackPointExtension>
        </extensions>
      </trkpt>
      <trkpt lat="43.76703771762549877166748046875" lon="1.5836658887565135955810546875">
        <ele>159</ele>
        <time>2026-08-13T08:30:15.000Z</time>
        <extensions>
          <ns3:TrackPointExtension>
            <ns3:hr>76</ns3:hr>
            <ns3:cad>78</ns3:cad>
          </ns3:TrackPointExtension>
        </extensions>
      </trkpt>
      <trkpt lat="43.7670366279780864715576171875" lon="1.5836551599204540252685546875">
        <ele>159</ele>
        <time>2026-08-13T08:30:16.000Z</time>
        <extensions>
          <ns3:TrackPointExtension>
            <ns3:hr>76</ns3:hr>
            <ns3:cad>43</ns3:cad>
          </ns3:TrackPointExtension>
        </extensions>
      </trkpt>
      <trkpt lat="43.767045848071575164794921875" lon="1.58364468254148960113525390625">
        <ele>159</ele>
        <time>2026-08-13T08:30:17.000Z</time>
        <extensions>
          <ns3:TrackPointExtension>
            <ns3:hr>75</ns3:hr>
            <ns3:cad>43</ns3:cad>
          </ns3:TrackPointExtension>
        </extensions>
      </trkpt>
      <trkpt lat="43.7670500390231609344482421875" lon="1.583642922341823577880859375">
        <ele>159</ele>
        <time>2026-08-13T08:30:18.000Z</time>
        <extensions>
          <ns3:TrackPointExtension>
            <ns3:hr>75</ns3:hr>
            <ns3:cad>43</ns3:cad>
          </ns3:TrackPointExtension>
        </extensions>
      </trkpt>
      <trkpt lat="43.7670570798218250274658203125" lon="1.5836347080767154693603515625">
        <ele>159</ele>
        <time>2026-08-13T08:30:19.000Z</time>
        <extensions>
          <ns3:TrackPointExtension>
            <ns3:hr>75</ns3:hr>
            <ns3:cad>78</ns3:cad>
          </ns3:TrackPointExtension>
        </extensions>
      </trkpt>
      <trkpt lat="43.76706236042082309722900390625" lon="1.5836269967257976531982421875">
        <ele>159.1999969482421875</ele>
        <time>2026-08-13T08:30:20.000Z</time>
        <extensions>
          <ns3:TrackPointExtension>
            <ns3:hr>75</ns3:hr>
            <ns3:cad>78</ns3:cad>
          </ns3:TrackPointExtension>
        </extensions>
      </trkpt>
      <trkpt lat="43.76706621609628200531005859375" lon="1.5836273320019245147705078125">
        <ele>159.1999969482421875</ele>
        <time>2026-08-13T08:30:21.000Z</time>
        <extensions>
          <ns3:TrackPointExtension>
            <ns3:hr>73</ns3:hr>
            <ns3:cad>78</ns3:cad>
          </ns3:TrackPointExtension>
        </extensions>
      </trkpt>
      <trkpt lat="43.76707090996205806732177734375" lon="1.58362439833581447601318359375">
        <ele>159.1999969482421875</ele>
        <time>2026-08-13T08:30:22.000Z</time>
        <extensions>
          <ns3:TrackPointExtension>
            <ns3:hr>68</ns3:hr>
            <ns3:cad>78</ns3:cad>
          </ns3:TrackPointExtension>
        </extensions>
      </trkpt>
      <trkpt lat="43.767077364027500152587890625" lon="1.58361844718456268310546875">
        <ele>159.1999969482421875</ele>
        <time>2026-08-13T08:30:23.000Z</time>
        <extensions>
          <ns3:TrackPointExtension>
            <ns3:hr>65</ns3:hr>
            <ns3:cad>78</ns3:cad>
          </ns3:TrackPointExtension>
        </extensions>
      </trkpt>
      <trkpt lat="43.76708574593067169189453125" lon="1.5836135856807231903076171875">
        <ele>159.1999969482421875</ele>
        <time>2026-08-13T08:30:24.000Z</time>
        <extensions>
          <ns3:TrackPointExtension>
            <ns3:hr>65</ns3:hr>
            <ns3:cad>0</ns3:cad>
          </ns3:TrackPointExtension>
        </extensions>
      </trkpt>
      <trkpt lat="43.76709186471998691558837890625" lon="1.58360746689140796661376953125">
        <ele>159.1999969482421875</ele>
        <time>2026-08-13T08:30:25.000Z</time>
        <extensions>
          <ns3:TrackPointExtension>
            <ns3:hr>64</ns3:hr>
            <ns3:cad>0</ns3:cad>
          </ns3:TrackPointExtension>
        </extensions>
      </trkpt>
      <trkpt lat="43.7670946307480335235595703125" lon="1.5836109034717082977294921875">
        <ele>159.1999969482421875</ele>
        <time>2026-08-13T08:30:26.000Z</time>
        <extensions>
          <ns3:TrackPointExtension>
            <ns3:hr>64</ns3:hr>
            <ns3:cad>0</ns3:cad>
          </ns3:TrackPointExtension>
        </extensions>
      </trkpt>
      <trkpt lat="43.76710477285087108612060546875" lon="1.58360847271978855133056640625">
        <ele>159.1999969482421875</ele>
        <time>2026-08-13T08:30:27.000Z</time>
        <extensions>
          <ns3:TrackPointExtension>
            <ns3:hr>64</ns3:hr>
            <ns3:cad>0</ns3:cad>
          </ns3:TrackPointExtension>
        </extensions>
      </trkpt>
      <trkpt lat="43.7671124003827571868896484375" lon="1.5835998393595218658447265625">
        <ele>159.1999969482421875</ele>
        <time>2026-08-13T08:30:28.000Z</time>
        <extensions>
          <ns3:TrackPointExtension>
            <ns3:hr>64</ns3:hr>
            <ns3:cad>0</ns3:cad>
          </ns3:TrackPointExtension>
        </extensions>
      </trkpt>
      <trkpt lat="43.76711617223918437957763671875" lon="1.583595983684062957763671875">
        <ele>159.1999969482421875</ele>
        <time>2026-08-13T08:30:29.000Z</time>
        <extensions>
          <ns3:TrackPointExtension>
            <ns3:hr>64</ns3:hr>
            <ns3:cad>0</ns3:cad>
          </ns3:TrackPointExtension>
        </extensions>
      </trkpt>
      <trkpt lat="43.767120279371738433837890625" lon="1.58359254710376262664794921875">
        <ele>159.1999969482421875</ele>
        <time>2026-08-13T08:30:30.000Z</time>
        <extensions>
          <ns3:TrackPointExtension>
            <ns3:hr>64</ns3:hr>
            <ns3:cad>0</ns3:cad>
          </ns3:TrackPointExtension>
        </extensions>
      </trkpt>
      <trkpt lat="43.7671248055994510650634765625" lon="1.583590619266033172607421875">
        <ele>159.1999969482421875</ele>
        <time>2026-08-13T08:30:31.000Z</time>
        <extensions>
          <ns3:TrackPointExtension>
            <ns3:hr>64</ns3:hr>
            <ns3:cad>0</ns3:cad>
          </ns3:TrackPointExtension>
        </extensions>
      </trkpt>
      <trkpt lat="43.767129667103290557861328125" lon="1.5835867635905742645263671875">
        <ele>159.1999969482421875</ele>
        <time>2026-08-13T08:30:32.000Z</time>
        <extensions>
          <ns3:TrackPointExtension>
            <ns3:hr>64</ns3:hr>
            <ns3:cad>76</ns3:cad>
          </ns3:TrackPointExtension>
        </extensions>
      </trkpt>
      <trkpt lat="43.76713813282549381256103515625" lon="1.58358148299157619476318359375">
        <ele>159.1999969482421875</ele>
        <time>2026-08-13T08:30:33.000Z</time>
        <extensions>
          <ns3:TrackPointExtension>
            <ns3:hr>64</ns3:hr>
            <ns3:cad>0</ns3:cad>
          </ns3:TrackPointExtension>
        </extensions>
      </trkpt>
      <trkpt lat="43.7671476043760776519775390625" lon="1.58357712440192699432373046875">
        <ele>159.1999969482421875</ele>
        <time>2026-08-13T08:30:34.000Z</time>
        <extensions>
          <ns3:TrackPointExtension>
            <ns3:hr>64</ns3:hr>
            <ns3:cad>0</ns3:cad>
          </ns3:TrackPointExtension>
        </extensions>
      </trkpt>
      <trkpt lat="43.76715506426990032196044921875" lon="1.58357678912580013275146484375">
        <ele>159.399993896484375</ele>
        <time>2026-08-13T08:30:35.000Z</time>
        <extensions>
          <ns3:TrackPointExtension>
            <ns3:hr>65</ns3:hr>
            <ns3:cad>0</ns3:cad>
          </ns3:TrackPointExtension>
        </extensions>
      </trkpt>
      <trkpt lat="43.76716461963951587677001953125" lon="1.58357276581227779388427734375">
        <ele>159.399993896484375</ele>
        <time>2026-08-13T08:30:36.000Z</time>
        <extensions>
          <ns3:TrackPointExtension>
            <ns3:hr>65</ns3:hr>
            <ns3:cad>79</ns3:cad>
          </ns3:TrackPointExtension>
        </extensions>
      </trkpt>
      <trkpt lat="43.76717233099043369293212890625" lon="1.58356907777488231658935546875">
        <ele>159.399993896484375</ele>
        <time>2026-08-13T08:30:37.000Z</time>
        <extensions>
          <ns3:TrackPointExtension>
            <ns3:hr>65</ns3:hr>
            <ns3:cad>79</ns3:cad>
          </ns3:TrackPointExtension>
        </extensions>
      </trkpt>
      <trkpt lat="43.767175264656543731689453125" lon="1.58356891013681888580322265625">
        <ele>159.399993896484375</ele>
        <time>2026-08-13T08:30:38.000Z</time>
        <extensions>
          <ns3:TrackPointExtension>
            <ns3:hr>65</ns3:hr>
            <ns3:cad>79</ns3:cad>
          </ns3:TrackPointExtension>
        </extensions>
      </trkpt>
      <trkpt lat="43.76718557439744472503662109375" lon="1.58356136642396450042724609375">
        <ele>159.399993896484375</ele>
        <time>2026-08-13T08:30:39.000Z</time>
        <extensions>
          <ns3:TrackPointExtension>
            <ns3:hr>66</ns3:hr>
            <ns3:cad>79</ns3:cad>
          </ns3:TrackPointExtension>
        </extensions>
      </trkpt>
      <trkpt lat="43.76719772815704345703125" lon="1.5835515595972537994384765625">
        <ele>159.399993896484375</ele>
        <time>2026-08-13T08:30:40.000Z</time>
        <extensions>
          <ns3:TrackPointExtension>
            <ns3:hr>66</ns3:hr>
            <ns3:cad>41</ns3:cad>
          </ns3:TrackPointExtension>
        </extensions>
      </trkpt>
      <trkpt lat="43.76720569096505641937255859375" lon="1.58354627899825572967529296875">
        <ele>159.399993896484375</ele>
        <time>2026-08-13T08:30:41.000Z</time>
        <extensions>
          <ns3:TrackPointExtension>
            <ns3:hr>67</ns3:hr>
            <ns3:cad>41</ns3:cad>
          </ns3:TrackPointExtension>
        </extensions>
      </trkpt>
      <trkpt lat="43.76721289940178394317626953125" lon="1.58353940583765506744384765625">
        <ele>159.399993896484375</ele>
        <time>2026-08-13T08:30:42.000Z</time>
        <extensions>
          <ns3:TrackPointExtension>
            <ns3:hr>67</ns3:hr>
            <ns3:cad>77</ns3:cad>
          </ns3:TrackPointExtension>
        </extensions>
      </trkpt>
      <trkpt lat="43.7672183476388454437255859375" lon="1.58352649770677089691162109375">
        <ele>159.399993896484375</ele>
        <time>2026-08-13T08:30:43.000Z</time>
        <extensions>
          <ns3:TrackPointExtension>
            <ns3:hr>67</ns3:hr>
            <ns3:cad>77</ns3:cad>
          </ns3:TrackPointExtension>
        </extensions>
      </trkpt>
      <trkpt lat="43.76722362823784351348876953125" lon="1.583520881831645965576171875">
        <ele>159.600006103515625</ele>
        <time>2026-08-13T08:30:44.000Z</time>
        <extensions>
          <ns3:TrackPointExtension>
            <ns3:hr>68</ns3:hr>
            <ns3:cad>77</ns3:cad>
          </ns3:TrackPointExtension>
        </extensions>
      </trkpt>
      <trkpt lat="43.76723368652164936065673828125" lon="1.583514176309108734130859375">
        <ele>159.600006103515625</ele>
        <time>2026-08-13T08:30:45.000Z</time>
        <extensions>
          <ns3:TrackPointExtension>
            <ns3:hr>68</ns3:hr>
            <ns3:cad>77</ns3:cad>
          </ns3:TrackPointExtension>
        </extensions>
      </trkpt>
      <trkpt lat="43.76723921857774257659912109375" lon="1.5835076384246349334716796875">
        <ele>159.600006103515625</ele>
        <time>2026-08-13T08:30:46.000Z</time>
        <extensions>
          <ns3:TrackPointExtension>
            <ns3:hr>68</ns3:hr>
            <ns3:cad>77</ns3:cad>
          </ns3:TrackPointExtension>
        </extensions>
      </trkpt>
      <trkpt lat="43.76724106259644031524658203125" lon="1.58350470475852489471435546875">
        <ele>159.600006103515625</ele>
        <time>2026-08-13T08:30:47.000Z</time>
        <extensions>
          <ns3:TrackPointExtension>
            <ns3:hr>69</ns3:hr>
            <ns3:cad>41</ns3:cad>
          </ns3:TrackPointExtension>
        </extensions>
      </trkpt>
      <trkpt lat="43.76725045032799243927001953125" lon="1.5834965743124485015869140625">
        <ele>159.600006103515625</ele>
        <time>2026-08-13T08:30:48.000Z</time>
        <extensions>
          <ns3:TrackPointExtension>
            <ns3:hr>69</ns3:hr>
            <ns3:cad>0</ns3:cad>
          </ns3:TrackPointExtension>
        </extensions>
      </trkpt>
      <trkpt lat="43.76725480891764163970947265625" lon="1.58349162898957729339599609375">
        <ele>159.600006103515625</ele>
        <time>2026-08-13T08:30:49.000Z</time>
        <extensions>
          <ns3:TrackPointExtension>
            <ns3:hr>69</ns3:hr>
            <ns3:cad>0</ns3:cad>
          </ns3:TrackPointExtension>
        </extensions>
      </trkpt>
      <trkpt lat="43.76725874841213226318359375" lon="1.583487689495086669921875">
        <ele>159.600006103515625</ele>
        <time>2026-08-13T08:30:50.000Z</time>
        <extensions>
          <ns3:TrackPointExtension>
            <ns3:hr>70</ns3:hr>
            <ns3:cad>0</ns3:cad>
          </ns3:TrackPointExtension>
        </extensions>
      </trkpt>
      <trkpt lat="43.76726637594401836395263671875" lon="1.5834814868867397308349609375">
        <ele>159.399993896484375</ele>
        <time>2026-08-13T08:30:51.000Z</time>
        <extensions>
          <ns3:TrackPointExtension>
            <ns3:hr>70</ns3:hr>
            <ns3:cad>79</ns3:cad>
          </ns3:TrackPointExtension>
        </extensions>
      </trkpt>
      <trkpt lat="43.76727006398141384124755859375" lon="1.58347704447805881500244140625">
        <ele>159.600006103515625</ele>
        <time>2026-08-13T08:30:52.000Z</time>
        <extensions>
          <ns3:TrackPointExtension>
            <ns3:hr>70</ns3:hr>
            <ns3:cad>79</ns3:cad>
          </ns3:TrackPointExtension>
        </extensions>
      </trkpt>
      <trkpt lat="43.76727559603750705718994140625" lon="1.5834714286029338836669921875">
        <ele>159.600006103515625</ele>
        <time>2026-08-13T08:30:53.000Z</time>
        <extensions>
          <ns3:TrackPointExtension>
            <ns3:hr>70</ns3:hr>
            <ns3:cad>77</ns3:cad>
          </ns3:TrackPointExtension>
        </extensions>
      </trkpt>
      <trkpt lat="43.76727794297039508819580078125" lon="1.58346799202263355255126953125">
        <ele>159.600006103515625</ele>
        <time>2026-08-13T08:30:54.000Z</time>
        <extensions>
          <ns3:TrackPointExtension>
            <ns3:hr>71</ns3:hr>
            <ns3:cad>77</ns3:cad>
          </ns3:TrackPointExtension>
        </extensions>
      </trkpt>
      <trkpt lat="43.7672820501029491424560546875" lon="1.583464555442333221435546875">
        <ele>159.600006103515625</ele>
        <time>2026-08-13T08:30:55.000Z</time>
        <extensions>
          <ns3:TrackPointExtension>
            <ns3:hr>71</ns3:hr>
            <ns3:cad>77</ns3:cad>
          </ns3:TrackPointExtension>
        </extensions>
      </trkpt>
      <trkpt lat="43.76728867180645465850830078125" lon="1.58346044830977916717529296875">
        <ele>159.600006103515625</ele>
        <time>2026-08-13T08:30:56.000Z</time>
        <extensions>
          <ns3:TrackPointExtension>
            <ns3:hr>72</ns3:hr>
            <ns3:cad>0</ns3:cad>
          </ns3:TrackPointExtension>
        </extensions>
      </trkpt>
      <trkpt lat="43.76729504205286502838134765625" lon="1.583458520472049713134765625">
        <ele>159.600006103515625</ele>
        <time>2026-08-13T08:30:57.000Z</time>
        <extensions>
          <ns3:TrackPointExtension>
            <ns3:hr>72</ns3:hr>
            <ns3:cad>0</ns3:cad>
          </ns3:TrackPointExtension>
        </extensions>
      </trkpt>
      <trkpt lat="43.76729789189994335174560546875" lon="1.58345793373882770538330078125">
        <ele>159.600006103515625</ele>
        <time>2026-08-13T08:30:58.000Z</time>
        <extensions>
          <ns3:TrackPointExtension>
            <ns3:hr>72</ns3:hr>
            <ns3:cad>0</ns3:cad>
          </ns3:TrackPointExtension>
        </extensions>
      </trkpt>
      <trkpt lat="43.76730744726955890655517578125" lon="1.58345106057822704315185546875">
        <ele>159.600006103515625</ele>
        <time>2026-08-13T08:30:59.000Z</time>
        <extensions>
          <ns3:TrackPointExtension>
            <ns3:hr>73</ns3:hr>
            <ns3:cad>0</ns3:cad>
          </ns3:TrackPointExtension>
        </extensions>
      </trkpt>
      <trkpt lat="43.7673182599246501922607421875" lon="1.5834429301321506500244140625">
        <ele>159.600006103515625</ele>
        <time>2026-08-13T08:31:00.000Z</time>
        <extensions>
          <ns3:TrackPointExtension>
            <ns3:hr>73</ns3:hr>
            <ns3:cad>0</ns3:cad>
          </ns3:TrackPointExtension>
        </extensions>
      </trkpt>
      <trkpt lat="43.76732655800879001617431640625" lon="1.58343781717121601104736328125">
        <ele>159.600006103515625</ele>
        <time>2026-08-13T08:31:01.000Z</time>
        <extensions>
          <ns3:TrackPointExtension>
            <ns3:hr>73</ns3:hr>
            <ns3:cad>0</ns3:cad>
          </ns3:TrackPointExtension>
        </extensions>
      </trkpt>
      <trkpt lat="43.767329491674900054931640625" lon="1.58343194983899593353271484375">
        <ele>159.600006103515625</ele>
        <time>2026-08-13T08:31:02.000Z</time>
        <extensions>
          <ns3:TrackPointExtension>
            <ns3:hr>74</ns3:hr>
            <ns3:cad>0</ns3:cad>
          </ns3:TrackPointExtension>
        </extensions>
      </trkpt>
      <trkpt lat="43.7673380412161350250244140625" lon="1.58342407085001468658447265625">
        <ele>159.600006103515625</ele>
        <time>2026-08-13T08:31:03.000Z</time>
        <extensions>
          <ns3:TrackPointExtension>
            <ns3:hr>74</ns3:hr>
            <ns3:cad>42</ns3:cad>
          </ns3:TrackPointExtension>
        </extensions>
      </trkpt>
      <trkpt lat="43.76734533347189426422119140625" lon="1.5834204666316509246826171875">
        <ele>159.600006103515625</ele>
        <time>2026-08-13T08:31:04.000Z</time>
        <extensions>
          <ns3:TrackPointExtension>
            <ns3:hr>75</ns3:hr>
            <ns3:cad>42</ns3:cad>
          </ns3:TrackPointExtension>
        </extensions>
      </trkpt>
      <trkpt lat="43.76735396683216094970703125" lon="1.58341434784233570098876953125">
        <ele>159.600006103515625</ele>
        <time>2026-08-13T08:31:05.000Z</time>
        <extensions>
          <ns3:TrackPointExtension>
            <ns3:hr>76</ns3:hr>
            <ns3:cad>42</ns3:cad>
          </ns3:TrackPointExtension>
        </extensions>
      </trkpt>
      <trkpt lat="43.7673608399927616119384765625" lon="1.58340596593916416168212890625">
        <ele>159.600006103515625</ele>
        <time>2026-08-13T08:31:06.000Z</time>
        <extensions>
          <ns3:TrackPointExtension>
            <ns3:hr>76</ns3:hr>
            <ns3:cad>41</ns3:cad>
          </ns3:TrackPointExtension>
        </extensions>
      </trkpt>
      <trkpt lat="43.7673645280301570892333984375" lon="1.58340043388307094573974609375">
        <ele>159.600006103515625</ele>
        <time>2026-08-13T08:31:07.000Z</time>
        <extensions>
          <ns3:TrackPointExtension>
            <ns3:hr>76</ns3:hr>
            <ns3:cad>41</ns3:cad>
          </ns3:TrackPointExtension>
        </extensions>
      </trkpt>
      <trkpt lat="43.7673715688288211822509765625" lon="1.58339708112180233001708984375">
        <ele>159.600006103515625</ele>
        <time>2026-08-13T08:31:08.000Z</time>
        <extensions>
          <ns3:TrackPointExtension>
            <ns3:hr>76</ns3:hr>
            <ns3:cad>41</ns3:cad>
          </ns3:TrackPointExtension>
        </extensions>
      </trkpt>
      <trkpt lat="43.7673787772655487060546875" lon="1.58338685519993305206298828125">
        <ele>159.8000030517578125</ele>
        <time>2026-08-13T08:31:09.000Z</time>
        <extensions>
          <ns3:TrackPointExtension>
            <ns3:hr>76</ns3:hr>
            <ns3:cad>41</ns3:cad>
          </ns3:TrackPointExtension>
        </extensions>
      </trkpt>
      <trkpt lat="43.76738657243549823760986328125" lon="1.583382748067378997802734375">
        <ele>159.8000030517578125</ele>
        <time>2026-08-13T08:31:10.000Z</time>
        <extensions>
          <ns3:TrackPointExtension>
            <ns3:hr>76</ns3:hr>
            <ns3:cad>41</ns3:cad>
          </ns3:TrackPointExtension>
        </extensions>
      </trkpt>
      <trkpt lat="43.76739461906254291534423828125" lon="1.5833790600299835205078125">
        <ele>159.8000030517578125</ele>
        <time>2026-08-13T08:31:11.000Z</time>
        <extensions>
          <ns3:TrackPointExtension>
            <ns3:hr>76</ns3:hr>
            <ns3:cad>41</ns3:cad>
          </ns3:TrackPointExtension>
        </extensions>
      </trkpt>
      <trkpt lat="43.7674050964415073394775390625" lon="1.583372689783573150634765625">
        <ele>159.8000030517578125</ele>
        <time>2026-08-13T08:31:12.000Z</time>
        <extensions>
          <ns3:TrackPointExtension>
            <ns3:hr>76</ns3:hr>
            <ns3:cad>41</ns3:cad>
          </ns3:TrackPointExtension>
        </extensions>
      </trkpt>
      <trkpt lat="43.76741087995469570159912109375" lon="1.58336455933749675750732421875">
        <ele>159.8000030517578125</ele>
        <time>2026-08-13T08:31:13.000Z</time>
        <extensions>
          <ns3:TrackPointExtension>
            <ns3:hr>76</ns3:hr>
            <ns3:cad>41</ns3:cad>
          </ns3:TrackPointExtension>
        </extensions>
      </trkpt>
      <trkpt lat="43.767416663467884063720703125" lon="1.58336707390844821929931640625">
        <ele>159.8000030517578125</ele>
        <time>2026-08-13T08:31:14.000Z</time>
        <extensions>
          <ns3:TrackPointExtension>
            <ns3:hr>76</ns3:hr>
            <ns3:cad>41</ns3:cad>
          </ns3:TrackPointExtension>
        </extensions>
      </trkpt>
      <trkpt lat="43.7674289010465145111083984375" lon="1.58335559070110321044921875">
        <ele>159.8000030517578125</ele>
        <time>2026-08-13T08:31:15.000Z</time>
        <extensions>
          <ns3:TrackPointExtension>
            <ns3:hr>75</ns3:hr>
            <ns3:cad>79</ns3:cad>
          </ns3:TrackPointExtension>
        </extensions>
      </trkpt>
      <trkpt lat="43.76743376255035400390625" lon="1.58335014246404170989990234375">
        <ele>159.8000030517578125</ele>
        <time>2026-08-13T08:31:16.000Z</time>
        <extensions>
          <ns3:TrackPointExtension>
            <ns3:hr>76</ns3:hr>
            <ns3:cad>41</ns3:cad>
          </ns3:TrackPointExtension>
        </extensions>
      </trkpt>
      <trkpt lat="43.76744055189192295074462890625" lon="1.583347879350185394287109375">
        <ele>159.8000030517578125</ele>
        <time>2026-08-13T08:31:17.000Z</time>
        <extensions>
          <ns3:TrackPointExtension>
            <ns3:hr>76</ns3:hr>
            <ns3:cad>41</ns3:cad>
          </ns3:TrackPointExtension>
        </extensions>
      </trkpt>
      <trkpt lat="43.76744708977639675140380859375" lon="1.58334217965602874755859375">
        <ele>159.8000030517578125</ele>
        <time>2026-08-13T08:31:18.000Z</time>
        <extensions>
          <ns3:TrackPointExtension>
            <ns3:hr>76</ns3:hr>
            <ns3:cad>41</ns3:cad>
          </ns3:TrackPointExtension>
        </extensions>
      </trkpt>
      <trkpt lat="43.767454214394092559814453125" lon="1.5833363123238086700439453125">
        <ele>159.8000030517578125</ele>
        <time>2026-08-13T08:31:19.000Z</time>
        <extensions>
          <ns3:TrackPointExtension>
            <ns3:hr>75</ns3:hr>
            <ns3:cad>41</ns3:cad>
          </ns3:TrackPointExtension>
        </extensions>
      </trkpt>
      <trkpt lat="43.76746117137372493743896484375" lon="1.5833332948386669158935546875">
        <ele>159.8000030517578125</ele>
        <time>2026-08-13T08:31:20.000Z</time>
        <extensions>
          <ns3:TrackPointExtension>
            <ns3:hr>76</ns3:hr>
            <ns3:cad>40</ns3:cad>
          </ns3:TrackPointExtension>
        </extensions>
      </trkpt>
      <trkpt lat="43.7674708105623722076416015625" lon="1.583323068916797637939453125">
        <ele>159.8000030517578125</ele>
        <time>2026-08-13T08:31:21.000Z</time>
        <extensions>
          <ns3:TrackPointExtension>
            <ns3:hr>75</ns3:hr>
            <ns3:cad>40</ns3:cad>
          </ns3:TrackPointExtension>
        </extensions>
      </trkpt>
      <trkpt lat="43.7674726545810699462890625" lon="1.58331510610878467559814453125">
        <ele>159.8000030517578125</ele>
        <time>2026-08-13T08:31:22.000Z</time>
        <extensions>
          <ns3:TrackPointExtension>
            <ns3:hr>75</ns3:hr>
            <ns3:cad>40</ns3:cad>
          </ns3:TrackPointExtension>
        </extensions>
      </trkpt>
      <trkpt lat="43.76747659407556056976318359375" lon="1.58331175334751605987548828125">
        <ele>159.8000030517578125</ele>
        <time>2026-08-13T08:31:23.000Z</time>
        <extensions>
          <ns3:TrackPointExtension>
            <ns3:hr>75</ns3:hr>
            <ns3:cad>41</ns3:cad>
          </ns3:TrackPointExtension>
        </extensions>
      </trkpt>
      <trkpt lat="43.7674815393984317779541015625" lon="1.58330806531012058258056640625">
        <ele>160</ele>
        <time>2026-08-13T08:31:24.000Z</time>
        <extensions>
          <ns3:TrackPointExtension>
            <ns3:hr>74</ns3:hr>
            <ns3:cad>41</ns3:cad>
          </ns3:TrackPointExtension>
        </extensions>
      </trkpt>
      <trkpt lat="43.76748681999742984771728515625" lon="1.58330194652080535888671875">
        <ele>160</ele>
        <time>2026-08-13T08:31:25.000Z</time>
        <extensions>
          <ns3:TrackPointExtension>
            <ns3:hr>74</ns3:hr>
            <ns3:cad>0</ns3:cad>
          </ns3:TrackPointExtension>
        </extensions>
      </trkpt>
      <trkpt lat="43.7674936093389987945556640625" lon="1.5832960791885852813720703125">
        <ele>160</ele>
        <time>2026-08-13T08:31:26.000Z</time>
        <extensions>
          <ns3:TrackPointExtension>
            <ns3:hr>74</ns3:hr>
            <ns3:cad>0</ns3:cad>
          </ns3:TrackPointExtension>
        </extensions>
      </trkpt>
      <trkpt lat="43.767497800290584564208984375" lon="1.58329616300761699676513671875">
        <ele>160</ele>
        <time>2026-08-13T08:31:27.000Z</time>
        <extensions>
          <ns3:TrackPointExtension>
            <ns3:hr>74</ns3:hr>
            <ns3:cad>44</ns3:cad>
          </ns3:TrackPointExtension>
        </extensions>
      </trkpt>
      <trkpt lat="43.7675056792795658111572265625" lon="1.58329188823699951171875">
        <ele>159.8000030517578125</ele>
        <time>2026-08-13T08:31:28.000Z</time>
        <extensions>
          <ns3:TrackPointExtension>
            <ns3:hr>74</ns3:hr>
            <ns3:cad>44</ns3:cad>
          </ns3:TrackPointExtension>
        </extensions>
      </trkpt>
      <trkpt lat="43.76751313917338848114013671875" lon="1.58328987658023834228515625">
        <ele>159.8000030517578125</ele>
        <time>2026-08-13T08:31:29.000Z</time>
        <extensions>
          <ns3:TrackPointExtension>
            <ns3:hr>74</ns3:hr>
            <ns3:cad>44</ns3:cad>
          </ns3:TrackPointExtension>
        </extensions>
      </trkpt>
      <trkpt lat="43.76752068288624286651611328125" lon="1.58328744582831859588623046875">
        <ele>159.8000030517578125</ele>
        <time>2026-08-13T08:31:30.000Z</time>
        <extensions>
          <ns3:TrackPointExtension>
            <ns3:hr>74</ns3:hr>
            <ns3:cad>44</ns3:cad>
          </ns3:TrackPointExtension>
        </extensions>
      </trkpt>
      <trkpt lat="43.76752571202814579010009765625" lon="1.58328325487673282623291015625">
        <ele>159.8000030517578125</ele>
        <time>2026-08-13T08:31:31.000Z</time>
        <extensions>
          <ns3:TrackPointExtension>
            <ns3:hr>74</ns3:hr>
            <ns3:cad>44</ns3:cad>
          </ns3:TrackPointExtension>
        </extensions>
      </trkpt>
      <trkpt lat="43.76753174699842929840087890625" lon="1.58327822573482990264892578125">
        <ele>159.8000030517578125</ele>
        <time>2026-08-13T08:31:32.000Z</time>
        <extensions>
          <ns3:TrackPointExtension>
            <ns3:hr>74</ns3:hr>
            <ns3:cad>41</ns3:cad>
          </ns3:TrackPointExtension>
        </extensions>
      </trkpt>
      <trkpt lat="43.76753996126353740692138671875" lon="1.5832685865461826324462890625">
        <ele>159.8000030517578125</ele>
        <time>2026-08-13T08:31:33.000Z</time>
        <extensions>
          <ns3:TrackPointExtension>
            <ns3:hr>73</ns3:hr>
            <ns3:cad>40</ns3:cad>
          </ns3:TrackPointExtension>
        </extensions>
      </trkpt>
      <trkpt lat="43.76754599623382091522216796875" lon="1.5832635574042797088623046875">
        <ele>159.8000030517578125</ele>
        <time>2026-08-13T08:31:34.000Z</time>
        <extensions>
          <ns3:TrackPointExtension>
            <ns3:hr>73</ns3:hr>
            <ns3:cad>40</ns3:cad>
          </ns3:TrackPointExtension>
        </extensions>
      </trkpt>
      <trkpt lat="43.76755387522280216217041015625" lon="1.583257019519805908203125">
        <ele>160</ele>
        <time>2026-08-13T08:31:35.000Z</time>
        <extensions>
          <ns3:TrackPointExtension>
            <ns3:hr>73</ns3:hr>
            <ns3:cad>75</ns3:cad>
          </ns3:TrackPointExtension>
        </extensions>
      </trkpt>
      <trkpt lat="43.76755957491695880889892578125" lon="1.58325308002531528472900390625">
        <ele>160</ele>
        <time>2026-08-13T08:31:36.000Z</time>
        <extensions>
          <ns3:TrackPointExtension>
            <ns3:hr>73</ns3:hr>
            <ns3:cad>76</ns3:cad>
          </ns3:TrackPointExtension>
        </extensions>
      </trkpt>
      <trkpt lat="43.76757164485752582550048828125" lon="1.583251990377902984619140625">
        <ele>160</ele>
        <time>2026-08-13T08:31:37.000Z</time>
        <extensions>
          <ns3:TrackPointExtension>
            <ns3:hr>73</ns3:hr>
            <ns3:cad>76</ns3:cad>
          </ns3:TrackPointExtension>
        </extensions>
      </trkpt>
      <trkpt lat="43.76757734455168247222900390625" lon="1.58324754796922206878662109375">
        <ele>160</ele>
        <time>2026-08-13T08:31:38.000Z</time>
        <extensions>
          <ns3:TrackPointExtension>
            <ns3:hr>72</ns3:hr>
            <ns3:cad>77</ns3:cad>
          </ns3:TrackPointExtension>
        </extensions>
      </trkpt>
      <trkpt lat="43.76758790574967861175537109375" lon="1.58324117772281169891357421875">
        <ele>160.1999969482421875</ele>
        <time>2026-08-13T08:31:39.000Z</time>
        <extensions>
          <ns3:TrackPointExtension>
            <ns3:hr>73</ns3:hr>
            <ns3:cad>77</ns3:cad>
          </ns3:TrackPointExtension>
        </extensions>
      </trkpt>
      <trkpt lat="43.7675921805202960968017578125" lon="1.58323380164802074432373046875">
        <ele>160.1999969482421875</ele>
        <time>2026-08-13T08:31:40.000Z</time>
        <extensions>
          <ns3:TrackPointExtension>
            <ns3:hr>73</ns3:hr>
            <ns3:cad>77</ns3:cad>
          </ns3:TrackPointExtension>
        </extensions>
      </trkpt>
      <trkpt lat="43.76759536564350128173828125" lon="1.583228521049022674560546875">
        <ele>160.1999969482421875</ele>
        <time>2026-08-13T08:31:41.000Z</time>
        <extensions>
          <ns3:TrackPointExtension>
            <ns3:hr>73</ns3:hr>
            <ns3:cad>76</ns3:cad>
          </ns3:TrackPointExtension>
        </extensions>
      </trkpt>
      <trkpt lat="43.767601065337657928466796875" lon="1.583220474421977996826171875">
        <ele>160.1999969482421875</ele>
        <time>2026-08-13T08:31:42.000Z</time>
        <extensions>
          <ns3:TrackPointExtension>
            <ns3:hr>72</ns3:hr>
            <ns3:cad>76</ns3:cad>
          </ns3:TrackPointExtension>
        </extensions>
      </trkpt>
      <trkpt lat="43.76760718412697315216064453125" lon="1.58321502618491649627685546875">
        <ele>160.1999969482421875</ele>
        <time>2026-08-13T08:31:43.000Z</time>
        <extensions>
          <ns3:TrackPointExtension>
            <ns3:hr>73</ns3:hr>
            <ns3:cad>76</ns3:cad>
          </ns3:TrackPointExtension>
        </extensions>
      </trkpt>
      <trkpt lat="43.76761238090693950653076171875" lon="1.58321100287139415740966796875">
        <ele>160.1999969482421875</ele>
        <time>2026-08-13T08:31:44.000Z</time>
        <extensions>
          <ns3:TrackPointExtension>
            <ns3:hr>72</ns3:hr>
            <ns3:cad>78</ns3:cad>
          </ns3:TrackPointExtension>
        </extensions>
      </trkpt>
      <trkpt lat="43.7676210142672061920166015625" lon="1.5832042135298252105712890625">
        <ele>160.1999969482421875</ele>
        <time>2026-08-13T08:31:45.000Z</time>
        <extensions>
          <ns3:TrackPointExtension>
            <ns3:hr>72</ns3:hr>
            <ns3:cad>78</ns3:cad>
          </ns3:TrackPointExtension>
        </extensions>
      </trkpt>
      <trkpt lat="43.76762512139976024627685546875" lon="1.5831993520259857177734375">
        <ele>160.1999969482421875</ele>
        <time>2026-08-13T08:31:46.000Z</time>
        <extensions>
          <ns3:TrackPointExtension>
            <ns3:hr>72</ns3:hr>
            <ns3:cad>41</ns3:cad>
          </ns3:TrackPointExtension>
        </extensions>
      </trkpt>
      <trkpt lat="43.76762897707521915435791015625" lon="1.583193652331829071044921875">
        <ele>160.1999969482421875</ele>
        <time>2026-08-13T08:31:47.000Z</time>
        <extensions>
          <ns3:TrackPointExtension>
            <ns3:hr>72</ns3:hr>
            <ns3:cad>41</ns3:cad>
          </ns3:TrackPointExtension>
        </extensions>
      </trkpt>
      <trkpt lat="43.76763450913131237030029296875" lon="1.58319063484668731689453125">
        <ele>160.1999969482421875</ele>
        <time>2026-08-13T08:31:48.000Z</time>
        <extensions>
          <ns3:TrackPointExtension>
            <ns3:hr>72</ns3:hr>
            <ns3:cad>41</ns3:cad>
          </ns3:TrackPointExtension>
        </extensions>
      </trkpt>
      <trkpt lat="43.76764020882546901702880859375" lon="1.58318552188575267791748046875">
        <ele>160.1999969482421875</ele>
        <time>2026-08-13T08:31:49.000Z</time>
        <extensions>
          <ns3:TrackPointExtension>
            <ns3:hr>71</ns3:hr>
            <ns3:cad>40</ns3:cad>
          </ns3:TrackPointExtension>
        </extensions>
      </trkpt>
      <trkpt lat="43.7676441483199596405029296875" lon="1.58318149857223033905029296875">
        <ele>160.1999969482421875</ele>
        <time>2026-08-13T08:31:50.000Z</time>
        <extensions>
          <ns3:TrackPointExtension>
            <ns3:hr>72</ns3:hr>
            <ns3:cad>40</ns3:cad>
          </ns3:TrackPointExtension>
        </extensions>
      </trkpt>
      <trkpt lat="43.7676454894244670867919921875" lon="1.5831753797829151153564453125">
        <ele>160.1999969482421875</ele>
        <time>2026-08-13T08:31:51.000Z</time>
        <extensions>
          <ns3:TrackPointExtension>
            <ns3:hr>71</ns3:hr>
            <ns3:cad>78</ns3:cad>
          </ns3:TrackPointExtension>
        </extensions>
      </trkpt>
      <trkpt lat="43.76765412278473377227783203125" lon="1.58316993154585361480712890625">
        <ele>160.1999969482421875</ele>
        <time>2026-08-13T08:31:52.000Z</time>
        <extensions>
          <ns3:TrackPointExtension>
            <ns3:hr>71</ns3:hr>
            <ns3:cad>78</ns3:cad>
          </ns3:TrackPointExtension>
        </extensions>
      </trkpt>
      <trkpt lat="43.76766719855368137359619140625" lon="1.58316523768007755279541015625">
        <ele>160.1999969482421875</ele>
        <time>2026-08-13T08:31:53.000Z</time>
        <extensions>
          <ns3:TrackPointExtension>
            <ns3:hr>71</ns3:hr>
            <ns3:cad>41</ns3:cad>
          </ns3:TrackPointExtension>
        </extensions>
      </trkpt>
      <trkpt lat="43.76767876558005809783935546875" lon="1.58315937034785747528076171875">
        <ele>160.1999969482421875</ele>
        <time>2026-08-13T08:31:54.000Z</time>
        <extensions>
          <ns3:TrackPointExtension>
            <ns3:hr>72</ns3:hr>
            <ns3:cad>40</ns3:cad>
          </ns3:TrackPointExtension>
        </extensions>
      </trkpt>
      <trkpt lat="43.76768790185451507568359375" lon="1.58315517939627170562744140625">
        <ele>160.1999969482421875</ele>
        <time>2026-08-13T08:31:55.000Z</time>
        <extensions>
          <ns3:TrackPointExtension>
            <ns3:hr>72</ns3:hr>
            <ns3:cad>40</ns3:cad>
          </ns3:TrackPointExtension>
        </extensions>
      </trkpt>
      <trkpt lat="43.767699301242828369140625" lon="1.58315710723400115966796875">
        <ele>160.1999969482421875</ele>
        <time>2026-08-13T08:31:56.000Z</time>
        <extensions>
          <ns3:TrackPointExtension>
            <ns3:hr>72</ns3:hr>
            <ns3:cad>40</ns3:cad>
          </ns3:TrackPointExtension>
        </extensions>
      </trkpt>
      <trkpt lat="43.767711035907268524169921875" lon="1.58315266482532024383544921875">
        <ele>160.1999969482421875</ele>
        <time>2026-08-13T08:31:57.000Z</time>
        <extensions>
          <ns3:TrackPointExtension>
            <ns3:hr>73</ns3:hr>
            <ns3:cad>40</ns3:cad>
          </ns3:TrackPointExtension>
        </extensions>
      </trkpt>
      <trkpt lat="43.76772285439074039459228515625" lon="1.58314595930278301239013671875">
        <ele>160.1999969482421875</ele>
        <time>2026-08-13T08:31:58.000Z</time>
        <extensions>
          <ns3:TrackPointExtension>
            <ns3:hr>73</ns3:hr>
            <ns3:cad>40</ns3:cad>
          </ns3:TrackPointExtension>
        </extensions>
      </trkpt>
      <trkpt lat="43.76773224212229251861572265625" lon="1.583146043121814727783203125">
        <ele>160.1999969482421875</ele>
        <time>2026-08-13T08:31:59.000Z</time>
        <extensions>
          <ns3:TrackPointExtension>
            <ns3:hr>73</ns3:hr>
            <ns3:cad>40</ns3:cad>
          </ns3:TrackPointExtension>
        </extensions>
      </trkpt>
      <trkpt lat="43.76774447970092296600341796875" lon="1.58313858322799205780029296875">
        <ele>160.1999969482421875</ele>
        <time>2026-08-13T08:32:00.000Z</time>
        <extensions>
          <ns3:TrackPointExtension>
            <ns3:hr>75</ns3:hr>
            <ns3:cad>41</ns3:cad>
          </ns3:TrackPointExtension>
        </extensions>
      </trkpt>
      <trkpt lat="43.767755962908267974853515625" lon="1.58313254825770854949951171875">
        <ele>160.1999969482421875</ele>
        <time>2026-08-13T08:32:01.000Z</time>
        <extensions>
          <ns3:TrackPointExtension>
            <ns3:hr>77</ns3:hr>
            <ns3:cad>41</ns3:cad>
          </ns3:TrackPointExtension>
        </extensions>
      </trkpt>
      <trkpt lat="43.76776124350726604461669921875" lon="1.5831304527819156646728515625">
        <ele>160.1999969482421875</ele>
        <time>2026-08-13T08:32:02.000Z</time>
        <extensions>
          <ns3:TrackPointExtension>
            <ns3:hr>77</ns3:hr>
            <ns3:cad>42</ns3:cad>
          </ns3:TrackPointExtension>
        </extensions>
      </trkpt>
      <trkpt lat="43.7677692063152790069580078125" lon="1.5831220708787441253662109375">
        <ele>160</ele>
        <time>2026-08-13T08:32:03.000Z</time>
        <extensions>
          <ns3:TrackPointExtension>
            <ns3:hr>78</ns3:hr>
            <ns3:cad>42</ns3:cad>
          </ns3:TrackPointExtension>
        </extensions>
      </trkpt>
      <trkpt lat="43.7677782587707042694091796875" lon="1.58311226405203342437744140625">
        <ele>160</ele>
        <time>2026-08-13T08:32:04.000Z</time>
        <extensions>
          <ns3:TrackPointExtension>
            <ns3:hr>79</ns3:hr>
            <ns3:cad>42</ns3:cad>
          </ns3:TrackPointExtension>
        </extensions>
      </trkpt>
      <trkpt lat="43.76778580248355865478515625" lon="1.5831086598336696624755859375">
        <ele>160.1999969482421875</ele>
        <time>2026-08-13T08:32:05.000Z</time>
        <extensions>
          <ns3:TrackPointExtension>
            <ns3:hr>79</ns3:hr>
            <ns3:cad>42</ns3:cad>
          </ns3:TrackPointExtension>
        </extensions>
      </trkpt>
      <trkpt lat="43.767790496349334716796875" lon="1.58310153521597385406494140625">
        <ele>160.1999969482421875</ele>
        <time>2026-08-13T08:32:06.000Z</time>
        <extensions>
          <ns3:TrackPointExtension>
            <ns3:hr>79</ns3:hr>
            <ns3:cad>42</ns3:cad>
          </ns3:TrackPointExtension>
        </extensions>
      </trkpt>
      <trkpt lat="43.76779980026185512542724609375" lon="1.58309432677924633026123046875">
        <ele>160.1999969482421875</ele>
        <time>2026-08-13T08:32:07.000Z</time>
        <extensions>
          <ns3:TrackPointExtension>
            <ns3:hr>79</ns3:hr>
            <ns3:cad>42</ns3:cad>
          </ns3:TrackPointExtension>
        </extensions>
      </trkpt>
      <trkpt lat="43.76780801452696323394775390625" lon="1.583087034523487091064453125">
        <ele>160.1999969482421875</ele>
        <time>2026-08-13T08:32:08.000Z</time>
        <extensions>
          <ns3:TrackPointExtension>
            <ns3:hr>79</ns3:hr>
            <ns3:cad>42</ns3:cad>
          </ns3:TrackPointExtension>
        </extensions>
      </trkpt>
      <trkpt lat="43.76781421713531017303466796875" lon="1.58308200538158416748046875">
        <ele>160.1999969482421875</ele>
        <time>2026-08-13T08:32:09.000Z</time>
        <extensions>
          <ns3:TrackPointExtension>
            <ns3:hr>79</ns3:hr>
            <ns3:cad>42</ns3:cad>
          </ns3:TrackPointExtension>
        </extensions>
      </trkpt>
      <trkpt lat="43.76782310195267200469970703125" lon="1.58307605423033237457275390625">
        <ele>160.1999969482421875</ele>
        <time>2026-08-13T08:32:10.000Z</time>
        <extensions>
          <ns3:TrackPointExtension>
            <ns3:hr>79</ns3:hr>
            <ns3:cad>42</ns3:cad>
          </ns3:TrackPointExtension>
        </extensions>
      </trkpt>
      <trkpt lat="43.76783198677003383636474609375" lon="1.58307102508842945098876953125">
        <ele>160.1999969482421875</ele>
        <time>2026-08-13T08:32:11.000Z</time>
        <extensions>
          <ns3:TrackPointExtension>
            <ns3:hr>78</ns3:hr>
            <ns3:cad>41</ns3:cad>
          </ns3:TrackPointExtension>
        </extensions>
      </trkpt>
      <trkpt lat="43.7678369320929050445556640625" lon="1.58306951634585857391357421875">
        <ele>160.1999969482421875</ele>
        <time>2026-08-13T08:32:12.000Z</time>
        <extensions>
          <ns3:TrackPointExtension>
            <ns3:hr>78</ns3:hr>
            <ns3:cad>41</ns3:cad>
          </ns3:TrackPointExtension>
        </extensions>
      </trkpt>
      <trkpt lat="43.7678427994251251220703125" lon="1.58306549303233623504638671875">
        <ele>160.1999969482421875</ele>
        <time>2026-08-13T08:32:13.000Z</time>
        <extensions>
          <ns3:TrackPointExtension>
            <ns3:hr>78</ns3:hr>
            <ns3:cad>41</ns3:cad>
          </ns3:TrackPointExtension>
        </extensions>
      </trkpt>
      <trkpt lat="43.7678560428321361541748046875" lon="1.58305543474853038787841796875">
        <ele>160.1999969482421875</ele>
        <time>2026-08-13T08:32:14.000Z</time>
        <extensions>
          <ns3:TrackPointExtension>
            <ns3:hr>77</ns3:hr>
            <ns3:cad>41</ns3:cad>
          </ns3:TrackPointExtension>
        </extensions>
      </trkpt>
      <trkpt lat="43.76786316744983196258544921875" lon="1.58305124379694461822509765625">
        <ele>160.1999969482421875</ele>
        <time>2026-08-13T08:32:15.000Z</time>
        <extensions>
          <ns3:TrackPointExtension>
            <ns3:hr>77</ns3:hr>
            <ns3:cad>43</ns3:cad>
          </ns3:TrackPointExtension>
        </extensions>
      </trkpt>
      <trkpt lat="43.76786903478205204010009765625" lon="1.583053506910800933837890625">
        <ele>160.1999969482421875</ele>
        <time>2026-08-13T08:32:16.000Z</time>
        <extensions>
          <ns3:TrackPointExtension>
            <ns3:hr>77</ns3:hr>
            <ns3:cad>45</ns3:cad>
          </ns3:TrackPointExtension>
        </extensions>
      </trkpt>
      <trkpt lat="43.7678781710565090179443359375" lon="1.58305040560662746429443359375">
        <ele>160.1999969482421875</ele>
        <time>2026-08-13T08:32:17.000Z</time>
        <extensions>
          <ns3:TrackPointExtension>
            <ns3:hr>77</ns3:hr>
            <ns3:cad>45</ns3:cad>
          </ns3:TrackPointExtension>
        </extensions>
      </trkpt>
      <trkpt lat="43.7678875587880611419677734375" lon="1.58304520882666110992431640625">
        <ele>160.1999969482421875</ele>
        <time>2026-08-13T08:32:18.000Z</time>
        <extensions>
          <ns3:TrackPointExtension>
            <ns3:hr>76</ns3:hr>
            <ns3:cad>42</ns3:cad>
          </ns3:TrackPointExtension>
        </extensions>
      </trkpt>
      <trkpt lat="43.76789711415767669677734375" lon="1.58304118551313877105712890625">
        <ele>160.1999969482421875</ele>
        <time>2026-08-13T08:32:19.000Z</time>
        <extensions>
          <ns3:TrackPointExtension>
            <ns3:hr>76</ns3:hr>
            <ns3:cad>42</ns3:cad>
          </ns3:TrackPointExtension>
        </extensions>
      </trkpt>
      <trkpt lat="43.76790407113730907440185546875" lon="1.5830382518470287322998046875">
        <ele>160.1999969482421875</ele>
        <time>2026-08-13T08:32:20.000Z</time>
        <extensions>
          <ns3:TrackPointExtension>
            <ns3:hr>76</ns3:hr>
            <ns3:cad>42</ns3:cad>
          </ns3:TrackPointExtension>
        </extensions>
      </trkpt>
      <trkpt lat="43.76791915856301784515380859375" lon="1.58303213305771350860595703125">
        <ele>160.1999969482421875</ele>
        <time>2026-08-13T08:32:21.000Z</time>
        <extensions>
          <ns3:TrackPointExtension>
            <ns3:hr>76</ns3:hr>
            <ns3:cad>43</ns3:cad>
          </ns3:TrackPointExtension>
        </extensions>
      </trkpt>
      <trkpt lat="43.7679308094084262847900390625" lon="1.58302391879260540008544921875">
        <ele>160.1999969482421875</ele>
        <time>2026-08-13T08:32:22.000Z</time>
        <extensions>
          <ns3:TrackPointExtension>
            <ns3:hr>76</ns3:hr>
            <ns3:cad>43</ns3:cad>
          </ns3:TrackPointExtension>
        </extensions>
      </trkpt>
      <trkpt lat="43.76794246025383472442626953125" lon="1.58302291296422481536865234375">
        <ele>160.1999969482421875</ele>
        <time>2026-08-13T08:32:23.000Z</time>
        <extensions>
          <ns3:TrackPointExtension>
            <ns3:hr>76</ns3:hr>
            <ns3:cad>44</ns3:cad>
          </ns3:TrackPointExtension>
        </extensions>
      </trkpt>
      <trkpt lat="43.76795033924281597137451171875" lon="1.58301251940429210662841796875">
        <ele>160.1999969482421875</ele>
        <time>2026-08-13T08:32:24.000Z</time>
        <extensions>
          <ns3:TrackPointExtension>
            <ns3:hr>75</ns3:hr>
            <ns3:cad>44</ns3:cad>
          </ns3:TrackPointExtension>
        </extensions>
      </trkpt>
      <trkpt lat="43.7679670192301273345947265625" lon="1.58299860544502735137939453125">
        <ele>160.1999969482421875</ele>
        <time>2026-08-13T08:32:25.000Z</time>
        <extensions>
          <ns3:TrackPointExtension>
            <ns3:hr>75</ns3:hr>
            <ns3:cad>43</ns3:cad>
          </ns3:TrackPointExtension>
        </extensions>
      </trkpt>
      <trkpt lat="43.7679737247526645660400390625" lon="1.5829926542937755584716796875">
        <ele>160.1999969482421875</ele>
        <time>2026-08-13T08:32:26.000Z</time>
        <extensions>
          <ns3:TrackPointExtension>
            <ns3:hr>75</ns3:hr>
            <ns3:cad>43</ns3:cad>
          </ns3:TrackPointExtension>
        </extensions>
      </trkpt>
      <trkpt lat="43.76797766424715518951416015625" lon="1.58298603259027004241943359375">
        <ele>160.1999969482421875</ele>
        <time>2026-08-13T08:32:27.000Z</time>
        <extensions>
          <ns3:TrackPointExtension>
            <ns3:hr>75</ns3:hr>
            <ns3:cad>43</ns3:cad>
          </ns3:TrackPointExtension>
        </extensions>
      </trkpt>
      <trkpt lat="43.7679884769022464752197265625" lon="1.5829809196293354034423828125">
        <ele>160.1999969482421875</ele>
        <time>2026-08-13T08:32:28.000Z</time>
        <extensions>
          <ns3:TrackPointExtension>
            <ns3:hr>76</ns3:hr>
            <ns3:cad>43</ns3:cad>
          </ns3:TrackPointExtension>
        </extensions>
      </trkpt>
      <trkpt lat="43.76799107529222965240478515625" lon="1.58297605812549591064453125">
        <ele>160.1999969482421875</ele>
        <time>2026-08-13T08:32:29.000Z</time>
        <extensions>
          <ns3:TrackPointExtension>
            <ns3:hr>76</ns3:hr>
            <ns3:cad>43</ns3:cad>
          </ns3:TrackPointExtension>
        </extensions>
      </trkpt>
      <trkpt lat="43.76799694262444972991943359375" lon="1.58296675421297550201416015625">
        <ele>160.1999969482421875</ele>
        <time>2026-08-13T08:32:30.000Z</time>
        <extensions>
          <ns3:TrackPointExtension>
            <ns3:hr>76</ns3:hr>
            <ns3:cad>43</ns3:cad>
          </ns3:TrackPointExtension>
        </extensions>
      </trkpt>
      <trkpt lat="43.7680005468428134918212890625" lon="1.58296155743300914764404296875">
        <ele>160.1999969482421875</ele>
        <time>2026-08-13T08:32:31.000Z</time>
        <extensions>
          <ns3:TrackPointExtension>
            <ns3:hr>76</ns3:hr>
            <ns3:cad>42</ns3:cad>
          </ns3:TrackPointExtension>
        </extensions>
      </trkpt>
      <trkpt lat="43.76801244914531707763671875" lon="1.58295569010078907012939453125">
        <ele>160.1999969482421875</ele>
        <time>2026-08-13T08:32:32.000Z</time>
        <extensions>
          <ns3:TrackPointExtension>
            <ns3:hr>77</ns3:hr>
            <ns3:cad>42</ns3:cad>
          </ns3:TrackPointExtension>
        </extensions>
      </trkpt>
      <trkpt lat="43.76802024431526660919189453125" lon="1.58294999040663242340087890625">
        <ele>160.1999969482421875</ele>
        <time>2026-08-13T08:32:33.000Z</time>
        <extensions>
          <ns3:TrackPointExtension>
            <ns3:hr>76</ns3:hr>
            <ns3:cad>42</ns3:cad>
          </ns3:TrackPointExtension>
        </extensions>
      </trkpt>
      <trkpt lat="43.76802711747586727142333984375" lon="1.58294512890279293060302734375">
        <ele>160.1999969482421875</ele>
        <time>2026-08-13T08:32:34.000Z</time>
        <extensions>
          <ns3:TrackPointExtension>
            <ns3:hr>76</ns3:hr>
            <ns3:cad>42</ns3:cad>
          </ns3:TrackPointExtension>
        </extensions>
      </trkpt>
      <trkpt lat="43.76803985796868801116943359375" lon="1.58293892629444599151611328125">
        <ele>160.1999969482421875</ele>
        <time>2026-08-13T08:32:35.000Z</time>
        <extensions>
          <ns3:TrackPointExtension>
            <ns3:hr>77</ns3:hr>
            <ns3:cad>43</ns3:cad>
          </ns3:TrackPointExtension>
        </extensions>
      </trkpt>
      <trkpt lat="43.76804756931960582733154296875" lon="1.58292870037257671356201171875">
        <ele>160.399993896484375</ele>
        <time>2026-08-13T08:32:36.000Z</time>
        <extensions>
          <ns3:TrackPointExtension>
            <ns3:hr>77</ns3:hr>
            <ns3:cad>43</ns3:cad>
          </ns3:TrackPointExtension>
        </extensions>
      </trkpt>
      <trkpt lat="43.76805360428988933563232421875" lon="1.58292517997324466705322265625">
        <ele>160.399993896484375</ele>
        <time>2026-08-13T08:32:37.000Z</time>
        <extensions>
          <ns3:TrackPointExtension>
            <ns3:hr>77</ns3:hr>
            <ns3:cad>43</ns3:cad>
          </ns3:TrackPointExtension>
        </extensions>
      </trkpt>
      <trkpt lat="43.7680600583553314208984375" lon="1.58292417414486408233642578125">
        <ele>160.399993896484375</ele>
        <time>2026-08-13T08:32:38.000Z</time>
        <extensions>
          <ns3:TrackPointExtension>
            <ns3:hr>77</ns3:hr>
            <ns3:cad>43</ns3:cad>
          </ns3:TrackPointExtension>
        </extensions>
      </trkpt>
      <trkpt lat="43.76807070337235927581787109375" lon="1.58291461877524852752685546875">
        <ele>160.399993896484375</ele>
        <time>2026-08-13T08:32:39.000Z</time>
        <extensions>
          <ns3:TrackPointExtension>
            <ns3:hr>78</ns3:hr>
            <ns3:cad>43</ns3:cad>
          </ns3:TrackPointExtension>
        </extensions>
      </trkpt>
      <trkpt lat="43.7680769897997379302978515625" lon="1.58291168510913848876953125">
        <ele>160.399993896484375</ele>
        <time>2026-08-13T08:32:40.000Z</time>
        <extensions>
          <ns3:TrackPointExtension>
            <ns3:hr>78</ns3:hr>
            <ns3:cad>41</ns3:cad>
          </ns3:TrackPointExtension>
        </extensions>
      </trkpt>
      <trkpt lat="43.7680813483893871307373046875" lon="1.58290900290012359619140625">
        <ele>160.399993896484375</ele>
        <time>2026-08-13T08:32:41.000Z</time>
        <extensions>
          <ns3:TrackPointExtension>
            <ns3:hr>78</ns3:hr>
            <ns3:cad>41</ns3:cad>
          </ns3:TrackPointExtension>
        </extensions>
      </trkpt>
      <trkpt lat="43.76808931119740009307861328125" lon="1.58290087245404720306396484375">
        <ele>160.399993896484375</ele>
        <time>2026-08-13T08:32:42.000Z</time>
        <extensions>
          <ns3:TrackPointExtension>
            <ns3:hr>78</ns3:hr>
            <ns3:cad>41</ns3:cad>
          </ns3:TrackPointExtension>
        </extensions>
      </trkpt>
      <trkpt lat="43.7680930830538272857666015625" lon="1.58290137536823749542236328125">
        <ele>160.399993896484375</ele>
        <time>2026-08-13T08:32:43.000Z</time>
        <extensions>
          <ns3:TrackPointExtension>
            <ns3:hr>79</ns3:hr>
            <ns3:cad>41</ns3:cad>
          </ns3:TrackPointExtension>
        </extensions>
      </trkpt>
      <trkpt lat="43.7680974416434764862060546875" lon="1.5828954242169857025146484375">
        <ele>160.399993896484375</ele>
        <time>2026-08-13T08:32:44.000Z</time>
        <extensions>
          <ns3:TrackPointExtension>
            <ns3:hr>79</ns3:hr>
            <ns3:cad>41</ns3:cad>
          </ns3:TrackPointExtension>
        </extensions>
      </trkpt>
      <trkpt lat="43.76810825429856777191162109375" lon="1.58288695849478244781494140625">
        <ele>160.399993896484375</ele>
        <time>2026-08-13T08:32:45.000Z</time>
        <extensions>
          <ns3:TrackPointExtension>
            <ns3:hr>79</ns3:hr>
            <ns3:cad>41</ns3:cad>
          </ns3:TrackPointExtension>
        </extensions>
      </trkpt>
      <trkpt lat="43.76811278052628040313720703125" lon="1.58288008533418178558349609375">
        <ele>160.399993896484375</ele>
        <time>2026-08-13T08:32:46.000Z</time>
        <extensions>
          <ns3:TrackPointExtension>
            <ns3:hr>79</ns3:hr>
            <ns3:cad>41</ns3:cad>
          </ns3:TrackPointExtension>
        </extensions>
      </trkpt>
      <trkpt lat="43.768117390573024749755859375" lon="1.5828748047351837158203125">
        <ele>160.399993896484375</ele>
        <time>2026-08-13T08:32:47.000Z</time>
        <extensions>
          <ns3:TrackPointExtension>
            <ns3:hr>79</ns3:hr>
            <ns3:cad>41</ns3:cad>
          </ns3:TrackPointExtension>
        </extensions>
      </trkpt>
      <trkpt lat="43.76813122071325778961181640625" lon="1.58286801539361476898193359375">
        <ele>160.399993896484375</ele>
        <time>2026-08-13T08:32:48.000Z</time>
        <extensions>
          <ns3:TrackPointExtension>
            <ns3:hr>79</ns3:hr>
            <ns3:cad>41</ns3:cad>
          </ns3:TrackPointExtension>
        </extensions>
      </trkpt>
      <trkpt lat="43.76813675276935100555419921875" lon="1.58286415971815586090087890625">
        <ele>160.399993896484375</ele>
        <time>2026-08-13T08:32:49.000Z</time>
        <extensions>
          <ns3:TrackPointExtension>
            <ns3:hr>79</ns3:hr>
            <ns3:cad>42</ns3:cad>
          </ns3:TrackPointExtension>
        </extensions>
      </trkpt>
      <trkpt lat="43.7681410275399684906005859375" lon="1.58285644836723804473876953125">
        <ele>160.399993896484375</ele>
        <time>2026-08-13T08:32:50.000Z</time>
        <extensions>
          <ns3:TrackPointExtension>
            <ns3:hr>79</ns3:hr>
            <ns3:cad>42</ns3:cad>
          </ns3:TrackPointExtension>
        </extensions>
      </trkpt>
      <trkpt lat="43.76815301366150379180908203125" lon="1.58285175450146198272705078125">
        <ele>160.399993896484375</ele>
        <time>2026-08-13T08:32:51.000Z</time>
        <extensions>
          <ns3:TrackPointExtension>
            <ns3:hr>79</ns3:hr>
            <ns3:cad>42</ns3:cad>
          </ns3:TrackPointExtension>
        </extensions>
      </trkpt>
      <trkpt lat="43.768162317574024200439453125" lon="1.58284731209278106689453125">
        <ele>160.399993896484375</ele>
        <time>2026-08-13T08:32:52.000Z</time>
        <extensions>
          <ns3:TrackPointExtension>
            <ns3:hr>79</ns3:hr>
            <ns3:cad>79</ns3:cad>
          </ns3:TrackPointExtension>
        </extensions>
      </trkpt>
      <trkpt lat="43.76817296259105205535888671875" lon="1.582842953503131866455078125">
        <ele>160.600006103515625</ele>
        <time>2026-08-13T08:32:53.000Z</time>
        <extensions>
          <ns3:TrackPointExtension>
            <ns3:hr>78</ns3:hr>
            <ns3:cad>79</ns3:cad>
          </ns3:TrackPointExtension>
        </extensions>
      </trkpt>
      <trkpt lat="43.76818536780774593353271484375" lon="1.58283951692283153533935546875">
        <ele>160.600006103515625</ele>
        <time>2026-08-13T08:32:54.000Z</time>
        <extensions>
          <ns3:TrackPointExtension>
            <ns3:hr>78</ns3:hr>
            <ns3:cad>79</ns3:cad>
          </ns3:TrackPointExtension>
        </extensions>
      </trkpt>
      <trkpt lat="43.7681909836828708648681640625" lon="1.58283079974353313446044921875">
        <ele>160.600006103515625</ele>
        <time>2026-08-13T08:32:55.000Z</time>
        <extensions>
          <ns3:TrackPointExtension>
            <ns3:hr>78</ns3:hr>
            <ns3:cad>41</ns3:cad>
          </ns3:TrackPointExtension>
        </extensions>
      </trkpt>
      <trkpt lat="43.76819777302443981170654296875" lon="1.5828266926109790802001953125">
        <ele>160.600006103515625</ele>
        <time>2026-08-13T08:32:56.000Z</time>
        <extensions>
          <ns3:TrackPointExtension>
            <ns3:hr>78</ns3:hr>
            <ns3:cad>42</ns3:cad>
          </ns3:TrackPointExtension>
        </extensions>
      </trkpt>
      <trkpt lat="43.76820422708988189697265625" lon="1.5828213281929492950439453125">
        <ele>160.600006103515625</ele>
        <time>2026-08-13T08:32:57.000Z</time>
        <extensions>
          <ns3:TrackPointExtension>
            <ns3:hr>79</ns3:hr>
            <ns3:cad>42</ns3:cad>
          </ns3:TrackPointExtension>
        </extensions>
      </trkpt>
      <trkpt lat="43.76821068115532398223876953125" lon="1.58281403593719005584716796875">
        <ele>160.600006103515625</ele>
        <time>2026-08-13T08:32:58.000Z</time>
        <extensions>
          <ns3:TrackPointExtension>
            <ns3:hr>79</ns3:hr>
            <ns3:cad>42</ns3:cad>
          </ns3:TrackPointExtension>
        </extensions>
      </trkpt>
      <trkpt lat="43.76821696758270263671875" lon="1.58281085081398487091064453125">
        <ele>160.600006103515625</ele>
        <time>2026-08-13T08:32:59.000Z</time>
        <extensions>
          <ns3:TrackPointExtension>
            <ns3:hr>79</ns3:hr>
            <ns3:cad>41</ns3:cad>
          </ns3:TrackPointExtension>
        </extensions>
      </trkpt>
      <trkpt lat="43.76822610385715961456298828125" lon="1.58280582167208194732666015625">
        <ele>160.600006103515625</ele>
        <time>2026-08-13T08:33:00.000Z</time>
        <extensions>
          <ns3:TrackPointExtension>
            <ns3:hr>79</ns3:hr>
            <ns3:cad>40</ns3:cad>
          </ns3:TrackPointExtension>
        </extensions>
      </trkpt>
      <trkpt lat="43.76823364757001399993896484375" lon="1.5827997028827667236328125">
        <ele>160.600006103515625</ele>
        <time>2026-08-13T08:33:01.000Z</time>
        <extensions>
          <ns3:TrackPointExtension>
            <ns3:hr>78</ns3:hr>
            <ns3:cad>40</ns3:cad>
          </ns3:TrackPointExtension>
        </extensions>
      </trkpt>
      <trkpt lat="43.76824102364480495452880859375" lon="1.58279475755989551544189453125">
        <ele>160.600006103515625</ele>
        <time>2026-08-13T08:33:02.000Z</time>
        <extensions>
          <ns3:TrackPointExtension>
            <ns3:hr>79</ns3:hr>
            <ns3:cad>41</ns3:cad>
          </ns3:TrackPointExtension>
        </extensions>
      </trkpt>
      <trkpt lat="43.76824982464313507080078125" lon="1.582789979875087738037109375">
        <ele>160.600006103515625</ele>
        <time>2026-08-13T08:33:03.000Z</time>
        <extensions>
          <ns3:TrackPointExtension>
            <ns3:hr>79</ns3:hr>
            <ns3:cad>41</ns3:cad>
          </ns3:TrackPointExtension>
        </extensions>
      </trkpt>
      <trkpt lat="43.76825879327952861785888671875" lon="1.58278369344770908355712890625">
        <ele>160.600006103515625</ele>
        <time>2026-08-13T08:33:04.000Z</time>
        <extensions>
          <ns3:TrackPointExtension>
            <ns3:hr>79</ns3:hr>
            <ns3:cad>41</ns3:cad>
          </ns3:TrackPointExtension>
        </extensions>
      </trkpt>
      <trkpt lat="43.7682639062404632568359375" lon="1.5827770717442035675048828125">
        <ele>160.600006103515625</ele>
        <time>2026-08-13T08:33:05.000Z</time>
        <extensions>
          <ns3:TrackPointExtension>
            <ns3:hr>79</ns3:hr>
            <ns3:cad>40</ns3:cad>
          </ns3:TrackPointExtension>
        </extensions>
      </trkpt>
      <trkpt lat="43.76827237196266651153564453125" lon="1.58277413807809352874755859375">
        <ele>160.8000030517578125</ele>
        <time>2026-08-13T08:33:06.000Z</time>
        <extensions>
          <ns3:TrackPointExtension>
            <ns3:hr>79</ns3:hr>
            <ns3:cad>40</ns3:cad>
          </ns3:TrackPointExtension>
        </extensions>
      </trkpt>
      <trkpt lat="43.76827890984714031219482421875" lon="1.58276692964136600494384765625">
        <ele>160.8000030517578125</ele>
        <time>2026-08-13T08:33:07.000Z</time>
        <extensions>
          <ns3:TrackPointExtension>
            <ns3:hr>79</ns3:hr>
            <ns3:cad>40</ns3:cad>
          </ns3:TrackPointExtension>
        </extensions>
      </trkpt>
      <trkpt lat="43.768285028636455535888671875" lon="1.58275888301432132720947265625">
        <ele>160.600006103515625</ele>
        <time>2026-08-13T08:33:08.000Z</time>
        <extensions>
          <ns3:TrackPointExtension>
            <ns3:hr>79</ns3:hr>
            <ns3:cad>41</ns3:cad>
          </ns3:TrackPointExtension>
        </extensions>
      </trkpt>
      <trkpt lat="43.76829165033996105194091796875" lon="1.58275100402534008026123046875">
        <ele>160.600006103515625</ele>
        <time>2026-08-13T08:33:09.000Z</time>
        <extensions>
          <ns3:TrackPointExtension>
            <ns3:hr>78</ns3:hr>
            <ns3:cad>41</ns3:cad>
          </ns3:TrackPointExtension>
        </extensions>
      </trkpt>
      <trkpt lat="43.76829835586249828338623046875" lon="1.5827415324747562408447265625">
        <ele>160.600006103515625</ele>
        <time>2026-08-13T08:33:10.000Z</time>
        <extensions>
          <ns3:TrackPointExtension>
            <ns3:hr>78</ns3:hr>
            <ns3:cad>42</ns3:cad>
          </ns3:TrackPointExtension>
        </extensions>
      </trkpt>
      <trkpt lat="43.76830724067986011505126953125" lon="1.58273055218160152435302734375">
        <ele>160.399993896484375</ele>
        <time>2026-08-13T08:33:11.000Z</time>
        <extensions>
          <ns3:TrackPointExtension>
            <ns3:hr>78</ns3:hr>
            <ns3:cad>42</ns3:cad>
          </ns3:TrackPointExtension>
        </extensions>
      </trkpt>
      <trkpt lat="43.76831411384046077728271484375" lon="1.58272661268711090087890625">
        <ele>160.399993896484375</ele>
        <time>2026-08-13T08:33:12.000Z</time>
        <extensions>
          <ns3:TrackPointExtension>
            <ns3:hr>77</ns3:hr>
            <ns3:cad>42</ns3:cad>
          </ns3:TrackPointExtension>
        </extensions>
      </trkpt>
      <trkpt lat="43.768322579562664031982421875" lon="1.58272367902100086212158203125">
        <ele>160.399993896484375</ele>
        <time>2026-08-13T08:33:13.000Z</time>
        <extensions>
          <ns3:TrackPointExtension>
            <ns3:hr>77</ns3:hr>
            <ns3:cad>43</ns3:cad>
          </ns3:TrackPointExtension>
        </extensions>
      </trkpt>
      <trkpt lat="43.768331296741962432861328125" lon="1.582717560231685638427734375">
        <ele>160.600006103515625</ele>
        <time>2026-08-13T08:33:14.000Z</time>
        <extensions>
          <ns3:TrackPointExtension>
            <ns3:hr>77</ns3:hr>
            <ns3:cad>43</ns3:cad>
          </ns3:TrackPointExtension>
        </extensions>
      </trkpt>
      <trkpt lat="43.76833875663578510284423828125" lon="1.58271244727075099945068359375">
        <ele>160.600006103515625</ele>
        <time>2026-08-13T08:33:15.000Z</time>
        <extensions>
          <ns3:TrackPointExtension>
            <ns3:hr>77</ns3:hr>
            <ns3:cad>41</ns3:cad>
          </ns3:TrackPointExtension>
        </extensions>
      </trkpt>
      <trkpt lat="43.768346048891544342041015625" lon="1.58270540647208690643310546875">
        <ele>160.600006103515625</ele>
        <time>2026-08-13T08:33:16.000Z</time>
        <extensions>
          <ns3:TrackPointExtension>
            <ns3:hr>78</ns3:hr>
            <ns3:cad>41</ns3:cad>
          </ns3:TrackPointExtension>
        </extensions>
      </trkpt>
      <trkpt lat="43.7683529220521450042724609375" lon="1.582700125873088836669921875">
        <ele>160.600006103515625</ele>
        <time>2026-08-13T08:33:17.000Z</time>
        <extensions>
          <ns3:TrackPointExtension>
            <ns3:hr>78</ns3:hr>
            <ns3:cad>41</ns3:cad>
          </ns3:TrackPointExtension>
        </extensions>
      </trkpt>
      <trkpt lat="43.76835887320339679718017578125" lon="1.5826950967311859130859375">
        <ele>160.600006103515625</ele>
        <time>2026-08-13T08:33:18.000Z</time>
        <extensions>
          <ns3:TrackPointExtension>
            <ns3:hr>78</ns3:hr>
            <ns3:cad>41</ns3:cad>
          </ns3:TrackPointExtension>
        </extensions>
      </trkpt>
      <trkpt lat="43.768368847668170928955078125" lon="1.58269031904637813568115234375">
        <ele>160.600006103515625</ele>
        <time>2026-08-13T08:33:19.000Z</time>
        <extensions>
          <ns3:TrackPointExtension>
            <ns3:hr>78</ns3:hr>
            <ns3:cad>41</ns3:cad>
          </ns3:TrackPointExtension>
        </extensions>
      </trkpt>
      <trkpt lat="43.7683757208287715911865234375" lon="1.5826801769435405731201171875">
        <ele>160.600006103515625</ele>
        <time>2026-08-13T08:33:20.000Z</time>
        <extensions>
          <ns3:TrackPointExtension>
            <ns3:hr>78</ns3:hr>
            <ns3:cad>41</ns3:cad>
          </ns3:TrackPointExtension>
        </extensions>
      </trkpt>
      <trkpt lat="43.76838133670389652252197265625" lon="1.58267020247876644134521484375">
        <ele>160.600006103515625</ele>
        <time>2026-08-13T08:33:21.000Z</time>
        <extensions>
          <ns3:TrackPointExtension>
            <ns3:hr>77</ns3:hr>
            <ns3:cad>41</ns3:cad>
          </ns3:TrackPointExtension>
        </extensions>
      </trkpt>
      <trkpt lat="43.76838670112192630767822265625" lon="1.58266282640397548675537109375">
        <ele>160.8000030517578125</ele>
        <time>2026-08-13T08:33:22.000Z</time>
        <extensions>
          <ns3:TrackPointExtension>
            <ns3:hr>77</ns3:hr>
            <ns3:cad>41</ns3:cad>
          </ns3:TrackPointExtension>
        </extensions>
      </trkpt>
      <trkpt lat="43.7683931551873683929443359375" lon="1.5826624073088169097900390625">
        <ele>160.8000030517578125</ele>
        <time>2026-08-13T08:33:23.000Z</time>
        <extensions>
          <ns3:TrackPointExtension>
            <ns3:hr>77</ns3:hr>
            <ns3:cad>41</ns3:cad>
          </ns3:TrackPointExtension>
        </extensions>
      </trkpt>
      <trkpt lat="43.76840145327150821685791015625" lon="1.5826580487191677093505859375">
        <ele>160.8000030517578125</ele>
        <time>2026-08-13T08:33:24.000Z</time>
        <extensions>
          <ns3:TrackPointExtension>
            <ns3:hr>77</ns3:hr>
            <ns3:cad>41</ns3:cad>
          </ns3:TrackPointExtension>
        </extensions>
      </trkpt>
      <trkpt lat="43.7684069015085697174072265625" lon="1.582650505006313323974609375">
        <ele>160.8000030517578125</ele>
        <time>2026-08-13T08:33:25.000Z</time>
        <extensions>
          <ns3:TrackPointExtension>
            <ns3:hr>77</ns3:hr>
            <ns3:cad>41</ns3:cad>
          </ns3:TrackPointExtension>
        </extensions>
      </trkpt>
      <trkpt lat="43.768413104116916656494140625" lon="1.5826453082263469696044921875">
        <ele>160.8000030517578125</ele>
        <time>2026-08-13T08:33:26.000Z</time>
        <extensions>
          <ns3:TrackPointExtension>
            <ns3:hr>76</ns3:hr>
            <ns3:cad>42</ns3:cad>
          </ns3:TrackPointExtension>
        </extensions>
      </trkpt>
      <trkpt lat="43.768420480191707611083984375" lon="1.58264254219830036163330078125">
        <ele>160.600006103515625</ele>
        <time>2026-08-13T08:33:27.000Z</time>
        <extensions>
          <ns3:TrackPointExtension>
            <ns3:hr>76</ns3:hr>
            <ns3:cad>42</ns3:cad>
          </ns3:TrackPointExtension>
        </extensions>
      </trkpt>
      <trkpt lat="43.7684302031993865966796875" lon="1.582640446722507476806640625">
        <ele>160.600006103515625</ele>
        <time>2026-08-13T08:33:28.000Z</time>
        <extensions>
          <ns3:TrackPointExtension>
            <ns3:hr>76</ns3:hr>
            <ns3:cad>42</ns3:cad>
          </ns3:TrackPointExtension>
        </extensions>
      </trkpt>
      <trkpt lat="43.7684374116361141204833984375" lon="1.58263809978961944580078125">
        <ele>160.600006103515625</ele>
        <time>2026-08-13T08:33:29.000Z</time>
        <extensions>
          <ns3:TrackPointExtension>
            <ns3:hr>76</ns3:hr>
            <ns3:cad>42</ns3:cad>
          </ns3:TrackPointExtension>
        </extensions>
      </trkpt>
      <trkpt lat="43.76844721846282482147216796875" lon="1.58263214863836765289306640625">
        <ele>160.600006103515625</ele>
        <time>2026-08-13T08:33:30.000Z</time>
        <extensions>
          <ns3:TrackPointExtension>
            <ns3:hr>76</ns3:hr>
            <ns3:cad>42</ns3:cad>
          </ns3:TrackPointExtension>
        </extensions>
      </trkpt>
      <trkpt lat="43.76846062950789928436279296875" lon="1.5826312266290187835693359375">
        <ele>160.600006103515625</ele>
        <time>2026-08-13T08:33:31.000Z</time>
        <extensions>
          <ns3:TrackPointExtension>
            <ns3:hr>76</ns3:hr>
            <ns3:cad>42</ns3:cad>
          </ns3:TrackPointExtension>
        </extensions>
      </trkpt>
      <trkpt lat="43.7684675864875316619873046875" lon="1.58262862823903560638427734375">
        <ele>160.600006103515625</ele>
        <time>2026-08-13T08:33:32.000Z</time>
        <extensions>
          <ns3:TrackPointExtension>
            <ns3:hr>75</ns3:hr>
            <ns3:cad>42</ns3:cad>
          </ns3:TrackPointExtension>
        </extensions>
      </trkpt>
      <trkpt lat="43.76847110688686370849609375" lon="1.58262066543102264404296875">
        <ele>160.600006103515625</ele>
        <time>2026-08-13T08:33:33.000Z</time>
        <extensions>
          <ns3:TrackPointExtension>
            <ns3:hr>75</ns3:hr>
            <ns3:cad>42</ns3:cad>
          </ns3:TrackPointExtension>
        </extensions>
      </trkpt>
      <trkpt lat="43.7684820033609867095947265625" lon="1.5826137922704219818115234375">
        <ele>160.600006103515625</ele>
        <time>2026-08-13T08:33:34.000Z</time>
        <extensions>
          <ns3:TrackPointExtension>
            <ns3:hr>74</ns3:hr>
            <ns3:cad>42</ns3:cad>
          </ns3:TrackPointExtension>
        </extensions>
      </trkpt>
      <trkpt lat="43.7684880383312702178955078125" lon="1.58260934986174106597900390625">
        <ele>160.600006103515625</ele>
        <time>2026-08-13T08:33:35.000Z</time>
        <extensions>
          <ns3:TrackPointExtension>
            <ns3:hr>73</ns3:hr>
            <ns3:cad>42</ns3:cad>
          </ns3:TrackPointExtension>
        </extensions>
      </trkpt>
      <trkpt lat="43.76849298365414142608642578125" lon="1.582610607147216796875">
        <ele>160.600006103515625</ele>
        <time>2026-08-13T08:33:36.000Z</time>
        <extensions>
          <ns3:TrackPointExtension>
            <ns3:hr>73</ns3:hr>
            <ns3:cad>42</ns3:cad>
          </ns3:TrackPointExtension>
        </extensions>
      </trkpt>
      <trkpt lat="43.76850253902375698089599609375" lon="1.58260566182434558868408203125">
        <ele>160.8000030517578125</ele>
        <time>2026-08-13T08:33:37.000Z</time>
        <extensions>
          <ns3:TrackPointExtension>
            <ns3:hr>73</ns3:hr>
            <ns3:cad>42</ns3:cad>
          </ns3:TrackPointExtension>
        </extensions>
      </trkpt>
      <trkpt lat="43.7685121782124042510986328125" lon="1.5825990401208400726318359375">
        <ele>160.8000030517578125</ele>
        <time>2026-08-13T08:33:38.000Z</time>
        <extensions>
          <ns3:TrackPointExtension>
            <ns3:hr>72</ns3:hr>
            <ns3:cad>42</ns3:cad>
          </ns3:TrackPointExtension>
        </extensions>
      </trkpt>
      <trkpt lat="43.76852148212492465972900390625" lon="1.58259057439863681793212890625">
        <ele>160.8000030517578125</ele>
        <time>2026-08-13T08:33:39.000Z</time>
        <extensions>
          <ns3:TrackPointExtension>
            <ns3:hr>72</ns3:hr>
            <ns3:cad>43</ns3:cad>
          </ns3:TrackPointExtension>
        </extensions>
      </trkpt>
      <trkpt lat="43.7685272656381130218505859375" lon="1.5825876407325267791748046875">
        <ele>160.8000030517578125</ele>
        <time>2026-08-13T08:33:40.000Z</time>
        <extensions>
          <ns3:TrackPointExtension>
            <ns3:hr>72</ns3:hr>
            <ns3:cad>43</ns3:cad>
          </ns3:TrackPointExtension>
        </extensions>
      </trkpt>
      <trkpt lat="43.768538497388362884521484375" lon="1.582579426467418670654296875">
        <ele>160.8000030517578125</ele>
        <time>2026-08-13T08:33:41.000Z</time>
        <extensions>
          <ns3:TrackPointExtension>
            <ns3:hr>73</ns3:hr>
            <ns3:cad>43</ns3:cad>
          </ns3:TrackPointExtension>
        </extensions>
      </trkpt>
      <trkpt lat="43.76854578964412212371826171875" lon="1.58256945200264453887939453125">
        <ele>160.8000030517578125</ele>
        <time>2026-08-13T08:33:42.000Z</time>
        <extensions>
          <ns3:TrackPointExtension>
            <ns3:hr>73</ns3:hr>
            <ns3:cad>43</ns3:cad>
          </ns3:TrackPointExtension>
        </extensions>
      </trkpt>
      <trkpt lat="43.768555261194705963134765625" lon="1.58256291411817073822021484375">
        <ele>160.8000030517578125</ele>
        <time>2026-08-13T08:33:43.000Z</time>
        <extensions>
          <ns3:TrackPointExtension>
            <ns3:hr>73</ns3:hr>
            <ns3:cad>42</ns3:cad>
          </ns3:TrackPointExtension>
        </extensions>
      </trkpt>
      <trkpt lat="43.7685641460120677947998046875" lon="1.58255771733820438385009765625">
        <ele>160.8000030517578125</ele>
        <time>2026-08-13T08:33:44.000Z</time>
        <extensions>
          <ns3:TrackPointExtension>
            <ns3:hr>72</ns3:hr>
            <ns3:cad>42</ns3:cad>
          </ns3:TrackPointExtension>
        </extensions>
      </trkpt>
      <trkpt lat="43.76857512630522251129150390625" lon="1.5825433842837810516357421875">
        <ele>160.8000030517578125</ele>
        <time>2026-08-13T08:33:45.000Z</time>
        <extensions>
          <ns3:TrackPointExtension>
            <ns3:hr>73</ns3:hr>
            <ns3:cad>42</ns3:cad>
          </ns3:TrackPointExtension>
        </extensions>
      </trkpt>
      <trkpt lat="43.76858250238001346588134765625" lon="1.582537181675434112548828125">
        <ele>160.8000030517578125</ele>
        <time>2026-08-13T08:33:46.000Z</time>
        <extensions>
          <ns3:TrackPointExtension>
            <ns3:hr>73</ns3:hr>
            <ns3:cad>42</ns3:cad>
          </ns3:TrackPointExtension>
        </extensions>
      </trkpt>
      <trkpt lat="43.76859088428318500518798828125" lon="1.582529805600643157958984375">
        <ele>160.8000030517578125</ele>
        <time>2026-08-13T08:33:47.000Z</time>
        <extensions>
          <ns3:TrackPointExtension>
            <ns3:hr>72</ns3:hr>
            <ns3:cad>42</ns3:cad>
          </ns3:TrackPointExtension>
        </extensions>
      </trkpt>
      <trkpt lat="43.76859859563410282135009765625" lon="1.58252418972551822662353515625">
        <ele>161</ele>
        <time>2026-08-13T08:33:48.000Z</time>
        <extensions>
          <ns3:TrackPointExtension>
            <ns3:hr>72</ns3:hr>
            <ns3:cad>42</ns3:cad>
          </ns3:TrackPointExtension>
        </extensions>
      </trkpt>
      <trkpt lat="43.76860597170889377593994140625" lon="1.58251664601266384124755859375">
        <ele>160.8000030517578125</ele>
        <time>2026-08-13T08:33:49.000Z</time>
        <extensions>
          <ns3:TrackPointExtension>
            <ns3:hr>73</ns3:hr>
            <ns3:cad>42</ns3:cad>
          </ns3:TrackPointExtension>
        </extensions>
      </trkpt>
      <trkpt lat="43.76860178075730800628662109375" lon="1.582518406212329864501953125">
        <ele>160.8000030517578125</ele>
        <time>2026-08-13T08:33:50.000Z</time>
        <extensions>
          <ns3:TrackPointExtension>
            <ns3:hr>73</ns3:hr>
            <ns3:cad>44</ns3:cad>
          </ns3:TrackPointExtension>
        </extensions>
      </trkpt>
      <trkpt lat="43.76861250959336757659912109375" lon="1.58251178450882434844970703125">
        <ele>160.8000030517578125</ele>
        <time>2026-08-13T08:33:51.000Z</time>
        <extensions>
          <ns3:TrackPointExtension>
            <ns3:hr>73</ns3:hr>
            <ns3:cad>44</ns3:cad>
          </ns3:TrackPointExtension>
        </extensions>
      </trkpt>
      <trkpt lat="43.76862256787717342376708984375" lon="1.58250273205339908599853515625">
        <ele>160.600006103515625</ele>
        <time>2026-08-13T08:33:52.000Z</time>
        <extensions>
          <ns3:TrackPointExtension>
            <ns3:hr>72</ns3:hr>
            <ns3:cad>44</ns3:cad>
          </ns3:TrackPointExtension>
        </extensions>
      </trkpt>
      <trkpt lat="43.76862910576164722442626953125" lon="1.5824984572827816009521484375">
        <ele>160.600006103515625</ele>
        <time>2026-08-13T08:33:53.000Z</time>
        <extensions>
          <ns3:TrackPointExtension>
            <ns3:hr>73</ns3:hr>
            <ns3:cad>44</ns3:cad>
          </ns3:TrackPointExtension>
        </extensions>
      </trkpt>
      <trkpt lat="43.76864117570221424102783203125" lon="1.5824934281408786773681640625">
        <ele>160.600006103515625</ele>
        <time>2026-08-13T08:33:54.000Z</time>
        <extensions>
          <ns3:TrackPointExtension>
            <ns3:hr>73</ns3:hr>
            <ns3:cad>43</ns3:cad>
          </ns3:TrackPointExtension>
        </extensions>
      </trkpt>
      <trkpt lat="43.76864871941506862640380859375" lon="1.58248663879930973052978515625">
        <ele>160.8000030517578125</ele>
        <time>2026-08-13T08:33:55.000Z</time>
        <extensions>
          <ns3:TrackPointExtension>
            <ns3:hr>73</ns3:hr>
            <ns3:cad>43</ns3:cad>
          </ns3:TrackPointExtension>
        </extensions>
      </trkpt>
      <trkpt lat="43.76865978352725505828857421875" lon="1.58247959800064563751220703125">
        <ele>160.8000030517578125</ele>
        <time>2026-08-13T08:33:56.000Z</time>
        <extensions>
          <ns3:TrackPointExtension>
            <ns3:hr>73</ns3:hr>
            <ns3:cad>43</ns3:cad>
          </ns3:TrackPointExtension>
        </extensions>
      </trkpt>
      <trkpt lat="43.7686677463352680206298828125" lon="1.58247859217226505279541015625">
        <ele>160.8000030517578125</ele>
        <time>2026-08-13T08:33:57.000Z</time>
        <extensions>
          <ns3:TrackPointExtension>
            <ns3:hr>73</ns3:hr>
            <ns3:cad>43</ns3:cad>
          </ns3:TrackPointExtension>
        </extensions>
      </trkpt>
      <trkpt lat="43.76867705024778842926025390625" lon="1.582473814487457275390625">
        <ele>160.8000030517578125</ele>
        <time>2026-08-13T08:33:58.000Z</time>
        <extensions>
          <ns3:TrackPointExtension>
            <ns3:hr>74</ns3:hr>
            <ns3:cad>43</ns3:cad>
          </ns3:TrackPointExtension>
        </extensions>
      </trkpt>
      <trkpt lat="43.7686930596828460693359375" lon="1.58246752806007862091064453125">
        <ele>160.600006103515625</ele>
        <time>2026-08-13T08:33:59.000Z</time>
        <extensions>
          <ns3:TrackPointExtension>
            <ns3:hr>74</ns3:hr>
            <ns3:cad>43</ns3:cad>
          </ns3:TrackPointExtension>
        </extensions>
      </trkpt>
      <trkpt lat="43.7686985917389392852783203125" lon="1.5824622474610805511474609375">
        <ele>160.600006103515625</ele>
        <time>2026-08-13T08:34:00.000Z</time>
        <extensions>
          <ns3:TrackPointExtension>
            <ns3:hr>74</ns3:hr>
            <ns3:cad>44</ns3:cad>
          </ns3:TrackPointExtension>
        </extensions>
      </trkpt>
      <trkpt lat="43.768704123795032501220703125" lon="1.5824602358043193817138671875">
        <ele>160.600006103515625</ele>
        <time>2026-08-13T08:34:01.000Z</time>
        <extensions>
          <ns3:TrackPointExtension>
            <ns3:hr>74</ns3:hr>
            <ns3:cad>44</ns3:cad>
          </ns3:TrackPointExtension>
        </extensions>
      </trkpt>
      <trkpt lat="43.76871258951723575592041015625" lon="1.58245277591049671173095703125">
        <ele>160.600006103515625</ele>
        <time>2026-08-13T08:34:02.000Z</time>
        <extensions>
          <ns3:TrackPointExtension>
            <ns3:hr>74</ns3:hr>
            <ns3:cad>43</ns3:cad>
          </ns3:TrackPointExtension>
        </extensions>
      </trkpt>
      <trkpt lat="43.7687244080007076263427734375" lon="1.58244254998862743377685546875">
        <ele>160.600006103515625</ele>
        <time>2026-08-13T08:34:03.000Z</time>
        <extensions>
          <ns3:TrackPointExtension>
            <ns3:hr>74</ns3:hr>
            <ns3:cad>43</ns3:cad>
          </ns3:TrackPointExtension>
        </extensions>
      </trkpt>
      <trkpt lat="43.7687297724187374114990234375" lon="1.58243919722735881805419921875">
        <ele>160.600006103515625</ele>
        <time>2026-08-13T08:34:04.000Z</time>
        <extensions>
          <ns3:TrackPointExtension>
            <ns3:hr>74</ns3:hr>
            <ns3:cad>43</ns3:cad>
          </ns3:TrackPointExtension>
        </extensions>
      </trkpt>
      <trkpt lat="43.76873136498034000396728515625" lon="1.58243634738028049468994140625">
        <ele>160.600006103515625</ele>
        <time>2026-08-13T08:34:05.000Z</time>
        <extensions>
          <ns3:TrackPointExtension>
            <ns3:hr>74</ns3:hr>
            <ns3:cad>43</ns3:cad>
          </ns3:TrackPointExtension>
        </extensions>
      </trkpt>
      <trkpt lat="43.76874058507382869720458984375" lon="1.5824273787438869476318359375">
        <ele>160.600006103515625</ele>
        <time>2026-08-13T08:34:06.000Z</time>
        <extensions>
          <ns3:TrackPointExtension>
            <ns3:hr>75</ns3:hr>
            <ns3:cad>44</ns3:cad>
          </ns3:TrackPointExtension>
        </extensions>
      </trkpt>
      <trkpt lat="43.76875131390988826751708984375" lon="1.5824210084974765777587890625">
        <ele>160.600006103515625</ele>
        <time>2026-08-13T08:34:07.000Z</time>
        <extensions>
          <ns3:TrackPointExtension>
            <ns3:hr>76</ns3:hr>
            <ns3:cad>44</ns3:cad>
          </ns3:TrackPointExtension>
        </extensions>
      </trkpt>
      <trkpt lat="43.768758438527584075927734375" lon="1.58241958357393741607666015625">
        <ele>160.600006103515625</ele>
        <time>2026-08-13T08:34:08.000Z</time>
        <extensions>
          <ns3:TrackPointExtension>
            <ns3:hr>76</ns3:hr>
            <ns3:cad>44</ns3:cad>
          </ns3:TrackPointExtension>
        </extensions>
      </trkpt>
      <trkpt lat="43.7687616236507892608642578125" lon="1.5824161469936370849609375">
        <ele>160.600006103515625</ele>
        <time>2026-08-13T08:34:09.000Z</time>
        <extensions>
          <ns3:TrackPointExtension>
            <ns3:hr>77</ns3:hr>
            <ns3:cad>44</ns3:cad>
          </ns3:TrackPointExtension>
        </extensions>
      </trkpt>
      <trkpt lat="43.76877444796264171600341796875" lon="1.58240768127143383026123046875">
        <ele>160.600006103515625</ele>
        <time>2026-08-13T08:34:10.000Z</time>
        <extensions>
          <ns3:TrackPointExtension>
            <ns3:hr>78</ns3:hr>
            <ns3:cad>44</ns3:cad>
          </ns3:TrackPointExtension>
        </extensions>
      </trkpt>
      <trkpt lat="43.76878450624644756317138671875" lon="1.58239946700632572174072265625">
        <ele>160.600006103515625</ele>
        <time>2026-08-13T08:34:11.000Z</time>
        <extensions>
          <ns3:TrackPointExtension>
            <ns3:hr>78</ns3:hr>
            <ns3:cad>44</ns3:cad>
          </ns3:TrackPointExtension>
        </extensions>
      </trkpt>
      <trkpt lat="43.76879188232123851776123046875" lon="1.58239896409213542938232421875">
        <ele>160.600006103515625</ele>
        <time>2026-08-13T08:34:12.000Z</time>
        <extensions>
          <ns3:TrackPointExtension>
            <ns3:hr>79</ns3:hr>
            <ns3:cad>45</ns3:cad>
          </ns3:TrackPointExtension>
        </extensions>
      </trkpt>
      <trkpt lat="43.7687968276441097259521484375" lon="1.58239695243537425994873046875">
        <ele>160.600006103515625</ele>
        <time>2026-08-13T08:34:13.000Z</time>
        <extensions>
          <ns3:TrackPointExtension>
            <ns3:hr>79</ns3:hr>
            <ns3:cad>45</ns3:cad>
          </ns3:TrackPointExtension>
        </extensions>
      </trkpt>
      <trkpt lat="43.76880504190921783447265625" lon="1.5823888219892978668212890625">
        <ele>160.600006103515625</ele>
        <time>2026-08-13T08:34:14.000Z</time>
        <extensions>
          <ns3:TrackPointExtension>
            <ns3:hr>79</ns3:hr>
            <ns3:cad>45</ns3:cad>
          </ns3:TrackPointExtension>
        </extensions>
      </trkpt>
      <trkpt lat="43.76881568692624568939208984375" lon="1.5823767520487308502197265625">
        <ele>160.600006103515625</ele>
        <time>2026-08-13T08:34:15.000Z</time>
        <extensions>
          <ns3:TrackPointExtension>
            <ns3:hr>79</ns3:hr>
            <ns3:cad>45</ns3:cad>
          </ns3:TrackPointExtension>
        </extensions>
      </trkpt>
      <trkpt lat="43.76882054843008518218994140625" lon="1.58236828632652759552001953125">
        <ele>160.8000030517578125</ele>
        <time>2026-08-13T08:34:16.000Z</time>
        <extensions>
          <ns3:TrackPointExtension>
            <ns3:hr>79</ns3:hr>
            <ns3:cad>45</ns3:cad>
          </ns3:TrackPointExtension>
        </extensions>
      </trkpt>
      <trkpt lat="43.76882608048617839813232421875" lon="1.5823630057275295257568359375">
        <ele>160.8000030517578125</ele>
        <time>2026-08-13T08:34:17.000Z</time>
        <extensions>
          <ns3:TrackPointExtension>
            <ns3:hr>78</ns3:hr>
            <ns3:cad>44</ns3:cad>
          </ns3:TrackPointExtension>
        </extensions>
      </trkpt>
      <trkpt lat="43.7688420899212360382080078125" lon="1.58235386945307254791259765625">
        <ele>160.8000030517578125</ele>
        <time>2026-08-13T08:34:18.000Z</time>
        <extensions>
          <ns3:TrackPointExtension>
            <ns3:hr>78</ns3:hr>
            <ns3:cad>44</ns3:cad>
          </ns3:TrackPointExtension>
        </extensions>
      </trkpt>
      <trkpt lat="43.768848292529582977294921875" lon="1.5823490917682647705078125">
        <ele>160.8000030517578125</ele>
        <time>2026-08-13T08:34:19.000Z</time>
        <extensions>
          <ns3:TrackPointExtension>
            <ns3:hr>78</ns3:hr>
            <ns3:cad>44</ns3:cad>
          </ns3:TrackPointExtension>
        </extensions>
      </trkpt>
      <trkpt lat="43.76885189674794673919677734375" lon="1.58234783448278903961181640625">
        <ele>160.8000030517578125</ele>
        <time>2026-08-13T08:34:20.000Z</time>
        <extensions>
          <ns3:TrackPointExtension>
            <ns3:hr>78</ns3:hr>
            <ns3:cad>44</ns3:cad>
          </ns3:TrackPointExtension>
        </extensions>
      </trkpt>
      <trkpt lat="43.76886229030787944793701171875" lon="1.5823402069509029388427734375">
        <ele>160.8000030517578125</ele>
        <time>2026-08-13T08:34:21.000Z</time>
        <extensions>
          <ns3:TrackPointExtension>
            <ns3:hr>78</ns3:hr>
            <ns3:cad>44</ns3:cad>
          </ns3:TrackPointExtension>
        </extensions>
      </trkpt>
      <trkpt lat="43.76887368969619274139404296875" lon="1.582336015999317169189453125">
        <ele>160.8000030517578125</ele>
        <time>2026-08-13T08:34:22.000Z</time>
        <extensions>
          <ns3:TrackPointExtension>
            <ns3:hr>78</ns3:hr>
            <ns3:cad>0</ns3:cad>
          </ns3:TrackPointExtension>
        </extensions>
      </trkpt>
      <trkpt lat="43.76888073049485683441162109375" lon="1.5823274664580821990966796875">
        <ele>160.8000030517578125</ele>
        <time>2026-08-13T08:34:23.000Z</time>
        <extensions>
          <ns3:TrackPointExtension>
            <ns3:hr>78</ns3:hr>
            <ns3:cad>46</ns3:cad>
          </ns3:TrackPointExtension>
        </extensions>
      </trkpt>
      <trkpt lat="43.76888710074126720428466796875" lon="1.58232118003070354461669921875">
        <ele>161</ele>
        <time>2026-08-13T08:34:24.000Z</time>
        <extensions>
          <ns3:TrackPointExtension>
            <ns3:hr>77</ns3:hr>
            <ns3:cad>46</ns3:cad>
          </ns3:TrackPointExtension>
        </extensions>
      </trkpt>
      <trkpt lat="43.76889933831989765167236328125" lon="1.5823150612413883209228515625">
        <ele>161</ele>
        <time>2026-08-13T08:34:25.000Z</time>
        <extensions>
          <ns3:TrackPointExtension>
            <ns3:hr>78</ns3:hr>
            <ns3:cad>48</ns3:cad>
          </ns3:TrackPointExtension>
        </extensions>
      </trkpt>
      <trkpt lat="43.7689064629375934600830078125" lon="1.582305841147899627685546875">
        <ele>161</ele>
        <time>2026-08-13T08:34:26.000Z</time>
        <extensions>
          <ns3:TrackPointExtension>
            <ns3:hr>78</ns3:hr>
            <ns3:cad>48</ns3:cad>
          </ns3:TrackPointExtension>
        </extensions>
      </trkpt>
      <trkpt lat="43.76892012543976306915283203125" lon="1.58229477703571319580078125">
        <ele>161</ele>
        <time>2026-08-13T08:34:27.000Z</time>
        <extensions>
          <ns3:TrackPointExtension>
            <ns3:hr>77</ns3:hr>
            <ns3:cad>48</ns3:cad>
          </ns3:TrackPointExtension>
        </extensions>
      </trkpt>
      <trkpt lat="43.7689272500574588775634765625" lon="1.5822875685989856719970703125">
        <ele>160.8000030517578125</ele>
        <time>2026-08-13T08:34:28.000Z</time>
        <extensions>
          <ns3:TrackPointExtension>
            <ns3:hr>77</ns3:hr>
            <ns3:cad>48</ns3:cad>
          </ns3:TrackPointExtension>
        </extensions>
      </trkpt>
      <trkpt lat="43.76893269829452037811279296875" lon="1.58228664658963680267333984375">
        <ele>160.8000030517578125</ele>
        <time>2026-08-13T08:34:29.000Z</time>
        <extensions>
          <ns3:TrackPointExtension>
            <ns3:hr>77</ns3:hr>
            <ns3:cad>46</ns3:cad>
          </ns3:TrackPointExtension>
        </extensions>
      </trkpt>
      <trkpt lat="43.7689433433115482330322265625" lon="1.5822835452854633331298828125">
        <ele>160.8000030517578125</ele>
        <time>2026-08-13T08:34:30.000Z</time>
        <extensions>
          <ns3:TrackPointExtension>
            <ns3:hr>77</ns3:hr>
            <ns3:cad>46</ns3:cad>
          </ns3:TrackPointExtension>
        </extensions>
      </trkpt>
      <trkpt lat="43.7689513899385929107666015625" lon="1.58227809704840183258056640625">
        <ele>160.600006103515625</ele>
        <time>2026-08-13T08:34:31.000Z</time>
        <extensions>
          <ns3:TrackPointExtension>
            <ns3:hr>77</ns3:hr>
            <ns3:cad>46</ns3:cad>
          </ns3:TrackPointExtension>
        </extensions>
      </trkpt>
      <trkpt lat="43.7689617834985256195068359375" lon="1.5822708047926425933837890625">
        <ele>160.600006103515625</ele>
        <time>2026-08-13T08:34:32.000Z</time>
        <extensions>
          <ns3:TrackPointExtension>
            <ns3:hr>77</ns3:hr>
            <ns3:cad>46</ns3:cad>
          </ns3:TrackPointExtension>
        </extensions>
      </trkpt>
      <trkpt lat="43.7689666450023651123046875" lon="1.58226661384105682373046875">
        <ele>160.600006103515625</ele>
        <time>2026-08-13T08:34:33.000Z</time>
        <extensions>
          <ns3:TrackPointExtension>
            <ns3:hr>77</ns3:hr>
            <ns3:cad>45</ns3:cad>
          </ns3:TrackPointExtension>
        </extensions>
      </trkpt>
      <trkpt lat="43.76898030750453472137451171875" lon="1.582262255251407623291015625">
        <ele>160.600006103515625</ele>
        <time>2026-08-13T08:34:34.000Z</time>
        <extensions>
          <ns3:TrackPointExtension>
            <ns3:hr>77</ns3:hr>
            <ns3:cad>45</ns3:cad>
          </ns3:TrackPointExtension>
        </extensions>
      </trkpt>
      <trkpt lat="43.76898935995995998382568359375" lon="1.582256220281124114990234375">
        <ele>160.600006103515625</ele>
        <time>2026-08-13T08:34:35.000Z</time>
        <extensions>
          <ns3:TrackPointExtension>
            <ns3:hr>77</ns3:hr>
            <ns3:cad>45</ns3:cad>
          </ns3:TrackPointExtension>
        </extensions>
      </trkpt>
      <trkpt lat="43.768998496234416961669921875" lon="1.58225261606276035308837890625">
        <ele>160.600006103515625</ele>
        <time>2026-08-13T08:34:36.000Z</time>
        <extensions>
          <ns3:TrackPointExtension>
            <ns3:hr>77</ns3:hr>
            <ns3:cad>44</ns3:cad>
          </ns3:TrackPointExtension>
        </extensions>
      </trkpt>
      <trkpt lat="43.769003860652446746826171875" lon="1.5822516940534114837646484375">
        <ele>160.600006103515625</ele>
        <time>2026-08-13T08:34:37.000Z</time>
        <extensions>
          <ns3:TrackPointExtension>
            <ns3:hr>78</ns3:hr>
            <ns3:cad>45</ns3:cad>
          </ns3:TrackPointExtension>
        </extensions>
      </trkpt>
      <trkpt lat="43.76901316456496715545654296875" lon="1.58224155195057392120361328125">
        <ele>160.600006103515625</ele>
        <time>2026-08-13T08:34:38.000Z</time>
        <extensions>
          <ns3:TrackPointExtension>
            <ns3:hr>78</ns3:hr>
            <ns3:cad>45</ns3:cad>
          </ns3:TrackPointExtension>
        </extensions>
      </trkpt>
      <trkpt lat="43.76902523450553417205810546875" lon="1.58223174512386322021484375">
        <ele>160.600006103515625</ele>
        <time>2026-08-13T08:34:39.000Z</time>
        <extensions>
          <ns3:TrackPointExtension>
            <ns3:hr>78</ns3:hr>
            <ns3:cad>45</ns3:cad>
          </ns3:TrackPointExtension>
        </extensions>
      </trkpt>
      <trkpt lat="43.7690318562090396881103515625" lon="1.582228727638721466064453125">
        <ele>160.600006103515625</ele>
        <time>2026-08-13T08:34:40.000Z</time>
        <extensions>
          <ns3:TrackPointExtension>
            <ns3:hr>78</ns3:hr>
            <ns3:cad>45</ns3:cad>
          </ns3:TrackPointExtension>
        </extensions>
      </trkpt>
      <trkpt lat="43.76903981901705265045166015625" lon="1.58222177065908908843994140625">
        <ele>160.600006103515625</ele>
        <time>2026-08-13T08:34:41.000Z</time>
        <extensions>
          <ns3:TrackPointExtension>
            <ns3:hr>77</ns3:hr>
            <ns3:cad>46</ns3:cad>
          </ns3:TrackPointExtension>
        </extensions>
      </trkpt>
      <trkpt lat="43.7690506316721439361572265625" lon="1.5822111256420612335205078125">
        <ele>160.600006103515625</ele>
        <time>2026-08-13T08:34:42.000Z</time>
        <extensions>
          <ns3:TrackPointExtension>
            <ns3:hr>77</ns3:hr>
            <ns3:cad>46</ns3:cad>
          </ns3:TrackPointExtension>
        </extensions>
      </trkpt>
      <trkpt lat="43.76905675046145915985107421875" lon="1.58220349811017513275146484375">
        <ele>160.600006103515625</ele>
        <time>2026-08-13T08:34:43.000Z</time>
        <extensions>
          <ns3:TrackPointExtension>
            <ns3:hr>77</ns3:hr>
            <ns3:cad>45</ns3:cad>
          </ns3:TrackPointExtension>
        </extensions>
      </trkpt>
      <trkpt lat="43.76906462945044040679931640625" lon="1.58219058997929096221923828125">
        <ele>160.600006103515625</ele>
        <time>2026-08-13T08:34:44.000Z</time>
        <extensions>
          <ns3:TrackPointExtension>
            <ns3:hr>78</ns3:hr>
            <ns3:cad>45</ns3:cad>
          </ns3:TrackPointExtension>
        </extensions>
      </trkpt>
      <trkpt lat="43.769073598086833953857421875" lon="1.58218371681869029998779296875">
        <ele>160.8000030517578125</ele>
        <time>2026-08-13T08:34:45.000Z</time>
        <extensions>
          <ns3:TrackPointExtension>
            <ns3:hr>77</ns3:hr>
            <ns3:cad>44</ns3:cad>
          </ns3:TrackPointExtension>
        </extensions>
      </trkpt>
      <trkpt lat="43.76908290199935436248779296875" lon="1.58217675983905792236328125">
        <ele>160.8000030517578125</ele>
        <time>2026-08-13T08:34:46.000Z</time>
        <extensions>
          <ns3:TrackPointExtension>
            <ns3:hr>77</ns3:hr>
            <ns3:cad>44</ns3:cad>
          </ns3:TrackPointExtension>
        </extensions>
      </trkpt>
      <trkpt lat="43.76909069716930389404296875" lon="1.58217131160199642181396484375">
        <ele>160.8000030517578125</ele>
        <time>2026-08-13T08:34:47.000Z</time>
        <extensions>
          <ns3:TrackPointExtension>
            <ns3:hr>77</ns3:hr>
            <ns3:cad>44</ns3:cad>
          </ns3:TrackPointExtension>
        </extensions>
      </trkpt>
      <trkpt lat="43.76909681595861911773681640625" lon="1.5821655280888080596923828125">
        <ele>161</ele>
        <time>2026-08-13T08:34:48.000Z</time>
        <extensions>
          <ns3:TrackPointExtension>
            <ns3:hr>78</ns3:hr>
            <ns3:cad>44</ns3:cad>
          </ns3:TrackPointExtension>
        </extensions>
      </trkpt>
      <trkpt lat="43.7691034376621246337890625" lon="1.58216075040400028228759765625">
        <ele>161</ele>
        <time>2026-08-13T08:34:49.000Z</time>
        <extensions>
          <ns3:TrackPointExtension>
            <ns3:hr>78</ns3:hr>
            <ns3:cad>44</ns3:cad>
          </ns3:TrackPointExtension>
        </extensions>
      </trkpt>
      <trkpt lat="43.76910955645143985748291015625" lon="1.58215572126209735870361328125">
        <ele>160.8000030517578125</ele>
        <time>2026-08-13T08:34:50.000Z</time>
        <extensions>
          <ns3:TrackPointExtension>
            <ns3:hr>78</ns3:hr>
            <ns3:cad>48</ns3:cad>
          </ns3:TrackPointExtension>
        </extensions>
      </trkpt>
      <trkpt lat="43.76912095583975315093994140625" lon="1.582142896950244903564453125">
        <ele>160.8000030517578125</ele>
        <time>2026-08-13T08:34:51.000Z</time>
        <extensions>
          <ns3:TrackPointExtension>
            <ns3:hr>78</ns3:hr>
            <ns3:cad>48</ns3:cad>
          </ns3:TrackPointExtension>
        </extensions>
      </trkpt>
      <trkpt lat="43.7691287510097026824951171875" lon="1.58213996328413486480712890625">
        <ele>160.8000030517578125</ele>
        <time>2026-08-13T08:34:52.000Z</time>
        <extensions>
          <ns3:TrackPointExtension>
            <ns3:hr>78</ns3:hr>
            <ns3:cad>48</ns3:cad>
          </ns3:TrackPointExtension>
        </extensions>
      </trkpt>
      <trkpt lat="43.76913403160870075225830078125" lon="1.58214013092219829559326171875">
        <ele>160.8000030517578125</ele>
        <time>2026-08-13T08:34:53.000Z</time>
        <extensions>
          <ns3:TrackPointExtension>
            <ns3:hr>78</ns3:hr>
            <ns3:cad>47</ns3:cad>
          </ns3:TrackPointExtension>
        </extensions>
      </trkpt>
      <trkpt lat="43.7691436707973480224609375" lon="1.58213208429515361785888671875">
        <ele>160.8000030517578125</ele>
        <time>2026-08-13T08:34:54.000Z</time>
        <extensions>
          <ns3:TrackPointExtension>
            <ns3:hr>78</ns3:hr>
            <ns3:cad>46</ns3:cad>
          </ns3:TrackPointExtension>
        </extensions>
      </trkpt>
      <trkpt lat="43.7691557407379150390625" lon="1.58212311565876007080078125">
        <ele>160.600006103515625</ele>
        <time>2026-08-13T08:34:55.000Z</time>
        <extensions>
          <ns3:TrackPointExtension>
            <ns3:hr>78</ns3:hr>
            <ns3:cad>45</ns3:cad>
          </ns3:TrackPointExtension>
        </extensions>
      </trkpt>
      <trkpt lat="43.7691624462604522705078125" lon="1.582119762897491455078125">
        <ele>160.600006103515625</ele>
        <time>2026-08-13T08:34:56.000Z</time>
        <extensions>
          <ns3:TrackPointExtension>
            <ns3:hr>78</ns3:hr>
            <ns3:cad>43</ns3:cad>
          </ns3:TrackPointExtension>
        </extensions>
      </trkpt>
      <trkpt lat="43.769162781536579132080078125" lon="1.5821195952594280242919921875">
        <ele>160.600006103515625</ele>
        <time>2026-08-13T08:34:57.000Z</time>
        <extensions>
          <ns3:TrackPointExtension>
            <ns3:hr>78</ns3:hr>
            <ns3:cad>43</ns3:cad>
          </ns3:TrackPointExtension>
        </extensions>
      </trkpt>
      <trkpt lat="43.76917183399200439453125" lon="1.58211247064173221588134765625">
        <ele>160.600006103515625</ele>
        <time>2026-08-13T08:34:58.000Z</time>
        <extensions>
          <ns3:TrackPointExtension>
            <ns3:hr>78</ns3:hr>
            <ns3:cad>43</ns3:cad>
          </ns3:TrackPointExtension>
        </extensions>
      </trkpt>
      <trkpt lat="43.76918834634125232696533203125" lon="1.58209897577762603759765625">
        <ele>160.600006103515625</ele>
        <time>2026-08-13T08:34:59.000Z</time>
        <extensions>
          <ns3:TrackPointExtension>
            <ns3:hr>78</ns3:hr>
            <ns3:cad>43</ns3:cad>
          </ns3:TrackPointExtension>
        </extensions>
      </trkpt>
      <trkpt lat="43.76919622533023357391357421875" lon="1.58209486864507198333740234375">
        <ele>160.600006103515625</ele>
        <time>2026-08-13T08:35:00.000Z</time>
        <extensions>
          <ns3:TrackPointExtension>
            <ns3:hr>78</ns3:hr>
            <ns3:cad>43</ns3:cad>
          </ns3:TrackPointExtension>
        </extensions>
      </trkpt>
      <trkpt lat="43.76919857226312160491943359375" lon="1.58209620974957942962646484375">
        <ele>160.600006103515625</ele>
        <time>2026-08-13T08:35:01.000Z</time>
        <extensions>
          <ns3:TrackPointExtension>
            <ns3:hr>78</ns3:hr>
            <ns3:cad>44</ns3:cad>
          </ns3:TrackPointExtension>
        </extensions>
      </trkpt>
      <trkpt lat="43.76920846290886402130126953125" lon="1.58208615146577358245849609375">
        <ele>160.600006103515625</ele>
        <time>2026-08-13T08:35:02.000Z</time>
        <extensions>
          <ns3:TrackPointExtension>
            <ns3:hr>78</ns3:hr>
            <ns3:cad>44</ns3:cad>
          </ns3:TrackPointExtension>
        </extensions>
      </trkpt>
      <trkpt lat="43.769218437373638153076171875" lon="1.58207559026777744293212890625">
        <ele>160.600006103515625</ele>
        <time>2026-08-13T08:35:03.000Z</time>
        <extensions>
          <ns3:TrackPointExtension>
            <ns3:hr>78</ns3:hr>
            <ns3:cad>44</ns3:cad>
          </ns3:TrackPointExtension>
        </extensions>
      </trkpt>
      <trkpt lat="43.7692249752581119537353515625" lon="1.58206737600266933441162109375">
        <ele>160.600006103515625</ele>
        <time>2026-08-13T08:35:04.000Z</time>
        <extensions>
          <ns3:TrackPointExtension>
            <ns3:hr>78</ns3:hr>
            <ns3:cad>44</ns3:cad>
          </ns3:TrackPointExtension>
        </extensions>
      </trkpt>
      <trkpt lat="43.76923176459968090057373046875" lon="1.5820634365081787109375">
        <ele>160.600006103515625</ele>
        <time>2026-08-13T08:35:05.000Z</time>
        <extensions>
          <ns3:TrackPointExtension>
            <ns3:hr>78</ns3:hr>
            <ns3:cad>44</ns3:cad>
          </ns3:TrackPointExtension>
        </extensions>
      </trkpt>
      <trkpt lat="43.76923947595059871673583984375" lon="1.58205530606210231781005859375">
        <ele>160.600006103515625</ele>
        <time>2026-08-13T08:35:06.000Z</time>
        <extensions>
          <ns3:TrackPointExtension>
            <ns3:hr>77</ns3:hr>
            <ns3:cad>45</ns3:cad>
          </ns3:TrackPointExtension>
        </extensions>
      </trkpt>
      <trkpt lat="43.7692494504153728485107421875" lon="1.58204642124474048614501953125">
        <ele>160.600006103515625</ele>
        <time>2026-08-13T08:35:07.000Z</time>
        <extensions>
          <ns3:TrackPointExtension>
            <ns3:hr>78</ns3:hr>
            <ns3:cad>46</ns3:cad>
          </ns3:TrackPointExtension>
        </extensions>
      </trkpt>
      <trkpt lat="43.76925473101437091827392578125" lon="1.58204055391252040863037109375">
        <ele>160.600006103515625</ele>
        <time>2026-08-13T08:35:08.000Z</time>
        <extensions>
          <ns3:TrackPointExtension>
            <ns3:hr>78</ns3:hr>
            <ns3:cad>46</ns3:cad>
          </ns3:TrackPointExtension>
        </extensions>
      </trkpt>
      <trkpt lat="43.76925674267113208770751953125" lon="1.5820371173322200775146484375">
        <ele>160.600006103515625</ele>
        <time>2026-08-13T08:35:09.000Z</time>
        <extensions>
          <ns3:TrackPointExtension>
            <ns3:hr>78</ns3:hr>
            <ns3:cad>46</ns3:cad>
          </ns3:TrackPointExtension>
        </extensions>
      </trkpt>
      <trkpt lat="43.76926998607814311981201171875" lon="1.582030244171619415283203125">
        <ele>160.600006103515625</ele>
        <time>2026-08-13T08:35:10.000Z</time>
        <extensions>
          <ns3:TrackPointExtension>
            <ns3:hr>79</ns3:hr>
            <ns3:cad>45</ns3:cad>
          </ns3:TrackPointExtension>
        </extensions>
      </trkpt>
      <trkpt lat="43.76927937380969524383544921875" lon="1.58202362246811389923095703125">
        <ele>160.600006103515625</ele>
        <time>2026-08-13T08:35:11.000Z</time>
        <extensions>
          <ns3:TrackPointExtension>
            <ns3:hr>79</ns3:hr>
            <ns3:cad>45</ns3:cad>
          </ns3:TrackPointExtension>
        </extensions>
      </trkpt>
      <trkpt lat="43.7692859955132007598876953125" lon="1.5820203535258769989013671875">
        <ele>160.600006103515625</ele>
        <time>2026-08-13T08:35:12.000Z</time>
        <extensions>
          <ns3:TrackPointExtension>
            <ns3:hr>79</ns3:hr>
            <ns3:cad>44</ns3:cad>
          </ns3:TrackPointExtension>
        </extensions>
      </trkpt>
      <trkpt lat="43.76929127611219882965087890625" lon="1.58201373182237148284912109375">
        <ele>160.600006103515625</ele>
        <time>2026-08-13T08:35:13.000Z</time>
        <extensions>
          <ns3:TrackPointExtension>
            <ns3:hr>79</ns3:hr>
            <ns3:cad>43</ns3:cad>
          </ns3:TrackPointExtension>
        </extensions>
      </trkpt>
      <trkpt lat="43.76930049620568752288818359375" lon="1.58200887031853199005126953125">
        <ele>160.600006103515625</ele>
        <time>2026-08-13T08:35:14.000Z</time>
        <extensions>
          <ns3:TrackPointExtension>
            <ns3:hr>78</ns3:hr>
            <ns3:cad>43</ns3:cad>
          </ns3:TrackPointExtension>
        </extensions>
      </trkpt>
      <trkpt lat="43.769311644136905670166015625" lon="1.58200216479599475860595703125">
        <ele>160.600006103515625</ele>
        <time>2026-08-13T08:35:15.000Z</time>
        <extensions>
          <ns3:TrackPointExtension>
            <ns3:hr>78</ns3:hr>
            <ns3:cad>43</ns3:cad>
          </ns3:TrackPointExtension>
        </extensions>
      </trkpt>
      <trkpt lat="43.76931876875460147857666015625" lon="1.5820009075105190277099609375">
        <ele>160.600006103515625</ele>
        <time>2026-08-13T08:35:16.000Z</time>
        <extensions>
          <ns3:TrackPointExtension>
            <ns3:hr>78</ns3:hr>
            <ns3:cad>44</ns3:cad>
          </ns3:TrackPointExtension>
        </extensions>
      </trkpt>
      <trkpt lat="43.76932178623974323272705078125" lon="1.58199612982571125030517578125">
        <ele>160.600006103515625</ele>
        <time>2026-08-13T08:35:17.000Z</time>
        <extensions>
          <ns3:TrackPointExtension>
            <ns3:hr>77</ns3:hr>
            <ns3:cad>44</ns3:cad>
          </ns3:TrackPointExtension>
        </extensions>
      </trkpt>
      <trkpt lat="43.76933486200869083404541015625" lon="1.58198322169482707977294921875">
        <ele>160.600006103515625</ele>
        <time>2026-08-13T08:35:18.000Z</time>
        <extensions>
          <ns3:TrackPointExtension>
            <ns3:hr>77</ns3:hr>
            <ns3:cad>44</ns3:cad>
          </ns3:TrackPointExtension>
        </extensions>
      </trkpt>
      <trkpt lat="43.76934458501636981964111328125" lon="1.58197668381035327911376953125">
        <ele>160.600006103515625</ele>
        <time>2026-08-13T08:35:19.000Z</time>
        <extensions>
          <ns3:TrackPointExtension>
            <ns3:hr>77</ns3:hr>
            <ns3:cad>44</ns3:cad>
          </ns3:TrackPointExtension>
        </extensions>
      </trkpt>
      <trkpt lat="43.76935296691954135894775390625" lon="1.58197316341102123260498046875">
        <ele>160.600006103515625</ele>
        <time>2026-08-13T08:35:20.000Z</time>
        <extensions>
          <ns3:TrackPointExtension>
            <ns3:hr>76</ns3:hr>
            <ns3:cad>44</ns3:cad>
          </ns3:TrackPointExtension>
        </extensions>
      </trkpt>
      <trkpt lat="43.76936428248882293701171875" lon="1.5819643624126911163330078125">
        <ele>160.600006103515625</ele>
        <time>2026-08-13T08:35:21.000Z</time>
        <extensions>
          <ns3:TrackPointExtension>
            <ns3:hr>76</ns3:hr>
            <ns3:cad>44</ns3:cad>
          </ns3:TrackPointExtension>
        </extensions>
      </trkpt>
      <trkpt lat="43.7693771906197071075439453125" lon="1.581956483423709869384765625">
        <ele>160.600006103515625</ele>
        <time>2026-08-13T08:35:22.000Z</time>
        <extensions>
          <ns3:TrackPointExtension>
            <ns3:hr>76</ns3:hr>
            <ns3:cad>44</ns3:cad>
          </ns3:TrackPointExtension>
        </extensions>
      </trkpt>
      <trkpt lat="43.769381381571292877197265625" lon="1.58195103518664836883544921875">
        <ele>160.600006103515625</ele>
        <time>2026-08-13T08:35:23.000Z</time>
        <extensions>
          <ns3:TrackPointExtension>
            <ns3:hr>76</ns3:hr>
            <ns3:cad>44</ns3:cad>
          </ns3:TrackPointExtension>
        </extensions>
      </trkpt>
      <trkpt lat="43.769390098750591278076171875" lon="1.5819462575018405914306640625">
        <ele>160.600006103515625</ele>
        <time>2026-08-13T08:35:24.000Z</time>
        <extensions>
          <ns3:TrackPointExtension>
            <ns3:hr>77</ns3:hr>
            <ns3:cad>44</ns3:cad>
          </ns3:TrackPointExtension>
        </extensions>
      </trkpt>
      <trkpt lat="43.76939604990184307098388671875" lon="1.5819402225315570831298828125">
        <ele>160.600006103515625</ele>
        <time>2026-08-13T08:35:25.000Z</time>
        <extensions>
          <ns3:TrackPointExtension>
            <ns3:hr>76</ns3:hr>
            <ns3:cad>44</ns3:cad>
          </ns3:TrackPointExtension>
        </extensions>
      </trkpt>
      <trkpt lat="43.7694080360233783721923828125" lon="1.58193427138030529022216796875">
        <ele>160.600006103515625</ele>
        <time>2026-08-13T08:35:26.000Z</time>
        <extensions>
          <ns3:TrackPointExtension>
            <ns3:hr>76</ns3:hr>
            <ns3:cad>42</ns3:cad>
          </ns3:TrackPointExtension>
        </extensions>
      </trkpt>
      <trkpt lat="43.76941801048815250396728515625" lon="1.58193209208548069000244140625">
        <ele>160.600006103515625</ele>
        <time>2026-08-13T08:35:27.000Z</time>
        <extensions>
          <ns3:TrackPointExtension>
            <ns3:hr>77</ns3:hr>
            <ns3:cad>42</ns3:cad>
          </ns3:TrackPointExtension>
        </extensions>
      </trkpt>
      <trkpt lat="43.7694241292774677276611328125" lon="1.581928320229053497314453125">
        <ele>160.600006103515625</ele>
        <time>2026-08-13T08:35:28.000Z</time>
        <extensions>
          <ns3:TrackPointExtension>
            <ns3:hr>77</ns3:hr>
            <ns3:cad>42</ns3:cad>
          </ns3:TrackPointExtension>
        </extensions>
      </trkpt>
      <trkpt lat="43.769437372684478759765625" lon="1.58192731440067291259765625">
        <ele>160.600006103515625</ele>
        <time>2026-08-13T08:35:29.000Z</time>
        <extensions>
          <ns3:TrackPointExtension>
            <ns3:hr>77</ns3:hr>
            <ns3:cad>42</ns3:cad>
          </ns3:TrackPointExtension>
        </extensions>
      </trkpt>
      <trkpt lat="43.76944365911185741424560546875" lon="1.581922955811023712158203125">
        <ele>160.600006103515625</ele>
        <time>2026-08-13T08:35:30.000Z</time>
        <extensions>
          <ns3:TrackPointExtension>
            <ns3:hr>76</ns3:hr>
            <ns3:cad>42</ns3:cad>
          </ns3:TrackPointExtension>
        </extensions>
      </trkpt>
      <trkpt lat="43.7694405578076839447021484375" lon="1.581921614706516265869140625">
        <ele>160.600006103515625</ele>
        <time>2026-08-13T08:35:31.000Z</time>
        <extensions>
          <ns3:TrackPointExtension>
            <ns3:hr>77</ns3:hr>
            <ns3:cad>42</ns3:cad>
          </ns3:TrackPointExtension>
        </extensions>
      </trkpt>
      <trkpt lat="43.76945556141436100006103515625" lon="1.5819147415459156036376953125">
        <ele>160.600006103515625</ele>
        <time>2026-08-13T08:35:32.000Z</time>
        <extensions>
          <ns3:TrackPointExtension>
            <ns3:hr>77</ns3:hr>
            <ns3:cad>0</ns3:cad>
          </ns3:TrackPointExtension>
        </extensions>
      </trkpt>
      <trkpt lat="43.76947701908648014068603515625" lon="1.5819090418517589569091796875">
        <ele>160.600006103515625</ele>
        <time>2026-08-13T08:35:33.000Z</time>
        <extensions>
          <ns3:TrackPointExtension>
            <ns3:hr>76</ns3:hr>
            <ns3:cad>0</ns3:cad>
          </ns3:TrackPointExtension>
        </extensions>
      </trkpt>
      <trkpt lat="43.76948556862771511077880859375" lon="1.58190342597663402557373046875">
        <ele>160.600006103515625</ele>
        <time>2026-08-13T08:35:34.000Z</time>
        <extensions>
          <ns3:TrackPointExtension>
            <ns3:hr>77</ns3:hr>
            <ns3:cad>43</ns3:cad>
          </ns3:TrackPointExtension>
        </extensions>
      </trkpt>
      <trkpt lat="43.76948892138898372650146484375" lon="1.58189906738698482513427734375">
        <ele>160.600006103515625</ele>
        <time>2026-08-13T08:35:35.000Z</time>
        <extensions>
          <ns3:TrackPointExtension>
            <ns3:hr>77</ns3:hr>
            <ns3:cad>43</ns3:cad>
          </ns3:TrackPointExtension>
        </extensions>
      </trkpt>
      <trkpt lat="43.7694982253015041351318359375" lon="1.58189303241670131683349609375">
        <ele>160.600006103515625</ele>
        <time>2026-08-13T08:35:36.000Z</time>
        <extensions>
          <ns3:TrackPointExtension>
            <ns3:hr>77</ns3:hr>
            <ns3:cad>43</ns3:cad>
          </ns3:TrackPointExtension>
        </extensions>
      </trkpt>
      <trkpt lat="43.76950870268046855926513671875" lon="1.5818885900080204010009765625">
        <ele>160.600006103515625</ele>
        <time>2026-08-13T08:35:37.000Z</time>
        <extensions>
          <ns3:TrackPointExtension>
            <ns3:hr>78</ns3:hr>
            <ns3:cad>43</ns3:cad>
          </ns3:TrackPointExtension>
        </extensions>
      </trkpt>
      <trkpt lat="43.7695149891078472137451171875" lon="1.58188666217029094696044921875">
        <ele>160.600006103515625</ele>
        <time>2026-08-13T08:35:38.000Z</time>
        <extensions>
          <ns3:TrackPointExtension>
            <ns3:hr>78</ns3:hr>
            <ns3:cad>43</ns3:cad>
          </ns3:TrackPointExtension>
        </extensions>
      </trkpt>
      <trkpt lat="43.769517838954925537109375" lon="1.5818828903138637542724609375">
        <ele>160.600006103515625</ele>
        <time>2026-08-13T08:35:39.000Z</time>
        <extensions>
          <ns3:TrackPointExtension>
            <ns3:hr>78</ns3:hr>
            <ns3:cad>43</ns3:cad>
          </ns3:TrackPointExtension>
        </extensions>
      </trkpt>
      <trkpt lat="43.769527561962604522705078125" lon="1.58188079483807086944580078125">
        <ele>160.600006103515625</ele>
        <time>2026-08-13T08:35:40.000Z</time>
        <extensions>
          <ns3:TrackPointExtension>
            <ns3:hr>78</ns3:hr>
            <ns3:cad>43</ns3:cad>
          </ns3:TrackPointExtension>
        </extensions>
      </trkpt>
      <trkpt lat="43.7695344351232051849365234375" lon="1.5818738378584384918212890625">
        <ele>160.600006103515625</ele>
        <time>2026-08-13T08:35:41.000Z</time>
        <extensions>
          <ns3:TrackPointExtension>
            <ns3:hr>79</ns3:hr>
            <ns3:cad>43</ns3:cad>
          </ns3:TrackPointExtension>
        </extensions>
      </trkpt>
      <trkpt lat="43.76953954808413982391357421875" lon="1.581867635250091552734375">
        <ele>160.600006103515625</ele>
        <time>2026-08-13T08:35:42.000Z</time>
        <extensions>
          <ns3:TrackPointExtension>
            <ns3:hr>78</ns3:hr>
            <ns3:cad>43</ns3:cad>
          </ns3:TrackPointExtension>
        </extensions>
      </trkpt>
      <trkpt lat="43.76954608596861362457275390625" lon="1.58186218701303005218505859375">
        <ele>160.600006103515625</ele>
        <time>2026-08-13T08:35:43.000Z</time>
        <extensions>
          <ns3:TrackPointExtension>
            <ns3:hr>78</ns3:hr>
            <ns3:cad>43</ns3:cad>
          </ns3:TrackPointExtension>
        </extensions>
      </trkpt>
      <trkpt lat="43.76955715008080005645751953125" lon="1.581856906414031982421875">
        <ele>160.600006103515625</ele>
        <time>2026-08-13T08:35:44.000Z</time>
        <extensions>
          <ns3:TrackPointExtension>
            <ns3:hr>78</ns3:hr>
            <ns3:cad>43</ns3:cad>
          </ns3:TrackPointExtension>
        </extensions>
      </trkpt>
      <trkpt lat="43.76956268213689327239990234375" lon="1.5818555653095245361328125">
        <ele>160.600006103515625</ele>
        <time>2026-08-13T08:35:45.000Z</time>
        <extensions>
          <ns3:TrackPointExtension>
            <ns3:hr>78</ns3:hr>
            <ns3:cad>43</ns3:cad>
          </ns3:TrackPointExtension>
        </extensions>
      </trkpt>
      <trkpt lat="43.76956871710717678070068359375" lon="1.5818507038056850433349609375">
        <ele>160.600006103515625</ele>
        <time>2026-08-13T08:35:46.000Z</time>
        <extensions>
          <ns3:TrackPointExtension>
            <ns3:hr>78</ns3:hr>
            <ns3:cad>43</ns3:cad>
          </ns3:TrackPointExtension>
        </extensions>
      </trkpt>
      <trkpt lat="43.7695803679525852203369140625" lon="1.58184492029249668121337890625">
        <ele>160.600006103515625</ele>
        <time>2026-08-13T08:35:47.000Z</time>
        <extensions>
          <ns3:TrackPointExtension>
            <ns3:hr>78</ns3:hr>
            <ns3:cad>43</ns3:cad>
          </ns3:TrackPointExtension>
        </extensions>
      </trkpt>
      <trkpt lat="43.76958531327545642852783203125" lon="1.58184072934091091156005859375">
        <ele>160.600006103515625</ele>
        <time>2026-08-13T08:35:48.000Z</time>
        <extensions>
          <ns3:TrackPointExtension>
            <ns3:hr>78</ns3:hr>
            <ns3:cad>43</ns3:cad>
          </ns3:TrackPointExtension>
        </extensions>
      </trkpt>
      <trkpt lat="43.76958548091351985931396484375" lon="1.58183184452354907989501953125">
        <ele>160.600006103515625</ele>
        <time>2026-08-13T08:35:49.000Z</time>
        <extensions>
          <ns3:TrackPointExtension>
            <ns3:hr>78</ns3:hr>
            <ns3:cad>43</ns3:cad>
          </ns3:TrackPointExtension>
        </extensions>
      </trkpt>
      <trkpt lat="43.76959738321602344512939453125" lon="1.581823043525218963623046875">
        <ele>160.600006103515625</ele>
        <time>2026-08-13T08:35:50.000Z</time>
        <extensions>
          <ns3:TrackPointExtension>
            <ns3:hr>78</ns3:hr>
            <ns3:cad>43</ns3:cad>
          </ns3:TrackPointExtension>
        </extensions>
      </trkpt>
      <trkpt lat="43.7696063518524169921875" lon="1.58181776292622089385986328125">
        <ele>160.600006103515625</ele>
        <time>2026-08-13T08:35:51.000Z</time>
        <extensions>
          <ns3:TrackPointExtension>
            <ns3:hr>78</ns3:hr>
            <ns3:cad>40</ns3:cad>
          </ns3:TrackPointExtension>
        </extensions>
      </trkpt>
      <trkpt lat="43.76961129717528820037841796875" lon="1.58181726001203060150146484375">
        <ele>160.600006103515625</ele>
        <time>2026-08-13T08:35:52.000Z</time>
        <extensions>
          <ns3:TrackPointExtension>
            <ns3:hr>78</ns3:hr>
            <ns3:cad>40</ns3:cad>
          </ns3:TrackPointExtension>
        </extensions>
      </trkpt>
      <trkpt lat="43.76961766742169857025146484375" lon="1.5818064473569393157958984375">
        <ele>160.600006103515625</ele>
        <time>2026-08-13T08:35:53.000Z</time>
        <extensions>
          <ns3:TrackPointExtension>
            <ns3:hr>78</ns3:hr>
            <ns3:cad>40</ns3:cad>
          </ns3:TrackPointExtension>
        </extensions>
      </trkpt>
      <trkpt lat="43.76962772570550441741943359375" lon="1.58179680816829204559326171875">
        <ele>160.600006103515625</ele>
        <time>2026-08-13T08:35:54.000Z</time>
        <extensions>
          <ns3:TrackPointExtension>
            <ns3:hr>78</ns3:hr>
            <ns3:cad>40</ns3:cad>
          </ns3:TrackPointExtension>
        </extensions>
      </trkpt>
      <trkpt lat="43.76963124610483646392822265625" lon="1.58179462887346744537353515625">
        <ele>160.600006103515625</ele>
        <time>2026-08-13T08:35:55.000Z</time>
        <extensions>
          <ns3:TrackPointExtension>
            <ns3:hr>79</ns3:hr>
            <ns3:cad>40</ns3:cad>
          </ns3:TrackPointExtension>
        </extensions>
      </trkpt>
      <trkpt lat="43.769638538360595703125" lon="1.58178926445543766021728515625">
        <ele>160.600006103515625</ele>
        <time>2026-08-13T08:35:56.000Z</time>
        <extensions>
          <ns3:TrackPointExtension>
            <ns3:hr>78</ns3:hr>
            <ns3:cad>41</ns3:cad>
          </ns3:TrackPointExtension>
        </extensions>
      </trkpt>
      <trkpt lat="43.76965261995792388916015625" lon="1.58178306184709072113037109375">
        <ele>160.600006103515625</ele>
        <time>2026-08-13T08:35:57.000Z</time>
        <extensions>
          <ns3:TrackPointExtension>
            <ns3:hr>78</ns3:hr>
            <ns3:cad>41</ns3:cad>
          </ns3:TrackPointExtension>
        </extensions>
      </trkpt>
      <trkpt lat="43.7696613371372222900390625" lon="1.5817809663712978363037109375">
        <ele>160.600006103515625</ele>
        <time>2026-08-13T08:35:58.000Z</time>
        <extensions>
          <ns3:TrackPointExtension>
            <ns3:hr>79</ns3:hr>
            <ns3:cad>41</ns3:cad>
          </ns3:TrackPointExtension>
        </extensions>
      </trkpt>
      <trkpt lat="43.7696688808500766754150390625" lon="1.58178004436194896697998046875">
        <ele>160.600006103515625</ele>
        <time>2026-08-13T08:35:59.000Z</time>
        <extensions>
          <ns3:TrackPointExtension>
            <ns3:hr>78</ns3:hr>
            <ns3:cad>41</ns3:cad>
          </ns3:TrackPointExtension>
        </extensions>
      </trkpt>
      <trkpt lat="43.76967801712453365325927734375" lon="1.5817782841622829437255859375">
        <ele>160.600006103515625</ele>
        <time>2026-08-13T08:36:00.000Z</time>
        <extensions>
          <ns3:TrackPointExtension>
            <ns3:hr>79</ns3:hr>
            <ns3:cad>42</ns3:cad>
          </ns3:TrackPointExtension>
        </extensions>
      </trkpt>
      <trkpt lat="43.7696859799325466156005859375" lon="1.5817722491919994354248046875">
        <ele>160.600006103515625</ele>
        <time>2026-08-13T08:36:01.000Z</time>
        <extensions>
          <ns3:TrackPointExtension>
            <ns3:hr>79</ns3:hr>
            <ns3:cad>42</ns3:cad>
          </ns3:TrackPointExtension>
        </extensions>
      </trkpt>
      <trkpt lat="43.76969411037862300872802734375" lon="1.58176696859300136566162109375">
        <ele>160.600006103515625</ele>
        <time>2026-08-13T08:36:02.000Z</time>
        <extensions>
          <ns3:TrackPointExtension>
            <ns3:hr>78</ns3:hr>
            <ns3:cad>42</ns3:cad>
          </ns3:TrackPointExtension>
        </extensions>
      </trkpt>
      <trkpt lat="43.76970249228179454803466796875" lon="1.58175992779433727264404296875">
        <ele>160.600006103515625</ele>
        <time>2026-08-13T08:36:03.000Z</time>
        <extensions>
          <ns3:TrackPointExtension>
            <ns3:hr>78</ns3:hr>
            <ns3:cad>42</ns3:cad>
          </ns3:TrackPointExtension>
        </extensions>
      </trkpt>
      <trkpt lat="43.76971137709915637969970703125" lon="1.58175104297697544097900390625">
        <ele>160.600006103515625</ele>
        <time>2026-08-13T08:36:04.000Z</time>
        <extensions>
          <ns3:TrackPointExtension>
            <ns3:hr>77</ns3:hr>
            <ns3:cad>43</ns3:cad>
          </ns3:TrackPointExtension>
        </extensions>
      </trkpt>
      <trkpt lat="43.76971540041267871856689453125" lon="1.58175338990986347198486328125">
        <ele>160.600006103515625</ele>
        <time>2026-08-13T08:36:05.000Z</time>
        <extensions>
          <ns3:TrackPointExtension>
            <ns3:hr>76</ns3:hr>
            <ns3:cad>43</ns3:cad>
          </ns3:TrackPointExtension>
        </extensions>
      </trkpt>
      <trkpt lat="43.7697225250303745269775390625" lon="1.5817504562437534332275390625">
        <ele>160.600006103515625</ele>
        <time>2026-08-13T08:36:06.000Z</time>
        <extensions>
          <ns3:TrackPointExtension>
            <ns3:hr>75</ns3:hr>
            <ns3:cad>43</ns3:cad>
          </ns3:TrackPointExtension>
        </extensions>
      </trkpt>
      <trkpt lat="43.7697337567806243896484375" lon="1.58174492418766021728515625">
        <ele>160.600006103515625</ele>
        <time>2026-08-13T08:36:07.000Z</time>
        <extensions>
          <ns3:TrackPointExtension>
            <ns3:hr>74</ns3:hr>
            <ns3:cad>43</ns3:cad>
          </ns3:TrackPointExtension>
        </extensions>
      </trkpt>
      <trkpt lat="43.76973551698029041290283203125" lon="1.58173880539834499359130859375">
        <ele>160.600006103515625</ele>
        <time>2026-08-13T08:36:08.000Z</time>
        <extensions>
          <ns3:TrackPointExtension>
            <ns3:hr>73</ns3:hr>
            <ns3:cad>43</ns3:cad>
          </ns3:TrackPointExtension>
        </extensions>
      </trkpt>
      <trkpt lat="43.76973384059965610504150390625" lon="1.5817313455045223236083984375">
        <ele>160.600006103515625</ele>
        <time>2026-08-13T08:36:09.000Z</time>
        <extensions>
          <ns3:TrackPointExtension>
            <ns3:hr>72</ns3:hr>
            <ns3:cad>0</ns3:cad>
          </ns3:TrackPointExtension>
        </extensions>
      </trkpt>
      <trkpt lat="43.76974582672119140625" lon="1.5817196108400821685791015625">
        <ele>160.600006103515625</ele>
        <time>2026-08-13T08:36:10.000Z</time>
        <extensions>
          <ns3:TrackPointExtension>
            <ns3:hr>72</ns3:hr>
            <ns3:cad>0</ns3:cad>
          </ns3:TrackPointExtension>
        </extensions>
      </trkpt>
      <trkpt lat="43.76975395716726779937744140625" lon="1.58171030692756175994873046875">
        <ele>160.600006103515625</ele>
        <time>2026-08-13T08:36:11.000Z</time>
        <extensions>
          <ns3:TrackPointExtension>
            <ns3:hr>72</ns3:hr>
            <ns3:cad>42</ns3:cad>
          </ns3:TrackPointExtension>
        </extensions>
      </trkpt>
      <trkpt lat="43.769759573042392730712890625" lon="1.58170460723340511322021484375">
        <ele>160.600006103515625</ele>
        <time>2026-08-13T08:36:12.000Z</time>
        <extensions>
          <ns3:TrackPointExtension>
            <ns3:hr>72</ns3:hr>
            <ns3:cad>42</ns3:cad>
          </ns3:TrackPointExtension>
        </extensions>
      </trkpt>
      <trkpt lat="43.769770972430706024169921875" lon="1.58169672824442386627197265625">
        <ele>160.600006103515625</ele>
        <time>2026-08-13T08:36:13.000Z</time>
        <extensions>
          <ns3:TrackPointExtension>
            <ns3:hr>72</ns3:hr>
            <ns3:cad>41</ns3:cad>
          </ns3:TrackPointExtension>
        </extensions>
      </trkpt>
      <trkpt lat="43.7697811983525753021240234375" lon="1.58168516121804714202880859375">
        <ele>160.600006103515625</ele>
        <time>2026-08-13T08:36:14.000Z</time>
        <extensions>
          <ns3:TrackPointExtension>
            <ns3:hr>71</ns3:hr>
            <ns3:cad>41</ns3:cad>
          </ns3:TrackPointExtension>
        </extensions>
      </trkpt>
      <trkpt lat="43.76978798769414424896240234375" lon="1.58168113790452480316162109375">
        <ele>160.600006103515625</ele>
        <time>2026-08-13T08:36:15.000Z</time>
        <extensions>
          <ns3:TrackPointExtension>
            <ns3:hr>72</ns3:hr>
            <ns3:cad>42</ns3:cad>
          </ns3:TrackPointExtension>
        </extensions>
      </trkpt>
      <trkpt lat="43.7697946093976497650146484375" lon="1.5816800482571125030517578125">
        <ele>160.600006103515625</ele>
        <time>2026-08-13T08:36:16.000Z</time>
        <extensions>
          <ns3:TrackPointExtension>
            <ns3:hr>71</ns3:hr>
            <ns3:cad>42</ns3:cad>
          </ns3:TrackPointExtension>
        </extensions>
      </trkpt>
      <trkpt lat="43.7698120437562465667724609375" lon="1.58167250454425811767578125">
        <ele>160.399993896484375</ele>
        <time>2026-08-13T08:36:17.000Z</time>
        <extensions>
          <ns3:TrackPointExtension>
            <ns3:hr>71</ns3:hr>
            <ns3:cad>43</ns3:cad>
          </ns3:TrackPointExtension>
        </extensions>
      </trkpt>
      <trkpt lat="43.76982034184038639068603515625" lon="1.5816646255552768707275390625">
        <ele>160.600006103515625</ele>
        <time>2026-08-13T08:36:18.000Z</time>
        <extensions>
          <ns3:TrackPointExtension>
            <ns3:hr>71</ns3:hr>
            <ns3:cad>43</ns3:cad>
          </ns3:TrackPointExtension>
        </extensions>
      </trkpt>
      <trkpt lat="43.7698264606297016143798828125" lon="1.5816616080701351165771484375">
        <ele>160.600006103515625</ele>
        <time>2026-08-13T08:36:19.000Z</time>
        <extensions>
          <ns3:TrackPointExtension>
            <ns3:hr>71</ns3:hr>
            <ns3:cad>43</ns3:cad>
          </ns3:TrackPointExtension>
        </extensions>
      </trkpt>
      <trkpt lat="43.769837357103824615478515625" lon="1.5816545672714710235595703125">
        <ele>160.600006103515625</ele>
        <time>2026-08-13T08:36:20.000Z</time>
        <extensions>
          <ns3:TrackPointExtension>
            <ns3:hr>71</ns3:hr>
            <ns3:cad>42</ns3:cad>
          </ns3:TrackPointExtension>
        </extensions>
      </trkpt>
      <trkpt lat="43.76984833739697933197021484375" lon="1.58164677210152149200439453125">
        <ele>160.600006103515625</ele>
        <time>2026-08-13T08:36:21.000Z</time>
        <extensions>
          <ns3:TrackPointExtension>
            <ns3:hr>71</ns3:hr>
            <ns3:cad>42</ns3:cad>
          </ns3:TrackPointExtension>
        </extensions>
      </trkpt>
      <trkpt lat="43.76985554583370685577392578125" lon="1.58164425753057003021240234375">
        <ele>160.600006103515625</ele>
        <time>2026-08-13T08:36:22.000Z</time>
        <extensions>
          <ns3:TrackPointExtension>
            <ns3:hr>72</ns3:hr>
            <ns3:cad>42</ns3:cad>
          </ns3:TrackPointExtension>
        </extensions>
      </trkpt>
      <trkpt lat="43.76986124552786350250244140625" lon="1.581639312207698822021484375">
        <ele>160.600006103515625</ele>
        <time>2026-08-13T08:36:23.000Z</time>
        <extensions>
          <ns3:TrackPointExtension>
            <ns3:hr>72</ns3:hr>
            <ns3:cad>42</ns3:cad>
          </ns3:TrackPointExtension>
        </extensions>
      </trkpt>
      <trkpt lat="43.7698703818023204803466796875" lon="1.581630595028400421142578125">
        <ele>160.600006103515625</ele>
        <time>2026-08-13T08:36:24.000Z</time>
        <extensions>
          <ns3:TrackPointExtension>
            <ns3:hr>72</ns3:hr>
            <ns3:cad>43</ns3:cad>
          </ns3:TrackPointExtension>
        </extensions>
      </trkpt>
      <trkpt lat="43.76988303847610950469970703125" lon="1.5816222131252288818359375">
        <ele>160.600006103515625</ele>
        <time>2026-08-13T08:36:25.000Z</time>
        <extensions>
          <ns3:TrackPointExtension>
            <ns3:hr>72</ns3:hr>
            <ns3:cad>43</ns3:cad>
          </ns3:TrackPointExtension>
        </extensions>
      </trkpt>
      <trkpt lat="43.7698935158550739288330078125" lon="1.58161508850753307342529296875">
        <ele>160.600006103515625</ele>
        <time>2026-08-13T08:36:26.000Z</time>
        <extensions>
          <ns3:TrackPointExtension>
            <ns3:hr>72</ns3:hr>
            <ns3:cad>44</ns3:cad>
          </ns3:TrackPointExtension>
        </extensions>
      </trkpt>
      <trkpt lat="43.76989812590181827545166015625" lon="1.58161357976496219635009765625">
        <ele>160.600006103515625</ele>
        <time>2026-08-13T08:36:27.000Z</time>
        <extensions>
          <ns3:TrackPointExtension>
            <ns3:hr>72</ns3:hr>
            <ns3:cad>44</ns3:cad>
          </ns3:TrackPointExtension>
        </extensions>
      </trkpt>
      <trkpt lat="43.76990701071918010711669921875" lon="1.58160251565277576446533203125">
        <ele>160.399993896484375</ele>
        <time>2026-08-13T08:36:28.000Z</time>
        <extensions>
          <ns3:TrackPointExtension>
            <ns3:hr>72</ns3:hr>
            <ns3:cad>44</ns3:cad>
          </ns3:TrackPointExtension>
        </extensions>
      </trkpt>
      <trkpt lat="43.76991522498428821563720703125" lon="1.5815965645015239715576171875">
        <ele>160.399993896484375</ele>
        <time>2026-08-13T08:36:29.000Z</time>
        <extensions>
          <ns3:TrackPointExtension>
            <ns3:hr>73</ns3:hr>
            <ns3:cad>45</ns3:cad>
          </ns3:TrackPointExtension>
        </extensions>
      </trkpt>
      <trkpt lat="43.7699213437736034393310546875" lon="1.581590361893177032470703125">
        <ele>160.399993896484375</ele>
        <time>2026-08-13T08:36:30.000Z</time>
        <extensions>
          <ns3:TrackPointExtension>
            <ns3:hr>73</ns3:hr>
            <ns3:cad>45</ns3:cad>
          </ns3:TrackPointExtension>
        </extensions>
      </trkpt>
      <trkpt lat="43.7699270434677600860595703125" lon="1.58158625476062297821044921875">
        <ele>160.399993896484375</ele>
        <time>2026-08-13T08:36:31.000Z</time>
        <extensions>
          <ns3:TrackPointExtension>
            <ns3:hr>73</ns3:hr>
            <ns3:cad>46</ns3:cad>
          </ns3:TrackPointExtension>
        </extensions>
      </trkpt>
      <trkpt lat="43.769932575523853302001953125" lon="1.58158265054225921630859375">
        <ele>160.399993896484375</ele>
        <time>2026-08-13T08:36:32.000Z</time>
        <extensions>
          <ns3:TrackPointExtension>
            <ns3:hr>74</ns3:hr>
            <ns3:cad>46</ns3:cad>
          </ns3:TrackPointExtension>
        </extensions>
      </trkpt>
      <trkpt lat="43.76994422636926174163818359375" lon="1.58157468773424625396728515625">
        <ele>160.399993896484375</ele>
        <time>2026-08-13T08:36:33.000Z</time>
        <extensions>
          <ns3:TrackPointExtension>
            <ns3:hr>74</ns3:hr>
            <ns3:cad>46</ns3:cad>
          </ns3:TrackPointExtension>
        </extensions>
      </trkpt>
      <trkpt lat="43.7699495069682598114013671875" lon="1.5815670602023601531982421875">
        <ele>160.399993896484375</ele>
        <time>2026-08-13T08:36:34.000Z</time>
        <extensions>
          <ns3:TrackPointExtension>
            <ns3:hr>74</ns3:hr>
            <ns3:cad>46</ns3:cad>
          </ns3:TrackPointExtension>
        </extensions>
      </trkpt>
      <trkpt lat="43.76995596103370189666748046875" lon="1.58156119287014007568359375">
        <ele>160.399993896484375</ele>
        <time>2026-08-13T08:36:35.000Z</time>
        <extensions>
          <ns3:TrackPointExtension>
            <ns3:hr>75</ns3:hr>
            <ns3:cad>45</ns3:cad>
          </ns3:TrackPointExtension>
        </extensions>
      </trkpt>
      <trkpt lat="43.76997088082134723663330078125" lon="1.581551469862461090087890625">
        <ele>160.399993896484375</ele>
        <time>2026-08-13T08:36:36.000Z</time>
        <extensions>
          <ns3:TrackPointExtension>
            <ns3:hr>74</ns3:hr>
            <ns3:cad>43</ns3:cad>
          </ns3:TrackPointExtension>
        </extensions>
      </trkpt>
      <trkpt lat="43.7699803523719310760498046875" lon="1.5815417468547821044921875">
        <ele>160.399993896484375</ele>
        <time>2026-08-13T08:36:37.000Z</time>
        <extensions>
          <ns3:TrackPointExtension>
            <ns3:hr>74</ns3:hr>
            <ns3:cad>43</ns3:cad>
          </ns3:TrackPointExtension>
        </extensions>
      </trkpt>
      <trkpt lat="43.76998923718929290771484375" lon="1.5815355442464351654052734375">
        <ele>160.399993896484375</ele>
        <time>2026-08-13T08:36:38.000Z</time>
        <extensions>
          <ns3:TrackPointExtension>
            <ns3:hr>74</ns3:hr>
            <ns3:cad>43</ns3:cad>
          </ns3:TrackPointExtension>
        </extensions>
      </trkpt>
      <trkpt lat="43.76999569125473499298095703125" lon="1.58153302967548370361328125">
        <ele>160.399993896484375</ele>
        <time>2026-08-13T08:36:39.000Z</time>
        <extensions>
          <ns3:TrackPointExtension>
            <ns3:hr>74</ns3:hr>
            <ns3:cad>43</ns3:cad>
          </ns3:TrackPointExtension>
        </extensions>
      </trkpt>
      <trkpt lat="43.77000742591917514801025390625" lon="1.5815285034477710723876953125">
        <ele>160.399993896484375</ele>
        <time>2026-08-13T08:36:40.000Z</time>
        <extensions>
          <ns3:TrackPointExtension>
            <ns3:hr>74</ns3:hr>
            <ns3:cad>44</ns3:cad>
          </ns3:TrackPointExtension>
        </extensions>
      </trkpt>
      <trkpt lat="43.770012371242046356201171875" lon="1.58152506686747074127197265625">
        <ele>160.399993896484375</ele>
        <time>2026-08-13T08:36:41.000Z</time>
        <extensions>
          <ns3:TrackPointExtension>
            <ns3:hr>72</ns3:hr>
            <ns3:cad>45</ns3:cad>
          </ns3:TrackPointExtension>
        </extensions>
      </trkpt>
      <trkpt lat="43.7700189091265201568603515625" lon="1.58152271993458271026611328125">
        <ele>160.399993896484375</ele>
        <time>2026-08-13T08:36:42.000Z</time>
        <extensions>
          <ns3:TrackPointExtension>
            <ns3:hr>69</ns3:hr>
            <ns3:cad>45</ns3:cad>
          </ns3:TrackPointExtension>
        </extensions>
      </trkpt>
      <trkpt lat="43.77002586610615253448486328125" lon="1.58151559531688690185546875">
        <ele>160.399993896484375</ele>
        <time>2026-08-13T08:36:43.000Z</time>
        <extensions>
          <ns3:TrackPointExtension>
            <ns3:hr>68</ns3:hr>
            <ns3:cad>44</ns3:cad>
          </ns3:TrackPointExtension>
        </extensions>
      </trkpt>
      <trkpt lat="43.77003592438995838165283203125" lon="1.5815107338130474090576171875">
        <ele>160.399993896484375</ele>
        <time>2026-08-13T08:36:44.000Z</time>
        <extensions>
          <ns3:TrackPointExtension>
            <ns3:hr>68</ns3:hr>
            <ns3:cad>44</ns3:cad>
          </ns3:TrackPointExtension>
        </extensions>
      </trkpt>
      <trkpt lat="43.77004296518862247467041015625" lon="1.58150696195662021636962890625">
        <ele>160.399993896484375</ele>
        <time>2026-08-13T08:36:45.000Z</time>
        <extensions>
          <ns3:TrackPointExtension>
            <ns3:hr>68</ns3:hr>
            <ns3:cad>44</ns3:cad>
          </ns3:TrackPointExtension>
        </extensions>
      </trkpt>
      <trkpt lat="43.770046569406986236572265625" lon="1.58150427974760532379150390625">
        <ele>160.399993896484375</ele>
        <time>2026-08-13T08:36:46.000Z</time>
        <extensions>
          <ns3:TrackPointExtension>
            <ns3:hr>69</ns3:hr>
            <ns3:cad>44</ns3:cad>
          </ns3:TrackPointExtension>
        </extensions>
      </trkpt>
      <trkpt lat="43.77005620859563350677490234375" lon="1.58149556256830692291259765625">
        <ele>160.399993896484375</ele>
        <time>2026-08-13T08:36:47.000Z</time>
        <extensions>
          <ns3:TrackPointExtension>
            <ns3:hr>69</ns3:hr>
            <ns3:cad>44</ns3:cad>
          </ns3:TrackPointExtension>
        </extensions>
      </trkpt>
      <trkpt lat="43.77006727270781993865966796875" lon="1.58149003051221370697021484375">
        <ele>160.399993896484375</ele>
        <time>2026-08-13T08:36:48.000Z</time>
        <extensions>
          <ns3:TrackPointExtension>
            <ns3:hr>69</ns3:hr>
            <ns3:cad>44</ns3:cad>
          </ns3:TrackPointExtension>
        </extensions>
      </trkpt>
      <trkpt lat="43.77007397823035717010498046875" lon="1.5814859233796596527099609375">
        <ele>160.399993896484375</ele>
        <time>2026-08-13T08:36:49.000Z</time>
        <extensions>
          <ns3:TrackPointExtension>
            <ns3:hr>69</ns3:hr>
            <ns3:cad>43</ns3:cad>
          </ns3:TrackPointExtension>
        </extensions>
      </trkpt>
      <trkpt lat="43.77008269540965557098388671875" lon="1.58148131333291530609130859375">
        <ele>160.399993896484375</ele>
        <time>2026-08-13T08:36:50.000Z</time>
        <extensions>
          <ns3:TrackPointExtension>
            <ns3:hr>68</ns3:hr>
            <ns3:cad>43</ns3:cad>
          </ns3:TrackPointExtension>
        </extensions>
      </trkpt>
      <trkpt lat="43.77009241841733455657958984375" lon="1.58147544600069522857666015625">
        <ele>160.399993896484375</ele>
        <time>2026-08-13T08:36:51.000Z</time>
        <extensions>
          <ns3:TrackPointExtension>
            <ns3:hr>68</ns3:hr>
            <ns3:cad>43</ns3:cad>
          </ns3:TrackPointExtension>
        </extensions>
      </trkpt>
      <trkpt lat="43.77010180614888668060302734375" lon="1.58147175796329975128173828125">
        <ele>160.399993896484375</ele>
        <time>2026-08-13T08:36:52.000Z</time>
        <extensions>
          <ns3:TrackPointExtension>
            <ns3:hr>68</ns3:hr>
            <ns3:cad>43</ns3:cad>
          </ns3:TrackPointExtension>
        </extensions>
      </trkpt>
      <trkpt lat="43.770107589662075042724609375" lon="1.58147024922072887420654296875">
        <ele>160.399993896484375</ele>
        <time>2026-08-13T08:36:53.000Z</time>
        <extensions>
          <ns3:TrackPointExtension>
            <ns3:hr>68</ns3:hr>
            <ns3:cad>44</ns3:cad>
          </ns3:TrackPointExtension>
        </extensions>
      </trkpt>
      <trkpt lat="43.7701131217181682586669921875" lon="1.581464968621730804443359375">
        <ele>160.399993896484375</ele>
        <time>2026-08-13T08:36:54.000Z</time>
        <extensions>
          <ns3:TrackPointExtension>
            <ns3:hr>68</ns3:hr>
            <ns3:cad>45</ns3:cad>
          </ns3:TrackPointExtension>
        </extensions>
      </trkpt>
      <trkpt lat="43.7701253592967987060546875" lon="1.5814574249088764190673828125">
        <ele>160.399993896484375</ele>
        <time>2026-08-13T08:36:55.000Z</time>
        <extensions>
          <ns3:TrackPointExtension>
            <ns3:hr>68</ns3:hr>
            <ns3:cad>45</ns3:cad>
          </ns3:TrackPointExtension>
        </extensions>
      </trkpt>
      <trkpt lat="43.77013449557125568389892578125" lon="1.5814480371773242950439453125">
        <ele>160.399993896484375</ele>
        <time>2026-08-13T08:36:56.000Z</time>
        <extensions>
          <ns3:TrackPointExtension>
            <ns3:hr>68</ns3:hr>
            <ns3:cad>44</ns3:cad>
          </ns3:TrackPointExtension>
        </extensions>
      </trkpt>
      <trkpt lat="43.77013952471315860748291015625" lon="1.5814436785876750946044921875">
        <ele>160.399993896484375</ele>
        <time>2026-08-13T08:36:57.000Z</time>
        <extensions>
          <ns3:TrackPointExtension>
            <ns3:hr>68</ns3:hr>
            <ns3:cad>44</ns3:cad>
          </ns3:TrackPointExtension>
        </extensions>
      </trkpt>
      <trkpt lat="43.77014757134020328521728515625" lon="1.5814363025128841400146484375">
        <ele>160.399993896484375</ele>
        <time>2026-08-13T08:36:58.000Z</time>
        <extensions>
          <ns3:TrackPointExtension>
            <ns3:hr>68</ns3:hr>
            <ns3:cad>44</ns3:cad>
          </ns3:TrackPointExtension>
        </extensions>
      </trkpt>
      <trkpt lat="43.770159892737865447998046875" lon="1.58142649568617343902587890625">
        <ele>160.399993896484375</ele>
        <time>2026-08-13T08:36:59.000Z</time>
        <extensions>
          <ns3:TrackPointExtension>
            <ns3:hr>68</ns3:hr>
            <ns3:cad>44</ns3:cad>
          </ns3:TrackPointExtension>
        </extensions>
      </trkpt>
      <trkpt lat="43.77016718499362468719482421875" lon="1.581422388553619384765625">
        <ele>160.399993896484375</ele>
        <time>2026-08-13T08:37:00.000Z</time>
        <extensions>
          <ns3:TrackPointExtension>
            <ns3:hr>68</ns3:hr>
            <ns3:cad>44</ns3:cad>
          </ns3:TrackPointExtension>
        </extensions>
      </trkpt>
      <trkpt lat="43.7701734714210033416748046875" lon="1.58142046071588993072509765625">
        <ele>160.399993896484375</ele>
        <time>2026-08-13T08:37:01.000Z</time>
        <extensions>
          <ns3:TrackPointExtension>
            <ns3:hr>68</ns3:hr>
            <ns3:cad>44</ns3:cad>
          </ns3:TrackPointExtension>
        </extensions>
      </trkpt>
      <trkpt lat="43.770184703171253204345703125" lon="1.58141241408884525299072265625">
        <ele>160.399993896484375</ele>
        <time>2026-08-13T08:37:02.000Z</time>
        <extensions>
          <ns3:TrackPointExtension>
            <ns3:hr>68</ns3:hr>
            <ns3:cad>43</ns3:cad>
          </ns3:TrackPointExtension>
        </extensions>
      </trkpt>
      <trkpt lat="43.77019668929278850555419921875" lon="1.58140470273792743682861328125">
        <ele>160.399993896484375</ele>
        <time>2026-08-13T08:37:03.000Z</time>
        <extensions>
          <ns3:TrackPointExtension>
            <ns3:hr>69</ns3:hr>
            <ns3:cad>0</ns3:cad>
          </ns3:TrackPointExtension>
        </extensions>
      </trkpt>
      <trkpt lat="43.77020381391048431396484375" lon="1.58139917068183422088623046875">
        <ele>160.399993896484375</ele>
        <time>2026-08-13T08:37:04.000Z</time>
        <extensions>
          <ns3:TrackPointExtension>
            <ns3:hr>73</ns3:hr>
            <ns3:cad>0</ns3:cad>
          </ns3:TrackPointExtension>
        </extensions>
      </trkpt>
      <trkpt lat="43.77020523883402347564697265625" lon="1.58139414153993129730224609375">
        <ele>160.399993896484375</ele>
        <time>2026-08-13T08:37:05.000Z</time>
        <extensions>
          <ns3:TrackPointExtension>
            <ns3:hr>75</ns3:hr>
            <ns3:cad>43</ns3:cad>
          </ns3:TrackPointExtension>
        </extensions>
      </trkpt>
      <trkpt lat="43.7702133692800998687744140625" lon="1.5813870169222354888916015625">
        <ele>160.399993896484375</ele>
        <time>2026-08-13T08:37:06.000Z</time>
        <extensions>
          <ns3:TrackPointExtension>
            <ns3:hr>76</ns3:hr>
            <ns3:cad>43</ns3:cad>
          </ns3:TrackPointExtension>
        </extensions>
      </trkpt>
      <trkpt lat="43.77022552303969860076904296875" lon="1.58137955702841281890869140625">
        <ele>160.399993896484375</ele>
        <time>2026-08-13T08:37:07.000Z</time>
        <extensions>
          <ns3:TrackPointExtension>
            <ns3:hr>76</ns3:hr>
            <ns3:cad>43</ns3:cad>
          </ns3:TrackPointExtension>
        </extensions>
      </trkpt>
      <trkpt lat="43.770235665142536163330078125" lon="1.5813736058771610260009765625">
        <ele>160.399993896484375</ele>
        <time>2026-08-13T08:37:08.000Z</time>
        <extensions>
          <ns3:TrackPointExtension>
            <ns3:hr>76</ns3:hr>
            <ns3:cad>0</ns3:cad>
          </ns3:TrackPointExtension>
        </extensions>
      </trkpt>
      <trkpt lat="43.7702445499598979949951171875" lon="1.58136698417365550994873046875">
        <ele>160.399993896484375</ele>
        <time>2026-08-13T08:37:09.000Z</time>
        <extensions>
          <ns3:TrackPointExtension>
            <ns3:hr>77</ns3:hr>
            <ns3:cad>0</ns3:cad>
          </ns3:TrackPointExtension>
        </extensions>
      </trkpt>
      <trkpt lat="43.77025435678660869598388671875" lon="1.58136111684143543243408203125">
        <ele>160.399993896484375</ele>
        <time>2026-08-13T08:37:10.000Z</time>
        <extensions>
          <ns3:TrackPointExtension>
            <ns3:hr>77</ns3:hr>
            <ns3:cad>0</ns3:cad>
          </ns3:TrackPointExtension>
        </extensions>
      </trkpt>
      <trkpt lat="43.770262487232685089111328125" lon="1.58135759644210338592529296875">
        <ele>160.399993896484375</ele>
        <time>2026-08-13T08:37:11.000Z</time>
        <extensions>
          <ns3:TrackPointExtension>
            <ns3:hr>78</ns3:hr>
            <ns3:cad>0</ns3:cad>
          </ns3:TrackPointExtension>
        </extensions>
      </trkpt>
      <trkpt lat="43.77026726491749286651611328125" lon="1.581351645290851593017578125">
        <ele>160.399993896484375</ele>
        <time>2026-08-13T08:37:12.000Z</time>
        <extensions>
          <ns3:TrackPointExtension>
            <ns3:hr>78</ns3:hr>
            <ns3:cad>0</ns3:cad>
          </ns3:TrackPointExtension>
        </extensions>
      </trkpt>
      <trkpt lat="43.77027145586907863616943359375" lon="1.581347286701202392578125">
        <ele>160.399993896484375</ele>
        <time>2026-08-13T08:37:13.000Z</time>
        <extensions>
          <ns3:TrackPointExtension>
            <ns3:hr>78</ns3:hr>
            <ns3:cad>47</ns3:cad>
          </ns3:TrackPointExtension>
        </extensions>
      </trkpt>
      <trkpt lat="43.77027799375355243682861328125" lon="1.5813424251973628997802734375">
        <ele>160.399993896484375</ele>
        <time>2026-08-13T08:37:14.000Z</time>
        <extensions>
          <ns3:TrackPointExtension>
            <ns3:hr>78</ns3:hr>
            <ns3:cad>47</ns3:cad>
          </ns3:TrackPointExtension>
        </extensions>
      </trkpt>
      <trkpt lat="43.77028604038059711456298828125" lon="1.581335552036762237548828125">
        <ele>160.399993896484375</ele>
        <time>2026-08-13T08:37:15.000Z</time>
        <extensions>
          <ns3:TrackPointExtension>
            <ns3:hr>77</ns3:hr>
            <ns3:cad>47</ns3:cad>
          </ns3:TrackPointExtension>
        </extensions>
      </trkpt>
      <trkpt lat="43.77029073424637317657470703125" lon="1.581328846514225006103515625">
        <ele>160.399993896484375</ele>
        <time>2026-08-13T08:37:16.000Z</time>
        <extensions>
          <ns3:TrackPointExtension>
            <ns3:hr>78</ns3:hr>
            <ns3:cad>46</ns3:cad>
          </ns3:TrackPointExtension>
        </extensions>
      </trkpt>
      <trkpt lat="43.77029861323535442352294921875" lon="1.58132272772490978240966796875">
        <ele>160.399993896484375</ele>
        <time>2026-08-13T08:37:17.000Z</time>
        <extensions>
          <ns3:TrackPointExtension>
            <ns3:hr>78</ns3:hr>
            <ns3:cad>46</ns3:cad>
          </ns3:TrackPointExtension>
        </extensions>
      </trkpt>
      <trkpt lat="43.770304732024669647216796875" lon="1.5813192911446094512939453125">
        <ele>160.399993896484375</ele>
        <time>2026-08-13T08:37:18.000Z</time>
        <extensions>
          <ns3:TrackPointExtension>
            <ns3:hr>77</ns3:hr>
            <ns3:cad>46</ns3:cad>
          </ns3:TrackPointExtension>
        </extensions>
      </trkpt>
      <trkpt lat="43.77032317221164703369140625" lon="1.58131082542240619659423828125">
        <ele>160.399993896484375</ele>
        <time>2026-08-13T08:37:19.000Z</time>
        <extensions>
          <ns3:TrackPointExtension>
            <ns3:hr>77</ns3:hr>
            <ns3:cad>46</ns3:cad>
          </ns3:TrackPointExtension>
        </extensions>
      </trkpt>
      <trkpt lat="43.7703310512006282806396484375" lon="1.58130629919469356536865234375">
        <ele>160.399993896484375</ele>
        <time>2026-08-13T08:37:20.000Z</time>
        <extensions>
          <ns3:TrackPointExtension>
            <ns3:hr>77</ns3:hr>
            <ns3:cad>44</ns3:cad>
          </ns3:TrackPointExtension>
        </extensions>
      </trkpt>
      <trkpt lat="43.77033390104770660400390625" lon="1.58129909075796604156494140625">
        <ele>160.399993896484375</ele>
        <time>2026-08-13T08:37:21.000Z</time>
        <extensions>
          <ns3:TrackPointExtension>
            <ns3:hr>78</ns3:hr>
            <ns3:cad>44</ns3:cad>
          </ns3:TrackPointExtension>
        </extensions>
      </trkpt>
      <trkpt lat="43.7703407742083072662353515625" lon="1.5812896192073822021484375">
        <ele>160.399993896484375</ele>
        <time>2026-08-13T08:37:22.000Z</time>
        <extensions>
          <ns3:TrackPointExtension>
            <ns3:hr>78</ns3:hr>
            <ns3:cad>44</ns3:cad>
          </ns3:TrackPointExtension>
        </extensions>
      </trkpt>
      <trkpt lat="43.770348988473415374755859375" lon="1.58128500916063785552978515625">
        <ele>160.399993896484375</ele>
        <time>2026-08-13T08:37:23.000Z</time>
        <extensions>
          <ns3:TrackPointExtension>
            <ns3:hr>78</ns3:hr>
            <ns3:cad>44</ns3:cad>
          </ns3:TrackPointExtension>
        </extensions>
      </trkpt>
      <trkpt lat="43.77035661600530147552490234375" lon="1.5812810696661472320556640625">
        <ele>160.399993896484375</ele>
        <time>2026-08-13T08:37:24.000Z</time>
        <extensions>
          <ns3:TrackPointExtension>
            <ns3:hr>78</ns3:hr>
            <ns3:cad>44</ns3:cad>
          </ns3:TrackPointExtension>
        </extensions>
      </trkpt>
      <trkpt lat="43.7703652493655681610107421875" lon="1.58127411268651485443115234375">
        <ele>160.399993896484375</ele>
        <time>2026-08-13T08:37:25.000Z</time>
        <extensions>
          <ns3:TrackPointExtension>
            <ns3:hr>79</ns3:hr>
            <ns3:cad>41</ns3:cad>
          </ns3:TrackPointExtension>
        </extensions>
      </trkpt>
      <trkpt lat="43.77037807367742061614990234375" lon="1.581267155706882476806640625">
        <ele>160.399993896484375</ele>
        <time>2026-08-13T08:37:26.000Z</time>
        <extensions>
          <ns3:TrackPointExtension>
            <ns3:hr>79</ns3:hr>
            <ns3:cad>41</ns3:cad>
          </ns3:TrackPointExtension>
        </extensions>
      </trkpt>
      <trkpt lat="43.77038444392383098602294921875" lon="1.58126053400337696075439453125">
        <ele>160.1999969482421875</ele>
        <time>2026-08-13T08:37:27.000Z</time>
        <extensions>
          <ns3:TrackPointExtension>
            <ns3:hr>78</ns3:hr>
            <ns3:cad>41</ns3:cad>
          </ns3:TrackPointExtension>
        </extensions>
      </trkpt>
      <trkpt lat="43.77039165236055850982666015625" lon="1.5812547504901885986328125">
        <ele>160.1999969482421875</ele>
        <time>2026-08-13T08:37:28.000Z</time>
        <extensions>
          <ns3:TrackPointExtension>
            <ns3:hr>77</ns3:hr>
            <ns3:cad>43</ns3:cad>
          </ns3:TrackPointExtension>
        </extensions>
      </trkpt>
      <trkpt lat="43.7704004533588886260986328125" lon="1.5812465362250804901123046875">
        <ele>160.1999969482421875</ele>
        <time>2026-08-13T08:37:29.000Z</time>
        <extensions>
          <ns3:TrackPointExtension>
            <ns3:hr>77</ns3:hr>
            <ns3:cad>43</ns3:cad>
          </ns3:TrackPointExtension>
        </extensions>
      </trkpt>
      <trkpt lat="43.7704123556613922119140625" lon="1.58124066889286041259765625">
        <ele>160.1999969482421875</ele>
        <time>2026-08-13T08:37:30.000Z</time>
        <extensions>
          <ns3:TrackPointExtension>
            <ns3:hr>77</ns3:hr>
            <ns3:cad>43</ns3:cad>
          </ns3:TrackPointExtension>
        </extensions>
      </trkpt>
      <trkpt lat="43.77041948027908802032470703125" lon="1.581234298646450042724609375">
        <ele>160.1999969482421875</ele>
        <time>2026-08-13T08:37:31.000Z</time>
        <extensions>
          <ns3:TrackPointExtension>
            <ns3:hr>76</ns3:hr>
            <ns3:cad>43</ns3:cad>
          </ns3:TrackPointExtension>
        </extensions>
      </trkpt>
      <trkpt lat="43.770422078669071197509765625" lon="1.5812225639820098876953125">
        <ele>160.1999969482421875</ele>
        <time>2026-08-13T08:37:32.000Z</time>
        <extensions>
          <ns3:TrackPointExtension>
            <ns3:hr>77</ns3:hr>
            <ns3:cad>43</ns3:cad>
          </ns3:TrackPointExtension>
        </extensions>
      </trkpt>
      <trkpt lat="43.7704316340386867523193359375" lon="1.581214182078838348388671875">
        <ele>160.399993896484375</ele>
        <time>2026-08-13T08:37:33.000Z</time>
        <extensions>
          <ns3:TrackPointExtension>
            <ns3:hr>76</ns3:hr>
            <ns3:cad>43</ns3:cad>
          </ns3:TrackPointExtension>
        </extensions>
      </trkpt>
      <trkpt lat="43.77043783664703369140625" lon="1.58120856620371341705322265625">
        <ele>160.399993896484375</ele>
        <time>2026-08-13T08:37:34.000Z</time>
        <extensions>
          <ns3:TrackPointExtension>
            <ns3:hr>76</ns3:hr>
            <ns3:cad>42</ns3:cad>
          </ns3:TrackPointExtension>
        </extensions>
      </trkpt>
      <trkpt lat="43.77044864930212497711181640625" lon="1.58120588399469852447509765625">
        <ele>160.399993896484375</ele>
        <time>2026-08-13T08:37:35.000Z</time>
        <extensions>
          <ns3:TrackPointExtension>
            <ns3:hr>76</ns3:hr>
            <ns3:cad>42</ns3:cad>
          </ns3:TrackPointExtension>
        </extensions>
      </trkpt>
      <trkpt lat="43.770453594624996185302734375" lon="1.58119934611022472381591796875">
        <ele>160.1999969482421875</ele>
        <time>2026-08-13T08:37:36.000Z</time>
        <extensions>
          <ns3:TrackPointExtension>
            <ns3:hr>76</ns3:hr>
            <ns3:cad>42</ns3:cad>
          </ns3:TrackPointExtension>
        </extensions>
      </trkpt>
      <trkpt lat="43.7704654969274997711181640625" lon="1.58119331113994121551513671875">
        <ele>160.1999969482421875</ele>
        <time>2026-08-13T08:37:37.000Z</time>
        <extensions>
          <ns3:TrackPointExtension>
            <ns3:hr>76</ns3:hr>
            <ns3:cad>42</ns3:cad>
          </ns3:TrackPointExtension>
        </extensions>
      </trkpt>
      <trkpt lat="43.7704752199351787567138671875" lon="1.58118643797934055328369140625">
        <ele>160.1999969482421875</ele>
        <time>2026-08-13T08:37:38.000Z</time>
        <extensions>
          <ns3:TrackPointExtension>
            <ns3:hr>76</ns3:hr>
            <ns3:cad>44</ns3:cad>
          </ns3:TrackPointExtension>
        </extensions>
      </trkpt>
      <trkpt lat="43.7704794108867645263671875" lon="1.58118409104645252227783203125">
        <ele>160.1999969482421875</ele>
        <time>2026-08-13T08:37:39.000Z</time>
        <extensions>
          <ns3:TrackPointExtension>
            <ns3:hr>76</ns3:hr>
            <ns3:cad>44</ns3:cad>
          </ns3:TrackPointExtension>
        </extensions>
      </trkpt>
      <trkpt lat="43.77048670314252376556396484375" lon="1.58117537386715412139892578125">
        <ele>160.1999969482421875</ele>
        <time>2026-08-13T08:37:40.000Z</time>
        <extensions>
          <ns3:TrackPointExtension>
            <ns3:hr>76</ns3:hr>
            <ns3:cad>44</ns3:cad>
          </ns3:TrackPointExtension>
        </extensions>
      </trkpt>
      <trkpt lat="43.77049810253083705902099609375" lon="1.58116917125880718231201171875">
        <ele>160.1999969482421875</ele>
        <time>2026-08-13T08:37:41.000Z</time>
        <extensions>
          <ns3:TrackPointExtension>
            <ns3:hr>76</ns3:hr>
            <ns3:cad>44</ns3:cad>
          </ns3:TrackPointExtension>
        </extensions>
      </trkpt>
      <trkpt lat="43.77050531096756458282470703125" lon="1.5811607055366039276123046875">
        <ele>160.1999969482421875</ele>
        <time>2026-08-13T08:37:42.000Z</time>
        <extensions>
          <ns3:TrackPointExtension>
            <ns3:hr>76</ns3:hr>
            <ns3:cad>44</ns3:cad>
          </ns3:TrackPointExtension>
        </extensions>
      </trkpt>
      <trkpt lat="43.7705137766897678375244140625" lon="1.58115609548985958099365234375">
        <ele>160.1999969482421875</ele>
        <time>2026-08-13T08:37:43.000Z</time>
        <extensions>
          <ns3:TrackPointExtension>
            <ns3:hr>76</ns3:hr>
            <ns3:cad>44</ns3:cad>
          </ns3:TrackPointExtension>
        </extensions>
      </trkpt>
      <trkpt lat="43.7705221585929393768310546875" lon="1.5811489708721637725830078125">
        <ele>160.1999969482421875</ele>
        <time>2026-08-13T08:37:44.000Z</time>
        <extensions>
          <ns3:TrackPointExtension>
            <ns3:hr>75</ns3:hr>
            <ns3:cad>44</ns3:cad>
          </ns3:TrackPointExtension>
        </extensions>
      </trkpt>
      <trkpt lat="43.7705318816006183624267578125" lon="1.581137739121913909912109375">
        <ele>160.1999969482421875</ele>
        <time>2026-08-13T08:37:45.000Z</time>
        <extensions>
          <ns3:TrackPointExtension>
            <ns3:hr>76</ns3:hr>
            <ns3:cad>44</ns3:cad>
          </ns3:TrackPointExtension>
        </extensions>
      </trkpt>
      <trkpt lat="43.7705375812947750091552734375" lon="1.58113111741840839385986328125">
        <ele>160.1999969482421875</ele>
        <time>2026-08-13T08:37:46.000Z</time>
        <extensions>
          <ns3:TrackPointExtension>
            <ns3:hr>76</ns3:hr>
            <ns3:cad>44</ns3:cad>
          </ns3:TrackPointExtension>
        </extensions>
      </trkpt>
      <trkpt lat="43.770544119179248809814453125" lon="1.58112860284745693206787109375">
        <ele>160.1999969482421875</ele>
        <time>2026-08-13T08:37:47.000Z</time>
        <extensions>
          <ns3:TrackPointExtension>
            <ns3:hr>76</ns3:hr>
            <ns3:cad>44</ns3:cad>
          </ns3:TrackPointExtension>
        </extensions>
      </trkpt>
      <trkpt lat="43.7705540098249912261962890625" lon="1.5811192989349365234375">
        <ele>160.1999969482421875</ele>
        <time>2026-08-13T08:37:48.000Z</time>
        <extensions>
          <ns3:TrackPointExtension>
            <ns3:hr>76</ns3:hr>
            <ns3:cad>44</ns3:cad>
          </ns3:TrackPointExtension>
        </extensions>
      </trkpt>
      <trkpt lat="43.77056415192782878875732421875" lon="1.58111468888819217681884765625">
        <ele>160.1999969482421875</ele>
        <time>2026-08-13T08:37:49.000Z</time>
        <extensions>
          <ns3:TrackPointExtension>
            <ns3:hr>76</ns3:hr>
            <ns3:cad>44</ns3:cad>
          </ns3:TrackPointExtension>
        </extensions>
      </trkpt>
      <trkpt lat="43.77056993544101715087890625" lon="1.58111401833593845367431640625">
        <ele>160.1999969482421875</ele>
        <time>2026-08-13T08:37:50.000Z</time>
        <extensions>
          <ns3:TrackPointExtension>
            <ns3:hr>76</ns3:hr>
            <ns3:cad>44</ns3:cad>
          </ns3:TrackPointExtension>
        </extensions>
      </trkpt>
      <trkpt lat="43.7705721147358417510986328125" lon="1.58110748045146465301513671875">
        <ele>160.1999969482421875</ele>
        <time>2026-08-13T08:37:51.000Z</time>
        <extensions>
          <ns3:TrackPointExtension>
            <ns3:hr>76</ns3:hr>
            <ns3:cad>44</ns3:cad>
          </ns3:TrackPointExtension>
        </extensions>
      </trkpt>
      <trkpt lat="43.77058711834251880645751953125" lon="1.58110027201473712921142578125">
        <ele>160.1999969482421875</ele>
        <time>2026-08-13T08:37:52.000Z</time>
        <extensions>
          <ns3:TrackPointExtension>
            <ns3:hr>76</ns3:hr>
            <ns3:cad>44</ns3:cad>
          </ns3:TrackPointExtension>
        </extensions>
      </trkpt>
      <trkpt lat="43.7705962546169757843017578125" lon="1.58109524287283420562744140625">
        <ele>160.1999969482421875</ele>
        <time>2026-08-13T08:37:53.000Z</time>
        <extensions>
          <ns3:TrackPointExtension>
            <ns3:hr>75</ns3:hr>
            <ns3:cad>44</ns3:cad>
          </ns3:TrackPointExtension>
        </extensions>
      </trkpt>
      <trkpt lat="43.7706016190350055694580078125" lon="1.5810923092067241668701171875">
        <ele>160.1999969482421875</ele>
        <time>2026-08-13T08:37:54.000Z</time>
        <extensions>
          <ns3:TrackPointExtension>
            <ns3:hr>75</ns3:hr>
            <ns3:cad>44</ns3:cad>
          </ns3:TrackPointExtension>
        </extensions>
      </trkpt>
      <trkpt lat="43.770606480538845062255859375" lon="1.58108434639871120452880859375">
        <ele>160.1999969482421875</ele>
        <time>2026-08-13T08:37:55.000Z</time>
        <extensions>
          <ns3:TrackPointExtension>
            <ns3:hr>75</ns3:hr>
            <ns3:cad>43</ns3:cad>
          </ns3:TrackPointExtension>
        </extensions>
      </trkpt>
      <trkpt lat="43.77061553299427032470703125" lon="1.581079065799713134765625">
        <ele>160</ele>
        <time>2026-08-13T08:37:56.000Z</time>
        <extensions>
          <ns3:TrackPointExtension>
            <ns3:hr>75</ns3:hr>
            <ns3:cad>43</ns3:cad>
          </ns3:TrackPointExtension>
        </extensions>
      </trkpt>
      <trkpt lat="43.77062148414552211761474609375" lon="1.58107143826782703399658203125">
        <ele>160</ele>
        <time>2026-08-13T08:37:57.000Z</time>
        <extensions>
          <ns3:TrackPointExtension>
            <ns3:hr>75</ns3:hr>
            <ns3:cad>43</ns3:cad>
          </ns3:TrackPointExtension>
        </extensions>
      </trkpt>
      <trkpt lat="43.77062760293483734130859375" lon="1.58106490038335323333740234375">
        <ele>160</ele>
        <time>2026-08-13T08:37:58.000Z</time>
        <extensions>
          <ns3:TrackPointExtension>
            <ns3:hr>75</ns3:hr>
            <ns3:cad>44</ns3:cad>
          </ns3:TrackPointExtension>
        </extensions>
      </trkpt>
      <trkpt lat="43.77063623629510402679443359375" lon="1.581058613955974578857421875">
        <ele>160</ele>
        <time>2026-08-13T08:37:59.000Z</time>
        <extensions>
          <ns3:TrackPointExtension>
            <ns3:hr>76</ns3:hr>
            <ns3:cad>44</ns3:cad>
          </ns3:TrackPointExtension>
        </extensions>
      </trkpt>
      <trkpt lat="43.77064763568341732025146484375" lon="1.58105048350989818572998046875">
        <ele>160</ele>
        <time>2026-08-13T08:38:00.000Z</time>
        <extensions>
          <ns3:TrackPointExtension>
            <ns3:hr>75</ns3:hr>
            <ns3:cad>44</ns3:cad>
          </ns3:TrackPointExtension>
        </extensions>
      </trkpt>
      <trkpt lat="43.77065584994852542877197265625" lon="1.581046544015407562255859375">
        <ele>160</ele>
        <time>2026-08-13T08:38:01.000Z</time>
        <extensions>
          <ns3:TrackPointExtension>
            <ns3:hr>75</ns3:hr>
            <ns3:cad>44</ns3:cad>
          </ns3:TrackPointExtension>
        </extensions>
      </trkpt>
      <trkpt lat="43.7706592865288257598876953125" lon="1.58104796893894672393798828125">
        <ele>160</ele>
        <time>2026-08-13T08:38:02.000Z</time>
        <extensions>
          <ns3:TrackPointExtension>
            <ns3:hr>75</ns3:hr>
            <ns3:cad>44</ns3:cad>
          </ns3:TrackPointExtension>
        </extensions>
      </trkpt>
      <trkpt lat="43.7706700153648853302001953125" lon="1.58103573136031627655029296875">
        <ele>160</ele>
        <time>2026-08-13T08:38:03.000Z</time>
        <extensions>
          <ns3:TrackPointExtension>
            <ns3:hr>76</ns3:hr>
            <ns3:cad>43</ns3:cad>
          </ns3:TrackPointExtension>
        </extensions>
      </trkpt>
      <trkpt lat="43.7706817500293254852294921875" lon="1.5810259245336055755615234375">
        <ele>160</ele>
        <time>2026-08-13T08:38:04.000Z</time>
        <extensions>
          <ns3:TrackPointExtension>
            <ns3:hr>75</ns3:hr>
            <ns3:cad>43</ns3:cad>
          </ns3:TrackPointExtension>
        </extensions>
      </trkpt>
      <trkpt lat="43.77069004811346530914306640625" lon="1.581021063029766082763671875">
        <ele>160</ele>
        <time>2026-08-13T08:38:05.000Z</time>
        <extensions>
          <ns3:TrackPointExtension>
            <ns3:hr>75</ns3:hr>
            <ns3:cad>44</ns3:cad>
          </ns3:TrackPointExtension>
        </extensions>
      </trkpt>
      <trkpt lat="43.77069490961730480194091796875" lon="1.581017710268497467041015625">
        <ele>160</ele>
        <time>2026-08-13T08:38:06.000Z</time>
        <extensions>
          <ns3:TrackPointExtension>
            <ns3:hr>75</ns3:hr>
            <ns3:cad>44</ns3:cad>
          </ns3:TrackPointExtension>
        </extensions>
      </trkpt>
      <trkpt lat="43.770711086690425872802734375" lon="1.58100941218435764312744140625">
        <ele>160</ele>
        <time>2026-08-13T08:38:07.000Z</time>
        <extensions>
          <ns3:TrackPointExtension>
            <ns3:hr>75</ns3:hr>
            <ns3:cad>44</ns3:cad>
          </ns3:TrackPointExtension>
        </extensions>
      </trkpt>
      <trkpt lat="43.77072072587907314300537109375" lon="1.58099901862442493438720703125">
        <ele>160</ele>
        <time>2026-08-13T08:38:08.000Z</time>
        <extensions>
          <ns3:TrackPointExtension>
            <ns3:hr>75</ns3:hr>
            <ns3:cad>44</ns3:cad>
          </ns3:TrackPointExtension>
        </extensions>
      </trkpt>
      <trkpt lat="43.77072751522064208984375" lon="1.5809964202344417572021484375">
        <ele>160</ele>
        <time>2026-08-13T08:38:09.000Z</time>
        <extensions>
          <ns3:TrackPointExtension>
            <ns3:hr>75</ns3:hr>
            <ns3:cad>45</ns3:cad>
          </ns3:TrackPointExtension>
        </extensions>
      </trkpt>
      <trkpt lat="43.77073447220027446746826171875" lon="1.5809893794357776641845703125">
        <ele>160</ele>
        <time>2026-08-13T08:38:10.000Z</time>
        <extensions>
          <ns3:TrackPointExtension>
            <ns3:hr>75</ns3:hr>
            <ns3:cad>45</ns3:cad>
          </ns3:TrackPointExtension>
        </extensions>
      </trkpt>
      <trkpt lat="43.7707488052546977996826171875" lon="1.58098049461841583251953125">
        <ele>159.8000030517578125</ele>
        <time>2026-08-13T08:38:11.000Z</time>
        <extensions>
          <ns3:TrackPointExtension>
            <ns3:hr>75</ns3:hr>
            <ns3:cad>44</ns3:cad>
          </ns3:TrackPointExtension>
        </extensions>
      </trkpt>
      <trkpt lat="43.77075643278658390045166015625" lon="1.58097588457167148590087890625">
        <ele>159.8000030517578125</ele>
        <time>2026-08-13T08:38:12.000Z</time>
        <extensions>
          <ns3:TrackPointExtension>
            <ns3:hr>76</ns3:hr>
            <ns3:cad>44</ns3:cad>
          </ns3:TrackPointExtension>
        </extensions>
      </trkpt>
      <trkpt lat="43.77075945027172565460205078125" lon="1.58096783794462680816650390625">
        <ele>159.8000030517578125</ele>
        <time>2026-08-13T08:38:13.000Z</time>
        <extensions>
          <ns3:TrackPointExtension>
            <ns3:hr>75</ns3:hr>
            <ns3:cad>43</ns3:cad>
          </ns3:TrackPointExtension>
        </extensions>
      </trkpt>
      <trkpt lat="43.7707655690610408782958984375" lon="1.58095325343310832977294921875">
        <ele>159.8000030517578125</ele>
        <time>2026-08-13T08:38:14.000Z</time>
        <extensions>
          <ns3:TrackPointExtension>
            <ns3:hr>75</ns3:hr>
            <ns3:cad>43</ns3:cad>
          </ns3:TrackPointExtension>
        </extensions>
      </trkpt>
      <trkpt lat="43.77077512443065643310546875" lon="1.5809464640915393829345703125">
        <ele>159.8000030517578125</ele>
        <time>2026-08-13T08:38:15.000Z</time>
        <extensions>
          <ns3:TrackPointExtension>
            <ns3:hr>75</ns3:hr>
            <ns3:cad>43</ns3:cad>
          </ns3:TrackPointExtension>
        </extensions>
      </trkpt>
      <trkpt lat="43.770782165229320526123046875" lon="1.58094738610088825225830078125">
        <ele>159.8000030517578125</ele>
        <time>2026-08-13T08:38:16.000Z</time>
        <extensions>
          <ns3:TrackPointExtension>
            <ns3:hr>74</ns3:hr>
            <ns3:cad>44</ns3:cad>
          </ns3:TrackPointExtension>
        </extensions>
      </trkpt>
      <trkpt lat="43.77078643999993801116943359375" lon="1.58094428479671478271484375">
        <ele>159.8000030517578125</ele>
        <time>2026-08-13T08:38:17.000Z</time>
        <extensions>
          <ns3:TrackPointExtension>
            <ns3:hr>74</ns3:hr>
            <ns3:cad>44</ns3:cad>
          </ns3:TrackPointExtension>
        </extensions>
      </trkpt>
      <trkpt lat="43.77079599536955356597900390625" lon="1.58093665726482868194580078125">
        <ele>159.8000030517578125</ele>
        <time>2026-08-13T08:38:18.000Z</time>
        <extensions>
          <ns3:TrackPointExtension>
            <ns3:hr>74</ns3:hr>
            <ns3:cad>44</ns3:cad>
          </ns3:TrackPointExtension>
        </extensions>
      </trkpt>
      <trkpt lat="43.77080655656754970550537109375" lon="1.58092685043811798095703125">
        <ele>159.8000030517578125</ele>
        <time>2026-08-13T08:38:19.000Z</time>
        <extensions>
          <ns3:TrackPointExtension>
            <ns3:hr>75</ns3:hr>
            <ns3:cad>44</ns3:cad>
          </ns3:TrackPointExtension>
        </extensions>
      </trkpt>
      <trkpt lat="43.7708125077188014984130859375" lon="1.58092550933361053466796875">
        <ele>159.8000030517578125</ele>
        <time>2026-08-13T08:38:20.000Z</time>
        <extensions>
          <ns3:TrackPointExtension>
            <ns3:hr>75</ns3:hr>
            <ns3:cad>44</ns3:cad>
          </ns3:TrackPointExtension>
        </extensions>
      </trkpt>
      <trkpt lat="43.77081577666103839874267578125" lon="1.58091804943978786468505859375">
        <ele>159.8000030517578125</ele>
        <time>2026-08-13T08:38:21.000Z</time>
        <extensions>
          <ns3:TrackPointExtension>
            <ns3:hr>75</ns3:hr>
            <ns3:cad>43</ns3:cad>
          </ns3:TrackPointExtension>
        </extensions>
      </trkpt>
      <trkpt lat="43.7708286009728908538818359375" lon="1.58091008663177490234375">
        <ele>159.8000030517578125</ele>
        <time>2026-08-13T08:38:22.000Z</time>
        <extensions>
          <ns3:TrackPointExtension>
            <ns3:hr>75</ns3:hr>
            <ns3:cad>43</ns3:cad>
          </ns3:TrackPointExtension>
        </extensions>
      </trkpt>
      <trkpt lat="43.77083572559058666229248046875" lon="1.58090782351791858673095703125">
        <ele>159.8000030517578125</ele>
        <time>2026-08-13T08:38:23.000Z</time>
        <extensions>
          <ns3:TrackPointExtension>
            <ns3:hr>75</ns3:hr>
            <ns3:cad>44</ns3:cad>
          </ns3:TrackPointExtension>
        </extensions>
      </trkpt>
      <trkpt lat="43.770841844379901885986328125" lon="1.580903716385364532470703125">
        <ele>159.8000030517578125</ele>
        <time>2026-08-13T08:38:24.000Z</time>
        <extensions>
          <ns3:TrackPointExtension>
            <ns3:hr>75</ns3:hr>
            <ns3:cad>44</ns3:cad>
          </ns3:TrackPointExtension>
        </extensions>
      </trkpt>
      <trkpt lat="43.77084829844534397125244140625" lon="1.58089592121541500091552734375">
        <ele>159.8000030517578125</ele>
        <time>2026-08-13T08:38:25.000Z</time>
        <extensions>
          <ns3:TrackPointExtension>
            <ns3:hr>75</ns3:hr>
            <ns3:cad>42</ns3:cad>
          </ns3:TrackPointExtension>
        </extensions>
      </trkpt>
      <trkpt lat="43.77085919491946697235107421875" lon="1.5808884613215923309326171875">
        <ele>159.8000030517578125</ele>
        <time>2026-08-13T08:38:26.000Z</time>
        <extensions>
          <ns3:TrackPointExtension>
            <ns3:hr>75</ns3:hr>
            <ns3:cad>42</ns3:cad>
          </ns3:TrackPointExtension>
        </extensions>
      </trkpt>
      <trkpt lat="43.77087009139358997344970703125" lon="1.580882258713245391845703125">
        <ele>159.8000030517578125</ele>
        <time>2026-08-13T08:38:27.000Z</time>
        <extensions>
          <ns3:TrackPointExtension>
            <ns3:hr>75</ns3:hr>
            <ns3:cad>42</ns3:cad>
          </ns3:TrackPointExtension>
        </extensions>
      </trkpt>
      <trkpt lat="43.77087629400193691253662109375" lon="1.58087966032326221466064453125">
        <ele>159.8000030517578125</ele>
        <time>2026-08-13T08:38:28.000Z</time>
        <extensions>
          <ns3:TrackPointExtension>
            <ns3:hr>75</ns3:hr>
            <ns3:cad>43</ns3:cad>
          </ns3:TrackPointExtension>
        </extensions>
      </trkpt>
      <trkpt lat="43.77088719047605991363525390625" lon="1.5808765590190887451171875">
        <ele>159.8000030517578125</ele>
        <time>2026-08-13T08:38:29.000Z</time>
        <extensions>
          <ns3:TrackPointExtension>
            <ns3:hr>74</ns3:hr>
            <ns3:cad>44</ns3:cad>
          </ns3:TrackPointExtension>
        </extensions>
      </trkpt>
      <trkpt lat="43.77089423127472400665283203125" lon="1.5808737091720104217529296875">
        <ele>159.8000030517578125</ele>
        <time>2026-08-13T08:38:30.000Z</time>
        <extensions>
          <ns3:TrackPointExtension>
            <ns3:hr>74</ns3:hr>
            <ns3:cad>44</ns3:cad>
          </ns3:TrackPointExtension>
        </extensions>
      </trkpt>
      <trkpt lat="43.7709000147879123687744140625" lon="1.58087228424847126007080078125">
        <ele>159.8000030517578125</ele>
        <time>2026-08-13T08:38:31.000Z</time>
        <extensions>
          <ns3:TrackPointExtension>
            <ns3:hr>74</ns3:hr>
            <ns3:cad>44</ns3:cad>
          </ns3:TrackPointExtension>
        </extensions>
      </trkpt>
      <trkpt lat="43.77090278081595897674560546875" lon="1.5808696858584880828857421875">
        <ele>159.8000030517578125</ele>
        <time>2026-08-13T08:38:32.000Z</time>
        <extensions>
          <ns3:TrackPointExtension>
            <ns3:hr>74</ns3:hr>
            <ns3:cad>42</ns3:cad>
          </ns3:TrackPointExtension>
        </extensions>
      </trkpt>
      <trkpt lat="43.7709147669374942779541015625" lon="1.58086507581174373626708984375">
        <ele>159.8000030517578125</ele>
        <time>2026-08-13T08:38:33.000Z</time>
        <extensions>
          <ns3:TrackPointExtension>
            <ns3:hr>74</ns3:hr>
            <ns3:cad>42</ns3:cad>
          </ns3:TrackPointExtension>
        </extensions>
      </trkpt>
      <trkpt lat="43.7709201313555240631103515625" lon="1.5808653272688388824462890625">
        <ele>159.8000030517578125</ele>
        <time>2026-08-13T08:38:34.000Z</time>
        <extensions>
          <ns3:TrackPointExtension>
            <ns3:hr>74</ns3:hr>
            <ns3:cad>42</ns3:cad>
          </ns3:TrackPointExtension>
        </extensions>
      </trkpt>
      <trkpt lat="43.77092876471579074859619140625" lon="1.58086406998336315155029296875">
        <ele>159.8000030517578125</ele>
        <time>2026-08-13T08:38:35.000Z</time>
        <extensions>
          <ns3:TrackPointExtension>
            <ns3:hr>74</ns3:hr>
            <ns3:cad>42</ns3:cad>
          </ns3:TrackPointExtension>
        </extensions>
      </trkpt>
      <trkpt lat="43.77094100229442119598388671875" lon="1.58085803501307964324951171875">
        <ele>159.8000030517578125</ele>
        <time>2026-08-13T08:38:36.000Z</time>
        <extensions>
          <ns3:TrackPointExtension>
            <ns3:hr>73</ns3:hr>
            <ns3:cad>42</ns3:cad>
          </ns3:TrackPointExtension>
        </extensions>
      </trkpt>
      <trkpt lat="43.77094938419759273529052734375" lon="1.58084780909121036529541015625">
        <ele>159.8000030517578125</ele>
        <time>2026-08-13T08:38:37.000Z</time>
        <extensions>
          <ns3:TrackPointExtension>
            <ns3:hr>73</ns3:hr>
            <ns3:cad>42</ns3:cad>
          </ns3:TrackPointExtension>
        </extensions>
      </trkpt>
      <trkpt lat="43.77095407806336879730224609375" lon="1.5808408521115779876708984375">
        <ele>159.8000030517578125</ele>
        <time>2026-08-13T08:38:38.000Z</time>
        <extensions>
          <ns3:TrackPointExtension>
            <ns3:hr>73</ns3:hr>
            <ns3:cad>43</ns3:cad>
          </ns3:TrackPointExtension>
        </extensions>
      </trkpt>
      <trkpt lat="43.7709595263004302978515625" lon="1.58083322457969188690185546875">
        <ele>159.8000030517578125</ele>
        <time>2026-08-13T08:38:39.000Z</time>
        <extensions>
          <ns3:TrackPointExtension>
            <ns3:hr>72</ns3:hr>
            <ns3:cad>43</ns3:cad>
          </ns3:TrackPointExtension>
        </extensions>
      </trkpt>
      <trkpt lat="43.7709700874984264373779296875" lon="1.580823920667171478271484375">
        <ele>159.8000030517578125</ele>
        <time>2026-08-13T08:38:40.000Z</time>
        <extensions>
          <ns3:TrackPointExtension>
            <ns3:hr>72</ns3:hr>
            <ns3:cad>43</ns3:cad>
          </ns3:TrackPointExtension>
        </extensions>
      </trkpt>
      <trkpt lat="43.77097620628774166107177734375" lon="1.58082031644880771636962890625">
        <ele>159.8000030517578125</ele>
        <time>2026-08-13T08:38:41.000Z</time>
        <extensions>
          <ns3:TrackPointExtension>
            <ns3:hr>72</ns3:hr>
            <ns3:cad>43</ns3:cad>
          </ns3:TrackPointExtension>
        </extensions>
      </trkpt>
      <trkpt lat="43.77098039723932743072509765625" lon="1.58081646077334880828857421875">
        <ele>159.600006103515625</ele>
        <time>2026-08-13T08:38:42.000Z</time>
        <extensions>
          <ns3:TrackPointExtension>
            <ns3:hr>72</ns3:hr>
            <ns3:cad>42</ns3:cad>
          </ns3:TrackPointExtension>
        </extensions>
      </trkpt>
      <trkpt lat="43.770990036427974700927734375" lon="1.580809839069843292236328125">
        <ele>159.600006103515625</ele>
        <time>2026-08-13T08:38:43.000Z</time>
        <extensions>
          <ns3:TrackPointExtension>
            <ns3:hr>73</ns3:hr>
            <ns3:cad>41</ns3:cad>
          </ns3:TrackPointExtension>
        </extensions>
      </trkpt>
      <trkpt lat="43.77099498175084590911865234375" lon="1.5808063186705112457275390625">
        <ele>159.600006103515625</ele>
        <time>2026-08-13T08:38:44.000Z</time>
        <extensions>
          <ns3:TrackPointExtension>
            <ns3:hr>73</ns3:hr>
            <ns3:cad>41</ns3:cad>
          </ns3:TrackPointExtension>
        </extensions>
      </trkpt>
      <trkpt lat="43.77099649049341678619384765625" lon="1.5807959251105785369873046875">
        <ele>159.600006103515625</ele>
        <time>2026-08-13T08:38:45.000Z</time>
        <extensions>
          <ns3:TrackPointExtension>
            <ns3:hr>73</ns3:hr>
            <ns3:cad>41</ns3:cad>
          </ns3:TrackPointExtension>
        </extensions>
      </trkpt>
      <trkpt lat="43.77100671641528606414794921875" lon="1.58078595064580440521240234375">
        <ele>159.8000030517578125</ele>
        <time>2026-08-13T08:38:46.000Z</time>
        <extensions>
          <ns3:TrackPointExtension>
            <ns3:hr>73</ns3:hr>
            <ns3:cad>41</ns3:cad>
          </ns3:TrackPointExtension>
        </extensions>
      </trkpt>
      <trkpt lat="43.7710133381187915802001953125" lon="1.58078226260840892791748046875">
        <ele>159.8000030517578125</ele>
        <time>2026-08-13T08:38:47.000Z</time>
        <extensions>
          <ns3:TrackPointExtension>
            <ns3:hr>72</ns3:hr>
            <ns3:cad>41</ns3:cad>
          </ns3:TrackPointExtension>
        </extensions>
      </trkpt>
      <trkpt lat="43.771018870174884796142578125" lon="1.58078175969421863555908203125">
        <ele>159.8000030517578125</ele>
        <time>2026-08-13T08:38:48.000Z</time>
        <extensions>
          <ns3:TrackPointExtension>
            <ns3:hr>72</ns3:hr>
            <ns3:cad>79</ns3:cad>
          </ns3:TrackPointExtension>
        </extensions>
      </trkpt>
      <trkpt lat="43.77102884463965892791748046875" lon="1.580774970352649688720703125">
        <ele>159.8000030517578125</ele>
        <time>2026-08-13T08:38:49.000Z</time>
        <extensions>
          <ns3:TrackPointExtension>
            <ns3:hr>72</ns3:hr>
            <ns3:cad>79</ns3:cad>
          </ns3:TrackPointExtension>
        </extensions>
      </trkpt>
      <trkpt lat="43.77103555016219615936279296875" lon="1.58076985739171504974365234375">
        <ele>159.8000030517578125</ele>
        <time>2026-08-13T08:38:50.000Z</time>
        <extensions>
          <ns3:TrackPointExtension>
            <ns3:hr>72</ns3:hr>
            <ns3:cad>78</ns3:cad>
          </ns3:TrackPointExtension>
        </extensions>
      </trkpt>
      <trkpt lat="43.77104057930409908294677734375" lon="1.5807687677443027496337890625">
        <ele>159.600006103515625</ele>
        <time>2026-08-13T08:38:51.000Z</time>
        <extensions>
          <ns3:TrackPointExtension>
            <ns3:hr>72</ns3:hr>
            <ns3:cad>40</ns3:cad>
          </ns3:TrackPointExtension>
        </extensions>
      </trkpt>
      <trkpt lat="43.77104896120727062225341796875" lon="1.5807587094604969024658203125">
        <ele>159.600006103515625</ele>
        <time>2026-08-13T08:38:52.000Z</time>
        <extensions>
          <ns3:TrackPointExtension>
            <ns3:hr>73</ns3:hr>
            <ns3:cad>40</ns3:cad>
          </ns3:TrackPointExtension>
        </extensions>
      </trkpt>
      <trkpt lat="43.7710560858249664306640625" lon="1.58074739389121532440185546875">
        <ele>159.600006103515625</ele>
        <time>2026-08-13T08:38:53.000Z</time>
        <extensions>
          <ns3:TrackPointExtension>
            <ns3:hr>74</ns3:hr>
            <ns3:cad>40</ns3:cad>
          </ns3:TrackPointExtension>
        </extensions>
      </trkpt>
      <trkpt lat="43.7710579298436641693115234375" lon="1.580745466053485870361328125">
        <ele>159.600006103515625</ele>
        <time>2026-08-13T08:38:54.000Z</time>
        <extensions>
          <ns3:TrackPointExtension>
            <ns3:hr>75</ns3:hr>
            <ns3:cad>43</ns3:cad>
          </ns3:TrackPointExtension>
        </extensions>
      </trkpt>
      <trkpt lat="43.77106354571878910064697265625" lon="1.580738760530948638916015625">
        <ele>159.600006103515625</ele>
        <time>2026-08-13T08:38:55.000Z</time>
        <extensions>
          <ns3:TrackPointExtension>
            <ns3:hr>76</ns3:hr>
            <ns3:cad>43</ns3:cad>
          </ns3:TrackPointExtension>
        </extensions>
      </trkpt>
      <trkpt lat="43.7710746936500072479248046875" lon="1.5807263553142547607421875">
        <ele>159.600006103515625</ele>
        <time>2026-08-13T08:38:56.000Z</time>
        <extensions>
          <ns3:TrackPointExtension>
            <ns3:hr>76</ns3:hr>
            <ns3:cad>41</ns3:cad>
          </ns3:TrackPointExtension>
        </extensions>
      </trkpt>
      <trkpt lat="43.77108014188706874847412109375" lon="1.58071822486817836761474609375">
        <ele>159.600006103515625</ele>
        <time>2026-08-13T08:38:57.000Z</time>
        <extensions>
          <ns3:TrackPointExtension>
            <ns3:hr>76</ns3:hr>
            <ns3:cad>41</ns3:cad>
          </ns3:TrackPointExtension>
        </extensions>
      </trkpt>
      <trkpt lat="43.77108282409608364105224609375" lon="1.5807117708027362823486328125">
        <ele>159.600006103515625</ele>
        <time>2026-08-13T08:38:58.000Z</time>
        <extensions>
          <ns3:TrackPointExtension>
            <ns3:hr>76</ns3:hr>
            <ns3:cad>0</ns3:cad>
          </ns3:TrackPointExtension>
        </extensions>
      </trkpt>
      <trkpt lat="43.77109321765601634979248046875" lon="1.5806997008621692657470703125">
        <ele>159.600006103515625</ele>
        <time>2026-08-13T08:38:59.000Z</time>
        <extensions>
          <ns3:TrackPointExtension>
            <ns3:hr>77</ns3:hr>
            <ns3:cad>0</ns3:cad>
          </ns3:TrackPointExtension>
        </extensions>
      </trkpt>
      <trkpt lat="43.7710991688072681427001953125" lon="1.5806943364441394805908203125">
        <ele>159.600006103515625</ele>
        <time>2026-08-13T08:39:00.000Z</time>
        <extensions>
          <ns3:TrackPointExtension>
            <ns3:hr>76</ns3:hr>
            <ns3:cad>0</ns3:cad>
          </ns3:TrackPointExtension>
        </extensions>
      </trkpt>
      <trkpt lat="43.771101348102092742919921875" lon="1.580692492425441741943359375">
        <ele>159.600006103515625</ele>
        <time>2026-08-13T08:39:01.000Z</time>
        <extensions>
          <ns3:TrackPointExtension>
            <ns3:hr>76</ns3:hr>
            <ns3:cad>0</ns3:cad>
          </ns3:TrackPointExtension>
        </extensions>
      </trkpt>
      <trkpt lat="43.77111174166202545166015625" lon="1.580682434141635894775390625">
        <ele>159.600006103515625</ele>
        <time>2026-08-13T08:39:02.000Z</time>
        <extensions>
          <ns3:TrackPointExtension>
            <ns3:hr>76</ns3:hr>
            <ns3:cad>40</ns3:cad>
          </ns3:TrackPointExtension>
        </extensions>
      </trkpt>
      <trkpt lat="43.77112071029841899871826171875" lon="1.5806765668094158172607421875">
        <ele>159.600006103515625</ele>
        <time>2026-08-13T08:39:03.000Z</time>
        <extensions>
          <ns3:TrackPointExtension>
            <ns3:hr>75</ns3:hr>
            <ns3:cad>40</ns3:cad>
          </ns3:TrackPointExtension>
        </extensions>
      </trkpt>
      <trkpt lat="43.7711273320019245147705078125" lon="1.58067480660974979400634765625">
        <ele>159.600006103515625</ele>
        <time>2026-08-13T08:39:04.000Z</time>
        <extensions>
          <ns3:TrackPointExtension>
            <ns3:hr>74</ns3:hr>
            <ns3:cad>40</ns3:cad>
          </ns3:TrackPointExtension>
        </extensions>
      </trkpt>
      <trkpt lat="43.7711337022483348846435546875" lon="1.58067028038203716278076171875">
        <ele>159.600006103515625</ele>
        <time>2026-08-13T08:39:05.000Z</time>
        <extensions>
          <ns3:TrackPointExtension>
            <ns3:hr>73</ns3:hr>
            <ns3:cad>41</ns3:cad>
          </ns3:TrackPointExtension>
        </extensions>
      </trkpt>
      <trkpt lat="43.77114702947437763214111328125" lon="1.58066642470657825469970703125">
        <ele>159.399993896484375</ele>
        <time>2026-08-13T08:39:06.000Z</time>
        <extensions>
          <ns3:TrackPointExtension>
            <ns3:hr>73</ns3:hr>
            <ns3:cad>41</ns3:cad>
          </ns3:TrackPointExtension>
        </extensions>
      </trkpt>
      <trkpt lat="43.7711538188159465789794921875" lon="1.58066441304981708526611328125">
        <ele>159.399993896484375</ele>
        <time>2026-08-13T08:39:07.000Z</time>
        <extensions>
          <ns3:TrackPointExtension>
            <ns3:hr>73</ns3:hr>
            <ns3:cad>43</ns3:cad>
          </ns3:TrackPointExtension>
        </extensions>
      </trkpt>
      <trkpt lat="43.7711598537862300872802734375" lon="1.58066399395465850830078125">
        <ele>159.399993896484375</ele>
        <time>2026-08-13T08:39:08.000Z</time>
        <extensions>
          <ns3:TrackPointExtension>
            <ns3:hr>73</ns3:hr>
            <ns3:cad>43</ns3:cad>
          </ns3:TrackPointExtension>
        </extensions>
      </trkpt>
      <trkpt lat="43.7711672298610210418701171875" lon="1.5806608088314533233642578125">
        <ele>159.399993896484375</ele>
        <time>2026-08-13T08:39:09.000Z</time>
        <extensions>
          <ns3:TrackPointExtension>
            <ns3:hr>72</ns3:hr>
            <ns3:cad>43</ns3:cad>
          </ns3:TrackPointExtension>
        </extensions>
      </trkpt>
      <trkpt lat="43.7711792998015880584716796875" lon="1.5806524269282817840576171875">
        <ele>159.399993896484375</ele>
        <time>2026-08-13T08:39:10.000Z</time>
        <extensions>
          <ns3:TrackPointExtension>
            <ns3:hr>72</ns3:hr>
            <ns3:cad>43</ns3:cad>
          </ns3:TrackPointExtension>
        </extensions>
      </trkpt>
      <trkpt lat="43.7711863406002521514892578125" lon="1.58064748160541057586669921875">
        <ele>159.399993896484375</ele>
        <time>2026-08-13T08:39:11.000Z</time>
        <extensions>
          <ns3:TrackPointExtension>
            <ns3:hr>72</ns3:hr>
            <ns3:cad>43</ns3:cad>
          </ns3:TrackPointExtension>
        </extensions>
      </trkpt>
      <trkpt lat="43.77118818461894989013671875" lon="1.58064253628253936767578125">
        <ele>159.399993896484375</ele>
        <time>2026-08-13T08:39:12.000Z</time>
        <extensions>
          <ns3:TrackPointExtension>
            <ns3:hr>71</ns3:hr>
            <ns3:cad>42</ns3:cad>
          </ns3:TrackPointExtension>
        </extensions>
      </trkpt>
      <trkpt lat="43.7711977399885654449462890625" lon="1.5806351602077484130859375">
        <ele>159.399993896484375</ele>
        <time>2026-08-13T08:39:13.000Z</time>
        <extensions>
          <ns3:TrackPointExtension>
            <ns3:hr>71</ns3:hr>
            <ns3:cad>42</ns3:cad>
          </ns3:TrackPointExtension>
        </extensions>
      </trkpt>
      <trkpt lat="43.7712114863097667694091796875" lon="1.58062535338103771209716796875">
        <ele>159.399993896484375</ele>
        <time>2026-08-13T08:39:14.000Z</time>
        <extensions>
          <ns3:TrackPointExtension>
            <ns3:hr>71</ns3:hr>
            <ns3:cad>43</ns3:cad>
          </ns3:TrackPointExtension>
        </extensions>
      </trkpt>
      <trkpt lat="43.771220706403255462646484375" lon="1.58061797730624675750732421875">
        <ele>159.399993896484375</ele>
        <time>2026-08-13T08:39:15.000Z</time>
        <extensions>
          <ns3:TrackPointExtension>
            <ns3:hr>71</ns3:hr>
            <ns3:cad>43</ns3:cad>
          </ns3:TrackPointExtension>
        </extensions>
      </trkpt>
      <trkpt lat="43.77122716046869754791259765625" lon="1.5806162171065807342529296875">
        <ele>159.399993896484375</ele>
        <time>2026-08-13T08:39:16.000Z</time>
        <extensions>
          <ns3:TrackPointExtension>
            <ns3:hr>71</ns3:hr>
            <ns3:cad>43</ns3:cad>
          </ns3:TrackPointExtension>
        </extensions>
      </trkpt>
      <trkpt lat="43.7712359614670276641845703125" lon="1.58060825429856777191162109375">
        <ele>159.399993896484375</ele>
        <time>2026-08-13T08:39:17.000Z</time>
        <extensions>
          <ns3:TrackPointExtension>
            <ns3:hr>71</ns3:hr>
            <ns3:cad>44</ns3:cad>
          </ns3:TrackPointExtension>
        </extensions>
      </trkpt>
      <trkpt lat="43.77124761231243610382080078125" lon="1.58059819601476192474365234375">
        <ele>159.399993896484375</ele>
        <time>2026-08-13T08:39:18.000Z</time>
        <extensions>
          <ns3:TrackPointExtension>
            <ns3:hr>71</ns3:hr>
            <ns3:cad>46</ns3:cad>
          </ns3:TrackPointExtension>
        </extensions>
      </trkpt>
      <trkpt lat="43.77125297673046588897705078125" lon="1.58059333451092243194580078125">
        <ele>159.399993896484375</ele>
        <time>2026-08-13T08:39:19.000Z</time>
        <extensions>
          <ns3:TrackPointExtension>
            <ns3:hr>71</ns3:hr>
            <ns3:cad>46</ns3:cad>
          </ns3:TrackPointExtension>
        </extensions>
      </trkpt>
      <trkpt lat="43.77126219682395458221435546875" lon="1.5805893950164318084716796875">
        <ele>159.399993896484375</ele>
        <time>2026-08-13T08:39:20.000Z</time>
        <extensions>
          <ns3:TrackPointExtension>
            <ns3:hr>71</ns3:hr>
            <ns3:cad>46</ns3:cad>
          </ns3:TrackPointExtension>
        </extensions>
      </trkpt>
      <trkpt lat="43.771272003650665283203125" lon="1.58058411441743373870849609375">
        <ele>159.399993896484375</ele>
        <time>2026-08-13T08:39:21.000Z</time>
        <extensions>
          <ns3:TrackPointExtension>
            <ns3:hr>72</ns3:hr>
            <ns3:cad>46</ns3:cad>
          </ns3:TrackPointExtension>
        </extensions>
      </trkpt>
      <trkpt lat="43.7712800502777099609375" lon="1.5805803425610065460205078125">
        <ele>159.399993896484375</ele>
        <time>2026-08-13T08:39:22.000Z</time>
        <extensions>
          <ns3:TrackPointExtension>
            <ns3:hr>72</ns3:hr>
            <ns3:cad>47</ns3:cad>
          </ns3:TrackPointExtension>
        </extensions>
      </trkpt>
      <trkpt lat="43.771289102733135223388671875" lon="1.580573804676532745361328125">
        <ele>159.399993896484375</ele>
        <time>2026-08-13T08:39:23.000Z</time>
        <extensions>
          <ns3:TrackPointExtension>
            <ns3:hr>73</ns3:hr>
            <ns3:cad>47</ns3:cad>
          </ns3:TrackPointExtension>
        </extensions>
      </trkpt>
      <trkpt lat="43.7712929584085941314697265625" lon="1.58056718297302722930908203125">
        <ele>159.399993896484375</ele>
        <time>2026-08-13T08:39:24.000Z</time>
        <extensions>
          <ns3:TrackPointExtension>
            <ns3:hr>75</ns3:hr>
            <ns3:cad>47</ns3:cad>
          </ns3:TrackPointExtension>
        </extensions>
      </trkpt>
      <trkpt lat="43.7713016755878925323486328125" lon="1.58055846579372882843017578125">
        <ele>159.399993896484375</ele>
        <time>2026-08-13T08:39:25.000Z</time>
        <extensions>
          <ns3:TrackPointExtension>
            <ns3:hr>76</ns3:hr>
            <ns3:cad>46</ns3:cad>
          </ns3:TrackPointExtension>
        </extensions>
      </trkpt>
      <trkpt lat="43.7713127397000789642333984375" lon="1.58055125735700130462646484375">
        <ele>159.399993896484375</ele>
        <time>2026-08-13T08:39:26.000Z</time>
        <extensions>
          <ns3:TrackPointExtension>
            <ns3:hr>76</ns3:hr>
            <ns3:cad>46</ns3:cad>
          </ns3:TrackPointExtension>
        </extensions>
      </trkpt>
      <trkpt lat="43.771320618689060211181640625" lon="1.58054673112928867340087890625">
        <ele>159.399993896484375</ele>
        <time>2026-08-13T08:39:27.000Z</time>
        <extensions>
          <ns3:TrackPointExtension>
            <ns3:hr>77</ns3:hr>
            <ns3:cad>45</ns3:cad>
          </ns3:TrackPointExtension>
        </extensions>
      </trkpt>
      <trkpt lat="43.771324642002582550048828125" lon="1.580544300377368927001953125">
        <ele>159.399993896484375</ele>
        <time>2026-08-13T08:39:28.000Z</time>
        <extensions>
          <ns3:TrackPointExtension>
            <ns3:hr>78</ns3:hr>
            <ns3:cad>44</ns3:cad>
          </ns3:TrackPointExtension>
        </extensions>
      </trkpt>
      <trkpt lat="43.77133109606802463531494140625" lon="1.580534242093563079833984375">
        <ele>159.399993896484375</ele>
        <time>2026-08-13T08:39:29.000Z</time>
        <extensions>
          <ns3:TrackPointExtension>
            <ns3:hr>78</ns3:hr>
            <ns3:cad>44</ns3:cad>
          </ns3:TrackPointExtension>
        </extensions>
      </trkpt>
      <trkpt lat="43.77133880741894245147705078125" lon="1.58052275888621807098388671875">
        <ele>159.399993896484375</ele>
        <time>2026-08-13T08:39:30.000Z</time>
        <extensions>
          <ns3:TrackPointExtension>
            <ns3:hr>78</ns3:hr>
            <ns3:cad>44</ns3:cad>
          </ns3:TrackPointExtension>
        </extensions>
      </trkpt>
      <trkpt lat="43.77134433947503566741943359375" lon="1.58052091486752033233642578125">
        <ele>159.399993896484375</ele>
        <time>2026-08-13T08:39:31.000Z</time>
        <extensions>
          <ns3:TrackPointExtension>
            <ns3:hr>79</ns3:hr>
            <ns3:cad>44</ns3:cad>
          </ns3:TrackPointExtension>
        </extensions>
      </trkpt>
      <trkpt lat="43.7713445909321308135986328125" lon="1.580513454973697662353515625">
        <ele>159.399993896484375</ele>
        <time>2026-08-13T08:39:32.000Z</time>
        <extensions>
          <ns3:TrackPointExtension>
            <ns3:hr>79</ns3:hr>
            <ns3:cad>43</ns3:cad>
          </ns3:TrackPointExtension>
        </extensions>
      </trkpt>
      <trkpt lat="43.771355487406253814697265625" lon="1.5805005468428134918212890625">
        <ele>159.399993896484375</ele>
        <time>2026-08-13T08:39:33.000Z</time>
        <extensions>
          <ns3:TrackPointExtension>
            <ns3:hr>79</ns3:hr>
            <ns3:cad>43</ns3:cad>
          </ns3:TrackPointExtension>
        </extensions>
      </trkpt>
      <trkpt lat="43.771358840167522430419921875" lon="1.58048990182578563690185546875">
        <ele>159.399993896484375</ele>
        <time>2026-08-13T08:39:34.000Z</time>
        <extensions>
          <ns3:TrackPointExtension>
            <ns3:hr>78</ns3:hr>
            <ns3:cad>44</ns3:cad>
          </ns3:TrackPointExtension>
        </extensions>
      </trkpt>
      <trkpt lat="43.77136127091944217681884765625" lon="1.58048973418772220611572265625">
        <ele>159.399993896484375</ele>
        <time>2026-08-13T08:39:35.000Z</time>
        <extensions>
          <ns3:TrackPointExtension>
            <ns3:hr>79</ns3:hr>
            <ns3:cad>44</ns3:cad>
          </ns3:TrackPointExtension>
        </extensions>
      </trkpt>
      <trkpt lat="43.771373592317104339599609375" lon="1.580481268465518951416015625">
        <ele>159.399993896484375</ele>
        <time>2026-08-13T08:39:36.000Z</time>
        <extensions>
          <ns3:TrackPointExtension>
            <ns3:hr>79</ns3:hr>
            <ns3:cad>43</ns3:cad>
          </ns3:TrackPointExtension>
        </extensions>
      </trkpt>
      <trkpt lat="43.77137920819222927093505859375" lon="1.58047934062778949737548828125">
        <ele>159.399993896484375</ele>
        <time>2026-08-13T08:39:37.000Z</time>
        <extensions>
          <ns3:TrackPointExtension>
            <ns3:hr>79</ns3:hr>
            <ns3:cad>43</ns3:cad>
          </ns3:TrackPointExtension>
        </extensions>
      </trkpt>
      <trkpt lat="43.771384321153163909912109375" lon="1.58047196455299854278564453125">
        <ele>159.399993896484375</ele>
        <time>2026-08-13T08:39:38.000Z</time>
        <extensions>
          <ns3:TrackPointExtension>
            <ns3:hr>79</ns3:hr>
            <ns3:cad>41</ns3:cad>
          </ns3:TrackPointExtension>
        </extensions>
      </trkpt>
      <trkpt lat="43.77138960175216197967529296875" lon="1.58046475611627101898193359375">
        <ele>159.399993896484375</ele>
        <time>2026-08-13T08:39:39.000Z</time>
        <extensions>
          <ns3:TrackPointExtension>
            <ns3:hr>79</ns3:hr>
            <ns3:cad>41</ns3:cad>
          </ns3:TrackPointExtension>
        </extensions>
      </trkpt>
      <trkpt lat="43.77139471471309661865234375" lon="1.5804613195359706878662109375">
        <ele>159.399993896484375</ele>
        <time>2026-08-13T08:39:40.000Z</time>
        <extensions>
          <ns3:TrackPointExtension>
            <ns3:hr>79</ns3:hr>
            <ns3:cad>41</ns3:cad>
          </ns3:TrackPointExtension>
        </extensions>
      </trkpt>
      <trkpt lat="43.7714015878736972808837890625" lon="1.58045235089957714080810546875">
        <ele>159.399993896484375</ele>
        <time>2026-08-13T08:39:41.000Z</time>
        <extensions>
          <ns3:TrackPointExtension>
            <ns3:hr>80</ns3:hr>
            <ns3:cad>75</ns3:cad>
          </ns3:TrackPointExtension>
        </extensions>
      </trkpt>
      <trkpt lat="43.77141407690942287445068359375" lon="1.58043877221643924713134765625">
        <ele>159.399993896484375</ele>
        <time>2026-08-13T08:39:42.000Z</time>
        <extensions>
          <ns3:TrackPointExtension>
            <ns3:hr>79</ns3:hr>
            <ns3:cad>77</ns3:cad>
          </ns3:TrackPointExtension>
        </extensions>
      </trkpt>
      <trkpt lat="43.77142095007002353668212890625" lon="1.580427624285221099853515625">
        <ele>159.399993896484375</ele>
        <time>2026-08-13T08:39:43.000Z</time>
        <extensions>
          <ns3:TrackPointExtension>
            <ns3:hr>79</ns3:hr>
            <ns3:cad>77</ns3:cad>
          </ns3:TrackPointExtension>
        </extensions>
      </trkpt>
      <trkpt lat="43.771427236497402191162109375" lon="1.5804210864007472991943359375">
        <ele>159.399993896484375</ele>
        <time>2026-08-13T08:39:44.000Z</time>
        <extensions>
          <ns3:TrackPointExtension>
            <ns3:hr>80</ns3:hr>
            <ns3:cad>77</ns3:cad>
          </ns3:TrackPointExtension>
        </extensions>
      </trkpt>
      <trkpt lat="43.77143721096217632293701171875" lon="1.58041463233530521392822265625">
        <ele>159.399993896484375</ele>
        <time>2026-08-13T08:39:45.000Z</time>
        <extensions>
          <ns3:TrackPointExtension>
            <ns3:hr>79</ns3:hr>
            <ns3:cad>42</ns3:cad>
          </ns3:TrackPointExtension>
        </extensions>
      </trkpt>
      <trkpt lat="43.77144643105566501617431640625" lon="1.58041094429790973663330078125">
        <ele>159.399993896484375</ele>
        <time>2026-08-13T08:39:46.000Z</time>
        <extensions>
          <ns3:TrackPointExtension>
            <ns3:hr>79</ns3:hr>
            <ns3:cad>42</ns3:cad>
          </ns3:TrackPointExtension>
        </extensions>
      </trkpt>
      <trkpt lat="43.7714559026062488555908203125" lon="1.58040692098438739776611328125">
        <ele>159.399993896484375</ele>
        <time>2026-08-13T08:39:47.000Z</time>
        <extensions>
          <ns3:TrackPointExtension>
            <ns3:hr>79</ns3:hr>
            <ns3:cad>42</ns3:cad>
          </ns3:TrackPointExtension>
        </extensions>
      </trkpt>
      <trkpt lat="43.7714612670242786407470703125" lon="1.58040306530892848968505859375">
        <ele>159.399993896484375</ele>
        <time>2026-08-13T08:39:48.000Z</time>
        <extensions>
          <ns3:TrackPointExtension>
            <ns3:hr>79</ns3:hr>
            <ns3:cad>42</ns3:cad>
          </ns3:TrackPointExtension>
        </extensions>
      </trkpt>
      <trkpt lat="43.7714746780693531036376953125" lon="1.5803952701389789581298828125">
        <ele>159.399993896484375</ele>
        <time>2026-08-13T08:39:49.000Z</time>
        <extensions>
          <ns3:TrackPointExtension>
            <ns3:hr>79</ns3:hr>
            <ns3:cad>42</ns3:cad>
          </ns3:TrackPointExtension>
        </extensions>
      </trkpt>
      <trkpt lat="43.7714827246963977813720703125" lon="1.5803872235119342803955078125">
        <ele>159.399993896484375</ele>
        <time>2026-08-13T08:39:50.000Z</time>
        <extensions>
          <ns3:TrackPointExtension>
            <ns3:hr>79</ns3:hr>
            <ns3:cad>42</ns3:cad>
          </ns3:TrackPointExtension>
        </extensions>
      </trkpt>
      <trkpt lat="43.7714906036853790283203125" lon="1.58038395456969738006591796875">
        <ele>159.600006103515625</ele>
        <time>2026-08-13T08:39:51.000Z</time>
        <extensions>
          <ns3:TrackPointExtension>
            <ns3:hr>80</ns3:hr>
            <ns3:cad>42</ns3:cad>
          </ns3:TrackPointExtension>
        </extensions>
      </trkpt>
      <trkpt lat="43.77149739302694797515869140625" lon="1.580380685627460479736328125">
        <ele>159.399993896484375</ele>
        <time>2026-08-13T08:39:52.000Z</time>
        <extensions>
          <ns3:TrackPointExtension>
            <ns3:hr>79</ns3:hr>
            <ns3:cad>44</ns3:cad>
          </ns3:TrackPointExtension>
        </extensions>
      </trkpt>
      <trkpt lat="43.77150795422494411468505859375" lon="1.58037791959941387176513671875">
        <ele>159.399993896484375</ele>
        <time>2026-08-13T08:39:53.000Z</time>
        <extensions>
          <ns3:TrackPointExtension>
            <ns3:hr>80</ns3:hr>
            <ns3:cad>44</ns3:cad>
          </ns3:TrackPointExtension>
        </extensions>
      </trkpt>
      <trkpt lat="43.77151533029973506927490234375" lon="1.58037590794265270233154296875">
        <ele>159.399993896484375</ele>
        <time>2026-08-13T08:39:54.000Z</time>
        <extensions>
          <ns3:TrackPointExtension>
            <ns3:hr>80</ns3:hr>
            <ns3:cad>44</ns3:cad>
          </ns3:TrackPointExtension>
        </extensions>
      </trkpt>
      <trkpt lat="43.77152387984097003936767578125" lon="1.58038160763680934906005859375">
        <ele>159.399993896484375</ele>
        <time>2026-08-13T08:39:55.000Z</time>
        <extensions>
          <ns3:TrackPointExtension>
            <ns3:hr>81</ns3:hr>
            <ns3:cad>44</ns3:cad>
          </ns3:TrackPointExtension>
        </extensions>
      </trkpt>
      <trkpt lat="43.771527819335460662841796875" lon="1.58037439920008182525634765625">
        <ele>159.399993896484375</ele>
        <time>2026-08-13T08:39:56.000Z</time>
        <extensions>
          <ns3:TrackPointExtension>
            <ns3:hr>81</ns3:hr>
            <ns3:cad>43</ns3:cad>
          </ns3:TrackPointExtension>
        </extensions>
      </trkpt>
      <trkpt lat="43.7715283222496509552001953125" lon="1.58036802895367145538330078125">
        <ele>159.600006103515625</ele>
        <time>2026-08-13T08:39:57.000Z</time>
        <extensions>
          <ns3:TrackPointExtension>
            <ns3:hr>81</ns3:hr>
            <ns3:cad>43</ns3:cad>
          </ns3:TrackPointExtension>
        </extensions>
      </trkpt>
      <trkpt lat="43.77153217792510986328125" lon="1.58036216162145137786865234375">
        <ele>159.600006103515625</ele>
        <time>2026-08-13T08:39:58.000Z</time>
        <extensions>
          <ns3:TrackPointExtension>
            <ns3:hr>82</ns3:hr>
            <ns3:cad>0</ns3:cad>
          </ns3:TrackPointExtension>
        </extensions>
      </trkpt>
      <trkpt lat="43.771534524857997894287109375" lon="1.580365933477878570556640625">
        <ele>159.399993896484375</ele>
        <time>2026-08-13T08:39:59.000Z</time>
        <extensions>
          <ns3:TrackPointExtension>
            <ns3:hr>81</ns3:hr>
            <ns3:cad>0</ns3:cad>
          </ns3:TrackPointExtension>
        </extensions>
      </trkpt>
      <trkpt lat="43.7715377099812030792236328125" lon="1.58036484383046627044677734375">
        <ele>159.399993896484375</ele>
        <time>2026-08-13T08:40:00.000Z</time>
        <extensions>
          <ns3:TrackPointExtension>
            <ns3:hr>81</ns3:hr>
            <ns3:cad>0</ns3:cad>
          </ns3:TrackPointExtension>
        </extensions>
      </trkpt>
      <trkpt lat="43.771539889276027679443359375" lon="1.580365262925624847412109375">
        <ele>159.399993896484375</ele>
        <time>2026-08-13T08:40:01.000Z</time>
        <extensions>
          <ns3:TrackPointExtension>
            <ns3:hr>80</ns3:hr>
            <ns3:cad>0</ns3:cad>
          </ns3:TrackPointExtension>
        </extensions>
      </trkpt>
      <trkpt lat="43.77154516987502574920654296875" lon="1.580365262925624847412109375">
        <ele>159.399993896484375</ele>
        <time>2026-08-13T08:40:02.000Z</time>
        <extensions>
          <ns3:TrackPointExtension>
            <ns3:hr>80</ns3:hr>
            <ns3:cad>0</ns3:cad>
          </ns3:TrackPointExtension>
        </extensions>
      </trkpt>
      <trkpt lat="43.77155204303562641143798828125" lon="1.58036350272595882415771484375">
        <ele>159.399993896484375</ele>
        <time>2026-08-13T08:40:03.000Z</time>
        <extensions>
          <ns3:TrackPointExtension>
            <ns3:hr>80</ns3:hr>
            <ns3:cad>0</ns3:cad>
          </ns3:TrackPointExtension>
        </extensions>
      </trkpt>
      <trkpt lat="43.77155556343495845794677734375" lon="1.5803634189069271087646484375">
        <ele>159.399993896484375</ele>
        <time>2026-08-13T08:40:04.000Z</time>
        <extensions>
          <ns3:TrackPointExtension>
            <ns3:hr>79</ns3:hr>
            <ns3:cad>0</ns3:cad>
          </ns3:TrackPointExtension>
        </extensions>
      </trkpt>
      <trkpt lat="43.77156637609004974365234375" lon="1.5803550370037555694580078125">
        <ele>159.399993896484375</ele>
        <time>2026-08-13T08:40:05.000Z</time>
        <extensions>
          <ns3:TrackPointExtension>
            <ns3:hr>79</ns3:hr>
            <ns3:cad>0</ns3:cad>
          </ns3:TrackPointExtension>
        </extensions>
      </trkpt>
      <trkpt lat="43.77157266251742839813232421875" lon="1.580351851880550384521484375">
        <ele>159.399993896484375</ele>
        <time>2026-08-13T08:40:06.000Z</time>
        <extensions>
          <ns3:TrackPointExtension>
            <ns3:hr>80</ns3:hr>
            <ns3:cad>0</ns3:cad>
          </ns3:TrackPointExtension>
        </extensions>
      </trkpt>
      <trkpt lat="43.77157735638320446014404296875" lon="1.58035109750926494598388671875">
        <ele>159.399993896484375</ele>
        <time>2026-08-13T08:40:07.000Z</time>
        <extensions>
          <ns3:TrackPointExtension>
            <ns3:hr>80</ns3:hr>
            <ns3:cad>0</ns3:cad>
          </ns3:TrackPointExtension>
        </extensions>
      </trkpt>
      <trkpt lat="43.7715863250195980072021484375" lon="1.58034455962479114532470703125">
        <ele>159.1999969482421875</ele>
        <time>2026-08-13T08:40:08.000Z</time>
        <extensions>
          <ns3:TrackPointExtension>
            <ns3:hr>81</ns3:hr>
            <ns3:cad>0</ns3:cad>
          </ns3:TrackPointExtension>
        </extensions>
      </trkpt>
      <trkpt lat="43.77159378491342067718505859375" lon="1.5803379379212856292724609375">
        <ele>159.399993896484375</ele>
        <time>2026-08-13T08:40:09.000Z</time>
        <extensions>
          <ns3:TrackPointExtension>
            <ns3:hr>82</ns3:hr>
            <ns3:cad>0</ns3:cad>
          </ns3:TrackPointExtension>
        </extensions>
      </trkpt>
      <trkpt lat="43.77159722149372100830078125" lon="1.58033617772161960601806640625">
        <ele>159.399993896484375</ele>
        <time>2026-08-13T08:40:10.000Z</time>
        <extensions>
          <ns3:TrackPointExtension>
            <ns3:hr>82</ns3:hr>
            <ns3:cad>0</ns3:cad>
          </ns3:TrackPointExtension>
        </extensions>
      </trkpt>
      <trkpt lat="43.771606273949146270751953125" lon="1.580331064760684967041015625">
        <ele>159.399993896484375</ele>
        <time>2026-08-13T08:40:11.000Z</time>
        <extensions>
          <ns3:TrackPointExtension>
            <ns3:hr>82</ns3:hr>
            <ns3:cad>0</ns3:cad>
          </ns3:TrackPointExtension>
        </extensions>
      </trkpt>
      <trkpt lat="43.7716128118336200714111328125" lon="1.58032695762813091278076171875">
        <ele>159.399993896484375</ele>
        <time>2026-08-13T08:40:12.000Z</time>
        <extensions>
          <ns3:TrackPointExtension>
            <ns3:hr>81</ns3:hr>
            <ns3:cad>42</ns3:cad>
          </ns3:TrackPointExtension>
        </extensions>
      </trkpt>
      <trkpt lat="43.77161809243261814117431640625" lon="1.5803251974284648895263671875">
        <ele>159.399993896484375</ele>
        <time>2026-08-13T08:40:13.000Z</time>
        <extensions>
          <ns3:TrackPointExtension>
            <ns3:hr>81</ns3:hr>
            <ns3:cad>42</ns3:cad>
          </ns3:TrackPointExtension>
        </extensions>
      </trkpt>
      <trkpt lat="43.771620690822601318359375" lon="1.58032427541911602020263671875">
        <ele>159.399993896484375</ele>
        <time>2026-08-13T08:40:14.000Z</time>
        <extensions>
          <ns3:TrackPointExtension>
            <ns3:hr>80</ns3:hr>
            <ns3:cad>40</ns3:cad>
          </ns3:TrackPointExtension>
        </extensions>
      </trkpt>
      <trkpt lat="43.77162245102226734161376953125" lon="1.5803225152194499969482421875">
        <ele>159.1999969482421875</ele>
        <time>2026-08-13T08:40:15.000Z</time>
        <extensions>
          <ns3:TrackPointExtension>
            <ns3:hr>80</ns3:hr>
            <ns3:cad>0</ns3:cad>
          </ns3:TrackPointExtension>
        </extensions>
      </trkpt>
      <trkpt lat="43.77162463031709194183349609375" lon="1.5803181566298007965087890625">
        <ele>159.1999969482421875</ele>
        <time>2026-08-13T08:40:16.000Z</time>
        <extensions>
          <ns3:TrackPointExtension>
            <ns3:hr>79</ns3:hr>
            <ns3:cad>0</ns3:cad>
          </ns3:TrackPointExtension>
        </extensions>
      </trkpt>
      <trkpt lat="43.77162806689739227294921875" lon="1.58031019382178783416748046875">
        <ele>159.1999969482421875</ele>
        <time>2026-08-13T08:40:17.000Z</time>
        <extensions>
          <ns3:TrackPointExtension>
            <ns3:hr>78</ns3:hr>
            <ns3:cad>0</ns3:cad>
          </ns3:TrackPointExtension>
        </extensions>
      </trkpt>
      <trkpt lat="43.7716302461922168731689453125" lon="1.58030650578439235687255859375">
        <ele>159.1999969482421875</ele>
        <time>2026-08-13T08:40:18.000Z</time>
        <extensions>
          <ns3:TrackPointExtension>
            <ns3:hr>77</ns3:hr>
            <ns3:cad>0</ns3:cad>
          </ns3:TrackPointExtension>
        </extensions>
      </trkpt>
      <trkpt lat="43.77163209021091461181640625" lon="1.580300219357013702392578125">
        <ele>159.1999969482421875</ele>
        <time>2026-08-13T08:40:19.000Z</time>
        <extensions>
          <ns3:TrackPointExtension>
            <ns3:hr>77</ns3:hr>
            <ns3:cad>0</ns3:cad>
          </ns3:TrackPointExtension>
        </extensions>
      </trkpt>
      <trkpt lat="43.771635778248310089111328125" lon="1.5802945196628570556640625">
        <ele>159.399993896484375</ele>
        <time>2026-08-13T08:40:20.000Z</time>
        <extensions>
          <ns3:TrackPointExtension>
            <ns3:hr>77</ns3:hr>
            <ns3:cad>0</ns3:cad>
          </ns3:TrackPointExtension>
        </extensions>
      </trkpt>
      <trkpt lat="43.77163871191442012786865234375" lon="1.58029326237738132476806640625">
        <ele>159.399993896484375</ele>
        <time>2026-08-13T08:40:21.000Z</time>
        <extensions>
          <ns3:TrackPointExtension>
            <ns3:hr>77</ns3:hr>
            <ns3:cad>0</ns3:cad>
          </ns3:TrackPointExtension>
        </extensions>
      </trkpt>
      <trkpt lat="43.77165413461625576019287109375" lon="1.58029158599674701690673828125">
        <ele>159.399993896484375</ele>
        <time>2026-08-13T08:40:22.000Z</time>
        <extensions>
          <ns3:TrackPointExtension>
            <ns3:hr>78</ns3:hr>
            <ns3:cad>0</ns3:cad>
          </ns3:TrackPointExtension>
        </extensions>
      </trkpt>
      <trkpt lat="43.771663606166839599609375" lon="1.58028890378773212432861328125">
        <ele>159.399993896484375</ele>
        <time>2026-08-13T08:40:23.000Z</time>
        <extensions>
          <ns3:TrackPointExtension>
            <ns3:hr>78</ns3:hr>
            <ns3:cad>0</ns3:cad>
          </ns3:TrackPointExtension>
        </extensions>
      </trkpt>
      <trkpt lat="43.77166964113712310791015625" lon="1.58028856851160526275634765625">
        <ele>159.399993896484375</ele>
        <time>2026-08-13T08:40:24.000Z</time>
        <extensions>
          <ns3:TrackPointExtension>
            <ns3:hr>77</ns3:hr>
            <ns3:cad>0</ns3:cad>
          </ns3:TrackPointExtension>
        </extensions>
      </trkpt>
      <trkpt lat="43.77167768776416778564453125" lon="1.58027817495167255401611328125">
        <ele>159.399993896484375</ele>
        <time>2026-08-13T08:40:25.000Z</time>
        <extensions>
          <ns3:TrackPointExtension>
            <ns3:hr>78</ns3:hr>
            <ns3:cad>0</ns3:cad>
          </ns3:TrackPointExtension>
        </extensions>
      </trkpt>
      <trkpt lat="43.77168699167668819427490234375" lon="1.58027105033397674560546875">
        <ele>159.399993896484375</ele>
        <time>2026-08-13T08:40:26.000Z</time>
        <extensions>
          <ns3:TrackPointExtension>
            <ns3:hr>78</ns3:hr>
            <ns3:cad>0</ns3:cad>
          </ns3:TrackPointExtension>
        </extensions>
      </trkpt>
      <trkpt lat="43.77169311046600341796875" lon="1.58026459626853466033935546875">
        <ele>159.399993896484375</ele>
        <time>2026-08-13T08:40:27.000Z</time>
        <extensions>
          <ns3:TrackPointExtension>
            <ns3:hr>79</ns3:hr>
            <ns3:cad>40</ns3:cad>
          </ns3:TrackPointExtension>
        </extensions>
      </trkpt>
      <trkpt lat="43.771694786846637725830078125" lon="1.58025956712663173675537109375">
        <ele>159.399993896484375</ele>
        <time>2026-08-13T08:40:28.000Z</time>
        <extensions>
          <ns3:TrackPointExtension>
            <ns3:hr>79</ns3:hr>
            <ns3:cad>40</ns3:cad>
          </ns3:TrackPointExtension>
        </extensions>
      </trkpt>
      <trkpt lat="43.77170182764530181884765625" lon="1.58025286160409450531005859375">
        <ele>159.399993896484375</ele>
        <time>2026-08-13T08:40:29.000Z</time>
        <extensions>
          <ns3:TrackPointExtension>
            <ns3:hr>79</ns3:hr>
            <ns3:cad>40</ns3:cad>
          </ns3:TrackPointExtension>
        </extensions>
      </trkpt>
      <trkpt lat="43.7717056833207607269287109375" lon="1.58024649135768413543701171875">
        <ele>159.399993896484375</ele>
        <time>2026-08-13T08:40:30.000Z</time>
        <extensions>
          <ns3:TrackPointExtension>
            <ns3:hr>79</ns3:hr>
            <ns3:cad>42</ns3:cad>
          </ns3:TrackPointExtension>
        </extensions>
      </trkpt>
      <trkpt lat="43.77171247266232967376708984375" lon="1.580242551863193511962890625">
        <ele>159.399993896484375</ele>
        <time>2026-08-13T08:40:31.000Z</time>
        <extensions>
          <ns3:TrackPointExtension>
            <ns3:hr>80</ns3:hr>
            <ns3:cad>43</ns3:cad>
          </ns3:TrackPointExtension>
        </extensions>
      </trkpt>
      <trkpt lat="43.77172286622226238250732421875" lon="1.58023442141711711883544921875">
        <ele>159.399993896484375</ele>
        <time>2026-08-13T08:40:32.000Z</time>
        <extensions>
          <ns3:TrackPointExtension>
            <ns3:hr>79</ns3:hr>
            <ns3:cad>43</ns3:cad>
          </ns3:TrackPointExtension>
        </extensions>
      </trkpt>
      <trkpt lat="43.77173133194446563720703125" lon="1.58022738061845302581787109375">
        <ele>159.399993896484375</ele>
        <time>2026-08-13T08:40:33.000Z</time>
        <extensions>
          <ns3:TrackPointExtension>
            <ns3:hr>79</ns3:hr>
            <ns3:cad>43</ns3:cad>
          </ns3:TrackPointExtension>
        </extensions>
      </trkpt>
      <trkpt lat="43.77173644490540027618408203125" lon="1.58022084273397922515869140625">
        <ele>159.399993896484375</ele>
        <time>2026-08-13T08:40:34.000Z</time>
        <extensions>
          <ns3:TrackPointExtension>
            <ns3:hr>79</ns3:hr>
            <ns3:cad>43</ns3:cad>
          </ns3:TrackPointExtension>
        </extensions>
      </trkpt>
      <trkpt lat="43.77174742519855499267578125" lon="1.58021195791661739349365234375">
        <ele>159.399993896484375</ele>
        <time>2026-08-13T08:40:35.000Z</time>
        <extensions>
          <ns3:TrackPointExtension>
            <ns3:hr>79</ns3:hr>
            <ns3:cad>42</ns3:cad>
          </ns3:TrackPointExtension>
        </extensions>
      </trkpt>
      <trkpt lat="43.77175169996917247772216796875" lon="1.580209694802761077880859375">
        <ele>159.399993896484375</ele>
        <time>2026-08-13T08:40:36.000Z</time>
        <extensions>
          <ns3:TrackPointExtension>
            <ns3:hr>79</ns3:hr>
            <ns3:cad>41</ns3:cad>
          </ns3:TrackPointExtension>
        </extensions>
      </trkpt>
      <trkpt lat="43.77175890840590000152587890625" lon="1.5802061744034290313720703125">
        <ele>159.399993896484375</ele>
        <time>2026-08-13T08:40:37.000Z</time>
        <extensions>
          <ns3:TrackPointExtension>
            <ns3:hr>79</ns3:hr>
            <ns3:cad>41</ns3:cad>
          </ns3:TrackPointExtension>
        </extensions>
      </trkpt>
      <trkpt lat="43.77176846377551555633544921875" lon="1.58019385300576686859130859375">
        <ele>159.399993896484375</ele>
        <time>2026-08-13T08:40:38.000Z</time>
        <extensions>
          <ns3:TrackPointExtension>
            <ns3:hr>78</ns3:hr>
            <ns3:cad>79</ns3:cad>
          </ns3:TrackPointExtension>
        </extensions>
      </trkpt>
      <trkpt lat="43.77177550457417964935302734375" lon="1.58018387854099273681640625">
        <ele>159.399993896484375</ele>
        <time>2026-08-13T08:40:39.000Z</time>
        <extensions>
          <ns3:TrackPointExtension>
            <ns3:hr>78</ns3:hr>
            <ns3:cad>79</ns3:cad>
          </ns3:TrackPointExtension>
        </extensions>
      </trkpt>
      <trkpt lat="43.77177885733544826507568359375" lon="1.5801791846752166748046875">
        <ele>159.399993896484375</ele>
        <time>2026-08-13T08:40:40.000Z</time>
        <extensions>
          <ns3:TrackPointExtension>
            <ns3:hr>78</ns3:hr>
            <ns3:cad>79</ns3:cad>
          </ns3:TrackPointExtension>
        </extensions>
      </trkpt>
      <trkpt lat="43.7717871554195880889892578125" lon="1.5801696293056011199951171875">
        <ele>159.399993896484375</ele>
        <time>2026-08-13T08:40:41.000Z</time>
        <extensions>
          <ns3:TrackPointExtension>
            <ns3:hr>78</ns3:hr>
            <ns3:cad>41</ns3:cad>
          </ns3:TrackPointExtension>
        </extensions>
      </trkpt>
      <trkpt lat="43.7717935256659984588623046875" lon="1.58016451634466648101806640625">
        <ele>159.399993896484375</ele>
        <time>2026-08-13T08:40:42.000Z</time>
        <extensions>
          <ns3:TrackPointExtension>
            <ns3:hr>78</ns3:hr>
            <ns3:cad>0</ns3:cad>
          </ns3:TrackPointExtension>
        </extensions>
      </trkpt>
      <trkpt lat="43.7717910110950469970703125" lon="1.58015496097505092620849609375">
        <ele>159.600006103515625</ele>
        <time>2026-08-13T08:40:43.000Z</time>
        <extensions>
          <ns3:TrackPointExtension>
            <ns3:hr>77</ns3:hr>
            <ns3:cad>41</ns3:cad>
          </ns3:TrackPointExtension>
        </extensions>
      </trkpt>
      <trkpt lat="43.77179897390305995941162109375" lon="1.58014456741511821746826171875">
        <ele>159.600006103515625</ele>
        <time>2026-08-13T08:40:44.000Z</time>
        <extensions>
          <ns3:TrackPointExtension>
            <ns3:hr>77</ns3:hr>
            <ns3:cad>74</ns3:cad>
          </ns3:TrackPointExtension>
        </extensions>
      </trkpt>
      <trkpt lat="43.77180333249270915985107421875" lon="1.5801401250064373016357421875">
        <ele>159.600006103515625</ele>
        <time>2026-08-13T08:40:45.000Z</time>
        <extensions>
          <ns3:TrackPointExtension>
            <ns3:hr>77</ns3:hr>
            <ns3:cad>74</ns3:cad>
          </ns3:TrackPointExtension>
        </extensions>
      </trkpt>
      <trkpt lat="43.77180785872042179107666015625" lon="1.5801347605884075164794921875">
        <ele>159.399993896484375</ele>
        <time>2026-08-13T08:40:46.000Z</time>
        <extensions>
          <ns3:TrackPointExtension>
            <ns3:hr>76</ns3:hr>
            <ns3:cad>74</ns3:cad>
          </ns3:TrackPointExtension>
        </extensions>
      </trkpt>
      <trkpt lat="43.7718176655471324920654296875" lon="1.58012294210493564605712890625">
        <ele>159.399993896484375</ele>
        <time>2026-08-13T08:40:47.000Z</time>
        <extensions>
          <ns3:TrackPointExtension>
            <ns3:hr>76</ns3:hr>
            <ns3:cad>75</ns3:cad>
          </ns3:TrackPointExtension>
        </extensions>
      </trkpt>
      <trkpt lat="43.771826215088367462158203125" lon="1.58011657185852527618408203125">
        <ele>159.600006103515625</ele>
        <time>2026-08-13T08:40:48.000Z</time>
        <extensions>
          <ns3:TrackPointExtension>
            <ns3:hr>74</ns3:hr>
            <ns3:cad>75</ns3:cad>
          </ns3:TrackPointExtension>
        </extensions>
      </trkpt>
      <trkpt lat="43.77183484844863414764404296875" lon="1.5801126323640346527099609375">
        <ele>159.600006103515625</ele>
        <time>2026-08-13T08:40:49.000Z</time>
        <extensions>
          <ns3:TrackPointExtension>
            <ns3:hr>73</ns3:hr>
            <ns3:cad>79</ns3:cad>
          </ns3:TrackPointExtension>
        </extensions>
      </trkpt>
      <trkpt lat="43.7718458287417888641357421875" lon="1.58010684885084629058837890625">
        <ele>159.600006103515625</ele>
        <time>2026-08-13T08:40:50.000Z</time>
        <extensions>
          <ns3:TrackPointExtension>
            <ns3:hr>73</ns3:hr>
            <ns3:cad>79</ns3:cad>
          </ns3:TrackPointExtension>
        </extensions>
      </trkpt>
      <trkpt lat="43.77185312099754810333251953125" lon="1.58010081388056278228759765625">
        <ele>159.600006103515625</ele>
        <time>2026-08-13T08:40:51.000Z</time>
        <extensions>
          <ns3:TrackPointExtension>
            <ns3:hr>73</ns3:hr>
            <ns3:cad>41</ns3:cad>
          </ns3:TrackPointExtension>
        </extensions>
      </trkpt>
      <trkpt lat="43.77185714431107044219970703125" lon="1.58010014332830905914306640625">
        <ele>159.600006103515625</ele>
        <time>2026-08-13T08:40:52.000Z</time>
        <extensions>
          <ns3:TrackPointExtension>
            <ns3:hr>74</ns3:hr>
            <ns3:cad>41</ns3:cad>
          </ns3:TrackPointExtension>
        </extensions>
      </trkpt>
      <trkpt lat="43.77186535857617855072021484375" lon="1.5800928510725498199462890625">
        <ele>159.600006103515625</ele>
        <time>2026-08-13T08:40:53.000Z</time>
        <extensions>
          <ns3:TrackPointExtension>
            <ns3:hr>74</ns3:hr>
            <ns3:cad>41</ns3:cad>
          </ns3:TrackPointExtension>
        </extensions>
      </trkpt>
      <trkpt lat="43.77187172882258892059326171875" lon="1.580084972083568572998046875">
        <ele>159.600006103515625</ele>
        <time>2026-08-13T08:40:54.000Z</time>
        <extensions>
          <ns3:TrackPointExtension>
            <ns3:hr>74</ns3:hr>
            <ns3:cad>41</ns3:cad>
          </ns3:TrackPointExtension>
        </extensions>
      </trkpt>
      <trkpt lat="43.7718770094215869903564453125" lon="1.5800853073596954345703125">
        <ele>159.600006103515625</ele>
        <time>2026-08-13T08:40:55.000Z</time>
        <extensions>
          <ns3:TrackPointExtension>
            <ns3:hr>73</ns3:hr>
            <ns3:cad>41</ns3:cad>
          </ns3:TrackPointExtension>
        </extensions>
      </trkpt>
      <trkpt lat="43.77188648097217082977294921875" lon="1.58007793128490447998046875">
        <ele>159.600006103515625</ele>
        <time>2026-08-13T08:40:56.000Z</time>
        <extensions>
          <ns3:TrackPointExtension>
            <ns3:hr>73</ns3:hr>
            <ns3:cad>41</ns3:cad>
          </ns3:TrackPointExtension>
        </extensions>
      </trkpt>
      <trkpt lat="43.77189184539020061492919921875" lon="1.58007256686687469482421875">
        <ele>159.600006103515625</ele>
        <time>2026-08-13T08:40:57.000Z</time>
        <extensions>
          <ns3:TrackPointExtension>
            <ns3:hr>73</ns3:hr>
            <ns3:cad>41</ns3:cad>
          </ns3:TrackPointExtension>
        </extensions>
      </trkpt>
      <trkpt lat="43.771895281970500946044921875" lon="1.58006929792463779449462890625">
        <ele>159.600006103515625</ele>
        <time>2026-08-13T08:40:58.000Z</time>
        <extensions>
          <ns3:TrackPointExtension>
            <ns3:hr>73</ns3:hr>
            <ns3:cad>40</ns3:cad>
          </ns3:TrackPointExtension>
        </extensions>
      </trkpt>
      <trkpt lat="43.77190022729337215423583984375" lon="1.580060832202434539794921875">
        <ele>159.600006103515625</ele>
        <time>2026-08-13T08:40:59.000Z</time>
        <extensions>
          <ns3:TrackPointExtension>
            <ns3:hr>74</ns3:hr>
            <ns3:cad>40</ns3:cad>
          </ns3:TrackPointExtension>
        </extensions>
      </trkpt>
      <trkpt lat="43.7719068489968776702880859375" lon="1.580054797232151031494140625">
        <ele>159.600006103515625</ele>
        <time>2026-08-13T08:41:00.000Z</time>
        <extensions>
          <ns3:TrackPointExtension>
            <ns3:hr>74</ns3:hr>
            <ns3:cad>40</ns3:cad>
          </ns3:TrackPointExtension>
        </extensions>
      </trkpt>
      <trkpt lat="43.77191246487200260162353515625" lon="1.58005370758473873138427734375">
        <ele>159.600006103515625</ele>
        <time>2026-08-13T08:41:01.000Z</time>
        <extensions>
          <ns3:TrackPointExtension>
            <ns3:hr>74</ns3:hr>
            <ns3:cad>41</ns3:cad>
          </ns3:TrackPointExtension>
        </extensions>
      </trkpt>
      <trkpt lat="43.77191967330873012542724609375" lon="1.5800450742244720458984375">
        <ele>159.600006103515625</ele>
        <time>2026-08-13T08:41:02.000Z</time>
        <extensions>
          <ns3:TrackPointExtension>
            <ns3:hr>74</ns3:hr>
            <ns3:cad>41</ns3:cad>
          </ns3:TrackPointExtension>
        </extensions>
      </trkpt>
      <trkpt lat="43.77192922867834568023681640625" lon="1.58003627322614192962646484375">
        <ele>159.600006103515625</ele>
        <time>2026-08-13T08:41:03.000Z</time>
        <extensions>
          <ns3:TrackPointExtension>
            <ns3:hr>74</ns3:hr>
            <ns3:cad>41</ns3:cad>
          </ns3:TrackPointExtension>
        </extensions>
      </trkpt>
      <trkpt lat="43.77193677239120006561279296875" lon="1.5800355188548564910888671875">
        <ele>159.600006103515625</ele>
        <time>2026-08-13T08:41:04.000Z</time>
        <extensions>
          <ns3:TrackPointExtension>
            <ns3:hr>74</ns3:hr>
            <ns3:cad>41</ns3:cad>
          </ns3:TrackPointExtension>
        </extensions>
      </trkpt>
      <trkpt lat="43.7719457410275936126708984375" lon="1.58002856187522411346435546875">
        <ele>159.600006103515625</ele>
        <time>2026-08-13T08:41:05.000Z</time>
        <extensions>
          <ns3:TrackPointExtension>
            <ns3:hr>73</ns3:hr>
            <ns3:cad>0</ns3:cad>
          </ns3:TrackPointExtension>
        </extensions>
      </trkpt>
      <trkpt lat="43.77195655368268489837646484375" lon="1.58001883886754512786865234375">
        <ele>159.600006103515625</ele>
        <time>2026-08-13T08:41:06.000Z</time>
        <extensions>
          <ns3:TrackPointExtension>
            <ns3:hr>72</ns3:hr>
            <ns3:cad>0</ns3:cad>
          </ns3:TrackPointExtension>
        </extensions>
      </trkpt>
      <trkpt lat="43.771964013576507568359375" lon="1.580013893544673919677734375">
        <ele>159.600006103515625</ele>
        <time>2026-08-13T08:41:07.000Z</time>
        <extensions>
          <ns3:TrackPointExtension>
            <ns3:hr>71</ns3:hr>
            <ns3:cad>0</ns3:cad>
          </ns3:TrackPointExtension>
        </extensions>
      </trkpt>
      <trkpt lat="43.77197030000388622283935546875" lon="1.58000693656504154205322265625">
        <ele>159.8000030517578125</ele>
        <time>2026-08-13T08:41:08.000Z</time>
        <extensions>
          <ns3:TrackPointExtension>
            <ns3:hr>71</ns3:hr>
            <ns3:cad>40</ns3:cad>
          </ns3:TrackPointExtension>
        </extensions>
      </trkpt>
      <trkpt lat="43.77198270522058010101318359375" lon="1.57999771647155284881591796875">
        <ele>159.8000030517578125</ele>
        <time>2026-08-13T08:41:09.000Z</time>
        <extensions>
          <ns3:TrackPointExtension>
            <ns3:hr>71</ns3:hr>
            <ns3:cad>40</ns3:cad>
          </ns3:TrackPointExtension>
        </extensions>
      </trkpt>
      <trkpt lat="43.7719866447150707244873046875" lon="1.5799983032047748565673828125">
        <ele>159.8000030517578125</ele>
        <time>2026-08-13T08:41:10.000Z</time>
        <extensions>
          <ns3:TrackPointExtension>
            <ns3:hr>72</ns3:hr>
            <ns3:cad>40</ns3:cad>
          </ns3:TrackPointExtension>
        </extensions>
      </trkpt>
      <trkpt lat="43.7719916738569736480712890625" lon="1.5799932740628719329833984375">
        <ele>160</ele>
        <time>2026-08-13T08:41:11.000Z</time>
        <extensions>
          <ns3:TrackPointExtension>
            <ns3:hr>71</ns3:hr>
            <ns3:cad>0</ns3:cad>
          </ns3:TrackPointExtension>
        </extensions>
      </trkpt>
      <trkpt lat="43.77200550399720668792724609375" lon="1.579984724521636962890625">
        <ele>160</ele>
        <time>2026-08-13T08:41:12.000Z</time>
        <extensions>
          <ns3:TrackPointExtension>
            <ns3:hr>71</ns3:hr>
            <ns3:cad>0</ns3:cad>
          </ns3:TrackPointExtension>
        </extensions>
      </trkpt>
      <trkpt lat="43.77201237715780735015869140625" lon="1.57997793518006801605224609375">
        <ele>160</ele>
        <time>2026-08-13T08:41:13.000Z</time>
        <extensions>
          <ns3:TrackPointExtension>
            <ns3:hr>72</ns3:hr>
            <ns3:cad>0</ns3:cad>
          </ns3:TrackPointExtension>
        </extensions>
      </trkpt>
      <trkpt lat="43.7720208428800106048583984375" lon="1.57997190020978450775146484375">
        <ele>159.8000030517578125</ele>
        <time>2026-08-13T08:41:14.000Z</time>
        <extensions>
          <ns3:TrackPointExtension>
            <ns3:hr>72</ns3:hr>
            <ns3:cad>0</ns3:cad>
          </ns3:TrackPointExtension>
        </extensions>
      </trkpt>
      <trkpt lat="43.7720298953354358673095703125" lon="1.5799641050398349761962890625">
        <ele>159.8000030517578125</ele>
        <time>2026-08-13T08:41:15.000Z</time>
        <extensions>
          <ns3:TrackPointExtension>
            <ns3:hr>72</ns3:hr>
            <ns3:cad>0</ns3:cad>
          </ns3:TrackPointExtension>
        </extensions>
      </trkpt>
      <trkpt lat="43.7720379419624805450439453125" lon="1.579956896603107452392578125">
        <ele>159.8000030517578125</ele>
        <time>2026-08-13T08:41:16.000Z</time>
        <extensions>
          <ns3:TrackPointExtension>
            <ns3:hr>72</ns3:hr>
            <ns3:cad>0</ns3:cad>
          </ns3:TrackPointExtension>
        </extensions>
      </trkpt>
      <trkpt lat="43.77204204909503459930419921875" lon="1.579952202737331390380859375">
        <ele>159.8000030517578125</ele>
        <time>2026-08-13T08:41:17.000Z</time>
        <extensions>
          <ns3:TrackPointExtension>
            <ns3:hr>71</ns3:hr>
            <ns3:cad>0</ns3:cad>
          </ns3:TrackPointExtension>
        </extensions>
      </trkpt>
      <trkpt lat="43.77204783260822296142578125" lon="1.57994650304317474365234375">
        <ele>159.8000030517578125</ele>
        <time>2026-08-13T08:41:18.000Z</time>
        <extensions>
          <ns3:TrackPointExtension>
            <ns3:hr>72</ns3:hr>
            <ns3:cad>41</ns3:cad>
          </ns3:TrackPointExtension>
        </extensions>
      </trkpt>
      <trkpt lat="43.7720538675785064697265625" lon="1.57993887551128864288330078125">
        <ele>159.8000030517578125</ele>
        <time>2026-08-13T08:41:19.000Z</time>
        <extensions>
          <ns3:TrackPointExtension>
            <ns3:hr>72</ns3:hr>
            <ns3:cad>41</ns3:cad>
          </ns3:TrackPointExtension>
        </extensions>
      </trkpt>
      <trkpt lat="43.77205990254878997802734375" lon="1.5799352712929248809814453125">
        <ele>159.8000030517578125</ele>
        <time>2026-08-13T08:41:20.000Z</time>
        <extensions>
          <ns3:TrackPointExtension>
            <ns3:hr>73</ns3:hr>
            <ns3:cad>41</ns3:cad>
          </ns3:TrackPointExtension>
        </extensions>
      </trkpt>
      <trkpt lat="43.77206685952842235565185546875" lon="1.5799302421510219573974609375">
        <ele>159.8000030517578125</ele>
        <time>2026-08-13T08:41:21.000Z</time>
        <extensions>
          <ns3:TrackPointExtension>
            <ns3:hr>73</ns3:hr>
            <ns3:cad>42</ns3:cad>
          </ns3:TrackPointExtension>
        </extensions>
      </trkpt>
      <trkpt lat="43.77207306213676929473876953125" lon="1.5799238719046115875244140625">
        <ele>159.8000030517578125</ele>
        <time>2026-08-13T08:41:22.000Z</time>
        <extensions>
          <ns3:TrackPointExtension>
            <ns3:hr>74</ns3:hr>
            <ns3:cad>42</ns3:cad>
          </ns3:TrackPointExtension>
        </extensions>
      </trkpt>
      <trkpt lat="43.77207624725997447967529296875" lon="1.5799208544194698333740234375">
        <ele>159.8000030517578125</ele>
        <time>2026-08-13T08:41:23.000Z</time>
        <extensions>
          <ns3:TrackPointExtension>
            <ns3:hr>75</ns3:hr>
            <ns3:cad>42</ns3:cad>
          </ns3:TrackPointExtension>
        </extensions>
      </trkpt>
      <trkpt lat="43.77207792364060878753662109375" lon="1.579910628497600555419921875">
        <ele>159.8000030517578125</ele>
        <time>2026-08-13T08:41:24.000Z</time>
        <extensions>
          <ns3:TrackPointExtension>
            <ns3:hr>76</ns3:hr>
            <ns3:cad>41</ns3:cad>
          </ns3:TrackPointExtension>
        </extensions>
      </trkpt>
      <trkpt lat="43.77208563499152660369873046875" lon="1.57990551553666591644287109375">
        <ele>159.8000030517578125</ele>
        <time>2026-08-13T08:41:25.000Z</time>
        <extensions>
          <ns3:TrackPointExtension>
            <ns3:hr>76</ns3:hr>
            <ns3:cad>41</ns3:cad>
          </ns3:TrackPointExtension>
        </extensions>
      </trkpt>
      <trkpt lat="43.772087395191192626953125" lon="1.57989612780511379241943359375">
        <ele>159.8000030517578125</ele>
        <time>2026-08-13T08:41:26.000Z</time>
        <extensions>
          <ns3:TrackPointExtension>
            <ns3:hr>76</ns3:hr>
            <ns3:cad>41</ns3:cad>
          </ns3:TrackPointExtension>
        </extensions>
      </trkpt>
      <trkpt lat="43.77209183759987354278564453125" lon="1.57989210449159145355224609375">
        <ele>159.8000030517578125</ele>
        <time>2026-08-13T08:41:27.000Z</time>
        <extensions>
          <ns3:TrackPointExtension>
            <ns3:hr>76</ns3:hr>
            <ns3:cad>41</ns3:cad>
          </ns3:TrackPointExtension>
        </extensions>
      </trkpt>
      <trkpt lat="43.77210223115980625152587890625" lon="1.57988523133099079132080078125">
        <ele>159.8000030517578125</ele>
        <time>2026-08-13T08:41:28.000Z</time>
        <extensions>
          <ns3:TrackPointExtension>
            <ns3:hr>76</ns3:hr>
            <ns3:cad>41</ns3:cad>
          </ns3:TrackPointExtension>
        </extensions>
      </trkpt>
      <trkpt lat="43.7721153907477855682373046875" lon="1.5798734128475189208984375">
        <ele>159.8000030517578125</ele>
        <time>2026-08-13T08:41:29.000Z</time>
        <extensions>
          <ns3:TrackPointExtension>
            <ns3:hr>77</ns3:hr>
            <ns3:cad>41</ns3:cad>
          </ns3:TrackPointExtension>
        </extensions>
      </trkpt>
      <trkpt lat="43.772122599184513092041015625" lon="1.579868383705615997314453125">
        <ele>159.8000030517578125</ele>
        <time>2026-08-13T08:41:30.000Z</time>
        <extensions>
          <ns3:TrackPointExtension>
            <ns3:hr>76</ns3:hr>
            <ns3:cad>42</ns3:cad>
          </ns3:TrackPointExtension>
        </extensions>
      </trkpt>
      <trkpt lat="43.77212704159319400787353515625" lon="1.57986477948725223541259765625">
        <ele>159.8000030517578125</ele>
        <time>2026-08-13T08:41:31.000Z</time>
        <extensions>
          <ns3:TrackPointExtension>
            <ns3:hr>76</ns3:hr>
            <ns3:cad>43</ns3:cad>
          </ns3:TrackPointExtension>
        </extensions>
      </trkpt>
      <trkpt lat="43.77213994972407817840576171875" lon="1.57985522411763668060302734375">
        <ele>159.8000030517578125</ele>
        <time>2026-08-13T08:41:32.000Z</time>
        <extensions>
          <ns3:TrackPointExtension>
            <ns3:hr>76</ns3:hr>
            <ns3:cad>43</ns3:cad>
          </ns3:TrackPointExtension>
        </extensions>
      </trkpt>
      <trkpt lat="43.772150091826915740966796875" lon="1.57985036261379718780517578125">
        <ele>159.8000030517578125</ele>
        <time>2026-08-13T08:41:33.000Z</time>
        <extensions>
          <ns3:TrackPointExtension>
            <ns3:hr>76</ns3:hr>
            <ns3:cad>43</ns3:cad>
          </ns3:TrackPointExtension>
        </extensions>
      </trkpt>
      <trkpt lat="43.77215654589235782623291015625" lon="1.57985053025186061859130859375">
        <ele>159.8000030517578125</ele>
        <time>2026-08-13T08:41:34.000Z</time>
        <extensions>
          <ns3:TrackPointExtension>
            <ns3:hr>77</ns3:hr>
            <ns3:cad>43</ns3:cad>
          </ns3:TrackPointExtension>
        </extensions>
      </trkpt>
      <trkpt lat="43.77216584980487823486328125" lon="1.57984147779643535614013671875">
        <ele>159.8000030517578125</ele>
        <time>2026-08-13T08:41:35.000Z</time>
        <extensions>
          <ns3:TrackPointExtension>
            <ns3:hr>76</ns3:hr>
            <ns3:cad>43</ns3:cad>
          </ns3:TrackPointExtension>
        </extensions>
      </trkpt>
      <trkpt lat="43.77217850647866725921630859375" lon="1.57983024604618549346923828125">
        <ele>159.8000030517578125</ele>
        <time>2026-08-13T08:41:36.000Z</time>
        <extensions>
          <ns3:TrackPointExtension>
            <ns3:hr>76</ns3:hr>
            <ns3:cad>43</ns3:cad>
          </ns3:TrackPointExtension>
        </extensions>
      </trkpt>
      <trkpt lat="43.7721861340105533599853515625" lon="1.57982924021780490875244140625">
        <ele>159.8000030517578125</ele>
        <time>2026-08-13T08:41:37.000Z</time>
        <extensions>
          <ns3:TrackPointExtension>
            <ns3:hr>76</ns3:hr>
            <ns3:cad>43</ns3:cad>
          </ns3:TrackPointExtension>
        </extensions>
      </trkpt>
      <trkpt lat="43.77218856476247310638427734375" lon="1.5798253007233142852783203125">
        <ele>159.8000030517578125</ele>
        <time>2026-08-13T08:41:38.000Z</time>
        <extensions>
          <ns3:TrackPointExtension>
            <ns3:hr>76</ns3:hr>
            <ns3:cad>43</ns3:cad>
          </ns3:TrackPointExtension>
        </extensions>
      </trkpt>
      <trkpt lat="43.77219761721789836883544921875" lon="1.57981465570628643035888671875">
        <ele>159.600006103515625</ele>
        <time>2026-08-13T08:41:39.000Z</time>
        <extensions>
          <ns3:TrackPointExtension>
            <ns3:hr>76</ns3:hr>
            <ns3:cad>43</ns3:cad>
          </ns3:TrackPointExtension>
        </extensions>
      </trkpt>
      <trkpt lat="43.7722065858542919158935546875" lon="1.57980442978441715240478515625">
        <ele>159.600006103515625</ele>
        <time>2026-08-13T08:41:40.000Z</time>
        <extensions>
          <ns3:TrackPointExtension>
            <ns3:hr>76</ns3:hr>
            <ns3:cad>43</ns3:cad>
          </ns3:TrackPointExtension>
        </extensions>
      </trkpt>
      <trkpt lat="43.7722129561007022857666015625" lon="1.57980007119476795196533203125">
        <ele>159.600006103515625</ele>
        <time>2026-08-13T08:41:41.000Z</time>
        <extensions>
          <ns3:TrackPointExtension>
            <ns3:hr>76</ns3:hr>
            <ns3:cad>44</ns3:cad>
          </ns3:TrackPointExtension>
        </extensions>
      </trkpt>
      <trkpt lat="43.77222008071839809417724609375" lon="1.57979303039610385894775390625">
        <ele>159.600006103515625</ele>
        <time>2026-08-13T08:41:42.000Z</time>
        <extensions>
          <ns3:TrackPointExtension>
            <ns3:hr>77</ns3:hr>
            <ns3:cad>44</ns3:cad>
          </ns3:TrackPointExtension>
        </extensions>
      </trkpt>
      <trkpt lat="43.77223181538283824920654296875" lon="1.57978448085486888885498046875">
        <ele>159.600006103515625</ele>
        <time>2026-08-13T08:41:43.000Z</time>
        <extensions>
          <ns3:TrackPointExtension>
            <ns3:hr>76</ns3:hr>
            <ns3:cad>44</ns3:cad>
          </ns3:TrackPointExtension>
        </extensions>
      </trkpt>
      <trkpt lat="43.7722384370863437652587890625" lon="1.57977844588458538055419921875">
        <ele>159.600006103515625</ele>
        <time>2026-08-13T08:41:44.000Z</time>
        <extensions>
          <ns3:TrackPointExtension>
            <ns3:hr>76</ns3:hr>
            <ns3:cad>43</ns3:cad>
          </ns3:TrackPointExtension>
        </extensions>
      </trkpt>
      <trkpt lat="43.77224472351372241973876953125" lon="1.5797776915132999420166015625">
        <ele>159.600006103515625</ele>
        <time>2026-08-13T08:41:45.000Z</time>
        <extensions>
          <ns3:TrackPointExtension>
            <ns3:hr>77</ns3:hr>
            <ns3:cad>43</ns3:cad>
          </ns3:TrackPointExtension>
        </extensions>
      </trkpt>
      <trkpt lat="43.77225411124527454376220703125" lon="1.5797709859907627105712890625">
        <ele>159.600006103515625</ele>
        <time>2026-08-13T08:41:46.000Z</time>
        <extensions>
          <ns3:TrackPointExtension>
            <ns3:hr>76</ns3:hr>
            <ns3:cad>42</ns3:cad>
          </ns3:TrackPointExtension>
        </extensions>
      </trkpt>
      <trkpt lat="43.77226316370069980621337890625" lon="1.5797615982592105865478515625">
        <ele>159.600006103515625</ele>
        <time>2026-08-13T08:41:47.000Z</time>
        <extensions>
          <ns3:TrackPointExtension>
            <ns3:hr>75</ns3:hr>
            <ns3:cad>42</ns3:cad>
          </ns3:TrackPointExtension>
        </extensions>
      </trkpt>
      <trkpt lat="43.77227037213742733001708984375" lon="1.5797562338411808013916015625">
        <ele>159.600006103515625</ele>
        <time>2026-08-13T08:41:48.000Z</time>
        <extensions>
          <ns3:TrackPointExtension>
            <ns3:hr>75</ns3:hr>
            <ns3:cad>42</ns3:cad>
          </ns3:TrackPointExtension>
        </extensions>
      </trkpt>
      <trkpt lat="43.772272802889347076416015625" lon="1.57975195907056331634521484375">
        <ele>159.399993896484375</ele>
        <time>2026-08-13T08:41:49.000Z</time>
        <extensions>
          <ns3:TrackPointExtension>
            <ns3:hr>75</ns3:hr>
            <ns3:cad>42</ns3:cad>
          </ns3:TrackPointExtension>
        </extensions>
      </trkpt>
      <trkpt lat="43.77228395082056522369384765625" lon="1.5797431580722332000732421875">
        <ele>159.399993896484375</ele>
        <time>2026-08-13T08:41:50.000Z</time>
        <extensions>
          <ns3:TrackPointExtension>
            <ns3:hr>75</ns3:hr>
            <ns3:cad>43</ns3:cad>
          </ns3:TrackPointExtension>
        </extensions>
      </trkpt>
      <trkpt lat="43.7722950987517833709716796875" lon="1.5797339379787445068359375">
        <ele>159.399993896484375</ele>
        <time>2026-08-13T08:41:51.000Z</time>
        <extensions>
          <ns3:TrackPointExtension>
            <ns3:hr>74</ns3:hr>
            <ns3:cad>44</ns3:cad>
          </ns3:TrackPointExtension>
        </extensions>
      </trkpt>
      <trkpt lat="43.7723031453788280487060546875" lon="1.5797285735607147216796875">
        <ele>159.399993896484375</ele>
        <time>2026-08-13T08:41:52.000Z</time>
        <extensions>
          <ns3:TrackPointExtension>
            <ns3:hr>74</ns3:hr>
            <ns3:cad>44</ns3:cad>
          </ns3:TrackPointExtension>
        </extensions>
      </trkpt>
      <trkpt lat="43.77230825833976268768310546875" lon="1.57972597517073154449462890625">
        <ele>159.399993896484375</ele>
        <time>2026-08-13T08:41:53.000Z</time>
        <extensions>
          <ns3:TrackPointExtension>
            <ns3:hr>74</ns3:hr>
            <ns3:cad>45</ns3:cad>
          </ns3:TrackPointExtension>
        </extensions>
      </trkpt>
      <trkpt lat="43.77231764607131481170654296875" lon="1.579720862209796905517578125">
        <ele>159.399993896484375</ele>
        <time>2026-08-13T08:41:54.000Z</time>
        <extensions>
          <ns3:TrackPointExtension>
            <ns3:hr>73</ns3:hr>
            <ns3:cad>46</ns3:cad>
          </ns3:TrackPointExtension>
        </extensions>
      </trkpt>
      <trkpt lat="43.7723282910883426666259765625" lon="1.57971189357340335845947265625">
        <ele>159.399993896484375</ele>
        <time>2026-08-13T08:41:55.000Z</time>
        <extensions>
          <ns3:TrackPointExtension>
            <ns3:hr>73</ns3:hr>
            <ns3:cad>46</ns3:cad>
          </ns3:TrackPointExtension>
        </extensions>
      </trkpt>
      <trkpt lat="43.7723363377153873443603515625" lon="1.5797086246311664581298828125">
        <ele>159.399993896484375</ele>
        <time>2026-08-13T08:41:56.000Z</time>
        <extensions>
          <ns3:TrackPointExtension>
            <ns3:hr>73</ns3:hr>
            <ns3:cad>46</ns3:cad>
          </ns3:TrackPointExtension>
        </extensions>
      </trkpt>
      <trkpt lat="43.77234094776213169097900390625" lon="1.5797052718698978424072265625">
        <ele>159.399993896484375</ele>
        <time>2026-08-13T08:41:57.000Z</time>
        <extensions>
          <ns3:TrackPointExtension>
            <ns3:hr>73</ns3:hr>
            <ns3:cad>44</ns3:cad>
          </ns3:TrackPointExtension>
        </extensions>
      </trkpt>
      <trkpt lat="43.77235016785562038421630859375" lon="1.5796965546905994415283203125">
        <ele>159.1999969482421875</ele>
        <time>2026-08-13T08:41:58.000Z</time>
        <extensions>
          <ns3:TrackPointExtension>
            <ns3:hr>73</ns3:hr>
            <ns3:cad>44</ns3:cad>
          </ns3:TrackPointExtension>
        </extensions>
      </trkpt>
      <trkpt lat="43.77236190252006053924560546875" lon="1.5796868316829204559326171875">
        <ele>159.1999969482421875</ele>
        <time>2026-08-13T08:41:59.000Z</time>
        <extensions>
          <ns3:TrackPointExtension>
            <ns3:hr>73</ns3:hr>
            <ns3:cad>44</ns3:cad>
          </ns3:TrackPointExtension>
        </extensions>
      </trkpt>
      <trkpt lat="43.77236575819551944732666015625" lon="1.579680629074573516845703125">
        <ele>159.1999969482421875</ele>
        <time>2026-08-13T08:42:00.000Z</time>
        <extensions>
          <ns3:TrackPointExtension>
            <ns3:hr>73</ns3:hr>
            <ns3:cad>44</ns3:cad>
          </ns3:TrackPointExtension>
        </extensions>
      </trkpt>
      <trkpt lat="43.77236223779618740081787109375" lon="1.57967551611363887786865234375">
        <ele>159.1999969482421875</ele>
        <time>2026-08-13T08:42:01.000Z</time>
        <extensions>
          <ns3:TrackPointExtension>
            <ns3:hr>73</ns3:hr>
            <ns3:cad>44</ns3:cad>
          </ns3:TrackPointExtension>
        </extensions>
      </trkpt>
      <trkpt lat="43.77236927859485149383544921875" lon="1.57966327853500843048095703125">
        <ele>159.1999969482421875</ele>
        <time>2026-08-13T08:42:02.000Z</time>
        <extensions>
          <ns3:TrackPointExtension>
            <ns3:hr>74</ns3:hr>
            <ns3:cad>45</ns3:cad>
          </ns3:TrackPointExtension>
        </extensions>
      </trkpt>
      <trkpt lat="43.7723839469254016876220703125" lon="1.579649448394775390625">
        <ele>159.1999969482421875</ele>
        <time>2026-08-13T08:42:03.000Z</time>
        <extensions>
          <ns3:TrackPointExtension>
            <ns3:hr>73</ns3:hr>
            <ns3:cad>45</ns3:cad>
          </ns3:TrackPointExtension>
        </extensions>
      </trkpt>
      <trkpt lat="43.77239442430436611175537109375" lon="1.57964232377707958221435546875">
        <ele>159.1999969482421875</ele>
        <time>2026-08-13T08:42:04.000Z</time>
        <extensions>
          <ns3:TrackPointExtension>
            <ns3:hr>73</ns3:hr>
            <ns3:cad>45</ns3:cad>
          </ns3:TrackPointExtension>
        </extensions>
      </trkpt>
      <trkpt lat="43.77240456640720367431640625" lon="1.57964081503450870513916015625">
        <ele>159.1999969482421875</ele>
        <time>2026-08-13T08:42:05.000Z</time>
        <extensions>
          <ns3:TrackPointExtension>
            <ns3:hr>73</ns3:hr>
            <ns3:cad>45</ns3:cad>
          </ns3:TrackPointExtension>
        </extensions>
      </trkpt>
      <trkpt lat="43.77240984700620174407958984375" lon="1.5796320140361785888671875">
        <ele>159.1999969482421875</ele>
        <time>2026-08-13T08:42:06.000Z</time>
        <extensions>
          <ns3:TrackPointExtension>
            <ns3:hr>73</ns3:hr>
            <ns3:cad>45</ns3:cad>
          </ns3:TrackPointExtension>
        </extensions>
      </trkpt>
      <trkpt lat="43.77241856418550014495849609375" lon="1.57962304539978504180908203125">
        <ele>159</ele>
        <time>2026-08-13T08:42:07.000Z</time>
        <extensions>
          <ns3:TrackPointExtension>
            <ns3:hr>73</ns3:hr>
            <ns3:cad>45</ns3:cad>
          </ns3:TrackPointExtension>
        </extensions>
      </trkpt>
      <trkpt lat="43.77242610789835453033447265625" lon="1.57961281947791576385498046875">
        <ele>159</ele>
        <time>2026-08-13T08:42:08.000Z</time>
        <extensions>
          <ns3:TrackPointExtension>
            <ns3:hr>73</ns3:hr>
            <ns3:cad>48</ns3:cad>
          </ns3:TrackPointExtension>
        </extensions>
      </trkpt>
      <trkpt lat="43.77243616618216037750244140625" lon="1.57960326410830020904541015625">
        <ele>159</ele>
        <time>2026-08-13T08:42:09.000Z</time>
        <extensions>
          <ns3:TrackPointExtension>
            <ns3:hr>73</ns3:hr>
            <ns3:cad>48</ns3:cad>
          </ns3:TrackPointExtension>
        </extensions>
      </trkpt>
      <trkpt lat="43.7724402733147144317626953125" lon="1.5796023420989513397216796875">
        <ele>159</ele>
        <time>2026-08-13T08:42:10.000Z</time>
        <extensions>
          <ns3:TrackPointExtension>
            <ns3:hr>73</ns3:hr>
            <ns3:cad>47</ns3:cad>
          </ns3:TrackPointExtension>
        </extensions>
      </trkpt>
      <trkpt lat="43.7724499963223934173583984375" lon="1.579593457281589508056640625">
        <ele>159</ele>
        <time>2026-08-13T08:42:11.000Z</time>
        <extensions>
          <ns3:TrackPointExtension>
            <ns3:hr>74</ns3:hr>
            <ns3:cad>48</ns3:cad>
          </ns3:TrackPointExtension>
        </extensions>
      </trkpt>
      <trkpt lat="43.77246365882456302642822265625" lon="1.5795837342739105224609375">
        <ele>159</ele>
        <time>2026-08-13T08:42:12.000Z</time>
        <extensions>
          <ns3:TrackPointExtension>
            <ns3:hr>73</ns3:hr>
            <ns3:cad>48</ns3:cad>
          </ns3:TrackPointExtension>
        </extensions>
      </trkpt>
      <trkpt lat="43.77247774042189121246337890625" lon="1.57957141287624835968017578125">
        <ele>158.8000030517578125</ele>
        <time>2026-08-13T08:42:13.000Z</time>
        <extensions>
          <ns3:TrackPointExtension>
            <ns3:hr>73</ns3:hr>
            <ns3:cad>48</ns3:cad>
          </ns3:TrackPointExtension>
        </extensions>
      </trkpt>
      <trkpt lat="43.77248444594442844390869140625" lon="1.57956101931631565093994140625">
        <ele>158.8000030517578125</ele>
        <time>2026-08-13T08:42:14.000Z</time>
        <extensions>
          <ns3:TrackPointExtension>
            <ns3:hr>73</ns3:hr>
            <ns3:cad>48</ns3:cad>
          </ns3:TrackPointExtension>
        </extensions>
      </trkpt>
      <trkpt lat="43.7724815122783184051513671875" lon="1.579555571079254150390625">
        <ele>158.8000030517578125</ele>
        <time>2026-08-13T08:42:15.000Z</time>
        <extensions>
          <ns3:TrackPointExtension>
            <ns3:hr>73</ns3:hr>
            <ns3:cad>45</ns3:cad>
          </ns3:TrackPointExtension>
        </extensions>
      </trkpt>
      <trkpt lat="43.77248905599117279052734375" lon="1.57954492606222629547119140625">
        <ele>158.8000030517578125</ele>
        <time>2026-08-13T08:42:16.000Z</time>
        <extensions>
          <ns3:TrackPointExtension>
            <ns3:hr>73</ns3:hr>
            <ns3:cad>45</ns3:cad>
          </ns3:TrackPointExtension>
        </extensions>
      </trkpt>
      <trkpt lat="43.77249718643724918365478515625" lon="1.57953185029327869415283203125">
        <ele>158.8000030517578125</ele>
        <time>2026-08-13T08:42:17.000Z</time>
        <extensions>
          <ns3:TrackPointExtension>
            <ns3:hr>73</ns3:hr>
            <ns3:cad>45</ns3:cad>
          </ns3:TrackPointExtension>
        </extensions>
      </trkpt>
      <trkpt lat="43.77250506542623043060302734375" lon="1.57951525412499904632568359375">
        <ele>158.8000030517578125</ele>
        <time>2026-08-13T08:42:18.000Z</time>
        <extensions>
          <ns3:TrackPointExtension>
            <ns3:hr>73</ns3:hr>
            <ns3:cad>45</ns3:cad>
          </ns3:TrackPointExtension>
        </extensions>
      </trkpt>
      <trkpt lat="43.77250925637781620025634765625" lon="1.57951240427792072296142578125">
        <ele>158.600006103515625</ele>
        <time>2026-08-13T08:42:19.000Z</time>
        <extensions>
          <ns3:TrackPointExtension>
            <ns3:hr>73</ns3:hr>
            <ns3:cad>45</ns3:cad>
          </ns3:TrackPointExtension>
        </extensions>
      </trkpt>
      <trkpt lat="43.772510848939418792724609375" lon="1.579502932727336883544921875">
        <ele>158.600006103515625</ele>
        <time>2026-08-13T08:42:20.000Z</time>
        <extensions>
          <ns3:TrackPointExtension>
            <ns3:hr>73</ns3:hr>
            <ns3:cad>45</ns3:cad>
          </ns3:TrackPointExtension>
        </extensions>
      </trkpt>
      <trkpt lat="43.77252115868031978607177734375" lon="1.57949061132967472076416015625">
        <ele>158.600006103515625</ele>
        <time>2026-08-13T08:42:21.000Z</time>
        <extensions>
          <ns3:TrackPointExtension>
            <ns3:hr>72</ns3:hr>
            <ns3:cad>45</ns3:cad>
          </ns3:TrackPointExtension>
        </extensions>
      </trkpt>
      <trkpt lat="43.77253356389701366424560546875" lon="1.5794813074171543121337890625">
        <ele>158.600006103515625</ele>
        <time>2026-08-13T08:42:22.000Z</time>
        <extensions>
          <ns3:TrackPointExtension>
            <ns3:hr>72</ns3:hr>
            <ns3:cad>45</ns3:cad>
          </ns3:TrackPointExtension>
        </extensions>
      </trkpt>
      <trkpt lat="43.77253892831504344940185546875" lon="1.5794752724468708038330078125">
        <ele>158.600006103515625</ele>
        <time>2026-08-13T08:42:23.000Z</time>
        <extensions>
          <ns3:TrackPointExtension>
            <ns3:hr>72</ns3:hr>
            <ns3:cad>48</ns3:cad>
          </ns3:TrackPointExtension>
        </extensions>
      </trkpt>
      <trkpt lat="43.77253792248666286468505859375" lon="1.57946680672466754913330078125">
        <ele>158.600006103515625</ele>
        <time>2026-08-13T08:42:24.000Z</time>
        <extensions>
          <ns3:TrackPointExtension>
            <ns3:hr>72</ns3:hr>
            <ns3:cad>47</ns3:cad>
          </ns3:TrackPointExtension>
        </extensions>
      </trkpt>
      <trkpt lat="43.77254135906696319580078125" lon="1.57945859245955944061279296875">
        <ele>158.600006103515625</ele>
        <time>2026-08-13T08:42:25.000Z</time>
        <extensions>
          <ns3:TrackPointExtension>
            <ns3:hr>73</ns3:hr>
            <ns3:cad>47</ns3:cad>
          </ns3:TrackPointExtension>
        </extensions>
      </trkpt>
      <trkpt lat="43.7725522555410861968994140625" lon="1.57944685779511928558349609375">
        <ele>158.399993896484375</ele>
        <time>2026-08-13T08:42:26.000Z</time>
        <extensions>
          <ns3:TrackPointExtension>
            <ns3:hr>72</ns3:hr>
            <ns3:cad>47</ns3:cad>
          </ns3:TrackPointExtension>
        </extensions>
      </trkpt>
      <trkpt lat="43.77256415784358978271484375" lon="1.57943378202617168426513671875">
        <ele>158.399993896484375</ele>
        <time>2026-08-13T08:42:27.000Z</time>
        <extensions>
          <ns3:TrackPointExtension>
            <ns3:hr>72</ns3:hr>
            <ns3:cad>47</ns3:cad>
          </ns3:TrackPointExtension>
        </extensions>
      </trkpt>
      <trkpt lat="43.7725703604519367218017578125" lon="1.5794212929904460906982421875">
        <ele>158.399993896484375</ele>
        <time>2026-08-13T08:42:28.000Z</time>
        <extensions>
          <ns3:TrackPointExtension>
            <ns3:hr>73</ns3:hr>
            <ns3:cad>47</ns3:cad>
          </ns3:TrackPointExtension>
        </extensions>
      </trkpt>
      <trkpt lat="43.7725757248699665069580078125" lon="1.579417102038860321044921875">
        <ele>158.1999969482421875</ele>
        <time>2026-08-13T08:42:29.000Z</time>
        <extensions>
          <ns3:TrackPointExtension>
            <ns3:hr>73</ns3:hr>
            <ns3:cad>47</ns3:cad>
          </ns3:TrackPointExtension>
        </extensions>
      </trkpt>
      <trkpt lat="43.77258201129734516143798828125" lon="1.57940980978310108184814453125">
        <ele>158.1999969482421875</ele>
        <time>2026-08-13T08:42:30.000Z</time>
        <extensions>
          <ns3:TrackPointExtension>
            <ns3:hr>73</ns3:hr>
            <ns3:cad>48</ns3:cad>
          </ns3:TrackPointExtension>
        </extensions>
      </trkpt>
      <trkpt lat="43.772599361836910247802734375" lon="1.57940327189862728118896484375">
        <ele>158.1999969482421875</ele>
        <time>2026-08-13T08:42:31.000Z</time>
        <extensions>
          <ns3:TrackPointExtension>
            <ns3:hr>73</ns3:hr>
            <ns3:cad>48</ns3:cad>
          </ns3:TrackPointExtension>
        </extensions>
      </trkpt>
      <trkpt lat="43.7726102583110332489013671875" lon="1.57939128577709197998046875">
        <ele>158</ele>
        <time>2026-08-13T08:42:32.000Z</time>
        <extensions>
          <ns3:TrackPointExtension>
            <ns3:hr>73</ns3:hr>
            <ns3:cad>48</ns3:cad>
          </ns3:TrackPointExtension>
        </extensions>
      </trkpt>
      <trkpt lat="43.77261905930936336517333984375" lon="1.57938382588326930999755859375">
        <ele>158</ele>
        <time>2026-08-13T08:42:33.000Z</time>
        <extensions>
          <ns3:TrackPointExtension>
            <ns3:hr>74</ns3:hr>
            <ns3:cad>48</ns3:cad>
          </ns3:TrackPointExtension>
        </extensions>
      </trkpt>
      <trkpt lat="43.772625513374805450439453125" lon="1.57937728799879550933837890625">
        <ele>158</ele>
        <time>2026-08-13T08:42:34.000Z</time>
        <extensions>
          <ns3:TrackPointExtension>
            <ns3:hr>74</ns3:hr>
            <ns3:cad>48</ns3:cad>
          </ns3:TrackPointExtension>
        </extensions>
      </trkpt>
      <trkpt lat="43.77263682894408702850341796875" lon="1.5793693251907825469970703125">
        <ele>157.8000030517578125</ele>
        <time>2026-08-13T08:42:35.000Z</time>
        <extensions>
          <ns3:TrackPointExtension>
            <ns3:hr>74</ns3:hr>
            <ns3:cad>48</ns3:cad>
          </ns3:TrackPointExtension>
        </extensions>
      </trkpt>
      <trkpt lat="43.77264889888465404510498046875" lon="1.57935700379312038421630859375">
        <ele>157.8000030517578125</ele>
        <time>2026-08-13T08:42:36.000Z</time>
        <extensions>
          <ns3:TrackPointExtension>
            <ns3:hr>74</ns3:hr>
            <ns3:cad>47</ns3:cad>
          </ns3:TrackPointExtension>
        </extensions>
      </trkpt>
      <trkpt lat="43.772655688226222991943359375" lon="1.579352058470249176025390625">
        <ele>157.8000030517578125</ele>
        <time>2026-08-13T08:42:37.000Z</time>
        <extensions>
          <ns3:TrackPointExtension>
            <ns3:hr>75</ns3:hr>
            <ns3:cad>46</ns3:cad>
          </ns3:TrackPointExtension>
        </extensions>
      </trkpt>
      <trkpt lat="43.77265912480652332305908203125" lon="1.5793525613844394683837890625">
        <ele>157.600006103515625</ele>
        <time>2026-08-13T08:42:38.000Z</time>
        <extensions>
          <ns3:TrackPointExtension>
            <ns3:hr>75</ns3:hr>
            <ns3:cad>46</ns3:cad>
          </ns3:TrackPointExtension>
        </extensions>
      </trkpt>
      <trkpt lat="43.772666417062282562255859375" lon="1.57934275455772876739501953125">
        <ele>157.600006103515625</ele>
        <time>2026-08-13T08:42:39.000Z</time>
        <extensions>
          <ns3:TrackPointExtension>
            <ns3:hr>75</ns3:hr>
            <ns3:cad>46</ns3:cad>
          </ns3:TrackPointExtension>
        </extensions>
      </trkpt>
      <trkpt lat="43.77267605625092983245849609375" lon="1.57933018170297145843505859375">
        <ele>157.600006103515625</ele>
        <time>2026-08-13T08:42:40.000Z</time>
        <extensions>
          <ns3:TrackPointExtension>
            <ns3:hr>75</ns3:hr>
            <ns3:cad>46</ns3:cad>
          </ns3:TrackPointExtension>
        </extensions>
      </trkpt>
      <trkpt lat="43.77268058247864246368408203125" lon="1.57931861467659473419189453125">
        <ele>157.600006103515625</ele>
        <time>2026-08-13T08:42:41.000Z</time>
        <extensions>
          <ns3:TrackPointExtension>
            <ns3:hr>75</ns3:hr>
            <ns3:cad>45</ns3:cad>
          </ns3:TrackPointExtension>
        </extensions>
      </trkpt>
      <trkpt lat="43.77268728800117969512939453125" lon="1.579318530857563018798828125">
        <ele>157.600006103515625</ele>
        <time>2026-08-13T08:42:42.000Z</time>
        <extensions>
          <ns3:TrackPointExtension>
            <ns3:hr>75</ns3:hr>
            <ns3:cad>45</ns3:cad>
          </ns3:TrackPointExtension>
        </extensions>
      </trkpt>
      <trkpt lat="43.77269315533339977264404296875" lon="1.57931484282016754150390625">
        <ele>157.600006103515625</ele>
        <time>2026-08-13T08:42:43.000Z</time>
        <extensions>
          <ns3:TrackPointExtension>
            <ns3:hr>75</ns3:hr>
            <ns3:cad>45</ns3:cad>
          </ns3:TrackPointExtension>
        </extensions>
      </trkpt>
      <trkpt lat="43.7726994417607784271240234375" lon="1.5793059580028057098388671875">
        <ele>157.399993896484375</ele>
        <time>2026-08-13T08:42:44.000Z</time>
        <extensions>
          <ns3:TrackPointExtension>
            <ns3:hr>76</ns3:hr>
            <ns3:cad>47</ns3:cad>
          </ns3:TrackPointExtension>
        </extensions>
      </trkpt>
      <trkpt lat="43.7727071531116962432861328125" lon="1.57929514534771442413330078125">
        <ele>157.600006103515625</ele>
        <time>2026-08-13T08:42:45.000Z</time>
        <extensions>
          <ns3:TrackPointExtension>
            <ns3:hr>76</ns3:hr>
            <ns3:cad>47</ns3:cad>
          </ns3:TrackPointExtension>
        </extensions>
      </trkpt>
      <trkpt lat="43.77271478064358234405517578125" lon="1.579287014901638031005859375">
        <ele>157.600006103515625</ele>
        <time>2026-08-13T08:42:46.000Z</time>
        <extensions>
          <ns3:TrackPointExtension>
            <ns3:hr>76</ns3:hr>
            <ns3:cad>47</ns3:cad>
          </ns3:TrackPointExtension>
        </extensions>
      </trkpt>
      <trkpt lat="43.77272265963256359100341796875" lon="1.579282321035861968994140625">
        <ele>157.600006103515625</ele>
        <time>2026-08-13T08:42:47.000Z</time>
        <extensions>
          <ns3:TrackPointExtension>
            <ns3:hr>75</ns3:hr>
            <ns3:cad>46</ns3:cad>
          </ns3:TrackPointExtension>
        </extensions>
      </trkpt>
      <trkpt lat="43.7727265991270542144775390625" lon="1.579276956617832183837890625">
        <ele>157.600006103515625</ele>
        <time>2026-08-13T08:42:48.000Z</time>
        <extensions>
          <ns3:TrackPointExtension>
            <ns3:hr>75</ns3:hr>
            <ns3:cad>46</ns3:cad>
          </ns3:TrackPointExtension>
        </extensions>
      </trkpt>
      <trkpt lat="43.77273808233439922332763671875" lon="1.57926530577242374420166015625">
        <ele>157.399993896484375</ele>
        <time>2026-08-13T08:42:49.000Z</time>
        <extensions>
          <ns3:TrackPointExtension>
            <ns3:hr>75</ns3:hr>
            <ns3:cad>46</ns3:cad>
          </ns3:TrackPointExtension>
        </extensions>
      </trkpt>
      <trkpt lat="43.77274797298014163970947265625" lon="1.57925357110798358917236328125">
        <ele>157.399993896484375</ele>
        <time>2026-08-13T08:42:50.000Z</time>
        <extensions>
          <ns3:TrackPointExtension>
            <ns3:hr>75</ns3:hr>
            <ns3:cad>47</ns3:cad>
          </ns3:TrackPointExtension>
        </extensions>
      </trkpt>
      <trkpt lat="43.77275249920785427093505859375" lon="1.57924384810030460357666015625">
        <ele>157.1999969482421875</ele>
        <time>2026-08-13T08:42:51.000Z</time>
        <extensions>
          <ns3:TrackPointExtension>
            <ns3:hr>74</ns3:hr>
            <ns3:cad>48</ns3:cad>
          </ns3:TrackPointExtension>
        </extensions>
      </trkpt>
      <trkpt lat="43.77275803126394748687744140625" lon="1.57923898659646511077880859375">
        <ele>157.1999969482421875</ele>
        <time>2026-08-13T08:42:52.000Z</time>
        <extensions>
          <ns3:TrackPointExtension>
            <ns3:hr>74</ns3:hr>
            <ns3:cad>48</ns3:cad>
          </ns3:TrackPointExtension>
        </extensions>
      </trkpt>
      <trkpt lat="43.7727705202996730804443359375" lon="1.57923194579780101776123046875">
        <ele>157</ele>
        <time>2026-08-13T08:42:53.000Z</time>
        <extensions>
          <ns3:TrackPointExtension>
            <ns3:hr>74</ns3:hr>
            <ns3:cad>48</ns3:cad>
          </ns3:TrackPointExtension>
        </extensions>
      </trkpt>
      <trkpt lat="43.77277647145092487335205078125" lon="1.5792234800755977630615234375">
        <ele>157</ele>
        <time>2026-08-13T08:42:54.000Z</time>
        <extensions>
          <ns3:TrackPointExtension>
            <ns3:hr>75</ns3:hr>
            <ns3:cad>48</ns3:cad>
          </ns3:TrackPointExtension>
        </extensions>
      </trkpt>
      <trkpt lat="43.77278451807796955108642578125" lon="1.579213254153728485107421875">
        <ele>157</ele>
        <time>2026-08-13T08:42:55.000Z</time>
        <extensions>
          <ns3:TrackPointExtension>
            <ns3:hr>75</ns3:hr>
            <ns3:cad>48</ns3:cad>
          </ns3:TrackPointExtension>
        </extensions>
      </trkpt>
      <trkpt lat="43.77279558219015598297119140625" lon="1.579206548631191253662109375">
        <ele>156.8000030517578125</ele>
        <time>2026-08-13T08:42:56.000Z</time>
        <extensions>
          <ns3:TrackPointExtension>
            <ns3:hr>76</ns3:hr>
            <ns3:cad>48</ns3:cad>
          </ns3:TrackPointExtension>
        </extensions>
      </trkpt>
      <trkpt lat="43.77280396409332752227783203125" lon="1.579200513660907745361328125">
        <ele>156.8000030517578125</ele>
        <time>2026-08-13T08:42:57.000Z</time>
        <extensions>
          <ns3:TrackPointExtension>
            <ns3:hr>77</ns3:hr>
            <ns3:cad>48</ns3:cad>
          </ns3:TrackPointExtension>
        </extensions>
      </trkpt>
      <trkpt lat="43.77281486056745052337646484375" lon="1.5791943110525608062744140625">
        <ele>156.8000030517578125</ele>
        <time>2026-08-13T08:42:58.000Z</time>
        <extensions>
          <ns3:TrackPointExtension>
            <ns3:hr>78</ns3:hr>
            <ns3:cad>48</ns3:cad>
          </ns3:TrackPointExtension>
        </extensions>
      </trkpt>
      <trkpt lat="43.772823996841907501220703125" lon="1.57918400131165981292724609375">
        <ele>156.8000030517578125</ele>
        <time>2026-08-13T08:42:59.000Z</time>
        <extensions>
          <ns3:TrackPointExtension>
            <ns3:hr>79</ns3:hr>
            <ns3:cad>48</ns3:cad>
          </ns3:TrackPointExtension>
        </extensions>
      </trkpt>
      <trkpt lat="43.77283464185893535614013671875" lon="1.5791731886565685272216796875">
        <ele>156.8000030517578125</ele>
        <time>2026-08-13T08:43:00.000Z</time>
        <extensions>
          <ns3:TrackPointExtension>
            <ns3:hr>80</ns3:hr>
            <ns3:cad>48</ns3:cad>
          </ns3:TrackPointExtension>
        </extensions>
      </trkpt>
      <trkpt lat="43.77284252084791660308837890625" lon="1.5791644714772701263427734375">
        <ele>156.600006103515625</ele>
        <time>2026-08-13T08:43:01.000Z</time>
        <extensions>
          <ns3:TrackPointExtension>
            <ns3:hr>81</ns3:hr>
            <ns3:cad>48</ns3:cad>
          </ns3:TrackPointExtension>
        </extensions>
      </trkpt>
      <trkpt lat="43.77284620888531208038330078125" lon="1.57916086725890636444091796875">
        <ele>156.600006103515625</ele>
        <time>2026-08-13T08:43:02.000Z</time>
        <extensions>
          <ns3:TrackPointExtension>
            <ns3:hr>81</ns3:hr>
            <ns3:cad>48</ns3:cad>
          </ns3:TrackPointExtension>
        </extensions>
      </trkpt>
      <trkpt lat="43.7728536687791347503662109375" lon="1.57915147952735424041748046875">
        <ele>156.600006103515625</ele>
        <time>2026-08-13T08:43:03.000Z</time>
        <extensions>
          <ns3:TrackPointExtension>
            <ns3:hr>81</ns3:hr>
            <ns3:cad>48</ns3:cad>
          </ns3:TrackPointExtension>
        </extensions>
      </trkpt>
      <trkpt lat="43.77286364324390888214111328125" lon="1.5791420079767704010009765625">
        <ele>156.399993896484375</ele>
        <time>2026-08-13T08:43:04.000Z</time>
        <extensions>
          <ns3:TrackPointExtension>
            <ns3:hr>82</ns3:hr>
            <ns3:cad>48</ns3:cad>
          </ns3:TrackPointExtension>
        </extensions>
      </trkpt>
      <trkpt lat="43.77287202514708042144775390625" lon="1.57913102768361568450927734375">
        <ele>156.399993896484375</ele>
        <time>2026-08-13T08:43:05.000Z</time>
        <extensions>
          <ns3:TrackPointExtension>
            <ns3:hr>82</ns3:hr>
            <ns3:cad>48</ns3:cad>
          </ns3:TrackPointExtension>
        </extensions>
      </trkpt>
      <trkpt lat="43.77287931740283966064453125" lon="1.57911627553403377532958984375">
        <ele>156.1999969482421875</ele>
        <time>2026-08-13T08:43:06.000Z</time>
        <extensions>
          <ns3:TrackPointExtension>
            <ns3:hr>82</ns3:hr>
            <ns3:cad>48</ns3:cad>
          </ns3:TrackPointExtension>
        </extensions>
      </trkpt>
      <trkpt lat="43.7728826701641082763671875" lon="1.57910940237343311309814453125">
        <ele>156.1999969482421875</ele>
        <time>2026-08-13T08:43:07.000Z</time>
        <extensions>
          <ns3:TrackPointExtension>
            <ns3:hr>82</ns3:hr>
            <ns3:cad>47</ns3:cad>
          </ns3:TrackPointExtension>
        </extensions>
      </trkpt>
      <trkpt lat="43.77289113588631153106689453125" lon="1.57910026609897613525390625">
        <ele>156.1999969482421875</ele>
        <time>2026-08-13T08:43:08.000Z</time>
        <extensions>
          <ns3:TrackPointExtension>
            <ns3:hr>82</ns3:hr>
            <ns3:cad>0</ns3:cad>
          </ns3:TrackPointExtension>
        </extensions>
      </trkpt>
      <trkpt lat="43.7729069776833057403564453125" lon="1.57909163273870944976806640625">
        <ele>156.1999969482421875</ele>
        <time>2026-08-13T08:43:09.000Z</time>
        <extensions>
          <ns3:TrackPointExtension>
            <ns3:hr>82</ns3:hr>
            <ns3:cad>0</ns3:cad>
          </ns3:TrackPointExtension>
        </extensions>
      </trkpt>
      <trkpt lat="43.772919885814189910888671875" lon="1.5790823288261890411376953125">
        <ele>156.1999969482421875</ele>
        <time>2026-08-13T08:43:10.000Z</time>
        <extensions>
          <ns3:TrackPointExtension>
            <ns3:hr>82</ns3:hr>
            <ns3:cad>0</ns3:cad>
          </ns3:TrackPointExtension>
        </extensions>
      </trkpt>
      <trkpt lat="43.772929944097995758056640625" lon="1.5790732763707637786865234375">
        <ele>156.1999969482421875</ele>
        <time>2026-08-13T08:43:11.000Z</time>
        <extensions>
          <ns3:TrackPointExtension>
            <ns3:hr>82</ns3:hr>
            <ns3:cad>0</ns3:cad>
          </ns3:TrackPointExtension>
        </extensions>
      </trkpt>
      <trkpt lat="43.772934973239898681640625" lon="1.579068414866924285888671875">
        <ele>156</ele>
        <time>2026-08-13T08:43:12.000Z</time>
        <extensions>
          <ns3:TrackPointExtension>
            <ns3:hr>81</ns3:hr>
            <ns3:cad>0</ns3:cad>
          </ns3:TrackPointExtension>
        </extensions>
      </trkpt>
      <trkpt lat="43.77293790690600872039794921875" lon="1.5790659002959728240966796875">
        <ele>156</ele>
        <time>2026-08-13T08:43:13.000Z</time>
        <extensions>
          <ns3:TrackPointExtension>
            <ns3:hr>82</ns3:hr>
            <ns3:cad>0</ns3:cad>
          </ns3:TrackPointExtension>
        </extensions>
      </trkpt>
      <trkpt lat="43.77294779755175113677978515625" lon="1.57905827276408672332763671875">
        <ele>156</ele>
        <time>2026-08-13T08:43:14.000Z</time>
        <extensions>
          <ns3:TrackPointExtension>
            <ns3:hr>82</ns3:hr>
            <ns3:cad>0</ns3:cad>
          </ns3:TrackPointExtension>
        </extensions>
      </trkpt>
      <trkpt lat="43.7729579396545886993408203125" lon="1.5790410898625850677490234375">
        <ele>156</ele>
        <time>2026-08-13T08:43:15.000Z</time>
        <extensions>
          <ns3:TrackPointExtension>
            <ns3:hr>82</ns3:hr>
            <ns3:cad>0</ns3:cad>
          </ns3:TrackPointExtension>
        </extensions>
      </trkpt>
      <trkpt lat="43.772960118949413299560546875" lon="1.579032205045223236083984375">
        <ele>155.8000030517578125</ele>
        <time>2026-08-13T08:43:16.000Z</time>
        <extensions>
          <ns3:TrackPointExtension>
            <ns3:hr>81</ns3:hr>
            <ns3:cad>0</ns3:cad>
          </ns3:TrackPointExtension>
        </extensions>
      </trkpt>
      <trkpt lat="43.7729596160352230072021484375" lon="1.5790313668549060821533203125">
        <ele>155.8000030517578125</ele>
        <time>2026-08-13T08:43:17.000Z</time>
        <extensions>
          <ns3:TrackPointExtension>
            <ns3:hr>82</ns3:hr>
            <ns3:cad>0</ns3:cad>
          </ns3:TrackPointExtension>
        </extensions>
      </trkpt>
      <trkpt lat="43.7729669921100139617919921875" lon="1.57902021892368793487548828125">
        <ele>155.8000030517578125</ele>
        <time>2026-08-13T08:43:18.000Z</time>
        <extensions>
          <ns3:TrackPointExtension>
            <ns3:hr>82</ns3:hr>
            <ns3:cad>0</ns3:cad>
          </ns3:TrackPointExtension>
        </extensions>
      </trkpt>
      <trkpt lat="43.7729736976325511932373046875" lon="1.57900848425924777984619140625">
        <ele>155.8000030517578125</ele>
        <time>2026-08-13T08:43:19.000Z</time>
        <extensions>
          <ns3:TrackPointExtension>
            <ns3:hr>82</ns3:hr>
            <ns3:cad>0</ns3:cad>
          </ns3:TrackPointExtension>
        </extensions>
      </trkpt>
      <trkpt lat="43.77298258244991302490234375" lon="1.57899892888963222503662109375">
        <ele>155.600006103515625</ele>
        <time>2026-08-13T08:43:20.000Z</time>
        <extensions>
          <ns3:TrackPointExtension>
            <ns3:hr>81</ns3:hr>
            <ns3:cad>0</ns3:cad>
          </ns3:TrackPointExtension>
        </extensions>
      </trkpt>
      <trkpt lat="43.7729894556105136871337890625" lon="1.5790001861751079559326171875">
        <ele>155.600006103515625</ele>
        <time>2026-08-13T08:43:21.000Z</time>
        <extensions>
          <ns3:TrackPointExtension>
            <ns3:hr>82</ns3:hr>
            <ns3:cad>0</ns3:cad>
          </ns3:TrackPointExtension>
        </extensions>
      </trkpt>
      <trkpt lat="43.77300135791301727294921875" lon="1.57899071462452411651611328125">
        <ele>155.600006103515625</ele>
        <time>2026-08-13T08:43:22.000Z</time>
        <extensions>
          <ns3:TrackPointExtension>
            <ns3:hr>82</ns3:hr>
            <ns3:cad>0</ns3:cad>
          </ns3:TrackPointExtension>
        </extensions>
      </trkpt>
      <trkpt lat="43.773012422025203704833984375" lon="1.57898115925490856170654296875">
        <ele>155.600006103515625</ele>
        <time>2026-08-13T08:43:23.000Z</time>
        <extensions>
          <ns3:TrackPointExtension>
            <ns3:hr>82</ns3:hr>
            <ns3:cad>47</ns3:cad>
          </ns3:TrackPointExtension>
        </extensions>
      </trkpt>
      <trkpt lat="43.773020468652248382568359375" lon="1.57896925695240497589111328125">
        <ele>155.600006103515625</ele>
        <time>2026-08-13T08:43:24.000Z</time>
        <extensions>
          <ns3:TrackPointExtension>
            <ns3:hr>81</ns3:hr>
            <ns3:cad>47</ns3:cad>
          </ns3:TrackPointExtension>
        </extensions>
      </trkpt>
      <trkpt lat="43.77303094603121280670166015625" lon="1.5789586119353771209716796875">
        <ele>155.399993896484375</ele>
        <time>2026-08-13T08:43:25.000Z</time>
        <extensions>
          <ns3:TrackPointExtension>
            <ns3:hr>81</ns3:hr>
            <ns3:cad>47</ns3:cad>
          </ns3:TrackPointExtension>
        </extensions>
      </trkpt>
      <trkpt lat="43.7730424292385578155517578125" lon="1.57895014621317386627197265625">
        <ele>155.399993896484375</ele>
        <time>2026-08-13T08:43:26.000Z</time>
        <extensions>
          <ns3:TrackPointExtension>
            <ns3:hr>81</ns3:hr>
            <ns3:cad>47</ns3:cad>
          </ns3:TrackPointExtension>
        </extensions>
      </trkpt>
      <trkpt lat="43.7730501405894756317138671875" lon="1.5789428539574146270751953125">
        <ele>155.399993896484375</ele>
        <time>2026-08-13T08:43:27.000Z</time>
        <extensions>
          <ns3:TrackPointExtension>
            <ns3:hr>80</ns3:hr>
            <ns3:cad>47</ns3:cad>
          </ns3:TrackPointExtension>
        </extensions>
      </trkpt>
      <trkpt lat="43.77305860631167888641357421875" lon="1.57893623225390911102294921875">
        <ele>155.399993896484375</ele>
        <time>2026-08-13T08:43:28.000Z</time>
        <extensions>
          <ns3:TrackPointExtension>
            <ns3:hr>79</ns3:hr>
            <ns3:cad>47</ns3:cad>
          </ns3:TrackPointExtension>
        </extensions>
      </trkpt>
      <trkpt lat="43.773065395653247833251953125" lon="1.578922569751739501953125">
        <ele>155.1999969482421875</ele>
        <time>2026-08-13T08:43:29.000Z</time>
        <extensions>
          <ns3:TrackPointExtension>
            <ns3:hr>79</ns3:hr>
            <ns3:cad>47</ns3:cad>
          </ns3:TrackPointExtension>
        </extensions>
      </trkpt>
      <trkpt lat="43.77306732349097728729248046875" lon="1.5789133496582508087158203125">
        <ele>155.1999969482421875</ele>
        <time>2026-08-13T08:43:30.000Z</time>
        <extensions>
          <ns3:TrackPointExtension>
            <ns3:hr>79</ns3:hr>
            <ns3:cad>46</ns3:cad>
          </ns3:TrackPointExtension>
        </extensions>
      </trkpt>
      <trkpt lat="43.77306866459548473358154296875" lon="1.5789053030312061309814453125">
        <ele>155.1999969482421875</ele>
        <time>2026-08-13T08:43:31.000Z</time>
        <extensions>
          <ns3:TrackPointExtension>
            <ns3:hr>79</ns3:hr>
            <ns3:cad>46</ns3:cad>
          </ns3:TrackPointExtension>
        </extensions>
      </trkpt>
      <trkpt lat="43.7730756215751171112060546875" lon="1.57888527028262615203857421875">
        <ele>155.1999969482421875</ele>
        <time>2026-08-13T08:43:32.000Z</time>
        <extensions>
          <ns3:TrackPointExtension>
            <ns3:hr>79</ns3:hr>
            <ns3:cad>46</ns3:cad>
          </ns3:TrackPointExtension>
        </extensions>
      </trkpt>
      <trkpt lat="43.77308073453605175018310546875" lon="1.57887387089431285858154296875">
        <ele>155</ele>
        <time>2026-08-13T08:43:33.000Z</time>
        <extensions>
          <ns3:TrackPointExtension>
            <ns3:hr>79</ns3:hr>
            <ns3:cad>46</ns3:cad>
          </ns3:TrackPointExtension>
        </extensions>
      </trkpt>
      <trkpt lat="43.77308408729732036590576171875" lon="1.5788667462766170501708984375">
        <ele>155</ele>
        <time>2026-08-13T08:43:34.000Z</time>
        <extensions>
          <ns3:TrackPointExtension>
            <ns3:hr>79</ns3:hr>
            <ns3:cad>46</ns3:cad>
          </ns3:TrackPointExtension>
        </extensions>
      </trkpt>
      <trkpt lat="43.77308978699147701263427734375" lon="1.5788622200489044189453125">
        <ele>155</ele>
        <time>2026-08-13T08:43:35.000Z</time>
        <extensions>
          <ns3:TrackPointExtension>
            <ns3:hr>78</ns3:hr>
            <ns3:cad>46</ns3:cad>
          </ns3:TrackPointExtension>
        </extensions>
      </trkpt>
      <trkpt lat="43.77310219220817089080810546875" lon="1.578855849802494049072265625">
        <ele>155</ele>
        <time>2026-08-13T08:43:36.000Z</time>
        <extensions>
          <ns3:TrackPointExtension>
            <ns3:hr>78</ns3:hr>
            <ns3:cad>46</ns3:cad>
          </ns3:TrackPointExtension>
        </extensions>
      </trkpt>
      <trkpt lat="43.77311225049197673797607421875" lon="1.5788488090038299560546875">
        <ele>155</ele>
        <time>2026-08-13T08:43:37.000Z</time>
        <extensions>
          <ns3:TrackPointExtension>
            <ns3:hr>78</ns3:hr>
            <ns3:cad>0</ns3:cad>
          </ns3:TrackPointExtension>
        </extensions>
      </trkpt>
      <trkpt lat="43.7731222249567508697509765625" lon="1.57884386368095874786376953125">
        <ele>155</ele>
        <time>2026-08-13T08:43:38.000Z</time>
        <extensions>
          <ns3:TrackPointExtension>
            <ns3:hr>76</ns3:hr>
            <ns3:cad>0</ns3:cad>
          </ns3:TrackPointExtension>
        </extensions>
      </trkpt>
      <trkpt lat="43.773125745356082916259765625" lon="1.578851826488971710205078125">
        <ele>154.8000030517578125</ele>
        <time>2026-08-13T08:43:39.000Z</time>
        <extensions>
          <ns3:TrackPointExtension>
            <ns3:hr>76</ns3:hr>
            <ns3:cad>45</ns3:cad>
          </ns3:TrackPointExtension>
        </extensions>
      </trkpt>
      <trkpt lat="43.77313622273504734039306640625" lon="1.57884704880416393280029296875">
        <ele>154.8000030517578125</ele>
        <time>2026-08-13T08:43:40.000Z</time>
        <extensions>
          <ns3:TrackPointExtension>
            <ns3:hr>75</ns3:hr>
            <ns3:cad>47</ns3:cad>
          </ns3:TrackPointExtension>
        </extensions>
      </trkpt>
      <trkpt lat="43.7731446884572505950927734375" lon="1.5788332186639308929443359375">
        <ele>154.8000030517578125</ele>
        <time>2026-08-13T08:43:41.000Z</time>
        <extensions>
          <ns3:TrackPointExtension>
            <ns3:hr>74</ns3:hr>
            <ns3:cad>47</ns3:cad>
          </ns3:TrackPointExtension>
        </extensions>
      </trkpt>
      <trkpt lat="43.77315231598913669586181640625" lon="1.578822992742061614990234375">
        <ele>154.8000030517578125</ele>
        <time>2026-08-13T08:43:42.000Z</time>
        <extensions>
          <ns3:TrackPointExtension>
            <ns3:hr>73</ns3:hr>
            <ns3:cad>46</ns3:cad>
          </ns3:TrackPointExtension>
        </extensions>
      </trkpt>
      <trkpt lat="43.773157261312007904052734375" lon="1.57881871797144412994384765625">
        <ele>154.600006103515625</ele>
        <time>2026-08-13T08:43:43.000Z</time>
        <extensions>
          <ns3:TrackPointExtension>
            <ns3:hr>72</ns3:hr>
            <ns3:cad>46</ns3:cad>
          </ns3:TrackPointExtension>
        </extensions>
      </trkpt>
      <trkpt lat="43.7731616199016571044921875" lon="1.57880983315408229827880859375">
        <ele>154.600006103515625</ele>
        <time>2026-08-13T08:43:44.000Z</time>
        <extensions>
          <ns3:TrackPointExtension>
            <ns3:hr>71</ns3:hr>
            <ns3:cad>48</ns3:cad>
          </ns3:TrackPointExtension>
        </extensions>
      </trkpt>
      <trkpt lat="43.7731691636145114898681640625" lon="1.57879960723221302032470703125">
        <ele>154.600006103515625</ele>
        <time>2026-08-13T08:43:45.000Z</time>
        <extensions>
          <ns3:TrackPointExtension>
            <ns3:hr>70</ns3:hr>
            <ns3:cad>48</ns3:cad>
          </ns3:TrackPointExtension>
        </extensions>
      </trkpt>
      <trkpt lat="43.77317662350833415985107421875" lon="1.57879047095775604248046875">
        <ele>154.600006103515625</ele>
        <time>2026-08-13T08:43:46.000Z</time>
        <extensions>
          <ns3:TrackPointExtension>
            <ns3:hr>69</ns3:hr>
            <ns3:cad>48</ns3:cad>
          </ns3:TrackPointExtension>
        </extensions>
      </trkpt>
      <trkpt lat="43.77318467013537883758544921875" lon="1.5787892974913120269775390625">
        <ele>154.399993896484375</ele>
        <time>2026-08-13T08:43:47.000Z</time>
        <extensions>
          <ns3:TrackPointExtension>
            <ns3:hr>69</ns3:hr>
            <ns3:cad>47</ns3:cad>
          </ns3:TrackPointExtension>
        </extensions>
      </trkpt>
      <trkpt lat="43.77318634651601314544677734375" lon="1.57878552563488483428955078125">
        <ele>154.399993896484375</ele>
        <time>2026-08-13T08:43:48.000Z</time>
        <extensions>
          <ns3:TrackPointExtension>
            <ns3:hr>69</ns3:hr>
            <ns3:cad>47</ns3:cad>
          </ns3:TrackPointExtension>
        </extensions>
      </trkpt>
      <trkpt lat="43.7731933034956455230712890625" lon="1.57877898775041103363037109375">
        <ele>154.399993896484375</ele>
        <time>2026-08-13T08:43:49.000Z</time>
        <extensions>
          <ns3:TrackPointExtension>
            <ns3:hr>68</ns3:hr>
            <ns3:cad>46</ns3:cad>
          </ns3:TrackPointExtension>
        </extensions>
      </trkpt>
      <trkpt lat="43.773202858865261077880859375" lon="1.57877144403755664825439453125">
        <ele>154.399993896484375</ele>
        <time>2026-08-13T08:43:50.000Z</time>
        <extensions>
          <ns3:TrackPointExtension>
            <ns3:hr>68</ns3:hr>
            <ns3:cad>46</ns3:cad>
          </ns3:TrackPointExtension>
        </extensions>
      </trkpt>
      <trkpt lat="43.77320981584489345550537109375" lon="1.57876574434340000152587890625">
        <ele>154.1999969482421875</ele>
        <time>2026-08-13T08:43:51.000Z</time>
        <extensions>
          <ns3:TrackPointExtension>
            <ns3:hr>68</ns3:hr>
            <ns3:cad>46</ns3:cad>
          </ns3:TrackPointExtension>
        </extensions>
      </trkpt>
      <trkpt lat="43.773216940462589263916015625" lon="1.578761972486972808837890625">
        <ele>154.1999969482421875</ele>
        <time>2026-08-13T08:43:52.000Z</time>
        <extensions>
          <ns3:TrackPointExtension>
            <ns3:hr>69</ns3:hr>
            <ns3:cad>47</ns3:cad>
          </ns3:TrackPointExtension>
        </extensions>
      </trkpt>
      <trkpt lat="43.77322129905223846435546875" lon="1.57875233329832553863525390625">
        <ele>154.1999969482421875</ele>
        <time>2026-08-13T08:43:53.000Z</time>
        <extensions>
          <ns3:TrackPointExtension>
            <ns3:hr>68</ns3:hr>
            <ns3:cad>48</ns3:cad>
          </ns3:TrackPointExtension>
        </extensions>
      </trkpt>
      <trkpt lat="43.7732278369367122650146484375" lon="1.57874227501451969146728515625">
        <ele>154.1999969482421875</ele>
        <time>2026-08-13T08:43:54.000Z</time>
        <extensions>
          <ns3:TrackPointExtension>
            <ns3:hr>68</ns3:hr>
            <ns3:cad>48</ns3:cad>
          </ns3:TrackPointExtension>
        </extensions>
      </trkpt>
      <trkpt lat="43.7732385657727718353271484375" lon="1.5787259303033351898193359375">
        <ele>154</ele>
        <time>2026-08-13T08:43:55.000Z</time>
        <extensions>
          <ns3:TrackPointExtension>
            <ns3:hr>69</ns3:hr>
            <ns3:cad>47</ns3:cad>
          </ns3:TrackPointExtension>
        </extensions>
      </trkpt>
      <trkpt lat="43.7732469476759433746337890625" lon="1.578711681067943572998046875">
        <ele>154</ele>
        <time>2026-08-13T08:43:56.000Z</time>
        <extensions>
          <ns3:TrackPointExtension>
            <ns3:hr>68</ns3:hr>
            <ns3:cad>47</ns3:cad>
          </ns3:TrackPointExtension>
        </extensions>
      </trkpt>
      <trkpt lat="43.773253150284290313720703125" lon="1.57869927585124969482421875">
        <ele>154</ele>
        <time>2026-08-13T08:43:57.000Z</time>
        <extensions>
          <ns3:TrackPointExtension>
            <ns3:hr>68</ns3:hr>
            <ns3:cad>47</ns3:cad>
          </ns3:TrackPointExtension>
        </extensions>
      </trkpt>
      <trkpt lat="43.773257173597812652587890625" lon="1.5786905586719512939453125">
        <ele>154</ele>
        <time>2026-08-13T08:43:58.000Z</time>
        <extensions>
          <ns3:TrackPointExtension>
            <ns3:hr>69</ns3:hr>
            <ns3:cad>47</ns3:cad>
          </ns3:TrackPointExtension>
        </extensions>
      </trkpt>
      <trkpt lat="43.7732647173106670379638671875" lon="1.5786789916455745697021484375">
        <ele>154</ele>
        <time>2026-08-13T08:43:59.000Z</time>
        <extensions>
          <ns3:TrackPointExtension>
            <ns3:hr>68</ns3:hr>
            <ns3:cad>47</ns3:cad>
          </ns3:TrackPointExtension>
        </extensions>
      </trkpt>
      <trkpt lat="43.77327301539480686187744140625" lon="1.57866851426661014556884765625">
        <ele>153.8000030517578125</ele>
        <time>2026-08-13T08:44:00.000Z</time>
        <extensions>
          <ns3:TrackPointExtension>
            <ns3:hr>68</ns3:hr>
            <ns3:cad>48</ns3:cad>
          </ns3:TrackPointExtension>
        </extensions>
      </trkpt>
      <trkpt lat="43.77327804453670978546142578125" lon="1.57865812070667743682861328125">
        <ele>153.8000030517578125</ele>
        <time>2026-08-13T08:44:01.000Z</time>
        <extensions>
          <ns3:TrackPointExtension>
            <ns3:hr>69</ns3:hr>
            <ns3:cad>48</ns3:cad>
          </ns3:TrackPointExtension>
        </extensions>
      </trkpt>
      <trkpt lat="43.77328433096408843994140625" lon="1.57865141518414020538330078125">
        <ele>153.8000030517578125</ele>
        <time>2026-08-13T08:44:02.000Z</time>
        <extensions>
          <ns3:TrackPointExtension>
            <ns3:hr>69</ns3:hr>
            <ns3:cad>48</ns3:cad>
          </ns3:TrackPointExtension>
        </extensions>
      </trkpt>
      <trkpt lat="43.77329061739146709442138671875" lon="1.57864102162420749664306640625">
        <ele>153.600006103515625</ele>
        <time>2026-08-13T08:44:03.000Z</time>
        <extensions>
          <ns3:TrackPointExtension>
            <ns3:hr>69</ns3:hr>
            <ns3:cad>47</ns3:cad>
          </ns3:TrackPointExtension>
        </extensions>
      </trkpt>
      <trkpt lat="43.77330134622752666473388671875" lon="1.5786330588161945343017578125">
        <ele>153.600006103515625</ele>
        <time>2026-08-13T08:44:04.000Z</time>
        <extensions>
          <ns3:TrackPointExtension>
            <ns3:hr>69</ns3:hr>
            <ns3:cad>47</ns3:cad>
          </ns3:TrackPointExtension>
        </extensions>
      </trkpt>
      <trkpt lat="43.77330847084522247314453125" lon="1.5786260180175304412841796875">
        <ele>153.600006103515625</ele>
        <time>2026-08-13T08:44:05.000Z</time>
        <extensions>
          <ns3:TrackPointExtension>
            <ns3:hr>69</ns3:hr>
            <ns3:cad>47</ns3:cad>
          </ns3:TrackPointExtension>
        </extensions>
      </trkpt>
      <trkpt lat="43.7733113206923007965087890625" lon="1.57862283289432525634765625">
        <ele>153.600006103515625</ele>
        <time>2026-08-13T08:44:06.000Z</time>
        <extensions>
          <ns3:TrackPointExtension>
            <ns3:hr>70</ns3:hr>
            <ns3:cad>47</ns3:cad>
          </ns3:TrackPointExtension>
        </extensions>
      </trkpt>
      <trkpt lat="43.77331643365323543548583984375" lon="1.578620485961437225341796875">
        <ele>153.600006103515625</ele>
        <time>2026-08-13T08:44:07.000Z</time>
        <extensions>
          <ns3:TrackPointExtension>
            <ns3:hr>70</ns3:hr>
            <ns3:cad>48</ns3:cad>
          </ns3:TrackPointExtension>
        </extensions>
      </trkpt>
      <trkpt lat="43.77332129515707492828369140625" lon="1.57861939631402492523193359375">
        <ele>153.600006103515625</ele>
        <time>2026-08-13T08:44:08.000Z</time>
        <extensions>
          <ns3:TrackPointExtension>
            <ns3:hr>70</ns3:hr>
            <ns3:cad>48</ns3:cad>
          </ns3:TrackPointExtension>
        </extensions>
      </trkpt>
      <trkpt lat="43.773322217166423797607421875" lon="1.57862442545592784881591796875">
        <ele>153.399993896484375</ele>
        <time>2026-08-13T08:44:09.000Z</time>
        <extensions>
          <ns3:TrackPointExtension>
            <ns3:hr>71</ns3:hr>
            <ns3:cad>0</ns3:cad>
          </ns3:TrackPointExtension>
        </extensions>
      </trkpt>
      <trkpt lat="43.7733230553567409515380859375" lon="1.5786270238459110260009765625">
        <ele>153.399993896484375</ele>
        <time>2026-08-13T08:44:10.000Z</time>
        <extensions>
          <ns3:TrackPointExtension>
            <ns3:hr>70</ns3:hr>
            <ns3:cad>0</ns3:cad>
          </ns3:TrackPointExtension>
        </extensions>
      </trkpt>
      <trkpt lat="43.7733230553567409515380859375" lon="1.5786261856555938720703125">
        <ele>153.399993896484375</ele>
        <time>2026-08-13T08:44:11.000Z</time>
        <extensions>
          <ns3:TrackPointExtension>
            <ns3:hr>70</ns3:hr>
            <ns3:cad>0</ns3:cad>
          </ns3:TrackPointExtension>
        </extensions>
      </trkpt>
      <trkpt lat="43.7733250670135021209716796875" lon="1.5786250121891498565673828125">
        <ele>153.399993896484375</ele>
        <time>2026-08-13T08:44:12.000Z</time>
        <extensions>
          <ns3:TrackPointExtension>
            <ns3:hr>71</ns3:hr>
            <ns3:cad>0</ns3:cad>
          </ns3:TrackPointExtension>
        </extensions>
      </trkpt>
      <trkpt lat="43.7733277492225170135498046875" lon="1.578622162342071533203125">
        <ele>153.399993896484375</ele>
        <time>2026-08-13T08:44:13.000Z</time>
        <extensions>
          <ns3:TrackPointExtension>
            <ns3:hr>71</ns3:hr>
            <ns3:cad>0</ns3:cad>
          </ns3:TrackPointExtension>
        </extensions>
      </trkpt>
      <trkpt lat="43.773330934345722198486328125" lon="1.578618474304676055908203125">
        <ele>153.399993896484375</ele>
        <time>2026-08-13T08:44:14.000Z</time>
        <extensions>
          <ns3:TrackPointExtension>
            <ns3:hr>71</ns3:hr>
            <ns3:cad>0</ns3:cad>
          </ns3:TrackPointExtension>
        </extensions>
      </trkpt>
      <trkpt lat="43.77333185635507106781005859375" lon="1.57861755229532718658447265625">
        <ele>153.399993896484375</ele>
        <time>2026-08-13T08:44:15.000Z</time>
        <extensions>
          <ns3:TrackPointExtension>
            <ns3:hr>71</ns3:hr>
            <ns3:cad>0</ns3:cad>
          </ns3:TrackPointExtension>
        </extensions>
      </trkpt>
      <trkpt lat="43.7733294256031513214111328125" lon="1.57861880958080291748046875">
        <ele>153.399993896484375</ele>
        <time>2026-08-13T08:44:16.000Z</time>
        <extensions>
          <ns3:TrackPointExtension>
            <ns3:hr>71</ns3:hr>
            <ns3:cad>0</ns3:cad>
          </ns3:TrackPointExtension>
        </extensions>
      </trkpt>
      <trkpt lat="43.77333453856408596038818359375" lon="1.57862341962754726409912109375">
        <ele>153.399993896484375</ele>
        <time>2026-08-13T08:44:17.000Z</time>
        <extensions>
          <ns3:TrackPointExtension>
            <ns3:hr>71</ns3:hr>
            <ns3:cad>0</ns3:cad>
          </ns3:TrackPointExtension>
        </extensions>
      </trkpt>
      <trkpt lat="43.77333353273570537567138671875" lon="1.5786263532936573028564453125">
        <ele>153.600006103515625</ele>
        <time>2026-08-13T08:44:18.000Z</time>
        <extensions>
          <ns3:TrackPointExtension>
            <ns3:hr>71</ns3:hr>
            <ns3:cad>0</ns3:cad>
          </ns3:TrackPointExtension>
        </extensions>
      </trkpt>
      <trkpt lat="43.7733401544392108917236328125" lon="1.57861554063856601715087890625">
        <ele>153.8000030517578125</ele>
        <time>2026-08-13T08:44:19.000Z</time>
        <extensions>
          <ns3:TrackPointExtension>
            <ns3:hr>72</ns3:hr>
            <ns3:cad>0</ns3:cad>
          </ns3:TrackPointExtension>
        </extensions>
      </trkpt>
      <trkpt lat="43.77334074117243289947509765625" lon="1.5786223299801349639892578125">
        <ele>153.8000030517578125</ele>
        <time>2026-08-13T08:44:20.000Z</time>
        <extensions>
          <ns3:TrackPointExtension>
            <ns3:hr>72</ns3:hr>
            <ns3:cad>0</ns3:cad>
          </ns3:TrackPointExtension>
        </extensions>
      </trkpt>
      <trkpt lat="43.7733418308198451995849609375" lon="1.57863196916878223419189453125">
        <ele>153.8000030517578125</ele>
        <time>2026-08-13T08:44:21.000Z</time>
        <extensions>
          <ns3:TrackPointExtension>
            <ns3:hr>71</ns3:hr>
            <ns3:cad>0</ns3:cad>
          </ns3:TrackPointExtension>
        </extensions>
      </trkpt>
      <trkpt lat="43.773341663181781768798828125" lon="1.57863632775843143463134765625">
        <ele>153.8000030517578125</ele>
        <time>2026-08-13T08:44:22.000Z</time>
        <extensions>
          <ns3:TrackPointExtension>
            <ns3:hr>71</ns3:hr>
            <ns3:cad>0</ns3:cad>
          </ns3:TrackPointExtension>
        </extensions>
      </trkpt>
      <trkpt lat="43.77334241755306720733642578125" lon="1.57863557338714599609375">
        <ele>153.600006103515625</ele>
        <time>2026-08-13T08:44:23.000Z</time>
        <extensions>
          <ns3:TrackPointExtension>
            <ns3:hr>71</ns3:hr>
            <ns3:cad>0</ns3:cad>
          </ns3:TrackPointExtension>
        </extensions>
      </trkpt>
      <trkpt lat="43.7733404897153377532958984375" lon="1.57863649539649486541748046875">
        <ele>153.399993896484375</ele>
        <time>2026-08-13T08:44:24.000Z</time>
        <extensions>
          <ns3:TrackPointExtension>
            <ns3:hr>72</ns3:hr>
            <ns3:cad>0</ns3:cad>
          </ns3:TrackPointExtension>
        </extensions>
      </trkpt>
      <trkpt lat="43.77334090881049633026123046875" lon="1.57863565720617771148681640625">
        <ele>153.399993896484375</ele>
        <time>2026-08-13T08:44:25.000Z</time>
        <extensions>
          <ns3:TrackPointExtension>
            <ns3:hr>72</ns3:hr>
            <ns3:cad>0</ns3:cad>
          </ns3:TrackPointExtension>
        </extensions>
      </trkpt>
      <trkpt lat="43.77333839423954486846923828125" lon="1.578635908663272857666015625">
        <ele>153.399993896484375</ele>
        <time>2026-08-13T08:44:26.000Z</time>
        <extensions>
          <ns3:TrackPointExtension>
            <ns3:hr>72</ns3:hr>
            <ns3:cad>0</ns3:cad>
          </ns3:TrackPointExtension>
        </extensions>
      </trkpt>
      <trkpt lat="43.77333822660148143768310546875" lon="1.5786342322826385498046875">
        <ele>153.399993896484375</ele>
        <time>2026-08-13T08:44:27.000Z</time>
        <extensions>
          <ns3:TrackPointExtension>
            <ns3:hr>72</ns3:hr>
            <ns3:cad>0</ns3:cad>
          </ns3:TrackPointExtension>
        </extensions>
      </trkpt>
      <trkpt lat="43.77334040589630603790283203125" lon="1.578633897006511688232421875">
        <ele>153.399993896484375</ele>
        <time>2026-08-13T08:44:28.000Z</time>
        <extensions>
          <ns3:TrackPointExtension>
            <ns3:hr>71</ns3:hr>
            <ns3:cad>0</ns3:cad>
          </ns3:TrackPointExtension>
        </extensions>
      </trkpt>
      <trkpt lat="43.77334333956241607666015625" lon="1.57863163389265537261962890625">
        <ele>153.399993896484375</ele>
        <time>2026-08-13T08:44:29.000Z</time>
        <extensions>
          <ns3:TrackPointExtension>
            <ns3:hr>71</ns3:hr>
            <ns3:cad>0</ns3:cad>
          </ns3:TrackPointExtension>
        </extensions>
      </trkpt>
      <trkpt lat="43.7733461894094944000244140625" lon="1.57863230444490909576416015625">
        <ele>153.399993896484375</ele>
        <time>2026-08-13T08:44:30.000Z</time>
        <extensions>
          <ns3:TrackPointExtension>
            <ns3:hr>70</ns3:hr>
            <ns3:cad>0</ns3:cad>
          </ns3:TrackPointExtension>
        </extensions>
      </trkpt>
      <trkpt lat="43.77334694378077983856201171875" lon="1.57862953841686248779296875">
        <ele>153.399993896484375</ele>
        <time>2026-08-13T08:44:31.000Z</time>
        <extensions>
          <ns3:TrackPointExtension>
            <ns3:hr>69</ns3:hr>
            <ns3:cad>0</ns3:cad>
          </ns3:TrackPointExtension>
        </extensions>
      </trkpt>
      <trkpt lat="43.77334509976208209991455078125" lon="1.57862911932170391082763671875">
        <ele>153.399993896484375</ele>
        <time>2026-08-13T08:44:32.000Z</time>
        <extensions>
          <ns3:TrackPointExtension>
            <ns3:hr>68</ns3:hr>
            <ns3:cad>0</ns3:cad>
          </ns3:TrackPointExtension>
        </extensions>
      </trkpt>
      <trkpt lat="43.773348368704319000244140625" lon="1.578623838722705841064453125">
        <ele>153.399993896484375</ele>
        <time>2026-08-13T08:44:33.000Z</time>
        <extensions>
          <ns3:TrackPointExtension>
            <ns3:hr>64</ns3:hr>
            <ns3:cad>0</ns3:cad>
          </ns3:TrackPointExtension>
        </extensions>
      </trkpt>
      <trkpt lat="43.77334811724722385406494140625" lon="1.578619815409183502197265625">
        <ele>153.399993896484375</ele>
        <time>2026-08-13T08:44:34.000Z</time>
        <extensions>
          <ns3:TrackPointExtension>
            <ns3:hr>63</ns3:hr>
            <ns3:cad>0</ns3:cad>
          </ns3:TrackPointExtension>
        </extensions>
      </trkpt>
      <trkpt lat="43.77335147000849246978759765625" lon="1.5786136128008365631103515625">
        <ele>153.399993896484375</ele>
        <time>2026-08-13T08:44:35.000Z</time>
        <extensions>
          <ns3:TrackPointExtension>
            <ns3:hr>64</ns3:hr>
            <ns3:cad>0</ns3:cad>
          </ns3:TrackPointExtension>
        </extensions>
      </trkpt>
      <trkpt lat="43.77335214056074619293212890625" lon="1.57860581763088703155517578125">
        <ele>153.399993896484375</ele>
        <time>2026-08-13T08:44:36.000Z</time>
        <extensions>
          <ns3:TrackPointExtension>
            <ns3:hr>64</ns3:hr>
            <ns3:cad>41</ns3:cad>
          </ns3:TrackPointExtension>
        </extensions>
      </trkpt>
      <trkpt lat="43.77335138618946075439453125" lon="1.57860464416444301605224609375">
        <ele>153.399993896484375</ele>
        <time>2026-08-13T08:44:37.000Z</time>
        <extensions>
          <ns3:TrackPointExtension>
            <ns3:hr>65</ns3:hr>
            <ns3:cad>0</ns3:cad>
          </ns3:TrackPointExtension>
        </extensions>
      </trkpt>
      <trkpt lat="43.773349039256572723388671875" lon="1.5785968489944934844970703125">
        <ele>153.399993896484375</ele>
        <time>2026-08-13T08:44:38.000Z</time>
        <extensions>
          <ns3:TrackPointExtension>
            <ns3:hr>65</ns3:hr>
            <ns3:cad>0</ns3:cad>
          </ns3:TrackPointExtension>
        </extensions>
      </trkpt>
      <trkpt lat="43.7733495421707630157470703125" lon="1.578596346080303192138671875">
        <ele>153.399993896484375</ele>
        <time>2026-08-13T08:44:39.000Z</time>
        <extensions>
          <ns3:TrackPointExtension>
            <ns3:hr>65</ns3:hr>
            <ns3:cad>0</ns3:cad>
          </ns3:TrackPointExtension>
        </extensions>
      </trkpt>
      <trkpt lat="43.7733532302081584930419921875" lon="1.57859466969966888427734375">
        <ele>153.399993896484375</ele>
        <time>2026-08-13T08:44:40.000Z</time>
        <extensions>
          <ns3:TrackPointExtension>
            <ns3:hr>65</ns3:hr>
            <ns3:cad>0</ns3:cad>
          </ns3:TrackPointExtension>
        </extensions>
      </trkpt>
      <trkpt lat="43.7733616121113300323486328125" lon="1.5785817615687847137451171875">
        <ele>153.1999969482421875</ele>
        <time>2026-08-13T08:44:41.000Z</time>
        <extensions>
          <ns3:TrackPointExtension>
            <ns3:hr>64</ns3:hr>
            <ns3:cad>0</ns3:cad>
          </ns3:TrackPointExtension>
        </extensions>
      </trkpt>
      <trkpt lat="43.7733669765293598175048828125" lon="1.57857145182788372039794921875">
        <ele>153.1999969482421875</ele>
        <time>2026-08-13T08:44:42.000Z</time>
        <extensions>
          <ns3:TrackPointExtension>
            <ns3:hr>65</ns3:hr>
            <ns3:cad>76</ns3:cad>
          </ns3:TrackPointExtension>
        </extensions>
      </trkpt>
      <trkpt lat="43.77337678335607051849365234375" lon="1.5785552747547626495361328125">
        <ele>153.1999969482421875</ele>
        <time>2026-08-13T08:44:43.000Z</time>
        <extensions>
          <ns3:TrackPointExtension>
            <ns3:hr>65</ns3:hr>
            <ns3:cad>76</ns3:cad>
          </ns3:TrackPointExtension>
        </extensions>
      </trkpt>
      <trkpt lat="43.77338717691600322723388671875" lon="1.5785502456128597259521484375">
        <ele>153.1999969482421875</ele>
        <time>2026-08-13T08:44:44.000Z</time>
        <extensions>
          <ns3:TrackPointExtension>
            <ns3:hr>66</ns3:hr>
            <ns3:cad>76</ns3:cad>
          </ns3:TrackPointExtension>
        </extensions>
      </trkpt>
      <trkpt lat="43.77339170314371585845947265625" lon="1.57854865305125713348388671875">
        <ele>153</ele>
        <time>2026-08-13T08:44:45.000Z</time>
        <extensions>
          <ns3:TrackPointExtension>
            <ns3:hr>66</ns3:hr>
            <ns3:cad>76</ns3:cad>
          </ns3:TrackPointExtension>
        </extensions>
      </trkpt>
      <trkpt lat="43.77340234816074371337890625" lon="1.57854194752871990203857421875">
        <ele>153</ele>
        <time>2026-08-13T08:44:46.000Z</time>
        <extensions>
          <ns3:TrackPointExtension>
            <ns3:hr>66</ns3:hr>
            <ns3:cad>48</ns3:cad>
          </ns3:TrackPointExtension>
        </extensions>
      </trkpt>
      <trkpt lat="43.77341483719646930694580078125" lon="1.5785344876348972320556640625">
        <ele>153</ele>
        <time>2026-08-13T08:44:47.000Z</time>
        <extensions>
          <ns3:TrackPointExtension>
            <ns3:hr>66</ns3:hr>
            <ns3:cad>48</ns3:cad>
          </ns3:TrackPointExtension>
        </extensions>
      </trkpt>
      <trkpt lat="43.77342380583286285400390625" lon="1.57852602191269397735595703125">
        <ele>153</ele>
        <time>2026-08-13T08:44:48.000Z</time>
        <extensions>
          <ns3:TrackPointExtension>
            <ns3:hr>66</ns3:hr>
            <ns3:cad>48</ns3:cad>
          </ns3:TrackPointExtension>
        </extensions>
      </trkpt>
      <trkpt lat="43.77342975698411464691162109375" lon="1.57852250151336193084716796875">
        <ele>153</ele>
        <time>2026-08-13T08:44:49.000Z</time>
        <extensions>
          <ns3:TrackPointExtension>
            <ns3:hr>66</ns3:hr>
            <ns3:cad>48</ns3:cad>
          </ns3:TrackPointExtension>
        </extensions>
      </trkpt>
      <trkpt lat="43.7734357081353664398193359375" lon="1.578511856496334075927734375">
        <ele>152.8000030517578125</ele>
        <time>2026-08-13T08:44:50.000Z</time>
        <extensions>
          <ns3:TrackPointExtension>
            <ns3:hr>66</ns3:hr>
            <ns3:cad>47</ns3:cad>
          </ns3:TrackPointExtension>
        </extensions>
      </trkpt>
      <trkpt lat="43.77344367094337940216064453125" lon="1.5785046480596065521240234375">
        <ele>152.8000030517578125</ele>
        <time>2026-08-13T08:44:51.000Z</time>
        <extensions>
          <ns3:TrackPointExtension>
            <ns3:hr>66</ns3:hr>
            <ns3:cad>47</ns3:cad>
          </ns3:TrackPointExtension>
        </extensions>
      </trkpt>
      <trkpt lat="43.77345331013202667236328125" lon="1.5784982778131961822509765625">
        <ele>152.8000030517578125</ele>
        <time>2026-08-13T08:44:52.000Z</time>
        <extensions>
          <ns3:TrackPointExtension>
            <ns3:hr>66</ns3:hr>
            <ns3:cad>47</ns3:cad>
          </ns3:TrackPointExtension>
        </extensions>
      </trkpt>
      <trkpt lat="43.77346060238778591156005859375" lon="1.5784892253577709197998046875">
        <ele>152.8000030517578125</ele>
        <time>2026-08-13T08:44:53.000Z</time>
        <extensions>
          <ns3:TrackPointExtension>
            <ns3:hr>67</ns3:hr>
            <ns3:cad>47</ns3:cad>
          </ns3:TrackPointExtension>
        </extensions>
      </trkpt>
      <trkpt lat="43.7734645418822765350341796875" lon="1.578483022749423980712890625">
        <ele>152.8000030517578125</ele>
        <time>2026-08-13T08:44:54.000Z</time>
        <extensions>
          <ns3:TrackPointExtension>
            <ns3:hr>67</ns3:hr>
            <ns3:cad>46</ns3:cad>
          </ns3:TrackPointExtension>
        </extensions>
      </trkpt>
      <trkpt lat="43.7734685651957988739013671875" lon="1.57847204245626926422119140625">
        <ele>152.600006103515625</ele>
        <time>2026-08-13T08:44:55.000Z</time>
        <extensions>
          <ns3:TrackPointExtension>
            <ns3:hr>67</ns3:hr>
            <ns3:cad>46</ns3:cad>
          </ns3:TrackPointExtension>
        </extensions>
      </trkpt>
      <trkpt lat="43.7734719179570674896240234375" lon="1.5784650854766368865966796875">
        <ele>152.600006103515625</ele>
        <time>2026-08-13T08:44:56.000Z</time>
        <extensions>
          <ns3:TrackPointExtension>
            <ns3:hr>67</ns3:hr>
            <ns3:cad>45</ns3:cad>
          </ns3:TrackPointExtension>
        </extensions>
      </trkpt>
      <trkpt lat="43.77347921021282672882080078125" lon="1.57845410518348217010498046875">
        <ele>152.600006103515625</ele>
        <time>2026-08-13T08:44:57.000Z</time>
        <extensions>
          <ns3:TrackPointExtension>
            <ns3:hr>67</ns3:hr>
            <ns3:cad>45</ns3:cad>
          </ns3:TrackPointExtension>
        </extensions>
      </trkpt>
      <trkpt lat="43.77348415553569793701171875" lon="1.57844102941453456878662109375">
        <ele>152.399993896484375</ele>
        <time>2026-08-13T08:44:58.000Z</time>
        <extensions>
          <ns3:TrackPointExtension>
            <ns3:hr>67</ns3:hr>
            <ns3:cad>45</ns3:cad>
          </ns3:TrackPointExtension>
        </extensions>
      </trkpt>
      <trkpt lat="43.77349178306758403778076171875" lon="1.57843239605426788330078125">
        <ele>152.399993896484375</ele>
        <time>2026-08-13T08:44:59.000Z</time>
        <extensions>
          <ns3:TrackPointExtension>
            <ns3:hr>67</ns3:hr>
            <ns3:cad>47</ns3:cad>
          </ns3:TrackPointExtension>
        </extensions>
      </trkpt>
      <trkpt lat="43.773499913513660430908203125" lon="1.57842359505593776702880859375">
        <ele>152.1999969482421875</ele>
        <time>2026-08-13T08:45:00.000Z</time>
        <extensions>
          <ns3:TrackPointExtension>
            <ns3:hr>68</ns3:hr>
            <ns3:cad>47</ns3:cad>
          </ns3:TrackPointExtension>
        </extensions>
      </trkpt>
      <trkpt lat="43.77350871451199054718017578125" lon="1.578415967524051666259765625">
        <ele>152.1999969482421875</ele>
        <time>2026-08-13T08:45:01.000Z</time>
        <extensions>
          <ns3:TrackPointExtension>
            <ns3:hr>68</ns3:hr>
            <ns3:cad>49</ns3:cad>
          </ns3:TrackPointExtension>
        </extensions>
      </trkpt>
      <trkpt lat="43.77351592294871807098388671875" lon="1.578408591449260711669921875">
        <ele>152.1999969482421875</ele>
        <time>2026-08-13T08:45:02.000Z</time>
        <extensions>
          <ns3:TrackPointExtension>
            <ns3:hr>69</ns3:hr>
            <ns3:cad>49</ns3:cad>
          </ns3:TrackPointExtension>
        </extensions>
      </trkpt>
      <trkpt lat="43.77352237701416015625" lon="1.57840289175510406494140625">
        <ele>152</ele>
        <time>2026-08-13T08:45:03.000Z</time>
        <extensions>
          <ns3:TrackPointExtension>
            <ns3:hr>69</ns3:hr>
            <ns3:cad>47</ns3:cad>
          </ns3:TrackPointExtension>
        </extensions>
      </trkpt>
      <trkpt lat="43.77353134565055370330810546875" lon="1.578395180404186248779296875">
        <ele>152</ele>
        <time>2026-08-13T08:45:04.000Z</time>
        <extensions>
          <ns3:TrackPointExtension>
            <ns3:hr>71</ns3:hr>
            <ns3:cad>47</ns3:cad>
          </ns3:TrackPointExtension>
        </extensions>
      </trkpt>
      <trkpt lat="43.77353704534471035003662109375" lon="1.57838604412972927093505859375">
        <ele>152</ele>
        <time>2026-08-13T08:45:05.000Z</time>
        <extensions>
          <ns3:TrackPointExtension>
            <ns3:hr>72</ns3:hr>
            <ns3:cad>47</ns3:cad>
          </ns3:TrackPointExtension>
        </extensions>
      </trkpt>
      <trkpt lat="43.77354458905756473541259765625" lon="1.57837615348398685455322265625">
        <ele>152</ele>
        <time>2026-08-13T08:45:06.000Z</time>
        <extensions>
          <ns3:TrackPointExtension>
            <ns3:hr>73</ns3:hr>
            <ns3:cad>47</ns3:cad>
          </ns3:TrackPointExtension>
        </extensions>
      </trkpt>
      <trkpt lat="43.7735520489513874053955078125" lon="1.57837246544659137725830078125">
        <ele>151.8000030517578125</ele>
        <time>2026-08-13T08:45:07.000Z</time>
        <extensions>
          <ns3:TrackPointExtension>
            <ns3:hr>73</ns3:hr>
            <ns3:cad>47</ns3:cad>
          </ns3:TrackPointExtension>
        </extensions>
      </trkpt>
      <trkpt lat="43.773555569350719451904296875" lon="1.578365676105022430419921875">
        <ele>151.8000030517578125</ele>
        <time>2026-08-13T08:45:08.000Z</time>
        <extensions>
          <ns3:TrackPointExtension>
            <ns3:hr>74</ns3:hr>
            <ns3:cad>47</ns3:cad>
          </ns3:TrackPointExtension>
        </extensions>
      </trkpt>
      <trkpt lat="43.77356101758778095245361328125" lon="1.57835662364959716796875">
        <ele>151.8000030517578125</ele>
        <time>2026-08-13T08:45:09.000Z</time>
        <extensions>
          <ns3:TrackPointExtension>
            <ns3:hr>74</ns3:hr>
            <ns3:cad>0</ns3:cad>
          </ns3:TrackPointExtension>
        </extensions>
      </trkpt>
      <trkpt lat="43.7735651247203350067138671875" lon="1.578348577022552490234375">
        <ele>151.8000030517578125</ele>
        <time>2026-08-13T08:45:10.000Z</time>
        <extensions>
          <ns3:TrackPointExtension>
            <ns3:hr>75</ns3:hr>
            <ns3:cad>0</ns3:cad>
          </ns3:TrackPointExtension>
        </extensions>
      </trkpt>
      <trkpt lat="43.77357007004320621490478515625" lon="1.57834061421453952789306640625">
        <ele>151.600006103515625</ele>
        <time>2026-08-13T08:45:11.000Z</time>
        <extensions>
          <ns3:TrackPointExtension>
            <ns3:hr>75</ns3:hr>
            <ns3:cad>0</ns3:cad>
          </ns3:TrackPointExtension>
        </extensions>
      </trkpt>
      <trkpt lat="43.7735718302428722381591796875" lon="1.5783316455781459808349609375">
        <ele>151.600006103515625</ele>
        <time>2026-08-13T08:45:12.000Z</time>
        <extensions>
          <ns3:TrackPointExtension>
            <ns3:hr>75</ns3:hr>
            <ns3:cad>0</ns3:cad>
          </ns3:TrackPointExtension>
        </extensions>
      </trkpt>
      <trkpt lat="43.77357400953769683837890625" lon="1.57832452096045017242431640625">
        <ele>151.600006103515625</ele>
        <time>2026-08-13T08:45:13.000Z</time>
        <extensions>
          <ns3:TrackPointExtension>
            <ns3:hr>75</ns3:hr>
            <ns3:cad>0</ns3:cad>
          </ns3:TrackPointExtension>
        </extensions>
      </trkpt>
      <trkpt lat="43.7735778652131557464599609375" lon="1.5783150494098663330078125">
        <ele>151.600006103515625</ele>
        <time>2026-08-13T08:45:14.000Z</time>
        <extensions>
          <ns3:TrackPointExtension>
            <ns3:hr>74</ns3:hr>
            <ns3:cad>0</ns3:cad>
          </ns3:TrackPointExtension>
        </extensions>
      </trkpt>
      <trkpt lat="43.77358197234570980072021484375" lon="1.5783054940402507781982421875">
        <ele>151.600006103515625</ele>
        <time>2026-08-13T08:45:15.000Z</time>
        <extensions>
          <ns3:TrackPointExtension>
            <ns3:hr>73</ns3:hr>
            <ns3:cad>0</ns3:cad>
          </ns3:TrackPointExtension>
        </extensions>
      </trkpt>
      <trkpt lat="43.773587755858898162841796875" lon="1.578297279775142669677734375">
        <ele>151.600006103515625</ele>
        <time>2026-08-13T08:45:16.000Z</time>
        <extensions>
          <ns3:TrackPointExtension>
            <ns3:hr>71</ns3:hr>
            <ns3:cad>0</ns3:cad>
          </ns3:TrackPointExtension>
        </extensions>
      </trkpt>
      <trkpt lat="43.77359471283853054046630859375" lon="1.57828831113874912261962890625">
        <ele>151.600006103515625</ele>
        <time>2026-08-13T08:45:17.000Z</time>
        <extensions>
          <ns3:TrackPointExtension>
            <ns3:hr>70</ns3:hr>
            <ns3:cad>0</ns3:cad>
          </ns3:TrackPointExtension>
        </extensions>
      </trkpt>
      <trkpt lat="43.773601837456226348876953125" lon="1.57828227616846561431884765625">
        <ele>151.399993896484375</ele>
        <time>2026-08-13T08:45:18.000Z</time>
        <extensions>
          <ns3:TrackPointExtension>
            <ns3:hr>70</ns3:hr>
            <ns3:cad>0</ns3:cad>
          </ns3:TrackPointExtension>
        </extensions>
      </trkpt>
      <trkpt lat="43.773611895740032196044921875" lon="1.5782702900469303131103515625">
        <ele>151.399993896484375</ele>
        <time>2026-08-13T08:45:19.000Z</time>
        <extensions>
          <ns3:TrackPointExtension>
            <ns3:hr>70</ns3:hr>
            <ns3:cad>0</ns3:cad>
          </ns3:TrackPointExtension>
        </extensions>
      </trkpt>
      <trkpt lat="43.773619271814823150634765625" lon="1.57825796864926815032958984375">
        <ele>151.399993896484375</ele>
        <time>2026-08-13T08:45:20.000Z</time>
        <extensions>
          <ns3:TrackPointExtension>
            <ns3:hr>71</ns3:hr>
            <ns3:cad>0</ns3:cad>
          </ns3:TrackPointExtension>
        </extensions>
      </trkpt>
      <trkpt lat="43.7736254744231700897216796875" lon="1.57825042493641376495361328125">
        <ele>151.399993896484375</ele>
        <time>2026-08-13T08:45:21.000Z</time>
        <extensions>
          <ns3:TrackPointExtension>
            <ns3:hr>71</ns3:hr>
            <ns3:cad>42</ns3:cad>
          </ns3:TrackPointExtension>
        </extensions>
      </trkpt>
      <trkpt lat="43.773628659546375274658203125" lon="1.578239612281322479248046875">
        <ele>151.399993896484375</ele>
        <time>2026-08-13T08:45:22.000Z</time>
        <extensions>
          <ns3:TrackPointExtension>
            <ns3:hr>72</ns3:hr>
            <ns3:cad>44</ns3:cad>
          </ns3:TrackPointExtension>
        </extensions>
      </trkpt>
      <trkpt lat="43.7736311741173267364501953125" lon="1.5782334096729755401611328125">
        <ele>151.399993896484375</ele>
        <time>2026-08-13T08:45:23.000Z</time>
        <extensions>
          <ns3:TrackPointExtension>
            <ns3:hr>72</ns3:hr>
            <ns3:cad>45</ns3:cad>
          </ns3:TrackPointExtension>
        </extensions>
      </trkpt>
      <trkpt lat="43.77363746054470539093017578125" lon="1.57822293229401111602783203125">
        <ele>151.399993896484375</ele>
        <time>2026-08-13T08:45:24.000Z</time>
        <extensions>
          <ns3:TrackPointExtension>
            <ns3:hr>72</ns3:hr>
            <ns3:cad>45</ns3:cad>
          </ns3:TrackPointExtension>
        </extensions>
      </trkpt>
      <trkpt lat="43.773646764457225799560546875" lon="1.578208096325397491455078125">
        <ele>151.399993896484375</ele>
        <time>2026-08-13T08:45:25.000Z</time>
        <extensions>
          <ns3:TrackPointExtension>
            <ns3:hr>72</ns3:hr>
            <ns3:cad>47</ns3:cad>
          </ns3:TrackPointExtension>
        </extensions>
      </trkpt>
      <trkpt lat="43.77364885993301868438720703125" lon="1.5781985409557819366455078125">
        <ele>151.1999969482421875</ele>
        <time>2026-08-13T08:45:26.000Z</time>
        <extensions>
          <ns3:TrackPointExtension>
            <ns3:hr>73</ns3:hr>
            <ns3:cad>47</ns3:cad>
          </ns3:TrackPointExtension>
        </extensions>
      </trkpt>
      <trkpt lat="43.773654811084270477294921875" lon="1.57819594256579875946044921875">
        <ele>151.1999969482421875</ele>
        <time>2026-08-13T08:45:27.000Z</time>
        <extensions>
          <ns3:TrackPointExtension>
            <ns3:hr>73</ns3:hr>
            <ns3:cad>49</ns3:cad>
          </ns3:TrackPointExtension>
        </extensions>
      </trkpt>
      <trkpt lat="43.77365984022617340087890625" lon="1.57818789593875408172607421875">
        <ele>151.1999969482421875</ele>
        <time>2026-08-13T08:45:28.000Z</time>
        <extensions>
          <ns3:TrackPointExtension>
            <ns3:hr>73</ns3:hr>
            <ns3:cad>50</ns3:cad>
          </ns3:TrackPointExtension>
        </extensions>
      </trkpt>
      <trkpt lat="43.7736690603196620941162109375" lon="1.5781730599701404571533203125">
        <ele>151.1999969482421875</ele>
        <time>2026-08-13T08:45:29.000Z</time>
        <extensions>
          <ns3:TrackPointExtension>
            <ns3:hr>75</ns3:hr>
            <ns3:cad>48</ns3:cad>
          </ns3:TrackPointExtension>
        </extensions>
      </trkpt>
      <trkpt lat="43.773676939308643341064453125" lon="1.578160822391510009765625">
        <ele>151.1999969482421875</ele>
        <time>2026-08-13T08:45:30.000Z</time>
        <extensions>
          <ns3:TrackPointExtension>
            <ns3:hr>76</ns3:hr>
            <ns3:cad>48</ns3:cad>
          </ns3:TrackPointExtension>
        </extensions>
      </trkpt>
      <trkpt lat="43.7736801244318485260009765625" lon="1.578151769936084747314453125">
        <ele>151</ele>
        <time>2026-08-13T08:45:31.000Z</time>
        <extensions>
          <ns3:TrackPointExtension>
            <ns3:hr>76</ns3:hr>
            <ns3:cad>48</ns3:cad>
          </ns3:TrackPointExtension>
        </extensions>
      </trkpt>
      <trkpt lat="43.77368322573602199554443359375" lon="1.57814330421388149261474609375">
        <ele>151</ele>
        <time>2026-08-13T08:45:32.000Z</time>
        <extensions>
          <ns3:TrackPointExtension>
            <ns3:hr>76</ns3:hr>
            <ns3:cad>48</ns3:cad>
          </ns3:TrackPointExtension>
        </extensions>
      </trkpt>
      <trkpt lat="43.7736911885440349578857421875" lon="1.57812888734042644500732421875">
        <ele>151</ele>
        <time>2026-08-13T08:45:33.000Z</time>
        <extensions>
          <ns3:TrackPointExtension>
            <ns3:hr>76</ns3:hr>
            <ns3:cad>48</ns3:cad>
          </ns3:TrackPointExtension>
        </extensions>
      </trkpt>
      <trkpt lat="43.773697055876255035400390625" lon="1.57811799086630344390869140625">
        <ele>151</ele>
        <time>2026-08-13T08:45:34.000Z</time>
        <extensions>
          <ns3:TrackPointExtension>
            <ns3:hr>76</ns3:hr>
            <ns3:cad>47</ns3:cad>
          </ns3:TrackPointExtension>
        </extensions>
      </trkpt>
      <trkpt lat="43.77370451577007770538330078125" lon="1.5781133808195590972900390625">
        <ele>150.8000030517578125</ele>
        <time>2026-08-13T08:45:35.000Z</time>
        <extensions>
          <ns3:TrackPointExtension>
            <ns3:hr>77</ns3:hr>
            <ns3:cad>47</ns3:cad>
          </ns3:TrackPointExtension>
        </extensions>
      </trkpt>
      <trkpt lat="43.77370920963585376739501953125" lon="1.57811187207698822021484375">
        <ele>150.8000030517578125</ele>
        <time>2026-08-13T08:45:36.000Z</time>
        <extensions>
          <ns3:TrackPointExtension>
            <ns3:hr>76</ns3:hr>
            <ns3:cad>46</ns3:cad>
          </ns3:TrackPointExtension>
        </extensions>
      </trkpt>
      <trkpt lat="43.77371608279645442962646484375" lon="1.5781060047447681427001953125">
        <ele>150.8000030517578125</ele>
        <time>2026-08-13T08:45:37.000Z</time>
        <extensions>
          <ns3:TrackPointExtension>
            <ns3:hr>76</ns3:hr>
            <ns3:cad>46</ns3:cad>
          </ns3:TrackPointExtension>
        </extensions>
      </trkpt>
      <trkpt lat="43.7737227044999599456787109375" lon="1.57809980213642120361328125">
        <ele>150.8000030517578125</ele>
        <time>2026-08-13T08:45:38.000Z</time>
        <extensions>
          <ns3:TrackPointExtension>
            <ns3:hr>76</ns3:hr>
            <ns3:cad>45</ns3:cad>
          </ns3:TrackPointExtension>
        </extensions>
      </trkpt>
      <trkpt lat="43.7737247161567211151123046875" lon="1.57809854485094547271728515625">
        <ele>150.8000030517578125</ele>
        <time>2026-08-13T08:45:39.000Z</time>
        <extensions>
          <ns3:TrackPointExtension>
            <ns3:hr>76</ns3:hr>
            <ns3:cad>0</ns3:cad>
          </ns3:TrackPointExtension>
        </extensions>
      </trkpt>
      <trkpt lat="43.7737280689179897308349609375" lon="1.57808949239552021026611328125">
        <ele>150.8000030517578125</ele>
        <time>2026-08-13T08:45:40.000Z</time>
        <extensions>
          <ns3:TrackPointExtension>
            <ns3:hr>76</ns3:hr>
            <ns3:cad>0</ns3:cad>
          </ns3:TrackPointExtension>
        </extensions>
      </trkpt>
      <trkpt lat="43.7737357802689075469970703125" lon="1.5780795179307460784912109375">
        <ele>150.8000030517578125</ele>
        <time>2026-08-13T08:45:41.000Z</time>
        <extensions>
          <ns3:TrackPointExtension>
            <ns3:hr>76</ns3:hr>
            <ns3:cad>0</ns3:cad>
          </ns3:TrackPointExtension>
        </extensions>
      </trkpt>
      <trkpt lat="43.773742653429508209228515625" lon="1.57807138748466968536376953125">
        <ele>150.8000030517578125</ele>
        <time>2026-08-13T08:45:42.000Z</time>
        <extensions>
          <ns3:TrackPointExtension>
            <ns3:hr>76</ns3:hr>
            <ns3:cad>0</ns3:cad>
          </ns3:TrackPointExtension>
        </extensions>
      </trkpt>
      <trkpt lat="43.7737461738288402557373046875" lon="1.57807004638016223907470703125">
        <ele>150.8000030517578125</ele>
        <time>2026-08-13T08:45:43.000Z</time>
        <extensions>
          <ns3:TrackPointExtension>
            <ns3:hr>76</ns3:hr>
            <ns3:cad>45</ns3:cad>
          </ns3:TrackPointExtension>
        </extensions>
      </trkpt>
      <trkpt lat="43.7737495265901088714599609375" lon="1.57805914990603923797607421875">
        <ele>150.600006103515625</ele>
        <time>2026-08-13T08:45:44.000Z</time>
        <extensions>
          <ns3:TrackPointExtension>
            <ns3:hr>76</ns3:hr>
            <ns3:cad>45</ns3:cad>
          </ns3:TrackPointExtension>
        </extensions>
      </trkpt>
      <trkpt lat="43.7737592495977878570556640625" lon="1.5780446492135524749755859375">
        <ele>150.600006103515625</ele>
        <time>2026-08-13T08:45:45.000Z</time>
        <extensions>
          <ns3:TrackPointExtension>
            <ns3:hr>76</ns3:hr>
            <ns3:cad>45</ns3:cad>
          </ns3:TrackPointExtension>
        </extensions>
      </trkpt>
      <trkpt lat="43.7737646140158176422119140625" lon="1.57803350128233432769775390625">
        <ele>150.600006103515625</ele>
        <time>2026-08-13T08:45:46.000Z</time>
        <extensions>
          <ns3:TrackPointExtension>
            <ns3:hr>75</ns3:hr>
            <ns3:cad>45</ns3:cad>
          </ns3:TrackPointExtension>
        </extensions>
      </trkpt>
      <trkpt lat="43.7737706489861011505126953125" lon="1.57802880741655826568603515625">
        <ele>150.399993896484375</ele>
        <time>2026-08-13T08:45:47.000Z</time>
        <extensions>
          <ns3:TrackPointExtension>
            <ns3:hr>75</ns3:hr>
            <ns3:cad>45</ns3:cad>
          </ns3:TrackPointExtension>
        </extensions>
      </trkpt>
      <trkpt lat="43.77377676777541637420654296875" lon="1.5780173242092132568359375">
        <ele>150.399993896484375</ele>
        <time>2026-08-13T08:45:48.000Z</time>
        <extensions>
          <ns3:TrackPointExtension>
            <ns3:hr>75</ns3:hr>
            <ns3:cad>45</ns3:cad>
          </ns3:TrackPointExtension>
        </extensions>
      </trkpt>
      <trkpt lat="43.77378699369728565216064453125" lon="1.57800458371639251708984375">
        <ele>150.399993896484375</ele>
        <time>2026-08-13T08:45:49.000Z</time>
        <extensions>
          <ns3:TrackPointExtension>
            <ns3:hr>75</ns3:hr>
            <ns3:cad>44</ns3:cad>
          </ns3:TrackPointExtension>
        </extensions>
      </trkpt>
      <trkpt lat="43.77379596233367919921875" lon="1.577996201813220977783203125">
        <ele>150.399993896484375</ele>
        <time>2026-08-13T08:45:50.000Z</time>
        <extensions>
          <ns3:TrackPointExtension>
            <ns3:hr>76</ns3:hr>
            <ns3:cad>44</ns3:cad>
          </ns3:TrackPointExtension>
        </extensions>
      </trkpt>
      <trkpt lat="43.7738035060465335845947265625" lon="1.57798958010971546173095703125">
        <ele>150.399993896484375</ele>
        <time>2026-08-13T08:45:51.000Z</time>
        <extensions>
          <ns3:TrackPointExtension>
            <ns3:hr>75</ns3:hr>
            <ns3:cad>45</ns3:cad>
          </ns3:TrackPointExtension>
        </extensions>
      </trkpt>
      <trkpt lat="43.77380576916038990020751953125" lon="1.57798421569168567657470703125">
        <ele>150.399993896484375</ele>
        <time>2026-08-13T08:45:52.000Z</time>
        <extensions>
          <ns3:TrackPointExtension>
            <ns3:hr>76</ns3:hr>
            <ns3:cad>45</ns3:cad>
          </ns3:TrackPointExtension>
        </extensions>
      </trkpt>
      <trkpt lat="43.77381146885454654693603515625" lon="1.57797382213175296783447265625">
        <ele>150.399993896484375</ele>
        <time>2026-08-13T08:45:53.000Z</time>
        <extensions>
          <ns3:TrackPointExtension>
            <ns3:hr>76</ns3:hr>
            <ns3:cad>46</ns3:cad>
          </ns3:TrackPointExtension>
        </extensions>
      </trkpt>
      <trkpt lat="43.77381985075771808624267578125" lon="1.5779638476669788360595703125">
        <ele>150.399993896484375</ele>
        <time>2026-08-13T08:45:54.000Z</time>
        <extensions>
          <ns3:TrackPointExtension>
            <ns3:hr>76</ns3:hr>
            <ns3:cad>46</ns3:cad>
          </ns3:TrackPointExtension>
        </extensions>
      </trkpt>
      <trkpt lat="43.77382739447057247161865234375" lon="1.57795269973576068878173828125">
        <ele>150.1999969482421875</ele>
        <time>2026-08-13T08:45:55.000Z</time>
        <extensions>
          <ns3:TrackPointExtension>
            <ns3:hr>76</ns3:hr>
            <ns3:cad>46</ns3:cad>
          </ns3:TrackPointExtension>
        </extensions>
      </trkpt>
      <trkpt lat="43.77382990904152393341064453125" lon="1.577947251498699188232421875">
        <ele>150.1999969482421875</ele>
        <time>2026-08-13T08:45:56.000Z</time>
        <extensions>
          <ns3:TrackPointExtension>
            <ns3:hr>76</ns3:hr>
            <ns3:cad>47</ns3:cad>
          </ns3:TrackPointExtension>
        </extensions>
      </trkpt>
      <trkpt lat="43.77384114079177379608154296875" lon="1.5779299847781658172607421875">
        <ele>150.1999969482421875</ele>
        <time>2026-08-13T08:45:57.000Z</time>
        <extensions>
          <ns3:TrackPointExtension>
            <ns3:hr>76</ns3:hr>
            <ns3:cad>47</ns3:cad>
          </ns3:TrackPointExtension>
        </extensions>
      </trkpt>
      <trkpt lat="43.77385220490396022796630859375" lon="1.57791431061923503875732421875">
        <ele>150.1999969482421875</ele>
        <time>2026-08-13T08:45:58.000Z</time>
        <extensions>
          <ns3:TrackPointExtension>
            <ns3:hr>76</ns3:hr>
            <ns3:cad>47</ns3:cad>
          </ns3:TrackPointExtension>
        </extensions>
      </trkpt>
      <trkpt lat="43.7738564796745777130126953125" lon="1.5779073536396026611328125">
        <ele>150.1999969482421875</ele>
        <time>2026-08-13T08:45:59.000Z</time>
        <extensions>
          <ns3:TrackPointExtension>
            <ns3:hr>75</ns3:hr>
            <ns3:cad>47</ns3:cad>
          </ns3:TrackPointExtension>
        </extensions>
      </trkpt>
      <trkpt lat="43.7738611735403537750244140625" lon="1.57789855264127254486083984375">
        <ele>150.1999969482421875</ele>
        <time>2026-08-13T08:46:00.000Z</time>
        <extensions>
          <ns3:TrackPointExtension>
            <ns3:hr>76</ns3:hr>
            <ns3:cad>47</ns3:cad>
          </ns3:TrackPointExtension>
        </extensions>
      </trkpt>
      <trkpt lat="43.77386762760579586029052734375" lon="1.5778823755681514739990234375">
        <ele>150.1999969482421875</ele>
        <time>2026-08-13T08:46:01.000Z</time>
        <extensions>
          <ns3:TrackPointExtension>
            <ns3:hr>76</ns3:hr>
            <ns3:cad>44</ns3:cad>
          </ns3:TrackPointExtension>
        </extensions>
      </trkpt>
      <trkpt lat="43.7738732434809207916259765625" lon="1.57787022180855274200439453125">
        <ele>150</ele>
        <time>2026-08-13T08:46:02.000Z</time>
        <extensions>
          <ns3:TrackPointExtension>
            <ns3:hr>76</ns3:hr>
            <ns3:cad>44</ns3:cad>
          </ns3:TrackPointExtension>
        </extensions>
      </trkpt>
      <trkpt lat="43.77387668006122112274169921875" lon="1.57786066643893718719482421875">
        <ele>150</ele>
        <time>2026-08-13T08:46:03.000Z</time>
        <extensions>
          <ns3:TrackPointExtension>
            <ns3:hr>75</ns3:hr>
            <ns3:cad>45</ns3:cad>
          </ns3:TrackPointExtension>
        </extensions>
      </trkpt>
      <trkpt lat="43.77388237975537776947021484375" lon="1.57785932533442974090576171875">
        <ele>150</ele>
        <time>2026-08-13T08:46:04.000Z</time>
        <extensions>
          <ns3:TrackPointExtension>
            <ns3:hr>76</ns3:hr>
            <ns3:cad>45</ns3:cad>
          </ns3:TrackPointExtension>
        </extensions>
      </trkpt>
      <trkpt lat="43.7738866545259952545166015625" lon="1.57785303890705108642578125">
        <ele>150</ele>
        <time>2026-08-13T08:46:05.000Z</time>
        <extensions>
          <ns3:TrackPointExtension>
            <ns3:hr>76</ns3:hr>
            <ns3:cad>45</ns3:cad>
          </ns3:TrackPointExtension>
        </extensions>
      </trkpt>
      <trkpt lat="43.7738947011530399322509765625" lon="1.57783954404294490814208984375">
        <ele>149.8000030517578125</ele>
        <time>2026-08-13T08:46:06.000Z</time>
        <extensions>
          <ns3:TrackPointExtension>
            <ns3:hr>75</ns3:hr>
            <ns3:cad>45</ns3:cad>
          </ns3:TrackPointExtension>
        </extensions>
      </trkpt>
      <trkpt lat="43.77390123903751373291015625" lon="1.57781993038952350616455078125">
        <ele>149.8000030517578125</ele>
        <time>2026-08-13T08:46:07.000Z</time>
        <extensions>
          <ns3:TrackPointExtension>
            <ns3:hr>76</ns3:hr>
            <ns3:cad>47</ns3:cad>
          </ns3:TrackPointExtension>
        </extensions>
      </trkpt>
      <trkpt lat="43.77390987239778041839599609375" lon="1.57781339250504970550537109375">
        <ele>149.8000030517578125</ele>
        <time>2026-08-13T08:46:08.000Z</time>
        <extensions>
          <ns3:TrackPointExtension>
            <ns3:hr>75</ns3:hr>
            <ns3:cad>47</ns3:cad>
          </ns3:TrackPointExtension>
        </extensions>
      </trkpt>
      <trkpt lat="43.773914985358715057373046875" lon="1.57780735753476619720458984375">
        <ele>149.8000030517578125</ele>
        <time>2026-08-13T08:46:09.000Z</time>
        <extensions>
          <ns3:TrackPointExtension>
            <ns3:hr>76</ns3:hr>
            <ns3:cad>46</ns3:cad>
          </ns3:TrackPointExtension>
        </extensions>
      </trkpt>
      <trkpt lat="43.77392445690929889678955078125" lon="1.5777958743274211883544921875">
        <ele>149.8000030517578125</ele>
        <time>2026-08-13T08:46:10.000Z</time>
        <extensions>
          <ns3:TrackPointExtension>
            <ns3:hr>76</ns3:hr>
            <ns3:cad>46</ns3:cad>
          </ns3:TrackPointExtension>
        </extensions>
      </trkpt>
      <trkpt lat="43.77392948605120182037353515625" lon="1.57778254710137844085693359375">
        <ele>149.8000030517578125</ele>
        <time>2026-08-13T08:46:11.000Z</time>
        <extensions>
          <ns3:TrackPointExtension>
            <ns3:hr>76</ns3:hr>
            <ns3:cad>46</ns3:cad>
          </ns3:TrackPointExtension>
        </extensions>
      </trkpt>
      <trkpt lat="43.7739359401166439056396484375" lon="1.5777693875133991241455078125">
        <ele>149.600006103515625</ele>
        <time>2026-08-13T08:46:12.000Z</time>
        <extensions>
          <ns3:TrackPointExtension>
            <ns3:hr>76</ns3:hr>
            <ns3:cad>45</ns3:cad>
          </ns3:TrackPointExtension>
        </extensions>
      </trkpt>
      <trkpt lat="43.77393971197307109832763671875" lon="1.57776259817183017730712890625">
        <ele>149.600006103515625</ele>
        <time>2026-08-13T08:46:13.000Z</time>
        <extensions>
          <ns3:TrackPointExtension>
            <ns3:hr>76</ns3:hr>
            <ns3:cad>45</ns3:cad>
          </ns3:TrackPointExtension>
        </extensions>
      </trkpt>
      <trkpt lat="43.77394423820078372955322265625" lon="1.577752791345119476318359375">
        <ele>149.600006103515625</ele>
        <time>2026-08-13T08:46:14.000Z</time>
        <extensions>
          <ns3:TrackPointExtension>
            <ns3:hr>76</ns3:hr>
            <ns3:cad>46</ns3:cad>
          </ns3:TrackPointExtension>
        </extensions>
      </trkpt>
      <trkpt lat="43.77395563758909702301025390625" lon="1.57774046994745731353759765625">
        <ele>149.600006103515625</ele>
        <time>2026-08-13T08:46:15.000Z</time>
        <extensions>
          <ns3:TrackPointExtension>
            <ns3:hr>76</ns3:hr>
            <ns3:cad>47</ns3:cad>
          </ns3:TrackPointExtension>
        </extensions>
      </trkpt>
      <trkpt lat="43.77396469004452228546142578125" lon="1.57772119157016277313232421875">
        <ele>149.600006103515625</ele>
        <time>2026-08-13T08:46:16.000Z</time>
        <extensions>
          <ns3:TrackPointExtension>
            <ns3:hr>76</ns3:hr>
            <ns3:cad>47</ns3:cad>
          </ns3:TrackPointExtension>
        </extensions>
      </trkpt>
      <trkpt lat="43.77397005446255207061767578125" lon="1.5777117200195789337158203125">
        <ele>149.600006103515625</ele>
        <time>2026-08-13T08:46:17.000Z</time>
        <extensions>
          <ns3:TrackPointExtension>
            <ns3:hr>75</ns3:hr>
            <ns3:cad>47</ns3:cad>
          </ns3:TrackPointExtension>
        </extensions>
      </trkpt>
      <trkpt lat="43.77397307194769382476806640625" lon="1.577703170478343963623046875">
        <ele>149.399993896484375</ele>
        <time>2026-08-13T08:46:18.000Z</time>
        <extensions>
          <ns3:TrackPointExtension>
            <ns3:hr>76</ns3:hr>
            <ns3:cad>47</ns3:cad>
          </ns3:TrackPointExtension>
        </extensions>
      </trkpt>
      <trkpt lat="43.7739812023937702178955078125" lon="1.57769034616649150848388671875">
        <ele>149.399993896484375</ele>
        <time>2026-08-13T08:46:19.000Z</time>
        <extensions>
          <ns3:TrackPointExtension>
            <ns3:hr>76</ns3:hr>
            <ns3:cad>47</ns3:cad>
          </ns3:TrackPointExtension>
        </extensions>
      </trkpt>
      <trkpt lat="43.773988746106624603271484375" lon="1.57767861150205135345458984375">
        <ele>149.399993896484375</ele>
        <time>2026-08-13T08:46:20.000Z</time>
        <extensions>
          <ns3:TrackPointExtension>
            <ns3:hr>75</ns3:hr>
            <ns3:cad>47</ns3:cad>
          </ns3:TrackPointExtension>
        </extensions>
      </trkpt>
      <trkpt lat="43.77399377524852752685546875" lon="1.577670983970165252685546875">
        <ele>149.399993896484375</ele>
        <time>2026-08-13T08:46:21.000Z</time>
        <extensions>
          <ns3:TrackPointExtension>
            <ns3:hr>75</ns3:hr>
            <ns3:cad>47</ns3:cad>
          </ns3:TrackPointExtension>
        </extensions>
      </trkpt>
      <trkpt lat="43.77399838529527187347412109375" lon="1.57766067422926425933837890625">
        <ele>149.399993896484375</ele>
        <time>2026-08-13T08:46:22.000Z</time>
        <extensions>
          <ns3:TrackPointExtension>
            <ns3:hr>75</ns3:hr>
            <ns3:cad>46</ns3:cad>
          </ns3:TrackPointExtension>
        </extensions>
      </trkpt>
      <trkpt lat="43.774004839360713958740234375" lon="1.577651537954807281494140625">
        <ele>149.399993896484375</ele>
        <time>2026-08-13T08:46:23.000Z</time>
        <extensions>
          <ns3:TrackPointExtension>
            <ns3:hr>75</ns3:hr>
            <ns3:cad>46</ns3:cad>
          </ns3:TrackPointExtension>
        </extensions>
      </trkpt>
      <trkpt lat="43.77401246689260005950927734375" lon="1.577641479671001434326171875">
        <ele>149.1999969482421875</ele>
        <time>2026-08-13T08:46:24.000Z</time>
        <extensions>
          <ns3:TrackPointExtension>
            <ns3:hr>75</ns3:hr>
            <ns3:cad>46</ns3:cad>
          </ns3:TrackPointExtension>
        </extensions>
      </trkpt>
      <trkpt lat="43.77402068115770816802978515625" lon="1.5776295773684978485107421875">
        <ele>149.1999969482421875</ele>
        <time>2026-08-13T08:46:25.000Z</time>
        <extensions>
          <ns3:TrackPointExtension>
            <ns3:hr>74</ns3:hr>
            <ns3:cad>46</ns3:cad>
          </ns3:TrackPointExtension>
        </extensions>
      </trkpt>
      <trkpt lat="43.77402805723249912261962890625" lon="1.5776205249130725860595703125">
        <ele>149.1999969482421875</ele>
        <time>2026-08-13T08:46:26.000Z</time>
        <extensions>
          <ns3:TrackPointExtension>
            <ns3:hr>74</ns3:hr>
            <ns3:cad>45</ns3:cad>
          </ns3:TrackPointExtension>
        </extensions>
      </trkpt>
      <trkpt lat="43.7740351818501949310302734375" lon="1.5776141546666622161865234375">
        <ele>149.1999969482421875</ele>
        <time>2026-08-13T08:46:27.000Z</time>
        <extensions>
          <ns3:TrackPointExtension>
            <ns3:hr>74</ns3:hr>
            <ns3:cad>0</ns3:cad>
          </ns3:TrackPointExtension>
        </extensions>
      </trkpt>
      <trkpt lat="43.77404063008725643157958984375" lon="1.577604599297046661376953125">
        <ele>149.1999969482421875</ele>
        <time>2026-08-13T08:46:28.000Z</time>
        <extensions>
          <ns3:TrackPointExtension>
            <ns3:hr>74</ns3:hr>
            <ns3:cad>0</ns3:cad>
          </ns3:TrackPointExtension>
        </extensions>
      </trkpt>
      <trkpt lat="43.77404599450528621673583984375" lon="1.57759378664195537567138671875">
        <ele>149.1999969482421875</ele>
        <time>2026-08-13T08:46:29.000Z</time>
        <extensions>
          <ns3:TrackPointExtension>
            <ns3:hr>75</ns3:hr>
            <ns3:cad>48</ns3:cad>
          </ns3:TrackPointExtension>
        </extensions>
      </trkpt>
      <trkpt lat="43.77405186183750629425048828125" lon="1.57758171670138835906982421875">
        <ele>149.1999969482421875</ele>
        <time>2026-08-13T08:46:30.000Z</time>
        <extensions>
          <ns3:TrackPointExtension>
            <ns3:hr>74</ns3:hr>
            <ns3:cad>48</ns3:cad>
          </ns3:TrackPointExtension>
        </extensions>
      </trkpt>
      <trkpt lat="43.77405948936939239501953125" lon="1.577569060027599334716796875">
        <ele>149.1999969482421875</ele>
        <time>2026-08-13T08:46:31.000Z</time>
        <extensions>
          <ns3:TrackPointExtension>
            <ns3:hr>74</ns3:hr>
            <ns3:cad>48</ns3:cad>
          </ns3:TrackPointExtension>
        </extensions>
      </trkpt>
      <trkpt lat="43.77406426705420017242431640625" lon="1.57756193540990352630615234375">
        <ele>149</ele>
        <time>2026-08-13T08:46:32.000Z</time>
        <extensions>
          <ns3:TrackPointExtension>
            <ns3:hr>74</ns3:hr>
            <ns3:cad>48</ns3:cad>
          </ns3:TrackPointExtension>
        </extensions>
      </trkpt>
      <trkpt lat="43.77407399006187915802001953125" lon="1.577555648982524871826171875">
        <ele>149</ele>
        <time>2026-08-13T08:46:33.000Z</time>
        <extensions>
          <ns3:TrackPointExtension>
            <ns3:hr>74</ns3:hr>
            <ns3:cad>48</ns3:cad>
          </ns3:TrackPointExtension>
        </extensions>
      </trkpt>
      <trkpt lat="43.77407784573733806610107421875" lon="1.57754366286098957061767578125">
        <ele>149</ele>
        <time>2026-08-13T08:46:34.000Z</time>
        <extensions>
          <ns3:TrackPointExtension>
            <ns3:hr>74</ns3:hr>
            <ns3:cad>48</ns3:cad>
          </ns3:TrackPointExtension>
        </extensions>
      </trkpt>
      <trkpt lat="43.774083964526653289794921875" lon="1.57753393985331058502197265625">
        <ele>149</ele>
        <time>2026-08-13T08:46:35.000Z</time>
        <extensions>
          <ns3:TrackPointExtension>
            <ns3:hr>74</ns3:hr>
            <ns3:cad>48</ns3:cad>
          </ns3:TrackPointExtension>
        </extensions>
      </trkpt>
      <trkpt lat="43.77408941276371479034423828125" lon="1.57752622850239276885986328125">
        <ele>149</ele>
        <time>2026-08-13T08:46:36.000Z</time>
        <extensions>
          <ns3:TrackPointExtension>
            <ns3:hr>74</ns3:hr>
            <ns3:cad>48</ns3:cad>
          </ns3:TrackPointExtension>
        </extensions>
      </trkpt>
      <trkpt lat="43.774095363914966583251953125" lon="1.57751977443695068359375">
        <ele>148.8000030517578125</ele>
        <time>2026-08-13T08:46:37.000Z</time>
        <extensions>
          <ns3:TrackPointExtension>
            <ns3:hr>74</ns3:hr>
            <ns3:cad>48</ns3:cad>
          </ns3:TrackPointExtension>
        </extensions>
      </trkpt>
      <trkpt lat="43.774102739989757537841796875" lon="1.57751063816249370574951171875">
        <ele>148.8000030517578125</ele>
        <time>2026-08-13T08:46:38.000Z</time>
        <extensions>
          <ns3:TrackPointExtension>
            <ns3:hr>74</ns3:hr>
            <ns3:cad>48</ns3:cad>
          </ns3:TrackPointExtension>
        </extensions>
      </trkpt>
      <trkpt lat="43.7741109542548656463623046875" lon="1.57749856822192668914794921875">
        <ele>148.8000030517578125</ele>
        <time>2026-08-13T08:46:39.000Z</time>
        <extensions>
          <ns3:TrackPointExtension>
            <ns3:hr>74</ns3:hr>
            <ns3:cad>48</ns3:cad>
          </ns3:TrackPointExtension>
        </extensions>
      </trkpt>
      <trkpt lat="43.77412176690995693206787109375" lon="1.57748817466199398040771484375">
        <ele>148.8000030517578125</ele>
        <time>2026-08-13T08:46:40.000Z</time>
        <extensions>
          <ns3:TrackPointExtension>
            <ns3:hr>73</ns3:hr>
            <ns3:cad>48</ns3:cad>
          </ns3:TrackPointExtension>
        </extensions>
      </trkpt>
      <trkpt lat="43.77412897534668445587158203125" lon="1.57747928984463214874267578125">
        <ele>148.600006103515625</ele>
        <time>2026-08-13T08:46:41.000Z</time>
        <extensions>
          <ns3:TrackPointExtension>
            <ns3:hr>73</ns3:hr>
            <ns3:cad>48</ns3:cad>
          </ns3:TrackPointExtension>
        </extensions>
      </trkpt>
      <trkpt lat="43.774134926497936248779296875" lon="1.57747711054980754852294921875">
        <ele>148.600006103515625</ele>
        <time>2026-08-13T08:46:42.000Z</time>
        <extensions>
          <ns3:TrackPointExtension>
            <ns3:hr>73</ns3:hr>
            <ns3:cad>48</ns3:cad>
          </ns3:TrackPointExtension>
        </extensions>
      </trkpt>
      <trkpt lat="43.77414573915302753448486328125" lon="1.57746571116149425506591796875">
        <ele>148.600006103515625</ele>
        <time>2026-08-13T08:46:43.000Z</time>
        <extensions>
          <ns3:TrackPointExtension>
            <ns3:hr>73</ns3:hr>
            <ns3:cad>48</ns3:cad>
          </ns3:TrackPointExtension>
        </extensions>
      </trkpt>
      <trkpt lat="43.7741525284945964813232421875" lon="1.57743888907134532928466796875">
        <ele>148.399993896484375</ele>
        <time>2026-08-13T08:46:44.000Z</time>
        <extensions>
          <ns3:TrackPointExtension>
            <ns3:hr>72</ns3:hr>
            <ns3:cad>48</ns3:cad>
          </ns3:TrackPointExtension>
        </extensions>
      </trkpt>
      <trkpt lat="43.77415747381746768951416015625" lon="1.57742296345531940460205078125">
        <ele>148.399993896484375</ele>
        <time>2026-08-13T08:46:45.000Z</time>
        <extensions>
          <ns3:TrackPointExtension>
            <ns3:hr>73</ns3:hr>
            <ns3:cad>47</ns3:cad>
          </ns3:TrackPointExtension>
        </extensions>
      </trkpt>
      <trkpt lat="43.774161078035831451416015625" lon="1.57741575501859188079833984375">
        <ele>148.399993896484375</ele>
        <time>2026-08-13T08:46:46.000Z</time>
        <extensions>
          <ns3:TrackPointExtension>
            <ns3:hr>73</ns3:hr>
            <ns3:cad>47</ns3:cad>
          </ns3:TrackPointExtension>
        </extensions>
      </trkpt>
      <trkpt lat="43.7741679511964321136474609375" lon="1.577402092516422271728515625">
        <ele>148.399993896484375</ele>
        <time>2026-08-13T08:46:47.000Z</time>
        <extensions>
          <ns3:TrackPointExtension>
            <ns3:hr>74</ns3:hr>
            <ns3:cad>47</ns3:cad>
          </ns3:TrackPointExtension>
        </extensions>
      </trkpt>
      <trkpt lat="43.7741749919950962066650390625" lon="1.577385999262332916259765625">
        <ele>148.1999969482421875</ele>
        <time>2026-08-13T08:46:48.000Z</time>
        <extensions>
          <ns3:TrackPointExtension>
            <ns3:hr>74</ns3:hr>
            <ns3:cad>48</ns3:cad>
          </ns3:TrackPointExtension>
        </extensions>
      </trkpt>
      <trkpt lat="43.7741806916892528533935546875" lon="1.5773730911314487457275390625">
        <ele>148.1999969482421875</ele>
        <time>2026-08-13T08:46:49.000Z</time>
        <extensions>
          <ns3:TrackPointExtension>
            <ns3:hr>74</ns3:hr>
            <ns3:cad>48</ns3:cad>
          </ns3:TrackPointExtension>
        </extensions>
      </trkpt>
      <trkpt lat="43.7741884030401706695556640625" lon="1.57736781053245067596435546875">
        <ele>148.1999969482421875</ele>
        <time>2026-08-13T08:46:50.000Z</time>
        <extensions>
          <ns3:TrackPointExtension>
            <ns3:hr>75</ns3:hr>
            <ns3:cad>48</ns3:cad>
          </ns3:TrackPointExtension>
        </extensions>
      </trkpt>
      <trkpt lat="43.77419435419142246246337890625" lon="1.5773642063140869140625">
        <ele>148.1999969482421875</ele>
        <time>2026-08-13T08:46:51.000Z</time>
        <extensions>
          <ns3:TrackPointExtension>
            <ns3:hr>75</ns3:hr>
            <ns3:cad>47</ns3:cad>
          </ns3:TrackPointExtension>
        </extensions>
      </trkpt>
      <trkpt lat="43.7742018140852451324462890625" lon="1.5773523040115833282470703125">
        <ele>148</ele>
        <time>2026-08-13T08:46:52.000Z</time>
        <extensions>
          <ns3:TrackPointExtension>
            <ns3:hr>75</ns3:hr>
            <ns3:cad>46</ns3:cad>
          </ns3:TrackPointExtension>
        </extensions>
      </trkpt>
      <trkpt lat="43.7742088548839092254638671875" lon="1.57734367065131664276123046875">
        <ele>148</ele>
        <time>2026-08-13T08:46:53.000Z</time>
        <extensions>
          <ns3:TrackPointExtension>
            <ns3:hr>76</ns3:hr>
            <ns3:cad>46</ns3:cad>
          </ns3:TrackPointExtension>
        </extensions>
      </trkpt>
      <trkpt lat="43.77421195618808269500732421875" lon="1.57733428291976451873779296875">
        <ele>148</ele>
        <time>2026-08-13T08:46:54.000Z</time>
        <extensions>
          <ns3:TrackPointExtension>
            <ns3:hr>76</ns3:hr>
            <ns3:cad>46</ns3:cad>
          </ns3:TrackPointExtension>
        </extensions>
      </trkpt>
      <trkpt lat="43.77421312965452671051025390625" lon="1.5773308463394641876220703125">
        <ele>148</ele>
        <time>2026-08-13T08:46:55.000Z</time>
        <extensions>
          <ns3:TrackPointExtension>
            <ns3:hr>76</ns3:hr>
            <ns3:cad>47</ns3:cad>
          </ns3:TrackPointExtension>
        </extensions>
      </trkpt>
      <trkpt lat="43.7742135487496852874755859375" lon="1.57731869257986545562744140625">
        <ele>148</ele>
        <time>2026-08-13T08:46:56.000Z</time>
        <extensions>
          <ns3:TrackPointExtension>
            <ns3:hr>76</ns3:hr>
            <ns3:cad>47</ns3:cad>
          </ns3:TrackPointExtension>
        </extensions>
      </trkpt>
      <trkpt lat="43.7742189131677150726318359375" lon="1.5773077122867107391357421875">
        <ele>148</ele>
        <time>2026-08-13T08:46:57.000Z</time>
        <extensions>
          <ns3:TrackPointExtension>
            <ns3:hr>77</ns3:hr>
            <ns3:cad>46</ns3:cad>
          </ns3:TrackPointExtension>
        </extensions>
      </trkpt>
      <trkpt lat="43.77422310411930084228515625" lon="1.57729572616517543792724609375">
        <ele>148</ele>
        <time>2026-08-13T08:46:58.000Z</time>
        <extensions>
          <ns3:TrackPointExtension>
            <ns3:hr>76</ns3:hr>
            <ns3:cad>46</ns3:cad>
          </ns3:TrackPointExtension>
        </extensions>
      </trkpt>
      <trkpt lat="43.774224780499935150146484375" lon="1.57729103229939937591552734375">
        <ele>148</ele>
        <time>2026-08-13T08:46:59.000Z</time>
        <extensions>
          <ns3:TrackPointExtension>
            <ns3:hr>76</ns3:hr>
            <ns3:cad>46</ns3:cad>
          </ns3:TrackPointExtension>
        </extensions>
      </trkpt>
      <trkpt lat="43.77422888763248920440673828125" lon="1.5772818960249423980712890625">
        <ele>148</ele>
        <time>2026-08-13T08:47:00.000Z</time>
        <extensions>
          <ns3:TrackPointExtension>
            <ns3:hr>76</ns3:hr>
            <ns3:cad>46</ns3:cad>
          </ns3:TrackPointExtension>
        </extensions>
      </trkpt>
      <trkpt lat="43.7742323242127895355224609375" lon="1.57727175392210483551025390625">
        <ele>147.8000030517578125</ele>
        <time>2026-08-13T08:47:01.000Z</time>
        <extensions>
          <ns3:TrackPointExtension>
            <ns3:hr>76</ns3:hr>
            <ns3:cad>46</ns3:cad>
          </ns3:TrackPointExtension>
        </extensions>
      </trkpt>
      <trkpt lat="43.774242885410785675048828125" lon="1.57725381664931774139404296875">
        <ele>147.8000030517578125</ele>
        <time>2026-08-13T08:47:02.000Z</time>
        <extensions>
          <ns3:TrackPointExtension>
            <ns3:hr>76</ns3:hr>
            <ns3:cad>48</ns3:cad>
          </ns3:TrackPointExtension>
        </extensions>
      </trkpt>
      <trkpt lat="43.7742497585713863372802734375" lon="1.577247194945812225341796875">
        <ele>147.8000030517578125</ele>
        <time>2026-08-13T08:47:03.000Z</time>
        <extensions>
          <ns3:TrackPointExtension>
            <ns3:hr>75</ns3:hr>
            <ns3:cad>48</ns3:cad>
          </ns3:TrackPointExtension>
        </extensions>
      </trkpt>
      <trkpt lat="43.7742537818849086761474609375" lon="1.577240489423274993896484375">
        <ele>147.8000030517578125</ele>
        <time>2026-08-13T08:47:04.000Z</time>
        <extensions>
          <ns3:TrackPointExtension>
            <ns3:hr>75</ns3:hr>
            <ns3:cad>48</ns3:cad>
          </ns3:TrackPointExtension>
        </extensions>
      </trkpt>
      <trkpt lat="43.77425654791295528411865234375" lon="1.57722934149205684661865234375">
        <ele>147.8000030517578125</ele>
        <time>2026-08-13T08:47:05.000Z</time>
        <extensions>
          <ns3:TrackPointExtension>
            <ns3:hr>75</ns3:hr>
            <ns3:cad>48</ns3:cad>
          </ns3:TrackPointExtension>
        </extensions>
      </trkpt>
      <trkpt lat="43.77426710911095142364501953125" lon="1.5772091411054134368896484375">
        <ele>147.8000030517578125</ele>
        <time>2026-08-13T08:47:06.000Z</time>
        <extensions>
          <ns3:TrackPointExtension>
            <ns3:hr>75</ns3:hr>
            <ns3:cad>46</ns3:cad>
          </ns3:TrackPointExtension>
        </extensions>
      </trkpt>
      <trkpt lat="43.7742755748331546783447265625" lon="1.5771960653364658355712890625">
        <ele>147.8000030517578125</ele>
        <time>2026-08-13T08:47:07.000Z</time>
        <extensions>
          <ns3:TrackPointExtension>
            <ns3:hr>75</ns3:hr>
            <ns3:cad>44</ns3:cad>
          </ns3:TrackPointExtension>
        </extensions>
      </trkpt>
      <trkpt lat="43.77428337000310420989990234375" lon="1.5771896950900554656982421875">
        <ele>147.8000030517578125</ele>
        <time>2026-08-13T08:47:08.000Z</time>
        <extensions>
          <ns3:TrackPointExtension>
            <ns3:hr>74</ns3:hr>
            <ns3:cad>44</ns3:cad>
          </ns3:TrackPointExtension>
        </extensions>
      </trkpt>
      <trkpt lat="43.77428571693599224090576171875" lon="1.5771819837391376495361328125">
        <ele>147.8000030517578125</ele>
        <time>2026-08-13T08:47:09.000Z</time>
        <extensions>
          <ns3:TrackPointExtension>
            <ns3:hr>74</ns3:hr>
            <ns3:cad>48</ns3:cad>
          </ns3:TrackPointExtension>
        </extensions>
      </trkpt>
      <trkpt lat="43.7742956914007663726806640625" lon="1.57716580666601657867431640625">
        <ele>147.8000030517578125</ele>
        <time>2026-08-13T08:47:10.000Z</time>
        <extensions>
          <ns3:TrackPointExtension>
            <ns3:hr>74</ns3:hr>
            <ns3:cad>48</ns3:cad>
          </ns3:TrackPointExtension>
        </extensions>
      </trkpt>
      <trkpt lat="43.77430222928524017333984375" lon="1.57715692184865474700927734375">
        <ele>147.8000030517578125</ele>
        <time>2026-08-13T08:47:11.000Z</time>
        <extensions>
          <ns3:TrackPointExtension>
            <ns3:hr>74</ns3:hr>
            <ns3:cad>48</ns3:cad>
          </ns3:TrackPointExtension>
        </extensions>
      </trkpt>
      <trkpt lat="43.77431094646453857421875" lon="1.57715524546802043914794921875">
        <ele>147.8000030517578125</ele>
        <time>2026-08-13T08:47:12.000Z</time>
        <extensions>
          <ns3:TrackPointExtension>
            <ns3:hr>74</ns3:hr>
            <ns3:cad>47</ns3:cad>
          </ns3:TrackPointExtension>
        </extensions>
      </trkpt>
      <trkpt lat="43.7743141315877437591552734375" lon="1.5771487914025783538818359375">
        <ele>147.600006103515625</ele>
        <time>2026-08-13T08:47:13.000Z</time>
        <extensions>
          <ns3:TrackPointExtension>
            <ns3:hr>74</ns3:hr>
            <ns3:cad>46</ns3:cad>
          </ns3:TrackPointExtension>
        </extensions>
      </trkpt>
      <trkpt lat="43.7743235193192958831787109375" lon="1.57713579945266246795654296875">
        <ele>147.600006103515625</ele>
        <time>2026-08-13T08:47:14.000Z</time>
        <extensions>
          <ns3:TrackPointExtension>
            <ns3:hr>75</ns3:hr>
            <ns3:cad>46</ns3:cad>
          </ns3:TrackPointExtension>
        </extensions>
      </trkpt>
      <trkpt lat="43.77433097921311855316162109375" lon="1.57712372951209545135498046875">
        <ele>147.600006103515625</ele>
        <time>2026-08-13T08:47:15.000Z</time>
        <extensions>
          <ns3:TrackPointExtension>
            <ns3:hr>77</ns3:hr>
            <ns3:cad>45</ns3:cad>
          </ns3:TrackPointExtension>
        </extensions>
      </trkpt>
      <trkpt lat="43.77433751709759235382080078125" lon="1.57712004147469997406005859375">
        <ele>147.600006103515625</ele>
        <time>2026-08-13T08:47:16.000Z</time>
        <extensions>
          <ns3:TrackPointExtension>
            <ns3:hr>79</ns3:hr>
            <ns3:cad>45</ns3:cad>
          </ns3:TrackPointExtension>
        </extensions>
      </trkpt>
      <trkpt lat="43.77433902584016323089599609375" lon="1.57710595987737178802490234375">
        <ele>147.600006103515625</ele>
        <time>2026-08-13T08:47:17.000Z</time>
        <extensions>
          <ns3:TrackPointExtension>
            <ns3:hr>80</ns3:hr>
            <ns3:cad>44</ns3:cad>
          </ns3:TrackPointExtension>
        </extensions>
      </trkpt>
      <trkpt lat="43.77434589900076389312744140625" lon="1.57709338702261447906494140625">
        <ele>147.600006103515625</ele>
        <time>2026-08-13T08:47:18.000Z</time>
        <extensions>
          <ns3:TrackPointExtension>
            <ns3:hr>81</ns3:hr>
            <ns3:cad>45</ns3:cad>
          </ns3:TrackPointExtension>
        </extensions>
      </trkpt>
      <trkpt lat="43.77435025759041309356689453125" lon="1.57708466984331607818603515625">
        <ele>147.8000030517578125</ele>
        <time>2026-08-13T08:47:19.000Z</time>
        <extensions>
          <ns3:TrackPointExtension>
            <ns3:hr>81</ns3:hr>
            <ns3:cad>45</ns3:cad>
          </ns3:TrackPointExtension>
        </extensions>
      </trkpt>
      <trkpt lat="43.77435855567455291748046875" lon="1.57707645557820796966552734375">
        <ele>147.8000030517578125</ele>
        <time>2026-08-13T08:47:20.000Z</time>
        <extensions>
          <ns3:TrackPointExtension>
            <ns3:hr>82</ns3:hr>
            <ns3:cad>46</ns3:cad>
          </ns3:TrackPointExtension>
        </extensions>
      </trkpt>
      <trkpt lat="43.7743634171783924102783203125" lon="1.57706740312278270721435546875">
        <ele>147.8000030517578125</ele>
        <time>2026-08-13T08:47:21.000Z</time>
        <extensions>
          <ns3:TrackPointExtension>
            <ns3:hr>82</ns3:hr>
            <ns3:cad>45</ns3:cad>
          </ns3:TrackPointExtension>
        </extensions>
      </trkpt>
      <trkpt lat="43.77437238581478595733642578125" lon="1.57705768011510372161865234375">
        <ele>147.8000030517578125</ele>
        <time>2026-08-13T08:47:22.000Z</time>
        <extensions>
          <ns3:TrackPointExtension>
            <ns3:hr>82</ns3:hr>
            <ns3:cad>45</ns3:cad>
          </ns3:TrackPointExtension>
        </extensions>
      </trkpt>
      <trkpt lat="43.774381689727306365966796875" lon="1.57704745419323444366455078125">
        <ele>147.8000030517578125</ele>
        <time>2026-08-13T08:47:23.000Z</time>
        <extensions>
          <ns3:TrackPointExtension>
            <ns3:hr>83</ns3:hr>
            <ns3:cad>45</ns3:cad>
          </ns3:TrackPointExtension>
        </extensions>
      </trkpt>
      <trkpt lat="43.77438797615468502044677734375" lon="1.577045358717441558837890625">
        <ele>147.8000030517578125</ele>
        <time>2026-08-13T08:47:24.000Z</time>
        <extensions>
          <ns3:TrackPointExtension>
            <ns3:hr>83</ns3:hr>
            <ns3:cad>45</ns3:cad>
          </ns3:TrackPointExtension>
        </extensions>
      </trkpt>
      <trkpt lat="43.7743986211717128753662109375" lon="1.57703521661460399627685546875">
        <ele>148</ele>
        <time>2026-08-13T08:47:25.000Z</time>
        <extensions>
          <ns3:TrackPointExtension>
            <ns3:hr>83</ns3:hr>
            <ns3:cad>44</ns3:cad>
          </ns3:TrackPointExtension>
        </extensions>
      </trkpt>
      <trkpt lat="43.77440758980810642242431640625" lon="1.57702423632144927978515625">
        <ele>148</ele>
        <time>2026-08-13T08:47:26.000Z</time>
        <extensions>
          <ns3:TrackPointExtension>
            <ns3:hr>83</ns3:hr>
            <ns3:cad>44</ns3:cad>
          </ns3:TrackPointExtension>
        </extensions>
      </trkpt>
      <trkpt lat="43.7744128704071044921875" lon="1.5770146809518337249755859375">
        <ele>148</ele>
        <time>2026-08-13T08:47:27.000Z</time>
        <extensions>
          <ns3:TrackPointExtension>
            <ns3:hr>83</ns3:hr>
            <ns3:cad>44</ns3:cad>
          </ns3:TrackPointExtension>
        </extensions>
      </trkpt>
      <trkpt lat="43.7744150497019290924072265625" lon="1.57700671814382076263427734375">
        <ele>148.1999969482421875</ele>
        <time>2026-08-13T08:47:28.000Z</time>
        <extensions>
          <ns3:TrackPointExtension>
            <ns3:hr>83</ns3:hr>
            <ns3:cad>43</ns3:cad>
          </ns3:TrackPointExtension>
        </extensions>
      </trkpt>
      <trkpt lat="43.77442703582346439361572265625" lon="1.57699347473680973052978515625">
        <ele>148.1999969482421875</ele>
        <time>2026-08-13T08:47:29.000Z</time>
        <extensions>
          <ns3:TrackPointExtension>
            <ns3:hr>82</ns3:hr>
            <ns3:cad>43</ns3:cad>
          </ns3:TrackPointExtension>
        </extensions>
      </trkpt>
      <trkpt lat="43.77443441189825534820556640625" lon="1.5769846737384796142578125">
        <ele>148.1999969482421875</ele>
        <time>2026-08-13T08:47:30.000Z</time>
        <extensions>
          <ns3:TrackPointExtension>
            <ns3:hr>78</ns3:hr>
            <ns3:cad>43</ns3:cad>
          </ns3:TrackPointExtension>
        </extensions>
      </trkpt>
      <trkpt lat="43.7744395248591899871826171875" lon="1.5769761241972446441650390625">
        <ele>148.399993896484375</ele>
        <time>2026-08-13T08:47:31.000Z</time>
        <extensions>
          <ns3:TrackPointExtension>
            <ns3:hr>75</ns3:hr>
            <ns3:cad>43</ns3:cad>
          </ns3:TrackPointExtension>
        </extensions>
      </trkpt>
      <trkpt lat="43.7744492478668689727783203125" lon="1.57696531154215335845947265625">
        <ele>148.399993896484375</ele>
        <time>2026-08-13T08:47:32.000Z</time>
        <extensions>
          <ns3:TrackPointExtension>
            <ns3:hr>75</ns3:hr>
            <ns3:cad>43</ns3:cad>
          </ns3:TrackPointExtension>
        </extensions>
      </trkpt>
      <trkpt lat="43.7744556181132793426513671875" lon="1.57695458270609378814697265625">
        <ele>148.600006103515625</ele>
        <time>2026-08-13T08:47:33.000Z</time>
        <extensions>
          <ns3:TrackPointExtension>
            <ns3:hr>76</ns3:hr>
            <ns3:cad>43</ns3:cad>
          </ns3:TrackPointExtension>
        </extensions>
      </trkpt>
      <trkpt lat="43.77446089871227741241455078125" lon="1.57694938592612743377685546875">
        <ele>148.8000030517578125</ele>
        <time>2026-08-13T08:47:34.000Z</time>
        <extensions>
          <ns3:TrackPointExtension>
            <ns3:hr>76</ns3:hr>
            <ns3:cad>43</ns3:cad>
          </ns3:TrackPointExtension>
        </extensions>
      </trkpt>
      <trkpt lat="43.7744629941880702972412109375" lon="1.57693882472813129425048828125">
        <ele>148.8000030517578125</ele>
        <time>2026-08-13T08:47:35.000Z</time>
        <extensions>
          <ns3:TrackPointExtension>
            <ns3:hr>77</ns3:hr>
            <ns3:cad>42</ns3:cad>
          </ns3:TrackPointExtension>
        </extensions>
      </trkpt>
      <trkpt lat="43.77446718513965606689453125" lon="1.57692591659724712371826171875">
        <ele>149</ele>
        <time>2026-08-13T08:47:36.000Z</time>
        <extensions>
          <ns3:TrackPointExtension>
            <ns3:hr>78</ns3:hr>
            <ns3:cad>42</ns3:cad>
          </ns3:TrackPointExtension>
        </extensions>
      </trkpt>
      <trkpt lat="43.77447263337671756744384765625" lon="1.5769176185131072998046875">
        <ele>149</ele>
        <time>2026-08-13T08:47:37.000Z</time>
        <extensions>
          <ns3:TrackPointExtension>
            <ns3:hr>78</ns3:hr>
            <ns3:cad>42</ns3:cad>
          </ns3:TrackPointExtension>
        </extensions>
      </trkpt>
      <trkpt lat="43.7744747288525104522705078125" lon="1.57690932042896747589111328125">
        <ele>149.1999969482421875</ele>
        <time>2026-08-13T08:47:38.000Z</time>
        <extensions>
          <ns3:TrackPointExtension>
            <ns3:hr>79</ns3:hr>
            <ns3:cad>42</ns3:cad>
          </ns3:TrackPointExtension>
        </extensions>
      </trkpt>
      <trkpt lat="43.7744867987930774688720703125" lon="1.57689825631678104400634765625">
        <ele>149.399993896484375</ele>
        <time>2026-08-13T08:47:39.000Z</time>
        <extensions>
          <ns3:TrackPointExtension>
            <ns3:hr>79</ns3:hr>
            <ns3:cad>42</ns3:cad>
          </ns3:TrackPointExtension>
        </extensions>
      </trkpt>
      <trkpt lat="43.77449358813464641571044921875" lon="1.57689222134649753570556640625">
        <ele>149.600006103515625</ele>
        <time>2026-08-13T08:47:40.000Z</time>
        <extensions>
          <ns3:TrackPointExtension>
            <ns3:hr>79</ns3:hr>
            <ns3:cad>42</ns3:cad>
          </ns3:TrackPointExtension>
        </extensions>
      </trkpt>
      <trkpt lat="43.774495683610439300537109375" lon="1.57688652165234088897705078125">
        <ele>149.600006103515625</ele>
        <time>2026-08-13T08:47:41.000Z</time>
        <extensions>
          <ns3:TrackPointExtension>
            <ns3:hr>80</ns3:hr>
            <ns3:cad>43</ns3:cad>
          </ns3:TrackPointExtension>
        </extensions>
      </trkpt>
      <trkpt lat="43.77450230531394481658935546875" lon="1.57687713392078876495361328125">
        <ele>149.8000030517578125</ele>
        <time>2026-08-13T08:47:42.000Z</time>
        <extensions>
          <ns3:TrackPointExtension>
            <ns3:hr>81</ns3:hr>
            <ns3:cad>43</ns3:cad>
          </ns3:TrackPointExtension>
        </extensions>
      </trkpt>
      <trkpt lat="43.77451320178806781768798828125" lon="1.57686531543731689453125">
        <ele>150</ele>
        <time>2026-08-13T08:47:43.000Z</time>
        <extensions>
          <ns3:TrackPointExtension>
            <ns3:hr>81</ns3:hr>
            <ns3:cad>43</ns3:cad>
          </ns3:TrackPointExtension>
        </extensions>
      </trkpt>
      <trkpt lat="43.77452225424349308013916015625" lon="1.5768611244857311248779296875">
        <ele>150</ele>
        <time>2026-08-13T08:47:44.000Z</time>
        <extensions>
          <ns3:TrackPointExtension>
            <ns3:hr>82</ns3:hr>
            <ns3:cad>42</ns3:cad>
          </ns3:TrackPointExtension>
        </extensions>
      </trkpt>
      <trkpt lat="43.77452493645250797271728515625" lon="1.57685668207705020904541015625">
        <ele>150.1999969482421875</ele>
        <time>2026-08-13T08:47:45.000Z</time>
        <extensions>
          <ns3:TrackPointExtension>
            <ns3:hr>83</ns3:hr>
            <ns3:cad>41</ns3:cad>
          </ns3:TrackPointExtension>
        </extensions>
      </trkpt>
      <trkpt lat="43.774533569812774658203125" lon="1.57685131765902042388916015625">
        <ele>150.399993896484375</ele>
        <time>2026-08-13T08:47:46.000Z</time>
        <extensions>
          <ns3:TrackPointExtension>
            <ns3:hr>84</ns3:hr>
            <ns3:cad>41</ns3:cad>
          </ns3:TrackPointExtension>
        </extensions>
      </trkpt>
      <trkpt lat="43.77453968860208988189697265625" lon="1.576845534145832061767578125">
        <ele>150.600006103515625</ele>
        <time>2026-08-13T08:47:47.000Z</time>
        <extensions>
          <ns3:TrackPointExtension>
            <ns3:hr>84</ns3:hr>
            <ns3:cad>41</ns3:cad>
          </ns3:TrackPointExtension>
        </extensions>
      </trkpt>
      <trkpt lat="43.77453960478305816650390625" lon="1.5768433548510074615478515625">
        <ele>150.600006103515625</ele>
        <time>2026-08-13T08:47:48.000Z</time>
        <extensions>
          <ns3:TrackPointExtension>
            <ns3:hr>85</ns3:hr>
            <ns3:cad>42</ns3:cad>
          </ns3:TrackPointExtension>
        </extensions>
      </trkpt>
      <trkpt lat="43.774545975029468536376953125" lon="1.5768386609852313995361328125">
        <ele>150.8000030517578125</ele>
        <time>2026-08-13T08:47:49.000Z</time>
        <extensions>
          <ns3:TrackPointExtension>
            <ns3:hr>86</ns3:hr>
            <ns3:cad>42</ns3:cad>
          </ns3:TrackPointExtension>
        </extensions>
      </trkpt>
      <trkpt lat="43.7745525129139423370361328125" lon="1.5768329612910747528076171875">
        <ele>150.8000030517578125</ele>
        <time>2026-08-13T08:47:50.000Z</time>
        <extensions>
          <ns3:TrackPointExtension>
            <ns3:hr>87</ns3:hr>
            <ns3:cad>43</ns3:cad>
          </ns3:TrackPointExtension>
        </extensions>
      </trkpt>
      <trkpt lat="43.7745568715035915374755859375" lon="1.57682701013982295989990234375">
        <ele>151</ele>
        <time>2026-08-13T08:47:51.000Z</time>
        <extensions>
          <ns3:TrackPointExtension>
            <ns3:hr>88</ns3:hr>
            <ns3:cad>43</ns3:cad>
          </ns3:TrackPointExtension>
        </extensions>
      </trkpt>
      <trkpt lat="43.77456516958773136138916015625" lon="1.57682013697922229766845703125">
        <ele>151</ele>
        <time>2026-08-13T08:47:52.000Z</time>
        <extensions>
          <ns3:TrackPointExtension>
            <ns3:hr>89</ns3:hr>
            <ns3:cad>43</ns3:cad>
          </ns3:TrackPointExtension>
        </extensions>
      </trkpt>
      <trkpt lat="43.77457405440509319305419921875" lon="1.57680974341928958892822265625">
        <ele>151.1999969482421875</ele>
        <time>2026-08-13T08:47:53.000Z</time>
        <extensions>
          <ns3:TrackPointExtension>
            <ns3:hr>89</ns3:hr>
            <ns3:cad>41</ns3:cad>
          </ns3:TrackPointExtension>
        </extensions>
      </trkpt>
      <trkpt lat="43.774582855403423309326171875" lon="1.57680555246770381927490234375">
        <ele>151.1999969482421875</ele>
        <time>2026-08-13T08:47:54.000Z</time>
        <extensions>
          <ns3:TrackPointExtension>
            <ns3:hr>90</ns3:hr>
            <ns3:cad>41</ns3:cad>
          </ns3:TrackPointExtension>
        </extensions>
      </trkpt>
      <trkpt lat="43.77458645962178707122802734375" lon="1.5768037922680377960205078125">
        <ele>151.1999969482421875</ele>
        <time>2026-08-13T08:47:55.000Z</time>
        <extensions>
          <ns3:TrackPointExtension>
            <ns3:hr>90</ns3:hr>
            <ns3:cad>41</ns3:cad>
          </ns3:TrackPointExtension>
        </extensions>
      </trkpt>
      <trkpt lat="43.7745950929820537567138671875" lon="1.57679356634616851806640625">
        <ele>151.399993896484375</ele>
        <time>2026-08-13T08:47:56.000Z</time>
        <extensions>
          <ns3:TrackPointExtension>
            <ns3:hr>91</ns3:hr>
            <ns3:cad>41</ns3:cad>
          </ns3:TrackPointExtension>
        </extensions>
      </trkpt>
      <trkpt lat="43.7746051512658596038818359375" lon="1.57678417861461639404296875">
        <ele>151.600006103515625</ele>
        <time>2026-08-13T08:47:57.000Z</time>
        <extensions>
          <ns3:TrackPointExtension>
            <ns3:hr>91</ns3:hr>
            <ns3:cad>44</ns3:cad>
          </ns3:TrackPointExtension>
        </extensions>
      </trkpt>
      <trkpt lat="43.77461068332195281982421875" lon="1.57678124494850635528564453125">
        <ele>151.600006103515625</ele>
        <time>2026-08-13T08:47:58.000Z</time>
        <extensions>
          <ns3:TrackPointExtension>
            <ns3:hr>93</ns3:hr>
            <ns3:cad>44</ns3:cad>
          </ns3:TrackPointExtension>
        </extensions>
      </trkpt>
      <trkpt lat="43.77461344934999942779541015625" lon="1.5767783112823963165283203125">
        <ele>151.8000030517578125</ele>
        <time>2026-08-13T08:47:59.000Z</time>
        <extensions>
          <ns3:TrackPointExtension>
            <ns3:hr>95</ns3:hr>
            <ns3:cad>44</ns3:cad>
          </ns3:TrackPointExtension>
        </extensions>
      </trkpt>
      <trkpt lat="43.7746259383857250213623046875" lon="1.57676515169441699981689453125">
        <ele>151.8000030517578125</ele>
        <time>2026-08-13T08:48:00.000Z</time>
        <extensions>
          <ns3:TrackPointExtension>
            <ns3:hr>97</ns3:hr>
            <ns3:cad>44</ns3:cad>
          </ns3:TrackPointExtension>
        </extensions>
      </trkpt>
      <trkpt lat="43.77463256008923053741455078125" lon="1.5767565183341503143310546875">
        <ele>152</ele>
        <time>2026-08-13T08:48:01.000Z</time>
        <extensions>
          <ns3:TrackPointExtension>
            <ns3:hr>99</ns3:hr>
            <ns3:cad>44</ns3:cad>
          </ns3:TrackPointExtension>
        </extensions>
      </trkpt>
      <trkpt lat="43.77463616430759429931640625" lon="1.576746292412281036376953125">
        <ele>152.1999969482421875</ele>
        <time>2026-08-13T08:48:02.000Z</time>
        <extensions>
          <ns3:TrackPointExtension>
            <ns3:hr>99</ns3:hr>
            <ns3:cad>44</ns3:cad>
          </ns3:TrackPointExtension>
        </extensions>
      </trkpt>
      <trkpt lat="43.77464362420141696929931640625" lon="1.5767379105091094970703125">
        <ele>152.1999969482421875</ele>
        <time>2026-08-13T08:48:03.000Z</time>
        <extensions>
          <ns3:TrackPointExtension>
            <ns3:hr>100</ns3:hr>
            <ns3:cad>44</ns3:cad>
          </ns3:TrackPointExtension>
        </extensions>
      </trkpt>
      <trkpt lat="43.7746567837893962860107421875" lon="1.57673061825335025787353515625">
        <ele>152.399993896484375</ele>
        <time>2026-08-13T08:48:04.000Z</time>
        <extensions>
          <ns3:TrackPointExtension>
            <ns3:hr>100</ns3:hr>
            <ns3:cad>44</ns3:cad>
          </ns3:TrackPointExtension>
        </extensions>
      </trkpt>
      <trkpt lat="43.77466675825417041778564453125" lon="1.57672039233148097991943359375">
        <ele>152.399993896484375</ele>
        <time>2026-08-13T08:48:05.000Z</time>
        <extensions>
          <ns3:TrackPointExtension>
            <ns3:hr>100</ns3:hr>
            <ns3:cad>44</ns3:cad>
          </ns3:TrackPointExtension>
        </extensions>
      </trkpt>
      <trkpt lat="43.7746732123196125030517578125" lon="1.576714105904102325439453125">
        <ele>152.600006103515625</ele>
        <time>2026-08-13T08:48:06.000Z</time>
        <extensions>
          <ns3:TrackPointExtension>
            <ns3:hr>100</ns3:hr>
            <ns3:cad>44</ns3:cad>
          </ns3:TrackPointExtension>
        </extensions>
      </trkpt>
      <trkpt lat="43.77468444406986236572265625" lon="1.5767052210867404937744140625">
        <ele>152.600006103515625</ele>
        <time>2026-08-13T08:48:07.000Z</time>
        <extensions>
          <ns3:TrackPointExtension>
            <ns3:hr>101</ns3:hr>
            <ns3:cad>44</ns3:cad>
          </ns3:TrackPointExtension>
        </extensions>
      </trkpt>
      <trkpt lat="43.774692825973033905029296875" lon="1.57669457606971263885498046875">
        <ele>152.600006103515625</ele>
        <time>2026-08-13T08:48:08.000Z</time>
        <extensions>
          <ns3:TrackPointExtension>
            <ns3:hr>101</ns3:hr>
            <ns3:cad>47</ns3:cad>
          </ns3:TrackPointExtension>
        </extensions>
      </trkpt>
      <trkpt lat="43.774698860943317413330078125" lon="1.57669139094650745391845703125">
        <ele>152.8000030517578125</ele>
        <time>2026-08-13T08:48:09.000Z</time>
        <extensions>
          <ns3:TrackPointExtension>
            <ns3:hr>101</ns3:hr>
            <ns3:cad>47</ns3:cad>
          </ns3:TrackPointExtension>
        </extensions>
      </trkpt>
      <trkpt lat="43.77470447681844234466552734375" lon="1.57668384723365306854248046875">
        <ele>152.8000030517578125</ele>
        <time>2026-08-13T08:48:10.000Z</time>
        <extensions>
          <ns3:TrackPointExtension>
            <ns3:hr>102</ns3:hr>
            <ns3:cad>47</ns3:cad>
          </ns3:TrackPointExtension>
        </extensions>
      </trkpt>
      <trkpt lat="43.77471604384481906890869140625" lon="1.5766750462353229522705078125">
        <ele>153</ele>
        <time>2026-08-13T08:48:11.000Z</time>
        <extensions>
          <ns3:TrackPointExtension>
            <ns3:hr>102</ns3:hr>
            <ns3:cad>42</ns3:cad>
          </ns3:TrackPointExtension>
        </extensions>
      </trkpt>
      <trkpt lat="43.7747228331863880157470703125" lon="1.57667244784533977508544921875">
        <ele>153</ele>
        <time>2026-08-13T08:48:12.000Z</time>
        <extensions>
          <ns3:TrackPointExtension>
            <ns3:hr>102</ns3:hr>
            <ns3:cad>41</ns3:cad>
          </ns3:TrackPointExtension>
        </extensions>
      </trkpt>
      <trkpt lat="43.77472593449056148529052734375" lon="1.57667261548340320587158203125">
        <ele>153</ele>
        <time>2026-08-13T08:48:13.000Z</time>
        <extensions>
          <ns3:TrackPointExtension>
            <ns3:hr>103</ns3:hr>
            <ns3:cad>41</ns3:cad>
          </ns3:TrackPointExtension>
        </extensions>
      </trkpt>
      <trkpt lat="43.7747392617166042327880859375" lon="1.576661802828311920166015625">
        <ele>153</ele>
        <time>2026-08-13T08:48:14.000Z</time>
        <extensions>
          <ns3:TrackPointExtension>
            <ns3:hr>103</ns3:hr>
            <ns3:cad>0</ns3:cad>
          </ns3:TrackPointExtension>
        </extensions>
      </trkpt>
      <trkpt lat="43.7747452966868877410888671875" lon="1.57665551640093326568603515625">
        <ele>153.1999969482421875</ele>
        <time>2026-08-13T08:48:15.000Z</time>
        <extensions>
          <ns3:TrackPointExtension>
            <ns3:hr>103</ns3:hr>
            <ns3:cad>0</ns3:cad>
          </ns3:TrackPointExtension>
        </extensions>
      </trkpt>
      <trkpt lat="43.7747533433139324188232421875" lon="1.5766519121825695037841796875">
        <ele>153.1999969482421875</ele>
        <time>2026-08-13T08:48:16.000Z</time>
        <extensions>
          <ns3:TrackPointExtension>
            <ns3:hr>103</ns3:hr>
            <ns3:cad>0</ns3:cad>
          </ns3:TrackPointExtension>
        </extensions>
      </trkpt>
      <trkpt lat="43.77475879155099391937255859375" lon="1.57664109952747821807861328125">
        <ele>153.1999969482421875</ele>
        <time>2026-08-13T08:48:17.000Z</time>
        <extensions>
          <ns3:TrackPointExtension>
            <ns3:hr>103</ns3:hr>
            <ns3:cad>41</ns3:cad>
          </ns3:TrackPointExtension>
        </extensions>
      </trkpt>
      <trkpt lat="43.77476767636835575103759765625" lon="1.5766328014433383941650390625">
        <ele>153.1999969482421875</ele>
        <time>2026-08-13T08:48:18.000Z</time>
        <extensions>
          <ns3:TrackPointExtension>
            <ns3:hr>102</ns3:hr>
            <ns3:cad>41</ns3:cad>
          </ns3:TrackPointExtension>
        </extensions>
      </trkpt>
      <trkpt lat="43.77477354370057582855224609375" lon="1.57662936486303806304931640625">
        <ele>153.399993896484375</ele>
        <time>2026-08-13T08:48:19.000Z</time>
        <extensions>
          <ns3:TrackPointExtension>
            <ns3:hr>101</ns3:hr>
            <ns3:cad>41</ns3:cad>
          </ns3:TrackPointExtension>
        </extensions>
      </trkpt>
      <trkpt lat="43.77477454952895641326904296875" lon="1.57662081532180309295654296875">
        <ele>153.399993896484375</ele>
        <time>2026-08-13T08:48:20.000Z</time>
        <extensions>
          <ns3:TrackPointExtension>
            <ns3:hr>101</ns3:hr>
            <ns3:cad>41</ns3:cad>
          </ns3:TrackPointExtension>
        </extensions>
      </trkpt>
      <trkpt lat="43.774784691631793975830078125" lon="1.5766113437712192535400390625">
        <ele>153.399993896484375</ele>
        <time>2026-08-13T08:48:21.000Z</time>
        <extensions>
          <ns3:TrackPointExtension>
            <ns3:hr>101</ns3:hr>
            <ns3:cad>42</ns3:cad>
          </ns3:TrackPointExtension>
        </extensions>
      </trkpt>
      <trkpt lat="43.77479449845850467681884765625" lon="1.5766056440770626068115234375">
        <ele>153.600006103515625</ele>
        <time>2026-08-13T08:48:22.000Z</time>
        <extensions>
          <ns3:TrackPointExtension>
            <ns3:hr>100</ns3:hr>
            <ns3:cad>42</ns3:cad>
          </ns3:TrackPointExtension>
        </extensions>
      </trkpt>
      <trkpt lat="43.774799443781375885009765625" lon="1.5765962563455104827880859375">
        <ele>153.600006103515625</ele>
        <time>2026-08-13T08:48:23.000Z</time>
        <extensions>
          <ns3:TrackPointExtension>
            <ns3:hr>99</ns3:hr>
            <ns3:cad>42</ns3:cad>
          </ns3:TrackPointExtension>
        </extensions>
      </trkpt>
      <trkpt lat="43.77480824477970600128173828125" lon="1.5765815041959285736083984375">
        <ele>153.600006103515625</ele>
        <time>2026-08-13T08:48:24.000Z</time>
        <extensions>
          <ns3:TrackPointExtension>
            <ns3:hr>99</ns3:hr>
            <ns3:cad>41</ns3:cad>
          </ns3:TrackPointExtension>
        </extensions>
      </trkpt>
      <trkpt lat="43.7748138606548309326171875" lon="1.576573289930820465087890625">
        <ele>153.8000030517578125</ele>
        <time>2026-08-13T08:48:25.000Z</time>
        <extensions>
          <ns3:TrackPointExtension>
            <ns3:hr>98</ns3:hr>
            <ns3:cad>41</ns3:cad>
          </ns3:TrackPointExtension>
        </extensions>
      </trkpt>
      <trkpt lat="43.77482031472027301788330078125" lon="1.5765610523521900177001953125">
        <ele>153.8000030517578125</ele>
        <time>2026-08-13T08:48:26.000Z</time>
        <extensions>
          <ns3:TrackPointExtension>
            <ns3:hr>97</ns3:hr>
            <ns3:cad>41</ns3:cad>
          </ns3:TrackPointExtension>
        </extensions>
      </trkpt>
      <trkpt lat="43.77482584677636623382568359375" lon="1.57655216753482818603515625">
        <ele>153.8000030517578125</ele>
        <time>2026-08-13T08:48:27.000Z</time>
        <extensions>
          <ns3:TrackPointExtension>
            <ns3:hr>97</ns3:hr>
            <ns3:cad>42</ns3:cad>
          </ns3:TrackPointExtension>
        </extensions>
      </trkpt>
      <trkpt lat="43.7748354859650135040283203125" lon="1.57654118724167346954345703125">
        <ele>153.8000030517578125</ele>
        <time>2026-08-13T08:48:28.000Z</time>
        <extensions>
          <ns3:TrackPointExtension>
            <ns3:hr>96</ns3:hr>
            <ns3:cad>42</ns3:cad>
          </ns3:TrackPointExtension>
        </extensions>
      </trkpt>
      <trkpt lat="43.7748411856591701507568359375" lon="1.576537750661373138427734375">
        <ele>153.8000030517578125</ele>
        <time>2026-08-13T08:48:29.000Z</time>
        <extensions>
          <ns3:TrackPointExtension>
            <ns3:hr>96</ns3:hr>
            <ns3:cad>42</ns3:cad>
          </ns3:TrackPointExtension>
        </extensions>
      </trkpt>
      <trkpt lat="43.7748455442488193511962890625" lon="1.5765312127768993377685546875">
        <ele>153.8000030517578125</ele>
        <time>2026-08-13T08:48:30.000Z</time>
        <extensions>
          <ns3:TrackPointExtension>
            <ns3:hr>95</ns3:hr>
            <ns3:cad>42</ns3:cad>
          </ns3:TrackPointExtension>
        </extensions>
      </trkpt>
      <trkpt lat="43.77485836856067180633544921875" lon="1.57652107067406177520751953125">
        <ele>154</ele>
        <time>2026-08-13T08:48:31.000Z</time>
        <extensions>
          <ns3:TrackPointExtension>
            <ns3:hr>95</ns3:hr>
            <ns3:cad>42</ns3:cad>
          </ns3:TrackPointExtension>
        </extensions>
      </trkpt>
      <trkpt lat="43.7748643197119235992431640625" lon="1.576516292989253997802734375">
        <ele>154</ele>
        <time>2026-08-13T08:48:32.000Z</time>
        <extensions>
          <ns3:TrackPointExtension>
            <ns3:hr>95</ns3:hr>
            <ns3:cad>41</ns3:cad>
          </ns3:TrackPointExtension>
        </extensions>
      </trkpt>
      <trkpt lat="43.774867840111255645751953125" lon="1.57651453278958797454833984375">
        <ele>154</ele>
        <time>2026-08-13T08:48:33.000Z</time>
        <extensions>
          <ns3:TrackPointExtension>
            <ns3:hr>96</ns3:hr>
            <ns3:cad>41</ns3:cad>
          </ns3:TrackPointExtension>
        </extensions>
      </trkpt>
      <trkpt lat="43.7748809158802032470703125" lon="1.57650564797222614288330078125">
        <ele>154</ele>
        <time>2026-08-13T08:48:34.000Z</time>
        <extensions>
          <ns3:TrackPointExtension>
            <ns3:hr>96</ns3:hr>
            <ns3:cad>42</ns3:cad>
          </ns3:TrackPointExtension>
        </extensions>
      </trkpt>
      <trkpt lat="43.77488954924046993255615234375" lon="1.5765013732016086578369140625">
        <ele>154</ele>
        <time>2026-08-13T08:48:35.000Z</time>
        <extensions>
          <ns3:TrackPointExtension>
            <ns3:hr>95</ns3:hr>
            <ns3:cad>42</ns3:cad>
          </ns3:TrackPointExtension>
        </extensions>
      </trkpt>
      <trkpt lat="43.77489608712494373321533203125" lon="1.5764960087835788726806640625">
        <ele>154</ele>
        <time>2026-08-13T08:48:36.000Z</time>
        <extensions>
          <ns3:TrackPointExtension>
            <ns3:hr>95</ns3:hr>
            <ns3:cad>42</ns3:cad>
          </ns3:TrackPointExtension>
        </extensions>
      </trkpt>
      <trkpt lat="43.77490564249455928802490234375" lon="1.57648636959493160247802734375">
        <ele>154</ele>
        <time>2026-08-13T08:48:37.000Z</time>
        <extensions>
          <ns3:TrackPointExtension>
            <ns3:hr>94</ns3:hr>
            <ns3:cad>42</ns3:cad>
          </ns3:TrackPointExtension>
        </extensions>
      </trkpt>
      <trkpt lat="43.77491150982677936553955078125" lon="1.57647706568241119384765625">
        <ele>154</ele>
        <time>2026-08-13T08:48:38.000Z</time>
        <extensions>
          <ns3:TrackPointExtension>
            <ns3:hr>94</ns3:hr>
            <ns3:cad>42</ns3:cad>
          </ns3:TrackPointExtension>
        </extensions>
      </trkpt>
      <trkpt lat="43.77491704188287258148193359375" lon="1.57647279091179370880126953125">
        <ele>154</ele>
        <time>2026-08-13T08:48:39.000Z</time>
        <extensions>
          <ns3:TrackPointExtension>
            <ns3:hr>93</ns3:hr>
            <ns3:cad>43</ns3:cad>
          </ns3:TrackPointExtension>
        </extensions>
      </trkpt>
      <trkpt lat="43.774923495948314666748046875" lon="1.576466672122478485107421875">
        <ele>154.1999969482421875</ele>
        <time>2026-08-13T08:48:40.000Z</time>
        <extensions>
          <ns3:TrackPointExtension>
            <ns3:hr>92</ns3:hr>
            <ns3:cad>43</ns3:cad>
          </ns3:TrackPointExtension>
        </extensions>
      </trkpt>
      <trkpt lat="43.77492827363312244415283203125" lon="1.5764597989618778228759765625">
        <ele>154.1999969482421875</ele>
        <time>2026-08-13T08:48:41.000Z</time>
        <extensions>
          <ns3:TrackPointExtension>
            <ns3:hr>91</ns3:hr>
            <ns3:cad>42</ns3:cad>
          </ns3:TrackPointExtension>
        </extensions>
      </trkpt>
      <trkpt lat="43.7749372422695159912109375" lon="1.57645200379192829132080078125">
        <ele>154.1999969482421875</ele>
        <time>2026-08-13T08:48:42.000Z</time>
        <extensions>
          <ns3:TrackPointExtension>
            <ns3:hr>92</ns3:hr>
            <ns3:cad>42</ns3:cad>
          </ns3:TrackPointExtension>
        </extensions>
      </trkpt>
      <trkpt lat="43.77494319342076778411865234375" lon="1.57644362188875675201416015625">
        <ele>154.1999969482421875</ele>
        <time>2026-08-13T08:48:43.000Z</time>
        <extensions>
          <ns3:TrackPointExtension>
            <ns3:hr>92</ns3:hr>
            <ns3:cad>42</ns3:cad>
          </ns3:TrackPointExtension>
        </extensions>
      </trkpt>
      <trkpt lat="43.77494621090590953826904296875" lon="1.576438844203948974609375">
        <ele>154.1999969482421875</ele>
        <time>2026-08-13T08:48:44.000Z</time>
        <extensions>
          <ns3:TrackPointExtension>
            <ns3:hr>92</ns3:hr>
            <ns3:cad>42</ns3:cad>
          </ns3:TrackPointExtension>
        </extensions>
      </trkpt>
      <trkpt lat="43.77495509572327136993408203125" lon="1.57642853446304798126220703125">
        <ele>154.1999969482421875</ele>
        <time>2026-08-13T08:48:45.000Z</time>
        <extensions>
          <ns3:TrackPointExtension>
            <ns3:hr>92</ns3:hr>
            <ns3:cad>42</ns3:cad>
          </ns3:TrackPointExtension>
        </extensions>
      </trkpt>
      <trkpt lat="43.77496968023478984832763671875" lon="1.57641964964568614959716796875">
        <ele>154.1999969482421875</ele>
        <time>2026-08-13T08:48:46.000Z</time>
        <extensions>
          <ns3:TrackPointExtension>
            <ns3:hr>93</ns3:hr>
            <ns3:cad>41</ns3:cad>
          </ns3:TrackPointExtension>
        </extensions>
      </trkpt>
      <trkpt lat="43.77497940324246883392333984375" lon="1.57640975899994373321533203125">
        <ele>154.1999969482421875</ele>
        <time>2026-08-13T08:48:47.000Z</time>
        <extensions>
          <ns3:TrackPointExtension>
            <ns3:hr>93</ns3:hr>
            <ns3:cad>41</ns3:cad>
          </ns3:TrackPointExtension>
        </extensions>
      </trkpt>
      <trkpt lat="43.77498560585081577301025390625" lon="1.576403640210628509521484375">
        <ele>154.1999969482421875</ele>
        <time>2026-08-13T08:48:48.000Z</time>
        <extensions>
          <ns3:TrackPointExtension>
            <ns3:hr>93</ns3:hr>
            <ns3:cad>41</ns3:cad>
          </ns3:TrackPointExtension>
        </extensions>
      </trkpt>
      <trkpt lat="43.77499348483979701995849609375" lon="1.57639333046972751617431640625">
        <ele>154.1999969482421875</ele>
        <time>2026-08-13T08:48:49.000Z</time>
        <extensions>
          <ns3:TrackPointExtension>
            <ns3:hr>93</ns3:hr>
            <ns3:cad>42</ns3:cad>
          </ns3:TrackPointExtension>
        </extensions>
      </trkpt>
      <trkpt lat="43.77500220201909542083740234375" lon="1.5763880498707294464111328125">
        <ele>154.1999969482421875</ele>
        <time>2026-08-13T08:48:50.000Z</time>
        <extensions>
          <ns3:TrackPointExtension>
            <ns3:hr>94</ns3:hr>
            <ns3:cad>43</ns3:cad>
          </ns3:TrackPointExtension>
        </extensions>
      </trkpt>
      <trkpt lat="43.77501259557902812957763671875" lon="1.57637916505336761474609375">
        <ele>154.1999969482421875</ele>
        <time>2026-08-13T08:48:51.000Z</time>
        <extensions>
          <ns3:TrackPointExtension>
            <ns3:hr>93</ns3:hr>
            <ns3:cad>43</ns3:cad>
          </ns3:TrackPointExtension>
        </extensions>
      </trkpt>
      <trkpt lat="43.7750205583870410919189453125" lon="1.57637220807373523712158203125">
        <ele>154.1999969482421875</ele>
        <time>2026-08-13T08:48:52.000Z</time>
        <extensions>
          <ns3:TrackPointExtension>
            <ns3:hr>93</ns3:hr>
            <ns3:cad>43</ns3:cad>
          </ns3:TrackPointExtension>
        </extensions>
      </trkpt>
      <trkpt lat="43.77502701245248317718505859375" lon="1.57636416144669055938720703125">
        <ele>154.1999969482421875</ele>
        <time>2026-08-13T08:48:53.000Z</time>
        <extensions>
          <ns3:TrackPointExtension>
            <ns3:hr>93</ns3:hr>
            <ns3:cad>43</ns3:cad>
          </ns3:TrackPointExtension>
        </extensions>
      </trkpt>
      <trkpt lat="43.7750351428985595703125" lon="1.5763555280864238739013671875">
        <ele>154.1999969482421875</ele>
        <time>2026-08-13T08:48:54.000Z</time>
        <extensions>
          <ns3:TrackPointExtension>
            <ns3:hr>93</ns3:hr>
            <ns3:cad>43</ns3:cad>
          </ns3:TrackPointExtension>
        </extensions>
      </trkpt>
      <trkpt lat="43.775039501488208770751953125" lon="1.57635142095386981964111328125">
        <ele>154.1999969482421875</ele>
        <time>2026-08-13T08:48:55.000Z</time>
        <extensions>
          <ns3:TrackPointExtension>
            <ns3:hr>93</ns3:hr>
            <ns3:cad>43</ns3:cad>
          </ns3:TrackPointExtension>
        </extensions>
      </trkpt>
      <trkpt lat="43.77504696138203144073486328125" lon="1.57634270377457141876220703125">
        <ele>154.399993896484375</ele>
        <time>2026-08-13T08:48:56.000Z</time>
        <extensions>
          <ns3:TrackPointExtension>
            <ns3:hr>93</ns3:hr>
            <ns3:cad>43</ns3:cad>
          </ns3:TrackPointExtension>
        </extensions>
      </trkpt>
      <trkpt lat="43.77505190670490264892578125" lon="1.57633851282298564910888671875">
        <ele>154.399993896484375</ele>
        <time>2026-08-13T08:48:57.000Z</time>
        <extensions>
          <ns3:TrackPointExtension>
            <ns3:hr>93</ns3:hr>
            <ns3:cad>43</ns3:cad>
          </ns3:TrackPointExtension>
        </extensions>
      </trkpt>
      <trkpt lat="43.7750557623803615570068359375" lon="1.57633314840495586395263671875">
        <ele>154.399993896484375</ele>
        <time>2026-08-13T08:48:58.000Z</time>
        <extensions>
          <ns3:TrackPointExtension>
            <ns3:hr>93</ns3:hr>
            <ns3:cad>43</ns3:cad>
          </ns3:TrackPointExtension>
        </extensions>
      </trkpt>
      <trkpt lat="43.77506196498870849609375" lon="1.57632392831146717071533203125">
        <ele>154.399993896484375</ele>
        <time>2026-08-13T08:48:59.000Z</time>
        <extensions>
          <ns3:TrackPointExtension>
            <ns3:hr>92</ns3:hr>
            <ns3:cad>42</ns3:cad>
          </ns3:TrackPointExtension>
        </extensions>
      </trkpt>
      <trkpt lat="43.7750688381493091583251953125" lon="1.57632174901664257049560546875">
        <ele>154.399993896484375</ele>
        <time>2026-08-13T08:49:00.000Z</time>
        <extensions>
          <ns3:TrackPointExtension>
            <ns3:hr>93</ns3:hr>
            <ns3:cad>43</ns3:cad>
          </ns3:TrackPointExtension>
        </extensions>
      </trkpt>
      <trkpt lat="43.77507361583411693572998046875" lon="1.57631889916956424713134765625">
        <ele>154.399993896484375</ele>
        <time>2026-08-13T08:49:01.000Z</time>
        <extensions>
          <ns3:TrackPointExtension>
            <ns3:hr>93</ns3:hr>
            <ns3:cad>43</ns3:cad>
          </ns3:TrackPointExtension>
        </extensions>
      </trkpt>
      <trkpt lat="43.77508518286049365997314453125" lon="1.5763072483241558074951171875">
        <ele>154.399993896484375</ele>
        <time>2026-08-13T08:49:02.000Z</time>
        <extensions>
          <ns3:TrackPointExtension>
            <ns3:hr>93</ns3:hr>
            <ns3:cad>43</ns3:cad>
          </ns3:TrackPointExtension>
        </extensions>
      </trkpt>
      <trkpt lat="43.7750954926013946533203125" lon="1.57629509456455707550048828125">
        <ele>154.399993896484375</ele>
        <time>2026-08-13T08:49:03.000Z</time>
        <extensions>
          <ns3:TrackPointExtension>
            <ns3:hr>92</ns3:hr>
            <ns3:cad>43</ns3:cad>
          </ns3:TrackPointExtension>
        </extensions>
      </trkpt>
      <trkpt lat="43.77510261721909046173095703125" lon="1.57629425637423992156982421875">
        <ele>154.600006103515625</ele>
        <time>2026-08-13T08:49:04.000Z</time>
        <extensions>
          <ns3:TrackPointExtension>
            <ns3:hr>93</ns3:hr>
            <ns3:cad>41</ns3:cad>
          </ns3:TrackPointExtension>
        </extensions>
      </trkpt>
      <trkpt lat="43.775110580027103424072265625" lon="1.576281599700450897216796875">
        <ele>154.600006103515625</ele>
        <time>2026-08-13T08:49:05.000Z</time>
        <extensions>
          <ns3:TrackPointExtension>
            <ns3:hr>93</ns3:hr>
            <ns3:cad>41</ns3:cad>
          </ns3:TrackPointExtension>
        </extensions>
      </trkpt>
      <trkpt lat="43.7751211412250995635986328125" lon="1.5762670151889324188232421875">
        <ele>154.399993896484375</ele>
        <time>2026-08-13T08:49:06.000Z</time>
        <extensions>
          <ns3:TrackPointExtension>
            <ns3:hr>93</ns3:hr>
            <ns3:cad>43</ns3:cad>
          </ns3:TrackPointExtension>
        </extensions>
      </trkpt>
      <trkpt lat="43.77513279207050800323486328125" lon="1.576256453990936279296875">
        <ele>154.600006103515625</ele>
        <time>2026-08-13T08:49:07.000Z</time>
        <extensions>
          <ns3:TrackPointExtension>
            <ns3:hr>93</ns3:hr>
            <ns3:cad>44</ns3:cad>
          </ns3:TrackPointExtension>
        </extensions>
      </trkpt>
      <trkpt lat="43.77514016814529895782470703125" lon="1.57625134103000164031982421875">
        <ele>154.600006103515625</ele>
        <time>2026-08-13T08:49:08.000Z</time>
        <extensions>
          <ns3:TrackPointExtension>
            <ns3:hr>93</ns3:hr>
            <ns3:cad>44</ns3:cad>
          </ns3:TrackPointExtension>
        </extensions>
      </trkpt>
      <trkpt lat="43.77514771185815334320068359375" lon="1.5762435458600521087646484375">
        <ele>154.399993896484375</ele>
        <time>2026-08-13T08:49:09.000Z</time>
        <extensions>
          <ns3:TrackPointExtension>
            <ns3:hr>92</ns3:hr>
            <ns3:cad>43</ns3:cad>
          </ns3:TrackPointExtension>
        </extensions>
      </trkpt>
      <trkpt lat="43.77515693195164203643798828125" lon="1.57623340375721454620361328125">
        <ele>154.399993896484375</ele>
        <time>2026-08-13T08:49:10.000Z</time>
        <extensions>
          <ns3:TrackPointExtension>
            <ns3:hr>92</ns3:hr>
            <ns3:cad>43</ns3:cad>
          </ns3:TrackPointExtension>
        </extensions>
      </trkpt>
      <trkpt lat="43.77516514621675014495849609375" lon="1.5762264467775821685791015625">
        <ele>154.399993896484375</ele>
        <time>2026-08-13T08:49:11.000Z</time>
        <extensions>
          <ns3:TrackPointExtension>
            <ns3:hr>92</ns3:hr>
            <ns3:cad>44</ns3:cad>
          </ns3:TrackPointExtension>
        </extensions>
      </trkpt>
      <trkpt lat="43.77517101354897022247314453125" lon="1.57622368074953556060791015625">
        <ele>154.399993896484375</ele>
        <time>2026-08-13T08:49:12.000Z</time>
        <extensions>
          <ns3:TrackPointExtension>
            <ns3:hr>92</ns3:hr>
            <ns3:cad>44</ns3:cad>
          </ns3:TrackPointExtension>
        </extensions>
      </trkpt>
      <trkpt lat="43.775176964700222015380859375" lon="1.5762148797512054443359375">
        <ele>154.399993896484375</ele>
        <time>2026-08-13T08:49:13.000Z</time>
        <extensions>
          <ns3:TrackPointExtension>
            <ns3:hr>91</ns3:hr>
            <ns3:cad>44</ns3:cad>
          </ns3:TrackPointExtension>
        </extensions>
      </trkpt>
      <trkpt lat="43.7751892022788524627685546875" lon="1.57620012760162353515625">
        <ele>154.399993896484375</ele>
        <time>2026-08-13T08:49:14.000Z</time>
        <extensions>
          <ns3:TrackPointExtension>
            <ns3:hr>91</ns3:hr>
            <ns3:cad>44</ns3:cad>
          </ns3:TrackPointExtension>
        </extensions>
      </trkpt>
      <trkpt lat="43.7751969136297702789306640625" lon="1.5761945955455303192138671875">
        <ele>154.399993896484375</ele>
        <time>2026-08-13T08:49:15.000Z</time>
        <extensions>
          <ns3:TrackPointExtension>
            <ns3:hr>91</ns3:hr>
            <ns3:cad>44</ns3:cad>
          </ns3:TrackPointExtension>
        </extensions>
      </trkpt>
      <trkpt lat="43.775202445685863494873046875" lon="1.5761882252991199493408203125">
        <ele>154.399993896484375</ele>
        <time>2026-08-13T08:49:16.000Z</time>
        <extensions>
          <ns3:TrackPointExtension>
            <ns3:hr>90</ns3:hr>
            <ns3:cad>44</ns3:cad>
          </ns3:TrackPointExtension>
        </extensions>
      </trkpt>
      <trkpt lat="43.775213845074176788330078125" lon="1.576180346310138702392578125">
        <ele>154.399993896484375</ele>
        <time>2026-08-13T08:49:17.000Z</time>
        <extensions>
          <ns3:TrackPointExtension>
            <ns3:hr>89</ns3:hr>
            <ns3:cad>43</ns3:cad>
          </ns3:TrackPointExtension>
        </extensions>
      </trkpt>
      <trkpt lat="43.77522264607250690460205078125" lon="1.5761731378734111785888671875">
        <ele>154.399993896484375</ele>
        <time>2026-08-13T08:49:18.000Z</time>
        <extensions>
          <ns3:TrackPointExtension>
            <ns3:hr>88</ns3:hr>
            <ns3:cad>43</ns3:cad>
          </ns3:TrackPointExtension>
        </extensions>
      </trkpt>
      <trkpt lat="43.77523220144212245941162109375" lon="1.57616685144603252410888671875">
        <ele>154.399993896484375</ele>
        <time>2026-08-13T08:49:19.000Z</time>
        <extensions>
          <ns3:TrackPointExtension>
            <ns3:hr>87</ns3:hr>
            <ns3:cad>43</ns3:cad>
          </ns3:TrackPointExtension>
        </extensions>
      </trkpt>
      <trkpt lat="43.77523471601307392120361328125" lon="1.57616215758025646209716796875">
        <ele>154.399993896484375</ele>
        <time>2026-08-13T08:49:20.000Z</time>
        <extensions>
          <ns3:TrackPointExtension>
            <ns3:hr>86</ns3:hr>
            <ns3:cad>0</ns3:cad>
          </ns3:TrackPointExtension>
        </extensions>
      </trkpt>
      <trkpt lat="43.77524326555430889129638671875" lon="1.57615126110613346099853515625">
        <ele>154.399993896484375</ele>
        <time>2026-08-13T08:49:21.000Z</time>
        <extensions>
          <ns3:TrackPointExtension>
            <ns3:hr>85</ns3:hr>
            <ns3:cad>0</ns3:cad>
          </ns3:TrackPointExtension>
        </extensions>
      </trkpt>
      <trkpt lat="43.7752495519816875457763671875" lon="1.57614178955554962158203125">
        <ele>154.399993896484375</ele>
        <time>2026-08-13T08:49:22.000Z</time>
        <extensions>
          <ns3:TrackPointExtension>
            <ns3:hr>85</ns3:hr>
            <ns3:cad>0</ns3:cad>
          </ns3:TrackPointExtension>
        </extensions>
      </trkpt>
      <trkpt lat="43.77525717951357364654541015625" lon="1.5761349163949489593505859375">
        <ele>154.399993896484375</ele>
        <time>2026-08-13T08:49:23.000Z</time>
        <extensions>
          <ns3:TrackPointExtension>
            <ns3:hr>84</ns3:hr>
            <ns3:cad>43</ns3:cad>
          </ns3:TrackPointExtension>
        </extensions>
      </trkpt>
      <trkpt lat="43.77526204101741313934326171875" lon="1.57613080926239490509033203125">
        <ele>154.399993896484375</ele>
        <time>2026-08-13T08:49:24.000Z</time>
        <extensions>
          <ns3:TrackPointExtension>
            <ns3:hr>83</ns3:hr>
            <ns3:cad>43</ns3:cad>
          </ns3:TrackPointExtension>
        </extensions>
      </trkpt>
      <trkpt lat="43.77526992000639438629150390625" lon="1.57612033188343048095703125">
        <ele>154.399993896484375</ele>
        <time>2026-08-13T08:49:25.000Z</time>
        <extensions>
          <ns3:TrackPointExtension>
            <ns3:hr>83</ns3:hr>
            <ns3:cad>43</ns3:cad>
          </ns3:TrackPointExtension>
        </extensions>
      </trkpt>
      <trkpt lat="43.7752777151763439178466796875" lon="1.5761101059615612030029296875">
        <ele>154.1999969482421875</ele>
        <time>2026-08-13T08:49:26.000Z</time>
        <extensions>
          <ns3:TrackPointExtension>
            <ns3:hr>83</ns3:hr>
            <ns3:cad>43</ns3:cad>
          </ns3:TrackPointExtension>
        </extensions>
      </trkpt>
      <trkpt lat="43.775284253060817718505859375" lon="1.57610381953418254852294921875">
        <ele>154.1999969482421875</ele>
        <time>2026-08-13T08:49:27.000Z</time>
        <extensions>
          <ns3:TrackPointExtension>
            <ns3:hr>84</ns3:hr>
            <ns3:cad>44</ns3:cad>
          </ns3:TrackPointExtension>
        </extensions>
      </trkpt>
      <trkpt lat="43.7752901203930377960205078125" lon="1.5760983712971210479736328125">
        <ele>154.1999969482421875</ele>
        <time>2026-08-13T08:49:28.000Z</time>
        <extensions>
          <ns3:TrackPointExtension>
            <ns3:hr>84</ns3:hr>
            <ns3:cad>44</ns3:cad>
          </ns3:TrackPointExtension>
        </extensions>
      </trkpt>
      <trkpt lat="43.775296993553638458251953125" lon="1.5760886482894420623779296875">
        <ele>154.1999969482421875</ele>
        <time>2026-08-13T08:49:29.000Z</time>
        <extensions>
          <ns3:TrackPointExtension>
            <ns3:hr>84</ns3:hr>
            <ns3:cad>45</ns3:cad>
          </ns3:TrackPointExtension>
        </extensions>
      </trkpt>
      <trkpt lat="43.7753092311322689056396484375" lon="1.57607682980597019195556640625">
        <ele>154.1999969482421875</ele>
        <time>2026-08-13T08:49:30.000Z</time>
        <extensions>
          <ns3:TrackPointExtension>
            <ns3:hr>84</ns3:hr>
            <ns3:cad>46</ns3:cad>
          </ns3:TrackPointExtension>
        </extensions>
      </trkpt>
      <trkpt lat="43.7753172777593135833740234375" lon="1.5760695375502109527587890625">
        <ele>154.1999969482421875</ele>
        <time>2026-08-13T08:49:31.000Z</time>
        <extensions>
          <ns3:TrackPointExtension>
            <ns3:hr>84</ns3:hr>
            <ns3:cad>47</ns3:cad>
          </ns3:TrackPointExtension>
        </extensions>
      </trkpt>
      <trkpt lat="43.7753256596624851226806640625" lon="1.576067022979259490966796875">
        <ele>154.1999969482421875</ele>
        <time>2026-08-13T08:49:32.000Z</time>
        <extensions>
          <ns3:TrackPointExtension>
            <ns3:hr>83</ns3:hr>
            <ns3:cad>47</ns3:cad>
          </ns3:TrackPointExtension>
        </extensions>
      </trkpt>
      <trkpt lat="43.775331862270832061767578125" lon="1.576060317456722259521484375">
        <ele>154.1999969482421875</ele>
        <time>2026-08-13T08:49:33.000Z</time>
        <extensions>
          <ns3:TrackPointExtension>
            <ns3:hr>83</ns3:hr>
            <ns3:cad>47</ns3:cad>
          </ns3:TrackPointExtension>
        </extensions>
      </trkpt>
      <trkpt lat="43.77534016035497188568115234375" lon="1.57605084590613842010498046875">
        <ele>154.1999969482421875</ele>
        <time>2026-08-13T08:49:34.000Z</time>
        <extensions>
          <ns3:TrackPointExtension>
            <ns3:hr>83</ns3:hr>
            <ns3:cad>46</ns3:cad>
          </ns3:TrackPointExtension>
        </extensions>
      </trkpt>
      <trkpt lat="43.775348626077175140380859375" lon="1.5760410390794277191162109375">
        <ele>154.1999969482421875</ele>
        <time>2026-08-13T08:49:35.000Z</time>
        <extensions>
          <ns3:TrackPointExtension>
            <ns3:hr>82</ns3:hr>
            <ns3:cad>46</ns3:cad>
          </ns3:TrackPointExtension>
        </extensions>
      </trkpt>
      <trkpt lat="43.775356002151966094970703125" lon="1.57603039406239986419677734375">
        <ele>154</ele>
        <time>2026-08-13T08:49:36.000Z</time>
        <extensions>
          <ns3:TrackPointExtension>
            <ns3:hr>81</ns3:hr>
            <ns3:cad>46</ns3:cad>
          </ns3:TrackPointExtension>
        </extensions>
      </trkpt>
      <trkpt lat="43.7753618694841861724853515625" lon="1.57602720893919467926025390625">
        <ele>154</ele>
        <time>2026-08-13T08:49:37.000Z</time>
        <extensions>
          <ns3:TrackPointExtension>
            <ns3:hr>81</ns3:hr>
            <ns3:cad>46</ns3:cad>
          </ns3:TrackPointExtension>
        </extensions>
      </trkpt>
      <trkpt lat="43.7753658927977085113525390625" lon="1.5760225988924503326416015625">
        <ele>154</ele>
        <time>2026-08-13T08:49:38.000Z</time>
        <extensions>
          <ns3:TrackPointExtension>
            <ns3:hr>80</ns3:hr>
            <ns3:cad>46</ns3:cad>
          </ns3:TrackPointExtension>
        </extensions>
      </trkpt>
      <trkpt lat="43.7753782980144023895263671875" lon="1.57601346261799335479736328125">
        <ele>154</ele>
        <time>2026-08-13T08:49:39.000Z</time>
        <extensions>
          <ns3:TrackPointExtension>
            <ns3:hr>79</ns3:hr>
            <ns3:cad>47</ns3:cad>
          </ns3:TrackPointExtension>
        </extensions>
      </trkpt>
      <trkpt lat="43.77538793720304965972900390625" lon="1.57600491307675838470458984375">
        <ele>154</ele>
        <time>2026-08-13T08:49:40.000Z</time>
        <extensions>
          <ns3:TrackPointExtension>
            <ns3:hr>78</ns3:hr>
            <ns3:cad>48</ns3:cad>
          </ns3:TrackPointExtension>
        </extensions>
      </trkpt>
      <trkpt lat="43.77539766021072864532470703125" lon="1.5759967826306819915771484375">
        <ele>154</ele>
        <time>2026-08-13T08:49:41.000Z</time>
        <extensions>
          <ns3:TrackPointExtension>
            <ns3:hr>77</ns3:hr>
            <ns3:cad>48</ns3:cad>
          </ns3:TrackPointExtension>
        </extensions>
      </trkpt>
      <trkpt lat="43.7754037790000438690185546875" lon="1.57599166966974735260009765625">
        <ele>153.8000030517578125</ele>
        <time>2026-08-13T08:49:42.000Z</time>
        <extensions>
          <ns3:TrackPointExtension>
            <ns3:hr>77</ns3:hr>
            <ns3:cad>48</ns3:cad>
          </ns3:TrackPointExtension>
        </extensions>
      </trkpt>
      <trkpt lat="43.77541291527450084686279296875" lon="1.57598077319562435150146484375">
        <ele>153.8000030517578125</ele>
        <time>2026-08-13T08:49:43.000Z</time>
        <extensions>
          <ns3:TrackPointExtension>
            <ns3:hr>77</ns3:hr>
            <ns3:cad>48</ns3:cad>
          </ns3:TrackPointExtension>
        </extensions>
      </trkpt>
      <trkpt lat="43.77542682923376560211181640625" lon="1.57596618868410587310791015625">
        <ele>153.8000030517578125</ele>
        <time>2026-08-13T08:49:44.000Z</time>
        <extensions>
          <ns3:TrackPointExtension>
            <ns3:hr>76</ns3:hr>
            <ns3:cad>48</ns3:cad>
          </ns3:TrackPointExtension>
        </extensions>
      </trkpt>
      <trkpt lat="43.775433786213397979736328125" lon="1.57596132718026638031005859375">
        <ele>153.8000030517578125</ele>
        <time>2026-08-13T08:49:45.000Z</time>
        <extensions>
          <ns3:TrackPointExtension>
            <ns3:hr>76</ns3:hr>
            <ns3:cad>47</ns3:cad>
          </ns3:TrackPointExtension>
        </extensions>
      </trkpt>
      <trkpt lat="43.77544208429753780364990234375" lon="1.575955040752887725830078125">
        <ele>153.8000030517578125</ele>
        <time>2026-08-13T08:49:46.000Z</time>
        <extensions>
          <ns3:TrackPointExtension>
            <ns3:hr>76</ns3:hr>
            <ns3:cad>47</ns3:cad>
          </ns3:TrackPointExtension>
        </extensions>
      </trkpt>
      <trkpt lat="43.77544878982007503509521484375" lon="1.57594707794487476348876953125">
        <ele>153.600006103515625</ele>
        <time>2026-08-13T08:49:47.000Z</time>
        <extensions>
          <ns3:TrackPointExtension>
            <ns3:hr>76</ns3:hr>
            <ns3:cad>46</ns3:cad>
          </ns3:TrackPointExtension>
        </extensions>
      </trkpt>
      <trkpt lat="43.77546002157032489776611328125" lon="1.575935594737529754638671875">
        <ele>153.600006103515625</ele>
        <time>2026-08-13T08:49:48.000Z</time>
        <extensions>
          <ns3:TrackPointExtension>
            <ns3:hr>76</ns3:hr>
            <ns3:cad>46</ns3:cad>
          </ns3:TrackPointExtension>
        </extensions>
      </trkpt>
      <trkpt lat="43.77546806819736957550048828125" lon="1.57592377625405788421630859375">
        <ele>153.600006103515625</ele>
        <time>2026-08-13T08:49:49.000Z</time>
        <extensions>
          <ns3:TrackPointExtension>
            <ns3:hr>76</ns3:hr>
            <ns3:cad>47</ns3:cad>
          </ns3:TrackPointExtension>
        </extensions>
      </trkpt>
      <trkpt lat="43.775480054318904876708984375" lon="1.57591505907475948333740234375">
        <ele>153.600006103515625</ele>
        <time>2026-08-13T08:49:50.000Z</time>
        <extensions>
          <ns3:TrackPointExtension>
            <ns3:hr>76</ns3:hr>
            <ns3:cad>47</ns3:cad>
          </ns3:TrackPointExtension>
        </extensions>
      </trkpt>
      <trkpt lat="43.7754875980317592620849609375" lon="1.5759119577705860137939453125">
        <ele>153.399993896484375</ele>
        <time>2026-08-13T08:49:51.000Z</time>
        <extensions>
          <ns3:TrackPointExtension>
            <ns3:hr>76</ns3:hr>
            <ns3:cad>47</ns3:cad>
          </ns3:TrackPointExtension>
        </extensions>
      </trkpt>
      <trkpt lat="43.77549447119235992431640625" lon="1.5759045816957950592041015625">
        <ele>153.399993896484375</ele>
        <time>2026-08-13T08:49:52.000Z</time>
        <extensions>
          <ns3:TrackPointExtension>
            <ns3:hr>76</ns3:hr>
            <ns3:cad>47</ns3:cad>
          </ns3:TrackPointExtension>
        </extensions>
      </trkpt>
      <trkpt lat="43.77550461329519748687744140625" lon="1.5758930146694183349609375">
        <ele>153.399993896484375</ele>
        <time>2026-08-13T08:49:53.000Z</time>
        <extensions>
          <ns3:TrackPointExtension>
            <ns3:hr>75</ns3:hr>
            <ns3:cad>45</ns3:cad>
          </ns3:TrackPointExtension>
        </extensions>
      </trkpt>
      <trkpt lat="43.7755150906741619110107421875" lon="1.5758871473371982574462890625">
        <ele>153.399993896484375</ele>
        <time>2026-08-13T08:49:54.000Z</time>
        <extensions>
          <ns3:TrackPointExtension>
            <ns3:hr>75</ns3:hr>
            <ns3:cad>45</ns3:cad>
          </ns3:TrackPointExtension>
        </extensions>
      </trkpt>
      <trkpt lat="43.7755221314728260040283203125" lon="1.57588287256658077239990234375">
        <ele>153.399993896484375</ele>
        <time>2026-08-13T08:49:55.000Z</time>
        <extensions>
          <ns3:TrackPointExtension>
            <ns3:hr>75</ns3:hr>
            <ns3:cad>45</ns3:cad>
          </ns3:TrackPointExtension>
        </extensions>
      </trkpt>
      <trkpt lat="43.7755274958908557891845703125" lon="1.57587893307209014892578125">
        <ele>153.399993896484375</ele>
        <time>2026-08-13T08:49:56.000Z</time>
        <extensions>
          <ns3:TrackPointExtension>
            <ns3:hr>76</ns3:hr>
            <ns3:cad>47</ns3:cad>
          </ns3:TrackPointExtension>
        </extensions>
      </trkpt>
      <trkpt lat="43.77552959136664867401123046875" lon="1.57586175017058849334716796875">
        <ele>153.399993896484375</ele>
        <time>2026-08-13T08:49:57.000Z</time>
        <extensions>
          <ns3:TrackPointExtension>
            <ns3:hr>76</ns3:hr>
            <ns3:cad>47</ns3:cad>
          </ns3:TrackPointExtension>
        </extensions>
      </trkpt>
      <trkpt lat="43.7755358777940273284912109375" lon="1.57585487700998783111572265625">
        <ele>153.1999969482421875</ele>
        <time>2026-08-13T08:49:58.000Z</time>
        <extensions>
          <ns3:TrackPointExtension>
            <ns3:hr>76</ns3:hr>
            <ns3:cad>48</ns3:cad>
          </ns3:TrackPointExtension>
        </extensions>
      </trkpt>
      <trkpt lat="43.77554317004978656768798828125" lon="1.57584850676357746124267578125">
        <ele>153.1999969482421875</ele>
        <time>2026-08-13T08:49:59.000Z</time>
        <extensions>
          <ns3:TrackPointExtension>
            <ns3:hr>77</ns3:hr>
            <ns3:cad>48</ns3:cad>
          </ns3:TrackPointExtension>
        </extensions>
      </trkpt>
      <trkpt lat="43.7755501270294189453125" lon="1.57584138214588165283203125">
        <ele>153.1999969482421875</ele>
        <time>2026-08-13T08:50:00.000Z</time>
        <extensions>
          <ns3:TrackPointExtension>
            <ns3:hr>77</ns3:hr>
            <ns3:cad>48</ns3:cad>
          </ns3:TrackPointExtension>
        </extensions>
      </trkpt>
      <trkpt lat="43.7755583412945270538330078125" lon="1.57583534717559814453125">
        <ele>153</ele>
        <time>2026-08-13T08:50:01.000Z</time>
        <extensions>
          <ns3:TrackPointExtension>
            <ns3:hr>79</ns3:hr>
            <ns3:cad>48</ns3:cad>
          </ns3:TrackPointExtension>
        </extensions>
      </trkpt>
      <trkpt lat="43.77556446008384227752685546875" lon="1.5758257918059825897216796875">
        <ele>153</ele>
        <time>2026-08-13T08:50:02.000Z</time>
        <extensions>
          <ns3:TrackPointExtension>
            <ns3:hr>79</ns3:hr>
            <ns3:cad>48</ns3:cad>
          </ns3:TrackPointExtension>
        </extensions>
      </trkpt>
      <trkpt lat="43.775571919977664947509765625" lon="1.5758150629699230194091796875">
        <ele>152.8000030517578125</ele>
        <time>2026-08-13T08:50:03.000Z</time>
        <extensions>
          <ns3:TrackPointExtension>
            <ns3:hr>79</ns3:hr>
            <ns3:cad>48</ns3:cad>
          </ns3:TrackPointExtension>
        </extensions>
      </trkpt>
      <trkpt lat="43.77558206208050251007080078125" lon="1.5758045017719268798828125">
        <ele>152.8000030517578125</ele>
        <time>2026-08-13T08:50:04.000Z</time>
        <extensions>
          <ns3:TrackPointExtension>
            <ns3:hr>78</ns3:hr>
            <ns3:cad>48</ns3:cad>
          </ns3:TrackPointExtension>
        </extensions>
      </trkpt>
      <trkpt lat="43.77558876760303974151611328125" lon="1.57579251565039157867431640625">
        <ele>152.600006103515625</ele>
        <time>2026-08-13T08:50:05.000Z</time>
        <extensions>
          <ns3:TrackPointExtension>
            <ns3:hr>79</ns3:hr>
            <ns3:cad>48</ns3:cad>
          </ns3:TrackPointExtension>
        </extensions>
      </trkpt>
      <trkpt lat="43.77559513784945011138916015625" lon="1.57578782178461551666259765625">
        <ele>152.600006103515625</ele>
        <time>2026-08-13T08:50:06.000Z</time>
        <extensions>
          <ns3:TrackPointExtension>
            <ns3:hr>78</ns3:hr>
            <ns3:cad>49</ns3:cad>
          </ns3:TrackPointExtension>
        </extensions>
      </trkpt>
      <trkpt lat="43.77560100518167018890380859375" lon="1.575784385204315185546875">
        <ele>152.600006103515625</ele>
        <time>2026-08-13T08:50:07.000Z</time>
        <extensions>
          <ns3:TrackPointExtension>
            <ns3:hr>77</ns3:hr>
            <ns3:cad>49</ns3:cad>
          </ns3:TrackPointExtension>
        </extensions>
      </trkpt>
      <trkpt lat="43.7756096385419368743896484375" lon="1.5757763385772705078125">
        <ele>152.399993896484375</ele>
        <time>2026-08-13T08:50:08.000Z</time>
        <extensions>
          <ns3:TrackPointExtension>
            <ns3:hr>77</ns3:hr>
            <ns3:cad>49</ns3:cad>
          </ns3:TrackPointExtension>
        </extensions>
      </trkpt>
      <trkpt lat="43.77561860717833042144775390625" lon="1.5757691301405429840087890625">
        <ele>152.399993896484375</ele>
        <time>2026-08-13T08:50:09.000Z</time>
        <extensions>
          <ns3:TrackPointExtension>
            <ns3:hr>77</ns3:hr>
            <ns3:cad>48</ns3:cad>
          </ns3:TrackPointExtension>
        </extensions>
      </trkpt>
      <trkpt lat="43.77562455832958221435546875" lon="1.5757600776851177215576171875">
        <ele>152.1999969482421875</ele>
        <time>2026-08-13T08:50:10.000Z</time>
        <extensions>
          <ns3:TrackPointExtension>
            <ns3:hr>77</ns3:hr>
            <ns3:cad>48</ns3:cad>
          </ns3:TrackPointExtension>
        </extensions>
      </trkpt>
      <trkpt lat="43.77563268877565860748291015625" lon="1.575751192867755889892578125">
        <ele>152</ele>
        <time>2026-08-13T08:50:11.000Z</time>
        <extensions>
          <ns3:TrackPointExtension>
            <ns3:hr>77</ns3:hr>
            <ns3:cad>49</ns3:cad>
          </ns3:TrackPointExtension>
        </extensions>
      </trkpt>
      <trkpt lat="43.77563402988016605377197265625" lon="1.57574088312685489654541015625">
        <ele>152</ele>
        <time>2026-08-13T08:50:12.000Z</time>
        <extensions>
          <ns3:TrackPointExtension>
            <ns3:hr>77</ns3:hr>
            <ns3:cad>49</ns3:cad>
          </ns3:TrackPointExtension>
        </extensions>
      </trkpt>
      <trkpt lat="43.7756418250501155853271484375" lon="1.575730405747890472412109375">
        <ele>151.8000030517578125</ele>
        <time>2026-08-13T08:50:13.000Z</time>
        <extensions>
          <ns3:TrackPointExtension>
            <ns3:hr>77</ns3:hr>
            <ns3:cad>49</ns3:cad>
          </ns3:TrackPointExtension>
        </extensions>
      </trkpt>
      <trkpt lat="43.7756507098674774169921875" lon="1.57572227530181407928466796875">
        <ele>151.8000030517578125</ele>
        <time>2026-08-13T08:50:14.000Z</time>
        <extensions>
          <ns3:TrackPointExtension>
            <ns3:hr>77</ns3:hr>
            <ns3:cad>49</ns3:cad>
          </ns3:TrackPointExtension>
        </extensions>
      </trkpt>
      <trkpt lat="43.7756612710654735565185546875" lon="1.57571003772318363189697265625">
        <ele>151.600006103515625</ele>
        <time>2026-08-13T08:50:15.000Z</time>
        <extensions>
          <ns3:TrackPointExtension>
            <ns3:hr>77</ns3:hr>
            <ns3:cad>49</ns3:cad>
          </ns3:TrackPointExtension>
        </extensions>
      </trkpt>
      <trkpt lat="43.77567308954894542694091796875" lon="1.575704254209995269775390625">
        <ele>151.600006103515625</ele>
        <time>2026-08-13T08:50:16.000Z</time>
        <extensions>
          <ns3:TrackPointExtension>
            <ns3:hr>77</ns3:hr>
            <ns3:cad>49</ns3:cad>
          </ns3:TrackPointExtension>
        </extensions>
      </trkpt>
      <trkpt lat="43.775679878890514373779296875" lon="1.57569595612585544586181640625">
        <ele>151.399993896484375</ele>
        <time>2026-08-13T08:50:17.000Z</time>
        <extensions>
          <ns3:TrackPointExtension>
            <ns3:hr>77</ns3:hr>
            <ns3:cad>48</ns3:cad>
          </ns3:TrackPointExtension>
        </extensions>
      </trkpt>
      <trkpt lat="43.77568650059401988983154296875" lon="1.575689502060413360595703125">
        <ele>151.1999969482421875</ele>
        <time>2026-08-13T08:50:18.000Z</time>
        <extensions>
          <ns3:TrackPointExtension>
            <ns3:hr>77</ns3:hr>
            <ns3:cad>48</ns3:cad>
          </ns3:TrackPointExtension>
        </extensions>
      </trkpt>
      <trkpt lat="43.77569572068750858306884765625" lon="1.57568220980465412139892578125">
        <ele>151</ele>
        <time>2026-08-13T08:50:19.000Z</time>
        <extensions>
          <ns3:TrackPointExtension>
            <ns3:hr>76</ns3:hr>
            <ns3:cad>50</ns3:cad>
          </ns3:TrackPointExtension>
        </extensions>
      </trkpt>
      <trkpt lat="43.77569966018199920654296875" lon="1.57567198388278484344482421875">
        <ele>151</ele>
        <time>2026-08-13T08:50:20.000Z</time>
        <extensions>
          <ns3:TrackPointExtension>
            <ns3:hr>77</ns3:hr>
            <ns3:cad>50</ns3:cad>
          </ns3:TrackPointExtension>
        </extensions>
      </trkpt>
      <trkpt lat="43.77571131102740764617919921875" lon="1.5756588242948055267333984375">
        <ele>150.8000030517578125</ele>
        <time>2026-08-13T08:50:21.000Z</time>
        <extensions>
          <ns3:TrackPointExtension>
            <ns3:hr>77</ns3:hr>
            <ns3:cad>50</ns3:cad>
          </ns3:TrackPointExtension>
        </extensions>
      </trkpt>
      <trkpt lat="43.7757179327309131622314453125" lon="1.575651951134204864501953125">
        <ele>150.600006103515625</ele>
        <time>2026-08-13T08:50:22.000Z</time>
        <extensions>
          <ns3:TrackPointExtension>
            <ns3:hr>76</ns3:hr>
            <ns3:cad>50</ns3:cad>
          </ns3:TrackPointExtension>
        </extensions>
      </trkpt>
      <trkpt lat="43.77572891302406787872314453125" lon="1.57564650289714336395263671875">
        <ele>150.600006103515625</ele>
        <time>2026-08-13T08:50:23.000Z</time>
        <extensions>
          <ns3:TrackPointExtension>
            <ns3:hr>76</ns3:hr>
            <ns3:cad>50</ns3:cad>
          </ns3:TrackPointExtension>
        </extensions>
      </trkpt>
      <trkpt lat="43.775736205279827117919921875" lon="1.57564281485974788665771484375">
        <ele>150.399993896484375</ele>
        <time>2026-08-13T08:50:24.000Z</time>
        <extensions>
          <ns3:TrackPointExtension>
            <ns3:hr>76</ns3:hr>
            <ns3:cad>51</ns3:cad>
          </ns3:TrackPointExtension>
        </extensions>
      </trkpt>
      <trkpt lat="43.77574148587882518768310546875" lon="1.575639210641384124755859375">
        <ele>150.1999969482421875</ele>
        <time>2026-08-13T08:50:25.000Z</time>
        <extensions>
          <ns3:TrackPointExtension>
            <ns3:hr>76</ns3:hr>
            <ns3:cad>51</ns3:cad>
          </ns3:TrackPointExtension>
        </extensions>
      </trkpt>
      <trkpt lat="43.775748945772647857666015625" lon="1.57562789507210254669189453125">
        <ele>150</ele>
        <time>2026-08-13T08:50:26.000Z</time>
        <extensions>
          <ns3:TrackPointExtension>
            <ns3:hr>76</ns3:hr>
            <ns3:cad>50</ns3:cad>
          </ns3:TrackPointExtension>
        </extensions>
      </trkpt>
      <trkpt lat="43.775756992399692535400390625" lon="1.575617752969264984130859375">
        <ele>150</ele>
        <time>2026-08-13T08:50:27.000Z</time>
        <extensions>
          <ns3:TrackPointExtension>
            <ns3:hr>76</ns3:hr>
            <ns3:cad>50</ns3:cad>
          </ns3:TrackPointExtension>
        </extensions>
      </trkpt>
      <trkpt lat="43.7757655419409275054931640625" lon="1.5756102092564105987548828125">
        <ele>149.8000030517578125</ele>
        <time>2026-08-13T08:50:28.000Z</time>
        <extensions>
          <ns3:TrackPointExtension>
            <ns3:hr>76</ns3:hr>
            <ns3:cad>49</ns3:cad>
          </ns3:TrackPointExtension>
        </extensions>
      </trkpt>
      <trkpt lat="43.77577384002506732940673828125" lon="1.575604341924190521240234375">
        <ele>149.8000030517578125</ele>
        <time>2026-08-13T08:50:29.000Z</time>
        <extensions>
          <ns3:TrackPointExtension>
            <ns3:hr>75</ns3:hr>
            <ns3:cad>49</ns3:cad>
          </ns3:TrackPointExtension>
        </extensions>
      </trkpt>
      <trkpt lat="43.7757794559001922607421875" lon="1.57559772022068500518798828125">
        <ele>149.600006103515625</ele>
        <time>2026-08-13T08:50:30.000Z</time>
        <extensions>
          <ns3:TrackPointExtension>
            <ns3:hr>75</ns3:hr>
            <ns3:cad>50</ns3:cad>
          </ns3:TrackPointExtension>
        </extensions>
      </trkpt>
      <trkpt lat="43.7757859937846660614013671875" lon="1.57558833248913288116455078125">
        <ele>149.399993896484375</ele>
        <time>2026-08-13T08:50:31.000Z</time>
        <extensions>
          <ns3:TrackPointExtension>
            <ns3:hr>75</ns3:hr>
            <ns3:cad>50</ns3:cad>
          </ns3:TrackPointExtension>
        </extensions>
      </trkpt>
      <trkpt lat="43.7757970578968524932861328125" lon="1.57557584345340728759765625">
        <ele>149.399993896484375</ele>
        <time>2026-08-13T08:50:32.000Z</time>
        <extensions>
          <ns3:TrackPointExtension>
            <ns3:hr>75</ns3:hr>
            <ns3:cad>50</ns3:cad>
          </ns3:TrackPointExtension>
        </extensions>
      </trkpt>
      <trkpt lat="43.77581004984676837921142578125" lon="1.5755679644644260406494140625">
        <ele>149.1999969482421875</ele>
        <time>2026-08-13T08:50:33.000Z</time>
        <extensions>
          <ns3:TrackPointExtension>
            <ns3:hr>75</ns3:hr>
            <ns3:cad>49</ns3:cad>
          </ns3:TrackPointExtension>
        </extensions>
      </trkpt>
      <trkpt lat="43.77582010813057422637939453125" lon="1.5755595825612545013427734375">
        <ele>149</ele>
        <time>2026-08-13T08:50:34.000Z</time>
        <extensions>
          <ns3:TrackPointExtension>
            <ns3:hr>75</ns3:hr>
            <ns3:cad>49</ns3:cad>
          </ns3:TrackPointExtension>
        </extensions>
      </trkpt>
      <trkpt lat="43.7758292444050312042236328125" lon="1.5755572356283664703369140625">
        <ele>148.8000030517578125</ele>
        <time>2026-08-13T08:50:35.000Z</time>
        <extensions>
          <ns3:TrackPointExtension>
            <ns3:hr>75</ns3:hr>
            <ns3:cad>50</ns3:cad>
          </ns3:TrackPointExtension>
        </extensions>
      </trkpt>
      <trkpt lat="43.77583201043307781219482421875" lon="1.57555706799030303955078125">
        <ele>148.8000030517578125</ele>
        <time>2026-08-13T08:50:36.000Z</time>
        <extensions>
          <ns3:TrackPointExtension>
            <ns3:hr>75</ns3:hr>
            <ns3:cad>50</ns3:cad>
          </ns3:TrackPointExtension>
        </extensions>
      </trkpt>
      <trkpt lat="43.77583972178399562835693359375" lon="1.5755495242774486541748046875">
        <ele>148.8000030517578125</ele>
        <time>2026-08-13T08:50:37.000Z</time>
        <extensions>
          <ns3:TrackPointExtension>
            <ns3:hr>75</ns3:hr>
            <ns3:cad>51</ns3:cad>
          </ns3:TrackPointExtension>
        </extensions>
      </trkpt>
      <trkpt lat="43.77585162408649921417236328125" lon="1.57553954981267452239990234375">
        <ele>148.8000030517578125</ele>
        <time>2026-08-13T08:50:38.000Z</time>
        <extensions>
          <ns3:TrackPointExtension>
            <ns3:hr>75</ns3:hr>
            <ns3:cad>51</ns3:cad>
          </ns3:TrackPointExtension>
        </extensions>
      </trkpt>
      <trkpt lat="43.7758599221706390380859375" lon="1.575535275042057037353515625">
        <ele>148.8000030517578125</ele>
        <time>2026-08-13T08:50:39.000Z</time>
        <extensions>
          <ns3:TrackPointExtension>
            <ns3:hr>75</ns3:hr>
            <ns3:cad>50</ns3:cad>
          </ns3:TrackPointExtension>
        </extensions>
      </trkpt>
      <trkpt lat="43.77586570568382740020751953125" lon="1.575529910624027252197265625">
        <ele>148.8000030517578125</ele>
        <time>2026-08-13T08:50:40.000Z</time>
        <extensions>
          <ns3:TrackPointExtension>
            <ns3:hr>76</ns3:hr>
            <ns3:cad>50</ns3:cad>
          </ns3:TrackPointExtension>
        </extensions>
      </trkpt>
      <trkpt lat="43.7758719921112060546875" lon="1.575519181787967681884765625">
        <ele>148.8000030517578125</ele>
        <time>2026-08-13T08:50:41.000Z</time>
        <extensions>
          <ns3:TrackPointExtension>
            <ns3:hr>76</ns3:hr>
            <ns3:cad>50</ns3:cad>
          </ns3:TrackPointExtension>
        </extensions>
      </trkpt>
      <trkpt lat="43.77587844617664813995361328125" lon="1.5755109675228595733642578125">
        <ele>148.8000030517578125</ele>
        <time>2026-08-13T08:50:42.000Z</time>
        <extensions>
          <ns3:TrackPointExtension>
            <ns3:hr>76</ns3:hr>
            <ns3:cad>48</ns3:cad>
          </ns3:TrackPointExtension>
        </extensions>
      </trkpt>
      <trkpt lat="43.775877691805362701416015625" lon="1.5755116380751132965087890625">
        <ele>148.8000030517578125</ele>
        <time>2026-08-13T08:50:43.000Z</time>
        <extensions>
          <ns3:TrackPointExtension>
            <ns3:hr>76</ns3:hr>
            <ns3:cad>48</ns3:cad>
          </ns3:TrackPointExtension>
        </extensions>
      </trkpt>
      <trkpt lat="43.77587861381471157073974609375" lon="1.57550518400967121124267578125">
        <ele>148.600006103515625</ele>
        <time>2026-08-13T08:50:44.000Z</time>
        <extensions>
          <ns3:TrackPointExtension>
            <ns3:hr>76</ns3:hr>
            <ns3:cad>46</ns3:cad>
          </ns3:TrackPointExtension>
        </extensions>
      </trkpt>
      <trkpt lat="43.7758785299956798553466796875" lon="1.57550183124840259552001953125">
        <ele>148.600006103515625</ele>
        <time>2026-08-13T08:50:45.000Z</time>
        <extensions>
          <ns3:TrackPointExtension>
            <ns3:hr>77</ns3:hr>
            <ns3:cad>0</ns3:cad>
          </ns3:TrackPointExtension>
        </extensions>
      </trkpt>
      <trkpt lat="43.77587894909083843231201171875" lon="1.575503088533878326416015625">
        <ele>148.600006103515625</ele>
        <time>2026-08-13T08:50:46.000Z</time>
        <extensions>
          <ns3:TrackPointExtension>
            <ns3:hr>76</ns3:hr>
            <ns3:cad>0</ns3:cad>
          </ns3:TrackPointExtension>
        </extensions>
      </trkpt>
      <trkpt lat="43.77588129602372646331787109375" lon="1.57550266943871974945068359375">
        <ele>148.600006103515625</ele>
        <time>2026-08-13T08:50:47.000Z</time>
        <extensions>
          <ns3:TrackPointExtension>
            <ns3:hr>76</ns3:hr>
            <ns3:cad>0</ns3:cad>
          </ns3:TrackPointExtension>
        </extensions>
      </trkpt>
      <trkpt lat="43.77588498406112194061279296875" lon="1.575498394668102264404296875">
        <ele>148.600006103515625</ele>
        <time>2026-08-13T08:50:48.000Z</time>
        <extensions>
          <ns3:TrackPointExtension>
            <ns3:hr>77</ns3:hr>
            <ns3:cad>0</ns3:cad>
          </ns3:TrackPointExtension>
        </extensions>
      </trkpt>
      <trkpt lat="43.77588481642305850982666015625" lon="1.57549680210649967193603515625">
        <ele>148.600006103515625</ele>
        <time>2026-08-13T08:50:49.000Z</time>
        <extensions>
          <ns3:TrackPointExtension>
            <ns3:hr>76</ns3:hr>
            <ns3:cad>0</ns3:cad>
          </ns3:TrackPointExtension>
        </extensions>
      </trkpt>
      <trkpt lat="43.77588498406112194061279296875" lon="1.57549562864005565643310546875">
        <ele>148.8000030517578125</ele>
        <time>2026-08-13T08:50:50.000Z</time>
        <extensions>
          <ns3:TrackPointExtension>
            <ns3:hr>76</ns3:hr>
            <ns3:cad>0</ns3:cad>
          </ns3:TrackPointExtension>
        </extensions>
      </trkpt>
      <trkpt lat="43.77588473260402679443359375" lon="1.57549613155424594879150390625">
        <ele>148.8000030517578125</ele>
        <time>2026-08-13T08:50:51.000Z</time>
        <extensions>
          <ns3:TrackPointExtension>
            <ns3:hr>76</ns3:hr>
            <ns3:cad>0</ns3:cad>
          </ns3:TrackPointExtension>
        </extensions>
      </trkpt>
      <trkpt lat="43.7758828885853290557861328125" lon="1.57549462281167507171630859375">
        <ele>148.8000030517578125</ele>
        <time>2026-08-13T08:50:52.000Z</time>
        <extensions>
          <ns3:TrackPointExtension>
            <ns3:hr>75</ns3:hr>
            <ns3:cad>0</ns3:cad>
          </ns3:TrackPointExtension>
        </extensions>
      </trkpt>
      <trkpt lat="43.77588179893791675567626953125" lon="1.57549227587878704071044921875">
        <ele>148.8000030517578125</ele>
        <time>2026-08-13T08:50:53.000Z</time>
        <extensions>
          <ns3:TrackPointExtension>
            <ns3:hr>74</ns3:hr>
            <ns3:cad>0</ns3:cad>
          </ns3:TrackPointExtension>
        </extensions>
      </trkpt>
      <trkpt lat="43.77588347531855106353759765625" lon="1.57549026422202587127685546875">
        <ele>148.8000030517578125</ele>
        <time>2026-08-13T08:50:54.000Z</time>
        <extensions>
          <ns3:TrackPointExtension>
            <ns3:hr>74</ns3:hr>
            <ns3:cad>0</ns3:cad>
          </ns3:TrackPointExtension>
        </extensions>
      </trkpt>
      <trkpt lat="43.77588733099400997161865234375" lon="1.57548842020332813262939453125">
        <ele>148.8000030517578125</ele>
        <time>2026-08-13T08:50:55.000Z</time>
        <extensions>
          <ns3:TrackPointExtension>
            <ns3:hr>74</ns3:hr>
            <ns3:cad>0</ns3:cad>
          </ns3:TrackPointExtension>
        </extensions>
      </trkpt>
      <trkpt lat="43.7758912704885005950927734375" lon="1.5754854865372180938720703125">
        <ele>148.600006103515625</ele>
        <time>2026-08-13T08:50:56.000Z</time>
        <extensions>
          <ns3:TrackPointExtension>
            <ns3:hr>74</ns3:hr>
            <ns3:cad>0</ns3:cad>
          </ns3:TrackPointExtension>
        </extensions>
      </trkpt>
      <trkpt lat="43.77589336596429347991943359375" lon="1.57548925839364528656005859375">
        <ele>148.600006103515625</ele>
        <time>2026-08-13T08:50:57.000Z</time>
        <extensions>
          <ns3:TrackPointExtension>
            <ns3:hr>74</ns3:hr>
            <ns3:cad>0</ns3:cad>
          </ns3:TrackPointExtension>
        </extensions>
      </trkpt>
      <trkpt lat="43.7758934497833251953125" lon="1.57549177296459674835205078125">
        <ele>148.600006103515625</ele>
        <time>2026-08-13T08:50:58.000Z</time>
        <extensions>
          <ns3:TrackPointExtension>
            <ns3:hr>74</ns3:hr>
            <ns3:cad>0</ns3:cad>
          </ns3:TrackPointExtension>
        </extensions>
      </trkpt>
      <trkpt lat="43.7758947908878326416015625" lon="1.57549546100199222564697265625">
        <ele>148.8000030517578125</ele>
        <time>2026-08-13T08:50:59.000Z</time>
        <extensions>
          <ns3:TrackPointExtension>
            <ns3:hr>74</ns3:hr>
            <ns3:cad>0</ns3:cad>
          </ns3:TrackPointExtension>
        </extensions>
      </trkpt>
      <trkpt lat="43.7758936174213886260986328125" lon="1.5754987299442291259765625">
        <ele>148.8000030517578125</ele>
        <time>2026-08-13T08:51:00.000Z</time>
        <extensions>
          <ns3:TrackPointExtension>
            <ns3:hr>75</ns3:hr>
            <ns3:cad>0</ns3:cad>
          </ns3:TrackPointExtension>
        </extensions>
      </trkpt>
      <trkpt lat="43.77589168958365917205810546875" lon="1.5755012445151805877685546875">
        <ele>148.8000030517578125</ele>
        <time>2026-08-13T08:51:01.000Z</time>
        <extensions>
          <ns3:TrackPointExtension>
            <ns3:hr>74</ns3:hr>
            <ns3:cad>0</ns3:cad>
          </ns3:TrackPointExtension>
        </extensions>
      </trkpt>
      <trkpt lat="43.77589269541203975677490234375" lon="1.57550074160099029541015625">
        <ele>148.8000030517578125</ele>
        <time>2026-08-13T08:51:02.000Z</time>
        <extensions>
          <ns3:TrackPointExtension>
            <ns3:hr>74</ns3:hr>
            <ns3:cad>0</ns3:cad>
          </ns3:TrackPointExtension>
        </extensions>
      </trkpt>
      <trkpt lat="43.77589269541203975677490234375" lon="1.57550074160099029541015625">
        <ele>148.8000030517578125</ele>
        <time>2026-08-13T08:51:03.000Z</time>
        <extensions>
          <ns3:TrackPointExtension>
            <ns3:hr>74</ns3:hr>
            <ns3:cad>0</ns3:cad>
          </ns3:TrackPointExtension>
        </extensions>
      </trkpt>
      <trkpt lat="43.77589277923107147216796875" lon="1.575500071048736572265625">
        <ele>148.8000030517578125</ele>
        <time>2026-08-13T08:51:04.000Z</time>
        <extensions>
          <ns3:TrackPointExtension>
            <ns3:hr>75</ns3:hr>
            <ns3:cad>0</ns3:cad>
          </ns3:TrackPointExtension>
        </extensions>
      </trkpt>
      <trkpt lat="43.77589940093457698822021484375" lon="1.57549194060266017913818359375">
        <ele>148.8000030517578125</ele>
        <time>2026-08-13T08:51:05.000Z</time>
        <extensions>
          <ns3:TrackPointExtension>
            <ns3:hr>74</ns3:hr>
            <ns3:cad>0</ns3:cad>
          </ns3:TrackPointExtension>
        </extensions>
      </trkpt>
      <trkpt lat="43.7758979760110378265380859375" lon="1.57549671828746795654296875">
        <ele>149</ele>
        <time>2026-08-13T08:51:06.000Z</time>
        <extensions>
          <ns3:TrackPointExtension>
            <ns3:hr>74</ns3:hr>
            <ns3:cad>0</ns3:cad>
          </ns3:TrackPointExtension>
        </extensions>
      </trkpt>
      <trkpt lat="43.77590543590486049652099609375" lon="1.57549227587878704071044921875">
        <ele>149</ele>
        <time>2026-08-13T08:51:07.000Z</time>
        <extensions>
          <ns3:TrackPointExtension>
            <ns3:hr>74</ns3:hr>
            <ns3:cad>0</ns3:cad>
          </ns3:TrackPointExtension>
        </extensions>
      </trkpt>
      <trkpt lat="43.77591214142739772796630859375" lon="1.57548691146075725555419921875">
        <ele>149</ele>
        <time>2026-08-13T08:51:08.000Z</time>
        <extensions>
          <ns3:TrackPointExtension>
            <ns3:hr>73</ns3:hr>
            <ns3:cad>0</ns3:cad>
          </ns3:TrackPointExtension>
        </extensions>
      </trkpt>
      <trkpt lat="43.77591901458799839019775390625" lon="1.57548557035624980926513671875">
        <ele>149</ele>
        <time>2026-08-13T08:51:09.000Z</time>
        <extensions>
          <ns3:TrackPointExtension>
            <ns3:hr>73</ns3:hr>
            <ns3:cad>0</ns3:cad>
          </ns3:TrackPointExtension>
        </extensions>
      </trkpt>
      <trkpt lat="43.77592563629150390625" lon="1.5754744224250316619873046875">
        <ele>149</ele>
        <time>2026-08-13T08:51:10.000Z</time>
        <extensions>
          <ns3:TrackPointExtension>
            <ns3:hr>73</ns3:hr>
            <ns3:cad>0</ns3:cad>
          </ns3:TrackPointExtension>
        </extensions>
      </trkpt>
      <trkpt lat="43.77593209035694599151611328125" lon="1.57546092756092548370361328125">
        <ele>148.8000030517578125</ele>
        <time>2026-08-13T08:51:11.000Z</time>
        <extensions>
          <ns3:TrackPointExtension>
            <ns3:hr>72</ns3:hr>
            <ns3:cad>0</ns3:cad>
          </ns3:TrackPointExtension>
        </extensions>
      </trkpt>
      <trkpt lat="43.7759361974895000457763671875" lon="1.57545153982937335968017578125">
        <ele>148.8000030517578125</ele>
        <time>2026-08-13T08:51:12.000Z</time>
        <extensions>
          <ns3:TrackPointExtension>
            <ns3:hr>72</ns3:hr>
            <ns3:cad>0</ns3:cad>
          </ns3:TrackPointExtension>
        </extensions>
      </trkpt>
      <trkpt lat="43.7759398855268955230712890625" lon="1.57544282265007495880126953125">
        <ele>148.8000030517578125</ele>
        <time>2026-08-13T08:51:13.000Z</time>
        <extensions>
          <ns3:TrackPointExtension>
            <ns3:hr>71</ns3:hr>
            <ns3:cad>45</ns3:cad>
          </ns3:TrackPointExtension>
        </extensions>
      </trkpt>
      <trkpt lat="43.7759341858327388763427734375" lon="1.5754221193492412567138671875">
        <ele>148.8000030517578125</ele>
        <time>2026-08-13T08:51:14.000Z</time>
        <extensions>
          <ns3:TrackPointExtension>
            <ns3:hr>70</ns3:hr>
            <ns3:cad>45</ns3:cad>
          </ns3:TrackPointExtension>
        </extensions>
      </trkpt>
      <trkpt lat="43.77592873759567737579345703125" lon="1.5754036791622638702392578125">
        <ele>149</ele>
        <time>2026-08-13T08:51:15.000Z</time>
        <extensions>
          <ns3:TrackPointExtension>
            <ns3:hr>70</ns3:hr>
            <ns3:cad>0</ns3:cad>
          </ns3:TrackPointExtension>
        </extensions>
      </trkpt>
      <trkpt lat="43.7759204395115375518798828125" lon="1.57538632862269878387451171875">
        <ele>149</ele>
        <time>2026-08-13T08:51:16.000Z</time>
        <extensions>
          <ns3:TrackPointExtension>
            <ns3:hr>70</ns3:hr>
            <ns3:cad>0</ns3:cad>
          </ns3:TrackPointExtension>
        </extensions>
      </trkpt>
      <trkpt lat="43.77591666765511035919189453125" lon="1.57537258230149745941162109375">
        <ele>149</ele>
        <time>2026-08-13T08:51:17.000Z</time>
        <extensions>
          <ns3:TrackPointExtension>
            <ns3:hr>70</ns3:hr>
            <ns3:cad>0</ns3:cad>
          </ns3:TrackPointExtension>
        </extensions>
      </trkpt>
      <trkpt lat="43.77591197378933429718017578125" lon="1.57535833306610584259033203125">
        <ele>149</ele>
        <time>2026-08-13T08:51:18.000Z</time>
        <extensions>
          <ns3:TrackPointExtension>
            <ns3:hr>69</ns3:hr>
            <ns3:cad>46</ns3:cad>
          </ns3:TrackPointExtension>
        </extensions>
      </trkpt>
      <trkpt lat="43.775909207761287689208984375" lon="1.5753485262393951416015625">
        <ele>149</ele>
        <time>2026-08-13T08:51:19.000Z</time>
        <extensions>
          <ns3:TrackPointExtension>
            <ns3:hr>70</ns3:hr>
            <ns3:cad>46</ns3:cad>
          </ns3:TrackPointExtension>
        </extensions>
      </trkpt>
      <trkpt lat="43.7759063579142093658447265625" lon="1.57533637247979640960693359375">
        <ele>149</ele>
        <time>2026-08-13T08:51:20.000Z</time>
        <extensions>
          <ns3:TrackPointExtension>
            <ns3:hr>70</ns3:hr>
            <ns3:cad>46</ns3:cad>
          </ns3:TrackPointExtension>
        </extensions>
      </trkpt>
      <trkpt lat="43.77590526826679706573486328125" lon="1.57531659118831157684326171875">
        <ele>149</ele>
        <time>2026-08-13T08:51:21.000Z</time>
        <extensions>
          <ns3:TrackPointExtension>
            <ns3:hr>71</ns3:hr>
            <ns3:cad>46</ns3:cad>
          </ns3:TrackPointExtension>
        </extensions>
      </trkpt>
      <trkpt lat="43.7759003229439258575439453125" lon="1.575300581753253936767578125">
        <ele>149</ele>
        <time>2026-08-13T08:51:22.000Z</time>
        <extensions>
          <ns3:TrackPointExtension>
            <ns3:hr>71</ns3:hr>
            <ns3:cad>51</ns3:cad>
          </ns3:TrackPointExtension>
        </extensions>
      </trkpt>
      <trkpt lat="43.77589655108749866485595703125" lon="1.5752814710140228271484375">
        <ele>149</ele>
        <time>2026-08-13T08:51:23.000Z</time>
        <extensions>
          <ns3:TrackPointExtension>
            <ns3:hr>71</ns3:hr>
            <ns3:cad>51</ns3:cad>
          </ns3:TrackPointExtension>
        </extensions>
      </trkpt>
      <trkpt lat="43.7758932821452617645263671875" lon="1.57526780851185321807861328125">
        <ele>148.8000030517578125</ele>
        <time>2026-08-13T08:51:24.000Z</time>
        <extensions>
          <ns3:TrackPointExtension>
            <ns3:hr>71</ns3:hr>
            <ns3:cad>0</ns3:cad>
          </ns3:TrackPointExtension>
        </extensions>
      </trkpt>
      <trkpt lat="43.7758909352123737335205078125" lon="1.57525389455258846282958984375">
        <ele>149</ele>
        <time>2026-08-13T08:51:25.000Z</time>
        <extensions>
          <ns3:TrackPointExtension>
            <ns3:hr>71</ns3:hr>
            <ns3:cad>0</ns3:cad>
          </ns3:TrackPointExtension>
        </extensions>
      </trkpt>
      <trkpt lat="43.77589001320302486419677734375" lon="1.57524232752621173858642578125">
        <ele>149</ele>
        <time>2026-08-13T08:51:26.000Z</time>
        <extensions>
          <ns3:TrackPointExtension>
            <ns3:hr>71</ns3:hr>
            <ns3:cad>52</ns3:cad>
          </ns3:TrackPointExtension>
        </extensions>
      </trkpt>
      <trkpt lat="43.7758875824511051177978515625" lon="1.57522656954824924468994140625">
        <ele>149</ele>
        <time>2026-08-13T08:51:27.000Z</time>
        <extensions>
          <ns3:TrackPointExtension>
            <ns3:hr>71</ns3:hr>
            <ns3:cad>52</ns3:cad>
          </ns3:TrackPointExtension>
        </extensions>
      </trkpt>
      <trkpt lat="43.7758869118988513946533203125" lon="1.57521307468414306640625">
        <ele>149.1999969482421875</ele>
        <time>2026-08-13T08:51:28.000Z</time>
        <extensions>
          <ns3:TrackPointExtension>
            <ns3:hr>72</ns3:hr>
            <ns3:cad>50</ns3:cad>
          </ns3:TrackPointExtension>
        </extensions>
      </trkpt>
      <trkpt lat="43.77588800154626369476318359375" lon="1.575202010571956634521484375">
        <ele>149.1999969482421875</ele>
        <time>2026-08-13T08:51:29.000Z</time>
        <extensions>
          <ns3:TrackPointExtension>
            <ns3:hr>73</ns3:hr>
            <ns3:cad>50</ns3:cad>
          </ns3:TrackPointExtension>
        </extensions>
      </trkpt>
      <trkpt lat="43.77589068375527858734130859375" lon="1.5751875936985015869140625">
        <ele>149.399993896484375</ele>
        <time>2026-08-13T08:51:30.000Z</time>
        <extensions>
          <ns3:TrackPointExtension>
            <ns3:hr>73</ns3:hr>
            <ns3:cad>50</ns3:cad>
          </ns3:TrackPointExtension>
        </extensions>
      </trkpt>
      <trkpt lat="43.7758929468691349029541015625" lon="1.5751766972243785858154296875">
        <ele>149.399993896484375</ele>
        <time>2026-08-13T08:51:31.000Z</time>
        <extensions>
          <ns3:TrackPointExtension>
            <ns3:hr>74</ns3:hr>
            <ns3:cad>49</ns3:cad>
          </ns3:TrackPointExtension>
        </extensions>
      </trkpt>
      <trkpt lat="43.77589554525911808013916015625" lon="1.57516471110284328460693359375">
        <ele>149.399993896484375</ele>
        <time>2026-08-13T08:51:32.000Z</time>
        <extensions>
          <ns3:TrackPointExtension>
            <ns3:hr>75</ns3:hr>
            <ns3:cad>47</ns3:cad>
          </ns3:TrackPointExtension>
        </extensions>
      </trkpt>
      <trkpt lat="43.77589940093457698822021484375" lon="1.57515448518097400665283203125">
        <ele>149.399993896484375</ele>
        <time>2026-08-13T08:51:33.000Z</time>
        <extensions>
          <ns3:TrackPointExtension>
            <ns3:hr>75</ns3:hr>
            <ns3:cad>47</ns3:cad>
          </ns3:TrackPointExtension>
        </extensions>
      </trkpt>
      <trkpt lat="43.77590040676295757293701171875" lon="1.575143672525882720947265625">
        <ele>149.600006103515625</ele>
        <time>2026-08-13T08:51:34.000Z</time>
        <extensions>
          <ns3:TrackPointExtension>
            <ns3:hr>76</ns3:hr>
            <ns3:cad>47</ns3:cad>
          </ns3:TrackPointExtension>
        </extensions>
      </trkpt>
      <trkpt lat="43.7759009934961795806884765625" lon="1.57512330450117588043212890625">
        <ele>149.8000030517578125</ele>
        <time>2026-08-13T08:51:35.000Z</time>
        <extensions>
          <ns3:TrackPointExtension>
            <ns3:hr>78</ns3:hr>
            <ns3:cad>47</ns3:cad>
          </ns3:TrackPointExtension>
        </extensions>
      </trkpt>
      <trkpt lat="43.77590174786746501922607421875" lon="1.575107462704181671142578125">
        <ele>149.8000030517578125</ele>
        <time>2026-08-13T08:51:36.000Z</time>
        <extensions>
          <ns3:TrackPointExtension>
            <ns3:hr>81</ns3:hr>
            <ns3:cad>45</ns3:cad>
          </ns3:TrackPointExtension>
        </extensions>
      </trkpt>
      <trkpt lat="43.77590375952422618865966796875" lon="1.57509648241102695465087890625">
        <ele>149.8000030517578125</ele>
        <time>2026-08-13T08:51:37.000Z</time>
        <extensions>
          <ns3:TrackPointExtension>
            <ns3:hr>82</ns3:hr>
            <ns3:cad>45</ns3:cad>
          </ns3:TrackPointExtension>
        </extensions>
      </trkpt>
      <trkpt lat="43.7759117223322391510009765625" lon="1.57507829368114471435546875">
        <ele>150</ele>
        <time>2026-08-13T08:51:38.000Z</time>
        <extensions>
          <ns3:TrackPointExtension>
            <ns3:hr>83</ns3:hr>
            <ns3:cad>45</ns3:cad>
          </ns3:TrackPointExtension>
        </extensions>
      </trkpt>
      <trkpt lat="43.77591113559901714324951171875" lon="1.5750657208263874053955078125">
        <ele>150</ele>
        <time>2026-08-13T08:51:39.000Z</time>
        <extensions>
          <ns3:TrackPointExtension>
            <ns3:hr>83</ns3:hr>
            <ns3:cad>46</ns3:cad>
          </ns3:TrackPointExtension>
        </extensions>
      </trkpt>
      <trkpt lat="43.7759087048470973968505859375" lon="1.5750561654567718505859375">
        <ele>150.1999969482421875</ele>
        <time>2026-08-13T08:51:40.000Z</time>
        <extensions>
          <ns3:TrackPointExtension>
            <ns3:hr>84</ns3:hr>
            <ns3:cad>46</ns3:cad>
          </ns3:TrackPointExtension>
        </extensions>
      </trkpt>
      <trkpt lat="43.775909878313541412353515625" lon="1.575050465762615203857421875">
        <ele>150.1999969482421875</ele>
        <time>2026-08-13T08:51:41.000Z</time>
        <extensions>
          <ns3:TrackPointExtension>
            <ns3:hr>84</ns3:hr>
            <ns3:cad>46</ns3:cad>
          </ns3:TrackPointExtension>
        </extensions>
      </trkpt>
      <trkpt lat="43.7759103812277317047119140625" lon="1.5750400722026824951171875">
        <ele>150.1999969482421875</ele>
        <time>2026-08-13T08:51:42.000Z</time>
        <extensions>
          <ns3:TrackPointExtension>
            <ns3:hr>85</ns3:hr>
            <ns3:cad>45</ns3:cad>
          </ns3:TrackPointExtension>
        </extensions>
      </trkpt>
      <trkpt lat="43.7759056873619556427001953125" lon="1.57501920126378536224365234375">
        <ele>150.1999969482421875</ele>
        <time>2026-08-13T08:51:43.000Z</time>
        <extensions>
          <ns3:TrackPointExtension>
            <ns3:hr>85</ns3:hr>
            <ns3:cad>45</ns3:cad>
          </ns3:TrackPointExtension>
        </extensions>
      </trkpt>
      <trkpt lat="43.775911889970302581787109375" lon="1.57500897534191608428955078125">
        <ele>150.1999969482421875</ele>
        <time>2026-08-13T08:51:44.000Z</time>
        <extensions>
          <ns3:TrackPointExtension>
            <ns3:hr>85</ns3:hr>
            <ns3:cad>44</ns3:cad>
          </ns3:TrackPointExtension>
        </extensions>
      </trkpt>
      <trkpt lat="43.77591214142739772796630859375" lon="1.57500562258064746856689453125">
        <ele>150.1999969482421875</ele>
        <time>2026-08-13T08:51:45.000Z</time>
        <extensions>
          <ns3:TrackPointExtension>
            <ns3:hr>86</ns3:hr>
            <ns3:cad>44</ns3:cad>
          </ns3:TrackPointExtension>
        </extensions>
      </trkpt>
      <trkpt lat="43.7759097106754779815673828125" lon="1.5749917924404144287109375">
        <ele>150.1999969482421875</ele>
        <time>2026-08-13T08:51:46.000Z</time>
        <extensions>
          <ns3:TrackPointExtension>
            <ns3:hr>86</ns3:hr>
            <ns3:cad>44</ns3:cad>
          </ns3:TrackPointExtension>
        </extensions>
      </trkpt>
      <trkpt lat="43.775909207761287689208984375" lon="1.5749795548617839813232421875">
        <ele>150.1999969482421875</ele>
        <time>2026-08-13T08:51:47.000Z</time>
        <extensions>
          <ns3:TrackPointExtension>
            <ns3:hr>86</ns3:hr>
            <ns3:cad>44</ns3:cad>
          </ns3:TrackPointExtension>
        </extensions>
      </trkpt>
      <trkpt lat="43.775902502238750457763671875" lon="1.57497310079634189605712890625">
        <ele>150.1999969482421875</ele>
        <time>2026-08-13T08:51:48.000Z</time>
        <extensions>
          <ns3:TrackPointExtension>
            <ns3:hr>87</ns3:hr>
            <ns3:cad>44</ns3:cad>
          </ns3:TrackPointExtension>
        </extensions>
      </trkpt>
      <trkpt lat="43.7758926115930080413818359375" lon="1.574951224029064178466796875">
        <ele>150.399993896484375</ele>
        <time>2026-08-13T08:51:49.000Z</time>
        <extensions>
          <ns3:TrackPointExtension>
            <ns3:hr>87</ns3:hr>
            <ns3:cad>44</ns3:cad>
          </ns3:TrackPointExtension>
        </extensions>
      </trkpt>
      <trkpt lat="43.7758916057646274566650390625" lon="1.5749394893646240234375">
        <ele>150.399993896484375</ele>
        <time>2026-08-13T08:51:50.000Z</time>
        <extensions>
          <ns3:TrackPointExtension>
            <ns3:hr>87</ns3:hr>
            <ns3:cad>44</ns3:cad>
          </ns3:TrackPointExtension>
        </extensions>
      </trkpt>
      <trkpt lat="43.7758912704885005950927734375" lon="1.57493253238499164581298828125">
        <ele>150.1999969482421875</ele>
        <time>2026-08-13T08:51:51.000Z</time>
        <extensions>
          <ns3:TrackPointExtension>
            <ns3:hr>87</ns3:hr>
            <ns3:cad>0</ns3:cad>
          </ns3:TrackPointExtension>
        </extensions>
      </trkpt>
      <trkpt lat="43.7758912704885005950927734375" lon="1.57491912133991718292236328125">
        <ele>150.1999969482421875</ele>
        <time>2026-08-13T08:51:52.000Z</time>
        <extensions>
          <ns3:TrackPointExtension>
            <ns3:hr>87</ns3:hr>
            <ns3:cad>0</ns3:cad>
          </ns3:TrackPointExtension>
        </extensions>
      </trkpt>
      <trkpt lat="43.7758899293839931488037109375" lon="1.57490151934325695037841796875">
        <ele>150.1999969482421875</ele>
        <time>2026-08-13T08:51:53.000Z</time>
        <extensions>
          <ns3:TrackPointExtension>
            <ns3:hr>88</ns3:hr>
            <ns3:cad>0</ns3:cad>
          </ns3:TrackPointExtension>
        </extensions>
      </trkpt>
      <trkpt lat="43.7758895941078662872314453125" lon="1.5748866833746433258056640625">
        <ele>150.1999969482421875</ele>
        <time>2026-08-13T08:51:54.000Z</time>
        <extensions>
          <ns3:TrackPointExtension>
            <ns3:hr>88</ns3:hr>
            <ns3:cad>0</ns3:cad>
          </ns3:TrackPointExtension>
        </extensions>
      </trkpt>
      <trkpt lat="43.77588984556496143341064453125" lon="1.57487352378666400909423828125">
        <ele>150.1999969482421875</ele>
        <time>2026-08-13T08:51:55.000Z</time>
        <extensions>
          <ns3:TrackPointExtension>
            <ns3:hr>88</ns3:hr>
            <ns3:cad>0</ns3:cad>
          </ns3:TrackPointExtension>
        </extensions>
      </trkpt>
      <trkpt lat="43.77589101903140544891357421875" lon="1.574861370027065277099609375">
        <ele>150.399993896484375</ele>
        <time>2026-08-13T08:51:56.000Z</time>
        <extensions>
          <ns3:TrackPointExtension>
            <ns3:hr>87</ns3:hr>
            <ns3:cad>0</ns3:cad>
          </ns3:TrackPointExtension>
        </extensions>
      </trkpt>
      <trkpt lat="43.7758912704885005950927734375" lon="1.57484485767781734466552734375">
        <ele>150.399993896484375</ele>
        <time>2026-08-13T08:51:57.000Z</time>
        <extensions>
          <ns3:TrackPointExtension>
            <ns3:hr>87</ns3:hr>
            <ns3:cad>0</ns3:cad>
          </ns3:TrackPointExtension>
        </extensions>
      </trkpt>
      <trkpt lat="43.7758929468691349029541015625" lon="1.57482189126312732696533203125">
        <ele>150.399993896484375</ele>
        <time>2026-08-13T08:51:58.000Z</time>
        <extensions>
          <ns3:TrackPointExtension>
            <ns3:hr>87</ns3:hr>
            <ns3:cad>0</ns3:cad>
          </ns3:TrackPointExtension>
        </extensions>
      </trkpt>
      <trkpt lat="43.775893785059452056884765625" lon="1.57480780966579914093017578125">
        <ele>150.600006103515625</ele>
        <time>2026-08-13T08:51:59.000Z</time>
        <extensions>
          <ns3:TrackPointExtension>
            <ns3:hr>87</ns3:hr>
            <ns3:cad>48</ns3:cad>
          </ns3:TrackPointExtension>
        </extensions>
      </trkpt>
      <trkpt lat="43.77589470706880092620849609375" lon="1.57479506917297840118408203125">
        <ele>150.600006103515625</ele>
        <time>2026-08-13T08:52:00.000Z</time>
        <extensions>
          <ns3:TrackPointExtension>
            <ns3:hr>87</ns3:hr>
            <ns3:cad>48</ns3:cad>
          </ns3:TrackPointExtension>
        </extensions>
      </trkpt>
      <trkpt lat="43.77589504234492778778076171875" lon="1.574783585965633392333984375">
        <ele>150.8000030517578125</ele>
        <time>2026-08-13T08:52:01.000Z</time>
        <extensions>
          <ns3:TrackPointExtension>
            <ns3:hr>84</ns3:hr>
            <ns3:cad>48</ns3:cad>
          </ns3:TrackPointExtension>
        </extensions>
      </trkpt>
      <trkpt lat="43.775895126163959503173828125" lon="1.5747696720063686370849609375">
        <ele>150.8000030517578125</ele>
        <time>2026-08-13T08:52:02.000Z</time>
        <extensions>
          <ns3:TrackPointExtension>
            <ns3:hr>83</ns3:hr>
            <ns3:cad>48</ns3:cad>
          </ns3:TrackPointExtension>
        </extensions>
      </trkpt>
      <trkpt lat="43.7758939526975154876708984375" lon="1.57475567422807216644287109375">
        <ele>150.8000030517578125</ele>
        <time>2026-08-13T08:52:03.000Z</time>
        <extensions>
          <ns3:TrackPointExtension>
            <ns3:hr>81</ns3:hr>
            <ns3:cad>48</ns3:cad>
          </ns3:TrackPointExtension>
        </extensions>
      </trkpt>
      <trkpt lat="43.77589286305010318756103515625" lon="1.574742011725902557373046875">
        <ele>151</ele>
        <time>2026-08-13T08:52:04.000Z</time>
        <extensions>
          <ns3:TrackPointExtension>
            <ns3:hr>80</ns3:hr>
            <ns3:cad>48</ns3:cad>
          </ns3:TrackPointExtension>
        </extensions>
      </trkpt>
      <trkpt lat="43.77589118666946887969970703125" lon="1.5747289359569549560546875">
        <ele>151</ele>
        <time>2026-08-13T08:52:05.000Z</time>
        <extensions>
          <ns3:TrackPointExtension>
            <ns3:hr>80</ns3:hr>
            <ns3:cad>48</ns3:cad>
          </ns3:TrackPointExtension>
        </extensions>
      </trkpt>
      <trkpt lat="43.7758867442607879638671875" lon="1.57471041195094585418701171875">
        <ele>151</ele>
        <time>2026-08-13T08:52:06.000Z</time>
        <extensions>
          <ns3:TrackPointExtension>
            <ns3:hr>80</ns3:hr>
            <ns3:cad>48</ns3:cad>
          </ns3:TrackPointExtension>
        </extensions>
      </trkpt>
      <trkpt lat="43.77588431350886821746826171875" lon="1.574689038097858428955078125">
        <ele>151</ele>
        <time>2026-08-13T08:52:07.000Z</time>
        <extensions>
          <ns3:TrackPointExtension>
            <ns3:hr>81</ns3:hr>
            <ns3:cad>48</ns3:cad>
          </ns3:TrackPointExtension>
        </extensions>
      </trkpt>
      <trkpt lat="43.7758845649659633636474609375" lon="1.57467663288116455078125">
        <ele>151.1999969482421875</ele>
        <time>2026-08-13T08:52:08.000Z</time>
        <extensions>
          <ns3:TrackPointExtension>
            <ns3:hr>80</ns3:hr>
            <ns3:cad>46</ns3:cad>
          </ns3:TrackPointExtension>
        </extensions>
      </trkpt>
      <trkpt lat="43.7758849002420902252197265625" lon="1.5746645629405975341796875">
        <ele>151.1999969482421875</ele>
        <time>2026-08-13T08:52:09.000Z</time>
        <extensions>
          <ns3:TrackPointExtension>
            <ns3:hr>80</ns3:hr>
            <ns3:cad>46</ns3:cad>
          </ns3:TrackPointExtension>
        </extensions>
      </trkpt>
      <trkpt lat="43.77588364295661449432373046875" lon="1.5746506489813327789306640625">
        <ele>151.1999969482421875</ele>
        <time>2026-08-13T08:52:10.000Z</time>
        <extensions>
          <ns3:TrackPointExtension>
            <ns3:hr>81</ns3:hr>
            <ns3:cad>46</ns3:cad>
          </ns3:TrackPointExtension>
        </extensions>
      </trkpt>
      <trkpt lat="43.7758808769285678863525390625" lon="1.574631370604038238525390625">
        <ele>151.1999969482421875</ele>
        <time>2026-08-13T08:52:11.000Z</time>
        <extensions>
          <ns3:TrackPointExtension>
            <ns3:hr>80</ns3:hr>
            <ns3:cad>46</ns3:cad>
          </ns3:TrackPointExtension>
        </extensions>
      </trkpt>
      <trkpt lat="43.775873668491840362548828125" lon="1.57462634146213531494140625">
        <ele>151.1999969482421875</ele>
        <time>2026-08-13T08:52:12.000Z</time>
        <extensions>
          <ns3:TrackPointExtension>
            <ns3:hr>79</ns3:hr>
            <ns3:cad>46</ns3:cad>
          </ns3:TrackPointExtension>
        </extensions>
      </trkpt>
      <trkpt lat="43.775869645178318023681640625" lon="1.57461167313158512115478515625">
        <ele>151.399993896484375</ele>
        <time>2026-08-13T08:52:13.000Z</time>
        <extensions>
          <ns3:TrackPointExtension>
            <ns3:hr>79</ns3:hr>
            <ns3:cad>46</ns3:cad>
          </ns3:TrackPointExtension>
        </extensions>
      </trkpt>
      <trkpt lat="43.77586738206446170806884765625" lon="1.57460622489452362060546875">
        <ele>151.399993896484375</ele>
        <time>2026-08-13T08:52:14.000Z</time>
        <extensions>
          <ns3:TrackPointExtension>
            <ns3:hr>79</ns3:hr>
            <ns3:cad>45</ns3:cad>
          </ns3:TrackPointExtension>
        </extensions>
      </trkpt>
      <trkpt lat="43.77586687915027141571044921875" lon="1.5745896287262439727783203125">
        <ele>151.1999969482421875</ele>
        <time>2026-08-13T08:52:15.000Z</time>
        <extensions>
          <ns3:TrackPointExtension>
            <ns3:hr>80</ns3:hr>
            <ns3:cad>45</ns3:cad>
          </ns3:TrackPointExtension>
        </extensions>
      </trkpt>
      <trkpt lat="43.77586637623608112335205078125" lon="1.57457311637699604034423828125">
        <ele>151.1999969482421875</ele>
        <time>2026-08-13T08:52:16.000Z</time>
        <extensions>
          <ns3:TrackPointExtension>
            <ns3:hr>80</ns3:hr>
            <ns3:cad>46</ns3:cad>
          </ns3:TrackPointExtension>
        </extensions>
      </trkpt>
      <trkpt lat="43.7758654542267322540283203125" lon="1.57456062734127044677734375">
        <ele>151.1999969482421875</ele>
        <time>2026-08-13T08:52:17.000Z</time>
        <extensions>
          <ns3:TrackPointExtension>
            <ns3:hr>80</ns3:hr>
            <ns3:cad>46</ns3:cad>
          </ns3:TrackPointExtension>
        </extensions>
      </trkpt>
      <trkpt lat="43.77586922608315944671630859375" lon="1.57455484382808208465576171875">
        <ele>151.1999969482421875</ele>
        <time>2026-08-13T08:52:18.000Z</time>
        <extensions>
          <ns3:TrackPointExtension>
            <ns3:hr>80</ns3:hr>
            <ns3:cad>46</ns3:cad>
          </ns3:TrackPointExtension>
        </extensions>
      </trkpt>
      <trkpt lat="43.7758684717118740081787109375" lon="1.57454319298267364501953125">
        <ele>151.1999969482421875</ele>
        <time>2026-08-13T08:52:19.000Z</time>
        <extensions>
          <ns3:TrackPointExtension>
            <ns3:hr>80</ns3:hr>
            <ns3:cad>47</ns3:cad>
          </ns3:TrackPointExtension>
        </extensions>
      </trkpt>
      <trkpt lat="43.77586520276963710784912109375" lon="1.57452500425279140472412109375">
        <ele>151.1999969482421875</ele>
        <time>2026-08-13T08:52:20.000Z</time>
        <extensions>
          <ns3:TrackPointExtension>
            <ns3:hr>80</ns3:hr>
            <ns3:cad>47</ns3:cad>
          </ns3:TrackPointExtension>
        </extensions>
      </trkpt>
      <trkpt lat="43.77586252056062221527099609375" lon="1.57451259903609752655029296875">
        <ele>151.1999969482421875</ele>
        <time>2026-08-13T08:52:21.000Z</time>
        <extensions>
          <ns3:TrackPointExtension>
            <ns3:hr>80</ns3:hr>
            <ns3:cad>47</ns3:cad>
          </ns3:TrackPointExtension>
        </extensions>
      </trkpt>
      <trkpt lat="43.77586067654192447662353515625" lon="1.5745009481906890869140625">
        <ele>151.1999969482421875</ele>
        <time>2026-08-13T08:52:22.000Z</time>
        <extensions>
          <ns3:TrackPointExtension>
            <ns3:hr>81</ns3:hr>
            <ns3:cad>47</ns3:cad>
          </ns3:TrackPointExtension>
        </extensions>
      </trkpt>
      <trkpt lat="43.77585933543741703033447265625" lon="1.57449147664010524749755859375">
        <ele>151.1999969482421875</ele>
        <time>2026-08-13T08:52:23.000Z</time>
        <extensions>
          <ns3:TrackPointExtension>
            <ns3:hr>81</ns3:hr>
            <ns3:cad>47</ns3:cad>
          </ns3:TrackPointExtension>
        </extensions>
      </trkpt>
      <trkpt lat="43.77585464157164096832275390625" lon="1.5744773112237453460693359375">
        <ele>151.1999969482421875</ele>
        <time>2026-08-13T08:52:24.000Z</time>
        <extensions>
          <ns3:TrackPointExtension>
            <ns3:hr>82</ns3:hr>
            <ns3:cad>46</ns3:cad>
          </ns3:TrackPointExtension>
        </extensions>
      </trkpt>
      <trkpt lat="43.7758518755435943603515625" lon="1.5744639001786708831787109375">
        <ele>151.399993896484375</ele>
        <time>2026-08-13T08:52:25.000Z</time>
        <extensions>
          <ns3:TrackPointExtension>
            <ns3:hr>82</ns3:hr>
            <ns3:cad>46</ns3:cad>
          </ns3:TrackPointExtension>
        </extensions>
      </trkpt>
      <trkpt lat="43.77585179172456264495849609375" lon="1.57445727847516536712646484375">
        <ele>151.399993896484375</ele>
        <time>2026-08-13T08:52:26.000Z</time>
        <extensions>
          <ns3:TrackPointExtension>
            <ns3:hr>82</ns3:hr>
            <ns3:cad>46</ns3:cad>
          </ns3:TrackPointExtension>
        </extensions>
      </trkpt>
      <trkpt lat="43.77585120499134063720703125" lon="1.5744498185813426971435546875">
        <ele>151.399993896484375</ele>
        <time>2026-08-13T08:52:27.000Z</time>
        <extensions>
          <ns3:TrackPointExtension>
            <ns3:hr>83</ns3:hr>
            <ns3:cad>47</ns3:cad>
          </ns3:TrackPointExtension>
        </extensions>
      </trkpt>
      <trkpt lat="43.77584575675427913665771484375" lon="1.5744330547749996185302734375">
        <ele>151.399993896484375</ele>
        <time>2026-08-13T08:52:28.000Z</time>
        <extensions>
          <ns3:TrackPointExtension>
            <ns3:hr>83</ns3:hr>
            <ns3:cad>47</ns3:cad>
          </ns3:TrackPointExtension>
        </extensions>
      </trkpt>
      <trkpt lat="43.775840140879154205322265625" lon="1.574414782226085662841796875">
        <ele>151.399993896484375</ele>
        <time>2026-08-13T08:52:29.000Z</time>
        <extensions>
          <ns3:TrackPointExtension>
            <ns3:hr>83</ns3:hr>
            <ns3:cad>47</ns3:cad>
          </ns3:TrackPointExtension>
        </extensions>
      </trkpt>
      <trkpt lat="43.7758366204798221588134765625" lon="1.5743990242481231689453125">
        <ele>151.600006103515625</ele>
        <time>2026-08-13T08:52:30.000Z</time>
        <extensions>
          <ns3:TrackPointExtension>
            <ns3:hr>83</ns3:hr>
            <ns3:cad>46</ns3:cad>
          </ns3:TrackPointExtension>
        </extensions>
      </trkpt>
      <trkpt lat="43.7758356146514415740966796875" lon="1.57438972033560276031494140625">
        <ele>151.600006103515625</ele>
        <time>2026-08-13T08:52:31.000Z</time>
        <extensions>
          <ns3:TrackPointExtension>
            <ns3:hr>84</ns3:hr>
            <ns3:cad>46</ns3:cad>
          </ns3:TrackPointExtension>
        </extensions>
      </trkpt>
      <trkpt lat="43.775830753147602081298828125" lon="1.57437019050121307373046875">
        <ele>151.600006103515625</ele>
        <time>2026-08-13T08:52:32.000Z</time>
        <extensions>
          <ns3:TrackPointExtension>
            <ns3:hr>84</ns3:hr>
            <ns3:cad>45</ns3:cad>
          </ns3:TrackPointExtension>
        </extensions>
      </trkpt>
      <trkpt lat="43.7758250534534454345703125" lon="1.57435099594295024871826171875">
        <ele>151.600006103515625</ele>
        <time>2026-08-13T08:52:33.000Z</time>
        <extensions>
          <ns3:TrackPointExtension>
            <ns3:hr>84</ns3:hr>
            <ns3:cad>45</ns3:cad>
          </ns3:TrackPointExtension>
        </extensions>
      </trkpt>
      <trkpt lat="43.77582161687314510345458984375" lon="1.5743415243923664093017578125">
        <ele>151.8000030517578125</ele>
        <time>2026-08-13T08:52:34.000Z</time>
        <extensions>
          <ns3:TrackPointExtension>
            <ns3:hr>84</ns3:hr>
            <ns3:cad>45</ns3:cad>
          </ns3:TrackPointExtension>
        </extensions>
      </trkpt>
      <trkpt lat="43.7758185155689716339111328125" lon="1.57433154992759227752685546875">
        <ele>151.8000030517578125</ele>
        <time>2026-08-13T08:52:35.000Z</time>
        <extensions>
          <ns3:TrackPointExtension>
            <ns3:hr>84</ns3:hr>
            <ns3:cad>45</ns3:cad>
          </ns3:TrackPointExtension>
        </extensions>
      </trkpt>
      <trkpt lat="43.775812648236751556396484375" lon="1.57431327737867832183837890625">
        <ele>151.8000030517578125</ele>
        <time>2026-08-13T08:52:36.000Z</time>
        <extensions>
          <ns3:TrackPointExtension>
            <ns3:hr>85</ns3:hr>
            <ns3:cad>45</ns3:cad>
          </ns3:TrackPointExtension>
        </extensions>
      </trkpt>
      <trkpt lat="43.7758057750761508941650390625" lon="1.5742912329733371734619140625">
        <ele>152</ele>
        <time>2026-08-13T08:52:37.000Z</time>
        <extensions>
          <ns3:TrackPointExtension>
            <ns3:hr>85</ns3:hr>
            <ns3:cad>45</ns3:cad>
          </ns3:TrackPointExtension>
        </extensions>
      </trkpt>
      <trkpt lat="43.77580435015261173248291015625" lon="1.57427622936666011810302734375">
        <ele>152</ele>
        <time>2026-08-13T08:52:38.000Z</time>
        <extensions>
          <ns3:TrackPointExtension>
            <ns3:hr>85</ns3:hr>
            <ns3:cad>45</ns3:cad>
          </ns3:TrackPointExtension>
        </extensions>
      </trkpt>
      <trkpt lat="43.77580300904810428619384765625" lon="1.57426851801574230194091796875">
        <ele>152</ele>
        <time>2026-08-13T08:52:39.000Z</time>
        <extensions>
          <ns3:TrackPointExtension>
            <ns3:hr>85</ns3:hr>
            <ns3:cad>46</ns3:cad>
          </ns3:TrackPointExtension>
        </extensions>
      </trkpt>
      <trkpt lat="43.77579764463007450103759765625" lon="1.57425108365714550018310546875">
        <ele>152.1999969482421875</ele>
        <time>2026-08-13T08:52:40.000Z</time>
        <extensions>
          <ns3:TrackPointExtension>
            <ns3:hr>85</ns3:hr>
            <ns3:cad>46</ns3:cad>
          </ns3:TrackPointExtension>
        </extensions>
      </trkpt>
      <trkpt lat="43.77578993327915668487548828125" lon="1.57423515804111957550048828125">
        <ele>152.1999969482421875</ele>
        <time>2026-08-13T08:52:41.000Z</time>
        <extensions>
          <ns3:TrackPointExtension>
            <ns3:hr>85</ns3:hr>
            <ns3:cad>46</ns3:cad>
          </ns3:TrackPointExtension>
        </extensions>
      </trkpt>
      <trkpt lat="43.7757863290607929229736328125" lon="1.5742228366434574127197265625">
        <ele>152.1999969482421875</ele>
        <time>2026-08-13T08:52:42.000Z</time>
        <extensions>
          <ns3:TrackPointExtension>
            <ns3:hr>86</ns3:hr>
            <ns3:cad>46</ns3:cad>
          </ns3:TrackPointExtension>
        </extensions>
      </trkpt>
      <trkpt lat="43.7757833115756511688232421875" lon="1.5742107667028903961181640625">
        <ele>152.399993896484375</ele>
        <time>2026-08-13T08:52:43.000Z</time>
        <extensions>
          <ns3:TrackPointExtension>
            <ns3:hr>86</ns3:hr>
            <ns3:cad>46</ns3:cad>
          </ns3:TrackPointExtension>
        </extensions>
      </trkpt>
      <trkpt lat="43.77577568404376506805419921875" lon="1.574194841086864471435546875">
        <ele>152.399993896484375</ele>
        <time>2026-08-13T08:52:44.000Z</time>
        <extensions>
          <ns3:TrackPointExtension>
            <ns3:hr>86</ns3:hr>
            <ns3:cad>45</ns3:cad>
          </ns3:TrackPointExtension>
        </extensions>
      </trkpt>
      <trkpt lat="43.775767050683498382568359375" lon="1.574178747832775115966796875">
        <ele>152.399993896484375</ele>
        <time>2026-08-13T08:52:45.000Z</time>
        <extensions>
          <ns3:TrackPointExtension>
            <ns3:hr>86</ns3:hr>
            <ns3:cad>44</ns3:cad>
          </ns3:TrackPointExtension>
        </extensions>
      </trkpt>
      <trkpt lat="43.77576227299869060516357421875" lon="1.57416609115898609161376953125">
        <ele>152.399993896484375</ele>
        <time>2026-08-13T08:52:46.000Z</time>
        <extensions>
          <ns3:TrackPointExtension>
            <ns3:hr>87</ns3:hr>
            <ns3:cad>44</ns3:cad>
          </ns3:TrackPointExtension>
        </extensions>
      </trkpt>
      <trkpt lat="43.7757574953138828277587890625" lon="1.5741557814180850982666015625">
        <ele>152.600006103515625</ele>
        <time>2026-08-13T08:52:47.000Z</time>
        <extensions>
          <ns3:TrackPointExtension>
            <ns3:hr>87</ns3:hr>
            <ns3:cad>44</ns3:cad>
          </ns3:TrackPointExtension>
        </extensions>
      </trkpt>
      <trkpt lat="43.77574970014393329620361328125" lon="1.5741416998207569122314453125">
        <ele>152.600006103515625</ele>
        <time>2026-08-13T08:52:48.000Z</time>
        <extensions>
          <ns3:TrackPointExtension>
            <ns3:hr>87</ns3:hr>
            <ns3:cad>44</ns3:cad>
          </ns3:TrackPointExtension>
        </extensions>
      </trkpt>
      <trkpt lat="43.77574265934526920318603515625" lon="1.57413281500339508056640625">
        <ele>152.600006103515625</ele>
        <time>2026-08-13T08:52:49.000Z</time>
        <extensions>
          <ns3:TrackPointExtension>
            <ns3:hr>88</ns3:hr>
            <ns3:cad>46</ns3:cad>
          </ns3:TrackPointExtension>
        </extensions>
      </trkpt>
      <trkpt lat="43.77573587000370025634765625" lon="1.57412854023277759552001953125">
        <ele>152.600006103515625</ele>
        <time>2026-08-13T08:52:50.000Z</time>
        <extensions>
          <ns3:TrackPointExtension>
            <ns3:hr>88</ns3:hr>
            <ns3:cad>46</ns3:cad>
          </ns3:TrackPointExtension>
        </extensions>
      </trkpt>
      <trkpt lat="43.77573318779468536376953125" lon="1.57412317581474781036376953125">
        <ele>152.600006103515625</ele>
        <time>2026-08-13T08:52:51.000Z</time>
        <extensions>
          <ns3:TrackPointExtension>
            <ns3:hr>88</ns3:hr>
            <ns3:cad>46</ns3:cad>
          </ns3:TrackPointExtension>
        </extensions>
      </trkpt>
      <trkpt lat="43.77572539262473583221435546875" lon="1.5741121955215930938720703125">
        <ele>152.600006103515625</ele>
        <time>2026-08-13T08:52:52.000Z</time>
        <extensions>
          <ns3:TrackPointExtension>
            <ns3:hr>88</ns3:hr>
            <ns3:cad>44</ns3:cad>
          </ns3:TrackPointExtension>
        </extensions>
      </trkpt>
      <trkpt lat="43.775718100368976593017578125" lon="1.57410171814262866973876953125">
        <ele>152.8000030517578125</ele>
        <time>2026-08-13T08:52:53.000Z</time>
        <extensions>
          <ns3:TrackPointExtension>
            <ns3:hr>87</ns3:hr>
            <ns3:cad>44</ns3:cad>
          </ns3:TrackPointExtension>
        </extensions>
      </trkpt>
      <trkpt lat="43.77571038901805877685546875" lon="1.57409031875431537628173828125">
        <ele>152.8000030517578125</ele>
        <time>2026-08-13T08:52:54.000Z</time>
        <extensions>
          <ns3:TrackPointExtension>
            <ns3:hr>88</ns3:hr>
            <ns3:cad>44</ns3:cad>
          </ns3:TrackPointExtension>
        </extensions>
      </trkpt>
      <trkpt lat="43.7757061980664730072021484375" lon="1.574083864688873291015625">
        <ele>152.8000030517578125</ele>
        <time>2026-08-13T08:52:55.000Z</time>
        <extensions>
          <ns3:TrackPointExtension>
            <ns3:hr>88</ns3:hr>
            <ns3:cad>44</ns3:cad>
          </ns3:TrackPointExtension>
        </extensions>
      </trkpt>
      <trkpt lat="43.7756974808871746063232421875" lon="1.5740726329386234283447265625">
        <ele>152.8000030517578125</ele>
        <time>2026-08-13T08:52:56.000Z</time>
        <extensions>
          <ns3:TrackPointExtension>
            <ns3:hr>89</ns3:hr>
            <ns3:cad>44</ns3:cad>
          </ns3:TrackPointExtension>
        </extensions>
      </trkpt>
      <trkpt lat="43.7756854109466075897216796875" lon="1.5740615688264369964599609375">
        <ele>152.8000030517578125</ele>
        <time>2026-08-13T08:52:57.000Z</time>
        <extensions>
          <ns3:TrackPointExtension>
            <ns3:hr>89</ns3:hr>
            <ns3:cad>44</ns3:cad>
          </ns3:TrackPointExtension>
        </extensions>
      </trkpt>
      <trkpt lat="43.775671161711215972900390625" lon="1.57404857687652111053466796875">
        <ele>152.8000030517578125</ele>
        <time>2026-08-13T08:52:58.000Z</time>
        <extensions>
          <ns3:TrackPointExtension>
            <ns3:hr>89</ns3:hr>
            <ns3:cad>44</ns3:cad>
          </ns3:TrackPointExtension>
        </extensions>
      </trkpt>
      <trkpt lat="43.7756683118641376495361328125" lon="1.57404472120106220245361328125">
        <ele>152.8000030517578125</ele>
        <time>2026-08-13T08:52:59.000Z</time>
        <extensions>
          <ns3:TrackPointExtension>
            <ns3:hr>89</ns3:hr>
            <ns3:cad>44</ns3:cad>
          </ns3:TrackPointExtension>
        </extensions>
      </trkpt>
      <trkpt lat="43.775662444531917572021484375" lon="1.5740394406020641326904296875">
        <ele>153</ele>
        <time>2026-08-13T08:53:00.000Z</time>
        <extensions>
          <ns3:TrackPointExtension>
            <ns3:hr>89</ns3:hr>
            <ns3:cad>45</ns3:cad>
          </ns3:TrackPointExtension>
        </extensions>
      </trkpt>
      <trkpt lat="43.775646686553955078125" lon="1.574024856090545654296875">
        <ele>153</ele>
        <time>2026-08-13T08:53:01.000Z</time>
        <extensions>
          <ns3:TrackPointExtension>
            <ns3:hr>89</ns3:hr>
            <ns3:cad>45</ns3:cad>
          </ns3:TrackPointExtension>
        </extensions>
      </trkpt>
      <trkpt lat="43.7756438367068767547607421875" lon="1.57401479780673980712890625">
        <ele>153</ele>
        <time>2026-08-13T08:53:02.000Z</time>
        <extensions>
          <ns3:TrackPointExtension>
            <ns3:hr>89</ns3:hr>
            <ns3:cad>47</ns3:cad>
          </ns3:TrackPointExtension>
        </extensions>
      </trkpt>
      <trkpt lat="43.7756421603262424468994140625" lon="1.57400918193161487579345703125">
        <ele>153</ele>
        <time>2026-08-13T08:53:03.000Z</time>
        <extensions>
          <ns3:TrackPointExtension>
            <ns3:hr>89</ns3:hr>
            <ns3:cad>47</ns3:cad>
          </ns3:TrackPointExtension>
        </extensions>
      </trkpt>
      <trkpt lat="43.7756371311843395233154296875" lon="1.57399727962911128997802734375">
        <ele>152.8000030517578125</ele>
        <time>2026-08-13T08:53:04.000Z</time>
        <extensions>
          <ns3:TrackPointExtension>
            <ns3:hr>89</ns3:hr>
            <ns3:cad>47</ns3:cad>
          </ns3:TrackPointExtension>
        </extensions>
      </trkpt>
      <trkpt lat="43.77562724053859710693359375" lon="1.57398386858403682708740234375">
        <ele>152.8000030517578125</ele>
        <time>2026-08-13T08:53:05.000Z</time>
        <extensions>
          <ns3:TrackPointExtension>
            <ns3:hr>90</ns3:hr>
            <ns3:cad>47</ns3:cad>
          </ns3:TrackPointExtension>
        </extensions>
      </trkpt>
      <trkpt lat="43.7756176851689815521240234375" lon="1.57397322356700897216796875">
        <ele>153</ele>
        <time>2026-08-13T08:53:06.000Z</time>
        <extensions>
          <ns3:TrackPointExtension>
            <ns3:hr>90</ns3:hr>
            <ns3:cad>47</ns3:cad>
          </ns3:TrackPointExtension>
        </extensions>
      </trkpt>
      <trkpt lat="43.7756136618554592132568359375" lon="1.57396509312093257904052734375">
        <ele>153</ele>
        <time>2026-08-13T08:53:07.000Z</time>
        <extensions>
          <ns3:TrackPointExtension>
            <ns3:hr>90</ns3:hr>
            <ns3:cad>47</ns3:cad>
          </ns3:TrackPointExtension>
        </extensions>
      </trkpt>
      <trkpt lat="43.7756103090941905975341796875" lon="1.5739546157419681549072265625">
        <ele>153</ele>
        <time>2026-08-13T08:53:08.000Z</time>
        <extensions>
          <ns3:TrackPointExtension>
            <ns3:hr>90</ns3:hr>
            <ns3:cad>47</ns3:cad>
          </ns3:TrackPointExtension>
        </extensions>
      </trkpt>
      <trkpt lat="43.7756019271910190582275390625" lon="1.573940031230449676513671875">
        <ele>153.1999969482421875</ele>
        <time>2026-08-13T08:53:09.000Z</time>
        <extensions>
          <ns3:TrackPointExtension>
            <ns3:hr>93</ns3:hr>
            <ns3:cad>44</ns3:cad>
          </ns3:TrackPointExtension>
        </extensions>
      </trkpt>
      <trkpt lat="43.77560016699135303497314453125" lon="1.57392418943345546722412109375">
        <ele>153.1999969482421875</ele>
        <time>2026-08-13T08:53:10.000Z</time>
        <extensions>
          <ns3:TrackPointExtension>
            <ns3:hr>94</ns3:hr>
            <ns3:cad>44</ns3:cad>
          </ns3:TrackPointExtension>
        </extensions>
      </trkpt>
      <trkpt lat="43.7755943834781646728515625" lon="1.57391815446317195892333984375">
        <ele>153.1999969482421875</ele>
        <time>2026-08-13T08:53:11.000Z</time>
        <extensions>
          <ns3:TrackPointExtension>
            <ns3:hr>93</ns3:hr>
            <ns3:cad>46</ns3:cad>
          </ns3:TrackPointExtension>
        </extensions>
      </trkpt>
      <trkpt lat="43.7755891866981983184814453125" lon="1.57390558160841464996337890625">
        <ele>153.399993896484375</ele>
        <time>2026-08-13T08:53:12.000Z</time>
        <extensions>
          <ns3:TrackPointExtension>
            <ns3:hr>93</ns3:hr>
            <ns3:cad>46</ns3:cad>
          </ns3:TrackPointExtension>
        </extensions>
      </trkpt>
      <trkpt lat="43.77558139152824878692626953125" lon="1.5738922543823719024658203125">
        <ele>153.399993896484375</ele>
        <time>2026-08-13T08:53:13.000Z</time>
        <extensions>
          <ns3:TrackPointExtension>
            <ns3:hr>93</ns3:hr>
            <ns3:cad>46</ns3:cad>
          </ns3:TrackPointExtension>
        </extensions>
      </trkpt>
      <trkpt lat="43.77557619474828243255615234375" lon="1.573878340423107147216796875">
        <ele>153.399993896484375</ele>
        <time>2026-08-13T08:53:14.000Z</time>
        <extensions>
          <ns3:TrackPointExtension>
            <ns3:hr>93</ns3:hr>
            <ns3:cad>46</ns3:cad>
          </ns3:TrackPointExtension>
        </extensions>
      </trkpt>
      <trkpt lat="43.77557166852056980133056640625" lon="1.5738666057586669921875">
        <ele>153.399993896484375</ele>
        <time>2026-08-13T08:53:15.000Z</time>
        <extensions>
          <ns3:TrackPointExtension>
            <ns3:hr>92</ns3:hr>
            <ns3:cad>46</ns3:cad>
          </ns3:TrackPointExtension>
        </extensions>
      </trkpt>
      <trkpt lat="43.7755677290260791778564453125" lon="1.57384891994297504425048828125">
        <ele>153.399993896484375</ele>
        <time>2026-08-13T08:53:16.000Z</time>
        <extensions>
          <ns3:TrackPointExtension>
            <ns3:hr>93</ns3:hr>
            <ns3:cad>46</ns3:cad>
          </ns3:TrackPointExtension>
        </extensions>
      </trkpt>
      <trkpt lat="43.7755583412945270538330078125" lon="1.57383240759372711181640625">
        <ele>153.399993896484375</ele>
        <time>2026-08-13T08:53:17.000Z</time>
        <extensions>
          <ns3:TrackPointExtension>
            <ns3:hr>93</ns3:hr>
            <ns3:cad>46</ns3:cad>
          </ns3:TrackPointExtension>
        </extensions>
      </trkpt>
      <trkpt lat="43.77555557526648044586181640625" lon="1.57382025383412837982177734375">
        <ele>153.600006103515625</ele>
        <time>2026-08-13T08:53:18.000Z</time>
        <extensions>
          <ns3:TrackPointExtension>
            <ns3:hr>93</ns3:hr>
            <ns3:cad>46</ns3:cad>
          </ns3:TrackPointExtension>
        </extensions>
      </trkpt>
      <trkpt lat="43.77555373124778270721435546875" lon="1.57381187193095684051513671875">
        <ele>153.600006103515625</ele>
        <time>2026-08-13T08:53:19.000Z</time>
        <extensions>
          <ns3:TrackPointExtension>
            <ns3:hr>93</ns3:hr>
            <ns3:cad>46</ns3:cad>
          </ns3:TrackPointExtension>
        </extensions>
      </trkpt>
      <trkpt lat="43.7755462713539600372314453125" lon="1.57379561103880405426025390625">
        <ele>153.600006103515625</ele>
        <time>2026-08-13T08:53:20.000Z</time>
        <extensions>
          <ns3:TrackPointExtension>
            <ns3:hr>92</ns3:hr>
            <ns3:cad>44</ns3:cad>
          </ns3:TrackPointExtension>
        </extensions>
      </trkpt>
      <trkpt lat="43.7755368836224079132080078125" lon="1.57378605566918849945068359375">
        <ele>153.600006103515625</ele>
        <time>2026-08-13T08:53:21.000Z</time>
        <extensions>
          <ns3:TrackPointExtension>
            <ns3:hr>92</ns3:hr>
            <ns3:cad>44</ns3:cad>
          </ns3:TrackPointExtension>
        </extensions>
      </trkpt>
      <trkpt lat="43.77553193829953670501708984375" lon="1.573773734271526336669921875">
        <ele>153.600006103515625</ele>
        <time>2026-08-13T08:53:22.000Z</time>
        <extensions>
          <ns3:TrackPointExtension>
            <ns3:hr>92</ns3:hr>
            <ns3:cad>44</ns3:cad>
          </ns3:TrackPointExtension>
        </extensions>
      </trkpt>
      <trkpt lat="43.77552741207182407379150390625" lon="1.57376845367252826690673828125">
        <ele>153.600006103515625</ele>
        <time>2026-08-13T08:53:23.000Z</time>
        <extensions>
          <ns3:TrackPointExtension>
            <ns3:hr>92</ns3:hr>
            <ns3:cad>44</ns3:cad>
          </ns3:TrackPointExtension>
        </extensions>
      </trkpt>
      <trkpt lat="43.7755165994167327880859375" lon="1.573758311569690704345703125">
        <ele>153.600006103515625</ele>
        <time>2026-08-13T08:53:24.000Z</time>
        <extensions>
          <ns3:TrackPointExtension>
            <ns3:hr>92</ns3:hr>
            <ns3:cad>43</ns3:cad>
          </ns3:TrackPointExtension>
        </extensions>
      </trkpt>
      <trkpt lat="43.7755080498754978179931640625" lon="1.5737541206181049346923828125">
        <ele>153.8000030517578125</ele>
        <time>2026-08-13T08:53:25.000Z</time>
        <extensions>
          <ns3:TrackPointExtension>
            <ns3:hr>92</ns3:hr>
            <ns3:cad>43</ns3:cad>
          </ns3:TrackPointExtension>
        </extensions>
      </trkpt>
      <trkpt lat="43.7755053676664829254150390625" lon="1.57374464906752109527587890625">
        <ele>153.8000030517578125</ele>
        <time>2026-08-13T08:53:26.000Z</time>
        <extensions>
          <ns3:TrackPointExtension>
            <ns3:hr>91</ns3:hr>
            <ns3:cad>43</ns3:cad>
          </ns3:TrackPointExtension>
        </extensions>
      </trkpt>
      <trkpt lat="43.77549639903008937835693359375" lon="1.57372654415667057037353515625">
        <ele>153.8000030517578125</ele>
        <time>2026-08-13T08:53:27.000Z</time>
        <extensions>
          <ns3:TrackPointExtension>
            <ns3:hr>91</ns3:hr>
            <ns3:cad>43</ns3:cad>
          </ns3:TrackPointExtension>
        </extensions>
      </trkpt>
      <trkpt lat="43.7754870951175689697265625" lon="1.5737152285873889923095703125">
        <ele>153.8000030517578125</ele>
        <time>2026-08-13T08:53:28.000Z</time>
        <extensions>
          <ns3:TrackPointExtension>
            <ns3:hr>91</ns3:hr>
            <ns3:cad>44</ns3:cad>
          </ns3:TrackPointExtension>
        </extensions>
      </trkpt>
      <trkpt lat="43.77547971904277801513671875" lon="1.5737051703035831451416015625">
        <ele>153.8000030517578125</ele>
        <time>2026-08-13T08:53:29.000Z</time>
        <extensions>
          <ns3:TrackPointExtension>
            <ns3:hr>91</ns3:hr>
            <ns3:cad>43</ns3:cad>
          </ns3:TrackPointExtension>
        </extensions>
      </trkpt>
      <trkpt lat="43.77547678537666797637939453125" lon="1.57369318418204784393310546875">
        <ele>153.8000030517578125</ele>
        <time>2026-08-13T08:53:30.000Z</time>
        <extensions>
          <ns3:TrackPointExtension>
            <ns3:hr>92</ns3:hr>
            <ns3:cad>43</ns3:cad>
          </ns3:TrackPointExtension>
        </extensions>
      </trkpt>
      <trkpt lat="43.77547460608184337615966796875" lon="1.5736775100231170654296875">
        <ele>153.8000030517578125</ele>
        <time>2026-08-13T08:53:31.000Z</time>
        <extensions>
          <ns3:TrackPointExtension>
            <ns3:hr>91</ns3:hr>
            <ns3:cad>43</ns3:cad>
          </ns3:TrackPointExtension>
        </extensions>
      </trkpt>
      <trkpt lat="43.77547108568251132965087890625" lon="1.573665104806423187255859375">
        <ele>154</ele>
        <time>2026-08-13T08:53:32.000Z</time>
        <extensions>
          <ns3:TrackPointExtension>
            <ns3:hr>91</ns3:hr>
            <ns3:cad>43</ns3:cad>
          </ns3:TrackPointExtension>
        </extensions>
      </trkpt>
      <trkpt lat="43.77546790055930614471435546875" lon="1.5736545436084270477294921875">
        <ele>154</ele>
        <time>2026-08-13T08:53:33.000Z</time>
        <extensions>
          <ns3:TrackPointExtension>
            <ns3:hr>91</ns3:hr>
            <ns3:cad>41</ns3:cad>
          </ns3:TrackPointExtension>
        </extensions>
      </trkpt>
      <trkpt lat="43.77546672709286212921142578125" lon="1.57365680672228336334228515625">
        <ele>154.1999969482421875</ele>
        <time>2026-08-13T08:53:34.000Z</time>
        <extensions>
          <ns3:TrackPointExtension>
            <ns3:hr>90</ns3:hr>
            <ns3:cad>41</ns3:cad>
          </ns3:TrackPointExtension>
        </extensions>
      </trkpt>
      <trkpt lat="43.775457926094532012939453125" lon="1.57364490441977977752685546875">
        <ele>154.1999969482421875</ele>
        <time>2026-08-13T08:53:35.000Z</time>
        <extensions>
          <ns3:TrackPointExtension>
            <ns3:hr>90</ns3:hr>
            <ns3:cad>46</ns3:cad>
          </ns3:TrackPointExtension>
        </extensions>
      </trkpt>
      <trkpt lat="43.7754513882100582122802734375" lon="1.573631577193737030029296875">
        <ele>154.399993896484375</ele>
        <time>2026-08-13T08:53:36.000Z</time>
        <extensions>
          <ns3:TrackPointExtension>
            <ns3:hr>91</ns3:hr>
            <ns3:cad>46</ns3:cad>
          </ns3:TrackPointExtension>
        </extensions>
      </trkpt>
      <trkpt lat="43.775448538362979888916015625" lon="1.57362311147153377532958984375">
        <ele>154.399993896484375</ele>
        <time>2026-08-13T08:53:37.000Z</time>
        <extensions>
          <ns3:TrackPointExtension>
            <ns3:hr>90</ns3:hr>
            <ns3:cad>44</ns3:cad>
          </ns3:TrackPointExtension>
        </extensions>
      </trkpt>
      <trkpt lat="43.775445520877838134765625" lon="1.57361221499741077423095703125">
        <ele>154.399993896484375</ele>
        <time>2026-08-13T08:53:38.000Z</time>
        <extensions>
          <ns3:TrackPointExtension>
            <ns3:hr>90</ns3:hr>
            <ns3:cad>44</ns3:cad>
          </ns3:TrackPointExtension>
        </extensions>
      </trkpt>
      <trkpt lat="43.775437138974666595458984375" lon="1.5736012347042560577392578125">
        <ele>154.399993896484375</ele>
        <time>2026-08-13T08:53:39.000Z</time>
        <extensions>
          <ns3:TrackPointExtension>
            <ns3:hr>89</ns3:hr>
            <ns3:cad>44</ns3:cad>
          </ns3:TrackPointExtension>
        </extensions>
      </trkpt>
      <trkpt lat="43.77542900852859020233154296875" lon="1.57358958385884761810302734375">
        <ele>154.600006103515625</ele>
        <time>2026-08-13T08:53:40.000Z</time>
        <extensions>
          <ns3:TrackPointExtension>
            <ns3:hr>89</ns3:hr>
            <ns3:cad>44</ns3:cad>
          </ns3:TrackPointExtension>
        </extensions>
      </trkpt>
      <trkpt lat="43.77542733214795589447021484375" lon="1.5735814534127712249755859375">
        <ele>154.600006103515625</ele>
        <time>2026-08-13T08:53:41.000Z</time>
        <extensions>
          <ns3:TrackPointExtension>
            <ns3:hr>89</ns3:hr>
            <ns3:cad>44</ns3:cad>
          </ns3:TrackPointExtension>
        </extensions>
      </trkpt>
      <trkpt lat="43.77542112953960895538330078125" lon="1.5735667012631893157958984375">
        <ele>154.600006103515625</ele>
        <time>2026-08-13T08:53:42.000Z</time>
        <extensions>
          <ns3:TrackPointExtension>
            <ns3:hr>89</ns3:hr>
            <ns3:cad>44</ns3:cad>
          </ns3:TrackPointExtension>
        </extensions>
      </trkpt>
      <trkpt lat="43.7754141725599765777587890625" lon="1.5735546313226222991943359375">
        <ele>154.8000030517578125</ele>
        <time>2026-08-13T08:53:43.000Z</time>
        <extensions>
          <ns3:TrackPointExtension>
            <ns3:hr>90</ns3:hr>
            <ns3:cad>44</ns3:cad>
          </ns3:TrackPointExtension>
        </extensions>
      </trkpt>
      <trkpt lat="43.77541056834161281585693359375" lon="1.573542393743991851806640625">
        <ele>154.8000030517578125</ele>
        <time>2026-08-13T08:53:44.000Z</time>
        <extensions>
          <ns3:TrackPointExtension>
            <ns3:hr>90</ns3:hr>
            <ns3:cad>42</ns3:cad>
          </ns3:TrackPointExtension>
        </extensions>
      </trkpt>
      <trkpt lat="43.77540503628551959991455078125" lon="1.57353526912629604339599609375">
        <ele>154.8000030517578125</ele>
        <time>2026-08-13T08:53:45.000Z</time>
        <extensions>
          <ns3:TrackPointExtension>
            <ns3:hr>90</ns3:hr>
            <ns3:cad>42</ns3:cad>
          </ns3:TrackPointExtension>
        </extensions>
      </trkpt>
      <trkpt lat="43.77539313398301601409912109375" lon="1.5735232830047607421875">
        <ele>154.8000030517578125</ele>
        <time>2026-08-13T08:53:46.000Z</time>
        <extensions>
          <ns3:TrackPointExtension>
            <ns3:hr>90</ns3:hr>
            <ns3:cad>41</ns3:cad>
          </ns3:TrackPointExtension>
        </extensions>
      </trkpt>
      <trkpt lat="43.77538542263209819793701171875" lon="1.57351179979741573333740234375">
        <ele>154.8000030517578125</ele>
        <time>2026-08-13T08:53:47.000Z</time>
        <extensions>
          <ns3:TrackPointExtension>
            <ns3:hr>90</ns3:hr>
            <ns3:cad>41</ns3:cad>
          </ns3:TrackPointExtension>
        </extensions>
      </trkpt>
      <trkpt lat="43.7753784656524658203125" lon="1.57350425608456134796142578125">
        <ele>154.8000030517578125</ele>
        <time>2026-08-13T08:53:48.000Z</time>
        <extensions>
          <ns3:TrackPointExtension>
            <ns3:hr>90</ns3:hr>
            <ns3:cad>41</ns3:cad>
          </ns3:TrackPointExtension>
        </extensions>
      </trkpt>
      <trkpt lat="43.77537067048251628875732421875" lon="1.57349905930459499359130859375">
        <ele>154.8000030517578125</ele>
        <time>2026-08-13T08:53:49.000Z</time>
        <extensions>
          <ns3:TrackPointExtension>
            <ns3:hr>91</ns3:hr>
            <ns3:cad>41</ns3:cad>
          </ns3:TrackPointExtension>
        </extensions>
      </trkpt>
      <trkpt lat="43.77535977400839328765869140625" lon="1.57348682172596454620361328125">
        <ele>154.8000030517578125</ele>
        <time>2026-08-13T08:53:50.000Z</time>
        <extensions>
          <ns3:TrackPointExtension>
            <ns3:hr>90</ns3:hr>
            <ns3:cad>44</ns3:cad>
          </ns3:TrackPointExtension>
        </extensions>
      </trkpt>
      <trkpt lat="43.7753487937152385711669921875" lon="1.5734731592237949371337890625">
        <ele>154.8000030517578125</ele>
        <time>2026-08-13T08:53:51.000Z</time>
        <extensions>
          <ns3:TrackPointExtension>
            <ns3:hr>90</ns3:hr>
            <ns3:cad>45</ns3:cad>
          </ns3:TrackPointExtension>
        </extensions>
      </trkpt>
      <trkpt lat="43.7753451056778430938720703125" lon="1.5734681300818920135498046875">
        <ele>154.8000030517578125</ele>
        <time>2026-08-13T08:53:52.000Z</time>
        <extensions>
          <ns3:TrackPointExtension>
            <ns3:hr>90</ns3:hr>
            <ns3:cad>45</ns3:cad>
          </ns3:TrackPointExtension>
        </extensions>
      </trkpt>
      <trkpt lat="43.77533814869821071624755859375" lon="1.57346092164516448974609375">
        <ele>154.8000030517578125</ele>
        <time>2026-08-13T08:53:53.000Z</time>
        <extensions>
          <ns3:TrackPointExtension>
            <ns3:hr>91</ns3:hr>
            <ns3:cad>45</ns3:cad>
          </ns3:TrackPointExtension>
        </extensions>
      </trkpt>
      <trkpt lat="43.77533110789954662322998046875" lon="1.57344625331461429595947265625">
        <ele>154.8000030517578125</ele>
        <time>2026-08-13T08:53:54.000Z</time>
        <extensions>
          <ns3:TrackPointExtension>
            <ns3:hr>91</ns3:hr>
            <ns3:cad>45</ns3:cad>
          </ns3:TrackPointExtension>
        </extensions>
      </trkpt>
      <trkpt lat="43.77532674930989742279052734375" lon="1.57343401573598384857177734375">
        <ele>155</ele>
        <time>2026-08-13T08:53:55.000Z</time>
        <extensions>
          <ns3:TrackPointExtension>
            <ns3:hr>92</ns3:hr>
            <ns3:cad>45</ns3:cad>
          </ns3:TrackPointExtension>
        </extensions>
      </trkpt>
      <trkpt lat="43.77532138489186763763427734375" lon="1.57342546619474887847900390625">
        <ele>155</ele>
        <time>2026-08-13T08:53:56.000Z</time>
        <extensions>
          <ns3:TrackPointExtension>
            <ns3:hr>95</ns3:hr>
            <ns3:cad>45</ns3:cad>
          </ns3:TrackPointExtension>
        </extensions>
      </trkpt>
      <trkpt lat="43.77531476318836212158203125" lon="1.573407612740993499755859375">
        <ele>155</ele>
        <time>2026-08-13T08:53:57.000Z</time>
        <extensions>
          <ns3:TrackPointExtension>
            <ns3:hr>96</ns3:hr>
            <ns3:cad>44</ns3:cad>
          </ns3:TrackPointExtension>
        </extensions>
      </trkpt>
      <trkpt lat="43.77530847676098346710205078125" lon="1.57339478842914104461669921875">
        <ele>155.1999969482421875</ele>
        <time>2026-08-13T08:53:58.000Z</time>
        <extensions>
          <ns3:TrackPointExtension>
            <ns3:hr>95</ns3:hr>
            <ns3:cad>44</ns3:cad>
          </ns3:TrackPointExtension>
        </extensions>
      </trkpt>
      <trkpt lat="43.7753072194755077362060546875" lon="1.57338523305952548980712890625">
        <ele>155.1999969482421875</ele>
        <time>2026-08-13T08:53:59.000Z</time>
        <extensions>
          <ns3:TrackPointExtension>
            <ns3:hr>95</ns3:hr>
            <ns3:cad>44</ns3:cad>
          </ns3:TrackPointExtension>
        </extensions>
      </trkpt>
      <trkpt lat="43.77530478872358798980712890625" lon="1.573372744023799896240234375">
        <ele>155.399993896484375</ele>
        <time>2026-08-13T08:54:00.000Z</time>
        <extensions>
          <ns3:TrackPointExtension>
            <ns3:hr>96</ns3:hr>
            <ns3:cad>44</ns3:cad>
          </ns3:TrackPointExtension>
        </extensions>
      </trkpt>
      <trkpt lat="43.775298334658145904541015625" lon="1.57336377538740634918212890625">
        <ele>155.399993896484375</ele>
        <time>2026-08-13T08:54:01.000Z</time>
        <extensions>
          <ns3:TrackPointExtension>
            <ns3:hr>96</ns3:hr>
            <ns3:cad>43</ns3:cad>
          </ns3:TrackPointExtension>
        </extensions>
      </trkpt>
      <trkpt lat="43.7752860970795154571533203125" lon="1.57335841096937656402587890625">
        <ele>155.399993896484375</ele>
        <time>2026-08-13T08:54:02.000Z</time>
        <extensions>
          <ns3:TrackPointExtension>
            <ns3:hr>96</ns3:hr>
            <ns3:cad>43</ns3:cad>
          </ns3:TrackPointExtension>
        </extensions>
      </trkpt>
      <trkpt lat="43.77528098411858081817626953125" lon="1.57335053198039531707763671875">
        <ele>155.399993896484375</ele>
        <time>2026-08-13T08:54:03.000Z</time>
        <extensions>
          <ns3:TrackPointExtension>
            <ns3:hr>96</ns3:hr>
            <ns3:cad>44</ns3:cad>
          </ns3:TrackPointExtension>
        </extensions>
      </trkpt>
      <trkpt lat="43.775278218090534210205078125" lon="1.5733497776091098785400390625">
        <ele>155.600006103515625</ele>
        <time>2026-08-13T08:54:04.000Z</time>
        <extensions>
          <ns3:TrackPointExtension>
            <ns3:hr>96</ns3:hr>
            <ns3:cad>45</ns3:cad>
          </ns3:TrackPointExtension>
        </extensions>
      </trkpt>
      <trkpt lat="43.77526472322642803192138671875" lon="1.57333846203982830047607421875">
        <ele>155.600006103515625</ele>
        <time>2026-08-13T08:54:05.000Z</time>
        <extensions>
          <ns3:TrackPointExtension>
            <ns3:hr>97</ns3:hr>
            <ns3:cad>45</ns3:cad>
          </ns3:TrackPointExtension>
        </extensions>
      </trkpt>
      <trkpt lat="43.77525516785681247711181640625" lon="1.57332940958440303802490234375">
        <ele>155.600006103515625</ele>
        <time>2026-08-13T08:54:06.000Z</time>
        <extensions>
          <ns3:TrackPointExtension>
            <ns3:hr>97</ns3:hr>
            <ns3:cad>45</ns3:cad>
          </ns3:TrackPointExtension>
        </extensions>
      </trkpt>
      <trkpt lat="43.7752497196197509765625" lon="1.573322452604770660400390625">
        <ele>155.600006103515625</ele>
        <time>2026-08-13T08:54:07.000Z</time>
        <extensions>
          <ns3:TrackPointExtension>
            <ns3:hr>96</ns3:hr>
            <ns3:cad>44</ns3:cad>
          </ns3:TrackPointExtension>
        </extensions>
      </trkpt>
      <trkpt lat="43.77524058334529399871826171875" lon="1.573309041559696197509765625">
        <ele>155.600006103515625</ele>
        <time>2026-08-13T08:54:08.000Z</time>
        <extensions>
          <ns3:TrackPointExtension>
            <ns3:hr>96</ns3:hr>
            <ns3:cad>44</ns3:cad>
          </ns3:TrackPointExtension>
        </extensions>
      </trkpt>
      <trkpt lat="43.77523203380405902862548828125" lon="1.57329537905752658843994140625">
        <ele>155.8000030517578125</ele>
        <time>2026-08-13T08:54:09.000Z</time>
        <extensions>
          <ns3:TrackPointExtension>
            <ns3:hr>96</ns3:hr>
            <ns3:cad>44</ns3:cad>
          </ns3:TrackPointExtension>
        </extensions>
      </trkpt>
      <trkpt lat="43.77522532828152179718017578125" lon="1.57328389585018157958984375">
        <ele>155.8000030517578125</ele>
        <time>2026-08-13T08:54:10.000Z</time>
        <extensions>
          <ns3:TrackPointExtension>
            <ns3:hr>95</ns3:hr>
            <ns3:cad>44</ns3:cad>
          </ns3:TrackPointExtension>
        </extensions>
      </trkpt>
      <trkpt lat="43.775221891701221466064453125" lon="1.5732743404805660247802734375">
        <ele>155.8000030517578125</ele>
        <time>2026-08-13T08:54:11.000Z</time>
        <extensions>
          <ns3:TrackPointExtension>
            <ns3:hr>94</ns3:hr>
            <ns3:cad>43</ns3:cad>
          </ns3:TrackPointExtension>
        </extensions>
      </trkpt>
      <trkpt lat="43.7752156890928745269775390625" lon="1.5732537209987640380859375">
        <ele>155.8000030517578125</ele>
        <time>2026-08-13T08:54:12.000Z</time>
        <extensions>
          <ns3:TrackPointExtension>
            <ns3:hr>93</ns3:hr>
            <ns3:cad>43</ns3:cad>
          </ns3:TrackPointExtension>
        </extensions>
      </trkpt>
      <trkpt lat="43.77521225251257419586181640625" lon="1.5732414834201335906982421875">
        <ele>155.8000030517578125</ele>
        <time>2026-08-13T08:54:13.000Z</time>
        <extensions>
          <ns3:TrackPointExtension>
            <ns3:hr>94</ns3:hr>
            <ns3:cad>43</ns3:cad>
          </ns3:TrackPointExtension>
        </extensions>
      </trkpt>
      <trkpt lat="43.7752103246748447418212890625" lon="1.57323033548891544342041015625">
        <ele>156</ele>
        <time>2026-08-13T08:54:14.000Z</time>
        <extensions>
          <ns3:TrackPointExtension>
            <ns3:hr>95</ns3:hr>
            <ns3:cad>43</ns3:cad>
          </ns3:TrackPointExtension>
        </extensions>
      </trkpt>
      <trkpt lat="43.77520957030355930328369140625" lon="1.5732203610241413116455078125">
        <ele>156</ele>
        <time>2026-08-13T08:54:15.000Z</time>
        <extensions>
          <ns3:TrackPointExtension>
            <ns3:hr>95</ns3:hr>
            <ns3:cad>43</ns3:cad>
          </ns3:TrackPointExtension>
        </extensions>
      </trkpt>
      <trkpt lat="43.7752106599509716033935546875" lon="1.57319982536137104034423828125">
        <ele>156.1999969482421875</ele>
        <time>2026-08-13T08:54:16.000Z</time>
        <extensions>
          <ns3:TrackPointExtension>
            <ns3:hr>95</ns3:hr>
            <ns3:cad>44</ns3:cad>
          </ns3:TrackPointExtension>
        </extensions>
      </trkpt>
      <trkpt lat="43.77520747482776641845703125" lon="1.5731878392398357391357421875">
        <ele>156.1999969482421875</ele>
        <time>2026-08-13T08:54:17.000Z</time>
        <extensions>
          <ns3:TrackPointExtension>
            <ns3:hr>95</ns3:hr>
            <ns3:cad>44</ns3:cad>
          </ns3:TrackPointExtension>
        </extensions>
      </trkpt>
      <trkpt lat="43.775209486484527587890625" lon="1.57318004406988620758056640625">
        <ele>156.1999969482421875</ele>
        <time>2026-08-13T08:54:18.000Z</time>
        <extensions>
          <ns3:TrackPointExtension>
            <ns3:hr>95</ns3:hr>
            <ns3:cad>44</ns3:cad>
          </ns3:TrackPointExtension>
        </extensions>
      </trkpt>
      <trkpt lat="43.77520588226616382598876953125" lon="1.5731767751276493072509765625">
        <ele>156.399993896484375</ele>
        <time>2026-08-13T08:54:19.000Z</time>
        <extensions>
          <ns3:TrackPointExtension>
            <ns3:hr>94</ns3:hr>
            <ns3:cad>44</ns3:cad>
          </ns3:TrackPointExtension>
        </extensions>
      </trkpt>
      <trkpt lat="43.77520613372325897216796875" lon="1.57315875403583049774169921875">
        <ele>156.399993896484375</ele>
        <time>2026-08-13T08:54:20.000Z</time>
        <extensions>
          <ns3:TrackPointExtension>
            <ns3:hr>94</ns3:hr>
            <ns3:cad>44</ns3:cad>
          </ns3:TrackPointExtension>
        </extensions>
      </trkpt>
      <trkpt lat="43.77521007321774959564208984375" lon="1.57314215786755084991455078125">
        <ele>156.600006103515625</ele>
        <time>2026-08-13T08:54:21.000Z</time>
        <extensions>
          <ns3:TrackPointExtension>
            <ns3:hr>93</ns3:hr>
            <ns3:cad>0</ns3:cad>
          </ns3:TrackPointExtension>
        </extensions>
      </trkpt>
      <trkpt lat="43.77521392889320850372314453125" lon="1.57312505878508090972900390625">
        <ele>156.600006103515625</ele>
        <time>2026-08-13T08:54:22.000Z</time>
        <extensions>
          <ns3:TrackPointExtension>
            <ns3:hr>93</ns3:hr>
            <ns3:cad>0</ns3:cad>
          </ns3:TrackPointExtension>
        </extensions>
      </trkpt>
      <trkpt lat="43.7752156890928745269775390625" lon="1.5731137432157993316650390625">
        <ele>156.8000030517578125</ele>
        <time>2026-08-13T08:54:23.000Z</time>
        <extensions>
          <ns3:TrackPointExtension>
            <ns3:hr>93</ns3:hr>
            <ns3:cad>0</ns3:cad>
          </ns3:TrackPointExtension>
        </extensions>
      </trkpt>
      <trkpt lat="43.77521644346415996551513671875" lon="1.573102511465549468994140625">
        <ele>156.8000030517578125</ele>
        <time>2026-08-13T08:54:24.000Z</time>
        <extensions>
          <ns3:TrackPointExtension>
            <ns3:hr>94</ns3:hr>
            <ns3:cad>0</ns3:cad>
          </ns3:TrackPointExtension>
        </extensions>
      </trkpt>
      <trkpt lat="43.775220215320587158203125" lon="1.57308784313499927520751953125">
        <ele>156.8000030517578125</ele>
        <time>2026-08-13T08:54:25.000Z</time>
        <extensions>
          <ns3:TrackPointExtension>
            <ns3:hr>94</ns3:hr>
            <ns3:cad>0</ns3:cad>
          </ns3:TrackPointExtension>
        </extensions>
      </trkpt>
      <trkpt lat="43.7752237357199192047119140625" lon="1.5730738453567028045654296875">
        <ele>157</ele>
        <time>2026-08-13T08:54:26.000Z</time>
        <extensions>
          <ns3:TrackPointExtension>
            <ns3:hr>94</ns3:hr>
            <ns3:cad>47</ns3:cad>
          </ns3:TrackPointExtension>
        </extensions>
      </trkpt>
      <trkpt lat="43.775226585566997528076171875" lon="1.5730647929012775421142578125">
        <ele>157</ele>
        <time>2026-08-13T08:54:27.000Z</time>
        <extensions>
          <ns3:TrackPointExtension>
            <ns3:hr>94</ns3:hr>
            <ns3:cad>48</ns3:cad>
          </ns3:TrackPointExtension>
        </extensions>
      </trkpt>
      <trkpt lat="43.77522901631891727447509765625" lon="1.57305498607456684112548828125">
        <ele>157</ele>
        <time>2026-08-13T08:54:28.000Z</time>
        <extensions>
          <ns3:TrackPointExtension>
            <ns3:hr>95</ns3:hr>
            <ns3:cad>48</ns3:cad>
          </ns3:TrackPointExtension>
        </extensions>
      </trkpt>
      <trkpt lat="43.775230944156646728515625" lon="1.57305096276104450225830078125">
        <ele>157.1999969482421875</ele>
        <time>2026-08-13T08:54:29.000Z</time>
        <extensions>
          <ns3:TrackPointExtension>
            <ns3:hr>96</ns3:hr>
            <ns3:cad>46</ns3:cad>
          </ns3:TrackPointExtension>
        </extensions>
      </trkpt>
      <trkpt lat="43.7752334587275981903076171875" lon="1.57304425723850727081298828125">
        <ele>157.1999969482421875</ele>
        <time>2026-08-13T08:54:30.000Z</time>
        <extensions>
          <ns3:TrackPointExtension>
            <ns3:hr>97</ns3:hr>
            <ns3:cad>46</ns3:cad>
          </ns3:TrackPointExtension>
        </extensions>
      </trkpt>
      <trkpt lat="43.7752376496791839599609375" lon="1.573033444583415985107421875">
        <ele>157.399993896484375</ele>
        <time>2026-08-13T08:54:31.000Z</time>
        <extensions>
          <ns3:TrackPointExtension>
            <ns3:hr>96</ns3:hr>
            <ns3:cad>46</ns3:cad>
          </ns3:TrackPointExtension>
        </extensions>
      </trkpt>
      <trkpt lat="43.77523656003177165985107421875" lon="1.57302028499543666839599609375">
        <ele>157.399993896484375</ele>
        <time>2026-08-13T08:54:32.000Z</time>
        <extensions>
          <ns3:TrackPointExtension>
            <ns3:hr>96</ns3:hr>
            <ns3:cad>46</ns3:cad>
          </ns3:TrackPointExtension>
        </extensions>
      </trkpt>
      <trkpt lat="43.7752431817352771759033203125" lon="1.57300016842782497406005859375">
        <ele>157.399993896484375</ele>
        <time>2026-08-13T08:54:33.000Z</time>
        <extensions>
          <ns3:TrackPointExtension>
            <ns3:hr>96</ns3:hr>
            <ns3:cad>45</ns3:cad>
          </ns3:TrackPointExtension>
        </extensions>
      </trkpt>
      <trkpt lat="43.77524108625948429107666015625" lon="1.5729863382875919342041015625">
        <ele>157.600006103515625</ele>
        <time>2026-08-13T08:54:34.000Z</time>
        <extensions>
          <ns3:TrackPointExtension>
            <ns3:hr>96</ns3:hr>
            <ns3:cad>45</ns3:cad>
          </ns3:TrackPointExtension>
        </extensions>
      </trkpt>
      <trkpt lat="43.775245361030101776123046875" lon="1.5729756094515323638916015625">
        <ele>157.600006103515625</ele>
        <time>2026-08-13T08:54:35.000Z</time>
        <extensions>
          <ns3:TrackPointExtension>
            <ns3:hr>95</ns3:hr>
            <ns3:cad>45</ns3:cad>
          </ns3:TrackPointExtension>
        </extensions>
      </trkpt>
      <trkpt lat="43.7752455286681652069091796875" lon="1.57296529971063137054443359375">
        <ele>157.8000030517578125</ele>
        <time>2026-08-13T08:54:36.000Z</time>
        <extensions>
          <ns3:TrackPointExtension>
            <ns3:hr>95</ns3:hr>
            <ns3:cad>45</ns3:cad>
          </ns3:TrackPointExtension>
        </extensions>
      </trkpt>
      <trkpt lat="43.7752472050487995147705078125" lon="1.57295398414134979248046875">
        <ele>157.8000030517578125</ele>
        <time>2026-08-13T08:54:37.000Z</time>
        <extensions>
          <ns3:TrackPointExtension>
            <ns3:hr>94</ns3:hr>
            <ns3:cad>0</ns3:cad>
          </ns3:TrackPointExtension>
        </extensions>
      </trkpt>
      <trkpt lat="43.7752482108771800994873046875" lon="1.57294568605720996856689453125">
        <ele>157.8000030517578125</ele>
        <time>2026-08-13T08:54:38.000Z</time>
        <extensions>
          <ns3:TrackPointExtension>
            <ns3:hr>94</ns3:hr>
            <ns3:cad>0</ns3:cad>
          </ns3:TrackPointExtension>
        </extensions>
      </trkpt>
      <trkpt lat="43.7752502225339412689208984375" lon="1.57293227501213550567626953125">
        <ele>158</ele>
        <time>2026-08-13T08:54:39.000Z</time>
        <extensions>
          <ns3:TrackPointExtension>
            <ns3:hr>95</ns3:hr>
            <ns3:cad>0</ns3:cad>
          </ns3:TrackPointExtension>
        </extensions>
      </trkpt>
      <trkpt lat="43.77525173127651214599609375" lon="1.57292389310896396636962890625">
        <ele>158</ele>
        <time>2026-08-13T08:54:40.000Z</time>
        <extensions>
          <ns3:TrackPointExtension>
            <ns3:hr>95</ns3:hr>
            <ns3:cad>0</ns3:cad>
          </ns3:TrackPointExtension>
        </extensions>
      </trkpt>
      <trkpt lat="43.77525734715163707733154296875" lon="1.572910062968730926513671875">
        <ele>158</ele>
        <time>2026-08-13T08:54:41.000Z</time>
        <extensions>
          <ns3:TrackPointExtension>
            <ns3:hr>95</ns3:hr>
            <ns3:cad>41</ns3:cad>
          </ns3:TrackPointExtension>
        </extensions>
      </trkpt>
      <trkpt lat="43.77526220865547657012939453125" lon="1.57290025614202022552490234375">
        <ele>158</ele>
        <time>2026-08-13T08:54:42.000Z</time>
        <extensions>
          <ns3:TrackPointExtension>
            <ns3:hr>95</ns3:hr>
            <ns3:cad>73</ns3:cad>
          </ns3:TrackPointExtension>
        </extensions>
      </trkpt>
      <trkpt lat="43.77526405267417430877685546875" lon="1.57289405353367328643798828125">
        <ele>158.1999969482421875</ele>
        <time>2026-08-13T08:54:43.000Z</time>
        <extensions>
          <ns3:TrackPointExtension>
            <ns3:hr>96</ns3:hr>
            <ns3:cad>74</ns3:cad>
          </ns3:TrackPointExtension>
        </extensions>
      </trkpt>
      <trkpt lat="43.775268830358982086181640625" lon="1.57288424670696258544921875">
        <ele>158.1999969482421875</ele>
        <time>2026-08-13T08:54:44.000Z</time>
        <extensions>
          <ns3:TrackPointExtension>
            <ns3:hr>96</ns3:hr>
            <ns3:cad>78</ns3:cad>
          </ns3:TrackPointExtension>
        </extensions>
      </trkpt>
      <trkpt lat="43.775278218090534210205078125" lon="1.57287091948091983795166015625">
        <ele>158.399993896484375</ele>
        <time>2026-08-13T08:54:45.000Z</time>
        <extensions>
          <ns3:TrackPointExtension>
            <ns3:hr>96</ns3:hr>
            <ns3:cad>78</ns3:cad>
          </ns3:TrackPointExtension>
        </extensions>
      </trkpt>
      <trkpt lat="43.77528500743210315704345703125" lon="1.5728636272251605987548828125">
        <ele>158.399993896484375</ele>
        <time>2026-08-13T08:54:46.000Z</time>
        <extensions>
          <ns3:TrackPointExtension>
            <ns3:hr>97</ns3:hr>
            <ns3:cad>78</ns3:cad>
          </ns3:TrackPointExtension>
        </extensions>
      </trkpt>
      <trkpt lat="43.77528701908886432647705078125" lon="1.57285851426422595977783203125">
        <ele>158.600006103515625</ele>
        <time>2026-08-13T08:54:47.000Z</time>
        <extensions>
          <ns3:TrackPointExtension>
            <ns3:hr>98</ns3:hr>
            <ns3:cad>78</ns3:cad>
          </ns3:TrackPointExtension>
        </extensions>
      </trkpt>
      <trkpt lat="43.7752924673259258270263671875" lon="1.57284812070429325103759765625">
        <ele>158.600006103515625</ele>
        <time>2026-08-13T08:54:48.000Z</time>
        <extensions>
          <ns3:TrackPointExtension>
            <ns3:hr>99</ns3:hr>
            <ns3:cad>78</ns3:cad>
          </ns3:TrackPointExtension>
        </extensions>
      </trkpt>
      <trkpt lat="43.77530026249587535858154296875" lon="1.57283236272633075714111328125">
        <ele>158.8000030517578125</ele>
        <time>2026-08-13T08:54:49.000Z</time>
        <extensions>
          <ns3:TrackPointExtension>
            <ns3:hr>99</ns3:hr>
            <ns3:cad>76</ns3:cad>
          </ns3:TrackPointExtension>
        </extensions>
      </trkpt>
      <trkpt lat="43.7753028608858585357666015625" lon="1.57282900996506214141845703125">
        <ele>158.8000030517578125</ele>
        <time>2026-08-13T08:54:50.000Z</time>
        <extensions>
          <ns3:TrackPointExtension>
            <ns3:hr>100</ns3:hr>
            <ns3:cad>76</ns3:cad>
          </ns3:TrackPointExtension>
        </extensions>
      </trkpt>
      <trkpt lat="43.7753109075129032135009765625" lon="1.57281962223351001739501953125">
        <ele>159</ele>
        <time>2026-08-13T08:54:51.000Z</time>
        <extensions>
          <ns3:TrackPointExtension>
            <ns3:hr>100</ns3:hr>
            <ns3:cad>76</ns3:cad>
          </ns3:TrackPointExtension>
        </extensions>
      </trkpt>
      <trkpt lat="43.7753243185579776763916015625" lon="1.57280889339745044708251953125">
        <ele>159</ele>
        <time>2026-08-13T08:54:52.000Z</time>
        <extensions>
          <ns3:TrackPointExtension>
            <ns3:hr>101</ns3:hr>
            <ns3:cad>76</ns3:cad>
          </ns3:TrackPointExtension>
        </extensions>
      </trkpt>
      <trkpt lat="43.77532809041440486907958984375" lon="1.5727962367236614227294921875">
        <ele>159.1999969482421875</ele>
        <time>2026-08-13T08:54:53.000Z</time>
        <extensions>
          <ns3:TrackPointExtension>
            <ns3:hr>102</ns3:hr>
            <ns3:cad>44</ns3:cad>
          </ns3:TrackPointExtension>
        </extensions>
      </trkpt>
      <trkpt lat="43.7753355503082275390625" lon="1.5727950632572174072265625">
        <ele>159.1999969482421875</ele>
        <time>2026-08-13T08:54:54.000Z</time>
        <extensions>
          <ns3:TrackPointExtension>
            <ns3:hr>102</ns3:hr>
            <ns3:cad>44</ns3:cad>
          </ns3:TrackPointExtension>
        </extensions>
      </trkpt>
      <trkpt lat="43.775349967181682586669921875" lon="1.57278659753501415252685546875">
        <ele>159.399993896484375</ele>
        <time>2026-08-13T08:54:55.000Z</time>
        <extensions>
          <ns3:TrackPointExtension>
            <ns3:hr>102</ns3:hr>
            <ns3:cad>44</ns3:cad>
          </ns3:TrackPointExtension>
        </extensions>
      </trkpt>
      <trkpt lat="43.77535843290388584136962890625" lon="1.57277737744152545928955078125">
        <ele>159.399993896484375</ele>
        <time>2026-08-13T08:54:56.000Z</time>
        <extensions>
          <ns3:TrackPointExtension>
            <ns3:hr>102</ns3:hr>
            <ns3:cad>43</ns3:cad>
          </ns3:TrackPointExtension>
        </extensions>
      </trkpt>
      <trkpt lat="43.77536379732191562652587890625" lon="1.5727670677006244659423828125">
        <ele>159.600006103515625</ele>
        <time>2026-08-13T08:54:57.000Z</time>
        <extensions>
          <ns3:TrackPointExtension>
            <ns3:hr>102</ns3:hr>
            <ns3:cad>43</ns3:cad>
          </ns3:TrackPointExtension>
        </extensions>
      </trkpt>
      <trkpt lat="43.7753638811409473419189453125" lon="1.57276061363518238067626953125">
        <ele>159.600006103515625</ele>
        <time>2026-08-13T08:54:58.000Z</time>
        <extensions>
          <ns3:TrackPointExtension>
            <ns3:hr>102</ns3:hr>
            <ns3:cad>43</ns3:cad>
          </ns3:TrackPointExtension>
        </extensions>
      </trkpt>
      <trkpt lat="43.77537100575864315032958984375" lon="1.57274720259010791778564453125">
        <ele>159.8000030517578125</ele>
        <time>2026-08-13T08:54:59.000Z</time>
        <extensions>
          <ns3:TrackPointExtension>
            <ns3:hr>102</ns3:hr>
            <ns3:cad>43</ns3:cad>
          </ns3:TrackPointExtension>
        </extensions>
      </trkpt>
      <trkpt lat="43.7753779627382755279541015625" lon="1.572736389935016632080078125">
        <ele>159.8000030517578125</ele>
        <time>2026-08-13T08:55:00.000Z</time>
        <extensions>
          <ns3:TrackPointExtension>
            <ns3:hr>102</ns3:hr>
            <ns3:cad>0</ns3:cad>
          </ns3:TrackPointExtension>
        </extensions>
      </trkpt>
      <trkpt lat="43.7753813154995441436767578125" lon="1.57272708602249622344970703125">
        <ele>160</ele>
        <time>2026-08-13T08:55:01.000Z</time>
        <extensions>
          <ns3:TrackPointExtension>
            <ns3:hr>103</ns3:hr>
            <ns3:cad>0</ns3:cad>
          </ns3:TrackPointExtension>
        </extensions>
      </trkpt>
      <trkpt lat="43.7753798067569732666015625" lon="1.5727207995951175689697265625">
        <ele>160</ele>
        <time>2026-08-13T08:55:02.000Z</time>
        <extensions>
          <ns3:TrackPointExtension>
            <ns3:hr>103</ns3:hr>
            <ns3:cad>0</ns3:cad>
          </ns3:TrackPointExtension>
        </extensions>
      </trkpt>
      <trkpt lat="43.7753883562982082366943359375" lon="1.57270378433167934417724609375">
        <ele>160.1999969482421875</ele>
        <time>2026-08-13T08:55:03.000Z</time>
        <extensions>
          <ns3:TrackPointExtension>
            <ns3:hr>103</ns3:hr>
            <ns3:cad>0</ns3:cad>
          </ns3:TrackPointExtension>
        </extensions>
      </trkpt>
      <trkpt lat="43.7753959000110626220703125" lon="1.5726912952959537506103515625">
        <ele>160.1999969482421875</ele>
        <time>2026-08-13T08:55:04.000Z</time>
        <extensions>
          <ns3:TrackPointExtension>
            <ns3:hr>104</ns3:hr>
            <ns3:cad>0</ns3:cad>
          </ns3:TrackPointExtension>
        </extensions>
      </trkpt>
      <trkpt lat="43.7754014320671558380126953125" lon="1.57268249429762363433837890625">
        <ele>160.399993896484375</ele>
        <time>2026-08-13T08:55:05.000Z</time>
        <extensions>
          <ns3:TrackPointExtension>
            <ns3:hr>104</ns3:hr>
            <ns3:cad>0</ns3:cad>
          </ns3:TrackPointExtension>
        </extensions>
      </trkpt>
      <trkpt lat="43.77540553919970989227294921875" lon="1.5726738609373569488525390625">
        <ele>160.399993896484375</ele>
        <time>2026-08-13T08:55:06.000Z</time>
        <extensions>
          <ns3:TrackPointExtension>
            <ns3:hr>104</ns3:hr>
            <ns3:cad>0</ns3:cad>
          </ns3:TrackPointExtension>
        </extensions>
      </trkpt>
      <trkpt lat="43.77542230300605297088623046875" lon="1.57267126254737377166748046875">
        <ele>160.600006103515625</ele>
        <time>2026-08-13T08:55:07.000Z</time>
        <extensions>
          <ns3:TrackPointExtension>
            <ns3:hr>104</ns3:hr>
            <ns3:cad>0</ns3:cad>
          </ns3:TrackPointExtension>
        </extensions>
      </trkpt>
      <trkpt lat="43.77542967908084392547607421875" lon="1.57266505993902683258056640625">
        <ele>160.600006103515625</ele>
        <time>2026-08-13T08:55:08.000Z</time>
        <extensions>
          <ns3:TrackPointExtension>
            <ns3:hr>103</ns3:hr>
            <ns3:cad>0</ns3:cad>
          </ns3:TrackPointExtension>
        </extensions>
      </trkpt>
      <trkpt lat="43.775427080690860748291015625" lon="1.5726570971310138702392578125">
        <ele>160.600006103515625</ele>
        <time>2026-08-13T08:55:09.000Z</time>
        <extensions>
          <ns3:TrackPointExtension>
            <ns3:hr>103</ns3:hr>
            <ns3:cad>0</ns3:cad>
          </ns3:TrackPointExtension>
        </extensions>
      </trkpt>
      <trkpt lat="43.77543923445045948028564453125" lon="1.57264594919979572296142578125">
        <ele>160.600006103515625</ele>
        <time>2026-08-13T08:55:10.000Z</time>
        <extensions>
          <ns3:TrackPointExtension>
            <ns3:hr>103</ns3:hr>
            <ns3:cad>44</ns3:cad>
          </ns3:TrackPointExtension>
        </extensions>
      </trkpt>
      <trkpt lat="43.7754446826875209808349609375" lon="1.57264108769595623016357421875">
        <ele>160.8000030517578125</ele>
        <time>2026-08-13T08:55:11.000Z</time>
        <extensions>
          <ns3:TrackPointExtension>
            <ns3:hr>103</ns3:hr>
            <ns3:cad>44</ns3:cad>
          </ns3:TrackPointExtension>
        </extensions>
      </trkpt>
      <trkpt lat="43.77545046620070934295654296875" lon="1.57263639383018016815185546875">
        <ele>160.8000030517578125</ele>
        <time>2026-08-13T08:55:12.000Z</time>
        <extensions>
          <ns3:TrackPointExtension>
            <ns3:hr>102</ns3:hr>
            <ns3:cad>44</ns3:cad>
          </ns3:TrackPointExtension>
        </extensions>
      </trkpt>
      <trkpt lat="43.77546018920838832855224609375" lon="1.57262767665088176727294921875">
        <ele>161</ele>
        <time>2026-08-13T08:55:13.000Z</time>
        <extensions>
          <ns3:TrackPointExtension>
            <ns3:hr>102</ns3:hr>
            <ns3:cad>44</ns3:cad>
          </ns3:TrackPointExtension>
        </extensions>
      </trkpt>
      <trkpt lat="43.7754641287028789520263671875" lon="1.57262398861348628997802734375">
        <ele>161</ele>
        <time>2026-08-13T08:55:14.000Z</time>
        <extensions>
          <ns3:TrackPointExtension>
            <ns3:hr>102</ns3:hr>
            <ns3:cad>40</ns3:cad>
          </ns3:TrackPointExtension>
        </extensions>
      </trkpt>
      <trkpt lat="43.77546899020671844482421875" lon="1.5726222284138202667236328125">
        <ele>161.1999969482421875</ele>
        <time>2026-08-13T08:55:15.000Z</time>
        <extensions>
          <ns3:TrackPointExtension>
            <ns3:hr>102</ns3:hr>
            <ns3:cad>40</ns3:cad>
          </ns3:TrackPointExtension>
        </extensions>
      </trkpt>
      <trkpt lat="43.7754735164344310760498046875" lon="1.57262365333735942840576171875">
        <ele>161.1999969482421875</ele>
        <time>2026-08-13T08:55:16.000Z</time>
        <extensions>
          <ns3:TrackPointExtension>
            <ns3:hr>102</ns3:hr>
            <ns3:cad>0</ns3:cad>
          </ns3:TrackPointExtension>
        </extensions>
      </trkpt>
      <trkpt lat="43.775474019348621368408203125" lon="1.5726242400705814361572265625">
        <ele>161.1999969482421875</ele>
        <time>2026-08-13T08:55:17.000Z</time>
        <extensions>
          <ns3:TrackPointExtension>
            <ns3:hr>103</ns3:hr>
            <ns3:cad>0</ns3:cad>
          </ns3:TrackPointExtension>
        </extensions>
      </trkpt>
      <trkpt lat="43.77547494135797023773193359375" lon="1.57262264750897884368896484375">
        <ele>161.1999969482421875</ele>
        <time>2026-08-13T08:55:18.000Z</time>
        <extensions>
          <ns3:TrackPointExtension>
            <ns3:hr>103</ns3:hr>
            <ns3:cad>0</ns3:cad>
          </ns3:TrackPointExtension>
        </extensions>
      </trkpt>
      <trkpt lat="43.77547259442508220672607421875" lon="1.57261610962450504302978515625">
        <ele>161.1999969482421875</ele>
        <time>2026-08-13T08:55:19.000Z</time>
        <extensions>
          <ns3:TrackPointExtension>
            <ns3:hr>105</ns3:hr>
            <ns3:cad>0</ns3:cad>
          </ns3:TrackPointExtension>
        </extensions>
      </trkpt>
      <trkpt lat="43.77546890638768672943115234375" lon="1.57261543907225131988525390625">
        <ele>161.399993896484375</ele>
        <time>2026-08-13T08:55:20.000Z</time>
        <extensions>
          <ns3:TrackPointExtension>
            <ns3:hr>106</ns3:hr>
            <ns3:cad>0</ns3:cad>
          </ns3:TrackPointExtension>
        </extensions>
      </trkpt>
      <trkpt lat="43.77546773292124271392822265625" lon="1.572608314454555511474609375">
        <ele>161.399993896484375</ele>
        <time>2026-08-13T08:55:21.000Z</time>
        <extensions>
          <ns3:TrackPointExtension>
            <ns3:hr>106</ns3:hr>
            <ns3:cad>0</ns3:cad>
          </ns3:TrackPointExtension>
        </extensions>
      </trkpt>
      <trkpt lat="43.77546672709286212921142578125" lon="1.57259632833302021026611328125">
        <ele>161.399993896484375</ele>
        <time>2026-08-13T08:55:22.000Z</time>
        <extensions>
          <ns3:TrackPointExtension>
            <ns3:hr>105</ns3:hr>
            <ns3:cad>0</ns3:cad>
          </ns3:TrackPointExtension>
        </extensions>
      </trkpt>
      <trkpt lat="43.7754644639790058135986328125" lon="1.5725769661366939544677734375">
        <ele>161.399993896484375</ele>
        <time>2026-08-13T08:55:23.000Z</time>
        <extensions>
          <ns3:TrackPointExtension>
            <ns3:hr>102</ns3:hr>
            <ns3:cad>0</ns3:cad>
          </ns3:TrackPointExtension>
        </extensions>
      </trkpt>
      <trkpt lat="43.77545935101807117462158203125" lon="1.5725652314722537994384765625">
        <ele>161.399993896484375</ele>
        <time>2026-08-13T08:55:24.000Z</time>
        <extensions>
          <ns3:TrackPointExtension>
            <ns3:hr>99</ns3:hr>
            <ns3:cad>0</ns3:cad>
          </ns3:TrackPointExtension>
        </extensions>
      </trkpt>
      <trkpt lat="43.77545733936131000518798828125" lon="1.57255508936941623687744140625">
        <ele>161.399993896484375</ele>
        <time>2026-08-13T08:55:25.000Z</time>
        <extensions>
          <ns3:TrackPointExtension>
            <ns3:hr>97</ns3:hr>
            <ns3:cad>0</ns3:cad>
          </ns3:TrackPointExtension>
        </extensions>
      </trkpt>
      <trkpt lat="43.77545096911489963531494140625" lon="1.57254402525722980499267578125">
        <ele>161.399993896484375</ele>
        <time>2026-08-13T08:55:26.000Z</time>
        <extensions>
          <ns3:TrackPointExtension>
            <ns3:hr>96</ns3:hr>
            <ns3:cad>45</ns3:cad>
          </ns3:TrackPointExtension>
        </extensions>
      </trkpt>
      <trkpt lat="43.7754426710307598114013671875" lon="1.57253715209662914276123046875">
        <ele>161.1999969482421875</ele>
        <time>2026-08-13T08:55:27.000Z</time>
        <extensions>
          <ns3:TrackPointExtension>
            <ns3:hr>95</ns3:hr>
            <ns3:cad>45</ns3:cad>
          </ns3:TrackPointExtension>
        </extensions>
      </trkpt>
      <trkpt lat="43.7754379771649837493896484375" lon="1.57253019511699676513671875">
        <ele>161.399993896484375</ele>
        <time>2026-08-13T08:55:28.000Z</time>
        <extensions>
          <ns3:TrackPointExtension>
            <ns3:hr>95</ns3:hr>
            <ns3:cad>45</ns3:cad>
          </ns3:TrackPointExtension>
        </extensions>
      </trkpt>
      <trkpt lat="43.7754319421947002410888671875" lon="1.57252323813736438751220703125">
        <ele>161.399993896484375</ele>
        <time>2026-08-13T08:55:29.000Z</time>
        <extensions>
          <ns3:TrackPointExtension>
            <ns3:hr>95</ns3:hr>
            <ns3:cad>43</ns3:cad>
          </ns3:TrackPointExtension>
        </extensions>
      </trkpt>
      <trkpt lat="43.7754245661199092864990234375" lon="1.5725125931203365325927734375">
        <ele>161.1999969482421875</ele>
        <time>2026-08-13T08:55:30.000Z</time>
        <extensions>
          <ns3:TrackPointExtension>
            <ns3:hr>95</ns3:hr>
            <ns3:cad>42</ns3:cad>
          </ns3:TrackPointExtension>
        </extensions>
      </trkpt>
      <trkpt lat="43.77541643567383289337158203125" lon="1.57249792478978633880615234375">
        <ele>161.399993896484375</ele>
        <time>2026-08-13T08:55:31.000Z</time>
        <extensions>
          <ns3:TrackPointExtension>
            <ns3:hr>95</ns3:hr>
            <ns3:cad>42</ns3:cad>
          </ns3:TrackPointExtension>
        </extensions>
      </trkpt>
      <trkpt lat="43.7754138372838497161865234375" lon="1.57248987816274166107177734375">
        <ele>161.399993896484375</ele>
        <time>2026-08-13T08:55:32.000Z</time>
        <extensions>
          <ns3:TrackPointExtension>
            <ns3:hr>94</ns3:hr>
            <ns3:cad>42</ns3:cad>
          </ns3:TrackPointExtension>
        </extensions>
      </trkpt>
      <trkpt lat="43.7754118256270885467529296875" lon="1.57247143797576427459716796875">
        <ele>161.399993896484375</ele>
        <time>2026-08-13T08:55:33.000Z</time>
        <extensions>
          <ns3:TrackPointExtension>
            <ns3:hr>94</ns3:hr>
            <ns3:cad>42</ns3:cad>
          </ns3:TrackPointExtension>
        </extensions>
      </trkpt>
      <trkpt lat="43.7754094786942005157470703125" lon="1.57246439717710018157958984375">
        <ele>161.399993896484375</ele>
        <time>2026-08-13T08:55:34.000Z</time>
        <extensions>
          <ns3:TrackPointExtension>
            <ns3:hr>94</ns3:hr>
            <ns3:cad>42</ns3:cad>
          </ns3:TrackPointExtension>
        </extensions>
      </trkpt>
      <trkpt lat="43.77541006542742252349853515625" lon="1.57245970331132411956787109375">
        <ele>161.399993896484375</ele>
        <time>2026-08-13T08:55:35.000Z</time>
        <extensions>
          <ns3:TrackPointExtension>
            <ns3:hr>93</ns3:hr>
            <ns3:cad>43</ns3:cad>
          </ns3:TrackPointExtension>
        </extensions>
      </trkpt>
      <trkpt lat="43.7754114903509616851806640625" lon="1.5724435262382030487060546875">
        <ele>161.399993896484375</ele>
        <time>2026-08-13T08:55:36.000Z</time>
        <extensions>
          <ns3:TrackPointExtension>
            <ns3:hr>94</ns3:hr>
            <ns3:cad>43</ns3:cad>
          </ns3:TrackPointExtension>
        </extensions>
      </trkpt>
      <trkpt lat="43.7754088081419467926025390625" lon="1.5724329650402069091796875">
        <ele>161.600006103515625</ele>
        <time>2026-08-13T08:55:37.000Z</time>
        <extensions>
          <ns3:TrackPointExtension>
            <ns3:hr>94</ns3:hr>
            <ns3:cad>43</ns3:cad>
          </ns3:TrackPointExtension>
        </extensions>
      </trkpt>
      <trkpt lat="43.775409646332263946533203125" lon="1.57242567278444766998291015625">
        <ele>161.600006103515625</ele>
        <time>2026-08-13T08:55:38.000Z</time>
        <extensions>
          <ns3:TrackPointExtension>
            <ns3:hr>94</ns3:hr>
            <ns3:cad>41</ns3:cad>
          </ns3:TrackPointExtension>
        </extensions>
      </trkpt>
      <trkpt lat="43.7754101492464542388916015625" lon="1.57241083681583404541015625">
        <ele>161.600006103515625</ele>
        <time>2026-08-13T08:55:39.000Z</time>
        <extensions>
          <ns3:TrackPointExtension>
            <ns3:hr>94</ns3:hr>
            <ns3:cad>41</ns3:cad>
          </ns3:TrackPointExtension>
        </extensions>
      </trkpt>
      <trkpt lat="43.775411657989025115966796875" lon="1.57239935360848903656005859375">
        <ele>161.600006103515625</ele>
        <time>2026-08-13T08:55:40.000Z</time>
        <extensions>
          <ns3:TrackPointExtension>
            <ns3:hr>94</ns3:hr>
            <ns3:cad>40</ns3:cad>
          </ns3:TrackPointExtension>
        </extensions>
      </trkpt>
      <trkpt lat="43.7754128314554691314697265625" lon="1.57239348627626895904541015625">
        <ele>161.8000030517578125</ele>
        <time>2026-08-13T08:55:41.000Z</time>
        <extensions>
          <ns3:TrackPointExtension>
            <ns3:hr>93</ns3:hr>
            <ns3:cad>0</ns3:cad>
          </ns3:TrackPointExtension>
        </extensions>
      </trkpt>
      <trkpt lat="43.7754161842167377471923828125" lon="1.572389043867588043212890625">
        <ele>161.8000030517578125</ele>
        <time>2026-08-13T08:55:42.000Z</time>
        <extensions>
          <ns3:TrackPointExtension>
            <ns3:hr>93</ns3:hr>
            <ns3:cad>0</ns3:cad>
          </ns3:TrackPointExtension>
        </extensions>
      </trkpt>
      <trkpt lat="43.77541576512157917022705078125" lon="1.5723838470876216888427734375">
        <ele>161.8000030517578125</ele>
        <time>2026-08-13T08:55:43.000Z</time>
        <extensions>
          <ns3:TrackPointExtension>
            <ns3:hr>93</ns3:hr>
            <ns3:cad>0</ns3:cad>
          </ns3:TrackPointExtension>
        </extensions>
      </trkpt>
      <trkpt lat="43.77541526220738887786865234375" lon="1.572376973927021026611328125">
        <ele>161.600006103515625</ele>
        <time>2026-08-13T08:55:44.000Z</time>
        <extensions>
          <ns3:TrackPointExtension>
            <ns3:hr>92</ns3:hr>
            <ns3:cad>0</ns3:cad>
          </ns3:TrackPointExtension>
        </extensions>
      </trkpt>
      <trkpt lat="43.77541157416999340057373046875" lon="1.57237823121249675750732421875">
        <ele>161.600006103515625</ele>
        <time>2026-08-13T08:55:45.000Z</time>
        <extensions>
          <ns3:TrackPointExtension>
            <ns3:hr>91</ns3:hr>
            <ns3:cad>0</ns3:cad>
          </ns3:TrackPointExtension>
        </extensions>
      </trkpt>
      <trkpt lat="43.77541157416999340057373046875" lon="1.57237999141216278076171875">
        <ele>161.600006103515625</ele>
        <time>2026-08-13T08:55:46.000Z</time>
        <extensions>
          <ns3:TrackPointExtension>
            <ns3:hr>90</ns3:hr>
            <ns3:cad>0</ns3:cad>
          </ns3:TrackPointExtension>
        </extensions>
      </trkpt>
      <trkpt lat="43.7754118256270885467529296875" lon="1.57237873412668704986572265625">
        <ele>161.600006103515625</ele>
        <time>2026-08-13T08:55:47.000Z</time>
        <extensions>
          <ns3:TrackPointExtension>
            <ns3:hr>89</ns3:hr>
            <ns3:cad>0</ns3:cad>
          </ns3:TrackPointExtension>
        </extensions>
      </trkpt>
      <trkpt lat="43.7754098139703273773193359375" lon="1.57236616127192974090576171875">
        <ele>161.600006103515625</ele>
        <time>2026-08-13T08:55:48.000Z</time>
        <extensions>
          <ns3:TrackPointExtension>
            <ns3:hr>88</ns3:hr>
            <ns3:cad>0</ns3:cad>
          </ns3:TrackPointExtension>
        </extensions>
      </trkpt>
      <trkpt lat="43.77540922723710536956787109375" lon="1.572352834045886993408203125">
        <ele>161.8000030517578125</ele>
        <time>2026-08-13T08:55:49.000Z</time>
        <extensions>
          <ns3:TrackPointExtension>
            <ns3:hr>87</ns3:hr>
            <ns3:cad>0</ns3:cad>
          </ns3:TrackPointExtension>
        </extensions>
      </trkpt>
      <trkpt lat="43.77540729939937591552734375" lon="1.572341434657573699951171875">
        <ele>161.8000030517578125</ele>
        <time>2026-08-13T08:55:50.000Z</time>
        <extensions>
          <ns3:TrackPointExtension>
            <ns3:hr>86</ns3:hr>
            <ns3:cad>0</ns3:cad>
          </ns3:TrackPointExtension>
        </extensions>
      </trkpt>
      <trkpt lat="43.7754078023135662078857421875" lon="1.57232743687927722930908203125">
        <ele>161.8000030517578125</ele>
        <time>2026-08-13T08:55:51.000Z</time>
        <extensions>
          <ns3:TrackPointExtension>
            <ns3:hr>86</ns3:hr>
            <ns3:cad>44</ns3:cad>
          </ns3:TrackPointExtension>
        </extensions>
      </trkpt>
      <trkpt lat="43.77540453337132930755615234375" lon="1.57231628894805908203125">
        <ele>161.8000030517578125</ele>
        <time>2026-08-13T08:55:52.000Z</time>
        <extensions>
          <ns3:TrackPointExtension>
            <ns3:hr>86</ns3:hr>
            <ns3:cad>44</ns3:cad>
          </ns3:TrackPointExtension>
        </extensions>
      </trkpt>
      <trkpt lat="43.7754010967910289764404296875" lon="1.57230312936007976531982421875">
        <ele>161.8000030517578125</ele>
        <time>2026-08-13T08:55:53.000Z</time>
        <extensions>
          <ns3:TrackPointExtension>
            <ns3:hr>85</ns3:hr>
            <ns3:cad>44</ns3:cad>
          </ns3:TrackPointExtension>
        </extensions>
      </trkpt>
      <trkpt lat="43.7753985822200775146484375" lon="1.572291143238544464111328125">
        <ele>161.8000030517578125</ele>
        <time>2026-08-13T08:55:54.000Z</time>
        <extensions>
          <ns3:TrackPointExtension>
            <ns3:hr>86</ns3:hr>
            <ns3:cad>48</ns3:cad>
          </ns3:TrackPointExtension>
        </extensions>
      </trkpt>
      <trkpt lat="43.7753940559923648834228515625" lon="1.57227530144155025482177734375">
        <ele>161.8000030517578125</ele>
        <time>2026-08-13T08:55:55.000Z</time>
        <extensions>
          <ns3:TrackPointExtension>
            <ns3:hr>86</ns3:hr>
            <ns3:cad>48</ns3:cad>
          </ns3:TrackPointExtension>
        </extensions>
      </trkpt>
      <trkpt lat="43.77539212815463542938232421875" lon="1.5722581185400485992431640625">
        <ele>161.8000030517578125</ele>
        <time>2026-08-13T08:55:56.000Z</time>
        <extensions>
          <ns3:TrackPointExtension>
            <ns3:hr>86</ns3:hr>
            <ns3:cad>47</ns3:cad>
          </ns3:TrackPointExtension>
        </extensions>
      </trkpt>
      <trkpt lat="43.7753893621265888214111328125" lon="1.57223540358245372772216796875">
        <ele>161.8000030517578125</ele>
        <time>2026-08-13T08:55:57.000Z</time>
        <extensions>
          <ns3:TrackPointExtension>
            <ns3:hr>86</ns3:hr>
            <ns3:cad>47</ns3:cad>
          </ns3:TrackPointExtension>
        </extensions>
      </trkpt>
      <trkpt lat="43.77538927830755710601806640625" lon="1.57221679575741291046142578125">
        <ele>161.8000030517578125</ele>
        <time>2026-08-13T08:55:58.000Z</time>
        <extensions>
          <ns3:TrackPointExtension>
            <ns3:hr>87</ns3:hr>
            <ns3:cad>47</ns3:cad>
          </ns3:TrackPointExtension>
        </extensions>
      </trkpt>
      <trkpt lat="43.77538927830755710601806640625" lon="1.5722017921507358551025390625">
        <ele>161.8000030517578125</ele>
        <time>2026-08-13T08:55:59.000Z</time>
        <extensions>
          <ns3:TrackPointExtension>
            <ns3:hr>87</ns3:hr>
            <ns3:cad>47</ns3:cad>
          </ns3:TrackPointExtension>
        </extensions>
      </trkpt>
      <trkpt lat="43.77538994885981082916259765625" lon="1.572190560400485992431640625">
        <ele>161.8000030517578125</ele>
        <time>2026-08-13T08:56:00.000Z</time>
        <extensions>
          <ns3:TrackPointExtension>
            <ns3:hr>87</ns3:hr>
            <ns3:cad>48</ns3:cad>
          </ns3:TrackPointExtension>
        </extensions>
      </trkpt>
      <trkpt lat="43.77538709901273250579833984375" lon="1.5721726231276988983154296875">
        <ele>161.8000030517578125</ele>
        <time>2026-08-13T08:56:01.000Z</time>
        <extensions>
          <ns3:TrackPointExtension>
            <ns3:hr>88</ns3:hr>
            <ns3:cad>48</ns3:cad>
          </ns3:TrackPointExtension>
        </extensions>
      </trkpt>
      <trkpt lat="43.7753839977085590362548828125" lon="1.57215795479714870452880859375">
        <ele>161.8000030517578125</ele>
        <time>2026-08-13T08:56:02.000Z</time>
        <extensions>
          <ns3:TrackPointExtension>
            <ns3:hr>88</ns3:hr>
            <ns3:cad>0</ns3:cad>
          </ns3:TrackPointExtension>
        </extensions>
      </trkpt>
      <trkpt lat="43.7753784656524658203125" lon="1.5721424482762813568115234375">
        <ele>161.8000030517578125</ele>
        <time>2026-08-13T08:56:03.000Z</time>
        <extensions>
          <ns3:TrackPointExtension>
            <ns3:hr>89</ns3:hr>
            <ns3:cad>0</ns3:cad>
          </ns3:TrackPointExtension>
        </extensions>
      </trkpt>
      <trkpt lat="43.775372095406055450439453125" lon="1.57212409190833568572998046875">
        <ele>161.8000030517578125</ele>
        <time>2026-08-13T08:56:04.000Z</time>
        <extensions>
          <ns3:TrackPointExtension>
            <ns3:hr>89</ns3:hr>
            <ns3:cad>0</ns3:cad>
          </ns3:TrackPointExtension>
        </extensions>
      </trkpt>
      <trkpt lat="43.7753695808351039886474609375" lon="1.5721095912158489227294921875">
        <ele>161.8000030517578125</ele>
        <time>2026-08-13T08:56:05.000Z</time>
        <extensions>
          <ns3:TrackPointExtension>
            <ns3:hr>90</ns3:hr>
            <ns3:cad>0</ns3:cad>
          </ns3:TrackPointExtension>
        </extensions>
      </trkpt>
      <trkpt lat="43.7753668986260890960693359375" lon="1.5720955096185207366943359375">
        <ele>161.8000030517578125</ele>
        <time>2026-08-13T08:56:06.000Z</time>
        <extensions>
          <ns3:TrackPointExtension>
            <ns3:hr>90</ns3:hr>
            <ns3:cad>0</ns3:cad>
          </ns3:TrackPointExtension>
        </extensions>
      </trkpt>
      <trkpt lat="43.7753642164170742034912109375" lon="1.5720737166702747344970703125">
        <ele>161.8000030517578125</ele>
        <time>2026-08-13T08:56:07.000Z</time>
        <extensions>
          <ns3:TrackPointExtension>
            <ns3:hr>91</ns3:hr>
            <ns3:cad>0</ns3:cad>
          </ns3:TrackPointExtension>
        </extensions>
      </trkpt>
      <trkpt lat="43.77536295913159847259521484375" lon="1.5720562823116779327392578125">
        <ele>162</ele>
        <time>2026-08-13T08:56:08.000Z</time>
        <extensions>
          <ns3:TrackPointExtension>
            <ns3:hr>91</ns3:hr>
            <ns3:cad>0</ns3:cad>
          </ns3:TrackPointExtension>
        </extensions>
      </trkpt>
      <trkpt lat="43.775364719331264495849609375" lon="1.57204563729465007781982421875">
        <ele>162</ele>
        <time>2026-08-13T08:56:09.000Z</time>
        <extensions>
          <ns3:TrackPointExtension>
            <ns3:hr>91</ns3:hr>
            <ns3:cad>48</ns3:cad>
          </ns3:TrackPointExtension>
        </extensions>
      </trkpt>
      <trkpt lat="43.77536547370254993438720703125" lon="1.572032310068607330322265625">
        <ele>162</ele>
        <time>2026-08-13T08:56:10.000Z</time>
        <extensions>
          <ns3:TrackPointExtension>
            <ns3:hr>90</ns3:hr>
            <ns3:cad>48</ns3:cad>
          </ns3:TrackPointExtension>
        </extensions>
      </trkpt>
      <trkpt lat="43.77536614425480365753173828125" lon="1.572018899023532867431640625">
        <ele>162.1999969482421875</ele>
        <time>2026-08-13T08:56:11.000Z</time>
        <extensions>
          <ns3:TrackPointExtension>
            <ns3:hr>90</ns3:hr>
            <ns3:cad>48</ns3:cad>
          </ns3:TrackPointExtension>
        </extensions>
      </trkpt>
      <trkpt lat="43.77536949701607227325439453125" lon="1.572001464664936065673828125">
        <ele>162.1999969482421875</ele>
        <time>2026-08-13T08:56:12.000Z</time>
        <extensions>
          <ns3:TrackPointExtension>
            <ns3:hr>91</ns3:hr>
            <ns3:cad>48</ns3:cad>
          </ns3:TrackPointExtension>
        </extensions>
      </trkpt>
      <trkpt lat="43.7753719277679920196533203125" lon="1.5719821862876415252685546875">
        <ele>162.1999969482421875</ele>
        <time>2026-08-13T08:56:13.000Z</time>
        <extensions>
          <ns3:TrackPointExtension>
            <ns3:hr>91</ns3:hr>
            <ns3:cad>48</ns3:cad>
          </ns3:TrackPointExtension>
        </extensions>
      </trkpt>
      <trkpt lat="43.7753739394247531890869140625" lon="1.571964919567108154296875">
        <ele>162.1999969482421875</ele>
        <time>2026-08-13T08:56:14.000Z</time>
        <extensions>
          <ns3:TrackPointExtension>
            <ns3:hr>91</ns3:hr>
            <ns3:cad>48</ns3:cad>
          </ns3:TrackPointExtension>
        </extensions>
      </trkpt>
      <trkpt lat="43.775375448167324066162109375" lon="1.571945138275623321533203125">
        <ele>162.1999969482421875</ele>
        <time>2026-08-13T08:56:15.000Z</time>
        <extensions>
          <ns3:TrackPointExtension>
            <ns3:hr>91</ns3:hr>
            <ns3:cad>48</ns3:cad>
          </ns3:TrackPointExtension>
        </extensions>
      </trkpt>
      <trkpt lat="43.7753722630441188812255859375" lon="1.57194002531468868255615234375">
        <ele>162.1999969482421875</ele>
        <time>2026-08-13T08:56:16.000Z</time>
        <extensions>
          <ns3:TrackPointExtension>
            <ns3:hr>91</ns3:hr>
            <ns3:cad>48</ns3:cad>
          </ns3:TrackPointExtension>
        </extensions>
      </trkpt>
      <trkpt lat="43.77536865882575511932373046875" lon="1.571919657289981842041015625">
        <ele>162.1999969482421875</ele>
        <time>2026-08-13T08:56:17.000Z</time>
        <extensions>
          <ns3:TrackPointExtension>
            <ns3:hr>91</ns3:hr>
            <ns3:cad>48</ns3:cad>
          </ns3:TrackPointExtension>
        </extensions>
      </trkpt>
      <trkpt lat="43.77536446787416934967041015625" lon="1.5719037316739559173583984375">
        <ele>162.1999969482421875</ele>
        <time>2026-08-13T08:56:18.000Z</time>
        <extensions>
          <ns3:TrackPointExtension>
            <ns3:hr>92</ns3:hr>
            <ns3:cad>49</ns3:cad>
          </ns3:TrackPointExtension>
        </extensions>
      </trkpt>
      <trkpt lat="43.77535876818001270294189453125" lon="1.57189006917178630828857421875">
        <ele>162.1999969482421875</ele>
        <time>2026-08-13T08:56:19.000Z</time>
        <extensions>
          <ns3:TrackPointExtension>
            <ns3:hr>91</ns3:hr>
            <ns3:cad>49</ns3:cad>
          </ns3:TrackPointExtension>
        </extensions>
      </trkpt>
      <trkpt lat="43.77535474486649036407470703125" lon="1.57187598757445812225341796875">
        <ele>162.1999969482421875</ele>
        <time>2026-08-13T08:56:20.000Z</time>
        <extensions>
          <ns3:TrackPointExtension>
            <ns3:hr>91</ns3:hr>
            <ns3:cad>49</ns3:cad>
          </ns3:TrackPointExtension>
        </extensions>
      </trkpt>
      <trkpt lat="43.77535323612391948699951171875" lon="1.5718645043671131134033203125">
        <ele>162.1999969482421875</ele>
        <time>2026-08-13T08:56:21.000Z</time>
        <extensions>
          <ns3:TrackPointExtension>
            <ns3:hr>91</ns3:hr>
            <ns3:cad>48</ns3:cad>
          </ns3:TrackPointExtension>
        </extensions>
      </trkpt>
      <trkpt lat="43.775348961353302001953125" lon="1.5718547813594341278076171875">
        <ele>162.1999969482421875</ele>
        <time>2026-08-13T08:56:22.000Z</time>
        <extensions>
          <ns3:TrackPointExtension>
            <ns3:hr>91</ns3:hr>
            <ns3:cad>48</ns3:cad>
          </ns3:TrackPointExtension>
        </extensions>
      </trkpt>
      <trkpt lat="43.77534016035497188568115234375" lon="1.571837179362773895263671875">
        <ele>162.1999969482421875</ele>
        <time>2026-08-13T08:56:23.000Z</time>
        <extensions>
          <ns3:TrackPointExtension>
            <ns3:hr>91</ns3:hr>
            <ns3:cad>48</ns3:cad>
          </ns3:TrackPointExtension>
        </extensions>
      </trkpt>
      <trkpt lat="43.775329850614070892333984375" lon="1.57181982882320880889892578125">
        <ele>162.1999969482421875</ele>
        <time>2026-08-13T08:56:24.000Z</time>
        <extensions>
          <ns3:TrackPointExtension>
            <ns3:hr>91</ns3:hr>
            <ns3:cad>48</ns3:cad>
          </ns3:TrackPointExtension>
        </extensions>
      </trkpt>
      <trkpt lat="43.77532239072024822235107421875" lon="1.57180356793105602264404296875">
        <ele>162.1999969482421875</ele>
        <time>2026-08-13T08:56:25.000Z</time>
        <extensions>
          <ns3:TrackPointExtension>
            <ns3:hr>91</ns3:hr>
            <ns3:cad>50</ns3:cad>
          </ns3:TrackPointExtension>
        </extensions>
      </trkpt>
      <trkpt lat="43.77531920559704303741455078125" lon="1.5717892348766326904296875">
        <ele>162.1999969482421875</ele>
        <time>2026-08-13T08:56:26.000Z</time>
        <extensions>
          <ns3:TrackPointExtension>
            <ns3:hr>91</ns3:hr>
            <ns3:cad>50</ns3:cad>
          </ns3:TrackPointExtension>
        </extensions>
      </trkpt>
      <trkpt lat="43.77531853504478931427001953125" lon="1.57177842222154140472412109375">
        <ele>162.1999969482421875</ele>
        <time>2026-08-13T08:56:27.000Z</time>
        <extensions>
          <ns3:TrackPointExtension>
            <ns3:hr>91</ns3:hr>
            <ns3:cad>49</ns3:cad>
          </ns3:TrackPointExtension>
        </extensions>
      </trkpt>
      <trkpt lat="43.775310404598712921142578125" lon="1.5717624127864837646484375">
        <ele>162.399993896484375</ele>
        <time>2026-08-13T08:56:28.000Z</time>
        <extensions>
          <ns3:TrackPointExtension>
            <ns3:hr>92</ns3:hr>
            <ns3:cad>50</ns3:cad>
          </ns3:TrackPointExtension>
        </extensions>
      </trkpt>
      <trkpt lat="43.77530411817133426666259765625" lon="1.571741290390491485595703125">
        <ele>162.399993896484375</ele>
        <time>2026-08-13T08:56:29.000Z</time>
        <extensions>
          <ns3:TrackPointExtension>
            <ns3:hr>92</ns3:hr>
            <ns3:cad>50</ns3:cad>
          </ns3:TrackPointExtension>
        </extensions>
      </trkpt>
      <trkpt lat="43.77529657445847988128662109375" lon="1.57172150909900665283203125">
        <ele>162.399993896484375</ele>
        <time>2026-08-13T08:56:30.000Z</time>
        <extensions>
          <ns3:TrackPointExtension>
            <ns3:hr>92</ns3:hr>
            <ns3:cad>50</ns3:cad>
          </ns3:TrackPointExtension>
        </extensions>
      </trkpt>
      <trkpt lat="43.7752904556691646575927734375" lon="1.571702398359775543212890625">
        <ele>162.399993896484375</ele>
        <time>2026-08-13T08:56:31.000Z</time>
        <extensions>
          <ns3:TrackPointExtension>
            <ns3:hr>92</ns3:hr>
            <ns3:cad>50</ns3:cad>
          </ns3:TrackPointExtension>
        </extensions>
      </trkpt>
      <trkpt lat="43.77528659999370574951171875" lon="1.57168622128665447235107421875">
        <ele>162.399993896484375</ele>
        <time>2026-08-13T08:56:32.000Z</time>
        <extensions>
          <ns3:TrackPointExtension>
            <ns3:hr>92</ns3:hr>
            <ns3:cad>49</ns3:cad>
          </ns3:TrackPointExtension>
        </extensions>
      </trkpt>
      <trkpt lat="43.77528567798435688018798828125" lon="1.571667529642581939697265625">
        <ele>162.399993896484375</ele>
        <time>2026-08-13T08:56:33.000Z</time>
        <extensions>
          <ns3:TrackPointExtension>
            <ns3:hr>92</ns3:hr>
            <ns3:cad>49</ns3:cad>
          </ns3:TrackPointExtension>
        </extensions>
      </trkpt>
      <trkpt lat="43.77529003657400608062744140625" lon="1.5716499276459217071533203125">
        <ele>162.399993896484375</ele>
        <time>2026-08-13T08:56:34.000Z</time>
        <extensions>
          <ns3:TrackPointExtension>
            <ns3:hr>92</ns3:hr>
            <ns3:cad>49</ns3:cad>
          </ns3:TrackPointExtension>
        </extensions>
      </trkpt>
      <trkpt lat="43.77529908902943134307861328125" lon="1.5716311521828174591064453125">
        <ele>162.399993896484375</ele>
        <time>2026-08-13T08:56:35.000Z</time>
        <extensions>
          <ns3:TrackPointExtension>
            <ns3:hr>92</ns3:hr>
            <ns3:cad>49</ns3:cad>
          </ns3:TrackPointExtension>
        </extensions>
      </trkpt>
      <trkpt lat="43.77530830912292003631591796875" lon="1.571616567671298980712890625">
        <ele>162.399993896484375</ele>
        <time>2026-08-13T08:56:36.000Z</time>
        <extensions>
          <ns3:TrackPointExtension>
            <ns3:hr>92</ns3:hr>
            <ns3:cad>49</ns3:cad>
          </ns3:TrackPointExtension>
        </extensions>
      </trkpt>
      <trkpt lat="43.7753145955502986907958984375" lon="1.5716127119958400726318359375">
        <ele>162.399993896484375</ele>
        <time>2026-08-13T08:56:37.000Z</time>
        <extensions>
          <ns3:TrackPointExtension>
            <ns3:hr>92</ns3:hr>
            <ns3:cad>49</ns3:cad>
          </ns3:TrackPointExtension>
        </extensions>
      </trkpt>
      <trkpt lat="43.775322474539279937744140625" lon="1.5716070123016834259033203125">
        <ele>162.399993896484375</ele>
        <time>2026-08-13T08:56:38.000Z</time>
        <extensions>
          <ns3:TrackPointExtension>
            <ns3:hr>92</ns3:hr>
            <ns3:cad>49</ns3:cad>
          </ns3:TrackPointExtension>
        </extensions>
      </trkpt>
      <trkpt lat="43.77533311955630779266357421875" lon="1.57160039059817790985107421875">
        <ele>162.399993896484375</ele>
        <time>2026-08-13T08:56:39.000Z</time>
        <extensions>
          <ns3:TrackPointExtension>
            <ns3:hr>93</ns3:hr>
            <ns3:cad>50</ns3:cad>
          </ns3:TrackPointExtension>
        </extensions>
      </trkpt>
      <trkpt lat="43.77533764578402042388916015625" lon="1.57158739864826202392578125">
        <ele>162.600006103515625</ele>
        <time>2026-08-13T08:56:40.000Z</time>
        <extensions>
          <ns3:TrackPointExtension>
            <ns3:hr>93</ns3:hr>
            <ns3:cad>50</ns3:cad>
          </ns3:TrackPointExtension>
        </extensions>
      </trkpt>
      <trkpt lat="43.7753414176404476165771484375" lon="1.57157373614609241485595703125">
        <ele>162.600006103515625</ele>
        <time>2026-08-13T08:56:41.000Z</time>
        <extensions>
          <ns3:TrackPointExtension>
            <ns3:hr>94</ns3:hr>
            <ns3:cad>49</ns3:cad>
          </ns3:TrackPointExtension>
        </extensions>
      </trkpt>
      <trkpt lat="43.77534083090722560882568359375" lon="1.571557223796844482421875">
        <ele>162.600006103515625</ele>
        <time>2026-08-13T08:56:42.000Z</time>
        <extensions>
          <ns3:TrackPointExtension>
            <ns3:hr>94</ns3:hr>
            <ns3:cad>48</ns3:cad>
          </ns3:TrackPointExtension>
        </extensions>
      </trkpt>
      <trkpt lat="43.77533814869821071624755859375" lon="1.57154289074242115020751953125">
        <ele>162.600006103515625</ele>
        <time>2026-08-13T08:56:43.000Z</time>
        <extensions>
          <ns3:TrackPointExtension>
            <ns3:hr>95</ns3:hr>
            <ns3:cad>48</ns3:cad>
          </ns3:TrackPointExtension>
        </extensions>
      </trkpt>
      <trkpt lat="43.77533060498535633087158203125" lon="1.571534089744091033935546875">
        <ele>162.399993896484375</ele>
        <time>2026-08-13T08:56:44.000Z</time>
        <extensions>
          <ns3:TrackPointExtension>
            <ns3:hr>95</ns3:hr>
            <ns3:cad>47</ns3:cad>
          </ns3:TrackPointExtension>
        </extensions>
      </trkpt>
      <trkpt lat="43.775320462882518768310546875" lon="1.571521349251270294189453125">
        <ele>162.399993896484375</ele>
        <time>2026-08-13T08:56:45.000Z</time>
        <extensions>
          <ns3:TrackPointExtension>
            <ns3:hr>95</ns3:hr>
            <ns3:cad>47</ns3:cad>
          </ns3:TrackPointExtension>
        </extensions>
      </trkpt>
      <trkpt lat="43.7753068841993808746337890625" lon="1.57151305116713047027587890625">
        <ele>162.399993896484375</ele>
        <time>2026-08-13T08:56:46.000Z</time>
        <extensions>
          <ns3:TrackPointExtension>
            <ns3:hr>95</ns3:hr>
            <ns3:cad>47</ns3:cad>
          </ns3:TrackPointExtension>
        </extensions>
      </trkpt>
      <trkpt lat="43.77529372461140155792236328125" lon="1.57150668092072010040283203125">
        <ele>162.1999969482421875</ele>
        <time>2026-08-13T08:56:47.000Z</time>
        <extensions>
          <ns3:TrackPointExtension>
            <ns3:hr>94</ns3:hr>
            <ns3:cad>50</ns3:cad>
          </ns3:TrackPointExtension>
        </extensions>
      </trkpt>
      <trkpt lat="43.77528525888919830322265625" lon="1.57149578444659709930419921875">
        <ele>162.1999969482421875</ele>
        <time>2026-08-13T08:56:48.000Z</time>
        <extensions>
          <ns3:TrackPointExtension>
            <ns3:hr>95</ns3:hr>
            <ns3:cad>50</ns3:cad>
          </ns3:TrackPointExtension>
        </extensions>
      </trkpt>
      <trkpt lat="43.77527654170989990234375" lon="1.5714846365153789520263671875">
        <ele>162.1999969482421875</ele>
        <time>2026-08-13T08:56:49.000Z</time>
        <extensions>
          <ns3:TrackPointExtension>
            <ns3:hr>94</ns3:hr>
            <ns3:cad>50</ns3:cad>
          </ns3:TrackPointExtension>
        </extensions>
      </trkpt>
      <trkpt lat="43.7752686627209186553955078125" lon="1.5714799426496028900146484375">
        <ele>162.1999969482421875</ele>
        <time>2026-08-13T08:56:50.000Z</time>
        <extensions>
          <ns3:TrackPointExtension>
            <ns3:hr>94</ns3:hr>
            <ns3:cad>51</ns3:cad>
          </ns3:TrackPointExtension>
        </extensions>
      </trkpt>
      <trkpt lat="43.77526019699871540069580078125" lon="1.571467705070972442626953125">
        <ele>162.1999969482421875</ele>
        <time>2026-08-13T08:56:51.000Z</time>
        <extensions>
          <ns3:TrackPointExtension>
            <ns3:hr>94</ns3:hr>
            <ns3:cad>51</ns3:cad>
          </ns3:TrackPointExtension>
        </extensions>
      </trkpt>
      <trkpt lat="43.7752522341907024383544921875" lon="1.5714568085968494415283203125">
        <ele>162.1999969482421875</ele>
        <time>2026-08-13T08:56:52.000Z</time>
        <extensions>
          <ns3:TrackPointExtension>
            <ns3:hr>94</ns3:hr>
            <ns3:cad>48</ns3:cad>
          </ns3:TrackPointExtension>
        </extensions>
      </trkpt>
      <trkpt lat="43.7752428464591503143310546875" lon="1.5714457444846630096435546875">
        <ele>162.1999969482421875</ele>
        <time>2026-08-13T08:56:53.000Z</time>
        <extensions>
          <ns3:TrackPointExtension>
            <ns3:hr>93</ns3:hr>
            <ns3:cad>48</ns3:cad>
          </ns3:TrackPointExtension>
        </extensions>
      </trkpt>
      <trkpt lat="43.7752264179289340972900390625" lon="1.571443565189838409423828125">
        <ele>162.1999969482421875</ele>
        <time>2026-08-13T08:56:54.000Z</time>
        <extensions>
          <ns3:TrackPointExtension>
            <ns3:hr>93</ns3:hr>
            <ns3:cad>50</ns3:cad>
          </ns3:TrackPointExtension>
        </extensions>
      </trkpt>
      <trkpt lat="43.77522080205380916595458984375" lon="1.57143560238182544708251953125">
        <ele>162.1999969482421875</ele>
        <time>2026-08-13T08:56:55.000Z</time>
        <extensions>
          <ns3:TrackPointExtension>
            <ns3:hr>92</ns3:hr>
            <ns3:cad>50</ns3:cad>
          </ns3:TrackPointExtension>
        </extensions>
      </trkpt>
      <trkpt lat="43.77521560527384281158447265625" lon="1.5714269690215587615966796875">
        <ele>162.1999969482421875</ele>
        <time>2026-08-13T08:56:56.000Z</time>
        <extensions>
          <ns3:TrackPointExtension>
            <ns3:hr>92</ns3:hr>
            <ns3:cad>50</ns3:cad>
          </ns3:TrackPointExtension>
        </extensions>
      </trkpt>
      <trkpt lat="43.77520521171391010284423828125" lon="1.5714182518422603607177734375">
        <ele>162.1999969482421875</ele>
        <time>2026-08-13T08:56:57.000Z</time>
        <extensions>
          <ns3:TrackPointExtension>
            <ns3:hr>93</ns3:hr>
            <ns3:cad>50</ns3:cad>
          </ns3:TrackPointExtension>
        </extensions>
      </trkpt>
      <trkpt lat="43.77519129775464534759521484375" lon="1.571411378681659698486328125">
        <ele>162.1999969482421875</ele>
        <time>2026-08-13T08:56:58.000Z</time>
        <extensions>
          <ns3:TrackPointExtension>
            <ns3:hr>93</ns3:hr>
            <ns3:cad>50</ns3:cad>
          </ns3:TrackPointExtension>
        </extensions>
      </trkpt>
      <trkpt lat="43.77518341876566410064697265625" lon="1.57140291295945644378662109375">
        <ele>162.1999969482421875</ele>
        <time>2026-08-13T08:56:59.000Z</time>
        <extensions>
          <ns3:TrackPointExtension>
            <ns3:hr>93</ns3:hr>
            <ns3:cad>48</ns3:cad>
          </ns3:TrackPointExtension>
        </extensions>
      </trkpt>
      <trkpt lat="43.775177299976348876953125" lon="1.571396626532077789306640625">
        <ele>162.1999969482421875</ele>
        <time>2026-08-13T08:57:00.000Z</time>
        <extensions>
          <ns3:TrackPointExtension>
            <ns3:hr>92</ns3:hr>
            <ns3:cad>48</ns3:cad>
          </ns3:TrackPointExtension>
        </extensions>
      </trkpt>
      <trkpt lat="43.7751664035022258758544921875" lon="1.57138363458216190338134765625">
        <ele>162.1999969482421875</ele>
        <time>2026-08-13T08:57:01.000Z</time>
        <extensions>
          <ns3:TrackPointExtension>
            <ns3:hr>93</ns3:hr>
            <ns3:cad>48</ns3:cad>
          </ns3:TrackPointExtension>
        </extensions>
      </trkpt>
      <trkpt lat="43.77515383064746856689453125" lon="1.57137575559318065643310546875">
        <ele>162.1999969482421875</ele>
        <time>2026-08-13T08:57:02.000Z</time>
        <extensions>
          <ns3:TrackPointExtension>
            <ns3:hr>93</ns3:hr>
            <ns3:cad>48</ns3:cad>
          </ns3:TrackPointExtension>
        </extensions>
      </trkpt>
      <trkpt lat="43.7751425988972187042236328125" lon="1.57137072645127773284912109375">
        <ele>162.399993896484375</ele>
        <time>2026-08-13T08:57:03.000Z</time>
        <extensions>
          <ns3:TrackPointExtension>
            <ns3:hr>92</ns3:hr>
            <ns3:cad>48</ns3:cad>
          </ns3:TrackPointExtension>
        </extensions>
      </trkpt>
      <trkpt lat="43.7751362286508083343505859375" lon="1.57135781832039356231689453125">
        <ele>162.1999969482421875</ele>
        <time>2026-08-13T08:57:04.000Z</time>
        <extensions>
          <ns3:TrackPointExtension>
            <ns3:hr>93</ns3:hr>
            <ns3:cad>48</ns3:cad>
          </ns3:TrackPointExtension>
        </extensions>
      </trkpt>
      <trkpt lat="43.77513262443244457244873046875" lon="1.5713495202362537384033203125">
        <ele>162.1999969482421875</ele>
        <time>2026-08-13T08:57:05.000Z</time>
        <extensions>
          <ns3:TrackPointExtension>
            <ns3:hr>93</ns3:hr>
            <ns3:cad>48</ns3:cad>
          </ns3:TrackPointExtension>
        </extensions>
      </trkpt>
      <trkpt lat="43.77512273378670215606689453125" lon="1.571337617933750152587890625">
        <ele>162.1999969482421875</ele>
        <time>2026-08-13T08:57:06.000Z</time>
        <extensions>
          <ns3:TrackPointExtension>
            <ns3:hr>93</ns3:hr>
            <ns3:cad>48</ns3:cad>
          </ns3:TrackPointExtension>
        </extensions>
      </trkpt>
      <trkpt lat="43.775111921131610870361328125" lon="1.57132948748767375946044921875">
        <ele>162.1999969482421875</ele>
        <time>2026-08-13T08:57:07.000Z</time>
        <extensions>
          <ns3:TrackPointExtension>
            <ns3:hr>93</ns3:hr>
            <ns3:cad>48</ns3:cad>
          </ns3:TrackPointExtension>
        </extensions>
      </trkpt>
      <trkpt lat="43.7751040421426296234130859375" lon="1.571318842470645904541015625">
        <ele>162.1999969482421875</ele>
        <time>2026-08-13T08:57:08.000Z</time>
        <extensions>
          <ns3:TrackPointExtension>
            <ns3:hr>92</ns3:hr>
            <ns3:cad>48</ns3:cad>
          </ns3:TrackPointExtension>
        </extensions>
      </trkpt>
      <trkpt lat="43.77509909681975841522216796875" lon="1.5713129751384258270263671875">
        <ele>162.1999969482421875</ele>
        <time>2026-08-13T08:57:09.000Z</time>
        <extensions>
          <ns3:TrackPointExtension>
            <ns3:hr>93</ns3:hr>
            <ns3:cad>48</ns3:cad>
          </ns3:TrackPointExtension>
        </extensions>
      </trkpt>
      <trkpt lat="43.7750886194407939910888671875" lon="1.57130434177815914154052734375">
        <ele>162.1999969482421875</ele>
        <time>2026-08-13T08:57:10.000Z</time>
        <extensions>
          <ns3:TrackPointExtension>
            <ns3:hr>92</ns3:hr>
            <ns3:cad>48</ns3:cad>
          </ns3:TrackPointExtension>
        </extensions>
      </trkpt>
      <trkpt lat="43.77507428638637065887451171875" lon="1.57129227183759212493896484375">
        <ele>162.1999969482421875</ele>
        <time>2026-08-13T08:57:11.000Z</time>
        <extensions>
          <ns3:TrackPointExtension>
            <ns3:hr>92</ns3:hr>
            <ns3:cad>47</ns3:cad>
          </ns3:TrackPointExtension>
        </extensions>
      </trkpt>
      <trkpt lat="43.77506406046450138092041015625" lon="1.571282632648944854736328125">
        <ele>162.1999969482421875</ele>
        <time>2026-08-13T08:57:12.000Z</time>
        <extensions>
          <ns3:TrackPointExtension>
            <ns3:hr>92</ns3:hr>
            <ns3:cad>47</ns3:cad>
          </ns3:TrackPointExtension>
        </extensions>
      </trkpt>
      <trkpt lat="43.7750584445893764495849609375" lon="1.57127332873642444610595703125">
        <ele>162.1999969482421875</ele>
        <time>2026-08-13T08:57:13.000Z</time>
        <extensions>
          <ns3:TrackPointExtension>
            <ns3:hr>92</ns3:hr>
            <ns3:cad>45</ns3:cad>
          </ns3:TrackPointExtension>
        </extensions>
      </trkpt>
      <trkpt lat="43.7750525772571563720703125" lon="1.5712660364806652069091796875">
        <ele>162.1999969482421875</ele>
        <time>2026-08-13T08:57:14.000Z</time>
        <extensions>
          <ns3:TrackPointExtension>
            <ns3:hr>92</ns3:hr>
            <ns3:cad>48</ns3:cad>
          </ns3:TrackPointExtension>
        </extensions>
      </trkpt>
      <trkpt lat="43.7750386632978916168212890625" lon="1.5712527930736541748046875">
        <ele>162.1999969482421875</ele>
        <time>2026-08-13T08:57:15.000Z</time>
        <extensions>
          <ns3:TrackPointExtension>
            <ns3:hr>92</ns3:hr>
            <ns3:cad>48</ns3:cad>
          </ns3:TrackPointExtension>
        </extensions>
      </trkpt>
      <trkpt lat="43.77502433024346828460693359375" lon="1.57124348916113376617431640625">
        <ele>162.1999969482421875</ele>
        <time>2026-08-13T08:57:16.000Z</time>
        <extensions>
          <ns3:TrackPointExtension>
            <ns3:hr>91</ns3:hr>
            <ns3:cad>48</ns3:cad>
          </ns3:TrackPointExtension>
        </extensions>
      </trkpt>
      <trkpt lat="43.7750150263309478759765625" lon="1.57123468816280364990234375">
        <ele>162.1999969482421875</ele>
        <time>2026-08-13T08:57:17.000Z</time>
        <extensions>
          <ns3:TrackPointExtension>
            <ns3:hr>91</ns3:hr>
            <ns3:cad>48</ns3:cad>
          </ns3:TrackPointExtension>
        </extensions>
      </trkpt>
      <trkpt lat="43.7750096619129180908203125" lon="1.57122756354510784149169921875">
        <ele>162.1999969482421875</ele>
        <time>2026-08-13T08:57:18.000Z</time>
        <extensions>
          <ns3:TrackPointExtension>
            <ns3:hr>91</ns3:hr>
            <ns3:cad>48</ns3:cad>
          </ns3:TrackPointExtension>
        </extensions>
      </trkpt>
      <trkpt lat="43.77500304020941257476806640625" lon="1.57121683470904827117919921875">
        <ele>162.1999969482421875</ele>
        <time>2026-08-13T08:57:19.000Z</time>
        <extensions>
          <ns3:TrackPointExtension>
            <ns3:hr>90</ns3:hr>
            <ns3:cad>48</ns3:cad>
          </ns3:TrackPointExtension>
        </extensions>
      </trkpt>
      <trkpt lat="43.7749923951923847198486328125" lon="1.57121063210070133209228515625">
        <ele>162.1999969482421875</ele>
        <time>2026-08-13T08:57:20.000Z</time>
        <extensions>
          <ns3:TrackPointExtension>
            <ns3:hr>90</ns3:hr>
            <ns3:cad>48</ns3:cad>
          </ns3:TrackPointExtension>
        </extensions>
      </trkpt>
      <trkpt lat="43.774979151785373687744140625" lon="1.5712013281881809234619140625">
        <ele>162.1999969482421875</ele>
        <time>2026-08-13T08:57:21.000Z</time>
        <extensions>
          <ns3:TrackPointExtension>
            <ns3:hr>89</ns3:hr>
            <ns3:cad>47</ns3:cad>
          </ns3:TrackPointExtension>
        </extensions>
      </trkpt>
      <trkpt lat="43.7749722786247730255126953125" lon="1.5711899287998676300048828125">
        <ele>162.1999969482421875</ele>
        <time>2026-08-13T08:57:22.000Z</time>
        <extensions>
          <ns3:TrackPointExtension>
            <ns3:hr>89</ns3:hr>
            <ns3:cad>47</ns3:cad>
          </ns3:TrackPointExtension>
        </extensions>
      </trkpt>
      <trkpt lat="43.774967752397060394287109375" lon="1.57117794267833232879638671875">
        <ele>162.1999969482421875</ele>
        <time>2026-08-13T08:57:23.000Z</time>
        <extensions>
          <ns3:TrackPointExtension>
            <ns3:hr>88</ns3:hr>
            <ns3:cad>47</ns3:cad>
          </ns3:TrackPointExtension>
        </extensions>
      </trkpt>
      <trkpt lat="43.77496113069355487823486328125" lon="1.5711684711277484893798828125">
        <ele>162.1999969482421875</ele>
        <time>2026-08-13T08:57:24.000Z</time>
        <extensions>
          <ns3:TrackPointExtension>
            <ns3:hr>88</ns3:hr>
            <ns3:cad>47</ns3:cad>
          </ns3:TrackPointExtension>
        </extensions>
      </trkpt>
      <trkpt lat="43.7749506533145904541015625" lon="1.57115631736814975738525390625">
        <ele>162.1999969482421875</ele>
        <time>2026-08-13T08:57:25.000Z</time>
        <extensions>
          <ns3:TrackPointExtension>
            <ns3:hr>88</ns3:hr>
            <ns3:cad>48</ns3:cad>
          </ns3:TrackPointExtension>
        </extensions>
      </trkpt>
      <trkpt lat="43.7749407626688480377197265625" lon="1.57114324159920215606689453125">
        <ele>162.1999969482421875</ele>
        <time>2026-08-13T08:57:26.000Z</time>
        <extensions>
          <ns3:TrackPointExtension>
            <ns3:hr>87</ns3:hr>
            <ns3:cad>48</ns3:cad>
          </ns3:TrackPointExtension>
        </extensions>
      </trkpt>
      <trkpt lat="43.774933554232120513916015625" lon="1.57113620080053806304931640625">
        <ele>162.1999969482421875</ele>
        <time>2026-08-13T08:57:27.000Z</time>
        <extensions>
          <ns3:TrackPointExtension>
            <ns3:hr>87</ns3:hr>
            <ns3:cad>48</ns3:cad>
          </ns3:TrackPointExtension>
        </extensions>
      </trkpt>
      <trkpt lat="43.77492827363312244415283203125" lon="1.5711289085447788238525390625">
        <ele>162.1999969482421875</ele>
        <time>2026-08-13T08:57:28.000Z</time>
        <extensions>
          <ns3:TrackPointExtension>
            <ns3:hr>87</ns3:hr>
            <ns3:cad>48</ns3:cad>
          </ns3:TrackPointExtension>
        </extensions>
      </trkpt>
      <trkpt lat="43.7749184668064117431640625" lon="1.57111532986164093017578125">
        <ele>162.1999969482421875</ele>
        <time>2026-08-13T08:57:29.000Z</time>
        <extensions>
          <ns3:TrackPointExtension>
            <ns3:hr>87</ns3:hr>
            <ns3:cad>48</ns3:cad>
          </ns3:TrackPointExtension>
        </extensions>
      </trkpt>
      <trkpt lat="43.77490396611392498016357421875" lon="1.571102254092693328857421875">
        <ele>162.1999969482421875</ele>
        <time>2026-08-13T08:57:30.000Z</time>
        <extensions>
          <ns3:TrackPointExtension>
            <ns3:hr>87</ns3:hr>
            <ns3:cad>47</ns3:cad>
          </ns3:TrackPointExtension>
        </extensions>
      </trkpt>
      <trkpt lat="43.77489793114364147186279296875" lon="1.571092195808887481689453125">
        <ele>162.1999969482421875</ele>
        <time>2026-08-13T08:57:31.000Z</time>
        <extensions>
          <ns3:TrackPointExtension>
            <ns3:hr>86</ns3:hr>
            <ns3:cad>47</ns3:cad>
          </ns3:TrackPointExtension>
        </extensions>
      </trkpt>
      <trkpt lat="43.7748931534588336944580078125" lon="1.57108272425830364227294921875">
        <ele>162.1999969482421875</ele>
        <time>2026-08-13T08:57:32.000Z</time>
        <extensions>
          <ns3:TrackPointExtension>
            <ns3:hr>87</ns3:hr>
            <ns3:cad>46</ns3:cad>
          </ns3:TrackPointExtension>
        </extensions>
      </trkpt>
      <trkpt lat="43.7748862802982330322265625" lon="1.57107618637382984161376953125">
        <ele>162.1999969482421875</ele>
        <time>2026-08-13T08:57:33.000Z</time>
        <extensions>
          <ns3:TrackPointExtension>
            <ns3:hr>87</ns3:hr>
            <ns3:cad>47</ns3:cad>
          </ns3:TrackPointExtension>
        </extensions>
      </trkpt>
      <trkpt lat="43.7748797424137592315673828125" lon="1.57106545753777027130126953125">
        <ele>162.1999969482421875</ele>
        <time>2026-08-13T08:57:34.000Z</time>
        <extensions>
          <ns3:TrackPointExtension>
            <ns3:hr>87</ns3:hr>
            <ns3:cad>47</ns3:cad>
          </ns3:TrackPointExtension>
        </extensions>
      </trkpt>
      <trkpt lat="43.77486892975866794586181640625" lon="1.5710524655878543853759765625">
        <ele>162.1999969482421875</ele>
        <time>2026-08-13T08:57:35.000Z</time>
        <extensions>
          <ns3:TrackPointExtension>
            <ns3:hr>87</ns3:hr>
            <ns3:cad>47</ns3:cad>
          </ns3:TrackPointExtension>
        </extensions>
      </trkpt>
      <trkpt lat="43.77485987730324268341064453125" lon="1.57104366458952426910400390625">
        <ele>162.1999969482421875</ele>
        <time>2026-08-13T08:57:36.000Z</time>
        <extensions>
          <ns3:TrackPointExtension>
            <ns3:hr>86</ns3:hr>
            <ns3:cad>47</ns3:cad>
          </ns3:TrackPointExtension>
        </extensions>
      </trkpt>
      <trkpt lat="43.77485367469489574432373046875" lon="1.57103477977216243743896484375">
        <ele>162.1999969482421875</ele>
        <time>2026-08-13T08:57:37.000Z</time>
        <extensions>
          <ns3:TrackPointExtension>
            <ns3:hr>87</ns3:hr>
            <ns3:cad>48</ns3:cad>
          </ns3:TrackPointExtension>
        </extensions>
      </trkpt>
      <trkpt lat="43.77485015429556369781494140625" lon="1.5710276551544666290283203125">
        <ele>162.1999969482421875</ele>
        <time>2026-08-13T08:57:38.000Z</time>
        <extensions>
          <ns3:TrackPointExtension>
            <ns3:hr>87</ns3:hr>
            <ns3:cad>48</ns3:cad>
          </ns3:TrackPointExtension>
        </extensions>
      </trkpt>
      <trkpt lat="43.77484026364982128143310546875" lon="1.57101818360388278961181640625">
        <ele>162.1999969482421875</ele>
        <time>2026-08-13T08:57:39.000Z</time>
        <extensions>
          <ns3:TrackPointExtension>
            <ns3:hr>89</ns3:hr>
            <ns3:cad>49</ns3:cad>
          </ns3:TrackPointExtension>
        </extensions>
      </trkpt>
      <trkpt lat="43.7748272716999053955078125" lon="1.57100862823426723480224609375">
        <ele>162.1999969482421875</ele>
        <time>2026-08-13T08:57:40.000Z</time>
        <extensions>
          <ns3:TrackPointExtension>
            <ns3:hr>90</ns3:hr>
            <ns3:cad>48</ns3:cad>
          </ns3:TrackPointExtension>
        </extensions>
      </trkpt>
      <trkpt lat="43.77481763251125812530517578125" lon="1.570997647941112518310546875">
        <ele>162.1999969482421875</ele>
        <time>2026-08-13T08:57:41.000Z</time>
        <extensions>
          <ns3:TrackPointExtension>
            <ns3:hr>90</ns3:hr>
            <ns3:cad>48</ns3:cad>
          </ns3:TrackPointExtension>
        </extensions>
      </trkpt>
      <trkpt lat="43.77481243573129177093505859375" lon="1.57098926603794097900390625">
        <ele>162.1999969482421875</ele>
        <time>2026-08-13T08:57:42.000Z</time>
        <extensions>
          <ns3:TrackPointExtension>
            <ns3:hr>90</ns3:hr>
            <ns3:cad>48</ns3:cad>
          </ns3:TrackPointExtension>
        </extensions>
      </trkpt>
      <trkpt lat="43.77480782568454742431640625" lon="1.57098331488668918609619140625">
        <ele>162.1999969482421875</ele>
        <time>2026-08-13T08:57:43.000Z</time>
        <extensions>
          <ns3:TrackPointExtension>
            <ns3:hr>90</ns3:hr>
            <ns3:cad>48</ns3:cad>
          </ns3:TrackPointExtension>
        </extensions>
      </trkpt>
      <trkpt lat="43.774794749915599822998046875" lon="1.57096780836582183837890625">
        <ele>162.1999969482421875</ele>
        <time>2026-08-13T08:57:44.000Z</time>
        <extensions>
          <ns3:TrackPointExtension>
            <ns3:hr>90</ns3:hr>
            <ns3:cad>48</ns3:cad>
          </ns3:TrackPointExtension>
        </extensions>
      </trkpt>
      <trkpt lat="43.77478108741343021392822265625" lon="1.57095984555780887603759765625">
        <ele>162.1999969482421875</ele>
        <time>2026-08-13T08:57:45.000Z</time>
        <extensions>
          <ns3:TrackPointExtension>
            <ns3:hr>89</ns3:hr>
            <ns3:cad>48</ns3:cad>
          </ns3:TrackPointExtension>
        </extensions>
      </trkpt>
      <trkpt lat="43.77477086149156093597412109375" lon="1.57094978727400302886962890625">
        <ele>162.1999969482421875</ele>
        <time>2026-08-13T08:57:46.000Z</time>
        <extensions>
          <ns3:TrackPointExtension>
            <ns3:hr>89</ns3:hr>
            <ns3:cad>47</ns3:cad>
          </ns3:TrackPointExtension>
        </extensions>
      </trkpt>
      <trkpt lat="43.774763904511928558349609375" lon="1.57094140537083148956298828125">
        <ele>162.1999969482421875</ele>
        <time>2026-08-13T08:57:47.000Z</time>
        <extensions>
          <ns3:TrackPointExtension>
            <ns3:hr>88</ns3:hr>
            <ns3:cad>47</ns3:cad>
          </ns3:TrackPointExtension>
        </extensions>
      </trkpt>
      <trkpt lat="43.77475627698004245758056640625" lon="1.57093428075313568115234375">
        <ele>162.1999969482421875</ele>
        <time>2026-08-13T08:57:48.000Z</time>
        <extensions>
          <ns3:TrackPointExtension>
            <ns3:hr>88</ns3:hr>
            <ns3:cad>47</ns3:cad>
          </ns3:TrackPointExtension>
        </extensions>
      </trkpt>
      <trkpt lat="43.7747432850301265716552734375" lon="1.57092447392642498016357421875">
        <ele>162.1999969482421875</ele>
        <time>2026-08-13T08:57:49.000Z</time>
        <extensions>
          <ns3:TrackPointExtension>
            <ns3:hr>88</ns3:hr>
            <ns3:cad>47</ns3:cad>
          </ns3:TrackPointExtension>
        </extensions>
      </trkpt>
      <trkpt lat="43.77473096363246440887451171875" lon="1.57091726548969745635986328125">
        <ele>162.1999969482421875</ele>
        <time>2026-08-13T08:57:50.000Z</time>
        <extensions>
          <ns3:TrackPointExtension>
            <ns3:hr>88</ns3:hr>
            <ns3:cad>47</ns3:cad>
          </ns3:TrackPointExtension>
        </extensions>
      </trkpt>
      <trkpt lat="43.7747251801192760467529296875" lon="1.57090905122458934783935546875">
        <ele>162.1999969482421875</ele>
        <time>2026-08-13T08:57:51.000Z</time>
        <extensions>
          <ns3:TrackPointExtension>
            <ns3:hr>87</ns3:hr>
            <ns3:cad>47</ns3:cad>
          </ns3:TrackPointExtension>
        </extensions>
      </trkpt>
      <trkpt lat="43.774720318615436553955078125" lon="1.57090351916849613189697265625">
        <ele>162.1999969482421875</ele>
        <time>2026-08-13T08:57:52.000Z</time>
        <extensions>
          <ns3:TrackPointExtension>
            <ns3:hr>87</ns3:hr>
            <ns3:cad>47</ns3:cad>
          </ns3:TrackPointExtension>
        </extensions>
      </trkpt>
      <trkpt lat="43.774714954197406768798828125" lon="1.5708962269127368927001953125">
        <ele>162.1999969482421875</ele>
        <time>2026-08-13T08:57:53.000Z</time>
        <extensions>
          <ns3:TrackPointExtension>
            <ns3:hr>87</ns3:hr>
            <ns3:cad>47</ns3:cad>
          </ns3:TrackPointExtension>
        </extensions>
      </trkpt>
      <trkpt lat="43.77470363862812519073486328125" lon="1.570889689028263092041015625">
        <ele>162.1999969482421875</ele>
        <time>2026-08-13T08:57:54.000Z</time>
        <extensions>
          <ns3:TrackPointExtension>
            <ns3:hr>87</ns3:hr>
            <ns3:cad>47</ns3:cad>
          </ns3:TrackPointExtension>
        </extensions>
      </trkpt>
      <trkpt lat="43.77468486316502094268798828125" lon="1.5708831511437892913818359375">
        <ele>162.1999969482421875</ele>
        <time>2026-08-13T08:57:55.000Z</time>
        <extensions>
          <ns3:TrackPointExtension>
            <ns3:hr>86</ns3:hr>
            <ns3:cad>47</ns3:cad>
          </ns3:TrackPointExtension>
        </extensions>
      </trkpt>
      <trkpt lat="43.7746755592525005340576171875" lon="1.57087652944028377532958984375">
        <ele>162.1999969482421875</ele>
        <time>2026-08-13T08:57:56.000Z</time>
        <extensions>
          <ns3:TrackPointExtension>
            <ns3:hr>86</ns3:hr>
            <ns3:cad>47</ns3:cad>
          </ns3:TrackPointExtension>
        </extensions>
      </trkpt>
      <trkpt lat="43.77466944046318531036376953125" lon="1.5708719193935394287109375">
        <ele>162.1999969482421875</ele>
        <time>2026-08-13T08:57:57.000Z</time>
        <extensions>
          <ns3:TrackPointExtension>
            <ns3:hr>86</ns3:hr>
            <ns3:cad>49</ns3:cad>
          </ns3:TrackPointExtension>
        </extensions>
      </trkpt>
      <trkpt lat="43.774659298360347747802734375" lon="1.57086563296616077423095703125">
        <ele>162.1999969482421875</ele>
        <time>2026-08-13T08:57:58.000Z</time>
        <extensions>
          <ns3:TrackPointExtension>
            <ns3:hr>86</ns3:hr>
            <ns3:cad>49</ns3:cad>
          </ns3:TrackPointExtension>
        </extensions>
      </trkpt>
      <trkpt lat="43.77464764751493930816650390625" lon="1.57085574232041835784912109375">
        <ele>162.1999969482421875</ele>
        <time>2026-08-13T08:57:59.000Z</time>
        <extensions>
          <ns3:TrackPointExtension>
            <ns3:hr>86</ns3:hr>
            <ns3:cad>49</ns3:cad>
          </ns3:TrackPointExtension>
        </extensions>
      </trkpt>
      <trkpt lat="43.774631805717945098876953125" lon="1.5708504617214202880859375">
        <ele>162.1999969482421875</ele>
        <time>2026-08-13T08:58:00.000Z</time>
        <extensions>
          <ns3:TrackPointExtension>
            <ns3:hr>86</ns3:hr>
            <ns3:cad>49</ns3:cad>
          </ns3:TrackPointExtension>
        </extensions>
      </trkpt>
      <trkpt lat="43.7746229209005832672119140625" lon="1.57084300182759761810302734375">
        <ele>162.1999969482421875</ele>
        <time>2026-08-13T08:58:01.000Z</time>
        <extensions>
          <ns3:TrackPointExtension>
            <ns3:hr>85</ns3:hr>
            <ns3:cad>46</ns3:cad>
          </ns3:TrackPointExtension>
        </extensions>
      </trkpt>
      <trkpt lat="43.774616718292236328125" lon="1.57083646394312381744384765625">
        <ele>162.1999969482421875</ele>
        <time>2026-08-13T08:58:02.000Z</time>
        <extensions>
          <ns3:TrackPointExtension>
            <ns3:hr>85</ns3:hr>
            <ns3:cad>46</ns3:cad>
          </ns3:TrackPointExtension>
        </extensions>
      </trkpt>
      <trkpt lat="43.77461177296936511993408203125" lon="1.57083193771541118621826171875">
        <ele>162.1999969482421875</ele>
        <time>2026-08-13T08:58:03.000Z</time>
        <extensions>
          <ns3:TrackPointExtension>
            <ns3:hr>85</ns3:hr>
            <ns3:cad>46</ns3:cad>
          </ns3:TrackPointExtension>
        </extensions>
      </trkpt>
      <trkpt lat="43.7745992839336395263671875" lon="1.57082254998385906219482421875">
        <ele>162</ele>
        <time>2026-08-13T08:58:04.000Z</time>
        <extensions>
          <ns3:TrackPointExtension>
            <ns3:hr>85</ns3:hr>
            <ns3:cad>48</ns3:cad>
          </ns3:TrackPointExtension>
        </extensions>
      </trkpt>
      <trkpt lat="43.77458528615534305572509765625" lon="1.57081098295748233795166015625">
        <ele>162</ele>
        <time>2026-08-13T08:58:05.000Z</time>
        <extensions>
          <ns3:TrackPointExtension>
            <ns3:hr>85</ns3:hr>
            <ns3:cad>48</ns3:cad>
          </ns3:TrackPointExtension>
        </extensions>
      </trkpt>
      <trkpt lat="43.7745776586234569549560546875" lon="1.57080410979688167572021484375">
        <ele>162</ele>
        <time>2026-08-13T08:58:06.000Z</time>
        <extensions>
          <ns3:TrackPointExtension>
            <ns3:hr>85</ns3:hr>
            <ns3:cad>47</ns3:cad>
          </ns3:TrackPointExtension>
        </extensions>
      </trkpt>
      <trkpt lat="43.77457187511026859283447265625" lon="1.570798493921756744384765625">
        <ele>162</ele>
        <time>2026-08-13T08:58:07.000Z</time>
        <extensions>
          <ns3:TrackPointExtension>
            <ns3:hr>85</ns3:hr>
            <ns3:cad>47</ns3:cad>
          </ns3:TrackPointExtension>
        </extensions>
      </trkpt>
      <trkpt lat="43.77456508576869964599609375" lon="1.5707912854850292205810546875">
        <ele>162</ele>
        <time>2026-08-13T08:58:08.000Z</time>
        <extensions>
          <ns3:TrackPointExtension>
            <ns3:hr>85</ns3:hr>
            <ns3:cad>47</ns3:cad>
          </ns3:TrackPointExtension>
        </extensions>
      </trkpt>
      <trkpt lat="43.7745548598468303680419921875" lon="1.57078164629638195037841796875">
        <ele>162</ele>
        <time>2026-08-13T08:58:09.000Z</time>
        <extensions>
          <ns3:TrackPointExtension>
            <ns3:hr>84</ns3:hr>
            <ns3:cad>47</ns3:cad>
          </ns3:TrackPointExtension>
        </extensions>
      </trkpt>
      <trkpt lat="43.7745402753353118896484375" lon="1.5707745216786861419677734375">
        <ele>162</ele>
        <time>2026-08-13T08:58:10.000Z</time>
        <extensions>
          <ns3:TrackPointExtension>
            <ns3:hr>84</ns3:hr>
            <ns3:cad>47</ns3:cad>
          </ns3:TrackPointExtension>
        </extensions>
      </trkpt>
      <trkpt lat="43.7745303846895694732666015625" lon="1.57076530158519744873046875">
        <ele>162</ele>
        <time>2026-08-13T08:58:11.000Z</time>
        <extensions>
          <ns3:TrackPointExtension>
            <ns3:hr>86</ns3:hr>
            <ns3:cad>47</ns3:cad>
          </ns3:TrackPointExtension>
        </extensions>
      </trkpt>
      <trkpt lat="43.7745230086147785186767578125" lon="1.5707564167678356170654296875">
        <ele>162</ele>
        <time>2026-08-13T08:58:12.000Z</time>
        <extensions>
          <ns3:TrackPointExtension>
            <ns3:hr>87</ns3:hr>
            <ns3:cad>48</ns3:cad>
          </ns3:TrackPointExtension>
        </extensions>
      </trkpt>
      <trkpt lat="43.7745152972638607025146484375" lon="1.5707416646182537078857421875">
        <ele>162</ele>
        <time>2026-08-13T08:58:13.000Z</time>
        <extensions>
          <ns3:TrackPointExtension>
            <ns3:hr>88</ns3:hr>
            <ns3:cad>48</ns3:cad>
          </ns3:TrackPointExtension>
        </extensions>
      </trkpt>
      <trkpt lat="43.7745062448084354400634765625" lon="1.57072431407868862152099609375">
        <ele>162.1999969482421875</ele>
        <time>2026-08-13T08:58:14.000Z</time>
        <extensions>
          <ns3:TrackPointExtension>
            <ns3:hr>88</ns3:hr>
            <ns3:cad>48</ns3:cad>
          </ns3:TrackPointExtension>
        </extensions>
      </trkpt>
      <trkpt lat="43.77449660561978816986083984375" lon="1.57071031630039215087890625">
        <ele>162.1999969482421875</ele>
        <time>2026-08-13T08:58:15.000Z</time>
        <extensions>
          <ns3:TrackPointExtension>
            <ns3:hr>88</ns3:hr>
            <ns3:cad>48</ns3:cad>
          </ns3:TrackPointExtension>
        </extensions>
      </trkpt>
      <trkpt lat="43.77449425868690013885498046875" lon="1.57069430686533451080322265625">
        <ele>162.1999969482421875</ele>
        <time>2026-08-13T08:58:16.000Z</time>
        <extensions>
          <ns3:TrackPointExtension>
            <ns3:hr>87</ns3:hr>
            <ns3:cad>47</ns3:cad>
          </ns3:TrackPointExtension>
        </extensions>
      </trkpt>
      <trkpt lat="43.77449409104883670806884765625" lon="1.57068617641925811767578125">
        <ele>162.1999969482421875</ele>
        <time>2026-08-13T08:58:17.000Z</time>
        <extensions>
          <ns3:TrackPointExtension>
            <ns3:hr>87</ns3:hr>
            <ns3:cad>47</ns3:cad>
          </ns3:TrackPointExtension>
        </extensions>
      </trkpt>
      <trkpt lat="43.77449761144816875457763671875" lon="1.5706761181354522705078125">
        <ele>162.1999969482421875</ele>
        <time>2026-08-13T08:58:18.000Z</time>
        <extensions>
          <ns3:TrackPointExtension>
            <ns3:hr>87</ns3:hr>
            <ns3:cad>47</ns3:cad>
          </ns3:TrackPointExtension>
        </extensions>
      </trkpt>
      <trkpt lat="43.77449476160109043121337890625" lon="1.57067276537418365478515625">
        <ele>162.1999969482421875</ele>
        <time>2026-08-13T08:58:19.000Z</time>
        <extensions>
          <ns3:TrackPointExtension>
            <ns3:hr>87</ns3:hr>
            <ns3:cad>47</ns3:cad>
          </ns3:TrackPointExtension>
        </extensions>
      </trkpt>
      <trkpt lat="43.7744951806962490081787109375" lon="1.570669747889041900634765625">
        <ele>162.1999969482421875</ele>
        <time>2026-08-13T08:58:20.000Z</time>
        <extensions>
          <ns3:TrackPointExtension>
            <ns3:hr>87</ns3:hr>
            <ns3:cad>47</ns3:cad>
          </ns3:TrackPointExtension>
        </extensions>
      </trkpt>
      <trkpt lat="43.774488307535648345947265625" lon="1.57066605985164642333984375">
        <ele>162.1999969482421875</ele>
        <time>2026-08-13T08:58:21.000Z</time>
        <extensions>
          <ns3:TrackPointExtension>
            <ns3:hr>87</ns3:hr>
            <ns3:cad>0</ns3:cad>
          </ns3:TrackPointExtension>
        </extensions>
      </trkpt>
      <trkpt lat="43.774480931460857391357421875" lon="1.57066404819488525390625">
        <ele>162.1999969482421875</ele>
        <time>2026-08-13T08:58:22.000Z</time>
        <extensions>
          <ns3:TrackPointExtension>
            <ns3:hr>86</ns3:hr>
            <ns3:cad>0</ns3:cad>
          </ns3:TrackPointExtension>
        </extensions>
      </trkpt>
      <trkpt lat="43.77447531558573246002197265625" lon="1.570663042366504669189453125">
        <ele>162.1999969482421875</ele>
        <time>2026-08-13T08:58:23.000Z</time>
        <extensions>
          <ns3:TrackPointExtension>
            <ns3:hr>85</ns3:hr>
            <ns3:cad>0</ns3:cad>
          </ns3:TrackPointExtension>
        </extensions>
      </trkpt>
      <trkpt lat="43.77447498030960559844970703125" lon="1.5706635452806949615478515625">
        <ele>162.1999969482421875</ele>
        <time>2026-08-13T08:58:24.000Z</time>
        <extensions>
          <ns3:TrackPointExtension>
            <ns3:hr>84</ns3:hr>
            <ns3:cad>0</ns3:cad>
          </ns3:TrackPointExtension>
        </extensions>
      </trkpt>
      <trkpt lat="43.77447263337671756744384765625" lon="1.57066480256617069244384765625">
        <ele>162.1999969482421875</ele>
        <time>2026-08-13T08:58:25.000Z</time>
        <extensions>
          <ns3:TrackPointExtension>
            <ns3:hr>83</ns3:hr>
            <ns3:cad>0</ns3:cad>
          </ns3:TrackPointExtension>
        </extensions>
      </trkpt>
      <trkpt lat="43.7744710408151149749755859375" lon="1.5706658922135829925537109375">
        <ele>162.1999969482421875</ele>
        <time>2026-08-13T08:58:26.000Z</time>
        <extensions>
          <ns3:TrackPointExtension>
            <ns3:hr>83</ns3:hr>
            <ns3:cad>0</ns3:cad>
          </ns3:TrackPointExtension>
        </extensions>
      </trkpt>
      <trkpt lat="43.77446852624416351318359375" lon="1.5706672333180904388427734375">
        <ele>162.1999969482421875</ele>
        <time>2026-08-13T08:58:27.000Z</time>
        <extensions>
          <ns3:TrackPointExtension>
            <ns3:hr>83</ns3:hr>
            <ns3:cad>0</ns3:cad>
          </ns3:TrackPointExtension>
        </extensions>
      </trkpt>
      <trkpt lat="43.77446995116770267486572265625" lon="1.570657007396221160888671875">
        <ele>162.1999969482421875</ele>
        <time>2026-08-13T08:58:28.000Z</time>
        <extensions>
          <ns3:TrackPointExtension>
            <ns3:hr>83</ns3:hr>
            <ns3:cad>0</ns3:cad>
          </ns3:TrackPointExtension>
        </extensions>
      </trkpt>
      <trkpt lat="43.77446995116770267486572265625" lon="1.570657007396221160888671875">
        <ele>162.1999969482421875</ele>
        <time>2026-08-13T08:58:29.000Z</time>
        <extensions>
          <ns3:TrackPointExtension>
            <ns3:hr>83</ns3:hr>
            <ns3:cad>0</ns3:cad>
          </ns3:TrackPointExtension>
        </extensions>
      </trkpt>
      <trkpt lat="43.774487636983394622802734375" lon="1.5706394053995609283447265625">
        <ele>162.1999969482421875</ele>
        <time>2026-08-13T08:58:30.000Z</time>
        <extensions>
          <ns3:TrackPointExtension>
            <ns3:hr>82</ns3:hr>
            <ns3:cad>0</ns3:cad>
          </ns3:TrackPointExtension>
        </extensions>
      </trkpt>
      <trkpt lat="43.7744847871363162994384765625" lon="1.57063865102827548980712890625">
        <ele>162.1999969482421875</ele>
        <time>2026-08-13T08:58:31.000Z</time>
        <extensions>
          <ns3:TrackPointExtension>
            <ns3:hr>82</ns3:hr>
            <ns3:cad>0</ns3:cad>
          </ns3:TrackPointExtension>
        </extensions>
      </trkpt>
      <trkpt lat="43.77449375577270984649658203125" lon="1.5706357173621654510498046875">
        <ele>162.1999969482421875</ele>
        <time>2026-08-13T08:58:32.000Z</time>
        <extensions>
          <ns3:TrackPointExtension>
            <ns3:hr>82</ns3:hr>
            <ns3:cad>0</ns3:cad>
          </ns3:TrackPointExtension>
        </extensions>
      </trkpt>
      <trkpt lat="43.77449559979140758514404296875" lon="1.570633538067340850830078125">
        <ele>162.1999969482421875</ele>
        <time>2026-08-13T08:58:33.000Z</time>
        <extensions>
          <ns3:TrackPointExtension>
            <ns3:hr>82</ns3:hr>
            <ns3:cad>0</ns3:cad>
          </ns3:TrackPointExtension>
        </extensions>
      </trkpt>
      <trkpt lat="43.77450029365718364715576171875" lon="1.570629179477691650390625">
        <ele>162.399993896484375</ele>
        <time>2026-08-13T08:58:34.000Z</time>
        <extensions>
          <ns3:TrackPointExtension>
            <ns3:hr>83</ns3:hr>
            <ns3:cad>0</ns3:cad>
          </ns3:TrackPointExtension>
        </extensions>
      </trkpt>
      <trkpt lat="43.77449878491461277008056640625" lon="1.57063119113445281982421875">
        <ele>162.399993896484375</ele>
        <time>2026-08-13T08:58:35.000Z</time>
        <extensions>
          <ns3:TrackPointExtension>
            <ns3:hr>83</ns3:hr>
            <ns3:cad>0</ns3:cad>
          </ns3:TrackPointExtension>
        </extensions>
      </trkpt>
      <trkpt lat="43.7744992040097713470458984375" lon="1.5706337057054042816162109375">
        <ele>162.399993896484375</ele>
        <time>2026-08-13T08:58:36.000Z</time>
        <extensions>
          <ns3:TrackPointExtension>
            <ns3:hr>83</ns3:hr>
            <ns3:cad>0</ns3:cad>
          </ns3:TrackPointExtension>
        </extensions>
      </trkpt>
      <trkpt lat="43.7744968570768833160400390625" lon="1.57063521444797515869140625">
        <ele>162.399993896484375</ele>
        <time>2026-08-13T08:58:37.000Z</time>
        <extensions>
          <ns3:TrackPointExtension>
            <ns3:hr>83</ns3:hr>
            <ns3:cad>0</ns3:cad>
          </ns3:TrackPointExtension>
        </extensions>
      </trkpt>
      <trkpt lat="43.77449425868690013885498046875" lon="1.57063513062894344329833984375">
        <ele>162.399993896484375</ele>
        <time>2026-08-13T08:58:38.000Z</time>
        <extensions>
          <ns3:TrackPointExtension>
            <ns3:hr>83</ns3:hr>
            <ns3:cad>0</ns3:cad>
          </ns3:TrackPointExtension>
        </extensions>
      </trkpt>
      <trkpt lat="43.77449333667755126953125" lon="1.5706353820860385894775390625">
        <ele>162.399993896484375</ele>
        <time>2026-08-13T08:58:39.000Z</time>
        <extensions>
          <ns3:TrackPointExtension>
            <ns3:hr>83</ns3:hr>
            <ns3:cad>0</ns3:cad>
          </ns3:TrackPointExtension>
        </extensions>
      </trkpt>
      <trkpt lat="43.77449207939207553863525390625" lon="1.57063496299088001251220703125">
        <ele>162.399993896484375</ele>
        <time>2026-08-13T08:58:40.000Z</time>
        <extensions>
          <ns3:TrackPointExtension>
            <ns3:hr>83</ns3:hr>
            <ns3:cad>0</ns3:cad>
          </ns3:TrackPointExtension>
        </extensions>
      </trkpt>
      <trkpt lat="43.77449392341077327728271484375" lon="1.57063781283795833587646484375">
        <ele>162.600006103515625</ele>
        <time>2026-08-13T08:58:41.000Z</time>
        <extensions>
          <ns3:TrackPointExtension>
            <ns3:hr>83</ns3:hr>
            <ns3:cad>0</ns3:cad>
          </ns3:TrackPointExtension>
        </extensions>
      </trkpt>
      <trkpt lat="43.77449459396302700042724609375" lon="1.57064015977084636688232421875">
        <ele>162.399993896484375</ele>
        <time>2026-08-13T08:58:42.000Z</time>
        <extensions>
          <ns3:TrackPointExtension>
            <ns3:hr>82</ns3:hr>
            <ns3:cad>0</ns3:cad>
          </ns3:TrackPointExtension>
        </extensions>
      </trkpt>
      <trkpt lat="43.7745018862187862396240234375" lon="1.5706424228847026824951171875">
        <ele>162.399993896484375</ele>
        <time>2026-08-13T08:58:43.000Z</time>
        <extensions>
          <ns3:TrackPointExtension>
            <ns3:hr>82</ns3:hr>
            <ns3:cad>0</ns3:cad>
          </ns3:TrackPointExtension>
        </extensions>
      </trkpt>
      <trkpt lat="43.77449677325785160064697265625" lon="1.5706487931311130523681640625">
        <ele>162.600006103515625</ele>
        <time>2026-08-13T08:58:44.000Z</time>
        <extensions>
          <ns3:TrackPointExtension>
            <ns3:hr>81</ns3:hr>
            <ns3:cad>0</ns3:cad>
          </ns3:TrackPointExtension>
        </extensions>
      </trkpt>
      <trkpt lat="43.77449844963848590850830078125" lon="1.57064485363662242889404296875">
        <ele>162.600006103515625</ele>
        <time>2026-08-13T08:58:45.000Z</time>
        <extensions>
          <ns3:TrackPointExtension>
            <ns3:hr>80</ns3:hr>
            <ns3:cad>0</ns3:cad>
          </ns3:TrackPointExtension>
        </extensions>
      </trkpt>
      <trkpt lat="43.7744998745620250701904296875" lon="1.5706420876085758209228515625">
        <ele>162.600006103515625</ele>
        <time>2026-08-13T08:58:46.000Z</time>
        <extensions>
          <ns3:TrackPointExtension>
            <ns3:hr>80</ns3:hr>
            <ns3:cad>0</ns3:cad>
          </ns3:TrackPointExtension>
        </extensions>
      </trkpt>
      <trkpt lat="43.77449777908623218536376953125" lon="1.57064217142760753631591796875">
        <ele>162.600006103515625</ele>
        <time>2026-08-13T08:58:47.000Z</time>
        <extensions>
          <ns3:TrackPointExtension>
            <ns3:hr>80</ns3:hr>
            <ns3:cad>0</ns3:cad>
          </ns3:TrackPointExtension>
        </extensions>
      </trkpt>
      <trkpt lat="43.77449777908623218536376953125" lon="1.57064217142760753631591796875">
        <ele>162.600006103515625</ele>
        <time>2026-08-13T08:58:48.000Z</time>
        <extensions>
          <ns3:TrackPointExtension>
            <ns3:hr>80</ns3:hr>
            <ns3:cad>0</ns3:cad>
          </ns3:TrackPointExtension>
        </extensions>
      </trkpt>
      <trkpt lat="43.77449777908623218536376953125" lon="1.57064217142760753631591796875">
        <ele>162.600006103515625</ele>
        <time>2026-08-13T08:58:49.000Z</time>
        <extensions>
          <ns3:TrackPointExtension>
            <ns3:hr>80</ns3:hr>
            <ns3:cad>0</ns3:cad>
          </ns3:TrackPointExtension>
        </extensions>
      </trkpt>
      <trkpt lat="43.77449777908623218536376953125" lon="1.57064217142760753631591796875">
        <ele>162.600006103515625</ele>
        <time>2026-08-13T08:58:50.000Z</time>
        <extensions>
          <ns3:TrackPointExtension>
            <ns3:hr>80</ns3:hr>
            <ns3:cad>0</ns3:cad>
          </ns3:TrackPointExtension>
        </extensions>
      </trkpt>
      <trkpt lat="43.77449761144816875457763671875" lon="1.57064217142760753631591796875">
        <ele>162.600006103515625</ele>
        <time>2026-08-13T08:58:51.000Z</time>
        <extensions>
          <ns3:TrackPointExtension>
            <ns3:hr>79</ns3:hr>
            <ns3:cad>0</ns3:cad>
          </ns3:TrackPointExtension>
        </extensions>
      </trkpt>
      <trkpt lat="43.77449710853397846221923828125" lon="1.5706410817801952362060546875">
        <ele>162.600006103515625</ele>
        <time>2026-08-13T08:58:52.000Z</time>
        <extensions>
          <ns3:TrackPointExtension>
            <ns3:hr>79</ns3:hr>
            <ns3:cad>0</ns3:cad>
          </ns3:TrackPointExtension>
        </extensions>
      </trkpt>
      <trkpt lat="43.774497695267200469970703125" lon="1.5706434287130832672119140625">
        <ele>162.600006103515625</ele>
        <time>2026-08-13T08:58:53.000Z</time>
        <extensions>
          <ns3:TrackPointExtension>
            <ns3:hr>79</ns3:hr>
            <ns3:cad>0</ns3:cad>
          </ns3:TrackPointExtension>
        </extensions>
      </trkpt>
      <trkpt lat="43.77449844963848590850830078125" lon="1.57064116559922695159912109375">
        <ele>162.399993896484375</ele>
        <time>2026-08-13T08:58:54.000Z</time>
        <extensions>
          <ns3:TrackPointExtension>
            <ns3:hr>79</ns3:hr>
            <ns3:cad>0</ns3:cad>
          </ns3:TrackPointExtension>
        </extensions>
      </trkpt>
      <trkpt lat="43.7744971923530101776123046875" lon="1.57064619474112987518310546875">
        <ele>162.399993896484375</ele>
        <time>2026-08-13T08:58:55.000Z</time>
        <extensions>
          <ns3:TrackPointExtension>
            <ns3:hr>78</ns3:hr>
            <ns3:cad>0</ns3:cad>
          </ns3:TrackPointExtension>
        </extensions>
      </trkpt>
      <trkpt lat="43.7744975276291370391845703125" lon="1.57065155915915966033935546875">
        <ele>162.399993896484375</ele>
        <time>2026-08-13T08:58:56.000Z</time>
        <extensions>
          <ns3:TrackPointExtension>
            <ns3:hr>78</ns3:hr>
            <ns3:cad>0</ns3:cad>
          </ns3:TrackPointExtension>
        </extensions>
      </trkpt>
      <trkpt lat="43.77449509687721729278564453125" lon="1.57065491192042827606201171875">
        <ele>162.399993896484375</ele>
        <time>2026-08-13T08:58:57.000Z</time>
        <extensions>
          <ns3:TrackPointExtension>
            <ns3:hr>78</ns3:hr>
            <ns3:cad>0</ns3:cad>
          </ns3:TrackPointExtension>
        </extensions>
      </trkpt>
      <trkpt lat="43.77449610270559787750244140625" lon="1.5706628747284412384033203125">
        <ele>162.399993896484375</ele>
        <time>2026-08-13T08:58:58.000Z</time>
        <extensions>
          <ns3:TrackPointExtension>
            <ns3:hr>78</ns3:hr>
            <ns3:cad>0</ns3:cad>
          </ns3:TrackPointExtension>
        </extensions>
      </trkpt>
      <trkpt lat="43.77449492923915386199951171875" lon="1.57067066989839076995849609375">
        <ele>162.399993896484375</ele>
        <time>2026-08-13T08:58:59.000Z</time>
        <extensions>
          <ns3:TrackPointExtension>
            <ns3:hr>78</ns3:hr>
            <ns3:cad>0</ns3:cad>
          </ns3:TrackPointExtension>
        </extensions>
      </trkpt>
      <trkpt lat="43.77449392341077327728271484375" lon="1.5706645511090755462646484375">
        <ele>162.399993896484375</ele>
        <time>2026-08-13T08:59:00.000Z</time>
        <extensions>
          <ns3:TrackPointExtension>
            <ns3:hr>79</ns3:hr>
            <ns3:cad>0</ns3:cad>
          </ns3:TrackPointExtension>
        </extensions>
      </trkpt>
      <trkpt lat="43.774493671953678131103515625" lon="1.570666395127773284912109375">
        <ele>162.399993896484375</ele>
        <time>2026-08-13T08:59:01.000Z</time>
        <extensions>
          <ns3:TrackPointExtension>
            <ns3:hr>78</ns3:hr>
            <ns3:cad>0</ns3:cad>
          </ns3:TrackPointExtension>
        </extensions>
      </trkpt>
      <trkpt lat="43.77449375577270984649658203125" lon="1.57066647894680500030517578125">
        <ele>162.399993896484375</ele>
        <time>2026-08-13T08:59:02.000Z</time>
        <extensions>
          <ns3:TrackPointExtension>
            <ns3:hr>77</ns3:hr>
            <ns3:cad>0</ns3:cad>
          </ns3:TrackPointExtension>
        </extensions>
      </trkpt>
      <trkpt lat="43.77449375577270984649658203125" lon="1.57066647894680500030517578125">
        <ele>162.399993896484375</ele>
        <time>2026-08-13T08:59:03.000Z</time>
        <extensions>
          <ns3:TrackPointExtension>
            <ns3:hr>77</ns3:hr>
            <ns3:cad>0</ns3:cad>
          </ns3:TrackPointExtension>
        </extensions>
      </trkpt>
      <trkpt lat="43.77449375577270984649658203125" lon="1.57066647894680500030517578125">
        <ele>162.399993896484375</ele>
        <time>2026-08-13T08:59:04.000Z</time>
        <extensions>
          <ns3:TrackPointExtension>
            <ns3:hr>77</ns3:hr>
            <ns3:cad>0</ns3:cad>
          </ns3:TrackPointExtension>
        </extensions>
      </trkpt>
      <trkpt lat="43.77449375577270984649658203125" lon="1.57066647894680500030517578125">
        <ele>162.399993896484375</ele>
        <time>2026-08-13T08:59:05.000Z</time>
        <extensions>
          <ns3:TrackPointExtension>
            <ns3:hr>77</ns3:hr>
            <ns3:cad>0</ns3:cad>
          </ns3:TrackPointExtension>
        </extensions>
      </trkpt>
      <trkpt lat="43.77449375577270984649658203125" lon="1.57066647894680500030517578125">
        <ele>162.399993896484375</ele>
        <time>2026-08-13T08:59:06.000Z</time>
        <extensions>
          <ns3:TrackPointExtension>
            <ns3:hr>77</ns3:hr>
            <ns3:cad>0</ns3:cad>
          </ns3:TrackPointExtension>
        </extensions>
      </trkpt>
      <trkpt lat="43.77449375577270984649658203125" lon="1.57066647894680500030517578125">
        <ele>162.399993896484375</ele>
        <time>2026-08-13T08:59:07.000Z</time>
        <extensions>
          <ns3:TrackPointExtension>
            <ns3:hr>76</ns3:hr>
            <ns3:cad>0</ns3:cad>
          </ns3:TrackPointExtension>
        </extensions>
      </trkpt>
      <trkpt lat="43.77449375577270984649658203125" lon="1.57066647894680500030517578125">
        <ele>162.399993896484375</ele>
        <time>2026-08-13T08:59:08.000Z</time>
        <extensions>
          <ns3:TrackPointExtension>
            <ns3:hr>76</ns3:hr>
            <ns3:cad>0</ns3:cad>
          </ns3:TrackPointExtension>
        </extensions>
      </trkpt>
      <trkpt lat="43.77449375577270984649658203125" lon="1.57066647894680500030517578125">
        <ele>162.399993896484375</ele>
        <time>2026-08-13T08:59:09.000Z</time>
        <extensions>
          <ns3:TrackPointExtension>
            <ns3:hr>76</ns3:hr>
            <ns3:cad>0</ns3:cad>
          </ns3:TrackPointExtension>
        </extensions>
      </trkpt>
      <trkpt lat="43.77449459396302700042724609375" lon="1.5706668980419635772705078125">
        <ele>162.399993896484375</ele>
        <time>2026-08-13T08:59:10.000Z</time>
        <extensions>
          <ns3:TrackPointExtension>
            <ns3:hr>75</ns3:hr>
            <ns3:cad>0</ns3:cad>
          </ns3:TrackPointExtension>
        </extensions>
      </trkpt>
      <trkpt lat="43.77449878491461277008056640625" lon="1.570667065680027008056640625">
        <ele>162.399993896484375</ele>
        <time>2026-08-13T08:59:11.000Z</time>
        <extensions>
          <ns3:TrackPointExtension>
            <ns3:hr>75</ns3:hr>
            <ns3:cad>0</ns3:cad>
          </ns3:TrackPointExtension>
        </extensions>
      </trkpt>
      <trkpt lat="43.774500377476215362548828125" lon="1.57066740095615386962890625">
        <ele>162.399993896484375</ele>
        <time>2026-08-13T08:59:12.000Z</time>
        <extensions>
          <ns3:TrackPointExtension>
            <ns3:hr>75</ns3:hr>
            <ns3:cad>0</ns3:cad>
          </ns3:TrackPointExtension>
        </extensions>
      </trkpt>
      <trkpt lat="43.77449375577270984649658203125" lon="1.57066647894680500030517578125">
        <ele>162.399993896484375</ele>
        <time>2026-08-13T08:59:13.000Z</time>
        <extensions>
          <ns3:TrackPointExtension>
            <ns3:hr>75</ns3:hr>
            <ns3:cad>0</ns3:cad>
          </ns3:TrackPointExtension>
        </extensions>
      </trkpt>
      <trkpt lat="43.77449375577270984649658203125" lon="1.57066647894680500030517578125">
        <ele>162.399993896484375</ele>
        <time>2026-08-13T08:59:14.000Z</time>
        <extensions>
          <ns3:TrackPointExtension>
            <ns3:hr>74</ns3:hr>
            <ns3:cad>0</ns3:cad>
          </ns3:TrackPointExtension>
        </extensions>
      </trkpt>
      <trkpt lat="43.77449375577270984649658203125" lon="1.57066647894680500030517578125">
        <ele>162.399993896484375</ele>
        <time>2026-08-13T08:59:15.000Z</time>
        <extensions>
          <ns3:TrackPointExtension>
            <ns3:hr>74</ns3:hr>
            <ns3:cad>0</ns3:cad>
          </ns3:TrackPointExtension>
        </extensions>
      </trkpt>
      <trkpt lat="43.77449375577270984649658203125" lon="1.57066647894680500030517578125">
        <ele>162.1999969482421875</ele>
        <time>2026-08-13T08:59:16.000Z</time>
        <extensions>
          <ns3:TrackPointExtension>
            <ns3:hr>75</ns3:hr>
            <ns3:cad>0</ns3:cad>
          </ns3:TrackPointExtension>
        </extensions>
      </trkpt>
      <trkpt lat="43.77449375577270984649658203125" lon="1.57066647894680500030517578125">
        <ele>162.1999969482421875</ele>
        <time>2026-08-13T08:59:17.000Z</time>
        <extensions>
          <ns3:TrackPointExtension>
            <ns3:hr>75</ns3:hr>
            <ns3:cad>0</ns3:cad>
          </ns3:TrackPointExtension>
        </extensions>
      </trkpt>
      <trkpt lat="43.77449375577270984649658203125" lon="1.57066647894680500030517578125">
        <ele>162</ele>
        <time>2026-08-13T08:59:18.000Z</time>
        <extensions>
          <ns3:TrackPointExtension>
            <ns3:hr>75</ns3:hr>
            <ns3:cad>0</ns3:cad>
          </ns3:TrackPointExtension>
        </extensions>
      </trkpt>
      <trkpt lat="43.77449375577270984649658203125" lon="1.57066647894680500030517578125">
        <ele>162</ele>
        <time>2026-08-13T08:59:19.000Z</time>
        <extensions>
          <ns3:TrackPointExtension>
            <ns3:hr>76</ns3:hr>
            <ns3:cad>0</ns3:cad>
          </ns3:TrackPointExtension>
        </extensions>
      </trkpt>
      <trkpt lat="43.77449375577270984649658203125" lon="1.57066647894680500030517578125">
        <ele>162</ele>
        <time>2026-08-13T08:59:20.000Z</time>
        <extensions>
          <ns3:TrackPointExtension>
            <ns3:hr>77</ns3:hr>
            <ns3:cad>0</ns3:cad>
          </ns3:TrackPointExtension>
        </extensions>
      </trkpt>
      <trkpt lat="43.77449375577270984649658203125" lon="1.57066647894680500030517578125">
        <ele>162</ele>
        <time>2026-08-13T08:59:21.000Z</time>
        <extensions>
          <ns3:TrackPointExtension>
            <ns3:hr>76</ns3:hr>
            <ns3:cad>0</ns3:cad>
          </ns3:TrackPointExtension>
        </extensions>
      </trkpt>
      <trkpt lat="43.77449375577270984649658203125" lon="1.57066647894680500030517578125">
        <ele>162</ele>
        <time>2026-08-13T08:59:22.000Z</time>
        <extensions>
          <ns3:TrackPointExtension>
            <ns3:hr>77</ns3:hr>
            <ns3:cad>0</ns3:cad>
          </ns3:TrackPointExtension>
        </extensions>
      </trkpt>
      <trkpt lat="43.77449375577270984649658203125" lon="1.57066647894680500030517578125">
        <ele>162.1999969482421875</ele>
        <time>2026-08-13T08:59:23.000Z</time>
        <extensions>
          <ns3:TrackPointExtension>
            <ns3:hr>78</ns3:hr>
            <ns3:cad>0</ns3:cad>
          </ns3:TrackPointExtension>
        </extensions>
      </trkpt>
      <trkpt lat="43.77449375577270984649658203125" lon="1.57066647894680500030517578125">
        <ele>162.1999969482421875</ele>
        <time>2026-08-13T08:59:24.000Z</time>
        <extensions>
          <ns3:TrackPointExtension>
            <ns3:hr>80</ns3:hr>
            <ns3:cad>0</ns3:cad>
          </ns3:TrackPointExtension>
        </extensions>
      </trkpt>
      <trkpt lat="43.77449375577270984649658203125" lon="1.57066647894680500030517578125">
        <ele>162.1999969482421875</ele>
        <time>2026-08-13T08:59:25.000Z</time>
        <extensions>
          <ns3:TrackPointExtension>
            <ns3:hr>80</ns3:hr>
            <ns3:cad>0</ns3:cad>
          </ns3:TrackPointExtension>
        </extensions>
      </trkpt>
      <trkpt lat="43.77449375577270984649658203125" lon="1.57066647894680500030517578125">
        <ele>162.399993896484375</ele>
        <time>2026-08-13T08:59:26.000Z</time>
        <extensions>
          <ns3:TrackPointExtension>
            <ns3:hr>80</ns3:hr>
            <ns3:cad>0</ns3:cad>
          </ns3:TrackPointExtension>
        </extensions>
      </trkpt>
      <trkpt lat="43.774497024714946746826171875" lon="1.57065927051007747650146484375">
        <ele>162.399993896484375</ele>
        <time>2026-08-13T08:59:27.000Z</time>
        <extensions>
          <ns3:TrackPointExtension>
            <ns3:hr>80</ns3:hr>
            <ns3:cad>0</ns3:cad>
          </ns3:TrackPointExtension>
        </extensions>
      </trkpt>
      <trkpt lat="43.7744973599910736083984375" lon="1.57065792940557003021240234375">
        <ele>162.399993896484375</ele>
        <time>2026-08-13T08:59:28.000Z</time>
        <extensions>
          <ns3:TrackPointExtension>
            <ns3:hr>79</ns3:hr>
            <ns3:cad>0</ns3:cad>
          </ns3:TrackPointExtension>
        </extensions>
      </trkpt>
      <trkpt lat="43.77449694089591503143310546875" lon="1.57065776176750659942626953125">
        <ele>162.1999969482421875</ele>
        <time>2026-08-13T08:59:29.000Z</time>
        <extensions>
          <ns3:TrackPointExtension>
            <ns3:hr>79</ns3:hr>
            <ns3:cad>0</ns3:cad>
          </ns3:TrackPointExtension>
        </extensions>
      </trkpt>
      <trkpt lat="43.7744988687336444854736328125" lon="1.5706534869968891143798828125">
        <ele>162.1999969482421875</ele>
        <time>2026-08-13T08:59:30.000Z</time>
        <extensions>
          <ns3:TrackPointExtension>
            <ns3:hr>77</ns3:hr>
            <ns3:cad>0</ns3:cad>
          </ns3:TrackPointExtension>
        </extensions>
      </trkpt>
      <trkpt lat="43.77449811436235904693603515625" lon="1.57065340317785739898681640625">
        <ele>162.1999969482421875</ele>
        <time>2026-08-13T08:59:31.000Z</time>
        <extensions>
          <ns3:TrackPointExtension>
            <ns3:hr>77</ns3:hr>
            <ns3:cad>0</ns3:cad>
          </ns3:TrackPointExtension>
        </extensions>
      </trkpt>
      <trkpt lat="43.7745000422000885009765625" lon="1.570650637149810791015625">
        <ele>162.1999969482421875</ele>
        <time>2026-08-13T08:59:32.000Z</time>
        <extensions>
          <ns3:TrackPointExtension>
            <ns3:hr>76</ns3:hr>
            <ns3:cad>0</ns3:cad>
          </ns3:TrackPointExtension>
        </extensions>
      </trkpt>
      <trkpt lat="43.77450205385684967041015625" lon="1.570649631321430206298828125">
        <ele>162.399993896484375</ele>
        <time>2026-08-13T08:59:33.000Z</time>
        <extensions>
          <ns3:TrackPointExtension>
            <ns3:hr>76</ns3:hr>
            <ns3:cad>0</ns3:cad>
          </ns3:TrackPointExtension>
        </extensions>
      </trkpt>
      <trkpt lat="43.77450347878038883209228515625" lon="1.5706508047878742218017578125">
        <ele>162.399993896484375</ele>
        <time>2026-08-13T08:59:34.000Z</time>
        <extensions>
          <ns3:TrackPointExtension>
            <ns3:hr>75</ns3:hr>
            <ns3:cad>0</ns3:cad>
          </ns3:TrackPointExtension>
        </extensions>
      </trkpt>
      <trkpt lat="43.77450339496135711669921875" lon="1.57065072096884250640869140625">
        <ele>162.399993896484375</ele>
        <time>2026-08-13T08:59:35.000Z</time>
        <extensions>
          <ns3:TrackPointExtension>
            <ns3:hr>75</ns3:hr>
            <ns3:cad>0</ns3:cad>
          </ns3:TrackPointExtension>
        </extensions>
      </trkpt>
      <trkpt lat="43.77450339496135711669921875" lon="1.57065072096884250640869140625">
        <ele>162.399993896484375</ele>
        <time>2026-08-13T08:59:36.000Z</time>
        <extensions>
          <ns3:TrackPointExtension>
            <ns3:hr>74</ns3:hr>
            <ns3:cad>0</ns3:cad>
          </ns3:TrackPointExtension>
        </extensions>
      </trkpt>
      <trkpt lat="43.77450339496135711669921875" lon="1.57065072096884250640869140625">
        <ele>162.600006103515625</ele>
        <time>2026-08-13T08:59:37.000Z</time>
        <extensions>
          <ns3:TrackPointExtension>
            <ns3:hr>74</ns3:hr>
            <ns3:cad>0</ns3:cad>
          </ns3:TrackPointExtension>
        </extensions>
      </trkpt>
      <trkpt lat="43.77450339496135711669921875" lon="1.57065072096884250640869140625">
        <ele>162.600006103515625</ele>
        <time>2026-08-13T08:59:38.000Z</time>
        <extensions>
          <ns3:TrackPointExtension>
            <ns3:hr>74</ns3:hr>
            <ns3:cad>0</ns3:cad>
          </ns3:TrackPointExtension>
        </extensions>
      </trkpt>
      <trkpt lat="43.77450339496135711669921875" lon="1.57065072096884250640869140625">
        <ele>162.399993896484375</ele>
        <time>2026-08-13T08:59:39.000Z</time>
        <extensions>
          <ns3:TrackPointExtension>
            <ns3:hr>74</ns3:hr>
            <ns3:cad>0</ns3:cad>
          </ns3:TrackPointExtension>
        </extensions>
      </trkpt>
      <trkpt lat="43.77450339496135711669921875" lon="1.57065072096884250640869140625">
        <ele>162.399993896484375</ele>
        <time>2026-08-13T08:59:40.000Z</time>
        <extensions>
          <ns3:TrackPointExtension>
            <ns3:hr>74</ns3:hr>
            <ns3:cad>0</ns3:cad>
          </ns3:TrackPointExtension>
        </extensions>
      </trkpt>
      <trkpt lat="43.77450339496135711669921875" lon="1.57065072096884250640869140625">
        <ele>162.399993896484375</ele>
        <time>2026-08-13T08:59:41.000Z</time>
        <extensions>
          <ns3:TrackPointExtension>
            <ns3:hr>74</ns3:hr>
            <ns3:cad>0</ns3:cad>
          </ns3:TrackPointExtension>
        </extensions>
      </trkpt>
      <trkpt lat="43.77450339496135711669921875" lon="1.57065072096884250640869140625">
        <ele>162.399993896484375</ele>
        <time>2026-08-13T08:59:42.000Z</time>
        <extensions>
          <ns3:TrackPointExtension>
            <ns3:hr>74</ns3:hr>
            <ns3:cad>0</ns3:cad>
          </ns3:TrackPointExtension>
        </extensions>
      </trkpt>
      <trkpt lat="43.77450339496135711669921875" lon="1.57065072096884250640869140625">
        <ele>162.399993896484375</ele>
        <time>2026-08-13T08:59:43.000Z</time>
        <extensions>
          <ns3:TrackPointExtension>
            <ns3:hr>74</ns3:hr>
            <ns3:cad>0</ns3:cad>
          </ns3:TrackPointExtension>
        </extensions>
      </trkpt>
      <trkpt lat="43.77450339496135711669921875" lon="1.57065072096884250640869140625">
        <ele>162.399993896484375</ele>
        <time>2026-08-13T08:59:44.000Z</time>
        <extensions>
          <ns3:TrackPointExtension>
            <ns3:hr>74</ns3:hr>
            <ns3:cad>0</ns3:cad>
          </ns3:TrackPointExtension>
        </extensions>
      </trkpt>
      <trkpt lat="43.77450339496135711669921875" lon="1.57065072096884250640869140625">
        <ele>162.1999969482421875</ele>
        <time>2026-08-13T08:59:45.000Z</time>
        <extensions>
          <ns3:TrackPointExtension>
            <ns3:hr>74</ns3:hr>
            <ns3:cad>0</ns3:cad>
          </ns3:TrackPointExtension>
        </extensions>
      </trkpt>
      <trkpt lat="43.77450339496135711669921875" lon="1.57065072096884250640869140625">
        <ele>162.1999969482421875</ele>
        <time>2026-08-13T08:59:46.000Z</time>
        <extensions>
          <ns3:TrackPointExtension>
            <ns3:hr>74</ns3:hr>
            <ns3:cad>0</ns3:cad>
          </ns3:TrackPointExtension>
        </extensions>
      </trkpt>
      <trkpt lat="43.77450339496135711669921875" lon="1.57065072096884250640869140625">
        <ele>162</ele>
        <time>2026-08-13T08:59:47.000Z</time>
        <extensions>
          <ns3:TrackPointExtension>
            <ns3:hr>74</ns3:hr>
            <ns3:cad>0</ns3:cad>
          </ns3:TrackPointExtension>
        </extensions>
      </trkpt>
      <trkpt lat="43.77450339496135711669921875" lon="1.57065072096884250640869140625">
        <ele>161.8000030517578125</ele>
        <time>2026-08-13T08:59:48.000Z</time>
        <extensions>
          <ns3:TrackPointExtension>
            <ns3:hr>74</ns3:hr>
            <ns3:cad>0</ns3:cad>
          </ns3:TrackPointExtension>
        </extensions>
      </trkpt>
      <trkpt lat="43.77450339496135711669921875" lon="1.57065072096884250640869140625">
        <ele>161.8000030517578125</ele>
        <time>2026-08-13T08:59:49.000Z</time>
        <extensions>
          <ns3:TrackPointExtension>
            <ns3:hr>74</ns3:hr>
            <ns3:cad>0</ns3:cad>
          </ns3:TrackPointExtension>
        </extensions>
      </trkpt>
      <trkpt lat="43.77450339496135711669921875" lon="1.57065072096884250640869140625">
        <ele>161.8000030517578125</ele>
        <time>2026-08-13T08:59:50.000Z</time>
        <extensions>
          <ns3:TrackPointExtension>
            <ns3:hr>75</ns3:hr>
            <ns3:cad>0</ns3:cad>
          </ns3:TrackPointExtension>
        </extensions>
      </trkpt>
      <trkpt lat="43.77450339496135711669921875" lon="1.57065072096884250640869140625">
        <ele>162</ele>
        <time>2026-08-13T08:59:51.000Z</time>
        <extensions>
          <ns3:TrackPointExtension>
            <ns3:hr>75</ns3:hr>
            <ns3:cad>0</ns3:cad>
          </ns3:TrackPointExtension>
        </extensions>
      </trkpt>
      <trkpt lat="43.77450339496135711669921875" lon="1.57065072096884250640869140625">
        <ele>162</ele>
        <time>2026-08-13T08:59:52.000Z</time>
        <extensions>
          <ns3:TrackPointExtension>
            <ns3:hr>75</ns3:hr>
            <ns3:cad>0</ns3:cad>
          </ns3:TrackPointExtension>
        </extensions>
      </trkpt>
      <trkpt lat="43.77450339496135711669921875" lon="1.57065072096884250640869140625">
        <ele>162</ele>
        <time>2026-08-13T08:59:53.000Z</time>
        <extensions>
          <ns3:TrackPointExtension>
            <ns3:hr>75</ns3:hr>
            <ns3:cad>0</ns3:cad>
          </ns3:TrackPointExtension>
        </extensions>
      </trkpt>
      <trkpt lat="43.77450339496135711669921875" lon="1.57065072096884250640869140625">
        <ele>162</ele>
        <time>2026-08-13T08:59:54.000Z</time>
        <extensions>
          <ns3:TrackPointExtension>
            <ns3:hr>75</ns3:hr>
            <ns3:cad>0</ns3:cad>
          </ns3:TrackPointExtension>
        </extensions>
      </trkpt>
      <trkpt lat="43.77450339496135711669921875" lon="1.57065072096884250640869140625">
        <ele>162</ele>
        <time>2026-08-13T08:59:55.000Z</time>
        <extensions>
          <ns3:TrackPointExtension>
            <ns3:hr>75</ns3:hr>
            <ns3:cad>0</ns3:cad>
          </ns3:TrackPointExtension>
        </extensions>
      </trkpt>
      <trkpt lat="43.77450339496135711669921875" lon="1.57065072096884250640869140625">
        <ele>162</ele>
        <time>2026-08-13T08:59:56.000Z</time>
        <extensions>
          <ns3:TrackPointExtension>
            <ns3:hr>76</ns3:hr>
            <ns3:cad>0</ns3:cad>
          </ns3:TrackPointExtension>
        </extensions>
      </trkpt>
      <trkpt lat="43.7745059095323085784912109375" lon="1.5706457756459712982177734375">
        <ele>162</ele>
        <time>2026-08-13T08:59:57.000Z</time>
        <extensions>
          <ns3:TrackPointExtension>
            <ns3:hr>76</ns3:hr>
            <ns3:cad>0</ns3:cad>
          </ns3:TrackPointExtension>
        </extensions>
      </trkpt>
      <trkpt lat="43.77451487816870212554931640625" lon="1.57063730992376804351806640625">
        <ele>162</ele>
        <time>2026-08-13T08:59:58.000Z</time>
        <extensions>
          <ns3:TrackPointExtension>
            <ns3:hr>77</ns3:hr>
            <ns3:cad>0</ns3:cad>
          </ns3:TrackPointExtension>
        </extensions>
      </trkpt>
      <trkpt lat="43.7745156325399875640869140625" lon="1.5706400759518146514892578125">
        <ele>162</ele>
        <time>2026-08-13T08:59:59.000Z</time>
        <extensions>
          <ns3:TrackPointExtension>
            <ns3:hr>78</ns3:hr>
            <ns3:cad>0</ns3:cad>
          </ns3:TrackPointExtension>
        </extensions>
      </trkpt>
      <trkpt lat="43.774516470730304718017578125" lon="1.570640243589878082275390625">
        <ele>162</ele>
        <time>2026-08-13T09:00:00.000Z</time>
        <extensions>
          <ns3:TrackPointExtension>
            <ns3:hr>78</ns3:hr>
            <ns3:cad>0</ns3:cad>
          </ns3:TrackPointExtension>
        </extensions>
      </trkpt>
      <trkpt lat="43.774517476558685302734375" lon="1.57064015977084636688232421875">
        <ele>162</ele>
        <time>2026-08-13T09:00:01.000Z</time>
        <extensions>
          <ns3:TrackPointExtension>
            <ns3:hr>79</ns3:hr>
            <ns3:cad>0</ns3:cad>
          </ns3:TrackPointExtension>
        </extensions>
      </trkpt>
      <trkpt lat="43.7745136208832263946533203125" lon="1.57063965685665607452392578125">
        <ele>162</ele>
        <time>2026-08-13T09:00:02.000Z</time>
        <extensions>
          <ns3:TrackPointExtension>
            <ns3:hr>79</ns3:hr>
            <ns3:cad>0</ns3:cad>
          </ns3:TrackPointExtension>
        </extensions>
      </trkpt>
      <trkpt lat="43.77451471053063869476318359375" lon="1.5706417523324489593505859375">
        <ele>162</ele>
        <time>2026-08-13T09:00:03.000Z</time>
        <extensions>
          <ns3:TrackPointExtension>
            <ns3:hr>79</ns3:hr>
            <ns3:cad>0</ns3:cad>
          </ns3:TrackPointExtension>
        </extensions>
      </trkpt>
      <trkpt lat="43.7745149619877338409423828125" lon="1.57064703293144702911376953125">
        <ele>162</ele>
        <time>2026-08-13T09:00:04.000Z</time>
        <extensions>
          <ns3:TrackPointExtension>
            <ns3:hr>79</ns3:hr>
            <ns3:cad>0</ns3:cad>
          </ns3:TrackPointExtension>
        </extensions>
      </trkpt>
      <trkpt lat="43.77450917847454547882080078125" lon="1.570640914142131805419921875">
        <ele>162</ele>
        <time>2026-08-13T09:00:05.000Z</time>
        <extensions>
          <ns3:TrackPointExtension>
            <ns3:hr>79</ns3:hr>
            <ns3:cad>0</ns3:cad>
          </ns3:TrackPointExtension>
        </extensions>
      </trkpt>
      <trkpt lat="43.77451068721711635589599609375" lon="1.57064267434179782867431640625">
        <ele>162</ele>
        <time>2026-08-13T09:00:06.000Z</time>
        <extensions>
          <ns3:TrackPointExtension>
            <ns3:hr>80</ns3:hr>
            <ns3:cad>0</ns3:cad>
          </ns3:TrackPointExtension>
        </extensions>
      </trkpt>
      <trkpt lat="43.77451705746352672576904296875" lon="1.5706367231905460357666015625">
        <ele>162</ele>
        <time>2026-08-13T09:00:07.000Z</time>
        <extensions>
          <ns3:TrackPointExtension>
            <ns3:hr>80</ns3:hr>
            <ns3:cad>0</ns3:cad>
          </ns3:TrackPointExtension>
        </extensions>
      </trkpt>
      <trkpt lat="43.7745132856070995330810546875" lon="1.570639908313751220703125">
        <ele>162.1999969482421875</ele>
        <time>2026-08-13T09:00:08.000Z</time>
        <extensions>
          <ns3:TrackPointExtension>
            <ns3:hr>80</ns3:hr>
            <ns3:cad>0</ns3:cad>
          </ns3:TrackPointExtension>
        </extensions>
      </trkpt>
      <trkpt lat="43.77450884319841861724853515625" lon="1.57063881866633892059326171875">
        <ele>162.1999969482421875</ele>
        <time>2026-08-13T09:00:09.000Z</time>
        <extensions>
          <ns3:TrackPointExtension>
            <ns3:hr>80</ns3:hr>
            <ns3:cad>0</ns3:cad>
          </ns3:TrackPointExtension>
        </extensions>
      </trkpt>
      <trkpt lat="43.77450448460876941680908203125" lon="1.5706373937427997589111328125">
        <ele>162.399993896484375</ele>
        <time>2026-08-13T09:00:10.000Z</time>
        <extensions>
          <ns3:TrackPointExtension>
            <ns3:hr>79</ns3:hr>
            <ns3:cad>0</ns3:cad>
          </ns3:TrackPointExtension>
        </extensions>
      </trkpt>
      <trkpt lat="43.77450264059007167816162109375" lon="1.5706290118396282196044921875">
        <ele>162.399993896484375</ele>
        <time>2026-08-13T09:00:11.000Z</time>
        <extensions>
          <ns3:TrackPointExtension>
            <ns3:hr>79</ns3:hr>
            <ns3:cad>0</ns3:cad>
          </ns3:TrackPointExtension>
        </extensions>
      </trkpt>
      <trkpt lat="43.7745015509426593780517578125" lon="1.5706305205821990966796875">
        <ele>162.1999969482421875</ele>
        <time>2026-08-13T09:00:12.000Z</time>
        <extensions>
          <ns3:TrackPointExtension>
            <ns3:hr>79</ns3:hr>
            <ns3:cad>0</ns3:cad>
          </ns3:TrackPointExtension>
        </extensions>
      </trkpt>
      <trkpt lat="43.77450347878038883209228515625" lon="1.57062792219221591949462890625">
        <ele>162.1999969482421875</ele>
        <time>2026-08-13T09:00:13.000Z</time>
        <extensions>
          <ns3:TrackPointExtension>
            <ns3:hr>79</ns3:hr>
            <ns3:cad>0</ns3:cad>
          </ns3:TrackPointExtension>
        </extensions>
      </trkpt>
      <trkpt lat="43.77448956482112407684326171875" lon="1.57062448561191558837890625">
        <ele>162</ele>
        <time>2026-08-13T09:00:14.000Z</time>
        <extensions>
          <ns3:TrackPointExtension>
            <ns3:hr>79</ns3:hr>
            <ns3:cad>0</ns3:cad>
          </ns3:TrackPointExtension>
        </extensions>
      </trkpt>
      <trkpt lat="43.77449358813464641571044921875" lon="1.57061886973679065704345703125">
        <ele>162</ele>
        <time>2026-08-13T09:00:15.000Z</time>
        <extensions>
          <ns3:TrackPointExtension>
            <ns3:hr>79</ns3:hr>
            <ns3:cad>0</ns3:cad>
          </ns3:TrackPointExtension>
        </extensions>
      </trkpt>
      <trkpt lat="43.77449610270559787750244140625" lon="1.570607721805572509765625">
        <ele>162</ele>
        <time>2026-08-13T09:00:16.000Z</time>
        <extensions>
          <ns3:TrackPointExtension>
            <ns3:hr>78</ns3:hr>
            <ns3:cad>0</ns3:cad>
          </ns3:TrackPointExtension>
        </extensions>
      </trkpt>
      <trkpt lat="43.77450549043715000152587890625" lon="1.57059657387435436248779296875">
        <ele>162</ele>
        <time>2026-08-13T09:00:17.000Z</time>
        <extensions>
          <ns3:TrackPointExtension>
            <ns3:hr>78</ns3:hr>
            <ns3:cad>0</ns3:cad>
          </ns3:TrackPointExtension>
        </extensions>
      </trkpt>
      <trkpt lat="43.7745166383683681488037109375" lon="1.57058467157185077667236328125">
        <ele>162</ele>
        <time>2026-08-13T09:00:18.000Z</time>
        <extensions>
          <ns3:TrackPointExtension>
            <ns3:hr>78</ns3:hr>
            <ns3:cad>0</ns3:cad>
          </ns3:TrackPointExtension>
        </extensions>
      </trkpt>
      <trkpt lat="43.77452887594699859619140625" lon="1.57057360745966434478759765625">
        <ele>162.1999969482421875</ele>
        <time>2026-08-13T09:00:19.000Z</time>
        <extensions>
          <ns3:TrackPointExtension>
            <ns3:hr>78</ns3:hr>
            <ns3:cad>0</ns3:cad>
          </ns3:TrackPointExtension>
        </extensions>
      </trkpt>
      <trkpt lat="43.7745427899062633514404296875" lon="1.57056220807135105133056640625">
        <ele>162</ele>
        <time>2026-08-13T09:00:20.000Z</time>
        <extensions>
          <ns3:TrackPointExtension>
            <ns3:hr>77</ns3:hr>
            <ns3:cad>0</ns3:cad>
          </ns3:TrackPointExtension>
        </extensions>
      </trkpt>
      <trkpt lat="43.7745508365333080291748046875" lon="1.57055013813078403472900390625">
        <ele>162</ele>
        <time>2026-08-13T09:00:21.000Z</time>
        <extensions>
          <ns3:TrackPointExtension>
            <ns3:hr>77</ns3:hr>
            <ns3:cad>0</ns3:cad>
          </ns3:TrackPointExtension>
        </extensions>
      </trkpt>
      <trkpt lat="43.77456466667354106903076171875" lon="1.57053991220891475677490234375">
        <ele>162</ele>
        <time>2026-08-13T09:00:22.000Z</time>
        <extensions>
          <ns3:TrackPointExtension>
            <ns3:hr>76</ns3:hr>
            <ns3:cad>0</ns3:cad>
          </ns3:TrackPointExtension>
        </extensions>
      </trkpt>
      <trkpt lat="43.77458025701344013214111328125" lon="1.57053002156317234039306640625">
        <ele>162</ele>
        <time>2026-08-13T09:00:23.000Z</time>
        <extensions>
          <ns3:TrackPointExtension>
            <ns3:hr>76</ns3:hr>
            <ns3:cad>0</ns3:cad>
          </ns3:TrackPointExtension>
        </extensions>
      </trkpt>
      <trkpt lat="43.77459417097270488739013671875" lon="1.57051895745098590850830078125">
        <ele>162</ele>
        <time>2026-08-13T09:00:24.000Z</time>
        <extensions>
          <ns3:TrackPointExtension>
            <ns3:hr>76</ns3:hr>
            <ns3:cad>0</ns3:cad>
          </ns3:TrackPointExtension>
        </extensions>
      </trkpt>
      <trkpt lat="43.774600960314273834228515625" lon="1.570514850318431854248046875">
        <ele>162</ele>
        <time>2026-08-13T09:00:25.000Z</time>
        <extensions>
          <ns3:TrackPointExtension>
            <ns3:hr>77</ns3:hr>
            <ns3:cad>56</ns3:cad>
          </ns3:TrackPointExtension>
        </extensions>
      </trkpt>
      <trkpt lat="43.77460540272295475006103515625" lon="1.57051074318587779998779296875">
        <ele>162</ele>
        <time>2026-08-13T09:00:26.000Z</time>
        <extensions>
          <ns3:TrackPointExtension>
            <ns3:hr>77</ns3:hr>
            <ns3:cad>56</ns3:cad>
          </ns3:TrackPointExtension>
        </extensions>
      </trkpt>
      <trkpt lat="43.7746111862361431121826171875" lon="1.57050638459622859954833984375">
        <ele>162</ele>
        <time>2026-08-13T09:00:27.000Z</time>
        <extensions>
          <ns3:TrackPointExtension>
            <ns3:hr>78</ns3:hr>
            <ns3:cad>56</ns3:cad>
          </ns3:TrackPointExtension>
        </extensions>
      </trkpt>
      <trkpt lat="43.77461143769323825836181640625" lon="1.570505462586879730224609375">
        <ele>162</ele>
        <time>2026-08-13T09:00:28.000Z</time>
        <extensions>
          <ns3:TrackPointExtension>
            <ns3:hr>79</ns3:hr>
            <ns3:cad>0</ns3:cad>
          </ns3:TrackPointExtension>
        </extensions>
      </trkpt>
      <trkpt lat="43.77460372634232044219970703125" lon="1.57051107846200466156005859375">
        <ele>162</ele>
        <time>2026-08-13T09:00:29.000Z</time>
        <extensions>
          <ns3:TrackPointExtension>
            <ns3:hr>79</ns3:hr>
            <ns3:cad>0</ns3:cad>
          </ns3:TrackPointExtension>
        </extensions>
      </trkpt>
      <trkpt lat="43.7745977751910686492919921875" lon="1.5705180354416370391845703125">
        <ele>162</ele>
        <time>2026-08-13T09:00:30.000Z</time>
        <extensions>
          <ns3:TrackPointExtension>
            <ns3:hr>83</ns3:hr>
            <ns3:cad>0</ns3:cad>
          </ns3:TrackPointExtension>
        </extensions>
      </trkpt>
      <trkpt lat="43.77459266223013401031494140625" lon="1.57053085975348949432373046875">
        <ele>161.8000030517578125</ele>
        <time>2026-08-13T09:00:31.000Z</time>
        <extensions>
          <ns3:TrackPointExtension>
            <ns3:hr>84</ns3:hr>
            <ns3:cad>0</ns3:cad>
          </ns3:TrackPointExtension>
        </extensions>
      </trkpt>
      <trkpt lat="43.774589560925960540771484375" lon="1.570538990199565887451171875">
        <ele>161.8000030517578125</ele>
        <time>2026-08-13T09:00:32.000Z</time>
        <extensions>
          <ns3:TrackPointExtension>
            <ns3:hr>85</ns3:hr>
            <ns3:cad>0</ns3:cad>
          </ns3:TrackPointExtension>
        </extensions>
      </trkpt>
      <trkpt lat="43.77458528615534305572509765625" lon="1.5705478750169277191162109375">
        <ele>161.600006103515625</ele>
        <time>2026-08-13T09:00:33.000Z</time>
        <extensions>
          <ns3:TrackPointExtension>
            <ns3:hr>85</ns3:hr>
            <ns3:cad>0</ns3:cad>
          </ns3:TrackPointExtension>
        </extensions>
      </trkpt>
      <trkpt lat="43.77458243630826473236083984375" lon="1.57055801711976528167724609375">
        <ele>161.600006103515625</ele>
        <time>2026-08-13T09:00:34.000Z</time>
        <extensions>
          <ns3:TrackPointExtension>
            <ns3:hr>86</ns3:hr>
            <ns3:cad>0</ns3:cad>
          </ns3:TrackPointExtension>
        </extensions>
      </trkpt>
      <trkpt lat="43.77457774244248867034912109375" lon="1.57056807540357112884521484375">
        <ele>161.600006103515625</ele>
        <time>2026-08-13T09:00:35.000Z</time>
        <extensions>
          <ns3:TrackPointExtension>
            <ns3:hr>86</ns3:hr>
            <ns3:cad>44</ns3:cad>
          </ns3:TrackPointExtension>
        </extensions>
      </trkpt>
      <trkpt lat="43.7745689414441585540771484375" lon="1.5705716796219348907470703125">
        <ele>161.600006103515625</ele>
        <time>2026-08-13T09:00:36.000Z</time>
        <extensions>
          <ns3:TrackPointExtension>
            <ns3:hr>86</ns3:hr>
            <ns3:cad>44</ns3:cad>
          </ns3:TrackPointExtension>
        </extensions>
      </trkpt>
      <trkpt lat="43.77455997280776500701904296875" lon="1.57057947479188442230224609375">
        <ele>161.600006103515625</ele>
        <time>2026-08-13T09:00:37.000Z</time>
        <extensions>
          <ns3:TrackPointExtension>
            <ns3:hr>86</ns3:hr>
            <ns3:cad>44</ns3:cad>
          </ns3:TrackPointExtension>
        </extensions>
      </trkpt>
      <trkpt lat="43.7745528481900691986083984375" lon="1.570585928857326507568359375">
        <ele>161.600006103515625</ele>
        <time>2026-08-13T09:00:38.000Z</time>
        <extensions>
          <ns3:TrackPointExtension>
            <ns3:hr>87</ns3:hr>
            <ns3:cad>48</ns3:cad>
          </ns3:TrackPointExtension>
        </extensions>
      </trkpt>
      <trkpt lat="43.774546645581722259521484375" lon="1.5705934725701808929443359375">
        <ele>161.600006103515625</ele>
        <time>2026-08-13T09:00:39.000Z</time>
        <extensions>
          <ns3:TrackPointExtension>
            <ns3:hr>87</ns3:hr>
            <ns3:cad>49</ns3:cad>
          </ns3:TrackPointExtension>
        </extensions>
      </trkpt>
      <trkpt lat="43.7745394371449947357177734375" lon="1.570599339902400970458984375">
        <ele>161.8000030517578125</ele>
        <time>2026-08-13T09:00:40.000Z</time>
        <extensions>
          <ns3:TrackPointExtension>
            <ns3:hr>87</ns3:hr>
            <ns3:cad>49</ns3:cad>
          </ns3:TrackPointExtension>
        </extensions>
      </trkpt>
      <trkpt lat="43.7745310552418231964111328125" lon="1.57061107456684112548828125">
        <ele>161.8000030517578125</ele>
        <time>2026-08-13T09:00:41.000Z</time>
        <extensions>
          <ns3:TrackPointExtension>
            <ns3:hr>86</ns3:hr>
            <ns3:cad>48</ns3:cad>
          </ns3:TrackPointExtension>
        </extensions>
      </trkpt>
      <trkpt lat="43.774520494043827056884765625" lon="1.570618450641632080078125">
        <ele>161.8000030517578125</ele>
        <time>2026-08-13T09:00:42.000Z</time>
        <extensions>
          <ns3:TrackPointExtension>
            <ns3:hr>85</ns3:hr>
            <ns3:cad>48</ns3:cad>
          </ns3:TrackPointExtension>
        </extensions>
      </trkpt>
      <trkpt lat="43.77450901083648204803466796875" lon="1.5706273354589939117431640625">
        <ele>161.8000030517578125</ele>
        <time>2026-08-13T09:00:43.000Z</time>
        <extensions>
          <ns3:TrackPointExtension>
            <ns3:hr>85</ns3:hr>
            <ns3:cad>48</ns3:cad>
          </ns3:TrackPointExtension>
        </extensions>
      </trkpt>
      <trkpt lat="43.77449442632496356964111328125" lon="1.5706337057054042816162109375">
        <ele>161.8000030517578125</ele>
        <time>2026-08-13T09:00:44.000Z</time>
        <extensions>
          <ns3:TrackPointExtension>
            <ns3:hr>85</ns3:hr>
            <ns3:cad>49</ns3:cad>
          </ns3:TrackPointExtension>
        </extensions>
      </trkpt>
      <trkpt lat="43.77448135055601596832275390625" lon="1.57063781283795833587646484375">
        <ele>161.8000030517578125</ele>
        <time>2026-08-13T09:00:45.000Z</time>
        <extensions>
          <ns3:TrackPointExtension>
            <ns3:hr>85</ns3:hr>
            <ns3:cad>50</ns3:cad>
          </ns3:TrackPointExtension>
        </extensions>
      </trkpt>
      <trkpt lat="43.77446743659675121307373046875" lon="1.57064233906567096710205078125">
        <ele>161.8000030517578125</ele>
        <time>2026-08-13T09:00:46.000Z</time>
        <extensions>
          <ns3:TrackPointExtension>
            <ns3:hr>85</ns3:hr>
            <ns3:cad>50</ns3:cad>
          </ns3:TrackPointExtension>
        </extensions>
      </trkpt>
      <trkpt lat="43.77445268444716930389404296875" lon="1.57064435072243213653564453125">
        <ele>161.8000030517578125</ele>
        <time>2026-08-13T09:00:47.000Z</time>
        <extensions>
          <ns3:TrackPointExtension>
            <ns3:hr>85</ns3:hr>
            <ns3:cad>50</ns3:cad>
          </ns3:TrackPointExtension>
        </extensions>
      </trkpt>
      <trkpt lat="43.77444514073431491851806640625" lon="1.57064728438854217529296875">
        <ele>161.8000030517578125</ele>
        <time>2026-08-13T09:00:48.000Z</time>
        <extensions>
          <ns3:TrackPointExtension>
            <ns3:hr>86</ns3:hr>
            <ns3:cad>51</ns3:cad>
          </ns3:TrackPointExtension>
        </extensions>
      </trkpt>
      <trkpt lat="43.77443089149892330169677734375" lon="1.57064720056951045989990234375">
        <ele>161.8000030517578125</ele>
        <time>2026-08-13T09:00:49.000Z</time>
        <extensions>
          <ns3:TrackPointExtension>
            <ns3:hr>86</ns3:hr>
            <ns3:cad>51</ns3:cad>
          </ns3:TrackPointExtension>
        </extensions>
      </trkpt>
      <trkpt lat="43.7744167260825634002685546875" lon="1.57064032740890979766845703125">
        <ele>161.8000030517578125</ele>
        <time>2026-08-13T09:00:50.000Z</time>
        <extensions>
          <ns3:TrackPointExtension>
            <ns3:hr>86</ns3:hr>
            <ns3:cad>51</ns3:cad>
          </ns3:TrackPointExtension>
        </extensions>
      </trkpt>
      <trkpt lat="43.774402476847171783447265625" lon="1.57063345424830913543701171875">
        <ele>161.8000030517578125</ele>
        <time>2026-08-13T09:00:51.000Z</time>
        <extensions>
          <ns3:TrackPointExtension>
            <ns3:hr>85</ns3:hr>
            <ns3:cad>51</ns3:cad>
          </ns3:TrackPointExtension>
        </extensions>
      </trkpt>
      <trkpt lat="43.77439535222947597503662109375" lon="1.5706216357648372650146484375">
        <ele>161.8000030517578125</ele>
        <time>2026-08-13T09:00:52.000Z</time>
        <extensions>
          <ns3:TrackPointExtension>
            <ns3:hr>86</ns3:hr>
            <ns3:cad>51</ns3:cad>
          </ns3:TrackPointExtension>
        </extensions>
      </trkpt>
      <trkpt lat="43.77438914962112903594970703125" lon="1.57061769627034664154052734375">
        <ele>161.8000030517578125</ele>
        <time>2026-08-13T09:00:53.000Z</time>
        <extensions>
          <ns3:TrackPointExtension>
            <ns3:hr>86</ns3:hr>
            <ns3:cad>50</ns3:cad>
          </ns3:TrackPointExtension>
        </extensions>
      </trkpt>
      <trkpt lat="43.7743835337460041046142578125" lon="1.57061132602393627166748046875">
        <ele>162</ele>
        <time>2026-08-13T09:00:54.000Z</time>
        <extensions>
          <ns3:TrackPointExtension>
            <ns3:hr>85</ns3:hr>
            <ns3:cad>50</ns3:cad>
          </ns3:TrackPointExtension>
        </extensions>
      </trkpt>
      <trkpt lat="43.77438378520309925079345703125" lon="1.57060847617685794830322265625">
        <ele>162</ele>
        <time>2026-08-13T09:00:55.000Z</time>
        <extensions>
          <ns3:TrackPointExtension>
            <ns3:hr>85</ns3:hr>
            <ns3:cad>50</ns3:cad>
          </ns3:TrackPointExtension>
        </extensions>
      </trkpt>
      <trkpt lat="43.77438403666019439697265625" lon="1.57060512341558933258056640625">
        <ele>162.1999969482421875</ele>
        <time>2026-08-13T09:00:56.000Z</time>
        <extensions>
          <ns3:TrackPointExtension>
            <ns3:hr>85</ns3:hr>
            <ns3:cad>0</ns3:cad>
          </ns3:TrackPointExtension>
        </extensions>
      </trkpt>
      <trkpt lat="43.774383366107940673828125" lon="1.5706031955778598785400390625">
        <ele>162.1999969482421875</ele>
        <time>2026-08-13T09:00:57.000Z</time>
        <extensions>
          <ns3:TrackPointExtension>
            <ns3:hr>85</ns3:hr>
            <ns3:cad>0</ns3:cad>
          </ns3:TrackPointExtension>
        </extensions>
      </trkpt>
      <trkpt lat="43.7743815220892429351806640625" lon="1.57060227356851100921630859375">
        <ele>162.1999969482421875</ele>
        <time>2026-08-13T09:00:58.000Z</time>
        <extensions>
          <ns3:TrackPointExtension>
            <ns3:hr>86</ns3:hr>
            <ns3:cad>0</ns3:cad>
          </ns3:TrackPointExtension>
        </extensions>
      </trkpt>
      <trkpt lat="43.77438127063214778900146484375" lon="1.57060177065432071685791015625">
        <ele>162.1999969482421875</ele>
        <time>2026-08-13T09:00:59.000Z</time>
        <extensions>
          <ns3:TrackPointExtension>
            <ns3:hr>85</ns3:hr>
            <ns3:cad>0</ns3:cad>
          </ns3:TrackPointExtension>
        </extensions>
      </trkpt>
      <trkpt lat="43.77437976188957691192626953125" lon="1.57059942372143268585205078125">
        <ele>162.1999969482421875</ele>
        <time>2026-08-13T09:01:00.000Z</time>
        <extensions>
          <ns3:TrackPointExtension>
            <ns3:hr>85</ns3:hr>
            <ns3:cad>0</ns3:cad>
          </ns3:TrackPointExtension>
        </extensions>
      </trkpt>
      <trkpt lat="43.77437456510961055755615234375" lon="1.57059791497886180877685546875">
        <ele>162.1999969482421875</ele>
        <time>2026-08-13T09:01:01.000Z</time>
        <extensions>
          <ns3:TrackPointExtension>
            <ns3:hr>85</ns3:hr>
            <ns3:cad>0</ns3:cad>
          </ns3:TrackPointExtension>
        </extensions>
      </trkpt>
      <trkpt lat="43.7743717990815639495849609375" lon="1.5705968253314495086669921875">
        <ele>162.1999969482421875</ele>
        <time>2026-08-13T09:01:02.000Z</time>
        <extensions>
          <ns3:TrackPointExtension>
            <ns3:hr>85</ns3:hr>
            <ns3:cad>0</ns3:cad>
          </ns3:TrackPointExtension>
        </extensions>
      </trkpt>
      <trkpt lat="43.77436970360577106475830078125" lon="1.5705948136746883392333984375">
        <ele>162.1999969482421875</ele>
        <time>2026-08-13T09:01:03.000Z</time>
        <extensions>
          <ns3:TrackPointExtension>
            <ns3:hr>85</ns3:hr>
            <ns3:cad>0</ns3:cad>
          </ns3:TrackPointExtension>
        </extensions>
      </trkpt>
      <trkpt lat="43.77437372691929340362548828125" lon="1.5705983340740203857421875">
        <ele>162.1999969482421875</ele>
        <time>2026-08-13T09:01:04.000Z</time>
        <extensions>
          <ns3:TrackPointExtension>
            <ns3:hr>85</ns3:hr>
            <ns3:cad>0</ns3:cad>
          </ns3:TrackPointExtension>
        </extensions>
      </trkpt>
      <trkpt lat="43.774373643100261688232421875" lon="1.57059841789305210113525390625">
        <ele>162.1999969482421875</ele>
        <time>2026-08-13T09:01:05.000Z</time>
        <extensions>
          <ns3:TrackPointExtension>
            <ns3:hr>86</ns3:hr>
            <ns3:cad>0</ns3:cad>
          </ns3:TrackPointExtension>
        </extensions>
      </trkpt>
      <trkpt lat="43.774373643100261688232421875" lon="1.57059841789305210113525390625">
        <ele>162.1999969482421875</ele>
        <time>2026-08-13T09:01:06.000Z</time>
        <extensions>
          <ns3:TrackPointExtension>
            <ns3:hr>85</ns3:hr>
            <ns3:cad>0</ns3:cad>
          </ns3:TrackPointExtension>
        </extensions>
      </trkpt>
      <trkpt lat="43.774373643100261688232421875" lon="1.57059841789305210113525390625">
        <ele>162.1999969482421875</ele>
        <time>2026-08-13T09:01:07.000Z</time>
        <extensions>
          <ns3:TrackPointExtension>
            <ns3:hr>85</ns3:hr>
            <ns3:cad>0</ns3:cad>
          </ns3:TrackPointExtension>
        </extensions>
      </trkpt>
      <trkpt lat="43.774373643100261688232421875" lon="1.57059841789305210113525390625">
        <ele>162.1999969482421875</ele>
        <time>2026-08-13T09:01:08.000Z</time>
        <extensions>
          <ns3:TrackPointExtension>
            <ns3:hr>83</ns3:hr>
            <ns3:cad>0</ns3:cad>
          </ns3:TrackPointExtension>
        </extensions>
      </trkpt>
      <trkpt lat="43.774373643100261688232421875" lon="1.57059841789305210113525390625">
        <ele>162.1999969482421875</ele>
        <time>2026-08-13T09:01:09.000Z</time>
        <extensions>
          <ns3:TrackPointExtension>
            <ns3:hr>80</ns3:hr>
            <ns3:cad>0</ns3:cad>
          </ns3:TrackPointExtension>
        </extensions>
      </trkpt>
      <trkpt lat="43.774373643100261688232421875" lon="1.57059841789305210113525390625">
        <ele>162.1999969482421875</ele>
        <time>2026-08-13T09:01:10.000Z</time>
        <extensions>
          <ns3:TrackPointExtension>
            <ns3:hr>80</ns3:hr>
            <ns3:cad>0</ns3:cad>
          </ns3:TrackPointExtension>
        </extensions>
      </trkpt>
      <trkpt lat="43.774373643100261688232421875" lon="1.57059841789305210113525390625">
        <ele>162.1999969482421875</ele>
        <time>2026-08-13T09:01:11.000Z</time>
        <extensions>
          <ns3:TrackPointExtension>
            <ns3:hr>79</ns3:hr>
            <ns3:cad>0</ns3:cad>
          </ns3:TrackPointExtension>
        </extensions>
      </trkpt>
      <trkpt lat="43.774373643100261688232421875" lon="1.57059841789305210113525390625">
        <ele>162.1999969482421875</ele>
        <time>2026-08-13T09:01:12.000Z</time>
        <extensions>
          <ns3:TrackPointExtension>
            <ns3:hr>79</ns3:hr>
            <ns3:cad>0</ns3:cad>
          </ns3:TrackPointExtension>
        </extensions>
      </trkpt>
      <trkpt lat="43.774373643100261688232421875" lon="1.57059841789305210113525390625">
        <ele>162.1999969482421875</ele>
        <time>2026-08-13T09:01:13.000Z</time>
        <extensions>
          <ns3:TrackPointExtension>
            <ns3:hr>80</ns3:hr>
            <ns3:cad>0</ns3:cad>
          </ns3:TrackPointExtension>
        </extensions>
      </trkpt>
      <trkpt lat="43.77437372691929340362548828125" lon="1.57059908844530582427978515625">
        <ele>162.1999969482421875</ele>
        <time>2026-08-13T09:01:14.000Z</time>
        <extensions>
          <ns3:TrackPointExtension>
            <ns3:hr>80</ns3:hr>
            <ns3:cad>0</ns3:cad>
          </ns3:TrackPointExtension>
        </extensions>
      </trkpt>
      <trkpt lat="43.7743768282234668731689453125" lon="1.570596657693386077880859375">
        <ele>162.1999969482421875</ele>
        <time>2026-08-13T09:01:15.000Z</time>
        <extensions>
          <ns3:TrackPointExtension>
            <ns3:hr>80</ns3:hr>
            <ns3:cad>0</ns3:cad>
          </ns3:TrackPointExtension>
        </extensions>
      </trkpt>
      <trkpt lat="43.77437775023281574249267578125" lon="1.5705944783985614776611328125">
        <ele>162</ele>
        <time>2026-08-13T09:01:16.000Z</time>
        <extensions>
          <ns3:TrackPointExtension>
            <ns3:hr>79</ns3:hr>
            <ns3:cad>0</ns3:cad>
          </ns3:TrackPointExtension>
        </extensions>
      </trkpt>
      <trkpt lat="43.774373643100261688232421875" lon="1.57059841789305210113525390625">
        <ele>162</ele>
        <time>2026-08-13T09:01:17.000Z</time>
        <extensions>
          <ns3:TrackPointExtension>
            <ns3:hr>79</ns3:hr>
            <ns3:cad>0</ns3:cad>
          </ns3:TrackPointExtension>
        </extensions>
      </trkpt>
      <trkpt lat="43.774373643100261688232421875" lon="1.57059841789305210113525390625">
        <ele>162.1999969482421875</ele>
        <time>2026-08-13T09:01:18.000Z</time>
        <extensions>
          <ns3:TrackPointExtension>
            <ns3:hr>79</ns3:hr>
            <ns3:cad>0</ns3:cad>
          </ns3:TrackPointExtension>
        </extensions>
      </trkpt>
      <trkpt lat="43.774373643100261688232421875" lon="1.57059841789305210113525390625">
        <ele>162.1999969482421875</ele>
        <time>2026-08-13T09:01:19.000Z</time>
        <extensions>
          <ns3:TrackPointExtension>
            <ns3:hr>79</ns3:hr>
            <ns3:cad>0</ns3:cad>
          </ns3:TrackPointExtension>
        </extensions>
      </trkpt>
      <trkpt lat="43.77437808550894260406494140625" lon="1.57059489749372005462646484375">
        <ele>162</ele>
        <time>2026-08-13T09:01:20.000Z</time>
        <extensions>
          <ns3:TrackPointExtension>
            <ns3:hr>79</ns3:hr>
            <ns3:cad>0</ns3:cad>
          </ns3:TrackPointExtension>
        </extensions>
      </trkpt>
      <trkpt lat="43.774383030831813812255859375" lon="1.570603363215923309326171875">
        <ele>162</ele>
        <time>2026-08-13T09:01:21.000Z</time>
        <extensions>
          <ns3:TrackPointExtension>
            <ns3:hr>79</ns3:hr>
            <ns3:cad>0</ns3:cad>
          </ns3:TrackPointExtension>
        </extensions>
      </trkpt>
      <trkpt lat="43.77438864670693874359130859375" lon="1.5706171095371246337890625">
        <ele>161.8000030517578125</ele>
        <time>2026-08-13T09:01:22.000Z</time>
        <extensions>
          <ns3:TrackPointExtension>
            <ns3:hr>80</ns3:hr>
            <ns3:cad>0</ns3:cad>
          </ns3:TrackPointExtension>
        </extensions>
      </trkpt>
      <trkpt lat="43.77439535222947597503662109375" lon="1.57062825746834278106689453125">
        <ele>161.8000030517578125</ele>
        <time>2026-08-13T09:01:23.000Z</time>
        <extensions>
          <ns3:TrackPointExtension>
            <ns3:hr>80</ns3:hr>
            <ns3:cad>0</ns3:cad>
          </ns3:TrackPointExtension>
        </extensions>
      </trkpt>
      <trkpt lat="43.77440440468490123748779296875" lon="1.57063697464764118194580078125">
        <ele>161.600006103515625</ele>
        <time>2026-08-13T09:01:24.000Z</time>
        <extensions>
          <ns3:TrackPointExtension>
            <ns3:hr>80</ns3:hr>
            <ns3:cad>0</ns3:cad>
          </ns3:TrackPointExtension>
        </extensions>
      </trkpt>
      <trkpt lat="43.774419240653514862060546875" lon="1.57064418308436870574951171875">
        <ele>161.600006103515625</ele>
        <time>2026-08-13T09:01:25.000Z</time>
        <extensions>
          <ns3:TrackPointExtension>
            <ns3:hr>81</ns3:hr>
            <ns3:cad>0</ns3:cad>
          </ns3:TrackPointExtension>
        </extensions>
      </trkpt>
      <trkpt lat="43.77443240024149417877197265625" lon="1.57064317725598812103271484375">
        <ele>161.600006103515625</ele>
        <time>2026-08-13T09:01:26.000Z</time>
        <extensions>
          <ns3:TrackPointExtension>
            <ns3:hr>81</ns3:hr>
            <ns3:cad>51</ns3:cad>
          </ns3:TrackPointExtension>
        </extensions>
      </trkpt>
      <trkpt lat="43.77444547601044178009033203125" lon="1.57063345424830913543701171875">
        <ele>161.600006103515625</ele>
        <time>2026-08-13T09:01:27.000Z</time>
        <extensions>
          <ns3:TrackPointExtension>
            <ns3:hr>81</ns3:hr>
            <ns3:cad>51</ns3:cad>
          </ns3:TrackPointExtension>
        </extensions>
      </trkpt>
      <trkpt lat="43.77445838414132595062255859375" lon="1.57062448561191558837890625">
        <ele>161.600006103515625</ele>
        <time>2026-08-13T09:01:28.000Z</time>
        <extensions>
          <ns3:TrackPointExtension>
            <ns3:hr>81</ns3:hr>
            <ns3:cad>53</ns3:cad>
          </ns3:TrackPointExtension>
        </extensions>
      </trkpt>
      <trkpt lat="43.7744713760912418365478515625" lon="1.5706149302423000335693359375">
        <ele>161.600006103515625</ele>
        <time>2026-08-13T09:01:29.000Z</time>
        <extensions>
          <ns3:TrackPointExtension>
            <ns3:hr>81</ns3:hr>
            <ns3:cad>53</ns3:cad>
          </ns3:TrackPointExtension>
        </extensions>
      </trkpt>
      <trkpt lat="43.77448319457471370697021484375" lon="1.5706050395965576171875">
        <ele>161.8000030517578125</ele>
        <time>2026-08-13T09:01:30.000Z</time>
        <extensions>
          <ns3:TrackPointExtension>
            <ns3:hr>81</ns3:hr>
            <ns3:cad>53</ns3:cad>
          </ns3:TrackPointExtension>
        </extensions>
      </trkpt>
      <trkpt lat="43.77449828200042247772216796875" lon="1.5705924667418003082275390625">
        <ele>161.8000030517578125</ele>
        <time>2026-08-13T09:01:31.000Z</time>
        <extensions>
          <ns3:TrackPointExtension>
            <ns3:hr>82</ns3:hr>
            <ns3:cad>53</ns3:cad>
          </ns3:TrackPointExtension>
        </extensions>
      </trkpt>
      <trkpt lat="43.7745099328458309173583984375" lon="1.57058198936283588409423828125">
        <ele>161.8000030517578125</ele>
        <time>2026-08-13T09:01:32.000Z</time>
        <extensions>
          <ns3:TrackPointExtension>
            <ns3:hr>82</ns3:hr>
            <ns3:cad>54</ns3:cad>
          </ns3:TrackPointExtension>
        </extensions>
      </trkpt>
      <trkpt lat="43.77452158369123935699462890625" lon="1.57057327218353748321533203125">
        <ele>161.8000030517578125</ele>
        <time>2026-08-13T09:01:33.000Z</time>
        <extensions>
          <ns3:TrackPointExtension>
            <ns3:hr>82</ns3:hr>
            <ns3:cad>54</ns3:cad>
          </ns3:TrackPointExtension>
        </extensions>
      </trkpt>
      <trkpt lat="43.7745357491075992584228515625" lon="1.5705607831478118896484375">
        <ele>161.8000030517578125</ele>
        <time>2026-08-13T09:01:34.000Z</time>
        <extensions>
          <ns3:TrackPointExtension>
            <ns3:hr>83</ns3:hr>
            <ns3:cad>54</ns3:cad>
          </ns3:TrackPointExtension>
        </extensions>
      </trkpt>
      <trkpt lat="43.77455259673297405242919921875" lon="1.57054779119789600372314453125">
        <ele>161.8000030517578125</ele>
        <time>2026-08-13T09:01:35.000Z</time>
        <extensions>
          <ns3:TrackPointExtension>
            <ns3:hr>83</ns3:hr>
            <ns3:cad>54</ns3:cad>
          </ns3:TrackPointExtension>
        </extensions>
      </trkpt>
      <trkpt lat="43.774567432701587677001953125" lon="1.57053639180958271026611328125">
        <ele>161.8000030517578125</ele>
        <time>2026-08-13T09:01:36.000Z</time>
        <extensions>
          <ns3:TrackPointExtension>
            <ns3:hr>82</ns3:hr>
            <ns3:cad>56</ns3:cad>
          </ns3:TrackPointExtension>
        </extensions>
      </trkpt>
      <trkpt lat="43.774580173194408416748046875" lon="1.57052666880190372467041015625">
        <ele>161.600006103515625</ele>
        <time>2026-08-13T09:01:37.000Z</time>
        <extensions>
          <ns3:TrackPointExtension>
            <ns3:hr>83</ns3:hr>
            <ns3:cad>57</ns3:cad>
          </ns3:TrackPointExtension>
        </extensions>
      </trkpt>
      <trkpt lat="43.774592913687229156494140625" lon="1.57051476649940013885498046875">
        <ele>161.600006103515625</ele>
        <time>2026-08-13T09:01:38.000Z</time>
        <extensions>
          <ns3:TrackPointExtension>
            <ns3:hr>85</ns3:hr>
            <ns3:cad>56</ns3:cad>
          </ns3:TrackPointExtension>
        </extensions>
      </trkpt>
      <trkpt lat="43.77460624091327190399169921875" lon="1.5705019421875476837158203125">
        <ele>161.600006103515625</ele>
        <time>2026-08-13T09:01:39.000Z</time>
        <extensions>
          <ns3:TrackPointExtension>
            <ns3:hr>87</ns3:hr>
            <ns3:cad>55</ns3:cad>
          </ns3:TrackPointExtension>
        </extensions>
      </trkpt>
      <trkpt lat="43.77462015487253665924072265625" lon="1.57049096189439296722412109375">
        <ele>161.600006103515625</ele>
        <time>2026-08-13T09:01:40.000Z</time>
        <extensions>
          <ns3:TrackPointExtension>
            <ns3:hr>88</ns3:hr>
            <ns3:cad>55</ns3:cad>
          </ns3:TrackPointExtension>
        </extensions>
      </trkpt>
      <trkpt lat="43.77463323064148426055908203125" lon="1.57047872431576251983642578125">
        <ele>161.600006103515625</ele>
        <time>2026-08-13T09:01:41.000Z</time>
        <extensions>
          <ns3:TrackPointExtension>
            <ns3:hr>88</ns3:hr>
            <ns3:cad>55</ns3:cad>
          </ns3:TrackPointExtension>
        </extensions>
      </trkpt>
      <trkpt lat="43.7746437080204486846923828125" lon="1.5704664029181003570556640625">
        <ele>161.600006103515625</ele>
        <time>2026-08-13T09:01:42.000Z</time>
        <extensions>
          <ns3:TrackPointExtension>
            <ns3:hr>88</ns3:hr>
            <ns3:cad>55</ns3:cad>
          </ns3:TrackPointExtension>
        </extensions>
      </trkpt>
      <trkpt lat="43.77465569414198398590087890625" lon="1.570456512272357940673828125">
        <ele>161.600006103515625</ele>
        <time>2026-08-13T09:01:43.000Z</time>
        <extensions>
          <ns3:TrackPointExtension>
            <ns3:hr>88</ns3:hr>
            <ns3:cad>55</ns3:cad>
          </ns3:TrackPointExtension>
        </extensions>
      </trkpt>
      <trkpt lat="43.77466566860675811767578125" lon="1.57044947147369384765625">
        <ele>161.600006103515625</ele>
        <time>2026-08-13T09:01:44.000Z</time>
        <extensions>
          <ns3:TrackPointExtension>
            <ns3:hr>88</ns3:hr>
            <ns3:cad>55</ns3:cad>
          </ns3:TrackPointExtension>
        </extensions>
      </trkpt>
      <trkpt lat="43.77467572689056396484375" lon="1.57044184394180774688720703125">
        <ele>161.600006103515625</ele>
        <time>2026-08-13T09:01:45.000Z</time>
        <extensions>
          <ns3:TrackPointExtension>
            <ns3:hr>88</ns3:hr>
            <ns3:cad>55</ns3:cad>
          </ns3:TrackPointExtension>
        </extensions>
      </trkpt>
      <trkpt lat="43.77468385733664035797119140625" lon="1.5704342164099216461181640625">
        <ele>161.600006103515625</ele>
        <time>2026-08-13T09:01:46.000Z</time>
        <extensions>
          <ns3:TrackPointExtension>
            <ns3:hr>88</ns3:hr>
            <ns3:cad>55</ns3:cad>
          </ns3:TrackPointExtension>
        </extensions>
      </trkpt>
      <trkpt lat="43.7746926583349704742431640625" lon="1.57042558304965496063232421875">
        <ele>161.600006103515625</ele>
        <time>2026-08-13T09:01:47.000Z</time>
        <extensions>
          <ns3:TrackPointExtension>
            <ns3:hr>88</ns3:hr>
            <ns3:cad>55</ns3:cad>
          </ns3:TrackPointExtension>
        </extensions>
      </trkpt>
      <trkpt lat="43.77470380626618862152099609375" lon="1.57041552476584911346435546875">
        <ele>161.600006103515625</ele>
        <time>2026-08-13T09:01:48.000Z</time>
        <extensions>
          <ns3:TrackPointExtension>
            <ns3:hr>89</ns3:hr>
            <ns3:cad>55</ns3:cad>
          </ns3:TrackPointExtension>
        </extensions>
      </trkpt>
      <trkpt lat="43.77471570856869220733642578125" lon="1.57040580175817012786865234375">
        <ele>161.399993896484375</ele>
        <time>2026-08-13T09:01:49.000Z</time>
        <extensions>
          <ns3:TrackPointExtension>
            <ns3:hr>89</ns3:hr>
            <ns3:cad>55</ns3:cad>
          </ns3:TrackPointExtension>
        </extensions>
      </trkpt>
      <trkpt lat="43.77472937107086181640625" lon="1.5703949891030788421630859375">
        <ele>161.399993896484375</ele>
        <time>2026-08-13T09:01:50.000Z</time>
        <extensions>
          <ns3:TrackPointExtension>
            <ns3:hr>89</ns3:hr>
            <ns3:cad>55</ns3:cad>
          </ns3:TrackPointExtension>
        </extensions>
      </trkpt>
      <trkpt lat="43.77474454231560230255126953125" lon="1.5703852660953998565673828125">
        <ele>161.399993896484375</ele>
        <time>2026-08-13T09:01:51.000Z</time>
        <extensions>
          <ns3:TrackPointExtension>
            <ns3:hr>89</ns3:hr>
            <ns3:cad>55</ns3:cad>
          </ns3:TrackPointExtension>
        </extensions>
      </trkpt>
      <trkpt lat="43.77475661225616931915283203125" lon="1.57037462107837200164794921875">
        <ele>161.399993896484375</ele>
        <time>2026-08-13T09:01:52.000Z</time>
        <extensions>
          <ns3:TrackPointExtension>
            <ns3:hr>88</ns3:hr>
            <ns3:cad>55</ns3:cad>
          </ns3:TrackPointExtension>
        </extensions>
      </trkpt>
      <trkpt lat="43.77477136440575122833251953125" lon="1.57036364078521728515625">
        <ele>161.399993896484375</ele>
        <time>2026-08-13T09:01:53.000Z</time>
        <extensions>
          <ns3:TrackPointExtension>
            <ns3:hr>89</ns3:hr>
            <ns3:cad>55</ns3:cad>
          </ns3:TrackPointExtension>
        </extensions>
      </trkpt>
      <trkpt lat="43.77478544600307941436767578125" lon="1.57035282813012599945068359375">
        <ele>161.399993896484375</ele>
        <time>2026-08-13T09:01:54.000Z</time>
        <extensions>
          <ns3:TrackPointExtension>
            <ns3:hr>89</ns3:hr>
            <ns3:cad>55</ns3:cad>
          </ns3:TrackPointExtension>
        </extensions>
      </trkpt>
      <trkpt lat="43.77480220980942249298095703125" lon="1.57033790834248065948486328125">
        <ele>161.399993896484375</ele>
        <time>2026-08-13T09:01:55.000Z</time>
        <extensions>
          <ns3:TrackPointExtension>
            <ns3:hr>89</ns3:hr>
            <ns3:cad>55</ns3:cad>
          </ns3:TrackPointExtension>
        </extensions>
      </trkpt>
      <trkpt lat="43.7748146988451480865478515625" lon="1.57032332383096218109130859375">
        <ele>161.399993896484375</ele>
        <time>2026-08-13T09:01:56.000Z</time>
        <extensions>
          <ns3:TrackPointExtension>
            <ns3:hr>89</ns3:hr>
            <ns3:cad>55</ns3:cad>
          </ns3:TrackPointExtension>
        </extensions>
      </trkpt>
      <trkpt lat="43.7748291157186031341552734375" lon="1.5703101642429828643798828125">
        <ele>161.399993896484375</ele>
        <time>2026-08-13T09:01:57.000Z</time>
        <extensions>
          <ns3:TrackPointExtension>
            <ns3:hr>89</ns3:hr>
            <ns3:cad>56</ns3:cad>
          </ns3:TrackPointExtension>
        </extensions>
      </trkpt>
      <trkpt lat="43.77484311349689960479736328125" lon="1.5702987648546695709228515625">
        <ele>161.1999969482421875</ele>
        <time>2026-08-13T09:01:58.000Z</time>
        <extensions>
          <ns3:TrackPointExtension>
            <ns3:hr>90</ns3:hr>
            <ns3:cad>56</ns3:cad>
          </ns3:TrackPointExtension>
        </extensions>
      </trkpt>
      <trkpt lat="43.774857111275196075439453125" lon="1.570286862552165985107421875">
        <ele>161.1999969482421875</ele>
        <time>2026-08-13T09:01:59.000Z</time>
        <extensions>
          <ns3:TrackPointExtension>
            <ns3:hr>90</ns3:hr>
            <ns3:cad>56</ns3:cad>
          </ns3:TrackPointExtension>
        </extensions>
      </trkpt>
      <trkpt lat="43.774871528148651123046875" lon="1.57027688808739185333251953125">
        <ele>161.1999969482421875</ele>
        <time>2026-08-13T09:02:00.000Z</time>
        <extensions>
          <ns3:TrackPointExtension>
            <ns3:hr>90</ns3:hr>
            <ns3:cad>56</ns3:cad>
          </ns3:TrackPointExtension>
        </extensions>
      </trkpt>
      <trkpt lat="43.7748844362795352935791015625" lon="1.570266745984554290771484375">
        <ele>161.1999969482421875</ele>
        <time>2026-08-13T09:02:01.000Z</time>
        <extensions>
          <ns3:TrackPointExtension>
            <ns3:hr>89</ns3:hr>
            <ns3:cad>56</ns3:cad>
          </ns3:TrackPointExtension>
        </extensions>
      </trkpt>
      <trkpt lat="43.7749022059142589569091796875" lon="1.57025434076786041259765625">
        <ele>161.1999969482421875</ele>
        <time>2026-08-13T09:02:02.000Z</time>
        <extensions>
          <ns3:TrackPointExtension>
            <ns3:hr>90</ns3:hr>
            <ns3:cad>57</ns3:cad>
          </ns3:TrackPointExtension>
        </extensions>
      </trkpt>
      <trkpt lat="43.77491620369255542755126953125" lon="1.57024495303630828857421875">
        <ele>161.1999969482421875</ele>
        <time>2026-08-13T09:02:03.000Z</time>
        <extensions>
          <ns3:TrackPointExtension>
            <ns3:hr>90</ns3:hr>
            <ns3:cad>57</ns3:cad>
          </ns3:TrackPointExtension>
        </extensions>
      </trkpt>
      <trkpt lat="43.77492793835699558258056640625" lon="1.570236571133136749267578125">
        <ele>161.1999969482421875</ele>
        <time>2026-08-13T09:02:04.000Z</time>
        <extensions>
          <ns3:TrackPointExtension>
            <ns3:hr>90</ns3:hr>
            <ns3:cad>57</ns3:cad>
          </ns3:TrackPointExtension>
        </extensions>
      </trkpt>
      <trkpt lat="43.77494537271559238433837890625" lon="1.5702246688306331634521484375">
        <ele>161</ele>
        <time>2026-08-13T09:02:05.000Z</time>
        <extensions>
          <ns3:TrackPointExtension>
            <ns3:hr>89</ns3:hr>
            <ns3:cad>57</ns3:cad>
          </ns3:TrackPointExtension>
        </extensions>
      </trkpt>
      <trkpt lat="43.77495878376066684722900390625" lon="1.570215784013271331787109375">
        <ele>161</ele>
        <time>2026-08-13T09:02:06.000Z</time>
        <extensions>
          <ns3:TrackPointExtension>
            <ns3:hr>90</ns3:hr>
            <ns3:cad>57</ns3:cad>
          </ns3:TrackPointExtension>
        </extensions>
      </trkpt>
      <trkpt lat="43.774973116815090179443359375" lon="1.57020597718656063079833984375">
        <ele>161</ele>
        <time>2026-08-13T09:02:07.000Z</time>
        <extensions>
          <ns3:TrackPointExtension>
            <ns3:hr>89</ns3:hr>
            <ns3:cad>57</ns3:cad>
          </ns3:TrackPointExtension>
        </extensions>
      </trkpt>
      <trkpt lat="43.774985857307910919189453125" lon="1.57019675709307193756103515625">
        <ele>161</ele>
        <time>2026-08-13T09:02:08.000Z</time>
        <extensions>
          <ns3:TrackPointExtension>
            <ns3:hr>90</ns3:hr>
            <ns3:cad>57</ns3:cad>
          </ns3:TrackPointExtension>
        </extensions>
      </trkpt>
      <trkpt lat="43.77499834634363651275634765625" lon="1.5701867826282978057861328125">
        <ele>161</ele>
        <time>2026-08-13T09:02:09.000Z</time>
        <extensions>
          <ns3:TrackPointExtension>
            <ns3:hr>90</ns3:hr>
            <ns3:cad>57</ns3:cad>
          </ns3:TrackPointExtension>
        </extensions>
      </trkpt>
      <trkpt lat="43.7750108353793621063232421875" lon="1.57017613761126995086669921875">
        <ele>161</ele>
        <time>2026-08-13T09:02:10.000Z</time>
        <extensions>
          <ns3:TrackPointExtension>
            <ns3:hr>90</ns3:hr>
            <ns3:cad>57</ns3:cad>
          </ns3:TrackPointExtension>
        </extensions>
      </trkpt>
      <trkpt lat="43.77502365969121456146240234375" lon="1.57016222365200519561767578125">
        <ele>161</ele>
        <time>2026-08-13T09:02:11.000Z</time>
        <extensions>
          <ns3:TrackPointExtension>
            <ns3:hr>90</ns3:hr>
            <ns3:cad>57</ns3:cad>
          </ns3:TrackPointExtension>
        </extensions>
      </trkpt>
      <trkpt lat="43.77503740601241588592529296875" lon="1.5701499022543430328369140625">
        <ele>161</ele>
        <time>2026-08-13T09:02:12.000Z</time>
        <extensions>
          <ns3:TrackPointExtension>
            <ns3:hr>90</ns3:hr>
            <ns3:cad>57</ns3:cad>
          </ns3:TrackPointExtension>
        </extensions>
      </trkpt>
      <trkpt lat="43.77505081705749034881591796875" lon="1.5701369941234588623046875">
        <ele>160.8000030517578125</ele>
        <time>2026-08-13T09:02:13.000Z</time>
        <extensions>
          <ns3:TrackPointExtension>
            <ns3:hr>91</ns3:hr>
            <ns3:cad>57</ns3:cad>
          </ns3:TrackPointExtension>
        </extensions>
      </trkpt>
      <trkpt lat="43.775064647197723388671875" lon="1.57012584619224071502685546875">
        <ele>160.8000030517578125</ele>
        <time>2026-08-13T09:02:14.000Z</time>
        <extensions>
          <ns3:TrackPointExtension>
            <ns3:hr>93</ns3:hr>
            <ns3:cad>57</ns3:cad>
          </ns3:TrackPointExtension>
        </extensions>
      </trkpt>
      <trkpt lat="43.77507797442376613616943359375" lon="1.57011126168072223663330078125">
        <ele>160.8000030517578125</ele>
        <time>2026-08-13T09:02:15.000Z</time>
        <extensions>
          <ns3:TrackPointExtension>
            <ns3:hr>94</ns3:hr>
            <ns3:cad>57</ns3:cad>
          </ns3:TrackPointExtension>
        </extensions>
      </trkpt>
      <trkpt lat="43.7750909663736820220947265625" lon="1.570099778473377227783203125">
        <ele>160.8000030517578125</ele>
        <time>2026-08-13T09:02:16.000Z</time>
        <extensions>
          <ns3:TrackPointExtension>
            <ns3:hr>95</ns3:hr>
            <ns3:cad>57</ns3:cad>
          </ns3:TrackPointExtension>
        </extensions>
      </trkpt>
      <trkpt lat="43.7751023657619953155517578125" lon="1.5700851939618587493896484375">
        <ele>160.8000030517578125</ele>
        <time>2026-08-13T09:02:17.000Z</time>
        <extensions>
          <ns3:TrackPointExtension>
            <ns3:hr>95</ns3:hr>
            <ns3:cad>57</ns3:cad>
          </ns3:TrackPointExtension>
        </extensions>
      </trkpt>
      <trkpt lat="43.7751151062548160552978515625" lon="1.57007253728806972503662109375">
        <ele>160.8000030517578125</ele>
        <time>2026-08-13T09:02:18.000Z</time>
        <extensions>
          <ns3:TrackPointExtension>
            <ns3:hr>96</ns3:hr>
            <ns3:cad>57</ns3:cad>
          </ns3:TrackPointExtension>
        </extensions>
      </trkpt>
      <trkpt lat="43.77512834966182708740234375" lon="1.57005988061428070068359375">
        <ele>160.600006103515625</ele>
        <time>2026-08-13T09:02:19.000Z</time>
        <extensions>
          <ns3:TrackPointExtension>
            <ns3:hr>96</ns3:hr>
            <ns3:cad>57</ns3:cad>
          </ns3:TrackPointExtension>
        </extensions>
      </trkpt>
      <trkpt lat="43.77514167688786983489990234375" lon="1.57004772685468196868896484375">
        <ele>160.600006103515625</ele>
        <time>2026-08-13T09:02:20.000Z</time>
        <extensions>
          <ns3:TrackPointExtension>
            <ns3:hr>97</ns3:hr>
            <ns3:cad>57</ns3:cad>
          </ns3:TrackPointExtension>
        </extensions>
      </trkpt>
      <trkpt lat="43.7751550041139125823974609375" lon="1.57003699801862239837646484375">
        <ele>160.600006103515625</ele>
        <time>2026-08-13T09:02:21.000Z</time>
        <extensions>
          <ns3:TrackPointExtension>
            <ns3:hr>97</ns3:hr>
            <ns3:cad>57</ns3:cad>
          </ns3:TrackPointExtension>
        </extensions>
      </trkpt>
      <trkpt lat="43.77516766078770160675048828125" lon="1.57002643682062625885009765625">
        <ele>160.600006103515625</ele>
        <time>2026-08-13T09:02:22.000Z</time>
        <extensions>
          <ns3:TrackPointExtension>
            <ns3:hr>97</ns3:hr>
            <ns3:cad>57</ns3:cad>
          </ns3:TrackPointExtension>
        </extensions>
      </trkpt>
      <trkpt lat="43.7751828320324420928955078125" lon="1.5700161270797252655029296875">
        <ele>160.600006103515625</ele>
        <time>2026-08-13T09:02:23.000Z</time>
        <extensions>
          <ns3:TrackPointExtension>
            <ns3:hr>98</ns3:hr>
            <ns3:cad>57</ns3:cad>
          </ns3:TrackPointExtension>
        </extensions>
      </trkpt>
      <trkpt lat="43.775196410715579986572265625" lon="1.57000497914850711822509765625">
        <ele>160.399993896484375</ele>
        <time>2026-08-13T09:02:24.000Z</time>
        <extensions>
          <ns3:TrackPointExtension>
            <ns3:hr>98</ns3:hr>
            <ns3:cad>57</ns3:cad>
          </ns3:TrackPointExtension>
        </extensions>
      </trkpt>
      <trkpt lat="43.775208480656147003173828125" lon="1.56999542377889156341552734375">
        <ele>160.399993896484375</ele>
        <time>2026-08-13T09:02:25.000Z</time>
        <extensions>
          <ns3:TrackPointExtension>
            <ns3:hr>98</ns3:hr>
            <ns3:cad>57</ns3:cad>
          </ns3:TrackPointExtension>
        </extensions>
      </trkpt>
      <trkpt lat="43.7752193771302700042724609375" lon="1.5699846111238002777099609375">
        <ele>160.399993896484375</ele>
        <time>2026-08-13T09:02:26.000Z</time>
        <extensions>
          <ns3:TrackPointExtension>
            <ns3:hr>98</ns3:hr>
            <ns3:cad>57</ns3:cad>
          </ns3:TrackPointExtension>
        </extensions>
      </trkpt>
      <trkpt lat="43.77523220144212245941162109375" lon="1.5699738822877407073974609375">
        <ele>160.399993896484375</ele>
        <time>2026-08-13T09:02:27.000Z</time>
        <extensions>
          <ns3:TrackPointExtension>
            <ns3:hr>98</ns3:hr>
            <ns3:cad>57</ns3:cad>
          </ns3:TrackPointExtension>
        </extensions>
      </trkpt>
      <trkpt lat="43.77524343319237232208251953125" lon="1.56996306963264942169189453125">
        <ele>160.1999969482421875</ele>
        <time>2026-08-13T09:02:28.000Z</time>
        <extensions>
          <ns3:TrackPointExtension>
            <ns3:hr>98</ns3:hr>
            <ns3:cad>57</ns3:cad>
          </ns3:TrackPointExtension>
        </extensions>
      </trkpt>
      <trkpt lat="43.77525583840906620025634765625" lon="1.56994664110243320465087890625">
        <ele>160.1999969482421875</ele>
        <time>2026-08-13T09:02:29.000Z</time>
        <extensions>
          <ns3:TrackPointExtension>
            <ns3:hr>98</ns3:hr>
            <ns3:cad>57</ns3:cad>
          </ns3:TrackPointExtension>
        </extensions>
      </trkpt>
      <trkpt lat="43.77526707015931606292724609375" lon="1.56993105076253414154052734375">
        <ele>160.1999969482421875</ele>
        <time>2026-08-13T09:02:30.000Z</time>
        <extensions>
          <ns3:TrackPointExtension>
            <ns3:hr>98</ns3:hr>
            <ns3:cad>57</ns3:cad>
          </ns3:TrackPointExtension>
        </extensions>
      </trkpt>
      <trkpt lat="43.7752805650234222412109375" lon="1.56991562806069850921630859375">
        <ele>160.1999969482421875</ele>
        <time>2026-08-13T09:02:31.000Z</time>
        <extensions>
          <ns3:TrackPointExtension>
            <ns3:hr>99</ns3:hr>
            <ns3:cad>57</ns3:cad>
          </ns3:TrackPointExtension>
        </extensions>
      </trkpt>
      <trkpt lat="43.77529464662075042724609375" lon="1.56990221701562404632568359375">
        <ele>160</ele>
        <time>2026-08-13T09:02:32.000Z</time>
        <extensions>
          <ns3:TrackPointExtension>
            <ns3:hr>99</ns3:hr>
            <ns3:cad>57</ns3:cad>
          </ns3:TrackPointExtension>
        </extensions>
      </trkpt>
      <trkpt lat="43.7753072194755077362060546875" lon="1.56989048235118389129638671875">
        <ele>160</ele>
        <time>2026-08-13T09:02:33.000Z</time>
        <extensions>
          <ns3:TrackPointExtension>
            <ns3:hr>100</ns3:hr>
            <ns3:cad>57</ns3:cad>
          </ns3:TrackPointExtension>
        </extensions>
      </trkpt>
      <trkpt lat="43.77532012760639190673828125" lon="1.569883525371551513671875">
        <ele>160</ele>
        <time>2026-08-13T09:02:34.000Z</time>
        <extensions>
          <ns3:TrackPointExtension>
            <ns3:hr>101</ns3:hr>
            <ns3:cad>57</ns3:cad>
          </ns3:TrackPointExtension>
        </extensions>
      </trkpt>
      <trkpt lat="43.77533353865146636962890625" lon="1.5698739700019359588623046875">
        <ele>160</ele>
        <time>2026-08-13T09:02:35.000Z</time>
        <extensions>
          <ns3:TrackPointExtension>
            <ns3:hr>101</ns3:hr>
            <ns3:cad>57</ns3:cad>
          </ns3:TrackPointExtension>
        </extensions>
      </trkpt>
      <trkpt lat="43.77534854225814342498779296875" lon="1.56986215151846408843994140625">
        <ele>159.8000030517578125</ele>
        <time>2026-08-13T09:02:36.000Z</time>
        <extensions>
          <ns3:TrackPointExtension>
            <ns3:hr>101</ns3:hr>
            <ns3:cad>57</ns3:cad>
          </ns3:TrackPointExtension>
        </extensions>
      </trkpt>
      <trkpt lat="43.7753598578274250030517578125" lon="1.569851003587245941162109375">
        <ele>159.8000030517578125</ele>
        <time>2026-08-13T09:02:37.000Z</time>
        <extensions>
          <ns3:TrackPointExtension>
            <ns3:hr>101</ns3:hr>
            <ns3:cad>56</ns3:cad>
          </ns3:TrackPointExtension>
        </extensions>
      </trkpt>
      <trkpt lat="43.7753744423389434814453125" lon="1.5698365867137908935546875">
        <ele>159.8000030517578125</ele>
        <time>2026-08-13T09:02:38.000Z</time>
        <extensions>
          <ns3:TrackPointExtension>
            <ns3:hr>101</ns3:hr>
            <ns3:cad>56</ns3:cad>
          </ns3:TrackPointExtension>
        </extensions>
      </trkpt>
      <trkpt lat="43.775386847555637359619140625" lon="1.56982460059225559234619140625">
        <ele>159.600006103515625</ele>
        <time>2026-08-13T09:02:39.000Z</time>
        <extensions>
          <ns3:TrackPointExtension>
            <ns3:hr>101</ns3:hr>
            <ns3:cad>56</ns3:cad>
          </ns3:TrackPointExtension>
        </extensions>
      </trkpt>
      <trkpt lat="43.77539900131523609161376953125" lon="1.56981303356587886810302734375">
        <ele>159.600006103515625</ele>
        <time>2026-08-13T09:02:40.000Z</time>
        <extensions>
          <ns3:TrackPointExtension>
            <ns3:hr>101</ns3:hr>
            <ns3:cad>56</ns3:cad>
          </ns3:TrackPointExtension>
        </extensions>
      </trkpt>
      <trkpt lat="43.77541140653192996978759765625" lon="1.5698012150824069976806640625">
        <ele>159.399993896484375</ele>
        <time>2026-08-13T09:02:41.000Z</time>
        <extensions>
          <ns3:TrackPointExtension>
            <ns3:hr>100</ns3:hr>
            <ns3:cad>56</ns3:cad>
          </ns3:TrackPointExtension>
        </extensions>
      </trkpt>
      <trkpt lat="43.7754227221012115478515625" lon="1.56979174353182315826416015625">
        <ele>159.399993896484375</ele>
        <time>2026-08-13T09:02:42.000Z</time>
        <extensions>
          <ns3:TrackPointExtension>
            <ns3:hr>99</ns3:hr>
            <ns3:cad>56</ns3:cad>
          </ns3:TrackPointExtension>
        </extensions>
      </trkpt>
      <trkpt lat="43.775436468422412872314453125" lon="1.56978302635252475738525390625">
        <ele>159.1999969482421875</ele>
        <time>2026-08-13T09:02:43.000Z</time>
        <extensions>
          <ns3:TrackPointExtension>
            <ns3:hr>98</ns3:hr>
            <ns3:cad>56</ns3:cad>
          </ns3:TrackPointExtension>
        </extensions>
      </trkpt>
      <trkpt lat="43.775448538362979888916015625" lon="1.56977464444935321807861328125">
        <ele>159.1999969482421875</ele>
        <time>2026-08-13T09:02:44.000Z</time>
        <extensions>
          <ns3:TrackPointExtension>
            <ns3:hr>98</ns3:hr>
            <ns3:cad>57</ns3:cad>
          </ns3:TrackPointExtension>
        </extensions>
      </trkpt>
      <trkpt lat="43.77546119503676891326904296875" lon="1.56976391561329364776611328125">
        <ele>159</ele>
        <time>2026-08-13T09:02:45.000Z</time>
        <extensions>
          <ns3:TrackPointExtension>
            <ns3:hr>97</ns3:hr>
            <ns3:cad>57</ns3:cad>
          </ns3:TrackPointExtension>
        </extensions>
      </trkpt>
      <trkpt lat="43.77547292970120906829833984375" lon="1.56975586898624897003173828125">
        <ele>159</ele>
        <time>2026-08-13T09:02:46.000Z</time>
        <extensions>
          <ns3:TrackPointExtension>
            <ns3:hr>97</ns3:hr>
            <ns3:cad>57</ns3:cad>
          </ns3:TrackPointExtension>
        </extensions>
      </trkpt>
      <trkpt lat="43.7754835747182369232177734375" lon="1.5697482414543628692626953125">
        <ele>159</ele>
        <time>2026-08-13T09:02:47.000Z</time>
        <extensions>
          <ns3:TrackPointExtension>
            <ns3:hr>97</ns3:hr>
            <ns3:cad>57</ns3:cad>
          </ns3:TrackPointExtension>
        </extensions>
      </trkpt>
      <trkpt lat="43.77549740485846996307373046875" lon="1.56973826698958873748779296875">
        <ele>158.8000030517578125</ele>
        <time>2026-08-13T09:02:48.000Z</time>
        <extensions>
          <ns3:TrackPointExtension>
            <ns3:hr>97</ns3:hr>
            <ns3:cad>57</ns3:cad>
          </ns3:TrackPointExtension>
        </extensions>
      </trkpt>
      <trkpt lat="43.7755120731890201568603515625" lon="1.5697266161441802978515625">
        <ele>158.8000030517578125</ele>
        <time>2026-08-13T09:02:49.000Z</time>
        <extensions>
          <ns3:TrackPointExtension>
            <ns3:hr>97</ns3:hr>
            <ns3:cad>57</ns3:cad>
          </ns3:TrackPointExtension>
        </extensions>
      </trkpt>
      <trkpt lat="43.775525987148284912109375" lon="1.5697123669087886810302734375">
        <ele>158.8000030517578125</ele>
        <time>2026-08-13T09:02:50.000Z</time>
        <extensions>
          <ns3:TrackPointExtension>
            <ns3:hr>96</ns3:hr>
            <ns3:cad>57</ns3:cad>
          </ns3:TrackPointExtension>
        </extensions>
      </trkpt>
      <trkpt lat="43.77553881146013736724853515625" lon="1.5696976147592067718505859375">
        <ele>158.600006103515625</ele>
        <time>2026-08-13T09:02:51.000Z</time>
        <extensions>
          <ns3:TrackPointExtension>
            <ns3:hr>96</ns3:hr>
            <ns3:cad>57</ns3:cad>
          </ns3:TrackPointExtension>
        </extensions>
      </trkpt>
      <trkpt lat="43.775552473962306976318359375" lon="1.5696845389902591705322265625">
        <ele>158.600006103515625</ele>
        <time>2026-08-13T09:02:52.000Z</time>
        <extensions>
          <ns3:TrackPointExtension>
            <ns3:hr>96</ns3:hr>
            <ns3:cad>56</ns3:cad>
          </ns3:TrackPointExtension>
        </extensions>
      </trkpt>
      <trkpt lat="43.7755670584738254547119140625" lon="1.5696707926690578460693359375">
        <ele>158.399993896484375</ele>
        <time>2026-08-13T09:02:53.000Z</time>
        <extensions>
          <ns3:TrackPointExtension>
            <ns3:hr>96</ns3:hr>
            <ns3:cad>56</ns3:cad>
          </ns3:TrackPointExtension>
        </extensions>
      </trkpt>
      <trkpt lat="43.77558072097599506378173828125" lon="1.5696573816239833831787109375">
        <ele>158.399993896484375</ele>
        <time>2026-08-13T09:02:54.000Z</time>
        <extensions>
          <ns3:TrackPointExtension>
            <ns3:hr>96</ns3:hr>
            <ns3:cad>56</ns3:cad>
          </ns3:TrackPointExtension>
        </extensions>
      </trkpt>
      <trkpt lat="43.77559312619268894195556640625" lon="1.5696469880640506744384765625">
        <ele>158.1999969482421875</ele>
        <time>2026-08-13T09:02:55.000Z</time>
        <extensions>
          <ns3:TrackPointExtension>
            <ns3:hr>96</ns3:hr>
            <ns3:cad>56</ns3:cad>
          </ns3:TrackPointExtension>
        </extensions>
      </trkpt>
      <trkpt lat="43.7756056152284145355224609375" lon="1.56963483430445194244384765625">
        <ele>158.1999969482421875</ele>
        <time>2026-08-13T09:02:56.000Z</time>
        <extensions>
          <ns3:TrackPointExtension>
            <ns3:hr>96</ns3:hr>
            <ns3:cad>57</ns3:cad>
          </ns3:TrackPointExtension>
        </extensions>
      </trkpt>
      <trkpt lat="43.7756193615496158599853515625" lon="1.56962092034518718719482421875">
        <ele>158</ele>
        <time>2026-08-13T09:02:57.000Z</time>
        <extensions>
          <ns3:TrackPointExtension>
            <ns3:hr>96</ns3:hr>
            <ns3:cad>57</ns3:cad>
          </ns3:TrackPointExtension>
        </extensions>
      </trkpt>
      <trkpt lat="43.77563268877565860748291015625" lon="1.56960926949977874755859375">
        <ele>158</ele>
        <time>2026-08-13T09:02:58.000Z</time>
        <extensions>
          <ns3:TrackPointExtension>
            <ns3:hr>95</ns3:hr>
            <ns3:cad>57</ns3:cad>
          </ns3:TrackPointExtension>
        </extensions>
      </trkpt>
      <trkpt lat="43.7756453454494476318359375" lon="1.5695978701114654541015625">
        <ele>157.8000030517578125</ele>
        <time>2026-08-13T09:02:59.000Z</time>
        <extensions>
          <ns3:TrackPointExtension>
            <ns3:hr>96</ns3:hr>
            <ns3:cad>57</ns3:cad>
          </ns3:TrackPointExtension>
        </extensions>
      </trkpt>
      <trkpt lat="43.7756569124758243560791015625" lon="1.56958906911313533782958984375">
        <ele>157.8000030517578125</ele>
        <time>2026-08-13T09:03:00.000Z</time>
        <extensions>
          <ns3:TrackPointExtension>
            <ns3:hr>96</ns3:hr>
            <ns3:cad>57</ns3:cad>
          </ns3:TrackPointExtension>
        </extensions>
      </trkpt>
      <trkpt lat="43.7756706587970256805419921875" lon="1.56957766972482204437255859375">
        <ele>157.600006103515625</ele>
        <time>2026-08-13T09:03:01.000Z</time>
        <extensions>
          <ns3:TrackPointExtension>
            <ns3:hr>96</ns3:hr>
            <ns3:cad>57</ns3:cad>
          </ns3:TrackPointExtension>
        </extensions>
      </trkpt>
      <trkpt lat="43.775683902204036712646484375" lon="1.56956576742231845855712890625">
        <ele>157.600006103515625</ele>
        <time>2026-08-13T09:03:02.000Z</time>
        <extensions>
          <ns3:TrackPointExtension>
            <ns3:hr>96</ns3:hr>
            <ns3:cad>57</ns3:cad>
          </ns3:TrackPointExtension>
        </extensions>
      </trkpt>
      <trkpt lat="43.775696642696857452392578125" lon="1.56955453567206859588623046875">
        <ele>157.399993896484375</ele>
        <time>2026-08-13T09:03:03.000Z</time>
        <extensions>
          <ns3:TrackPointExtension>
            <ns3:hr>96</ns3:hr>
            <ns3:cad>58</ns3:cad>
          </ns3:TrackPointExtension>
        </extensions>
      </trkpt>
      <trkpt lat="43.77570879645645618438720703125" lon="1.5695433877408504486083984375">
        <ele>157.399993896484375</ele>
        <time>2026-08-13T09:03:04.000Z</time>
        <extensions>
          <ns3:TrackPointExtension>
            <ns3:hr>96</ns3:hr>
            <ns3:cad>58</ns3:cad>
          </ns3:TrackPointExtension>
        </extensions>
      </trkpt>
      <trkpt lat="43.77572304569184780120849609375" lon="1.569531150162220001220703125">
        <ele>157.1999969482421875</ele>
        <time>2026-08-13T09:03:05.000Z</time>
        <extensions>
          <ns3:TrackPointExtension>
            <ns3:hr>96</ns3:hr>
            <ns3:cad>58</ns3:cad>
          </ns3:TrackPointExtension>
        </extensions>
      </trkpt>
      <trkpt lat="43.7757370434701442718505859375" lon="1.56951916404068470001220703125">
        <ele>157</ele>
        <time>2026-08-13T09:03:06.000Z</time>
        <extensions>
          <ns3:TrackPointExtension>
            <ns3:hr>97</ns3:hr>
            <ns3:cad>58</ns3:cad>
          </ns3:TrackPointExtension>
        </extensions>
      </trkpt>
      <trkpt lat="43.77574902959167957305908203125" lon="1.5695055015385150909423828125">
        <ele>157</ele>
        <time>2026-08-13T09:03:07.000Z</time>
        <extensions>
          <ns3:TrackPointExtension>
            <ns3:hr>97</ns3:hr>
            <ns3:cad>58</ns3:cad>
          </ns3:TrackPointExtension>
        </extensions>
      </trkpt>
      <trkpt lat="43.77575959078967571258544921875" lon="1.56949393451213836669921875">
        <ele>156.8000030517578125</ele>
        <time>2026-08-13T09:03:08.000Z</time>
        <extensions>
          <ns3:TrackPointExtension>
            <ns3:hr>97</ns3:hr>
            <ns3:cad>57</ns3:cad>
          </ns3:TrackPointExtension>
        </extensions>
      </trkpt>
      <trkpt lat="43.775772750377655029296875" lon="1.56948186457157135009765625">
        <ele>156.600006103515625</ele>
        <time>2026-08-13T09:03:09.000Z</time>
        <extensions>
          <ns3:TrackPointExtension>
            <ns3:hr>97</ns3:hr>
            <ns3:cad>57</ns3:cad>
          </ns3:TrackPointExtension>
        </extensions>
      </trkpt>
      <trkpt lat="43.7757883407175540924072265625" lon="1.56946920789778232574462890625">
        <ele>156.600006103515625</ele>
        <time>2026-08-13T09:03:10.000Z</time>
        <extensions>
          <ns3:TrackPointExtension>
            <ns3:hr>97</ns3:hr>
            <ns3:cad>57</ns3:cad>
          </ns3:TrackPointExtension>
        </extensions>
      </trkpt>
      <trkpt lat="43.77580300904810428619384765625" lon="1.56945546157658100128173828125">
        <ele>156.399993896484375</ele>
        <time>2026-08-13T09:03:11.000Z</time>
        <extensions>
          <ns3:TrackPointExtension>
            <ns3:hr>97</ns3:hr>
            <ns3:cad>57</ns3:cad>
          </ns3:TrackPointExtension>
        </extensions>
      </trkpt>
      <trkpt lat="43.7758165039122104644775390625" lon="1.569443643093109130859375">
        <ele>156.399993896484375</ele>
        <time>2026-08-13T09:03:12.000Z</time>
        <extensions>
          <ns3:TrackPointExtension>
            <ns3:hr>97</ns3:hr>
            <ns3:cad>58</ns3:cad>
          </ns3:TrackPointExtension>
        </extensions>
      </trkpt>
      <trkpt lat="43.77583167515695095062255859375" lon="1.569432914257049560546875">
        <ele>156.1999969482421875</ele>
        <time>2026-08-13T09:03:13.000Z</time>
        <extensions>
          <ns3:TrackPointExtension>
            <ns3:hr>98</ns3:hr>
            <ns3:cad>58</ns3:cad>
          </ns3:TrackPointExtension>
        </extensions>
      </trkpt>
      <trkpt lat="43.77584709785878658294677734375" lon="1.5694220177829265594482421875">
        <ele>156</ele>
        <time>2026-08-13T09:03:14.000Z</time>
        <extensions>
          <ns3:TrackPointExtension>
            <ns3:hr>98</ns3:hr>
            <ns3:cad>57</ns3:cad>
          </ns3:TrackPointExtension>
        </extensions>
      </trkpt>
      <trkpt lat="43.77586193382740020751953125" lon="1.56941003166139125823974609375">
        <ele>156</ele>
        <time>2026-08-13T09:03:15.000Z</time>
        <extensions>
          <ns3:TrackPointExtension>
            <ns3:hr>99</ns3:hr>
            <ns3:cad>56</ns3:cad>
          </ns3:TrackPointExtension>
        </extensions>
      </trkpt>
      <trkpt lat="43.77587559632956981658935546875" lon="1.5693972073495388031005859375">
        <ele>155.8000030517578125</ele>
        <time>2026-08-13T09:03:16.000Z</time>
        <extensions>
          <ns3:TrackPointExtension>
            <ns3:hr>99</ns3:hr>
            <ns3:cad>56</ns3:cad>
          </ns3:TrackPointExtension>
        </extensions>
      </trkpt>
      <trkpt lat="43.77588850446045398712158203125" lon="1.56938522122800350189208984375">
        <ele>155.600006103515625</ele>
        <time>2026-08-13T09:03:17.000Z</time>
        <extensions>
          <ns3:TrackPointExtension>
            <ns3:hr>98</ns3:hr>
            <ns3:cad>56</ns3:cad>
          </ns3:TrackPointExtension>
        </extensions>
      </trkpt>
      <trkpt lat="43.7759026698768138885498046875" lon="1.56937499530613422393798828125">
        <ele>155.600006103515625</ele>
        <time>2026-08-13T09:03:18.000Z</time>
        <extensions>
          <ns3:TrackPointExtension>
            <ns3:hr>98</ns3:hr>
            <ns3:cad>57</ns3:cad>
          </ns3:TrackPointExtension>
        </extensions>
      </trkpt>
      <trkpt lat="43.77591482363641262054443359375" lon="1.56936585903167724609375">
        <ele>155.399993896484375</ele>
        <time>2026-08-13T09:03:19.000Z</time>
        <extensions>
          <ns3:TrackPointExtension>
            <ns3:hr>96</ns3:hr>
            <ns3:cad>57</ns3:cad>
          </ns3:TrackPointExtension>
        </extensions>
      </trkpt>
      <trkpt lat="43.77592605538666248321533203125" lon="1.5693532861769199371337890625">
        <ele>155.399993896484375</ele>
        <time>2026-08-13T09:03:20.000Z</time>
        <extensions>
          <ns3:TrackPointExtension>
            <ns3:hr>95</ns3:hr>
            <ns3:cad>57</ns3:cad>
          </ns3:TrackPointExtension>
        </extensions>
      </trkpt>
      <trkpt lat="43.77593762241303920745849609375" lon="1.569343395531177520751953125">
        <ele>155.1999969482421875</ele>
        <time>2026-08-13T09:03:21.000Z</time>
        <extensions>
          <ns3:TrackPointExtension>
            <ns3:hr>94</ns3:hr>
            <ns3:cad>56</ns3:cad>
          </ns3:TrackPointExtension>
        </extensions>
      </trkpt>
      <trkpt lat="43.775950782001018524169921875" lon="1.56933258287608623504638671875">
        <ele>155</ele>
        <time>2026-08-13T09:03:22.000Z</time>
        <extensions>
          <ns3:TrackPointExtension>
            <ns3:hr>94</ns3:hr>
            <ns3:cad>58</ns3:cad>
          </ns3:TrackPointExtension>
        </extensions>
      </trkpt>
      <trkpt lat="43.7759633548557758331298828125" lon="1.56932285986840724945068359375">
        <ele>155</ele>
        <time>2026-08-13T09:03:23.000Z</time>
        <extensions>
          <ns3:TrackPointExtension>
            <ns3:hr>93</ns3:hr>
            <ns3:cad>58</ns3:cad>
          </ns3:TrackPointExtension>
        </extensions>
      </trkpt>
      <trkpt lat="43.77597467042505741119384765625" lon="1.569312550127506256103515625">
        <ele>154.8000030517578125</ele>
        <time>2026-08-13T09:03:24.000Z</time>
        <extensions>
          <ns3:TrackPointExtension>
            <ns3:hr>93</ns3:hr>
            <ns3:cad>58</ns3:cad>
          </ns3:TrackPointExtension>
        </extensions>
      </trkpt>
      <trkpt lat="43.77598321996629238128662109375" lon="1.56930341385304927825927734375">
        <ele>154.600006103515625</ele>
        <time>2026-08-13T09:03:25.000Z</time>
        <extensions>
          <ns3:TrackPointExtension>
            <ns3:hr>93</ns3:hr>
            <ns3:cad>58</ns3:cad>
          </ns3:TrackPointExtension>
        </extensions>
      </trkpt>
      <trkpt lat="43.77599713392555713653564453125" lon="1.5692905895411968231201171875">
        <ele>154.399993896484375</ele>
        <time>2026-08-13T09:03:26.000Z</time>
        <extensions>
          <ns3:TrackPointExtension>
            <ns3:hr>93</ns3:hr>
            <ns3:cad>58</ns3:cad>
          </ns3:TrackPointExtension>
        </extensions>
      </trkpt>
      <trkpt lat="43.7760106287896633148193359375" lon="1.569280363619327545166015625">
        <ele>154.399993896484375</ele>
        <time>2026-08-13T09:03:27.000Z</time>
        <extensions>
          <ns3:TrackPointExtension>
            <ns3:hr>93</ns3:hr>
            <ns3:cad>58</ns3:cad>
          </ns3:TrackPointExtension>
        </extensions>
      </trkpt>
      <trkpt lat="43.77602362073957920074462890625" lon="1.56927223317325115203857421875">
        <ele>154.1999969482421875</ele>
        <time>2026-08-13T09:03:28.000Z</time>
        <extensions>
          <ns3:TrackPointExtension>
            <ns3:hr>93</ns3:hr>
            <ns3:cad>57</ns3:cad>
          </ns3:TrackPointExtension>
        </extensions>
      </trkpt>
      <trkpt lat="43.7760347686707973480224609375" lon="1.56926133669912815093994140625">
        <ele>154</ele>
        <time>2026-08-13T09:03:29.000Z</time>
        <extensions>
          <ns3:TrackPointExtension>
            <ns3:hr>93</ns3:hr>
            <ns3:cad>57</ns3:cad>
          </ns3:TrackPointExtension>
        </extensions>
      </trkpt>
      <trkpt lat="43.7760458327829837799072265625" lon="1.56925060786306858062744140625">
        <ele>154</ele>
        <time>2026-08-13T09:03:30.000Z</time>
        <extensions>
          <ns3:TrackPointExtension>
            <ns3:hr>93</ns3:hr>
            <ns3:cad>57</ns3:cad>
          </ns3:TrackPointExtension>
        </extensions>
      </trkpt>
      <trkpt lat="43.77605773508548736572265625" lon="1.5692382864654064178466796875">
        <ele>153.8000030517578125</ele>
        <time>2026-08-13T09:03:31.000Z</time>
        <extensions>
          <ns3:TrackPointExtension>
            <ns3:hr>93</ns3:hr>
            <ns3:cad>57</ns3:cad>
          </ns3:TrackPointExtension>
        </extensions>
      </trkpt>
      <trkpt lat="43.77607089467346668243408203125" lon="1.56922361813485622406005859375">
        <ele>153.8000030517578125</ele>
        <time>2026-08-13T09:03:32.000Z</time>
        <extensions>
          <ns3:TrackPointExtension>
            <ns3:hr>92</ns3:hr>
            <ns3:cad>57</ns3:cad>
          </ns3:TrackPointExtension>
        </extensions>
      </trkpt>
      <trkpt lat="43.7760852277278900146484375" lon="1.5692121349275112152099609375">
        <ele>153.600006103515625</ele>
        <time>2026-08-13T09:03:33.000Z</time>
        <extensions>
          <ns3:TrackPointExtension>
            <ns3:hr>92</ns3:hr>
            <ns3:cad>57</ns3:cad>
          </ns3:TrackPointExtension>
        </extensions>
      </trkpt>
      <trkpt lat="43.776098303496837615966796875" lon="1.5692009031772613525390625">
        <ele>153.600006103515625</ele>
        <time>2026-08-13T09:03:34.000Z</time>
        <extensions>
          <ns3:TrackPointExtension>
            <ns3:hr>92</ns3:hr>
            <ns3:cad>57</ns3:cad>
          </ns3:TrackPointExtension>
        </extensions>
      </trkpt>
      <trkpt lat="43.7761105410754680633544921875" lon="1.56919243745505809783935546875">
        <ele>153.399993896484375</ele>
        <time>2026-08-13T09:03:35.000Z</time>
        <extensions>
          <ns3:TrackPointExtension>
            <ns3:hr>91</ns3:hr>
            <ns3:cad>57</ns3:cad>
          </ns3:TrackPointExtension>
        </extensions>
      </trkpt>
      <trkpt lat="43.776123784482479095458984375" lon="1.5691826306283473968505859375">
        <ele>153.399993896484375</ele>
        <time>2026-08-13T09:03:36.000Z</time>
        <extensions>
          <ns3:TrackPointExtension>
            <ns3:hr>91</ns3:hr>
            <ns3:cad>56</ns3:cad>
          </ns3:TrackPointExtension>
        </extensions>
      </trkpt>
      <trkpt lat="43.77613929100334644317626953125" lon="1.56916829757392406463623046875">
        <ele>153.1999969482421875</ele>
        <time>2026-08-13T09:03:37.000Z</time>
        <extensions>
          <ns3:TrackPointExtension>
            <ns3:hr>92</ns3:hr>
            <ns3:cad>56</ns3:cad>
          </ns3:TrackPointExtension>
        </extensions>
      </trkpt>
      <trkpt lat="43.77615136094391345977783203125" lon="1.56915388070046901702880859375">
        <ele>153</ele>
        <time>2026-08-13T09:03:38.000Z</time>
        <extensions>
          <ns3:TrackPointExtension>
            <ns3:hr>92</ns3:hr>
            <ns3:cad>56</ns3:cad>
          </ns3:TrackPointExtension>
        </extensions>
      </trkpt>
      <trkpt lat="43.77616577781736850738525390625" lon="1.56914055347442626953125">
        <ele>153</ele>
        <time>2026-08-13T09:03:39.000Z</time>
        <extensions>
          <ns3:TrackPointExtension>
            <ns3:hr>92</ns3:hr>
            <ns3:cad>56</ns3:cad>
          </ns3:TrackPointExtension>
        </extensions>
      </trkpt>
      <trkpt lat="43.77617969177663326263427734375" lon="1.5691286511719226837158203125">
        <ele>153</ele>
        <time>2026-08-13T09:03:40.000Z</time>
        <extensions>
          <ns3:TrackPointExtension>
            <ns3:hr>91</ns3:hr>
            <ns3:cad>56</ns3:cad>
          </ns3:TrackPointExtension>
        </extensions>
      </trkpt>
      <trkpt lat="43.7761898338794708251953125" lon="1.56911934725940227508544921875">
        <ele>152.8000030517578125</ele>
        <time>2026-08-13T09:03:41.000Z</time>
        <extensions>
          <ns3:TrackPointExtension>
            <ns3:hr>92</ns3:hr>
            <ns3:cad>56</ns3:cad>
          </ns3:TrackPointExtension>
        </extensions>
      </trkpt>
      <trkpt lat="43.77620299346745014190673828125" lon="1.56910828314721584320068359375">
        <ele>152.8000030517578125</ele>
        <time>2026-08-13T09:03:42.000Z</time>
        <extensions>
          <ns3:TrackPointExtension>
            <ns3:hr>91</ns3:hr>
            <ns3:cad>56</ns3:cad>
          </ns3:TrackPointExtension>
        </extensions>
      </trkpt>
      <trkpt lat="43.776212967932224273681640625" lon="1.569099985063076019287109375">
        <ele>152.600006103515625</ele>
        <time>2026-08-13T09:03:43.000Z</time>
        <extensions>
          <ns3:TrackPointExtension>
            <ns3:hr>92</ns3:hr>
            <ns3:cad>56</ns3:cad>
          </ns3:TrackPointExtension>
        </extensions>
      </trkpt>
      <trkpt lat="43.7762231938540935516357421875" lon="1.569089926779270172119140625">
        <ele>152.600006103515625</ele>
        <time>2026-08-13T09:03:44.000Z</time>
        <extensions>
          <ns3:TrackPointExtension>
            <ns3:hr>92</ns3:hr>
            <ns3:cad>56</ns3:cad>
          </ns3:TrackPointExtension>
        </extensions>
      </trkpt>
      <trkpt lat="43.776234425604343414306640625" lon="1.56907844357192516326904296875">
        <ele>152.399993896484375</ele>
        <time>2026-08-13T09:03:45.000Z</time>
        <extensions>
          <ns3:TrackPointExtension>
            <ns3:hr>92</ns3:hr>
            <ns3:cad>56</ns3:cad>
          </ns3:TrackPointExtension>
        </extensions>
      </trkpt>
      <trkpt lat="43.77624657936394214630126953125" lon="1.5690666250884532928466796875">
        <ele>152.399993896484375</ele>
        <time>2026-08-13T09:03:46.000Z</time>
        <extensions>
          <ns3:TrackPointExtension>
            <ns3:hr>92</ns3:hr>
            <ns3:cad>57</ns3:cad>
          </ns3:TrackPointExtension>
        </extensions>
      </trkpt>
      <trkpt lat="43.7762587331235408782958984375" lon="1.56905463896691799163818359375">
        <ele>152.1999969482421875</ele>
        <time>2026-08-13T09:03:47.000Z</time>
        <extensions>
          <ns3:TrackPointExtension>
            <ns3:hr>92</ns3:hr>
            <ns3:cad>57</ns3:cad>
          </ns3:TrackPointExtension>
        </extensions>
      </trkpt>
      <trkpt lat="43.77627407200634479522705078125" lon="1.569041647017002105712890625">
        <ele>152</ele>
        <time>2026-08-13T09:03:48.000Z</time>
        <extensions>
          <ns3:TrackPointExtension>
            <ns3:hr>92</ns3:hr>
            <ns3:cad>57</ns3:cad>
          </ns3:TrackPointExtension>
        </extensions>
      </trkpt>
      <trkpt lat="43.7762889079749584197998046875" lon="1.56902915798127651214599609375">
        <ele>152</ele>
        <time>2026-08-13T09:03:49.000Z</time>
        <extensions>
          <ns3:TrackPointExtension>
            <ns3:hr>92</ns3:hr>
            <ns3:cad>57</ns3:cad>
          </ns3:TrackPointExtension>
        </extensions>
      </trkpt>
      <trkpt lat="43.7763036601245403289794921875" lon="1.569017507135868072509765625">
        <ele>152</ele>
        <time>2026-08-13T09:03:50.000Z</time>
        <extensions>
          <ns3:TrackPointExtension>
            <ns3:hr>92</ns3:hr>
            <ns3:cad>57</ns3:cad>
          </ns3:TrackPointExtension>
        </extensions>
      </trkpt>
      <trkpt lat="43.77631883136928081512451171875" lon="1.5690045990049839019775390625">
        <ele>151.8000030517578125</ele>
        <time>2026-08-13T09:03:51.000Z</time>
        <extensions>
          <ns3:TrackPointExtension>
            <ns3:hr>91</ns3:hr>
            <ns3:cad>57</ns3:cad>
          </ns3:TrackPointExtension>
        </extensions>
      </trkpt>
      <trkpt lat="43.77633241005241870880126953125" lon="1.5689905174076557159423828125">
        <ele>151.8000030517578125</ele>
        <time>2026-08-13T09:03:52.000Z</time>
        <extensions>
          <ns3:TrackPointExtension>
            <ns3:hr>91</ns3:hr>
            <ns3:cad>57</ns3:cad>
          </ns3:TrackPointExtension>
        </extensions>
      </trkpt>
      <trkpt lat="43.77634297125041484832763671875" lon="1.5689771063625812530517578125">
        <ele>151.8000030517578125</ele>
        <time>2026-08-13T09:03:53.000Z</time>
        <extensions>
          <ns3:TrackPointExtension>
            <ns3:hr>91</ns3:hr>
            <ns3:cad>57</ns3:cad>
          </ns3:TrackPointExtension>
        </extensions>
      </trkpt>
      <trkpt lat="43.77635420300066471099853515625" lon="1.568965874612331390380859375">
        <ele>151.600006103515625</ele>
        <time>2026-08-13T09:03:54.000Z</time>
        <extensions>
          <ns3:TrackPointExtension>
            <ns3:hr>92</ns3:hr>
            <ns3:cad>57</ns3:cad>
          </ns3:TrackPointExtension>
        </extensions>
      </trkpt>
      <trkpt lat="43.77636509947478771209716796875" lon="1.56895489431917667388916015625">
        <ele>151.600006103515625</ele>
        <time>2026-08-13T09:03:55.000Z</time>
        <extensions>
          <ns3:TrackPointExtension>
            <ns3:hr>93</ns3:hr>
            <ns3:cad>57</ns3:cad>
          </ns3:TrackPointExtension>
        </extensions>
      </trkpt>
      <trkpt lat="43.776376582682132720947265625" lon="1.56894265674054622650146484375">
        <ele>151.399993896484375</ele>
        <time>2026-08-13T09:03:56.000Z</time>
        <extensions>
          <ns3:TrackPointExtension>
            <ns3:hr>93</ns3:hr>
            <ns3:cad>57</ns3:cad>
          </ns3:TrackPointExtension>
        </extensions>
      </trkpt>
      <trkpt lat="43.77638823352754116058349609375" lon="1.56892840750515460968017578125">
        <ele>151.399993896484375</ele>
        <time>2026-08-13T09:03:57.000Z</time>
        <extensions>
          <ns3:TrackPointExtension>
            <ns3:hr>93</ns3:hr>
            <ns3:cad>57</ns3:cad>
          </ns3:TrackPointExtension>
        </extensions>
      </trkpt>
      <trkpt lat="43.77640080638229846954345703125" lon="1.56891583465039730072021484375">
        <ele>151.1999969482421875</ele>
        <time>2026-08-13T09:03:58.000Z</time>
        <extensions>
          <ns3:TrackPointExtension>
            <ns3:hr>93</ns3:hr>
            <ns3:cad>57</ns3:cad>
          </ns3:TrackPointExtension>
        </extensions>
      </trkpt>
      <trkpt lat="43.7764139659702777862548828125" lon="1.568903513252735137939453125">
        <ele>151.1999969482421875</ele>
        <time>2026-08-13T09:03:59.000Z</time>
        <extensions>
          <ns3:TrackPointExtension>
            <ns3:hr>93</ns3:hr>
            <ns3:cad>57</ns3:cad>
          </ns3:TrackPointExtension>
        </extensions>
      </trkpt>
      <trkpt lat="43.77642695792019367218017578125" lon="1.56889186240732669830322265625">
        <ele>151</ele>
        <time>2026-08-13T09:04:00.000Z</time>
        <extensions>
          <ns3:TrackPointExtension>
            <ns3:hr>92</ns3:hr>
            <ns3:cad>57</ns3:cad>
          </ns3:TrackPointExtension>
        </extensions>
      </trkpt>
      <trkpt lat="43.77643668092787265777587890625" lon="1.5688808821141719818115234375">
        <ele>151</ele>
        <time>2026-08-13T09:04:01.000Z</time>
        <extensions>
          <ns3:TrackPointExtension>
            <ns3:hr>93</ns3:hr>
            <ns3:cad>57</ns3:cad>
          </ns3:TrackPointExtension>
        </extensions>
      </trkpt>
      <trkpt lat="43.776448667049407958984375" lon="1.56886923126876354217529296875">
        <ele>150.8000030517578125</ele>
        <time>2026-08-13T09:04:02.000Z</time>
        <extensions>
          <ns3:TrackPointExtension>
            <ns3:hr>93</ns3:hr>
            <ns3:cad>57</ns3:cad>
          </ns3:TrackPointExtension>
        </extensions>
      </trkpt>
      <trkpt lat="43.776462413370609283447265625" lon="1.56885531730949878692626953125">
        <ele>150.8000030517578125</ele>
        <time>2026-08-13T09:04:03.000Z</time>
        <extensions>
          <ns3:TrackPointExtension>
            <ns3:hr>94</ns3:hr>
            <ns3:cad>56</ns3:cad>
          </ns3:TrackPointExtension>
        </extensions>
      </trkpt>
      <trkpt lat="43.7764743156731128692626953125" lon="1.5688441693782806396484375">
        <ele>150.600006103515625</ele>
        <time>2026-08-13T09:04:04.000Z</time>
        <extensions>
          <ns3:TrackPointExtension>
            <ns3:hr>96</ns3:hr>
            <ns3:cad>56</ns3:cad>
          </ns3:TrackPointExtension>
        </extensions>
      </trkpt>
      <trkpt lat="43.77648713998496532440185546875" lon="1.5688319317996501922607421875">
        <ele>150.399993896484375</ele>
        <time>2026-08-13T09:04:05.000Z</time>
        <extensions>
          <ns3:TrackPointExtension>
            <ns3:hr>97</ns3:hr>
            <ns3:cad>56</ns3:cad>
          </ns3:TrackPointExtension>
        </extensions>
      </trkpt>
      <trkpt lat="43.7765011377632617950439453125" lon="1.568819694221019744873046875">
        <ele>150.399993896484375</ele>
        <time>2026-08-13T09:04:06.000Z</time>
        <extensions>
          <ns3:TrackPointExtension>
            <ns3:hr>97</ns3:hr>
            <ns3:cad>56</ns3:cad>
          </ns3:TrackPointExtension>
        </extensions>
      </trkpt>
      <trkpt lat="43.77651480026543140411376953125" lon="1.5688066184520721435546875">
        <ele>150.1999969482421875</ele>
        <time>2026-08-13T09:04:07.000Z</time>
        <extensions>
          <ns3:TrackPointExtension>
            <ns3:hr>97</ns3:hr>
            <ns3:cad>56</ns3:cad>
          </ns3:TrackPointExtension>
        </extensions>
      </trkpt>
      <trkpt lat="43.77652854658663272857666015625" lon="1.56879521906375885009765625">
        <ele>150.1999969482421875</ele>
        <time>2026-08-13T09:04:08.000Z</time>
        <extensions>
          <ns3:TrackPointExtension>
            <ns3:hr>97</ns3:hr>
            <ns3:cad>57</ns3:cad>
          </ns3:TrackPointExtension>
        </extensions>
      </trkpt>
      <trkpt lat="43.7765412032604217529296875" lon="1.56878340058028697967529296875">
        <ele>150.1999969482421875</ele>
        <time>2026-08-13T09:04:09.000Z</time>
        <extensions>
          <ns3:TrackPointExtension>
            <ns3:hr>97</ns3:hr>
            <ns3:cad>57</ns3:cad>
          </ns3:TrackPointExtension>
        </extensions>
      </trkpt>
      <trkpt lat="43.77655117772519588470458984375" lon="1.56877434812486171722412109375">
        <ele>150</ele>
        <time>2026-08-13T09:04:10.000Z</time>
        <extensions>
          <ns3:TrackPointExtension>
            <ns3:hr>98</ns3:hr>
            <ns3:cad>57</ns3:cad>
          </ns3:TrackPointExtension>
        </extensions>
      </trkpt>
      <trkpt lat="43.776565007865428924560546875" lon="1.56876412220299243927001953125">
        <ele>150</ele>
        <time>2026-08-13T09:04:11.000Z</time>
        <extensions>
          <ns3:TrackPointExtension>
            <ns3:hr>98</ns3:hr>
            <ns3:cad>57</ns3:cad>
          </ns3:TrackPointExtension>
        </extensions>
      </trkpt>
      <trkpt lat="43.77657699398696422576904296875" lon="1.5687529742717742919921875">
        <ele>149.8000030517578125</ele>
        <time>2026-08-13T09:04:12.000Z</time>
        <extensions>
          <ns3:TrackPointExtension>
            <ns3:hr>99</ns3:hr>
            <ns3:cad>57</ns3:cad>
          </ns3:TrackPointExtension>
        </extensions>
      </trkpt>
      <trkpt lat="43.7765889801084995269775390625" lon="1.56874115578830242156982421875">
        <ele>149.8000030517578125</ele>
        <time>2026-08-13T09:04:13.000Z</time>
        <extensions>
          <ns3:TrackPointExtension>
            <ns3:hr>99</ns3:hr>
            <ns3:cad>57</ns3:cad>
          </ns3:TrackPointExtension>
        </extensions>
      </trkpt>
      <trkpt lat="43.776601217687129974365234375" lon="1.568730175495147705078125">
        <ele>149.600006103515625</ele>
        <time>2026-08-13T09:04:14.000Z</time>
        <extensions>
          <ns3:TrackPointExtension>
            <ns3:hr>99</ns3:hr>
            <ns3:cad>56</ns3:cad>
          </ns3:TrackPointExtension>
        </extensions>
      </trkpt>
      <trkpt lat="43.7766131199896335601806640625" lon="1.56872003339231014251708984375">
        <ele>149.600006103515625</ele>
        <time>2026-08-13T09:04:15.000Z</time>
        <extensions>
          <ns3:TrackPointExtension>
            <ns3:hr>99</ns3:hr>
            <ns3:cad>56</ns3:cad>
          </ns3:TrackPointExtension>
        </extensions>
      </trkpt>
      <trkpt lat="43.77662661485373973846435546875" lon="1.568709053099155426025390625">
        <ele>149.399993896484375</ele>
        <time>2026-08-13T09:04:16.000Z</time>
        <extensions>
          <ns3:TrackPointExtension>
            <ns3:hr>99</ns3:hr>
            <ns3:cad>55</ns3:cad>
          </ns3:TrackPointExtension>
        </extensions>
      </trkpt>
      <trkpt lat="43.77664086408913135528564453125" lon="1.56869421713054180145263671875">
        <ele>149.399993896484375</ele>
        <time>2026-08-13T09:04:17.000Z</time>
        <extensions>
          <ns3:TrackPointExtension>
            <ns3:hr>98</ns3:hr>
            <ns3:cad>55</ns3:cad>
          </ns3:TrackPointExtension>
        </extensions>
      </trkpt>
      <trkpt lat="43.77665360458195209503173828125" lon="1.56868063844740390777587890625">
        <ele>149.399993896484375</ele>
        <time>2026-08-13T09:04:18.000Z</time>
        <extensions>
          <ns3:TrackPointExtension>
            <ns3:hr>99</ns3:hr>
            <ns3:cad>55</ns3:cad>
          </ns3:TrackPointExtension>
        </extensions>
      </trkpt>
      <trkpt lat="43.77666433341801166534423828125" lon="1.56867041252553462982177734375">
        <ele>149.1999969482421875</ele>
        <time>2026-08-13T09:04:19.000Z</time>
        <extensions>
          <ns3:TrackPointExtension>
            <ns3:hr>99</ns3:hr>
            <ns3:cad>55</ns3:cad>
          </ns3:TrackPointExtension>
        </extensions>
      </trkpt>
      <trkpt lat="43.7766768224537372589111328125" lon="1.5686592645943164825439453125">
        <ele>149.1999969482421875</ele>
        <time>2026-08-13T09:04:20.000Z</time>
        <extensions>
          <ns3:TrackPointExtension>
            <ns3:hr>98</ns3:hr>
            <ns3:cad>56</ns3:cad>
          </ns3:TrackPointExtension>
        </extensions>
      </trkpt>
      <trkpt lat="43.77668947912752628326416015625" lon="1.56864644028246402740478515625">
        <ele>149.1999969482421875</ele>
        <time>2026-08-13T09:04:21.000Z</time>
        <extensions>
          <ns3:TrackPointExtension>
            <ns3:hr>98</ns3:hr>
            <ns3:cad>57</ns3:cad>
          </ns3:TrackPointExtension>
        </extensions>
      </trkpt>
      <trkpt lat="43.776701800525188446044921875" lon="1.5686361305415630340576171875">
        <ele>149</ele>
        <time>2026-08-13T09:04:22.000Z</time>
        <extensions>
          <ns3:TrackPointExtension>
            <ns3:hr>98</ns3:hr>
            <ns3:cad>57</ns3:cad>
          </ns3:TrackPointExtension>
        </extensions>
      </trkpt>
      <trkpt lat="43.77671512775123119354248046875" lon="1.5686230547726154327392578125">
        <ele>149</ele>
        <time>2026-08-13T09:04:23.000Z</time>
        <extensions>
          <ns3:TrackPointExtension>
            <ns3:hr>98</ns3:hr>
            <ns3:cad>56</ns3:cad>
          </ns3:TrackPointExtension>
        </extensions>
      </trkpt>
      <trkpt lat="43.77672803588211536407470703125" lon="1.56860746443271636962890625">
        <ele>149</ele>
        <time>2026-08-13T09:04:24.000Z</time>
        <extensions>
          <ns3:TrackPointExtension>
            <ns3:hr>98</ns3:hr>
            <ns3:cad>56</ns3:cad>
          </ns3:TrackPointExtension>
        </extensions>
      </trkpt>
      <trkpt lat="43.77674329094588756561279296875" lon="1.56859363429248332977294921875">
        <ele>148.8000030517578125</ele>
        <time>2026-08-13T09:04:25.000Z</time>
        <extensions>
          <ns3:TrackPointExtension>
            <ns3:hr>98</ns3:hr>
            <ns3:cad>56</ns3:cad>
          </ns3:TrackPointExtension>
        </extensions>
      </trkpt>
      <trkpt lat="43.77675804309546947479248046875" lon="1.56858106143772602081298828125">
        <ele>148.8000030517578125</ele>
        <time>2026-08-13T09:04:26.000Z</time>
        <extensions>
          <ns3:TrackPointExtension>
            <ns3:hr>97</ns3:hr>
            <ns3:cad>56</ns3:cad>
          </ns3:TrackPointExtension>
        </extensions>
      </trkpt>
      <trkpt lat="43.77677296288311481475830078125" lon="1.56856966204941272735595703125">
        <ele>148.600006103515625</ele>
        <time>2026-08-13T09:04:27.000Z</time>
        <extensions>
          <ns3:TrackPointExtension>
            <ns3:hr>98</ns3:hr>
            <ns3:cad>56</ns3:cad>
          </ns3:TrackPointExtension>
        </extensions>
      </trkpt>
      <trkpt lat="43.7767867930233478546142578125" lon="1.568558849394321441650390625">
        <ele>148.600006103515625</ele>
        <time>2026-08-13T09:04:28.000Z</time>
        <extensions>
          <ns3:TrackPointExtension>
            <ns3:hr>98</ns3:hr>
            <ns3:cad>56</ns3:cad>
          </ns3:TrackPointExtension>
        </extensions>
      </trkpt>
      <trkpt lat="43.77679928205907344818115234375" lon="1.5685489587485790252685546875">
        <ele>148.600006103515625</ele>
        <time>2026-08-13T09:04:29.000Z</time>
        <extensions>
          <ns3:TrackPointExtension>
            <ns3:hr>98</ns3:hr>
            <ns3:cad>56</ns3:cad>
          </ns3:TrackPointExtension>
        </extensions>
      </trkpt>
      <trkpt lat="43.776813447475433349609375" lon="1.5685378946363925933837890625">
        <ele>148.399993896484375</ele>
        <time>2026-08-13T09:04:30.000Z</time>
        <extensions>
          <ns3:TrackPointExtension>
            <ns3:hr>98</ns3:hr>
            <ns3:cad>56</ns3:cad>
          </ns3:TrackPointExtension>
        </extensions>
      </trkpt>
      <trkpt lat="43.77682560123503208160400390625" lon="1.56852674670517444610595703125">
        <ele>148.399993896484375</ele>
        <time>2026-08-13T09:04:31.000Z</time>
        <extensions>
          <ns3:TrackPointExtension>
            <ns3:hr>99</ns3:hr>
            <ns3:cad>55</ns3:cad>
          </ns3:TrackPointExtension>
        </extensions>
      </trkpt>
      <trkpt lat="43.77683498896658420562744140625" lon="1.56851467676460742950439453125">
        <ele>148.399993896484375</ele>
        <time>2026-08-13T09:04:32.000Z</time>
        <extensions>
          <ns3:TrackPointExtension>
            <ns3:hr>99</ns3:hr>
            <ns3:cad>55</ns3:cad>
          </ns3:TrackPointExtension>
        </extensions>
      </trkpt>
      <trkpt lat="43.77684337086975574493408203125" lon="1.56849942170083522796630859375">
        <ele>148.1999969482421875</ele>
        <time>2026-08-13T09:04:33.000Z</time>
        <extensions>
          <ns3:TrackPointExtension>
            <ns3:hr>98</ns3:hr>
            <ns3:cad>55</ns3:cad>
          </ns3:TrackPointExtension>
        </extensions>
      </trkpt>
      <trkpt lat="43.7768545188009738922119140625" lon="1.568483747541904449462890625">
        <ele>148.1999969482421875</ele>
        <time>2026-08-13T09:04:34.000Z</time>
        <extensions>
          <ns3:TrackPointExtension>
            <ns3:hr>98</ns3:hr>
            <ns3:cad>55</ns3:cad>
          </ns3:TrackPointExtension>
        </extensions>
      </trkpt>
      <trkpt lat="43.77686466090381145477294921875" lon="1.5684631280601024627685546875">
        <ele>148</ele>
        <time>2026-08-13T09:04:35.000Z</time>
        <extensions>
          <ns3:TrackPointExtension>
            <ns3:hr>97</ns3:hr>
            <ns3:cad>55</ns3:cad>
          </ns3:TrackPointExtension>
        </extensions>
      </trkpt>
      <trkpt lat="43.77687555737793445587158203125" lon="1.5684534050524234771728515625">
        <ele>148</ele>
        <time>2026-08-13T09:04:36.000Z</time>
        <extensions>
          <ns3:TrackPointExtension>
            <ns3:hr>96</ns3:hr>
            <ns3:cad>55</ns3:cad>
          </ns3:TrackPointExtension>
        </extensions>
      </trkpt>
      <trkpt lat="43.7768853642046451568603515625" lon="1.56844259239733219146728515625">
        <ele>147.8000030517578125</ele>
        <time>2026-08-13T09:04:37.000Z</time>
        <extensions>
          <ns3:TrackPointExtension>
            <ns3:hr>96</ns3:hr>
            <ns3:cad>55</ns3:cad>
          </ns3:TrackPointExtension>
        </extensions>
      </trkpt>
      <trkpt lat="43.77689667977392673492431640625" lon="1.56843186356127262115478515625">
        <ele>147.8000030517578125</ele>
        <time>2026-08-13T09:04:38.000Z</time>
        <extensions>
          <ns3:TrackPointExtension>
            <ns3:hr>95</ns3:hr>
            <ns3:cad>55</ns3:cad>
          </ns3:TrackPointExtension>
        </extensions>
      </trkpt>
      <trkpt lat="43.77690489403903484344482421875" lon="1.56842063181102275848388671875">
        <ele>147.8000030517578125</ele>
        <time>2026-08-13T09:04:39.000Z</time>
        <extensions>
          <ns3:TrackPointExtension>
            <ns3:hr>94</ns3:hr>
            <ns3:cad>55</ns3:cad>
          </ns3:TrackPointExtension>
        </extensions>
      </trkpt>
      <trkpt lat="43.7769145332276821136474609375" lon="1.568407975137233734130859375">
        <ele>147.600006103515625</ele>
        <time>2026-08-13T09:04:40.000Z</time>
        <extensions>
          <ns3:TrackPointExtension>
            <ns3:hr>94</ns3:hr>
            <ns3:cad>55</ns3:cad>
          </ns3:TrackPointExtension>
        </extensions>
      </trkpt>
      <trkpt lat="43.776927106082439422607421875" lon="1.568393893539905548095703125">
        <ele>147.600006103515625</ele>
        <time>2026-08-13T09:04:41.000Z</time>
        <extensions>
          <ns3:TrackPointExtension>
            <ns3:hr>94</ns3:hr>
            <ns3:cad>55</ns3:cad>
          </ns3:TrackPointExtension>
        </extensions>
      </trkpt>
      <trkpt lat="43.7769390083849430084228515625" lon="1.5683789737522602081298828125">
        <ele>147.600006103515625</ele>
        <time>2026-08-13T09:04:42.000Z</time>
        <extensions>
          <ns3:TrackPointExtension>
            <ns3:hr>93</ns3:hr>
            <ns3:cad>55</ns3:cad>
          </ns3:TrackPointExtension>
        </extensions>
      </trkpt>
      <trkpt lat="43.77694881521165370941162109375" lon="1.568367071449756622314453125">
        <ele>147.399993896484375</ele>
        <time>2026-08-13T09:04:43.000Z</time>
        <extensions>
          <ns3:TrackPointExtension>
            <ns3:hr>93</ns3:hr>
            <ns3:cad>55</ns3:cad>
          </ns3:TrackPointExtension>
        </extensions>
      </trkpt>
      <trkpt lat="43.77695937640964984893798828125" lon="1.56835458241403102874755859375">
        <ele>147.399993896484375</ele>
        <time>2026-08-13T09:04:44.000Z</time>
        <extensions>
          <ns3:TrackPointExtension>
            <ns3:hr>92</ns3:hr>
            <ns3:cad>56</ns3:cad>
          </ns3:TrackPointExtension>
        </extensions>
      </trkpt>
      <trkpt lat="43.77697194926440715789794921875" lon="1.56834100373089313507080078125">
        <ele>147.399993896484375</ele>
        <time>2026-08-13T09:04:45.000Z</time>
        <extensions>
          <ns3:TrackPointExtension>
            <ns3:hr>90</ns3:hr>
            <ns3:cad>56</ns3:cad>
          </ns3:TrackPointExtension>
        </extensions>
      </trkpt>
      <trkpt lat="43.776984103024005889892578125" lon="1.56832859851419925689697265625">
        <ele>147.1999969482421875</ele>
        <time>2026-08-13T09:04:46.000Z</time>
        <extensions>
          <ns3:TrackPointExtension>
            <ns3:hr>89</ns3:hr>
            <ns3:cad>56</ns3:cad>
          </ns3:TrackPointExtension>
        </extensions>
      </trkpt>
      <trkpt lat="43.77699541859328746795654296875" lon="1.56831954605877399444580078125">
        <ele>147.1999969482421875</ele>
        <time>2026-08-13T09:04:47.000Z</time>
        <extensions>
          <ns3:TrackPointExtension>
            <ns3:hr>89</ns3:hr>
            <ns3:cad>56</ns3:cad>
          </ns3:TrackPointExtension>
        </extensions>
      </trkpt>
      <trkpt lat="43.7770067341625690460205078125" lon="1.56830982305109500885009765625">
        <ele>147.1999969482421875</ele>
        <time>2026-08-13T09:04:48.000Z</time>
        <extensions>
          <ns3:TrackPointExtension>
            <ns3:hr>88</ns3:hr>
            <ns3:cad>56</ns3:cad>
          </ns3:TrackPointExtension>
        </extensions>
      </trkpt>
      <trkpt lat="43.7770208157598972320556640625" lon="1.56829859130084514617919921875">
        <ele>147</ele>
        <time>2026-08-13T09:04:49.000Z</time>
        <extensions>
          <ns3:TrackPointExtension>
            <ns3:hr>88</ns3:hr>
            <ns3:cad>56</ns3:cad>
          </ns3:TrackPointExtension>
        </extensions>
      </trkpt>
      <trkpt lat="43.77704076468944549560546875" lon="1.5682924725115299224853515625">
        <ele>147</ele>
        <time>2026-08-13T09:04:50.000Z</time>
        <extensions>
          <ns3:TrackPointExtension>
            <ns3:hr>88</ns3:hr>
            <ns3:cad>56</ns3:cad>
          </ns3:TrackPointExtension>
        </extensions>
      </trkpt>
      <trkpt lat="43.7770550139248371124267578125" lon="1.56827998347580432891845703125">
        <ele>146.8000030517578125</ele>
        <time>2026-08-13T09:04:51.000Z</time>
        <extensions>
          <ns3:TrackPointExtension>
            <ns3:hr>89</ns3:hr>
            <ns3:cad>55</ns3:cad>
          </ns3:TrackPointExtension>
        </extensions>
      </trkpt>
      <trkpt lat="43.7770704366266727447509765625" lon="1.568268835544586181640625">
        <ele>146.8000030517578125</ele>
        <time>2026-08-13T09:04:52.000Z</time>
        <extensions>
          <ns3:TrackPointExtension>
            <ns3:hr>89</ns3:hr>
            <ns3:cad>55</ns3:cad>
          </ns3:TrackPointExtension>
        </extensions>
      </trkpt>
      <trkpt lat="43.77708661369979381561279296875" lon="1.5682569332420825958251953125">
        <ele>146.8000030517578125</ele>
        <time>2026-08-13T09:04:53.000Z</time>
        <extensions>
          <ns3:TrackPointExtension>
            <ns3:hr>89</ns3:hr>
            <ns3:cad>55</ns3:cad>
          </ns3:TrackPointExtension>
        </extensions>
      </trkpt>
      <trkpt lat="43.77710111439228057861328125" lon="1.5682478807866573333740234375">
        <ele>146.600006103515625</ele>
        <time>2026-08-13T09:04:54.000Z</time>
        <extensions>
          <ns3:TrackPointExtension>
            <ns3:hr>89</ns3:hr>
            <ns3:cad>55</ns3:cad>
          </ns3:TrackPointExtension>
        </extensions>
      </trkpt>
      <trkpt lat="43.777114860713481903076171875" lon="1.56823907978832721710205078125">
        <ele>146.600006103515625</ele>
        <time>2026-08-13T09:04:55.000Z</time>
        <extensions>
          <ns3:TrackPointExtension>
            <ns3:hr>89</ns3:hr>
            <ns3:cad>55</ns3:cad>
          </ns3:TrackPointExtension>
        </extensions>
      </trkpt>
      <trkpt lat="43.77712835557758808135986328125" lon="1.56822851859033107757568359375">
        <ele>146.600006103515625</ele>
        <time>2026-08-13T09:04:56.000Z</time>
        <extensions>
          <ns3:TrackPointExtension>
            <ns3:hr>88</ns3:hr>
            <ns3:cad>55</ns3:cad>
          </ns3:TrackPointExtension>
        </extensions>
      </trkpt>
      <trkpt lat="43.77714143134653568267822265625" lon="1.56821896322071552276611328125">
        <ele>146.600006103515625</ele>
        <time>2026-08-13T09:04:57.000Z</time>
        <extensions>
          <ns3:TrackPointExtension>
            <ns3:hr>88</ns3:hr>
            <ns3:cad>56</ns3:cad>
          </ns3:TrackPointExtension>
        </extensions>
      </trkpt>
      <trkpt lat="43.7771559320390224456787109375" lon="1.56821091659367084503173828125">
        <ele>146.399993896484375</ele>
        <time>2026-08-13T09:04:58.000Z</time>
        <extensions>
          <ns3:TrackPointExtension>
            <ns3:hr>88</ns3:hr>
            <ns3:cad>56</ns3:cad>
          </ns3:TrackPointExtension>
        </extensions>
      </trkpt>
      <trkpt lat="43.777169845998287200927734375" lon="1.56820245087146759033203125">
        <ele>146.399993896484375</ele>
        <time>2026-08-13T09:04:59.000Z</time>
        <extensions>
          <ns3:TrackPointExtension>
            <ns3:hr>88</ns3:hr>
            <ns3:cad>56</ns3:cad>
          </ns3:TrackPointExtension>
        </extensions>
      </trkpt>
      <trkpt lat="43.77718250267207622528076171875" lon="1.5681939013302326202392578125">
        <ele>146.399993896484375</ele>
        <time>2026-08-13T09:05:00.000Z</time>
        <extensions>
          <ns3:TrackPointExtension>
            <ns3:hr>88</ns3:hr>
            <ns3:cad>56</ns3:cad>
          </ns3:TrackPointExtension>
        </extensions>
      </trkpt>
      <trkpt lat="43.7771965004503726959228515625" lon="1.56818593852221965789794921875">
        <ele>146.1999969482421875</ele>
        <time>2026-08-13T09:05:01.000Z</time>
        <extensions>
          <ns3:TrackPointExtension>
            <ns3:hr>89</ns3:hr>
            <ns3:cad>56</ns3:cad>
          </ns3:TrackPointExtension>
        </extensions>
      </trkpt>
      <trkpt lat="43.77720949240028858184814453125" lon="1.56817571260035037994384765625">
        <ele>146.1999969482421875</ele>
        <time>2026-08-13T09:05:02.000Z</time>
        <extensions>
          <ns3:TrackPointExtension>
            <ns3:hr>88</ns3:hr>
            <ns3:cad>56</ns3:cad>
          </ns3:TrackPointExtension>
        </extensions>
      </trkpt>
      <trkpt lat="43.777222149074077606201171875" lon="1.56816414557397365570068359375">
        <ele>146.1999969482421875</ele>
        <time>2026-08-13T09:05:03.000Z</time>
        <extensions>
          <ns3:TrackPointExtension>
            <ns3:hr>88</ns3:hr>
            <ns3:cad>56</ns3:cad>
          </ns3:TrackPointExtension>
        </extensions>
      </trkpt>
      <trkpt lat="43.77723597921431064605712890625" lon="1.568151824176311492919921875">
        <ele>146</ele>
        <time>2026-08-13T09:05:04.000Z</time>
        <extensions>
          <ns3:TrackPointExtension>
            <ns3:hr>89</ns3:hr>
            <ns3:cad>55</ns3:cad>
          </ns3:TrackPointExtension>
        </extensions>
      </trkpt>
      <trkpt lat="43.77725022844970226287841796875" lon="1.5681412629783153533935546875">
        <ele>146</ele>
        <time>2026-08-13T09:05:05.000Z</time>
        <extensions>
          <ns3:TrackPointExtension>
            <ns3:hr>89</ns3:hr>
            <ns3:cad>55</ns3:cad>
          </ns3:TrackPointExtension>
        </extensions>
      </trkpt>
      <trkpt lat="43.7772628851234912872314453125" lon="1.5681315399706363677978515625">
        <ele>146</ele>
        <time>2026-08-13T09:05:06.000Z</time>
        <extensions>
          <ns3:TrackPointExtension>
            <ns3:hr>90</ns3:hr>
            <ns3:cad>55</ns3:cad>
          </ns3:TrackPointExtension>
        </extensions>
      </trkpt>
      <trkpt lat="43.77727545797824859619140625" lon="1.56812156550586223602294921875">
        <ele>145.8000030517578125</ele>
        <time>2026-08-13T09:05:07.000Z</time>
        <extensions>
          <ns3:TrackPointExtension>
            <ns3:hr>90</ns3:hr>
            <ns3:cad>55</ns3:cad>
          </ns3:TrackPointExtension>
        </extensions>
      </trkpt>
      <trkpt lat="43.777288533747196197509765625" lon="1.5681110881268978118896484375">
        <ele>145.8000030517578125</ele>
        <time>2026-08-13T09:05:08.000Z</time>
        <extensions>
          <ns3:TrackPointExtension>
            <ns3:hr>90</ns3:hr>
            <ns3:cad>55</ns3:cad>
          </ns3:TrackPointExtension>
        </extensions>
      </trkpt>
      <trkpt lat="43.77730437554419040679931640625" lon="1.56809943728148937225341796875">
        <ele>145.8000030517578125</ele>
        <time>2026-08-13T09:05:09.000Z</time>
        <extensions>
          <ns3:TrackPointExtension>
            <ns3:hr>90</ns3:hr>
            <ns3:cad>56</ns3:cad>
          </ns3:TrackPointExtension>
        </extensions>
      </trkpt>
      <trkpt lat="43.77731828950345516204833984375" lon="1.56808669678866863250732421875">
        <ele>145.600006103515625</ele>
        <time>2026-08-13T09:05:10.000Z</time>
        <extensions>
          <ns3:TrackPointExtension>
            <ns3:hr>90</ns3:hr>
            <ns3:cad>56</ns3:cad>
          </ns3:TrackPointExtension>
        </extensions>
      </trkpt>
      <trkpt lat="43.77733153291046619415283203125" lon="1.5680732019245624542236328125">
        <ele>145.600006103515625</ele>
        <time>2026-08-13T09:05:11.000Z</time>
        <extensions>
          <ns3:TrackPointExtension>
            <ns3:hr>90</ns3:hr>
            <ns3:cad>56</ns3:cad>
          </ns3:TrackPointExtension>
        </extensions>
      </trkpt>
      <trkpt lat="43.77734527923166751861572265625" lon="1.56806121580302715301513671875">
        <ele>145.600006103515625</ele>
        <time>2026-08-13T09:05:12.000Z</time>
        <extensions>
          <ns3:TrackPointExtension>
            <ns3:hr>89</ns3:hr>
            <ns3:cad>56</ns3:cad>
          </ns3:TrackPointExtension>
        </extensions>
      </trkpt>
      <trkpt lat="43.77735801972448825836181640625" lon="1.568050570785999298095703125">
        <ele>145.600006103515625</ele>
        <time>2026-08-13T09:05:13.000Z</time>
        <extensions>
          <ns3:TrackPointExtension>
            <ns3:hr>90</ns3:hr>
            <ns3:cad>57</ns3:cad>
          </ns3:TrackPointExtension>
        </extensions>
      </trkpt>
      <trkpt lat="43.77737109549343585968017578125" lon="1.56803992576897144317626953125">
        <ele>145.600006103515625</ele>
        <time>2026-08-13T09:05:14.000Z</time>
        <extensions>
          <ns3:TrackPointExtension>
            <ns3:hr>90</ns3:hr>
            <ns3:cad>57</ns3:cad>
          </ns3:TrackPointExtension>
        </extensions>
      </trkpt>
      <trkpt lat="43.77738467417657375335693359375" lon="1.5680296160280704498291015625">
        <ele>145.399993896484375</ele>
        <time>2026-08-13T09:05:15.000Z</time>
        <extensions>
          <ns3:TrackPointExtension>
            <ns3:hr>90</ns3:hr>
            <ns3:cad>57</ns3:cad>
          </ns3:TrackPointExtension>
        </extensions>
      </trkpt>
      <trkpt lat="43.7773956544697284698486328125" lon="1.56802014447748661041259765625">
        <ele>145.399993896484375</ele>
        <time>2026-08-13T09:05:16.000Z</time>
        <extensions>
          <ns3:TrackPointExtension>
            <ns3:hr>90</ns3:hr>
            <ns3:cad>57</ns3:cad>
          </ns3:TrackPointExtension>
        </extensions>
      </trkpt>
      <trkpt lat="43.77740688621997833251953125" lon="1.56801008619368076324462890625">
        <ele>145.1999969482421875</ele>
        <time>2026-08-13T09:05:17.000Z</time>
        <extensions>
          <ns3:TrackPointExtension>
            <ns3:hr>90</ns3:hr>
            <ns3:cad>56</ns3:cad>
          </ns3:TrackPointExtension>
        </extensions>
      </trkpt>
      <trkpt lat="43.7774181179702281951904296875" lon="1.5679957531392574310302734375">
        <ele>145.1999969482421875</ele>
        <time>2026-08-13T09:05:18.000Z</time>
        <extensions>
          <ns3:TrackPointExtension>
            <ns3:hr>90</ns3:hr>
            <ns3:cad>56</ns3:cad>
          </ns3:TrackPointExtension>
        </extensions>
      </trkpt>
      <trkpt lat="43.77742792479693889617919921875" lon="1.5679830126464366912841796875">
        <ele>145.1999969482421875</ele>
        <time>2026-08-13T09:05:19.000Z</time>
        <extensions>
          <ns3:TrackPointExtension>
            <ns3:hr>90</ns3:hr>
            <ns3:cad>56</ns3:cad>
          </ns3:TrackPointExtension>
        </extensions>
      </trkpt>
      <trkpt lat="43.77743865363299846649169921875" lon="1.56796465627849102020263671875">
        <ele>145</ele>
        <time>2026-08-13T09:05:20.000Z</time>
        <extensions>
          <ns3:TrackPointExtension>
            <ns3:hr>91</ns3:hr>
            <ns3:cad>56</ns3:cad>
          </ns3:TrackPointExtension>
        </extensions>
      </trkpt>
      <trkpt lat="43.77745156176388263702392578125" lon="1.56794898211956024169921875">
        <ele>145</ele>
        <time>2026-08-13T09:05:21.000Z</time>
        <extensions>
          <ns3:TrackPointExtension>
            <ns3:hr>91</ns3:hr>
            <ns3:cad>56</ns3:cad>
          </ns3:TrackPointExtension>
        </extensions>
      </trkpt>
      <trkpt lat="43.77746430225670337677001953125" lon="1.5679354034364223480224609375">
        <ele>145</ele>
        <time>2026-08-13T09:05:22.000Z</time>
        <extensions>
          <ns3:TrackPointExtension>
            <ns3:hr>93</ns3:hr>
            <ns3:cad>56</ns3:cad>
          </ns3:TrackPointExtension>
        </extensions>
      </trkpt>
      <trkpt lat="43.77747637219727039337158203125" lon="1.56792090274393558502197265625">
        <ele>145</ele>
        <time>2026-08-13T09:05:23.000Z</time>
        <extensions>
          <ns3:TrackPointExtension>
            <ns3:hr>93</ns3:hr>
            <ns3:cad>55</ns3:cad>
          </ns3:TrackPointExtension>
        </extensions>
      </trkpt>
      <trkpt lat="43.7774912081658840179443359375" lon="1.567907072603702545166015625">
        <ele>145</ele>
        <time>2026-08-13T09:05:24.000Z</time>
        <extensions>
          <ns3:TrackPointExtension>
            <ns3:hr>94</ns3:hr>
            <ns3:cad>55</ns3:cad>
          </ns3:TrackPointExtension>
        </extensions>
      </trkpt>
      <trkpt lat="43.77750612795352935791015625" lon="1.56789441592991352081298828125">
        <ele>144.8000030517578125</ele>
        <time>2026-08-13T09:05:25.000Z</time>
        <extensions>
          <ns3:TrackPointExtension>
            <ns3:hr>94</ns3:hr>
            <ns3:cad>55</ns3:cad>
          </ns3:TrackPointExtension>
        </extensions>
      </trkpt>
      <trkpt lat="43.77751962281763553619384765625" lon="1.56788184307515621185302734375">
        <ele>144.8000030517578125</ele>
        <time>2026-08-13T09:05:26.000Z</time>
        <extensions>
          <ns3:TrackPointExtension>
            <ns3:hr>94</ns3:hr>
            <ns3:cad>55</ns3:cad>
          </ns3:TrackPointExtension>
        </extensions>
      </trkpt>
      <trkpt lat="43.777533285319805145263671875" lon="1.567871533334255218505859375">
        <ele>144.600006103515625</ele>
        <time>2026-08-13T09:05:27.000Z</time>
        <extensions>
          <ns3:TrackPointExtension>
            <ns3:hr>94</ns3:hr>
            <ns3:cad>55</ns3:cad>
          </ns3:TrackPointExtension>
        </extensions>
      </trkpt>
      <trkpt lat="43.77754778601229190826416015625" lon="1.567860133945941925048828125">
        <ele>144.600006103515625</ele>
        <time>2026-08-13T09:05:28.000Z</time>
        <extensions>
          <ns3:TrackPointExtension>
            <ns3:hr>94</ns3:hr>
            <ns3:cad>55</ns3:cad>
          </ns3:TrackPointExtension>
        </extensions>
      </trkpt>
      <trkpt lat="43.7775631248950958251953125" lon="1.567847393453121185302734375">
        <ele>144.399993896484375</ele>
        <time>2026-08-13T09:05:29.000Z</time>
        <extensions>
          <ns3:TrackPointExtension>
            <ns3:hr>94</ns3:hr>
            <ns3:cad>55</ns3:cad>
          </ns3:TrackPointExtension>
        </extensions>
      </trkpt>
      <trkpt lat="43.77757846377789974212646484375" lon="1.5678354911506175994873046875">
        <ele>144.399993896484375</ele>
        <time>2026-08-13T09:05:30.000Z</time>
        <extensions>
          <ns3:TrackPointExtension>
            <ns3:hr>94</ns3:hr>
            <ns3:cad>56</ns3:cad>
          </ns3:TrackPointExtension>
        </extensions>
      </trkpt>
      <trkpt lat="43.7775874324142932891845703125" lon="1.567823588848114013671875">
        <ele>144.399993896484375</ele>
        <time>2026-08-13T09:05:31.000Z</time>
        <extensions>
          <ns3:TrackPointExtension>
            <ns3:hr>95</ns3:hr>
            <ns3:cad>56</ns3:cad>
          </ns3:TrackPointExtension>
        </extensions>
      </trkpt>
      <trkpt lat="43.777599334716796875" lon="1.56781353056430816650390625">
        <ele>144.399993896484375</ele>
        <time>2026-08-13T09:05:32.000Z</time>
        <extensions>
          <ns3:TrackPointExtension>
            <ns3:hr>95</ns3:hr>
            <ns3:cad>56</ns3:cad>
          </ns3:TrackPointExtension>
        </extensions>
      </trkpt>
      <trkpt lat="43.7776102311909198760986328125" lon="1.567803137004375457763671875">
        <ele>144.1999969482421875</ele>
        <time>2026-08-13T09:05:33.000Z</time>
        <extensions>
          <ns3:TrackPointExtension>
            <ns3:hr>95</ns3:hr>
            <ns3:cad>56</ns3:cad>
          </ns3:TrackPointExtension>
        </extensions>
      </trkpt>
      <trkpt lat="43.77761819399893283843994140625" lon="1.56779131852090358734130859375">
        <ele>144.1999969482421875</ele>
        <time>2026-08-13T09:05:34.000Z</time>
        <extensions>
          <ns3:TrackPointExtension>
            <ns3:hr>96</ns3:hr>
            <ns3:cad>56</ns3:cad>
          </ns3:TrackPointExtension>
        </extensions>
      </trkpt>
      <trkpt lat="43.77763177268207073211669921875" lon="1.56777824275195598602294921875">
        <ele>144</ele>
        <time>2026-08-13T09:05:35.000Z</time>
        <extensions>
          <ns3:TrackPointExtension>
            <ns3:hr>96</ns3:hr>
            <ns3:cad>56</ns3:cad>
          </ns3:TrackPointExtension>
        </extensions>
      </trkpt>
      <trkpt lat="43.7776461057364940643310546875" lon="1.56776659190654754638671875">
        <ele>144</ele>
        <time>2026-08-13T09:05:36.000Z</time>
        <extensions>
          <ns3:TrackPointExtension>
            <ns3:hr>96</ns3:hr>
            <ns3:cad>56</ns3:cad>
          </ns3:TrackPointExtension>
        </extensions>
      </trkpt>
      <trkpt lat="43.77765834331512451171875" lon="1.56775862909853458404541015625">
        <ele>144</ele>
        <time>2026-08-13T09:05:37.000Z</time>
        <extensions>
          <ns3:TrackPointExtension>
            <ns3:hr>96</ns3:hr>
            <ns3:cad>56</ns3:cad>
          </ns3:TrackPointExtension>
        </extensions>
      </trkpt>
      <trkpt lat="43.777667395770549774169921875" lon="1.56775058247148990631103515625">
        <ele>143.8000030517578125</ele>
        <time>2026-08-13T09:05:38.000Z</time>
        <extensions>
          <ns3:TrackPointExtension>
            <ns3:hr>95</ns3:hr>
            <ns3:cad>56</ns3:cad>
          </ns3:TrackPointExtension>
        </extensions>
      </trkpt>
      <trkpt lat="43.7776811420917510986328125" lon="1.56774119473993778228759765625">
        <ele>143.600006103515625</ele>
        <time>2026-08-13T09:05:39.000Z</time>
        <extensions>
          <ns3:TrackPointExtension>
            <ns3:hr>95</ns3:hr>
            <ns3:cad>57</ns3:cad>
          </ns3:TrackPointExtension>
        </extensions>
      </trkpt>
      <trkpt lat="43.77769681625068187713623046875" lon="1.56773230992257595062255859375">
        <ele>143.600006103515625</ele>
        <time>2026-08-13T09:05:40.000Z</time>
        <extensions>
          <ns3:TrackPointExtension>
            <ns3:hr>94</ns3:hr>
            <ns3:cad>57</ns3:cad>
          </ns3:TrackPointExtension>
        </extensions>
      </trkpt>
      <trkpt lat="43.77770771272480487823486328125" lon="1.56771965324878692626953125">
        <ele>143.600006103515625</ele>
        <time>2026-08-13T09:05:41.000Z</time>
        <extensions>
          <ns3:TrackPointExtension>
            <ns3:hr>94</ns3:hr>
            <ns3:cad>57</ns3:cad>
          </ns3:TrackPointExtension>
        </extensions>
      </trkpt>
      <trkpt lat="43.777721710503101348876953125" lon="1.56770230270922183990478515625">
        <ele>143.600006103515625</ele>
        <time>2026-08-13T09:05:42.000Z</time>
        <extensions>
          <ns3:TrackPointExtension>
            <ns3:hr>93</ns3:hr>
            <ns3:cad>56</ns3:cad>
          </ns3:TrackPointExtension>
        </extensions>
      </trkpt>
      <trkpt lat="43.77773344516754150390625" lon="1.5676869638264179229736328125">
        <ele>143.399993896484375</ele>
        <time>2026-08-13T09:05:43.000Z</time>
        <extensions>
          <ns3:TrackPointExtension>
            <ns3:hr>93</ns3:hr>
            <ns3:cad>56</ns3:cad>
          </ns3:TrackPointExtension>
        </extensions>
      </trkpt>
      <trkpt lat="43.77774543128907680511474609375" lon="1.56767061911523342132568359375">
        <ele>143.399993896484375</ele>
        <time>2026-08-13T09:05:44.000Z</time>
        <extensions>
          <ns3:TrackPointExtension>
            <ns3:hr>92</ns3:hr>
            <ns3:cad>56</ns3:cad>
          </ns3:TrackPointExtension>
        </extensions>
      </trkpt>
      <trkpt lat="43.777757585048675537109375" lon="1.56765553168952465057373046875">
        <ele>143.399993896484375</ele>
        <time>2026-08-13T09:05:45.000Z</time>
        <extensions>
          <ns3:TrackPointExtension>
            <ns3:hr>91</ns3:hr>
            <ns3:cad>56</ns3:cad>
          </ns3:TrackPointExtension>
        </extensions>
      </trkpt>
      <trkpt lat="43.77776990644633769989013671875" lon="1.56764295883476734161376953125">
        <ele>143.1999969482421875</ele>
        <time>2026-08-13T09:05:46.000Z</time>
        <extensions>
          <ns3:TrackPointExtension>
            <ns3:hr>91</ns3:hr>
            <ns3:cad>56</ns3:cad>
          </ns3:TrackPointExtension>
        </extensions>
      </trkpt>
      <trkpt lat="43.7777798809111118316650390625" lon="1.5676323138177394866943359375">
        <ele>143.1999969482421875</ele>
        <time>2026-08-13T09:05:47.000Z</time>
        <extensions>
          <ns3:TrackPointExtension>
            <ns3:hr>91</ns3:hr>
            <ns3:cad>57</ns3:cad>
          </ns3:TrackPointExtension>
        </extensions>
      </trkpt>
      <trkpt lat="43.77779044210910797119140625" lon="1.56762183643877506256103515625">
        <ele>143</ele>
        <time>2026-08-13T09:05:48.000Z</time>
        <extensions>
          <ns3:TrackPointExtension>
            <ns3:hr>90</ns3:hr>
            <ns3:cad>56</ns3:cad>
          </ns3:TrackPointExtension>
        </extensions>
      </trkpt>
      <trkpt lat="43.777802176773548126220703125" lon="1.56761638820171356201171875">
        <ele>143</ele>
        <time>2026-08-13T09:05:49.000Z</time>
        <extensions>
          <ns3:TrackPointExtension>
            <ns3:hr>91</ns3:hr>
            <ns3:cad>57</ns3:cad>
          </ns3:TrackPointExtension>
        </extensions>
      </trkpt>
      <trkpt lat="43.77781298942863941192626953125" lon="1.5676076710224151611328125">
        <ele>143</ele>
        <time>2026-08-13T09:05:50.000Z</time>
        <extensions>
          <ns3:TrackPointExtension>
            <ns3:hr>91</ns3:hr>
            <ns3:cad>57</ns3:cad>
          </ns3:TrackPointExtension>
        </extensions>
      </trkpt>
      <trkpt lat="43.7778246402740478515625" lon="1.567598618566989898681640625">
        <ele>142.8000030517578125</ele>
        <time>2026-08-13T09:05:51.000Z</time>
        <extensions>
          <ns3:TrackPointExtension>
            <ns3:hr>92</ns3:hr>
            <ns3:cad>57</ns3:cad>
          </ns3:TrackPointExtension>
        </extensions>
      </trkpt>
      <trkpt lat="43.777837716042995452880859375" lon="1.5675873868167400360107421875">
        <ele>142.8000030517578125</ele>
        <time>2026-08-13T09:05:52.000Z</time>
        <extensions>
          <ns3:TrackPointExtension>
            <ns3:hr>92</ns3:hr>
            <ns3:cad>56</ns3:cad>
          </ns3:TrackPointExtension>
        </extensions>
      </trkpt>
      <trkpt lat="43.77785070799291133880615234375" lon="1.56757640652358531951904296875">
        <ele>142.8000030517578125</ele>
        <time>2026-08-13T09:05:53.000Z</time>
        <extensions>
          <ns3:TrackPointExtension>
            <ns3:hr>92</ns3:hr>
            <ns3:cad>56</ns3:cad>
          </ns3:TrackPointExtension>
        </extensions>
      </trkpt>
      <trkpt lat="43.777864873409271240234375" lon="1.5675642527639865875244140625">
        <ele>142.600006103515625</ele>
        <time>2026-08-13T09:05:54.000Z</time>
        <extensions>
          <ns3:TrackPointExtension>
            <ns3:hr>93</ns3:hr>
            <ns3:cad>56</ns3:cad>
          </ns3:TrackPointExtension>
        </extensions>
      </trkpt>
      <trkpt lat="43.77787887118756771087646484375" lon="1.5675511769950389862060546875">
        <ele>142.600006103515625</ele>
        <time>2026-08-13T09:05:55.000Z</time>
        <extensions>
          <ns3:TrackPointExtension>
            <ns3:hr>93</ns3:hr>
            <ns3:cad>56</ns3:cad>
          </ns3:TrackPointExtension>
        </extensions>
      </trkpt>
      <trkpt lat="43.7778952158987522125244140625" lon="1.56753349117934703826904296875">
        <ele>142.600006103515625</ele>
        <time>2026-08-13T09:05:56.000Z</time>
        <extensions>
          <ns3:TrackPointExtension>
            <ns3:hr>93</ns3:hr>
            <ns3:cad>56</ns3:cad>
          </ns3:TrackPointExtension>
        </extensions>
      </trkpt>
      <trkpt lat="43.77790971659123897552490234375" lon="1.56751924194395542144775390625">
        <ele>142.399993896484375</ele>
        <time>2026-08-13T09:05:57.000Z</time>
        <extensions>
          <ns3:TrackPointExtension>
            <ns3:hr>92</ns3:hr>
            <ns3:cad>56</ns3:cad>
          </ns3:TrackPointExtension>
        </extensions>
      </trkpt>
      <trkpt lat="43.777922876179218292236328125" lon="1.56750499270856380462646484375">
        <ele>142.399993896484375</ele>
        <time>2026-08-13T09:05:58.000Z</time>
        <extensions>
          <ns3:TrackPointExtension>
            <ns3:hr>92</ns3:hr>
            <ns3:cad>56</ns3:cad>
          </ns3:TrackPointExtension>
        </extensions>
      </trkpt>
      <trkpt lat="43.77793570049107074737548828125" lon="1.56749124638736248016357421875">
        <ele>142.399993896484375</ele>
        <time>2026-08-13T09:05:59.000Z</time>
        <extensions>
          <ns3:TrackPointExtension>
            <ns3:hr>92</ns3:hr>
            <ns3:cad>56</ns3:cad>
          </ns3:TrackPointExtension>
        </extensions>
      </trkpt>
      <trkpt lat="43.77794777043163776397705078125" lon="1.5674794279038906097412109375">
        <ele>142.1999969482421875</ele>
        <time>2026-08-13T09:06:00.000Z</time>
        <extensions>
          <ns3:TrackPointExtension>
            <ns3:hr>92</ns3:hr>
            <ns3:cad>55</ns3:cad>
          </ns3:TrackPointExtension>
        </extensions>
      </trkpt>
      <trkpt lat="43.7779592536389827728271484375" lon="1.5674693696200847625732421875">
        <ele>142.1999969482421875</ele>
        <time>2026-08-13T09:06:01.000Z</time>
        <extensions>
          <ns3:TrackPointExtension>
            <ns3:hr>91</ns3:hr>
            <ns3:cad>55</ns3:cad>
          </ns3:TrackPointExtension>
        </extensions>
      </trkpt>
      <trkpt lat="43.77796746790409088134765625" lon="1.56745947897434234619140625">
        <ele>142.1999969482421875</ele>
        <time>2026-08-13T09:06:02.000Z</time>
        <extensions>
          <ns3:TrackPointExtension>
            <ns3:hr>92</ns3:hr>
            <ns3:cad>55</ns3:cad>
          </ns3:TrackPointExtension>
        </extensions>
      </trkpt>
      <trkpt lat="43.77797677181661128997802734375" lon="1.5674529410898685455322265625">
        <ele>142</ele>
        <time>2026-08-13T09:06:03.000Z</time>
        <extensions>
          <ns3:TrackPointExtension>
            <ns3:hr>92</ns3:hr>
            <ns3:cad>54</ns3:cad>
          </ns3:TrackPointExtension>
        </extensions>
      </trkpt>
      <trkpt lat="43.7779874168336391448974609375" lon="1.56744682230055332183837890625">
        <ele>142</ele>
        <time>2026-08-13T09:06:04.000Z</time>
        <extensions>
          <ns3:TrackPointExtension>
            <ns3:hr>91</ns3:hr>
            <ns3:cad>53</ns3:cad>
          </ns3:TrackPointExtension>
        </extensions>
      </trkpt>
      <trkpt lat="43.77799856476485729217529296875" lon="1.5674398653209209442138671875">
        <ele>142</ele>
        <time>2026-08-13T09:06:05.000Z</time>
        <extensions>
          <ns3:TrackPointExtension>
            <ns3:hr>91</ns3:hr>
            <ns3:cad>53</ns3:cad>
          </ns3:TrackPointExtension>
        </extensions>
      </trkpt>
      <trkpt lat="43.778010047972202301025390625" lon="1.5674324892461299896240234375">
        <ele>142</ele>
        <time>2026-08-13T09:06:06.000Z</time>
        <extensions>
          <ns3:TrackPointExtension>
            <ns3:hr>90</ns3:hr>
            <ns3:cad>53</ns3:cad>
          </ns3:TrackPointExtension>
        </extensions>
      </trkpt>
      <trkpt lat="43.77802002243697643280029296875" lon="1.5674257837235927581787109375">
        <ele>142</ele>
        <time>2026-08-13T09:06:07.000Z</time>
        <extensions>
          <ns3:TrackPointExtension>
            <ns3:hr>89</ns3:hr>
            <ns3:cad>53</ns3:cad>
          </ns3:TrackPointExtension>
        </extensions>
      </trkpt>
      <trkpt lat="43.77802790142595767974853515625" lon="1.5674187429249286651611328125">
        <ele>141.8000030517578125</ele>
        <time>2026-08-13T09:06:08.000Z</time>
        <extensions>
          <ns3:TrackPointExtension>
            <ns3:hr>89</ns3:hr>
            <ns3:cad>53</ns3:cad>
          </ns3:TrackPointExtension>
        </extensions>
      </trkpt>
      <trkpt lat="43.7780351936817169189453125" lon="1.567411534488201141357421875">
        <ele>141.8000030517578125</ele>
        <time>2026-08-13T09:06:09.000Z</time>
        <extensions>
          <ns3:TrackPointExtension>
            <ns3:hr>89</ns3:hr>
            <ns3:cad>52</ns3:cad>
          </ns3:TrackPointExtension>
        </extensions>
      </trkpt>
      <trkpt lat="43.77804332412779331207275390625" lon="1.56740315258502960205078125">
        <ele>141.600006103515625</ele>
        <time>2026-08-13T09:06:10.000Z</time>
        <extensions>
          <ns3:TrackPointExtension>
            <ns3:hr>88</ns3:hr>
            <ns3:cad>51</ns3:cad>
          </ns3:TrackPointExtension>
        </extensions>
      </trkpt>
      <trkpt lat="43.77805321477353572845458984375" lon="1.56739250756800174713134765625">
        <ele>141.600006103515625</ele>
        <time>2026-08-13T09:06:11.000Z</time>
        <extensions>
          <ns3:TrackPointExtension>
            <ns3:hr>88</ns3:hr>
            <ns3:cad>51</ns3:cad>
          </ns3:TrackPointExtension>
        </extensions>
      </trkpt>
      <trkpt lat="43.77806000411510467529296875" lon="1.56738311983644962310791015625">
        <ele>141.600006103515625</ele>
        <time>2026-08-13T09:06:12.000Z</time>
        <extensions>
          <ns3:TrackPointExtension>
            <ns3:hr>88</ns3:hr>
            <ns3:cad>51</ns3:cad>
          </ns3:TrackPointExtension>
        </extensions>
      </trkpt>
      <trkpt lat="43.778067715466022491455078125" lon="1.56737490557134151458740234375">
        <ele>141.600006103515625</ele>
        <time>2026-08-13T09:06:13.000Z</time>
        <extensions>
          <ns3:TrackPointExtension>
            <ns3:hr>88</ns3:hr>
            <ns3:cad>50</ns3:cad>
          </ns3:TrackPointExtension>
        </extensions>
      </trkpt>
      <trkpt lat="43.7780772708356380462646484375" lon="1.5673634223639965057373046875">
        <ele>141.399993896484375</ele>
        <time>2026-08-13T09:06:14.000Z</time>
        <extensions>
          <ns3:TrackPointExtension>
            <ns3:hr>89</ns3:hr>
            <ns3:cad>50</ns3:cad>
          </ns3:TrackPointExtension>
        </extensions>
      </trkpt>
      <trkpt lat="43.77808925695717334747314453125" lon="1.56735294498503208160400390625">
        <ele>141.399993896484375</ele>
        <time>2026-08-13T09:06:15.000Z</time>
        <extensions>
          <ns3:TrackPointExtension>
            <ns3:hr>89</ns3:hr>
            <ns3:cad>50</ns3:cad>
          </ns3:TrackPointExtension>
        </extensions>
      </trkpt>
      <trkpt lat="43.77809696830809116363525390625" lon="1.56734121032059192657470703125">
        <ele>141.399993896484375</ele>
        <time>2026-08-13T09:06:16.000Z</time>
        <extensions>
          <ns3:TrackPointExtension>
            <ns3:hr>89</ns3:hr>
            <ns3:cad>51</ns3:cad>
          </ns3:TrackPointExtension>
        </extensions>
      </trkpt>
      <trkpt lat="43.7781074456870555877685546875" lon="1.56733400188386440277099609375">
        <ele>141.399993896484375</ele>
        <time>2026-08-13T09:06:17.000Z</time>
        <extensions>
          <ns3:TrackPointExtension>
            <ns3:hr>90</ns3:hr>
            <ns3:cad>51</ns3:cad>
          </ns3:TrackPointExtension>
        </extensions>
      </trkpt>
      <trkpt lat="43.7781198509037494659423828125" lon="1.56732277013361454010009765625">
        <ele>141.1999969482421875</ele>
        <time>2026-08-13T09:06:18.000Z</time>
        <extensions>
          <ns3:TrackPointExtension>
            <ns3:hr>90</ns3:hr>
            <ns3:cad>50</ns3:cad>
          </ns3:TrackPointExtension>
        </extensions>
      </trkpt>
      <trkpt lat="43.77813066355884075164794921875" lon="1.567308269441127777099609375">
        <ele>141.1999969482421875</ele>
        <time>2026-08-13T09:06:19.000Z</time>
        <extensions>
          <ns3:TrackPointExtension>
            <ns3:hr>90</ns3:hr>
            <ns3:cad>50</ns3:cad>
          </ns3:TrackPointExtension>
        </extensions>
      </trkpt>
      <trkpt lat="43.77814005129039287567138671875" lon="1.56729762442409992218017578125">
        <ele>141</ele>
        <time>2026-08-13T09:06:20.000Z</time>
        <extensions>
          <ns3:TrackPointExtension>
            <ns3:hr>90</ns3:hr>
            <ns3:cad>50</ns3:cad>
          </ns3:TrackPointExtension>
        </extensions>
      </trkpt>
      <trkpt lat="43.77814943902194499969482421875" lon="1.567290164530277252197265625">
        <ele>141</ele>
        <time>2026-08-13T09:06:21.000Z</time>
        <extensions>
          <ns3:TrackPointExtension>
            <ns3:hr>90</ns3:hr>
            <ns3:cad>50</ns3:cad>
          </ns3:TrackPointExtension>
        </extensions>
      </trkpt>
      <trkpt lat="43.77815865911543369293212890625" lon="1.56728706322610378265380859375">
        <ele>141</ele>
        <time>2026-08-13T09:06:22.000Z</time>
        <extensions>
          <ns3:TrackPointExtension>
            <ns3:hr>89</ns3:hr>
            <ns3:cad>50</ns3:cad>
          </ns3:TrackPointExtension>
        </extensions>
      </trkpt>
      <trkpt lat="43.778170980513095855712890625" lon="1.56727784313261508941650390625">
        <ele>141</ele>
        <time>2026-08-13T09:06:23.000Z</time>
        <extensions>
          <ns3:TrackPointExtension>
            <ns3:hr>89</ns3:hr>
            <ns3:cad>50</ns3:cad>
          </ns3:TrackPointExtension>
        </extensions>
      </trkpt>
      <trkpt lat="43.77817810513079166412353515625" lon="1.5672692097723484039306640625">
        <ele>140.8000030517578125</ele>
        <time>2026-08-13T09:06:24.000Z</time>
        <extensions>
          <ns3:TrackPointExtension>
            <ns3:hr>88</ns3:hr>
            <ns3:cad>50</ns3:cad>
          </ns3:TrackPointExtension>
        </extensions>
      </trkpt>
      <trkpt lat="43.7781875766813755035400390625" lon="1.56725621782243251800537109375">
        <ele>140.8000030517578125</ele>
        <time>2026-08-13T09:06:25.000Z</time>
        <extensions>
          <ns3:TrackPointExtension>
            <ns3:hr>87</ns3:hr>
            <ns3:cad>50</ns3:cad>
          </ns3:TrackPointExtension>
        </extensions>
      </trkpt>
      <trkpt lat="43.77819973044097423553466796875" lon="1.567250601947307586669921875">
        <ele>140.8000030517578125</ele>
        <time>2026-08-13T09:06:26.000Z</time>
        <extensions>
          <ns3:TrackPointExtension>
            <ns3:hr>86</ns3:hr>
            <ns3:cad>50</ns3:cad>
          </ns3:TrackPointExtension>
        </extensions>
      </trkpt>
      <trkpt lat="43.7782066874206066131591796875" lon="1.56724381260573863983154296875">
        <ele>140.8000030517578125</ele>
        <time>2026-08-13T09:06:27.000Z</time>
        <extensions>
          <ns3:TrackPointExtension>
            <ns3:hr>86</ns3:hr>
            <ns3:cad>50</ns3:cad>
          </ns3:TrackPointExtension>
        </extensions>
      </trkpt>
      <trkpt lat="43.7782133929431438446044921875" lon="1.56723258085548877716064453125">
        <ele>140.600006103515625</ele>
        <time>2026-08-13T09:06:28.000Z</time>
        <extensions>
          <ns3:TrackPointExtension>
            <ns3:hr>85</ns3:hr>
            <ns3:cad>50</ns3:cad>
          </ns3:TrackPointExtension>
        </extensions>
      </trkpt>
      <trkpt lat="43.7782254628837108612060546875" lon="1.56722034327685832977294921875">
        <ele>140.600006103515625</ele>
        <time>2026-08-13T09:06:29.000Z</time>
        <extensions>
          <ns3:TrackPointExtension>
            <ns3:hr>85</ns3:hr>
            <ns3:cad>50</ns3:cad>
          </ns3:TrackPointExtension>
        </extensions>
      </trkpt>
      <trkpt lat="43.77823761664330959320068359375" lon="1.56720894388854503631591796875">
        <ele>140.600006103515625</ele>
        <time>2026-08-13T09:06:30.000Z</time>
        <extensions>
          <ns3:TrackPointExtension>
            <ns3:hr>85</ns3:hr>
            <ns3:cad>50</ns3:cad>
          </ns3:TrackPointExtension>
        </extensions>
      </trkpt>
      <trkpt lat="43.7782502733170986175537109375" lon="1.5672008134424686431884765625">
        <ele>140.399993896484375</ele>
        <time>2026-08-13T09:06:31.000Z</time>
        <extensions>
          <ns3:TrackPointExtension>
            <ns3:hr>84</ns3:hr>
            <ns3:cad>0</ns3:cad>
          </ns3:TrackPointExtension>
        </extensions>
      </trkpt>
      <trkpt lat="43.77826058305799961090087890625" lon="1.5671937726438045501708984375">
        <ele>140.399993896484375</ele>
        <time>2026-08-13T09:06:32.000Z</time>
        <extensions>
          <ns3:TrackPointExtension>
            <ns3:hr>85</ns3:hr>
            <ns3:cad>0</ns3:cad>
          </ns3:TrackPointExtension>
        </extensions>
      </trkpt>
      <trkpt lat="43.77826988697052001953125" lon="1.56718723475933074951171875">
        <ele>140.399993896484375</ele>
        <time>2026-08-13T09:06:33.000Z</time>
        <extensions>
          <ns3:TrackPointExtension>
            <ns3:hr>85</ns3:hr>
            <ns3:cad>0</ns3:cad>
          </ns3:TrackPointExtension>
        </extensions>
      </trkpt>
      <trkpt lat="43.77827726304531097412109375" lon="1.5671813674271106719970703125">
        <ele>140.1999969482421875</ele>
        <time>2026-08-13T09:06:34.000Z</time>
        <extensions>
          <ns3:TrackPointExtension>
            <ns3:hr>86</ns3:hr>
            <ns3:cad>0</ns3:cad>
          </ns3:TrackPointExtension>
        </extensions>
      </trkpt>
      <trkpt lat="43.77828589640557765960693359375" lon="1.56717323698103427886962890625">
        <ele>140.1999969482421875</ele>
        <time>2026-08-13T09:06:35.000Z</time>
        <extensions>
          <ns3:TrackPointExtension>
            <ns3:hr>86</ns3:hr>
            <ns3:cad>0</ns3:cad>
          </ns3:TrackPointExtension>
        </extensions>
      </trkpt>
      <trkpt lat="43.778298385441303253173828125" lon="1.56716351397335529327392578125">
        <ele>140.1999969482421875</ele>
        <time>2026-08-13T09:06:36.000Z</time>
        <extensions>
          <ns3:TrackPointExtension>
            <ns3:hr>86</ns3:hr>
            <ns3:cad>0</ns3:cad>
          </ns3:TrackPointExtension>
        </extensions>
      </trkpt>
      <trkpt lat="43.77830802462995052337646484375" lon="1.56715312041342258453369140625">
        <ele>140.1999969482421875</ele>
        <time>2026-08-13T09:06:37.000Z</time>
        <extensions>
          <ns3:TrackPointExtension>
            <ns3:hr>86</ns3:hr>
            <ns3:cad>49</ns3:cad>
          </ns3:TrackPointExtension>
        </extensions>
      </trkpt>
      <trkpt lat="43.77831674180924892425537109375" lon="1.56714431941509246826171875">
        <ele>140</ele>
        <time>2026-08-13T09:06:38.000Z</time>
        <extensions>
          <ns3:TrackPointExtension>
            <ns3:hr>86</ns3:hr>
            <ns3:cad>49</ns3:cad>
          </ns3:TrackPointExtension>
        </extensions>
      </trkpt>
      <trkpt lat="43.7783230282366275787353515625" lon="1.567135937511920928955078125">
        <ele>140</ele>
        <time>2026-08-13T09:06:39.000Z</time>
        <extensions>
          <ns3:TrackPointExtension>
            <ns3:hr>86</ns3:hr>
            <ns3:cad>49</ns3:cad>
          </ns3:TrackPointExtension>
        </extensions>
      </trkpt>
      <trkpt lat="43.778332583606243133544921875" lon="1.56712579540908336639404296875">
        <ele>140</ele>
        <time>2026-08-13T09:06:40.000Z</time>
        <extensions>
          <ns3:TrackPointExtension>
            <ns3:hr>85</ns3:hr>
            <ns3:cad>49</ns3:cad>
          </ns3:TrackPointExtension>
        </extensions>
      </trkpt>
      <trkpt lat="43.77834155224263668060302734375" lon="1.5671159885823726654052734375">
        <ele>140</ele>
        <time>2026-08-13T09:06:41.000Z</time>
        <extensions>
          <ns3:TrackPointExtension>
            <ns3:hr>85</ns3:hr>
            <ns3:cad>49</ns3:cad>
          </ns3:TrackPointExtension>
        </extensions>
      </trkpt>
      <trkpt lat="43.77835026942193508148193359375" lon="1.56710986979305744171142578125">
        <ele>140</ele>
        <time>2026-08-13T09:06:42.000Z</time>
        <extensions>
          <ns3:TrackPointExtension>
            <ns3:hr>85</ns3:hr>
            <ns3:cad>49</ns3:cad>
          </ns3:TrackPointExtension>
        </extensions>
      </trkpt>
      <trkpt lat="43.778355382382869720458984375" lon="1.567105092108249664306640625">
        <ele>140</ele>
        <time>2026-08-13T09:06:43.000Z</time>
        <extensions>
          <ns3:TrackPointExtension>
            <ns3:hr>84</ns3:hr>
            <ns3:cad>49</ns3:cad>
          </ns3:TrackPointExtension>
        </extensions>
      </trkpt>
      <trkpt lat="43.77836317755281925201416015625" lon="1.5671009011566638946533203125">
        <ele>140</ele>
        <time>2026-08-13T09:06:44.000Z</time>
        <extensions>
          <ns3:TrackPointExtension>
            <ns3:hr>84</ns3:hr>
            <ns3:cad>48</ns3:cad>
          </ns3:TrackPointExtension>
        </extensions>
      </trkpt>
      <trkpt lat="43.7783827073872089385986328125" lon="1.56709461472928524017333984375">
        <ele>140</ele>
        <time>2026-08-13T09:06:45.000Z</time>
        <extensions>
          <ns3:TrackPointExtension>
            <ns3:hr>84</ns3:hr>
            <ns3:cad>48</ns3:cad>
          </ns3:TrackPointExtension>
        </extensions>
      </trkpt>
      <trkpt lat="43.77839268185198307037353515625" lon="1.56708338297903537750244140625">
        <ele>140</ele>
        <time>2026-08-13T09:06:46.000Z</time>
        <extensions>
          <ns3:TrackPointExtension>
            <ns3:hr>84</ns3:hr>
            <ns3:cad>48</ns3:cad>
          </ns3:TrackPointExtension>
        </extensions>
      </trkpt>
      <trkpt lat="43.7784039974212646484375" lon="1.56707751564681529998779296875">
        <ele>140</ele>
        <time>2026-08-13T09:06:47.000Z</time>
        <extensions>
          <ns3:TrackPointExtension>
            <ns3:hr>83</ns3:hr>
            <ns3:cad>48</ns3:cad>
          </ns3:TrackPointExtension>
        </extensions>
      </trkpt>
      <trkpt lat="43.7784107029438018798828125" lon="1.56708019785583019256591796875">
        <ele>139.8000030517578125</ele>
        <time>2026-08-13T09:06:48.000Z</time>
        <extensions>
          <ns3:TrackPointExtension>
            <ns3:hr>83</ns3:hr>
            <ns3:cad>48</ns3:cad>
          </ns3:TrackPointExtension>
        </extensions>
      </trkpt>
      <trkpt lat="43.778419084846973419189453125" lon="1.56707500107586383819580078125">
        <ele>139.8000030517578125</ele>
        <time>2026-08-13T09:06:49.000Z</time>
        <extensions>
          <ns3:TrackPointExtension>
            <ns3:hr>83</ns3:hr>
            <ns3:cad>47</ns3:cad>
          </ns3:TrackPointExtension>
        </extensions>
      </trkpt>
      <trkpt lat="43.77843123860657215118408203125" lon="1.56706460751593112945556640625">
        <ele>139.8000030517578125</ele>
        <time>2026-08-13T09:06:50.000Z</time>
        <extensions>
          <ns3:TrackPointExtension>
            <ns3:hr>83</ns3:hr>
            <ns3:cad>0</ns3:cad>
          </ns3:TrackPointExtension>
        </extensions>
      </trkpt>
      <trkpt lat="43.77844397909939289093017578125" lon="1.5670556388795375823974609375">
        <ele>139.8000030517578125</ele>
        <time>2026-08-13T09:06:51.000Z</time>
        <extensions>
          <ns3:TrackPointExtension>
            <ns3:hr>82</ns3:hr>
            <ns3:cad>0</ns3:cad>
          </ns3:TrackPointExtension>
        </extensions>
      </trkpt>
      <trkpt lat="43.778454624116420745849609375" lon="1.567047424614429473876953125">
        <ele>139.8000030517578125</ele>
        <time>2026-08-13T09:06:52.000Z</time>
        <extensions>
          <ns3:TrackPointExtension>
            <ns3:hr>82</ns3:hr>
            <ns3:cad>0</ns3:cad>
          </ns3:TrackPointExtension>
        </extensions>
      </trkpt>
      <trkpt lat="43.778461329638957977294921875" lon="1.56703879125416278839111328125">
        <ele>139.600006103515625</ele>
        <time>2026-08-13T09:06:53.000Z</time>
        <extensions>
          <ns3:TrackPointExtension>
            <ns3:hr>82</ns3:hr>
            <ns3:cad>0</ns3:cad>
          </ns3:TrackPointExtension>
        </extensions>
      </trkpt>
      <trkpt lat="43.77846593968570232391357421875" lon="1.56702420674264430999755859375">
        <ele>139.8000030517578125</ele>
        <time>2026-08-13T09:06:54.000Z</time>
        <extensions>
          <ns3:TrackPointExtension>
            <ns3:hr>82</ns3:hr>
            <ns3:cad>0</ns3:cad>
          </ns3:TrackPointExtension>
        </extensions>
      </trkpt>
      <trkpt lat="43.778474740684032440185546875" lon="1.56701750122010707855224609375">
        <ele>139.8000030517578125</ele>
        <time>2026-08-13T09:06:55.000Z</time>
        <extensions>
          <ns3:TrackPointExtension>
            <ns3:hr>82</ns3:hr>
            <ns3:cad>0</ns3:cad>
          </ns3:TrackPointExtension>
        </extensions>
      </trkpt>
      <trkpt lat="43.77848572097718715667724609375" lon="1.567007862031459808349609375">
        <ele>139.600006103515625</ele>
        <time>2026-08-13T09:06:56.000Z</time>
        <extensions>
          <ns3:TrackPointExtension>
            <ns3:hr>82</ns3:hr>
            <ns3:cad>47</ns3:cad>
          </ns3:TrackPointExtension>
        </extensions>
      </trkpt>
      <trkpt lat="43.77849460579454898834228515625" lon="1.566999144852161407470703125">
        <ele>139.600006103515625</ele>
        <time>2026-08-13T09:06:57.000Z</time>
        <extensions>
          <ns3:TrackPointExtension>
            <ns3:hr>82</ns3:hr>
            <ns3:cad>51</ns3:cad>
          </ns3:TrackPointExtension>
        </extensions>
      </trkpt>
      <trkpt lat="43.7784987129271030426025390625" lon="1.56699151732027530670166015625">
        <ele>139.600006103515625</ele>
        <time>2026-08-13T09:06:58.000Z</time>
        <extensions>
          <ns3:TrackPointExtension>
            <ns3:hr>82</ns3:hr>
            <ns3:cad>51</ns3:cad>
          </ns3:TrackPointExtension>
        </extensions>
      </trkpt>
      <trkpt lat="43.7785087712109088897705078125" lon="1.56697844155132770538330078125">
        <ele>139.399993896484375</ele>
        <time>2026-08-13T09:06:59.000Z</time>
        <extensions>
          <ns3:TrackPointExtension>
            <ns3:hr>83</ns3:hr>
            <ns3:cad>51</ns3:cad>
          </ns3:TrackPointExtension>
        </extensions>
      </trkpt>
      <trkpt lat="43.77851874567568302154541015625" lon="1.56696385703980922698974609375">
        <ele>139.399993896484375</ele>
        <time>2026-08-13T09:07:00.000Z</time>
        <extensions>
          <ns3:TrackPointExtension>
            <ns3:hr>84</ns3:hr>
            <ns3:cad>51</ns3:cad>
          </ns3:TrackPointExtension>
        </extensions>
      </trkpt>
      <trkpt lat="43.77852478064596652984619140625" lon="1.56694474630057811737060546875">
        <ele>139.399993896484375</ele>
        <time>2026-08-13T09:07:01.000Z</time>
        <extensions>
          <ns3:TrackPointExtension>
            <ns3:hr>85</ns3:hr>
            <ns3:cad>51</ns3:cad>
          </ns3:TrackPointExtension>
        </extensions>
      </trkpt>
      <trkpt lat="43.77853383310139179229736328125" lon="1.56693099997937679290771484375">
        <ele>139.399993896484375</ele>
        <time>2026-08-13T09:07:02.000Z</time>
        <extensions>
          <ns3:TrackPointExtension>
            <ns3:hr>86</ns3:hr>
            <ns3:cad>48</ns3:cad>
          </ns3:TrackPointExtension>
        </extensions>
      </trkpt>
      <trkpt lat="43.77853718586266040802001953125" lon="1.56692169606685638427734375">
        <ele>139.399993896484375</ele>
        <time>2026-08-13T09:07:03.000Z</time>
        <extensions>
          <ns3:TrackPointExtension>
            <ns3:hr>87</ns3:hr>
            <ns3:cad>48</ns3:cad>
          </ns3:TrackPointExtension>
        </extensions>
      </trkpt>
      <trkpt lat="43.778542466461658477783203125" lon="1.5669102966785430908203125">
        <ele>139.399993896484375</ele>
        <time>2026-08-13T09:07:04.000Z</time>
        <extensions>
          <ns3:TrackPointExtension>
            <ns3:hr>87</ns3:hr>
            <ns3:cad>49</ns3:cad>
          </ns3:TrackPointExtension>
        </extensions>
      </trkpt>
      <trkpt lat="43.77855327911674976348876953125" lon="1.5668953768908977508544921875">
        <ele>139.399993896484375</ele>
        <time>2026-08-13T09:07:05.000Z</time>
        <extensions>
          <ns3:TrackPointExtension>
            <ns3:hr>87</ns3:hr>
            <ns3:cad>49</ns3:cad>
          </ns3:TrackPointExtension>
        </extensions>
      </trkpt>
      <trkpt lat="43.778563924133777618408203125" lon="1.56688372604548931121826171875">
        <ele>139.1999969482421875</ele>
        <time>2026-08-13T09:07:06.000Z</time>
        <extensions>
          <ns3:TrackPointExtension>
            <ns3:hr>88</ns3:hr>
            <ns3:cad>0</ns3:cad>
          </ns3:TrackPointExtension>
        </extensions>
      </trkpt>
      <trkpt lat="43.77857364714145660400390625" lon="1.56687148846685886383056640625">
        <ele>139.1999969482421875</ele>
        <time>2026-08-13T09:07:07.000Z</time>
        <extensions>
          <ns3:TrackPointExtension>
            <ns3:hr>88</ns3:hr>
            <ns3:cad>0</ns3:cad>
          </ns3:TrackPointExtension>
        </extensions>
      </trkpt>
      <trkpt lat="43.7785788439214229583740234375" lon="1.5668646991252899169921875">
        <ele>139</ele>
        <time>2026-08-13T09:07:08.000Z</time>
        <extensions>
          <ns3:TrackPointExtension>
            <ns3:hr>89</ns3:hr>
            <ns3:cad>0</ns3:cad>
          </ns3:TrackPointExtension>
        </extensions>
      </trkpt>
      <trkpt lat="43.77858244813978672027587890625" lon="1.56685866415500640869140625">
        <ele>139</ele>
        <time>2026-08-13T09:07:09.000Z</time>
        <extensions>
          <ns3:TrackPointExtension>
            <ns3:hr>89</ns3:hr>
            <ns3:cad>0</ns3:cad>
          </ns3:TrackPointExtension>
        </extensions>
      </trkpt>
      <trkpt lat="43.77858814783394336700439453125" lon="1.56684793531894683837890625">
        <ele>139</ele>
        <time>2026-08-13T09:07:10.000Z</time>
        <extensions>
          <ns3:TrackPointExtension>
            <ns3:hr>90</ns3:hr>
            <ns3:cad>0</ns3:cad>
          </ns3:TrackPointExtension>
        </extensions>
      </trkpt>
      <trkpt lat="43.77859669737517833709716796875" lon="1.56683594919741153717041015625">
        <ele>139</ele>
        <time>2026-08-13T09:07:11.000Z</time>
        <extensions>
          <ns3:TrackPointExtension>
            <ns3:hr>90</ns3:hr>
            <ns3:cad>0</ns3:cad>
          </ns3:TrackPointExtension>
        </extensions>
      </trkpt>
      <trkpt lat="43.77860725857317447662353515625" lon="1.56682639382779598236083984375">
        <ele>139</ele>
        <time>2026-08-13T09:07:12.000Z</time>
        <extensions>
          <ns3:TrackPointExtension>
            <ns3:hr>90</ns3:hr>
            <ns3:cad>50</ns3:cad>
          </ns3:TrackPointExtension>
        </extensions>
      </trkpt>
      <trkpt lat="43.77861480228602886199951171875" lon="1.56681935302913188934326171875">
        <ele>139</ele>
        <time>2026-08-13T09:07:13.000Z</time>
        <extensions>
          <ns3:TrackPointExtension>
            <ns3:hr>89</ns3:hr>
            <ns3:cad>50</ns3:cad>
          </ns3:TrackPointExtension>
        </extensions>
      </trkpt>
      <trkpt lat="43.77862150780856609344482421875" lon="1.56681616790592670440673828125">
        <ele>138.8000030517578125</ele>
        <time>2026-08-13T09:07:14.000Z</time>
        <extensions>
          <ns3:TrackPointExtension>
            <ns3:hr>88</ns3:hr>
            <ns3:cad>50</ns3:cad>
          </ns3:TrackPointExtension>
        </extensions>
      </trkpt>
      <trkpt lat="43.77863039262592792510986328125" lon="1.56681298278272151947021484375">
        <ele>138.8000030517578125</ele>
        <time>2026-08-13T09:07:15.000Z</time>
        <extensions>
          <ns3:TrackPointExtension>
            <ns3:hr>89</ns3:hr>
            <ns3:cad>50</ns3:cad>
          </ns3:TrackPointExtension>
        </extensions>
      </trkpt>
      <trkpt lat="43.7786455638706684112548828125" lon="1.56681063584983348846435546875">
        <ele>138.8000030517578125</ele>
        <time>2026-08-13T09:07:16.000Z</time>
        <extensions>
          <ns3:TrackPointExtension>
            <ns3:hr>89</ns3:hr>
            <ns3:cad>50</ns3:cad>
          </ns3:TrackPointExtension>
        </extensions>
      </trkpt>
      <trkpt lat="43.77865855582058429718017578125" lon="1.56681147404015064239501953125">
        <ele>138.8000030517578125</ele>
        <time>2026-08-13T09:07:17.000Z</time>
        <extensions>
          <ns3:TrackPointExtension>
            <ns3:hr>89</ns3:hr>
            <ns3:cad>50</ns3:cad>
          </ns3:TrackPointExtension>
        </extensions>
      </trkpt>
      <trkpt lat="43.77867012284696102142333984375" lon="1.566811390221118927001953125">
        <ele>138.8000030517578125</ele>
        <time>2026-08-13T09:07:18.000Z</time>
        <extensions>
          <ns3:TrackPointExtension>
            <ns3:hr>88</ns3:hr>
            <ns3:cad>50</ns3:cad>
          </ns3:TrackPointExtension>
        </extensions>
      </trkpt>
      <trkpt lat="43.778679929673671722412109375" lon="1.566813401877880096435546875">
        <ele>138.8000030517578125</ele>
        <time>2026-08-13T09:07:19.000Z</time>
        <extensions>
          <ns3:TrackPointExtension>
            <ns3:hr>88</ns3:hr>
            <ns3:cad>49</ns3:cad>
          </ns3:TrackPointExtension>
        </extensions>
      </trkpt>
      <trkpt lat="43.7786884792149066925048828125" lon="1.5668266452848911285400390625">
        <ele>138.8000030517578125</ele>
        <time>2026-08-13T09:07:20.000Z</time>
        <extensions>
          <ns3:TrackPointExtension>
            <ns3:hr>88</ns3:hr>
            <ns3:cad>49</ns3:cad>
          </ns3:TrackPointExtension>
        </extensions>
      </trkpt>
      <trkpt lat="43.778703399002552032470703125" lon="1.56684852205216884613037109375">
        <ele>138.600006103515625</ele>
        <time>2026-08-13T09:07:21.000Z</time>
        <extensions>
          <ns3:TrackPointExtension>
            <ns3:hr>88</ns3:hr>
            <ns3:cad>47</ns3:cad>
          </ns3:TrackPointExtension>
        </extensions>
      </trkpt>
      <trkpt lat="43.7787179835140705108642578125" lon="1.566855646669864654541015625">
        <ele>138.600006103515625</ele>
        <time>2026-08-13T09:07:22.000Z</time>
        <extensions>
          <ns3:TrackPointExtension>
            <ns3:hr>89</ns3:hr>
            <ns3:cad>47</ns3:cad>
          </ns3:TrackPointExtension>
        </extensions>
      </trkpt>
      <trkpt lat="43.7787253595888614654541015625" lon="1.56686528585851192474365234375">
        <ele>138.600006103515625</ele>
        <time>2026-08-13T09:07:23.000Z</time>
        <extensions>
          <ns3:TrackPointExtension>
            <ns3:hr>89</ns3:hr>
            <ns3:cad>49</ns3:cad>
          </ns3:TrackPointExtension>
        </extensions>
      </trkpt>
      <trkpt lat="43.77873231656849384307861328125" lon="1.56688037328422069549560546875">
        <ele>138.600006103515625</ele>
        <time>2026-08-13T09:07:24.000Z</time>
        <extensions>
          <ns3:TrackPointExtension>
            <ns3:hr>88</ns3:hr>
            <ns3:cad>49</ns3:cad>
          </ns3:TrackPointExtension>
        </extensions>
      </trkpt>
      <trkpt lat="43.778739608824253082275390625" lon="1.5668876655399799346923828125">
        <ele>138.600006103515625</ele>
        <time>2026-08-13T09:07:25.000Z</time>
        <extensions>
          <ns3:TrackPointExtension>
            <ns3:hr>88</ns3:hr>
            <ns3:cad>48</ns3:cad>
          </ns3:TrackPointExtension>
        </extensions>
      </trkpt>
      <trkpt lat="43.7787505052983760833740234375" lon="1.5668903477489948272705078125">
        <ele>138.600006103515625</ele>
        <time>2026-08-13T09:07:26.000Z</time>
        <extensions>
          <ns3:TrackPointExtension>
            <ns3:hr>88</ns3:hr>
            <ns3:cad>47</ns3:cad>
          </ns3:TrackPointExtension>
        </extensions>
      </trkpt>
      <trkpt lat="43.77875729463994503021240234375" lon="1.56689411960542201995849609375">
        <ele>138.600006103515625</ele>
        <time>2026-08-13T09:07:27.000Z</time>
        <extensions>
          <ns3:TrackPointExtension>
            <ns3:hr>88</ns3:hr>
            <ns3:cad>47</ns3:cad>
          </ns3:TrackPointExtension>
        </extensions>
      </trkpt>
      <trkpt lat="43.77876567654311656951904296875" lon="1.56689881347119808197021484375">
        <ele>138.399993896484375</ele>
        <time>2026-08-13T09:07:28.000Z</time>
        <extensions>
          <ns3:TrackPointExtension>
            <ns3:hr>88</ns3:hr>
            <ns3:cad>46</ns3:cad>
          </ns3:TrackPointExtension>
        </extensions>
      </trkpt>
      <trkpt lat="43.778779841959476470947265625" lon="1.5669071115553379058837890625">
        <ele>138.399993896484375</ele>
        <time>2026-08-13T09:07:29.000Z</time>
        <extensions>
          <ns3:TrackPointExtension>
            <ns3:hr>87</ns3:hr>
            <ns3:cad>45</ns3:cad>
          </ns3:TrackPointExtension>
        </extensions>
      </trkpt>
      <trkpt lat="43.7787867151200771331787109375" lon="1.56690903939306735992431640625">
        <ele>138.399993896484375</ele>
        <time>2026-08-13T09:07:30.000Z</time>
        <extensions>
          <ns3:TrackPointExtension>
            <ns3:hr>88</ns3:hr>
            <ns3:cad>45</ns3:cad>
          </ns3:TrackPointExtension>
        </extensions>
      </trkpt>
      <trkpt lat="43.77878931351006031036376953125" lon="1.56691825948655605316162109375">
        <ele>138.399993896484375</ele>
        <time>2026-08-13T09:07:31.000Z</time>
        <extensions>
          <ns3:TrackPointExtension>
            <ns3:hr>88</ns3:hr>
            <ns3:cad>45</ns3:cad>
          </ns3:TrackPointExtension>
        </extensions>
      </trkpt>
      <trkpt lat="43.77879367209970951080322265625" lon="1.5669275633990764617919921875">
        <ele>138.399993896484375</ele>
        <time>2026-08-13T09:07:32.000Z</time>
        <extensions>
          <ns3:TrackPointExtension>
            <ns3:hr>88</ns3:hr>
            <ns3:cad>45</ns3:cad>
          </ns3:TrackPointExtension>
        </extensions>
      </trkpt>
      <trkpt lat="43.778796605765819549560546875" lon="1.56693401746451854705810546875">
        <ele>138.399993896484375</ele>
        <time>2026-08-13T09:07:33.000Z</time>
        <extensions>
          <ns3:TrackPointExtension>
            <ns3:hr>89</ns3:hr>
            <ns3:cad>44</ns3:cad>
          </ns3:TrackPointExtension>
        </extensions>
      </trkpt>
      <trkpt lat="43.7787904031574726104736328125" lon="1.566937454044818878173828125">
        <ele>138.399993896484375</ele>
        <time>2026-08-13T09:07:34.000Z</time>
        <extensions>
          <ns3:TrackPointExtension>
            <ns3:hr>89</ns3:hr>
            <ns3:cad>43</ns3:cad>
          </ns3:TrackPointExtension>
        </extensions>
      </trkpt>
      <trkpt lat="43.77878554165363311767578125" lon="1.566942147910594940185546875">
        <ele>138.399993896484375</ele>
        <time>2026-08-13T09:07:35.000Z</time>
        <extensions>
          <ns3:TrackPointExtension>
            <ns3:hr>90</ns3:hr>
            <ns3:cad>43</ns3:cad>
          </ns3:TrackPointExtension>
        </extensions>
      </trkpt>
      <trkpt lat="43.778787218034267425537109375" lon="1.5669356100261211395263671875">
        <ele>138.399993896484375</ele>
        <time>2026-08-13T09:07:36.000Z</time>
        <extensions>
          <ns3:TrackPointExtension>
            <ns3:hr>90</ns3:hr>
            <ns3:cad>0</ns3:cad>
          </ns3:TrackPointExtension>
        </extensions>
      </trkpt>
      <trkpt lat="43.77878026105463504791259765625" lon="1.56693200580775737762451171875">
        <ele>138.399993896484375</ele>
        <time>2026-08-13T09:07:37.000Z</time>
        <extensions>
          <ns3:TrackPointExtension>
            <ns3:hr>90</ns3:hr>
            <ns3:cad>0</ns3:cad>
          </ns3:TrackPointExtension>
        </extensions>
      </trkpt>
      <trkpt lat="43.7787823565304279327392578125" lon="1.566926054656505584716796875">
        <ele>138.399993896484375</ele>
        <time>2026-08-13T09:07:38.000Z</time>
        <extensions>
          <ns3:TrackPointExtension>
            <ns3:hr>90</ns3:hr>
            <ns3:cad>0</ns3:cad>
          </ns3:TrackPointExtension>
        </extensions>
      </trkpt>
      <trkpt lat="43.77878143452107906341552734375" lon="1.5669237077236175537109375">
        <ele>138.399993896484375</ele>
        <time>2026-08-13T09:07:39.000Z</time>
        <extensions>
          <ns3:TrackPointExtension>
            <ns3:hr>89</ns3:hr>
            <ns3:cad>0</ns3:cad>
          </ns3:TrackPointExtension>
        </extensions>
      </trkpt>
      <trkpt lat="43.77878151834011077880859375" lon="1.5669205226004123687744140625">
        <ele>138.399993896484375</ele>
        <time>2026-08-13T09:07:40.000Z</time>
        <extensions>
          <ns3:TrackPointExtension>
            <ns3:hr>89</ns3:hr>
            <ns3:cad>0</ns3:cad>
          </ns3:TrackPointExtension>
        </extensions>
      </trkpt>
      <trkpt lat="43.778781183063983917236328125" lon="1.566920019686222076416015625">
        <ele>138.399993896484375</ele>
        <time>2026-08-13T09:07:41.000Z</time>
        <extensions>
          <ns3:TrackPointExtension>
            <ns3:hr>88</ns3:hr>
            <ns3:cad>0</ns3:cad>
          </ns3:TrackPointExtension>
        </extensions>
      </trkpt>
      <trkpt lat="43.778784535825252532958984375" lon="1.56692228280007839202880859375">
        <ele>138.1999969482421875</ele>
        <time>2026-08-13T09:07:42.000Z</time>
        <extensions>
          <ns3:TrackPointExtension>
            <ns3:hr>87</ns3:hr>
            <ns3:cad>0</ns3:cad>
          </ns3:TrackPointExtension>
        </extensions>
      </trkpt>
      <trkpt lat="43.778777159750461578369140625" lon="1.56692261807620525360107421875">
        <ele>138.1999969482421875</ele>
        <time>2026-08-13T09:07:43.000Z</time>
        <extensions>
          <ns3:TrackPointExtension>
            <ns3:hr>86</ns3:hr>
            <ns3:cad>0</ns3:cad>
          </ns3:TrackPointExtension>
        </extensions>
      </trkpt>
      <trkpt lat="43.778780512511730194091796875" lon="1.56691842712461948394775390625">
        <ele>138.1999969482421875</ele>
        <time>2026-08-13T09:07:44.000Z</time>
        <extensions>
          <ns3:TrackPointExtension>
            <ns3:hr>86</ns3:hr>
            <ns3:cad>0</ns3:cad>
          </ns3:TrackPointExtension>
        </extensions>
      </trkpt>
      <trkpt lat="43.778779171407222747802734375" lon="1.56691473908722400665283203125">
        <ele>138.1999969482421875</ele>
        <time>2026-08-13T09:07:45.000Z</time>
        <extensions>
          <ns3:TrackPointExtension>
            <ns3:hr>85</ns3:hr>
            <ns3:cad>0</ns3:cad>
          </ns3:TrackPointExtension>
        </extensions>
      </trkpt>
      <trkpt lat="43.77877757884562015533447265625" lon="1.56691943295300006866455078125">
        <ele>138.1999969482421875</ele>
        <time>2026-08-13T09:07:46.000Z</time>
        <extensions>
          <ns3:TrackPointExtension>
            <ns3:hr>85</ns3:hr>
            <ns3:cad>0</ns3:cad>
          </ns3:TrackPointExtension>
        </extensions>
      </trkpt>
      <trkpt lat="43.7787776626646518707275390625" lon="1.56691960059106349945068359375">
        <ele>138.399993896484375</ele>
        <time>2026-08-13T09:07:47.000Z</time>
        <extensions>
          <ns3:TrackPointExtension>
            <ns3:hr>84</ns3:hr>
            <ns3:cad>0</ns3:cad>
          </ns3:TrackPointExtension>
        </extensions>
      </trkpt>
      <trkpt lat="43.7787776626646518707275390625" lon="1.56691960059106349945068359375">
        <ele>138.1999969482421875</ele>
        <time>2026-08-13T09:07:48.000Z</time>
        <extensions>
          <ns3:TrackPointExtension>
            <ns3:hr>84</ns3:hr>
            <ns3:cad>0</ns3:cad>
          </ns3:TrackPointExtension>
        </extensions>
      </trkpt>
      <trkpt lat="43.7787776626646518707275390625" lon="1.56691960059106349945068359375">
        <ele>138.1999969482421875</ele>
        <time>2026-08-13T09:07:49.000Z</time>
        <extensions>
          <ns3:TrackPointExtension>
            <ns3:hr>83</ns3:hr>
            <ns3:cad>0</ns3:cad>
          </ns3:TrackPointExtension>
        </extensions>
      </trkpt>
      <trkpt lat="43.7787776626646518707275390625" lon="1.56691960059106349945068359375">
        <ele>138.1999969482421875</ele>
        <time>2026-08-13T09:07:50.000Z</time>
        <extensions>
          <ns3:TrackPointExtension>
            <ns3:hr>83</ns3:hr>
            <ns3:cad>0</ns3:cad>
          </ns3:TrackPointExtension>
        </extensions>
      </trkpt>
      <trkpt lat="43.7787776626646518707275390625" lon="1.56691960059106349945068359375">
        <ele>138.1999969482421875</ele>
        <time>2026-08-13T09:07:51.000Z</time>
        <extensions>
          <ns3:TrackPointExtension>
            <ns3:hr>82</ns3:hr>
            <ns3:cad>0</ns3:cad>
          </ns3:TrackPointExtension>
        </extensions>
      </trkpt>
      <trkpt lat="43.7787776626646518707275390625" lon="1.56691960059106349945068359375">
        <ele>138.1999969482421875</ele>
        <time>2026-08-13T09:07:52.000Z</time>
        <extensions>
          <ns3:TrackPointExtension>
            <ns3:hr>82</ns3:hr>
            <ns3:cad>0</ns3:cad>
          </ns3:TrackPointExtension>
        </extensions>
      </trkpt>
      <trkpt lat="43.7787776626646518707275390625" lon="1.56691960059106349945068359375">
        <ele>138.1999969482421875</ele>
        <time>2026-08-13T09:07:53.000Z</time>
        <extensions>
          <ns3:TrackPointExtension>
            <ns3:hr>82</ns3:hr>
            <ns3:cad>0</ns3:cad>
          </ns3:TrackPointExtension>
        </extensions>
      </trkpt>
      <trkpt lat="43.7787776626646518707275390625" lon="1.56691960059106349945068359375">
        <ele>138.1999969482421875</ele>
        <time>2026-08-13T09:07:54.000Z</time>
        <extensions>
          <ns3:TrackPointExtension>
            <ns3:hr>82</ns3:hr>
            <ns3:cad>0</ns3:cad>
          </ns3:TrackPointExtension>
        </extensions>
      </trkpt>
      <trkpt lat="43.7787776626646518707275390625" lon="1.56691960059106349945068359375">
        <ele>138.1999969482421875</ele>
        <time>2026-08-13T09:07:55.000Z</time>
        <extensions>
          <ns3:TrackPointExtension>
            <ns3:hr>81</ns3:hr>
            <ns3:cad>0</ns3:cad>
          </ns3:TrackPointExtension>
        </extensions>
      </trkpt>
      <trkpt lat="43.7787776626646518707275390625" lon="1.56691960059106349945068359375">
        <ele>138</ele>
        <time>2026-08-13T09:07:56.000Z</time>
        <extensions>
          <ns3:TrackPointExtension>
            <ns3:hr>81</ns3:hr>
            <ns3:cad>0</ns3:cad>
          </ns3:TrackPointExtension>
        </extensions>
      </trkpt>
      <trkpt lat="43.7787776626646518707275390625" lon="1.56691960059106349945068359375">
        <ele>138</ele>
        <time>2026-08-13T09:07:57.000Z</time>
        <extensions>
          <ns3:TrackPointExtension>
            <ns3:hr>81</ns3:hr>
            <ns3:cad>0</ns3:cad>
          </ns3:TrackPointExtension>
        </extensions>
      </trkpt>
      <trkpt lat="43.7787776626646518707275390625" lon="1.56691960059106349945068359375">
        <ele>138</ele>
        <time>2026-08-13T09:07:58.000Z</time>
        <extensions>
          <ns3:TrackPointExtension>
            <ns3:hr>80</ns3:hr>
            <ns3:cad>0</ns3:cad>
          </ns3:TrackPointExtension>
        </extensions>
      </trkpt>
      <trkpt lat="43.7787776626646518707275390625" lon="1.56691960059106349945068359375">
        <ele>138</ele>
        <time>2026-08-13T09:07:59.000Z</time>
        <extensions>
          <ns3:TrackPointExtension>
            <ns3:hr>81</ns3:hr>
            <ns3:cad>0</ns3:cad>
          </ns3:TrackPointExtension>
        </extensions>
      </trkpt>
      <trkpt lat="43.7787776626646518707275390625" lon="1.56691960059106349945068359375">
        <ele>138</ele>
        <time>2026-08-13T09:08:00.000Z</time>
        <extensions>
          <ns3:TrackPointExtension>
            <ns3:hr>81</ns3:hr>
            <ns3:cad>0</ns3:cad>
          </ns3:TrackPointExtension>
        </extensions>
      </trkpt>
      <trkpt lat="43.7787776626646518707275390625" lon="1.56691960059106349945068359375">
        <ele>138</ele>
        <time>2026-08-13T09:08:01.000Z</time>
        <extensions>
          <ns3:TrackPointExtension>
            <ns3:hr>82</ns3:hr>
            <ns3:cad>0</ns3:cad>
          </ns3:TrackPointExtension>
        </extensions>
      </trkpt>
      <trkpt lat="43.7787776626646518707275390625" lon="1.56691960059106349945068359375">
        <ele>138</ele>
        <time>2026-08-13T09:08:02.000Z</time>
        <extensions>
          <ns3:TrackPointExtension>
            <ns3:hr>82</ns3:hr>
            <ns3:cad>0</ns3:cad>
          </ns3:TrackPointExtension>
        </extensions>
      </trkpt>
      <trkpt lat="43.7787776626646518707275390625" lon="1.56691960059106349945068359375">
        <ele>138</ele>
        <time>2026-08-13T09:08:03.000Z</time>
        <extensions>
          <ns3:TrackPointExtension>
            <ns3:hr>82</ns3:hr>
            <ns3:cad>0</ns3:cad>
          </ns3:TrackPointExtension>
        </extensions>
      </trkpt>
      <trkpt lat="43.77877154387533664703369140625" lon="1.56692094169557094573974609375">
        <ele>138</ele>
        <time>2026-08-13T09:08:04.000Z</time>
        <extensions>
          <ns3:TrackPointExtension>
            <ns3:hr>82</ns3:hr>
            <ns3:cad>0</ns3:cad>
          </ns3:TrackPointExtension>
        </extensions>
      </trkpt>
      <trkpt lat="43.77876886166632175445556640625" lon="1.56692362390458583831787109375">
        <ele>138</ele>
        <time>2026-08-13T09:08:05.000Z</time>
        <extensions>
          <ns3:TrackPointExtension>
            <ns3:hr>83</ns3:hr>
            <ns3:cad>0</ns3:cad>
          </ns3:TrackPointExtension>
        </extensions>
      </trkpt>
      <trkpt lat="43.7787615694105625152587890625" lon="1.5669295750558376312255859375">
        <ele>138</ele>
        <time>2026-08-13T09:08:06.000Z</time>
        <extensions>
          <ns3:TrackPointExtension>
            <ns3:hr>83</ns3:hr>
            <ns3:cad>0</ns3:cad>
          </ns3:TrackPointExtension>
        </extensions>
      </trkpt>
      <trkpt lat="43.7787585519254207611083984375" lon="1.56693099997937679290771484375">
        <ele>138</ele>
        <time>2026-08-13T09:08:07.000Z</time>
        <extensions>
          <ns3:TrackPointExtension>
            <ns3:hr>83</ns3:hr>
            <ns3:cad>0</ns3:cad>
          </ns3:TrackPointExtension>
        </extensions>
      </trkpt>
      <trkpt lat="43.77875897102057933807373046875" lon="1.56692999415099620819091796875">
        <ele>138.1999969482421875</ele>
        <time>2026-08-13T09:08:08.000Z</time>
        <extensions>
          <ns3:TrackPointExtension>
            <ns3:hr>83</ns3:hr>
            <ns3:cad>0</ns3:cad>
          </ns3:TrackPointExtension>
        </extensions>
      </trkpt>
      <trkpt lat="43.77875830046832561492919921875" lon="1.56693066470324993133544921875">
        <ele>138.1999969482421875</ele>
        <time>2026-08-13T09:08:09.000Z</time>
        <extensions>
          <ns3:TrackPointExtension>
            <ns3:hr>84</ns3:hr>
            <ns3:cad>0</ns3:cad>
          </ns3:TrackPointExtension>
        </extensions>
      </trkpt>
      <trkpt lat="43.7787578813731670379638671875" lon="1.56693351455032825469970703125">
        <ele>138.399993896484375</ele>
        <time>2026-08-13T09:08:10.000Z</time>
        <extensions>
          <ns3:TrackPointExtension>
            <ns3:hr>84</ns3:hr>
            <ns3:cad>0</ns3:cad>
          </ns3:TrackPointExtension>
        </extensions>
      </trkpt>
      <trkpt lat="43.77876014448702335357666015625" lon="1.566933095455169677734375">
        <ele>138.399993896484375</ele>
        <time>2026-08-13T09:08:11.000Z</time>
        <extensions>
          <ns3:TrackPointExtension>
            <ns3:hr>84</ns3:hr>
            <ns3:cad>0</ns3:cad>
          </ns3:TrackPointExtension>
        </extensions>
      </trkpt>
      <trkpt lat="43.7787615694105625152587890625" lon="1.5669332630932331085205078125">
        <ele>138.399993896484375</ele>
        <time>2026-08-13T09:08:12.000Z</time>
        <extensions>
          <ns3:TrackPointExtension>
            <ns3:hr>85</ns3:hr>
            <ns3:cad>0</ns3:cad>
          </ns3:TrackPointExtension>
        </extensions>
      </trkpt>
      <trkpt lat="43.77875947393476963043212890625" lon="1.56693720258772373199462890625">
        <ele>138.399993896484375</ele>
        <time>2026-08-13T09:08:13.000Z</time>
        <extensions>
          <ns3:TrackPointExtension>
            <ns3:hr>85</ns3:hr>
            <ns3:cad>0</ns3:cad>
          </ns3:TrackPointExtension>
        </extensions>
      </trkpt>
      <trkpt lat="43.7787551991641521453857421875" lon="1.56693887896835803985595703125">
        <ele>138.399993896484375</ele>
        <time>2026-08-13T09:08:14.000Z</time>
        <extensions>
          <ns3:TrackPointExtension>
            <ns3:hr>85</ns3:hr>
            <ns3:cad>0</ns3:cad>
          </ns3:TrackPointExtension>
        </extensions>
      </trkpt>
      <trkpt lat="43.77875327132642269134521484375" lon="1.566943489015102386474609375">
        <ele>138.1999969482421875</ele>
        <time>2026-08-13T09:08:15.000Z</time>
        <extensions>
          <ns3:TrackPointExtension>
            <ns3:hr>85</ns3:hr>
            <ns3:cad>0</ns3:cad>
          </ns3:TrackPointExtension>
        </extensions>
      </trkpt>
      <trkpt lat="43.77875067293643951416015625" lon="1.566946506500244140625">
        <ele>138.1999969482421875</ele>
        <time>2026-08-13T09:08:16.000Z</time>
        <extensions>
          <ns3:TrackPointExtension>
            <ns3:hr>86</ns3:hr>
            <ns3:cad>0</ns3:cad>
          </ns3:TrackPointExtension>
        </extensions>
      </trkpt>
      <trkpt lat="43.778748996555805206298828125" lon="1.56694860197603702545166015625">
        <ele>138.1999969482421875</ele>
        <time>2026-08-13T09:08:17.000Z</time>
        <extensions>
          <ns3:TrackPointExtension>
            <ns3:hr>85</ns3:hr>
            <ns3:cad>0</ns3:cad>
          </ns3:TrackPointExtension>
        </extensions>
      </trkpt>
      <trkpt lat="43.77874723635613918304443359375" lon="1.5669493563473224639892578125">
        <ele>138</ele>
        <time>2026-08-13T09:08:18.000Z</time>
        <extensions>
          <ns3:TrackPointExtension>
            <ns3:hr>85</ns3:hr>
            <ns3:cad>0</ns3:cad>
          </ns3:TrackPointExtension>
        </extensions>
      </trkpt>
      <trkpt lat="43.7787473201751708984375" lon="1.56694944016635417938232421875">
        <ele>138</ele>
        <time>2026-08-13T09:08:19.000Z</time>
        <extensions>
          <ns3:TrackPointExtension>
            <ns3:hr>85</ns3:hr>
            <ns3:cad>0</ns3:cad>
          </ns3:TrackPointExtension>
        </extensions>
      </trkpt>
      <trkpt lat="43.7787473201751708984375" lon="1.56694944016635417938232421875">
        <ele>137.8000030517578125</ele>
        <time>2026-08-13T09:08:20.000Z</time>
        <extensions>
          <ns3:TrackPointExtension>
            <ns3:hr>85</ns3:hr>
            <ns3:cad>0</ns3:cad>
          </ns3:TrackPointExtension>
        </extensions>
      </trkpt>
      <trkpt lat="43.7787473201751708984375" lon="1.56694944016635417938232421875">
        <ele>137.8000030517578125</ele>
        <time>2026-08-13T09:08:21.000Z</time>
        <extensions>
          <ns3:TrackPointExtension>
            <ns3:hr>85</ns3:hr>
            <ns3:cad>0</ns3:cad>
          </ns3:TrackPointExtension>
        </extensions>
      </trkpt>
      <trkpt lat="43.7787473201751708984375" lon="1.56694944016635417938232421875">
        <ele>137.8000030517578125</ele>
        <time>2026-08-13T09:08:22.000Z</time>
        <extensions>
          <ns3:TrackPointExtension>
            <ns3:hr>86</ns3:hr>
            <ns3:cad>0</ns3:cad>
          </ns3:TrackPointExtension>
        </extensions>
      </trkpt>
      <trkpt lat="43.7787473201751708984375" lon="1.56694944016635417938232421875">
        <ele>137.8000030517578125</ele>
        <time>2026-08-13T09:08:23.000Z</time>
        <extensions>
          <ns3:TrackPointExtension>
            <ns3:hr>86</ns3:hr>
            <ns3:cad>0</ns3:cad>
          </ns3:TrackPointExtension>
        </extensions>
      </trkpt>
      <trkpt lat="43.7787473201751708984375" lon="1.56694944016635417938232421875">
        <ele>137.8000030517578125</ele>
        <time>2026-08-13T09:08:24.000Z</time>
        <extensions>
          <ns3:TrackPointExtension>
            <ns3:hr>86</ns3:hr>
            <ns3:cad>0</ns3:cad>
          </ns3:TrackPointExtension>
        </extensions>
      </trkpt>
      <trkpt lat="43.7787473201751708984375" lon="1.56694944016635417938232421875">
        <ele>137.8000030517578125</ele>
        <time>2026-08-13T09:08:25.000Z</time>
        <extensions>
          <ns3:TrackPointExtension>
            <ns3:hr>86</ns3:hr>
            <ns3:cad>0</ns3:cad>
          </ns3:TrackPointExtension>
        </extensions>
      </trkpt>
      <trkpt lat="43.7787473201751708984375" lon="1.56694944016635417938232421875">
        <ele>137.8000030517578125</ele>
        <time>2026-08-13T09:08:26.000Z</time>
        <extensions>
          <ns3:TrackPointExtension>
            <ns3:hr>87</ns3:hr>
            <ns3:cad>0</ns3:cad>
          </ns3:TrackPointExtension>
        </extensions>
      </trkpt>
      <trkpt lat="43.7787473201751708984375" lon="1.56694944016635417938232421875">
        <ele>137.8000030517578125</ele>
        <time>2026-08-13T09:08:27.000Z</time>
        <extensions>
          <ns3:TrackPointExtension>
            <ns3:hr>87</ns3:hr>
            <ns3:cad>0</ns3:cad>
          </ns3:TrackPointExtension>
        </extensions>
      </trkpt>
      <trkpt lat="43.7787473201751708984375" lon="1.56694944016635417938232421875">
        <ele>137.8000030517578125</ele>
        <time>2026-08-13T09:08:28.000Z</time>
        <extensions>
          <ns3:TrackPointExtension>
            <ns3:hr>87</ns3:hr>
            <ns3:cad>0</ns3:cad>
          </ns3:TrackPointExtension>
        </extensions>
      </trkpt>
      <trkpt lat="43.7787473201751708984375" lon="1.56694944016635417938232421875">
        <ele>137.8000030517578125</ele>
        <time>2026-08-13T09:08:29.000Z</time>
        <extensions>
          <ns3:TrackPointExtension>
            <ns3:hr>87</ns3:hr>
            <ns3:cad>0</ns3:cad>
          </ns3:TrackPointExtension>
        </extensions>
      </trkpt>
      <trkpt lat="43.7787473201751708984375" lon="1.56694944016635417938232421875">
        <ele>137.8000030517578125</ele>
        <time>2026-08-13T09:08:30.000Z</time>
        <extensions>
          <ns3:TrackPointExtension>
            <ns3:hr>86</ns3:hr>
            <ns3:cad>0</ns3:cad>
          </ns3:TrackPointExtension>
        </extensions>
      </trkpt>
      <trkpt lat="43.7787473201751708984375" lon="1.56694944016635417938232421875">
        <ele>137.8000030517578125</ele>
        <time>2026-08-13T09:08:31.000Z</time>
        <extensions>
          <ns3:TrackPointExtension>
            <ns3:hr>84</ns3:hr>
            <ns3:cad>0</ns3:cad>
          </ns3:TrackPointExtension>
        </extensions>
      </trkpt>
      <trkpt lat="43.7787473201751708984375" lon="1.56694944016635417938232421875">
        <ele>137.600006103515625</ele>
        <time>2026-08-13T09:08:32.000Z</time>
        <extensions>
          <ns3:TrackPointExtension>
            <ns3:hr>83</ns3:hr>
            <ns3:cad>0</ns3:cad>
          </ns3:TrackPointExtension>
        </extensions>
      </trkpt>
      <trkpt lat="43.7787473201751708984375" lon="1.56694944016635417938232421875">
        <ele>137.600006103515625</ele>
        <time>2026-08-13T09:08:33.000Z</time>
        <extensions>
          <ns3:TrackPointExtension>
            <ns3:hr>83</ns3:hr>
            <ns3:cad>0</ns3:cad>
          </ns3:TrackPointExtension>
        </extensions>
      </trkpt>
      <trkpt lat="43.7787473201751708984375" lon="1.56694944016635417938232421875">
        <ele>137.600006103515625</ele>
        <time>2026-08-13T09:08:34.000Z</time>
        <extensions>
          <ns3:TrackPointExtension>
            <ns3:hr>84</ns3:hr>
            <ns3:cad>0</ns3:cad>
          </ns3:TrackPointExtension>
        </extensions>
      </trkpt>
      <trkpt lat="43.7787473201751708984375" lon="1.56694944016635417938232421875">
        <ele>137.600006103515625</ele>
        <time>2026-08-13T09:08:35.000Z</time>
        <extensions>
          <ns3:TrackPointExtension>
            <ns3:hr>85</ns3:hr>
            <ns3:cad>0</ns3:cad>
          </ns3:TrackPointExtension>
        </extensions>
      </trkpt>
      <trkpt lat="43.7787473201751708984375" lon="1.56694944016635417938232421875">
        <ele>137.600006103515625</ele>
        <time>2026-08-13T09:08:36.000Z</time>
        <extensions>
          <ns3:TrackPointExtension>
            <ns3:hr>86</ns3:hr>
            <ns3:cad>0</ns3:cad>
          </ns3:TrackPointExtension>
        </extensions>
      </trkpt>
      <trkpt lat="43.7787473201751708984375" lon="1.56694944016635417938232421875">
        <ele>137.600006103515625</ele>
        <time>2026-08-13T09:08:37.000Z</time>
        <extensions>
          <ns3:TrackPointExtension>
            <ns3:hr>86</ns3:hr>
            <ns3:cad>0</ns3:cad>
          </ns3:TrackPointExtension>
        </extensions>
      </trkpt>
      <trkpt lat="43.7787473201751708984375" lon="1.56694944016635417938232421875">
        <ele>137.600006103515625</ele>
        <time>2026-08-13T09:08:38.000Z</time>
        <extensions>
          <ns3:TrackPointExtension>
            <ns3:hr>85</ns3:hr>
            <ns3:cad>0</ns3:cad>
          </ns3:TrackPointExtension>
        </extensions>
      </trkpt>
      <trkpt lat="43.7787473201751708984375" lon="1.56694944016635417938232421875">
        <ele>137.600006103515625</ele>
        <time>2026-08-13T09:08:39.000Z</time>
        <extensions>
          <ns3:TrackPointExtension>
            <ns3:hr>85</ns3:hr>
            <ns3:cad>0</ns3:cad>
          </ns3:TrackPointExtension>
        </extensions>
      </trkpt>
      <trkpt lat="43.7787473201751708984375" lon="1.56694944016635417938232421875">
        <ele>137.600006103515625</ele>
        <time>2026-08-13T09:08:40.000Z</time>
        <extensions>
          <ns3:TrackPointExtension>
            <ns3:hr>84</ns3:hr>
            <ns3:cad>0</ns3:cad>
          </ns3:TrackPointExtension>
        </extensions>
      </trkpt>
      <trkpt lat="43.7787473201751708984375" lon="1.56694944016635417938232421875">
        <ele>137.600006103515625</ele>
        <time>2026-08-13T09:08:41.000Z</time>
        <extensions>
          <ns3:TrackPointExtension>
            <ns3:hr>83</ns3:hr>
            <ns3:cad>0</ns3:cad>
          </ns3:TrackPointExtension>
        </extensions>
      </trkpt>
      <trkpt lat="43.7787473201751708984375" lon="1.56694944016635417938232421875">
        <ele>137.600006103515625</ele>
        <time>2026-08-13T09:08:42.000Z</time>
        <extensions>
          <ns3:TrackPointExtension>
            <ns3:hr>83</ns3:hr>
            <ns3:cad>0</ns3:cad>
          </ns3:TrackPointExtension>
        </extensions>
      </trkpt>
      <trkpt lat="43.7787473201751708984375" lon="1.56694944016635417938232421875">
        <ele>137.600006103515625</ele>
        <time>2026-08-13T09:08:43.000Z</time>
        <extensions>
          <ns3:TrackPointExtension>
            <ns3:hr>83</ns3:hr>
            <ns3:cad>0</ns3:cad>
          </ns3:TrackPointExtension>
        </extensions>
      </trkpt>
      <trkpt lat="43.7787473201751708984375" lon="1.56694944016635417938232421875">
        <ele>137.600006103515625</ele>
        <time>2026-08-13T09:08:44.000Z</time>
        <extensions>
          <ns3:TrackPointExtension>
            <ns3:hr>84</ns3:hr>
            <ns3:cad>0</ns3:cad>
          </ns3:TrackPointExtension>
        </extensions>
      </trkpt>
      <trkpt lat="43.7787473201751708984375" lon="1.56694944016635417938232421875">
        <ele>137.600006103515625</ele>
        <time>2026-08-13T09:08:45.000Z</time>
        <extensions>
          <ns3:TrackPointExtension>
            <ns3:hr>84</ns3:hr>
            <ns3:cad>0</ns3:cad>
          </ns3:TrackPointExtension>
        </extensions>
      </trkpt>
      <trkpt lat="43.7787473201751708984375" lon="1.56694944016635417938232421875">
        <ele>137.600006103515625</ele>
        <time>2026-08-13T09:08:46.000Z</time>
        <extensions>
          <ns3:TrackPointExtension>
            <ns3:hr>84</ns3:hr>
            <ns3:cad>0</ns3:cad>
          </ns3:TrackPointExtension>
        </extensions>
      </trkpt>
      <trkpt lat="43.7787473201751708984375" lon="1.56694944016635417938232421875">
        <ele>137.600006103515625</ele>
        <time>2026-08-13T09:08:47.000Z</time>
        <extensions>
          <ns3:TrackPointExtension>
            <ns3:hr>84</ns3:hr>
            <ns3:cad>0</ns3:cad>
          </ns3:TrackPointExtension>
        </extensions>
      </trkpt>
      <trkpt lat="43.7787473201751708984375" lon="1.56694944016635417938232421875">
        <ele>137.600006103515625</ele>
        <time>2026-08-13T09:08:48.000Z</time>
        <extensions>
          <ns3:TrackPointExtension>
            <ns3:hr>84</ns3:hr>
            <ns3:cad>0</ns3:cad>
          </ns3:TrackPointExtension>
        </extensions>
      </trkpt>
      <trkpt lat="43.7787473201751708984375" lon="1.56694944016635417938232421875">
        <ele>137.600006103515625</ele>
        <time>2026-08-13T09:08:49.000Z</time>
        <extensions>
          <ns3:TrackPointExtension>
            <ns3:hr>84</ns3:hr>
            <ns3:cad>0</ns3:cad>
          </ns3:TrackPointExtension>
        </extensions>
      </trkpt>
      <trkpt lat="43.7787473201751708984375" lon="1.56694944016635417938232421875">
        <ele>137.8000030517578125</ele>
        <time>2026-08-13T09:08:50.000Z</time>
        <extensions>
          <ns3:TrackPointExtension>
            <ns3:hr>84</ns3:hr>
            <ns3:cad>0</ns3:cad>
          </ns3:TrackPointExtension>
        </extensions>
      </trkpt>
      <trkpt lat="43.7787473201751708984375" lon="1.56694944016635417938232421875">
        <ele>137.8000030517578125</ele>
        <time>2026-08-13T09:08:51.000Z</time>
        <extensions>
          <ns3:TrackPointExtension>
            <ns3:hr>84</ns3:hr>
            <ns3:cad>0</ns3:cad>
          </ns3:TrackPointExtension>
        </extensions>
      </trkpt>
      <trkpt lat="43.7787473201751708984375" lon="1.56694944016635417938232421875">
        <ele>138</ele>
        <time>2026-08-13T09:08:52.000Z</time>
        <extensions>
          <ns3:TrackPointExtension>
            <ns3:hr>84</ns3:hr>
            <ns3:cad>0</ns3:cad>
          </ns3:TrackPointExtension>
        </extensions>
      </trkpt>
      <trkpt lat="43.7787473201751708984375" lon="1.56694944016635417938232421875">
        <ele>137.8000030517578125</ele>
        <time>2026-08-13T09:08:53.000Z</time>
        <extensions>
          <ns3:TrackPointExtension>
            <ns3:hr>84</ns3:hr>
            <ns3:cad>0</ns3:cad>
          </ns3:TrackPointExtension>
        </extensions>
      </trkpt>
      <trkpt lat="43.7787473201751708984375" lon="1.56694944016635417938232421875">
        <ele>137.8000030517578125</ele>
        <time>2026-08-13T09:08:54.000Z</time>
        <extensions>
          <ns3:TrackPointExtension>
            <ns3:hr>83</ns3:hr>
            <ns3:cad>0</ns3:cad>
          </ns3:TrackPointExtension>
        </extensions>
      </trkpt>
      <trkpt lat="43.7787473201751708984375" lon="1.56694944016635417938232421875">
        <ele>137.8000030517578125</ele>
        <time>2026-08-13T09:08:55.000Z</time>
        <extensions>
          <ns3:TrackPointExtension>
            <ns3:hr>83</ns3:hr>
            <ns3:cad>0</ns3:cad>
          </ns3:TrackPointExtension>
        </extensions>
      </trkpt>
      <trkpt lat="43.7787473201751708984375" lon="1.56694944016635417938232421875">
        <ele>137.600006103515625</ele>
        <time>2026-08-13T09:08:56.000Z</time>
        <extensions>
          <ns3:TrackPointExtension>
            <ns3:hr>84</ns3:hr>
            <ns3:cad>0</ns3:cad>
          </ns3:TrackPointExtension>
        </extensions>
      </trkpt>
      <trkpt lat="43.7787473201751708984375" lon="1.56694944016635417938232421875">
        <ele>137.600006103515625</ele>
        <time>2026-08-13T09:08:57.000Z</time>
        <extensions>
          <ns3:TrackPointExtension>
            <ns3:hr>84</ns3:hr>
            <ns3:cad>0</ns3:cad>
          </ns3:TrackPointExtension>
        </extensions>
      </trkpt>
      <trkpt lat="43.7787473201751708984375" lon="1.56694944016635417938232421875">
        <ele>137.600006103515625</ele>
        <time>2026-08-13T09:08:58.000Z</time>
        <extensions>
          <ns3:TrackPointExtension>
            <ns3:hr>84</ns3:hr>
            <ns3:cad>0</ns3:cad>
          </ns3:TrackPointExtension>
        </extensions>
      </trkpt>
      <trkpt lat="43.7787473201751708984375" lon="1.56694944016635417938232421875">
        <ele>137.600006103515625</ele>
        <time>2026-08-13T09:08:59.000Z</time>
        <extensions>
          <ns3:TrackPointExtension>
            <ns3:hr>84</ns3:hr>
            <ns3:cad>0</ns3:cad>
          </ns3:TrackPointExtension>
        </extensions>
      </trkpt>
      <trkpt lat="43.7787473201751708984375" lon="1.56694944016635417938232421875">
        <ele>137.600006103515625</ele>
        <time>2026-08-13T09:09:00.000Z</time>
        <extensions>
          <ns3:TrackPointExtension>
            <ns3:hr>84</ns3:hr>
            <ns3:cad>0</ns3:cad>
          </ns3:TrackPointExtension>
        </extensions>
      </trkpt>
      <trkpt lat="43.7787473201751708984375" lon="1.56694944016635417938232421875">
        <ele>137.600006103515625</ele>
        <time>2026-08-13T09:09:01.000Z</time>
        <extensions>
          <ns3:TrackPointExtension>
            <ns3:hr>83</ns3:hr>
            <ns3:cad>0</ns3:cad>
          </ns3:TrackPointExtension>
        </extensions>
      </trkpt>
      <trkpt lat="43.7787473201751708984375" lon="1.56694944016635417938232421875">
        <ele>137.600006103515625</ele>
        <time>2026-08-13T09:09:02.000Z</time>
        <extensions>
          <ns3:TrackPointExtension>
            <ns3:hr>83</ns3:hr>
            <ns3:cad>0</ns3:cad>
          </ns3:TrackPointExtension>
        </extensions>
      </trkpt>
      <trkpt lat="43.7787473201751708984375" lon="1.56694944016635417938232421875">
        <ele>137.600006103515625</ele>
        <time>2026-08-13T09:09:03.000Z</time>
        <extensions>
          <ns3:TrackPointExtension>
            <ns3:hr>83</ns3:hr>
            <ns3:cad>0</ns3:cad>
          </ns3:TrackPointExtension>
        </extensions>
      </trkpt>
      <trkpt lat="43.7787473201751708984375" lon="1.56694944016635417938232421875">
        <ele>137.600006103515625</ele>
        <time>2026-08-13T09:09:04.000Z</time>
        <extensions>
          <ns3:TrackPointExtension>
            <ns3:hr>81</ns3:hr>
            <ns3:cad>0</ns3:cad>
          </ns3:TrackPointExtension>
        </extensions>
      </trkpt>
      <trkpt lat="43.7787473201751708984375" lon="1.56694944016635417938232421875">
        <ele>137.600006103515625</ele>
        <time>2026-08-13T09:09:05.000Z</time>
        <extensions>
          <ns3:TrackPointExtension>
            <ns3:hr>80</ns3:hr>
            <ns3:cad>0</ns3:cad>
          </ns3:TrackPointExtension>
        </extensions>
      </trkpt>
      <trkpt lat="43.7787473201751708984375" lon="1.56694944016635417938232421875">
        <ele>137.600006103515625</ele>
        <time>2026-08-13T09:09:06.000Z</time>
        <extensions>
          <ns3:TrackPointExtension>
            <ns3:hr>80</ns3:hr>
            <ns3:cad>0</ns3:cad>
          </ns3:TrackPointExtension>
        </extensions>
      </trkpt>
      <trkpt lat="43.7787473201751708984375" lon="1.56694944016635417938232421875">
        <ele>137.600006103515625</ele>
        <time>2026-08-13T09:09:07.000Z</time>
        <extensions>
          <ns3:TrackPointExtension>
            <ns3:hr>80</ns3:hr>
            <ns3:cad>0</ns3:cad>
          </ns3:TrackPointExtension>
        </extensions>
      </trkpt>
      <trkpt lat="43.7787473201751708984375" lon="1.56694944016635417938232421875">
        <ele>137.600006103515625</ele>
        <time>2026-08-13T09:09:08.000Z</time>
        <extensions>
          <ns3:TrackPointExtension>
            <ns3:hr>81</ns3:hr>
            <ns3:cad>0</ns3:cad>
          </ns3:TrackPointExtension>
        </extensions>
      </trkpt>
      <trkpt lat="43.7787473201751708984375" lon="1.56694944016635417938232421875">
        <ele>137.600006103515625</ele>
        <time>2026-08-13T09:09:09.000Z</time>
        <extensions>
          <ns3:TrackPointExtension>
            <ns3:hr>81</ns3:hr>
            <ns3:cad>0</ns3:cad>
          </ns3:TrackPointExtension>
        </extensions>
      </trkpt>
      <trkpt lat="43.7787473201751708984375" lon="1.56694944016635417938232421875">
        <ele>137.600006103515625</ele>
        <time>2026-08-13T09:09:10.000Z</time>
        <extensions>
          <ns3:TrackPointExtension>
            <ns3:hr>82</ns3:hr>
            <ns3:cad>0</ns3:cad>
          </ns3:TrackPointExtension>
        </extensions>
      </trkpt>
      <trkpt lat="43.7787473201751708984375" lon="1.56694944016635417938232421875">
        <ele>137.600006103515625</ele>
        <time>2026-08-13T09:09:11.000Z</time>
        <extensions>
          <ns3:TrackPointExtension>
            <ns3:hr>83</ns3:hr>
            <ns3:cad>0</ns3:cad>
          </ns3:TrackPointExtension>
        </extensions>
      </trkpt>
      <trkpt lat="43.7787473201751708984375" lon="1.56694944016635417938232421875">
        <ele>137.600006103515625</ele>
        <time>2026-08-13T09:09:12.000Z</time>
        <extensions>
          <ns3:TrackPointExtension>
            <ns3:hr>83</ns3:hr>
            <ns3:cad>0</ns3:cad>
          </ns3:TrackPointExtension>
        </extensions>
      </trkpt>
      <trkpt lat="43.7787473201751708984375" lon="1.56694944016635417938232421875">
        <ele>137.600006103515625</ele>
        <time>2026-08-13T09:09:13.000Z</time>
        <extensions>
          <ns3:TrackPointExtension>
            <ns3:hr>83</ns3:hr>
            <ns3:cad>0</ns3:cad>
          </ns3:TrackPointExtension>
        </extensions>
      </trkpt>
      <trkpt lat="43.7787473201751708984375" lon="1.56694944016635417938232421875">
        <ele>137.399993896484375</ele>
        <time>2026-08-13T09:09:14.000Z</time>
        <extensions>
          <ns3:TrackPointExtension>
            <ns3:hr>84</ns3:hr>
            <ns3:cad>0</ns3:cad>
          </ns3:TrackPointExtension>
        </extensions>
      </trkpt>
      <trkpt lat="43.7787473201751708984375" lon="1.56694944016635417938232421875">
        <ele>137.399993896484375</ele>
        <time>2026-08-13T09:09:15.000Z</time>
        <extensions>
          <ns3:TrackPointExtension>
            <ns3:hr>83</ns3:hr>
            <ns3:cad>0</ns3:cad>
          </ns3:TrackPointExtension>
        </extensions>
      </trkpt>
      <trkpt lat="43.7787473201751708984375" lon="1.56694944016635417938232421875">
        <ele>137.1999969482421875</ele>
        <time>2026-08-13T09:09:16.000Z</time>
        <extensions>
          <ns3:TrackPointExtension>
            <ns3:hr>82</ns3:hr>
            <ns3:cad>0</ns3:cad>
          </ns3:TrackPointExtension>
        </extensions>
      </trkpt>
      <trkpt lat="43.7787473201751708984375" lon="1.56694944016635417938232421875">
        <ele>137.1999969482421875</ele>
        <time>2026-08-13T09:09:17.000Z</time>
        <extensions>
          <ns3:TrackPointExtension>
            <ns3:hr>82</ns3:hr>
            <ns3:cad>0</ns3:cad>
          </ns3:TrackPointExtension>
        </extensions>
      </trkpt>
      <trkpt lat="43.7787473201751708984375" lon="1.56694944016635417938232421875">
        <ele>137.399993896484375</ele>
        <time>2026-08-13T09:09:18.000Z</time>
        <extensions>
          <ns3:TrackPointExtension>
            <ns3:hr>83</ns3:hr>
            <ns3:cad>0</ns3:cad>
          </ns3:TrackPointExtension>
        </extensions>
      </trkpt>
      <trkpt lat="43.7787473201751708984375" lon="1.56694944016635417938232421875">
        <ele>137.399993896484375</ele>
        <time>2026-08-13T09:09:19.000Z</time>
        <extensions>
          <ns3:TrackPointExtension>
            <ns3:hr>83</ns3:hr>
            <ns3:cad>0</ns3:cad>
          </ns3:TrackPointExtension>
        </extensions>
      </trkpt>
      <trkpt lat="43.7787473201751708984375" lon="1.56694944016635417938232421875">
        <ele>137.399993896484375</ele>
        <time>2026-08-13T09:09:20.000Z</time>
        <extensions>
          <ns3:TrackPointExtension>
            <ns3:hr>83</ns3:hr>
            <ns3:cad>0</ns3:cad>
          </ns3:TrackPointExtension>
        </extensions>
      </trkpt>
      <trkpt lat="43.7787473201751708984375" lon="1.56694944016635417938232421875">
        <ele>137.399993896484375</ele>
        <time>2026-08-13T09:09:21.000Z</time>
        <extensions>
          <ns3:TrackPointExtension>
            <ns3:hr>83</ns3:hr>
            <ns3:cad>0</ns3:cad>
          </ns3:TrackPointExtension>
        </extensions>
      </trkpt>
      <trkpt lat="43.7787473201751708984375" lon="1.56694944016635417938232421875">
        <ele>137.399993896484375</ele>
        <time>2026-08-13T09:09:22.000Z</time>
        <extensions>
          <ns3:TrackPointExtension>
            <ns3:hr>83</ns3:hr>
            <ns3:cad>0</ns3:cad>
          </ns3:TrackPointExtension>
        </extensions>
      </trkpt>
      <trkpt lat="43.7787473201751708984375" lon="1.56694944016635417938232421875">
        <ele>137.399993896484375</ele>
        <time>2026-08-13T09:09:23.000Z</time>
        <extensions>
          <ns3:TrackPointExtension>
            <ns3:hr>83</ns3:hr>
            <ns3:cad>0</ns3:cad>
          </ns3:TrackPointExtension>
        </extensions>
      </trkpt>
      <trkpt lat="43.7787473201751708984375" lon="1.56694944016635417938232421875">
        <ele>137.399993896484375</ele>
        <time>2026-08-13T09:09:24.000Z</time>
        <extensions>
          <ns3:TrackPointExtension>
            <ns3:hr>83</ns3:hr>
            <ns3:cad>0</ns3:cad>
          </ns3:TrackPointExtension>
        </extensions>
      </trkpt>
      <trkpt lat="43.7787473201751708984375" lon="1.56694944016635417938232421875">
        <ele>137.600006103515625</ele>
        <time>2026-08-13T09:09:25.000Z</time>
        <extensions>
          <ns3:TrackPointExtension>
            <ns3:hr>83</ns3:hr>
            <ns3:cad>0</ns3:cad>
          </ns3:TrackPointExtension>
        </extensions>
      </trkpt>
      <trkpt lat="43.7787473201751708984375" lon="1.56694944016635417938232421875">
        <ele>137.600006103515625</ele>
        <time>2026-08-13T09:09:26.000Z</time>
        <extensions>
          <ns3:TrackPointExtension>
            <ns3:hr>82</ns3:hr>
            <ns3:cad>0</ns3:cad>
          </ns3:TrackPointExtension>
        </extensions>
      </trkpt>
      <trkpt lat="43.7787473201751708984375" lon="1.56694944016635417938232421875">
        <ele>137.600006103515625</ele>
        <time>2026-08-13T09:09:27.000Z</time>
        <extensions>
          <ns3:TrackPointExtension>
            <ns3:hr>80</ns3:hr>
            <ns3:cad>0</ns3:cad>
          </ns3:TrackPointExtension>
        </extensions>
      </trkpt>
      <trkpt lat="43.7787473201751708984375" lon="1.56694944016635417938232421875">
        <ele>137.600006103515625</ele>
        <time>2026-08-13T09:09:28.000Z</time>
        <extensions>
          <ns3:TrackPointExtension>
            <ns3:hr>80</ns3:hr>
            <ns3:cad>0</ns3:cad>
          </ns3:TrackPointExtension>
        </extensions>
      </trkpt>
      <trkpt lat="43.7787473201751708984375" lon="1.56694944016635417938232421875">
        <ele>137.399993896484375</ele>
        <time>2026-08-13T09:09:29.000Z</time>
        <extensions>
          <ns3:TrackPointExtension>
            <ns3:hr>80</ns3:hr>
            <ns3:cad>0</ns3:cad>
          </ns3:TrackPointExtension>
        </extensions>
      </trkpt>
      <trkpt lat="43.7787473201751708984375" lon="1.56694944016635417938232421875">
        <ele>137.399993896484375</ele>
        <time>2026-08-13T09:09:30.000Z</time>
        <extensions>
          <ns3:TrackPointExtension>
            <ns3:hr>79</ns3:hr>
            <ns3:cad>0</ns3:cad>
          </ns3:TrackPointExtension>
        </extensions>
      </trkpt>
      <trkpt lat="43.7787473201751708984375" lon="1.56694944016635417938232421875">
        <ele>137.399993896484375</ele>
        <time>2026-08-13T09:09:31.000Z</time>
        <extensions>
          <ns3:TrackPointExtension>
            <ns3:hr>79</ns3:hr>
            <ns3:cad>0</ns3:cad>
          </ns3:TrackPointExtension>
        </extensions>
      </trkpt>
      <trkpt lat="43.7787473201751708984375" lon="1.56694944016635417938232421875">
        <ele>137.399993896484375</ele>
        <time>2026-08-13T09:09:32.000Z</time>
        <extensions>
          <ns3:TrackPointExtension>
            <ns3:hr>79</ns3:hr>
            <ns3:cad>0</ns3:cad>
          </ns3:TrackPointExtension>
        </extensions>
      </trkpt>
      <trkpt lat="43.7787473201751708984375" lon="1.56694944016635417938232421875">
        <ele>137.399993896484375</ele>
        <time>2026-08-13T09:09:33.000Z</time>
        <extensions>
          <ns3:TrackPointExtension>
            <ns3:hr>78</ns3:hr>
            <ns3:cad>0</ns3:cad>
          </ns3:TrackPointExtension>
        </extensions>
      </trkpt>
      <trkpt lat="43.7787473201751708984375" lon="1.56694944016635417938232421875">
        <ele>137.399993896484375</ele>
        <time>2026-08-13T09:09:34.000Z</time>
        <extensions>
          <ns3:TrackPointExtension>
            <ns3:hr>78</ns3:hr>
            <ns3:cad>0</ns3:cad>
          </ns3:TrackPointExtension>
        </extensions>
      </trkpt>
      <trkpt lat="43.7787473201751708984375" lon="1.56694944016635417938232421875">
        <ele>137.399993896484375</ele>
        <time>2026-08-13T09:09:35.000Z</time>
        <extensions>
          <ns3:TrackPointExtension>
            <ns3:hr>78</ns3:hr>
            <ns3:cad>0</ns3:cad>
          </ns3:TrackPointExtension>
        </extensions>
      </trkpt>
      <trkpt lat="43.7787431292235851287841796875" lon="1.5669466741383075714111328125">
        <ele>137.399993896484375</ele>
        <time>2026-08-13T09:09:36.000Z</time>
        <extensions>
          <ns3:TrackPointExtension>
            <ns3:hr>78</ns3:hr>
            <ns3:cad>0</ns3:cad>
          </ns3:TrackPointExtension>
        </extensions>
      </trkpt>
      <trkpt lat="43.77874488942325115203857421875" lon="1.56694726087152957916259765625">
        <ele>137.399993896484375</ele>
        <time>2026-08-13T09:09:37.000Z</time>
        <extensions>
          <ns3:TrackPointExtension>
            <ns3:hr>78</ns3:hr>
            <ns3:cad>0</ns3:cad>
          </ns3:TrackPointExtension>
        </extensions>
      </trkpt>
      <trkpt lat="43.7787458114326000213623046875" lon="1.5669463388621807098388671875">
        <ele>137.399993896484375</ele>
        <time>2026-08-13T09:09:38.000Z</time>
        <extensions>
          <ns3:TrackPointExtension>
            <ns3:hr>79</ns3:hr>
            <ns3:cad>0</ns3:cad>
          </ns3:TrackPointExtension>
        </extensions>
      </trkpt>
      <trkpt lat="43.778744637966156005859375" lon="1.56694625504314899444580078125">
        <ele>137.399993896484375</ele>
        <time>2026-08-13T09:09:39.000Z</time>
        <extensions>
          <ns3:TrackPointExtension>
            <ns3:hr>80</ns3:hr>
            <ns3:cad>0</ns3:cad>
          </ns3:TrackPointExtension>
        </extensions>
      </trkpt>
      <trkpt lat="43.77874120138585567474365234375" lon="1.5669486857950687408447265625">
        <ele>137.600006103515625</ele>
        <time>2026-08-13T09:09:40.000Z</time>
        <extensions>
          <ns3:TrackPointExtension>
            <ns3:hr>81</ns3:hr>
            <ns3:cad>0</ns3:cad>
          </ns3:TrackPointExtension>
        </extensions>
      </trkpt>
      <trkpt lat="43.77874103374779224395751953125" lon="1.56694893725216388702392578125">
        <ele>137.600006103515625</ele>
        <time>2026-08-13T09:09:41.000Z</time>
        <extensions>
          <ns3:TrackPointExtension>
            <ns3:hr>82</ns3:hr>
            <ns3:cad>0</ns3:cad>
          </ns3:TrackPointExtension>
        </extensions>
      </trkpt>
      <trkpt lat="43.77874019555747509002685546875" lon="1.56695011071860790252685546875">
        <ele>137.600006103515625</ele>
        <time>2026-08-13T09:09:42.000Z</time>
        <extensions>
          <ns3:TrackPointExtension>
            <ns3:hr>84</ns3:hr>
            <ns3:cad>0</ns3:cad>
          </ns3:TrackPointExtension>
        </extensions>
      </trkpt>
      <trkpt lat="43.77874271012842655181884765625" lon="1.56694524921476840972900390625">
        <ele>137.600006103515625</ele>
        <time>2026-08-13T09:09:43.000Z</time>
        <extensions>
          <ns3:TrackPointExtension>
            <ns3:hr>84</ns3:hr>
            <ns3:cad>0</ns3:cad>
          </ns3:TrackPointExtension>
        </extensions>
      </trkpt>
      <trkpt lat="43.77875612117350101470947265625" lon="1.56694977544248104095458984375">
        <ele>137.600006103515625</ele>
        <time>2026-08-13T09:09:44.000Z</time>
        <extensions>
          <ns3:TrackPointExtension>
            <ns3:hr>85</ns3:hr>
            <ns3:cad>0</ns3:cad>
          </ns3:TrackPointExtension>
        </extensions>
      </trkpt>
      <trkpt lat="43.7787473201751708984375" lon="1.56694944016635417938232421875">
        <ele>137.600006103515625</ele>
        <time>2026-08-13T09:09:45.000Z</time>
        <extensions>
          <ns3:TrackPointExtension>
            <ns3:hr>85</ns3:hr>
            <ns3:cad>0</ns3:cad>
          </ns3:TrackPointExtension>
        </extensions>
      </trkpt>
      <trkpt lat="43.7787473201751708984375" lon="1.56694944016635417938232421875">
        <ele>137.600006103515625</ele>
        <time>2026-08-13T09:09:46.000Z</time>
        <extensions>
          <ns3:TrackPointExtension>
            <ns3:hr>85</ns3:hr>
            <ns3:cad>0</ns3:cad>
          </ns3:TrackPointExtension>
        </extensions>
      </trkpt>
      <trkpt lat="43.7787473201751708984375" lon="1.56694944016635417938232421875">
        <ele>137.600006103515625</ele>
        <time>2026-08-13T09:09:47.000Z</time>
        <extensions>
          <ns3:TrackPointExtension>
            <ns3:hr>85</ns3:hr>
            <ns3:cad>0</ns3:cad>
          </ns3:TrackPointExtension>
        </extensions>
      </trkpt>
      <trkpt lat="43.7787473201751708984375" lon="1.56694944016635417938232421875">
        <ele>137.600006103515625</ele>
        <time>2026-08-13T09:09:48.000Z</time>
        <extensions>
          <ns3:TrackPointExtension>
            <ns3:hr>86</ns3:hr>
            <ns3:cad>0</ns3:cad>
          </ns3:TrackPointExtension>
        </extensions>
      </trkpt>
      <trkpt lat="43.7787473201751708984375" lon="1.56694944016635417938232421875">
        <ele>137.600006103515625</ele>
        <time>2026-08-13T09:09:49.000Z</time>
        <extensions>
          <ns3:TrackPointExtension>
            <ns3:hr>86</ns3:hr>
            <ns3:cad>0</ns3:cad>
          </ns3:TrackPointExtension>
        </extensions>
      </trkpt>
      <trkpt lat="43.7787473201751708984375" lon="1.56694944016635417938232421875">
        <ele>137.399993896484375</ele>
        <time>2026-08-13T09:09:50.000Z</time>
        <extensions>
          <ns3:TrackPointExtension>
            <ns3:hr>84</ns3:hr>
            <ns3:cad>0</ns3:cad>
          </ns3:TrackPointExtension>
        </extensions>
      </trkpt>
      <trkpt lat="43.7787473201751708984375" lon="1.56694944016635417938232421875">
        <ele>137.399993896484375</ele>
        <time>2026-08-13T09:09:51.000Z</time>
        <extensions>
          <ns3:TrackPointExtension>
            <ns3:hr>82</ns3:hr>
            <ns3:cad>0</ns3:cad>
          </ns3:TrackPointExtension>
        </extensions>
      </trkpt>
      <trkpt lat="43.7787473201751708984375" lon="1.56694944016635417938232421875">
        <ele>137.399993896484375</ele>
        <time>2026-08-13T09:09:52.000Z</time>
        <extensions>
          <ns3:TrackPointExtension>
            <ns3:hr>81</ns3:hr>
            <ns3:cad>0</ns3:cad>
          </ns3:TrackPointExtension>
        </extensions>
      </trkpt>
      <trkpt lat="43.7787473201751708984375" lon="1.56694944016635417938232421875">
        <ele>137.1999969482421875</ele>
        <time>2026-08-13T09:09:53.000Z</time>
        <extensions>
          <ns3:TrackPointExtension>
            <ns3:hr>79</ns3:hr>
            <ns3:cad>0</ns3:cad>
          </ns3:TrackPointExtension>
        </extensions>
      </trkpt>
      <trkpt lat="43.7787473201751708984375" lon="1.56694944016635417938232421875">
        <ele>137.1999969482421875</ele>
        <time>2026-08-13T09:09:54.000Z</time>
        <extensions>
          <ns3:TrackPointExtension>
            <ns3:hr>79</ns3:hr>
            <ns3:cad>0</ns3:cad>
          </ns3:TrackPointExtension>
        </extensions>
      </trkpt>
      <trkpt lat="43.7787473201751708984375" lon="1.56694944016635417938232421875">
        <ele>137.1999969482421875</ele>
        <time>2026-08-13T09:09:55.000Z</time>
        <extensions>
          <ns3:TrackPointExtension>
            <ns3:hr>79</ns3:hr>
            <ns3:cad>0</ns3:cad>
          </ns3:TrackPointExtension>
        </extensions>
      </trkpt>
      <trkpt lat="43.7787473201751708984375" lon="1.56694944016635417938232421875">
        <ele>137.1999969482421875</ele>
        <time>2026-08-13T09:09:56.000Z</time>
        <extensions>
          <ns3:TrackPointExtension>
            <ns3:hr>78</ns3:hr>
            <ns3:cad>0</ns3:cad>
          </ns3:TrackPointExtension>
        </extensions>
      </trkpt>
      <trkpt lat="43.7787473201751708984375" lon="1.56694944016635417938232421875">
        <ele>137.1999969482421875</ele>
        <time>2026-08-13T09:09:57.000Z</time>
        <extensions>
          <ns3:TrackPointExtension>
            <ns3:hr>79</ns3:hr>
            <ns3:cad>0</ns3:cad>
          </ns3:TrackPointExtension>
        </extensions>
      </trkpt>
      <trkpt lat="43.7787473201751708984375" lon="1.56694944016635417938232421875">
        <ele>137.1999969482421875</ele>
        <time>2026-08-13T09:09:58.000Z</time>
        <extensions>
          <ns3:TrackPointExtension>
            <ns3:hr>79</ns3:hr>
            <ns3:cad>0</ns3:cad>
          </ns3:TrackPointExtension>
        </extensions>
      </trkpt>
      <trkpt lat="43.7787473201751708984375" lon="1.56694944016635417938232421875">
        <ele>137.1999969482421875</ele>
        <time>2026-08-13T09:09:59.000Z</time>
        <extensions>
          <ns3:TrackPointExtension>
            <ns3:hr>79</ns3:hr>
            <ns3:cad>0</ns3:cad>
          </ns3:TrackPointExtension>
        </extensions>
      </trkpt>
      <trkpt lat="43.7787473201751708984375" lon="1.56694944016635417938232421875">
        <ele>137.1999969482421875</ele>
        <time>2026-08-13T09:10:00.000Z</time>
        <extensions>
          <ns3:TrackPointExtension>
            <ns3:hr>80</ns3:hr>
            <ns3:cad>0</ns3:cad>
          </ns3:TrackPointExtension>
        </extensions>
      </trkpt>
      <trkpt lat="43.7787473201751708984375" lon="1.56694944016635417938232421875">
        <ele>137.1999969482421875</ele>
        <time>2026-08-13T09:10:01.000Z</time>
        <extensions>
          <ns3:TrackPointExtension>
            <ns3:hr>80</ns3:hr>
            <ns3:cad>0</ns3:cad>
          </ns3:TrackPointExtension>
        </extensions>
      </trkpt>
      <trkpt lat="43.7787473201751708984375" lon="1.56694944016635417938232421875">
        <ele>137.1999969482421875</ele>
        <time>2026-08-13T09:10:02.000Z</time>
        <extensions>
          <ns3:TrackPointExtension>
            <ns3:hr>79</ns3:hr>
            <ns3:cad>0</ns3:cad>
          </ns3:TrackPointExtension>
        </extensions>
      </trkpt>
      <trkpt lat="43.7787473201751708984375" lon="1.56694944016635417938232421875">
        <ele>137.1999969482421875</ele>
        <time>2026-08-13T09:10:03.000Z</time>
        <extensions>
          <ns3:TrackPointExtension>
            <ns3:hr>79</ns3:hr>
            <ns3:cad>0</ns3:cad>
          </ns3:TrackPointExtension>
        </extensions>
      </trkpt>
      <trkpt lat="43.7787473201751708984375" lon="1.56694944016635417938232421875">
        <ele>137.1999969482421875</ele>
        <time>2026-08-13T09:10:04.000Z</time>
        <extensions>
          <ns3:TrackPointExtension>
            <ns3:hr>77</ns3:hr>
            <ns3:cad>0</ns3:cad>
          </ns3:TrackPointExtension>
        </extensions>
      </trkpt>
      <trkpt lat="43.7787473201751708984375" lon="1.56694944016635417938232421875">
        <ele>137.1999969482421875</ele>
        <time>2026-08-13T09:10:05.000Z</time>
        <extensions>
          <ns3:TrackPointExtension>
            <ns3:hr>74</ns3:hr>
            <ns3:cad>0</ns3:cad>
          </ns3:TrackPointExtension>
        </extensions>
      </trkpt>
      <trkpt lat="43.7787473201751708984375" lon="1.56694944016635417938232421875">
        <ele>137.1999969482421875</ele>
        <time>2026-08-13T09:10:06.000Z</time>
        <extensions>
          <ns3:TrackPointExtension>
            <ns3:hr>73</ns3:hr>
            <ns3:cad>0</ns3:cad>
          </ns3:TrackPointExtension>
        </extensions>
      </trkpt>
      <trkpt lat="43.7787473201751708984375" lon="1.56694944016635417938232421875">
        <ele>137.1999969482421875</ele>
        <time>2026-08-13T09:10:07.000Z</time>
        <extensions>
          <ns3:TrackPointExtension>
            <ns3:hr>73</ns3:hr>
            <ns3:cad>0</ns3:cad>
          </ns3:TrackPointExtension>
        </extensions>
      </trkpt>
      <trkpt lat="43.7787473201751708984375" lon="1.56694944016635417938232421875">
        <ele>137.1999969482421875</ele>
        <time>2026-08-13T09:10:08.000Z</time>
        <extensions>
          <ns3:TrackPointExtension>
            <ns3:hr>74</ns3:hr>
            <ns3:cad>0</ns3:cad>
          </ns3:TrackPointExtension>
        </extensions>
      </trkpt>
      <trkpt lat="43.7787473201751708984375" lon="1.56694944016635417938232421875">
        <ele>137.1999969482421875</ele>
        <time>2026-08-13T09:10:09.000Z</time>
        <extensions>
          <ns3:TrackPointExtension>
            <ns3:hr>74</ns3:hr>
            <ns3:cad>0</ns3:cad>
          </ns3:TrackPointExtension>
        </extensions>
      </trkpt>
      <trkpt lat="43.7787473201751708984375" lon="1.56694944016635417938232421875">
        <ele>137</ele>
        <time>2026-08-13T09:10:10.000Z</time>
        <extensions>
          <ns3:TrackPointExtension>
            <ns3:hr>75</ns3:hr>
            <ns3:cad>0</ns3:cad>
          </ns3:TrackPointExtension>
        </extensions>
      </trkpt>
      <trkpt lat="43.7787473201751708984375" lon="1.56694944016635417938232421875">
        <ele>137</ele>
        <time>2026-08-13T09:10:11.000Z</time>
        <extensions>
          <ns3:TrackPointExtension>
            <ns3:hr>76</ns3:hr>
            <ns3:cad>0</ns3:cad>
          </ns3:TrackPointExtension>
        </extensions>
      </trkpt>
      <trkpt lat="43.7787473201751708984375" lon="1.56694944016635417938232421875">
        <ele>137.1999969482421875</ele>
        <time>2026-08-13T09:10:12.000Z</time>
        <extensions>
          <ns3:TrackPointExtension>
            <ns3:hr>76</ns3:hr>
            <ns3:cad>0</ns3:cad>
          </ns3:TrackPointExtension>
        </extensions>
      </trkpt>
      <trkpt lat="43.7787473201751708984375" lon="1.56694944016635417938232421875">
        <ele>137.1999969482421875</ele>
        <time>2026-08-13T09:10:13.000Z</time>
        <extensions>
          <ns3:TrackPointExtension>
            <ns3:hr>77</ns3:hr>
            <ns3:cad>0</ns3:cad>
          </ns3:TrackPointExtension>
        </extensions>
      </trkpt>
      <trkpt lat="43.7787473201751708984375" lon="1.56694944016635417938232421875">
        <ele>137.1999969482421875</ele>
        <time>2026-08-13T09:10:14.000Z</time>
        <extensions>
          <ns3:TrackPointExtension>
            <ns3:hr>77</ns3:hr>
            <ns3:cad>0</ns3:cad>
          </ns3:TrackPointExtension>
        </extensions>
      </trkpt>
      <trkpt lat="43.7787473201751708984375" lon="1.56694944016635417938232421875">
        <ele>137.399993896484375</ele>
        <time>2026-08-13T09:10:15.000Z</time>
        <extensions>
          <ns3:TrackPointExtension>
            <ns3:hr>77</ns3:hr>
            <ns3:cad>0</ns3:cad>
          </ns3:TrackPointExtension>
        </extensions>
      </trkpt>
      <trkpt lat="43.7787473201751708984375" lon="1.56694944016635417938232421875">
        <ele>137.399993896484375</ele>
        <time>2026-08-13T09:10:16.000Z</time>
        <extensions>
          <ns3:TrackPointExtension>
            <ns3:hr>76</ns3:hr>
            <ns3:cad>0</ns3:cad>
          </ns3:TrackPointExtension>
        </extensions>
      </trkpt>
      <trkpt lat="43.7787473201751708984375" lon="1.56694944016635417938232421875">
        <ele>137.399993896484375</ele>
        <time>2026-08-13T09:10:17.000Z</time>
        <extensions>
          <ns3:TrackPointExtension>
            <ns3:hr>78</ns3:hr>
            <ns3:cad>0</ns3:cad>
          </ns3:TrackPointExtension>
        </extensions>
      </trkpt>
      <trkpt lat="43.7787473201751708984375" lon="1.56694944016635417938232421875">
        <ele>137.1999969482421875</ele>
        <time>2026-08-13T09:10:18.000Z</time>
        <extensions>
          <ns3:TrackPointExtension>
            <ns3:hr>79</ns3:hr>
            <ns3:cad>0</ns3:cad>
          </ns3:TrackPointExtension>
        </extensions>
      </trkpt>
      <trkpt lat="43.7787473201751708984375" lon="1.56694944016635417938232421875">
        <ele>137.1999969482421875</ele>
        <time>2026-08-13T09:10:19.000Z</time>
        <extensions>
          <ns3:TrackPointExtension>
            <ns3:hr>79</ns3:hr>
            <ns3:cad>0</ns3:cad>
          </ns3:TrackPointExtension>
        </extensions>
      </trkpt>
      <trkpt lat="43.7787473201751708984375" lon="1.56694944016635417938232421875">
        <ele>137.1999969482421875</ele>
        <time>2026-08-13T09:10:20.000Z</time>
        <extensions>
          <ns3:TrackPointExtension>
            <ns3:hr>80</ns3:hr>
            <ns3:cad>0</ns3:cad>
          </ns3:TrackPointExtension>
        </extensions>
      </trkpt>
      <trkpt lat="43.77876081503927707672119140625" lon="1.56694843433797359466552734375">
        <ele>137.1999969482421875</ele>
        <time>2026-08-13T09:10:21.000Z</time>
        <extensions>
          <ns3:TrackPointExtension>
            <ns3:hr>80</ns3:hr>
            <ns3:cad>0</ns3:cad>
          </ns3:TrackPointExtension>
        </extensions>
      </trkpt>
      <trkpt lat="43.77876098267734050750732421875" lon="1.5669483505189418792724609375">
        <ele>137.1999969482421875</ele>
        <time>2026-08-13T09:10:22.000Z</time>
        <extensions>
          <ns3:TrackPointExtension>
            <ns3:hr>81</ns3:hr>
            <ns3:cad>0</ns3:cad>
          </ns3:TrackPointExtension>
        </extensions>
      </trkpt>
      <trkpt lat="43.77876098267734050750732421875" lon="1.5669483505189418792724609375">
        <ele>137.1999969482421875</ele>
        <time>2026-08-13T09:10:23.000Z</time>
        <extensions>
          <ns3:TrackPointExtension>
            <ns3:hr>81</ns3:hr>
            <ns3:cad>0</ns3:cad>
          </ns3:TrackPointExtension>
        </extensions>
      </trkpt>
      <trkpt lat="43.77876098267734050750732421875" lon="1.5669483505189418792724609375">
        <ele>137.399993896484375</ele>
        <time>2026-08-13T09:10:24.000Z</time>
        <extensions>
          <ns3:TrackPointExtension>
            <ns3:hr>81</ns3:hr>
            <ns3:cad>0</ns3:cad>
          </ns3:TrackPointExtension>
        </extensions>
      </trkpt>
      <trkpt lat="43.77876098267734050750732421875" lon="1.5669483505189418792724609375">
        <ele>137.399993896484375</ele>
        <time>2026-08-13T09:10:25.000Z</time>
        <extensions>
          <ns3:TrackPointExtension>
            <ns3:hr>81</ns3:hr>
            <ns3:cad>0</ns3:cad>
          </ns3:TrackPointExtension>
        </extensions>
      </trkpt>
      <trkpt lat="43.77876182086765766143798828125" lon="1.56694793142378330230712890625">
        <ele>137.399993896484375</ele>
        <time>2026-08-13T09:10:26.000Z</time>
        <extensions>
          <ns3:TrackPointExtension>
            <ns3:hr>80</ns3:hr>
            <ns3:cad>0</ns3:cad>
          </ns3:TrackPointExtension>
        </extensions>
      </trkpt>
      <trkpt lat="43.77876282669603824615478515625" lon="1.5669500268995761871337890625">
        <ele>137.1999969482421875</ele>
        <time>2026-08-13T09:10:27.000Z</time>
        <extensions>
          <ns3:TrackPointExtension>
            <ns3:hr>81</ns3:hr>
            <ns3:cad>0</ns3:cad>
          </ns3:TrackPointExtension>
        </extensions>
      </trkpt>
      <trkpt lat="43.778764419257640838623046875" lon="1.5669503621757030487060546875">
        <ele>137.1999969482421875</ele>
        <time>2026-08-13T09:10:28.000Z</time>
        <extensions>
          <ns3:TrackPointExtension>
            <ns3:hr>81</ns3:hr>
            <ns3:cad>0</ns3:cad>
          </ns3:TrackPointExtension>
        </extensions>
      </trkpt>
      <trkpt lat="43.77876852639019489288330078125" lon="1.56695564277470111846923828125">
        <ele>137.1999969482421875</ele>
        <time>2026-08-13T09:10:29.000Z</time>
        <extensions>
          <ns3:TrackPointExtension>
            <ns3:hr>82</ns3:hr>
            <ns3:cad>0</ns3:cad>
          </ns3:TrackPointExtension>
        </extensions>
      </trkpt>
      <trkpt lat="43.77876098267734050750732421875" lon="1.5669483505189418792724609375">
        <ele>137.1999969482421875</ele>
        <time>2026-08-13T09:10:30.000Z</time>
        <extensions>
          <ns3:TrackPointExtension>
            <ns3:hr>82</ns3:hr>
            <ns3:cad>0</ns3:cad>
          </ns3:TrackPointExtension>
        </extensions>
      </trkpt>
      <trkpt lat="43.77876098267734050750732421875" lon="1.5669483505189418792724609375">
        <ele>137.1999969482421875</ele>
        <time>2026-08-13T09:10:31.000Z</time>
        <extensions>
          <ns3:TrackPointExtension>
            <ns3:hr>82</ns3:hr>
            <ns3:cad>0</ns3:cad>
          </ns3:TrackPointExtension>
        </extensions>
      </trkpt>
      <trkpt lat="43.77876098267734050750732421875" lon="1.5669483505189418792724609375">
        <ele>137.1999969482421875</ele>
        <time>2026-08-13T09:10:32.000Z</time>
        <extensions>
          <ns3:TrackPointExtension>
            <ns3:hr>83</ns3:hr>
            <ns3:cad>0</ns3:cad>
          </ns3:TrackPointExtension>
        </extensions>
      </trkpt>
      <trkpt lat="43.77876098267734050750732421875" lon="1.5669483505189418792724609375">
        <ele>137.399993896484375</ele>
        <time>2026-08-13T09:10:33.000Z</time>
        <extensions>
          <ns3:TrackPointExtension>
            <ns3:hr>83</ns3:hr>
            <ns3:cad>0</ns3:cad>
          </ns3:TrackPointExtension>
        </extensions>
      </trkpt>
      <trkpt lat="43.77876098267734050750732421875" lon="1.5669483505189418792724609375">
        <ele>137.399993896484375</ele>
        <time>2026-08-13T09:10:34.000Z</time>
        <extensions>
          <ns3:TrackPointExtension>
            <ns3:hr>84</ns3:hr>
            <ns3:cad>0</ns3:cad>
          </ns3:TrackPointExtension>
        </extensions>
      </trkpt>
      <trkpt lat="43.77876098267734050750732421875" lon="1.5669483505189418792724609375">
        <ele>137.399993896484375</ele>
        <time>2026-08-13T09:10:35.000Z</time>
        <extensions>
          <ns3:TrackPointExtension>
            <ns3:hr>85</ns3:hr>
            <ns3:cad>0</ns3:cad>
          </ns3:TrackPointExtension>
        </extensions>
      </trkpt>
      <trkpt lat="43.77876098267734050750732421875" lon="1.5669483505189418792724609375">
        <ele>137.399993896484375</ele>
        <time>2026-08-13T09:10:36.000Z</time>
        <extensions>
          <ns3:TrackPointExtension>
            <ns3:hr>84</ns3:hr>
            <ns3:cad>0</ns3:cad>
          </ns3:TrackPointExtension>
        </extensions>
      </trkpt>
      <trkpt lat="43.77876098267734050750732421875" lon="1.5669483505189418792724609375">
        <ele>137.399993896484375</ele>
        <time>2026-08-13T09:10:37.000Z</time>
        <extensions>
          <ns3:TrackPointExtension>
            <ns3:hr>83</ns3:hr>
            <ns3:cad>0</ns3:cad>
          </ns3:TrackPointExtension>
        </extensions>
      </trkpt>
      <trkpt lat="43.77876098267734050750732421875" lon="1.5669483505189418792724609375">
        <ele>137.399993896484375</ele>
        <time>2026-08-13T09:10:38.000Z</time>
        <extensions>
          <ns3:TrackPointExtension>
            <ns3:hr>82</ns3:hr>
            <ns3:cad>0</ns3:cad>
          </ns3:TrackPointExtension>
        </extensions>
      </trkpt>
      <trkpt lat="43.77876098267734050750732421875" lon="1.5669483505189418792724609375">
        <ele>137.399993896484375</ele>
        <time>2026-08-13T09:10:39.000Z</time>
        <extensions>
          <ns3:TrackPointExtension>
            <ns3:hr>80</ns3:hr>
            <ns3:cad>0</ns3:cad>
          </ns3:TrackPointExtension>
        </extensions>
      </trkpt>
      <trkpt lat="43.77876098267734050750732421875" lon="1.5669483505189418792724609375">
        <ele>137.1999969482421875</ele>
        <time>2026-08-13T09:10:40.000Z</time>
        <extensions>
          <ns3:TrackPointExtension>
            <ns3:hr>79</ns3:hr>
            <ns3:cad>0</ns3:cad>
          </ns3:TrackPointExtension>
        </extensions>
      </trkpt>
      <trkpt lat="43.77876098267734050750732421875" lon="1.5669483505189418792724609375">
        <ele>137.1999969482421875</ele>
        <time>2026-08-13T09:10:41.000Z</time>
        <extensions>
          <ns3:TrackPointExtension>
            <ns3:hr>79</ns3:hr>
            <ns3:cad>0</ns3:cad>
          </ns3:TrackPointExtension>
        </extensions>
      </trkpt>
      <trkpt lat="43.77876098267734050750732421875" lon="1.5669483505189418792724609375">
        <ele>137.399993896484375</ele>
        <time>2026-08-13T09:10:42.000Z</time>
        <extensions>
          <ns3:TrackPointExtension>
            <ns3:hr>78</ns3:hr>
            <ns3:cad>0</ns3:cad>
          </ns3:TrackPointExtension>
        </extensions>
      </trkpt>
      <trkpt lat="43.77876098267734050750732421875" lon="1.5669483505189418792724609375">
        <ele>137.1999969482421875</ele>
        <time>2026-08-13T09:10:43.000Z</time>
        <extensions>
          <ns3:TrackPointExtension>
            <ns3:hr>78</ns3:hr>
            <ns3:cad>0</ns3:cad>
          </ns3:TrackPointExtension>
        </extensions>
      </trkpt>
      <trkpt lat="43.77876098267734050750732421875" lon="1.5669483505189418792724609375">
        <ele>137.1999969482421875</ele>
        <time>2026-08-13T09:10:44.000Z</time>
        <extensions>
          <ns3:TrackPointExtension>
            <ns3:hr>78</ns3:hr>
            <ns3:cad>0</ns3:cad>
          </ns3:TrackPointExtension>
        </extensions>
      </trkpt>
      <trkpt lat="43.77876098267734050750732421875" lon="1.5669483505189418792724609375">
        <ele>137.1999969482421875</ele>
        <time>2026-08-13T09:10:45.000Z</time>
        <extensions>
          <ns3:TrackPointExtension>
            <ns3:hr>77</ns3:hr>
            <ns3:cad>0</ns3:cad>
          </ns3:TrackPointExtension>
        </extensions>
      </trkpt>
      <trkpt lat="43.77876098267734050750732421875" lon="1.5669483505189418792724609375">
        <ele>137.1999969482421875</ele>
        <time>2026-08-13T09:10:46.000Z</time>
        <extensions>
          <ns3:TrackPointExtension>
            <ns3:hr>77</ns3:hr>
            <ns3:cad>0</ns3:cad>
          </ns3:TrackPointExtension>
        </extensions>
      </trkpt>
      <trkpt lat="43.77876265905797481536865234375" lon="1.56695656478404998779296875">
        <ele>137.1999969482421875</ele>
        <time>2026-08-13T09:10:47.000Z</time>
        <extensions>
          <ns3:TrackPointExtension>
            <ns3:hr>76</ns3:hr>
            <ns3:cad>0</ns3:cad>
          </ns3:TrackPointExtension>
        </extensions>
      </trkpt>
      <trkpt lat="43.77875612117350101470947265625" lon="1.56695329584181308746337890625">
        <ele>137.1999969482421875</ele>
        <time>2026-08-13T09:10:48.000Z</time>
        <extensions>
          <ns3:TrackPointExtension>
            <ns3:hr>76</ns3:hr>
            <ns3:cad>0</ns3:cad>
          </ns3:TrackPointExtension>
        </extensions>
      </trkpt>
      <trkpt lat="43.77875201404094696044921875" lon="1.5669513680040836334228515625">
        <ele>137.1999969482421875</ele>
        <time>2026-08-13T09:10:49.000Z</time>
        <extensions>
          <ns3:TrackPointExtension>
            <ns3:hr>76</ns3:hr>
            <ns3:cad>0</ns3:cad>
          </ns3:TrackPointExtension>
        </extensions>
      </trkpt>
      <trkpt lat="43.778748996555805206298828125" lon="1.56694977544248104095458984375">
        <ele>137.1999969482421875</ele>
        <time>2026-08-13T09:10:50.000Z</time>
        <extensions>
          <ns3:TrackPointExtension>
            <ns3:hr>76</ns3:hr>
            <ns3:cad>0</ns3:cad>
          </ns3:TrackPointExtension>
        </extensions>
      </trkpt>
      <trkpt lat="43.77874396741390228271484375" lon="1.56694608740508556365966796875">
        <ele>137.1999969482421875</ele>
        <time>2026-08-13T09:10:51.000Z</time>
        <extensions>
          <ns3:TrackPointExtension>
            <ns3:hr>76</ns3:hr>
            <ns3:cad>0</ns3:cad>
          </ns3:TrackPointExtension>
        </extensions>
      </trkpt>
      <trkpt lat="43.77874053083360195159912109375" lon="1.566946841776371002197265625">
        <ele>137</ele>
        <time>2026-08-13T09:10:52.000Z</time>
        <extensions>
          <ns3:TrackPointExtension>
            <ns3:hr>76</ns3:hr>
            <ns3:cad>0</ns3:cad>
          </ns3:TrackPointExtension>
        </extensions>
      </trkpt>
      <trkpt lat="43.77873868681490421295166015625" lon="1.56694809906184673309326171875">
        <ele>137</ele>
        <time>2026-08-13T09:10:53.000Z</time>
        <extensions>
          <ns3:TrackPointExtension>
            <ns3:hr>76</ns3:hr>
            <ns3:cad>0</ns3:cad>
          </ns3:TrackPointExtension>
        </extensions>
      </trkpt>
      <trkpt lat="43.7787432968616485595703125" lon="1.5669480152428150177001953125">
        <ele>137</ele>
        <time>2026-08-13T09:10:54.000Z</time>
        <extensions>
          <ns3:TrackPointExtension>
            <ns3:hr>76</ns3:hr>
            <ns3:cad>0</ns3:cad>
          </ns3:TrackPointExtension>
        </extensions>
      </trkpt>
      <trkpt lat="43.778749667108058929443359375" lon="1.56694994308054447174072265625">
        <ele>137</ele>
        <time>2026-08-13T09:10:55.000Z</time>
        <extensions>
          <ns3:TrackPointExtension>
            <ns3:hr>76</ns3:hr>
            <ns3:cad>0</ns3:cad>
          </ns3:TrackPointExtension>
        </extensions>
      </trkpt>
      <trkpt lat="43.77875201404094696044921875" lon="1.5669513680040836334228515625">
        <ele>136.8000030517578125</ele>
        <time>2026-08-13T09:10:56.000Z</time>
        <extensions>
          <ns3:TrackPointExtension>
            <ns3:hr>76</ns3:hr>
            <ns3:cad>0</ns3:cad>
          </ns3:TrackPointExtension>
        </extensions>
      </trkpt>
      <trkpt lat="43.77875360660254955291748046875" lon="1.5669523738324642181396484375">
        <ele>136.8000030517578125</ele>
        <time>2026-08-13T09:10:57.000Z</time>
        <extensions>
          <ns3:TrackPointExtension>
            <ns3:hr>76</ns3:hr>
            <ns3:cad>0</ns3:cad>
          </ns3:TrackPointExtension>
        </extensions>
      </trkpt>
      <trkpt lat="43.77875335514545440673828125" lon="1.56695312820374965667724609375">
        <ele>136.8000030517578125</ele>
        <time>2026-08-13T09:10:58.000Z</time>
        <extensions>
          <ns3:TrackPointExtension>
            <ns3:hr>77</ns3:hr>
            <ns3:cad>0</ns3:cad>
          </ns3:TrackPointExtension>
        </extensions>
      </trkpt>
      <trkpt lat="43.7787555344402790069580078125" lon="1.5669532120227813720703125">
        <ele>137</ele>
        <time>2026-08-13T09:10:59.000Z</time>
        <extensions>
          <ns3:TrackPointExtension>
            <ns3:hr>76</ns3:hr>
            <ns3:cad>0</ns3:cad>
          </ns3:TrackPointExtension>
        </extensions>
      </trkpt>
      <trkpt lat="43.7787582166492938995361328125" lon="1.56695597805082798004150390625">
        <ele>137</ele>
        <time>2026-08-13T09:11:00.000Z</time>
        <extensions>
          <ns3:TrackPointExtension>
            <ns3:hr>76</ns3:hr>
            <ns3:cad>0</ns3:cad>
          </ns3:TrackPointExtension>
        </extensions>
      </trkpt>
      <trkpt lat="43.778757043182849884033203125" lon="1.56695656478404998779296875">
        <ele>137</ele>
        <time>2026-08-13T09:11:01.000Z</time>
        <extensions>
          <ns3:TrackPointExtension>
            <ns3:hr>76</ns3:hr>
            <ns3:cad>0</ns3:cad>
          </ns3:TrackPointExtension>
        </extensions>
      </trkpt>
      <trkpt lat="43.77876098267734050750732421875" lon="1.5669483505189418792724609375">
        <ele>137</ele>
        <time>2026-08-13T09:11:02.000Z</time>
        <extensions>
          <ns3:TrackPointExtension>
            <ns3:hr>74</ns3:hr>
            <ns3:cad>0</ns3:cad>
          </ns3:TrackPointExtension>
        </extensions>
      </trkpt>
      <trkpt lat="43.77876098267734050750732421875" lon="1.5669483505189418792724609375">
        <ele>137</ele>
        <time>2026-08-13T09:11:03.000Z</time>
        <extensions>
          <ns3:TrackPointExtension>
            <ns3:hr>73</ns3:hr>
            <ns3:cad>0</ns3:cad>
          </ns3:TrackPointExtension>
        </extensions>
      </trkpt>
      <trkpt lat="43.77876098267734050750732421875" lon="1.5669483505189418792724609375">
        <ele>137</ele>
        <time>2026-08-13T09:11:04.000Z</time>
        <extensions>
          <ns3:TrackPointExtension>
            <ns3:hr>74</ns3:hr>
            <ns3:cad>0</ns3:cad>
          </ns3:TrackPointExtension>
        </extensions>
      </trkpt>
      <trkpt lat="43.77876098267734050750732421875" lon="1.5669483505189418792724609375">
        <ele>137</ele>
        <time>2026-08-13T09:11:05.000Z</time>
        <extensions>
          <ns3:TrackPointExtension>
            <ns3:hr>75</ns3:hr>
            <ns3:cad>0</ns3:cad>
          </ns3:TrackPointExtension>
        </extensions>
      </trkpt>
      <trkpt lat="43.77876098267734050750732421875" lon="1.5669483505189418792724609375">
        <ele>137</ele>
        <time>2026-08-13T09:11:06.000Z</time>
        <extensions>
          <ns3:TrackPointExtension>
            <ns3:hr>75</ns3:hr>
            <ns3:cad>0</ns3:cad>
          </ns3:TrackPointExtension>
        </extensions>
      </trkpt>
      <trkpt lat="43.77876098267734050750732421875" lon="1.5669483505189418792724609375">
        <ele>137</ele>
        <time>2026-08-13T09:11:07.000Z</time>
        <extensions>
          <ns3:TrackPointExtension>
            <ns3:hr>75</ns3:hr>
            <ns3:cad>0</ns3:cad>
          </ns3:TrackPointExtension>
        </extensions>
      </trkpt>
      <trkpt lat="43.77876098267734050750732421875" lon="1.5669483505189418792724609375">
        <ele>137</ele>
        <time>2026-08-13T09:11:08.000Z</time>
        <extensions>
          <ns3:TrackPointExtension>
            <ns3:hr>75</ns3:hr>
            <ns3:cad>0</ns3:cad>
          </ns3:TrackPointExtension>
        </extensions>
      </trkpt>
      <trkpt lat="43.77876098267734050750732421875" lon="1.5669483505189418792724609375">
        <ele>137</ele>
        <time>2026-08-13T09:11:09.000Z</time>
        <extensions>
          <ns3:TrackPointExtension>
            <ns3:hr>75</ns3:hr>
            <ns3:cad>0</ns3:cad>
          </ns3:TrackPointExtension>
        </extensions>
      </trkpt>
      <trkpt lat="43.77876098267734050750732421875" lon="1.5669483505189418792724609375">
        <ele>137</ele>
        <time>2026-08-13T09:11:10.000Z</time>
        <extensions>
          <ns3:TrackPointExtension>
            <ns3:hr>75</ns3:hr>
            <ns3:cad>0</ns3:cad>
          </ns3:TrackPointExtension>
        </extensions>
      </trkpt>
      <trkpt lat="43.77876098267734050750732421875" lon="1.5669483505189418792724609375">
        <ele>137</ele>
        <time>2026-08-13T09:11:11.000Z</time>
        <extensions>
          <ns3:TrackPointExtension>
            <ns3:hr>75</ns3:hr>
            <ns3:cad>0</ns3:cad>
          </ns3:TrackPointExtension>
        </extensions>
      </trkpt>
      <trkpt lat="43.77876098267734050750732421875" lon="1.5669483505189418792724609375">
        <ele>137</ele>
        <time>2026-08-13T09:11:12.000Z</time>
        <extensions>
          <ns3:TrackPointExtension>
            <ns3:hr>75</ns3:hr>
            <ns3:cad>0</ns3:cad>
          </ns3:TrackPointExtension>
        </extensions>
      </trkpt>
      <trkpt lat="43.77876098267734050750732421875" lon="1.5669483505189418792724609375">
        <ele>137</ele>
        <time>2026-08-13T09:11:13.000Z</time>
        <extensions>
          <ns3:TrackPointExtension>
            <ns3:hr>74</ns3:hr>
            <ns3:cad>0</ns3:cad>
          </ns3:TrackPointExtension>
        </extensions>
      </trkpt>
      <trkpt lat="43.77876098267734050750732421875" lon="1.5669483505189418792724609375">
        <ele>137.1999969482421875</ele>
        <time>2026-08-13T09:11:14.000Z</time>
        <extensions>
          <ns3:TrackPointExtension>
            <ns3:hr>74</ns3:hr>
            <ns3:cad>0</ns3:cad>
          </ns3:TrackPointExtension>
        </extensions>
      </trkpt>
      <trkpt lat="43.77876098267734050750732421875" lon="1.5669483505189418792724609375">
        <ele>137</ele>
        <time>2026-08-13T09:11:15.000Z</time>
        <extensions>
          <ns3:TrackPointExtension>
            <ns3:hr>74</ns3:hr>
            <ns3:cad>0</ns3:cad>
          </ns3:TrackPointExtension>
        </extensions>
      </trkpt>
      <trkpt lat="43.77875980921089649200439453125" lon="1.566966958343982696533203125">
        <ele>137</ele>
        <time>2026-08-13T09:11:16.000Z</time>
        <extensions>
          <ns3:TrackPointExtension>
            <ns3:hr>74</ns3:hr>
            <ns3:cad>0</ns3:cad>
          </ns3:TrackPointExtension>
        </extensions>
      </trkpt>
      <trkpt lat="43.77875964157283306121826171875" lon="1.56696704216301441192626953125">
        <ele>137</ele>
        <time>2026-08-13T09:11:17.000Z</time>
        <extensions>
          <ns3:TrackPointExtension>
            <ns3:hr>74</ns3:hr>
            <ns3:cad>0</ns3:cad>
          </ns3:TrackPointExtension>
        </extensions>
      </trkpt>
      <trkpt lat="43.77876098267734050750732421875" lon="1.56697056256234645843505859375">
        <ele>137</ele>
        <time>2026-08-13T09:11:18.000Z</time>
        <extensions>
          <ns3:TrackPointExtension>
            <ns3:hr>73</ns3:hr>
            <ns3:cad>0</ns3:cad>
          </ns3:TrackPointExtension>
        </extensions>
      </trkpt>
      <trkpt lat="43.77876098267734050750732421875" lon="1.56697056256234645843505859375">
        <ele>137.1999969482421875</ele>
        <time>2026-08-13T09:11:19.000Z</time>
        <extensions>
          <ns3:TrackPointExtension>
            <ns3:hr>72</ns3:hr>
            <ns3:cad>0</ns3:cad>
          </ns3:TrackPointExtension>
        </extensions>
      </trkpt>
      <trkpt lat="43.77876098267734050750732421875" lon="1.56697056256234645843505859375">
        <ele>137.1999969482421875</ele>
        <time>2026-08-13T09:11:20.000Z</time>
        <extensions>
          <ns3:TrackPointExtension>
            <ns3:hr>70</ns3:hr>
            <ns3:cad>0</ns3:cad>
          </ns3:TrackPointExtension>
        </extensions>
      </trkpt>
      <trkpt lat="43.77876098267734050750732421875" lon="1.56697056256234645843505859375">
        <ele>137</ele>
        <time>2026-08-13T09:11:21.000Z</time>
        <extensions>
          <ns3:TrackPointExtension>
            <ns3:hr>70</ns3:hr>
            <ns3:cad>0</ns3:cad>
          </ns3:TrackPointExtension>
        </extensions>
      </trkpt>
      <trkpt lat="43.77876098267734050750732421875" lon="1.56697056256234645843505859375">
        <ele>137</ele>
        <time>2026-08-13T09:11:22.000Z</time>
        <extensions>
          <ns3:TrackPointExtension>
            <ns3:hr>71</ns3:hr>
            <ns3:cad>0</ns3:cad>
          </ns3:TrackPointExtension>
        </extensions>
      </trkpt>
      <trkpt lat="43.77876098267734050750732421875" lon="1.56697056256234645843505859375">
        <ele>136.8000030517578125</ele>
        <time>2026-08-13T09:11:23.000Z</time>
        <extensions>
          <ns3:TrackPointExtension>
            <ns3:hr>72</ns3:hr>
            <ns3:cad>0</ns3:cad>
          </ns3:TrackPointExtension>
        </extensions>
      </trkpt>
      <trkpt lat="43.77876098267734050750732421875" lon="1.56697056256234645843505859375">
        <ele>136.600006103515625</ele>
        <time>2026-08-13T09:11:24.000Z</time>
        <extensions>
          <ns3:TrackPointExtension>
            <ns3:hr>73</ns3:hr>
            <ns3:cad>0</ns3:cad>
          </ns3:TrackPointExtension>
        </extensions>
      </trkpt>
      <trkpt lat="43.77876098267734050750732421875" lon="1.56697056256234645843505859375">
        <ele>136.600006103515625</ele>
        <time>2026-08-13T09:11:25.000Z</time>
        <extensions>
          <ns3:TrackPointExtension>
            <ns3:hr>74</ns3:hr>
            <ns3:cad>0</ns3:cad>
          </ns3:TrackPointExtension>
        </extensions>
      </trkpt>
      <trkpt lat="43.77876098267734050750732421875" lon="1.56697056256234645843505859375">
        <ele>136.600006103515625</ele>
        <time>2026-08-13T09:11:26.000Z</time>
        <extensions>
          <ns3:TrackPointExtension>
            <ns3:hr>74</ns3:hr>
            <ns3:cad>0</ns3:cad>
          </ns3:TrackPointExtension>
        </extensions>
      </trkpt>
      <trkpt lat="43.77876098267734050750732421875" lon="1.56697056256234645843505859375">
        <ele>136.600006103515625</ele>
        <time>2026-08-13T09:11:27.000Z</time>
        <extensions>
          <ns3:TrackPointExtension>
            <ns3:hr>74</ns3:hr>
            <ns3:cad>0</ns3:cad>
          </ns3:TrackPointExtension>
        </extensions>
      </trkpt>
      <trkpt lat="43.77876098267734050750732421875" lon="1.56697056256234645843505859375">
        <ele>136.600006103515625</ele>
        <time>2026-08-13T09:11:28.000Z</time>
        <extensions>
          <ns3:TrackPointExtension>
            <ns3:hr>74</ns3:hr>
            <ns3:cad>0</ns3:cad>
          </ns3:TrackPointExtension>
        </extensions>
      </trkpt>
      <trkpt lat="43.77876098267734050750732421875" lon="1.56697056256234645843505859375">
        <ele>136.600006103515625</ele>
        <time>2026-08-13T09:11:29.000Z</time>
        <extensions>
          <ns3:TrackPointExtension>
            <ns3:hr>74</ns3:hr>
            <ns3:cad>0</ns3:cad>
          </ns3:TrackPointExtension>
        </extensions>
      </trkpt>
      <trkpt lat="43.77876098267734050750732421875" lon="1.56697056256234645843505859375">
        <ele>136.600006103515625</ele>
        <time>2026-08-13T09:11:30.000Z</time>
        <extensions>
          <ns3:TrackPointExtension>
            <ns3:hr>75</ns3:hr>
            <ns3:cad>0</ns3:cad>
          </ns3:TrackPointExtension>
        </extensions>
      </trkpt>
      <trkpt lat="43.77876098267734050750732421875" lon="1.56697056256234645843505859375">
        <ele>136.600006103515625</ele>
        <time>2026-08-13T09:11:31.000Z</time>
        <extensions>
          <ns3:TrackPointExtension>
            <ns3:hr>75</ns3:hr>
            <ns3:cad>0</ns3:cad>
          </ns3:TrackPointExtension>
        </extensions>
      </trkpt>
      <trkpt lat="43.77876098267734050750732421875" lon="1.56697056256234645843505859375">
        <ele>136.600006103515625</ele>
        <time>2026-08-13T09:11:32.000Z</time>
        <extensions>
          <ns3:TrackPointExtension>
            <ns3:hr>76</ns3:hr>
            <ns3:cad>0</ns3:cad>
          </ns3:TrackPointExtension>
        </extensions>
      </trkpt>
      <trkpt lat="43.77876098267734050750732421875" lon="1.56697056256234645843505859375">
        <ele>136.600006103515625</ele>
        <time>2026-08-13T09:11:33.000Z</time>
        <extensions>
          <ns3:TrackPointExtension>
            <ns3:hr>76</ns3:hr>
            <ns3:cad>0</ns3:cad>
          </ns3:TrackPointExtension>
        </extensions>
      </trkpt>
      <trkpt lat="43.77876098267734050750732421875" lon="1.56697056256234645843505859375">
        <ele>136.600006103515625</ele>
        <time>2026-08-13T09:11:34.000Z</time>
        <extensions>
          <ns3:TrackPointExtension>
            <ns3:hr>76</ns3:hr>
            <ns3:cad>0</ns3:cad>
          </ns3:TrackPointExtension>
        </extensions>
      </trkpt>
      <trkpt lat="43.77876098267734050750732421875" lon="1.56697056256234645843505859375">
        <ele>136.600006103515625</ele>
        <time>2026-08-13T09:11:35.000Z</time>
        <extensions>
          <ns3:TrackPointExtension>
            <ns3:hr>75</ns3:hr>
            <ns3:cad>0</ns3:cad>
          </ns3:TrackPointExtension>
        </extensions>
      </trkpt>
      <trkpt lat="43.77876098267734050750732421875" lon="1.56697056256234645843505859375">
        <ele>136.600006103515625</ele>
        <time>2026-08-13T09:11:36.000Z</time>
        <extensions>
          <ns3:TrackPointExtension>
            <ns3:hr>74</ns3:hr>
            <ns3:cad>0</ns3:cad>
          </ns3:TrackPointExtension>
        </extensions>
      </trkpt>
      <trkpt lat="43.77876098267734050750732421875" lon="1.56697056256234645843505859375">
        <ele>136.399993896484375</ele>
        <time>2026-08-13T09:11:37.000Z</time>
        <extensions>
          <ns3:TrackPointExtension>
            <ns3:hr>73</ns3:hr>
            <ns3:cad>0</ns3:cad>
          </ns3:TrackPointExtension>
        </extensions>
      </trkpt>
      <trkpt lat="43.77876450307667255401611328125" lon="1.5669594146311283111572265625">
        <ele>136.600006103515625</ele>
        <time>2026-08-13T09:11:38.000Z</time>
        <extensions>
          <ns3:TrackPointExtension>
            <ns3:hr>70</ns3:hr>
            <ns3:cad>0</ns3:cad>
          </ns3:TrackPointExtension>
        </extensions>
      </trkpt>
      <trkpt lat="43.77876550890505313873291015625" lon="1.566956229507923126220703125">
        <ele>136.600006103515625</ele>
        <time>2026-08-13T09:11:39.000Z</time>
        <extensions>
          <ns3:TrackPointExtension>
            <ns3:hr>69</ns3:hr>
            <ns3:cad>0</ns3:cad>
          </ns3:TrackPointExtension>
        </extensions>
      </trkpt>
      <trkpt lat="43.7787578813731670379638671875" lon="1.5669698081910610198974609375">
        <ele>136.600006103515625</ele>
        <time>2026-08-13T09:11:40.000Z</time>
        <extensions>
          <ns3:TrackPointExtension>
            <ns3:hr>68</ns3:hr>
            <ns3:cad>0</ns3:cad>
          </ns3:TrackPointExtension>
        </extensions>
      </trkpt>
      <trkpt lat="43.7787528522312641143798828125" lon="1.56697592698037624359130859375">
        <ele>136.8000030517578125</ele>
        <time>2026-08-13T09:11:41.000Z</time>
        <extensions>
          <ns3:TrackPointExtension>
            <ns3:hr>68</ns3:hr>
            <ns3:cad>0</ns3:cad>
          </ns3:TrackPointExtension>
        </extensions>
      </trkpt>
      <trkpt lat="43.77876098267734050750732421875" lon="1.56697056256234645843505859375">
        <ele>136.8000030517578125</ele>
        <time>2026-08-13T09:11:42.000Z</time>
        <extensions>
          <ns3:TrackPointExtension>
            <ns3:hr>68</ns3:hr>
            <ns3:cad>0</ns3:cad>
          </ns3:TrackPointExtension>
        </extensions>
      </trkpt>
      <trkpt lat="43.77876098267734050750732421875" lon="1.56697056256234645843505859375">
        <ele>136.8000030517578125</ele>
        <time>2026-08-13T09:11:43.000Z</time>
        <extensions>
          <ns3:TrackPointExtension>
            <ns3:hr>68</ns3:hr>
            <ns3:cad>0</ns3:cad>
          </ns3:TrackPointExtension>
        </extensions>
      </trkpt>
      <trkpt lat="43.77876098267734050750732421875" lon="1.56697056256234645843505859375">
        <ele>136.8000030517578125</ele>
        <time>2026-08-13T09:11:44.000Z</time>
        <extensions>
          <ns3:TrackPointExtension>
            <ns3:hr>68</ns3:hr>
            <ns3:cad>0</ns3:cad>
          </ns3:TrackPointExtension>
        </extensions>
      </trkpt>
      <trkpt lat="43.77876098267734050750732421875" lon="1.56697056256234645843505859375">
        <ele>136.8000030517578125</ele>
        <time>2026-08-13T09:11:45.000Z</time>
        <extensions>
          <ns3:TrackPointExtension>
            <ns3:hr>68</ns3:hr>
            <ns3:cad>0</ns3:cad>
          </ns3:TrackPointExtension>
        </extensions>
      </trkpt>
      <trkpt lat="43.77876098267734050750732421875" lon="1.56697056256234645843505859375">
        <ele>136.8000030517578125</ele>
        <time>2026-08-13T09:11:46.000Z</time>
        <extensions>
          <ns3:TrackPointExtension>
            <ns3:hr>69</ns3:hr>
            <ns3:cad>0</ns3:cad>
          </ns3:TrackPointExtension>
        </extensions>
      </trkpt>
      <trkpt lat="43.77876098267734050750732421875" lon="1.56697056256234645843505859375">
        <ele>136.600006103515625</ele>
        <time>2026-08-13T09:11:47.000Z</time>
        <extensions>
          <ns3:TrackPointExtension>
            <ns3:hr>69</ns3:hr>
            <ns3:cad>0</ns3:cad>
          </ns3:TrackPointExtension>
        </extensions>
      </trkpt>
      <trkpt lat="43.77876098267734050750732421875" lon="1.56697056256234645843505859375">
        <ele>136.600006103515625</ele>
        <time>2026-08-13T09:11:48.000Z</time>
        <extensions>
          <ns3:TrackPointExtension>
            <ns3:hr>70</ns3:hr>
            <ns3:cad>0</ns3:cad>
          </ns3:TrackPointExtension>
        </extensions>
      </trkpt>
      <trkpt lat="43.77876098267734050750732421875" lon="1.56697056256234645843505859375">
        <ele>136.600006103515625</ele>
        <time>2026-08-13T09:11:49.000Z</time>
        <extensions>
          <ns3:TrackPointExtension>
            <ns3:hr>70</ns3:hr>
            <ns3:cad>0</ns3:cad>
          </ns3:TrackPointExtension>
        </extensions>
      </trkpt>
      <trkpt lat="43.77876098267734050750732421875" lon="1.56697056256234645843505859375">
        <ele>136.600006103515625</ele>
        <time>2026-08-13T09:11:50.000Z</time>
        <extensions>
          <ns3:TrackPointExtension>
            <ns3:hr>70</ns3:hr>
            <ns3:cad>0</ns3:cad>
          </ns3:TrackPointExtension>
        </extensions>
      </trkpt>
      <trkpt lat="43.77876098267734050750732421875" lon="1.56697056256234645843505859375">
        <ele>136.600006103515625</ele>
        <time>2026-08-13T09:11:51.000Z</time>
        <extensions>
          <ns3:TrackPointExtension>
            <ns3:hr>70</ns3:hr>
            <ns3:cad>0</ns3:cad>
          </ns3:TrackPointExtension>
        </extensions>
      </trkpt>
      <trkpt lat="43.77876098267734050750732421875" lon="1.56697056256234645843505859375">
        <ele>136.399993896484375</ele>
        <time>2026-08-13T09:11:52.000Z</time>
        <extensions>
          <ns3:TrackPointExtension>
            <ns3:hr>69</ns3:hr>
            <ns3:cad>0</ns3:cad>
          </ns3:TrackPointExtension>
        </extensions>
      </trkpt>
      <trkpt lat="43.77876098267734050750732421875" lon="1.56697056256234645843505859375">
        <ele>136.399993896484375</ele>
        <time>2026-08-13T09:11:53.000Z</time>
        <extensions>
          <ns3:TrackPointExtension>
            <ns3:hr>67</ns3:hr>
            <ns3:cad>0</ns3:cad>
          </ns3:TrackPointExtension>
        </extensions>
      </trkpt>
      <trkpt lat="43.77876098267734050750732421875" lon="1.56697056256234645843505859375">
        <ele>136.600006103515625</ele>
        <time>2026-08-13T09:11:54.000Z</time>
        <extensions>
          <ns3:TrackPointExtension>
            <ns3:hr>67</ns3:hr>
            <ns3:cad>0</ns3:cad>
          </ns3:TrackPointExtension>
        </extensions>
      </trkpt>
      <trkpt lat="43.77876098267734050750732421875" lon="1.56697056256234645843505859375">
        <ele>136.600006103515625</ele>
        <time>2026-08-13T09:11:55.000Z</time>
        <extensions>
          <ns3:TrackPointExtension>
            <ns3:hr>66</ns3:hr>
            <ns3:cad>0</ns3:cad>
          </ns3:TrackPointExtension>
        </extensions>
      </trkpt>
      <trkpt lat="43.77876098267734050750732421875" lon="1.56697056256234645843505859375">
        <ele>136.399993896484375</ele>
        <time>2026-08-13T09:11:56.000Z</time>
        <extensions>
          <ns3:TrackPointExtension>
            <ns3:hr>66</ns3:hr>
            <ns3:cad>0</ns3:cad>
          </ns3:TrackPointExtension>
        </extensions>
      </trkpt>
      <trkpt lat="43.77876098267734050750732421875" lon="1.56697056256234645843505859375">
        <ele>136.600006103515625</ele>
        <time>2026-08-13T09:11:57.000Z</time>
        <extensions>
          <ns3:TrackPointExtension>
            <ns3:hr>67</ns3:hr>
            <ns3:cad>0</ns3:cad>
          </ns3:TrackPointExtension>
        </extensions>
      </trkpt>
      <trkpt lat="43.77876098267734050750732421875" lon="1.56697056256234645843505859375">
        <ele>136.600006103515625</ele>
        <time>2026-08-13T09:11:58.000Z</time>
        <extensions>
          <ns3:TrackPointExtension>
            <ns3:hr>71</ns3:hr>
            <ns3:cad>0</ns3:cad>
          </ns3:TrackPointExtension>
        </extensions>
      </trkpt>
      <trkpt lat="43.77876098267734050750732421875" lon="1.56697056256234645843505859375">
        <ele>136.600006103515625</ele>
        <time>2026-08-13T09:11:59.000Z</time>
        <extensions>
          <ns3:TrackPointExtension>
            <ns3:hr>72</ns3:hr>
            <ns3:cad>0</ns3:cad>
          </ns3:TrackPointExtension>
        </extensions>
      </trkpt>
      <trkpt lat="43.77876098267734050750732421875" lon="1.56697056256234645843505859375">
        <ele>136.600006103515625</ele>
        <time>2026-08-13T09:12:00.000Z</time>
        <extensions>
          <ns3:TrackPointExtension>
            <ns3:hr>73</ns3:hr>
            <ns3:cad>0</ns3:cad>
          </ns3:TrackPointExtension>
        </extensions>
      </trkpt>
      <trkpt lat="43.77875469624996185302734375" lon="1.5669612586498260498046875">
        <ele>136.600006103515625</ele>
        <time>2026-08-13T09:12:01.000Z</time>
        <extensions>
          <ns3:TrackPointExtension>
            <ns3:hr>73</ns3:hr>
            <ns3:cad>90</ns3:cad>
          </ns3:TrackPointExtension>
        </extensions>
      </trkpt>
      <trkpt lat="43.7787588872015476226806640625" lon="1.5669503621757030487060546875">
        <ele>136.600006103515625</ele>
        <time>2026-08-13T09:12:02.000Z</time>
        <extensions>
          <ns3:TrackPointExtension>
            <ns3:hr>74</ns3:hr>
            <ns3:cad>90</ns3:cad>
          </ns3:TrackPointExtension>
        </extensions>
      </trkpt>
      <trkpt lat="43.778761066496372222900390625" lon="1.566945500671863555908203125">
        <ele>136.600006103515625</ele>
        <time>2026-08-13T09:12:03.000Z</time>
        <extensions>
          <ns3:TrackPointExtension>
            <ns3:hr>74</ns3:hr>
            <ns3:cad>0</ns3:cad>
          </ns3:TrackPointExtension>
        </extensions>
      </trkpt>
      <trkpt lat="43.77876047976315021514892578125" lon="1.56694474630057811737060546875">
        <ele>136.399993896484375</ele>
        <time>2026-08-13T09:12:04.000Z</time>
        <extensions>
          <ns3:TrackPointExtension>
            <ns3:hr>74</ns3:hr>
            <ns3:cad>0</ns3:cad>
          </ns3:TrackPointExtension>
        </extensions>
      </trkpt>
      <trkpt lat="43.77876140177249908447265625" lon="1.56694181263446807861328125">
        <ele>136.399993896484375</ele>
        <time>2026-08-13T09:12:05.000Z</time>
        <extensions>
          <ns3:TrackPointExtension>
            <ns3:hr>73</ns3:hr>
            <ns3:cad>0</ns3:cad>
          </ns3:TrackPointExtension>
        </extensions>
      </trkpt>
      <trkpt lat="43.778758384287357330322265625" lon="1.56694114208221435546875">
        <ele>136.399993896484375</ele>
        <time>2026-08-13T09:12:06.000Z</time>
        <extensions>
          <ns3:TrackPointExtension>
            <ns3:hr>73</ns3:hr>
            <ns3:cad>0</ns3:cad>
          </ns3:TrackPointExtension>
        </extensions>
      </trkpt>
      <trkpt lat="43.77875880338251590728759765625" lon="1.5669426508247852325439453125">
        <ele>136.399993896484375</ele>
        <time>2026-08-13T09:12:07.000Z</time>
        <extensions>
          <ns3:TrackPointExtension>
            <ns3:hr>73</ns3:hr>
            <ns3:cad>0</ns3:cad>
          </ns3:TrackPointExtension>
        </extensions>
      </trkpt>
      <trkpt lat="43.7787595577538013458251953125" lon="1.566946506500244140625">
        <ele>136.399993896484375</ele>
        <time>2026-08-13T09:12:08.000Z</time>
        <extensions>
          <ns3:TrackPointExtension>
            <ns3:hr>73</ns3:hr>
            <ns3:cad>0</ns3:cad>
          </ns3:TrackPointExtension>
        </extensions>
      </trkpt>
      <trkpt lat="43.7787593901157379150390625" lon="1.56694944016635417938232421875">
        <ele>136.399993896484375</ele>
        <time>2026-08-13T09:12:09.000Z</time>
        <extensions>
          <ns3:TrackPointExtension>
            <ns3:hr>74</ns3:hr>
            <ns3:cad>0</ns3:cad>
          </ns3:TrackPointExtension>
        </extensions>
      </trkpt>
      <trkpt lat="43.77875871956348419189453125" lon="1.5669532120227813720703125">
        <ele>136.399993896484375</ele>
        <time>2026-08-13T09:12:10.000Z</time>
        <extensions>
          <ns3:TrackPointExtension>
            <ns3:hr>73</ns3:hr>
            <ns3:cad>0</ns3:cad>
          </ns3:TrackPointExtension>
        </extensions>
      </trkpt>
      <trkpt lat="43.77876098267734050750732421875" lon="1.56697056256234645843505859375">
        <ele>136.399993896484375</ele>
        <time>2026-08-13T09:12:11.000Z</time>
        <extensions>
          <ns3:TrackPointExtension>
            <ns3:hr>73</ns3:hr>
            <ns3:cad>0</ns3:cad>
          </ns3:TrackPointExtension>
        </extensions>
      </trkpt>
      <trkpt lat="43.77876098267734050750732421875" lon="1.56697056256234645843505859375">
        <ele>136.399993896484375</ele>
        <time>2026-08-13T09:12:12.000Z</time>
        <extensions>
          <ns3:TrackPointExtension>
            <ns3:hr>73</ns3:hr>
            <ns3:cad>0</ns3:cad>
          </ns3:TrackPointExtension>
        </extensions>
      </trkpt>
      <trkpt lat="43.77876098267734050750732421875" lon="1.56697056256234645843505859375">
        <ele>136.399993896484375</ele>
        <time>2026-08-13T09:12:13.000Z</time>
        <extensions>
          <ns3:TrackPointExtension>
            <ns3:hr>73</ns3:hr>
            <ns3:cad>0</ns3:cad>
          </ns3:TrackPointExtension>
        </extensions>
      </trkpt>
      <trkpt lat="43.7787585519254207611083984375" lon="1.5669550560414791107177734375">
        <ele>136.600006103515625</ele>
        <time>2026-08-13T09:12:14.000Z</time>
        <extensions>
          <ns3:TrackPointExtension>
            <ns3:hr>73</ns3:hr>
            <ns3:cad>75</ns3:cad>
          </ns3:TrackPointExtension>
        </extensions>
      </trkpt>
      <trkpt lat="43.77875980921089649200439453125" lon="1.56695815734565258026123046875">
        <ele>136.600006103515625</ele>
        <time>2026-08-13T09:12:15.000Z</time>
        <extensions>
          <ns3:TrackPointExtension>
            <ns3:hr>72</ns3:hr>
            <ns3:cad>75</ns3:cad>
          </ns3:TrackPointExtension>
        </extensions>
      </trkpt>
      <trkpt lat="43.77876064740121364593505859375" lon="1.56695849262177944183349609375">
        <ele>136.600006103515625</ele>
        <time>2026-08-13T09:12:16.000Z</time>
        <extensions>
          <ns3:TrackPointExtension>
            <ns3:hr>72</ns3:hr>
            <ns3:cad>0</ns3:cad>
          </ns3:TrackPointExtension>
        </extensions>
      </trkpt>
      <trkpt lat="43.77876098267734050750732421875" lon="1.56695614568889141082763671875">
        <ele>136.600006103515625</ele>
        <time>2026-08-13T09:12:17.000Z</time>
        <extensions>
          <ns3:TrackPointExtension>
            <ns3:hr>72</ns3:hr>
            <ns3:cad>0</ns3:cad>
          </ns3:TrackPointExtension>
        </extensions>
      </trkpt>
      <trkpt lat="43.778761066496372222900390625" lon="1.56695631332695484161376953125">
        <ele>136.600006103515625</ele>
        <time>2026-08-13T09:12:18.000Z</time>
        <extensions>
          <ns3:TrackPointExtension>
            <ns3:hr>72</ns3:hr>
            <ns3:cad>0</ns3:cad>
          </ns3:TrackPointExtension>
        </extensions>
      </trkpt>
      <trkpt lat="43.778761066496372222900390625" lon="1.5669558942317962646484375">
        <ele>136.8000030517578125</ele>
        <time>2026-08-13T09:12:19.000Z</time>
        <extensions>
          <ns3:TrackPointExtension>
            <ns3:hr>72</ns3:hr>
            <ns3:cad>0</ns3:cad>
          </ns3:TrackPointExtension>
        </extensions>
      </trkpt>
      <trkpt lat="43.77876148559153079986572265625" lon="1.56695480458438396453857421875">
        <ele>136.8000030517578125</ele>
        <time>2026-08-13T09:12:20.000Z</time>
        <extensions>
          <ns3:TrackPointExtension>
            <ns3:hr>73</ns3:hr>
            <ns3:cad>0</ns3:cad>
          </ns3:TrackPointExtension>
        </extensions>
      </trkpt>
      <trkpt lat="43.778762407600879669189453125" lon="1.566954553127288818359375">
        <ele>136.8000030517578125</ele>
        <time>2026-08-13T09:12:21.000Z</time>
        <extensions>
          <ns3:TrackPointExtension>
            <ns3:hr>72</ns3:hr>
            <ns3:cad>0</ns3:cad>
          </ns3:TrackPointExtension>
        </extensions>
      </trkpt>
      <trkpt lat="43.778763748705387115478515625" lon="1.5669532120227813720703125">
        <ele>137</ele>
        <time>2026-08-13T09:12:22.000Z</time>
        <extensions>
          <ns3:TrackPointExtension>
            <ns3:hr>72</ns3:hr>
            <ns3:cad>0</ns3:cad>
          </ns3:TrackPointExtension>
        </extensions>
      </trkpt>
      <trkpt lat="43.77876408398151397705078125" lon="1.5669540502130985260009765625">
        <ele>137</ele>
        <time>2026-08-13T09:12:23.000Z</time>
        <extensions>
          <ns3:TrackPointExtension>
            <ns3:hr>73</ns3:hr>
            <ns3:cad>0</ns3:cad>
          </ns3:TrackPointExtension>
        </extensions>
      </trkpt>
      <trkpt lat="43.77876098267734050750732421875" lon="1.56697056256234645843505859375">
        <ele>136.8000030517578125</ele>
        <time>2026-08-13T09:12:24.000Z</time>
        <extensions>
          <ns3:TrackPointExtension>
            <ns3:hr>72</ns3:hr>
            <ns3:cad>0</ns3:cad>
          </ns3:TrackPointExtension>
        </extensions>
      </trkpt>
      <trkpt lat="43.77876341342926025390625" lon="1.566952206194400787353515625">
        <ele>136.8000030517578125</ele>
        <time>2026-08-13T09:12:25.000Z</time>
        <extensions>
          <ns3:TrackPointExtension>
            <ns3:hr>72</ns3:hr>
            <ns3:cad>0</ns3:cad>
          </ns3:TrackPointExtension>
        </extensions>
      </trkpt>
      <trkpt lat="43.77876332961022853851318359375" lon="1.56695229001343250274658203125">
        <ele>136.8000030517578125</ele>
        <time>2026-08-13T09:12:26.000Z</time>
        <extensions>
          <ns3:TrackPointExtension>
            <ns3:hr>73</ns3:hr>
            <ns3:cad>0</ns3:cad>
          </ns3:TrackPointExtension>
        </extensions>
      </trkpt>
      <trkpt lat="43.77876332961022853851318359375" lon="1.56695229001343250274658203125">
        <ele>136.600006103515625</ele>
        <time>2026-08-13T09:12:27.000Z</time>
        <extensions>
          <ns3:TrackPointExtension>
            <ns3:hr>73</ns3:hr>
            <ns3:cad>0</ns3:cad>
          </ns3:TrackPointExtension>
        </extensions>
      </trkpt>
      <trkpt lat="43.77876332961022853851318359375" lon="1.56695229001343250274658203125">
        <ele>136.600006103515625</ele>
        <time>2026-08-13T09:12:28.000Z</time>
        <extensions>
          <ns3:TrackPointExtension>
            <ns3:hr>73</ns3:hr>
            <ns3:cad>0</ns3:cad>
          </ns3:TrackPointExtension>
        </extensions>
      </trkpt>
      <trkpt lat="43.77876332961022853851318359375" lon="1.56695229001343250274658203125">
        <ele>136.600006103515625</ele>
        <time>2026-08-13T09:12:29.000Z</time>
        <extensions>
          <ns3:TrackPointExtension>
            <ns3:hr>74</ns3:hr>
            <ns3:cad>0</ns3:cad>
          </ns3:TrackPointExtension>
        </extensions>
      </trkpt>
      <trkpt lat="43.77876332961022853851318359375" lon="1.56695229001343250274658203125">
        <ele>136.399993896484375</ele>
        <time>2026-08-13T09:12:30.000Z</time>
        <extensions>
          <ns3:TrackPointExtension>
            <ns3:hr>74</ns3:hr>
            <ns3:cad>0</ns3:cad>
          </ns3:TrackPointExtension>
        </extensions>
      </trkpt>
      <trkpt lat="43.77876332961022853851318359375" lon="1.56695229001343250274658203125">
        <ele>136.399993896484375</ele>
        <time>2026-08-13T09:12:31.000Z</time>
        <extensions>
          <ns3:TrackPointExtension>
            <ns3:hr>74</ns3:hr>
            <ns3:cad>0</ns3:cad>
          </ns3:TrackPointExtension>
        </extensions>
      </trkpt>
      <trkpt lat="43.77876332961022853851318359375" lon="1.56695229001343250274658203125">
        <ele>136.399993896484375</ele>
        <time>2026-08-13T09:12:32.000Z</time>
        <extensions>
          <ns3:TrackPointExtension>
            <ns3:hr>73</ns3:hr>
            <ns3:cad>0</ns3:cad>
          </ns3:TrackPointExtension>
        </extensions>
      </trkpt>
      <trkpt lat="43.77876332961022853851318359375" lon="1.56695229001343250274658203125">
        <ele>136.399993896484375</ele>
        <time>2026-08-13T09:12:33.000Z</time>
        <extensions>
          <ns3:TrackPointExtension>
            <ns3:hr>74</ns3:hr>
            <ns3:cad>0</ns3:cad>
          </ns3:TrackPointExtension>
        </extensions>
      </trkpt>
      <trkpt lat="43.77876332961022853851318359375" lon="1.56695229001343250274658203125">
        <ele>136.399993896484375</ele>
        <time>2026-08-13T09:12:34.000Z</time>
        <extensions>
          <ns3:TrackPointExtension>
            <ns3:hr>75</ns3:hr>
            <ns3:cad>0</ns3:cad>
          </ns3:TrackPointExtension>
        </extensions>
      </trkpt>
      <trkpt lat="43.77876332961022853851318359375" lon="1.56695229001343250274658203125">
        <ele>136.399993896484375</ele>
        <time>2026-08-13T09:12:35.000Z</time>
        <extensions>
          <ns3:TrackPointExtension>
            <ns3:hr>76</ns3:hr>
            <ns3:cad>0</ns3:cad>
          </ns3:TrackPointExtension>
        </extensions>
      </trkpt>
      <trkpt lat="43.77876332961022853851318359375" lon="1.56695229001343250274658203125">
        <ele>136.399993896484375</ele>
        <time>2026-08-13T09:12:36.000Z</time>
        <extensions>
          <ns3:TrackPointExtension>
            <ns3:hr>76</ns3:hr>
            <ns3:cad>0</ns3:cad>
          </ns3:TrackPointExtension>
        </extensions>
      </trkpt>
      <trkpt lat="43.77876332961022853851318359375" lon="1.56695229001343250274658203125">
        <ele>136.399993896484375</ele>
        <time>2026-08-13T09:12:37.000Z</time>
        <extensions>
          <ns3:TrackPointExtension>
            <ns3:hr>76</ns3:hr>
            <ns3:cad>0</ns3:cad>
          </ns3:TrackPointExtension>
        </extensions>
      </trkpt>
      <trkpt lat="43.77876332961022853851318359375" lon="1.56695229001343250274658203125">
        <ele>136.399993896484375</ele>
        <time>2026-08-13T09:12:38.000Z</time>
        <extensions>
          <ns3:TrackPointExtension>
            <ns3:hr>76</ns3:hr>
            <ns3:cad>0</ns3:cad>
          </ns3:TrackPointExtension>
        </extensions>
      </trkpt>
      <trkpt lat="43.77876332961022853851318359375" lon="1.56695229001343250274658203125">
        <ele>136.399993896484375</ele>
        <time>2026-08-13T09:12:39.000Z</time>
        <extensions>
          <ns3:TrackPointExtension>
            <ns3:hr>76</ns3:hr>
            <ns3:cad>0</ns3:cad>
          </ns3:TrackPointExtension>
        </extensions>
      </trkpt>
      <trkpt lat="43.77876332961022853851318359375" lon="1.56695229001343250274658203125">
        <ele>136.399993896484375</ele>
        <time>2026-08-13T09:12:40.000Z</time>
        <extensions>
          <ns3:TrackPointExtension>
            <ns3:hr>75</ns3:hr>
            <ns3:cad>0</ns3:cad>
          </ns3:TrackPointExtension>
        </extensions>
      </trkpt>
      <trkpt lat="43.77875779755413532257080078125" lon="1.56695463694632053375244140625">
        <ele>136.399993896484375</ele>
        <time>2026-08-13T09:12:41.000Z</time>
        <extensions>
          <ns3:TrackPointExtension>
            <ns3:hr>74</ns3:hr>
            <ns3:cad>0</ns3:cad>
          </ns3:TrackPointExtension>
        </extensions>
      </trkpt>
      <trkpt lat="43.7787513434886932373046875" lon="1.56695379875600337982177734375">
        <ele>136.399993896484375</ele>
        <time>2026-08-13T09:12:42.000Z</time>
        <extensions>
          <ns3:TrackPointExtension>
            <ns3:hr>72</ns3:hr>
            <ns3:cad>0</ns3:cad>
          </ns3:TrackPointExtension>
        </extensions>
      </trkpt>
      <trkpt lat="43.77874606288969516754150390625" lon="1.56695044599473476409912109375">
        <ele>136.399993896484375</ele>
        <time>2026-08-13T09:12:43.000Z</time>
        <extensions>
          <ns3:TrackPointExtension>
            <ns3:hr>71</ns3:hr>
            <ns3:cad>0</ns3:cad>
          </ns3:TrackPointExtension>
        </extensions>
      </trkpt>
      <trkpt lat="43.7787406146526336669921875" lon="1.5669486857950687408447265625">
        <ele>136.399993896484375</ele>
        <time>2026-08-13T09:12:44.000Z</time>
        <extensions>
          <ns3:TrackPointExtension>
            <ns3:hr>70</ns3:hr>
            <ns3:cad>0</ns3:cad>
          </ns3:TrackPointExtension>
        </extensions>
      </trkpt>
      <trkpt lat="43.7787381000816822052001953125" lon="1.56694793142378330230712890625">
        <ele>136.399993896484375</ele>
        <time>2026-08-13T09:12:45.000Z</time>
        <extensions>
          <ns3:TrackPointExtension>
            <ns3:hr>70</ns3:hr>
            <ns3:cad>0</ns3:cad>
          </ns3:TrackPointExtension>
        </extensions>
      </trkpt>
      <trkpt lat="43.77873633988201618194580078125" lon="1.56694860197603702545166015625">
        <ele>136.399993896484375</ele>
        <time>2026-08-13T09:12:46.000Z</time>
        <extensions>
          <ns3:TrackPointExtension>
            <ns3:hr>69</ns3:hr>
            <ns3:cad>0</ns3:cad>
          </ns3:TrackPointExtension>
        </extensions>
      </trkpt>
      <trkpt lat="43.7787350825965404510498046875" lon="1.566952876746654510498046875">
        <ele>136.399993896484375</ele>
        <time>2026-08-13T09:12:47.000Z</time>
        <extensions>
          <ns3:TrackPointExtension>
            <ns3:hr>69</ns3:hr>
            <ns3:cad>0</ns3:cad>
          </ns3:TrackPointExtension>
        </extensions>
      </trkpt>
      <trkpt lat="43.778732232749462127685546875" lon="1.56694809906184673309326171875">
        <ele>136.399993896484375</ele>
        <time>2026-08-13T09:12:48.000Z</time>
        <extensions>
          <ns3:TrackPointExtension>
            <ns3:hr>69</ns3:hr>
            <ns3:cad>0</ns3:cad>
          </ns3:TrackPointExtension>
        </extensions>
      </trkpt>
      <trkpt lat="43.778728879988193511962890625" lon="1.56694826669991016387939453125">
        <ele>136.399993896484375</ele>
        <time>2026-08-13T09:12:49.000Z</time>
        <extensions>
          <ns3:TrackPointExtension>
            <ns3:hr>68</ns3:hr>
            <ns3:cad>0</ns3:cad>
          </ns3:TrackPointExtension>
        </extensions>
      </trkpt>
      <trkpt lat="43.77872510813176631927490234375" lon="1.56694994308054447174072265625">
        <ele>136.399993896484375</ele>
        <time>2026-08-13T09:12:50.000Z</time>
        <extensions>
          <ns3:TrackPointExtension>
            <ns3:hr>69</ns3:hr>
            <ns3:cad>0</ns3:cad>
          </ns3:TrackPointExtension>
        </extensions>
      </trkpt>
      <trkpt lat="43.778718821704387664794921875" lon="1.5669520385563373565673828125">
        <ele>136.399993896484375</ele>
        <time>2026-08-13T09:12:51.000Z</time>
        <extensions>
          <ns3:TrackPointExtension>
            <ns3:hr>69</ns3:hr>
            <ns3:cad>0</ns3:cad>
          </ns3:TrackPointExtension>
        </extensions>
      </trkpt>
      <trkpt lat="43.77871421165764331817626953125" lon="1.56695094890892505645751953125">
        <ele>136.399993896484375</ele>
        <time>2026-08-13T09:12:52.000Z</time>
        <extensions>
          <ns3:TrackPointExtension>
            <ns3:hr>71</ns3:hr>
            <ns3:cad>0</ns3:cad>
          </ns3:TrackPointExtension>
        </extensions>
      </trkpt>
      <trkpt lat="43.77870650030672550201416015625" lon="1.5669513680040836334228515625">
        <ele>136.399993896484375</ele>
        <time>2026-08-13T09:12:53.000Z</time>
        <extensions>
          <ns3:TrackPointExtension>
            <ns3:hr>73</ns3:hr>
            <ns3:cad>0</ns3:cad>
          </ns3:TrackPointExtension>
        </extensions>
      </trkpt>
      <trkpt lat="43.7787015549838542938232421875" lon="1.5669513680040836334228515625">
        <ele>136.600006103515625</ele>
        <time>2026-08-13T09:12:54.000Z</time>
        <extensions>
          <ns3:TrackPointExtension>
            <ns3:hr>74</ns3:hr>
            <ns3:cad>0</ns3:cad>
          </ns3:TrackPointExtension>
        </extensions>
      </trkpt>
      <trkpt lat="43.77869359217584133148193359375" lon="1.5669500268995761871337890625">
        <ele>136.600006103515625</ele>
        <time>2026-08-13T09:12:55.000Z</time>
        <extensions>
          <ns3:TrackPointExtension>
            <ns3:hr>74</ns3:hr>
            <ns3:cad>0</ns3:cad>
          </ns3:TrackPointExtension>
        </extensions>
      </trkpt>
      <trkpt lat="43.77868806011974811553955078125" lon="1.5669493563473224639892578125">
        <ele>136.600006103515625</ele>
        <time>2026-08-13T09:12:56.000Z</time>
        <extensions>
          <ns3:TrackPointExtension>
            <ns3:hr>74</ns3:hr>
            <ns3:cad>0</ns3:cad>
          </ns3:TrackPointExtension>
        </extensions>
      </trkpt>
      <trkpt lat="43.77868202514946460723876953125" lon="1.56694759614765644073486328125">
        <ele>136.600006103515625</ele>
        <time>2026-08-13T09:12:57.000Z</time>
        <extensions>
          <ns3:TrackPointExtension>
            <ns3:hr>74</ns3:hr>
            <ns3:cad>0</ns3:cad>
          </ns3:TrackPointExtension>
        </extensions>
      </trkpt>
      <trkpt lat="43.77867498435080051422119140625" lon="1.566946506500244140625">
        <ele>136.600006103515625</ele>
        <time>2026-08-13T09:12:58.000Z</time>
        <extensions>
          <ns3:TrackPointExtension>
            <ns3:hr>75</ns3:hr>
            <ns3:cad>70</ns3:cad>
          </ns3:TrackPointExtension>
        </extensions>
      </trkpt>
      <trkpt lat="43.77866408787667751312255859375" lon="1.5669466741383075714111328125">
        <ele>136.600006103515625</ele>
        <time>2026-08-13T09:12:59.000Z</time>
        <extensions>
          <ns3:TrackPointExtension>
            <ns3:hr>75</ns3:hr>
            <ns3:cad>70</ns3:cad>
          </ns3:TrackPointExtension>
        </extensions>
      </trkpt>
      <trkpt lat="43.77865319140255451202392578125" lon="1.5669456683099269866943359375">
        <ele>136.600006103515625</ele>
        <time>2026-08-13T09:13:00.000Z</time>
        <extensions>
          <ns3:TrackPointExtension>
            <ns3:hr>75</ns3:hr>
            <ns3:cad>70</ns3:cad>
          </ns3:TrackPointExtension>
        </extensions>
      </trkpt>
      <trkpt lat="43.77864279784262180328369140625" lon="1.56694474630057811737060546875">
        <ele>136.600006103515625</ele>
        <time>2026-08-13T09:13:01.000Z</time>
        <extensions>
          <ns3:TrackPointExtension>
            <ns3:hr>75</ns3:hr>
            <ns3:cad>76</ns3:cad>
          </ns3:TrackPointExtension>
        </extensions>
      </trkpt>
      <trkpt lat="43.7786333262920379638671875" lon="1.566940806806087493896484375">
        <ele>136.600006103515625</ele>
        <time>2026-08-13T09:13:02.000Z</time>
        <extensions>
          <ns3:TrackPointExtension>
            <ns3:hr>75</ns3:hr>
            <ns3:cad>76</ns3:cad>
          </ns3:TrackPointExtension>
        </extensions>
      </trkpt>
      <trkpt lat="43.77862134017050266265869140625" lon="1.5669386275112628936767578125">
        <ele>136.8000030517578125</ele>
        <time>2026-08-13T09:13:03.000Z</time>
        <extensions>
          <ns3:TrackPointExtension>
            <ns3:hr>75</ns3:hr>
            <ns3:cad>0</ns3:cad>
          </ns3:TrackPointExtension>
        </extensions>
      </trkpt>
      <trkpt lat="43.77861279062926769256591796875" lon="1.56693452037870883941650390625">
        <ele>136.8000030517578125</ele>
        <time>2026-08-13T09:13:04.000Z</time>
        <extensions>
          <ns3:TrackPointExtension>
            <ns3:hr>75</ns3:hr>
            <ns3:cad>43</ns3:cad>
          </ns3:TrackPointExtension>
        </extensions>
      </trkpt>
      <trkpt lat="43.7786046601831912994384765625" lon="1.56693301163613796234130859375">
        <ele>136.8000030517578125</ele>
        <time>2026-08-13T09:13:05.000Z</time>
        <extensions>
          <ns3:TrackPointExtension>
            <ns3:hr>75</ns3:hr>
            <ns3:cad>43</ns3:cad>
          </ns3:TrackPointExtension>
        </extensions>
      </trkpt>
      <trkpt lat="43.7785935960710048675537109375" lon="1.56693099997937679290771484375">
        <ele>136.8000030517578125</ele>
        <time>2026-08-13T09:13:06.000Z</time>
        <extensions>
          <ns3:TrackPointExtension>
            <ns3:hr>76</ns3:hr>
            <ns3:cad>44</ns3:cad>
          </ns3:TrackPointExtension>
        </extensions>
      </trkpt>
      <trkpt lat="43.7785872258245944976806640625" lon="1.5669289045035839080810546875">
        <ele>137</ele>
        <time>2026-08-13T09:13:07.000Z</time>
        <extensions>
          <ns3:TrackPointExtension>
            <ns3:hr>76</ns3:hr>
            <ns3:cad>44</ns3:cad>
          </ns3:TrackPointExtension>
        </extensions>
      </trkpt>
      <trkpt lat="43.77858295105397701263427734375" lon="1.56692597083747386932373046875">
        <ele>137</ele>
        <time>2026-08-13T09:13:08.000Z</time>
        <extensions>
          <ns3:TrackPointExtension>
            <ns3:hr>76</ns3:hr>
            <ns3:cad>44</ns3:cad>
          </ns3:TrackPointExtension>
        </extensions>
      </trkpt>
      <trkpt lat="43.77856551669538021087646484375" lon="1.56693183816969394683837890625">
        <ele>137</ele>
        <time>2026-08-13T09:13:09.000Z</time>
        <extensions>
          <ns3:TrackPointExtension>
            <ns3:hr>76</ns3:hr>
            <ns3:cad>43</ns3:cad>
          </ns3:TrackPointExtension>
        </extensions>
      </trkpt>
      <trkpt lat="43.77855713479220867156982421875" lon="1.566934771835803985595703125">
        <ele>137</ele>
        <time>2026-08-13T09:13:10.000Z</time>
        <extensions>
          <ns3:TrackPointExtension>
            <ns3:hr>76</ns3:hr>
            <ns3:cad>42</ns3:cad>
          </ns3:TrackPointExtension>
        </extensions>
      </trkpt>
      <trkpt lat="43.7785513512790203094482421875" lon="1.56693519093096256256103515625">
        <ele>137</ele>
        <time>2026-08-13T09:13:11.000Z</time>
        <extensions>
          <ns3:TrackPointExtension>
            <ns3:hr>76</ns3:hr>
            <ns3:cad>42</ns3:cad>
          </ns3:TrackPointExtension>
        </extensions>
      </trkpt>
      <trkpt lat="43.778540790081024169921875" lon="1.56693653203547000885009765625">
        <ele>137</ele>
        <time>2026-08-13T09:13:12.000Z</time>
        <extensions>
          <ns3:TrackPointExtension>
            <ns3:hr>77</ns3:hr>
            <ns3:cad>42</ns3:cad>
          </ns3:TrackPointExtension>
        </extensions>
      </trkpt>
      <trkpt lat="43.77853115089237689971923828125" lon="1.56694239936769008636474609375">
        <ele>137</ele>
        <time>2026-08-13T09:13:13.000Z</time>
        <extensions>
          <ns3:TrackPointExtension>
            <ns3:hr>77</ns3:hr>
            <ns3:cad>0</ns3:cad>
          </ns3:TrackPointExtension>
        </extensions>
      </trkpt>
      <trkpt lat="43.7785268761217594146728515625" lon="1.56694717705249786376953125">
        <ele>137</ele>
        <time>2026-08-13T09:13:14.000Z</time>
        <extensions>
          <ns3:TrackPointExtension>
            <ns3:hr>78</ns3:hr>
            <ns3:cad>0</ns3:cad>
          </ns3:TrackPointExtension>
        </extensions>
      </trkpt>
      <trkpt lat="43.77852628938853740692138671875" lon="1.566961593925952911376953125">
        <ele>137</ele>
        <time>2026-08-13T09:13:15.000Z</time>
        <extensions>
          <ns3:TrackPointExtension>
            <ns3:hr>78</ns3:hr>
            <ns3:cad>0</ns3:cad>
          </ns3:TrackPointExtension>
        </extensions>
      </trkpt>
      <trkpt lat="43.77852360717952251434326171875" lon="1.56696670688688755035400390625">
        <ele>137</ele>
        <time>2026-08-13T09:13:16.000Z</time>
        <extensions>
          <ns3:TrackPointExtension>
            <ns3:hr>78</ns3:hr>
            <ns3:cad>0</ns3:cad>
          </ns3:TrackPointExtension>
        </extensions>
      </trkpt>
      <trkpt lat="43.7785161472856998443603515625" lon="1.56697710044682025909423828125">
        <ele>137</ele>
        <time>2026-08-13T09:13:17.000Z</time>
        <extensions>
          <ns3:TrackPointExtension>
            <ns3:hr>78</ns3:hr>
            <ns3:cad>0</ns3:cad>
          </ns3:TrackPointExtension>
        </extensions>
      </trkpt>
      <trkpt lat="43.77850650809705257415771484375" lon="1.566988416016101837158203125">
        <ele>137</ele>
        <time>2026-08-13T09:13:18.000Z</time>
        <extensions>
          <ns3:TrackPointExtension>
            <ns3:hr>79</ns3:hr>
            <ns3:cad>0</ns3:cad>
          </ns3:TrackPointExtension>
        </extensions>
      </trkpt>
      <trkpt lat="43.7784992158412933349609375" lon="1.566997468471527099609375">
        <ele>137.1999969482421875</ele>
        <time>2026-08-13T09:13:19.000Z</time>
        <extensions>
          <ns3:TrackPointExtension>
            <ns3:hr>79</ns3:hr>
            <ns3:cad>0</ns3:cad>
          </ns3:TrackPointExtension>
        </extensions>
      </trkpt>
      <trkpt lat="43.77849544398486614227294921875" lon="1.56699948012828826904296875">
        <ele>137.1999969482421875</ele>
        <time>2026-08-13T09:13:20.000Z</time>
        <extensions>
          <ns3:TrackPointExtension>
            <ns3:hr>80</ns3:hr>
            <ns3:cad>0</ns3:cad>
          </ns3:TrackPointExtension>
        </extensions>
      </trkpt>
      <trkpt lat="43.77849091775715351104736328125" lon="1.56701398082077503204345703125">
        <ele>137.1999969482421875</ele>
        <time>2026-08-13T09:13:21.000Z</time>
        <extensions>
          <ns3:TrackPointExtension>
            <ns3:hr>80</ns3:hr>
            <ns3:cad>44</ns3:cad>
          </ns3:TrackPointExtension>
        </extensions>
      </trkpt>
      <trkpt lat="43.778486140072345733642578125" lon="1.56702772714197635650634765625">
        <ele>137.1999969482421875</ele>
        <time>2026-08-13T09:13:22.000Z</time>
        <extensions>
          <ns3:TrackPointExtension>
            <ns3:hr>81</ns3:hr>
            <ns3:cad>44</ns3:cad>
          </ns3:TrackPointExtension>
        </extensions>
      </trkpt>
      <trkpt lat="43.7784819491207599639892578125" lon="1.56703761778771877288818359375">
        <ele>137.1999969482421875</ele>
        <time>2026-08-13T09:13:23.000Z</time>
        <extensions>
          <ns3:TrackPointExtension>
            <ns3:hr>81</ns3:hr>
            <ns3:cad>44</ns3:cad>
          </ns3:TrackPointExtension>
        </extensions>
      </trkpt>
      <trkpt lat="43.778476417064666748046875" lon="1.5670452453196048736572265625">
        <ele>137.1999969482421875</ele>
        <time>2026-08-13T09:13:24.000Z</time>
        <extensions>
          <ns3:TrackPointExtension>
            <ns3:hr>82</ns3:hr>
            <ns3:cad>44</ns3:cad>
          </ns3:TrackPointExtension>
        </extensions>
      </trkpt>
      <trkpt lat="43.778469376266002655029296875" lon="1.56705178320407867431640625">
        <ele>137.1999969482421875</ele>
        <time>2026-08-13T09:13:25.000Z</time>
        <extensions>
          <ns3:TrackPointExtension>
            <ns3:hr>82</ns3:hr>
            <ns3:cad>44</ns3:cad>
          </ns3:TrackPointExtension>
        </extensions>
      </trkpt>
      <trkpt lat="43.77845956943929195404052734375" lon="1.5670586563646793365478515625">
        <ele>137.1999969482421875</ele>
        <time>2026-08-13T09:13:26.000Z</time>
        <extensions>
          <ns3:TrackPointExtension>
            <ns3:hr>81</ns3:hr>
            <ns3:cad>0</ns3:cad>
          </ns3:TrackPointExtension>
        </extensions>
      </trkpt>
      <trkpt lat="43.77845034934580326080322265625" lon="1.56706678681075572967529296875">
        <ele>137.1999969482421875</ele>
        <time>2026-08-13T09:13:27.000Z</time>
        <extensions>
          <ns3:TrackPointExtension>
            <ns3:hr>81</ns3:hr>
            <ns3:cad>0</ns3:cad>
          </ns3:TrackPointExtension>
        </extensions>
      </trkpt>
      <trkpt lat="43.77844498492777347564697265625" lon="1.56707189977169036865234375">
        <ele>137.399993896484375</ele>
        <time>2026-08-13T09:13:28.000Z</time>
        <extensions>
          <ns3:TrackPointExtension>
            <ns3:hr>81</ns3:hr>
            <ns3:cad>44</ns3:cad>
          </ns3:TrackPointExtension>
        </extensions>
      </trkpt>
      <trkpt lat="43.778436519205570220947265625" lon="1.567074246704578399658203125">
        <ele>137.399993896484375</ele>
        <time>2026-08-13T09:13:29.000Z</time>
        <extensions>
          <ns3:TrackPointExtension>
            <ns3:hr>81</ns3:hr>
            <ns3:cad>44</ns3:cad>
          </ns3:TrackPointExtension>
        </extensions>
      </trkpt>
      <trkpt lat="43.778426460921764373779296875" lon="1.5670811198651790618896484375">
        <ele>137.399993896484375</ele>
        <time>2026-08-13T09:13:30.000Z</time>
        <extensions>
          <ns3:TrackPointExtension>
            <ns3:hr>81</ns3:hr>
            <ns3:cad>48</ns3:cad>
          </ns3:TrackPointExtension>
        </extensions>
      </trkpt>
      <trkpt lat="43.778417743742465972900390625" lon="1.5670900046825408935546875">
        <ele>137.399993896484375</ele>
        <time>2026-08-13T09:13:31.000Z</time>
        <extensions>
          <ns3:TrackPointExtension>
            <ns3:hr>82</ns3:hr>
            <ns3:cad>48</ns3:cad>
          </ns3:TrackPointExtension>
        </extensions>
      </trkpt>
      <trkpt lat="43.7784112058579921722412109375" lon="1.567096710205078125">
        <ele>137.399993896484375</ele>
        <time>2026-08-13T09:13:32.000Z</time>
        <extensions>
          <ns3:TrackPointExtension>
            <ns3:hr>82</ns3:hr>
            <ns3:cad>48</ns3:cad>
          </ns3:TrackPointExtension>
        </extensions>
      </trkpt>
      <trkpt lat="43.778405003249645233154296875" lon="1.5671035833656787872314453125">
        <ele>137.600006103515625</ele>
        <time>2026-08-13T09:13:33.000Z</time>
        <extensions>
          <ns3:TrackPointExtension>
            <ns3:hr>82</ns3:hr>
            <ns3:cad>48</ns3:cad>
          </ns3:TrackPointExtension>
        </extensions>
      </trkpt>
      <trkpt lat="43.7783927656710147857666015625" lon="1.56711347401142120361328125">
        <ele>137.600006103515625</ele>
        <time>2026-08-13T09:13:34.000Z</time>
        <extensions>
          <ns3:TrackPointExtension>
            <ns3:hr>84</ns3:hr>
            <ns3:cad>46</ns3:cad>
          </ns3:TrackPointExtension>
        </extensions>
      </trkpt>
      <trkpt lat="43.77838547341525554656982421875" lon="1.56712227500975131988525390625">
        <ele>137.600006103515625</ele>
        <time>2026-08-13T09:13:35.000Z</time>
        <extensions>
          <ns3:TrackPointExtension>
            <ns3:hr>85</ns3:hr>
            <ns3:cad>46</ns3:cad>
          </ns3:TrackPointExtension>
        </extensions>
      </trkpt>
      <trkpt lat="43.77837918698787689208984375" lon="1.56712411902844905853271484375">
        <ele>137.600006103515625</ele>
        <time>2026-08-13T09:13:36.000Z</time>
        <extensions>
          <ns3:TrackPointExtension>
            <ns3:hr>85</ns3:hr>
            <ns3:cad>45</ns3:cad>
          </ns3:TrackPointExtension>
        </extensions>
      </trkpt>
      <trkpt lat="43.77837189473211765289306640625" lon="1.56712998636066913604736328125">
        <ele>137.600006103515625</ele>
        <time>2026-08-13T09:13:37.000Z</time>
        <extensions>
          <ns3:TrackPointExtension>
            <ns3:hr>85</ns3:hr>
            <ns3:cad>0</ns3:cad>
          </ns3:TrackPointExtension>
        </extensions>
      </trkpt>
      <trkpt lat="43.77835999242961406707763671875" lon="1.5671394579112529754638671875">
        <ele>137.600006103515625</ele>
        <time>2026-08-13T09:13:38.000Z</time>
        <extensions>
          <ns3:TrackPointExtension>
            <ns3:hr>85</ns3:hr>
            <ns3:cad>0</ns3:cad>
          </ns3:TrackPointExtension>
        </extensions>
      </trkpt>
      <trkpt lat="43.7783518619835376739501953125" lon="1.56714624725282192230224609375">
        <ele>137.600006103515625</ele>
        <time>2026-08-13T09:13:39.000Z</time>
        <extensions>
          <ns3:TrackPointExtension>
            <ns3:hr>85</ns3:hr>
            <ns3:cad>0</ns3:cad>
          </ns3:TrackPointExtension>
        </extensions>
      </trkpt>
      <trkpt lat="43.7783451564610004425048828125" lon="1.567153371870517730712890625">
        <ele>137.600006103515625</ele>
        <time>2026-08-13T09:13:40.000Z</time>
        <extensions>
          <ns3:TrackPointExtension>
            <ns3:hr>85</ns3:hr>
            <ns3:cad>0</ns3:cad>
          </ns3:TrackPointExtension>
        </extensions>
      </trkpt>
      <trkpt lat="43.77833493053913116455078125" lon="1.56716200523078441619873046875">
        <ele>137.600006103515625</ele>
        <time>2026-08-13T09:13:41.000Z</time>
        <extensions>
          <ns3:TrackPointExtension>
            <ns3:hr>85</ns3:hr>
            <ns3:cad>0</ns3:cad>
          </ns3:TrackPointExtension>
        </extensions>
      </trkpt>
      <trkpt lat="43.7783260457217693328857421875" lon="1.5671706385910511016845703125">
        <ele>137.8000030517578125</ele>
        <time>2026-08-13T09:13:42.000Z</time>
        <extensions>
          <ns3:TrackPointExtension>
            <ns3:hr>85</ns3:hr>
            <ns3:cad>0</ns3:cad>
          </ns3:TrackPointExtension>
        </extensions>
      </trkpt>
      <trkpt lat="43.77831942401826381683349609375" lon="1.5671770088374614715576171875">
        <ele>137.8000030517578125</ele>
        <time>2026-08-13T09:13:43.000Z</time>
        <extensions>
          <ns3:TrackPointExtension>
            <ns3:hr>85</ns3:hr>
            <ns3:cad>41</ns3:cad>
          </ns3:TrackPointExtension>
        </extensions>
      </trkpt>
      <trkpt lat="43.77831808291375637054443359375" lon="1.56718262471258640289306640625">
        <ele>137.8000030517578125</ele>
        <time>2026-08-13T09:13:44.000Z</time>
        <extensions>
          <ns3:TrackPointExtension>
            <ns3:hr>85</ns3:hr>
            <ns3:cad>41</ns3:cad>
          </ns3:TrackPointExtension>
        </extensions>
      </trkpt>
      <trkpt lat="43.77831204794347286224365234375" lon="1.56719033606350421905517578125">
        <ele>137.8000030517578125</ele>
        <time>2026-08-13T09:13:45.000Z</time>
        <extensions>
          <ns3:TrackPointExtension>
            <ns3:hr>85</ns3:hr>
            <ns3:cad>41</ns3:cad>
          </ns3:TrackPointExtension>
        </extensions>
      </trkpt>
      <trkpt lat="43.77830551005899906158447265625" lon="1.56719838269054889678955078125">
        <ele>137.8000030517578125</ele>
        <time>2026-08-13T09:13:46.000Z</time>
        <extensions>
          <ns3:TrackPointExtension>
            <ns3:hr>86</ns3:hr>
            <ns3:cad>43</ns3:cad>
          </ns3:TrackPointExtension>
        </extensions>
      </trkpt>
      <trkpt lat="43.77829863689839839935302734375" lon="1.56720810569822788238525390625">
        <ele>137.8000030517578125</ele>
        <time>2026-08-13T09:13:47.000Z</time>
        <extensions>
          <ns3:TrackPointExtension>
            <ns3:hr>85</ns3:hr>
            <ns3:cad>43</ns3:cad>
          </ns3:TrackPointExtension>
        </extensions>
      </trkpt>
      <trkpt lat="43.77828874625265598297119140625" lon="1.56722076237201690673828125">
        <ele>137.8000030517578125</ele>
        <time>2026-08-13T09:13:48.000Z</time>
        <extensions>
          <ns3:TrackPointExtension>
            <ns3:hr>86</ns3:hr>
            <ns3:cad>43</ns3:cad>
          </ns3:TrackPointExtension>
        </extensions>
      </trkpt>
      <trkpt lat="43.7782777659595012664794921875" lon="1.56722889281809329986572265625">
        <ele>137.8000030517578125</ele>
        <time>2026-08-13T09:13:49.000Z</time>
        <extensions>
          <ns3:TrackPointExtension>
            <ns3:hr>86</ns3:hr>
            <ns3:cad>43</ns3:cad>
          </ns3:TrackPointExtension>
        </extensions>
      </trkpt>
      <trkpt lat="43.778266198933124542236328125" lon="1.56723375432193279266357421875">
        <ele>138</ele>
        <time>2026-08-13T09:13:50.000Z</time>
        <extensions>
          <ns3:TrackPointExtension>
            <ns3:hr>86</ns3:hr>
            <ns3:cad>0</ns3:cad>
          </ns3:TrackPointExtension>
        </extensions>
      </trkpt>
      <trkpt lat="43.778265528380870819091796875" lon="1.56722746789455413818359375">
        <ele>138</ele>
        <time>2026-08-13T09:13:51.000Z</time>
        <extensions>
          <ns3:TrackPointExtension>
            <ns3:hr>86</ns3:hr>
            <ns3:cad>0</ns3:cad>
          </ns3:TrackPointExtension>
        </extensions>
      </trkpt>
      <trkpt lat="43.77826091833412647247314453125" lon="1.56723073683679103851318359375">
        <ele>138</ele>
        <time>2026-08-13T09:13:52.000Z</time>
        <extensions>
          <ns3:TrackPointExtension>
            <ns3:hr>86</ns3:hr>
            <ns3:cad>0</ns3:cad>
          </ns3:TrackPointExtension>
        </extensions>
      </trkpt>
      <trkpt lat="43.77825857140123844146728515625" lon="1.56723392195999622344970703125">
        <ele>138</ele>
        <time>2026-08-13T09:13:53.000Z</time>
        <extensions>
          <ns3:TrackPointExtension>
            <ns3:hr>86</ns3:hr>
            <ns3:cad>0</ns3:cad>
          </ns3:TrackPointExtension>
        </extensions>
      </trkpt>
      <trkpt lat="43.77825890667736530303955078125" lon="1.56723626889288425445556640625">
        <ele>138</ele>
        <time>2026-08-13T09:13:54.000Z</time>
        <extensions>
          <ns3:TrackPointExtension>
            <ns3:hr>87</ns3:hr>
            <ns3:cad>0</ns3:cad>
          </ns3:TrackPointExtension>
        </extensions>
      </trkpt>
      <trkpt lat="43.77825505100190639495849609375" lon="1.567238532006740570068359375">
        <ele>137.8000030517578125</ele>
        <time>2026-08-13T09:13:55.000Z</time>
        <extensions>
          <ns3:TrackPointExtension>
            <ns3:hr>87</ns3:hr>
            <ns3:cad>0</ns3:cad>
          </ns3:TrackPointExtension>
        </extensions>
      </trkpt>
      <trkpt lat="43.77824985422194004058837890625" lon="1.56724222004413604736328125">
        <ele>137.8000030517578125</ele>
        <time>2026-08-13T09:13:56.000Z</time>
        <extensions>
          <ns3:TrackPointExtension>
            <ns3:hr>87</ns3:hr>
            <ns3:cad>0</ns3:cad>
          </ns3:TrackPointExtension>
        </extensions>
      </trkpt>
      <trkpt lat="43.77824373543262481689453125" lon="1.56724532134830951690673828125">
        <ele>137.8000030517578125</ele>
        <time>2026-08-13T09:13:57.000Z</time>
        <extensions>
          <ns3:TrackPointExtension>
            <ns3:hr>87</ns3:hr>
            <ns3:cad>68</ns3:cad>
          </ns3:TrackPointExtension>
        </extensions>
      </trkpt>
      <trkpt lat="43.7782385386526584625244140625" lon="1.567250601947307586669921875">
        <ele>137.8000030517578125</ele>
        <time>2026-08-13T09:13:58.000Z</time>
        <extensions>
          <ns3:TrackPointExtension>
            <ns3:hr>87</ns3:hr>
            <ns3:cad>68</ns3:cad>
          </ns3:TrackPointExtension>
        </extensions>
      </trkpt>
      <trkpt lat="43.77823024056851863861083984375" lon="1.567260660231113433837890625">
        <ele>138</ele>
        <time>2026-08-13T09:13:59.000Z</time>
        <extensions>
          <ns3:TrackPointExtension>
            <ns3:hr>87</ns3:hr>
            <ns3:cad>68</ns3:cad>
          </ns3:TrackPointExtension>
        </extensions>
      </trkpt>
      <trkpt lat="43.77822252921760082244873046875" lon="1.56727130524814128875732421875">
        <ele>138</ele>
        <time>2026-08-13T09:14:00.000Z</time>
        <extensions>
          <ns3:TrackPointExtension>
            <ns3:hr>87</ns3:hr>
            <ns3:cad>68</ns3:cad>
          </ns3:TrackPointExtension>
        </extensions>
      </trkpt>
      <trkpt lat="43.77821515314280986785888671875" lon="1.56727977097034454345703125">
        <ele>138.1999969482421875</ele>
        <time>2026-08-13T09:14:01.000Z</time>
        <extensions>
          <ns3:TrackPointExtension>
            <ns3:hr>87</ns3:hr>
            <ns3:cad>70</ns3:cad>
          </ns3:TrackPointExtension>
        </extensions>
      </trkpt>
      <trkpt lat="43.77820576541125774383544921875" lon="1.56728379428386688232421875">
        <ele>138.1999969482421875</ele>
        <time>2026-08-13T09:14:02.000Z</time>
        <extensions>
          <ns3:TrackPointExtension>
            <ns3:hr>87</ns3:hr>
            <ns3:cad>70</ns3:cad>
          </ns3:TrackPointExtension>
        </extensions>
      </trkpt>
      <trkpt lat="43.7781999818980693817138671875" lon="1.5672893263399600982666015625">
        <ele>138.1999969482421875</ele>
        <time>2026-08-13T09:14:03.000Z</time>
        <extensions>
          <ns3:TrackPointExtension>
            <ns3:hr>87</ns3:hr>
            <ns3:cad>70</ns3:cad>
          </ns3:TrackPointExtension>
        </extensions>
      </trkpt>
      <trkpt lat="43.77818950451910495758056640625" lon="1.56729913316667079925537109375">
        <ele>138.1999969482421875</ele>
        <time>2026-08-13T09:14:04.000Z</time>
        <extensions>
          <ns3:TrackPointExtension>
            <ns3:hr>87</ns3:hr>
            <ns3:cad>70</ns3:cad>
          </ns3:TrackPointExtension>
        </extensions>
      </trkpt>
      <trkpt lat="43.77818196080625057220458984375" lon="1.5673057548701763153076171875">
        <ele>138.399993896484375</ele>
        <time>2026-08-13T09:14:05.000Z</time>
        <extensions>
          <ns3:TrackPointExtension>
            <ns3:hr>87</ns3:hr>
            <ns3:cad>70</ns3:cad>
          </ns3:TrackPointExtension>
        </extensions>
      </trkpt>
      <trkpt lat="43.77818196080625057220458984375" lon="1.5673054195940494537353515625">
        <ele>138.399993896484375</ele>
        <time>2026-08-13T09:14:06.000Z</time>
        <extensions>
          <ns3:TrackPointExtension>
            <ns3:hr>88</ns3:hr>
            <ns3:cad>41</ns3:cad>
          </ns3:TrackPointExtension>
        </extensions>
      </trkpt>
      <trkpt lat="43.77816586755216121673583984375" lon="1.56730919145047664642333984375">
        <ele>138.399993896484375</ele>
        <time>2026-08-13T09:14:07.000Z</time>
        <extensions>
          <ns3:TrackPointExtension>
            <ns3:hr>87</ns3:hr>
            <ns3:cad>40</ns3:cad>
          </ns3:TrackPointExtension>
        </extensions>
      </trkpt>
      <trkpt lat="43.77815916202962398529052734375" lon="1.56731187365949153900146484375">
        <ele>138.399993896484375</ele>
        <time>2026-08-13T09:14:08.000Z</time>
        <extensions>
          <ns3:TrackPointExtension>
            <ns3:hr>87</ns3:hr>
            <ns3:cad>40</ns3:cad>
          </ns3:TrackPointExtension>
        </extensions>
      </trkpt>
      <trkpt lat="43.77815597690641880035400390625" lon="1.56731857918202877044677734375">
        <ele>138.399993896484375</ele>
        <time>2026-08-13T09:14:09.000Z</time>
        <extensions>
          <ns3:TrackPointExtension>
            <ns3:hr>87</ns3:hr>
            <ns3:cad>40</ns3:cad>
          </ns3:TrackPointExtension>
        </extensions>
      </trkpt>
      <trkpt lat="43.77814457751810550689697265625" lon="1.56732947565615177154541015625">
        <ele>138.600006103515625</ele>
        <time>2026-08-13T09:14:10.000Z</time>
        <extensions>
          <ns3:TrackPointExtension>
            <ns3:hr>88</ns3:hr>
            <ns3:cad>42</ns3:cad>
          </ns3:TrackPointExtension>
        </extensions>
      </trkpt>
      <trkpt lat="43.77813954837620258331298828125" lon="1.5673449821770191192626953125">
        <ele>138.600006103515625</ele>
        <time>2026-08-13T09:14:11.000Z</time>
        <extensions>
          <ns3:TrackPointExtension>
            <ns3:hr>88</ns3:hr>
            <ns3:cad>42</ns3:cad>
          </ns3:TrackPointExtension>
        </extensions>
      </trkpt>
      <trkpt lat="43.77813183702528476715087890625" lon="1.56735193915665149688720703125">
        <ele>138.600006103515625</ele>
        <time>2026-08-13T09:14:12.000Z</time>
        <extensions>
          <ns3:TrackPointExtension>
            <ns3:hr>88</ns3:hr>
            <ns3:cad>73</ns3:cad>
          </ns3:TrackPointExtension>
        </extensions>
      </trkpt>
      <trkpt lat="43.7781258858740329742431640625" lon="1.567355878651142120361328125">
        <ele>138.8000030517578125</ele>
        <time>2026-08-13T09:14:13.000Z</time>
        <extensions>
          <ns3:TrackPointExtension>
            <ns3:hr>88</ns3:hr>
            <ns3:cad>73</ns3:cad>
          </ns3:TrackPointExtension>
        </extensions>
      </trkpt>
      <trkpt lat="43.7781156599521636962890625" lon="1.56736099161207675933837890625">
        <ele>138.8000030517578125</ele>
        <time>2026-08-13T09:14:14.000Z</time>
        <extensions>
          <ns3:TrackPointExtension>
            <ns3:hr>88</ns3:hr>
            <ns3:cad>73</ns3:cad>
          </ns3:TrackPointExtension>
        </extensions>
      </trkpt>
      <trkpt lat="43.77810551784932613372802734375" lon="1.567367613315582275390625">
        <ele>138.8000030517578125</ele>
        <time>2026-08-13T09:14:15.000Z</time>
        <extensions>
          <ns3:TrackPointExtension>
            <ns3:hr>88</ns3:hr>
            <ns3:cad>73</ns3:cad>
          </ns3:TrackPointExtension>
        </extensions>
      </trkpt>
      <trkpt lat="43.77809328027069568634033203125" lon="1.56737775541841983795166015625">
        <ele>138.8000030517578125</ele>
        <time>2026-08-13T09:14:16.000Z</time>
        <extensions>
          <ns3:TrackPointExtension>
            <ns3:hr>88</ns3:hr>
            <ns3:cad>73</ns3:cad>
          </ns3:TrackPointExtension>
        </extensions>
      </trkpt>
      <trkpt lat="43.77808607183396816253662109375" lon="1.56738295219838619232177734375">
        <ele>138.600006103515625</ele>
        <time>2026-08-13T09:14:17.000Z</time>
        <extensions>
          <ns3:TrackPointExtension>
            <ns3:hr>88</ns3:hr>
            <ns3:cad>73</ns3:cad>
          </ns3:TrackPointExtension>
        </extensions>
      </trkpt>
      <trkpt lat="43.77807685174047946929931640625" lon="1.5673949383199214935302734375">
        <ele>138.600006103515625</ele>
        <time>2026-08-13T09:14:18.000Z</time>
        <extensions>
          <ns3:TrackPointExtension>
            <ns3:hr>88</ns3:hr>
            <ns3:cad>73</ns3:cad>
          </ns3:TrackPointExtension>
        </extensions>
      </trkpt>
      <trkpt lat="43.77806880511343479156494140625" lon="1.5673969499766826629638671875">
        <ele>138.8000030517578125</ele>
        <time>2026-08-13T09:14:19.000Z</time>
        <extensions>
          <ns3:TrackPointExtension>
            <ns3:hr>88</ns3:hr>
            <ns3:cad>0</ns3:cad>
          </ns3:TrackPointExtension>
        </extensions>
      </trkpt>
      <trkpt lat="43.778063692152500152587890625" lon="1.56740206293761730194091796875">
        <ele>138.8000030517578125</ele>
        <time>2026-08-13T09:14:20.000Z</time>
        <extensions>
          <ns3:TrackPointExtension>
            <ns3:hr>87</ns3:hr>
            <ns3:cad>0</ns3:cad>
          </ns3:TrackPointExtension>
        </extensions>
      </trkpt>
      <trkpt lat="43.7780635245144367218017578125" lon="1.56740239821374416351318359375">
        <ele>139</ele>
        <time>2026-08-13T09:14:21.000Z</time>
        <extensions>
          <ns3:TrackPointExtension>
            <ns3:hr>88</ns3:hr>
            <ns3:cad>41</ns3:cad>
          </ns3:TrackPointExtension>
        </extensions>
      </trkpt>
      <trkpt lat="43.77805388532578945159912109375" lon="1.56741295941174030303955078125">
        <ele>139</ele>
        <time>2026-08-13T09:14:22.000Z</time>
        <extensions>
          <ns3:TrackPointExtension>
            <ns3:hr>88</ns3:hr>
            <ns3:cad>43</ns3:cad>
          </ns3:TrackPointExtension>
        </extensions>
      </trkpt>
      <trkpt lat="43.77804500050842761993408203125" lon="1.56742184422910213470458984375">
        <ele>139</ele>
        <time>2026-08-13T09:14:23.000Z</time>
        <extensions>
          <ns3:TrackPointExtension>
            <ns3:hr>88</ns3:hr>
            <ns3:cad>43</ns3:cad>
          </ns3:TrackPointExtension>
        </extensions>
      </trkpt>
      <trkpt lat="43.77803049981594085693359375" lon="1.56743274070322513580322265625">
        <ele>139</ele>
        <time>2026-08-13T09:14:24.000Z</time>
        <extensions>
          <ns3:TrackPointExtension>
            <ns3:hr>88</ns3:hr>
            <ns3:cad>43</ns3:cad>
          </ns3:TrackPointExtension>
        </extensions>
      </trkpt>
      <trkpt lat="43.778027482330799102783203125" lon="1.567437350749969482421875">
        <ele>139.1999969482421875</ele>
        <time>2026-08-13T09:14:25.000Z</time>
        <extensions>
          <ns3:TrackPointExtension>
            <ns3:hr>89</ns3:hr>
            <ns3:cad>42</ns3:cad>
          </ns3:TrackPointExtension>
        </extensions>
      </trkpt>
      <trkpt lat="43.77801985479891300201416015625" lon="1.56744380481541156768798828125">
        <ele>139.1999969482421875</ele>
        <time>2026-08-13T09:14:26.000Z</time>
        <extensions>
          <ns3:TrackPointExtension>
            <ns3:hr>89</ns3:hr>
            <ns3:cad>42</ns3:cad>
          </ns3:TrackPointExtension>
        </extensions>
      </trkpt>
      <trkpt lat="43.77802002243697643280029296875" lon="1.56744598411023616790771484375">
        <ele>139.1999969482421875</ele>
        <time>2026-08-13T09:14:27.000Z</time>
        <extensions>
          <ns3:TrackPointExtension>
            <ns3:hr>89</ns3:hr>
            <ns3:cad>42</ns3:cad>
          </ns3:TrackPointExtension>
        </extensions>
      </trkpt>
      <trkpt lat="43.77801013179123401641845703125" lon="1.567458473145961761474609375">
        <ele>139.1999969482421875</ele>
        <time>2026-08-13T09:14:28.000Z</time>
        <extensions>
          <ns3:TrackPointExtension>
            <ns3:hr>89</ns3:hr>
            <ns3:cad>42</ns3:cad>
          </ns3:TrackPointExtension>
        </extensions>
      </trkpt>
      <trkpt lat="43.77799990586936473846435546875" lon="1.5674713812768459320068359375">
        <ele>139.1999969482421875</ele>
        <time>2026-08-13T09:14:29.000Z</time>
        <extensions>
          <ns3:TrackPointExtension>
            <ns3:hr>89</ns3:hr>
            <ns3:cad>42</ns3:cad>
          </ns3:TrackPointExtension>
        </extensions>
      </trkpt>
      <trkpt lat="43.777991943061351776123046875" lon="1.56747825443744659423828125">
        <ele>139.1999969482421875</ele>
        <time>2026-08-13T09:14:30.000Z</time>
        <extensions>
          <ns3:TrackPointExtension>
            <ns3:hr>89</ns3:hr>
            <ns3:cad>42</ns3:cad>
          </ns3:TrackPointExtension>
        </extensions>
      </trkpt>
      <trkpt lat="43.7779867462813854217529296875" lon="1.56747900880873203277587890625">
        <ele>139.1999969482421875</ele>
        <time>2026-08-13T09:14:31.000Z</time>
        <extensions>
          <ns3:TrackPointExtension>
            <ns3:hr>89</ns3:hr>
            <ns3:cad>42</ns3:cad>
          </ns3:TrackPointExtension>
        </extensions>
      </trkpt>
      <trkpt lat="43.77797325141727924346923828125" lon="1.56748755834996700286865234375">
        <ele>139.1999969482421875</ele>
        <time>2026-08-13T09:14:32.000Z</time>
        <extensions>
          <ns3:TrackPointExtension>
            <ns3:hr>88</ns3:hr>
            <ns3:cad>42</ns3:cad>
          </ns3:TrackPointExtension>
        </extensions>
      </trkpt>
      <trkpt lat="43.77796453423798084259033203125" lon="1.56749879010021686553955078125">
        <ele>139.399993896484375</ele>
        <time>2026-08-13T09:14:33.000Z</time>
        <extensions>
          <ns3:TrackPointExtension>
            <ns3:hr>87</ns3:hr>
            <ns3:cad>44</ns3:cad>
          </ns3:TrackPointExtension>
        </extensions>
      </trkpt>
      <trkpt lat="43.77795732580125331878662109375" lon="1.56750163994729518890380859375">
        <ele>139.399993896484375</ele>
        <time>2026-08-13T09:14:34.000Z</time>
        <extensions>
          <ns3:TrackPointExtension>
            <ns3:hr>86</ns3:hr>
            <ns3:cad>44</ns3:cad>
          </ns3:TrackPointExtension>
        </extensions>
      </trkpt>
      <trkpt lat="43.77795212902128696441650390625" lon="1.5675069205462932586669921875">
        <ele>139.399993896484375</ele>
        <time>2026-08-13T09:14:35.000Z</time>
        <extensions>
          <ns3:TrackPointExtension>
            <ns3:hr>85</ns3:hr>
            <ns3:cad>44</ns3:cad>
          </ns3:TrackPointExtension>
        </extensions>
      </trkpt>
      <trkpt lat="43.77793888561427593231201171875" lon="1.56752108596265316009521484375">
        <ele>139.399993896484375</ele>
        <time>2026-08-13T09:14:36.000Z</time>
        <extensions>
          <ns3:TrackPointExtension>
            <ns3:hr>85</ns3:hr>
            <ns3:cad>44</ns3:cad>
          </ns3:TrackPointExtension>
        </extensions>
      </trkpt>
      <trkpt lat="43.77793251536786556243896484375" lon="1.5675267018377780914306640625">
        <ele>139.399993896484375</ele>
        <time>2026-08-13T09:14:37.000Z</time>
        <extensions>
          <ns3:TrackPointExtension>
            <ns3:hr>85</ns3:hr>
            <ns3:cad>44</ns3:cad>
          </ns3:TrackPointExtension>
        </extensions>
      </trkpt>
      <trkpt lat="43.77792363055050373077392578125" lon="1.56753416173160076141357421875">
        <ele>139.600006103515625</ele>
        <time>2026-08-13T09:14:38.000Z</time>
        <extensions>
          <ns3:TrackPointExtension>
            <ns3:hr>84</ns3:hr>
            <ns3:cad>45</ns3:cad>
          </ns3:TrackPointExtension>
        </extensions>
      </trkpt>
      <trkpt lat="43.77791893668472766876220703125" lon="1.56754589639604091644287109375">
        <ele>139.600006103515625</ele>
        <time>2026-08-13T09:14:39.000Z</time>
        <extensions>
          <ns3:TrackPointExtension>
            <ns3:hr>84</ns3:hr>
            <ns3:cad>45</ns3:cad>
          </ns3:TrackPointExtension>
        </extensions>
      </trkpt>
      <trkpt lat="43.77790837548673152923583984375" lon="1.5675593912601470947265625">
        <ele>139.600006103515625</ele>
        <time>2026-08-13T09:14:40.000Z</time>
        <extensions>
          <ns3:TrackPointExtension>
            <ns3:hr>84</ns3:hr>
            <ns3:cad>43</ns3:cad>
          </ns3:TrackPointExtension>
        </extensions>
      </trkpt>
      <trkpt lat="43.77790133468806743621826171875" lon="1.56756366603076457977294921875">
        <ele>139.600006103515625</ele>
        <time>2026-08-13T09:14:41.000Z</time>
        <extensions>
          <ns3:TrackPointExtension>
            <ns3:hr>84</ns3:hr>
            <ns3:cad>43</ns3:cad>
          </ns3:TrackPointExtension>
        </extensions>
      </trkpt>
      <trkpt lat="43.77789714373648166656494140625" lon="1.5675706230103969573974609375">
        <ele>139.600006103515625</ele>
        <time>2026-08-13T09:14:42.000Z</time>
        <extensions>
          <ns3:TrackPointExtension>
            <ns3:hr>84</ns3:hr>
            <ns3:cad>43</ns3:cad>
          </ns3:TrackPointExtension>
        </extensions>
      </trkpt>
      <trkpt lat="43.77788675017654895782470703125" lon="1.56757959164679050445556640625">
        <ele>139.600006103515625</ele>
        <time>2026-08-13T09:14:43.000Z</time>
        <extensions>
          <ns3:TrackPointExtension>
            <ns3:hr>83</ns3:hr>
            <ns3:cad>43</ns3:cad>
          </ns3:TrackPointExtension>
        </extensions>
      </trkpt>
      <trkpt lat="43.77788205631077289581298828125" lon="1.56758763827383518218994140625">
        <ele>139.8000030517578125</ele>
        <time>2026-08-13T09:14:44.000Z</time>
        <extensions>
          <ns3:TrackPointExtension>
            <ns3:hr>83</ns3:hr>
            <ns3:cad>43</ns3:cad>
          </ns3:TrackPointExtension>
        </extensions>
      </trkpt>
      <trkpt lat="43.77787627279758453369140625" lon="1.567590236663818359375">
        <ele>139.8000030517578125</ele>
        <time>2026-08-13T09:14:45.000Z</time>
        <extensions>
          <ns3:TrackPointExtension>
            <ns3:hr>83</ns3:hr>
            <ns3:cad>43</ns3:cad>
          </ns3:TrackPointExtension>
        </extensions>
      </trkpt>
      <trkpt lat="43.77786428667604923248291015625" lon="1.56759954057633876800537109375">
        <ele>139.8000030517578125</ele>
        <time>2026-08-13T09:14:46.000Z</time>
        <extensions>
          <ns3:TrackPointExtension>
            <ns3:hr>82</ns3:hr>
            <ns3:cad>43</ns3:cad>
          </ns3:TrackPointExtension>
        </extensions>
      </trkpt>
      <trkpt lat="43.77785347402095794677734375" lon="1.56760876066982746124267578125">
        <ele>139.8000030517578125</ele>
        <time>2026-08-13T09:14:47.000Z</time>
        <extensions>
          <ns3:TrackPointExtension>
            <ns3:hr>82</ns3:hr>
            <ns3:cad>43</ns3:cad>
          </ns3:TrackPointExtension>
        </extensions>
      </trkpt>
      <trkpt lat="43.7778462655842304229736328125" lon="1.56761261634528636932373046875">
        <ele>139.8000030517578125</ele>
        <time>2026-08-13T09:14:48.000Z</time>
        <extensions>
          <ns3:TrackPointExtension>
            <ns3:hr>82</ns3:hr>
            <ns3:cad>43</ns3:cad>
          </ns3:TrackPointExtension>
        </extensions>
      </trkpt>
      <trkpt lat="43.77783997915685176849365234375" lon="1.5676132030785083770751953125">
        <ele>140</ele>
        <time>2026-08-13T09:14:49.000Z</time>
        <extensions>
          <ns3:TrackPointExtension>
            <ns3:hr>82</ns3:hr>
            <ns3:cad>42</ns3:cad>
          </ns3:TrackPointExtension>
        </extensions>
      </trkpt>
      <trkpt lat="43.77782908268272876739501953125" lon="1.567624770104885101318359375">
        <ele>140</ele>
        <time>2026-08-13T09:14:50.000Z</time>
        <extensions>
          <ns3:TrackPointExtension>
            <ns3:hr>83</ns3:hr>
            <ns3:cad>42</ns3:cad>
          </ns3:TrackPointExtension>
        </extensions>
      </trkpt>
      <trkpt lat="43.77781986258924007415771484375" lon="1.56763239763677120208740234375">
        <ele>140</ele>
        <time>2026-08-13T09:14:51.000Z</time>
        <extensions>
          <ns3:TrackPointExtension>
            <ns3:hr>82</ns3:hr>
            <ns3:cad>42</ns3:cad>
          </ns3:TrackPointExtension>
        </extensions>
      </trkpt>
      <trkpt lat="43.77781215123832225799560546875" lon="1.56763876788318157196044921875">
        <ele>140</ele>
        <time>2026-08-13T09:14:52.000Z</time>
        <extensions>
          <ns3:TrackPointExtension>
            <ns3:hr>82</ns3:hr>
            <ns3:cad>44</ns3:cad>
          </ns3:TrackPointExtension>
        </extensions>
      </trkpt>
      <trkpt lat="43.777806870639324188232421875" lon="1.56764295883476734161376953125">
        <ele>140</ele>
        <time>2026-08-13T09:14:53.000Z</time>
        <extensions>
          <ns3:TrackPointExtension>
            <ns3:hr>83</ns3:hr>
            <ns3:cad>44</ns3:cad>
          </ns3:TrackPointExtension>
        </extensions>
      </trkpt>
      <trkpt lat="43.77779438160359859466552734375" lon="1.56765385530889034271240234375">
        <ele>140.1999969482421875</ele>
        <time>2026-08-13T09:14:54.000Z</time>
        <extensions>
          <ns3:TrackPointExtension>
            <ns3:hr>82</ns3:hr>
            <ns3:cad>44</ns3:cad>
          </ns3:TrackPointExtension>
        </extensions>
      </trkpt>
      <trkpt lat="43.77778775990009307861328125" lon="1.56766206957399845123291015625">
        <ele>140.1999969482421875</ele>
        <time>2026-08-13T09:14:55.000Z</time>
        <extensions>
          <ns3:TrackPointExtension>
            <ns3:hr>82</ns3:hr>
            <ns3:cad>44</ns3:cad>
          </ns3:TrackPointExtension>
        </extensions>
      </trkpt>
      <trkpt lat="43.77777962945401668548583984375" lon="1.5676668472588062286376953125">
        <ele>140.1999969482421875</ele>
        <time>2026-08-13T09:14:56.000Z</time>
        <extensions>
          <ns3:TrackPointExtension>
            <ns3:hr>83</ns3:hr>
            <ns3:cad>44</ns3:cad>
          </ns3:TrackPointExtension>
        </extensions>
      </trkpt>
      <trkpt lat="43.77777258865535259246826171875" lon="1.567673049867153167724609375">
        <ele>140.1999969482421875</ele>
        <time>2026-08-13T09:14:57.000Z</time>
        <extensions>
          <ns3:TrackPointExtension>
            <ns3:hr>83</ns3:hr>
            <ns3:cad>44</ns3:cad>
          </ns3:TrackPointExtension>
        </extensions>
      </trkpt>
      <trkpt lat="43.7777617760002613067626953125" lon="1.56768520362675189971923828125">
        <ele>140.1999969482421875</ele>
        <time>2026-08-13T09:14:58.000Z</time>
        <extensions>
          <ns3:TrackPointExtension>
            <ns3:hr>83</ns3:hr>
            <ns3:cad>44</ns3:cad>
          </ns3:TrackPointExtension>
        </extensions>
      </trkpt>
      <trkpt lat="43.77775398083031177520751953125" lon="1.5676923282444477081298828125">
        <ele>140.1999969482421875</ele>
        <time>2026-08-13T09:14:59.000Z</time>
        <extensions>
          <ns3:TrackPointExtension>
            <ns3:hr>83</ns3:hr>
            <ns3:cad>44</ns3:cad>
          </ns3:TrackPointExtension>
        </extensions>
      </trkpt>
      <trkpt lat="43.777746520936489105224609375" lon="1.5676975250244140625">
        <ele>140.399993896484375</ele>
        <time>2026-08-13T09:15:00.000Z</time>
        <extensions>
          <ns3:TrackPointExtension>
            <ns3:hr>83</ns3:hr>
            <ns3:cad>44</ns3:cad>
          </ns3:TrackPointExtension>
        </extensions>
      </trkpt>
      <trkpt lat="43.777741827070713043212890625" lon="1.56770163215696811676025390625">
        <ele>140.399993896484375</ele>
        <time>2026-08-13T09:15:01.000Z</time>
        <extensions>
          <ns3:TrackPointExtension>
            <ns3:hr>83</ns3:hr>
            <ns3:cad>44</ns3:cad>
          </ns3:TrackPointExtension>
        </extensions>
      </trkpt>
      <trkpt lat="43.77772875130176544189453125" lon="1.56771286390721797943115234375">
        <ele>140.600006103515625</ele>
        <time>2026-08-13T09:15:02.000Z</time>
        <extensions>
          <ns3:TrackPointExtension>
            <ns3:hr>84</ns3:hr>
            <ns3:cad>45</ns3:cad>
          </ns3:TrackPointExtension>
        </extensions>
      </trkpt>
      <trkpt lat="43.7777202017605304718017578125" lon="1.5677214972674846649169921875">
        <ele>140.600006103515625</ele>
        <time>2026-08-13T09:15:03.000Z</time>
        <extensions>
          <ns3:TrackPointExtension>
            <ns3:hr>84</ns3:hr>
            <ns3:cad>45</ns3:cad>
          </ns3:TrackPointExtension>
        </extensions>
      </trkpt>
      <trkpt lat="43.77771324478089809417724609375" lon="1.56772635877132415771484375">
        <ele>140.600006103515625</ele>
        <time>2026-08-13T09:15:04.000Z</time>
        <extensions>
          <ns3:TrackPointExtension>
            <ns3:hr>84</ns3:hr>
            <ns3:cad>45</ns3:cad>
          </ns3:TrackPointExtension>
        </extensions>
      </trkpt>
      <trkpt lat="43.7777025997638702392578125" lon="1.56773683615028858184814453125">
        <ele>140.8000030517578125</ele>
        <time>2026-08-13T09:15:05.000Z</time>
        <extensions>
          <ns3:TrackPointExtension>
            <ns3:hr>84</ns3:hr>
            <ns3:cad>45</ns3:cad>
          </ns3:TrackPointExtension>
        </extensions>
      </trkpt>
      <trkpt lat="43.777688853442668914794921875" lon="1.567750833928585052490234375">
        <ele>140.8000030517578125</ele>
        <time>2026-08-13T09:15:06.000Z</time>
        <extensions>
          <ns3:TrackPointExtension>
            <ns3:hr>85</ns3:hr>
            <ns3:cad>43</ns3:cad>
          </ns3:TrackPointExtension>
        </extensions>
      </trkpt>
      <trkpt lat="43.7776816450059413909912109375" lon="1.567756198346614837646484375">
        <ele>140.8000030517578125</ele>
        <time>2026-08-13T09:15:07.000Z</time>
        <extensions>
          <ns3:TrackPointExtension>
            <ns3:hr>85</ns3:hr>
            <ns3:cad>43</ns3:cad>
          </ns3:TrackPointExtension>
        </extensions>
      </trkpt>
      <trkpt lat="43.777676112949848175048828125" lon="1.56776122748851776123046875">
        <ele>141</ele>
        <time>2026-08-13T09:15:08.000Z</time>
        <extensions>
          <ns3:TrackPointExtension>
            <ns3:hr>85</ns3:hr>
            <ns3:cad>44</ns3:cad>
          </ns3:TrackPointExtension>
        </extensions>
      </trkpt>
      <trkpt lat="43.7776699103415012359619140625" lon="1.5677697770297527313232421875">
        <ele>141</ele>
        <time>2026-08-13T09:15:09.000Z</time>
        <extensions>
          <ns3:TrackPointExtension>
            <ns3:hr>86</ns3:hr>
            <ns3:cad>44</ns3:cad>
          </ns3:TrackPointExtension>
        </extensions>
      </trkpt>
      <trkpt lat="43.77766211517155170440673828125" lon="1.56778260134160518646240234375">
        <ele>141</ele>
        <time>2026-08-13T09:15:10.000Z</time>
        <extensions>
          <ns3:TrackPointExtension>
            <ns3:hr>86</ns3:hr>
            <ns3:cad>44</ns3:cad>
          </ns3:TrackPointExtension>
        </extensions>
      </trkpt>
      <trkpt lat="43.777655325829982757568359375" lon="1.5677895583212375640869140625">
        <ele>141</ele>
        <time>2026-08-13T09:15:11.000Z</time>
        <extensions>
          <ns3:TrackPointExtension>
            <ns3:hr>86</ns3:hr>
            <ns3:cad>45</ns3:cad>
          </ns3:TrackPointExtension>
        </extensions>
      </trkpt>
      <trkpt lat="43.77764820121228694915771484375" lon="1.5677929110825061798095703125">
        <ele>141.1999969482421875</ele>
        <time>2026-08-13T09:15:12.000Z</time>
        <extensions>
          <ns3:TrackPointExtension>
            <ns3:hr>87</ns3:hr>
            <ns3:cad>45</ns3:cad>
          </ns3:TrackPointExtension>
        </extensions>
      </trkpt>
      <trkpt lat="43.7776400707662105560302734375" lon="1.56780472956597805023193359375">
        <ele>141.1999969482421875</ele>
        <time>2026-08-13T09:15:13.000Z</time>
        <extensions>
          <ns3:TrackPointExtension>
            <ns3:hr>87</ns3:hr>
            <ns3:cad>44</ns3:cad>
          </ns3:TrackPointExtension>
        </extensions>
      </trkpt>
      <trkpt lat="43.77763059921562671661376953125" lon="1.56781747005879878997802734375">
        <ele>141.1999969482421875</ele>
        <time>2026-08-13T09:15:14.000Z</time>
        <extensions>
          <ns3:TrackPointExtension>
            <ns3:hr>87</ns3:hr>
            <ns3:cad>44</ns3:cad>
          </ns3:TrackPointExtension>
        </extensions>
      </trkpt>
      <trkpt lat="43.7776256538927555084228515625" lon="1.567820571362972259521484375">
        <ele>141.1999969482421875</ele>
        <time>2026-08-13T09:15:15.000Z</time>
        <extensions>
          <ns3:TrackPointExtension>
            <ns3:hr>88</ns3:hr>
            <ns3:cad>45</ns3:cad>
          </ns3:TrackPointExtension>
        </extensions>
      </trkpt>
      <trkpt lat="43.777618445456027984619140625" lon="1.56782484613358974456787109375">
        <ele>141.1999969482421875</ele>
        <time>2026-08-13T09:15:16.000Z</time>
        <extensions>
          <ns3:TrackPointExtension>
            <ns3:hr>88</ns3:hr>
            <ns3:cad>47</ns3:cad>
          </ns3:TrackPointExtension>
        </extensions>
      </trkpt>
      <trkpt lat="43.777608387172222137451171875" lon="1.56783364713191986083984375">
        <ele>141.1999969482421875</ele>
        <time>2026-08-13T09:15:17.000Z</time>
        <extensions>
          <ns3:TrackPointExtension>
            <ns3:hr>88</ns3:hr>
            <ns3:cad>47</ns3:cad>
          </ns3:TrackPointExtension>
        </extensions>
      </trkpt>
      <trkpt lat="43.7775931321084499359130859375" lon="1.56785284169018268585205078125">
        <ele>141.1999969482421875</ele>
        <time>2026-08-13T09:15:18.000Z</time>
        <extensions>
          <ns3:TrackPointExtension>
            <ns3:hr>88</ns3:hr>
            <ns3:cad>47</ns3:cad>
          </ns3:TrackPointExtension>
        </extensions>
      </trkpt>
      <trkpt lat="43.77758382819592952728271484375" lon="1.5678579546511173248291015625">
        <ele>141.399993896484375</ele>
        <time>2026-08-13T09:15:19.000Z</time>
        <extensions>
          <ns3:TrackPointExtension>
            <ns3:hr>88</ns3:hr>
            <ns3:cad>47</ns3:cad>
          </ns3:TrackPointExtension>
        </extensions>
      </trkpt>
      <trkpt lat="43.7775767035782337188720703125" lon="1.56786289997398853302001953125">
        <ele>141.399993896484375</ele>
        <time>2026-08-13T09:15:20.000Z</time>
        <extensions>
          <ns3:TrackPointExtension>
            <ns3:hr>88</ns3:hr>
            <ns3:cad>47</ns3:cad>
          </ns3:TrackPointExtension>
        </extensions>
      </trkpt>
      <trkpt lat="43.777570165693759918212890625" lon="1.56786927022039890289306640625">
        <ele>141.399993896484375</ele>
        <time>2026-08-13T09:15:21.000Z</time>
        <extensions>
          <ns3:TrackPointExtension>
            <ns3:hr>89</ns3:hr>
            <ns3:cad>47</ns3:cad>
          </ns3:TrackPointExtension>
        </extensions>
      </trkpt>
      <trkpt lat="43.7775562517344951629638671875" lon="1.567882262170314788818359375">
        <ele>141.600006103515625</ele>
        <time>2026-08-13T09:15:22.000Z</time>
        <extensions>
          <ns3:TrackPointExtension>
            <ns3:hr>89</ns3:hr>
            <ns3:cad>46</ns3:cad>
          </ns3:TrackPointExtension>
        </extensions>
      </trkpt>
      <trkpt lat="43.777548037469387054443359375" lon="1.56789106316864490509033203125">
        <ele>141.600006103515625</ele>
        <time>2026-08-13T09:15:23.000Z</time>
        <extensions>
          <ns3:TrackPointExtension>
            <ns3:hr>88</ns3:hr>
            <ns3:cad>46</ns3:cad>
          </ns3:TrackPointExtension>
        </extensions>
      </trkpt>
      <trkpt lat="43.77754191868007183074951171875" lon="1.56789726577699184417724609375">
        <ele>141.600006103515625</ele>
        <time>2026-08-13T09:15:24.000Z</time>
        <extensions>
          <ns3:TrackPointExtension>
            <ns3:hr>88</ns3:hr>
            <ns3:cad>47</ns3:cad>
          </ns3:TrackPointExtension>
        </extensions>
      </trkpt>
      <trkpt lat="43.77753638662397861480712890625" lon="1.56789827160537242889404296875">
        <ele>141.600006103515625</ele>
        <time>2026-08-13T09:15:25.000Z</time>
        <extensions>
          <ns3:TrackPointExtension>
            <ns3:hr>87</ns3:hr>
            <ns3:cad>47</ns3:cad>
          </ns3:TrackPointExtension>
        </extensions>
      </trkpt>
      <trkpt lat="43.7775237299501895904541015625" lon="1.56791151501238346099853515625">
        <ele>141.8000030517578125</ele>
        <time>2026-08-13T09:15:26.000Z</time>
        <extensions>
          <ns3:TrackPointExtension>
            <ns3:hr>87</ns3:hr>
            <ns3:cad>47</ns3:cad>
          </ns3:TrackPointExtension>
        </extensions>
      </trkpt>
      <trkpt lat="43.77751576714217662811279296875" lon="1.56791855581104755401611328125">
        <ele>141.8000030517578125</ele>
        <time>2026-08-13T09:15:27.000Z</time>
        <extensions>
          <ns3:TrackPointExtension>
            <ns3:hr>87</ns3:hr>
            <ns3:cad>47</ns3:cad>
          </ns3:TrackPointExtension>
        </extensions>
      </trkpt>
      <trkpt lat="43.7775083072483539581298828125" lon="1.56792140565812587738037109375">
        <ele>141.8000030517578125</ele>
        <time>2026-08-13T09:15:28.000Z</time>
        <extensions>
          <ns3:TrackPointExtension>
            <ns3:hr>87</ns3:hr>
            <ns3:cad>46</ns3:cad>
          </ns3:TrackPointExtension>
        </extensions>
      </trkpt>
      <trkpt lat="43.77749749459326267242431640625" lon="1.5679295361042022705078125">
        <ele>141.8000030517578125</ele>
        <time>2026-08-13T09:15:29.000Z</time>
        <extensions>
          <ns3:TrackPointExtension>
            <ns3:hr>88</ns3:hr>
            <ns3:cad>45</ns3:cad>
          </ns3:TrackPointExtension>
        </extensions>
      </trkpt>
      <trkpt lat="43.77748492173850536346435546875" lon="1.56794386915862560272216796875">
        <ele>141.8000030517578125</ele>
        <time>2026-08-13T09:15:30.000Z</time>
        <extensions>
          <ns3:TrackPointExtension>
            <ns3:hr>88</ns3:hr>
            <ns3:cad>45</ns3:cad>
          </ns3:TrackPointExtension>
        </extensions>
      </trkpt>
      <trkpt lat="43.7774767912924289703369140625" lon="1.56795090995728969573974609375">
        <ele>142</ele>
        <time>2026-08-13T09:15:31.000Z</time>
        <extensions>
          <ns3:TrackPointExtension>
            <ns3:hr>88</ns3:hr>
            <ns3:cad>45</ns3:cad>
          </ns3:TrackPointExtension>
        </extensions>
      </trkpt>
      <trkpt lat="43.7774724327027797698974609375" lon="1.56795761547982692718505859375">
        <ele>142</ele>
        <time>2026-08-13T09:15:32.000Z</time>
        <extensions>
          <ns3:TrackPointExtension>
            <ns3:hr>88</ns3:hr>
            <ns3:cad>44</ns3:cad>
          </ns3:TrackPointExtension>
        </extensions>
      </trkpt>
      <trkpt lat="43.7774677388370037078857421875" lon="1.5679657459259033203125">
        <ele>142</ele>
        <time>2026-08-13T09:15:33.000Z</time>
        <extensions>
          <ns3:TrackPointExtension>
            <ns3:hr>87</ns3:hr>
            <ns3:cad>44</ns3:cad>
          </ns3:TrackPointExtension>
        </extensions>
      </trkpt>
      <trkpt lat="43.77746094949543476104736328125" lon="1.5679789893329143524169921875">
        <ele>142</ele>
        <time>2026-08-13T09:15:34.000Z</time>
        <extensions>
          <ns3:TrackPointExtension>
            <ns3:hr>88</ns3:hr>
            <ns3:cad>43</ns3:cad>
          </ns3:TrackPointExtension>
        </extensions>
      </trkpt>
      <trkpt lat="43.77745374105870723724365234375" lon="1.567986868321895599365234375">
        <ele>142.1999969482421875</ele>
        <time>2026-08-13T09:15:35.000Z</time>
        <extensions>
          <ns3:TrackPointExtension>
            <ns3:hr>88</ns3:hr>
            <ns3:cad>43</ns3:cad>
          </ns3:TrackPointExtension>
        </extensions>
      </trkpt>
      <trkpt lat="43.77744846045970916748046875" lon="1.5679917298257350921630859375">
        <ele>142.1999969482421875</ele>
        <time>2026-08-13T09:15:36.000Z</time>
        <extensions>
          <ns3:TrackPointExtension>
            <ns3:hr>88</ns3:hr>
            <ns3:cad>43</ns3:cad>
          </ns3:TrackPointExtension>
        </extensions>
      </trkpt>
      <trkpt lat="43.7774409167468547821044921875" lon="1.56799432821571826934814453125">
        <ele>142.1999969482421875</ele>
        <time>2026-08-13T09:15:37.000Z</time>
        <extensions>
          <ns3:TrackPointExtension>
            <ns3:hr>88</ns3:hr>
            <ns3:cad>43</ns3:cad>
          </ns3:TrackPointExtension>
        </extensions>
      </trkpt>
      <trkpt lat="43.77742859534919261932373046875" lon="1.56800455413758754730224609375">
        <ele>142.1999969482421875</ele>
        <time>2026-08-13T09:15:38.000Z</time>
        <extensions>
          <ns3:TrackPointExtension>
            <ns3:hr>88</ns3:hr>
            <ns3:cad>0</ns3:cad>
          </ns3:TrackPointExtension>
        </extensions>
      </trkpt>
      <trkpt lat="43.77742272801697254180908203125" lon="1.56800874508917331695556640625">
        <ele>142.1999969482421875</ele>
        <time>2026-08-13T09:15:39.000Z</time>
        <extensions>
          <ns3:TrackPointExtension>
            <ns3:hr>89</ns3:hr>
            <ns3:cad>0</ns3:cad>
          </ns3:TrackPointExtension>
        </extensions>
      </trkpt>
      <trkpt lat="43.7774156033992767333984375" lon="1.5680151991546154022216796875">
        <ele>142.1999969482421875</ele>
        <time>2026-08-13T09:15:40.000Z</time>
        <extensions>
          <ns3:TrackPointExtension>
            <ns3:hr>89</ns3:hr>
            <ns3:cad>0</ns3:cad>
          </ns3:TrackPointExtension>
        </extensions>
      </trkpt>
      <trkpt lat="43.7774070538580417633056640625" lon="1.56802316196262836456298828125">
        <ele>142.1999969482421875</ele>
        <time>2026-08-13T09:15:41.000Z</time>
        <extensions>
          <ns3:TrackPointExtension>
            <ns3:hr>89</ns3:hr>
            <ns3:cad>0</ns3:cad>
          </ns3:TrackPointExtension>
        </extensions>
      </trkpt>
      <trkpt lat="43.77739624120295047760009765625" lon="1.568033136427402496337890625">
        <ele>142.1999969482421875</ele>
        <time>2026-08-13T09:15:42.000Z</time>
        <extensions>
          <ns3:TrackPointExtension>
            <ns3:hr>89</ns3:hr>
            <ns3:cad>44</ns3:cad>
          </ns3:TrackPointExtension>
        </extensions>
      </trkpt>
      <trkpt lat="43.77738769166171550750732421875" lon="1.56803858466446399688720703125">
        <ele>142.399993896484375</ele>
        <time>2026-08-13T09:15:43.000Z</time>
        <extensions>
          <ns3:TrackPointExtension>
            <ns3:hr>89</ns3:hr>
            <ns3:cad>44</ns3:cad>
          </ns3:TrackPointExtension>
        </extensions>
      </trkpt>
      <trkpt lat="43.77738316543400287628173828125" lon="1.56804344616830348968505859375">
        <ele>142.399993896484375</ele>
        <time>2026-08-13T09:15:44.000Z</time>
        <extensions>
          <ns3:TrackPointExtension>
            <ns3:hr>89</ns3:hr>
            <ns3:cad>44</ns3:cad>
          </ns3:TrackPointExtension>
        </extensions>
      </trkpt>
      <trkpt lat="43.777373693883419036865234375" lon="1.5680530853569507598876953125">
        <ele>142.600006103515625</ele>
        <time>2026-08-13T09:15:45.000Z</time>
        <extensions>
          <ns3:TrackPointExtension>
            <ns3:hr>90</ns3:hr>
            <ns3:cad>44</ns3:cad>
          </ns3:TrackPointExtension>
        </extensions>
      </trkpt>
      <trkpt lat="43.77736388705670833587646484375" lon="1.568065322935581207275390625">
        <ele>142.600006103515625</ele>
        <time>2026-08-13T09:15:46.000Z</time>
        <extensions>
          <ns3:TrackPointExtension>
            <ns3:hr>90</ns3:hr>
            <ns3:cad>44</ns3:cad>
          </ns3:TrackPointExtension>
        </extensions>
      </trkpt>
      <trkpt lat="43.77735793590545654296875" lon="1.56806968152523040771484375">
        <ele>142.600006103515625</ele>
        <time>2026-08-13T09:15:47.000Z</time>
        <extensions>
          <ns3:TrackPointExtension>
            <ns3:hr>90</ns3:hr>
            <ns3:cad>45</ns3:cad>
          </ns3:TrackPointExtension>
        </extensions>
      </trkpt>
      <trkpt lat="43.77735064364969730377197265625" lon="1.5680728666484355926513671875">
        <ele>142.600006103515625</ele>
        <time>2026-08-13T09:15:48.000Z</time>
        <extensions>
          <ns3:TrackPointExtension>
            <ns3:hr>90</ns3:hr>
            <ns3:cad>45</ns3:cad>
          </ns3:TrackPointExtension>
        </extensions>
      </trkpt>
      <trkpt lat="43.7773386575281620025634765625" lon="1.5680866129696369171142578125">
        <ele>142.600006103515625</ele>
        <time>2026-08-13T09:15:49.000Z</time>
        <extensions>
          <ns3:TrackPointExtension>
            <ns3:hr>89</ns3:hr>
            <ns3:cad>45</ns3:cad>
          </ns3:TrackPointExtension>
        </extensions>
      </trkpt>
      <trkpt lat="43.77733170054852962493896484375" lon="1.56809776090085506439208984375">
        <ele>142.600006103515625</ele>
        <time>2026-08-13T09:15:50.000Z</time>
        <extensions>
          <ns3:TrackPointExtension>
            <ns3:hr>89</ns3:hr>
            <ns3:cad>45</ns3:cad>
          </ns3:TrackPointExtension>
        </extensions>
      </trkpt>
      <trkpt lat="43.7773242406547069549560546875" lon="1.56810563988983631134033203125">
        <ele>142.8000030517578125</ele>
        <time>2026-08-13T09:15:51.000Z</time>
        <extensions>
          <ns3:TrackPointExtension>
            <ns3:hr>88</ns3:hr>
            <ns3:cad>45</ns3:cad>
          </ns3:TrackPointExtension>
        </extensions>
      </trkpt>
      <trkpt lat="43.7773218937218189239501953125" lon="1.5681043826043605804443359375">
        <ele>142.8000030517578125</ele>
        <time>2026-08-13T09:15:52.000Z</time>
        <extensions>
          <ns3:TrackPointExtension>
            <ns3:hr>87</ns3:hr>
            <ns3:cad>45</ns3:cad>
          </ns3:TrackPointExtension>
        </extensions>
      </trkpt>
      <trkpt lat="43.77730957232415676116943359375" lon="1.56811058521270751953125">
        <ele>142.8000030517578125</ele>
        <time>2026-08-13T09:15:53.000Z</time>
        <extensions>
          <ns3:TrackPointExtension>
            <ns3:hr>87</ns3:hr>
            <ns3:cad>45</ns3:cad>
          </ns3:TrackPointExtension>
        </extensions>
      </trkpt>
      <trkpt lat="43.77730186097323894500732421875" lon="1.56812273897230625152587890625">
        <ele>142.8000030517578125</ele>
        <time>2026-08-13T09:15:54.000Z</time>
        <extensions>
          <ns3:TrackPointExtension>
            <ns3:hr>87</ns3:hr>
            <ns3:cad>45</ns3:cad>
          </ns3:TrackPointExtension>
        </extensions>
      </trkpt>
      <trkpt lat="43.7772949039936065673828125" lon="1.5681352280080318450927734375">
        <ele>142.8000030517578125</ele>
        <time>2026-08-13T09:15:55.000Z</time>
        <extensions>
          <ns3:TrackPointExtension>
            <ns3:hr>87</ns3:hr>
            <ns3:cad>47</ns3:cad>
          </ns3:TrackPointExtension>
        </extensions>
      </trkpt>
      <trkpt lat="43.7772880308330059051513671875" lon="1.568136401474475860595703125">
        <ele>142.8000030517578125</ele>
        <time>2026-08-13T09:15:56.000Z</time>
        <extensions>
          <ns3:TrackPointExtension>
            <ns3:hr>87</ns3:hr>
            <ns3:cad>47</ns3:cad>
          </ns3:TrackPointExtension>
        </extensions>
      </trkpt>
      <trkpt lat="43.7772761285305023193359375" lon="1.56814570538699626922607421875">
        <ele>142.8000030517578125</ele>
        <time>2026-08-13T09:15:57.000Z</time>
        <extensions>
          <ns3:TrackPointExtension>
            <ns3:hr>87</ns3:hr>
            <ns3:cad>0</ns3:cad>
          </ns3:TrackPointExtension>
        </extensions>
      </trkpt>
      <trkpt lat="43.77726431004703044891357421875" lon="1.56815844587981700897216796875">
        <ele>142.8000030517578125</ele>
        <time>2026-08-13T09:15:58.000Z</time>
        <extensions>
          <ns3:TrackPointExtension>
            <ns3:hr>87</ns3:hr>
            <ns3:cad>0</ns3:cad>
          </ns3:TrackPointExtension>
        </extensions>
      </trkpt>
      <trkpt lat="43.77725408412516117095947265625" lon="1.56816355884075164794921875">
        <ele>142.8000030517578125</ele>
        <time>2026-08-13T09:15:59.000Z</time>
        <extensions>
          <ns3:TrackPointExtension>
            <ns3:hr>88</ns3:hr>
            <ns3:cad>44</ns3:cad>
          </ns3:TrackPointExtension>
        </extensions>
      </trkpt>
      <trkpt lat="43.77724754624068737030029296875" lon="1.56817085109651088714599609375">
        <ele>143</ele>
        <time>2026-08-13T09:16:00.000Z</time>
        <extensions>
          <ns3:TrackPointExtension>
            <ns3:hr>88</ns3:hr>
            <ns3:cad>44</ns3:cad>
          </ns3:TrackPointExtension>
        </extensions>
      </trkpt>
      <trkpt lat="43.777237236499786376953125" lon="1.56817856244742870330810546875">
        <ele>143</ele>
        <time>2026-08-13T09:16:01.000Z</time>
        <extensions>
          <ns3:TrackPointExtension>
            <ns3:hr>89</ns3:hr>
            <ns3:cad>44</ns3:cad>
          </ns3:TrackPointExtension>
        </extensions>
      </trkpt>
      <trkpt lat="43.77722457982599735260009765625" lon="1.568188033998012542724609375">
        <ele>143</ele>
        <time>2026-08-13T09:16:02.000Z</time>
        <extensions>
          <ns3:TrackPointExtension>
            <ns3:hr>89</ns3:hr>
            <ns3:cad>44</ns3:cad>
          </ns3:TrackPointExtension>
        </extensions>
      </trkpt>
      <trkpt lat="43.777217455208301544189453125" lon="1.5681942366063594818115234375">
        <ele>143.1999969482421875</ele>
        <time>2026-08-13T09:16:03.000Z</time>
        <extensions>
          <ns3:TrackPointExtension>
            <ns3:hr>89</ns3:hr>
            <ns3:cad>46</ns3:cad>
          </ns3:TrackPointExtension>
        </extensions>
      </trkpt>
      <trkpt lat="43.77721301279962062835693359375" lon="1.568201445043087005615234375">
        <ele>143.1999969482421875</ele>
        <time>2026-08-13T09:16:04.000Z</time>
        <extensions>
          <ns3:TrackPointExtension>
            <ns3:hr>88</ns3:hr>
            <ns3:cad>46</ns3:cad>
          </ns3:TrackPointExtension>
        </extensions>
      </trkpt>
      <trkpt lat="43.77720303833484649658203125" lon="1.5682116709649562835693359375">
        <ele>143.1999969482421875</ele>
        <time>2026-08-13T09:16:05.000Z</time>
        <extensions>
          <ns3:TrackPointExtension>
            <ns3:hr>89</ns3:hr>
            <ns3:cad>45</ns3:cad>
          </ns3:TrackPointExtension>
        </extensions>
      </trkpt>
      <trkpt lat="43.7771908007562160491943359375" lon="1.5682200528681278228759765625">
        <ele>143.1999969482421875</ele>
        <time>2026-08-13T09:16:06.000Z</time>
        <extensions>
          <ns3:TrackPointExtension>
            <ns3:hr>89</ns3:hr>
            <ns3:cad>44</ns3:cad>
          </ns3:TrackPointExtension>
        </extensions>
      </trkpt>
      <trkpt lat="43.7771877832710742950439453125" lon="1.56822164542973041534423828125">
        <ele>143.1999969482421875</ele>
        <time>2026-08-13T09:16:07.000Z</time>
        <extensions>
          <ns3:TrackPointExtension>
            <ns3:hr>88</ns3:hr>
            <ns3:cad>44</ns3:cad>
          </ns3:TrackPointExtension>
        </extensions>
      </trkpt>
      <trkpt lat="43.7771824188530445098876953125" lon="1.5682270936667919158935546875">
        <ele>143.399993896484375</ele>
        <time>2026-08-13T09:16:08.000Z</time>
        <extensions>
          <ns3:TrackPointExtension>
            <ns3:hr>89</ns3:hr>
            <ns3:cad>44</ns3:cad>
          </ns3:TrackPointExtension>
        </extensions>
      </trkpt>
      <trkpt lat="43.7771710194647312164306640625" lon="1.568237654864788055419921875">
        <ele>143.399993896484375</ele>
        <time>2026-08-13T09:16:09.000Z</time>
        <extensions>
          <ns3:TrackPointExtension>
            <ns3:hr>89</ns3:hr>
            <ns3:cad>44</ns3:cad>
          </ns3:TrackPointExtension>
        </extensions>
      </trkpt>
      <trkpt lat="43.777163811028003692626953125" lon="1.5682425163686275482177734375">
        <ele>143.399993896484375</ele>
        <time>2026-08-13T09:16:10.000Z</time>
        <extensions>
          <ns3:TrackPointExtension>
            <ns3:hr>88</ns3:hr>
            <ns3:cad>44</ns3:cad>
          </ns3:TrackPointExtension>
        </extensions>
      </trkpt>
      <trkpt lat="43.77715744078159332275390625" lon="1.56825014390051364898681640625">
        <ele>143.399993896484375</ele>
        <time>2026-08-13T09:16:11.000Z</time>
        <extensions>
          <ns3:TrackPointExtension>
            <ns3:hr>89</ns3:hr>
            <ns3:cad>44</ns3:cad>
          </ns3:TrackPointExtension>
        </extensions>
      </trkpt>
      <trkpt lat="43.7771465443074703216552734375" lon="1.56825919635593891143798828125">
        <ele>143.600006103515625</ele>
        <time>2026-08-13T09:16:12.000Z</time>
        <extensions>
          <ns3:TrackPointExtension>
            <ns3:hr>89</ns3:hr>
            <ns3:cad>44</ns3:cad>
          </ns3:TrackPointExtension>
        </extensions>
      </trkpt>
      <trkpt lat="43.7771301157772541046142578125" lon="1.56827629543840885162353515625">
        <ele>143.600006103515625</ele>
        <time>2026-08-13T09:16:13.000Z</time>
        <extensions>
          <ns3:TrackPointExtension>
            <ns3:hr>88</ns3:hr>
            <ns3:cad>43</ns3:cad>
          </ns3:TrackPointExtension>
        </extensions>
      </trkpt>
      <trkpt lat="43.7771232426166534423828125" lon="1.56828886829316616058349609375">
        <ele>143.600006103515625</ele>
        <time>2026-08-13T09:16:14.000Z</time>
        <extensions>
          <ns3:TrackPointExtension>
            <ns3:hr>88</ns3:hr>
            <ns3:cad>43</ns3:cad>
          </ns3:TrackPointExtension>
        </extensions>
      </trkpt>
      <trkpt lat="43.77711729146540164947509765625" lon="1.56829557381570339202880859375">
        <ele>143.600006103515625</ele>
        <time>2026-08-13T09:16:15.000Z</time>
        <extensions>
          <ns3:TrackPointExtension>
            <ns3:hr>88</ns3:hr>
            <ns3:cad>43</ns3:cad>
          </ns3:TrackPointExtension>
        </extensions>
      </trkpt>
      <trkpt lat="43.777109496295452117919921875" lon="1.56830278225243091583251953125">
        <ele>143.600006103515625</ele>
        <time>2026-08-13T09:16:16.000Z</time>
        <extensions>
          <ns3:TrackPointExtension>
            <ns3:hr>88</ns3:hr>
            <ns3:cad>43</ns3:cad>
          </ns3:TrackPointExtension>
        </extensions>
      </trkpt>
      <trkpt lat="43.77710036002099514007568359375" lon="1.56831166706979274749755859375">
        <ele>143.600006103515625</ele>
        <time>2026-08-13T09:16:17.000Z</time>
        <extensions>
          <ns3:TrackPointExtension>
            <ns3:hr>89</ns3:hr>
            <ns3:cad>43</ns3:cad>
          </ns3:TrackPointExtension>
        </extensions>
      </trkpt>
      <trkpt lat="43.77709264867007732391357421875" lon="1.5683203004300594329833984375">
        <ele>143.8000030517578125</ele>
        <time>2026-08-13T09:16:18.000Z</time>
        <extensions>
          <ns3:TrackPointExtension>
            <ns3:hr>89</ns3:hr>
            <ns3:cad>43</ns3:cad>
          </ns3:TrackPointExtension>
        </extensions>
      </trkpt>
      <trkpt lat="43.77708812244236469268798828125" lon="1.56832440756261348724365234375">
        <ele>143.8000030517578125</ele>
        <time>2026-08-13T09:16:19.000Z</time>
        <extensions>
          <ns3:TrackPointExtension>
            <ns3:hr>89</ns3:hr>
            <ns3:cad>43</ns3:cad>
          </ns3:TrackPointExtension>
        </extensions>
      </trkpt>
      <trkpt lat="43.7770747952163219451904296875" lon="1.568330861628055572509765625">
        <ele>143.8000030517578125</ele>
        <time>2026-08-13T09:16:20.000Z</time>
        <extensions>
          <ns3:TrackPointExtension>
            <ns3:hr>88</ns3:hr>
            <ns3:cad>45</ns3:cad>
          </ns3:TrackPointExtension>
        </extensions>
      </trkpt>
      <trkpt lat="43.77706490457057952880859375" lon="1.56834460794925689697265625">
        <ele>144</ele>
        <time>2026-08-13T09:16:21.000Z</time>
        <extensions>
          <ns3:TrackPointExtension>
            <ns3:hr>89</ns3:hr>
            <ns3:cad>45</ns3:cad>
          </ns3:TrackPointExtension>
        </extensions>
      </trkpt>
      <trkpt lat="43.77705752849578857421875" lon="1.56835055910050868988037109375">
        <ele>144</ele>
        <time>2026-08-13T09:16:22.000Z</time>
        <extensions>
          <ns3:TrackPointExtension>
            <ns3:hr>89</ns3:hr>
            <ns3:cad>45</ns3:cad>
          </ns3:TrackPointExtension>
        </extensions>
      </trkpt>
      <trkpt lat="43.77705241553485393524169921875" lon="1.56835491769015789031982421875">
        <ele>144</ele>
        <time>2026-08-13T09:16:23.000Z</time>
        <extensions>
          <ns3:TrackPointExtension>
            <ns3:hr>89</ns3:hr>
            <ns3:cad>45</ns3:cad>
          </ns3:TrackPointExtension>
        </extensions>
      </trkpt>
      <trkpt lat="43.77704001031816005706787109375" lon="1.56836397014558315277099609375">
        <ele>144.1999969482421875</ele>
        <time>2026-08-13T09:16:24.000Z</time>
        <extensions>
          <ns3:TrackPointExtension>
            <ns3:hr>89</ns3:hr>
            <ns3:cad>45</ns3:cad>
          </ns3:TrackPointExtension>
        </extensions>
      </trkpt>
      <trkpt lat="43.77702995203435420989990234375" lon="1.56837084330618381500244140625">
        <ele>144.1999969482421875</ele>
        <time>2026-08-13T09:16:25.000Z</time>
        <extensions>
          <ns3:TrackPointExtension>
            <ns3:hr>89</ns3:hr>
            <ns3:cad>45</ns3:cad>
          </ns3:TrackPointExtension>
        </extensions>
      </trkpt>
      <trkpt lat="43.777022995054721832275390625" lon="1.56837570481002330780029296875">
        <ele>144.1999969482421875</ele>
        <time>2026-08-13T09:16:26.000Z</time>
        <extensions>
          <ns3:TrackPointExtension>
            <ns3:hr>90</ns3:hr>
            <ns3:cad>43</ns3:cad>
          </ns3:TrackPointExtension>
        </extensions>
      </trkpt>
      <trkpt lat="43.777016960084438323974609375" lon="1.56838257797062397003173828125">
        <ele>144.1999969482421875</ele>
        <time>2026-08-13T09:16:27.000Z</time>
        <extensions>
          <ns3:TrackPointExtension>
            <ns3:hr>91</ns3:hr>
            <ns3:cad>44</ns3:cad>
          </ns3:TrackPointExtension>
        </extensions>
      </trkpt>
      <trkpt lat="43.77700245939195156097412109375" lon="1.56839397735893726348876953125">
        <ele>144.1999969482421875</ele>
        <time>2026-08-13T09:16:28.000Z</time>
        <extensions>
          <ns3:TrackPointExtension>
            <ns3:hr>94</ns3:hr>
            <ns3:cad>44</ns3:cad>
          </ns3:TrackPointExtension>
        </extensions>
      </trkpt>
      <trkpt lat="43.77699592150747776031494140625" lon="1.568400599062442779541015625">
        <ele>144.399993896484375</ele>
        <time>2026-08-13T09:16:29.000Z</time>
        <extensions>
          <ns3:TrackPointExtension>
            <ns3:hr>95</ns3:hr>
            <ns3:cad>45</ns3:cad>
          </ns3:TrackPointExtension>
        </extensions>
      </trkpt>
      <trkpt lat="43.77698921598494052886962890625" lon="1.56840722076594829559326171875">
        <ele>144.399993896484375</ele>
        <time>2026-08-13T09:16:30.000Z</time>
        <extensions>
          <ns3:TrackPointExtension>
            <ns3:hr>95</ns3:hr>
            <ns3:cad>45</ns3:cad>
          </ns3:TrackPointExtension>
        </extensions>
      </trkpt>
      <trkpt lat="43.7769864499568939208984375" lon="1.5684151835739612579345703125">
        <ele>144.399993896484375</ele>
        <time>2026-08-13T09:16:31.000Z</time>
        <extensions>
          <ns3:TrackPointExtension>
            <ns3:hr>96</ns3:hr>
            <ns3:cad>45</ns3:cad>
          </ns3:TrackPointExtension>
        </extensions>
      </trkpt>
      <trkpt lat="43.77697697840631008148193359375" lon="1.56842918135225772857666015625">
        <ele>144.600006103515625</ele>
        <time>2026-08-13T09:16:32.000Z</time>
        <extensions>
          <ns3:TrackPointExtension>
            <ns3:hr>96</ns3:hr>
            <ns3:cad>44</ns3:cad>
          </ns3:TrackPointExtension>
        </extensions>
      </trkpt>
      <trkpt lat="43.77696859650313854217529296875" lon="1.5684342943131923675537109375">
        <ele>144.600006103515625</ele>
        <time>2026-08-13T09:16:33.000Z</time>
        <extensions>
          <ns3:TrackPointExtension>
            <ns3:hr>96</ns3:hr>
            <ns3:cad>44</ns3:cad>
          </ns3:TrackPointExtension>
        </extensions>
      </trkpt>
      <trkpt lat="43.77696474082767963409423828125" lon="1.5684379823505878448486328125">
        <ele>144.600006103515625</ele>
        <time>2026-08-13T09:16:34.000Z</time>
        <extensions>
          <ns3:TrackPointExtension>
            <ns3:hr>96</ns3:hr>
            <ns3:cad>44</ns3:cad>
          </ns3:TrackPointExtension>
        </extensions>
      </trkpt>
      <trkpt lat="43.7769534252583980560302734375" lon="1.56844787299633026123046875">
        <ele>144.8000030517578125</ele>
        <time>2026-08-13T09:16:35.000Z</time>
        <extensions>
          <ns3:TrackPointExtension>
            <ns3:hr>96</ns3:hr>
            <ns3:cad>44</ns3:cad>
          </ns3:TrackPointExtension>
        </extensions>
      </trkpt>
      <trkpt lat="43.77694345079362392425537109375" lon="1.568457596004009246826171875">
        <ele>144.8000030517578125</ele>
        <time>2026-08-13T09:16:36.000Z</time>
        <extensions>
          <ns3:TrackPointExtension>
            <ns3:hr>96</ns3:hr>
            <ns3:cad>44</ns3:cad>
          </ns3:TrackPointExtension>
        </extensions>
      </trkpt>
      <trkpt lat="43.7769380025565624237060546875" lon="1.5684644691646099090576171875">
        <ele>144.8000030517578125</ele>
        <time>2026-08-13T09:16:37.000Z</time>
        <extensions>
          <ns3:TrackPointExtension>
            <ns3:hr>96</ns3:hr>
            <ns3:cad>43</ns3:cad>
          </ns3:TrackPointExtension>
        </extensions>
      </trkpt>
      <trkpt lat="43.77693540416657924652099609375" lon="1.56846421770751476287841796875">
        <ele>144.8000030517578125</ele>
        <time>2026-08-13T09:16:38.000Z</time>
        <extensions>
          <ns3:TrackPointExtension>
            <ns3:hr>95</ns3:hr>
            <ns3:cad>43</ns3:cad>
          </ns3:TrackPointExtension>
        </extensions>
      </trkpt>
      <trkpt lat="43.776921741664409637451171875" lon="1.56847310252487659454345703125">
        <ele>144.8000030517578125</ele>
        <time>2026-08-13T09:16:39.000Z</time>
        <extensions>
          <ns3:TrackPointExtension>
            <ns3:hr>95</ns3:hr>
            <ns3:cad>43</ns3:cad>
          </ns3:TrackPointExtension>
        </extensions>
      </trkpt>
      <trkpt lat="43.77691528759896755218505859375" lon="1.56848148442804813385009765625">
        <ele>145</ele>
        <time>2026-08-13T09:16:40.000Z</time>
        <extensions>
          <ns3:TrackPointExtension>
            <ns3:hr>95</ns3:hr>
            <ns3:cad>43</ns3:cad>
          </ns3:TrackPointExtension>
        </extensions>
      </trkpt>
      <trkpt lat="43.7769086658954620361328125" lon="1.56848483718931674957275390625">
        <ele>145</ele>
        <time>2026-08-13T09:16:41.000Z</time>
        <extensions>
          <ns3:TrackPointExtension>
            <ns3:hr>94</ns3:hr>
            <ns3:cad>43</ns3:cad>
          </ns3:TrackPointExtension>
        </extensions>
      </trkpt>
      <trkpt lat="43.776903636753559112548828125" lon="1.5684896148741245269775390625">
        <ele>145</ele>
        <time>2026-08-13T09:16:42.000Z</time>
        <extensions>
          <ns3:TrackPointExtension>
            <ns3:hr>94</ns3:hr>
            <ns3:cad>44</ns3:cad>
          </ns3:TrackPointExtension>
        </extensions>
      </trkpt>
      <trkpt lat="43.77689131535589694976806640625" lon="1.56850059516727924346923828125">
        <ele>145</ele>
        <time>2026-08-13T09:16:43.000Z</time>
        <extensions>
          <ns3:TrackPointExtension>
            <ns3:hr>93</ns3:hr>
            <ns3:cad>44</ns3:cad>
          </ns3:TrackPointExtension>
        </extensions>
      </trkpt>
      <trkpt lat="43.77688410691916942596435546875" lon="1.56850780360400676727294921875">
        <ele>145.1999969482421875</ele>
        <time>2026-08-13T09:16:44.000Z</time>
        <extensions>
          <ns3:TrackPointExtension>
            <ns3:hr>93</ns3:hr>
            <ns3:cad>44</ns3:cad>
          </ns3:TrackPointExtension>
        </extensions>
      </trkpt>
      <trkpt lat="43.7768766470253467559814453125" lon="1.56851367093622684478759765625">
        <ele>145.1999969482421875</ele>
        <time>2026-08-13T09:16:45.000Z</time>
        <extensions>
          <ns3:TrackPointExtension>
            <ns3:hr>92</ns3:hr>
            <ns3:cad>43</ns3:cad>
          </ns3:TrackPointExtension>
        </extensions>
      </trkpt>
      <trkpt lat="43.77686767838895320892333984375" lon="1.5685214661061763763427734375">
        <ele>145.1999969482421875</ele>
        <time>2026-08-13T09:16:46.000Z</time>
        <extensions>
          <ns3:TrackPointExtension>
            <ns3:hr>92</ns3:hr>
            <ns3:cad>43</ns3:cad>
          </ns3:TrackPointExtension>
        </extensions>
      </trkpt>
      <trkpt lat="43.77685745246708393096923828125" lon="1.56853110529482364654541015625">
        <ele>145.1999969482421875</ele>
        <time>2026-08-13T09:16:47.000Z</time>
        <extensions>
          <ns3:TrackPointExtension>
            <ns3:hr>91</ns3:hr>
            <ns3:cad>43</ns3:cad>
          </ns3:TrackPointExtension>
        </extensions>
      </trkpt>
      <trkpt lat="43.77685032784938812255859375" lon="1.56853563152253627777099609375">
        <ele>145.399993896484375</ele>
        <time>2026-08-13T09:16:48.000Z</time>
        <extensions>
          <ns3:TrackPointExtension>
            <ns3:hr>91</ns3:hr>
            <ns3:cad>43</ns3:cad>
          </ns3:TrackPointExtension>
        </extensions>
      </trkpt>
      <trkpt lat="43.77684228122234344482421875" lon="1.56854283995926380157470703125">
        <ele>145.399993896484375</ele>
        <time>2026-08-13T09:16:49.000Z</time>
        <extensions>
          <ns3:TrackPointExtension>
            <ns3:hr>90</ns3:hr>
            <ns3:cad>44</ns3:cad>
          </ns3:TrackPointExtension>
        </extensions>
      </trkpt>
      <trkpt lat="43.77683289349079132080078125" lon="1.5685489587485790252685546875">
        <ele>145.399993896484375</ele>
        <time>2026-08-13T09:16:50.000Z</time>
        <extensions>
          <ns3:TrackPointExtension>
            <ns3:hr>90</ns3:hr>
            <ns3:cad>44</ns3:cad>
          </ns3:TrackPointExtension>
        </extensions>
      </trkpt>
      <trkpt lat="43.77681906335055828094482421875" lon="1.56855591572821140289306640625">
        <ele>145.399993896484375</ele>
        <time>2026-08-13T09:16:51.000Z</time>
        <extensions>
          <ns3:TrackPointExtension>
            <ns3:hr>90</ns3:hr>
            <ns3:cad>44</ns3:cad>
          </ns3:TrackPointExtension>
        </extensions>
      </trkpt>
      <trkpt lat="43.77681017853319644927978515625" lon="1.56856228597462177276611328125">
        <ele>145.399993896484375</ele>
        <time>2026-08-13T09:16:52.000Z</time>
        <extensions>
          <ns3:TrackPointExtension>
            <ns3:hr>90</ns3:hr>
            <ns3:cad>44</ns3:cad>
          </ns3:TrackPointExtension>
        </extensions>
      </trkpt>
      <trkpt lat="43.77680481411516666412353515625" lon="1.56856245361268520355224609375">
        <ele>145.600006103515625</ele>
        <time>2026-08-13T09:16:53.000Z</time>
        <extensions>
          <ns3:TrackPointExtension>
            <ns3:hr>90</ns3:hr>
            <ns3:cad>45</ns3:cad>
          </ns3:TrackPointExtension>
        </extensions>
      </trkpt>
      <trkpt lat="43.7767968513071537017822265625" lon="1.56857016496360301971435546875">
        <ele>145.600006103515625</ele>
        <time>2026-08-13T09:16:54.000Z</time>
        <extensions>
          <ns3:TrackPointExtension>
            <ns3:hr>89</ns3:hr>
            <ns3:cad>45</ns3:cad>
          </ns3:TrackPointExtension>
        </extensions>
      </trkpt>
      <trkpt lat="43.77678654156625270843505859375" lon="1.568577624857425689697265625">
        <ele>145.600006103515625</ele>
        <time>2026-08-13T09:16:55.000Z</time>
        <extensions>
          <ns3:TrackPointExtension>
            <ns3:hr>89</ns3:hr>
            <ns3:cad>46</ns3:cad>
          </ns3:TrackPointExtension>
        </extensions>
      </trkpt>
      <trkpt lat="43.77678100951015949249267578125" lon="1.56858265399932861328125">
        <ele>145.600006103515625</ele>
        <time>2026-08-13T09:16:56.000Z</time>
        <extensions>
          <ns3:TrackPointExtension>
            <ns3:hr>88</ns3:hr>
            <ns3:cad>46</ns3:cad>
          </ns3:TrackPointExtension>
        </extensions>
      </trkpt>
      <trkpt lat="43.7767753936350345611572265625" lon="1.56858609057962894439697265625">
        <ele>145.8000030517578125</ele>
        <time>2026-08-13T09:16:57.000Z</time>
        <extensions>
          <ns3:TrackPointExtension>
            <ns3:hr>88</ns3:hr>
            <ns3:cad>46</ns3:cad>
          </ns3:TrackPointExtension>
        </extensions>
      </trkpt>
      <trkpt lat="43.7767665088176727294921875" lon="1.56859480775892734527587890625">
        <ele>145.8000030517578125</ele>
        <time>2026-08-13T09:16:58.000Z</time>
        <extensions>
          <ns3:TrackPointExtension>
            <ns3:hr>88</ns3:hr>
            <ns3:cad>44</ns3:cad>
          </ns3:TrackPointExtension>
        </extensions>
      </trkpt>
      <trkpt lat="43.77675619907677173614501953125" lon="1.56860520131886005401611328125">
        <ele>145.8000030517578125</ele>
        <time>2026-08-13T09:16:59.000Z</time>
        <extensions>
          <ns3:TrackPointExtension>
            <ns3:hr>88</ns3:hr>
            <ns3:cad>43</ns3:cad>
          </ns3:TrackPointExtension>
        </extensions>
      </trkpt>
      <trkpt lat="43.77674815244972705841064453125" lon="1.568611152470111846923828125">
        <ele>146</ele>
        <time>2026-08-13T09:17:00.000Z</time>
        <extensions>
          <ns3:TrackPointExtension>
            <ns3:hr>88</ns3:hr>
            <ns3:cad>43</ns3:cad>
          </ns3:TrackPointExtension>
        </extensions>
      </trkpt>
      <trkpt lat="43.77674496732652187347412109375" lon="1.5686163492500782012939453125">
        <ele>146</ele>
        <time>2026-08-13T09:17:01.000Z</time>
        <extensions>
          <ns3:TrackPointExtension>
            <ns3:hr>89</ns3:hr>
            <ns3:cad>43</ns3:cad>
          </ns3:TrackPointExtension>
        </extensions>
      </trkpt>
      <trkpt lat="43.77673256210982799530029296875" lon="1.568629927933216094970703125">
        <ele>146</ele>
        <time>2026-08-13T09:17:02.000Z</time>
        <extensions>
          <ns3:TrackPointExtension>
            <ns3:hr>89</ns3:hr>
            <ns3:cad>43</ns3:cad>
          </ns3:TrackPointExtension>
        </extensions>
      </trkpt>
      <trkpt lat="43.77672082744538784027099609375" lon="1.5686411596834659576416015625">
        <ele>146.1999969482421875</ele>
        <time>2026-08-13T09:17:03.000Z</time>
        <extensions>
          <ns3:TrackPointExtension>
            <ns3:hr>91</ns3:hr>
            <ns3:cad>44</ns3:cad>
          </ns3:TrackPointExtension>
        </extensions>
      </trkpt>
      <trkpt lat="43.7767140381038188934326171875" lon="1.56864912249147891998291015625">
        <ele>146.1999969482421875</ele>
        <time>2026-08-13T09:17:04.000Z</time>
        <extensions>
          <ns3:TrackPointExtension>
            <ns3:hr>92</ns3:hr>
            <ns3:cad>44</ns3:cad>
          </ns3:TrackPointExtension>
        </extensions>
      </trkpt>
      <trkpt lat="43.77671143971383571624755859375" lon="1.56865498982369899749755859375">
        <ele>146.1999969482421875</ele>
        <time>2026-08-13T09:17:05.000Z</time>
        <extensions>
          <ns3:TrackPointExtension>
            <ns3:hr>92</ns3:hr>
            <ns3:cad>44</ns3:cad>
          </ns3:TrackPointExtension>
        </extensions>
      </trkpt>
      <trkpt lat="43.7766967713832855224609375" lon="1.56866672448813915252685546875">
        <ele>146.1999969482421875</ele>
        <time>2026-08-13T09:17:06.000Z</time>
        <extensions>
          <ns3:TrackPointExtension>
            <ns3:hr>92</ns3:hr>
            <ns3:cad>44</ns3:cad>
          </ns3:TrackPointExtension>
        </extensions>
      </trkpt>
      <trkpt lat="43.7766855396330356597900390625" lon="1.56867812387645244598388671875">
        <ele>146.399993896484375</ele>
        <time>2026-08-13T09:17:07.000Z</time>
        <extensions>
          <ns3:TrackPointExtension>
            <ns3:hr>91</ns3:hr>
            <ns3:cad>44</ns3:cad>
          </ns3:TrackPointExtension>
        </extensions>
      </trkpt>
      <trkpt lat="43.776676654815673828125" lon="1.56868399120867252349853515625">
        <ele>146.399993896484375</ele>
        <time>2026-08-13T09:17:08.000Z</time>
        <extensions>
          <ns3:TrackPointExtension>
            <ns3:hr>90</ns3:hr>
            <ns3:cad>44</ns3:cad>
          </ns3:TrackPointExtension>
        </extensions>
      </trkpt>
      <trkpt lat="43.77667103894054889678955078125" lon="1.5686907805502414703369140625">
        <ele>146.399993896484375</ele>
        <time>2026-08-13T09:17:09.000Z</time>
        <extensions>
          <ns3:TrackPointExtension>
            <ns3:hr>89</ns3:hr>
            <ns3:cad>44</ns3:cad>
          </ns3:TrackPointExtension>
        </extensions>
      </trkpt>
      <trkpt lat="43.77666131593286991119384765625" lon="1.568701006472110748291015625">
        <ele>146.600006103515625</ele>
        <time>2026-08-13T09:17:10.000Z</time>
        <extensions>
          <ns3:TrackPointExtension>
            <ns3:hr>89</ns3:hr>
            <ns3:cad>44</ns3:cad>
          </ns3:TrackPointExtension>
        </extensions>
      </trkpt>
      <trkpt lat="43.7766553647816181182861328125" lon="1.56870343722403049468994140625">
        <ele>146.600006103515625</ele>
        <time>2026-08-13T09:17:11.000Z</time>
        <extensions>
          <ns3:TrackPointExtension>
            <ns3:hr>89</ns3:hr>
            <ns3:cad>44</ns3:cad>
          </ns3:TrackPointExtension>
        </extensions>
      </trkpt>
      <trkpt lat="43.77665192820131778717041015625" lon="1.56871181912720203399658203125">
        <ele>146.8000030517578125</ele>
        <time>2026-08-13T09:17:12.000Z</time>
        <extensions>
          <ns3:TrackPointExtension>
            <ns3:hr>89</ns3:hr>
            <ns3:cad>45</ns3:cad>
          </ns3:TrackPointExtension>
        </extensions>
      </trkpt>
      <trkpt lat="43.77664052881300449371337890625" lon="1.56872414052486419677734375">
        <ele>146.8000030517578125</ele>
        <time>2026-08-13T09:17:13.000Z</time>
        <extensions>
          <ns3:TrackPointExtension>
            <ns3:hr>90</ns3:hr>
            <ns3:cad>43</ns3:cad>
          </ns3:TrackPointExtension>
        </extensions>
      </trkpt>
      <trkpt lat="43.776633739471435546875" lon="1.5687276609241962432861328125">
        <ele>146.8000030517578125</ele>
        <time>2026-08-13T09:17:14.000Z</time>
        <extensions>
          <ns3:TrackPointExtension>
            <ns3:hr>90</ns3:hr>
            <ns3:cad>43</ns3:cad>
          </ns3:TrackPointExtension>
        </extensions>
      </trkpt>
      <trkpt lat="43.77662837505340576171875" lon="1.5687274932861328125">
        <ele>147</ele>
        <time>2026-08-13T09:17:15.000Z</time>
        <extensions>
          <ns3:TrackPointExtension>
            <ns3:hr>90</ns3:hr>
            <ns3:cad>42</ns3:cad>
          </ns3:TrackPointExtension>
        </extensions>
      </trkpt>
      <trkpt lat="43.77661672420799732208251953125" lon="1.56873579137027263641357421875">
        <ele>147</ele>
        <time>2026-08-13T09:17:16.000Z</time>
        <extensions>
          <ns3:TrackPointExtension>
            <ns3:hr>90</ns3:hr>
            <ns3:cad>42</ns3:cad>
          </ns3:TrackPointExtension>
        </extensions>
      </trkpt>
      <trkpt lat="43.7766094319522380828857421875" lon="1.568747274577617645263671875">
        <ele>147</ele>
        <time>2026-08-13T09:17:17.000Z</time>
        <extensions>
          <ns3:TrackPointExtension>
            <ns3:hr>89</ns3:hr>
            <ns3:cad>42</ns3:cad>
          </ns3:TrackPointExtension>
        </extensions>
      </trkpt>
      <trkpt lat="43.77660096623003482818603515625" lon="1.56875624321401119232177734375">
        <ele>147</ele>
        <time>2026-08-13T09:17:18.000Z</time>
        <extensions>
          <ns3:TrackPointExtension>
            <ns3:hr>90</ns3:hr>
            <ns3:cad>42</ns3:cad>
          </ns3:TrackPointExtension>
        </extensions>
      </trkpt>
      <trkpt lat="43.7765976972877979278564453125" lon="1.56876378692686557769775390625">
        <ele>147</ele>
        <time>2026-08-13T09:17:19.000Z</time>
        <extensions>
          <ns3:TrackPointExtension>
            <ns3:hr>90</ns3:hr>
            <ns3:cad>43</ns3:cad>
          </ns3:TrackPointExtension>
        </extensions>
      </trkpt>
      <trkpt lat="43.77658956684172153472900390625" lon="1.56877568922936916351318359375">
        <ele>147</ele>
        <time>2026-08-13T09:17:20.000Z</time>
        <extensions>
          <ns3:TrackPointExtension>
            <ns3:hr>90</ns3:hr>
            <ns3:cad>43</ns3:cad>
          </ns3:TrackPointExtension>
        </extensions>
      </trkpt>
      <trkpt lat="43.7765832804143428802490234375" lon="1.56878658570349216461181640625">
        <ele>147.1999969482421875</ele>
        <time>2026-08-13T09:17:21.000Z</time>
        <extensions>
          <ns3:TrackPointExtension>
            <ns3:hr>90</ns3:hr>
            <ns3:cad>44</ns3:cad>
          </ns3:TrackPointExtension>
        </extensions>
      </trkpt>
      <trkpt lat="43.77657632343471050262451171875" lon="1.56879211775958538055419921875">
        <ele>147.1999969482421875</ele>
        <time>2026-08-13T09:17:22.000Z</time>
        <extensions>
          <ns3:TrackPointExtension>
            <ns3:hr>91</ns3:hr>
            <ns3:cad>44</ns3:cad>
          </ns3:TrackPointExtension>
        </extensions>
      </trkpt>
      <trkpt lat="43.77656601369380950927734375" lon="1.56879790127277374267578125">
        <ele>147.399993896484375</ele>
        <time>2026-08-13T09:17:23.000Z</time>
        <extensions>
          <ns3:TrackPointExtension>
            <ns3:hr>92</ns3:hr>
            <ns3:cad>45</ns3:cad>
          </ns3:TrackPointExtension>
        </extensions>
      </trkpt>
      <trkpt lat="43.7765544466674327850341796875" lon="1.56881055794656276702880859375">
        <ele>147.399993896484375</ele>
        <time>2026-08-13T09:17:24.000Z</time>
        <extensions>
          <ns3:TrackPointExtension>
            <ns3:hr>92</ns3:hr>
            <ns3:cad>45</ns3:cad>
          </ns3:TrackPointExtension>
        </extensions>
      </trkpt>
      <trkpt lat="43.77654413692653179168701171875" lon="1.56881391070783138275146484375">
        <ele>147.600006103515625</ele>
        <time>2026-08-13T09:17:25.000Z</time>
        <extensions>
          <ns3:TrackPointExtension>
            <ns3:hr>93</ns3:hr>
            <ns3:cad>45</ns3:cad>
          </ns3:TrackPointExtension>
        </extensions>
      </trkpt>
      <trkpt lat="43.77653961069881916046142578125" lon="1.5688158385455608367919921875">
        <ele>147.600006103515625</ele>
        <time>2026-08-13T09:17:26.000Z</time>
        <extensions>
          <ns3:TrackPointExtension>
            <ns3:hr>93</ns3:hr>
            <ns3:cad>45</ns3:cad>
          </ns3:TrackPointExtension>
        </extensions>
      </trkpt>
      <trkpt lat="43.7765277922153472900390625" lon="1.56882606446743011474609375">
        <ele>147.600006103515625</ele>
        <time>2026-08-13T09:17:27.000Z</time>
        <extensions>
          <ns3:TrackPointExtension>
            <ns3:hr>93</ns3:hr>
            <ns3:cad>45</ns3:cad>
          </ns3:TrackPointExtension>
        </extensions>
      </trkpt>
      <trkpt lat="43.77652200870215892791748046875" lon="1.56883520074188709259033203125">
        <ele>147.600006103515625</ele>
        <time>2026-08-13T09:17:28.000Z</time>
        <extensions>
          <ns3:TrackPointExtension>
            <ns3:hr>93</ns3:hr>
            <ns3:cad>45</ns3:cad>
          </ns3:TrackPointExtension>
        </extensions>
      </trkpt>
      <trkpt lat="43.77651295624673366546630859375" lon="1.56884224154055118560791015625">
        <ele>147.600006103515625</ele>
        <time>2026-08-13T09:17:29.000Z</time>
        <extensions>
          <ns3:TrackPointExtension>
            <ns3:hr>93</ns3:hr>
            <ns3:cad>45</ns3:cad>
          </ns3:TrackPointExtension>
        </extensions>
      </trkpt>
      <trkpt lat="43.77650432288646697998046875" lon="1.56884576193988323211669921875">
        <ele>147.8000030517578125</ele>
        <time>2026-08-13T09:17:30.000Z</time>
        <extensions>
          <ns3:TrackPointExtension>
            <ns3:hr>94</ns3:hr>
            <ns3:cad>45</ns3:cad>
          </ns3:TrackPointExtension>
        </extensions>
      </trkpt>
      <trkpt lat="43.776494599878787994384765625" lon="1.568851880729198455810546875">
        <ele>147.8000030517578125</ele>
        <time>2026-08-13T09:17:31.000Z</time>
        <extensions>
          <ns3:TrackPointExtension>
            <ns3:hr>94</ns3:hr>
            <ns3:cad>45</ns3:cad>
          </ns3:TrackPointExtension>
        </extensions>
      </trkpt>
      <trkpt lat="43.776482529938220977783203125" lon="1.56886219047009944915771484375">
        <ele>147.8000030517578125</ele>
        <time>2026-08-13T09:17:32.000Z</time>
        <extensions>
          <ns3:TrackPointExtension>
            <ns3:hr>94</ns3:hr>
            <ns3:cad>46</ns3:cad>
          </ns3:TrackPointExtension>
        </extensions>
      </trkpt>
      <trkpt lat="43.77647657878696918487548828125" lon="1.56887224875390529632568359375">
        <ele>148</ele>
        <time>2026-08-13T09:17:33.000Z</time>
        <extensions>
          <ns3:TrackPointExtension>
            <ns3:hr>93</ns3:hr>
            <ns3:cad>46</ns3:cad>
          </ns3:TrackPointExtension>
        </extensions>
      </trkpt>
      <trkpt lat="43.77647188492119312286376953125" lon="1.5688763558864593505859375">
        <ele>148</ele>
        <time>2026-08-13T09:17:34.000Z</time>
        <extensions>
          <ns3:TrackPointExtension>
            <ns3:hr>93</ns3:hr>
            <ns3:cad>46</ns3:cad>
          </ns3:TrackPointExtension>
        </extensions>
      </trkpt>
      <trkpt lat="43.7764609046280384063720703125" lon="1.56888515688478946685791015625">
        <ele>148.1999969482421875</ele>
        <time>2026-08-13T09:17:35.000Z</time>
        <extensions>
          <ns3:TrackPointExtension>
            <ns3:hr>92</ns3:hr>
            <ns3:cad>46</ns3:cad>
          </ns3:TrackPointExtension>
        </extensions>
      </trkpt>
      <trkpt lat="43.7764471583068370819091796875" lon="1.56889420934021472930908203125">
        <ele>148.1999969482421875</ele>
        <time>2026-08-13T09:17:36.000Z</time>
        <extensions>
          <ns3:TrackPointExtension>
            <ns3:hr>92</ns3:hr>
            <ns3:cad>46</ns3:cad>
          </ns3:TrackPointExtension>
        </extensions>
      </trkpt>
      <trkpt lat="43.77643936313688755035400390625" lon="1.56890141777694225311279296875">
        <ele>148.1999969482421875</ele>
        <time>2026-08-13T09:17:37.000Z</time>
        <extensions>
          <ns3:TrackPointExtension>
            <ns3:hr>92</ns3:hr>
            <ns3:cad>46</ns3:cad>
          </ns3:TrackPointExtension>
        </extensions>
      </trkpt>
      <trkpt lat="43.7764427997171878814697265625" lon="1.5689030103385448455810546875">
        <ele>148.399993896484375</ele>
        <time>2026-08-13T09:17:38.000Z</time>
        <extensions>
          <ns3:TrackPointExtension>
            <ns3:hr>92</ns3:hr>
            <ns3:cad>43</ns3:cad>
          </ns3:TrackPointExtension>
        </extensions>
      </trkpt>
      <trkpt lat="43.77643634565174579620361328125" lon="1.56891323626041412353515625">
        <ele>148.399993896484375</ele>
        <time>2026-08-13T09:17:39.000Z</time>
        <extensions>
          <ns3:TrackPointExtension>
            <ns3:hr>92</ns3:hr>
            <ns3:cad>43</ns3:cad>
          </ns3:TrackPointExtension>
        </extensions>
      </trkpt>
      <trkpt lat="43.7764246948063373565673828125" lon="1.5689224563539028167724609375">
        <ele>148.399993896484375</ele>
        <time>2026-08-13T09:17:40.000Z</time>
        <extensions>
          <ns3:TrackPointExtension>
            <ns3:hr>92</ns3:hr>
            <ns3:cad>43</ns3:cad>
          </ns3:TrackPointExtension>
        </extensions>
      </trkpt>
      <trkpt lat="43.776415474712848663330078125" lon="1.56892505474388599395751953125">
        <ele>148.600006103515625</ele>
        <time>2026-08-13T09:17:41.000Z</time>
        <extensions>
          <ns3:TrackPointExtension>
            <ns3:hr>93</ns3:hr>
            <ns3:cad>43</ns3:cad>
          </ns3:TrackPointExtension>
        </extensions>
      </trkpt>
      <trkpt lat="43.77641304396092891693115234375" lon="1.5689318440854549407958984375">
        <ele>148.600006103515625</ele>
        <time>2026-08-13T09:17:42.000Z</time>
        <extensions>
          <ns3:TrackPointExtension>
            <ns3:hr>93</ns3:hr>
            <ns3:cad>43</ns3:cad>
          </ns3:TrackPointExtension>
        </extensions>
      </trkpt>
      <trkpt lat="43.77640164457261562347412109375" lon="1.5689439140260219573974609375">
        <ele>148.600006103515625</ele>
        <time>2026-08-13T09:17:43.000Z</time>
        <extensions>
          <ns3:TrackPointExtension>
            <ns3:hr>93</ns3:hr>
            <ns3:cad>45</ns3:cad>
          </ns3:TrackPointExtension>
        </extensions>
      </trkpt>
      <trkpt lat="43.7763901613652706146240234375" lon="1.56895640306174755096435546875">
        <ele>148.8000030517578125</ele>
        <time>2026-08-13T09:17:44.000Z</time>
        <extensions>
          <ns3:TrackPointExtension>
            <ns3:hr>94</ns3:hr>
            <ns3:cad>45</ns3:cad>
          </ns3:TrackPointExtension>
        </extensions>
      </trkpt>
      <trkpt lat="43.77638253383338451385498046875" lon="1.56896076165139675140380859375">
        <ele>148.8000030517578125</ele>
        <time>2026-08-13T09:17:45.000Z</time>
        <extensions>
          <ns3:TrackPointExtension>
            <ns3:hr>94</ns3:hr>
            <ns3:cad>0</ns3:cad>
          </ns3:TrackPointExtension>
        </extensions>
      </trkpt>
      <trkpt lat="43.776377253234386444091796875" lon="1.568964533507823944091796875">
        <ele>149</ele>
        <time>2026-08-13T09:17:46.000Z</time>
        <extensions>
          <ns3:TrackPointExtension>
            <ns3:hr>94</ns3:hr>
            <ns3:cad>0</ns3:cad>
          </ns3:TrackPointExtension>
        </extensions>
      </trkpt>
      <trkpt lat="43.7763626687228679656982421875" lon="1.56897467561066150665283203125">
        <ele>149</ele>
        <time>2026-08-13T09:17:47.000Z</time>
        <extensions>
          <ns3:TrackPointExtension>
            <ns3:hr>95</ns3:hr>
            <ns3:cad>0</ns3:cad>
          </ns3:TrackPointExtension>
        </extensions>
      </trkpt>
      <trkpt lat="43.77635370008647441864013671875" lon="1.56898272223770618438720703125">
        <ele>149</ele>
        <time>2026-08-13T09:17:48.000Z</time>
        <extensions>
          <ns3:TrackPointExtension>
            <ns3:hr>95</ns3:hr>
            <ns3:cad>44</ns3:cad>
          </ns3:TrackPointExtension>
        </extensions>
      </trkpt>
      <trkpt lat="43.7763485871255397796630859375" lon="1.568984650075435638427734375">
        <ele>149</ele>
        <time>2026-08-13T09:17:49.000Z</time>
        <extensions>
          <ns3:TrackPointExtension>
            <ns3:hr>96</ns3:hr>
            <ns3:cad>45</ns3:cad>
          </ns3:TrackPointExtension>
        </extensions>
      </trkpt>
      <trkpt lat="43.776346407830715179443359375" lon="1.56899160705506801605224609375">
        <ele>149.1999969482421875</ele>
        <time>2026-08-13T09:17:50.000Z</time>
        <extensions>
          <ns3:TrackPointExtension>
            <ns3:hr>96</ns3:hr>
            <ns3:cad>45</ns3:cad>
          </ns3:TrackPointExtension>
        </extensions>
      </trkpt>
      <trkpt lat="43.776333667337894439697265625" lon="1.5690045990049839019775390625">
        <ele>149.1999969482421875</ele>
        <time>2026-08-13T09:17:51.000Z</time>
        <extensions>
          <ns3:TrackPointExtension>
            <ns3:hr>96</ns3:hr>
            <ns3:cad>44</ns3:cad>
          </ns3:TrackPointExtension>
        </extensions>
      </trkpt>
      <trkpt lat="43.77632838673889636993408203125" lon="1.5690076164901256561279296875">
        <ele>149.1999969482421875</ele>
        <time>2026-08-13T09:17:52.000Z</time>
        <extensions>
          <ns3:TrackPointExtension>
            <ns3:hr>96</ns3:hr>
            <ns3:cad>44</ns3:cad>
          </ns3:TrackPointExtension>
        </extensions>
      </trkpt>
      <trkpt lat="43.77632386051118373870849609375" lon="1.5690123103559017181396484375">
        <ele>149.399993896484375</ele>
        <time>2026-08-13T09:17:53.000Z</time>
        <extensions>
          <ns3:TrackPointExtension>
            <ns3:hr>96</ns3:hr>
            <ns3:cad>44</ns3:cad>
          </ns3:TrackPointExtension>
        </extensions>
      </trkpt>
      <trkpt lat="43.77631061710417270660400390625" lon="1.56901977024972438812255859375">
        <ele>149.399993896484375</ele>
        <time>2026-08-13T09:17:54.000Z</time>
        <extensions>
          <ns3:TrackPointExtension>
            <ns3:hr>96</ns3:hr>
            <ns3:cad>44</ns3:cad>
          </ns3:TrackPointExtension>
        </extensions>
      </trkpt>
      <trkpt lat="43.77629921771585941314697265625" lon="1.56902899034321308135986328125">
        <ele>149.399993896484375</ele>
        <time>2026-08-13T09:17:55.000Z</time>
        <extensions>
          <ns3:TrackPointExtension>
            <ns3:hr>96</ns3:hr>
            <ns3:cad>44</ns3:cad>
          </ns3:TrackPointExtension>
        </extensions>
      </trkpt>
      <trkpt lat="43.7762902490794658660888671875" lon="1.56903502531349658966064453125">
        <ele>149.600006103515625</ele>
        <time>2026-08-13T09:17:56.000Z</time>
        <extensions>
          <ns3:TrackPointExtension>
            <ns3:hr>96</ns3:hr>
            <ns3:cad>43</ns3:cad>
          </ns3:TrackPointExtension>
        </extensions>
      </trkpt>
      <trkpt lat="43.77628781832754611968994140625" lon="1.56904541887342929840087890625">
        <ele>149.600006103515625</ele>
        <time>2026-08-13T09:17:57.000Z</time>
        <extensions>
          <ns3:TrackPointExtension>
            <ns3:hr>96</ns3:hr>
            <ns3:cad>43</ns3:cad>
          </ns3:TrackPointExtension>
        </extensions>
      </trkpt>
      <trkpt lat="43.77627440728247165679931640625" lon="1.5690599195659160614013671875">
        <ele>149.600006103515625</ele>
        <time>2026-08-13T09:17:58.000Z</time>
        <extensions>
          <ns3:TrackPointExtension>
            <ns3:hr>96</ns3:hr>
            <ns3:cad>42</ns3:cad>
          </ns3:TrackPointExtension>
        </extensions>
      </trkpt>
      <trkpt lat="43.776266276836395263671875" lon="1.56906721182167530059814453125">
        <ele>149.8000030517578125</ele>
        <time>2026-08-13T09:17:59.000Z</time>
        <extensions>
          <ns3:TrackPointExtension>
            <ns3:hr>96</ns3:hr>
            <ns3:cad>42</ns3:cad>
          </ns3:TrackPointExtension>
        </extensions>
      </trkpt>
      <trkpt lat="43.77626133151352405548095703125" lon="1.56907257623970508575439453125">
        <ele>149.8000030517578125</ele>
        <time>2026-08-13T09:18:00.000Z</time>
        <extensions>
          <ns3:TrackPointExtension>
            <ns3:hr>96</ns3:hr>
            <ns3:cad>42</ns3:cad>
          </ns3:TrackPointExtension>
        </extensions>
      </trkpt>
      <trkpt lat="43.77625127322971820831298828125" lon="1.56908179633319377899169921875">
        <ele>149.8000030517578125</ele>
        <time>2026-08-13T09:18:01.000Z</time>
        <extensions>
          <ns3:TrackPointExtension>
            <ns3:hr>96</ns3:hr>
            <ns3:cad>42</ns3:cad>
          </ns3:TrackPointExtension>
        </extensions>
      </trkpt>
      <trkpt lat="43.77624037675559520721435546875" lon="1.56909503974020481109619140625">
        <ele>150</ele>
        <time>2026-08-13T09:18:02.000Z</time>
        <extensions>
          <ns3:TrackPointExtension>
            <ns3:hr>97</ns3:hr>
            <ns3:cad>42</ns3:cad>
          </ns3:TrackPointExtension>
        </extensions>
      </trkpt>
      <trkpt lat="43.77623585052788257598876953125" lon="1.569100320339202880859375">
        <ele>150</ele>
        <time>2026-08-13T09:18:03.000Z</time>
        <extensions>
          <ns3:TrackPointExtension>
            <ns3:hr>97</ns3:hr>
            <ns3:cad>42</ns3:cad>
          </ns3:TrackPointExtension>
        </extensions>
      </trkpt>
      <trkpt lat="43.7762298993766307830810546875" lon="1.56910090707242488861083984375">
        <ele>150</ele>
        <time>2026-08-13T09:18:04.000Z</time>
        <extensions>
          <ns3:TrackPointExtension>
            <ns3:hr>97</ns3:hr>
            <ns3:cad>43</ns3:cad>
          </ns3:TrackPointExtension>
        </extensions>
      </trkpt>
      <trkpt lat="43.77622026018798351287841796875" lon="1.5691070258617401123046875">
        <ele>150.1999969482421875</ele>
        <time>2026-08-13T09:18:05.000Z</time>
        <extensions>
          <ns3:TrackPointExtension>
            <ns3:hr>97</ns3:hr>
            <ns3:cad>43</ns3:cad>
          </ns3:TrackPointExtension>
        </extensions>
      </trkpt>
      <trkpt lat="43.77621439285576343536376953125" lon="1.5691112168133258819580078125">
        <ele>150.1999969482421875</ele>
        <time>2026-08-13T09:18:06.000Z</time>
        <extensions>
          <ns3:TrackPointExtension>
            <ns3:hr>97</ns3:hr>
            <ns3:cad>42</ns3:cad>
          </ns3:TrackPointExtension>
        </extensions>
      </trkpt>
      <trkpt lat="43.7762091122567653656005859375" lon="1.569114737212657928466796875">
        <ele>150.1999969482421875</ele>
        <time>2026-08-13T09:18:07.000Z</time>
        <extensions>
          <ns3:TrackPointExtension>
            <ns3:hr>97</ns3:hr>
            <ns3:cad>42</ns3:cad>
          </ns3:TrackPointExtension>
        </extensions>
      </trkpt>
      <trkpt lat="43.77619846723973751068115234375" lon="1.5691202692687511444091796875">
        <ele>150.1999969482421875</ele>
        <time>2026-08-13T09:18:08.000Z</time>
        <extensions>
          <ns3:TrackPointExtension>
            <ns3:hr>96</ns3:hr>
            <ns3:cad>42</ns3:cad>
          </ns3:TrackPointExtension>
        </extensions>
      </trkpt>
      <trkpt lat="43.77618622966110706329345703125" lon="1.5691299922764301300048828125">
        <ele>150.1999969482421875</ele>
        <time>2026-08-13T09:18:09.000Z</time>
        <extensions>
          <ns3:TrackPointExtension>
            <ns3:hr>96</ns3:hr>
            <ns3:cad>44</ns3:cad>
          </ns3:TrackPointExtension>
        </extensions>
      </trkpt>
      <trkpt lat="43.77617969177663326263427734375" lon="1.5691346861422061920166015625">
        <ele>150.399993896484375</ele>
        <time>2026-08-13T09:18:10.000Z</time>
        <extensions>
          <ns3:TrackPointExtension>
            <ns3:hr>96</ns3:hr>
            <ns3:cad>43</ns3:cad>
          </ns3:TrackPointExtension>
        </extensions>
      </trkpt>
      <trkpt lat="43.77617198042571544647216796875" lon="1.56914013437926769256591796875">
        <ele>150.399993896484375</ele>
        <time>2026-08-13T09:18:11.000Z</time>
        <extensions>
          <ns3:TrackPointExtension>
            <ns3:hr>96</ns3:hr>
            <ns3:cad>42</ns3:cad>
          </ns3:TrackPointExtension>
        </extensions>
      </trkpt>
      <trkpt lat="43.77616024576127529144287109375" lon="1.56914952211081981658935546875">
        <ele>150.399993896484375</ele>
        <time>2026-08-13T09:18:12.000Z</time>
        <extensions>
          <ns3:TrackPointExtension>
            <ns3:hr>96</ns3:hr>
            <ns3:cad>42</ns3:cad>
          </ns3:TrackPointExtension>
        </extensions>
      </trkpt>
      <trkpt lat="43.77615354023873805999755859375" lon="1.5691548027098178863525390625">
        <ele>150.600006103515625</ele>
        <time>2026-08-13T09:18:13.000Z</time>
        <extensions>
          <ns3:TrackPointExtension>
            <ns3:hr>96</ns3:hr>
            <ns3:cad>41</ns3:cad>
          </ns3:TrackPointExtension>
        </extensions>
      </trkpt>
      <trkpt lat="43.77615018747746944427490234375" lon="1.5691588260233402252197265625">
        <ele>150.600006103515625</ele>
        <time>2026-08-13T09:18:14.000Z</time>
        <extensions>
          <ns3:TrackPointExtension>
            <ns3:hr>97</ns3:hr>
            <ns3:cad>41</ns3:cad>
          </ns3:TrackPointExtension>
        </extensions>
      </trkpt>
      <trkpt lat="43.77614029683172702789306640625" lon="1.56917030923068523406982421875">
        <ele>150.8000030517578125</ele>
        <time>2026-08-13T09:18:15.000Z</time>
        <extensions>
          <ns3:TrackPointExtension>
            <ns3:hr>97</ns3:hr>
            <ns3:cad>41</ns3:cad>
          </ns3:TrackPointExtension>
        </extensions>
      </trkpt>
      <trkpt lat="43.7761343456804752349853515625" lon="1.56917818821966648101806640625">
        <ele>150.8000030517578125</ele>
        <time>2026-08-13T09:18:16.000Z</time>
        <extensions>
          <ns3:TrackPointExtension>
            <ns3:hr>97</ns3:hr>
            <ns3:cad>41</ns3:cad>
          </ns3:TrackPointExtension>
        </extensions>
      </trkpt>
      <trkpt lat="43.776126466691493988037109375" lon="1.56918908469378948211669921875">
        <ele>150.8000030517578125</ele>
        <time>2026-08-13T09:18:17.000Z</time>
        <extensions>
          <ns3:TrackPointExtension>
            <ns3:hr>98</ns3:hr>
            <ns3:cad>43</ns3:cad>
          </ns3:TrackPointExtension>
        </extensions>
      </trkpt>
      <trkpt lat="43.776121772825717926025390625" lon="1.5691990591585636138916015625">
        <ele>151</ele>
        <time>2026-08-13T09:18:18.000Z</time>
        <extensions>
          <ns3:TrackPointExtension>
            <ns3:hr>97</ns3:hr>
            <ns3:cad>43</ns3:cad>
          </ns3:TrackPointExtension>
        </extensions>
      </trkpt>
      <trkpt lat="43.77611012198030948638916015625" lon="1.56921305693686008453369140625">
        <ele>151</ele>
        <time>2026-08-13T09:18:19.000Z</time>
        <extensions>
          <ns3:TrackPointExtension>
            <ns3:hr>97</ns3:hr>
            <ns3:cad>43</ns3:cad>
          </ns3:TrackPointExtension>
        </extensions>
      </trkpt>
      <trkpt lat="43.77610207535326480865478515625" lon="1.56922194175422191619873046875">
        <ele>151</ele>
        <time>2026-08-13T09:18:20.000Z</time>
        <extensions>
          <ns3:TrackPointExtension>
            <ns3:hr>97</ns3:hr>
            <ns3:cad>43</ns3:cad>
          </ns3:TrackPointExtension>
        </extensions>
      </trkpt>
      <trkpt lat="43.77609972842037677764892578125" lon="1.56922680325806140899658203125">
        <ele>151</ele>
        <time>2026-08-13T09:18:21.000Z</time>
        <extensions>
          <ns3:TrackPointExtension>
            <ns3:hr>97</ns3:hr>
            <ns3:cad>43</ns3:cad>
          </ns3:TrackPointExtension>
        </extensions>
      </trkpt>
      <trkpt lat="43.77608832903206348419189453125" lon="1.5692357718944549560546875">
        <ele>151</ele>
        <time>2026-08-13T09:18:22.000Z</time>
        <extensions>
          <ns3:TrackPointExtension>
            <ns3:hr>97</ns3:hr>
            <ns3:cad>42</ns3:cad>
          </ns3:TrackPointExtension>
        </extensions>
      </trkpt>
      <trkpt lat="43.77607919275760650634765625" lon="1.56924775801599025726318359375">
        <ele>151.1999969482421875</ele>
        <time>2026-08-13T09:18:23.000Z</time>
        <extensions>
          <ns3:TrackPointExtension>
            <ns3:hr>97</ns3:hr>
            <ns3:cad>43</ns3:cad>
          </ns3:TrackPointExtension>
        </extensions>
      </trkpt>
      <trkpt lat="43.77607047557830810546875" lon="1.569254212081432342529296875">
        <ele>151.1999969482421875</ele>
        <time>2026-08-13T09:18:24.000Z</time>
        <extensions>
          <ns3:TrackPointExtension>
            <ns3:hr>97</ns3:hr>
            <ns3:cad>43</ns3:cad>
          </ns3:TrackPointExtension>
        </extensions>
      </trkpt>
      <trkpt lat="43.77606117166578769683837890625" lon="1.56925932504236698150634765625">
        <ele>151.399993896484375</ele>
        <time>2026-08-13T09:18:25.000Z</time>
        <extensions>
          <ns3:TrackPointExtension>
            <ns3:hr>97</ns3:hr>
            <ns3:cad>43</ns3:cad>
          </ns3:TrackPointExtension>
        </extensions>
      </trkpt>
      <trkpt lat="43.77605278976261615753173828125" lon="1.5692652761936187744140625">
        <ele>151.600006103515625</ele>
        <time>2026-08-13T09:18:26.000Z</time>
        <extensions>
          <ns3:TrackPointExtension>
            <ns3:hr>97</ns3:hr>
            <ns3:cad>42</ns3:cad>
          </ns3:TrackPointExtension>
        </extensions>
      </trkpt>
      <trkpt lat="43.77605077810585498809814453125" lon="1.5692721493542194366455078125">
        <ele>151.600006103515625</ele>
        <time>2026-08-13T09:18:27.000Z</time>
        <extensions>
          <ns3:TrackPointExtension>
            <ns3:hr>96</ns3:hr>
            <ns3:cad>42</ns3:cad>
          </ns3:TrackPointExtension>
        </extensions>
      </trkpt>
      <trkpt lat="43.77604524604976177215576171875" lon="1.56927659176290035247802734375">
        <ele>151.8000030517578125</ele>
        <time>2026-08-13T09:18:28.000Z</time>
        <extensions>
          <ns3:TrackPointExtension>
            <ns3:hr>96</ns3:hr>
            <ns3:cad>42</ns3:cad>
          </ns3:TrackPointExtension>
        </extensions>
      </trkpt>
      <trkpt lat="43.77603250555694103240966796875" lon="1.569282375276088714599609375">
        <ele>151.8000030517578125</ele>
        <time>2026-08-13T09:18:29.000Z</time>
        <extensions>
          <ns3:TrackPointExtension>
            <ns3:hr>96</ns3:hr>
            <ns3:cad>42</ns3:cad>
          </ns3:TrackPointExtension>
        </extensions>
      </trkpt>
      <trkpt lat="43.77602345310151576995849609375" lon="1.56928949989378452301025390625">
        <ele>151.8000030517578125</ele>
        <time>2026-08-13T09:18:30.000Z</time>
        <extensions>
          <ns3:TrackPointExtension>
            <ns3:hr>95</ns3:hr>
            <ns3:cad>42</ns3:cad>
          </ns3:TrackPointExtension>
        </extensions>
      </trkpt>
      <trkpt lat="43.77601616084575653076171875" lon="1.5692946128547191619873046875">
        <ele>151.8000030517578125</ele>
        <time>2026-08-13T09:18:31.000Z</time>
        <extensions>
          <ns3:TrackPointExtension>
            <ns3:hr>95</ns3:hr>
            <ns3:cad>42</ns3:cad>
          </ns3:TrackPointExtension>
        </extensions>
      </trkpt>
      <trkpt lat="43.7760032527148723602294921875" lon="1.56930617988109588623046875">
        <ele>151.8000030517578125</ele>
        <time>2026-08-13T09:18:32.000Z</time>
        <extensions>
          <ns3:TrackPointExtension>
            <ns3:hr>96</ns3:hr>
            <ns3:cad>42</ns3:cad>
          </ns3:TrackPointExtension>
        </extensions>
      </trkpt>
      <trkpt lat="43.775995709002017974853515625" lon="1.56931154429912567138671875">
        <ele>152</ele>
        <time>2026-08-13T09:18:33.000Z</time>
        <extensions>
          <ns3:TrackPointExtension>
            <ns3:hr>96</ns3:hr>
            <ns3:cad>42</ns3:cad>
          </ns3:TrackPointExtension>
        </extensions>
      </trkpt>
      <trkpt lat="43.775986991822719573974609375" lon="1.56931565143167972564697265625">
        <ele>152</ele>
        <time>2026-08-13T09:18:34.000Z</time>
        <extensions>
          <ns3:TrackPointExtension>
            <ns3:hr>97</ns3:hr>
            <ns3:cad>42</ns3:cad>
          </ns3:TrackPointExtension>
        </extensions>
      </trkpt>
      <trkpt lat="43.77597995102405548095703125" lon="1.56932604499161243438720703125">
        <ele>152.1999969482421875</ele>
        <time>2026-08-13T09:18:35.000Z</time>
        <extensions>
          <ns3:TrackPointExtension>
            <ns3:hr>97</ns3:hr>
            <ns3:cad>42</ns3:cad>
          </ns3:TrackPointExtension>
        </extensions>
      </trkpt>
      <trkpt lat="43.77597098238766193389892578125" lon="1.56933610327541828155517578125">
        <ele>152.1999969482421875</ele>
        <time>2026-08-13T09:18:36.000Z</time>
        <extensions>
          <ns3:TrackPointExtension>
            <ns3:hr>96</ns3:hr>
            <ns3:cad>42</ns3:cad>
          </ns3:TrackPointExtension>
        </extensions>
      </trkpt>
      <trkpt lat="43.77596461214125156402587890625" lon="1.56934213824570178985595703125">
        <ele>152.1999969482421875</ele>
        <time>2026-08-13T09:18:37.000Z</time>
        <extensions>
          <ns3:TrackPointExtension>
            <ns3:hr>96</ns3:hr>
            <ns3:cad>42</ns3:cad>
          </ns3:TrackPointExtension>
        </extensions>
      </trkpt>
      <trkpt lat="43.7759636901319026947021484375" lon="1.5693482570350170135498046875">
        <ele>152.1999969482421875</ele>
        <time>2026-08-13T09:18:38.000Z</time>
        <extensions>
          <ns3:TrackPointExtension>
            <ns3:hr>95</ns3:hr>
            <ns3:cad>43</ns3:cad>
          </ns3:TrackPointExtension>
        </extensions>
      </trkpt>
      <trkpt lat="43.77595044672489166259765625" lon="1.56936024315655231475830078125">
        <ele>152.399993896484375</ele>
        <time>2026-08-13T09:18:39.000Z</time>
        <extensions>
          <ns3:TrackPointExtension>
            <ns3:hr>95</ns3:hr>
            <ns3:cad>43</ns3:cad>
          </ns3:TrackPointExtension>
        </extensions>
      </trkpt>
      <trkpt lat="43.77594566904008388519287109375" lon="1.56936393119394779205322265625">
        <ele>152.399993896484375</ele>
        <time>2026-08-13T09:18:40.000Z</time>
        <extensions>
          <ns3:TrackPointExtension>
            <ns3:hr>95</ns3:hr>
            <ns3:cad>42</ns3:cad>
          </ns3:TrackPointExtension>
        </extensions>
      </trkpt>
      <trkpt lat="43.7759439088404178619384765625" lon="1.569367535412311553955078125">
        <ele>152.600006103515625</ele>
        <time>2026-08-13T09:18:41.000Z</time>
        <extensions>
          <ns3:TrackPointExtension>
            <ns3:hr>96</ns3:hr>
            <ns3:cad>42</ns3:cad>
          </ns3:TrackPointExtension>
        </extensions>
      </trkpt>
      <trkpt lat="43.77593359909951686859130859375" lon="1.569376252591609954833984375">
        <ele>152.600006103515625</ele>
        <time>2026-08-13T09:18:42.000Z</time>
        <extensions>
          <ns3:TrackPointExtension>
            <ns3:hr>96</ns3:hr>
            <ns3:cad>42</ns3:cad>
          </ns3:TrackPointExtension>
        </extensions>
      </trkpt>
      <trkpt lat="43.7759269773960113525390625" lon="1.56938505358994007110595703125">
        <ele>152.8000030517578125</ele>
        <time>2026-08-13T09:18:43.000Z</time>
        <extensions>
          <ns3:TrackPointExtension>
            <ns3:hr>97</ns3:hr>
            <ns3:cad>42</ns3:cad>
          </ns3:TrackPointExtension>
        </extensions>
      </trkpt>
      <trkpt lat="43.77592253498733043670654296875" lon="1.56939008273184299468994140625">
        <ele>152.8000030517578125</ele>
        <time>2026-08-13T09:18:44.000Z</time>
        <extensions>
          <ns3:TrackPointExtension>
            <ns3:hr>97</ns3:hr>
            <ns3:cad>42</ns3:cad>
          </ns3:TrackPointExtension>
        </extensions>
      </trkpt>
      <trkpt lat="43.7759097106754779815673828125" lon="1.56939930282533168792724609375">
        <ele>152.8000030517578125</ele>
        <time>2026-08-13T09:18:45.000Z</time>
        <extensions>
          <ns3:TrackPointExtension>
            <ns3:hr>97</ns3:hr>
            <ns3:cad>42</ns3:cad>
          </ns3:TrackPointExtension>
        </extensions>
      </trkpt>
      <trkpt lat="43.775901161134243011474609375" lon="1.569406427443027496337890625">
        <ele>153</ele>
        <time>2026-08-13T09:18:46.000Z</time>
        <extensions>
          <ns3:TrackPointExtension>
            <ns3:hr>97</ns3:hr>
            <ns3:cad>42</ns3:cad>
          </ns3:TrackPointExtension>
        </extensions>
      </trkpt>
      <trkpt lat="43.775892443954944610595703125" lon="1.56941019929945468902587890625">
        <ele>153</ele>
        <time>2026-08-13T09:18:47.000Z</time>
        <extensions>
          <ns3:TrackPointExtension>
            <ns3:hr>98</ns3:hr>
            <ns3:cad>42</ns3:cad>
          </ns3:TrackPointExtension>
        </extensions>
      </trkpt>
      <trkpt lat="43.77588615752756595611572265625" lon="1.56941615045070648193359375">
        <ele>153.1999969482421875</ele>
        <time>2026-08-13T09:18:48.000Z</time>
        <extensions>
          <ns3:TrackPointExtension>
            <ns3:hr>98</ns3:hr>
            <ns3:cad>41</ns3:cad>
          </ns3:TrackPointExtension>
        </extensions>
      </trkpt>
      <trkpt lat="43.77587710507214069366455078125" lon="1.56942210160195827484130859375">
        <ele>153.1999969482421875</ele>
        <time>2026-08-13T09:18:49.000Z</time>
        <extensions>
          <ns3:TrackPointExtension>
            <ns3:hr>98</ns3:hr>
            <ns3:cad>41</ns3:cad>
          </ns3:TrackPointExtension>
        </extensions>
      </trkpt>
      <trkpt lat="43.77587266266345977783203125" lon="1.569427214562892913818359375">
        <ele>153.1999969482421875</ele>
        <time>2026-08-13T09:18:50.000Z</time>
        <extensions>
          <ns3:TrackPointExtension>
            <ns3:hr>99</ns3:hr>
            <ns3:cad>41</ns3:cad>
          </ns3:TrackPointExtension>
        </extensions>
      </trkpt>
      <trkpt lat="43.77586662769317626953125" lon="1.5694310702383518218994140625">
        <ele>153.399993896484375</ele>
        <time>2026-08-13T09:18:51.000Z</time>
        <extensions>
          <ns3:TrackPointExtension>
            <ns3:hr>100</ns3:hr>
            <ns3:cad>41</ns3:cad>
          </ns3:TrackPointExtension>
        </extensions>
      </trkpt>
      <trkpt lat="43.7758587487041950225830078125" lon="1.56944104470312595367431640625">
        <ele>153.399993896484375</ele>
        <time>2026-08-13T09:18:52.000Z</time>
        <extensions>
          <ns3:TrackPointExtension>
            <ns3:hr>100</ns3:hr>
            <ns3:cad>41</ns3:cad>
          </ns3:TrackPointExtension>
        </extensions>
      </trkpt>
      <trkpt lat="43.7758507020771503448486328125" lon="1.56944590620696544647216796875">
        <ele>153.399993896484375</ele>
        <time>2026-08-13T09:18:53.000Z</time>
        <extensions>
          <ns3:TrackPointExtension>
            <ns3:hr>100</ns3:hr>
            <ns3:cad>41</ns3:cad>
          </ns3:TrackPointExtension>
        </extensions>
      </trkpt>
      <trkpt lat="43.77584726549685001373291015625" lon="1.56945127062499523162841796875">
        <ele>153.600006103515625</ele>
        <time>2026-08-13T09:18:54.000Z</time>
        <extensions>
          <ns3:TrackPointExtension>
            <ns3:hr>100</ns3:hr>
            <ns3:cad>77</ns3:cad>
          </ns3:TrackPointExtension>
        </extensions>
      </trkpt>
      <trkpt lat="43.7758356146514415740966796875" lon="1.569457389414310455322265625">
        <ele>153.600006103515625</ele>
        <time>2026-08-13T09:18:55.000Z</time>
        <extensions>
          <ns3:TrackPointExtension>
            <ns3:hr>100</ns3:hr>
            <ns3:cad>41</ns3:cad>
          </ns3:TrackPointExtension>
        </extensions>
      </trkpt>
      <trkpt lat="43.77582840621471405029296875" lon="1.56946082599461078643798828125">
        <ele>153.8000030517578125</ele>
        <time>2026-08-13T09:18:56.000Z</time>
        <extensions>
          <ns3:TrackPointExtension>
            <ns3:hr>100</ns3:hr>
            <ns3:cad>41</ns3:cad>
          </ns3:TrackPointExtension>
        </extensions>
      </trkpt>
      <trkpt lat="43.775818683207035064697265625" lon="1.569463424384593963623046875">
        <ele>153.8000030517578125</ele>
        <time>2026-08-13T09:18:57.000Z</time>
        <extensions>
          <ns3:TrackPointExtension>
            <ns3:hr>101</ns3:hr>
            <ns3:cad>41</ns3:cad>
          </ns3:TrackPointExtension>
        </extensions>
      </trkpt>
      <trkpt lat="43.77581122331321239471435546875" lon="1.5694677829742431640625">
        <ele>154</ele>
        <time>2026-08-13T09:18:58.000Z</time>
        <extensions>
          <ns3:TrackPointExtension>
            <ns3:hr>101</ns3:hr>
            <ns3:cad>41</ns3:cad>
          </ns3:TrackPointExtension>
        </extensions>
      </trkpt>
      <trkpt lat="43.7758034281432628631591796875" lon="1.5694702975451946258544921875">
        <ele>154</ele>
        <time>2026-08-13T09:18:59.000Z</time>
        <extensions>
          <ns3:TrackPointExtension>
            <ns3:hr>101</ns3:hr>
            <ns3:cad>41</ns3:cad>
          </ns3:TrackPointExtension>
        </extensions>
      </trkpt>
      <trkpt lat="43.77579328604042530059814453125" lon="1.56947725452482700347900390625">
        <ele>154</ele>
        <time>2026-08-13T09:19:00.000Z</time>
        <extensions>
          <ns3:TrackPointExtension>
            <ns3:hr>103</ns3:hr>
            <ns3:cad>40</ns3:cad>
          </ns3:TrackPointExtension>
        </extensions>
      </trkpt>
      <trkpt lat="43.7757826410233974456787109375" lon="1.56948127783834934234619140625">
        <ele>154</ele>
        <time>2026-08-13T09:19:01.000Z</time>
        <extensions>
          <ns3:TrackPointExtension>
            <ns3:hr>104</ns3:hr>
            <ns3:cad>40</ns3:cad>
          </ns3:TrackPointExtension>
        </extensions>
      </trkpt>
      <trkpt lat="43.7757749296724796295166015625" lon="1.56948915682733058929443359375">
        <ele>154</ele>
        <time>2026-08-13T09:19:02.000Z</time>
        <extensions>
          <ns3:TrackPointExtension>
            <ns3:hr>104</ns3:hr>
            <ns3:cad>43</ns3:cad>
          </ns3:TrackPointExtension>
        </extensions>
      </trkpt>
      <trkpt lat="43.77576713450253009796142578125" lon="1.56949284486472606658935546875">
        <ele>154.1999969482421875</ele>
        <time>2026-08-13T09:19:03.000Z</time>
        <extensions>
          <ns3:TrackPointExtension>
            <ns3:hr>105</ns3:hr>
            <ns3:cad>43</ns3:cad>
          </ns3:TrackPointExtension>
        </extensions>
      </trkpt>
      <trkpt lat="43.7757625244557857513427734375" lon="1.56950675882399082183837890625">
        <ele>154.1999969482421875</ele>
        <time>2026-08-13T09:19:04.000Z</time>
        <extensions>
          <ns3:TrackPointExtension>
            <ns3:hr>105</ns3:hr>
            <ns3:cad>43</ns3:cad>
          </ns3:TrackPointExtension>
        </extensions>
      </trkpt>
      <trkpt lat="43.77575070597231388092041015625" lon="1.56952075660228729248046875">
        <ele>154.399993896484375</ele>
        <time>2026-08-13T09:19:05.000Z</time>
        <extensions>
          <ns3:TrackPointExtension>
            <ns3:hr>105</ns3:hr>
            <ns3:cad>43</ns3:cad>
          </ns3:TrackPointExtension>
        </extensions>
      </trkpt>
      <trkpt lat="43.77574081532657146453857421875" lon="1.56953106634318828582763671875">
        <ele>154.399993896484375</ele>
        <time>2026-08-13T09:19:06.000Z</time>
        <extensions>
          <ns3:TrackPointExtension>
            <ns3:hr>104</ns3:hr>
            <ns3:cad>43</ns3:cad>
          </ns3:TrackPointExtension>
        </extensions>
      </trkpt>
      <trkpt lat="43.77573293633759021759033203125" lon="1.56953760422766208648681640625">
        <ele>154.600006103515625</ele>
        <time>2026-08-13T09:19:07.000Z</time>
        <extensions>
          <ns3:TrackPointExtension>
            <ns3:hr>104</ns3:hr>
            <ns3:cad>43</ns3:cad>
          </ns3:TrackPointExtension>
        </extensions>
      </trkpt>
      <trkpt lat="43.77572187222540378570556640625" lon="1.5695464052259922027587890625">
        <ele>154.8000030517578125</ele>
        <time>2026-08-13T09:19:08.000Z</time>
        <extensions>
          <ns3:TrackPointExtension>
            <ns3:hr>104</ns3:hr>
            <ns3:cad>42</ns3:cad>
          </ns3:TrackPointExtension>
        </extensions>
      </trkpt>
      <trkpt lat="43.775710053741931915283203125" lon="1.5695564635097980499267578125">
        <ele>154.8000030517578125</ele>
        <time>2026-08-13T09:19:09.000Z</time>
        <extensions>
          <ns3:TrackPointExtension>
            <ns3:hr>104</ns3:hr>
            <ns3:cad>42</ns3:cad>
          </ns3:TrackPointExtension>
        </extensions>
      </trkpt>
      <trkpt lat="43.775704018771648406982421875" lon="1.56955973245203495025634765625">
        <ele>155</ele>
        <time>2026-08-13T09:19:10.000Z</time>
        <extensions>
          <ns3:TrackPointExtension>
            <ns3:hr>104</ns3:hr>
            <ns3:cad>42</ns3:cad>
          </ns3:TrackPointExtension>
        </extensions>
      </trkpt>
      <trkpt lat="43.7757004983723163604736328125" lon="1.56956769526004791259765625">
        <ele>155</ele>
        <time>2026-08-13T09:19:11.000Z</time>
        <extensions>
          <ns3:TrackPointExtension>
            <ns3:hr>103</ns3:hr>
            <ns3:cad>42</ns3:cad>
          </ns3:TrackPointExtension>
        </extensions>
      </trkpt>
      <trkpt lat="43.77568935044109821319580078125" lon="1.56958102248609066009521484375">
        <ele>155</ele>
        <time>2026-08-13T09:19:12.000Z</time>
        <extensions>
          <ns3:TrackPointExtension>
            <ns3:hr>103</ns3:hr>
            <ns3:cad>43</ns3:cad>
          </ns3:TrackPointExtension>
        </extensions>
      </trkpt>
      <trkpt lat="43.77568096853792667388916015625" lon="1.56958739273250102996826171875">
        <ele>155.1999969482421875</ele>
        <time>2026-08-13T09:19:13.000Z</time>
        <extensions>
          <ns3:TrackPointExtension>
            <ns3:hr>102</ns3:hr>
            <ns3:cad>43</ns3:cad>
          </ns3:TrackPointExtension>
        </extensions>
      </trkpt>
      <trkpt lat="43.77567493356764316558837890625" lon="1.5695899911224842071533203125">
        <ele>155.1999969482421875</ele>
        <time>2026-08-13T09:19:14.000Z</time>
        <extensions>
          <ns3:TrackPointExtension>
            <ns3:hr>102</ns3:hr>
            <ns3:cad>43</ns3:cad>
          </ns3:TrackPointExtension>
        </extensions>
      </trkpt>
      <trkpt lat="43.7756642885506153106689453125" lon="1.569595523178577423095703125">
        <ele>155.1999969482421875</ele>
        <time>2026-08-13T09:19:15.000Z</time>
        <extensions>
          <ns3:TrackPointExtension>
            <ns3:hr>101</ns3:hr>
            <ns3:cad>43</ns3:cad>
          </ns3:TrackPointExtension>
        </extensions>
      </trkpt>
      <trkpt lat="43.77565263770520687103271484375" lon="1.5696091018617153167724609375">
        <ele>155.399993896484375</ele>
        <time>2026-08-13T09:19:16.000Z</time>
        <extensions>
          <ns3:TrackPointExtension>
            <ns3:hr>101</ns3:hr>
            <ns3:cad>43</ns3:cad>
          </ns3:TrackPointExtension>
        </extensions>
      </trkpt>
      <trkpt lat="43.77564408816397190093994140625" lon="1.5696166455745697021484375">
        <ele>155.399993896484375</ele>
        <time>2026-08-13T09:19:17.000Z</time>
        <extensions>
          <ns3:TrackPointExtension>
            <ns3:hr>100</ns3:hr>
            <ns3:cad>43</ns3:cad>
          </ns3:TrackPointExtension>
        </extensions>
      </trkpt>
      <trkpt lat="43.7756371311843395233154296875" lon="1.56962092034518718719482421875">
        <ele>155.399993896484375</ele>
        <time>2026-08-13T09:19:18.000Z</time>
        <extensions>
          <ns3:TrackPointExtension>
            <ns3:hr>99</ns3:hr>
            <ns3:cad>44</ns3:cad>
          </ns3:TrackPointExtension>
        </extensions>
      </trkpt>
      <trkpt lat="43.77562648616731166839599609375" lon="1.56963081099092960357666015625">
        <ele>155.600006103515625</ele>
        <time>2026-08-13T09:19:19.000Z</time>
        <extensions>
          <ns3:TrackPointExtension>
            <ns3:hr>99</ns3:hr>
            <ns3:cad>44</ns3:cad>
          </ns3:TrackPointExtension>
        </extensions>
      </trkpt>
      <trkpt lat="43.775616846978664398193359375" lon="1.56963902525603771209716796875">
        <ele>155.600006103515625</ele>
        <time>2026-08-13T09:19:20.000Z</time>
        <extensions>
          <ns3:TrackPointExtension>
            <ns3:hr>99</ns3:hr>
            <ns3:cad>43</ns3:cad>
          </ns3:TrackPointExtension>
        </extensions>
      </trkpt>
      <trkpt lat="43.775610141456127166748046875" lon="1.5696461498737335205078125">
        <ele>155.8000030517578125</ele>
        <time>2026-08-13T09:19:21.000Z</time>
        <extensions>
          <ns3:TrackPointExtension>
            <ns3:hr>99</ns3:hr>
            <ns3:cad>43</ns3:cad>
          </ns3:TrackPointExtension>
        </extensions>
      </trkpt>
      <trkpt lat="43.77560469321906566619873046875" lon="1.56965360976755619049072265625">
        <ele>155.8000030517578125</ele>
        <time>2026-08-13T09:19:22.000Z</time>
        <extensions>
          <ns3:TrackPointExtension>
            <ns3:hr>99</ns3:hr>
            <ns3:cad>43</ns3:cad>
          </ns3:TrackPointExtension>
        </extensions>
      </trkpt>
      <trkpt lat="43.775597400963306427001953125" lon="1.5696620754897594451904296875">
        <ele>155.8000030517578125</ele>
        <time>2026-08-13T09:19:23.000Z</time>
        <extensions>
          <ns3:TrackPointExtension>
            <ns3:hr>99</ns3:hr>
            <ns3:cad>43</ns3:cad>
          </ns3:TrackPointExtension>
        </extensions>
      </trkpt>
      <trkpt lat="43.77559245564043521881103515625" lon="1.56967020593583583831787109375">
        <ele>156</ele>
        <time>2026-08-13T09:19:24.000Z</time>
        <extensions>
          <ns3:TrackPointExtension>
            <ns3:hr>98</ns3:hr>
            <ns3:cad>43</ns3:cad>
          </ns3:TrackPointExtension>
        </extensions>
      </trkpt>
      <trkpt lat="43.775584995746612548828125" lon="1.56967154704034328460693359375">
        <ele>156</ele>
        <time>2026-08-13T09:19:25.000Z</time>
        <extensions>
          <ns3:TrackPointExtension>
            <ns3:hr>98</ns3:hr>
            <ns3:cad>43</ns3:cad>
          </ns3:TrackPointExtension>
        </extensions>
      </trkpt>
      <trkpt lat="43.77557384781539440155029296875" lon="1.56968093477189540863037109375">
        <ele>156</ele>
        <time>2026-08-13T09:19:26.000Z</time>
        <extensions>
          <ns3:TrackPointExtension>
            <ns3:hr>98</ns3:hr>
            <ns3:cad>41</ns3:cad>
          </ns3:TrackPointExtension>
        </extensions>
      </trkpt>
      <trkpt lat="43.77556479535996913909912109375" lon="1.56969049014151096343994140625">
        <ele>156.1999969482421875</ele>
        <time>2026-08-13T09:19:27.000Z</time>
        <extensions>
          <ns3:TrackPointExtension>
            <ns3:hr>98</ns3:hr>
            <ns3:cad>42</ns3:cad>
          </ns3:TrackPointExtension>
        </extensions>
      </trkpt>
      <trkpt lat="43.775557167828083038330078125" lon="1.56969107687473297119140625">
        <ele>156.1999969482421875</ele>
        <time>2026-08-13T09:19:28.000Z</time>
        <extensions>
          <ns3:TrackPointExtension>
            <ns3:hr>98</ns3:hr>
            <ns3:cad>42</ns3:cad>
          </ns3:TrackPointExtension>
        </extensions>
      </trkpt>
      <trkpt lat="43.7755536474287509918212890625" lon="1.56969719566404819488525390625">
        <ele>156.1999969482421875</ele>
        <time>2026-08-13T09:19:29.000Z</time>
        <extensions>
          <ns3:TrackPointExtension>
            <ns3:hr>97</ns3:hr>
            <ns3:cad>42</ns3:cad>
          </ns3:TrackPointExtension>
        </extensions>
      </trkpt>
      <trkpt lat="43.7755422480404376983642578125" lon="1.5697051584720611572265625">
        <ele>156.1999969482421875</ele>
        <time>2026-08-13T09:19:30.000Z</time>
        <extensions>
          <ns3:TrackPointExtension>
            <ns3:hr>97</ns3:hr>
            <ns3:cad>43</ns3:cad>
          </ns3:TrackPointExtension>
        </extensions>
      </trkpt>
      <trkpt lat="43.77553462050855159759521484375" lon="1.56971412710845470428466796875">
        <ele>156.399993896484375</ele>
        <time>2026-08-13T09:19:31.000Z</time>
        <extensions>
          <ns3:TrackPointExtension>
            <ns3:hr>96</ns3:hr>
            <ns3:cad>43</ns3:cad>
          </ns3:TrackPointExtension>
        </extensions>
      </trkpt>
      <trkpt lat="43.7755291722714900970458984375" lon="1.56972016207873821258544921875">
        <ele>156.399993896484375</ele>
        <time>2026-08-13T09:19:32.000Z</time>
        <extensions>
          <ns3:TrackPointExtension>
            <ns3:hr>96</ns3:hr>
            <ns3:cad>44</ns3:cad>
          </ns3:TrackPointExtension>
        </extensions>
      </trkpt>
      <trkpt lat="43.77552137710154056549072265625" lon="1.56972535885870456695556640625">
        <ele>156.399993896484375</ele>
        <time>2026-08-13T09:19:33.000Z</time>
        <extensions>
          <ns3:TrackPointExtension>
            <ns3:hr>96</ns3:hr>
            <ns3:cad>44</ns3:cad>
          </ns3:TrackPointExtension>
        </extensions>
      </trkpt>
      <trkpt lat="43.77550922334194183349609375" lon="1.5697331540286540985107421875">
        <ele>156.600006103515625</ele>
        <time>2026-08-13T09:19:34.000Z</time>
        <extensions>
          <ns3:TrackPointExtension>
            <ns3:hr>96</ns3:hr>
            <ns3:cad>43</ns3:cad>
          </ns3:TrackPointExtension>
        </extensions>
      </trkpt>
      <trkpt lat="43.77550142817199230194091796875" lon="1.56973843462765216827392578125">
        <ele>156.600006103515625</ele>
        <time>2026-08-13T09:19:35.000Z</time>
        <extensions>
          <ns3:TrackPointExtension>
            <ns3:hr>95</ns3:hr>
            <ns3:cad>43</ns3:cad>
          </ns3:TrackPointExtension>
        </extensions>
      </trkpt>
      <trkpt lat="43.7754956446588039398193359375" lon="1.56974614597856998443603515625">
        <ele>156.600006103515625</ele>
        <time>2026-08-13T09:19:36.000Z</time>
        <extensions>
          <ns3:TrackPointExtension>
            <ns3:hr>95</ns3:hr>
            <ns3:cad>43</ns3:cad>
          </ns3:TrackPointExtension>
        </extensions>
      </trkpt>
      <trkpt lat="43.77548902295529842376708984375" lon="1.569753102958202362060546875">
        <ele>156.600006103515625</ele>
        <time>2026-08-13T09:19:37.000Z</time>
        <extensions>
          <ns3:TrackPointExtension>
            <ns3:hr>95</ns3:hr>
            <ns3:cad>43</ns3:cad>
          </ns3:TrackPointExtension>
        </extensions>
      </trkpt>
      <trkpt lat="43.77547594718635082244873046875" lon="1.5697636641561985015869140625">
        <ele>156.600006103515625</ele>
        <time>2026-08-13T09:19:38.000Z</time>
        <extensions>
          <ns3:TrackPointExtension>
            <ns3:hr>94</ns3:hr>
            <ns3:cad>43</ns3:cad>
          </ns3:TrackPointExtension>
        </extensions>
      </trkpt>
      <trkpt lat="43.77547058276832103729248046875" lon="1.56976978294551372528076171875">
        <ele>156.8000030517578125</ele>
        <time>2026-08-13T09:19:39.000Z</time>
        <extensions>
          <ns3:TrackPointExtension>
            <ns3:hr>94</ns3:hr>
            <ns3:cad>43</ns3:cad>
          </ns3:TrackPointExtension>
        </extensions>
      </trkpt>
      <trkpt lat="43.7754651345312595367431640625" lon="1.5697757340967655181884765625">
        <ele>156.8000030517578125</ele>
        <time>2026-08-13T09:19:40.000Z</time>
        <extensions>
          <ns3:TrackPointExtension>
            <ns3:hr>94</ns3:hr>
            <ns3:cad>45</ns3:cad>
          </ns3:TrackPointExtension>
        </extensions>
      </trkpt>
      <trkpt lat="43.7754587642848491668701171875" lon="1.56978227198123931884765625">
        <ele>156.8000030517578125</ele>
        <time>2026-08-13T09:19:41.000Z</time>
        <extensions>
          <ns3:TrackPointExtension>
            <ns3:hr>94</ns3:hr>
            <ns3:cad>45</ns3:cad>
          </ns3:TrackPointExtension>
        </extensions>
      </trkpt>
      <trkpt lat="43.77544661052525043487548828125" lon="1.56979207880795001983642578125">
        <ele>157</ele>
        <time>2026-08-13T09:19:42.000Z</time>
        <extensions>
          <ns3:TrackPointExtension>
            <ns3:hr>95</ns3:hr>
            <ns3:cad>46</ns3:cad>
          </ns3:TrackPointExtension>
        </extensions>
      </trkpt>
      <trkpt lat="43.77543923445045948028564453125" lon="1.56979878433048725128173828125">
        <ele>157</ele>
        <time>2026-08-13T09:19:43.000Z</time>
        <extensions>
          <ns3:TrackPointExtension>
            <ns3:hr>95</ns3:hr>
            <ns3:cad>46</ns3:cad>
          </ns3:TrackPointExtension>
        </extensions>
      </trkpt>
      <trkpt lat="43.77543336711823940277099609375" lon="1.56980414874851703643798828125">
        <ele>157</ele>
        <time>2026-08-13T09:19:44.000Z</time>
        <extensions>
          <ns3:TrackPointExtension>
            <ns3:hr>95</ns3:hr>
            <ns3:cad>45</ns3:cad>
          </ns3:TrackPointExtension>
        </extensions>
      </trkpt>
      <trkpt lat="43.775426410138607025146484375" lon="1.56981336884200572967529296875">
        <ele>157.1999969482421875</ele>
        <time>2026-08-13T09:19:45.000Z</time>
        <extensions>
          <ns3:TrackPointExtension>
            <ns3:hr>95</ns3:hr>
            <ns3:cad>45</ns3:cad>
          </ns3:TrackPointExtension>
        </extensions>
      </trkpt>
      <trkpt lat="43.77541392110288143157958984375" lon="1.56982510350644588470458984375">
        <ele>157.1999969482421875</ele>
        <time>2026-08-13T09:19:46.000Z</time>
        <extensions>
          <ns3:TrackPointExtension>
            <ns3:hr>96</ns3:hr>
            <ns3:cad>44</ns3:cad>
          </ns3:TrackPointExtension>
        </extensions>
      </trkpt>
      <trkpt lat="43.77540486864745616912841796875" lon="1.569831557571887969970703125">
        <ele>157.1999969482421875</ele>
        <time>2026-08-13T09:19:47.000Z</time>
        <extensions>
          <ns3:TrackPointExtension>
            <ns3:hr>96</ns3:hr>
            <ns3:cad>44</ns3:cad>
          </ns3:TrackPointExtension>
        </extensions>
      </trkpt>
      <trkpt lat="43.77540051005780696868896484375" lon="1.56983717344701290130615234375">
        <ele>157.1999969482421875</ele>
        <time>2026-08-13T09:19:48.000Z</time>
        <extensions>
          <ns3:TrackPointExtension>
            <ns3:hr>96</ns3:hr>
            <ns3:cad>44</ns3:cad>
          </ns3:TrackPointExtension>
        </extensions>
      </trkpt>
      <trkpt lat="43.775387518107891082763671875" lon="1.5698491595685482025146484375">
        <ele>157.399993896484375</ele>
        <time>2026-08-13T09:19:49.000Z</time>
        <extensions>
          <ns3:TrackPointExtension>
            <ns3:hr>96</ns3:hr>
            <ns3:cad>44</ns3:cad>
          </ns3:TrackPointExtension>
        </extensions>
      </trkpt>
      <trkpt lat="43.7753789685666561126708984375" lon="1.56985594891011714935302734375">
        <ele>157.399993896484375</ele>
        <time>2026-08-13T09:19:50.000Z</time>
        <extensions>
          <ns3:TrackPointExtension>
            <ns3:hr>95</ns3:hr>
            <ns3:cad>44</ns3:cad>
          </ns3:TrackPointExtension>
        </extensions>
      </trkpt>
      <trkpt lat="43.77537217922508716583251953125" lon="1.5698608942329883575439453125">
        <ele>157.399993896484375</ele>
        <time>2026-08-13T09:19:51.000Z</time>
        <extensions>
          <ns3:TrackPointExtension>
            <ns3:hr>96</ns3:hr>
            <ns3:cad>44</ns3:cad>
          </ns3:TrackPointExtension>
        </extensions>
      </trkpt>
      <trkpt lat="43.77537268213927745819091796875" lon="1.5698692761361598968505859375">
        <ele>157.399993896484375</ele>
        <time>2026-08-13T09:19:52.000Z</time>
        <extensions>
          <ns3:TrackPointExtension>
            <ns3:hr>96</ns3:hr>
            <ns3:cad>44</ns3:cad>
          </ns3:TrackPointExtension>
        </extensions>
      </trkpt>
      <trkpt lat="43.7753625400364398956298828125" lon="1.56988159753382205963134765625">
        <ele>157.600006103515625</ele>
        <time>2026-08-13T09:19:53.000Z</time>
        <extensions>
          <ns3:TrackPointExtension>
            <ns3:hr>96</ns3:hr>
            <ns3:cad>43</ns3:cad>
          </ns3:TrackPointExtension>
        </extensions>
      </trkpt>
      <trkpt lat="43.7753534875810146331787109375" lon="1.56989064998924732208251953125">
        <ele>157.600006103515625</ele>
        <time>2026-08-13T09:19:54.000Z</time>
        <extensions>
          <ns3:TrackPointExtension>
            <ns3:hr>96</ns3:hr>
            <ns3:cad>43</ns3:cad>
          </ns3:TrackPointExtension>
        </extensions>
      </trkpt>
      <trkpt lat="43.77534669823944568634033203125" lon="1.5698950923979282379150390625">
        <ele>157.600006103515625</ele>
        <time>2026-08-13T09:19:55.000Z</time>
        <extensions>
          <ns3:TrackPointExtension>
            <ns3:hr>97</ns3:hr>
            <ns3:cad>43</ns3:cad>
          </ns3:TrackPointExtension>
        </extensions>
      </trkpt>
      <trkpt lat="43.77534284256398677825927734375" lon="1.56990121118724346160888671875">
        <ele>157.600006103515625</ele>
        <time>2026-08-13T09:19:56.000Z</time>
        <extensions>
          <ns3:TrackPointExtension>
            <ns3:hr>97</ns3:hr>
            <ns3:cad>43</ns3:cad>
          </ns3:TrackPointExtension>
        </extensions>
      </trkpt>
      <trkpt lat="43.77532725222408771514892578125" lon="1.569911353290081024169921875">
        <ele>157.8000030517578125</ele>
        <time>2026-08-13T09:19:57.000Z</time>
        <extensions>
          <ns3:TrackPointExtension>
            <ns3:hr>97</ns3:hr>
            <ns3:cad>44</ns3:cad>
          </ns3:TrackPointExtension>
        </extensions>
      </trkpt>
      <trkpt lat="43.7753159366548061370849609375" lon="1.56992350704967975616455078125">
        <ele>157.8000030517578125</ele>
        <time>2026-08-13T09:19:58.000Z</time>
        <extensions>
          <ns3:TrackPointExtension>
            <ns3:hr>97</ns3:hr>
            <ns3:cad>44</ns3:cad>
          </ns3:TrackPointExtension>
        </extensions>
      </trkpt>
      <trkpt lat="43.77530805766582489013671875" lon="1.56992970965802669525146484375">
        <ele>157.8000030517578125</ele>
        <time>2026-08-13T09:19:59.000Z</time>
        <extensions>
          <ns3:TrackPointExtension>
            <ns3:hr>98</ns3:hr>
            <ns3:cad>45</ns3:cad>
          </ns3:TrackPointExtension>
        </extensions>
      </trkpt>
      <trkpt lat="43.77530059777200222015380859375" lon="1.56993809156119823455810546875">
        <ele>157.8000030517578125</ele>
        <time>2026-08-13T09:20:00.000Z</time>
        <extensions>
          <ns3:TrackPointExtension>
            <ns3:hr>98</ns3:hr>
            <ns3:cad>45</ns3:cad>
          </ns3:TrackPointExtension>
        </extensions>
      </trkpt>
      <trkpt lat="43.77528886310756206512451171875" lon="1.56994848512113094329833984375">
        <ele>157.8000030517578125</ele>
        <time>2026-08-13T09:20:01.000Z</time>
        <extensions>
          <ns3:TrackPointExtension>
            <ns3:hr>98</ns3:hr>
            <ns3:cad>45</ns3:cad>
          </ns3:TrackPointExtension>
        </extensions>
      </trkpt>
      <trkpt lat="43.77528123557567596435546875" lon="1.56995653174817562103271484375">
        <ele>157.8000030517578125</ele>
        <time>2026-08-13T09:20:02.000Z</time>
        <extensions>
          <ns3:TrackPointExtension>
            <ns3:hr>98</ns3:hr>
            <ns3:cad>45</ns3:cad>
          </ns3:TrackPointExtension>
        </extensions>
      </trkpt>
      <trkpt lat="43.7752725183963775634765625" lon="1.56996206380426883697509765625">
        <ele>158</ele>
        <time>2026-08-13T09:20:03.000Z</time>
        <extensions>
          <ns3:TrackPointExtension>
            <ns3:hr>99</ns3:hr>
            <ns3:cad>45</ns3:cad>
          </ns3:TrackPointExtension>
        </extensions>
      </trkpt>
      <trkpt lat="43.77526505850255489349365234375" lon="1.56996726058423519134521484375">
        <ele>158</ele>
        <time>2026-08-13T09:20:04.000Z</time>
        <extensions>
          <ns3:TrackPointExtension>
            <ns3:hr>100</ns3:hr>
            <ns3:cad>44</ns3:cad>
          </ns3:TrackPointExtension>
        </extensions>
      </trkpt>
      <trkpt lat="43.7752508930861949920654296875" lon="1.56997614540159702301025390625">
        <ele>158</ele>
        <time>2026-08-13T09:20:05.000Z</time>
        <extensions>
          <ns3:TrackPointExtension>
            <ns3:hr>100</ns3:hr>
            <ns3:cad>44</ns3:cad>
          </ns3:TrackPointExtension>
        </extensions>
      </trkpt>
      <trkpt lat="43.7752398289740085601806640625" lon="1.56998234800994396209716796875">
        <ele>158.1999969482421875</ele>
        <time>2026-08-13T09:20:06.000Z</time>
        <extensions>
          <ns3:TrackPointExtension>
            <ns3:hr>100</ns3:hr>
            <ns3:cad>45</ns3:cad>
          </ns3:TrackPointExtension>
        </extensions>
      </trkpt>
      <trkpt lat="43.7752297706902027130126953125" lon="1.56998880207538604736328125">
        <ele>158.1999969482421875</ele>
        <time>2026-08-13T09:20:07.000Z</time>
        <extensions>
          <ns3:TrackPointExtension>
            <ns3:hr>100</ns3:hr>
            <ns3:cad>45</ns3:cad>
          </ns3:TrackPointExtension>
        </extensions>
      </trkpt>
      <trkpt lat="43.77522449009120464324951171875" lon="1.56998989172279834747314453125">
        <ele>158.1999969482421875</ele>
        <time>2026-08-13T09:20:08.000Z</time>
        <extensions>
          <ns3:TrackPointExtension>
            <ns3:hr>100</ns3:hr>
            <ns3:cad>45</ns3:cad>
          </ns3:TrackPointExtension>
        </extensions>
      </trkpt>
      <trkpt lat="43.77521309070289134979248046875" lon="1.5700017102062702178955078125">
        <ele>158.1999969482421875</ele>
        <time>2026-08-13T09:20:09.000Z</time>
        <extensions>
          <ns3:TrackPointExtension>
            <ns3:hr>100</ns3:hr>
            <ns3:cad>45</ns3:cad>
          </ns3:TrackPointExtension>
        </extensions>
      </trkpt>
      <trkpt lat="43.77520252950489521026611328125" lon="1.57001269049942493438720703125">
        <ele>158.1999969482421875</ele>
        <time>2026-08-13T09:20:10.000Z</time>
        <extensions>
          <ns3:TrackPointExtension>
            <ns3:hr>100</ns3:hr>
            <ns3:cad>45</ns3:cad>
          </ns3:TrackPointExtension>
        </extensions>
      </trkpt>
      <trkpt lat="43.77519448287785053253173828125" lon="1.5700178034603595733642578125">
        <ele>158.1999969482421875</ele>
        <time>2026-08-13T09:20:11.000Z</time>
        <extensions>
          <ns3:TrackPointExtension>
            <ns3:hr>99</ns3:hr>
            <ns3:cad>46</ns3:cad>
          </ns3:TrackPointExtension>
        </extensions>
      </trkpt>
      <trkpt lat="43.77518945373594760894775390625" lon="1.57002023421227931976318359375">
        <ele>158.1999969482421875</ele>
        <time>2026-08-13T09:20:12.000Z</time>
        <extensions>
          <ns3:TrackPointExtension>
            <ns3:hr>99</ns3:hr>
            <ns3:cad>46</ns3:cad>
          </ns3:TrackPointExtension>
        </extensions>
      </trkpt>
      <trkpt lat="43.7751786410808563232421875" lon="1.57002995721995830535888671875">
        <ele>158.399993896484375</ele>
        <time>2026-08-13T09:20:13.000Z</time>
        <extensions>
          <ns3:TrackPointExtension>
            <ns3:hr>99</ns3:hr>
            <ns3:cad>46</ns3:cad>
          </ns3:TrackPointExtension>
        </extensions>
      </trkpt>
      <trkpt lat="43.7751664035022258758544921875" lon="1.57004378736019134521484375">
        <ele>158.399993896484375</ele>
        <time>2026-08-13T09:20:14.000Z</time>
        <extensions>
          <ns3:TrackPointExtension>
            <ns3:hr>98</ns3:hr>
            <ns3:cad>46</ns3:cad>
          </ns3:TrackPointExtension>
        </extensions>
      </trkpt>
      <trkpt lat="43.77515860833227634429931640625" lon="1.570052169263362884521484375">
        <ele>158.399993896484375</ele>
        <time>2026-08-13T09:20:15.000Z</time>
        <extensions>
          <ns3:TrackPointExtension>
            <ns3:hr>97</ns3:hr>
            <ns3:cad>46</ns3:cad>
          </ns3:TrackPointExtension>
        </extensions>
      </trkpt>
      <trkpt lat="43.7751516513526439666748046875" lon="1.57005392946302890777587890625">
        <ele>158.399993896484375</ele>
        <time>2026-08-13T09:20:16.000Z</time>
        <extensions>
          <ns3:TrackPointExtension>
            <ns3:hr>97</ns3:hr>
            <ns3:cad>46</ns3:cad>
          </ns3:TrackPointExtension>
        </extensions>
      </trkpt>
      <trkpt lat="43.77514150924980640411376953125" lon="1.5700664184987545013427734375">
        <ele>158.399993896484375</ele>
        <time>2026-08-13T09:20:17.000Z</time>
        <extensions>
          <ns3:TrackPointExtension>
            <ns3:hr>96</ns3:hr>
            <ns3:cad>46</ns3:cad>
          </ns3:TrackPointExtension>
        </extensions>
      </trkpt>
      <trkpt lat="43.77512994222342967987060546875" lon="1.57007857225835323333740234375">
        <ele>158.399993896484375</ele>
        <time>2026-08-13T09:20:18.000Z</time>
        <extensions>
          <ns3:TrackPointExtension>
            <ns3:hr>96</ns3:hr>
            <ns3:cad>0</ns3:cad>
          </ns3:TrackPointExtension>
        </extensions>
      </trkpt>
      <trkpt lat="43.7751238234341144561767578125" lon="1.57008779235184192657470703125">
        <ele>158.600006103515625</ele>
        <time>2026-08-13T09:20:19.000Z</time>
        <extensions>
          <ns3:TrackPointExtension>
            <ns3:hr>96</ns3:hr>
            <ns3:cad>0</ns3:cad>
          </ns3:TrackPointExtension>
        </extensions>
      </trkpt>
      <trkpt lat="43.77511820755898952484130859375" lon="1.570089049637317657470703125">
        <ele>158.600006103515625</ele>
        <time>2026-08-13T09:20:20.000Z</time>
        <extensions>
          <ns3:TrackPointExtension>
            <ns3:hr>97</ns3:hr>
            <ns3:cad>0</ns3:cad>
          </ns3:TrackPointExtension>
        </extensions>
      </trkpt>
      <trkpt lat="43.77510546706616878509521484375" lon="1.57010355032980442047119140625">
        <ele>158.600006103515625</ele>
        <time>2026-08-13T09:20:21.000Z</time>
        <extensions>
          <ns3:TrackPointExtension>
            <ns3:hr>97</ns3:hr>
            <ns3:cad>46</ns3:cad>
          </ns3:TrackPointExtension>
        </extensions>
      </trkpt>
      <trkpt lat="43.77509155310690402984619140625" lon="1.570116542279720306396484375">
        <ele>158.600006103515625</ele>
        <time>2026-08-13T09:20:22.000Z</time>
        <extensions>
          <ns3:TrackPointExtension>
            <ns3:hr>97</ns3:hr>
            <ns3:cad>46</ns3:cad>
          </ns3:TrackPointExtension>
        </extensions>
      </trkpt>
      <trkpt lat="43.7750869430601596832275390625" lon="1.57011754810810089111328125">
        <ele>158.600006103515625</ele>
        <time>2026-08-13T09:20:23.000Z</time>
        <extensions>
          <ns3:TrackPointExtension>
            <ns3:hr>97</ns3:hr>
            <ns3:cad>46</ns3:cad>
          </ns3:TrackPointExtension>
        </extensions>
      </trkpt>
      <trkpt lat="43.77507730387151241302490234375" lon="1.5701284445822238922119140625">
        <ele>158.600006103515625</ele>
        <time>2026-08-13T09:20:24.000Z</time>
        <extensions>
          <ns3:TrackPointExtension>
            <ns3:hr>97</ns3:hr>
            <ns3:cad>46</ns3:cad>
          </ns3:TrackPointExtension>
        </extensions>
      </trkpt>
      <trkpt lat="43.77506221644580364227294921875" lon="1.57013942487537860870361328125">
        <ele>158.600006103515625</ele>
        <time>2026-08-13T09:20:25.000Z</time>
        <extensions>
          <ns3:TrackPointExtension>
            <ns3:hr>97</ns3:hr>
            <ns3:cad>45</ns3:cad>
          </ns3:TrackPointExtension>
        </extensions>
      </trkpt>
      <trkpt lat="43.7750498950481414794921875" lon="1.5701532550156116485595703125">
        <ele>158.8000030517578125</ele>
        <time>2026-08-13T09:20:26.000Z</time>
        <extensions>
          <ns3:TrackPointExtension>
            <ns3:hr>97</ns3:hr>
            <ns3:cad>45</ns3:cad>
          </ns3:TrackPointExtension>
        </extensions>
      </trkpt>
      <trkpt lat="43.77504092641174793243408203125" lon="1.570159457623958587646484375">
        <ele>158.8000030517578125</ele>
        <time>2026-08-13T09:20:27.000Z</time>
        <extensions>
          <ns3:TrackPointExtension>
            <ns3:hr>97</ns3:hr>
            <ns3:cad>45</ns3:cad>
          </ns3:TrackPointExtension>
        </extensions>
      </trkpt>
      <trkpt lat="43.77503447234630584716796875" lon="1.57016448676586151123046875">
        <ele>158.8000030517578125</ele>
        <time>2026-08-13T09:20:28.000Z</time>
        <extensions>
          <ns3:TrackPointExtension>
            <ns3:hr>97</ns3:hr>
            <ns3:cad>45</ns3:cad>
          </ns3:TrackPointExtension>
        </extensions>
      </trkpt>
      <trkpt lat="43.7750275991857051849365234375" lon="1.570173203945159912109375">
        <ele>158.8000030517578125</ele>
        <time>2026-08-13T09:20:29.000Z</time>
        <extensions>
          <ns3:TrackPointExtension>
            <ns3:hr>97</ns3:hr>
            <ns3:cad>45</ns3:cad>
          </ns3:TrackPointExtension>
        </extensions>
      </trkpt>
      <trkpt lat="43.7750161997973918914794921875" lon="1.5701820887625217437744140625">
        <ele>158.8000030517578125</ele>
        <time>2026-08-13T09:20:30.000Z</time>
        <extensions>
          <ns3:TrackPointExtension>
            <ns3:hr>97</ns3:hr>
            <ns3:cad>45</ns3:cad>
          </ns3:TrackPointExtension>
        </extensions>
      </trkpt>
      <trkpt lat="43.77501108683645725250244140625" lon="1.5701852738857269287109375">
        <ele>158.8000030517578125</ele>
        <time>2026-08-13T09:20:31.000Z</time>
        <extensions>
          <ns3:TrackPointExtension>
            <ns3:hr>97</ns3:hr>
            <ns3:cad>45</ns3:cad>
          </ns3:TrackPointExtension>
        </extensions>
      </trkpt>
      <trkpt lat="43.7750054709613323211669921875" lon="1.5701854415237903594970703125">
        <ele>158.8000030517578125</ele>
        <time>2026-08-13T09:20:32.000Z</time>
        <extensions>
          <ns3:TrackPointExtension>
            <ns3:hr>97</ns3:hr>
            <ns3:cad>45</ns3:cad>
          </ns3:TrackPointExtension>
        </extensions>
      </trkpt>
      <trkpt lat="43.775000609457492828369140625" lon="1.5701921470463275909423828125">
        <ele>158.8000030517578125</ele>
        <time>2026-08-13T09:20:33.000Z</time>
        <extensions>
          <ns3:TrackPointExtension>
            <ns3:hr>97</ns3:hr>
            <ns3:cad>45</ns3:cad>
          </ns3:TrackPointExtension>
        </extensions>
      </trkpt>
      <trkpt lat="43.774988539516925811767578125" lon="1.57020228914916515350341796875">
        <ele>158.8000030517578125</ele>
        <time>2026-08-13T09:20:34.000Z</time>
        <extensions>
          <ns3:TrackPointExtension>
            <ns3:hr>97</ns3:hr>
            <ns3:cad>45</ns3:cad>
          </ns3:TrackPointExtension>
        </extensions>
      </trkpt>
      <trkpt lat="43.77498074434697628021240234375" lon="1.57021008431911468505859375">
        <ele>158.8000030517578125</ele>
        <time>2026-08-13T09:20:35.000Z</time>
        <extensions>
          <ns3:TrackPointExtension>
            <ns3:hr>97</ns3:hr>
            <ns3:cad>45</ns3:cad>
          </ns3:TrackPointExtension>
        </extensions>
      </trkpt>
      <trkpt lat="43.774971775710582733154296875" lon="1.5702166222035884857177734375">
        <ele>158.8000030517578125</ele>
        <time>2026-08-13T09:20:36.000Z</time>
        <extensions>
          <ns3:TrackPointExtension>
            <ns3:hr>97</ns3:hr>
            <ns3:cad>45</ns3:cad>
          </ns3:TrackPointExtension>
        </extensions>
      </trkpt>
      <trkpt lat="43.77496733330190181732177734375" lon="1.57022290863096714019775390625">
        <ele>158.8000030517578125</ele>
        <time>2026-08-13T09:20:37.000Z</time>
        <extensions>
          <ns3:TrackPointExtension>
            <ns3:hr>97</ns3:hr>
            <ns3:cad>45</ns3:cad>
          </ns3:TrackPointExtension>
        </extensions>
      </trkpt>
      <trkpt lat="43.77495476044714450836181640625" lon="1.57023011706769466400146484375">
        <ele>158.8000030517578125</ele>
        <time>2026-08-13T09:20:38.000Z</time>
        <extensions>
          <ns3:TrackPointExtension>
            <ns3:hr>97</ns3:hr>
            <ns3:cad>46</ns3:cad>
          </ns3:TrackPointExtension>
        </extensions>
      </trkpt>
      <trkpt lat="43.77494118176400661468505859375" lon="1.57024637795984745025634765625">
        <ele>159</ele>
        <time>2026-08-13T09:20:39.000Z</time>
        <extensions>
          <ns3:TrackPointExtension>
            <ns3:hr>97</ns3:hr>
            <ns3:cad>46</ns3:cad>
          </ns3:TrackPointExtension>
        </extensions>
      </trkpt>
      <trkpt lat="43.77493196167051792144775390625" lon="1.57025274820625782012939453125">
        <ele>159</ele>
        <time>2026-08-13T09:20:40.000Z</time>
        <extensions>
          <ns3:TrackPointExtension>
            <ns3:hr>97</ns3:hr>
            <ns3:cad>47</ns3:cad>
          </ns3:TrackPointExtension>
        </extensions>
      </trkpt>
      <trkpt lat="43.77492852509021759033203125" lon="1.57025643624365329742431640625">
        <ele>159</ele>
        <time>2026-08-13T09:20:41.000Z</time>
        <extensions>
          <ns3:TrackPointExtension>
            <ns3:hr>97</ns3:hr>
            <ns3:cad>47</ns3:cad>
          </ns3:TrackPointExtension>
        </extensions>
      </trkpt>
      <trkpt lat="43.7749184668064117431640625" lon="1.57026498578488826751708984375">
        <ele>159</ele>
        <time>2026-08-13T09:20:42.000Z</time>
        <extensions>
          <ns3:TrackPointExtension>
            <ns3:hr>97</ns3:hr>
            <ns3:cad>47</ns3:cad>
          </ns3:TrackPointExtension>
        </extensions>
      </trkpt>
      <trkpt lat="43.774904049932956695556640625" lon="1.57027571462094783782958984375">
        <ele>159</ele>
        <time>2026-08-13T09:20:43.000Z</time>
        <extensions>
          <ns3:TrackPointExtension>
            <ns3:hr>96</ns3:hr>
            <ns3:cad>47</ns3:cad>
          </ns3:TrackPointExtension>
        </extensions>
      </trkpt>
      <trkpt lat="43.774898014962673187255859375" lon="1.570281498134136199951171875">
        <ele>159</ele>
        <time>2026-08-13T09:20:44.000Z</time>
        <extensions>
          <ns3:TrackPointExtension>
            <ns3:hr>96</ns3:hr>
            <ns3:cad>47</ns3:cad>
          </ns3:TrackPointExtension>
        </extensions>
      </trkpt>
      <trkpt lat="43.77489172853529453277587890625" lon="1.57028258778154850006103515625">
        <ele>159</ele>
        <time>2026-08-13T09:20:45.000Z</time>
        <extensions>
          <ns3:TrackPointExtension>
            <ns3:hr>96</ns3:hr>
            <ns3:cad>47</ns3:cad>
          </ns3:TrackPointExtension>
        </extensions>
      </trkpt>
      <trkpt lat="43.77488217316567897796630859375" lon="1.57028853893280029296875">
        <ele>159</ele>
        <time>2026-08-13T09:20:46.000Z</time>
        <extensions>
          <ns3:TrackPointExtension>
            <ns3:hr>96</ns3:hr>
            <ns3:cad>47</ns3:cad>
          </ns3:TrackPointExtension>
        </extensions>
      </trkpt>
      <trkpt lat="43.774871863424777984619140625" lon="1.5702991001307964324951171875">
        <ele>159</ele>
        <time>2026-08-13T09:20:47.000Z</time>
        <extensions>
          <ns3:TrackPointExtension>
            <ns3:hr>95</ns3:hr>
            <ns3:cad>47</ns3:cad>
          </ns3:TrackPointExtension>
        </extensions>
      </trkpt>
      <trkpt lat="43.7748633138835430145263671875" lon="1.570305638015270233154296875">
        <ele>159</ele>
        <time>2026-08-13T09:20:48.000Z</time>
        <extensions>
          <ns3:TrackPointExtension>
            <ns3:hr>95</ns3:hr>
            <ns3:cad>47</ns3:cad>
          </ns3:TrackPointExtension>
        </extensions>
      </trkpt>
      <trkpt lat="43.77485568635165691375732421875" lon="1.57030857168138027191162109375">
        <ele>159</ele>
        <time>2026-08-13T09:20:49.000Z</time>
        <extensions>
          <ns3:TrackPointExtension>
            <ns3:hr>95</ns3:hr>
            <ns3:cad>47</ns3:cad>
          </ns3:TrackPointExtension>
        </extensions>
      </trkpt>
      <trkpt lat="43.77484981901943683624267578125" lon="1.5703148581087589263916015625">
        <ele>159</ele>
        <time>2026-08-13T09:20:50.000Z</time>
        <extensions>
          <ns3:TrackPointExtension>
            <ns3:hr>95</ns3:hr>
            <ns3:cad>47</ns3:cad>
          </ns3:TrackPointExtension>
        </extensions>
      </trkpt>
      <trkpt lat="43.7748348154127597808837890625" lon="1.5703301131725311279296875">
        <ele>159</ele>
        <time>2026-08-13T09:20:51.000Z</time>
        <extensions>
          <ns3:TrackPointExtension>
            <ns3:hr>95</ns3:hr>
            <ns3:cad>46</ns3:cad>
          </ns3:TrackPointExtension>
        </extensions>
      </trkpt>
      <trkpt lat="43.77482601441442966461181640625" lon="1.57034159637987613677978515625">
        <ele>159.1999969482421875</ele>
        <time>2026-08-13T09:20:52.000Z</time>
        <extensions>
          <ns3:TrackPointExtension>
            <ns3:hr>96</ns3:hr>
            <ns3:cad>46</ns3:cad>
          </ns3:TrackPointExtension>
        </extensions>
      </trkpt>
      <trkpt lat="43.7748192250728607177734375" lon="1.5703500621020793914794921875">
        <ele>159.1999969482421875</ele>
        <time>2026-08-13T09:20:53.000Z</time>
        <extensions>
          <ns3:TrackPointExtension>
            <ns3:hr>95</ns3:hr>
            <ns3:cad>45</ns3:cad>
          </ns3:TrackPointExtension>
        </extensions>
      </trkpt>
      <trkpt lat="43.77481394447386264801025390625" lon="1.5703534148633480072021484375">
        <ele>159.1999969482421875</ele>
        <time>2026-08-13T09:20:54.000Z</time>
        <extensions>
          <ns3:TrackPointExtension>
            <ns3:hr>95</ns3:hr>
            <ns3:cad>45</ns3:cad>
          </ns3:TrackPointExtension>
        </extensions>
      </trkpt>
      <trkpt lat="43.77480371855199337005615234375" lon="1.5703631378710269927978515625">
        <ele>159.1999969482421875</ele>
        <time>2026-08-13T09:20:55.000Z</time>
        <extensions>
          <ns3:TrackPointExtension>
            <ns3:hr>95</ns3:hr>
            <ns3:cad>45</ns3:cad>
          </ns3:TrackPointExtension>
        </extensions>
      </trkpt>
      <trkpt lat="43.7747945822775363922119140625" lon="1.5703762136399745941162109375">
        <ele>159.1999969482421875</ele>
        <time>2026-08-13T09:20:56.000Z</time>
        <extensions>
          <ns3:TrackPointExtension>
            <ns3:hr>95</ns3:hr>
            <ns3:cad>45</ns3:cad>
          </ns3:TrackPointExtension>
        </extensions>
      </trkpt>
      <trkpt lat="43.774786032736301422119140625" lon="1.5703839249908924102783203125">
        <ele>159.1999969482421875</ele>
        <time>2026-08-13T09:20:57.000Z</time>
        <extensions>
          <ns3:TrackPointExtension>
            <ns3:hr>95</ns3:hr>
            <ns3:cad>46</ns3:cad>
          </ns3:TrackPointExtension>
        </extensions>
      </trkpt>
      <trkpt lat="43.77477723173797130584716796875" lon="1.5703882835805416107177734375">
        <ele>159.399993896484375</ele>
        <time>2026-08-13T09:20:58.000Z</time>
        <extensions>
          <ns3:TrackPointExtension>
            <ns3:hr>94</ns3:hr>
            <ns3:cad>46</ns3:cad>
          </ns3:TrackPointExtension>
        </extensions>
      </trkpt>
      <trkpt lat="43.7747680954635143280029296875" lon="1.57039490528404712677001953125">
        <ele>159.399993896484375</ele>
        <time>2026-08-13T09:20:59.000Z</time>
        <extensions>
          <ns3:TrackPointExtension>
            <ns3:hr>94</ns3:hr>
            <ns3:cad>47</ns3:cad>
          </ns3:TrackPointExtension>
        </extensions>
      </trkpt>
      <trkpt lat="43.77475460059940814971923828125" lon="1.57039959914982318878173828125">
        <ele>159.399993896484375</ele>
        <time>2026-08-13T09:21:00.000Z</time>
        <extensions>
          <ns3:TrackPointExtension>
            <ns3:hr>94</ns3:hr>
            <ns3:cad>47</ns3:cad>
          </ns3:TrackPointExtension>
        </extensions>
      </trkpt>
      <trkpt lat="43.77474957145750522613525390625" lon="1.57041083090007305145263671875">
        <ele>159.399993896484375</ele>
        <time>2026-08-13T09:21:01.000Z</time>
        <extensions>
          <ns3:TrackPointExtension>
            <ns3:hr>94</ns3:hr>
            <ns3:cad>47</ns3:cad>
          </ns3:TrackPointExtension>
        </extensions>
      </trkpt>
      <trkpt lat="43.77474253065884113311767578125" lon="1.57042734324932098388671875">
        <ele>159.399993896484375</ele>
        <time>2026-08-13T09:21:02.000Z</time>
        <extensions>
          <ns3:TrackPointExtension>
            <ns3:hr>94</ns3:hr>
            <ns3:cad>47</ns3:cad>
          </ns3:TrackPointExtension>
        </extensions>
      </trkpt>
      <trkpt lat="43.77473867498338222503662109375" lon="1.57043362967669963836669921875">
        <ele>159.399993896484375</ele>
        <time>2026-08-13T09:21:03.000Z</time>
        <extensions>
          <ns3:TrackPointExtension>
            <ns3:hr>94</ns3:hr>
            <ns3:cad>47</ns3:cad>
          </ns3:TrackPointExtension>
        </extensions>
      </trkpt>
      <trkpt lat="43.77472928725183010101318359375" lon="1.57044251449406147003173828125">
        <ele>159.399993896484375</ele>
        <time>2026-08-13T09:21:04.000Z</time>
        <extensions>
          <ns3:TrackPointExtension>
            <ns3:hr>94</ns3:hr>
            <ns3:cad>47</ns3:cad>
          </ns3:TrackPointExtension>
        </extensions>
      </trkpt>
      <trkpt lat="43.77471872605383396148681640625" lon="1.5704526565968990325927734375">
        <ele>159.600006103515625</ele>
        <time>2026-08-13T09:21:05.000Z</time>
        <extensions>
          <ns3:TrackPointExtension>
            <ns3:hr>94</ns3:hr>
            <ns3:cad>47</ns3:cad>
          </ns3:TrackPointExtension>
        </extensions>
      </trkpt>
      <trkpt lat="43.7747104279696941375732421875" lon="1.57045961357653141021728515625">
        <ele>159.399993896484375</ele>
        <time>2026-08-13T09:21:06.000Z</time>
        <extensions>
          <ns3:TrackPointExtension>
            <ns3:hr>93</ns3:hr>
            <ns3:cad>47</ns3:cad>
          </ns3:TrackPointExtension>
        </extensions>
      </trkpt>
      <trkpt lat="43.774702884256839752197265625" lon="1.57046346925199031829833984375">
        <ele>159.399993896484375</ele>
        <time>2026-08-13T09:21:07.000Z</time>
        <extensions>
          <ns3:TrackPointExtension>
            <ns3:hr>93</ns3:hr>
            <ns3:cad>47</ns3:cad>
          </ns3:TrackPointExtension>
        </extensions>
      </trkpt>
      <trkpt lat="43.77469441853463649749755859375" lon="1.57047118060290813446044921875">
        <ele>159.399993896484375</ele>
        <time>2026-08-13T09:21:08.000Z</time>
        <extensions>
          <ns3:TrackPointExtension>
            <ns3:hr>93</ns3:hr>
            <ns3:cad>47</ns3:cad>
          </ns3:TrackPointExtension>
        </extensions>
      </trkpt>
      <trkpt lat="43.774681426584720611572265625" lon="1.57048425637185573577880859375">
        <ele>159.399993896484375</ele>
        <time>2026-08-13T09:21:09.000Z</time>
        <extensions>
          <ns3:TrackPointExtension>
            <ns3:hr>92</ns3:hr>
            <ns3:cad>48</ns3:cad>
          </ns3:TrackPointExtension>
        </extensions>
      </trkpt>
      <trkpt lat="43.7746691890060901641845703125" lon="1.57049749977886676788330078125">
        <ele>159.399993896484375</ele>
        <time>2026-08-13T09:21:10.000Z</time>
        <extensions>
          <ns3:TrackPointExtension>
            <ns3:hr>92</ns3:hr>
            <ns3:cad>49</ns3:cad>
          </ns3:TrackPointExtension>
        </extensions>
      </trkpt>
      <trkpt lat="43.77465787343680858612060546875" lon="1.57050688751041889190673828125">
        <ele>159.399993896484375</ele>
        <time>2026-08-13T09:21:11.000Z</time>
        <extensions>
          <ns3:TrackPointExtension>
            <ns3:hr>92</ns3:hr>
            <ns3:cad>49</ns3:cad>
          </ns3:TrackPointExtension>
        </extensions>
      </trkpt>
      <trkpt lat="43.77465100027620792388916015625" lon="1.57051024027168750762939453125">
        <ele>159.600006103515625</ele>
        <time>2026-08-13T09:21:12.000Z</time>
        <extensions>
          <ns3:TrackPointExtension>
            <ns3:hr>92</ns3:hr>
            <ns3:cad>47</ns3:cad>
          </ns3:TrackPointExtension>
        </extensions>
      </trkpt>
      <trkpt lat="43.7746410258114337921142578125" lon="1.57051585614681243896484375">
        <ele>159.600006103515625</ele>
        <time>2026-08-13T09:21:13.000Z</time>
        <extensions>
          <ns3:TrackPointExtension>
            <ns3:hr>92</ns3:hr>
            <ns3:cad>47</ns3:cad>
          </ns3:TrackPointExtension>
        </extensions>
      </trkpt>
      <trkpt lat="43.77462468110024929046630859375" lon="1.5705274231731891632080078125">
        <ele>159.600006103515625</ele>
        <time>2026-08-13T09:21:14.000Z</time>
        <extensions>
          <ns3:TrackPointExtension>
            <ns3:hr>91</ns3:hr>
            <ns3:cad>47</ns3:cad>
          </ns3:TrackPointExtension>
        </extensions>
      </trkpt>
      <trkpt lat="43.77461227588355541229248046875" lon="1.5705366432666778564453125">
        <ele>159.600006103515625</ele>
        <time>2026-08-13T09:21:15.000Z</time>
        <extensions>
          <ns3:TrackPointExtension>
            <ns3:hr>91</ns3:hr>
            <ns3:cad>47</ns3:cad>
          </ns3:TrackPointExtension>
        </extensions>
      </trkpt>
      <trkpt lat="43.77460238523781299591064453125" lon="1.570542342960834503173828125">
        <ele>159.600006103515625</ele>
        <time>2026-08-13T09:21:16.000Z</time>
        <extensions>
          <ns3:TrackPointExtension>
            <ns3:hr>91</ns3:hr>
            <ns3:cad>47</ns3:cad>
          </ns3:TrackPointExtension>
        </extensions>
      </trkpt>
      <trkpt lat="43.77459417097270488739013671875" lon="1.57054661773145198822021484375">
        <ele>159.600006103515625</ele>
        <time>2026-08-13T09:21:17.000Z</time>
        <extensions>
          <ns3:TrackPointExtension>
            <ns3:hr>91</ns3:hr>
            <ns3:cad>47</ns3:cad>
          </ns3:TrackPointExtension>
        </extensions>
      </trkpt>
      <trkpt lat="43.774584867060184478759765625" lon="1.57055567018687725067138671875">
        <ele>159.8000030517578125</ele>
        <time>2026-08-13T09:21:18.000Z</time>
        <extensions>
          <ns3:TrackPointExtension>
            <ns3:hr>91</ns3:hr>
            <ns3:cad>47</ns3:cad>
          </ns3:TrackPointExtension>
        </extensions>
      </trkpt>
      <trkpt lat="43.774568773806095123291015625" lon="1.57056547701358795166015625">
        <ele>159.8000030517578125</ele>
        <time>2026-08-13T09:21:19.000Z</time>
        <extensions>
          <ns3:TrackPointExtension>
            <ns3:hr>92</ns3:hr>
            <ns3:cad>47</ns3:cad>
          </ns3:TrackPointExtension>
        </extensions>
      </trkpt>
      <trkpt lat="43.77456014044582843780517578125" lon="1.57057486474514007568359375">
        <ele>159.8000030517578125</ele>
        <time>2026-08-13T09:21:20.000Z</time>
        <extensions>
          <ns3:TrackPointExtension>
            <ns3:hr>91</ns3:hr>
            <ns3:cad>48</ns3:cad>
          </ns3:TrackPointExtension>
        </extensions>
      </trkpt>
      <trkpt lat="43.77455259673297405242919921875" lon="1.5705810673534870147705078125">
        <ele>159.8000030517578125</ele>
        <time>2026-08-13T09:21:21.000Z</time>
        <extensions>
          <ns3:TrackPointExtension>
            <ns3:hr>91</ns3:hr>
            <ns3:cad>48</ns3:cad>
          </ns3:TrackPointExtension>
        </extensions>
      </trkpt>
      <trkpt lat="43.7745510041713714599609375" lon="1.57058869488537311553955078125">
        <ele>159.8000030517578125</ele>
        <time>2026-08-13T09:21:22.000Z</time>
        <extensions>
          <ns3:TrackPointExtension>
            <ns3:hr>91</ns3:hr>
            <ns3:cad>48</ns3:cad>
          </ns3:TrackPointExtension>
        </extensions>
      </trkpt>
      <trkpt lat="43.77453683875501155853271484375" lon="1.57060244120657444000244140625">
        <ele>159.8000030517578125</ele>
        <time>2026-08-13T09:21:23.000Z</time>
        <extensions>
          <ns3:TrackPointExtension>
            <ns3:hr>91</ns3:hr>
            <ns3:cad>48</ns3:cad>
          </ns3:TrackPointExtension>
        </extensions>
      </trkpt>
      <trkpt lat="43.7745297141373157501220703125" lon="1.57060998491942882537841796875">
        <ele>159.8000030517578125</ele>
        <time>2026-08-13T09:21:24.000Z</time>
        <extensions>
          <ns3:TrackPointExtension>
            <ns3:hr>90</ns3:hr>
            <ns3:cad>48</ns3:cad>
          </ns3:TrackPointExtension>
        </extensions>
      </trkpt>
      <trkpt lat="43.774523176252841949462890625" lon="1.57061534933745861053466796875">
        <ele>159.8000030517578125</ele>
        <time>2026-08-13T09:21:25.000Z</time>
        <extensions>
          <ns3:TrackPointExtension>
            <ns3:hr>90</ns3:hr>
            <ns3:cad>47</ns3:cad>
          </ns3:TrackPointExtension>
        </extensions>
      </trkpt>
      <trkpt lat="43.77452074550092220306396484375" lon="1.57062339596450328826904296875">
        <ele>159.8000030517578125</ele>
        <time>2026-08-13T09:21:26.000Z</time>
        <extensions>
          <ns3:TrackPointExtension>
            <ns3:hr>90</ns3:hr>
            <ns3:cad>46</ns3:cad>
          </ns3:TrackPointExtension>
        </extensions>
      </trkpt>
      <trkpt lat="43.7745099328458309173583984375" lon="1.5706340409815311431884765625">
        <ele>159.8000030517578125</ele>
        <time>2026-08-13T09:21:27.000Z</time>
        <extensions>
          <ns3:TrackPointExtension>
            <ns3:hr>89</ns3:hr>
            <ns3:cad>46</ns3:cad>
          </ns3:TrackPointExtension>
        </extensions>
      </trkpt>
      <trkpt lat="43.774501048028469085693359375" lon="1.57064191997051239013671875">
        <ele>159.8000030517578125</ele>
        <time>2026-08-13T09:21:28.000Z</time>
        <extensions>
          <ns3:TrackPointExtension>
            <ns3:hr>88</ns3:hr>
            <ns3:cad>45</ns3:cad>
          </ns3:TrackPointExtension>
        </extensions>
      </trkpt>
      <trkpt lat="43.7744898162782192230224609375" lon="1.5706474520266056060791015625">
        <ele>159.8000030517578125</ele>
        <time>2026-08-13T09:21:29.000Z</time>
        <extensions>
          <ns3:TrackPointExtension>
            <ns3:hr>87</ns3:hr>
            <ns3:cad>45</ns3:cad>
          </ns3:TrackPointExtension>
        </extensions>
      </trkpt>
      <trkpt lat="43.77448260784149169921875" lon="1.57065273262560367584228515625">
        <ele>159.8000030517578125</ele>
        <time>2026-08-13T09:21:30.000Z</time>
        <extensions>
          <ns3:TrackPointExtension>
            <ns3:hr>87</ns3:hr>
            <ns3:cad>45</ns3:cad>
          </ns3:TrackPointExtension>
        </extensions>
      </trkpt>
      <trkpt lat="43.7744730524718761444091796875" lon="1.570661030709743499755859375">
        <ele>160</ele>
        <time>2026-08-13T09:21:31.000Z</time>
        <extensions>
          <ns3:TrackPointExtension>
            <ns3:hr>87</ns3:hr>
            <ns3:cad>45</ns3:cad>
          </ns3:TrackPointExtension>
        </extensions>
      </trkpt>
      <trkpt lat="43.77446324564516544342041015625" lon="1.5706705860793590545654296875">
        <ele>160</ele>
        <time>2026-08-13T09:21:32.000Z</time>
        <extensions>
          <ns3:TrackPointExtension>
            <ns3:hr>87</ns3:hr>
            <ns3:cad>45</ns3:cad>
          </ns3:TrackPointExtension>
        </extensions>
      </trkpt>
      <trkpt lat="43.774453103542327880859375" lon="1.57067486084997653961181640625">
        <ele>160</ele>
        <time>2026-08-13T09:21:33.000Z</time>
        <extensions>
          <ns3:TrackPointExtension>
            <ns3:hr>86</ns3:hr>
            <ns3:cad>45</ns3:cad>
          </ns3:TrackPointExtension>
        </extensions>
      </trkpt>
      <trkpt lat="43.7744438834488391876220703125" lon="1.57067134045064449310302734375">
        <ele>160</ele>
        <time>2026-08-13T09:21:34.000Z</time>
        <extensions>
          <ns3:TrackPointExtension>
            <ns3:hr>86</ns3:hr>
            <ns3:cad>0</ns3:cad>
          </ns3:TrackPointExtension>
        </extensions>
      </trkpt>
      <trkpt lat="43.77443508245050907135009765625" lon="1.57067368738353252410888671875">
        <ele>160</ele>
        <time>2026-08-13T09:21:35.000Z</time>
        <extensions>
          <ns3:TrackPointExtension>
            <ns3:hr>85</ns3:hr>
            <ns3:cad>0</ns3:cad>
          </ns3:TrackPointExtension>
        </extensions>
      </trkpt>
      <trkpt lat="43.7744261138141155242919921875" lon="1.57067477703094482421875">
        <ele>159.8000030517578125</ele>
        <time>2026-08-13T09:21:36.000Z</time>
        <extensions>
          <ns3:TrackPointExtension>
            <ns3:hr>85</ns3:hr>
            <ns3:cad>0</ns3:cad>
          </ns3:TrackPointExtension>
        </extensions>
      </trkpt>
      <trkpt lat="43.77441815100610256195068359375" lon="1.57067150808870792388916015625">
        <ele>159.8000030517578125</ele>
        <time>2026-08-13T09:21:37.000Z</time>
        <extensions>
          <ns3:TrackPointExtension>
            <ns3:hr>85</ns3:hr>
            <ns3:cad>0</ns3:cad>
          </ns3:TrackPointExtension>
        </extensions>
      </trkpt>
      <trkpt lat="43.7744116969406604766845703125" lon="1.5706705860793590545654296875">
        <ele>159.8000030517578125</ele>
        <time>2026-08-13T09:21:38.000Z</time>
        <extensions>
          <ns3:TrackPointExtension>
            <ns3:hr>85</ns3:hr>
            <ns3:cad>0</ns3:cad>
          </ns3:TrackPointExtension>
        </extensions>
      </trkpt>
      <trkpt lat="43.77440306358039379119873046875" lon="1.5706662274897098541259765625">
        <ele>159.8000030517578125</ele>
        <time>2026-08-13T09:21:39.000Z</time>
        <extensions>
          <ns3:TrackPointExtension>
            <ns3:hr>85</ns3:hr>
            <ns3:cad>0</ns3:cad>
          </ns3:TrackPointExtension>
        </extensions>
      </trkpt>
      <trkpt lat="43.7743976153433322906494140625" lon="1.5706635452806949615478515625">
        <ele>159.8000030517578125</ele>
        <time>2026-08-13T09:21:40.000Z</time>
        <extensions>
          <ns3:TrackPointExtension>
            <ns3:hr>85</ns3:hr>
            <ns3:cad>0</ns3:cad>
          </ns3:TrackPointExtension>
        </extensions>
      </trkpt>
      <trkpt lat="43.7743962742388248443603515625" lon="1.57064904458820819854736328125">
        <ele>159.8000030517578125</ele>
        <time>2026-08-13T09:21:41.000Z</time>
        <extensions>
          <ns3:TrackPointExtension>
            <ns3:hr>84</ns3:hr>
            <ns3:cad>0</ns3:cad>
          </ns3:TrackPointExtension>
        </extensions>
      </trkpt>
      <trkpt lat="43.77438898198306560516357421875" lon="1.570637226104736328125">
        <ele>159.8000030517578125</ele>
        <time>2026-08-13T09:21:42.000Z</time>
        <extensions>
          <ns3:TrackPointExtension>
            <ns3:hr>84</ns3:hr>
            <ns3:cad>0</ns3:cad>
          </ns3:TrackPointExtension>
        </extensions>
      </trkpt>
      <trkpt lat="43.7743882276117801666259765625" lon="1.57063429243862628936767578125">
        <ele>159.8000030517578125</ele>
        <time>2026-08-13T09:21:43.000Z</time>
        <extensions>
          <ns3:TrackPointExtension>
            <ns3:hr>84</ns3:hr>
            <ns3:cad>0</ns3:cad>
          </ns3:TrackPointExtension>
        </extensions>
      </trkpt>
      <trkpt lat="43.7743882276117801666259765625" lon="1.57063429243862628936767578125">
        <ele>159.8000030517578125</ele>
        <time>2026-08-13T09:21:44.000Z</time>
        <extensions>
          <ns3:TrackPointExtension>
            <ns3:hr>84</ns3:hr>
            <ns3:cad>0</ns3:cad>
          </ns3:TrackPointExtension>
        </extensions>
      </trkpt>
      <trkpt lat="43.7743882276117801666259765625" lon="1.57063429243862628936767578125">
        <ele>159.8000030517578125</ele>
        <time>2026-08-13T09:21:45.000Z</time>
        <extensions>
          <ns3:TrackPointExtension>
            <ns3:hr>85</ns3:hr>
            <ns3:cad>0</ns3:cad>
          </ns3:TrackPointExtension>
        </extensions>
      </trkpt>
      <trkpt lat="43.7743882276117801666259765625" lon="1.57063429243862628936767578125">
        <ele>160</ele>
        <time>2026-08-13T09:21:46.000Z</time>
        <extensions>
          <ns3:TrackPointExtension>
            <ns3:hr>85</ns3:hr>
            <ns3:cad>0</ns3:cad>
          </ns3:TrackPointExtension>
        </extensions>
      </trkpt>
      <trkpt lat="43.7743882276117801666259765625" lon="1.57063429243862628936767578125">
        <ele>160</ele>
        <time>2026-08-13T09:21:47.000Z</time>
        <extensions>
          <ns3:TrackPointExtension>
            <ns3:hr>86</ns3:hr>
            <ns3:cad>0</ns3:cad>
          </ns3:TrackPointExtension>
        </extensions>
      </trkpt>
      <trkpt lat="43.7743882276117801666259765625" lon="1.57063429243862628936767578125">
        <ele>160</ele>
        <time>2026-08-13T09:21:48.000Z</time>
        <extensions>
          <ns3:TrackPointExtension>
            <ns3:hr>86</ns3:hr>
            <ns3:cad>0</ns3:cad>
          </ns3:TrackPointExtension>
        </extensions>
      </trkpt>
      <trkpt lat="43.7743882276117801666259765625" lon="1.57063429243862628936767578125">
        <ele>160</ele>
        <time>2026-08-13T09:21:49.000Z</time>
        <extensions>
          <ns3:TrackPointExtension>
            <ns3:hr>87</ns3:hr>
            <ns3:cad>0</ns3:cad>
          </ns3:TrackPointExtension>
        </extensions>
      </trkpt>
      <trkpt lat="43.7743882276117801666259765625" lon="1.57063429243862628936767578125">
        <ele>160</ele>
        <time>2026-08-13T09:21:50.000Z</time>
        <extensions>
          <ns3:TrackPointExtension>
            <ns3:hr>88</ns3:hr>
            <ns3:cad>0</ns3:cad>
          </ns3:TrackPointExtension>
        </extensions>
      </trkpt>
      <trkpt lat="43.7743882276117801666259765625" lon="1.57063429243862628936767578125">
        <ele>160</ele>
        <time>2026-08-13T09:21:51.000Z</time>
        <extensions>
          <ns3:TrackPointExtension>
            <ns3:hr>89</ns3:hr>
            <ns3:cad>0</ns3:cad>
          </ns3:TrackPointExtension>
        </extensions>
      </trkpt>
      <trkpt lat="43.7743882276117801666259765625" lon="1.57063429243862628936767578125">
        <ele>160</ele>
        <time>2026-08-13T09:21:52.000Z</time>
        <extensions>
          <ns3:TrackPointExtension>
            <ns3:hr>89</ns3:hr>
            <ns3:cad>0</ns3:cad>
          </ns3:TrackPointExtension>
        </extensions>
      </trkpt>
      <trkpt lat="43.7743882276117801666259765625" lon="1.57063429243862628936767578125">
        <ele>160</ele>
        <time>2026-08-13T09:21:53.000Z</time>
        <extensions>
          <ns3:TrackPointExtension>
            <ns3:hr>89</ns3:hr>
            <ns3:cad>0</ns3:cad>
          </ns3:TrackPointExtension>
        </extensions>
      </trkpt>
      <trkpt lat="43.7743882276117801666259765625" lon="1.57063429243862628936767578125">
        <ele>160</ele>
        <time>2026-08-13T09:21:54.000Z</time>
        <extensions>
          <ns3:TrackPointExtension>
            <ns3:hr>89</ns3:hr>
            <ns3:cad>0</ns3:cad>
          </ns3:TrackPointExtension>
        </extensions>
      </trkpt>
      <trkpt lat="43.7743882276117801666259765625" lon="1.57063429243862628936767578125">
        <ele>160</ele>
        <time>2026-08-13T09:21:55.000Z</time>
        <extensions>
          <ns3:TrackPointExtension>
            <ns3:hr>89</ns3:hr>
            <ns3:cad>0</ns3:cad>
          </ns3:TrackPointExtension>
        </extensions>
      </trkpt>
      <trkpt lat="43.7743882276117801666259765625" lon="1.57063429243862628936767578125">
        <ele>159.8000030517578125</ele>
        <time>2026-08-13T09:21:56.000Z</time>
        <extensions>
          <ns3:TrackPointExtension>
            <ns3:hr>88</ns3:hr>
            <ns3:cad>0</ns3:cad>
          </ns3:TrackPointExtension>
        </extensions>
      </trkpt>
      <trkpt lat="43.7743882276117801666259765625" lon="1.57063429243862628936767578125">
        <ele>159.8000030517578125</ele>
        <time>2026-08-13T09:21:57.000Z</time>
        <extensions>
          <ns3:TrackPointExtension>
            <ns3:hr>87</ns3:hr>
            <ns3:cad>0</ns3:cad>
          </ns3:TrackPointExtension>
        </extensions>
      </trkpt>
      <trkpt lat="43.7743882276117801666259765625" lon="1.57063429243862628936767578125">
        <ele>159.8000030517578125</ele>
        <time>2026-08-13T09:21:58.000Z</time>
        <extensions>
          <ns3:TrackPointExtension>
            <ns3:hr>85</ns3:hr>
            <ns3:cad>0</ns3:cad>
          </ns3:TrackPointExtension>
        </extensions>
      </trkpt>
      <trkpt lat="43.7743882276117801666259765625" lon="1.57063429243862628936767578125">
        <ele>159.8000030517578125</ele>
        <time>2026-08-13T09:21:59.000Z</time>
        <extensions>
          <ns3:TrackPointExtension>
            <ns3:hr>84</ns3:hr>
            <ns3:cad>0</ns3:cad>
          </ns3:TrackPointExtension>
        </extensions>
      </trkpt>
      <trkpt lat="43.7743882276117801666259765625" lon="1.57063429243862628936767578125">
        <ele>159.8000030517578125</ele>
        <time>2026-08-13T09:22:00.000Z</time>
        <extensions>
          <ns3:TrackPointExtension>
            <ns3:hr>83</ns3:hr>
            <ns3:cad>0</ns3:cad>
          </ns3:TrackPointExtension>
        </extensions>
      </trkpt>
      <trkpt lat="43.7743882276117801666259765625" lon="1.57063429243862628936767578125">
        <ele>159.8000030517578125</ele>
        <time>2026-08-13T09:22:01.000Z</time>
        <extensions>
          <ns3:TrackPointExtension>
            <ns3:hr>83</ns3:hr>
            <ns3:cad>0</ns3:cad>
          </ns3:TrackPointExtension>
        </extensions>
      </trkpt>
      <trkpt lat="43.7743882276117801666259765625" lon="1.57063429243862628936767578125">
        <ele>159.8000030517578125</ele>
        <time>2026-08-13T09:22:02.000Z</time>
        <extensions>
          <ns3:TrackPointExtension>
            <ns3:hr>82</ns3:hr>
            <ns3:cad>0</ns3:cad>
          </ns3:TrackPointExtension>
        </extensions>
      </trkpt>
      <trkpt lat="43.7743882276117801666259765625" lon="1.57063429243862628936767578125">
        <ele>159.8000030517578125</ele>
        <time>2026-08-13T09:22:03.000Z</time>
        <extensions>
          <ns3:TrackPointExtension>
            <ns3:hr>83</ns3:hr>
            <ns3:cad>0</ns3:cad>
          </ns3:TrackPointExtension>
        </extensions>
      </trkpt>
      <trkpt lat="43.7743882276117801666259765625" lon="1.57063429243862628936767578125">
        <ele>159.8000030517578125</ele>
        <time>2026-08-13T09:22:04.000Z</time>
        <extensions>
          <ns3:TrackPointExtension>
            <ns3:hr>83</ns3:hr>
            <ns3:cad>0</ns3:cad>
          </ns3:TrackPointExtension>
        </extensions>
      </trkpt>
      <trkpt lat="43.7743882276117801666259765625" lon="1.57063429243862628936767578125">
        <ele>159.8000030517578125</ele>
        <time>2026-08-13T09:22:05.000Z</time>
        <extensions>
          <ns3:TrackPointExtension>
            <ns3:hr>83</ns3:hr>
            <ns3:cad>0</ns3:cad>
          </ns3:TrackPointExtension>
        </extensions>
      </trkpt>
      <trkpt lat="43.7743882276117801666259765625" lon="1.57063429243862628936767578125">
        <ele>159.8000030517578125</ele>
        <time>2026-08-13T09:22:06.000Z</time>
        <extensions>
          <ns3:TrackPointExtension>
            <ns3:hr>84</ns3:hr>
            <ns3:cad>0</ns3:cad>
          </ns3:TrackPointExtension>
        </extensions>
      </trkpt>
      <trkpt lat="43.7743882276117801666259765625" lon="1.57063429243862628936767578125">
        <ele>159.8000030517578125</ele>
        <time>2026-08-13T09:22:07.000Z</time>
        <extensions>
          <ns3:TrackPointExtension>
            <ns3:hr>84</ns3:hr>
            <ns3:cad>0</ns3:cad>
          </ns3:TrackPointExtension>
        </extensions>
      </trkpt>
      <trkpt lat="43.7743882276117801666259765625" lon="1.57063429243862628936767578125">
        <ele>159.8000030517578125</ele>
        <time>2026-08-13T09:22:08.000Z</time>
        <extensions>
          <ns3:TrackPointExtension>
            <ns3:hr>85</ns3:hr>
            <ns3:cad>0</ns3:cad>
          </ns3:TrackPointExtension>
        </extensions>
      </trkpt>
      <trkpt lat="43.7743882276117801666259765625" lon="1.57063429243862628936767578125">
        <ele>159.8000030517578125</ele>
        <time>2026-08-13T09:22:09.000Z</time>
        <extensions>
          <ns3:TrackPointExtension>
            <ns3:hr>85</ns3:hr>
            <ns3:cad>0</ns3:cad>
          </ns3:TrackPointExtension>
        </extensions>
      </trkpt>
      <trkpt lat="43.7743882276117801666259765625" lon="1.57063429243862628936767578125">
        <ele>159.8000030517578125</ele>
        <time>2026-08-13T09:22:10.000Z</time>
        <extensions>
          <ns3:TrackPointExtension>
            <ns3:hr>85</ns3:hr>
            <ns3:cad>0</ns3:cad>
          </ns3:TrackPointExtension>
        </extensions>
      </trkpt>
      <trkpt lat="43.7743882276117801666259765625" lon="1.57063429243862628936767578125">
        <ele>159.8000030517578125</ele>
        <time>2026-08-13T09:22:11.000Z</time>
        <extensions>
          <ns3:TrackPointExtension>
            <ns3:hr>84</ns3:hr>
            <ns3:cad>0</ns3:cad>
          </ns3:TrackPointExtension>
        </extensions>
      </trkpt>
      <trkpt lat="43.7743882276117801666259765625" lon="1.57063429243862628936767578125">
        <ele>159.8000030517578125</ele>
        <time>2026-08-13T09:22:12.000Z</time>
        <extensions>
          <ns3:TrackPointExtension>
            <ns3:hr>84</ns3:hr>
            <ns3:cad>0</ns3:cad>
          </ns3:TrackPointExtension>
        </extensions>
      </trkpt>
      <trkpt lat="43.7743882276117801666259765625" lon="1.57063429243862628936767578125">
        <ele>159.8000030517578125</ele>
        <time>2026-08-13T09:22:13.000Z</time>
        <extensions>
          <ns3:TrackPointExtension>
            <ns3:hr>84</ns3:hr>
            <ns3:cad>0</ns3:cad>
          </ns3:TrackPointExtension>
        </extensions>
      </trkpt>
      <trkpt lat="43.7743882276117801666259765625" lon="1.57063429243862628936767578125">
        <ele>159.8000030517578125</ele>
        <time>2026-08-13T09:22:14.000Z</time>
        <extensions>
          <ns3:TrackPointExtension>
            <ns3:hr>84</ns3:hr>
            <ns3:cad>0</ns3:cad>
          </ns3:TrackPointExtension>
        </extensions>
      </trkpt>
      <trkpt lat="43.7743882276117801666259765625" lon="1.57063429243862628936767578125">
        <ele>159.8000030517578125</ele>
        <time>2026-08-13T09:22:15.000Z</time>
        <extensions>
          <ns3:TrackPointExtension>
            <ns3:hr>83</ns3:hr>
            <ns3:cad>0</ns3:cad>
          </ns3:TrackPointExtension>
        </extensions>
      </trkpt>
      <trkpt lat="43.7743882276117801666259765625" lon="1.57063429243862628936767578125">
        <ele>159.8000030517578125</ele>
        <time>2026-08-13T09:22:16.000Z</time>
        <extensions>
          <ns3:TrackPointExtension>
            <ns3:hr>82</ns3:hr>
            <ns3:cad>0</ns3:cad>
          </ns3:TrackPointExtension>
        </extensions>
      </trkpt>
      <trkpt lat="43.7743882276117801666259765625" lon="1.57063429243862628936767578125">
        <ele>159.8000030517578125</ele>
        <time>2026-08-13T09:22:17.000Z</time>
        <extensions>
          <ns3:TrackPointExtension>
            <ns3:hr>82</ns3:hr>
            <ns3:cad>0</ns3:cad>
          </ns3:TrackPointExtension>
        </extensions>
      </trkpt>
      <trkpt lat="43.7743882276117801666259765625" lon="1.57063429243862628936767578125">
        <ele>159.8000030517578125</ele>
        <time>2026-08-13T09:22:18.000Z</time>
        <extensions>
          <ns3:TrackPointExtension>
            <ns3:hr>82</ns3:hr>
            <ns3:cad>0</ns3:cad>
          </ns3:TrackPointExtension>
        </extensions>
      </trkpt>
      <trkpt lat="43.7743882276117801666259765625" lon="1.57063429243862628936767578125">
        <ele>159.8000030517578125</ele>
        <time>2026-08-13T09:22:19.000Z</time>
        <extensions>
          <ns3:TrackPointExtension>
            <ns3:hr>81</ns3:hr>
            <ns3:cad>0</ns3:cad>
          </ns3:TrackPointExtension>
        </extensions>
      </trkpt>
      <trkpt lat="43.7743882276117801666259765625" lon="1.57063429243862628936767578125">
        <ele>159.8000030517578125</ele>
        <time>2026-08-13T09:22:20.000Z</time>
        <extensions>
          <ns3:TrackPointExtension>
            <ns3:hr>80</ns3:hr>
            <ns3:cad>0</ns3:cad>
          </ns3:TrackPointExtension>
        </extensions>
      </trkpt>
      <trkpt lat="43.7743882276117801666259765625" lon="1.57063429243862628936767578125">
        <ele>159.8000030517578125</ele>
        <time>2026-08-13T09:22:21.000Z</time>
        <extensions>
          <ns3:TrackPointExtension>
            <ns3:hr>80</ns3:hr>
            <ns3:cad>0</ns3:cad>
          </ns3:TrackPointExtension>
        </extensions>
      </trkpt>
      <trkpt lat="43.7743882276117801666259765625" lon="1.57063429243862628936767578125">
        <ele>159.8000030517578125</ele>
        <time>2026-08-13T09:22:22.000Z</time>
        <extensions>
          <ns3:TrackPointExtension>
            <ns3:hr>79</ns3:hr>
            <ns3:cad>0</ns3:cad>
          </ns3:TrackPointExtension>
        </extensions>
      </trkpt>
      <trkpt lat="43.7743882276117801666259765625" lon="1.57063429243862628936767578125">
        <ele>159.8000030517578125</ele>
        <time>2026-08-13T09:22:23.000Z</time>
        <extensions>
          <ns3:TrackPointExtension>
            <ns3:hr>79</ns3:hr>
            <ns3:cad>0</ns3:cad>
          </ns3:TrackPointExtension>
        </extensions>
      </trkpt>
      <trkpt lat="43.7743882276117801666259765625" lon="1.57063429243862628936767578125">
        <ele>159.8000030517578125</ele>
        <time>2026-08-13T09:22:24.000Z</time>
        <extensions>
          <ns3:TrackPointExtension>
            <ns3:hr>78</ns3:hr>
            <ns3:cad>0</ns3:cad>
          </ns3:TrackPointExtension>
        </extensions>
      </trkpt>
      <trkpt lat="43.7743882276117801666259765625" lon="1.57063429243862628936767578125">
        <ele>159.8000030517578125</ele>
        <time>2026-08-13T09:22:25.000Z</time>
        <extensions>
          <ns3:TrackPointExtension>
            <ns3:hr>75</ns3:hr>
            <ns3:cad>0</ns3:cad>
          </ns3:TrackPointExtension>
        </extensions>
      </trkpt>
      <trkpt lat="43.7743882276117801666259765625" lon="1.57063429243862628936767578125">
        <ele>159.8000030517578125</ele>
        <time>2026-08-13T09:22:26.000Z</time>
        <extensions>
          <ns3:TrackPointExtension>
            <ns3:hr>74</ns3:hr>
            <ns3:cad>0</ns3:cad>
          </ns3:TrackPointExtension>
        </extensions>
      </trkpt>
      <trkpt lat="43.7743882276117801666259765625" lon="1.57063429243862628936767578125">
        <ele>159.8000030517578125</ele>
        <time>2026-08-13T09:22:27.000Z</time>
        <extensions>
          <ns3:TrackPointExtension>
            <ns3:hr>73</ns3:hr>
            <ns3:cad>0</ns3:cad>
          </ns3:TrackPointExtension>
        </extensions>
      </trkpt>
      <trkpt lat="43.7743882276117801666259765625" lon="1.57063429243862628936767578125">
        <ele>159.8000030517578125</ele>
        <time>2026-08-13T09:22:28.000Z</time>
        <extensions>
          <ns3:TrackPointExtension>
            <ns3:hr>73</ns3:hr>
            <ns3:cad>0</ns3:cad>
          </ns3:TrackPointExtension>
        </extensions>
      </trkpt>
      <trkpt lat="43.7743882276117801666259765625" lon="1.57063429243862628936767578125">
        <ele>159.8000030517578125</ele>
        <time>2026-08-13T09:22:29.000Z</time>
        <extensions>
          <ns3:TrackPointExtension>
            <ns3:hr>75</ns3:hr>
            <ns3:cad>0</ns3:cad>
          </ns3:TrackPointExtension>
        </extensions>
      </trkpt>
      <trkpt lat="43.7743882276117801666259765625" lon="1.57063429243862628936767578125">
        <ele>159.8000030517578125</ele>
        <time>2026-08-13T09:22:30.000Z</time>
        <extensions>
          <ns3:TrackPointExtension>
            <ns3:hr>75</ns3:hr>
            <ns3:cad>0</ns3:cad>
          </ns3:TrackPointExtension>
        </extensions>
      </trkpt>
      <trkpt lat="43.7743882276117801666259765625" lon="1.57063429243862628936767578125">
        <ele>159.8000030517578125</ele>
        <time>2026-08-13T09:22:31.000Z</time>
        <extensions>
          <ns3:TrackPointExtension>
            <ns3:hr>75</ns3:hr>
            <ns3:cad>0</ns3:cad>
          </ns3:TrackPointExtension>
        </extensions>
      </trkpt>
      <trkpt lat="43.7743882276117801666259765625" lon="1.57063429243862628936767578125">
        <ele>159.8000030517578125</ele>
        <time>2026-08-13T09:22:32.000Z</time>
        <extensions>
          <ns3:TrackPointExtension>
            <ns3:hr>75</ns3:hr>
            <ns3:cad>0</ns3:cad>
          </ns3:TrackPointExtension>
        </extensions>
      </trkpt>
      <trkpt lat="43.7743882276117801666259765625" lon="1.57063429243862628936767578125">
        <ele>159.8000030517578125</ele>
        <time>2026-08-13T09:22:33.000Z</time>
        <extensions>
          <ns3:TrackPointExtension>
            <ns3:hr>73</ns3:hr>
            <ns3:cad>0</ns3:cad>
          </ns3:TrackPointExtension>
        </extensions>
      </trkpt>
      <trkpt lat="43.7743882276117801666259765625" lon="1.57063429243862628936767578125">
        <ele>159.8000030517578125</ele>
        <time>2026-08-13T09:22:34.000Z</time>
        <extensions>
          <ns3:TrackPointExtension>
            <ns3:hr>73</ns3:hr>
            <ns3:cad>0</ns3:cad>
          </ns3:TrackPointExtension>
        </extensions>
      </trkpt>
      <trkpt lat="43.7743882276117801666259765625" lon="1.57063429243862628936767578125">
        <ele>159.8000030517578125</ele>
        <time>2026-08-13T09:22:35.000Z</time>
        <extensions>
          <ns3:TrackPointExtension>
            <ns3:hr>73</ns3:hr>
            <ns3:cad>0</ns3:cad>
          </ns3:TrackPointExtension>
        </extensions>
      </trkpt>
      <trkpt lat="43.7743882276117801666259765625" lon="1.57063429243862628936767578125">
        <ele>159.8000030517578125</ele>
        <time>2026-08-13T09:22:36.000Z</time>
        <extensions>
          <ns3:TrackPointExtension>
            <ns3:hr>73</ns3:hr>
            <ns3:cad>0</ns3:cad>
          </ns3:TrackPointExtension>
        </extensions>
      </trkpt>
      <trkpt lat="43.7743882276117801666259765625" lon="1.57063429243862628936767578125">
        <ele>159.8000030517578125</ele>
        <time>2026-08-13T09:22:37.000Z</time>
        <extensions>
          <ns3:TrackPointExtension>
            <ns3:hr>73</ns3:hr>
            <ns3:cad>0</ns3:cad>
          </ns3:TrackPointExtension>
        </extensions>
      </trkpt>
      <trkpt lat="43.7743882276117801666259765625" lon="1.57063429243862628936767578125">
        <ele>159.8000030517578125</ele>
        <time>2026-08-13T09:22:38.000Z</time>
        <extensions>
          <ns3:TrackPointExtension>
            <ns3:hr>74</ns3:hr>
            <ns3:cad>0</ns3:cad>
          </ns3:TrackPointExtension>
        </extensions>
      </trkpt>
      <trkpt lat="43.7743882276117801666259765625" lon="1.57063429243862628936767578125">
        <ele>159.8000030517578125</ele>
        <time>2026-08-13T09:22:39.000Z</time>
        <extensions>
          <ns3:TrackPointExtension>
            <ns3:hr>74</ns3:hr>
            <ns3:cad>0</ns3:cad>
          </ns3:TrackPointExtension>
        </extensions>
      </trkpt>
      <trkpt lat="43.7743882276117801666259765625" lon="1.57063429243862628936767578125">
        <ele>159.8000030517578125</ele>
        <time>2026-08-13T09:22:40.000Z</time>
        <extensions>
          <ns3:TrackPointExtension>
            <ns3:hr>75</ns3:hr>
            <ns3:cad>0</ns3:cad>
          </ns3:TrackPointExtension>
        </extensions>
      </trkpt>
      <trkpt lat="43.7743882276117801666259765625" lon="1.57063429243862628936767578125">
        <ele>160</ele>
        <time>2026-08-13T09:22:41.000Z</time>
        <extensions>
          <ns3:TrackPointExtension>
            <ns3:hr>76</ns3:hr>
            <ns3:cad>0</ns3:cad>
          </ns3:TrackPointExtension>
        </extensions>
      </trkpt>
      <trkpt lat="43.7743882276117801666259765625" lon="1.57063429243862628936767578125">
        <ele>160</ele>
        <time>2026-08-13T09:22:42.000Z</time>
        <extensions>
          <ns3:TrackPointExtension>
            <ns3:hr>78</ns3:hr>
            <ns3:cad>0</ns3:cad>
          </ns3:TrackPointExtension>
        </extensions>
      </trkpt>
      <trkpt lat="43.7743882276117801666259765625" lon="1.57063429243862628936767578125">
        <ele>160</ele>
        <time>2026-08-13T09:22:43.000Z</time>
        <extensions>
          <ns3:TrackPointExtension>
            <ns3:hr>77</ns3:hr>
            <ns3:cad>0</ns3:cad>
          </ns3:TrackPointExtension>
        </extensions>
      </trkpt>
      <trkpt lat="43.77438361756503582000732421875" lon="1.5706290118396282196044921875">
        <ele>159.8000030517578125</ele>
        <time>2026-08-13T09:22:44.000Z</time>
        <extensions>
          <ns3:TrackPointExtension>
            <ns3:hr>77</ns3:hr>
            <ns3:cad>0</ns3:cad>
          </ns3:TrackPointExtension>
        </extensions>
      </trkpt>
      <trkpt lat="43.77438546158373355865478515625" lon="1.570621468126773834228515625">
        <ele>159.8000030517578125</ele>
        <time>2026-08-13T09:22:45.000Z</time>
        <extensions>
          <ns3:TrackPointExtension>
            <ns3:hr>77</ns3:hr>
            <ns3:cad>0</ns3:cad>
          </ns3:TrackPointExtension>
        </extensions>
      </trkpt>
      <trkpt lat="43.7743882276117801666259765625" lon="1.57063429243862628936767578125">
        <ele>159.8000030517578125</ele>
        <time>2026-08-13T09:22:46.000Z</time>
        <extensions>
          <ns3:TrackPointExtension>
            <ns3:hr>76</ns3:hr>
            <ns3:cad>0</ns3:cad>
          </ns3:TrackPointExtension>
        </extensions>
      </trkpt>
      <trkpt lat="43.7743882276117801666259765625" lon="1.57063429243862628936767578125">
        <ele>159.8000030517578125</ele>
        <time>2026-08-13T09:22:47.000Z</time>
        <extensions>
          <ns3:TrackPointExtension>
            <ns3:hr>76</ns3:hr>
            <ns3:cad>0</ns3:cad>
          </ns3:TrackPointExtension>
        </extensions>
      </trkpt>
      <trkpt lat="43.7743882276117801666259765625" lon="1.57063429243862628936767578125">
        <ele>159.8000030517578125</ele>
        <time>2026-08-13T09:22:48.000Z</time>
        <extensions>
          <ns3:TrackPointExtension>
            <ns3:hr>75</ns3:hr>
            <ns3:cad>0</ns3:cad>
          </ns3:TrackPointExtension>
        </extensions>
      </trkpt>
      <trkpt lat="43.7743882276117801666259765625" lon="1.57063429243862628936767578125">
        <ele>159.8000030517578125</ele>
        <time>2026-08-13T09:22:49.000Z</time>
        <extensions>
          <ns3:TrackPointExtension>
            <ns3:hr>75</ns3:hr>
            <ns3:cad>0</ns3:cad>
          </ns3:TrackPointExtension>
        </extensions>
      </trkpt>
      <trkpt lat="43.7743882276117801666259765625" lon="1.57063429243862628936767578125">
        <ele>159.8000030517578125</ele>
        <time>2026-08-13T09:22:50.000Z</time>
        <extensions>
          <ns3:TrackPointExtension>
            <ns3:hr>75</ns3:hr>
            <ns3:cad>0</ns3:cad>
          </ns3:TrackPointExtension>
        </extensions>
      </trkpt>
      <trkpt lat="43.7743882276117801666259765625" lon="1.57063429243862628936767578125">
        <ele>159.8000030517578125</ele>
        <time>2026-08-13T09:22:51.000Z</time>
        <extensions>
          <ns3:TrackPointExtension>
            <ns3:hr>74</ns3:hr>
            <ns3:cad>0</ns3:cad>
          </ns3:TrackPointExtension>
        </extensions>
      </trkpt>
      <trkpt lat="43.7743882276117801666259765625" lon="1.57063429243862628936767578125">
        <ele>159.8000030517578125</ele>
        <time>2026-08-13T09:22:52.000Z</time>
        <extensions>
          <ns3:TrackPointExtension>
            <ns3:hr>74</ns3:hr>
            <ns3:cad>0</ns3:cad>
          </ns3:TrackPointExtension>
        </extensions>
      </trkpt>
      <trkpt lat="43.7743882276117801666259765625" lon="1.57063429243862628936767578125">
        <ele>159.8000030517578125</ele>
        <time>2026-08-13T09:22:53.000Z</time>
        <extensions>
          <ns3:TrackPointExtension>
            <ns3:hr>73</ns3:hr>
            <ns3:cad>0</ns3:cad>
          </ns3:TrackPointExtension>
        </extensions>
      </trkpt>
      <trkpt lat="43.7743882276117801666259765625" lon="1.57063429243862628936767578125">
        <ele>159.8000030517578125</ele>
        <time>2026-08-13T09:22:54.000Z</time>
        <extensions>
          <ns3:TrackPointExtension>
            <ns3:hr>72</ns3:hr>
            <ns3:cad>0</ns3:cad>
          </ns3:TrackPointExtension>
        </extensions>
      </trkpt>
      <trkpt lat="43.7743882276117801666259765625" lon="1.57063429243862628936767578125">
        <ele>159.8000030517578125</ele>
        <time>2026-08-13T09:22:55.000Z</time>
        <extensions>
          <ns3:TrackPointExtension>
            <ns3:hr>70</ns3:hr>
            <ns3:cad>0</ns3:cad>
          </ns3:TrackPointExtension>
        </extensions>
      </trkpt>
      <trkpt lat="43.7743882276117801666259765625" lon="1.57063429243862628936767578125">
        <ele>159.8000030517578125</ele>
        <time>2026-08-13T09:22:56.000Z</time>
        <extensions>
          <ns3:TrackPointExtension>
            <ns3:hr>69</ns3:hr>
            <ns3:cad>0</ns3:cad>
          </ns3:TrackPointExtension>
        </extensions>
      </trkpt>
      <trkpt lat="43.7743882276117801666259765625" lon="1.57063429243862628936767578125">
        <ele>159.8000030517578125</ele>
        <time>2026-08-13T09:22:57.000Z</time>
        <extensions>
          <ns3:TrackPointExtension>
            <ns3:hr>68</ns3:hr>
            <ns3:cad>0</ns3:cad>
          </ns3:TrackPointExtension>
        </extensions>
      </trkpt>
      <trkpt lat="43.7743882276117801666259765625" lon="1.57063429243862628936767578125">
        <ele>159.600006103515625</ele>
        <time>2026-08-13T09:22:58.000Z</time>
        <extensions>
          <ns3:TrackPointExtension>
            <ns3:hr>68</ns3:hr>
            <ns3:cad>0</ns3:cad>
          </ns3:TrackPointExtension>
        </extensions>
      </trkpt>
      <trkpt lat="43.7743882276117801666259765625" lon="1.57063429243862628936767578125">
        <ele>159.600006103515625</ele>
        <time>2026-08-13T09:22:59.000Z</time>
        <extensions>
          <ns3:TrackPointExtension>
            <ns3:hr>68</ns3:hr>
            <ns3:cad>0</ns3:cad>
          </ns3:TrackPointExtension>
        </extensions>
      </trkpt>
      <trkpt lat="43.7743882276117801666259765625" lon="1.57063429243862628936767578125">
        <ele>159.600006103515625</ele>
        <time>2026-08-13T09:23:00.000Z</time>
        <extensions>
          <ns3:TrackPointExtension>
            <ns3:hr>68</ns3:hr>
            <ns3:cad>0</ns3:cad>
          </ns3:TrackPointExtension>
        </extensions>
      </trkpt>
      <trkpt lat="43.77438068389892578125" lon="1.5706192888319492340087890625">
        <ele>159.600006103515625</ele>
        <time>2026-08-13T09:23:01.000Z</time>
        <extensions>
          <ns3:TrackPointExtension>
            <ns3:hr>69</ns3:hr>
            <ns3:cad>0</ns3:cad>
          </ns3:TrackPointExtension>
        </extensions>
      </trkpt>
      <trkpt lat="43.7743788398802280426025390625" lon="1.57061912119388580322265625">
        <ele>159.600006103515625</ele>
        <time>2026-08-13T09:23:02.000Z</time>
        <extensions>
          <ns3:TrackPointExtension>
            <ns3:hr>68</ns3:hr>
            <ns3:cad>0</ns3:cad>
          </ns3:TrackPointExtension>
        </extensions>
      </trkpt>
      <trkpt lat="43.77437724731862545013427734375" lon="1.5706159360706806182861328125">
        <ele>159.600006103515625</ele>
        <time>2026-08-13T09:23:03.000Z</time>
        <extensions>
          <ns3:TrackPointExtension>
            <ns3:hr>68</ns3:hr>
            <ns3:cad>0</ns3:cad>
          </ns3:TrackPointExtension>
        </extensions>
      </trkpt>
      <trkpt lat="43.77437540329992771148681640625" lon="1.5706142596900463104248046875">
        <ele>159.600006103515625</ele>
        <time>2026-08-13T09:23:04.000Z</time>
        <extensions>
          <ns3:TrackPointExtension>
            <ns3:hr>68</ns3:hr>
            <ns3:cad>0</ns3:cad>
          </ns3:TrackPointExtension>
        </extensions>
      </trkpt>
      <trkpt lat="43.77437925897538661956787109375" lon="1.5706109069287776947021484375">
        <ele>159.399993896484375</ele>
        <time>2026-08-13T09:23:05.000Z</time>
        <extensions>
          <ns3:TrackPointExtension>
            <ns3:hr>68</ns3:hr>
            <ns3:cad>0</ns3:cad>
          </ns3:TrackPointExtension>
        </extensions>
      </trkpt>
      <trkpt lat="43.7743748165667057037353515625" lon="1.57061333768069744110107421875">
        <ele>159.399993896484375</ele>
        <time>2026-08-13T09:23:06.000Z</time>
        <extensions>
          <ns3:TrackPointExtension>
            <ns3:hr>68</ns3:hr>
            <ns3:cad>0</ns3:cad>
          </ns3:TrackPointExtension>
        </extensions>
      </trkpt>
      <trkpt lat="43.77437389455735683441162109375" lon="1.5706139244139194488525390625">
        <ele>159.399993896484375</ele>
        <time>2026-08-13T09:23:07.000Z</time>
        <extensions>
          <ns3:TrackPointExtension>
            <ns3:hr>68</ns3:hr>
            <ns3:cad>0</ns3:cad>
          </ns3:TrackPointExtension>
        </extensions>
      </trkpt>
      <trkpt lat="43.7743739783763885498046875" lon="1.570614092051982879638671875">
        <ele>159.1999969482421875</ele>
        <time>2026-08-13T09:23:08.000Z</time>
        <extensions>
          <ns3:TrackPointExtension>
            <ns3:hr>69</ns3:hr>
            <ns3:cad>0</ns3:cad>
          </ns3:TrackPointExtension>
        </extensions>
      </trkpt>
      <trkpt lat="43.7743739783763885498046875" lon="1.570614092051982879638671875">
        <ele>159.1999969482421875</ele>
        <time>2026-08-13T09:23:09.000Z</time>
        <extensions>
          <ns3:TrackPointExtension>
            <ns3:hr>70</ns3:hr>
            <ns3:cad>0</ns3:cad>
          </ns3:TrackPointExtension>
        </extensions>
      </trkpt>
      <trkpt lat="43.7743739783763885498046875" lon="1.570614092051982879638671875">
        <ele>159.1999969482421875</ele>
        <time>2026-08-13T09:23:10.000Z</time>
        <extensions>
          <ns3:TrackPointExtension>
            <ns3:hr>70</ns3:hr>
            <ns3:cad>0</ns3:cad>
          </ns3:TrackPointExtension>
        </extensions>
      </trkpt>
      <trkpt lat="43.7743739783763885498046875" lon="1.570614092051982879638671875">
        <ele>159.1999969482421875</ele>
        <time>2026-08-13T09:23:11.000Z</time>
        <extensions>
          <ns3:TrackPointExtension>
            <ns3:hr>70</ns3:hr>
            <ns3:cad>0</ns3:cad>
          </ns3:TrackPointExtension>
        </extensions>
      </trkpt>
      <trkpt lat="43.7743738107383251190185546875" lon="1.57061417587101459503173828125">
        <ele>159.1999969482421875</ele>
        <time>2026-08-13T09:23:12.000Z</time>
        <extensions>
          <ns3:TrackPointExtension>
            <ns3:hr>72</ns3:hr>
            <ns3:cad>0</ns3:cad>
          </ns3:TrackPointExtension>
        </extensions>
      </trkpt>
      <trkpt lat="43.77437372691929340362548828125" lon="1.57061367295682430267333984375">
        <ele>159.1999969482421875</ele>
        <time>2026-08-13T09:23:13.000Z</time>
        <extensions>
          <ns3:TrackPointExtension>
            <ns3:hr>74</ns3:hr>
            <ns3:cad>0</ns3:cad>
          </ns3:TrackPointExtension>
        </extensions>
      </trkpt>
      <trkpt lat="43.7743739783763885498046875" lon="1.570614092051982879638671875">
        <ele>159.399993896484375</ele>
        <time>2026-08-13T09:23:14.000Z</time>
        <extensions>
          <ns3:TrackPointExtension>
            <ns3:hr>74</ns3:hr>
            <ns3:cad>0</ns3:cad>
          </ns3:TrackPointExtension>
        </extensions>
      </trkpt>
      <trkpt lat="43.7743739783763885498046875" lon="1.570614092051982879638671875">
        <ele>159.1999969482421875</ele>
        <time>2026-08-13T09:23:15.000Z</time>
        <extensions>
          <ns3:TrackPointExtension>
            <ns3:hr>74</ns3:hr>
            <ns3:cad>0</ns3:cad>
          </ns3:TrackPointExtension>
        </extensions>
      </trkpt>
      <trkpt lat="43.7743739783763885498046875" lon="1.570614092051982879638671875">
        <ele>159.1999969482421875</ele>
        <time>2026-08-13T09:23:16.000Z</time>
        <extensions>
          <ns3:TrackPointExtension>
            <ns3:hr>74</ns3:hr>
            <ns3:cad>0</ns3:cad>
          </ns3:TrackPointExtension>
        </extensions>
      </trkpt>
      <trkpt lat="43.7743739783763885498046875" lon="1.570614092051982879638671875">
        <ele>159.1999969482421875</ele>
        <time>2026-08-13T09:23:17.000Z</time>
        <extensions>
          <ns3:TrackPointExtension>
            <ns3:hr>74</ns3:hr>
            <ns3:cad>0</ns3:cad>
          </ns3:TrackPointExtension>
        </extensions>
      </trkpt>
      <trkpt lat="43.7743739783763885498046875" lon="1.570614092051982879638671875">
        <ele>159.1999969482421875</ele>
        <time>2026-08-13T09:23:18.000Z</time>
        <extensions>
          <ns3:TrackPointExtension>
            <ns3:hr>73</ns3:hr>
            <ns3:cad>0</ns3:cad>
          </ns3:TrackPointExtension>
        </extensions>
      </trkpt>
      <trkpt lat="43.7743739783763885498046875" lon="1.570614092051982879638671875">
        <ele>159.1999969482421875</ele>
        <time>2026-08-13T09:23:19.000Z</time>
        <extensions>
          <ns3:TrackPointExtension>
            <ns3:hr>72</ns3:hr>
            <ns3:cad>0</ns3:cad>
          </ns3:TrackPointExtension>
        </extensions>
      </trkpt>
      <trkpt lat="43.7743739783763885498046875" lon="1.570614092051982879638671875">
        <ele>159.1999969482421875</ele>
        <time>2026-08-13T09:23:20.000Z</time>
        <extensions>
          <ns3:TrackPointExtension>
            <ns3:hr>72</ns3:hr>
            <ns3:cad>0</ns3:cad>
          </ns3:TrackPointExtension>
        </extensions>
      </trkpt>
      <trkpt lat="43.7743739783763885498046875" lon="1.570614092051982879638671875">
        <ele>159.1999969482421875</ele>
        <time>2026-08-13T09:23:21.000Z</time>
        <extensions>
          <ns3:TrackPointExtension>
            <ns3:hr>72</ns3:hr>
            <ns3:cad>0</ns3:cad>
          </ns3:TrackPointExtension>
        </extensions>
      </trkpt>
      <trkpt lat="43.7743739783763885498046875" lon="1.570614092051982879638671875">
        <ele>159.1999969482421875</ele>
        <time>2026-08-13T09:23:22.000Z</time>
        <extensions>
          <ns3:TrackPointExtension>
            <ns3:hr>72</ns3:hr>
            <ns3:cad>0</ns3:cad>
          </ns3:TrackPointExtension>
        </extensions>
      </trkpt>
      <trkpt lat="43.7743739783763885498046875" lon="1.570614092051982879638671875">
        <ele>159.1999969482421875</ele>
        <time>2026-08-13T09:23:23.000Z</time>
        <extensions>
          <ns3:TrackPointExtension>
            <ns3:hr>72</ns3:hr>
            <ns3:cad>0</ns3:cad>
          </ns3:TrackPointExtension>
        </extensions>
      </trkpt>
      <trkpt lat="43.7743739783763885498046875" lon="1.570614092051982879638671875">
        <ele>159.1999969482421875</ele>
        <time>2026-08-13T09:23:24.000Z</time>
        <extensions>
          <ns3:TrackPointExtension>
            <ns3:hr>71</ns3:hr>
            <ns3:cad>0</ns3:cad>
          </ns3:TrackPointExtension>
        </extensions>
      </trkpt>
      <trkpt lat="43.7743739783763885498046875" lon="1.570614092051982879638671875">
        <ele>159.1999969482421875</ele>
        <time>2026-08-13T09:23:25.000Z</time>
        <extensions>
          <ns3:TrackPointExtension>
            <ns3:hr>70</ns3:hr>
            <ns3:cad>0</ns3:cad>
          </ns3:TrackPointExtension>
        </extensions>
      </trkpt>
      <trkpt lat="43.7743739783763885498046875" lon="1.570614092051982879638671875">
        <ele>159.1999969482421875</ele>
        <time>2026-08-13T09:23:26.000Z</time>
        <extensions>
          <ns3:TrackPointExtension>
            <ns3:hr>69</ns3:hr>
            <ns3:cad>0</ns3:cad>
          </ns3:TrackPointExtension>
        </extensions>
      </trkpt>
      <trkpt lat="43.7743739783763885498046875" lon="1.570614092051982879638671875">
        <ele>159.1999969482421875</ele>
        <time>2026-08-13T09:23:27.000Z</time>
        <extensions>
          <ns3:TrackPointExtension>
            <ns3:hr>68</ns3:hr>
            <ns3:cad>0</ns3:cad>
          </ns3:TrackPointExtension>
        </extensions>
      </trkpt>
      <trkpt lat="43.7743739783763885498046875" lon="1.570614092051982879638671875">
        <ele>159.1999969482421875</ele>
        <time>2026-08-13T09:23:28.000Z</time>
        <extensions>
          <ns3:TrackPointExtension>
            <ns3:hr>67</ns3:hr>
            <ns3:cad>0</ns3:cad>
          </ns3:TrackPointExtension>
        </extensions>
      </trkpt>
      <trkpt lat="43.7743739783763885498046875" lon="1.570614092051982879638671875">
        <ele>159.1999969482421875</ele>
        <time>2026-08-13T09:23:29.000Z</time>
        <extensions>
          <ns3:TrackPointExtension>
            <ns3:hr>67</ns3:hr>
            <ns3:cad>0</ns3:cad>
          </ns3:TrackPointExtension>
        </extensions>
      </trkpt>
      <trkpt lat="43.7743739783763885498046875" lon="1.570614092051982879638671875">
        <ele>159.1999969482421875</ele>
        <time>2026-08-13T09:23:30.000Z</time>
        <extensions>
          <ns3:TrackPointExtension>
            <ns3:hr>67</ns3:hr>
            <ns3:cad>0</ns3:cad>
          </ns3:TrackPointExtension>
        </extensions>
      </trkpt>
      <trkpt lat="43.7743739783763885498046875" lon="1.570614092051982879638671875">
        <ele>159.1999969482421875</ele>
        <time>2026-08-13T09:23:31.000Z</time>
        <extensions>
          <ns3:TrackPointExtension>
            <ns3:hr>68</ns3:hr>
            <ns3:cad>0</ns3:cad>
          </ns3:TrackPointExtension>
        </extensions>
      </trkpt>
      <trkpt lat="43.7743739783763885498046875" lon="1.570614092051982879638671875">
        <ele>159.1999969482421875</ele>
        <time>2026-08-13T09:23:32.000Z</time>
        <extensions>
          <ns3:TrackPointExtension>
            <ns3:hr>68</ns3:hr>
            <ns3:cad>0</ns3:cad>
          </ns3:TrackPointExtension>
        </extensions>
      </trkpt>
      <trkpt lat="43.7743739783763885498046875" lon="1.570614092051982879638671875">
        <ele>159.1999969482421875</ele>
        <time>2026-08-13T09:23:33.000Z</time>
        <extensions>
          <ns3:TrackPointExtension>
            <ns3:hr>68</ns3:hr>
            <ns3:cad>0</ns3:cad>
          </ns3:TrackPointExtension>
        </extensions>
      </trkpt>
      <trkpt lat="43.7743739783763885498046875" lon="1.570614092051982879638671875">
        <ele>159.1999969482421875</ele>
        <time>2026-08-13T09:23:34.000Z</time>
        <extensions>
          <ns3:TrackPointExtension>
            <ns3:hr>69</ns3:hr>
            <ns3:cad>0</ns3:cad>
          </ns3:TrackPointExtension>
        </extensions>
      </trkpt>
      <trkpt lat="43.7743739783763885498046875" lon="1.570614092051982879638671875">
        <ele>159.1999969482421875</ele>
        <time>2026-08-13T09:23:35.000Z</time>
        <extensions>
          <ns3:TrackPointExtension>
            <ns3:hr>69</ns3:hr>
            <ns3:cad>0</ns3:cad>
          </ns3:TrackPointExtension>
        </extensions>
      </trkpt>
      <trkpt lat="43.7743739783763885498046875" lon="1.570614092051982879638671875">
        <ele>159.1999969482421875</ele>
        <time>2026-08-13T09:23:36.000Z</time>
        <extensions>
          <ns3:TrackPointExtension>
            <ns3:hr>69</ns3:hr>
            <ns3:cad>0</ns3:cad>
          </ns3:TrackPointExtension>
        </extensions>
      </trkpt>
      <trkpt lat="43.7743739783763885498046875" lon="1.570614092051982879638671875">
        <ele>159.1999969482421875</ele>
        <time>2026-08-13T09:23:37.000Z</time>
        <extensions>
          <ns3:TrackPointExtension>
            <ns3:hr>69</ns3:hr>
            <ns3:cad>0</ns3:cad>
          </ns3:TrackPointExtension>
        </extensions>
      </trkpt>
      <trkpt lat="43.7743739783763885498046875" lon="1.570614092051982879638671875">
        <ele>159.1999969482421875</ele>
        <time>2026-08-13T09:23:38.000Z</time>
        <extensions>
          <ns3:TrackPointExtension>
            <ns3:hr>69</ns3:hr>
            <ns3:cad>0</ns3:cad>
          </ns3:TrackPointExtension>
        </extensions>
      </trkpt>
      <trkpt lat="43.7743739783763885498046875" lon="1.570614092051982879638671875">
        <ele>159.1999969482421875</ele>
        <time>2026-08-13T09:23:39.000Z</time>
        <extensions>
          <ns3:TrackPointExtension>
            <ns3:hr>69</ns3:hr>
            <ns3:cad>0</ns3:cad>
          </ns3:TrackPointExtension>
        </extensions>
      </trkpt>
      <trkpt lat="43.7743739783763885498046875" lon="1.570614092051982879638671875">
        <ele>159.1999969482421875</ele>
        <time>2026-08-13T09:23:40.000Z</time>
        <extensions>
          <ns3:TrackPointExtension>
            <ns3:hr>69</ns3:hr>
            <ns3:cad>0</ns3:cad>
          </ns3:TrackPointExtension>
        </extensions>
      </trkpt>
      <trkpt lat="43.7743739783763885498046875" lon="1.570614092051982879638671875">
        <ele>159.1999969482421875</ele>
        <time>2026-08-13T09:23:41.000Z</time>
        <extensions>
          <ns3:TrackPointExtension>
            <ns3:hr>70</ns3:hr>
            <ns3:cad>0</ns3:cad>
          </ns3:TrackPointExtension>
        </extensions>
      </trkpt>
      <trkpt lat="43.77437196671962738037109375" lon="1.57060981728136539459228515625">
        <ele>159.1999969482421875</ele>
        <time>2026-08-13T09:23:42.000Z</time>
        <extensions>
          <ns3:TrackPointExtension>
            <ns3:hr>70</ns3:hr>
            <ns3:cad>0</ns3:cad>
          </ns3:TrackPointExtension>
        </extensions>
      </trkpt>
      <trkpt lat="43.77436920069158077239990234375" lon="1.57061099074780941009521484375">
        <ele>159.1999969482421875</ele>
        <time>2026-08-13T09:23:43.000Z</time>
        <extensions>
          <ns3:TrackPointExtension>
            <ns3:hr>70</ns3:hr>
            <ns3:cad>0</ns3:cad>
          </ns3:TrackPointExtension>
        </extensions>
      </trkpt>
      <trkpt lat="43.7743739783763885498046875" lon="1.570614092051982879638671875">
        <ele>159.1999969482421875</ele>
        <time>2026-08-13T09:23:44.000Z</time>
        <extensions>
          <ns3:TrackPointExtension>
            <ns3:hr>71</ns3:hr>
            <ns3:cad>0</ns3:cad>
          </ns3:TrackPointExtension>
        </extensions>
      </trkpt>
      <trkpt lat="43.7743739783763885498046875" lon="1.570614092051982879638671875">
        <ele>159.1999969482421875</ele>
        <time>2026-08-13T09:23:45.000Z</time>
        <extensions>
          <ns3:TrackPointExtension>
            <ns3:hr>71</ns3:hr>
            <ns3:cad>0</ns3:cad>
          </ns3:TrackPointExtension>
        </extensions>
      </trkpt>
      <trkpt lat="43.7743739783763885498046875" lon="1.570614092051982879638671875">
        <ele>159.1999969482421875</ele>
        <time>2026-08-13T09:23:46.000Z</time>
        <extensions>
          <ns3:TrackPointExtension>
            <ns3:hr>73</ns3:hr>
            <ns3:cad>0</ns3:cad>
          </ns3:TrackPointExtension>
        </extensions>
      </trkpt>
      <trkpt lat="43.7743739783763885498046875" lon="1.570614092051982879638671875">
        <ele>159.1999969482421875</ele>
        <time>2026-08-13T09:23:47.000Z</time>
        <extensions>
          <ns3:TrackPointExtension>
            <ns3:hr>74</ns3:hr>
            <ns3:cad>0</ns3:cad>
          </ns3:TrackPointExtension>
        </extensions>
      </trkpt>
      <trkpt lat="43.7743739783763885498046875" lon="1.570614092051982879638671875">
        <ele>159.1999969482421875</ele>
        <time>2026-08-13T09:23:48.000Z</time>
        <extensions>
          <ns3:TrackPointExtension>
            <ns3:hr>75</ns3:hr>
            <ns3:cad>0</ns3:cad>
          </ns3:TrackPointExtension>
        </extensions>
      </trkpt>
      <trkpt lat="43.7743739783763885498046875" lon="1.570614092051982879638671875">
        <ele>159.1999969482421875</ele>
        <time>2026-08-13T09:23:49.000Z</time>
        <extensions>
          <ns3:TrackPointExtension>
            <ns3:hr>75</ns3:hr>
            <ns3:cad>0</ns3:cad>
          </ns3:TrackPointExtension>
        </extensions>
      </trkpt>
      <trkpt lat="43.7743739783763885498046875" lon="1.570614092051982879638671875">
        <ele>159.1999969482421875</ele>
        <time>2026-08-13T09:23:50.000Z</time>
        <extensions>
          <ns3:TrackPointExtension>
            <ns3:hr>75</ns3:hr>
            <ns3:cad>0</ns3:cad>
          </ns3:TrackPointExtension>
        </extensions>
      </trkpt>
      <trkpt lat="43.7743739783763885498046875" lon="1.570614092051982879638671875">
        <ele>159.1999969482421875</ele>
        <time>2026-08-13T09:23:51.000Z</time>
        <extensions>
          <ns3:TrackPointExtension>
            <ns3:hr>75</ns3:hr>
            <ns3:cad>0</ns3:cad>
          </ns3:TrackPointExtension>
        </extensions>
      </trkpt>
      <trkpt lat="43.7743739783763885498046875" lon="1.570614092051982879638671875">
        <ele>159.1999969482421875</ele>
        <time>2026-08-13T09:23:52.000Z</time>
        <extensions>
          <ns3:TrackPointExtension>
            <ns3:hr>76</ns3:hr>
            <ns3:cad>0</ns3:cad>
          </ns3:TrackPointExtension>
        </extensions>
      </trkpt>
      <trkpt lat="43.7743739783763885498046875" lon="1.570614092051982879638671875">
        <ele>159.1999969482421875</ele>
        <time>2026-08-13T09:23:53.000Z</time>
        <extensions>
          <ns3:TrackPointExtension>
            <ns3:hr>77</ns3:hr>
            <ns3:cad>0</ns3:cad>
          </ns3:TrackPointExtension>
        </extensions>
      </trkpt>
      <trkpt lat="43.7743739783763885498046875" lon="1.570614092051982879638671875">
        <ele>159.1999969482421875</ele>
        <time>2026-08-13T09:23:54.000Z</time>
        <extensions>
          <ns3:TrackPointExtension>
            <ns3:hr>78</ns3:hr>
            <ns3:cad>0</ns3:cad>
          </ns3:TrackPointExtension>
        </extensions>
      </trkpt>
      <trkpt lat="43.7743739783763885498046875" lon="1.570614092051982879638671875">
        <ele>159.1999969482421875</ele>
        <time>2026-08-13T09:23:55.000Z</time>
        <extensions>
          <ns3:TrackPointExtension>
            <ns3:hr>79</ns3:hr>
            <ns3:cad>0</ns3:cad>
          </ns3:TrackPointExtension>
        </extensions>
      </trkpt>
      <trkpt lat="43.7743739783763885498046875" lon="1.570614092051982879638671875">
        <ele>159.1999969482421875</ele>
        <time>2026-08-13T09:23:56.000Z</time>
        <extensions>
          <ns3:TrackPointExtension>
            <ns3:hr>80</ns3:hr>
            <ns3:cad>0</ns3:cad>
          </ns3:TrackPointExtension>
        </extensions>
      </trkpt>
      <trkpt lat="43.7743739783763885498046875" lon="1.570614092051982879638671875">
        <ele>159.1999969482421875</ele>
        <time>2026-08-13T09:23:57.000Z</time>
        <extensions>
          <ns3:TrackPointExtension>
            <ns3:hr>81</ns3:hr>
            <ns3:cad>0</ns3:cad>
          </ns3:TrackPointExtension>
        </extensions>
      </trkpt>
      <trkpt lat="43.7743739783763885498046875" lon="1.570614092051982879638671875">
        <ele>159.1999969482421875</ele>
        <time>2026-08-13T09:23:58.000Z</time>
        <extensions>
          <ns3:TrackPointExtension>
            <ns3:hr>81</ns3:hr>
            <ns3:cad>0</ns3:cad>
          </ns3:TrackPointExtension>
        </extensions>
      </trkpt>
      <trkpt lat="43.7743739783763885498046875" lon="1.570614092051982879638671875">
        <ele>159.1999969482421875</ele>
        <time>2026-08-13T09:23:59.000Z</time>
        <extensions>
          <ns3:TrackPointExtension>
            <ns3:hr>81</ns3:hr>
            <ns3:cad>0</ns3:cad>
          </ns3:TrackPointExtension>
        </extensions>
      </trkpt>
      <trkpt lat="43.7743739783763885498046875" lon="1.570614092051982879638671875">
        <ele>159.1999969482421875</ele>
        <time>2026-08-13T09:24:00.000Z</time>
        <extensions>
          <ns3:TrackPointExtension>
            <ns3:hr>81</ns3:hr>
            <ns3:cad>0</ns3:cad>
          </ns3:TrackPointExtension>
        </extensions>
      </trkpt>
      <trkpt lat="43.7743739783763885498046875" lon="1.570614092051982879638671875">
        <ele>159.1999969482421875</ele>
        <time>2026-08-13T09:24:01.000Z</time>
        <extensions>
          <ns3:TrackPointExtension>
            <ns3:hr>81</ns3:hr>
            <ns3:cad>0</ns3:cad>
          </ns3:TrackPointExtension>
        </extensions>
      </trkpt>
      <trkpt lat="43.7743739783763885498046875" lon="1.570614092051982879638671875">
        <ele>159.1999969482421875</ele>
        <time>2026-08-13T09:24:02.000Z</time>
        <extensions>
          <ns3:TrackPointExtension>
            <ns3:hr>81</ns3:hr>
            <ns3:cad>0</ns3:cad>
          </ns3:TrackPointExtension>
        </extensions>
      </trkpt>
      <trkpt lat="43.7743739783763885498046875" lon="1.570614092051982879638671875">
        <ele>159.1999969482421875</ele>
        <time>2026-08-13T09:24:03.000Z</time>
        <extensions>
          <ns3:TrackPointExtension>
            <ns3:hr>81</ns3:hr>
            <ns3:cad>0</ns3:cad>
          </ns3:TrackPointExtension>
        </extensions>
      </trkpt>
      <trkpt lat="43.7743739783763885498046875" lon="1.570614092051982879638671875">
        <ele>159.1999969482421875</ele>
        <time>2026-08-13T09:24:04.000Z</time>
        <extensions>
          <ns3:TrackPointExtension>
            <ns3:hr>81</ns3:hr>
            <ns3:cad>0</ns3:cad>
          </ns3:TrackPointExtension>
        </extensions>
      </trkpt>
      <trkpt lat="43.7743739783763885498046875" lon="1.570614092051982879638671875">
        <ele>159.1999969482421875</ele>
        <time>2026-08-13T09:24:05.000Z</time>
        <extensions>
          <ns3:TrackPointExtension>
            <ns3:hr>81</ns3:hr>
            <ns3:cad>0</ns3:cad>
          </ns3:TrackPointExtension>
        </extensions>
      </trkpt>
      <trkpt lat="43.7743739783763885498046875" lon="1.570614092051982879638671875">
        <ele>159.1999969482421875</ele>
        <time>2026-08-13T09:24:06.000Z</time>
        <extensions>
          <ns3:TrackPointExtension>
            <ns3:hr>81</ns3:hr>
            <ns3:cad>0</ns3:cad>
          </ns3:TrackPointExtension>
        </extensions>
      </trkpt>
      <trkpt lat="43.7743739783763885498046875" lon="1.570614092051982879638671875">
        <ele>159.1999969482421875</ele>
        <time>2026-08-13T09:24:07.000Z</time>
        <extensions>
          <ns3:TrackPointExtension>
            <ns3:hr>81</ns3:hr>
            <ns3:cad>0</ns3:cad>
          </ns3:TrackPointExtension>
        </extensions>
      </trkpt>
      <trkpt lat="43.7743739783763885498046875" lon="1.570614092051982879638671875">
        <ele>159.1999969482421875</ele>
        <time>2026-08-13T09:24:08.000Z</time>
        <extensions>
          <ns3:TrackPointExtension>
            <ns3:hr>81</ns3:hr>
            <ns3:cad>0</ns3:cad>
          </ns3:TrackPointExtension>
        </extensions>
      </trkpt>
      <trkpt lat="43.7743739783763885498046875" lon="1.570614092051982879638671875">
        <ele>159.1999969482421875</ele>
        <time>2026-08-13T09:24:09.000Z</time>
        <extensions>
          <ns3:TrackPointExtension>
            <ns3:hr>81</ns3:hr>
            <ns3:cad>0</ns3:cad>
          </ns3:TrackPointExtension>
        </extensions>
      </trkpt>
      <trkpt lat="43.7743739783763885498046875" lon="1.570614092051982879638671875">
        <ele>159.1999969482421875</ele>
        <time>2026-08-13T09:24:10.000Z</time>
        <extensions>
          <ns3:TrackPointExtension>
            <ns3:hr>81</ns3:hr>
            <ns3:cad>0</ns3:cad>
          </ns3:TrackPointExtension>
        </extensions>
      </trkpt>
      <trkpt lat="43.7743739783763885498046875" lon="1.570614092051982879638671875">
        <ele>159.1999969482421875</ele>
        <time>2026-08-13T09:24:11.000Z</time>
        <extensions>
          <ns3:TrackPointExtension>
            <ns3:hr>80</ns3:hr>
            <ns3:cad>0</ns3:cad>
          </ns3:TrackPointExtension>
        </extensions>
      </trkpt>
      <trkpt lat="43.7743739783763885498046875" lon="1.570614092051982879638671875">
        <ele>159.1999969482421875</ele>
        <time>2026-08-13T09:24:12.000Z</time>
        <extensions>
          <ns3:TrackPointExtension>
            <ns3:hr>79</ns3:hr>
            <ns3:cad>0</ns3:cad>
          </ns3:TrackPointExtension>
        </extensions>
      </trkpt>
      <trkpt lat="43.7743739783763885498046875" lon="1.570614092051982879638671875">
        <ele>159.1999969482421875</ele>
        <time>2026-08-13T09:24:13.000Z</time>
        <extensions>
          <ns3:TrackPointExtension>
            <ns3:hr>79</ns3:hr>
            <ns3:cad>0</ns3:cad>
          </ns3:TrackPointExtension>
        </extensions>
      </trkpt>
      <trkpt lat="43.7743739783763885498046875" lon="1.570614092051982879638671875">
        <ele>159.1999969482421875</ele>
        <time>2026-08-13T09:24:14.000Z</time>
        <extensions>
          <ns3:TrackPointExtension>
            <ns3:hr>79</ns3:hr>
            <ns3:cad>0</ns3:cad>
          </ns3:TrackPointExtension>
        </extensions>
      </trkpt>
      <trkpt lat="43.7743739783763885498046875" lon="1.570614092051982879638671875">
        <ele>159.1999969482421875</ele>
        <time>2026-08-13T09:24:15.000Z</time>
        <extensions>
          <ns3:TrackPointExtension>
            <ns3:hr>79</ns3:hr>
            <ns3:cad>0</ns3:cad>
          </ns3:TrackPointExtension>
        </extensions>
      </trkpt>
      <trkpt lat="43.7743739783763885498046875" lon="1.570614092051982879638671875">
        <ele>159.1999969482421875</ele>
        <time>2026-08-13T09:24:16.000Z</time>
        <extensions>
          <ns3:TrackPointExtension>
            <ns3:hr>80</ns3:hr>
            <ns3:cad>0</ns3:cad>
          </ns3:TrackPointExtension>
        </extensions>
      </trkpt>
      <trkpt lat="43.7743739783763885498046875" lon="1.570614092051982879638671875">
        <ele>159</ele>
        <time>2026-08-13T09:24:17.000Z</time>
        <extensions>
          <ns3:TrackPointExtension>
            <ns3:hr>80</ns3:hr>
            <ns3:cad>0</ns3:cad>
          </ns3:TrackPointExtension>
        </extensions>
      </trkpt>
      <trkpt lat="43.7743739783763885498046875" lon="1.570614092051982879638671875">
        <ele>159</ele>
        <time>2026-08-13T09:24:18.000Z</time>
        <extensions>
          <ns3:TrackPointExtension>
            <ns3:hr>81</ns3:hr>
            <ns3:cad>0</ns3:cad>
          </ns3:TrackPointExtension>
        </extensions>
      </trkpt>
      <trkpt lat="43.7743739783763885498046875" lon="1.570614092051982879638671875">
        <ele>159</ele>
        <time>2026-08-13T09:24:19.000Z</time>
        <extensions>
          <ns3:TrackPointExtension>
            <ns3:hr>81</ns3:hr>
            <ns3:cad>0</ns3:cad>
          </ns3:TrackPointExtension>
        </extensions>
      </trkpt>
      <trkpt lat="43.7743739783763885498046875" lon="1.570614092051982879638671875">
        <ele>159</ele>
        <time>2026-08-13T09:24:20.000Z</time>
        <extensions>
          <ns3:TrackPointExtension>
            <ns3:hr>81</ns3:hr>
            <ns3:cad>0</ns3:cad>
          </ns3:TrackPointExtension>
        </extensions>
      </trkpt>
      <trkpt lat="43.7743739783763885498046875" lon="1.570614092051982879638671875">
        <ele>159</ele>
        <time>2026-08-13T09:24:21.000Z</time>
        <extensions>
          <ns3:TrackPointExtension>
            <ns3:hr>81</ns3:hr>
            <ns3:cad>0</ns3:cad>
          </ns3:TrackPointExtension>
        </extensions>
      </trkpt>
      <trkpt lat="43.7743739783763885498046875" lon="1.570614092051982879638671875">
        <ele>159</ele>
        <time>2026-08-13T09:24:22.000Z</time>
        <extensions>
          <ns3:TrackPointExtension>
            <ns3:hr>81</ns3:hr>
            <ns3:cad>0</ns3:cad>
          </ns3:TrackPointExtension>
        </extensions>
      </trkpt>
      <trkpt lat="43.7743739783763885498046875" lon="1.570614092051982879638671875">
        <ele>159</ele>
        <time>2026-08-13T09:24:23.000Z</time>
        <extensions>
          <ns3:TrackPointExtension>
            <ns3:hr>81</ns3:hr>
            <ns3:cad>0</ns3:cad>
          </ns3:TrackPointExtension>
        </extensions>
      </trkpt>
      <trkpt lat="43.7743739783763885498046875" lon="1.570614092051982879638671875">
        <ele>159</ele>
        <time>2026-08-13T09:24:24.000Z</time>
        <extensions>
          <ns3:TrackPointExtension>
            <ns3:hr>81</ns3:hr>
            <ns3:cad>0</ns3:cad>
          </ns3:TrackPointExtension>
        </extensions>
      </trkpt>
      <trkpt lat="43.7743739783763885498046875" lon="1.570614092051982879638671875">
        <ele>159</ele>
        <time>2026-08-13T09:24:25.000Z</time>
        <extensions>
          <ns3:TrackPointExtension>
            <ns3:hr>81</ns3:hr>
            <ns3:cad>0</ns3:cad>
          </ns3:TrackPointExtension>
        </extensions>
      </trkpt>
      <trkpt lat="43.7743739783763885498046875" lon="1.570614092051982879638671875">
        <ele>159</ele>
        <time>2026-08-13T09:24:26.000Z</time>
        <extensions>
          <ns3:TrackPointExtension>
            <ns3:hr>81</ns3:hr>
            <ns3:cad>0</ns3:cad>
          </ns3:TrackPointExtension>
        </extensions>
      </trkpt>
      <trkpt lat="43.7743739783763885498046875" lon="1.570614092051982879638671875">
        <ele>159</ele>
        <time>2026-08-13T09:24:27.000Z</time>
        <extensions>
          <ns3:TrackPointExtension>
            <ns3:hr>80</ns3:hr>
            <ns3:cad>0</ns3:cad>
          </ns3:TrackPointExtension>
        </extensions>
      </trkpt>
      <trkpt lat="43.7743739783763885498046875" lon="1.570614092051982879638671875">
        <ele>159</ele>
        <time>2026-08-13T09:24:28.000Z</time>
        <extensions>
          <ns3:TrackPointExtension>
            <ns3:hr>79</ns3:hr>
            <ns3:cad>0</ns3:cad>
          </ns3:TrackPointExtension>
        </extensions>
      </trkpt>
      <trkpt lat="43.77437171526253223419189453125" lon="1.570611409842967987060546875">
        <ele>159</ele>
        <time>2026-08-13T09:24:29.000Z</time>
        <extensions>
          <ns3:TrackPointExtension>
            <ns3:hr>79</ns3:hr>
            <ns3:cad>0</ns3:cad>
          </ns3:TrackPointExtension>
        </extensions>
      </trkpt>
      <trkpt lat="43.7743751518428325653076171875" lon="1.57061132602393627166748046875">
        <ele>159</ele>
        <time>2026-08-13T09:24:30.000Z</time>
        <extensions>
          <ns3:TrackPointExtension>
            <ns3:hr>79</ns3:hr>
            <ns3:cad>0</ns3:cad>
          </ns3:TrackPointExtension>
        </extensions>
      </trkpt>
      <trkpt lat="43.77437942661345005035400390625" lon="1.57061467878520488739013671875">
        <ele>159</ele>
        <time>2026-08-13T09:24:31.000Z</time>
        <extensions>
          <ns3:TrackPointExtension>
            <ns3:hr>80</ns3:hr>
            <ns3:cad>0</ns3:cad>
          </ns3:TrackPointExtension>
        </extensions>
      </trkpt>
      <trkpt lat="43.7743808515369892120361328125" lon="1.57061601988971233367919921875">
        <ele>159</ele>
        <time>2026-08-13T09:24:32.000Z</time>
        <extensions>
          <ns3:TrackPointExtension>
            <ns3:hr>79</ns3:hr>
            <ns3:cad>0</ns3:cad>
          </ns3:TrackPointExtension>
        </extensions>
      </trkpt>
      <trkpt lat="43.77438060007989406585693359375" lon="1.57062222249805927276611328125">
        <ele>159</ele>
        <time>2026-08-13T09:24:33.000Z</time>
        <extensions>
          <ns3:TrackPointExtension>
            <ns3:hr>79</ns3:hr>
            <ns3:cad>0</ns3:cad>
          </ns3:TrackPointExtension>
        </extensions>
      </trkpt>
      <trkpt lat="43.77438395284116268157958984375" lon="1.5706259943544864654541015625">
        <ele>159</ele>
        <time>2026-08-13T09:24:34.000Z</time>
        <extensions>
          <ns3:TrackPointExtension>
            <ns3:hr>79</ns3:hr>
            <ns3:cad>0</ns3:cad>
          </ns3:TrackPointExtension>
        </extensions>
      </trkpt>
      <trkpt lat="43.77438244409859180450439453125" lon="1.57063161022961139678955078125">
        <ele>159</ele>
        <time>2026-08-13T09:24:35.000Z</time>
        <extensions>
          <ns3:TrackPointExtension>
            <ns3:hr>80</ns3:hr>
            <ns3:cad>0</ns3:cad>
          </ns3:TrackPointExtension>
        </extensions>
      </trkpt>
      <trkpt lat="43.77438412047922611236572265625" lon="1.57063261605799198150634765625">
        <ele>159</ele>
        <time>2026-08-13T09:24:36.000Z</time>
        <extensions>
          <ns3:TrackPointExtension>
            <ns3:hr>79</ns3:hr>
            <ns3:cad>0</ns3:cad>
          </ns3:TrackPointExtension>
        </extensions>
      </trkpt>
      <trkpt lat="43.77438428811728954315185546875" lon="1.5706326998770236968994140625">
        <ele>159</ele>
        <time>2026-08-13T09:24:37.000Z</time>
        <extensions>
          <ns3:TrackPointExtension>
            <ns3:hr>77</ns3:hr>
            <ns3:cad>0</ns3:cad>
          </ns3:TrackPointExtension>
        </extensions>
      </trkpt>
      <trkpt lat="43.77438428811728954315185546875" lon="1.5706326998770236968994140625">
        <ele>159</ele>
        <time>2026-08-13T09:24:38.000Z</time>
        <extensions>
          <ns3:TrackPointExtension>
            <ns3:hr>75</ns3:hr>
            <ns3:cad>0</ns3:cad>
          </ns3:TrackPointExtension>
        </extensions>
      </trkpt>
      <trkpt lat="43.77438428811728954315185546875" lon="1.5706326998770236968994140625">
        <ele>159</ele>
        <time>2026-08-13T09:24:39.000Z</time>
        <extensions>
          <ns3:TrackPointExtension>
            <ns3:hr>75</ns3:hr>
            <ns3:cad>0</ns3:cad>
          </ns3:TrackPointExtension>
        </extensions>
      </trkpt>
      <trkpt lat="43.77438428811728954315185546875" lon="1.5706326998770236968994140625">
        <ele>159</ele>
        <time>2026-08-13T09:24:40.000Z</time>
        <extensions>
          <ns3:TrackPointExtension>
            <ns3:hr>76</ns3:hr>
            <ns3:cad>0</ns3:cad>
          </ns3:TrackPointExtension>
        </extensions>
      </trkpt>
      <trkpt lat="43.774385042488574981689453125" lon="1.57063278369605541229248046875">
        <ele>159</ele>
        <time>2026-08-13T09:24:41.000Z</time>
        <extensions>
          <ns3:TrackPointExtension>
            <ns3:hr>76</ns3:hr>
            <ns3:cad>0</ns3:cad>
          </ns3:TrackPointExtension>
        </extensions>
      </trkpt>
      <trkpt lat="43.77438428811728954315185546875" lon="1.5706326998770236968994140625">
        <ele>159.1999969482421875</ele>
        <time>2026-08-13T09:24:42.000Z</time>
        <extensions>
          <ns3:TrackPointExtension>
            <ns3:hr>76</ns3:hr>
            <ns3:cad>0</ns3:cad>
          </ns3:TrackPointExtension>
        </extensions>
      </trkpt>
      <trkpt lat="43.77438730560243129730224609375" lon="1.57063630409538745880126953125">
        <ele>159.1999969482421875</ele>
        <time>2026-08-13T09:24:43.000Z</time>
        <extensions>
          <ns3:TrackPointExtension>
            <ns3:hr>75</ns3:hr>
            <ns3:cad>0</ns3:cad>
          </ns3:TrackPointExtension>
        </extensions>
      </trkpt>
      <trkpt lat="43.7743899039924144744873046875" lon="1.5706400759518146514892578125">
        <ele>159.1999969482421875</ele>
        <time>2026-08-13T09:24:44.000Z</time>
        <extensions>
          <ns3:TrackPointExtension>
            <ns3:hr>75</ns3:hr>
            <ns3:cad>0</ns3:cad>
          </ns3:TrackPointExtension>
        </extensions>
      </trkpt>
      <trkpt lat="43.774397112429141998291015625" lon="1.57065189443528652191162109375">
        <ele>159.1999969482421875</ele>
        <time>2026-08-13T09:24:45.000Z</time>
        <extensions>
          <ns3:TrackPointExtension>
            <ns3:hr>74</ns3:hr>
            <ns3:cad>0</ns3:cad>
          </ns3:TrackPointExtension>
        </extensions>
      </trkpt>
      <trkpt lat="43.77439702861011028289794921875" lon="1.57065239734947681427001953125">
        <ele>159.1999969482421875</ele>
        <time>2026-08-13T09:24:46.000Z</time>
        <extensions>
          <ns3:TrackPointExtension>
            <ns3:hr>73</ns3:hr>
            <ns3:cad>0</ns3:cad>
          </ns3:TrackPointExtension>
        </extensions>
      </trkpt>
      <trkpt lat="43.774397112429141998291015625" lon="1.57065273262560367584228515625">
        <ele>159.1999969482421875</ele>
        <time>2026-08-13T09:24:47.000Z</time>
        <extensions>
          <ns3:TrackPointExtension>
            <ns3:hr>73</ns3:hr>
            <ns3:cad>50</ns3:cad>
          </ns3:TrackPointExtension>
        </extensions>
      </trkpt>
      <trkpt lat="43.7744013033807277679443359375" lon="1.570670418441295623779296875">
        <ele>159.1999969482421875</ele>
        <time>2026-08-13T09:24:48.000Z</time>
        <extensions>
          <ns3:TrackPointExtension>
            <ns3:hr>73</ns3:hr>
            <ns3:cad>0</ns3:cad>
          </ns3:TrackPointExtension>
        </extensions>
      </trkpt>
      <trkpt lat="43.77440339885652065277099609375" lon="1.57068760134279727935791015625">
        <ele>159</ele>
        <time>2026-08-13T09:24:49.000Z</time>
        <extensions>
          <ns3:TrackPointExtension>
            <ns3:hr>73</ns3:hr>
            <ns3:cad>0</ns3:cad>
          </ns3:TrackPointExtension>
        </extensions>
      </trkpt>
      <trkpt lat="43.77440205775201320648193359375" lon="1.57069983892142772674560546875">
        <ele>159</ele>
        <time>2026-08-13T09:24:50.000Z</time>
        <extensions>
          <ns3:TrackPointExtension>
            <ns3:hr>73</ns3:hr>
            <ns3:cad>0</ns3:cad>
          </ns3:TrackPointExtension>
        </extensions>
      </trkpt>
      <trkpt lat="43.77440021373331546783447265625" lon="1.57071241177618503570556640625">
        <ele>159</ele>
        <time>2026-08-13T09:24:51.000Z</time>
        <extensions>
          <ns3:TrackPointExtension>
            <ns3:hr>73</ns3:hr>
            <ns3:cad>0</ns3:cad>
          </ns3:TrackPointExtension>
        </extensions>
      </trkpt>
      <trkpt lat="43.7743956036865711212158203125" lon="1.570726744830608367919921875">
        <ele>159</ele>
        <time>2026-08-13T09:24:52.000Z</time>
        <extensions>
          <ns3:TrackPointExtension>
            <ns3:hr>73</ns3:hr>
            <ns3:cad>0</ns3:cad>
          </ns3:TrackPointExtension>
        </extensions>
      </trkpt>
      <trkpt lat="43.7743900716304779052734375" lon="1.5707389824092388153076171875">
        <ele>159</ele>
        <time>2026-08-13T09:24:53.000Z</time>
        <extensions>
          <ns3:TrackPointExtension>
            <ns3:hr>73</ns3:hr>
            <ns3:cad>45</ns3:cad>
          </ns3:TrackPointExtension>
        </extensions>
      </trkpt>
      <trkpt lat="43.7743852101266384124755859375" lon="1.57074945978820323944091796875">
        <ele>159</ele>
        <time>2026-08-13T09:24:54.000Z</time>
        <extensions>
          <ns3:TrackPointExtension>
            <ns3:hr>73</ns3:hr>
            <ns3:cad>47</ns3:cad>
          </ns3:TrackPointExtension>
        </extensions>
      </trkpt>
      <trkpt lat="43.77438076771795749664306640625" lon="1.57075918279588222503662109375">
        <ele>159</ele>
        <time>2026-08-13T09:24:55.000Z</time>
        <extensions>
          <ns3:TrackPointExtension>
            <ns3:hr>73</ns3:hr>
            <ns3:cad>47</ns3:cad>
          </ns3:TrackPointExtension>
        </extensions>
      </trkpt>
      <trkpt lat="43.774374313652515411376953125" lon="1.57076756469905376434326171875">
        <ele>159</ele>
        <time>2026-08-13T09:24:56.000Z</time>
        <extensions>
          <ns3:TrackPointExtension>
            <ns3:hr>73</ns3:hr>
            <ns3:cad>48</ns3:cad>
          </ns3:TrackPointExtension>
        </extensions>
      </trkpt>
      <trkpt lat="43.77436618320643901824951171875" lon="1.57077862881124019622802734375">
        <ele>158.8000030517578125</ele>
        <time>2026-08-13T09:24:57.000Z</time>
        <extensions>
          <ns3:TrackPointExtension>
            <ns3:hr>73</ns3:hr>
            <ns3:cad>48</ns3:cad>
          </ns3:TrackPointExtension>
        </extensions>
      </trkpt>
      <trkpt lat="43.77435981296002864837646484375" lon="1.57078583724796772003173828125">
        <ele>159</ele>
        <time>2026-08-13T09:24:58.000Z</time>
        <extensions>
          <ns3:TrackPointExtension>
            <ns3:hr>74</ns3:hr>
            <ns3:cad>48</ns3:cad>
          </ns3:TrackPointExtension>
        </extensions>
      </trkpt>
      <trkpt lat="43.774350844323635101318359375" lon="1.570795476436614990234375">
        <ele>159</ele>
        <time>2026-08-13T09:24:59.000Z</time>
        <extensions>
          <ns3:TrackPointExtension>
            <ns3:hr>74</ns3:hr>
            <ns3:cad>48</ns3:cad>
          </ns3:TrackPointExtension>
        </extensions>
      </trkpt>
      <trkpt lat="43.77433751709759235382080078125" lon="1.57080042175948619842529296875">
        <ele>159</ele>
        <time>2026-08-13T09:25:00.000Z</time>
        <extensions>
          <ns3:TrackPointExtension>
            <ns3:hr>74</ns3:hr>
            <ns3:cad>48</ns3:cad>
          </ns3:TrackPointExtension>
        </extensions>
      </trkpt>
      <trkpt lat="43.774324357509613037109375" lon="1.57080846838653087615966796875">
        <ele>159</ele>
        <time>2026-08-13T09:25:01.000Z</time>
        <extensions>
          <ns3:TrackPointExtension>
            <ns3:hr>75</ns3:hr>
            <ns3:cad>48</ns3:cad>
          </ns3:TrackPointExtension>
        </extensions>
      </trkpt>
      <trkpt lat="43.7743124552071094512939453125" lon="1.57081299461424350738525390625">
        <ele>159</ele>
        <time>2026-08-13T09:25:02.000Z</time>
        <extensions>
          <ns3:TrackPointExtension>
            <ns3:hr>75</ns3:hr>
            <ns3:cad>48</ns3:cad>
          </ns3:TrackPointExtension>
        </extensions>
      </trkpt>
      <trkpt lat="43.77430315129458904266357421875" lon="1.57081936486065387725830078125">
        <ele>159</ele>
        <time>2026-08-13T09:25:03.000Z</time>
        <extensions>
          <ns3:TrackPointExtension>
            <ns3:hr>76</ns3:hr>
            <ns3:cad>49</ns3:cad>
          </ns3:TrackPointExtension>
        </extensions>
      </trkpt>
      <trkpt lat="43.774297200143337249755859375" lon="1.5708274953067302703857421875">
        <ele>159.1999969482421875</ele>
        <time>2026-08-13T09:25:04.000Z</time>
        <extensions>
          <ns3:TrackPointExtension>
            <ns3:hr>76</ns3:hr>
            <ns3:cad>49</ns3:cad>
          </ns3:TrackPointExtension>
        </extensions>
      </trkpt>
      <trkpt lat="43.77428806386888027191162109375" lon="1.570828668773174285888671875">
        <ele>159.1999969482421875</ele>
        <time>2026-08-13T09:25:05.000Z</time>
        <extensions>
          <ns3:TrackPointExtension>
            <ns3:hr>76</ns3:hr>
            <ns3:cad>49</ns3:cad>
          </ns3:TrackPointExtension>
        </extensions>
      </trkpt>
      <trkpt lat="43.774281106889247894287109375" lon="1.5708308480679988861083984375">
        <ele>159.1999969482421875</ele>
        <time>2026-08-13T09:25:06.000Z</time>
        <extensions>
          <ns3:TrackPointExtension>
            <ns3:hr>77</ns3:hr>
            <ns3:cad>49</ns3:cad>
          </ns3:TrackPointExtension>
        </extensions>
      </trkpt>
      <trkpt lat="43.77427247352898120880126953125" lon="1.5708358772099018096923828125">
        <ele>159.1999969482421875</ele>
        <time>2026-08-13T09:25:07.000Z</time>
        <extensions>
          <ns3:TrackPointExtension>
            <ns3:hr>77</ns3:hr>
            <ns3:cad>50</ns3:cad>
          </ns3:TrackPointExtension>
        </extensions>
      </trkpt>
      <trkpt lat="43.77426040358841419219970703125" lon="1.57084316946566104888916015625">
        <ele>159</ele>
        <time>2026-08-13T09:25:08.000Z</time>
        <extensions>
          <ns3:TrackPointExtension>
            <ns3:hr>77</ns3:hr>
            <ns3:cad>50</ns3:cad>
          </ns3:TrackPointExtension>
        </extensions>
      </trkpt>
      <trkpt lat="43.77424850128591060638427734375" lon="1.57084845006465911865234375">
        <ele>159</ele>
        <time>2026-08-13T09:25:09.000Z</time>
        <extensions>
          <ns3:TrackPointExtension>
            <ns3:hr>78</ns3:hr>
            <ns3:cad>50</ns3:cad>
          </ns3:TrackPointExtension>
        </extensions>
      </trkpt>
      <trkpt lat="43.77424162812530994415283203125" lon="1.57085389830172061920166015625">
        <ele>159</ele>
        <time>2026-08-13T09:25:10.000Z</time>
        <extensions>
          <ns3:TrackPointExtension>
            <ns3:hr>81</ns3:hr>
            <ns3:cad>50</ns3:cad>
          </ns3:TrackPointExtension>
        </extensions>
      </trkpt>
      <trkpt lat="43.7742336653172969818115234375" lon="1.57085792161524295806884765625">
        <ele>159</ele>
        <time>2026-08-13T09:25:11.000Z</time>
        <extensions>
          <ns3:TrackPointExtension>
            <ns3:hr>82</ns3:hr>
            <ns3:cad>49</ns3:cad>
          </ns3:TrackPointExtension>
        </extensions>
      </trkpt>
      <trkpt lat="43.7742333300411701202392578125" lon="1.570863537490367889404296875">
        <ele>159</ele>
        <time>2026-08-13T09:25:12.000Z</time>
        <extensions>
          <ns3:TrackPointExtension>
            <ns3:hr>82</ns3:hr>
            <ns3:cad>49</ns3:cad>
          </ns3:TrackPointExtension>
        </extensions>
      </trkpt>
      <trkpt lat="43.7742202542722225189208984375" lon="1.5708737634122371673583984375">
        <ele>159</ele>
        <time>2026-08-13T09:25:13.000Z</time>
        <extensions>
          <ns3:TrackPointExtension>
            <ns3:hr>82</ns3:hr>
            <ns3:cad>50</ns3:cad>
          </ns3:TrackPointExtension>
        </extensions>
      </trkpt>
      <trkpt lat="43.774205334484577178955078125" lon="1.5708868391811847686767578125">
        <ele>158.8000030517578125</ele>
        <time>2026-08-13T09:25:14.000Z</time>
        <extensions>
          <ns3:TrackPointExtension>
            <ns3:hr>82</ns3:hr>
            <ns3:cad>50</ns3:cad>
          </ns3:TrackPointExtension>
        </extensions>
      </trkpt>
      <trkpt lat="43.774190247058868408203125" lon="1.57090435735881328582763671875">
        <ele>158.8000030517578125</ele>
        <time>2026-08-13T09:25:15.000Z</time>
        <extensions>
          <ns3:TrackPointExtension>
            <ns3:hr>82</ns3:hr>
            <ns3:cad>49</ns3:cad>
          </ns3:TrackPointExtension>
        </extensions>
      </trkpt>
      <trkpt lat="43.77417490817606449127197265625" lon="1.57092112116515636444091796875">
        <ele>158.8000030517578125</ele>
        <time>2026-08-13T09:25:16.000Z</time>
        <extensions>
          <ns3:TrackPointExtension>
            <ns3:hr>83</ns3:hr>
            <ns3:cad>49</ns3:cad>
          </ns3:TrackPointExtension>
        </extensions>
      </trkpt>
      <trkpt lat="43.77416166476905345916748046875" lon="1.5709307603538036346435546875">
        <ele>158.8000030517578125</ele>
        <time>2026-08-13T09:25:17.000Z</time>
        <extensions>
          <ns3:TrackPointExtension>
            <ns3:hr>82</ns3:hr>
            <ns3:cad>49</ns3:cad>
          </ns3:TrackPointExtension>
        </extensions>
      </trkpt>
      <trkpt lat="43.77415965311229228973388671875" lon="1.5709411539137363433837890625">
        <ele>158.8000030517578125</ele>
        <time>2026-08-13T09:25:18.000Z</time>
        <extensions>
          <ns3:TrackPointExtension>
            <ns3:hr>82</ns3:hr>
            <ns3:cad>49</ns3:cad>
          </ns3:TrackPointExtension>
        </extensions>
      </trkpt>
      <trkpt lat="43.77414322458207607269287109375" lon="1.57094911672174930572509765625">
        <ele>158.8000030517578125</ele>
        <time>2026-08-13T09:25:19.000Z</time>
        <extensions>
          <ns3:TrackPointExtension>
            <ns3:hr>83</ns3:hr>
            <ns3:cad>49</ns3:cad>
          </ns3:TrackPointExtension>
        </extensions>
      </trkpt>
      <trkpt lat="43.7741347588598728179931640625" lon="1.5709579177200794219970703125">
        <ele>159</ele>
        <time>2026-08-13T09:25:20.000Z</time>
        <extensions>
          <ns3:TrackPointExtension>
            <ns3:hr>83</ns3:hr>
            <ns3:cad>48</ns3:cad>
          </ns3:TrackPointExtension>
        </extensions>
      </trkpt>
      <trkpt lat="43.7741243652999401092529296875" lon="1.57097560353577136993408203125">
        <ele>159</ele>
        <time>2026-08-13T09:25:21.000Z</time>
        <extensions>
          <ns3:TrackPointExtension>
            <ns3:hr>83</ns3:hr>
            <ns3:cad>48</ns3:cad>
          </ns3:TrackPointExtension>
        </extensions>
      </trkpt>
      <trkpt lat="43.77411522902548313140869140625" lon="1.57098683528602123260498046875">
        <ele>158.8000030517578125</ele>
        <time>2026-08-13T09:25:22.000Z</time>
        <extensions>
          <ns3:TrackPointExtension>
            <ns3:hr>83</ns3:hr>
            <ns3:cad>48</ns3:cad>
          </ns3:TrackPointExtension>
        </extensions>
      </trkpt>
      <trkpt lat="43.774108104407787322998046875" lon="1.5709944628179073333740234375">
        <ele>158.8000030517578125</ele>
        <time>2026-08-13T09:25:23.000Z</time>
        <extensions>
          <ns3:TrackPointExtension>
            <ns3:hr>83</ns3:hr>
            <ns3:cad>0</ns3:cad>
          </ns3:TrackPointExtension>
        </extensions>
      </trkpt>
      <trkpt lat="43.77410064451396465301513671875" lon="1.57099823467433452606201171875">
        <ele>158.600006103515625</ele>
        <time>2026-08-13T09:25:24.000Z</time>
        <extensions>
          <ns3:TrackPointExtension>
            <ns3:hr>83</ns3:hr>
            <ns3:cad>0</ns3:cad>
          </ns3:TrackPointExtension>
        </extensions>
      </trkpt>
      <trkpt lat="43.77409226261079311370849609375" lon="1.57100510783493518829345703125">
        <ele>158.600006103515625</ele>
        <time>2026-08-13T09:25:25.000Z</time>
        <extensions>
          <ns3:TrackPointExtension>
            <ns3:hr>82</ns3:hr>
            <ns3:cad>0</ns3:cad>
          </ns3:TrackPointExtension>
        </extensions>
      </trkpt>
      <trkpt lat="43.77407935447990894317626953125" lon="1.571015417575836181640625">
        <ele>158.399993896484375</ele>
        <time>2026-08-13T09:25:26.000Z</time>
        <extensions>
          <ns3:TrackPointExtension>
            <ns3:hr>82</ns3:hr>
            <ns3:cad>0</ns3:cad>
          </ns3:TrackPointExtension>
        </extensions>
      </trkpt>
      <trkpt lat="43.774068541824817657470703125" lon="1.5710266493260860443115234375">
        <ele>158.399993896484375</ele>
        <time>2026-08-13T09:25:27.000Z</time>
        <extensions>
          <ns3:TrackPointExtension>
            <ns3:hr>82</ns3:hr>
            <ns3:cad>0</ns3:cad>
          </ns3:TrackPointExtension>
        </extensions>
      </trkpt>
      <trkpt lat="43.7740593217313289642333984375" lon="1.571033857762813568115234375">
        <ele>158.399993896484375</ele>
        <time>2026-08-13T09:25:28.000Z</time>
        <extensions>
          <ns3:TrackPointExtension>
            <ns3:hr>83</ns3:hr>
            <ns3:cad>49</ns3:cad>
          </ns3:TrackPointExtension>
        </extensions>
      </trkpt>
      <trkpt lat="43.77405085600912570953369140625" lon="1.57103913836181163787841796875">
        <ele>158.399993896484375</ele>
        <time>2026-08-13T09:25:29.000Z</time>
        <extensions>
          <ns3:TrackPointExtension>
            <ns3:hr>83</ns3:hr>
            <ns3:cad>49</ns3:cad>
          </ns3:TrackPointExtension>
        </extensions>
      </trkpt>
      <trkpt lat="43.77404347993433475494384765625" lon="1.57104752026498317718505859375">
        <ele>158.399993896484375</ele>
        <time>2026-08-13T09:25:30.000Z</time>
        <extensions>
          <ns3:TrackPointExtension>
            <ns3:hr>84</ns3:hr>
            <ns3:cad>49</ns3:cad>
          </ns3:TrackPointExtension>
        </extensions>
      </trkpt>
      <trkpt lat="43.7740306556224822998046875" lon="1.5710564889013767242431640625">
        <ele>158.399993896484375</ele>
        <time>2026-08-13T09:25:31.000Z</time>
        <extensions>
          <ns3:TrackPointExtension>
            <ns3:hr>83</ns3:hr>
            <ns3:cad>49</ns3:cad>
          </ns3:TrackPointExtension>
        </extensions>
      </trkpt>
      <trkpt lat="43.77401967532932758331298828125" lon="1.57106663100421428680419921875">
        <ele>158.399993896484375</ele>
        <time>2026-08-13T09:25:32.000Z</time>
        <extensions>
          <ns3:TrackPointExtension>
            <ns3:hr>83</ns3:hr>
            <ns3:cad>49</ns3:cad>
          </ns3:TrackPointExtension>
        </extensions>
      </trkpt>
      <trkpt lat="43.77400978468358516693115234375" lon="1.5710725821554660797119140625">
        <ele>158.399993896484375</ele>
        <time>2026-08-13T09:25:33.000Z</time>
        <extensions>
          <ns3:TrackPointExtension>
            <ns3:hr>83</ns3:hr>
            <ns3:cad>49</ns3:cad>
          </ns3:TrackPointExtension>
        </extensions>
      </trkpt>
      <trkpt lat="43.77400123514235019683837890625" lon="1.5710762701928615570068359375">
        <ele>158.399993896484375</ele>
        <time>2026-08-13T09:25:34.000Z</time>
        <extensions>
          <ns3:TrackPointExtension>
            <ns3:hr>84</ns3:hr>
            <ns3:cad>49</ns3:cad>
          </ns3:TrackPointExtension>
        </extensions>
      </trkpt>
      <trkpt lat="43.7739929370582103729248046875" lon="1.571083478629589080810546875">
        <ele>158.399993896484375</ele>
        <time>2026-08-13T09:25:35.000Z</time>
        <extensions>
          <ns3:TrackPointExtension>
            <ns3:hr>84</ns3:hr>
            <ns3:cad>49</ns3:cad>
          </ns3:TrackPointExtension>
        </extensions>
      </trkpt>
      <trkpt lat="43.77397960983216762542724609375" lon="1.57110116444528102874755859375">
        <ele>158.600006103515625</ele>
        <time>2026-08-13T09:25:36.000Z</time>
        <extensions>
          <ns3:TrackPointExtension>
            <ns3:hr>84</ns3:hr>
            <ns3:cad>49</ns3:cad>
          </ns3:TrackPointExtension>
        </extensions>
      </trkpt>
      <trkpt lat="43.773967288434505462646484375" lon="1.57111256383359432220458984375">
        <ele>158.600006103515625</ele>
        <time>2026-08-13T09:25:37.000Z</time>
        <extensions>
          <ns3:TrackPointExtension>
            <ns3:hr>84</ns3:hr>
            <ns3:cad>48</ns3:cad>
          </ns3:TrackPointExtension>
        </extensions>
      </trkpt>
      <trkpt lat="43.77395647577941417694091796875" lon="1.5711205266416072845458984375">
        <ele>158.600006103515625</ele>
        <time>2026-08-13T09:25:38.000Z</time>
        <extensions>
          <ns3:TrackPointExtension>
            <ns3:hr>84</ns3:hr>
            <ns3:cad>48</ns3:cad>
          </ns3:TrackPointExtension>
        </extensions>
      </trkpt>
      <trkpt lat="43.77394943498075008392333984375" lon="1.5711218677461147308349609375">
        <ele>158.600006103515625</ele>
        <time>2026-08-13T09:25:39.000Z</time>
        <extensions>
          <ns3:TrackPointExtension>
            <ns3:hr>84</ns3:hr>
            <ns3:cad>47</ns3:cad>
          </ns3:TrackPointExtension>
        </extensions>
      </trkpt>
      <trkpt lat="43.77394356764853000640869140625" lon="1.57112295739352703094482421875">
        <ele>158.600006103515625</ele>
        <time>2026-08-13T09:25:40.000Z</time>
        <extensions>
          <ns3:TrackPointExtension>
            <ns3:hr>84</ns3:hr>
            <ns3:cad>47</ns3:cad>
          </ns3:TrackPointExtension>
        </extensions>
      </trkpt>
      <trkpt lat="43.77393384464085102081298828125" lon="1.57113234512507915496826171875">
        <ele>158.600006103515625</ele>
        <time>2026-08-13T09:25:41.000Z</time>
        <extensions>
          <ns3:TrackPointExtension>
            <ns3:hr>84</ns3:hr>
            <ns3:cad>47</ns3:cad>
          </ns3:TrackPointExtension>
        </extensions>
      </trkpt>
      <trkpt lat="43.77392529509961605072021484375" lon="1.57114424742758274078369140625">
        <ele>158.600006103515625</ele>
        <time>2026-08-13T09:25:42.000Z</time>
        <extensions>
          <ns3:TrackPointExtension>
            <ns3:hr>84</ns3:hr>
            <ns3:cad>47</ns3:cad>
          </ns3:TrackPointExtension>
        </extensions>
      </trkpt>
      <trkpt lat="43.77391691319644451141357421875" lon="1.57115329988300800323486328125">
        <ele>158.600006103515625</ele>
        <time>2026-08-13T09:25:43.000Z</time>
        <extensions>
          <ns3:TrackPointExtension>
            <ns3:hr>85</ns3:hr>
            <ns3:cad>48</ns3:cad>
          </ns3:TrackPointExtension>
        </extensions>
      </trkpt>
      <trkpt lat="43.77391196787357330322265625" lon="1.57115598209202289581298828125">
        <ele>158.600006103515625</ele>
        <time>2026-08-13T09:25:44.000Z</time>
        <extensions>
          <ns3:TrackPointExtension>
            <ns3:hr>84</ns3:hr>
            <ns3:cad>48</ns3:cad>
          </ns3:TrackPointExtension>
        </extensions>
      </trkpt>
      <trkpt lat="43.77390392124652862548828125" lon="1.57115958631038665771484375">
        <ele>158.600006103515625</ele>
        <time>2026-08-13T09:25:45.000Z</time>
        <extensions>
          <ns3:TrackPointExtension>
            <ns3:hr>85</ns3:hr>
            <ns3:cad>48</ns3:cad>
          </ns3:TrackPointExtension>
        </extensions>
      </trkpt>
      <trkpt lat="43.77388908527791500091552734375" lon="1.5711694769561290740966796875">
        <ele>158.600006103515625</ele>
        <time>2026-08-13T09:25:46.000Z</time>
        <extensions>
          <ns3:TrackPointExtension>
            <ns3:hr>85</ns3:hr>
            <ns3:cad>48</ns3:cad>
          </ns3:TrackPointExtension>
        </extensions>
      </trkpt>
      <trkpt lat="43.7738752551376819610595703125" lon="1.57117743976414203643798828125">
        <ele>158.600006103515625</ele>
        <time>2026-08-13T09:25:47.000Z</time>
        <extensions>
          <ns3:TrackPointExtension>
            <ns3:hr>85</ns3:hr>
            <ns3:cad>48</ns3:cad>
          </ns3:TrackPointExtension>
        </extensions>
      </trkpt>
      <trkpt lat="43.77386326901614665985107421875" lon="1.57119504176080226898193359375">
        <ele>158.600006103515625</ele>
        <time>2026-08-13T09:25:48.000Z</time>
        <extensions>
          <ns3:TrackPointExtension>
            <ns3:hr>85</ns3:hr>
            <ns3:cad>48</ns3:cad>
          </ns3:TrackPointExtension>
        </extensions>
      </trkpt>
      <trkpt lat="43.77385505475103855133056640625" lon="1.5712006576359272003173828125">
        <ele>158.600006103515625</ele>
        <time>2026-08-13T09:25:49.000Z</time>
        <extensions>
          <ns3:TrackPointExtension>
            <ns3:hr>85</ns3:hr>
            <ns3:cad>48</ns3:cad>
          </ns3:TrackPointExtension>
        </extensions>
      </trkpt>
      <trkpt lat="43.77384893596172332763671875" lon="1.5712018311023712158203125">
        <ele>158.600006103515625</ele>
        <time>2026-08-13T09:25:50.000Z</time>
        <extensions>
          <ns3:TrackPointExtension>
            <ns3:hr>86</ns3:hr>
            <ns3:cad>48</ns3:cad>
          </ns3:TrackPointExtension>
        </extensions>
      </trkpt>
      <trkpt lat="43.77383820712566375732421875" lon="1.5712098777294158935546875">
        <ele>158.600006103515625</ele>
        <time>2026-08-13T09:25:51.000Z</time>
        <extensions>
          <ns3:TrackPointExtension>
            <ns3:hr>85</ns3:hr>
            <ns3:cad>48</ns3:cad>
          </ns3:TrackPointExtension>
        </extensions>
      </trkpt>
      <trkpt lat="43.77382571808993816375732421875" lon="1.5712184272706508636474609375">
        <ele>158.600006103515625</ele>
        <time>2026-08-13T09:25:52.000Z</time>
        <extensions>
          <ns3:TrackPointExtension>
            <ns3:hr>85</ns3:hr>
            <ns3:cad>49</ns3:cad>
          </ns3:TrackPointExtension>
        </extensions>
      </trkpt>
      <trkpt lat="43.77381809055805206298828125" lon="1.57122639007866382598876953125">
        <ele>158.600006103515625</ele>
        <time>2026-08-13T09:25:53.000Z</time>
        <extensions>
          <ns3:TrackPointExtension>
            <ns3:hr>86</ns3:hr>
            <ns3:cad>49</ns3:cad>
          </ns3:TrackPointExtension>
        </extensions>
      </trkpt>
      <trkpt lat="43.77381029538810253143310546875" lon="1.57123141922056674957275390625">
        <ele>158.600006103515625</ele>
        <time>2026-08-13T09:25:54.000Z</time>
        <extensions>
          <ns3:TrackPointExtension>
            <ns3:hr>85</ns3:hr>
            <ns3:cad>49</ns3:cad>
          </ns3:TrackPointExtension>
        </extensions>
      </trkpt>
      <trkpt lat="43.77380761317908763885498046875" lon="1.571240723133087158203125">
        <ele>158.600006103515625</ele>
        <time>2026-08-13T09:25:55.000Z</time>
        <extensions>
          <ns3:TrackPointExtension>
            <ns3:hr>85</ns3:hr>
            <ns3:cad>49</ns3:cad>
          </ns3:TrackPointExtension>
        </extensions>
      </trkpt>
      <trkpt lat="43.7737947888672351837158203125" lon="1.57125052995979785919189453125">
        <ele>158.600006103515625</ele>
        <time>2026-08-13T09:25:56.000Z</time>
        <extensions>
          <ns3:TrackPointExtension>
            <ns3:hr>86</ns3:hr>
            <ns3:cad>49</ns3:cad>
          </ns3:TrackPointExtension>
        </extensions>
      </trkpt>
      <trkpt lat="43.7737870775163173675537109375" lon="1.57125740312039852142333984375">
        <ele>158.600006103515625</ele>
        <time>2026-08-13T09:25:57.000Z</time>
        <extensions>
          <ns3:TrackPointExtension>
            <ns3:hr>86</ns3:hr>
            <ns3:cad>49</ns3:cad>
          </ns3:TrackPointExtension>
        </extensions>
      </trkpt>
      <trkpt lat="43.7737793661653995513916015625" lon="1.5712650306522846221923828125">
        <ele>158.600006103515625</ele>
        <time>2026-08-13T09:25:58.000Z</time>
        <extensions>
          <ns3:TrackPointExtension>
            <ns3:hr>86</ns3:hr>
            <ns3:cad>47</ns3:cad>
          </ns3:TrackPointExtension>
        </extensions>
      </trkpt>
      <trkpt lat="43.7737740017473697662353515625" lon="1.57127316109836101531982421875">
        <ele>158.600006103515625</ele>
        <time>2026-08-13T09:25:59.000Z</time>
        <extensions>
          <ns3:TrackPointExtension>
            <ns3:hr>86</ns3:hr>
            <ns3:cad>47</ns3:cad>
          </ns3:TrackPointExtension>
        </extensions>
      </trkpt>
      <trkpt lat="43.77376637421548366546630859375" lon="1.5712871588766574859619140625">
        <ele>158.600006103515625</ele>
        <time>2026-08-13T09:26:00.000Z</time>
        <extensions>
          <ns3:TrackPointExtension>
            <ns3:hr>86</ns3:hr>
            <ns3:cad>47</ns3:cad>
          </ns3:TrackPointExtension>
        </extensions>
      </trkpt>
      <trkpt lat="43.7737515382468700408935546875" lon="1.57129797153174877166748046875">
        <ele>158.600006103515625</ele>
        <time>2026-08-13T09:26:01.000Z</time>
        <extensions>
          <ns3:TrackPointExtension>
            <ns3:hr>86</ns3:hr>
            <ns3:cad>47</ns3:cad>
          </ns3:TrackPointExtension>
        </extensions>
      </trkpt>
      <trkpt lat="43.77374307252466678619384765625" lon="1.57130953855812549591064453125">
        <ele>158.600006103515625</ele>
        <time>2026-08-13T09:26:02.000Z</time>
        <extensions>
          <ns3:TrackPointExtension>
            <ns3:hr>85</ns3:hr>
            <ns3:cad>47</ns3:cad>
          </ns3:TrackPointExtension>
        </extensions>
      </trkpt>
      <trkpt lat="43.77373653464019298553466796875" lon="1.57131758518517017364501953125">
        <ele>158.600006103515625</ele>
        <time>2026-08-13T09:26:03.000Z</time>
        <extensions>
          <ns3:TrackPointExtension>
            <ns3:hr>86</ns3:hr>
            <ns3:cad>47</ns3:cad>
          </ns3:TrackPointExtension>
        </extensions>
      </trkpt>
      <trkpt lat="43.77373100258409976959228515625" lon="1.57132362015545368194580078125">
        <ele>158.8000030517578125</ele>
        <time>2026-08-13T09:26:04.000Z</time>
        <extensions>
          <ns3:TrackPointExtension>
            <ns3:hr>86</ns3:hr>
            <ns3:cad>47</ns3:cad>
          </ns3:TrackPointExtension>
        </extensions>
      </trkpt>
      <trkpt lat="43.77372144721448421478271484375" lon="1.57133216969668865203857421875">
        <ele>158.8000030517578125</ele>
        <time>2026-08-13T09:26:05.000Z</time>
        <extensions>
          <ns3:TrackPointExtension>
            <ns3:hr>86</ns3:hr>
            <ns3:cad>47</ns3:cad>
          </ns3:TrackPointExtension>
        </extensions>
      </trkpt>
      <trkpt lat="43.77370937727391719818115234375" lon="1.57134558074176311492919921875">
        <ele>158.8000030517578125</ele>
        <time>2026-08-13T09:26:06.000Z</time>
        <extensions>
          <ns3:TrackPointExtension>
            <ns3:hr>86</ns3:hr>
            <ns3:cad>47</ns3:cad>
          </ns3:TrackPointExtension>
        </extensions>
      </trkpt>
      <trkpt lat="43.7736992351710796356201171875" lon="1.57135547138750553131103515625">
        <ele>158.600006103515625</ele>
        <time>2026-08-13T09:26:07.000Z</time>
        <extensions>
          <ns3:TrackPointExtension>
            <ns3:hr>86</ns3:hr>
            <ns3:cad>47</ns3:cad>
          </ns3:TrackPointExtension>
        </extensions>
      </trkpt>
      <trkpt lat="43.77369110472500324249267578125" lon="1.571364104747772216796875">
        <ele>158.600006103515625</ele>
        <time>2026-08-13T09:26:08.000Z</time>
        <extensions>
          <ns3:TrackPointExtension>
            <ns3:hr>86</ns3:hr>
            <ns3:cad>49</ns3:cad>
          </ns3:TrackPointExtension>
        </extensions>
      </trkpt>
      <trkpt lat="43.77368506975471973419189453125" lon="1.5713666193187236785888671875">
        <ele>158.600006103515625</ele>
        <time>2026-08-13T09:26:09.000Z</time>
        <extensions>
          <ns3:TrackPointExtension>
            <ns3:hr>86</ns3:hr>
            <ns3:cad>49</ns3:cad>
          </ns3:TrackPointExtension>
        </extensions>
      </trkpt>
      <trkpt lat="43.773674927651882171630859375" lon="1.57137659378349781036376953125">
        <ele>158.600006103515625</ele>
        <time>2026-08-13T09:26:10.000Z</time>
        <extensions>
          <ns3:TrackPointExtension>
            <ns3:hr>86</ns3:hr>
            <ns3:cad>49</ns3:cad>
          </ns3:TrackPointExtension>
        </extensions>
      </trkpt>
      <trkpt lat="43.77366662956774234771728515625" lon="1.5713823772966861724853515625">
        <ele>158.600006103515625</ele>
        <time>2026-08-13T09:26:11.000Z</time>
        <extensions>
          <ns3:TrackPointExtension>
            <ns3:hr>85</ns3:hr>
            <ns3:cad>45</ns3:cad>
          </ns3:TrackPointExtension>
        </extensions>
      </trkpt>
      <trkpt lat="43.7736579962074756622314453125" lon="1.5713890828192234039306640625">
        <ele>158.600006103515625</ele>
        <time>2026-08-13T09:26:12.000Z</time>
        <extensions>
          <ns3:TrackPointExtension>
            <ns3:hr>85</ns3:hr>
            <ns3:cad>45</ns3:cad>
          </ns3:TrackPointExtension>
        </extensions>
      </trkpt>
      <trkpt lat="43.77365137450397014617919921875" lon="1.5713931061327457427978515625">
        <ele>158.600006103515625</ele>
        <time>2026-08-13T09:26:13.000Z</time>
        <extensions>
          <ns3:TrackPointExtension>
            <ns3:hr>84</ns3:hr>
            <ns3:cad>45</ns3:cad>
          </ns3:TrackPointExtension>
        </extensions>
      </trkpt>
      <trkpt lat="43.77364098094403743743896484375" lon="1.57139939256012439727783203125">
        <ele>158.600006103515625</ele>
        <time>2026-08-13T09:26:14.000Z</time>
        <extensions>
          <ns3:TrackPointExtension>
            <ns3:hr>84</ns3:hr>
            <ns3:cad>45</ns3:cad>
          </ns3:TrackPointExtension>
        </extensions>
      </trkpt>
      <trkpt lat="43.77362958155572414398193359375" lon="1.5714051760733127593994140625">
        <ele>158.600006103515625</ele>
        <time>2026-08-13T09:26:15.000Z</time>
        <extensions>
          <ns3:TrackPointExtension>
            <ns3:hr>84</ns3:hr>
            <ns3:cad>46</ns3:cad>
          </ns3:TrackPointExtension>
        </extensions>
      </trkpt>
      <trkpt lat="43.77361902035772800445556640625" lon="1.5714098699390888214111328125">
        <ele>158.600006103515625</ele>
        <time>2026-08-13T09:26:16.000Z</time>
        <extensions>
          <ns3:TrackPointExtension>
            <ns3:hr>84</ns3:hr>
            <ns3:cad>46</ns3:cad>
          </ns3:TrackPointExtension>
        </extensions>
      </trkpt>
      <trkpt lat="43.773611895740032196044921875" lon="1.5714110434055328369140625">
        <ele>158.600006103515625</ele>
        <time>2026-08-13T09:26:17.000Z</time>
        <extensions>
          <ns3:TrackPointExtension>
            <ns3:hr>83</ns3:hr>
            <ns3:cad>46</ns3:cad>
          </ns3:TrackPointExtension>
        </extensions>
      </trkpt>
      <trkpt lat="43.77360619604587554931640625" lon="1.5714216046035289764404296875">
        <ele>158.8000030517578125</ele>
        <time>2026-08-13T09:26:18.000Z</time>
        <extensions>
          <ns3:TrackPointExtension>
            <ns3:hr>83</ns3:hr>
            <ns3:cad>46</ns3:cad>
          </ns3:TrackPointExtension>
        </extensions>
      </trkpt>
      <trkpt lat="43.773593790829181671142578125" lon="1.57143761403858661651611328125">
        <ele>158.8000030517578125</ele>
        <time>2026-08-13T09:26:19.000Z</time>
        <extensions>
          <ns3:TrackPointExtension>
            <ns3:hr>82</ns3:hr>
            <ns3:cad>46</ns3:cad>
          </ns3:TrackPointExtension>
        </extensions>
      </trkpt>
      <trkpt lat="43.7735822238028049468994140625" lon="1.5714474208652973175048828125">
        <ele>158.8000030517578125</ele>
        <time>2026-08-13T09:26:20.000Z</time>
        <extensions>
          <ns3:TrackPointExtension>
            <ns3:hr>81</ns3:hr>
            <ns3:cad>46</ns3:cad>
          </ns3:TrackPointExtension>
        </extensions>
      </trkpt>
      <trkpt lat="43.77357359044253826141357421875" lon="1.57145471312105655670166015625">
        <ele>158.8000030517578125</ele>
        <time>2026-08-13T09:26:21.000Z</time>
        <extensions>
          <ns3:TrackPointExtension>
            <ns3:hr>81</ns3:hr>
            <ns3:cad>46</ns3:cad>
          </ns3:TrackPointExtension>
        </extensions>
      </trkpt>
      <trkpt lat="43.77356587909162044525146484375" lon="1.5714628435671329498291015625">
        <ele>158.8000030517578125</ele>
        <time>2026-08-13T09:26:22.000Z</time>
        <extensions>
          <ns3:TrackPointExtension>
            <ns3:hr>80</ns3:hr>
            <ns3:cad>46</ns3:cad>
          </ns3:TrackPointExtension>
        </extensions>
      </trkpt>
      <trkpt lat="43.77355162985622882843017578125" lon="1.5714769251644611358642578125">
        <ele>158.8000030517578125</ele>
        <time>2026-08-13T09:26:23.000Z</time>
        <extensions>
          <ns3:TrackPointExtension>
            <ns3:hr>79</ns3:hr>
            <ns3:cad>45</ns3:cad>
          </ns3:TrackPointExtension>
        </extensions>
      </trkpt>
      <trkpt lat="43.77354182302951812744140625" lon="1.57148522324860095977783203125">
        <ele>158.8000030517578125</ele>
        <time>2026-08-13T09:26:24.000Z</time>
        <extensions>
          <ns3:TrackPointExtension>
            <ns3:hr>79</ns3:hr>
            <ns3:cad>46</ns3:cad>
          </ns3:TrackPointExtension>
        </extensions>
      </trkpt>
      <trkpt lat="43.77353168092668056488037109375" lon="1.57148891128599643707275390625">
        <ele>158.8000030517578125</ele>
        <time>2026-08-13T09:26:25.000Z</time>
        <extensions>
          <ns3:TrackPointExtension>
            <ns3:hr>79</ns3:hr>
            <ns3:cad>46</ns3:cad>
          </ns3:TrackPointExtension>
        </extensions>
      </trkpt>
      <trkpt lat="43.7735262326896190643310546875" lon="1.571495197713375091552734375">
        <ele>158.8000030517578125</ele>
        <time>2026-08-13T09:26:26.000Z</time>
        <extensions>
          <ns3:TrackPointExtension>
            <ns3:hr>79</ns3:hr>
            <ns3:cad>46</ns3:cad>
          </ns3:TrackPointExtension>
        </extensions>
      </trkpt>
      <trkpt lat="43.77351542003452777862548828125" lon="1.571503579616546630859375">
        <ele>158.8000030517578125</ele>
        <time>2026-08-13T09:26:27.000Z</time>
        <extensions>
          <ns3:TrackPointExtension>
            <ns3:hr>79</ns3:hr>
            <ns3:cad>47</ns3:cad>
          </ns3:TrackPointExtension>
        </extensions>
      </trkpt>
      <trkpt lat="43.77350569702684879302978515625" lon="1.57151590101420879364013671875">
        <ele>158.8000030517578125</ele>
        <time>2026-08-13T09:26:28.000Z</time>
        <extensions>
          <ns3:TrackPointExtension>
            <ns3:hr>79</ns3:hr>
            <ns3:cad>47</ns3:cad>
          </ns3:TrackPointExtension>
        </extensions>
      </trkpt>
      <trkpt lat="43.7734987400472164154052734375" lon="1.57152327708899974822998046875">
        <ele>158.8000030517578125</ele>
        <time>2026-08-13T09:26:29.000Z</time>
        <extensions>
          <ns3:TrackPointExtension>
            <ns3:hr>79</ns3:hr>
            <ns3:cad>46</ns3:cad>
          </ns3:TrackPointExtension>
        </extensions>
      </trkpt>
      <trkpt lat="43.77349262125790119171142578125" lon="1.57152428291738033294677734375">
        <ele>158.8000030517578125</ele>
        <time>2026-08-13T09:26:30.000Z</time>
        <extensions>
          <ns3:TrackPointExtension>
            <ns3:hr>79</ns3:hr>
            <ns3:cad>46</ns3:cad>
          </ns3:TrackPointExtension>
        </extensions>
      </trkpt>
      <trkpt lat="43.77348222769796848297119140625" lon="1.5715322457253932952880859375">
        <ele>158.8000030517578125</ele>
        <time>2026-08-13T09:26:31.000Z</time>
        <extensions>
          <ns3:TrackPointExtension>
            <ns3:hr>79</ns3:hr>
            <ns3:cad>46</ns3:cad>
          </ns3:TrackPointExtension>
        </extensions>
      </trkpt>
      <trkpt lat="43.7734739296138286590576171875" lon="1.57154674641788005828857421875">
        <ele>158.8000030517578125</ele>
        <time>2026-08-13T09:26:32.000Z</time>
        <extensions>
          <ns3:TrackPointExtension>
            <ns3:hr>79</ns3:hr>
            <ns3:cad>46</ns3:cad>
          </ns3:TrackPointExtension>
        </extensions>
      </trkpt>
      <trkpt lat="43.7734672240912914276123046875" lon="1.5715547092258930206298828125">
        <ele>158.8000030517578125</ele>
        <time>2026-08-13T09:26:33.000Z</time>
        <extensions>
          <ns3:TrackPointExtension>
            <ns3:hr>79</ns3:hr>
            <ns3:cad>46</ns3:cad>
          </ns3:TrackPointExtension>
        </extensions>
      </trkpt>
      <trkpt lat="43.77346429042518138885498046875" lon="1.5715553797781467437744140625">
        <ele>158.8000030517578125</ele>
        <time>2026-08-13T09:26:34.000Z</time>
        <extensions>
          <ns3:TrackPointExtension>
            <ns3:hr>79</ns3:hr>
            <ns3:cad>46</ns3:cad>
          </ns3:TrackPointExtension>
        </extensions>
      </trkpt>
      <trkpt lat="43.77345741726458072662353515625" lon="1.57155881635844707489013671875">
        <ele>158.8000030517578125</ele>
        <time>2026-08-13T09:26:35.000Z</time>
        <extensions>
          <ns3:TrackPointExtension>
            <ns3:hr>79</ns3:hr>
            <ns3:cad>46</ns3:cad>
          </ns3:TrackPointExtension>
        </extensions>
      </trkpt>
      <trkpt lat="43.7734484486281871795654296875" lon="1.57156753353774547576904296875">
        <ele>158.8000030517578125</ele>
        <time>2026-08-13T09:26:36.000Z</time>
        <extensions>
          <ns3:TrackPointExtension>
            <ns3:hr>79</ns3:hr>
            <ns3:cad>46</ns3:cad>
          </ns3:TrackPointExtension>
        </extensions>
      </trkpt>
      <trkpt lat="43.7734400667250156402587890625" lon="1.57157474197447299957275390625">
        <ele>159</ele>
        <time>2026-08-13T09:26:37.000Z</time>
        <extensions>
          <ns3:TrackPointExtension>
            <ns3:hr>79</ns3:hr>
            <ns3:cad>46</ns3:cad>
          </ns3:TrackPointExtension>
        </extensions>
      </trkpt>
      <trkpt lat="43.77343260683119297027587890625" lon="1.5715775080025196075439453125">
        <ele>159</ele>
        <time>2026-08-13T09:26:38.000Z</time>
        <extensions>
          <ns3:TrackPointExtension>
            <ns3:hr>80</ns3:hr>
            <ns3:cad>46</ns3:cad>
          </ns3:TrackPointExtension>
        </extensions>
      </trkpt>
      <trkpt lat="43.77342472784221172332763671875" lon="1.57158463262021541595458984375">
        <ele>159</ele>
        <time>2026-08-13T09:26:39.000Z</time>
        <extensions>
          <ns3:TrackPointExtension>
            <ns3:hr>80</ns3:hr>
            <ns3:cad>46</ns3:cad>
          </ns3:TrackPointExtension>
        </extensions>
      </trkpt>
      <trkpt lat="43.7734142504632472991943359375" lon="1.57159410417079925537109375">
        <ele>159</ele>
        <time>2026-08-13T09:26:40.000Z</time>
        <extensions>
          <ns3:TrackPointExtension>
            <ns3:hr>80</ns3:hr>
            <ns3:cad>46</ns3:cad>
          </ns3:TrackPointExtension>
        </extensions>
      </trkpt>
      <trkpt lat="43.7734045274555683135986328125" lon="1.57160374335944652557373046875">
        <ele>159</ele>
        <time>2026-08-13T09:26:41.000Z</time>
        <extensions>
          <ns3:TrackPointExtension>
            <ns3:hr>80</ns3:hr>
            <ns3:cad>46</ns3:cad>
          </ns3:TrackPointExtension>
        </extensions>
      </trkpt>
      <trkpt lat="43.7733978219330310821533203125" lon="1.57161229290068149566650390625">
        <ele>159</ele>
        <time>2026-08-13T09:26:42.000Z</time>
        <extensions>
          <ns3:TrackPointExtension>
            <ns3:hr>80</ns3:hr>
            <ns3:cad>46</ns3:cad>
          </ns3:TrackPointExtension>
        </extensions>
      </trkpt>
      <trkpt lat="43.7733864225447177886962890625" lon="1.57162084244191646575927734375">
        <ele>159</ele>
        <time>2026-08-13T09:26:43.000Z</time>
        <extensions>
          <ns3:TrackPointExtension>
            <ns3:hr>80</ns3:hr>
            <ns3:cad>45</ns3:cad>
          </ns3:TrackPointExtension>
        </extensions>
      </trkpt>
      <trkpt lat="43.77337242476642131805419921875" lon="1.5716267935931682586669921875">
        <ele>159</ele>
        <time>2026-08-13T09:26:44.000Z</time>
        <extensions>
          <ns3:TrackPointExtension>
            <ns3:hr>80</ns3:hr>
            <ns3:cad>45</ns3:cad>
          </ns3:TrackPointExtension>
        </extensions>
      </trkpt>
      <trkpt lat="43.77336353994905948638916015625" lon="1.57162620685994625091552734375">
        <ele>159</ele>
        <time>2026-08-13T09:26:45.000Z</time>
        <extensions>
          <ns3:TrackPointExtension>
            <ns3:hr>81</ns3:hr>
            <ns3:cad>44</ns3:cad>
          </ns3:TrackPointExtension>
        </extensions>
      </trkpt>
      <trkpt lat="43.77335918135941028594970703125" lon="1.5716283023357391357421875">
        <ele>159</ele>
        <time>2026-08-13T09:26:46.000Z</time>
        <extensions>
          <ns3:TrackPointExtension>
            <ns3:hr>81</ns3:hr>
            <ns3:cad>44</ns3:cad>
          </ns3:TrackPointExtension>
        </extensions>
      </trkpt>
      <trkpt lat="43.7733505479991436004638671875" lon="1.5716365166008472442626953125">
        <ele>159</ele>
        <time>2026-08-13T09:26:47.000Z</time>
        <extensions>
          <ns3:TrackPointExtension>
            <ns3:hr>82</ns3:hr>
            <ns3:cad>46</ns3:cad>
          </ns3:TrackPointExtension>
        </extensions>
      </trkpt>
      <trkpt lat="43.77333529293537139892578125" lon="1.5716502629220485687255859375">
        <ele>159</ele>
        <time>2026-08-13T09:26:48.000Z</time>
        <extensions>
          <ns3:TrackPointExtension>
            <ns3:hr>83</ns3:hr>
            <ns3:cad>46</ns3:cad>
          </ns3:TrackPointExtension>
        </extensions>
      </trkpt>
      <trkpt lat="43.77332397736608982086181640625" lon="1.5716606564819812774658203125">
        <ele>159</ele>
        <time>2026-08-13T09:26:49.000Z</time>
        <extensions>
          <ns3:TrackPointExtension>
            <ns3:hr>83</ns3:hr>
            <ns3:cad>46</ns3:cad>
          </ns3:TrackPointExtension>
        </extensions>
      </trkpt>
      <trkpt lat="43.77331651747226715087890625" lon="1.571667194366455078125">
        <ele>159</ele>
        <time>2026-08-13T09:26:50.000Z</time>
        <extensions>
          <ns3:TrackPointExtension>
            <ns3:hr>83</ns3:hr>
            <ns3:cad>46</ns3:cad>
          </ns3:TrackPointExtension>
        </extensions>
      </trkpt>
      <trkpt lat="43.7733133323490619659423828125" lon="1.57167255878448486328125">
        <ele>159.1999969482421875</ele>
        <time>2026-08-13T09:26:51.000Z</time>
        <extensions>
          <ns3:TrackPointExtension>
            <ns3:hr>83</ns3:hr>
            <ns3:cad>46</ns3:cad>
          </ns3:TrackPointExtension>
        </extensions>
      </trkpt>
      <trkpt lat="43.7733049504458904266357421875" lon="1.57168127596378326416015625">
        <ele>159.1999969482421875</ele>
        <time>2026-08-13T09:26:52.000Z</time>
        <extensions>
          <ns3:TrackPointExtension>
            <ns3:hr>84</ns3:hr>
            <ns3:cad>46</ns3:cad>
          </ns3:TrackPointExtension>
        </extensions>
      </trkpt>
      <trkpt lat="43.7732958979904651641845703125" lon="1.57169141806662082672119140625">
        <ele>159.1999969482421875</ele>
        <time>2026-08-13T09:26:53.000Z</time>
        <extensions>
          <ns3:TrackPointExtension>
            <ns3:hr>83</ns3:hr>
            <ns3:cad>46</ns3:cad>
          </ns3:TrackPointExtension>
        </extensions>
      </trkpt>
      <trkpt lat="43.77328759990632534027099609375" lon="1.5716988779604434967041015625">
        <ele>159.1999969482421875</ele>
        <time>2026-08-13T09:26:54.000Z</time>
        <extensions>
          <ns3:TrackPointExtension>
            <ns3:hr>83</ns3:hr>
            <ns3:cad>46</ns3:cad>
          </ns3:TrackPointExtension>
        </extensions>
      </trkpt>
      <trkpt lat="43.7732828222215175628662109375" lon="1.57170382328331470489501953125">
        <ele>159.1999969482421875</ele>
        <time>2026-08-13T09:26:55.000Z</time>
        <extensions>
          <ns3:TrackPointExtension>
            <ns3:hr>84</ns3:hr>
            <ns3:cad>46</ns3:cad>
          </ns3:TrackPointExtension>
        </extensions>
      </trkpt>
      <trkpt lat="43.773273937404155731201171875" lon="1.57171488739550113677978515625">
        <ele>159.1999969482421875</ele>
        <time>2026-08-13T09:26:56.000Z</time>
        <extensions>
          <ns3:TrackPointExtension>
            <ns3:hr>83</ns3:hr>
            <ns3:cad>46</ns3:cad>
          </ns3:TrackPointExtension>
        </extensions>
      </trkpt>
      <trkpt lat="43.773263879120349884033203125" lon="1.5717287175357341766357421875">
        <ele>159.1999969482421875</ele>
        <time>2026-08-13T09:26:57.000Z</time>
        <extensions>
          <ns3:TrackPointExtension>
            <ns3:hr>83</ns3:hr>
            <ns3:cad>46</ns3:cad>
          </ns3:TrackPointExtension>
        </extensions>
      </trkpt>
      <trkpt lat="43.77325675450265407562255859375" lon="1.5717394463717937469482421875">
        <ele>159.1999969482421875</ele>
        <time>2026-08-13T09:26:58.000Z</time>
        <extensions>
          <ns3:TrackPointExtension>
            <ns3:hr>84</ns3:hr>
            <ns3:cad>46</ns3:cad>
          </ns3:TrackPointExtension>
        </extensions>
      </trkpt>
      <trkpt lat="43.7732533179223537445068359375" lon="1.571747995913028717041015625">
        <ele>159.1999969482421875</ele>
        <time>2026-08-13T09:26:59.000Z</time>
        <extensions>
          <ns3:TrackPointExtension>
            <ns3:hr>83</ns3:hr>
            <ns3:cad>46</ns3:cad>
          </ns3:TrackPointExtension>
        </extensions>
      </trkpt>
      <trkpt lat="43.7732446007430553436279296875" lon="1.57175897620618343353271484375">
        <ele>159.1999969482421875</ele>
        <time>2026-08-13T09:27:00.000Z</time>
        <extensions>
          <ns3:TrackPointExtension>
            <ns3:hr>83</ns3:hr>
            <ns3:cad>46</ns3:cad>
          </ns3:TrackPointExtension>
        </extensions>
      </trkpt>
      <trkpt lat="43.7732348777353763580322265625" lon="1.5717709623277187347412109375">
        <ele>159.1999969482421875</ele>
        <time>2026-08-13T09:27:01.000Z</time>
        <extensions>
          <ns3:TrackPointExtension>
            <ns3:hr>82</ns3:hr>
            <ns3:cad>44</ns3:cad>
          </ns3:TrackPointExtension>
        </extensions>
      </trkpt>
      <trkpt lat="43.773226998746395111083984375" lon="1.57177607528865337371826171875">
        <ele>159.1999969482421875</ele>
        <time>2026-08-13T09:27:02.000Z</time>
        <extensions>
          <ns3:TrackPointExtension>
            <ns3:hr>81</ns3:hr>
            <ns3:cad>44</ns3:cad>
          </ns3:TrackPointExtension>
        </extensions>
      </trkpt>
      <trkpt lat="43.77322087995707988739013671875" lon="1.5717830322682857513427734375">
        <ele>159.1999969482421875</ele>
        <time>2026-08-13T09:27:03.000Z</time>
        <extensions>
          <ns3:TrackPointExtension>
            <ns3:hr>81</ns3:hr>
            <ns3:cad>44</ns3:cad>
          </ns3:TrackPointExtension>
        </extensions>
      </trkpt>
      <trkpt lat="43.77320663072168827056884765625" lon="1.5717957727611064910888671875">
        <ele>159.1999969482421875</ele>
        <time>2026-08-13T09:27:04.000Z</time>
        <extensions>
          <ns3:TrackPointExtension>
            <ns3:hr>80</ns3:hr>
            <ns3:cad>44</ns3:cad>
          </ns3:TrackPointExtension>
        </extensions>
      </trkpt>
      <trkpt lat="43.7731959857046604156494140625" lon="1.57180792652070522308349609375">
        <ele>159.1999969482421875</ele>
        <time>2026-08-13T09:27:05.000Z</time>
        <extensions>
          <ns3:TrackPointExtension>
            <ns3:hr>79</ns3:hr>
            <ns3:cad>44</ns3:cad>
          </ns3:TrackPointExtension>
        </extensions>
      </trkpt>
      <trkpt lat="43.77318802289664745330810546875" lon="1.57181136310100555419921875">
        <ele>159.1999969482421875</ele>
        <time>2026-08-13T09:27:06.000Z</time>
        <extensions>
          <ns3:TrackPointExtension>
            <ns3:hr>80</ns3:hr>
            <ns3:cad>45</ns3:cad>
          </ns3:TrackPointExtension>
        </extensions>
      </trkpt>
      <trkpt lat="43.77318332903087139129638671875" lon="1.5718142129480838775634765625">
        <ele>159.1999969482421875</ele>
        <time>2026-08-13T09:27:07.000Z</time>
        <extensions>
          <ns3:TrackPointExtension>
            <ns3:hr>79</ns3:hr>
            <ns3:cad>45</ns3:cad>
          </ns3:TrackPointExtension>
        </extensions>
      </trkpt>
      <trkpt lat="43.7731741927564144134521484375" lon="1.571821756660938262939453125">
        <ele>159.1999969482421875</ele>
        <time>2026-08-13T09:27:08.000Z</time>
        <extensions>
          <ns3:TrackPointExtension>
            <ns3:hr>79</ns3:hr>
            <ns3:cad>45</ns3:cad>
          </ns3:TrackPointExtension>
        </extensions>
      </trkpt>
      <trkpt lat="43.773163296282291412353515625" lon="1.57183055765926837921142578125">
        <ele>159.1999969482421875</ele>
        <time>2026-08-13T09:27:09.000Z</time>
        <extensions>
          <ns3:TrackPointExtension>
            <ns3:hr>79</ns3:hr>
            <ns3:cad>46</ns3:cad>
          </ns3:TrackPointExtension>
        </extensions>
      </trkpt>
      <trkpt lat="43.77315533347427845001220703125" lon="1.571834497153759002685546875">
        <ele>159.399993896484375</ele>
        <time>2026-08-13T09:27:10.000Z</time>
        <extensions>
          <ns3:TrackPointExtension>
            <ns3:hr>79</ns3:hr>
            <ns3:cad>46</ns3:cad>
          </ns3:TrackPointExtension>
        </extensions>
      </trkpt>
      <trkpt lat="43.7731507234275341033935546875" lon="1.5718348324298858642578125">
        <ele>159.399993896484375</ele>
        <time>2026-08-13T09:27:11.000Z</time>
        <extensions>
          <ns3:TrackPointExtension>
            <ns3:hr>79</ns3:hr>
            <ns3:cad>46</ns3:cad>
          </ns3:TrackPointExtension>
        </extensions>
      </trkpt>
      <trkpt lat="43.773139826953411102294921875" lon="1.57184313051402568817138671875">
        <ele>159.399993896484375</ele>
        <time>2026-08-13T09:27:12.000Z</time>
        <extensions>
          <ns3:TrackPointExtension>
            <ns3:hr>79</ns3:hr>
            <ns3:cad>45</ns3:cad>
          </ns3:TrackPointExtension>
        </extensions>
      </trkpt>
      <trkpt lat="43.77313018776476383209228515625" lon="1.57185117714107036590576171875">
        <ele>159.399993896484375</ele>
        <time>2026-08-13T09:27:13.000Z</time>
        <extensions>
          <ns3:TrackPointExtension>
            <ns3:hr>80</ns3:hr>
            <ns3:cad>45</ns3:cad>
          </ns3:TrackPointExtension>
        </extensions>
      </trkpt>
      <trkpt lat="43.77312264405190944671630859375" lon="1.5718581341207027435302734375">
        <ele>159.399993896484375</ele>
        <time>2026-08-13T09:27:14.000Z</time>
        <extensions>
          <ns3:TrackPointExtension>
            <ns3:hr>79</ns3:hr>
            <ns3:cad>45</ns3:cad>
          </ns3:TrackPointExtension>
        </extensions>
      </trkpt>
      <trkpt lat="43.77311962656676769256591796875" lon="1.57185805030167102813720703125">
        <ele>159.399993896484375</ele>
        <time>2026-08-13T09:27:15.000Z</time>
        <extensions>
          <ns3:TrackPointExtension>
            <ns3:hr>79</ns3:hr>
            <ns3:cad>46</ns3:cad>
          </ns3:TrackPointExtension>
        </extensions>
      </trkpt>
      <trkpt lat="43.77311132848262786865234375" lon="1.5718641690909862518310546875">
        <ele>159.399993896484375</ele>
        <time>2026-08-13T09:27:16.000Z</time>
        <extensions>
          <ns3:TrackPointExtension>
            <ns3:hr>80</ns3:hr>
            <ns3:cad>46</ns3:cad>
          </ns3:TrackPointExtension>
        </extensions>
      </trkpt>
      <trkpt lat="43.773097582161426544189453125" lon="1.57187179662287235260009765625">
        <ele>159.399993896484375</ele>
        <time>2026-08-13T09:27:17.000Z</time>
        <extensions>
          <ns3:TrackPointExtension>
            <ns3:hr>79</ns3:hr>
            <ns3:cad>46</ns3:cad>
          </ns3:TrackPointExtension>
        </extensions>
      </trkpt>
      <trkpt lat="43.77308760769665241241455078125" lon="1.57187766395509243011474609375">
        <ele>159.399993896484375</ele>
        <time>2026-08-13T09:27:18.000Z</time>
        <extensions>
          <ns3:TrackPointExtension>
            <ns3:hr>79</ns3:hr>
            <ns3:cad>46</ns3:cad>
          </ns3:TrackPointExtension>
        </extensions>
      </trkpt>
      <trkpt lat="43.7730853445827960968017578125" lon="1.57188721932470798492431640625">
        <ele>159.399993896484375</ele>
        <time>2026-08-13T09:27:19.000Z</time>
        <extensions>
          <ns3:TrackPointExtension>
            <ns3:hr>80</ns3:hr>
            <ns3:cad>46</ns3:cad>
          </ns3:TrackPointExtension>
        </extensions>
      </trkpt>
      <trkpt lat="43.7730776332318782806396484375" lon="1.57189610414206981658935546875">
        <ele>159.399993896484375</ele>
        <time>2026-08-13T09:27:20.000Z</time>
        <extensions>
          <ns3:TrackPointExtension>
            <ns3:hr>80</ns3:hr>
            <ns3:cad>46</ns3:cad>
          </ns3:TrackPointExtension>
        </extensions>
      </trkpt>
      <trkpt lat="43.7730652280151844024658203125" lon="1.571908928453922271728515625">
        <ele>159.399993896484375</ele>
        <time>2026-08-13T09:27:21.000Z</time>
        <extensions>
          <ns3:TrackPointExtension>
            <ns3:hr>80</ns3:hr>
            <ns3:cad>46</ns3:cad>
          </ns3:TrackPointExtension>
        </extensions>
      </trkpt>
      <trkpt lat="43.77305625937879085540771484375" lon="1.5719178132712841033935546875">
        <ele>159.399993896484375</ele>
        <time>2026-08-13T09:27:22.000Z</time>
        <extensions>
          <ns3:TrackPointExtension>
            <ns3:hr>79</ns3:hr>
            <ns3:cad>46</ns3:cad>
          </ns3:TrackPointExtension>
        </extensions>
      </trkpt>
      <trkpt lat="43.77304569818079471588134765625" lon="1.57192443497478961944580078125">
        <ele>159.399993896484375</ele>
        <time>2026-08-13T09:27:23.000Z</time>
        <extensions>
          <ns3:TrackPointExtension>
            <ns3:hr>80</ns3:hr>
            <ns3:cad>45</ns3:cad>
          </ns3:TrackPointExtension>
        </extensions>
      </trkpt>
      <trkpt lat="43.773038573563098907470703125" lon="1.571925021708011627197265625">
        <ele>159.399993896484375</ele>
        <time>2026-08-13T09:27:24.000Z</time>
        <extensions>
          <ns3:TrackPointExtension>
            <ns3:hr>80</ns3:hr>
            <ns3:cad>45</ns3:cad>
          </ns3:TrackPointExtension>
        </extensions>
      </trkpt>
      <trkpt lat="43.77302289940416812896728515625" lon="1.571932733058929443359375">
        <ele>159.399993896484375</ele>
        <time>2026-08-13T09:27:25.000Z</time>
        <extensions>
          <ns3:TrackPointExtension>
            <ns3:hr>79</ns3:hr>
            <ns3:cad>46</ns3:cad>
          </ns3:TrackPointExtension>
        </extensions>
      </trkpt>
      <trkpt lat="43.773015774786472320556640625" lon="1.57194119878113269805908203125">
        <ele>159.600006103515625</ele>
        <time>2026-08-13T09:27:26.000Z</time>
        <extensions>
          <ns3:TrackPointExtension>
            <ns3:hr>80</ns3:hr>
            <ns3:cad>46</ns3:cad>
          </ns3:TrackPointExtension>
        </extensions>
      </trkpt>
      <trkpt lat="43.77300865016877651214599609375" lon="1.5719483233988285064697265625">
        <ele>159.600006103515625</ele>
        <time>2026-08-13T09:27:27.000Z</time>
        <extensions>
          <ns3:TrackPointExtension>
            <ns3:hr>80</ns3:hr>
            <ns3:cad>46</ns3:cad>
          </ns3:TrackPointExtension>
        </extensions>
      </trkpt>
      <trkpt lat="43.77300496213138103485107421875" lon="1.5719499997794628143310546875">
        <ele>159.600006103515625</ele>
        <time>2026-08-13T09:27:28.000Z</time>
        <extensions>
          <ns3:TrackPointExtension>
            <ns3:hr>79</ns3:hr>
            <ns3:cad>46</ns3:cad>
          </ns3:TrackPointExtension>
        </extensions>
      </trkpt>
      <trkpt lat="43.7729934789240360260009765625" lon="1.57195930369198322296142578125">
        <ele>159.600006103515625</ele>
        <time>2026-08-13T09:27:29.000Z</time>
        <extensions>
          <ns3:TrackPointExtension>
            <ns3:hr>80</ns3:hr>
            <ns3:cad>46</ns3:cad>
          </ns3:TrackPointExtension>
        </extensions>
      </trkpt>
      <trkpt lat="43.77298233099281787872314453125" lon="1.57196802087128162384033203125">
        <ele>159.600006103515625</ele>
        <time>2026-08-13T09:27:30.000Z</time>
        <extensions>
          <ns3:TrackPointExtension>
            <ns3:hr>79</ns3:hr>
            <ns3:cad>46</ns3:cad>
          </ns3:TrackPointExtension>
        </extensions>
      </trkpt>
      <trkpt lat="43.77297663129866123199462890625" lon="1.5719741396605968475341796875">
        <ele>159.600006103515625</ele>
        <time>2026-08-13T09:27:31.000Z</time>
        <extensions>
          <ns3:TrackPointExtension>
            <ns3:hr>80</ns3:hr>
            <ns3:cad>46</ns3:cad>
          </ns3:TrackPointExtension>
        </extensions>
      </trkpt>
      <trkpt lat="43.77297176979482173919677734375" lon="1.5719791688024997711181640625">
        <ele>159.600006103515625</ele>
        <time>2026-08-13T09:27:32.000Z</time>
        <extensions>
          <ns3:TrackPointExtension>
            <ns3:hr>80</ns3:hr>
            <ns3:cad>46</ns3:cad>
          </ns3:TrackPointExtension>
        </extensions>
      </trkpt>
      <trkpt lat="43.77295668236911296844482421875" lon="1.57198562286794185638427734375">
        <ele>159.600006103515625</ele>
        <time>2026-08-13T09:27:33.000Z</time>
        <extensions>
          <ns3:TrackPointExtension>
            <ns3:hr>80</ns3:hr>
            <ns3:cad>46</ns3:cad>
          </ns3:TrackPointExtension>
        </extensions>
      </trkpt>
      <trkpt lat="43.77294327132403850555419921875" lon="1.5719955973327159881591796875">
        <ele>159.600006103515625</ele>
        <time>2026-08-13T09:27:34.000Z</time>
        <extensions>
          <ns3:TrackPointExtension>
            <ns3:hr>80</ns3:hr>
            <ns3:cad>46</ns3:cad>
          </ns3:TrackPointExtension>
        </extensions>
      </trkpt>
      <trkpt lat="43.77293505705893039703369140625" lon="1.57200557179749011993408203125">
        <ele>159.600006103515625</ele>
        <time>2026-08-13T09:27:35.000Z</time>
        <extensions>
          <ns3:TrackPointExtension>
            <ns3:hr>79</ns3:hr>
            <ns3:cad>46</ns3:cad>
          </ns3:TrackPointExtension>
        </extensions>
      </trkpt>
      <trkpt lat="43.77293036319315433502197265625" lon="1.57200942747294902801513671875">
        <ele>159.600006103515625</ele>
        <time>2026-08-13T09:27:36.000Z</time>
        <extensions>
          <ns3:TrackPointExtension>
            <ns3:hr>79</ns3:hr>
            <ns3:cad>46</ns3:cad>
          </ns3:TrackPointExtension>
        </extensions>
      </trkpt>
      <trkpt lat="43.7729202210903167724609375" lon="1.57201923429965972900390625">
        <ele>159.600006103515625</ele>
        <time>2026-08-13T09:27:37.000Z</time>
        <extensions>
          <ns3:TrackPointExtension>
            <ns3:hr>79</ns3:hr>
            <ns3:cad>46</ns3:cad>
          </ns3:TrackPointExtension>
        </extensions>
      </trkpt>
      <trkpt lat="43.772911168634891510009765625" lon="1.57202820293605327606201171875">
        <ele>159.600006103515625</ele>
        <time>2026-08-13T09:27:38.000Z</time>
        <extensions>
          <ns3:TrackPointExtension>
            <ns3:hr>78</ns3:hr>
            <ns3:cad>46</ns3:cad>
          </ns3:TrackPointExtension>
        </extensions>
      </trkpt>
      <trkpt lat="43.7729016132652759552001953125" lon="1.5720328129827976226806640625">
        <ele>159.600006103515625</ele>
        <time>2026-08-13T09:27:39.000Z</time>
        <extensions>
          <ns3:TrackPointExtension>
            <ns3:hr>78</ns3:hr>
            <ns3:cad>44</ns3:cad>
          </ns3:TrackPointExtension>
        </extensions>
      </trkpt>
      <trkpt lat="43.77289683558046817779541015625" lon="1.5720375068485736846923828125">
        <ele>159.8000030517578125</ele>
        <time>2026-08-13T09:27:40.000Z</time>
        <extensions>
          <ns3:TrackPointExtension>
            <ns3:hr>79</ns3:hr>
            <ns3:cad>44</ns3:cad>
          </ns3:TrackPointExtension>
        </extensions>
      </trkpt>
      <trkpt lat="43.77288443036377429962158203125" lon="1.57205552794039249420166015625">
        <ele>159.8000030517578125</ele>
        <time>2026-08-13T09:27:41.000Z</time>
        <extensions>
          <ns3:TrackPointExtension>
            <ns3:hr>79</ns3:hr>
            <ns3:cad>45</ns3:cad>
          </ns3:TrackPointExtension>
        </extensions>
      </trkpt>
      <trkpt lat="43.7728734500706195831298828125" lon="1.5720643289387226104736328125">
        <ele>159.8000030517578125</ele>
        <time>2026-08-13T09:27:42.000Z</time>
        <extensions>
          <ns3:TrackPointExtension>
            <ns3:hr>79</ns3:hr>
            <ns3:cad>45</ns3:cad>
          </ns3:TrackPointExtension>
        </extensions>
      </trkpt>
      <trkpt lat="43.7728633917868137359619140625" lon="1.5720693580806255340576171875">
        <ele>159.8000030517578125</ele>
        <time>2026-08-13T09:27:43.000Z</time>
        <extensions>
          <ns3:TrackPointExtension>
            <ns3:hr>79</ns3:hr>
            <ns3:cad>44</ns3:cad>
          </ns3:TrackPointExtension>
        </extensions>
      </trkpt>
      <trkpt lat="43.77285576425492763519287109375" lon="1.572075225412845611572265625">
        <ele>159.8000030517578125</ele>
        <time>2026-08-13T09:27:44.000Z</time>
        <extensions>
          <ns3:TrackPointExtension>
            <ns3:hr>79</ns3:hr>
            <ns3:cad>43</ns3:cad>
          </ns3:TrackPointExtension>
        </extensions>
      </trkpt>
      <trkpt lat="43.7728478014469146728515625" lon="1.572074554860591888427734375">
        <ele>159.8000030517578125</ele>
        <time>2026-08-13T09:27:45.000Z</time>
        <extensions>
          <ns3:TrackPointExtension>
            <ns3:hr>80</ns3:hr>
            <ns3:cad>43</ns3:cad>
          </ns3:TrackPointExtension>
        </extensions>
      </trkpt>
      <trkpt lat="43.77283908426761627197265625" lon="1.5720767341554164886474609375">
        <ele>159.8000030517578125</ele>
        <time>2026-08-13T09:27:46.000Z</time>
        <extensions>
          <ns3:TrackPointExtension>
            <ns3:hr>79</ns3:hr>
            <ns3:cad>0</ns3:cad>
          </ns3:TrackPointExtension>
        </extensions>
      </trkpt>
      <trkpt lat="43.77283028326928615570068359375" lon="1.57208737917244434356689453125">
        <ele>159.8000030517578125</ele>
        <time>2026-08-13T09:27:47.000Z</time>
        <extensions>
          <ns3:TrackPointExtension>
            <ns3:hr>79</ns3:hr>
            <ns3:cad>0</ns3:cad>
          </ns3:TrackPointExtension>
        </extensions>
      </trkpt>
      <trkpt lat="43.77282525412738323211669921875" lon="1.5721032209694385528564453125">
        <ele>159.8000030517578125</ele>
        <time>2026-08-13T09:27:48.000Z</time>
        <extensions>
          <ns3:TrackPointExtension>
            <ns3:hr>80</ns3:hr>
            <ns3:cad>0</ns3:cad>
          </ns3:TrackPointExtension>
        </extensions>
      </trkpt>
      <trkpt lat="43.77281896770000457763671875" lon="1.5721116028726100921630859375">
        <ele>159.8000030517578125</ele>
        <time>2026-08-13T09:27:49.000Z</time>
        <extensions>
          <ns3:TrackPointExtension>
            <ns3:hr>79</ns3:hr>
            <ns3:cad>0</ns3:cad>
          </ns3:TrackPointExtension>
        </extensions>
      </trkpt>
      <trkpt lat="43.7728134356439113616943359375" lon="1.57212174497544765472412109375">
        <ele>159.8000030517578125</ele>
        <time>2026-08-13T09:27:50.000Z</time>
        <extensions>
          <ns3:TrackPointExtension>
            <ns3:hr>79</ns3:hr>
            <ns3:cad>0</ns3:cad>
          </ns3:TrackPointExtension>
        </extensions>
      </trkpt>
      <trkpt lat="43.7728047184646129608154296875" lon="1.57213591039180755615234375">
        <ele>159.8000030517578125</ele>
        <time>2026-08-13T09:27:51.000Z</time>
        <extensions>
          <ns3:TrackPointExtension>
            <ns3:hr>80</ns3:hr>
            <ns3:cad>0</ns3:cad>
          </ns3:TrackPointExtension>
        </extensions>
      </trkpt>
      <trkpt lat="43.772797174751758575439453125" lon="1.57214605249464511871337890625">
        <ele>159.8000030517578125</ele>
        <time>2026-08-13T09:27:52.000Z</time>
        <extensions>
          <ns3:TrackPointExtension>
            <ns3:hr>79</ns3:hr>
            <ns3:cad>0</ns3:cad>
          </ns3:TrackPointExtension>
        </extensions>
      </trkpt>
      <trkpt lat="43.7727846018970012664794921875" lon="1.57215225510299205780029296875">
        <ele>159.8000030517578125</ele>
        <time>2026-08-13T09:27:53.000Z</time>
        <extensions>
          <ns3:TrackPointExtension>
            <ns3:hr>79</ns3:hr>
            <ns3:cad>0</ns3:cad>
          </ns3:TrackPointExtension>
        </extensions>
      </trkpt>
      <trkpt lat="43.77277798019349575042724609375" lon="1.57216164283454418182373046875">
        <ele>159.8000030517578125</ele>
        <time>2026-08-13T09:27:54.000Z</time>
        <extensions>
          <ns3:TrackPointExtension>
            <ns3:hr>80</ns3:hr>
            <ns3:cad>0</ns3:cad>
          </ns3:TrackPointExtension>
        </extensions>
      </trkpt>
      <trkpt lat="43.7727668322622776031494140625" lon="1.57217153348028659820556640625">
        <ele>159.8000030517578125</ele>
        <time>2026-08-13T09:27:55.000Z</time>
        <extensions>
          <ns3:TrackPointExtension>
            <ns3:hr>80</ns3:hr>
            <ns3:cad>0</ns3:cad>
          </ns3:TrackPointExtension>
        </extensions>
      </trkpt>
      <trkpt lat="43.77275518141686916351318359375" lon="1.5721836872398853302001953125">
        <ele>159.8000030517578125</ele>
        <time>2026-08-13T09:27:56.000Z</time>
        <extensions>
          <ns3:TrackPointExtension>
            <ns3:hr>80</ns3:hr>
            <ns3:cad>0</ns3:cad>
          </ns3:TrackPointExtension>
        </extensions>
      </trkpt>
      <trkpt lat="43.77274814061820507049560546875" lon="1.57219550572335720062255859375">
        <ele>159.8000030517578125</ele>
        <time>2026-08-13T09:27:57.000Z</time>
        <extensions>
          <ns3:TrackPointExtension>
            <ns3:hr>80</ns3:hr>
            <ns3:cad>45</ns3:cad>
          </ns3:TrackPointExtension>
        </extensions>
      </trkpt>
      <trkpt lat="43.7727403454482555389404296875" lon="1.5722061507403850555419921875">
        <ele>159.8000030517578125</ele>
        <time>2026-08-13T09:27:58.000Z</time>
        <extensions>
          <ns3:TrackPointExtension>
            <ns3:hr>80</ns3:hr>
            <ns3:cad>46</ns3:cad>
          </ns3:TrackPointExtension>
        </extensions>
      </trkpt>
      <trkpt lat="43.77273380756378173828125" lon="1.5722148679196834564208984375">
        <ele>159.8000030517578125</ele>
        <time>2026-08-13T09:27:59.000Z</time>
        <extensions>
          <ns3:TrackPointExtension>
            <ns3:hr>80</ns3:hr>
            <ns3:cad>47</ns3:cad>
          </ns3:TrackPointExtension>
        </extensions>
      </trkpt>
      <trkpt lat="43.77272416837513446807861328125" lon="1.5722269378602504730224609375">
        <ele>159.8000030517578125</ele>
        <time>2026-08-13T09:28:00.000Z</time>
        <extensions>
          <ns3:TrackPointExtension>
            <ns3:hr>80</ns3:hr>
            <ns3:cad>47</ns3:cad>
          </ns3:TrackPointExtension>
        </extensions>
      </trkpt>
      <trkpt lat="43.77271436154842376708984375" lon="1.572238504886627197265625">
        <ele>159.8000030517578125</ele>
        <time>2026-08-13T09:28:01.000Z</time>
        <extensions>
          <ns3:TrackPointExtension>
            <ns3:hr>81</ns3:hr>
            <ns3:cad>47</ns3:cad>
          </ns3:TrackPointExtension>
        </extensions>
      </trkpt>
      <trkpt lat="43.772706650197505950927734375" lon="1.57224562950432300567626953125">
        <ele>159.8000030517578125</ele>
        <time>2026-08-13T09:28:02.000Z</time>
        <extensions>
          <ns3:TrackPointExtension>
            <ns3:hr>81</ns3:hr>
            <ns3:cad>47</ns3:cad>
          </ns3:TrackPointExtension>
        </extensions>
      </trkpt>
      <trkpt lat="43.77270220778882503509521484375" lon="1.57225334085524082183837890625">
        <ele>159.8000030517578125</ele>
        <time>2026-08-13T09:28:03.000Z</time>
        <extensions>
          <ns3:TrackPointExtension>
            <ns3:hr>81</ns3:hr>
            <ns3:cad>47</ns3:cad>
          </ns3:TrackPointExtension>
        </extensions>
      </trkpt>
      <trkpt lat="43.77268888056278228759765625" lon="1.572262980043888092041015625">
        <ele>159.8000030517578125</ele>
        <time>2026-08-13T09:28:04.000Z</time>
        <extensions>
          <ns3:TrackPointExtension>
            <ns3:hr>81</ns3:hr>
            <ns3:cad>47</ns3:cad>
          </ns3:TrackPointExtension>
        </extensions>
      </trkpt>
      <trkpt lat="43.77268108539283275604248046875" lon="1.5722695179283618927001953125">
        <ele>160</ele>
        <time>2026-08-13T09:28:05.000Z</time>
        <extensions>
          <ns3:TrackPointExtension>
            <ns3:hr>81</ns3:hr>
            <ns3:cad>47</ns3:cad>
          </ns3:TrackPointExtension>
        </extensions>
      </trkpt>
      <trkpt lat="43.77267370931804180145263671875" lon="1.57227915711700916290283203125">
        <ele>160</ele>
        <time>2026-08-13T09:28:06.000Z</time>
        <extensions>
          <ns3:TrackPointExtension>
            <ns3:hr>81</ns3:hr>
            <ns3:cad>47</ns3:cad>
          </ns3:TrackPointExtension>
        </extensions>
      </trkpt>
      <trkpt lat="43.77266683615744113922119140625" lon="1.5722856111824512481689453125">
        <ele>160</ele>
        <time>2026-08-13T09:28:07.000Z</time>
        <extensions>
          <ns3:TrackPointExtension>
            <ns3:hr>82</ns3:hr>
            <ns3:cad>47</ns3:cad>
          </ns3:TrackPointExtension>
        </extensions>
      </trkpt>
      <trkpt lat="43.7726605497300624847412109375" lon="1.57229240052402019500732421875">
        <ele>160</ele>
        <time>2026-08-13T09:28:08.000Z</time>
        <extensions>
          <ns3:TrackPointExtension>
            <ns3:hr>82</ns3:hr>
            <ns3:cad>47</ns3:cad>
          </ns3:TrackPointExtension>
        </extensions>
      </trkpt>
      <trkpt lat="43.7726478092372417449951171875" lon="1.57230279408395290374755859375">
        <ele>160</ele>
        <time>2026-08-13T09:28:09.000Z</time>
        <extensions>
          <ns3:TrackPointExtension>
            <ns3:hr>82</ns3:hr>
            <ns3:cad>48</ns3:cad>
          </ns3:TrackPointExtension>
        </extensions>
      </trkpt>
      <trkpt lat="43.77263599075376987457275390625" lon="1.5723147802054882049560546875">
        <ele>160</ele>
        <time>2026-08-13T09:28:10.000Z</time>
        <extensions>
          <ns3:TrackPointExtension>
            <ns3:hr>82</ns3:hr>
            <ns3:cad>48</ns3:cad>
          </ns3:TrackPointExtension>
        </extensions>
      </trkpt>
      <trkpt lat="43.7726263515651226043701171875" lon="1.5723203122615814208984375">
        <ele>159.8000030517578125</ele>
        <time>2026-08-13T09:28:11.000Z</time>
        <extensions>
          <ns3:TrackPointExtension>
            <ns3:hr>82</ns3:hr>
            <ns3:cad>48</ns3:cad>
          </ns3:TrackPointExtension>
        </extensions>
      </trkpt>
      <trkpt lat="43.77261453308165073394775390625" lon="1.57233095727860927581787109375">
        <ele>159.8000030517578125</ele>
        <time>2026-08-13T09:28:12.000Z</time>
        <extensions>
          <ns3:TrackPointExtension>
            <ns3:hr>82</ns3:hr>
            <ns3:cad>48</ns3:cad>
          </ns3:TrackPointExtension>
        </extensions>
      </trkpt>
      <trkpt lat="43.77260841429233551025390625" lon="1.5723364055156707763671875">
        <ele>159.8000030517578125</ele>
        <time>2026-08-13T09:28:13.000Z</time>
        <extensions>
          <ns3:TrackPointExtension>
            <ns3:hr>83</ns3:hr>
            <ns3:cad>47</ns3:cad>
          </ns3:TrackPointExtension>
        </extensions>
      </trkpt>
      <trkpt lat="43.77259793691337108612060546875" lon="1.57234369777143001556396484375">
        <ele>159.8000030517578125</ele>
        <time>2026-08-13T09:28:14.000Z</time>
        <extensions>
          <ns3:TrackPointExtension>
            <ns3:hr>83</ns3:hr>
            <ns3:cad>47</ns3:cad>
          </ns3:TrackPointExtension>
        </extensions>
      </trkpt>
      <trkpt lat="43.77258586697280406951904296875" lon="1.57235308550298213958740234375">
        <ele>159.8000030517578125</ele>
        <time>2026-08-13T09:28:15.000Z</time>
        <extensions>
          <ns3:TrackPointExtension>
            <ns3:hr>83</ns3:hr>
            <ns3:cad>47</ns3:cad>
          </ns3:TrackPointExtension>
        </extensions>
      </trkpt>
      <trkpt lat="43.77257765270769596099853515625" lon="1.5723600424826145172119140625">
        <ele>159.8000030517578125</ele>
        <time>2026-08-13T09:28:16.000Z</time>
        <extensions>
          <ns3:TrackPointExtension>
            <ns3:hr>84</ns3:hr>
            <ns3:cad>47</ns3:cad>
          </ns3:TrackPointExtension>
        </extensions>
      </trkpt>
      <trkpt lat="43.77257010899484157562255859375" lon="1.57236515544354915618896484375">
        <ele>159.8000030517578125</ele>
        <time>2026-08-13T09:28:17.000Z</time>
        <extensions>
          <ns3:TrackPointExtension>
            <ns3:hr>84</ns3:hr>
            <ns3:cad>47</ns3:cad>
          </ns3:TrackPointExtension>
        </extensions>
      </trkpt>
      <trkpt lat="43.7725633196532726287841796875" lon="1.572370938956737518310546875">
        <ele>159.8000030517578125</ele>
        <time>2026-08-13T09:28:18.000Z</time>
        <extensions>
          <ns3:TrackPointExtension>
            <ns3:hr>83</ns3:hr>
            <ns3:cad>48</ns3:cad>
          </ns3:TrackPointExtension>
        </extensions>
      </trkpt>
      <trkpt lat="43.7725525908172130584716796875" lon="1.572376303374767303466796875">
        <ele>159.8000030517578125</ele>
        <time>2026-08-13T09:28:19.000Z</time>
        <extensions>
          <ns3:TrackPointExtension>
            <ns3:hr>83</ns3:hr>
            <ns3:cad>49</ns3:cad>
          </ns3:TrackPointExtension>
        </extensions>
      </trkpt>
      <trkpt lat="43.7725442089140415191650390625" lon="1.57238476909697055816650390625">
        <ele>159.8000030517578125</ele>
        <time>2026-08-13T09:28:20.000Z</time>
        <extensions>
          <ns3:TrackPointExtension>
            <ns3:hr>82</ns3:hr>
            <ns3:cad>49</ns3:cad>
          </ns3:TrackPointExtension>
        </extensions>
      </trkpt>
      <trkpt lat="43.77253867685794830322265625" lon="1.5723892115056514739990234375">
        <ele>159.8000030517578125</ele>
        <time>2026-08-13T09:28:21.000Z</time>
        <extensions>
          <ns3:TrackPointExtension>
            <ns3:hr>80</ns3:hr>
            <ns3:cad>47</ns3:cad>
          </ns3:TrackPointExtension>
        </extensions>
      </trkpt>
      <trkpt lat="43.772534318268299102783203125" lon="1.57239398919045925140380859375">
        <ele>159.8000030517578125</ele>
        <time>2026-08-13T09:28:22.000Z</time>
        <extensions>
          <ns3:TrackPointExtension>
            <ns3:hr>79</ns3:hr>
            <ns3:cad>47</ns3:cad>
          </ns3:TrackPointExtension>
        </extensions>
      </trkpt>
      <trkpt lat="43.77252249978482723236083984375" lon="1.57240589149296283721923828125">
        <ele>159.8000030517578125</ele>
        <time>2026-08-13T09:28:23.000Z</time>
        <extensions>
          <ns3:TrackPointExtension>
            <ns3:hr>79</ns3:hr>
            <ns3:cad>47</ns3:cad>
          </ns3:TrackPointExtension>
        </extensions>
      </trkpt>
      <trkpt lat="43.77251126803457736968994140625" lon="1.57242215238511562347412109375">
        <ele>159.8000030517578125</ele>
        <time>2026-08-13T09:28:24.000Z</time>
        <extensions>
          <ns3:TrackPointExtension>
            <ns3:hr>79</ns3:hr>
            <ns3:cad>47</ns3:cad>
          </ns3:TrackPointExtension>
        </extensions>
      </trkpt>
      <trkpt lat="43.77250372432172298431396484375" lon="1.5724302828311920166015625">
        <ele>159.8000030517578125</ele>
        <time>2026-08-13T09:28:25.000Z</time>
        <extensions>
          <ns3:TrackPointExtension>
            <ns3:hr>79</ns3:hr>
            <ns3:cad>47</ns3:cad>
          </ns3:TrackPointExtension>
        </extensions>
      </trkpt>
      <trkpt lat="43.77249835990369319915771484375" lon="1.57243355177342891693115234375">
        <ele>159.600006103515625</ele>
        <time>2026-08-13T09:28:26.000Z</time>
        <extensions>
          <ns3:TrackPointExtension>
            <ns3:hr>79</ns3:hr>
            <ns3:cad>46</ns3:cad>
          </ns3:TrackPointExtension>
        </extensions>
      </trkpt>
      <trkpt lat="43.772493414580821990966796875" lon="1.57244109548628330230712890625">
        <ele>159.600006103515625</ele>
        <time>2026-08-13T09:28:27.000Z</time>
        <extensions>
          <ns3:TrackPointExtension>
            <ns3:hr>80</ns3:hr>
            <ns3:cad>46</ns3:cad>
          </ns3:TrackPointExtension>
        </extensions>
      </trkpt>
      <trkpt lat="43.77248126082122325897216796875" lon="1.5724542550742626190185546875">
        <ele>159.600006103515625</ele>
        <time>2026-08-13T09:28:28.000Z</time>
        <extensions>
          <ns3:TrackPointExtension>
            <ns3:hr>80</ns3:hr>
            <ns3:cad>45</ns3:cad>
          </ns3:TrackPointExtension>
        </extensions>
      </trkpt>
      <trkpt lat="43.77247170545160770416259765625" lon="1.57246137969195842742919921875">
        <ele>159.600006103515625</ele>
        <time>2026-08-13T09:28:29.000Z</time>
        <extensions>
          <ns3:TrackPointExtension>
            <ns3:hr>81</ns3:hr>
            <ns3:cad>45</ns3:cad>
          </ns3:TrackPointExtension>
        </extensions>
      </trkpt>
      <trkpt lat="43.772462569177150726318359375" lon="1.57246716320514678955078125">
        <ele>159.600006103515625</ele>
        <time>2026-08-13T09:28:30.000Z</time>
        <extensions>
          <ns3:TrackPointExtension>
            <ns3:hr>81</ns3:hr>
            <ns3:cad>47</ns3:cad>
          </ns3:TrackPointExtension>
        </extensions>
      </trkpt>
      <trkpt lat="43.772462569177150726318359375" lon="1.57246716320514678955078125">
        <ele>159.600006103515625</ele>
        <time>2026-08-13T09:28:31.000Z</time>
        <extensions>
          <ns3:TrackPointExtension>
            <ns3:hr>81</ns3:hr>
            <ns3:cad>47</ns3:cad>
          </ns3:TrackPointExtension>
        </extensions>
      </trkpt>
      <trkpt lat="43.772441111505031585693359375" lon="1.57248585484921932220458984375">
        <ele>159.600006103515625</ele>
        <time>2026-08-13T09:28:32.000Z</time>
        <extensions>
          <ns3:TrackPointExtension>
            <ns3:hr>80</ns3:hr>
            <ns3:cad>48</ns3:cad>
          </ns3:TrackPointExtension>
        </extensions>
      </trkpt>
      <trkpt lat="43.7724335677921772003173828125" lon="1.572497002780437469482421875">
        <ele>159.600006103515625</ele>
        <time>2026-08-13T09:28:33.000Z</time>
        <extensions>
          <ns3:TrackPointExtension>
            <ns3:hr>80</ns3:hr>
            <ns3:cad>48</ns3:cad>
          </ns3:TrackPointExtension>
        </extensions>
      </trkpt>
      <trkpt lat="43.77242627553641796112060546875" lon="1.57250781543552875518798828125">
        <ele>159.8000030517578125</ele>
        <time>2026-08-13T09:28:34.000Z</time>
        <extensions>
          <ns3:TrackPointExtension>
            <ns3:hr>79</ns3:hr>
            <ns3:cad>48</ns3:cad>
          </ns3:TrackPointExtension>
        </extensions>
      </trkpt>
      <trkpt lat="43.77241923473775386810302734375" lon="1.57251519151031970977783203125">
        <ele>159.8000030517578125</ele>
        <time>2026-08-13T09:28:35.000Z</time>
        <extensions>
          <ns3:TrackPointExtension>
            <ns3:hr>79</ns3:hr>
            <ns3:cad>47</ns3:cad>
          </ns3:TrackPointExtension>
        </extensions>
      </trkpt>
      <trkpt lat="43.77241319976747035980224609375" lon="1.57251804135739803314208984375">
        <ele>159.8000030517578125</ele>
        <time>2026-08-13T09:28:36.000Z</time>
        <extensions>
          <ns3:TrackPointExtension>
            <ns3:hr>79</ns3:hr>
            <ns3:cad>46</ns3:cad>
          </ns3:TrackPointExtension>
        </extensions>
      </trkpt>
      <trkpt lat="43.77240750007331371307373046875" lon="1.572522819042205810546875">
        <ele>159.600006103515625</ele>
        <time>2026-08-13T09:28:37.000Z</time>
        <extensions>
          <ns3:TrackPointExtension>
            <ns3:hr>79</ns3:hr>
            <ns3:cad>46</ns3:cad>
          </ns3:TrackPointExtension>
        </extensions>
      </trkpt>
      <trkpt lat="43.7723953463137149810791015625" lon="1.572532542049884796142578125">
        <ele>159.600006103515625</ele>
        <time>2026-08-13T09:28:38.000Z</time>
        <extensions>
          <ns3:TrackPointExtension>
            <ns3:hr>79</ns3:hr>
            <ns3:cad>48</ns3:cad>
          </ns3:TrackPointExtension>
        </extensions>
      </trkpt>
      <trkpt lat="43.77238537184894084930419921875" lon="1.57254134304821491241455078125">
        <ele>159.399993896484375</ele>
        <time>2026-08-13T09:28:39.000Z</time>
        <extensions>
          <ns3:TrackPointExtension>
            <ns3:hr>79</ns3:hr>
            <ns3:cad>48</ns3:cad>
          </ns3:TrackPointExtension>
        </extensions>
      </trkpt>
      <trkpt lat="43.7723769061267375946044921875" lon="1.572548635303974151611328125">
        <ele>159.399993896484375</ele>
        <time>2026-08-13T09:28:40.000Z</time>
        <extensions>
          <ns3:TrackPointExtension>
            <ns3:hr>79</ns3:hr>
            <ns3:cad>48</ns3:cad>
          </ns3:TrackPointExtension>
        </extensions>
      </trkpt>
      <trkpt lat="43.77236961387097835540771484375" lon="1.57255307771265506744384765625">
        <ele>159.399993896484375</ele>
        <time>2026-08-13T09:28:41.000Z</time>
        <extensions>
          <ns3:TrackPointExtension>
            <ns3:hr>79</ns3:hr>
            <ns3:cad>48</ns3:cad>
          </ns3:TrackPointExtension>
        </extensions>
      </trkpt>
      <trkpt lat="43.77236030995845794677734375" lon="1.57256112433969974517822265625">
        <ele>159.399993896484375</ele>
        <time>2026-08-13T09:28:42.000Z</time>
        <extensions>
          <ns3:TrackPointExtension>
            <ns3:hr>79</ns3:hr>
            <ns3:cad>48</ns3:cad>
          </ns3:TrackPointExtension>
        </extensions>
      </trkpt>
      <trkpt lat="43.77234824001789093017578125" lon="1.57257311046123504638671875">
        <ele>159.399993896484375</ele>
        <time>2026-08-13T09:28:43.000Z</time>
        <extensions>
          <ns3:TrackPointExtension>
            <ns3:hr>79</ns3:hr>
            <ns3:cad>48</ns3:cad>
          </ns3:TrackPointExtension>
        </extensions>
      </trkpt>
      <trkpt lat="43.7723383493721485137939453125" lon="1.57258115708827972412109375">
        <ele>159.399993896484375</ele>
        <time>2026-08-13T09:28:44.000Z</time>
        <extensions>
          <ns3:TrackPointExtension>
            <ns3:hr>79</ns3:hr>
            <ns3:cad>47</ns3:cad>
          </ns3:TrackPointExtension>
        </extensions>
      </trkpt>
      <trkpt lat="43.77233080565929412841796875" lon="1.5725883655250072479248046875">
        <ele>159.399993896484375</ele>
        <time>2026-08-13T09:28:45.000Z</time>
        <extensions>
          <ns3:TrackPointExtension>
            <ns3:hr>78</ns3:hr>
            <ns3:cad>48</ns3:cad>
          </ns3:TrackPointExtension>
        </extensions>
      </trkpt>
      <trkpt lat="43.77232435159385204315185546875" lon="1.57259314320981502532958984375">
        <ele>159.399993896484375</ele>
        <time>2026-08-13T09:28:46.000Z</time>
        <extensions>
          <ns3:TrackPointExtension>
            <ns3:hr>77</ns3:hr>
            <ns3:cad>48</ns3:cad>
          </ns3:TrackPointExtension>
        </extensions>
      </trkpt>
      <trkpt lat="43.77231630496680736541748046875" lon="1.5725960768759250640869140625">
        <ele>159.399993896484375</ele>
        <time>2026-08-13T09:28:47.000Z</time>
        <extensions>
          <ns3:TrackPointExtension>
            <ns3:hr>77</ns3:hr>
            <ns3:cad>48</ns3:cad>
          </ns3:TrackPointExtension>
        </extensions>
      </trkpt>
      <trkpt lat="43.772299624979496002197265625" lon="1.57260621897876262664794921875">
        <ele>159.399993896484375</ele>
        <time>2026-08-13T09:28:48.000Z</time>
        <extensions>
          <ns3:TrackPointExtension>
            <ns3:hr>76</ns3:hr>
            <ns3:cad>48</ns3:cad>
          </ns3:TrackPointExtension>
        </extensions>
      </trkpt>
      <trkpt lat="43.77228948287665843963623046875" lon="1.5726225636899471282958984375">
        <ele>159.399993896484375</ele>
        <time>2026-08-13T09:28:49.000Z</time>
        <extensions>
          <ns3:TrackPointExtension>
            <ns3:hr>76</ns3:hr>
            <ns3:cad>48</ns3:cad>
          </ns3:TrackPointExtension>
        </extensions>
      </trkpt>
      <trkpt lat="43.77228126861155033111572265625" lon="1.5726314485073089599609375">
        <ele>159.399993896484375</ele>
        <time>2026-08-13T09:28:50.000Z</time>
        <extensions>
          <ns3:TrackPointExtension>
            <ns3:hr>76</ns3:hr>
            <ns3:cad>48</ns3:cad>
          </ns3:TrackPointExtension>
        </extensions>
      </trkpt>
      <trkpt lat="43.7722712941467761993408203125" lon="1.57264150679111480712890625">
        <ele>159.399993896484375</ele>
        <time>2026-08-13T09:28:51.000Z</time>
        <extensions>
          <ns3:TrackPointExtension>
            <ns3:hr>76</ns3:hr>
            <ns3:cad>48</ns3:cad>
          </ns3:TrackPointExtension>
        </extensions>
      </trkpt>
      <trkpt lat="43.772260062396526336669921875" lon="1.57265181653201580047607421875">
        <ele>159.399993896484375</ele>
        <time>2026-08-13T09:28:52.000Z</time>
        <extensions>
          <ns3:TrackPointExtension>
            <ns3:hr>76</ns3:hr>
            <ns3:cad>47</ns3:cad>
          </ns3:TrackPointExtension>
        </extensions>
      </trkpt>
      <trkpt lat="43.77225025556981563568115234375" lon="1.57266003079712390899658203125">
        <ele>159.399993896484375</ele>
        <time>2026-08-13T09:28:53.000Z</time>
        <extensions>
          <ns3:TrackPointExtension>
            <ns3:hr>77</ns3:hr>
            <ns3:cad>47</ns3:cad>
          </ns3:TrackPointExtension>
        </extensions>
      </trkpt>
      <trkpt lat="43.77224229276180267333984375" lon="1.57266740687191486358642578125">
        <ele>159.399993896484375</ele>
        <time>2026-08-13T09:28:54.000Z</time>
        <extensions>
          <ns3:TrackPointExtension>
            <ns3:hr>77</ns3:hr>
            <ns3:cad>47</ns3:cad>
          </ns3:TrackPointExtension>
        </extensions>
      </trkpt>
      <trkpt lat="43.77223852090537548065185546875" lon="1.572674699127674102783203125">
        <ele>159.399993896484375</ele>
        <time>2026-08-13T09:28:55.000Z</time>
        <extensions>
          <ns3:TrackPointExtension>
            <ns3:hr>78</ns3:hr>
            <ns3:cad>47</ns3:cad>
          </ns3:TrackPointExtension>
        </extensions>
      </trkpt>
      <trkpt lat="43.7722293846309185028076171875" lon="1.5726824104785919189453125">
        <ele>159.399993896484375</ele>
        <time>2026-08-13T09:28:56.000Z</time>
        <extensions>
          <ns3:TrackPointExtension>
            <ns3:hr>78</ns3:hr>
            <ns3:cad>47</ns3:cad>
          </ns3:TrackPointExtension>
        </extensions>
      </trkpt>
      <trkpt lat="43.77221957780420780181884765625" lon="1.57269188202917575836181640625">
        <ele>159.1999969482421875</ele>
        <time>2026-08-13T09:28:57.000Z</time>
        <extensions>
          <ns3:TrackPointExtension>
            <ns3:hr>77</ns3:hr>
            <ns3:cad>47</ns3:cad>
          </ns3:TrackPointExtension>
        </extensions>
      </trkpt>
      <trkpt lat="43.77221010625362396240234375" lon="1.57269305549561977386474609375">
        <ele>159.1999969482421875</ele>
        <time>2026-08-13T09:28:58.000Z</time>
        <extensions>
          <ns3:TrackPointExtension>
            <ns3:hr>77</ns3:hr>
            <ns3:cad>47</ns3:cad>
          </ns3:TrackPointExtension>
        </extensions>
      </trkpt>
      <trkpt lat="43.77220516093075275421142578125" lon="1.57269355840981006622314453125">
        <ele>159.1999969482421875</ele>
        <time>2026-08-13T09:28:59.000Z</time>
        <extensions>
          <ns3:TrackPointExtension>
            <ns3:hr>76</ns3:hr>
            <ns3:cad>47</ns3:cad>
          </ns3:TrackPointExtension>
        </extensions>
      </trkpt>
      <trkpt lat="43.7722008861601352691650390625" lon="1.5726983360946178436279296875">
        <ele>159.1999969482421875</ele>
        <time>2026-08-13T09:29:00.000Z</time>
        <extensions>
          <ns3:TrackPointExtension>
            <ns3:hr>76</ns3:hr>
            <ns3:cad>47</ns3:cad>
          </ns3:TrackPointExtension>
        </extensions>
      </trkpt>
      <trkpt lat="43.77218856476247310638427734375" lon="1.57271048985421657562255859375">
        <ele>159.1999969482421875</ele>
        <time>2026-08-13T09:29:01.000Z</time>
        <extensions>
          <ns3:TrackPointExtension>
            <ns3:hr>76</ns3:hr>
            <ns3:cad>47</ns3:cad>
          </ns3:TrackPointExtension>
        </extensions>
      </trkpt>
      <trkpt lat="43.772175572812557220458984375" lon="1.57271987758576869964599609375">
        <ele>159.1999969482421875</ele>
        <time>2026-08-13T09:29:02.000Z</time>
        <extensions>
          <ns3:TrackPointExtension>
            <ns3:hr>76</ns3:hr>
            <ns3:cad>47</ns3:cad>
          </ns3:TrackPointExtension>
        </extensions>
      </trkpt>
      <trkpt lat="43.77216693945229053497314453125" lon="1.5727285109460353851318359375">
        <ele>159.1999969482421875</ele>
        <time>2026-08-13T09:29:03.000Z</time>
        <extensions>
          <ns3:TrackPointExtension>
            <ns3:hr>76</ns3:hr>
            <ns3:cad>47</ns3:cad>
          </ns3:TrackPointExtension>
        </extensions>
      </trkpt>
      <trkpt lat="43.7721616588532924652099609375" lon="1.57273127697408199310302734375">
        <ele>159.1999969482421875</ele>
        <time>2026-08-13T09:29:04.000Z</time>
        <extensions>
          <ns3:TrackPointExtension>
            <ns3:hr>76</ns3:hr>
            <ns3:cad>47</ns3:cad>
          </ns3:TrackPointExtension>
        </extensions>
      </trkpt>
      <trkpt lat="43.77215805463492870330810546875" lon="1.572732031345367431640625">
        <ele>159.1999969482421875</ele>
        <time>2026-08-13T09:29:05.000Z</time>
        <extensions>
          <ns3:TrackPointExtension>
            <ns3:hr>76</ns3:hr>
            <ns3:cad>47</ns3:cad>
          </ns3:TrackPointExtension>
        </extensions>
      </trkpt>
      <trkpt lat="43.7721455655992031097412109375" lon="1.5727412514388561248779296875">
        <ele>159.1999969482421875</ele>
        <time>2026-08-13T09:29:06.000Z</time>
        <extensions>
          <ns3:TrackPointExtension>
            <ns3:hr>76</ns3:hr>
            <ns3:cad>47</ns3:cad>
          </ns3:TrackPointExtension>
        </extensions>
      </trkpt>
      <trkpt lat="43.77213492058217525482177734375" lon="1.57274854369461536407470703125">
        <ele>159.1999969482421875</ele>
        <time>2026-08-13T09:29:07.000Z</time>
        <extensions>
          <ns3:TrackPointExtension>
            <ns3:hr>76</ns3:hr>
            <ns3:cad>47</ns3:cad>
          </ns3:TrackPointExtension>
        </extensions>
      </trkpt>
      <trkpt lat="43.77212486229836940765380859375" lon="1.5727560035884380340576171875">
        <ele>159.1999969482421875</ele>
        <time>2026-08-13T09:29:08.000Z</time>
        <extensions>
          <ns3:TrackPointExtension>
            <ns3:hr>76</ns3:hr>
            <ns3:cad>49</ns3:cad>
          </ns3:TrackPointExtension>
        </extensions>
      </trkpt>
      <trkpt lat="43.77211530692875385284423828125" lon="1.57275910489261150360107421875">
        <ele>159.1999969482421875</ele>
        <time>2026-08-13T09:29:09.000Z</time>
        <extensions>
          <ns3:TrackPointExtension>
            <ns3:hr>76</ns3:hr>
            <ns3:cad>49</ns3:cad>
          </ns3:TrackPointExtension>
        </extensions>
      </trkpt>
      <trkpt lat="43.7721053324639797210693359375" lon="1.5727647207677364349365234375">
        <ele>159.1999969482421875</ele>
        <time>2026-08-13T09:29:10.000Z</time>
        <extensions>
          <ns3:TrackPointExtension>
            <ns3:hr>76</ns3:hr>
            <ns3:cad>48</ns3:cad>
          </ns3:TrackPointExtension>
        </extensions>
      </trkpt>
      <trkpt lat="43.77209183759987354278564453125" lon="1.572776623070240020751953125">
        <ele>159.1999969482421875</ele>
        <time>2026-08-13T09:29:11.000Z</time>
        <extensions>
          <ns3:TrackPointExtension>
            <ns3:hr>76</ns3:hr>
            <ns3:cad>48</ns3:cad>
          </ns3:TrackPointExtension>
        </extensions>
      </trkpt>
      <trkpt lat="43.7720838747918605804443359375" lon="1.57278911210596561431884765625">
        <ele>159.1999969482421875</ele>
        <time>2026-08-13T09:29:12.000Z</time>
        <extensions>
          <ns3:TrackPointExtension>
            <ns3:hr>76</ns3:hr>
            <ns3:cad>48</ns3:cad>
          </ns3:TrackPointExtension>
        </extensions>
      </trkpt>
      <trkpt lat="43.77207725308835506439208984375" lon="1.5727982483804225921630859375">
        <ele>159.1999969482421875</ele>
        <time>2026-08-13T09:29:13.000Z</time>
        <extensions>
          <ns3:TrackPointExtension>
            <ns3:hr>77</ns3:hr>
            <ns3:cad>48</ns3:cad>
          </ns3:TrackPointExtension>
        </extensions>
      </trkpt>
      <trkpt lat="43.77207339741289615631103515625" lon="1.57280134968459606170654296875">
        <ele>159.1999969482421875</ele>
        <time>2026-08-13T09:29:14.000Z</time>
        <extensions>
          <ns3:TrackPointExtension>
            <ns3:hr>76</ns3:hr>
            <ns3:cad>48</ns3:cad>
          </ns3:TrackPointExtension>
        </extensions>
      </trkpt>
      <trkpt lat="43.7720627523958683013916015625" lon="1.57281375490128993988037109375">
        <ele>159.1999969482421875</ele>
        <time>2026-08-13T09:29:15.000Z</time>
        <extensions>
          <ns3:TrackPointExtension>
            <ns3:hr>76</ns3:hr>
            <ns3:cad>48</ns3:cad>
          </ns3:TrackPointExtension>
        </extensions>
      </trkpt>
      <trkpt lat="43.77204976044595241546630859375" lon="1.57283035106956958770751953125">
        <ele>159.1999969482421875</ele>
        <time>2026-08-13T09:29:16.000Z</time>
        <extensions>
          <ns3:TrackPointExtension>
            <ns3:hr>77</ns3:hr>
            <ns3:cad>47</ns3:cad>
          </ns3:TrackPointExtension>
        </extensions>
      </trkpt>
      <trkpt lat="43.7720406241714954376220703125" lon="1.57283856533467769622802734375">
        <ele>159.1999969482421875</ele>
        <time>2026-08-13T09:29:17.000Z</time>
        <extensions>
          <ns3:TrackPointExtension>
            <ns3:hr>76</ns3:hr>
            <ns3:cad>47</ns3:cad>
          </ns3:TrackPointExtension>
        </extensions>
      </trkpt>
      <trkpt lat="43.772031404078006744384765625" lon="1.572847031056880950927734375">
        <ele>159.1999969482421875</ele>
        <time>2026-08-13T09:29:18.000Z</time>
        <extensions>
          <ns3:TrackPointExtension>
            <ns3:hr>76</ns3:hr>
            <ns3:cad>47</ns3:cad>
          </ns3:TrackPointExtension>
        </extensions>
      </trkpt>
      <trkpt lat="43.7720238603651523590087890625" lon="1.57285130582749843597412109375">
        <ele>159.1999969482421875</ele>
        <time>2026-08-13T09:29:19.000Z</time>
        <extensions>
          <ns3:TrackPointExtension>
            <ns3:hr>77</ns3:hr>
            <ns3:cad>47</ns3:cad>
          </ns3:TrackPointExtension>
        </extensions>
      </trkpt>
      <trkpt lat="43.772012293338775634765625" lon="1.57286069355905055999755859375">
        <ele>159.1999969482421875</ele>
        <time>2026-08-13T09:29:20.000Z</time>
        <extensions>
          <ns3:TrackPointExtension>
            <ns3:hr>76</ns3:hr>
            <ns3:cad>47</ns3:cad>
          </ns3:TrackPointExtension>
        </extensions>
      </trkpt>
      <trkpt lat="43.77200081013143062591552734375" lon="1.5728710032999515533447265625">
        <ele>159</ele>
        <time>2026-08-13T09:29:21.000Z</time>
        <extensions>
          <ns3:TrackPointExtension>
            <ns3:hr>76</ns3:hr>
            <ns3:cad>47</ns3:cad>
          </ns3:TrackPointExtension>
        </extensions>
      </trkpt>
      <trkpt lat="43.7719916738569736480712890625" lon="1.57288064248859882354736328125">
        <ele>159</ele>
        <time>2026-08-13T09:29:22.000Z</time>
        <extensions>
          <ns3:TrackPointExtension>
            <ns3:hr>77</ns3:hr>
            <ns3:cad>47</ns3:cad>
          </ns3:TrackPointExtension>
        </extensions>
      </trkpt>
      <trkpt lat="43.77198220230638980865478515625" lon="1.572886593639850616455078125">
        <ele>159</ele>
        <time>2026-08-13T09:29:23.000Z</time>
        <extensions>
          <ns3:TrackPointExtension>
            <ns3:hr>77</ns3:hr>
            <ns3:cad>48</ns3:cad>
          </ns3:TrackPointExtension>
        </extensions>
      </trkpt>
      <trkpt lat="43.771975748240947723388671875" lon="1.57289187423884868621826171875">
        <ele>159</ele>
        <time>2026-08-13T09:29:24.000Z</time>
        <extensions>
          <ns3:TrackPointExtension>
            <ns3:hr>77</ns3:hr>
            <ns3:cad>49</ns3:cad>
          </ns3:TrackPointExtension>
        </extensions>
      </trkpt>
      <trkpt lat="43.771964348852634429931640625" lon="1.57290210016071796417236328125">
        <ele>159</ele>
        <time>2026-08-13T09:29:25.000Z</time>
        <extensions>
          <ns3:TrackPointExtension>
            <ns3:hr>78</ns3:hr>
            <ns3:cad>49</ns3:cad>
          </ns3:TrackPointExtension>
        </extensions>
      </trkpt>
      <trkpt lat="43.77195605076849460601806640625" lon="1.57291098497807979583740234375">
        <ele>159</ele>
        <time>2026-08-13T09:29:26.000Z</time>
        <extensions>
          <ns3:TrackPointExtension>
            <ns3:hr>78</ns3:hr>
            <ns3:cad>49</ns3:cad>
          </ns3:TrackPointExtension>
        </extensions>
      </trkpt>
      <trkpt lat="43.771946914494037628173828125" lon="1.57292154617607593536376953125">
        <ele>159</ele>
        <time>2026-08-13T09:29:27.000Z</time>
        <extensions>
          <ns3:TrackPointExtension>
            <ns3:hr>78</ns3:hr>
            <ns3:cad>49</ns3:cad>
          </ns3:TrackPointExtension>
        </extensions>
      </trkpt>
      <trkpt lat="43.7719380296766757965087890625" lon="1.572930850088596343994140625">
        <ele>159</ele>
        <time>2026-08-13T09:29:28.000Z</time>
        <extensions>
          <ns3:TrackPointExtension>
            <ns3:hr>78</ns3:hr>
            <ns3:cad>48</ns3:cad>
          </ns3:TrackPointExtension>
        </extensions>
      </trkpt>
      <trkpt lat="43.77192956395447254180908203125" lon="1.57293923199176788330078125">
        <ele>159</ele>
        <time>2026-08-13T09:29:29.000Z</time>
        <extensions>
          <ns3:TrackPointExtension>
            <ns3:hr>78</ns3:hr>
            <ns3:cad>47</ns3:cad>
          </ns3:TrackPointExtension>
        </extensions>
      </trkpt>
      <trkpt lat="43.771916739642620086669921875" lon="1.57294736243784427642822265625">
        <ele>159</ele>
        <time>2026-08-13T09:29:30.000Z</time>
        <extensions>
          <ns3:TrackPointExtension>
            <ns3:hr>78</ns3:hr>
            <ns3:cad>47</ns3:cad>
          </ns3:TrackPointExtension>
        </extensions>
      </trkpt>
      <trkpt lat="43.77190642990171909332275390625" lon="1.57295624725520610809326171875">
        <ele>159</ele>
        <time>2026-08-13T09:29:31.000Z</time>
        <extensions>
          <ns3:TrackPointExtension>
            <ns3:hr>78</ns3:hr>
            <ns3:cad>47</ns3:cad>
          </ns3:TrackPointExtension>
        </extensions>
      </trkpt>
      <trkpt lat="43.7719004787504673004150390625" lon="1.572963036596775054931640625">
        <ele>159</ele>
        <time>2026-08-13T09:29:32.000Z</time>
        <extensions>
          <ns3:TrackPointExtension>
            <ns3:hr>78</ns3:hr>
            <ns3:cad>47</ns3:cad>
          </ns3:TrackPointExtension>
        </extensions>
      </trkpt>
      <trkpt lat="43.77189360558986663818359375" lon="1.57296529971063137054443359375">
        <ele>159</ele>
        <time>2026-08-13T09:29:33.000Z</time>
        <extensions>
          <ns3:TrackPointExtension>
            <ns3:hr>78</ns3:hr>
            <ns3:cad>47</ns3:cad>
          </ns3:TrackPointExtension>
        </extensions>
      </trkpt>
      <trkpt lat="43.77188296057283878326416015625" lon="1.57297166995704174041748046875">
        <ele>159</ele>
        <time>2026-08-13T09:29:34.000Z</time>
        <extensions>
          <ns3:TrackPointExtension>
            <ns3:hr>78</ns3:hr>
            <ns3:cad>47</ns3:cad>
          </ns3:TrackPointExtension>
        </extensions>
      </trkpt>
      <trkpt lat="43.77187122590839862823486328125" lon="1.57298491336405277252197265625">
        <ele>159</ele>
        <time>2026-08-13T09:29:35.000Z</time>
        <extensions>
          <ns3:TrackPointExtension>
            <ns3:hr>78</ns3:hr>
            <ns3:cad>47</ns3:cad>
          </ns3:TrackPointExtension>
        </extensions>
      </trkpt>
      <trkpt lat="43.7718632631003856658935546875" lon="1.5729923732578754425048828125">
        <ele>159</ele>
        <time>2026-08-13T09:29:36.000Z</time>
        <extensions>
          <ns3:TrackPointExtension>
            <ns3:hr>78</ns3:hr>
            <ns3:cad>47</ns3:cad>
          </ns3:TrackPointExtension>
        </extensions>
      </trkpt>
      <trkpt lat="43.7718535400927066802978515625" lon="1.57300234772264957427978515625">
        <ele>159</ele>
        <time>2026-08-13T09:29:37.000Z</time>
        <extensions>
          <ns3:TrackPointExtension>
            <ns3:hr>78</ns3:hr>
            <ns3:cad>47</ns3:cad>
          </ns3:TrackPointExtension>
        </extensions>
      </trkpt>
      <trkpt lat="43.77185211516916751861572265625" lon="1.5730123221874237060546875">
        <ele>159</ele>
        <time>2026-08-13T09:29:38.000Z</time>
        <extensions>
          <ns3:TrackPointExtension>
            <ns3:hr>78</ns3:hr>
            <ns3:cad>47</ns3:cad>
          </ns3:TrackPointExtension>
        </extensions>
      </trkpt>
      <trkpt lat="43.77183870412409305572509765625" lon="1.57303118146955966949462890625">
        <ele>159</ele>
        <time>2026-08-13T09:29:39.000Z</time>
        <extensions>
          <ns3:TrackPointExtension>
            <ns3:hr>78</ns3:hr>
            <ns3:cad>47</ns3:cad>
          </ns3:TrackPointExtension>
        </extensions>
      </trkpt>
      <trkpt lat="43.7718270532786846160888671875" lon="1.57304425723850727081298828125">
        <ele>159</ele>
        <time>2026-08-13T09:29:40.000Z</time>
        <extensions>
          <ns3:TrackPointExtension>
            <ns3:hr>78</ns3:hr>
            <ns3:cad>47</ns3:cad>
          </ns3:TrackPointExtension>
        </extensions>
      </trkpt>
      <trkpt lat="43.77181875519454479217529296875" lon="1.5730530582368373870849609375">
        <ele>159</ele>
        <time>2026-08-13T09:29:41.000Z</time>
        <extensions>
          <ns3:TrackPointExtension>
            <ns3:hr>78</ns3:hr>
            <ns3:cad>47</ns3:cad>
          </ns3:TrackPointExtension>
        </extensions>
      </trkpt>
      <trkpt lat="43.77181137911975383758544921875" lon="1.57305615954101085662841796875">
        <ele>159</ele>
        <time>2026-08-13T09:29:42.000Z</time>
        <extensions>
          <ns3:TrackPointExtension>
            <ns3:hr>78</ns3:hr>
            <ns3:cad>47</ns3:cad>
          </ns3:TrackPointExtension>
        </extensions>
      </trkpt>
      <trkpt lat="43.77180199138820171356201171875" lon="1.57306537963449954986572265625">
        <ele>159</ele>
        <time>2026-08-13T09:29:43.000Z</time>
        <extensions>
          <ns3:TrackPointExtension>
            <ns3:hr>78</ns3:hr>
            <ns3:cad>47</ns3:cad>
          </ns3:TrackPointExtension>
        </extensions>
      </trkpt>
      <trkpt lat="43.77179226838052272796630859375" lon="1.5730748511850833892822265625">
        <ele>159</ele>
        <time>2026-08-13T09:29:44.000Z</time>
        <extensions>
          <ns3:TrackPointExtension>
            <ns3:hr>78</ns3:hr>
            <ns3:cad>47</ns3:cad>
          </ns3:TrackPointExtension>
        </extensions>
      </trkpt>
      <trkpt lat="43.771781623363494873046875" lon="1.5730815567076206207275390625">
        <ele>159</ele>
        <time>2026-08-13T09:29:45.000Z</time>
        <extensions>
          <ns3:TrackPointExtension>
            <ns3:hr>78</ns3:hr>
            <ns3:cad>47</ns3:cad>
          </ns3:TrackPointExtension>
        </extensions>
      </trkpt>
      <trkpt lat="43.7717737443745136260986328125" lon="1.57308532856404781341552734375">
        <ele>159</ele>
        <time>2026-08-13T09:29:46.000Z</time>
        <extensions>
          <ns3:TrackPointExtension>
            <ns3:hr>79</ns3:hr>
            <ns3:cad>47</ns3:cad>
          </ns3:TrackPointExtension>
        </extensions>
      </trkpt>
      <trkpt lat="43.771769218146800994873046875" lon="1.5730882622301578521728515625">
        <ele>158.8000030517578125</ele>
        <time>2026-08-13T09:29:47.000Z</time>
        <extensions>
          <ns3:TrackPointExtension>
            <ns3:hr>79</ns3:hr>
            <ns3:cad>47</ns3:cad>
          </ns3:TrackPointExtension>
        </extensions>
      </trkpt>
      <trkpt lat="43.77176343463361263275146484375" lon="1.57309086062014102935791015625">
        <ele>158.8000030517578125</ele>
        <time>2026-08-13T09:29:48.000Z</time>
        <extensions>
          <ns3:TrackPointExtension>
            <ns3:hr>80</ns3:hr>
            <ns3:cad>47</ns3:cad>
          </ns3:TrackPointExtension>
        </extensions>
      </trkpt>
      <trkpt lat="43.7717561423778533935546875" lon="1.57310108654201030731201171875">
        <ele>158.8000030517578125</ele>
        <time>2026-08-13T09:29:49.000Z</time>
        <extensions>
          <ns3:TrackPointExtension>
            <ns3:hr>80</ns3:hr>
            <ns3:cad>47</ns3:cad>
          </ns3:TrackPointExtension>
        </extensions>
      </trkpt>
      <trkpt lat="43.77174616791307926177978515625" lon="1.5731150843203067779541015625">
        <ele>158.8000030517578125</ele>
        <time>2026-08-13T09:29:50.000Z</time>
        <extensions>
          <ns3:TrackPointExtension>
            <ns3:hr>80</ns3:hr>
            <ns3:cad>49</ns3:cad>
          </ns3:TrackPointExtension>
        </extensions>
      </trkpt>
      <trkpt lat="43.771739713847637176513671875" lon="1.57312296330928802490234375">
        <ele>158.8000030517578125</ele>
        <time>2026-08-13T09:29:51.000Z</time>
        <extensions>
          <ns3:TrackPointExtension>
            <ns3:hr>80</ns3:hr>
            <ns3:cad>49</ns3:cad>
          </ns3:TrackPointExtension>
        </extensions>
      </trkpt>
      <trkpt lat="43.7717318348586559295654296875" lon="1.57313168048858642578125">
        <ele>158.8000030517578125</ele>
        <time>2026-08-13T09:29:52.000Z</time>
        <extensions>
          <ns3:TrackPointExtension>
            <ns3:hr>81</ns3:hr>
            <ns3:cad>47</ns3:cad>
          </ns3:TrackPointExtension>
        </extensions>
      </trkpt>
      <trkpt lat="43.77171800471842288970947265625" lon="1.5731437504291534423828125">
        <ele>158.8000030517578125</ele>
        <time>2026-08-13T09:29:53.000Z</time>
        <extensions>
          <ns3:TrackPointExtension>
            <ns3:hr>81</ns3:hr>
            <ns3:cad>47</ns3:cad>
          </ns3:TrackPointExtension>
        </extensions>
      </trkpt>
      <trkpt lat="43.7717066891491413116455078125" lon="1.5731543116271495819091796875">
        <ele>158.8000030517578125</ele>
        <time>2026-08-13T09:29:54.000Z</time>
        <extensions>
          <ns3:TrackPointExtension>
            <ns3:hr>81</ns3:hr>
            <ns3:cad>47</ns3:cad>
          </ns3:TrackPointExtension>
        </extensions>
      </trkpt>
      <trkpt lat="43.77170048654079437255859375" lon="1.5731600113213062286376953125">
        <ele>158.8000030517578125</ele>
        <time>2026-08-13T09:29:55.000Z</time>
        <extensions>
          <ns3:TrackPointExtension>
            <ns3:hr>80</ns3:hr>
            <ns3:cad>47</ns3:cad>
          </ns3:TrackPointExtension>
        </extensions>
      </trkpt>
      <trkpt lat="43.7716966308653354644775390625" lon="1.57316160388290882110595703125">
        <ele>158.8000030517578125</ele>
        <time>2026-08-13T09:29:56.000Z</time>
        <extensions>
          <ns3:TrackPointExtension>
            <ns3:hr>81</ns3:hr>
            <ns3:cad>47</ns3:cad>
          </ns3:TrackPointExtension>
        </extensions>
      </trkpt>
      <trkpt lat="43.77168514765799045562744140625" lon="1.57316948287189006805419921875">
        <ele>158.8000030517578125</ele>
        <time>2026-08-13T09:29:57.000Z</time>
        <extensions>
          <ns3:TrackPointExtension>
            <ns3:hr>81</ns3:hr>
            <ns3:cad>47</ns3:cad>
          </ns3:TrackPointExtension>
        </extensions>
      </trkpt>
      <trkpt lat="43.77167274244129657745361328125" lon="1.5731750987470149993896484375">
        <ele>158.8000030517578125</ele>
        <time>2026-08-13T09:29:58.000Z</time>
        <extensions>
          <ns3:TrackPointExtension>
            <ns3:hr>80</ns3:hr>
            <ns3:cad>46</ns3:cad>
          </ns3:TrackPointExtension>
        </extensions>
      </trkpt>
      <trkpt lat="43.7716631032526493072509765625" lon="1.57318197190761566162109375">
        <ele>158.8000030517578125</ele>
        <time>2026-08-13T09:29:59.000Z</time>
        <extensions>
          <ns3:TrackPointExtension>
            <ns3:hr>81</ns3:hr>
            <ns3:cad>46</ns3:cad>
          </ns3:TrackPointExtension>
        </extensions>
      </trkpt>
      <trkpt lat="43.77165581099689006805419921875" lon="1.57318658195436000823974609375">
        <ele>158.8000030517578125</ele>
        <time>2026-08-13T09:30:00.000Z</time>
        <extensions>
          <ns3:TrackPointExtension>
            <ns3:hr>81</ns3:hr>
            <ns3:cad>47</ns3:cad>
          </ns3:TrackPointExtension>
        </extensions>
      </trkpt>
      <trkpt lat="43.771646507084369659423828125" lon="1.57319211401045322418212890625">
        <ele>158.600006103515625</ele>
        <time>2026-08-13T09:30:01.000Z</time>
        <extensions>
          <ns3:TrackPointExtension>
            <ns3:hr>82</ns3:hr>
            <ns3:cad>47</ns3:cad>
          </ns3:TrackPointExtension>
        </extensions>
      </trkpt>
      <trkpt lat="43.771635778248310089111328125" lon="1.57320317812263965606689453125">
        <ele>158.600006103515625</ele>
        <time>2026-08-13T09:30:02.000Z</time>
        <extensions>
          <ns3:TrackPointExtension>
            <ns3:hr>82</ns3:hr>
            <ns3:cad>46</ns3:cad>
          </ns3:TrackPointExtension>
        </extensions>
      </trkpt>
      <trkpt lat="43.77162831835448741912841796875" lon="1.57320803962647914886474609375">
        <ele>158.600006103515625</ele>
        <time>2026-08-13T09:30:03.000Z</time>
        <extensions>
          <ns3:TrackPointExtension>
            <ns3:hr>82</ns3:hr>
            <ns3:cad>46</ns3:cad>
          </ns3:TrackPointExtension>
        </extensions>
      </trkpt>
      <trkpt lat="43.7716205231845378875732421875" lon="1.5732123143970966339111328125">
        <ele>158.600006103515625</ele>
        <time>2026-08-13T09:30:04.000Z</time>
        <extensions>
          <ns3:TrackPointExtension>
            <ns3:hr>82</ns3:hr>
            <ns3:cad>46</ns3:cad>
          </ns3:TrackPointExtension>
        </extensions>
      </trkpt>
      <trkpt lat="43.771616332232952117919921875" lon="1.57321508042514324188232421875">
        <ele>158.600006103515625</ele>
        <time>2026-08-13T09:30:05.000Z</time>
        <extensions>
          <ns3:TrackPointExtension>
            <ns3:hr>81</ns3:hr>
            <ns3:cad>47</ns3:cad>
          </ns3:TrackPointExtension>
        </extensions>
      </trkpt>
      <trkpt lat="43.77160216681659221649169921875" lon="1.57322715036571025848388671875">
        <ele>158.600006103515625</ele>
        <time>2026-08-13T09:30:06.000Z</time>
        <extensions>
          <ns3:TrackPointExtension>
            <ns3:hr>81</ns3:hr>
            <ns3:cad>47</ns3:cad>
          </ns3:TrackPointExtension>
        </extensions>
      </trkpt>
      <trkpt lat="43.77159244380891323089599609375" lon="1.57323569990694522857666015625">
        <ele>158.600006103515625</ele>
        <time>2026-08-13T09:30:07.000Z</time>
        <extensions>
          <ns3:TrackPointExtension>
            <ns3:hr>81</ns3:hr>
            <ns3:cad>47</ns3:cad>
          </ns3:TrackPointExtension>
        </extensions>
      </trkpt>
      <trkpt lat="43.7715823017060756683349609375" lon="1.573242656886577606201171875">
        <ele>158.600006103515625</ele>
        <time>2026-08-13T09:30:08.000Z</time>
        <extensions>
          <ns3:TrackPointExtension>
            <ns3:hr>80</ns3:hr>
            <ns3:cad>47</ns3:cad>
          </ns3:TrackPointExtension>
        </extensions>
      </trkpt>
      <trkpt lat="43.77157568000257015228271484375" lon="1.57324634492397308349609375">
        <ele>158.600006103515625</ele>
        <time>2026-08-13T09:30:09.000Z</time>
        <extensions>
          <ns3:TrackPointExtension>
            <ns3:hr>80</ns3:hr>
            <ns3:cad>47</ns3:cad>
          </ns3:TrackPointExtension>
        </extensions>
      </trkpt>
      <trkpt lat="43.77156813628971576690673828125" lon="1.57325430773198604583740234375">
        <ele>158.600006103515625</ele>
        <time>2026-08-13T09:30:10.000Z</time>
        <extensions>
          <ns3:TrackPointExtension>
            <ns3:hr>80</ns3:hr>
            <ns3:cad>47</ns3:cad>
          </ns3:TrackPointExtension>
        </extensions>
      </trkpt>
      <trkpt lat="43.77155564725399017333984375" lon="1.57325916923582553863525390625">
        <ele>158.600006103515625</ele>
        <time>2026-08-13T09:30:11.000Z</time>
        <extensions>
          <ns3:TrackPointExtension>
            <ns3:hr>80</ns3:hr>
            <ns3:cad>47</ns3:cad>
          </ns3:TrackPointExtension>
        </extensions>
      </trkpt>
      <trkpt lat="43.771543912589550018310546875" lon="1.573269478976726531982421875">
        <ele>158.600006103515625</ele>
        <time>2026-08-13T09:30:12.000Z</time>
        <extensions>
          <ns3:TrackPointExtension>
            <ns3:hr>80</ns3:hr>
            <ns3:cad>47</ns3:cad>
          </ns3:TrackPointExtension>
        </extensions>
      </trkpt>
      <trkpt lat="43.771536536514759063720703125" lon="1.5732750110328197479248046875">
        <ele>158.600006103515625</ele>
        <time>2026-08-13T09:30:13.000Z</time>
        <extensions>
          <ns3:TrackPointExtension>
            <ns3:hr>80</ns3:hr>
            <ns3:cad>46</ns3:cad>
          </ns3:TrackPointExtension>
        </extensions>
      </trkpt>
      <trkpt lat="43.77153142355382442474365234375" lon="1.573280878365039825439453125">
        <ele>158.600006103515625</ele>
        <time>2026-08-13T09:30:14.000Z</time>
        <extensions>
          <ns3:TrackPointExtension>
            <ns3:hr>79</ns3:hr>
            <ns3:cad>46</ns3:cad>
          </ns3:TrackPointExtension>
        </extensions>
      </trkpt>
      <trkpt lat="43.77152144908905029296875" lon="1.57329202629625797271728515625">
        <ele>158.600006103515625</ele>
        <time>2026-08-13T09:30:15.000Z</time>
        <extensions>
          <ns3:TrackPointExtension>
            <ns3:hr>79</ns3:hr>
            <ns3:cad>47</ns3:cad>
          </ns3:TrackPointExtension>
        </extensions>
      </trkpt>
      <trkpt lat="43.77150862477719783782958984375" lon="1.57330174930393695831298828125">
        <ele>158.600006103515625</ele>
        <time>2026-08-13T09:30:16.000Z</time>
        <extensions>
          <ns3:TrackPointExtension>
            <ns3:hr>79</ns3:hr>
            <ns3:cad>47</ns3:cad>
          </ns3:TrackPointExtension>
        </extensions>
      </trkpt>
      <trkpt lat="43.7715001590549945831298828125" lon="1.57331046648323535919189453125">
        <ele>158.600006103515625</ele>
        <time>2026-08-13T09:30:17.000Z</time>
        <extensions>
          <ns3:TrackPointExtension>
            <ns3:hr>78</ns3:hr>
            <ns3:cad>47</ns3:cad>
          </ns3:TrackPointExtension>
        </extensions>
      </trkpt>
      <trkpt lat="43.771490268409252166748046875" lon="1.57331901602447032928466796875">
        <ele>158.600006103515625</ele>
        <time>2026-08-13T09:30:18.000Z</time>
        <extensions>
          <ns3:TrackPointExtension>
            <ns3:hr>78</ns3:hr>
            <ns3:cad>47</ns3:cad>
          </ns3:TrackPointExtension>
        </extensions>
      </trkpt>
      <trkpt lat="43.771481215953826904296875" lon="1.57332681119441986083984375">
        <ele>158.600006103515625</ele>
        <time>2026-08-13T09:30:19.000Z</time>
        <extensions>
          <ns3:TrackPointExtension>
            <ns3:hr>78</ns3:hr>
            <ns3:cad>47</ns3:cad>
          </ns3:TrackPointExtension>
        </extensions>
      </trkpt>
      <trkpt lat="43.771473504602909088134765625" lon="1.573336534202098846435546875">
        <ele>158.8000030517578125</ele>
        <time>2026-08-13T09:30:20.000Z</time>
        <extensions>
          <ns3:TrackPointExtension>
            <ns3:hr>78</ns3:hr>
            <ns3:cad>47</ns3:cad>
          </ns3:TrackPointExtension>
        </extensions>
      </trkpt>
      <trkpt lat="43.77146336250007152557373046875" lon="1.57334935851395130157470703125">
        <ele>158.8000030517578125</ele>
        <time>2026-08-13T09:30:21.000Z</time>
        <extensions>
          <ns3:TrackPointExtension>
            <ns3:hr>79</ns3:hr>
            <ns3:cad>45</ns3:cad>
          </ns3:TrackPointExtension>
        </extensions>
      </trkpt>
      <trkpt lat="43.77145833335816860198974609375" lon="1.57335874624550342559814453125">
        <ele>158.8000030517578125</ele>
        <time>2026-08-13T09:30:22.000Z</time>
        <extensions>
          <ns3:TrackPointExtension>
            <ns3:hr>79</ns3:hr>
            <ns3:cad>45</ns3:cad>
          </ns3:TrackPointExtension>
        </extensions>
      </trkpt>
      <trkpt lat="43.7714515440165996551513671875" lon="1.573365032672882080078125">
        <ele>158.8000030517578125</ele>
        <time>2026-08-13T09:30:23.000Z</time>
        <extensions>
          <ns3:TrackPointExtension>
            <ns3:hr>79</ns3:hr>
            <ns3:cad>46</ns3:cad>
          </ns3:TrackPointExtension>
        </extensions>
      </trkpt>
      <trkpt lat="43.771439976990222930908203125" lon="1.57337500713765621185302734375">
        <ele>158.8000030517578125</ele>
        <time>2026-08-13T09:30:24.000Z</time>
        <extensions>
          <ns3:TrackPointExtension>
            <ns3:hr>79</ns3:hr>
            <ns3:cad>46</ns3:cad>
          </ns3:TrackPointExtension>
        </extensions>
      </trkpt>
      <trkpt lat="43.77142715267837047576904296875" lon="1.57338255085051059722900390625">
        <ele>158.600006103515625</ele>
        <time>2026-08-13T09:30:25.000Z</time>
        <extensions>
          <ns3:TrackPointExtension>
            <ns3:hr>79</ns3:hr>
            <ns3:cad>46</ns3:cad>
          </ns3:TrackPointExtension>
        </extensions>
      </trkpt>
      <trkpt lat="43.7714166752994060516357421875" lon="1.57339110039174556732177734375">
        <ele>158.600006103515625</ele>
        <time>2026-08-13T09:30:26.000Z</time>
        <extensions>
          <ns3:TrackPointExtension>
            <ns3:hr>79</ns3:hr>
            <ns3:cad>46</ns3:cad>
          </ns3:TrackPointExtension>
        </extensions>
      </trkpt>
      <trkpt lat="43.77141005359590053558349609375" lon="1.57340149395167827606201171875">
        <ele>158.600006103515625</ele>
        <time>2026-08-13T09:30:27.000Z</time>
        <extensions>
          <ns3:TrackPointExtension>
            <ns3:hr>79</ns3:hr>
            <ns3:cad>46</ns3:cad>
          </ns3:TrackPointExtension>
        </extensions>
      </trkpt>
      <trkpt lat="43.771401084959506988525390625" lon="1.57340769656002521514892578125">
        <ele>158.600006103515625</ele>
        <time>2026-08-13T09:30:28.000Z</time>
        <extensions>
          <ns3:TrackPointExtension>
            <ns3:hr>79</ns3:hr>
            <ns3:cad>48</ns3:cad>
          </ns3:TrackPointExtension>
        </extensions>
      </trkpt>
      <trkpt lat="43.7713913619518280029296875" lon="1.5734181739389896392822265625">
        <ele>158.600006103515625</ele>
        <time>2026-08-13T09:30:29.000Z</time>
        <extensions>
          <ns3:TrackPointExtension>
            <ns3:hr>79</ns3:hr>
            <ns3:cad>48</ns3:cad>
          </ns3:TrackPointExtension>
        </extensions>
      </trkpt>
      <trkpt lat="43.77138189040124416351318359375" lon="1.57342781312763690948486328125">
        <ele>158.600006103515625</ele>
        <time>2026-08-13T09:30:30.000Z</time>
        <extensions>
          <ns3:TrackPointExtension>
            <ns3:hr>78</ns3:hr>
            <ns3:cad>48</ns3:cad>
          </ns3:TrackPointExtension>
        </extensions>
      </trkpt>
      <trkpt lat="43.77137166447937488555908203125" lon="1.573434770107269287109375">
        <ele>158.600006103515625</ele>
        <time>2026-08-13T09:30:31.000Z</time>
        <extensions>
          <ns3:TrackPointExtension>
            <ns3:hr>78</ns3:hr>
            <ns3:cad>47</ns3:cad>
          </ns3:TrackPointExtension>
        </extensions>
      </trkpt>
      <trkpt lat="43.77136495895683765411376953125" lon="1.57344088889658451080322265625">
        <ele>158.600006103515625</ele>
        <time>2026-08-13T09:30:32.000Z</time>
        <extensions>
          <ns3:TrackPointExtension>
            <ns3:hr>78</ns3:hr>
            <ns3:cad>47</ns3:cad>
          </ns3:TrackPointExtension>
        </extensions>
      </trkpt>
      <trkpt lat="43.77135573886334896087646484375" lon="1.57344893552362918853759765625">
        <ele>158.600006103515625</ele>
        <time>2026-08-13T09:30:33.000Z</time>
        <extensions>
          <ns3:TrackPointExtension>
            <ns3:hr>78</ns3:hr>
            <ns3:cad>47</ns3:cad>
          </ns3:TrackPointExtension>
        </extensions>
      </trkpt>
      <trkpt lat="43.77134433947503566741943359375" lon="1.5734604187309741973876953125">
        <ele>158.600006103515625</ele>
        <time>2026-08-13T09:30:34.000Z</time>
        <extensions>
          <ns3:TrackPointExtension>
            <ns3:hr>78</ns3:hr>
            <ns3:cad>47</ns3:cad>
          </ns3:TrackPointExtension>
        </extensions>
      </trkpt>
      <trkpt lat="43.7713365443050861358642578125" lon="1.5734671242535114288330078125">
        <ele>158.600006103515625</ele>
        <time>2026-08-13T09:30:35.000Z</time>
        <extensions>
          <ns3:TrackPointExtension>
            <ns3:hr>79</ns3:hr>
            <ns3:cad>47</ns3:cad>
          </ns3:TrackPointExtension>
        </extensions>
      </trkpt>
      <trkpt lat="43.77132992260158061981201171875" lon="1.5734709799289703369140625">
        <ele>158.600006103515625</ele>
        <time>2026-08-13T09:30:36.000Z</time>
        <extensions>
          <ns3:TrackPointExtension>
            <ns3:hr>78</ns3:hr>
            <ns3:cad>47</ns3:cad>
          </ns3:TrackPointExtension>
        </extensions>
      </trkpt>
      <trkpt lat="43.7713244743645191192626953125" lon="1.57347743399441242218017578125">
        <ele>158.600006103515625</ele>
        <time>2026-08-13T09:30:37.000Z</time>
        <extensions>
          <ns3:TrackPointExtension>
            <ns3:hr>78</ns3:hr>
            <ns3:cad>47</ns3:cad>
          </ns3:TrackPointExtension>
        </extensions>
      </trkpt>
      <trkpt lat="43.77131332643330097198486328125" lon="1.57348581589758396148681640625">
        <ele>158.600006103515625</ele>
        <time>2026-08-13T09:30:38.000Z</time>
        <extensions>
          <ns3:TrackPointExtension>
            <ns3:hr>78</ns3:hr>
            <ns3:cad>46</ns3:cad>
          </ns3:TrackPointExtension>
        </extensions>
      </trkpt>
      <trkpt lat="43.77130360342562198638916015625" lon="1.57349310815334320068359375">
        <ele>158.600006103515625</ele>
        <time>2026-08-13T09:30:39.000Z</time>
        <extensions>
          <ns3:TrackPointExtension>
            <ns3:hr>78</ns3:hr>
            <ns3:cad>46</ns3:cad>
          </ns3:TrackPointExtension>
        </extensions>
      </trkpt>
      <trkpt lat="43.77129320986568927764892578125" lon="1.57350123859941959381103515625">
        <ele>158.600006103515625</ele>
        <time>2026-08-13T09:30:40.000Z</time>
        <extensions>
          <ns3:TrackPointExtension>
            <ns3:hr>79</ns3:hr>
            <ns3:cad>48</ns3:cad>
          </ns3:TrackPointExtension>
        </extensions>
      </trkpt>
      <trkpt lat="43.7712865881621837615966796875" lon="1.5735073573887348175048828125">
        <ele>158.600006103515625</ele>
        <time>2026-08-13T09:30:41.000Z</time>
        <extensions>
          <ns3:TrackPointExtension>
            <ns3:hr>78</ns3:hr>
            <ns3:cad>47</ns3:cad>
          </ns3:TrackPointExtension>
        </extensions>
      </trkpt>
      <trkpt lat="43.77127812243998050689697265625" lon="1.5735177509486675262451171875">
        <ele>158.600006103515625</ele>
        <time>2026-08-13T09:30:42.000Z</time>
        <extensions>
          <ns3:TrackPointExtension>
            <ns3:hr>78</ns3:hr>
            <ns3:cad>47</ns3:cad>
          </ns3:TrackPointExtension>
        </extensions>
      </trkpt>
      <trkpt lat="43.7712706625461578369140625" lon="1.5735288150608539581298828125">
        <ele>158.8000030517578125</ele>
        <time>2026-08-13T09:30:43.000Z</time>
        <extensions>
          <ns3:TrackPointExtension>
            <ns3:hr>78</ns3:hr>
            <ns3:cad>47</ns3:cad>
          </ns3:TrackPointExtension>
        </extensions>
      </trkpt>
      <trkpt lat="43.77126060426235198974609375" lon="1.57354046590626239776611328125">
        <ele>158.8000030517578125</ele>
        <time>2026-08-13T09:30:44.000Z</time>
        <extensions>
          <ns3:TrackPointExtension>
            <ns3:hr>78</ns3:hr>
            <ns3:cad>47</ns3:cad>
          </ns3:TrackPointExtension>
        </extensions>
      </trkpt>
      <trkpt lat="43.7712517194449901580810546875" lon="1.57354583032429218292236328125">
        <ele>158.8000030517578125</ele>
        <time>2026-08-13T09:30:45.000Z</time>
        <extensions>
          <ns3:TrackPointExtension>
            <ns3:hr>78</ns3:hr>
            <ns3:cad>49</ns3:cad>
          </ns3:TrackPointExtension>
        </extensions>
      </trkpt>
      <trkpt lat="43.77123973332345485687255859375" lon="1.573553793132305145263671875">
        <ele>158.8000030517578125</ele>
        <time>2026-08-13T09:30:46.000Z</time>
        <extensions>
          <ns3:TrackPointExtension>
            <ns3:hr>78</ns3:hr>
            <ns3:cad>49</ns3:cad>
          </ns3:TrackPointExtension>
        </extensions>
      </trkpt>
      <trkpt lat="43.771228082478046417236328125" lon="1.5735626779496669769287109375">
        <ele>158.8000030517578125</ele>
        <time>2026-08-13T09:30:47.000Z</time>
        <extensions>
          <ns3:TrackPointExtension>
            <ns3:hr>79</ns3:hr>
            <ns3:cad>49</ns3:cad>
          </ns3:TrackPointExtension>
        </extensions>
      </trkpt>
      <trkpt lat="43.77121911384165287017822265625" lon="1.5735740773379802703857421875">
        <ele>158.8000030517578125</ele>
        <time>2026-08-13T09:30:48.000Z</time>
        <extensions>
          <ns3:TrackPointExtension>
            <ns3:hr>78</ns3:hr>
            <ns3:cad>49</ns3:cad>
          </ns3:TrackPointExtension>
        </extensions>
      </trkpt>
      <trkpt lat="43.77121559344232082366943359375" lon="1.5735811181366443634033203125">
        <ele>159</ele>
        <time>2026-08-13T09:30:49.000Z</time>
        <extensions>
          <ns3:TrackPointExtension>
            <ns3:hr>78</ns3:hr>
            <ns3:cad>49</ns3:cad>
          </ns3:TrackPointExtension>
        </extensions>
      </trkpt>
      <trkpt lat="43.77120369113981723785400390625" lon="1.57359092496335506439208984375">
        <ele>158.8000030517578125</ele>
        <time>2026-08-13T09:30:50.000Z</time>
        <extensions>
          <ns3:TrackPointExtension>
            <ns3:hr>78</ns3:hr>
            <ns3:cad>47</ns3:cad>
          </ns3:TrackPointExtension>
        </extensions>
      </trkpt>
      <trkpt lat="43.7711955606937408447265625" lon="1.57360584475100040435791015625">
        <ele>158.8000030517578125</ele>
        <time>2026-08-13T09:30:51.000Z</time>
        <extensions>
          <ns3:TrackPointExtension>
            <ns3:hr>78</ns3:hr>
            <ns3:cad>47</ns3:cad>
          </ns3:TrackPointExtension>
        </extensions>
      </trkpt>
      <trkpt lat="43.7711870111525058746337890625" lon="1.57361573539674282073974609375">
        <ele>158.8000030517578125</ele>
        <time>2026-08-13T09:30:52.000Z</time>
        <extensions>
          <ns3:TrackPointExtension>
            <ns3:hr>78</ns3:hr>
            <ns3:cad>47</ns3:cad>
          </ns3:TrackPointExtension>
        </extensions>
      </trkpt>
      <trkpt lat="43.77117603085935115814208984375" lon="1.57362512312829494476318359375">
        <ele>158.8000030517578125</ele>
        <time>2026-08-13T09:30:53.000Z</time>
        <extensions>
          <ns3:TrackPointExtension>
            <ns3:hr>79</ns3:hr>
            <ns3:cad>47</ns3:cad>
          </ns3:TrackPointExtension>
        </extensions>
      </trkpt>
      <trkpt lat="43.7711655534803867340087890625" lon="1.57363099046051502227783203125">
        <ele>158.8000030517578125</ele>
        <time>2026-08-13T09:30:54.000Z</time>
        <extensions>
          <ns3:TrackPointExtension>
            <ns3:hr>79</ns3:hr>
            <ns3:cad>47</ns3:cad>
          </ns3:TrackPointExtension>
        </extensions>
      </trkpt>
      <trkpt lat="43.77115926705300807952880859375" lon="1.5736374445259571075439453125">
        <ele>159</ele>
        <time>2026-08-13T09:30:55.000Z</time>
        <extensions>
          <ns3:TrackPointExtension>
            <ns3:hr>79</ns3:hr>
            <ns3:cad>47</ns3:cad>
          </ns3:TrackPointExtension>
        </extensions>
      </trkpt>
      <trkpt lat="43.77114920876920223236083984375" lon="1.57364255748689174652099609375">
        <ele>158.8000030517578125</ele>
        <time>2026-08-13T09:30:56.000Z</time>
        <extensions>
          <ns3:TrackPointExtension>
            <ns3:hr>79</ns3:hr>
            <ns3:cad>45</ns3:cad>
          </ns3:TrackPointExtension>
        </extensions>
      </trkpt>
      <trkpt lat="43.7711394019424915313720703125" lon="1.573651693761348724365234375">
        <ele>158.8000030517578125</ele>
        <time>2026-08-13T09:30:57.000Z</time>
        <extensions>
          <ns3:TrackPointExtension>
            <ns3:hr>79</ns3:hr>
            <ns3:cad>45</ns3:cad>
          </ns3:TrackPointExtension>
        </extensions>
      </trkpt>
      <trkpt lat="43.771132528781890869140625" lon="1.57365940511226654052734375">
        <ele>158.8000030517578125</ele>
        <time>2026-08-13T09:30:58.000Z</time>
        <extensions>
          <ns3:TrackPointExtension>
            <ns3:hr>80</ns3:hr>
            <ns3:cad>48</ns3:cad>
          </ns3:TrackPointExtension>
        </extensions>
      </trkpt>
      <trkpt lat="43.77112657763063907623291015625" lon="1.573665775358676910400390625">
        <ele>158.8000030517578125</ele>
        <time>2026-08-13T09:30:59.000Z</time>
        <extensions>
          <ns3:TrackPointExtension>
            <ns3:hr>80</ns3:hr>
            <ns3:cad>48</ns3:cad>
          </ns3:TrackPointExtension>
        </extensions>
      </trkpt>
      <trkpt lat="43.77112020738422870635986328125" lon="1.5736689604818820953369140625">
        <ele>158.8000030517578125</ele>
        <time>2026-08-13T09:31:00.000Z</time>
        <extensions>
          <ns3:TrackPointExtension>
            <ns3:hr>80</ns3:hr>
            <ns3:cad>47</ns3:cad>
          </ns3:TrackPointExtension>
        </extensions>
      </trkpt>
      <trkpt lat="43.77110713161528110504150390625" lon="1.57367910258471965789794921875">
        <ele>158.8000030517578125</ele>
        <time>2026-08-13T09:31:01.000Z</time>
        <extensions>
          <ns3:TrackPointExtension>
            <ns3:hr>80</ns3:hr>
            <ns3:cad>47</ns3:cad>
          </ns3:TrackPointExtension>
        </extensions>
      </trkpt>
      <trkpt lat="43.7710971571505069732666015625" lon="1.57368815504014492034912109375">
        <ele>158.8000030517578125</ele>
        <time>2026-08-13T09:31:02.000Z</time>
        <extensions>
          <ns3:TrackPointExtension>
            <ns3:hr>80</ns3:hr>
            <ns3:cad>47</ns3:cad>
          </ns3:TrackPointExtension>
        </extensions>
      </trkpt>
      <trkpt lat="43.771089948713779449462890625" lon="1.5736961178481578826904296875">
        <ele>158.8000030517578125</ele>
        <time>2026-08-13T09:31:03.000Z</time>
        <extensions>
          <ns3:TrackPointExtension>
            <ns3:hr>80</ns3:hr>
            <ns3:cad>47</ns3:cad>
          </ns3:TrackPointExtension>
        </extensions>
      </trkpt>
      <trkpt lat="43.771084249019622802734375" lon="1.5736971236765384674072265625">
        <ele>158.8000030517578125</ele>
        <time>2026-08-13T09:31:04.000Z</time>
        <extensions>
          <ns3:TrackPointExtension>
            <ns3:hr>80</ns3:hr>
            <ns3:cad>47</ns3:cad>
          </ns3:TrackPointExtension>
        </extensions>
      </trkpt>
      <trkpt lat="43.77107393927872180938720703125" lon="1.573703996837139129638671875">
        <ele>158.8000030517578125</ele>
        <time>2026-08-13T09:31:05.000Z</time>
        <extensions>
          <ns3:TrackPointExtension>
            <ns3:hr>81</ns3:hr>
            <ns3:cad>47</ns3:cad>
          </ns3:TrackPointExtension>
        </extensions>
      </trkpt>
      <trkpt lat="43.77106220461428165435791015625" lon="1.57371916808187961578369140625">
        <ele>158.8000030517578125</ele>
        <time>2026-08-13T09:31:06.000Z</time>
        <extensions>
          <ns3:TrackPointExtension>
            <ns3:hr>81</ns3:hr>
            <ns3:cad>46</ns3:cad>
          </ns3:TrackPointExtension>
        </extensions>
      </trkpt>
      <trkpt lat="43.77105248160660266876220703125" lon="1.5737266279757022857666015625">
        <ele>158.8000030517578125</ele>
        <time>2026-08-13T09:31:07.000Z</time>
        <extensions>
          <ns3:TrackPointExtension>
            <ns3:hr>81</ns3:hr>
            <ns3:cad>46</ns3:cad>
          </ns3:TrackPointExtension>
        </extensions>
      </trkpt>
      <trkpt lat="43.7710431776940822601318359375" lon="1.57373475842177867889404296875">
        <ele>158.8000030517578125</ele>
        <time>2026-08-13T09:31:08.000Z</time>
        <extensions>
          <ns3:TrackPointExtension>
            <ns3:hr>81</ns3:hr>
            <ns3:cad>46</ns3:cad>
          </ns3:TrackPointExtension>
        </extensions>
      </trkpt>
      <trkpt lat="43.77103655599057674407958984375" lon="1.5737407095730304718017578125">
        <ele>158.8000030517578125</ele>
        <time>2026-08-13T09:31:09.000Z</time>
        <extensions>
          <ns3:TrackPointExtension>
            <ns3:hr>82</ns3:hr>
            <ns3:cad>46</ns3:cad>
          </ns3:TrackPointExtension>
        </extensions>
      </trkpt>
      <trkpt lat="43.7710297666490077972412109375" lon="1.5737504325807094573974609375">
        <ele>158.8000030517578125</ele>
        <time>2026-08-13T09:31:10.000Z</time>
        <extensions>
          <ns3:TrackPointExtension>
            <ns3:hr>83</ns3:hr>
            <ns3:cad>46</ns3:cad>
          </ns3:TrackPointExtension>
        </extensions>
      </trkpt>
      <trkpt lat="43.77101593650877475738525390625" lon="1.57375688664615154266357421875">
        <ele>158.8000030517578125</ele>
        <time>2026-08-13T09:31:11.000Z</time>
        <extensions>
          <ns3:TrackPointExtension>
            <ns3:hr>83</ns3:hr>
            <ns3:cad>46</ns3:cad>
          </ns3:TrackPointExtension>
        </extensions>
      </trkpt>
      <trkpt lat="43.77100788988173007965087890625" lon="1.5737614966928958892822265625">
        <ele>158.8000030517578125</ele>
        <time>2026-08-13T09:31:12.000Z</time>
        <extensions>
          <ns3:TrackPointExtension>
            <ns3:hr>83</ns3:hr>
            <ns3:cad>47</ns3:cad>
          </ns3:TrackPointExtension>
        </extensions>
      </trkpt>
      <trkpt lat="43.771002106368541717529296875" lon="1.57376862131059169769287109375">
        <ele>158.8000030517578125</ele>
        <time>2026-08-13T09:31:13.000Z</time>
        <extensions>
          <ns3:TrackPointExtension>
            <ns3:hr>83</ns3:hr>
            <ns3:cad>47</ns3:cad>
          </ns3:TrackPointExtension>
        </extensions>
      </trkpt>
      <trkpt lat="43.77099548466503620147705078125" lon="1.57377608120441436767578125">
        <ele>158.8000030517578125</ele>
        <time>2026-08-13T09:31:14.000Z</time>
        <extensions>
          <ns3:TrackPointExtension>
            <ns3:hr>83</ns3:hr>
            <ns3:cad>47</ns3:cad>
          </ns3:TrackPointExtension>
        </extensions>
      </trkpt>
      <trkpt lat="43.77098475582897663116455078125" lon="1.573787145316600799560546875">
        <ele>158.8000030517578125</ele>
        <time>2026-08-13T09:31:15.000Z</time>
        <extensions>
          <ns3:TrackPointExtension>
            <ns3:hr>82</ns3:hr>
            <ns3:cad>47</ns3:cad>
          </ns3:TrackPointExtension>
        </extensions>
      </trkpt>
      <trkpt lat="43.7709727697074413299560546875" lon="1.5737950243055820465087890625">
        <ele>158.8000030517578125</ele>
        <time>2026-08-13T09:31:16.000Z</time>
        <extensions>
          <ns3:TrackPointExtension>
            <ns3:hr>82</ns3:hr>
            <ns3:cad>47</ns3:cad>
          </ns3:TrackPointExtension>
        </extensions>
      </trkpt>
      <trkpt lat="43.7709620408713817596435546875" lon="1.5738050825893878936767578125">
        <ele>158.8000030517578125</ele>
        <time>2026-08-13T09:31:17.000Z</time>
        <extensions>
          <ns3:TrackPointExtension>
            <ns3:hr>81</ns3:hr>
            <ns3:cad>47</ns3:cad>
          </ns3:TrackPointExtension>
        </extensions>
      </trkpt>
      <trkpt lat="43.77095793373882770538330078125" lon="1.573809273540973663330078125">
        <ele>158.8000030517578125</ele>
        <time>2026-08-13T09:31:18.000Z</time>
        <extensions>
          <ns3:TrackPointExtension>
            <ns3:hr>81</ns3:hr>
            <ns3:cad>48</ns3:cad>
          </ns3:TrackPointExtension>
        </extensions>
      </trkpt>
      <trkpt lat="43.770950138568878173828125" lon="1.57382176257669925689697265625">
        <ele>158.8000030517578125</ele>
        <time>2026-08-13T09:31:19.000Z</time>
        <extensions>
          <ns3:TrackPointExtension>
            <ns3:hr>81</ns3:hr>
            <ns3:cad>48</ns3:cad>
          </ns3:TrackPointExtension>
        </extensions>
      </trkpt>
      <trkpt lat="43.77093999646604061126708984375" lon="1.57383374869823455810546875">
        <ele>158.8000030517578125</ele>
        <time>2026-08-13T09:31:20.000Z</time>
        <extensions>
          <ns3:TrackPointExtension>
            <ns3:hr>82</ns3:hr>
            <ns3:cad>48</ns3:cad>
          </ns3:TrackPointExtension>
        </extensions>
      </trkpt>
      <trkpt lat="43.7709325365722179412841796875" lon="1.573842465877532958984375">
        <ele>158.8000030517578125</ele>
        <time>2026-08-13T09:31:21.000Z</time>
        <extensions>
          <ns3:TrackPointExtension>
            <ns3:hr>82</ns3:hr>
            <ns3:cad>48</ns3:cad>
          </ns3:TrackPointExtension>
        </extensions>
      </trkpt>
      <trkpt lat="43.77092708833515644073486328125" lon="1.57384581863880157470703125">
        <ele>158.8000030517578125</ele>
        <time>2026-08-13T09:31:22.000Z</time>
        <extensions>
          <ns3:TrackPointExtension>
            <ns3:hr>82</ns3:hr>
            <ns3:cad>47</ns3:cad>
          </ns3:TrackPointExtension>
        </extensions>
      </trkpt>
      <trkpt lat="43.7709187902510166168212890625" lon="1.5738523565232753753662109375">
        <ele>158.8000030517578125</ele>
        <time>2026-08-13T09:31:23.000Z</time>
        <extensions>
          <ns3:TrackPointExtension>
            <ns3:hr>83</ns3:hr>
            <ns3:cad>47</ns3:cad>
          </ns3:TrackPointExtension>
        </extensions>
      </trkpt>
      <trkpt lat="43.7709077261388301849365234375" lon="1.57386166043579578399658203125">
        <ele>158.8000030517578125</ele>
        <time>2026-08-13T09:31:24.000Z</time>
        <extensions>
          <ns3:TrackPointExtension>
            <ns3:hr>83</ns3:hr>
            <ns3:cad>47</ns3:cad>
          </ns3:TrackPointExtension>
        </extensions>
      </trkpt>
      <trkpt lat="43.7708978354930877685546875" lon="1.57386903651058673858642578125">
        <ele>158.8000030517578125</ele>
        <time>2026-08-13T09:31:25.000Z</time>
        <extensions>
          <ns3:TrackPointExtension>
            <ns3:hr>83</ns3:hr>
            <ns3:cad>46</ns3:cad>
          </ns3:TrackPointExtension>
        </extensions>
      </trkpt>
      <trkpt lat="43.7708926387131214141845703125" lon="1.57387238927185535430908203125">
        <ele>158.8000030517578125</ele>
        <time>2026-08-13T09:31:26.000Z</time>
        <extensions>
          <ns3:TrackPointExtension>
            <ns3:hr>82</ns3:hr>
            <ns3:cad>46</ns3:cad>
          </ns3:TrackPointExtension>
        </extensions>
      </trkpt>
      <trkpt lat="43.77088584937155246734619140625" lon="1.573878340423107147216796875">
        <ele>158.8000030517578125</ele>
        <time>2026-08-13T09:31:27.000Z</time>
        <extensions>
          <ns3:TrackPointExtension>
            <ns3:hr>83</ns3:hr>
            <ns3:cad>46</ns3:cad>
          </ns3:TrackPointExtension>
        </extensions>
      </trkpt>
      <trkpt lat="43.77087109722197055816650390625" lon="1.5738889016211032867431640625">
        <ele>158.8000030517578125</ele>
        <time>2026-08-13T09:31:28.000Z</time>
        <extensions>
          <ns3:TrackPointExtension>
            <ns3:hr>82</ns3:hr>
            <ns3:cad>46</ns3:cad>
          </ns3:TrackPointExtension>
        </extensions>
      </trkpt>
      <trkpt lat="43.77086120657622814178466796875" lon="1.57389317639172077178955078125">
        <ele>158.8000030517578125</ele>
        <time>2026-08-13T09:31:29.000Z</time>
        <extensions>
          <ns3:TrackPointExtension>
            <ns3:hr>82</ns3:hr>
            <ns3:cad>46</ns3:cad>
          </ns3:TrackPointExtension>
        </extensions>
      </trkpt>
      <trkpt lat="43.77085550688207149505615234375" lon="1.57389543950557708740234375">
        <ele>158.8000030517578125</ele>
        <time>2026-08-13T09:31:30.000Z</time>
        <extensions>
          <ns3:TrackPointExtension>
            <ns3:hr>81</ns3:hr>
            <ns3:cad>46</ns3:cad>
          </ns3:TrackPointExtension>
        </extensions>
      </trkpt>
      <trkpt lat="43.7708477117121219635009765625" lon="1.5738982893526554107666015625">
        <ele>158.8000030517578125</ele>
        <time>2026-08-13T09:31:31.000Z</time>
        <extensions>
          <ns3:TrackPointExtension>
            <ns3:hr>81</ns3:hr>
            <ns3:cad>46</ns3:cad>
          </ns3:TrackPointExtension>
        </extensions>
      </trkpt>
      <trkpt lat="43.7708339653909206390380859375" lon="1.57390742562711238861083984375">
        <ele>159</ele>
        <time>2026-08-13T09:31:32.000Z</time>
        <extensions>
          <ns3:TrackPointExtension>
            <ns3:hr>81</ns3:hr>
            <ns3:cad>46</ns3:cad>
          </ns3:TrackPointExtension>
        </extensions>
      </trkpt>
      <trkpt lat="43.7708232365548610687255859375" lon="1.573917903006076812744140625">
        <ele>159</ele>
        <time>2026-08-13T09:31:33.000Z</time>
        <extensions>
          <ns3:TrackPointExtension>
            <ns3:hr>80</ns3:hr>
            <ns3:cad>46</ns3:cad>
          </ns3:TrackPointExtension>
        </extensions>
      </trkpt>
      <trkpt lat="43.770816028118133544921875" lon="1.57392368651926517486572265625">
        <ele>159</ele>
        <time>2026-08-13T09:31:34.000Z</time>
        <extensions>
          <ns3:TrackPointExtension>
            <ns3:hr>80</ns3:hr>
            <ns3:cad>45</ns3:cad>
          </ns3:TrackPointExtension>
        </extensions>
      </trkpt>
      <trkpt lat="43.7708091549575328826904296875" lon="1.57392921857535839080810546875">
        <ele>159</ele>
        <time>2026-08-13T09:31:35.000Z</time>
        <extensions>
          <ns3:TrackPointExtension>
            <ns3:hr>79</ns3:hr>
            <ns3:cad>45</ns3:cad>
          </ns3:TrackPointExtension>
        </extensions>
      </trkpt>
      <trkpt lat="43.77079817466437816619873046875" lon="1.57393692992627620697021484375">
        <ele>159</ele>
        <time>2026-08-13T09:31:36.000Z</time>
        <extensions>
          <ns3:TrackPointExtension>
            <ns3:hr>79</ns3:hr>
            <ns3:cad>45</ns3:cad>
          </ns3:TrackPointExtension>
        </extensions>
      </trkpt>
      <trkpt lat="43.770789541304111480712890625" lon="1.57394363544881343841552734375">
        <ele>159</ele>
        <time>2026-08-13T09:31:37.000Z</time>
        <extensions>
          <ns3:TrackPointExtension>
            <ns3:hr>79</ns3:hr>
            <ns3:cad>46</ns3:cad>
          </ns3:TrackPointExtension>
        </extensions>
      </trkpt>
      <trkpt lat="43.77078224904835224151611328125" lon="1.57394908368587493896484375">
        <ele>159</ele>
        <time>2026-08-13T09:31:38.000Z</time>
        <extensions>
          <ns3:TrackPointExtension>
            <ns3:hr>79</ns3:hr>
            <ns3:cad>46</ns3:cad>
          </ns3:TrackPointExtension>
        </extensions>
      </trkpt>
      <trkpt lat="43.7707776390016078948974609375" lon="1.573956124484539031982421875">
        <ele>159</ele>
        <time>2026-08-13T09:31:39.000Z</time>
        <extensions>
          <ns3:TrackPointExtension>
            <ns3:hr>79</ns3:hr>
            <ns3:cad>46</ns3:cad>
          </ns3:TrackPointExtension>
        </extensions>
      </trkpt>
      <trkpt lat="43.77076934091746807098388671875" lon="1.573965847492218017578125">
        <ele>159</ele>
        <time>2026-08-13T09:31:40.000Z</time>
        <extensions>
          <ns3:TrackPointExtension>
            <ns3:hr>79</ns3:hr>
            <ns3:cad>46</ns3:cad>
          </ns3:TrackPointExtension>
        </extensions>
      </trkpt>
      <trkpt lat="43.77075643278658390045166015625" lon="1.5739794261753559112548828125">
        <ele>159</ele>
        <time>2026-08-13T09:31:41.000Z</time>
        <extensions>
          <ns3:TrackPointExtension>
            <ns3:hr>79</ns3:hr>
            <ns3:cad>45</ns3:cad>
          </ns3:TrackPointExtension>
        </extensions>
      </trkpt>
      <trkpt lat="43.77074738033115863800048828125" lon="1.57398705370724201202392578125">
        <ele>159</ele>
        <time>2026-08-13T09:31:42.000Z</time>
        <extensions>
          <ns3:TrackPointExtension>
            <ns3:hr>78</ns3:hr>
            <ns3:cad>45</ns3:cad>
          </ns3:TrackPointExtension>
        </extensions>
      </trkpt>
      <trkpt lat="43.7707410939037799835205078125" lon="1.5739908255636692047119140625">
        <ele>159</ele>
        <time>2026-08-13T09:31:43.000Z</time>
        <extensions>
          <ns3:TrackPointExtension>
            <ns3:hr>79</ns3:hr>
            <ns3:cad>45</ns3:cad>
          </ns3:TrackPointExtension>
        </extensions>
      </trkpt>
      <trkpt lat="43.7707353942096233367919921875" lon="1.57399828545749187469482421875">
        <ele>159</ele>
        <time>2026-08-13T09:31:44.000Z</time>
        <extensions>
          <ns3:TrackPointExtension>
            <ns3:hr>79</ns3:hr>
            <ns3:cad>46</ns3:cad>
          </ns3:TrackPointExtension>
        </extensions>
      </trkpt>
      <trkpt lat="43.77072692848742008209228515625" lon="1.5740106068551540374755859375">
        <ele>159</ele>
        <time>2026-08-13T09:31:45.000Z</time>
        <extensions>
          <ns3:TrackPointExtension>
            <ns3:hr>79</ns3:hr>
            <ns3:cad>46</ns3:cad>
          </ns3:TrackPointExtension>
        </extensions>
      </trkpt>
      <trkpt lat="43.77071703784167766571044921875" lon="1.574024856090545654296875">
        <ele>159</ele>
        <time>2026-08-13T09:31:46.000Z</time>
        <extensions>
          <ns3:TrackPointExtension>
            <ns3:hr>78</ns3:hr>
            <ns3:cad>46</ns3:cad>
          </ns3:TrackPointExtension>
        </extensions>
      </trkpt>
      <trkpt lat="43.77070580609142780303955078125" lon="1.57403382472693920135498046875">
        <ele>159</ele>
        <time>2026-08-13T09:31:47.000Z</time>
        <extensions>
          <ns3:TrackPointExtension>
            <ns3:hr>79</ns3:hr>
            <ns3:cad>46</ns3:cad>
          </ns3:TrackPointExtension>
        </extensions>
      </trkpt>
      <trkpt lat="43.770697675645351409912109375" lon="1.5740449726581573486328125">
        <ele>159</ele>
        <time>2026-08-13T09:31:48.000Z</time>
        <extensions>
          <ns3:TrackPointExtension>
            <ns3:hr>79</ns3:hr>
            <ns3:cad>47</ns3:cad>
          </ns3:TrackPointExtension>
        </extensions>
      </trkpt>
      <trkpt lat="43.77068451605737209320068359375" lon="1.57405578531324863433837890625">
        <ele>159</ele>
        <time>2026-08-13T09:31:49.000Z</time>
        <extensions>
          <ns3:TrackPointExtension>
            <ns3:hr>79</ns3:hr>
            <ns3:cad>47</ns3:cad>
          </ns3:TrackPointExtension>
        </extensions>
      </trkpt>
      <trkpt lat="43.77067730762064456939697265625" lon="1.5740615688264369964599609375">
        <ele>159</ele>
        <time>2026-08-13T09:31:50.000Z</time>
        <extensions>
          <ns3:TrackPointExtension>
            <ns3:hr>79</ns3:hr>
            <ns3:cad>47</ns3:cad>
          </ns3:TrackPointExtension>
        </extensions>
      </trkpt>
      <trkpt lat="43.770672865211963653564453125" lon="1.57406668178737163543701171875">
        <ele>159</ele>
        <time>2026-08-13T09:31:51.000Z</time>
        <extensions>
          <ns3:TrackPointExtension>
            <ns3:hr>79</ns3:hr>
            <ns3:cad>47</ns3:cad>
          </ns3:TrackPointExtension>
        </extensions>
      </trkpt>
      <trkpt lat="43.77066657878458499908447265625" lon="1.5740699507296085357666015625">
        <ele>159</ele>
        <time>2026-08-13T09:31:52.000Z</time>
        <extensions>
          <ns3:TrackPointExtension>
            <ns3:hr>79</ns3:hr>
            <ns3:cad>47</ns3:cad>
          </ns3:TrackPointExtension>
        </extensions>
      </trkpt>
      <trkpt lat="43.77065316773951053619384765625" lon="1.57407757826149463653564453125">
        <ele>159</ele>
        <time>2026-08-13T09:31:53.000Z</time>
        <extensions>
          <ns3:TrackPointExtension>
            <ns3:hr>79</ns3:hr>
            <ns3:cad>47</ns3:cad>
          </ns3:TrackPointExtension>
        </extensions>
      </trkpt>
      <trkpt lat="43.77064176835119724273681640625" lon="1.57408864237368106842041015625">
        <ele>159</ele>
        <time>2026-08-13T09:31:54.000Z</time>
        <extensions>
          <ns3:TrackPointExtension>
            <ns3:hr>79</ns3:hr>
            <ns3:cad>47</ns3:cad>
          </ns3:TrackPointExtension>
        </extensions>
      </trkpt>
      <trkpt lat="43.7706317938864231109619140625" lon="1.57409836538136005401611328125">
        <ele>159</ele>
        <time>2026-08-13T09:31:55.000Z</time>
        <extensions>
          <ns3:TrackPointExtension>
            <ns3:hr>79</ns3:hr>
            <ns3:cad>47</ns3:cad>
          </ns3:TrackPointExtension>
        </extensions>
      </trkpt>
      <trkpt lat="43.7706284411251544952392578125" lon="1.5741064958274364471435546875">
        <ele>159</ele>
        <time>2026-08-13T09:31:56.000Z</time>
        <extensions>
          <ns3:TrackPointExtension>
            <ns3:hr>79</ns3:hr>
            <ns3:cad>47</ns3:cad>
          </ns3:TrackPointExtension>
        </extensions>
      </trkpt>
      <trkpt lat="43.7706180475652217864990234375" lon="1.57411244697868824005126953125">
        <ele>159</ele>
        <time>2026-08-13T09:31:57.000Z</time>
        <extensions>
          <ns3:TrackPointExtension>
            <ns3:hr>79</ns3:hr>
            <ns3:cad>46</ns3:cad>
          </ns3:TrackPointExtension>
        </extensions>
      </trkpt>
      <trkpt lat="43.77060748636722564697265625" lon="1.5741225890815258026123046875">
        <ele>159</ele>
        <time>2026-08-13T09:31:58.000Z</time>
        <extensions>
          <ns3:TrackPointExtension>
            <ns3:hr>78</ns3:hr>
            <ns3:cad>46</ns3:cad>
          </ns3:TrackPointExtension>
        </extensions>
      </trkpt>
      <trkpt lat="43.77059952355921268463134765625" lon="1.5741269476711750030517578125">
        <ele>159</ele>
        <time>2026-08-13T09:31:59.000Z</time>
        <extensions>
          <ns3:TrackPointExtension>
            <ns3:hr>79</ns3:hr>
            <ns3:cad>46</ns3:cad>
          </ns3:TrackPointExtension>
        </extensions>
      </trkpt>
      <trkpt lat="43.7705962546169757843017578125" lon="1.574131809175014495849609375">
        <ele>159</ele>
        <time>2026-08-13T09:32:00.000Z</time>
        <extensions>
          <ns3:TrackPointExtension>
            <ns3:hr>79</ns3:hr>
            <ns3:cad>46</ns3:cad>
          </ns3:TrackPointExtension>
        </extensions>
      </trkpt>
      <trkpt lat="43.770587034523487091064453125" lon="1.574138514697551727294921875">
        <ele>159</ele>
        <time>2026-08-13T09:32:01.000Z</time>
        <extensions>
          <ns3:TrackPointExtension>
            <ns3:hr>79</ns3:hr>
            <ns3:cad>46</ns3:cad>
          </ns3:TrackPointExtension>
        </extensions>
      </trkpt>
      <trkpt lat="43.770574964582920074462890625" lon="1.574148237705230712890625">
        <ele>159</ele>
        <time>2026-08-13T09:32:02.000Z</time>
        <extensions>
          <ns3:TrackPointExtension>
            <ns3:hr>79</ns3:hr>
            <ns3:cad>45</ns3:cad>
          </ns3:TrackPointExtension>
        </extensions>
      </trkpt>
      <trkpt lat="43.77056867815554141998291015625" lon="1.57415427267551422119140625">
        <ele>159.1999969482421875</ele>
        <time>2026-08-13T09:32:03.000Z</time>
        <extensions>
          <ns3:TrackPointExtension>
            <ns3:hr>79</ns3:hr>
            <ns3:cad>45</ns3:cad>
          </ns3:TrackPointExtension>
        </extensions>
      </trkpt>
      <trkpt lat="43.77056281082332134246826171875" lon="1.5741577930748462677001953125">
        <ele>159.1999969482421875</ele>
        <time>2026-08-13T09:32:04.000Z</time>
        <extensions>
          <ns3:TrackPointExtension>
            <ns3:hr>78</ns3:hr>
            <ns3:cad>45</ns3:cad>
          </ns3:TrackPointExtension>
        </extensions>
      </trkpt>
      <trkpt lat="43.77055585384368896484375" lon="1.5741631574928760528564453125">
        <ele>159.1999969482421875</ele>
        <time>2026-08-13T09:32:05.000Z</time>
        <extensions>
          <ns3:TrackPointExtension>
            <ns3:hr>79</ns3:hr>
            <ns3:cad>46</ns3:cad>
          </ns3:TrackPointExtension>
        </extensions>
      </trkpt>
      <trkpt lat="43.7705442868173122406005859375" lon="1.5741735510528087615966796875">
        <ele>159.1999969482421875</ele>
        <time>2026-08-13T09:32:06.000Z</time>
        <extensions>
          <ns3:TrackPointExtension>
            <ns3:hr>79</ns3:hr>
            <ns3:cad>46</ns3:cad>
          </ns3:TrackPointExtension>
        </extensions>
      </trkpt>
      <trkpt lat="43.7705332227051258087158203125" lon="1.5741809271275997161865234375">
        <ele>159.1999969482421875</ele>
        <time>2026-08-13T09:32:07.000Z</time>
        <extensions>
          <ns3:TrackPointExtension>
            <ns3:hr>79</ns3:hr>
            <ns3:cad>46</ns3:cad>
          </ns3:TrackPointExtension>
        </extensions>
      </trkpt>
      <trkpt lat="43.77052559517323970794677734375" lon="1.5741871297359466552734375">
        <ele>159.1999969482421875</ele>
        <time>2026-08-13T09:32:08.000Z</time>
        <extensions>
          <ns3:TrackPointExtension>
            <ns3:hr>79</ns3:hr>
            <ns3:cad>46</ns3:cad>
          </ns3:TrackPointExtension>
        </extensions>
      </trkpt>
      <trkpt lat="43.77051486633718013763427734375" lon="1.57419408671557903289794921875">
        <ele>159.1999969482421875</ele>
        <time>2026-08-13T09:32:09.000Z</time>
        <extensions>
          <ns3:TrackPointExtension>
            <ns3:hr>79</ns3:hr>
            <ns3:cad>46</ns3:cad>
          </ns3:TrackPointExtension>
        </extensions>
      </trkpt>
      <trkpt lat="43.770507238805294036865234375" lon="1.57419928349554538726806640625">
        <ele>159.1999969482421875</ele>
        <time>2026-08-13T09:32:10.000Z</time>
        <extensions>
          <ns3:TrackPointExtension>
            <ns3:hr>80</ns3:hr>
            <ns3:cad>46</ns3:cad>
          </ns3:TrackPointExtension>
        </extensions>
      </trkpt>
      <trkpt lat="43.77050044946372509002685546875" lon="1.574205569922924041748046875">
        <ele>159.1999969482421875</ele>
        <time>2026-08-13T09:32:11.000Z</time>
        <extensions>
          <ns3:TrackPointExtension>
            <ns3:hr>79</ns3:hr>
            <ns3:cad>46</ns3:cad>
          </ns3:TrackPointExtension>
        </extensions>
      </trkpt>
      <trkpt lat="43.770494163036346435546875" lon="1.57421403564512729644775390625">
        <ele>159.1999969482421875</ele>
        <time>2026-08-13T09:32:12.000Z</time>
        <extensions>
          <ns3:TrackPointExtension>
            <ns3:hr>79</ns3:hr>
            <ns3:cad>46</ns3:cad>
          </ns3:TrackPointExtension>
        </extensions>
      </trkpt>
      <trkpt lat="43.77048670314252376556396484375" lon="1.57421990297734737396240234375">
        <ele>159.1999969482421875</ele>
        <time>2026-08-13T09:32:13.000Z</time>
        <extensions>
          <ns3:TrackPointExtension>
            <ns3:hr>79</ns3:hr>
            <ns3:cad>46</ns3:cad>
          </ns3:TrackPointExtension>
        </extensions>
      </trkpt>
      <trkpt lat="43.77047748304903507232666015625" lon="1.574228368699550628662109375">
        <ele>159.1999969482421875</ele>
        <time>2026-08-13T09:32:14.000Z</time>
        <extensions>
          <ns3:TrackPointExtension>
            <ns3:hr>80</ns3:hr>
            <ns3:cad>46</ns3:cad>
          </ns3:TrackPointExtension>
        </extensions>
      </trkpt>
      <trkpt lat="43.77046667039394378662109375" lon="1.57423599623143672943115234375">
        <ele>159.399993896484375</ele>
        <time>2026-08-13T09:32:15.000Z</time>
        <extensions>
          <ns3:TrackPointExtension>
            <ns3:hr>79</ns3:hr>
            <ns3:cad>45</ns3:cad>
          </ns3:TrackPointExtension>
        </extensions>
      </trkpt>
      <trkpt lat="43.77045862376689910888671875" lon="1.57424102537333965301513671875">
        <ele>159.399993896484375</ele>
        <time>2026-08-13T09:32:16.000Z</time>
        <extensions>
          <ns3:TrackPointExtension>
            <ns3:hr>80</ns3:hr>
            <ns3:cad>44</ns3:cad>
          </ns3:TrackPointExtension>
        </extensions>
      </trkpt>
      <trkpt lat="43.77045594155788421630859375" lon="1.57424840144813060760498046875">
        <ele>159.399993896484375</ele>
        <time>2026-08-13T09:32:17.000Z</time>
        <extensions>
          <ns3:TrackPointExtension>
            <ns3:hr>80</ns3:hr>
            <ns3:cad>44</ns3:cad>
          </ns3:TrackPointExtension>
        </extensions>
      </trkpt>
      <trkpt lat="43.77044655382633209228515625" lon="1.57425611279904842376708984375">
        <ele>159.399993896484375</ele>
        <time>2026-08-13T09:32:18.000Z</time>
        <extensions>
          <ns3:TrackPointExtension>
            <ns3:hr>80</ns3:hr>
            <ns3:cad>44</ns3:cad>
          </ns3:TrackPointExtension>
        </extensions>
      </trkpt>
      <trkpt lat="43.77043624408543109893798828125" lon="1.5742657519876956939697265625">
        <ele>159.399993896484375</ele>
        <time>2026-08-13T09:32:19.000Z</time>
        <extensions>
          <ns3:TrackPointExtension>
            <ns3:hr>79</ns3:hr>
            <ns3:cad>44</ns3:cad>
          </ns3:TrackPointExtension>
        </extensions>
      </trkpt>
      <trkpt lat="43.770429454743862152099609375" lon="1.5742756426334381103515625">
        <ele>159.399993896484375</ele>
        <time>2026-08-13T09:32:20.000Z</time>
        <extensions>
          <ns3:TrackPointExtension>
            <ns3:hr>80</ns3:hr>
            <ns3:cad>44</ns3:cad>
          </ns3:TrackPointExtension>
        </extensions>
      </trkpt>
      <trkpt lat="43.7704232521355152130126953125" lon="1.57428435981273651123046875">
        <ele>159.399993896484375</ele>
        <time>2026-08-13T09:32:21.000Z</time>
        <extensions>
          <ns3:TrackPointExtension>
            <ns3:hr>81</ns3:hr>
            <ns3:cad>45</ns3:cad>
          </ns3:TrackPointExtension>
        </extensions>
      </trkpt>
      <trkpt lat="43.770411014556884765625" lon="1.5742957592010498046875">
        <ele>159.399993896484375</ele>
        <time>2026-08-13T09:32:22.000Z</time>
        <extensions>
          <ns3:TrackPointExtension>
            <ns3:hr>81</ns3:hr>
            <ns3:cad>45</ns3:cad>
          </ns3:TrackPointExtension>
        </extensions>
      </trkpt>
      <trkpt lat="43.77040187828242778778076171875" lon="1.57430489547550678253173828125">
        <ele>159.399993896484375</ele>
        <time>2026-08-13T09:32:23.000Z</time>
        <extensions>
          <ns3:TrackPointExtension>
            <ns3:hr>81</ns3:hr>
            <ns3:cad>45</ns3:cad>
          </ns3:TrackPointExtension>
        </extensions>
      </trkpt>
      <trkpt lat="43.77039416693150997161865234375" lon="1.57431327737867832183837890625">
        <ele>159.399993896484375</ele>
        <time>2026-08-13T09:32:24.000Z</time>
        <extensions>
          <ns3:TrackPointExtension>
            <ns3:hr>82</ns3:hr>
            <ns3:cad>45</ns3:cad>
          </ns3:TrackPointExtension>
        </extensions>
      </trkpt>
      <trkpt lat="43.77038796432316303253173828125" lon="1.5743160434067249298095703125">
        <ele>159.399993896484375</ele>
        <time>2026-08-13T09:32:25.000Z</time>
        <extensions>
          <ns3:TrackPointExtension>
            <ns3:hr>81</ns3:hr>
            <ns3:cad>45</ns3:cad>
          </ns3:TrackPointExtension>
        </extensions>
      </trkpt>
      <trkpt lat="43.77037656493484973907470703125" lon="1.574324928224086761474609375">
        <ele>159.399993896484375</ele>
        <time>2026-08-13T09:32:26.000Z</time>
        <extensions>
          <ns3:TrackPointExtension>
            <ns3:hr>82</ns3:hr>
            <ns3:cad>45</ns3:cad>
          </ns3:TrackPointExtension>
        </extensions>
      </trkpt>
      <trkpt lat="43.77036835066974163055419921875" lon="1.57433322630822658538818359375">
        <ele>159.399993896484375</ele>
        <time>2026-08-13T09:32:27.000Z</time>
        <extensions>
          <ns3:TrackPointExtension>
            <ns3:hr>82</ns3:hr>
            <ns3:cad>45</ns3:cad>
          </ns3:TrackPointExtension>
        </extensions>
      </trkpt>
      <trkpt lat="43.77036281861364841461181640625" lon="1.574334986507892608642578125">
        <ele>159.399993896484375</ele>
        <time>2026-08-13T09:32:28.000Z</time>
        <extensions>
          <ns3:TrackPointExtension>
            <ns3:hr>82</ns3:hr>
            <ns3:cad>45</ns3:cad>
          </ns3:TrackPointExtension>
        </extensions>
      </trkpt>
      <trkpt lat="43.77035795710980892181396484375" lon="1.574341692030429840087890625">
        <ele>159.399993896484375</ele>
        <time>2026-08-13T09:32:29.000Z</time>
        <extensions>
          <ns3:TrackPointExtension>
            <ns3:hr>82</ns3:hr>
            <ns3:cad>45</ns3:cad>
          </ns3:TrackPointExtension>
        </extensions>
      </trkpt>
      <trkpt lat="43.77034789882600307464599609375" lon="1.57434873282909393310546875">
        <ele>159.399993896484375</ele>
        <time>2026-08-13T09:32:30.000Z</time>
        <extensions>
          <ns3:TrackPointExtension>
            <ns3:hr>81</ns3:hr>
            <ns3:cad>45</ns3:cad>
          </ns3:TrackPointExtension>
        </extensions>
      </trkpt>
      <trkpt lat="43.77034001983702182769775390625" lon="1.57435652799904346466064453125">
        <ele>159.399993896484375</ele>
        <time>2026-08-13T09:32:31.000Z</time>
        <extensions>
          <ns3:TrackPointExtension>
            <ns3:hr>82</ns3:hr>
            <ns3:cad>45</ns3:cad>
          </ns3:TrackPointExtension>
        </extensions>
      </trkpt>
      <trkpt lat="43.7703330628573894500732421875" lon="1.574362814426422119140625">
        <ele>159.399993896484375</ele>
        <time>2026-08-13T09:32:32.000Z</time>
        <extensions>
          <ns3:TrackPointExtension>
            <ns3:hr>82</ns3:hr>
            <ns3:cad>45</ns3:cad>
          </ns3:TrackPointExtension>
        </extensions>
      </trkpt>
      <trkpt lat="43.77032526768743991851806640625" lon="1.574370861053466796875">
        <ele>159.600006103515625</ele>
        <time>2026-08-13T09:32:33.000Z</time>
        <extensions>
          <ns3:TrackPointExtension>
            <ns3:hr>81</ns3:hr>
            <ns3:cad>45</ns3:cad>
          </ns3:TrackPointExtension>
        </extensions>
      </trkpt>
      <trkpt lat="43.770315460860729217529296875" lon="1.57438351772725582122802734375">
        <ele>159.600006103515625</ele>
        <time>2026-08-13T09:32:34.000Z</time>
        <extensions>
          <ns3:TrackPointExtension>
            <ns3:hr>81</ns3:hr>
            <ns3:cad>44</ns3:cad>
          </ns3:TrackPointExtension>
        </extensions>
      </trkpt>
      <trkpt lat="43.77030766569077968597412109375" lon="1.5743881277740001678466796875">
        <ele>159.600006103515625</ele>
        <time>2026-08-13T09:32:35.000Z</time>
        <extensions>
          <ns3:TrackPointExtension>
            <ns3:hr>81</ns3:hr>
            <ns3:cad>44</ns3:cad>
          </ns3:TrackPointExtension>
        </extensions>
      </trkpt>
      <trkpt lat="43.77030028961598873138427734375" lon="1.57439592294394969940185546875">
        <ele>159.600006103515625</ele>
        <time>2026-08-13T09:32:36.000Z</time>
        <extensions>
          <ns3:TrackPointExtension>
            <ns3:hr>81</ns3:hr>
            <ns3:cad>44</ns3:cad>
          </ns3:TrackPointExtension>
        </extensions>
      </trkpt>
      <trkpt lat="43.77028788439929485321044921875" lon="1.57440480776131153106689453125">
        <ele>159.600006103515625</ele>
        <time>2026-08-13T09:32:37.000Z</time>
        <extensions>
          <ns3:TrackPointExtension>
            <ns3:hr>80</ns3:hr>
            <ns3:cad>44</ns3:cad>
          </ns3:TrackPointExtension>
        </extensions>
      </trkpt>
      <trkpt lat="43.77027497626841068267822265625" lon="1.5744156204164028167724609375">
        <ele>159.600006103515625</ele>
        <time>2026-08-13T09:32:38.000Z</time>
        <extensions>
          <ns3:TrackPointExtension>
            <ns3:hr>80</ns3:hr>
            <ns3:cad>44</ns3:cad>
          </ns3:TrackPointExtension>
        </extensions>
      </trkpt>
      <trkpt lat="43.77026659436523914337158203125" lon="1.57442391850054264068603515625">
        <ele>159.600006103515625</ele>
        <time>2026-08-13T09:32:39.000Z</time>
        <extensions>
          <ns3:TrackPointExtension>
            <ns3:hr>80</ns3:hr>
            <ns3:cad>44</ns3:cad>
          </ns3:TrackPointExtension>
        </extensions>
      </trkpt>
      <trkpt lat="43.77025620080530643463134765625" lon="1.57443162985146045684814453125">
        <ele>159.600006103515625</ele>
        <time>2026-08-13T09:32:40.000Z</time>
        <extensions>
          <ns3:TrackPointExtension>
            <ns3:hr>80</ns3:hr>
            <ns3:cad>44</ns3:cad>
          </ns3:TrackPointExtension>
        </extensions>
      </trkpt>
      <trkpt lat="43.77025972120463848114013671875" lon="1.57443464733660221099853515625">
        <ele>159.8000030517578125</ele>
        <time>2026-08-13T09:32:41.000Z</time>
        <extensions>
          <ns3:TrackPointExtension>
            <ns3:hr>80</ns3:hr>
            <ns3:cad>44</ns3:cad>
          </ns3:TrackPointExtension>
        </extensions>
      </trkpt>
      <trkpt lat="43.77025787718594074249267578125" lon="1.57443682663142681121826171875">
        <ele>159.8000030517578125</ele>
        <time>2026-08-13T09:32:42.000Z</time>
        <extensions>
          <ns3:TrackPointExtension>
            <ns3:hr>80</ns3:hr>
            <ns3:cad>44</ns3:cad>
          </ns3:TrackPointExtension>
        </extensions>
      </trkpt>
      <trkpt lat="43.77025402151048183441162109375" lon="1.5744400955736637115478515625">
        <ele>159.8000030517578125</ele>
        <time>2026-08-13T09:32:43.000Z</time>
        <extensions>
          <ns3:TrackPointExtension>
            <ns3:hr>79</ns3:hr>
            <ns3:cad>0</ns3:cad>
          </ns3:TrackPointExtension>
        </extensions>
      </trkpt>
      <trkpt lat="43.77024941146373748779296875" lon="1.57444269396364688873291015625">
        <ele>159.8000030517578125</ele>
        <time>2026-08-13T09:32:44.000Z</time>
        <extensions>
          <ns3:TrackPointExtension>
            <ns3:hr>80</ns3:hr>
            <ns3:cad>0</ns3:cad>
          </ns3:TrackPointExtension>
        </extensions>
      </trkpt>
      <trkpt lat="43.77024161629378795623779296875" lon="1.57445199787616729736328125">
        <ele>159.8000030517578125</ele>
        <time>2026-08-13T09:32:45.000Z</time>
        <extensions>
          <ns3:TrackPointExtension>
            <ns3:hr>80</ns3:hr>
            <ns3:cad>0</ns3:cad>
          </ns3:TrackPointExtension>
        </extensions>
      </trkpt>
      <trkpt lat="43.7702304683625698089599609375" lon="1.57446314580738544464111328125">
        <ele>159.8000030517578125</ele>
        <time>2026-08-13T09:32:46.000Z</time>
        <extensions>
          <ns3:TrackPointExtension>
            <ns3:hr>79</ns3:hr>
            <ns3:cad>0</ns3:cad>
          </ns3:TrackPointExtension>
        </extensions>
      </trkpt>
      <trkpt lat="43.7702204100787639617919921875" lon="1.57447270117700099945068359375">
        <ele>159.8000030517578125</ele>
        <time>2026-08-13T09:32:47.000Z</time>
        <extensions>
          <ns3:TrackPointExtension>
            <ns3:hr>80</ns3:hr>
            <ns3:cad>0</ns3:cad>
          </ns3:TrackPointExtension>
        </extensions>
      </trkpt>
      <trkpt lat="43.7702123634517192840576171875" lon="1.57447990961372852325439453125">
        <ele>159.8000030517578125</ele>
        <time>2026-08-13T09:32:48.000Z</time>
        <extensions>
          <ns3:TrackPointExtension>
            <ns3:hr>80</ns3:hr>
            <ns3:cad>0</ns3:cad>
          </ns3:TrackPointExtension>
        </extensions>
      </trkpt>
      <trkpt lat="43.77020389772951602935791015625" lon="1.57448862679302692413330078125">
        <ele>159.8000030517578125</ele>
        <time>2026-08-13T09:32:49.000Z</time>
        <extensions>
          <ns3:TrackPointExtension>
            <ns3:hr>79</ns3:hr>
            <ns3:cad>0</ns3:cad>
          </ns3:TrackPointExtension>
        </extensions>
      </trkpt>
      <trkpt lat="43.77019174396991729736328125" lon="1.574503295123577117919921875">
        <ele>159.8000030517578125</ele>
        <time>2026-08-13T09:32:50.000Z</time>
        <extensions>
          <ns3:TrackPointExtension>
            <ns3:hr>80</ns3:hr>
            <ns3:cad>47</ns3:cad>
          </ns3:TrackPointExtension>
        </extensions>
      </trkpt>
      <trkpt lat="43.77018210478127002716064453125" lon="1.57451276667416095733642578125">
        <ele>159.8000030517578125</ele>
        <time>2026-08-13T09:32:51.000Z</time>
        <extensions>
          <ns3:TrackPointExtension>
            <ns3:hr>80</ns3:hr>
            <ns3:cad>47</ns3:cad>
          </ns3:TrackPointExtension>
        </extensions>
      </trkpt>
      <trkpt lat="43.77017565071582794189453125" lon="1.57452106475830078125">
        <ele>159.8000030517578125</ele>
        <time>2026-08-13T09:32:52.000Z</time>
        <extensions>
          <ns3:TrackPointExtension>
            <ns3:hr>80</ns3:hr>
            <ns3:cad>46</ns3:cad>
          </ns3:TrackPointExtension>
        </extensions>
      </trkpt>
      <trkpt lat="43.77016517333686351776123046875" lon="1.57453170977532863616943359375">
        <ele>159.8000030517578125</ele>
        <time>2026-08-13T09:32:53.000Z</time>
        <extensions>
          <ns3:TrackPointExtension>
            <ns3:hr>80</ns3:hr>
            <ns3:cad>46</ns3:cad>
          </ns3:TrackPointExtension>
        </extensions>
      </trkpt>
      <trkpt lat="43.77015545032918453216552734375" lon="1.5745423547923564910888671875">
        <ele>159.8000030517578125</ele>
        <time>2026-08-13T09:32:54.000Z</time>
        <extensions>
          <ns3:TrackPointExtension>
            <ns3:hr>80</ns3:hr>
            <ns3:cad>45</ns3:cad>
          </ns3:TrackPointExtension>
        </extensions>
      </trkpt>
      <trkpt lat="43.7701456435024738311767578125" lon="1.574553586542606353759765625">
        <ele>160</ele>
        <time>2026-08-13T09:32:55.000Z</time>
        <extensions>
          <ns3:TrackPointExtension>
            <ns3:hr>80</ns3:hr>
            <ns3:cad>45</ns3:cad>
          </ns3:TrackPointExtension>
        </extensions>
      </trkpt>
      <trkpt lat="43.77013784833252429962158203125" lon="1.57455299980938434600830078125">
        <ele>160</ele>
        <time>2026-08-13T09:32:56.000Z</time>
        <extensions>
          <ns3:TrackPointExtension>
            <ns3:hr>80</ns3:hr>
            <ns3:cad>45</ns3:cad>
          </ns3:TrackPointExtension>
        </extensions>
      </trkpt>
      <trkpt lat="43.77013063989579677581787109375" lon="1.57455551438033580780029296875">
        <ele>160</ele>
        <time>2026-08-13T09:32:57.000Z</time>
        <extensions>
          <ns3:TrackPointExtension>
            <ns3:hr>81</ns3:hr>
            <ns3:cad>45</ns3:cad>
          </ns3:TrackPointExtension>
        </extensions>
      </trkpt>
      <trkpt lat="43.770124018192291259765625" lon="1.574560962617397308349609375">
        <ele>160</ele>
        <time>2026-08-13T09:32:58.000Z</time>
        <extensions>
          <ns3:TrackPointExtension>
            <ns3:hr>81</ns3:hr>
            <ns3:cad>45</ns3:cad>
          </ns3:TrackPointExtension>
        </extensions>
      </trkpt>
      <trkpt lat="43.7701137922704219818115234375" lon="1.57457127235829830169677734375">
        <ele>160</ele>
        <time>2026-08-13T09:32:59.000Z</time>
        <extensions>
          <ns3:TrackPointExtension>
            <ns3:hr>81</ns3:hr>
            <ns3:cad>45</ns3:cad>
          </ns3:TrackPointExtension>
        </extensions>
      </trkpt>
      <trkpt lat="43.770102895796298980712890625" lon="1.5745792351663112640380859375">
        <ele>160</ele>
        <time>2026-08-13T09:33:00.000Z</time>
        <extensions>
          <ns3:TrackPointExtension>
            <ns3:hr>81</ns3:hr>
            <ns3:cad>45</ns3:cad>
          </ns3:TrackPointExtension>
        </extensions>
      </trkpt>
      <trkpt lat="43.770094849169254302978515625" lon="1.57458317466080188751220703125">
        <ele>160</ele>
        <time>2026-08-13T09:33:01.000Z</time>
        <extensions>
          <ns3:TrackPointExtension>
            <ns3:hr>82</ns3:hr>
            <ns3:cad>45</ns3:cad>
          </ns3:TrackPointExtension>
        </extensions>
      </trkpt>
      <trkpt lat="43.770088814198970794677734375" lon="1.57458703033626079559326171875">
        <ele>160.1999969482421875</ele>
        <time>2026-08-13T09:33:02.000Z</time>
        <extensions>
          <ns3:TrackPointExtension>
            <ns3:hr>83</ns3:hr>
            <ns3:cad>47</ns3:cad>
          </ns3:TrackPointExtension>
        </extensions>
      </trkpt>
      <trkpt lat="43.77008001320064067840576171875" lon="1.5745970048010349273681640625">
        <ele>160.1999969482421875</ele>
        <time>2026-08-13T09:33:03.000Z</time>
        <extensions>
          <ns3:TrackPointExtension>
            <ns3:hr>84</ns3:hr>
            <ns3:cad>47</ns3:cad>
          </ns3:TrackPointExtension>
        </extensions>
      </trkpt>
      <trkpt lat="43.7700717151165008544921875" lon="1.57460748217999935150146484375">
        <ele>160.1999969482421875</ele>
        <time>2026-08-13T09:33:04.000Z</time>
        <extensions>
          <ns3:TrackPointExtension>
            <ns3:hr>84</ns3:hr>
            <ns3:cad>47</ns3:cad>
          </ns3:TrackPointExtension>
        </extensions>
      </trkpt>
      <trkpt lat="43.77006257884204387664794921875" lon="1.57461427152156829833984375">
        <ele>160.1999969482421875</ele>
        <time>2026-08-13T09:33:05.000Z</time>
        <extensions>
          <ns3:TrackPointExtension>
            <ns3:hr>85</ns3:hr>
            <ns3:cad>47</ns3:cad>
          </ns3:TrackPointExtension>
        </extensions>
      </trkpt>
      <trkpt lat="43.7700564600527286529541015625" lon="1.57461921684443950653076171875">
        <ele>160.1999969482421875</ele>
        <time>2026-08-13T09:33:06.000Z</time>
        <extensions>
          <ns3:TrackPointExtension>
            <ns3:hr>86</ns3:hr>
            <ns3:cad>47</ns3:cad>
          </ns3:TrackPointExtension>
        </extensions>
      </trkpt>
      <trkpt lat="43.77005092799663543701171875" lon="1.57462625764310359954833984375">
        <ele>160.1999969482421875</ele>
        <time>2026-08-13T09:33:07.000Z</time>
        <extensions>
          <ns3:TrackPointExtension>
            <ns3:hr>87</ns3:hr>
            <ns3:cad>46</ns3:cad>
          </ns3:TrackPointExtension>
        </extensions>
      </trkpt>
      <trkpt lat="43.77003860659897327423095703125" lon="1.5746382437646389007568359375">
        <ele>160.1999969482421875</ele>
        <time>2026-08-13T09:33:08.000Z</time>
        <extensions>
          <ns3:TrackPointExtension>
            <ns3:hr>88</ns3:hr>
            <ns3:cad>46</ns3:cad>
          </ns3:TrackPointExtension>
        </extensions>
      </trkpt>
      <trkpt lat="43.770029805600643157958984375" lon="1.5746429376304149627685546875">
        <ele>160.1999969482421875</ele>
        <time>2026-08-13T09:33:09.000Z</time>
        <extensions>
          <ns3:TrackPointExtension>
            <ns3:hr>88</ns3:hr>
            <ns3:cad>46</ns3:cad>
          </ns3:TrackPointExtension>
        </extensions>
      </trkpt>
      <trkpt lat="43.77002385444939136505126953125" lon="1.57465073280036449432373046875">
        <ele>160.1999969482421875</ele>
        <time>2026-08-13T09:33:10.000Z</time>
        <extensions>
          <ns3:TrackPointExtension>
            <ns3:hr>88</ns3:hr>
            <ns3:cad>46</ns3:cad>
          </ns3:TrackPointExtension>
        </extensions>
      </trkpt>
      <trkpt lat="43.770016394555568695068359375" lon="1.57465944997966289520263671875">
        <ele>160.1999969482421875</ele>
        <time>2026-08-13T09:33:11.000Z</time>
        <extensions>
          <ns3:TrackPointExtension>
            <ns3:hr>88</ns3:hr>
            <ns3:cad>46</ns3:cad>
          </ns3:TrackPointExtension>
        </extensions>
      </trkpt>
      <trkpt lat="43.77000591717660427093505859375" lon="1.57467219047248363494873046875">
        <ele>160.1999969482421875</ele>
        <time>2026-08-13T09:33:12.000Z</time>
        <extensions>
          <ns3:TrackPointExtension>
            <ns3:hr>88</ns3:hr>
            <ns3:cad>46</ns3:cad>
          </ns3:TrackPointExtension>
        </extensions>
      </trkpt>
      <trkpt lat="43.76999686472117900848388671875" lon="1.574683003127574920654296875">
        <ele>160.1999969482421875</ele>
        <time>2026-08-13T09:33:13.000Z</time>
        <extensions>
          <ns3:TrackPointExtension>
            <ns3:hr>89</ns3:hr>
            <ns3:cad>46</ns3:cad>
          </ns3:TrackPointExtension>
        </extensions>
      </trkpt>
      <trkpt lat="43.7699867226183414459228515625" lon="1.57468962483108043670654296875">
        <ele>160.1999969482421875</ele>
        <time>2026-08-13T09:33:14.000Z</time>
        <extensions>
          <ns3:TrackPointExtension>
            <ns3:hr>88</ns3:hr>
            <ns3:cad>46</ns3:cad>
          </ns3:TrackPointExtension>
        </extensions>
      </trkpt>
      <trkpt lat="43.769980184733867645263671875" lon="1.57469532452523708343505859375">
        <ele>160.1999969482421875</ele>
        <time>2026-08-13T09:33:15.000Z</time>
        <extensions>
          <ns3:TrackPointExtension>
            <ns3:hr>88</ns3:hr>
            <ns3:cad>46</ns3:cad>
          </ns3:TrackPointExtension>
        </extensions>
      </trkpt>
      <trkpt lat="43.769967444241046905517578125" lon="1.57470588572323322296142578125">
        <ele>160.1999969482421875</ele>
        <time>2026-08-13T09:33:16.000Z</time>
        <extensions>
          <ns3:TrackPointExtension>
            <ns3:hr>87</ns3:hr>
            <ns3:cad>47</ns3:cad>
          </ns3:TrackPointExtension>
        </extensions>
      </trkpt>
      <trkpt lat="43.76995461992919445037841796875" lon="1.57470974139869213104248046875">
        <ele>160.399993896484375</ele>
        <time>2026-08-13T09:33:17.000Z</time>
        <extensions>
          <ns3:TrackPointExtension>
            <ns3:hr>87</ns3:hr>
            <ns3:cad>47</ns3:cad>
          </ns3:TrackPointExtension>
        </extensions>
      </trkpt>
      <trkpt lat="43.76994539983570575714111328125" lon="1.5747166983783245086669921875">
        <ele>160.399993896484375</ele>
        <time>2026-08-13T09:33:18.000Z</time>
        <extensions>
          <ns3:TrackPointExtension>
            <ns3:hr>87</ns3:hr>
            <ns3:cad>47</ns3:cad>
          </ns3:TrackPointExtension>
        </extensions>
      </trkpt>
      <trkpt lat="43.76993785612285137176513671875" lon="1.57472365535795688629150390625">
        <ele>160.399993896484375</ele>
        <time>2026-08-13T09:33:19.000Z</time>
        <extensions>
          <ns3:TrackPointExtension>
            <ns3:hr>86</ns3:hr>
            <ns3:cad>46</ns3:cad>
          </ns3:TrackPointExtension>
        </extensions>
      </trkpt>
      <trkpt lat="43.76992846839129924774169921875" lon="1.574730612337589263916015625">
        <ele>160.399993896484375</ele>
        <time>2026-08-13T09:33:20.000Z</time>
        <extensions>
          <ns3:TrackPointExtension>
            <ns3:hr>86</ns3:hr>
            <ns3:cad>46</ns3:cad>
          </ns3:TrackPointExtension>
        </extensions>
      </trkpt>
      <trkpt lat="43.76991891302168369293212890625" lon="1.5747418440878391265869140625">
        <ele>160.399993896484375</ele>
        <time>2026-08-13T09:33:21.000Z</time>
        <extensions>
          <ns3:TrackPointExtension>
            <ns3:hr>85</ns3:hr>
            <ns3:cad>46</ns3:cad>
          </ns3:TrackPointExtension>
        </extensions>
      </trkpt>
      <trkpt lat="43.76990986056625843048095703125" lon="1.5747495554387569427490234375">
        <ele>160.399993896484375</ele>
        <time>2026-08-13T09:33:22.000Z</time>
        <extensions>
          <ns3:TrackPointExtension>
            <ns3:hr>85</ns3:hr>
            <ns3:cad>46</ns3:cad>
          </ns3:TrackPointExtension>
        </extensions>
      </trkpt>
      <trkpt lat="43.769904412329196929931640625" lon="1.57475383020937442779541015625">
        <ele>160.399993896484375</ele>
        <time>2026-08-13T09:33:23.000Z</time>
        <extensions>
          <ns3:TrackPointExtension>
            <ns3:hr>84</ns3:hr>
            <ns3:cad>47</ns3:cad>
          </ns3:TrackPointExtension>
        </extensions>
      </trkpt>
      <trkpt lat="43.76990114338696002960205078125" lon="1.57475701533257961273193359375">
        <ele>160.399993896484375</ele>
        <time>2026-08-13T09:33:24.000Z</time>
        <extensions>
          <ns3:TrackPointExtension>
            <ns3:hr>84</ns3:hr>
            <ns3:cad>47</ns3:cad>
          </ns3:TrackPointExtension>
        </extensions>
      </trkpt>
      <trkpt lat="43.76988873817026615142822265625" lon="1.5747666545212268829345703125">
        <ele>160.399993896484375</ele>
        <time>2026-08-13T09:33:25.000Z</time>
        <extensions>
          <ns3:TrackPointExtension>
            <ns3:hr>83</ns3:hr>
            <ns3:cad>47</ns3:cad>
          </ns3:TrackPointExtension>
        </extensions>
      </trkpt>
      <trkpt lat="43.76988186500966548919677734375" lon="1.5747750364243984222412109375">
        <ele>160.1999969482421875</ele>
        <time>2026-08-13T09:33:26.000Z</time>
        <extensions>
          <ns3:TrackPointExtension>
            <ns3:hr>83</ns3:hr>
            <ns3:cad>45</ns3:cad>
          </ns3:TrackPointExtension>
        </extensions>
      </trkpt>
      <trkpt lat="43.76987381838262081146240234375" lon="1.57478098757565021514892578125">
        <ele>160.1999969482421875</ele>
        <time>2026-08-13T09:33:27.000Z</time>
        <extensions>
          <ns3:TrackPointExtension>
            <ns3:hr>82</ns3:hr>
            <ns3:cad>45</ns3:cad>
          </ns3:TrackPointExtension>
        </extensions>
      </trkpt>
      <trkpt lat="43.76986912451684474945068359375" lon="1.574786268174648284912109375">
        <ele>160.1999969482421875</ele>
        <time>2026-08-13T09:33:28.000Z</time>
        <extensions>
          <ns3:TrackPointExtension>
            <ns3:hr>81</ns3:hr>
            <ns3:cad>45</ns3:cad>
          </ns3:TrackPointExtension>
        </extensions>
      </trkpt>
      <trkpt lat="43.76985923387110233306884765625" lon="1.5747938118875026702880859375">
        <ele>160.1999969482421875</ele>
        <time>2026-08-13T09:33:29.000Z</time>
        <extensions>
          <ns3:TrackPointExtension>
            <ns3:hr>81</ns3:hr>
            <ns3:cad>47</ns3:cad>
          </ns3:TrackPointExtension>
        </extensions>
      </trkpt>
      <trkpt lat="43.76984917558729648590087890625" lon="1.57480328343808650970458984375">
        <ele>160.399993896484375</ele>
        <time>2026-08-13T09:33:30.000Z</time>
        <extensions>
          <ns3:TrackPointExtension>
            <ns3:hr>80</ns3:hr>
            <ns3:cad>47</ns3:cad>
          </ns3:TrackPointExtension>
        </extensions>
      </trkpt>
      <trkpt lat="43.7698398716747760772705078125" lon="1.57480797730386257171630859375">
        <ele>160.399993896484375</ele>
        <time>2026-08-13T09:33:31.000Z</time>
        <extensions>
          <ns3:TrackPointExtension>
            <ns3:hr>80</ns3:hr>
            <ns3:cad>47</ns3:cad>
          </ns3:TrackPointExtension>
        </extensions>
      </trkpt>
      <trkpt lat="43.76982889138162136077880859375" lon="1.57481535337865352630615234375">
        <ele>160.399993896484375</ele>
        <time>2026-08-13T09:33:32.000Z</time>
        <extensions>
          <ns3:TrackPointExtension>
            <ns3:hr>80</ns3:hr>
            <ns3:cad>47</ns3:cad>
          </ns3:TrackPointExtension>
        </extensions>
      </trkpt>
      <trkpt lat="43.7698177434504032135009765625" lon="1.57482373528182506561279296875">
        <ele>160.399993896484375</ele>
        <time>2026-08-13T09:33:33.000Z</time>
        <extensions>
          <ns3:TrackPointExtension>
            <ns3:hr>80</ns3:hr>
            <ns3:cad>47</ns3:cad>
          </ns3:TrackPointExtension>
        </extensions>
      </trkpt>
      <trkpt lat="43.76980642788112163543701171875" lon="1.57483597286045551300048828125">
        <ele>160.399993896484375</ele>
        <time>2026-08-13T09:33:34.000Z</time>
        <extensions>
          <ns3:TrackPointExtension>
            <ns3:hr>80</ns3:hr>
            <ns3:cad>46</ns3:cad>
          </ns3:TrackPointExtension>
        </extensions>
      </trkpt>
      <trkpt lat="43.7697982974350452423095703125" lon="1.5748461149632930755615234375">
        <ele>160.399993896484375</ele>
        <time>2026-08-13T09:33:35.000Z</time>
        <extensions>
          <ns3:TrackPointExtension>
            <ns3:hr>79</ns3:hr>
            <ns3:cad>46</ns3:cad>
          </ns3:TrackPointExtension>
        </extensions>
      </trkpt>
      <trkpt lat="43.769787736237049102783203125" lon="1.5748536586761474609375">
        <ele>160.399993896484375</ele>
        <time>2026-08-13T09:33:36.000Z</time>
        <extensions>
          <ns3:TrackPointExtension>
            <ns3:hr>80</ns3:hr>
            <ns3:cad>46</ns3:cad>
          </ns3:TrackPointExtension>
        </extensions>
      </trkpt>
      <trkpt lat="43.76978044398128986358642578125" lon="1.5748603641986846923828125">
        <ele>160.399993896484375</ele>
        <time>2026-08-13T09:33:37.000Z</time>
        <extensions>
          <ns3:TrackPointExtension>
            <ns3:hr>80</ns3:hr>
            <ns3:cad>46</ns3:cad>
          </ns3:TrackPointExtension>
        </extensions>
      </trkpt>
      <trkpt lat="43.76977021805942058563232421875" lon="1.57486916519701480865478515625">
        <ele>160.600006103515625</ele>
        <time>2026-08-13T09:33:38.000Z</time>
        <extensions>
          <ns3:TrackPointExtension>
            <ns3:hr>79</ns3:hr>
            <ns3:cad>45</ns3:cad>
          </ns3:TrackPointExtension>
        </extensions>
      </trkpt>
      <trkpt lat="43.76976099796593189239501953125" lon="1.57487981021404266357421875">
        <ele>160.600006103515625</ele>
        <time>2026-08-13T09:33:39.000Z</time>
        <extensions>
          <ns3:TrackPointExtension>
            <ns3:hr>79</ns3:hr>
            <ns3:cad>45</ns3:cad>
          </ns3:TrackPointExtension>
        </extensions>
      </trkpt>
      <trkpt lat="43.76975513063371181488037109375" lon="1.57488509081304073333740234375">
        <ele>160.399993896484375</ele>
        <time>2026-08-13T09:33:40.000Z</time>
        <extensions>
          <ns3:TrackPointExtension>
            <ns3:hr>79</ns3:hr>
            <ns3:cad>46</ns3:cad>
          </ns3:TrackPointExtension>
        </extensions>
      </trkpt>
      <trkpt lat="43.76974641345441341400146484375" lon="1.5748898684978485107421875">
        <ele>160.399993896484375</ele>
        <time>2026-08-13T09:33:41.000Z</time>
        <extensions>
          <ns3:TrackPointExtension>
            <ns3:hr>79</ns3:hr>
            <ns3:cad>46</ns3:cad>
          </ns3:TrackPointExtension>
        </extensions>
      </trkpt>
      <trkpt lat="43.76973518170416355133056640625" lon="1.574895568192005157470703125">
        <ele>160.399993896484375</ele>
        <time>2026-08-13T09:33:42.000Z</time>
        <extensions>
          <ns3:TrackPointExtension>
            <ns3:hr>80</ns3:hr>
            <ns3:cad>47</ns3:cad>
          </ns3:TrackPointExtension>
        </extensions>
      </trkpt>
      <trkpt lat="43.76972847618162631988525390625" lon="1.57490302808582782745361328125">
        <ele>160.399993896484375</ele>
        <time>2026-08-13T09:33:43.000Z</time>
        <extensions>
          <ns3:TrackPointExtension>
            <ns3:hr>79</ns3:hr>
            <ns3:cad>47</ns3:cad>
          </ns3:TrackPointExtension>
        </extensions>
      </trkpt>
      <trkpt lat="43.76972495578229427337646484375" lon="1.57490931451320648193359375">
        <ele>160.399993896484375</ele>
        <time>2026-08-13T09:33:44.000Z</time>
        <extensions>
          <ns3:TrackPointExtension>
            <ns3:hr>79</ns3:hr>
            <ns3:cad>47</ns3:cad>
          </ns3:TrackPointExtension>
        </extensions>
      </trkpt>
      <trkpt lat="43.7697151489555835723876953125" lon="1.5749161876738071441650390625">
        <ele>160.399993896484375</ele>
        <time>2026-08-13T09:33:45.000Z</time>
        <extensions>
          <ns3:TrackPointExtension>
            <ns3:hr>80</ns3:hr>
            <ns3:cad>47</ns3:cad>
          </ns3:TrackPointExtension>
        </extensions>
      </trkpt>
      <trkpt lat="43.76970701850950717926025390625" lon="1.57492465339601039886474609375">
        <ele>160.600006103515625</ele>
        <time>2026-08-13T09:33:46.000Z</time>
        <extensions>
          <ns3:TrackPointExtension>
            <ns3:hr>80</ns3:hr>
            <ns3:cad>47</ns3:cad>
          </ns3:TrackPointExtension>
        </extensions>
      </trkpt>
      <trkpt lat="43.7696936912834644317626953125" lon="1.57493772916495800018310546875">
        <ele>160.600006103515625</ele>
        <time>2026-08-13T09:33:47.000Z</time>
        <extensions>
          <ns3:TrackPointExtension>
            <ns3:hr>80</ns3:hr>
            <ns3:cad>47</ns3:cad>
          </ns3:TrackPointExtension>
        </extensions>
      </trkpt>
      <trkpt lat="43.76968572847545146942138671875" lon="1.57494611106812953948974609375">
        <ele>160.600006103515625</ele>
        <time>2026-08-13T09:33:48.000Z</time>
        <extensions>
          <ns3:TrackPointExtension>
            <ns3:hr>80</ns3:hr>
            <ns3:cad>47</ns3:cad>
          </ns3:TrackPointExtension>
        </extensions>
      </trkpt>
      <trkpt lat="43.76967164687812328338623046875" lon="1.5749510563910007476806640625">
        <ele>160.600006103515625</ele>
        <time>2026-08-13T09:33:49.000Z</time>
        <extensions>
          <ns3:TrackPointExtension>
            <ns3:hr>80</ns3:hr>
            <ns3:cad>43</ns3:cad>
          </ns3:TrackPointExtension>
        </extensions>
      </trkpt>
      <trkpt lat="43.7696621753275394439697265625" lon="1.57495734281837940216064453125">
        <ele>160.600006103515625</ele>
        <time>2026-08-13T09:33:50.000Z</time>
        <extensions>
          <ns3:TrackPointExtension>
            <ns3:hr>80</ns3:hr>
            <ns3:cad>43</ns3:cad>
          </ns3:TrackPointExtension>
        </extensions>
      </trkpt>
      <trkpt lat="43.769650273025035858154296875" lon="1.5749658085405826568603515625">
        <ele>160.600006103515625</ele>
        <time>2026-08-13T09:33:51.000Z</time>
        <extensions>
          <ns3:TrackPointExtension>
            <ns3:hr>81</ns3:hr>
            <ns3:cad>43</ns3:cad>
          </ns3:TrackPointExtension>
        </extensions>
      </trkpt>
      <trkpt lat="43.7696430645883083343505859375" lon="1.5749688260257244110107421875">
        <ele>160.600006103515625</ele>
        <time>2026-08-13T09:33:52.000Z</time>
        <extensions>
          <ns3:TrackPointExtension>
            <ns3:hr>81</ns3:hr>
            <ns3:cad>43</ns3:cad>
          </ns3:TrackPointExtension>
        </extensions>
      </trkpt>
      <trkpt lat="43.769637532532215118408203125" lon="1.574976705014705657958984375">
        <ele>160.8000030517578125</ele>
        <time>2026-08-13T09:33:53.000Z</time>
        <extensions>
          <ns3:TrackPointExtension>
            <ns3:hr>81</ns3:hr>
            <ns3:cad>47</ns3:cad>
          </ns3:TrackPointExtension>
        </extensions>
      </trkpt>
      <trkpt lat="43.76963275484740734100341796875" lon="1.5749859251081943511962890625">
        <ele>160.8000030517578125</ele>
        <time>2026-08-13T09:33:54.000Z</time>
        <extensions>
          <ns3:TrackPointExtension>
            <ns3:hr>81</ns3:hr>
            <ns3:cad>47</ns3:cad>
          </ns3:TrackPointExtension>
        </extensions>
      </trkpt>
      <trkpt lat="43.7696195952594280242919921875" lon="1.57500176690518856048583984375">
        <ele>160.600006103515625</ele>
        <time>2026-08-13T09:33:55.000Z</time>
        <extensions>
          <ns3:TrackPointExtension>
            <ns3:hr>81</ns3:hr>
            <ns3:cad>47</ns3:cad>
          </ns3:TrackPointExtension>
        </extensions>
      </trkpt>
      <trkpt lat="43.76960794441401958465576171875" lon="1.5750157646834850311279296875">
        <ele>160.600006103515625</ele>
        <time>2026-08-13T09:33:56.000Z</time>
        <extensions>
          <ns3:TrackPointExtension>
            <ns3:hr>82</ns3:hr>
            <ns3:cad>47</ns3:cad>
          </ns3:TrackPointExtension>
        </extensions>
      </trkpt>
      <trkpt lat="43.7695996463298797607421875" lon="1.57502389512956142425537109375">
        <ele>160.600006103515625</ele>
        <time>2026-08-13T09:33:57.000Z</time>
        <extensions>
          <ns3:TrackPointExtension>
            <ns3:hr>82</ns3:hr>
            <ns3:cad>48</ns3:cad>
          </ns3:TrackPointExtension>
        </extensions>
      </trkpt>
      <trkpt lat="43.76959587447345256805419921875" lon="1.57503009773790836334228515625">
        <ele>160.600006103515625</ele>
        <time>2026-08-13T09:33:58.000Z</time>
        <extensions>
          <ns3:TrackPointExtension>
            <ns3:hr>82</ns3:hr>
            <ns3:cad>48</ns3:cad>
          </ns3:TrackPointExtension>
        </extensions>
      </trkpt>
      <trkpt lat="43.7695880793035030364990234375" lon="1.5750402398407459259033203125">
        <ele>160.600006103515625</ele>
        <time>2026-08-13T09:33:59.000Z</time>
        <extensions>
          <ns3:TrackPointExtension>
            <ns3:hr>82</ns3:hr>
            <ns3:cad>48</ns3:cad>
          </ns3:TrackPointExtension>
        </extensions>
      </trkpt>
      <trkpt lat="43.76957693137228488922119140625" lon="1.57505222596228122711181640625">
        <ele>160.399993896484375</ele>
        <time>2026-08-13T09:34:00.000Z</time>
        <extensions>
          <ns3:TrackPointExtension>
            <ns3:hr>82</ns3:hr>
            <ns3:cad>48</ns3:cad>
          </ns3:TrackPointExtension>
        </extensions>
      </trkpt>
      <trkpt lat="43.76956955529749393463134765625" lon="1.5750590153038501739501953125">
        <ele>160.600006103515625</ele>
        <time>2026-08-13T09:34:01.000Z</time>
        <extensions>
          <ns3:TrackPointExtension>
            <ns3:hr>82</ns3:hr>
            <ns3:cad>48</ns3:cad>
          </ns3:TrackPointExtension>
        </extensions>
      </trkpt>
      <trkpt lat="43.76956134103238582611083984375" lon="1.57506329007446765899658203125">
        <ele>160.600006103515625</ele>
        <time>2026-08-13T09:34:02.000Z</time>
        <extensions>
          <ns3:TrackPointExtension>
            <ns3:hr>82</ns3:hr>
            <ns3:cad>48</ns3:cad>
          </ns3:TrackPointExtension>
        </extensions>
      </trkpt>
      <trkpt lat="43.76955212093889713287353515625" lon="1.57506932504475116729736328125">
        <ele>160.600006103515625</ele>
        <time>2026-08-13T09:34:03.000Z</time>
        <extensions>
          <ns3:TrackPointExtension>
            <ns3:hr>82</ns3:hr>
            <ns3:cad>48</ns3:cad>
          </ns3:TrackPointExtension>
        </extensions>
      </trkpt>
      <trkpt lat="43.7695411406457424163818359375" lon="1.5750804729759693145751953125">
        <ele>160.600006103515625</ele>
        <time>2026-08-13T09:34:04.000Z</time>
        <extensions>
          <ns3:TrackPointExtension>
            <ns3:hr>82</ns3:hr>
            <ns3:cad>47</ns3:cad>
          </ns3:TrackPointExtension>
        </extensions>
      </trkpt>
      <trkpt lat="43.76953183673322200775146484375" lon="1.57508768141269683837890625">
        <ele>160.600006103515625</ele>
        <time>2026-08-13T09:34:05.000Z</time>
        <extensions>
          <ns3:TrackPointExtension>
            <ns3:hr>82</ns3:hr>
            <ns3:cad>47</ns3:cad>
          </ns3:TrackPointExtension>
        </extensions>
      </trkpt>
      <trkpt lat="43.76952387392520904541015625" lon="1.57509363256394863128662109375">
        <ele>160.600006103515625</ele>
        <time>2026-08-13T09:34:06.000Z</time>
        <extensions>
          <ns3:TrackPointExtension>
            <ns3:hr>82</ns3:hr>
            <ns3:cad>47</ns3:cad>
          </ns3:TrackPointExtension>
        </extensions>
      </trkpt>
      <trkpt lat="43.76951691694557666778564453125" lon="1.5750985778868198394775390625">
        <ele>160.600006103515625</ele>
        <time>2026-08-13T09:34:07.000Z</time>
        <extensions>
          <ns3:TrackPointExtension>
            <ns3:hr>82</ns3:hr>
            <ns3:cad>46</ns3:cad>
          </ns3:TrackPointExtension>
        </extensions>
      </trkpt>
      <trkpt lat="43.7695039249956607818603515625" lon="1.57511048018932342529296875">
        <ele>160.600006103515625</ele>
        <time>2026-08-13T09:34:08.000Z</time>
        <extensions>
          <ns3:TrackPointExtension>
            <ns3:hr>83</ns3:hr>
            <ns3:cad>46</ns3:cad>
          </ns3:TrackPointExtension>
        </extensions>
      </trkpt>
      <trkpt lat="43.76949411816895008087158203125" lon="1.57512229867279529571533203125">
        <ele>160.600006103515625</ele>
        <time>2026-08-13T09:34:09.000Z</time>
        <extensions>
          <ns3:TrackPointExtension>
            <ns3:hr>82</ns3:hr>
            <ns3:cad>46</ns3:cad>
          </ns3:TrackPointExtension>
        </extensions>
      </trkpt>
      <trkpt lat="43.7694874964654445648193359375" lon="1.57512783072888851165771484375">
        <ele>160.600006103515625</ele>
        <time>2026-08-13T09:34:10.000Z</time>
        <extensions>
          <ns3:TrackPointExtension>
            <ns3:hr>82</ns3:hr>
            <ns3:cad>46</ns3:cad>
          </ns3:TrackPointExtension>
        </extensions>
      </trkpt>
      <trkpt lat="43.7694817967712879180908203125" lon="1.57513059675693511962890625">
        <ele>160.600006103515625</ele>
        <time>2026-08-13T09:34:11.000Z</time>
        <extensions>
          <ns3:TrackPointExtension>
            <ns3:hr>82</ns3:hr>
            <ns3:cad>46</ns3:cad>
          </ns3:TrackPointExtension>
        </extensions>
      </trkpt>
      <trkpt lat="43.769467212259769439697265625" lon="1.57514140941202640533447265625">
        <ele>160.600006103515625</ele>
        <time>2026-08-13T09:34:12.000Z</time>
        <extensions>
          <ns3:TrackPointExtension>
            <ns3:hr>82</ns3:hr>
            <ns3:cad>46</ns3:cad>
          </ns3:TrackPointExtension>
        </extensions>
      </trkpt>
      <trkpt lat="43.76945807598531246185302734375" lon="1.57514870166778564453125">
        <ele>160.600006103515625</ele>
        <time>2026-08-13T09:34:13.000Z</time>
        <extensions>
          <ns3:TrackPointExtension>
            <ns3:hr>82</ns3:hr>
            <ns3:cad>46</ns3:cad>
          </ns3:TrackPointExtension>
        </extensions>
      </trkpt>
      <trkpt lat="43.7694529630243778228759765625" lon="1.57515616156160831451416015625">
        <ele>160.600006103515625</ele>
        <time>2026-08-13T09:34:14.000Z</time>
        <extensions>
          <ns3:TrackPointExtension>
            <ns3:hr>82</ns3:hr>
            <ns3:cad>46</ns3:cad>
          </ns3:TrackPointExtension>
        </extensions>
      </trkpt>
      <trkpt lat="43.76944516785442829132080078125" lon="1.575163118541240692138671875">
        <ele>160.600006103515625</ele>
        <time>2026-08-13T09:34:15.000Z</time>
        <extensions>
          <ns3:TrackPointExtension>
            <ns3:hr>82</ns3:hr>
            <ns3:cad>46</ns3:cad>
          </ns3:TrackPointExtension>
        </extensions>
      </trkpt>
      <trkpt lat="43.76943192444741725921630859375" lon="1.57517342828214168548583984375">
        <ele>160.600006103515625</ele>
        <time>2026-08-13T09:34:16.000Z</time>
        <extensions>
          <ns3:TrackPointExtension>
            <ns3:hr>82</ns3:hr>
            <ns3:cad>44</ns3:cad>
          </ns3:TrackPointExtension>
        </extensions>
      </trkpt>
      <trkpt lat="43.76942438073456287384033203125" lon="1.57518181018531322479248046875">
        <ele>160.600006103515625</ele>
        <time>2026-08-13T09:34:17.000Z</time>
        <extensions>
          <ns3:TrackPointExtension>
            <ns3:hr>82</ns3:hr>
            <ns3:cad>44</ns3:cad>
          </ns3:TrackPointExtension>
        </extensions>
      </trkpt>
      <trkpt lat="43.769417591392993927001953125" lon="1.57518700696527957916259765625">
        <ele>160.600006103515625</ele>
        <time>2026-08-13T09:34:18.000Z</time>
        <extensions>
          <ns3:TrackPointExtension>
            <ns3:hr>82</ns3:hr>
            <ns3:cad>44</ns3:cad>
          </ns3:TrackPointExtension>
        </extensions>
      </trkpt>
      <trkpt lat="43.76941063441336154937744140625" lon="1.57519170083105564117431640625">
        <ele>160.600006103515625</ele>
        <time>2026-08-13T09:34:19.000Z</time>
        <extensions>
          <ns3:TrackPointExtension>
            <ns3:hr>82</ns3:hr>
            <ns3:cad>44</ns3:cad>
          </ns3:TrackPointExtension>
        </extensions>
      </trkpt>
      <trkpt lat="43.76940074376761913299560546875" lon="1.57519924454391002655029296875">
        <ele>160.600006103515625</ele>
        <time>2026-08-13T09:34:20.000Z</time>
        <extensions>
          <ns3:TrackPointExtension>
            <ns3:hr>81</ns3:hr>
            <ns3:cad>44</ns3:cad>
          </ns3:TrackPointExtension>
        </extensions>
      </trkpt>
      <trkpt lat="43.76939269714057445526123046875" lon="1.575205363333225250244140625">
        <ele>160.600006103515625</ele>
        <time>2026-08-13T09:34:21.000Z</time>
        <extensions>
          <ns3:TrackPointExtension>
            <ns3:hr>81</ns3:hr>
            <ns3:cad>47</ns3:cad>
          </ns3:TrackPointExtension>
        </extensions>
      </trkpt>
      <trkpt lat="43.76938414759933948516845703125" lon="1.575208045542240142822265625">
        <ele>160.600006103515625</ele>
        <time>2026-08-13T09:34:22.000Z</time>
        <extensions>
          <ns3:TrackPointExtension>
            <ns3:hr>80</ns3:hr>
            <ns3:cad>47</ns3:cad>
          </ns3:TrackPointExtension>
        </extensions>
      </trkpt>
      <trkpt lat="43.769381046295166015625" lon="1.57521215267479419708251953125">
        <ele>160.600006103515625</ele>
        <time>2026-08-13T09:34:23.000Z</time>
        <extensions>
          <ns3:TrackPointExtension>
            <ns3:hr>79</ns3:hr>
            <ns3:cad>46</ns3:cad>
          </ns3:TrackPointExtension>
        </extensions>
      </trkpt>
      <trkpt lat="43.76936838962137699127197265625" lon="1.575221121311187744140625">
        <ele>160.600006103515625</ele>
        <time>2026-08-13T09:34:24.000Z</time>
        <extensions>
          <ns3:TrackPointExtension>
            <ns3:hr>79</ns3:hr>
            <ns3:cad>46</ns3:cad>
          </ns3:TrackPointExtension>
        </extensions>
      </trkpt>
      <trkpt lat="43.76935933716595172882080078125" lon="1.57522891648113727569580078125">
        <ele>160.600006103515625</ele>
        <time>2026-08-13T09:34:25.000Z</time>
        <extensions>
          <ns3:TrackPointExtension>
            <ns3:hr>78</ns3:hr>
            <ns3:cad>45</ns3:cad>
          </ns3:TrackPointExtension>
        </extensions>
      </trkpt>
      <trkpt lat="43.76935196109116077423095703125" lon="1.57523545436561107635498046875">
        <ele>160.600006103515625</ele>
        <time>2026-08-13T09:34:26.000Z</time>
        <extensions>
          <ns3:TrackPointExtension>
            <ns3:hr>78</ns3:hr>
            <ns3:cad>45</ns3:cad>
          </ns3:TrackPointExtension>
        </extensions>
      </trkpt>
      <trkpt lat="43.7693473510444164276123046875" lon="1.57524048350751399993896484375">
        <ele>160.600006103515625</ele>
        <time>2026-08-13T09:34:27.000Z</time>
        <extensions>
          <ns3:TrackPointExtension>
            <ns3:hr>78</ns3:hr>
            <ns3:cad>45</ns3:cad>
          </ns3:TrackPointExtension>
        </extensions>
      </trkpt>
      <trkpt lat="43.76933888532221317291259765625" lon="1.5752484463155269622802734375">
        <ele>160.600006103515625</ele>
        <time>2026-08-13T09:34:28.000Z</time>
        <extensions>
          <ns3:TrackPointExtension>
            <ns3:hr>78</ns3:hr>
            <ns3:cad>46</ns3:cad>
          </ns3:TrackPointExtension>
        </extensions>
      </trkpt>
      <trkpt lat="43.7693235464394092559814453125" lon="1.5752598457038402557373046875">
        <ele>160.600006103515625</ele>
        <time>2026-08-13T09:34:29.000Z</time>
        <extensions>
          <ns3:TrackPointExtension>
            <ns3:hr>79</ns3:hr>
            <ns3:cad>46</ns3:cad>
          </ns3:TrackPointExtension>
        </extensions>
      </trkpt>
      <trkpt lat="43.76931491307914257049560546875" lon="1.575269401073455810546875">
        <ele>160.600006103515625</ele>
        <time>2026-08-13T09:34:30.000Z</time>
        <extensions>
          <ns3:TrackPointExtension>
            <ns3:hr>79</ns3:hr>
            <ns3:cad>46</ns3:cad>
          </ns3:TrackPointExtension>
        </extensions>
      </trkpt>
      <trkpt lat="43.7693072855472564697265625" lon="1.575277782976627349853515625">
        <ele>160.600006103515625</ele>
        <time>2026-08-13T09:34:31.000Z</time>
        <extensions>
          <ns3:TrackPointExtension>
            <ns3:hr>79</ns3:hr>
            <ns3:cad>46</ns3:cad>
          </ns3:TrackPointExtension>
        </extensions>
      </trkpt>
      <trkpt lat="43.76930099911987781524658203125" lon="1.5752849914133548736572265625">
        <ele>160.600006103515625</ele>
        <time>2026-08-13T09:34:32.000Z</time>
        <extensions>
          <ns3:TrackPointExtension>
            <ns3:hr>79</ns3:hr>
            <ns3:cad>47</ns3:cad>
          </ns3:TrackPointExtension>
        </extensions>
      </trkpt>
      <trkpt lat="43.76928783953189849853515625" lon="1.57529496587812900543212890625">
        <ele>160.600006103515625</ele>
        <time>2026-08-13T09:34:33.000Z</time>
        <extensions>
          <ns3:TrackPointExtension>
            <ns3:hr>79</ns3:hr>
            <ns3:cad>47</ns3:cad>
          </ns3:TrackPointExtension>
        </extensions>
      </trkpt>
      <trkpt lat="43.76927769742906093597412109375" lon="1.57530334778130054473876953125">
        <ele>160.600006103515625</ele>
        <time>2026-08-13T09:34:34.000Z</time>
        <extensions>
          <ns3:TrackPointExtension>
            <ns3:hr>79</ns3:hr>
            <ns3:cad>46</ns3:cad>
          </ns3:TrackPointExtension>
        </extensions>
      </trkpt>
      <trkpt lat="43.76926638185977935791015625" lon="1.57531005330383777618408203125">
        <ele>160.600006103515625</ele>
        <time>2026-08-13T09:34:35.000Z</time>
        <extensions>
          <ns3:TrackPointExtension>
            <ns3:hr>79</ns3:hr>
            <ns3:cad>46</ns3:cad>
          </ns3:TrackPointExtension>
        </extensions>
      </trkpt>
      <trkpt lat="43.76925942488014698028564453125" lon="1.57531776465475559234619140625">
        <ele>160.600006103515625</ele>
        <time>2026-08-13T09:34:36.000Z</time>
        <extensions>
          <ns3:TrackPointExtension>
            <ns3:hr>79</ns3:hr>
            <ns3:cad>46</ns3:cad>
          </ns3:TrackPointExtension>
        </extensions>
      </trkpt>
      <trkpt lat="43.76924769021570682525634765625" lon="1.5753279067575931549072265625">
        <ele>160.600006103515625</ele>
        <time>2026-08-13T09:34:37.000Z</time>
        <extensions>
          <ns3:TrackPointExtension>
            <ns3:hr>78</ns3:hr>
            <ns3:cad>46</ns3:cad>
          </ns3:TrackPointExtension>
        </extensions>
      </trkpt>
      <trkpt lat="43.7692383863031864166259765625" lon="1.57533754594624042510986328125">
        <ele>160.600006103515625</ele>
        <time>2026-08-13T09:34:38.000Z</time>
        <extensions>
          <ns3:TrackPointExtension>
            <ns3:hr>79</ns3:hr>
            <ns3:cad>46</ns3:cad>
          </ns3:TrackPointExtension>
        </extensions>
      </trkpt>
      <trkpt lat="43.76922975294291973114013671875" lon="1.5753433294594287872314453125">
        <ele>160.600006103515625</ele>
        <time>2026-08-13T09:34:39.000Z</time>
        <extensions>
          <ns3:TrackPointExtension>
            <ns3:hr>80</ns3:hr>
            <ns3:cad>48</ns3:cad>
          </ns3:TrackPointExtension>
        </extensions>
      </trkpt>
      <trkpt lat="43.76922539435327053070068359375" lon="1.57535045407712459564208984375">
        <ele>160.600006103515625</ele>
        <time>2026-08-13T09:34:40.000Z</time>
        <extensions>
          <ns3:TrackPointExtension>
            <ns3:hr>80</ns3:hr>
            <ns3:cad>48</ns3:cad>
          </ns3:TrackPointExtension>
        </extensions>
      </trkpt>
      <trkpt lat="43.76921650953590869903564453125" lon="1.57536017708480358123779296875">
        <ele>160.8000030517578125</ele>
        <time>2026-08-13T09:34:41.000Z</time>
        <extensions>
          <ns3:TrackPointExtension>
            <ns3:hr>80</ns3:hr>
            <ns3:cad>48</ns3:cad>
          </ns3:TrackPointExtension>
        </extensions>
      </trkpt>
      <trkpt lat="43.76920695416629314422607421875" lon="1.575371325016021728515625">
        <ele>160.8000030517578125</ele>
        <time>2026-08-13T09:34:42.000Z</time>
        <extensions>
          <ns3:TrackPointExtension>
            <ns3:hr>80</ns3:hr>
            <ns3:cad>46</ns3:cad>
          </ns3:TrackPointExtension>
        </extensions>
      </trkpt>
      <trkpt lat="43.76919840462505817413330078125" lon="1.57537962310016155242919921875">
        <ele>160.600006103515625</ele>
        <time>2026-08-13T09:34:43.000Z</time>
        <extensions>
          <ns3:TrackPointExtension>
            <ns3:hr>81</ns3:hr>
            <ns3:cad>46</ns3:cad>
          </ns3:TrackPointExtension>
        </extensions>
      </trkpt>
      <trkpt lat="43.7691917829215526580810546875" lon="1.575387418270111083984375">
        <ele>160.600006103515625</ele>
        <time>2026-08-13T09:34:44.000Z</time>
        <extensions>
          <ns3:TrackPointExtension>
            <ns3:hr>81</ns3:hr>
            <ns3:cad>46</ns3:cad>
          </ns3:TrackPointExtension>
        </extensions>
      </trkpt>
      <trkpt lat="43.76918700523674488067626953125" lon="1.5753919444978237152099609375">
        <ele>160.600006103515625</ele>
        <time>2026-08-13T09:34:45.000Z</time>
        <extensions>
          <ns3:TrackPointExtension>
            <ns3:hr>81</ns3:hr>
            <ns3:cad>46</ns3:cad>
          </ns3:TrackPointExtension>
        </extensions>
      </trkpt>
      <trkpt lat="43.76917342655360698699951171875" lon="1.57540409825742244720458984375">
        <ele>160.600006103515625</ele>
        <time>2026-08-13T09:34:46.000Z</time>
        <extensions>
          <ns3:TrackPointExtension>
            <ns3:hr>81</ns3:hr>
            <ns3:cad>46</ns3:cad>
          </ns3:TrackPointExtension>
        </extensions>
      </trkpt>
      <trkpt lat="43.7691676430404186248779296875" lon="1.5754128992557525634765625">
        <ele>160.600006103515625</ele>
        <time>2026-08-13T09:34:47.000Z</time>
        <extensions>
          <ns3:TrackPointExtension>
            <ns3:hr>81</ns3:hr>
            <ns3:cad>47</ns3:cad>
          </ns3:TrackPointExtension>
        </extensions>
      </trkpt>
      <trkpt lat="43.76916018314659595489501953125" lon="1.5754174254834651947021484375">
        <ele>160.600006103515625</ele>
        <time>2026-08-13T09:34:48.000Z</time>
        <extensions>
          <ns3:TrackPointExtension>
            <ns3:hr>81</ns3:hr>
            <ns3:cad>47</ns3:cad>
          </ns3:TrackPointExtension>
        </extensions>
      </trkpt>
      <trkpt lat="43.7691545672714710235595703125" lon="1.57541968859732151031494140625">
        <ele>160.8000030517578125</ele>
        <time>2026-08-13T09:34:49.000Z</time>
        <extensions>
          <ns3:TrackPointExtension>
            <ns3:hr>81</ns3:hr>
            <ns3:cad>47</ns3:cad>
          </ns3:TrackPointExtension>
        </extensions>
      </trkpt>
      <trkpt lat="43.769146688282489776611328125" lon="1.57542706467211246490478515625">
        <ele>160.8000030517578125</ele>
        <time>2026-08-13T09:34:50.000Z</time>
        <extensions>
          <ns3:TrackPointExtension>
            <ns3:hr>80</ns3:hr>
            <ns3:cad>47</ns3:cad>
          </ns3:TrackPointExtension>
        </extensions>
      </trkpt>
      <trkpt lat="43.7691378034651279449462890625" lon="1.57543645240366458892822265625">
        <ele>160.8000030517578125</ele>
        <time>2026-08-13T09:34:51.000Z</time>
        <extensions>
          <ns3:TrackPointExtension>
            <ns3:hr>81</ns3:hr>
            <ns3:cad>47</ns3:cad>
          </ns3:TrackPointExtension>
        </extensions>
      </trkpt>
      <trkpt lat="43.76913084648549556732177734375" lon="1.57544215209782123565673828125">
        <ele>160.8000030517578125</ele>
        <time>2026-08-13T09:34:52.000Z</time>
        <extensions>
          <ns3:TrackPointExtension>
            <ns3:hr>81</ns3:hr>
            <ns3:cad>47</ns3:cad>
          </ns3:TrackPointExtension>
        </extensions>
      </trkpt>
      <trkpt lat="43.7691260688006877899169921875" lon="1.57544047571718692779541015625">
        <ele>160.8000030517578125</ele>
        <time>2026-08-13T09:34:53.000Z</time>
        <extensions>
          <ns3:TrackPointExtension>
            <ns3:hr>81</ns3:hr>
            <ns3:cad>47</ns3:cad>
          </ns3:TrackPointExtension>
        </extensions>
      </trkpt>
      <trkpt lat="43.76911525614559650421142578125" lon="1.57544584013521671295166015625">
        <ele>160.8000030517578125</ele>
        <time>2026-08-13T09:34:54.000Z</time>
        <extensions>
          <ns3:TrackPointExtension>
            <ns3:hr>80</ns3:hr>
            <ns3:cad>47</ns3:cad>
          </ns3:TrackPointExtension>
        </extensions>
      </trkpt>
      <trkpt lat="43.76909547485411167144775390625" lon="1.575458161532878875732421875">
        <ele>160.8000030517578125</ele>
        <time>2026-08-13T09:34:55.000Z</time>
        <extensions>
          <ns3:TrackPointExtension>
            <ns3:hr>81</ns3:hr>
            <ns3:cad>47</ns3:cad>
          </ns3:TrackPointExtension>
        </extensions>
      </trkpt>
      <trkpt lat="43.76908399164676666259765625" lon="1.57547115348279476165771484375">
        <ele>160.8000030517578125</ele>
        <time>2026-08-13T09:34:56.000Z</time>
        <extensions>
          <ns3:TrackPointExtension>
            <ns3:hr>81</ns3:hr>
            <ns3:cad>47</ns3:cad>
          </ns3:TrackPointExtension>
        </extensions>
      </trkpt>
      <trkpt lat="43.76907502301037311553955078125" lon="1.575481630861759185791015625">
        <ele>160.8000030517578125</ele>
        <time>2026-08-13T09:34:57.000Z</time>
        <extensions>
          <ns3:TrackPointExtension>
            <ns3:hr>81</ns3:hr>
            <ns3:cad>47</ns3:cad>
          </ns3:TrackPointExtension>
        </extensions>
      </trkpt>
      <trkpt lat="43.76906454563140869140625" lon="1.57548691146075725555419921875">
        <ele>160.8000030517578125</ele>
        <time>2026-08-13T09:34:58.000Z</time>
        <extensions>
          <ns3:TrackPointExtension>
            <ns3:hr>81</ns3:hr>
            <ns3:cad>45</ns3:cad>
          </ns3:TrackPointExtension>
        </extensions>
      </trkpt>
      <trkpt lat="43.7690551578998565673828125" lon="1.57549764029681682586669921875">
        <ele>160.8000030517578125</ele>
        <time>2026-08-13T09:34:59.000Z</time>
        <extensions>
          <ns3:TrackPointExtension>
            <ns3:hr>80</ns3:hr>
            <ns3:cad>45</ns3:cad>
          </ns3:TrackPointExtension>
        </extensions>
      </trkpt>
      <trkpt lat="43.769043423235416412353515625" lon="1.5755126439034938812255859375">
        <ele>160.8000030517578125</ele>
        <time>2026-08-13T09:35:00.000Z</time>
        <extensions>
          <ns3:TrackPointExtension>
            <ns3:hr>80</ns3:hr>
            <ns3:cad>46</ns3:cad>
          </ns3:TrackPointExtension>
        </extensions>
      </trkpt>
      <trkpt lat="43.7690348736941814422607421875" lon="1.57552010379731655120849609375">
        <ele>161</ele>
        <time>2026-08-13T09:35:01.000Z</time>
        <extensions>
          <ns3:TrackPointExtension>
            <ns3:hr>80</ns3:hr>
            <ns3:cad>47</ns3:cad>
          </ns3:TrackPointExtension>
        </extensions>
      </trkpt>
      <trkpt lat="43.7690264917910099029541015625" lon="1.57552563585340976715087890625">
        <ele>161</ele>
        <time>2026-08-13T09:35:02.000Z</time>
        <extensions>
          <ns3:TrackPointExtension>
            <ns3:hr>80</ns3:hr>
            <ns3:cad>47</ns3:cad>
          </ns3:TrackPointExtension>
        </extensions>
      </trkpt>
      <trkpt lat="43.76902070827782154083251953125" lon="1.57552756369113922119140625">
        <ele>161</ele>
        <time>2026-08-13T09:35:03.000Z</time>
        <extensions>
          <ns3:TrackPointExtension>
            <ns3:hr>80</ns3:hr>
            <ns3:cad>47</ns3:cad>
          </ns3:TrackPointExtension>
        </extensions>
      </trkpt>
      <trkpt lat="43.76901023089885711669921875" lon="1.57553519122302532196044921875">
        <ele>161</ele>
        <time>2026-08-13T09:35:04.000Z</time>
        <extensions>
          <ns3:TrackPointExtension>
            <ns3:hr>80</ns3:hr>
            <ns3:cad>47</ns3:cad>
          </ns3:TrackPointExtension>
        </extensions>
      </trkpt>
      <trkpt lat="43.76900109462440013885498046875" lon="1.57554541714489459991455078125">
        <ele>161</ele>
        <time>2026-08-13T09:35:05.000Z</time>
        <extensions>
          <ns3:TrackPointExtension>
            <ns3:hr>80</ns3:hr>
            <ns3:cad>48</ns3:cad>
          </ns3:TrackPointExtension>
        </extensions>
      </trkpt>
      <trkpt lat="43.76899271272122859954833984375" lon="1.57555212266743183135986328125">
        <ele>161</ele>
        <time>2026-08-13T09:35:06.000Z</time>
        <extensions>
          <ns3:TrackPointExtension>
            <ns3:hr>80</ns3:hr>
            <ns3:cad>48</ns3:cad>
          </ns3:TrackPointExtension>
        </extensions>
      </trkpt>
      <trkpt lat="43.76898651011288166046142578125" lon="1.57556033693253993988037109375">
        <ele>160.8000030517578125</ele>
        <time>2026-08-13T09:35:07.000Z</time>
        <extensions>
          <ns3:TrackPointExtension>
            <ns3:hr>80</ns3:hr>
            <ns3:cad>48</ns3:cad>
          </ns3:TrackPointExtension>
        </extensions>
      </trkpt>
      <trkpt lat="43.7689792178571224212646484375" lon="1.5755666233599185943603515625">
        <ele>160.8000030517578125</ele>
        <time>2026-08-13T09:35:08.000Z</time>
        <extensions>
          <ns3:TrackPointExtension>
            <ns3:hr>80</ns3:hr>
            <ns3:cad>48</ns3:cad>
          </ns3:TrackPointExtension>
        </extensions>
      </trkpt>
      <trkpt lat="43.76896672882139682769775390625" lon="1.5755763463675975799560546875">
        <ele>161</ele>
        <time>2026-08-13T09:35:09.000Z</time>
        <extensions>
          <ns3:TrackPointExtension>
            <ns3:hr>80</ns3:hr>
            <ns3:cad>48</ns3:cad>
          </ns3:TrackPointExtension>
        </extensions>
      </trkpt>
      <trkpt lat="43.76895784400403499603271484375" lon="1.5755867399275302886962890625">
        <ele>161</ele>
        <time>2026-08-13T09:35:10.000Z</time>
        <extensions>
          <ns3:TrackPointExtension>
            <ns3:hr>80</ns3:hr>
            <ns3:cad>47</ns3:cad>
          </ns3:TrackPointExtension>
        </extensions>
      </trkpt>
      <trkpt lat="43.76894845627248287200927734375" lon="1.57559202052652835845947265625">
        <ele>161</ele>
        <time>2026-08-13T09:35:11.000Z</time>
        <extensions>
          <ns3:TrackPointExtension>
            <ns3:hr>81</ns3:hr>
            <ns3:cad>47</ns3:cad>
          </ns3:TrackPointExtension>
        </extensions>
      </trkpt>
      <trkpt lat="43.76894317567348480224609375" lon="1.5755981393158435821533203125">
        <ele>161</ele>
        <time>2026-08-13T09:35:12.000Z</time>
        <extensions>
          <ns3:TrackPointExtension>
            <ns3:hr>81</ns3:hr>
            <ns3:cad>47</ns3:cad>
          </ns3:TrackPointExtension>
        </extensions>
      </trkpt>
      <trkpt lat="43.76893068663775920867919921875" lon="1.57561029307544231414794921875">
        <ele>161</ele>
        <time>2026-08-13T09:35:13.000Z</time>
        <extensions>
          <ns3:TrackPointExtension>
            <ns3:hr>81</ns3:hr>
            <ns3:cad>48</ns3:cad>
          </ns3:TrackPointExtension>
        </extensions>
      </trkpt>
      <trkpt lat="43.7689222209155559539794921875" lon="1.57562186010181903839111328125">
        <ele>161</ele>
        <time>2026-08-13T09:35:14.000Z</time>
        <extensions>
          <ns3:TrackPointExtension>
            <ns3:hr>81</ns3:hr>
            <ns3:cad>48</ns3:cad>
          </ns3:TrackPointExtension>
        </extensions>
      </trkpt>
      <trkpt lat="43.7689124979078769683837890625" lon="1.57563242129981517791748046875">
        <ele>161</ele>
        <time>2026-08-13T09:35:15.000Z</time>
        <extensions>
          <ns3:TrackPointExtension>
            <ns3:hr>81</ns3:hr>
            <ns3:cad>48</ns3:cad>
          </ns3:TrackPointExtension>
        </extensions>
      </trkpt>
      <trkpt lat="43.768903277814388275146484375" lon="1.57564231194555759429931640625">
        <ele>161</ele>
        <time>2026-08-13T09:35:16.000Z</time>
        <extensions>
          <ns3:TrackPointExtension>
            <ns3:hr>81</ns3:hr>
            <ns3:cad>48</ns3:cad>
          </ns3:TrackPointExtension>
        </extensions>
      </trkpt>
      <trkpt lat="43.76889548264443874359130859375" lon="1.57564734108746051788330078125">
        <ele>161</ele>
        <time>2026-08-13T09:35:17.000Z</time>
        <extensions>
          <ns3:TrackPointExtension>
            <ns3:hr>81</ns3:hr>
            <ns3:cad>46</ns3:cad>
          </ns3:TrackPointExtension>
        </extensions>
      </trkpt>
      <trkpt lat="43.7688826583325862884521484375" lon="1.57565840519964694976806640625">
        <ele>161</ele>
        <time>2026-08-13T09:35:18.000Z</time>
        <extensions>
          <ns3:TrackPointExtension>
            <ns3:hr>81</ns3:hr>
            <ns3:cad>0</ns3:cad>
          </ns3:TrackPointExtension>
        </extensions>
      </trkpt>
      <trkpt lat="43.768879808485507965087890625" lon="1.57566410489380359649658203125">
        <ele>161</ele>
        <time>2026-08-13T09:35:19.000Z</time>
        <extensions>
          <ns3:TrackPointExtension>
            <ns3:hr>81</ns3:hr>
            <ns3:cad>0</ns3:cad>
          </ns3:TrackPointExtension>
        </extensions>
      </trkpt>
      <trkpt lat="43.76887301914393901824951171875" lon="1.57567047514021396636962890625">
        <ele>161</ele>
        <time>2026-08-13T09:35:20.000Z</time>
        <extensions>
          <ns3:TrackPointExtension>
            <ns3:hr>81</ns3:hr>
            <ns3:cad>47</ns3:cad>
          </ns3:TrackPointExtension>
        </extensions>
      </trkpt>
      <trkpt lat="43.76886782236397266387939453125" lon="1.57567441463470458984375">
        <ele>161</ele>
        <time>2026-08-13T09:35:21.000Z</time>
        <extensions>
          <ns3:TrackPointExtension>
            <ns3:hr>81</ns3:hr>
            <ns3:cad>47</ns3:cad>
          </ns3:TrackPointExtension>
        </extensions>
      </trkpt>
      <trkpt lat="43.76885759644210338592529296875" lon="1.57568623311817646026611328125">
        <ele>161</ele>
        <time>2026-08-13T09:35:22.000Z</time>
        <extensions>
          <ns3:TrackPointExtension>
            <ns3:hr>82</ns3:hr>
            <ns3:cad>47</ns3:cad>
          </ns3:TrackPointExtension>
        </extensions>
      </trkpt>
      <trkpt lat="43.7688457779586315155029296875" lon="1.57570098526775836944580078125">
        <ele>161</ele>
        <time>2026-08-13T09:35:23.000Z</time>
        <extensions>
          <ns3:TrackPointExtension>
            <ns3:hr>83</ns3:hr>
            <ns3:cad>47</ns3:cad>
          </ns3:TrackPointExtension>
        </extensions>
      </trkpt>
      <trkpt lat="43.76883798278868198394775390625" lon="1.57571104355156421661376953125">
        <ele>161</ele>
        <time>2026-08-13T09:35:24.000Z</time>
        <extensions>
          <ns3:TrackPointExtension>
            <ns3:hr>85</ns3:hr>
            <ns3:cad>47</ns3:cad>
          </ns3:TrackPointExtension>
        </extensions>
      </trkpt>
      <trkpt lat="43.76883027143776416778564453125" lon="1.5757171623408794403076171875">
        <ele>161</ele>
        <time>2026-08-13T09:35:25.000Z</time>
        <extensions>
          <ns3:TrackPointExtension>
            <ns3:hr>85</ns3:hr>
            <ns3:cad>47</ns3:cad>
          </ns3:TrackPointExtension>
        </extensions>
      </trkpt>
      <trkpt lat="43.76881954260170459747314453125" lon="1.57572428695857524871826171875">
        <ele>161</ele>
        <time>2026-08-13T09:35:26.000Z</time>
        <extensions>
          <ns3:TrackPointExtension>
            <ns3:hr>85</ns3:hr>
            <ns3:cad>47</ns3:cad>
          </ns3:TrackPointExtension>
        </extensions>
      </trkpt>
      <trkpt lat="43.76880948431789875030517578125" lon="1.5757335908710956573486328125">
        <ele>161</ele>
        <time>2026-08-13T09:35:27.000Z</time>
        <extensions>
          <ns3:TrackPointExtension>
            <ns3:hr>86</ns3:hr>
            <ns3:cad>46</ns3:cad>
          </ns3:TrackPointExtension>
        </extensions>
      </trkpt>
      <trkpt lat="43.76880495809018611907958984375" lon="1.575742475688457489013671875">
        <ele>161</ele>
        <time>2026-08-13T09:35:28.000Z</time>
        <extensions>
          <ns3:TrackPointExtension>
            <ns3:hr>85</ns3:hr>
            <ns3:cad>46</ns3:cad>
          </ns3:TrackPointExtension>
        </extensions>
      </trkpt>
      <trkpt lat="43.76880076713860034942626953125" lon="1.57574289478361606597900390625">
        <ele>161</ele>
        <time>2026-08-13T09:35:29.000Z</time>
        <extensions>
          <ns3:TrackPointExtension>
            <ns3:hr>85</ns3:hr>
            <ns3:cad>46</ns3:cad>
          </ns3:TrackPointExtension>
        </extensions>
      </trkpt>
      <trkpt lat="43.76879221759736537933349609375" lon="1.5757490135729312896728515625">
        <ele>161</ele>
        <time>2026-08-13T09:35:30.000Z</time>
        <extensions>
          <ns3:TrackPointExtension>
            <ns3:hr>85</ns3:hr>
            <ns3:cad>45</ns3:cad>
          </ns3:TrackPointExtension>
        </extensions>
      </trkpt>
      <trkpt lat="43.7687788903713226318359375" lon="1.5757589042186737060546875">
        <ele>161</ele>
        <time>2026-08-13T09:35:31.000Z</time>
        <extensions>
          <ns3:TrackPointExtension>
            <ns3:hr>85</ns3:hr>
            <ns3:cad>45</ns3:cad>
          </ns3:TrackPointExtension>
        </extensions>
      </trkpt>
      <trkpt lat="43.76876883208751678466796875" lon="1.5757708065211772918701171875">
        <ele>161</ele>
        <time>2026-08-13T09:35:32.000Z</time>
        <extensions>
          <ns3:TrackPointExtension>
            <ns3:hr>84</ns3:hr>
            <ns3:cad>45</ns3:cad>
          </ns3:TrackPointExtension>
        </extensions>
      </trkpt>
      <trkpt lat="43.7687609530985355377197265625" lon="1.57577675767242908477783203125">
        <ele>161</ele>
        <time>2026-08-13T09:35:33.000Z</time>
        <extensions>
          <ns3:TrackPointExtension>
            <ns3:hr>84</ns3:hr>
            <ns3:cad>47</ns3:cad>
          </ns3:TrackPointExtension>
        </extensions>
      </trkpt>
      <trkpt lat="43.76875584013760089874267578125" lon="1.57578279264271259307861328125">
        <ele>161</ele>
        <time>2026-08-13T09:35:34.000Z</time>
        <extensions>
          <ns3:TrackPointExtension>
            <ns3:hr>84</ns3:hr>
            <ns3:cad>47</ns3:cad>
          </ns3:TrackPointExtension>
        </extensions>
      </trkpt>
      <trkpt lat="43.76874494366347789764404296875" lon="1.5757936052978038787841796875">
        <ele>161</ele>
        <time>2026-08-13T09:35:35.000Z</time>
        <extensions>
          <ns3:TrackPointExtension>
            <ns3:hr>84</ns3:hr>
            <ns3:cad>47</ns3:cad>
          </ns3:TrackPointExtension>
        </extensions>
      </trkpt>
      <trkpt lat="43.7687359750270843505859375" lon="1.57580927945673465728759765625">
        <ele>161</ele>
        <time>2026-08-13T09:35:36.000Z</time>
        <extensions>
          <ns3:TrackPointExtension>
            <ns3:hr>84</ns3:hr>
            <ns3:cad>46</ns3:cad>
          </ns3:TrackPointExtension>
        </extensions>
      </trkpt>
      <trkpt lat="43.76872834749519824981689453125" lon="1.575816906988620758056640625">
        <ele>161</ele>
        <time>2026-08-13T09:35:37.000Z</time>
        <extensions>
          <ns3:TrackPointExtension>
            <ns3:hr>83</ns3:hr>
            <ns3:cad>46</ns3:cad>
          </ns3:TrackPointExtension>
        </extensions>
      </trkpt>
      <trkpt lat="43.76872164197266101837158203125" lon="1.57582034356892108917236328125">
        <ele>161</ele>
        <time>2026-08-13T09:35:38.000Z</time>
        <extensions>
          <ns3:TrackPointExtension>
            <ns3:hr>84</ns3:hr>
            <ns3:cad>46</ns3:cad>
          </ns3:TrackPointExtension>
        </extensions>
      </trkpt>
      <trkpt lat="43.76871275715529918670654296875" lon="1.575830988585948944091796875">
        <ele>161</ele>
        <time>2026-08-13T09:35:39.000Z</time>
        <extensions>
          <ns3:TrackPointExtension>
            <ns3:hr>84</ns3:hr>
            <ns3:cad>45</ns3:cad>
          </ns3:TrackPointExtension>
        </extensions>
      </trkpt>
      <trkpt lat="43.768702447414398193359375" lon="1.57584280706942081451416015625">
        <ele>161</ele>
        <time>2026-08-13T09:35:40.000Z</time>
        <extensions>
          <ns3:TrackPointExtension>
            <ns3:hr>83</ns3:hr>
            <ns3:cad>45</ns3:cad>
          </ns3:TrackPointExtension>
        </extensions>
      </trkpt>
      <trkpt lat="43.76869465224444866180419921875" lon="1.575849093496799468994140625">
        <ele>161</ele>
        <time>2026-08-13T09:35:41.000Z</time>
        <extensions>
          <ns3:TrackPointExtension>
            <ns3:hr>84</ns3:hr>
            <ns3:cad>45</ns3:cad>
          </ns3:TrackPointExtension>
        </extensions>
      </trkpt>
      <trkpt lat="43.76868861727416515350341796875" lon="1.5758556313812732696533203125">
        <ele>161</ele>
        <time>2026-08-13T09:35:42.000Z</time>
        <extensions>
          <ns3:TrackPointExtension>
            <ns3:hr>83</ns3:hr>
            <ns3:cad>46</ns3:cad>
          </ns3:TrackPointExtension>
        </extensions>
      </trkpt>
      <trkpt lat="43.7686814926564693450927734375" lon="1.5758633427321910858154296875">
        <ele>161</ele>
        <time>2026-08-13T09:35:43.000Z</time>
        <extensions>
          <ns3:TrackPointExtension>
            <ns3:hr>83</ns3:hr>
            <ns3:cad>47</ns3:cad>
          </ns3:TrackPointExtension>
        </extensions>
      </trkpt>
      <trkpt lat="43.7686694227159023284912109375" lon="1.57587650232017040252685546875">
        <ele>161</ele>
        <time>2026-08-13T09:35:44.000Z</time>
        <extensions>
          <ns3:TrackPointExtension>
            <ns3:hr>83</ns3:hr>
            <ns3:cad>47</ns3:cad>
          </ns3:TrackPointExtension>
        </extensions>
      </trkpt>
      <trkpt lat="43.76866162754595279693603515625" lon="1.57588505186140537261962890625">
        <ele>161.1999969482421875</ele>
        <time>2026-08-13T09:35:45.000Z</time>
        <extensions>
          <ns3:TrackPointExtension>
            <ns3:hr>83</ns3:hr>
            <ns3:cad>47</ns3:cad>
          </ns3:TrackPointExtension>
        </extensions>
      </trkpt>
      <trkpt lat="43.76865274272859096527099609375" lon="1.57589108683168888092041015625">
        <ele>161.1999969482421875</ele>
        <time>2026-08-13T09:35:46.000Z</time>
        <extensions>
          <ns3:TrackPointExtension>
            <ns3:hr>82</ns3:hr>
            <ns3:cad>45</ns3:cad>
          </ns3:TrackPointExtension>
        </extensions>
      </trkpt>
      <trkpt lat="43.76864151097834110260009765625" lon="1.57589712180197238922119140625">
        <ele>161.1999969482421875</ele>
        <time>2026-08-13T09:35:47.000Z</time>
        <extensions>
          <ns3:TrackPointExtension>
            <ns3:hr>81</ns3:hr>
            <ns3:cad>45</ns3:cad>
          </ns3:TrackPointExtension>
        </extensions>
      </trkpt>
      <trkpt lat="43.76863472163677215576171875" lon="1.57590365968644618988037109375">
        <ele>161.1999969482421875</ele>
        <time>2026-08-13T09:35:48.000Z</time>
        <extensions>
          <ns3:TrackPointExtension>
            <ns3:hr>80</ns3:hr>
            <ns3:cad>45</ns3:cad>
          </ns3:TrackPointExtension>
        </extensions>
      </trkpt>
      <trkpt lat="43.7686238251626491546630859375" lon="1.57591187395155429840087890625">
        <ele>161.1999969482421875</ele>
        <time>2026-08-13T09:35:49.000Z</time>
        <extensions>
          <ns3:TrackPointExtension>
            <ns3:hr>79</ns3:hr>
            <ns3:cad>47</ns3:cad>
          </ns3:TrackPointExtension>
        </extensions>
      </trkpt>
      <trkpt lat="43.76861552707850933074951171875" lon="1.57592092640697956085205078125">
        <ele>161.1999969482421875</ele>
        <time>2026-08-13T09:35:50.000Z</time>
        <extensions>
          <ns3:TrackPointExtension>
            <ns3:hr>78</ns3:hr>
            <ns3:cad>47</ns3:cad>
          </ns3:TrackPointExtension>
        </extensions>
      </trkpt>
      <trkpt lat="43.76860898919403553009033203125" lon="1.57592712901532649993896484375">
        <ele>161.1999969482421875</ele>
        <time>2026-08-13T09:35:51.000Z</time>
        <extensions>
          <ns3:TrackPointExtension>
            <ns3:hr>77</ns3:hr>
            <ns3:cad>46</ns3:cad>
          </ns3:TrackPointExtension>
        </extensions>
      </trkpt>
      <trkpt lat="43.7686020322144031524658203125" lon="1.5759334154427051544189453125">
        <ele>161.1999969482421875</ele>
        <time>2026-08-13T09:35:52.000Z</time>
        <extensions>
          <ns3:TrackPointExtension>
            <ns3:hr>77</ns3:hr>
            <ns3:cad>46</ns3:cad>
          </ns3:TrackPointExtension>
        </extensions>
      </trkpt>
      <trkpt lat="43.768589794635772705078125" lon="1.57594523392617702484130859375">
        <ele>161.1999969482421875</ele>
        <time>2026-08-13T09:35:53.000Z</time>
        <extensions>
          <ns3:TrackPointExtension>
            <ns3:hr>77</ns3:hr>
            <ns3:cad>49</ns3:cad>
          </ns3:TrackPointExtension>
        </extensions>
      </trkpt>
      <trkpt lat="43.76858417876064777374267578125" lon="1.575949005782604217529296875">
        <ele>161.1999969482421875</ele>
        <time>2026-08-13T09:35:54.000Z</time>
        <extensions>
          <ns3:TrackPointExtension>
            <ns3:hr>77</ns3:hr>
            <ns3:cad>49</ns3:cad>
          </ns3:TrackPointExtension>
        </extensions>
      </trkpt>
      <trkpt lat="43.76857847906649112701416015625" lon="1.57595730386674404144287109375">
        <ele>161.1999969482421875</ele>
        <time>2026-08-13T09:35:55.000Z</time>
        <extensions>
          <ns3:TrackPointExtension>
            <ns3:hr>78</ns3:hr>
            <ns3:cad>48</ns3:cad>
          </ns3:TrackPointExtension>
        </extensions>
      </trkpt>
      <trkpt lat="43.768570013344287872314453125" lon="1.57596652396023273468017578125">
        <ele>161.1999969482421875</ele>
        <time>2026-08-13T09:35:56.000Z</time>
        <extensions>
          <ns3:TrackPointExtension>
            <ns3:hr>78</ns3:hr>
            <ns3:cad>48</ns3:cad>
          </ns3:TrackPointExtension>
        </extensions>
      </trkpt>
      <trkpt lat="43.76855819486081600189208984375" lon="1.57597482204437255859375">
        <ele>161.1999969482421875</ele>
        <time>2026-08-13T09:35:57.000Z</time>
        <extensions>
          <ns3:TrackPointExtension>
            <ns3:hr>78</ns3:hr>
            <ns3:cad>47</ns3:cad>
          </ns3:TrackPointExtension>
        </extensions>
      </trkpt>
      <trkpt lat="43.768547214567661285400390625" lon="1.57599158585071563720703125">
        <ele>161.1999969482421875</ele>
        <time>2026-08-13T09:35:58.000Z</time>
        <extensions>
          <ns3:TrackPointExtension>
            <ns3:hr>78</ns3:hr>
            <ns3:cad>46</ns3:cad>
          </ns3:TrackPointExtension>
        </extensions>
      </trkpt>
      <trkpt lat="43.76854126341640949249267578125" lon="1.57599627971649169921875">
        <ele>161.1999969482421875</ele>
        <time>2026-08-13T09:35:59.000Z</time>
        <extensions>
          <ns3:TrackPointExtension>
            <ns3:hr>78</ns3:hr>
            <ns3:cad>46</ns3:cad>
          </ns3:TrackPointExtension>
        </extensions>
      </trkpt>
      <trkpt lat="43.76852433197200298309326171875" lon="1.57600021921098232269287109375">
        <ele>161.1999969482421875</ele>
        <time>2026-08-13T09:36:00.000Z</time>
        <extensions>
          <ns3:TrackPointExtension>
            <ns3:hr>78</ns3:hr>
            <ns3:cad>46</ns3:cad>
          </ns3:TrackPointExtension>
        </extensions>
      </trkpt>
      <trkpt lat="43.7685168720781803131103515625" lon="1.57601036131381988525390625">
        <ele>161.399993896484375</ele>
        <time>2026-08-13T09:36:01.000Z</time>
        <extensions>
          <ns3:TrackPointExtension>
            <ns3:hr>78</ns3:hr>
            <ns3:cad>47</ns3:cad>
          </ns3:TrackPointExtension>
        </extensions>
      </trkpt>
      <trkpt lat="43.76850656233727931976318359375" lon="1.57602243125438690185546875">
        <ele>161.399993896484375</ele>
        <time>2026-08-13T09:36:02.000Z</time>
        <extensions>
          <ns3:TrackPointExtension>
            <ns3:hr>78</ns3:hr>
            <ns3:cad>47</ns3:cad>
          </ns3:TrackPointExtension>
        </extensions>
      </trkpt>
      <trkpt lat="43.76849365420639514923095703125" lon="1.5760333277285099029541015625">
        <ele>161.399993896484375</ele>
        <time>2026-08-13T09:36:03.000Z</time>
        <extensions>
          <ns3:TrackPointExtension>
            <ns3:hr>78</ns3:hr>
            <ns3:cad>47</ns3:cad>
          </ns3:TrackPointExtension>
        </extensions>
      </trkpt>
      <trkpt lat="43.76849147491157054901123046875" lon="1.57602913677692413330078125">
        <ele>161.399993896484375</ele>
        <time>2026-08-13T09:36:04.000Z</time>
        <extensions>
          <ns3:TrackPointExtension>
            <ns3:hr>79</ns3:hr>
            <ns3:cad>47</ns3:cad>
          </ns3:TrackPointExtension>
        </extensions>
      </trkpt>
      <trkpt lat="43.7684853561222553253173828125" lon="1.57603106461465358734130859375">
        <ele>161.399993896484375</ele>
        <time>2026-08-13T09:36:05.000Z</time>
        <extensions>
          <ns3:TrackPointExtension>
            <ns3:hr>79</ns3:hr>
            <ns3:cad>47</ns3:cad>
          </ns3:TrackPointExtension>
        </extensions>
      </trkpt>
      <trkpt lat="43.7684758007526397705078125" lon="1.57603693194687366485595703125">
        <ele>161.399993896484375</ele>
        <time>2026-08-13T09:36:06.000Z</time>
        <extensions>
          <ns3:TrackPointExtension>
            <ns3:hr>79</ns3:hr>
            <ns3:cad>0</ns3:cad>
          </ns3:TrackPointExtension>
        </extensions>
      </trkpt>
      <trkpt lat="43.76846373081207275390625" lon="1.57604925334453582763671875">
        <ele>161.399993896484375</ele>
        <time>2026-08-13T09:36:07.000Z</time>
        <extensions>
          <ns3:TrackPointExtension>
            <ns3:hr>79</ns3:hr>
            <ns3:cad>0</ns3:cad>
          </ns3:TrackPointExtension>
        </extensions>
      </trkpt>
      <trkpt lat="43.76845501363277435302734375" lon="1.576057970523834228515625">
        <ele>161.399993896484375</ele>
        <time>2026-08-13T09:36:08.000Z</time>
        <extensions>
          <ns3:TrackPointExtension>
            <ns3:hr>79</ns3:hr>
            <ns3:cad>0</ns3:cad>
          </ns3:TrackPointExtension>
        </extensions>
      </trkpt>
      <trkpt lat="43.76844621263444423675537109375" lon="1.5760648436844348907470703125">
        <ele>161.399993896484375</ele>
        <time>2026-08-13T09:36:09.000Z</time>
        <extensions>
          <ns3:TrackPointExtension>
            <ns3:hr>79</ns3:hr>
            <ns3:cad>0</ns3:cad>
          </ns3:TrackPointExtension>
        </extensions>
      </trkpt>
      <trkpt lat="43.76843950711190700531005859375" lon="1.5760705433785915374755859375">
        <ele>161.399993896484375</ele>
        <time>2026-08-13T09:36:10.000Z</time>
        <extensions>
          <ns3:TrackPointExtension>
            <ns3:hr>79</ns3:hr>
            <ns3:cad>0</ns3:cad>
          </ns3:TrackPointExtension>
        </extensions>
      </trkpt>
      <trkpt lat="43.768429867923259735107421875" lon="1.57607766799628734588623046875">
        <ele>161.399993896484375</ele>
        <time>2026-08-13T09:36:11.000Z</time>
        <extensions>
          <ns3:TrackPointExtension>
            <ns3:hr>79</ns3:hr>
            <ns3:cad>0</ns3:cad>
          </ns3:TrackPointExtension>
        </extensions>
      </trkpt>
      <trkpt lat="43.76841880381107330322265625" lon="1.57608806155622005462646484375">
        <ele>161.399993896484375</ele>
        <time>2026-08-13T09:36:12.000Z</time>
        <extensions>
          <ns3:TrackPointExtension>
            <ns3:hr>79</ns3:hr>
            <ns3:cad>0</ns3:cad>
          </ns3:TrackPointExtension>
        </extensions>
      </trkpt>
      <trkpt lat="43.76840807497501373291015625" lon="1.57609275542199611663818359375">
        <ele>161.399993896484375</ele>
        <time>2026-08-13T09:36:13.000Z</time>
        <extensions>
          <ns3:TrackPointExtension>
            <ns3:hr>80</ns3:hr>
            <ns3:cad>0</ns3:cad>
          </ns3:TrackPointExtension>
        </extensions>
      </trkpt>
      <trkpt lat="43.7683998607099056243896484375" lon="1.5760995447635650634765625">
        <ele>161.399993896484375</ele>
        <time>2026-08-13T09:36:14.000Z</time>
        <extensions>
          <ns3:TrackPointExtension>
            <ns3:hr>80</ns3:hr>
            <ns3:cad>0</ns3:cad>
          </ns3:TrackPointExtension>
        </extensions>
      </trkpt>
      <trkpt lat="43.7683924846351146697998046875" lon="1.5761077590286731719970703125">
        <ele>161.399993896484375</ele>
        <time>2026-08-13T09:36:15.000Z</time>
        <extensions>
          <ns3:TrackPointExtension>
            <ns3:hr>81</ns3:hr>
            <ns3:cad>47</ns3:cad>
          </ns3:TrackPointExtension>
        </extensions>
      </trkpt>
      <trkpt lat="43.7683800794184207916259765625" lon="1.5761208347976207733154296875">
        <ele>161.399993896484375</ele>
        <time>2026-08-13T09:36:16.000Z</time>
        <extensions>
          <ns3:TrackPointExtension>
            <ns3:hr>81</ns3:hr>
            <ns3:cad>47</ns3:cad>
          </ns3:TrackPointExtension>
        </extensions>
      </trkpt>
      <trkpt lat="43.7683693505823612213134765625" lon="1.576130390167236328125">
        <ele>161.399993896484375</ele>
        <time>2026-08-13T09:36:17.000Z</time>
        <extensions>
          <ns3:TrackPointExtension>
            <ns3:hr>81</ns3:hr>
            <ns3:cad>47</ns3:cad>
          </ns3:TrackPointExtension>
        </extensions>
      </trkpt>
      <trkpt lat="43.7683602981269359588623046875" lon="1.5761370956897735595703125">
        <ele>161.399993896484375</ele>
        <time>2026-08-13T09:36:18.000Z</time>
        <extensions>
          <ns3:TrackPointExtension>
            <ns3:hr>82</ns3:hr>
            <ns3:cad>47</ns3:cad>
          </ns3:TrackPointExtension>
        </extensions>
      </trkpt>
      <trkpt lat="43.76835384406149387359619140625" lon="1.57614178955554962158203125">
        <ele>161.600006103515625</ele>
        <time>2026-08-13T09:36:19.000Z</time>
        <extensions>
          <ns3:TrackPointExtension>
            <ns3:hr>82</ns3:hr>
            <ns3:cad>47</ns3:cad>
          </ns3:TrackPointExtension>
        </extensions>
      </trkpt>
      <trkpt lat="43.76834529452025890350341796875" lon="1.57615025527775287628173828125">
        <ele>161.600006103515625</ele>
        <time>2026-08-13T09:36:20.000Z</time>
        <extensions>
          <ns3:TrackPointExtension>
            <ns3:hr>82</ns3:hr>
            <ns3:cad>47</ns3:cad>
          </ns3:TrackPointExtension>
        </extensions>
      </trkpt>
      <trkpt lat="43.7683336436748504638671875" lon="1.5761550329625606536865234375">
        <ele>161.600006103515625</ele>
        <time>2026-08-13T09:36:21.000Z</time>
        <extensions>
          <ns3:TrackPointExtension>
            <ns3:hr>82</ns3:hr>
            <ns3:cad>47</ns3:cad>
          </ns3:TrackPointExtension>
        </extensions>
      </trkpt>
      <trkpt lat="43.76832400448620319366455078125" lon="1.576160900294780731201171875">
        <ele>161.600006103515625</ele>
        <time>2026-08-13T09:36:22.000Z</time>
        <extensions>
          <ns3:TrackPointExtension>
            <ns3:hr>82</ns3:hr>
            <ns3:cad>47</ns3:cad>
          </ns3:TrackPointExtension>
        </extensions>
      </trkpt>
      <trkpt lat="43.7683170475065708160400390625" lon="1.5761657617986202239990234375">
        <ele>161.600006103515625</ele>
        <time>2026-08-13T09:36:23.000Z</time>
        <extensions>
          <ns3:TrackPointExtension>
            <ns3:hr>82</ns3:hr>
            <ns3:cad>48</ns3:cad>
          </ns3:TrackPointExtension>
        </extensions>
      </trkpt>
      <trkpt lat="43.76831126399338245391845703125" lon="1.576173640787601470947265625">
        <ele>161.600006103515625</ele>
        <time>2026-08-13T09:36:24.000Z</time>
        <extensions>
          <ns3:TrackPointExtension>
            <ns3:hr>82</ns3:hr>
            <ns3:cad>48</ns3:cad>
          </ns3:TrackPointExtension>
        </extensions>
      </trkpt>
      <trkpt lat="43.76830070279538631439208984375" lon="1.5761845372617244720458984375">
        <ele>161.600006103515625</ele>
        <time>2026-08-13T09:36:25.000Z</time>
        <extensions>
          <ns3:TrackPointExtension>
            <ns3:hr>83</ns3:hr>
            <ns3:cad>47</ns3:cad>
          </ns3:TrackPointExtension>
        </extensions>
      </trkpt>
      <trkpt lat="43.76829810440540313720703125" lon="1.57619333826005458831787109375">
        <ele>161.600006103515625</ele>
        <time>2026-08-13T09:36:26.000Z</time>
        <extensions>
          <ns3:TrackPointExtension>
            <ns3:hr>83</ns3:hr>
            <ns3:cad>47</ns3:cad>
          </ns3:TrackPointExtension>
        </extensions>
      </trkpt>
      <trkpt lat="43.768292404711246490478515625" lon="1.5761979483067989349365234375">
        <ele>161.8000030517578125</ele>
        <time>2026-08-13T09:36:27.000Z</time>
        <extensions>
          <ns3:TrackPointExtension>
            <ns3:hr>83</ns3:hr>
            <ns3:cad>47</ns3:cad>
          </ns3:TrackPointExtension>
        </extensions>
      </trkpt>
      <trkpt lat="43.76828645355999469757080078125" lon="1.5762013010680675506591796875">
        <ele>161.8000030517578125</ele>
        <time>2026-08-13T09:36:28.000Z</time>
        <extensions>
          <ns3:TrackPointExtension>
            <ns3:hr>83</ns3:hr>
            <ns3:cad>47</ns3:cad>
          </ns3:TrackPointExtension>
        </extensions>
      </trkpt>
      <trkpt lat="43.768276982009410858154296875" lon="1.5762086771428585052490234375">
        <ele>161.8000030517578125</ele>
        <time>2026-08-13T09:36:29.000Z</time>
        <extensions>
          <ns3:TrackPointExtension>
            <ns3:hr>83</ns3:hr>
            <ns3:cad>47</ns3:cad>
          </ns3:TrackPointExtension>
        </extensions>
      </trkpt>
      <trkpt lat="43.76826482824981212615966796875" lon="1.57622066326439380645751953125">
        <ele>161.8000030517578125</ele>
        <time>2026-08-13T09:36:30.000Z</time>
        <extensions>
          <ns3:TrackPointExtension>
            <ns3:hr>83</ns3:hr>
            <ns3:cad>47</ns3:cad>
          </ns3:TrackPointExtension>
        </extensions>
      </trkpt>
      <trkpt lat="43.7682545185089111328125" lon="1.57623055391013622283935546875">
        <ele>161.8000030517578125</ele>
        <time>2026-08-13T09:36:31.000Z</time>
        <extensions>
          <ns3:TrackPointExtension>
            <ns3:hr>83</ns3:hr>
            <ns3:cad>47</ns3:cad>
          </ns3:TrackPointExtension>
        </extensions>
      </trkpt>
      <trkpt lat="43.7682439573109149932861328125" lon="1.5762371756136417388916015625">
        <ele>161.8000030517578125</ele>
        <time>2026-08-13T09:36:32.000Z</time>
        <extensions>
          <ns3:TrackPointExtension>
            <ns3:hr>83</ns3:hr>
            <ns3:cad>47</ns3:cad>
          </ns3:TrackPointExtension>
        </extensions>
      </trkpt>
      <trkpt lat="43.76823314465582370758056640625" lon="1.57624639570713043212890625">
        <ele>161.8000030517578125</ele>
        <time>2026-08-13T09:36:33.000Z</time>
        <extensions>
          <ns3:TrackPointExtension>
            <ns3:hr>83</ns3:hr>
            <ns3:cad>46</ns3:cad>
          </ns3:TrackPointExtension>
        </extensions>
      </trkpt>
      <trkpt lat="43.7682211585342884063720703125" lon="1.57625838182866573333740234375">
        <ele>161.8000030517578125</ele>
        <time>2026-08-13T09:36:34.000Z</time>
        <extensions>
          <ns3:TrackPointExtension>
            <ns3:hr>83</ns3:hr>
            <ns3:cad>45</ns3:cad>
          </ns3:TrackPointExtension>
        </extensions>
      </trkpt>
      <trkpt lat="43.76821185462176799774169921875" lon="1.5762743912637233734130859375">
        <ele>162</ele>
        <time>2026-08-13T09:36:35.000Z</time>
        <extensions>
          <ns3:TrackPointExtension>
            <ns3:hr>84</ns3:hr>
            <ns3:cad>45</ns3:cad>
          </ns3:TrackPointExtension>
        </extensions>
      </trkpt>
      <trkpt lat="43.7682047300040721893310546875" lon="1.57628017477691173553466796875">
        <ele>162</ele>
        <time>2026-08-13T09:36:36.000Z</time>
        <extensions>
          <ns3:TrackPointExtension>
            <ns3:hr>84</ns3:hr>
            <ns3:cad>47</ns3:cad>
          </ns3:TrackPointExtension>
        </extensions>
      </trkpt>
      <trkpt lat="43.7681986950337886810302734375" lon="1.5762871317565441131591796875">
        <ele>162</ele>
        <time>2026-08-13T09:36:37.000Z</time>
        <extensions>
          <ns3:TrackPointExtension>
            <ns3:hr>84</ns3:hr>
            <ns3:cad>47</ns3:cad>
          </ns3:TrackPointExtension>
        </extensions>
      </trkpt>
      <trkpt lat="43.7681866250932216644287109375" lon="1.576297022402286529541015625">
        <ele>162</ele>
        <time>2026-08-13T09:36:38.000Z</time>
        <extensions>
          <ns3:TrackPointExtension>
            <ns3:hr>84</ns3:hr>
            <ns3:cad>47</ns3:cad>
          </ns3:TrackPointExtension>
        </extensions>
      </trkpt>
      <trkpt lat="43.76817765645682811737060546875" lon="1.5763059072196483612060546875">
        <ele>162</ele>
        <time>2026-08-13T09:36:39.000Z</time>
        <extensions>
          <ns3:TrackPointExtension>
            <ns3:hr>84</ns3:hr>
            <ns3:cad>46</ns3:cad>
          </ns3:TrackPointExtension>
        </extensions>
      </trkpt>
      <trkpt lat="43.7681695260107517242431640625" lon="1.576309092342853546142578125">
        <ele>162</ele>
        <time>2026-08-13T09:36:40.000Z</time>
        <extensions>
          <ns3:TrackPointExtension>
            <ns3:hr>85</ns3:hr>
            <ns3:cad>46</ns3:cad>
          </ns3:TrackPointExtension>
        </extensions>
      </trkpt>
      <trkpt lat="43.768164999783039093017578125" lon="1.57631387002766132354736328125">
        <ele>162</ele>
        <time>2026-08-13T09:36:41.000Z</time>
        <extensions>
          <ns3:TrackPointExtension>
            <ns3:hr>85</ns3:hr>
            <ns3:cad>46</ns3:cad>
          </ns3:TrackPointExtension>
        </extensions>
      </trkpt>
      <trkpt lat="43.76815401948988437652587890625" lon="1.5763248503208160400390625">
        <ele>162.1999969482421875</ele>
        <time>2026-08-13T09:36:42.000Z</time>
        <extensions>
          <ns3:TrackPointExtension>
            <ns3:hr>85</ns3:hr>
            <ns3:cad>46</ns3:cad>
          </ns3:TrackPointExtension>
        </extensions>
      </trkpt>
      <trkpt lat="43.76814379356801509857177734375" lon="1.57633817754685878753662109375">
        <ele>162.1999969482421875</ele>
        <time>2026-08-13T09:36:43.000Z</time>
        <extensions>
          <ns3:TrackPointExtension>
            <ns3:hr>85</ns3:hr>
            <ns3:cad>46</ns3:cad>
          </ns3:TrackPointExtension>
        </extensions>
      </trkpt>
      <trkpt lat="43.76813574694097042083740234375" lon="1.57634438015520572662353515625">
        <ele>162.1999969482421875</ele>
        <time>2026-08-13T09:36:44.000Z</time>
        <extensions>
          <ns3:TrackPointExtension>
            <ns3:hr>86</ns3:hr>
            <ns3:cad>46</ns3:cad>
          </ns3:TrackPointExtension>
        </extensions>
      </trkpt>
      <trkpt lat="43.76813172362744808197021484375" lon="1.576352678239345550537109375">
        <ele>162.1999969482421875</ele>
        <time>2026-08-13T09:36:45.000Z</time>
        <extensions>
          <ns3:TrackPointExtension>
            <ns3:hr>86</ns3:hr>
            <ns3:cad>46</ns3:cad>
          </ns3:TrackPointExtension>
        </extensions>
      </trkpt>
      <trkpt lat="43.76812107861042022705078125" lon="1.57636282034218311309814453125">
        <ele>162.1999969482421875</ele>
        <time>2026-08-13T09:36:46.000Z</time>
        <extensions>
          <ns3:TrackPointExtension>
            <ns3:hr>86</ns3:hr>
            <ns3:cad>46</ns3:cad>
          </ns3:TrackPointExtension>
        </extensions>
      </trkpt>
      <trkpt lat="43.7681095115840435028076171875" lon="1.576376147568225860595703125">
        <ele>162.399993896484375</ele>
        <time>2026-08-13T09:36:47.000Z</time>
        <extensions>
          <ns3:TrackPointExtension>
            <ns3:hr>86</ns3:hr>
            <ns3:cad>46</ns3:cad>
          </ns3:TrackPointExtension>
        </extensions>
      </trkpt>
      <trkpt lat="43.76810238696634769439697265625" lon="1.5763810090720653533935546875">
        <ele>162.399993896484375</ele>
        <time>2026-08-13T09:36:48.000Z</time>
        <extensions>
          <ns3:TrackPointExtension>
            <ns3:hr>87</ns3:hr>
            <ns3:cad>46</ns3:cad>
          </ns3:TrackPointExtension>
        </extensions>
      </trkpt>
      <trkpt lat="43.76809534616768360137939453125" lon="1.57638478092849254608154296875">
        <ele>162.399993896484375</ele>
        <time>2026-08-13T09:36:49.000Z</time>
        <extensions>
          <ns3:TrackPointExtension>
            <ns3:hr>87</ns3:hr>
            <ns3:cad>46</ns3:cad>
          </ns3:TrackPointExtension>
        </extensions>
      </trkpt>
      <trkpt lat="43.76808486878871917724609375" lon="1.57639282755553722381591796875">
        <ele>162.399993896484375</ele>
        <time>2026-08-13T09:36:50.000Z</time>
        <extensions>
          <ns3:TrackPointExtension>
            <ns3:hr>87</ns3:hr>
            <ns3:cad>45</ns3:cad>
          </ns3:TrackPointExtension>
        </extensions>
      </trkpt>
      <trkpt lat="43.768073804676532745361328125" lon="1.5764051489531993865966796875">
        <ele>162.399993896484375</ele>
        <time>2026-08-13T09:36:51.000Z</time>
        <extensions>
          <ns3:TrackPointExtension>
            <ns3:hr>87</ns3:hr>
            <ns3:cad>45</ns3:cad>
          </ns3:TrackPointExtension>
        </extensions>
      </trkpt>
      <trkpt lat="43.768065087497234344482421875" lon="1.5764145366847515106201171875">
        <ele>162.600006103515625</ele>
        <time>2026-08-13T09:36:52.000Z</time>
        <extensions>
          <ns3:TrackPointExtension>
            <ns3:hr>88</ns3:hr>
            <ns3:cad>45</ns3:cad>
          </ns3:TrackPointExtension>
        </extensions>
      </trkpt>
      <trkpt lat="43.7680602259933948516845703125" lon="1.57641805708408355712890625">
        <ele>162.600006103515625</ele>
        <time>2026-08-13T09:36:53.000Z</time>
        <extensions>
          <ns3:TrackPointExtension>
            <ns3:hr>88</ns3:hr>
            <ns3:cad>46</ns3:cad>
          </ns3:TrackPointExtension>
        </extensions>
      </trkpt>
      <trkpt lat="43.768052347004413604736328125" lon="1.5764215774834156036376953125">
        <ele>162.600006103515625</ele>
        <time>2026-08-13T09:36:54.000Z</time>
        <extensions>
          <ns3:TrackPointExtension>
            <ns3:hr>88</ns3:hr>
            <ns3:cad>46</ns3:cad>
          </ns3:TrackPointExtension>
        </extensions>
      </trkpt>
      <trkpt lat="43.76803684048354625701904296875" lon="1.57642954029142856597900390625">
        <ele>162.600006103515625</ele>
        <time>2026-08-13T09:36:55.000Z</time>
        <extensions>
          <ns3:TrackPointExtension>
            <ns3:hr>89</ns3:hr>
            <ns3:cad>46</ns3:cad>
          </ns3:TrackPointExtension>
        </extensions>
      </trkpt>
      <trkpt lat="43.7680256925523281097412109375" lon="1.57643725164234638214111328125">
        <ele>162.8000030517578125</ele>
        <time>2026-08-13T09:36:56.000Z</time>
        <extensions>
          <ns3:TrackPointExtension>
            <ns3:hr>89</ns3:hr>
            <ns3:cad>47</ns3:cad>
          </ns3:TrackPointExtension>
        </extensions>
      </trkpt>
      <trkpt lat="43.7680179812014102935791015625" lon="1.57644353806972503662109375">
        <ele>162.8000030517578125</ele>
        <time>2026-08-13T09:36:57.000Z</time>
        <extensions>
          <ns3:TrackPointExtension>
            <ns3:hr>89</ns3:hr>
            <ns3:cad>47</ns3:cad>
          </ns3:TrackPointExtension>
        </extensions>
      </trkpt>
      <trkpt lat="43.7680126167833805084228515625" lon="1.5764487348496913909912109375">
        <ele>162.8000030517578125</ele>
        <time>2026-08-13T09:36:58.000Z</time>
        <extensions>
          <ns3:TrackPointExtension>
            <ns3:hr>89</ns3:hr>
            <ns3:cad>47</ns3:cad>
          </ns3:TrackPointExtension>
        </extensions>
      </trkpt>
      <trkpt lat="43.76799727790057659149169921875" lon="1.5764614753425121307373046875">
        <ele>162.8000030517578125</ele>
        <time>2026-08-13T09:36:59.000Z</time>
        <extensions>
          <ns3:TrackPointExtension>
            <ns3:hr>89</ns3:hr>
            <ns3:cad>47</ns3:cad>
          </ns3:TrackPointExtension>
        </extensions>
      </trkpt>
      <trkpt lat="43.76798772253096103668212890625" lon="1.57646792940795421600341796875">
        <ele>162.8000030517578125</ele>
        <time>2026-08-13T09:37:00.000Z</time>
        <extensions>
          <ns3:TrackPointExtension>
            <ns3:hr>90</ns3:hr>
            <ns3:cad>46</ns3:cad>
          </ns3:TrackPointExtension>
        </extensions>
      </trkpt>
      <trkpt lat="43.76797917298972606658935546875" lon="1.57647304236888885498046875">
        <ele>163</ele>
        <time>2026-08-13T09:37:01.000Z</time>
        <extensions>
          <ns3:TrackPointExtension>
            <ns3:hr>90</ns3:hr>
            <ns3:cad>46</ns3:cad>
          </ns3:TrackPointExtension>
        </extensions>
      </trkpt>
      <trkpt lat="43.76797665841877460479736328125" lon="1.5764765627682209014892578125">
        <ele>163</ele>
        <time>2026-08-13T09:37:02.000Z</time>
        <extensions>
          <ns3:TrackPointExtension>
            <ns3:hr>90</ns3:hr>
            <ns3:cad>46</ns3:cad>
          </ns3:TrackPointExtension>
        </extensions>
      </trkpt>
      <trkpt lat="43.7679688632488250732421875" lon="1.5764869563281536102294921875">
        <ele>163</ele>
        <time>2026-08-13T09:37:03.000Z</time>
        <extensions>
          <ns3:TrackPointExtension>
            <ns3:hr>90</ns3:hr>
            <ns3:cad>46</ns3:cad>
          </ns3:TrackPointExtension>
        </extensions>
      </trkpt>
      <trkpt lat="43.7679586373269557952880859375" lon="1.57650011591613292694091796875">
        <ele>163.1999969482421875</ele>
        <time>2026-08-13T09:37:04.000Z</time>
        <extensions>
          <ns3:TrackPointExtension>
            <ns3:hr>90</ns3:hr>
            <ns3:cad>46</ns3:cad>
          </ns3:TrackPointExtension>
        </extensions>
      </trkpt>
      <trkpt lat="43.7679505906999111175537109375" lon="1.57650883309543132781982421875">
        <ele>163.1999969482421875</ele>
        <time>2026-08-13T09:37:05.000Z</time>
        <extensions>
          <ns3:TrackPointExtension>
            <ns3:hr>90</ns3:hr>
            <ns3:cad>46</ns3:cad>
          </ns3:TrackPointExtension>
        </extensions>
      </trkpt>
      <trkpt lat="43.76794531010091304779052734375" lon="1.57651319168508052825927734375">
        <ele>163.1999969482421875</ele>
        <time>2026-08-13T09:37:06.000Z</time>
        <extensions>
          <ns3:TrackPointExtension>
            <ns3:hr>91</ns3:hr>
            <ns3:cad>47</ns3:cad>
          </ns3:TrackPointExtension>
        </extensions>
      </trkpt>
      <trkpt lat="43.767938353121280670166015625" lon="1.576520986855030059814453125">
        <ele>163.1999969482421875</ele>
        <time>2026-08-13T09:37:07.000Z</time>
        <extensions>
          <ns3:TrackPointExtension>
            <ns3:hr>91</ns3:hr>
            <ns3:cad>48</ns3:cad>
          </ns3:TrackPointExtension>
        </extensions>
      </trkpt>
      <trkpt lat="43.7679274566471576690673828125" lon="1.576533727347850799560546875">
        <ele>163.1999969482421875</ele>
        <time>2026-08-13T09:37:08.000Z</time>
        <extensions>
          <ns3:TrackPointExtension>
            <ns3:hr>91</ns3:hr>
            <ns3:cad>48</ns3:cad>
          </ns3:TrackPointExtension>
        </extensions>
      </trkpt>
      <trkpt lat="43.767918907105922698974609375" lon="1.5765409357845783233642578125">
        <ele>163.1999969482421875</ele>
        <time>2026-08-13T09:37:09.000Z</time>
        <extensions>
          <ns3:TrackPointExtension>
            <ns3:hr>91</ns3:hr>
            <ns3:cad>46</ns3:cad>
          </ns3:TrackPointExtension>
        </extensions>
      </trkpt>
      <trkpt lat="43.76791614107787609100341796875" lon="1.576546132564544677734375">
        <ele>163.399993896484375</ele>
        <time>2026-08-13T09:37:10.000Z</time>
        <extensions>
          <ns3:TrackPointExtension>
            <ns3:hr>91</ns3:hr>
            <ns3:cad>46</ns3:cad>
          </ns3:TrackPointExtension>
        </extensions>
      </trkpt>
      <trkpt lat="43.76790943555533885955810546875" lon="1.57655191607773303985595703125">
        <ele>163.399993896484375</ele>
        <time>2026-08-13T09:37:11.000Z</time>
        <extensions>
          <ns3:TrackPointExtension>
            <ns3:hr>92</ns3:hr>
            <ns3:cad>46</ns3:cad>
          </ns3:TrackPointExtension>
        </extensions>
      </trkpt>
      <trkpt lat="43.76789719797670841217041015625" lon="1.57656063325703144073486328125">
        <ele>163.399993896484375</ele>
        <time>2026-08-13T09:37:12.000Z</time>
        <extensions>
          <ns3:TrackPointExtension>
            <ns3:hr>92</ns3:hr>
            <ns3:cad>45</ns3:cad>
          </ns3:TrackPointExtension>
        </extensions>
      </trkpt>
      <trkpt lat="43.7678862176835536956787109375" lon="1.57656826078891754150390625">
        <ele>163.399993896484375</ele>
        <time>2026-08-13T09:37:13.000Z</time>
        <extensions>
          <ns3:TrackPointExtension>
            <ns3:hr>92</ns3:hr>
            <ns3:cad>45</ns3:cad>
          </ns3:TrackPointExtension>
        </extensions>
      </trkpt>
      <trkpt lat="43.767876662313938140869140625" lon="1.576571278274059295654296875">
        <ele>163.399993896484375</ele>
        <time>2026-08-13T09:37:14.000Z</time>
        <extensions>
          <ns3:TrackPointExtension>
            <ns3:hr>92</ns3:hr>
            <ns3:cad>45</ns3:cad>
          </ns3:TrackPointExtension>
        </extensions>
      </trkpt>
      <trkpt lat="43.76786886714398860931396484375" lon="1.57657563686370849609375">
        <ele>163.600006103515625</ele>
        <time>2026-08-13T09:37:15.000Z</time>
        <extensions>
          <ns3:TrackPointExtension>
            <ns3:hr>92</ns3:hr>
            <ns3:cad>46</ns3:cad>
          </ns3:TrackPointExtension>
        </extensions>
      </trkpt>
      <trkpt lat="43.76785277388989925384521484375" lon="1.57658846117556095123291015625">
        <ele>163.600006103515625</ele>
        <time>2026-08-13T09:37:16.000Z</time>
        <extensions>
          <ns3:TrackPointExtension>
            <ns3:hr>92</ns3:hr>
            <ns3:cad>46</ns3:cad>
          </ns3:TrackPointExtension>
        </extensions>
      </trkpt>
      <trkpt lat="43.7678429670631885528564453125" lon="1.57659617252647876739501953125">
        <ele>163.600006103515625</ele>
        <time>2026-08-13T09:37:17.000Z</time>
        <extensions>
          <ns3:TrackPointExtension>
            <ns3:hr>92</ns3:hr>
            <ns3:cad>46</ns3:cad>
          </ns3:TrackPointExtension>
        </extensions>
      </trkpt>
      <trkpt lat="43.76783416606485843658447265625" lon="1.57660539261996746063232421875">
        <ele>163.600006103515625</ele>
        <time>2026-08-13T09:37:18.000Z</time>
        <extensions>
          <ns3:TrackPointExtension>
            <ns3:hr>92</ns3:hr>
            <ns3:cad>46</ns3:cad>
          </ns3:TrackPointExtension>
        </extensions>
      </trkpt>
      <trkpt lat="43.767822682857513427734375" lon="1.57661226578056812286376953125">
        <ele>163.600006103515625</ele>
        <time>2026-08-13T09:37:19.000Z</time>
        <extensions>
          <ns3:TrackPointExtension>
            <ns3:hr>92</ns3:hr>
            <ns3:cad>46</ns3:cad>
          </ns3:TrackPointExtension>
        </extensions>
      </trkpt>
      <trkpt lat="43.767812289297580718994140625" lon="1.57662031240761280059814453125">
        <ele>163.8000030517578125</ele>
        <time>2026-08-13T09:37:20.000Z</time>
        <extensions>
          <ns3:TrackPointExtension>
            <ns3:hr>92</ns3:hr>
            <ns3:cad>46</ns3:cad>
          </ns3:TrackPointExtension>
        </extensions>
      </trkpt>
      <trkpt lat="43.767800889909267425537109375" lon="1.576631627976894378662109375">
        <ele>163.8000030517578125</ele>
        <time>2026-08-13T09:37:21.000Z</time>
        <extensions>
          <ns3:TrackPointExtension>
            <ns3:hr>93</ns3:hr>
            <ns3:cad>45</ns3:cad>
          </ns3:TrackPointExtension>
        </extensions>
      </trkpt>
      <trkpt lat="43.7677923403680324554443359375" lon="1.57664126716554164886474609375">
        <ele>163.8000030517578125</ele>
        <time>2026-08-13T09:37:22.000Z</time>
        <extensions>
          <ns3:TrackPointExtension>
            <ns3:hr>92</ns3:hr>
            <ns3:cad>45</ns3:cad>
          </ns3:TrackPointExtension>
        </extensions>
      </trkpt>
      <trkpt lat="43.76778655685484409332275390625" lon="1.57664864324033260345458984375">
        <ele>163.8000030517578125</ele>
        <time>2026-08-13T09:37:23.000Z</time>
        <extensions>
          <ns3:TrackPointExtension>
            <ns3:hr>92</ns3:hr>
            <ns3:cad>45</ns3:cad>
          </ns3:TrackPointExtension>
        </extensions>
      </trkpt>
      <trkpt lat="43.7677812762558460235595703125" lon="1.5766576118767261505126953125">
        <ele>163.8000030517578125</ele>
        <time>2026-08-13T09:37:24.000Z</time>
        <extensions>
          <ns3:TrackPointExtension>
            <ns3:hr>92</ns3:hr>
            <ns3:cad>48</ns3:cad>
          </ns3:TrackPointExtension>
        </extensions>
      </trkpt>
      <trkpt lat="43.76777096651494503021240234375" lon="1.57666641287505626678466796875">
        <ele>164</ele>
        <time>2026-08-13T09:37:25.000Z</time>
        <extensions>
          <ns3:TrackPointExtension>
            <ns3:hr>91</ns3:hr>
            <ns3:cad>48</ns3:cad>
          </ns3:TrackPointExtension>
        </extensions>
      </trkpt>
      <trkpt lat="43.76776291988790035247802734375" lon="1.57667362131178379058837890625">
        <ele>164</ele>
        <time>2026-08-13T09:37:26.000Z</time>
        <extensions>
          <ns3:TrackPointExtension>
            <ns3:hr>91</ns3:hr>
            <ns3:cad>48</ns3:cad>
          </ns3:TrackPointExtension>
        </extensions>
      </trkpt>
      <trkpt lat="43.76775453798472881317138671875" lon="1.57668116502463817596435546875">
        <ele>164</ele>
        <time>2026-08-13T09:37:27.000Z</time>
        <extensions>
          <ns3:TrackPointExtension>
            <ns3:hr>91</ns3:hr>
            <ns3:cad>47</ns3:cad>
          </ns3:TrackPointExtension>
        </extensions>
      </trkpt>
      <trkpt lat="43.76774816773831844329833984375" lon="1.5766840986907482147216796875">
        <ele>164</ele>
        <time>2026-08-13T09:37:28.000Z</time>
        <extensions>
          <ns3:TrackPointExtension>
            <ns3:hr>90</ns3:hr>
            <ns3:cad>46</ns3:cad>
          </ns3:TrackPointExtension>
        </extensions>
      </trkpt>
      <trkpt lat="43.76773408614099025726318359375" lon="1.5766911394894123077392578125">
        <ele>164</ele>
        <time>2026-08-13T09:37:29.000Z</time>
        <extensions>
          <ns3:TrackPointExtension>
            <ns3:hr>90</ns3:hr>
            <ns3:cad>46</ns3:cad>
          </ns3:TrackPointExtension>
        </extensions>
      </trkpt>
      <trkpt lat="43.76772855408489704132080078125" lon="1.5766976773738861083984375">
        <ele>164.1999969482421875</ele>
        <time>2026-08-13T09:37:30.000Z</time>
        <extensions>
          <ns3:TrackPointExtension>
            <ns3:hr>90</ns3:hr>
            <ns3:cad>46</ns3:cad>
          </ns3:TrackPointExtension>
        </extensions>
      </trkpt>
      <trkpt lat="43.76772436313331127166748046875" lon="1.57670178450644016265869140625">
        <ele>164.1999969482421875</ele>
        <time>2026-08-13T09:37:31.000Z</time>
        <extensions>
          <ns3:TrackPointExtension>
            <ns3:hr>91</ns3:hr>
            <ns3:cad>46</ns3:cad>
          </ns3:TrackPointExtension>
        </extensions>
      </trkpt>
      <trkpt lat="43.76771832816302776336669921875" lon="1.57670279033482074737548828125">
        <ele>164.1999969482421875</ele>
        <time>2026-08-13T09:37:32.000Z</time>
        <extensions>
          <ns3:TrackPointExtension>
            <ns3:hr>90</ns3:hr>
            <ns3:cad>46</ns3:cad>
          </ns3:TrackPointExtension>
        </extensions>
      </trkpt>
      <trkpt lat="43.767705671489238739013671875" lon="1.57671435736119747161865234375">
        <ele>164.1999969482421875</ele>
        <time>2026-08-13T09:37:33.000Z</time>
        <extensions>
          <ns3:TrackPointExtension>
            <ns3:hr>90</ns3:hr>
            <ns3:cad>46</ns3:cad>
          </ns3:TrackPointExtension>
        </extensions>
      </trkpt>
      <trkpt lat="43.76769066788256168365478515625" lon="1.576727516949176788330078125">
        <ele>164.1999969482421875</ele>
        <time>2026-08-13T09:37:34.000Z</time>
        <extensions>
          <ns3:TrackPointExtension>
            <ns3:hr>91</ns3:hr>
            <ns3:cad>0</ns3:cad>
          </ns3:TrackPointExtension>
        </extensions>
      </trkpt>
      <trkpt lat="43.76768111251294612884521484375" lon="1.57673397101461887359619140625">
        <ele>164.1999969482421875</ele>
        <time>2026-08-13T09:37:35.000Z</time>
        <extensions>
          <ns3:TrackPointExtension>
            <ns3:hr>90</ns3:hr>
            <ns3:cad>0</ns3:cad>
          </ns3:TrackPointExtension>
        </extensions>
      </trkpt>
      <trkpt lat="43.76767390407621860504150390625" lon="1.5767370723187923431396484375">
        <ele>164.1999969482421875</ele>
        <time>2026-08-13T09:37:36.000Z</time>
        <extensions>
          <ns3:TrackPointExtension>
            <ns3:hr>90</ns3:hr>
            <ns3:cad>0</ns3:cad>
          </ns3:TrackPointExtension>
        </extensions>
      </trkpt>
      <trkpt lat="43.76766451634466648101806640625" lon="1.5767421014606952667236328125">
        <ele>164.1999969482421875</ele>
        <time>2026-08-13T09:37:37.000Z</time>
        <extensions>
          <ns3:TrackPointExtension>
            <ns3:hr>91</ns3:hr>
            <ns3:cad>0</ns3:cad>
          </ns3:TrackPointExtension>
        </extensions>
      </trkpt>
      <trkpt lat="43.76765194348990917205810546875" lon="1.57675224356353282928466796875">
        <ele>164.1999969482421875</ele>
        <time>2026-08-13T09:37:38.000Z</time>
        <extensions>
          <ns3:TrackPointExtension>
            <ns3:hr>91</ns3:hr>
            <ns3:cad>0</ns3:cad>
          </ns3:TrackPointExtension>
        </extensions>
      </trkpt>
      <trkpt lat="43.767642974853515625" lon="1.57675945200026035308837890625">
        <ele>164.1999969482421875</ele>
        <time>2026-08-13T09:37:39.000Z</time>
        <extensions>
          <ns3:TrackPointExtension>
            <ns3:hr>91</ns3:hr>
            <ns3:cad>49</ns3:cad>
          </ns3:TrackPointExtension>
        </extensions>
      </trkpt>
      <trkpt lat="43.767634592950344085693359375" lon="1.576767079532146453857421875">
        <ele>164.399993896484375</ele>
        <time>2026-08-13T09:37:40.000Z</time>
        <extensions>
          <ns3:TrackPointExtension>
            <ns3:hr>91</ns3:hr>
            <ns3:cad>47</ns3:cad>
          </ns3:TrackPointExtension>
        </extensions>
      </trkpt>
      <trkpt lat="43.76762847416102886199951171875" lon="1.57677403651177883148193359375">
        <ele>164.399993896484375</ele>
        <time>2026-08-13T09:37:41.000Z</time>
        <extensions>
          <ns3:TrackPointExtension>
            <ns3:hr>91</ns3:hr>
            <ns3:cad>47</ns3:cad>
          </ns3:TrackPointExtension>
        </extensions>
      </trkpt>
      <trkpt lat="43.76761774532496929168701171875" lon="1.5767840109765529632568359375">
        <ele>164.399993896484375</ele>
        <time>2026-08-13T09:37:42.000Z</time>
        <extensions>
          <ns3:TrackPointExtension>
            <ns3:hr>92</ns3:hr>
            <ns3:cad>47</ns3:cad>
          </ns3:TrackPointExtension>
        </extensions>
      </trkpt>
      <trkpt lat="43.76760617829859256744384765625" lon="1.57679482363164424896240234375">
        <ele>164.399993896484375</ele>
        <time>2026-08-13T09:37:43.000Z</time>
        <extensions>
          <ns3:TrackPointExtension>
            <ns3:hr>93</ns3:hr>
            <ns3:cad>47</ns3:cad>
          </ns3:TrackPointExtension>
        </extensions>
      </trkpt>
      <trkpt lat="43.76759729348123073577880859375" lon="1.57680253498256206512451171875">
        <ele>164.399993896484375</ele>
        <time>2026-08-13T09:37:44.000Z</time>
        <extensions>
          <ns3:TrackPointExtension>
            <ns3:hr>94</ns3:hr>
            <ns3:cad>47</ns3:cad>
          </ns3:TrackPointExtension>
        </extensions>
      </trkpt>
      <trkpt lat="43.7675911746919155120849609375" lon="1.576805301010608673095703125">
        <ele>164.399993896484375</ele>
        <time>2026-08-13T09:37:45.000Z</time>
        <extensions>
          <ns3:TrackPointExtension>
            <ns3:hr>94</ns3:hr>
            <ns3:cad>47</ns3:cad>
          </ns3:TrackPointExtension>
        </extensions>
      </trkpt>
      <trkpt lat="43.76758254133164882659912109375" lon="1.5768145211040973663330078125">
        <ele>164.399993896484375</ele>
        <time>2026-08-13T09:37:46.000Z</time>
        <extensions>
          <ns3:TrackPointExtension>
            <ns3:hr>95</ns3:hr>
            <ns3:cad>47</ns3:cad>
          </ns3:TrackPointExtension>
        </extensions>
      </trkpt>
      <trkpt lat="43.7675690464675426483154296875" lon="1.57682583667337894439697265625">
        <ele>164.399993896484375</ele>
        <time>2026-08-13T09:37:47.000Z</time>
        <extensions>
          <ns3:TrackPointExtension>
            <ns3:hr>95</ns3:hr>
            <ns3:cad>47</ns3:cad>
          </ns3:TrackPointExtension>
        </extensions>
      </trkpt>
      <trkpt lat="43.767559491097927093505859375" lon="1.576838828623294830322265625">
        <ele>164.600006103515625</ele>
        <time>2026-08-13T09:37:48.000Z</time>
        <extensions>
          <ns3:TrackPointExtension>
            <ns3:hr>95</ns3:hr>
            <ns3:cad>46</ns3:cad>
          </ns3:TrackPointExtension>
        </extensions>
      </trkpt>
      <trkpt lat="43.767550103366374969482421875" lon="1.57684712670743465423583984375">
        <ele>164.600006103515625</ele>
        <time>2026-08-13T09:37:49.000Z</time>
        <extensions>
          <ns3:TrackPointExtension>
            <ns3:hr>95</ns3:hr>
            <ns3:cad>46</ns3:cad>
          </ns3:TrackPointExtension>
        </extensions>
      </trkpt>
      <trkpt lat="43.76754398457705974578857421875" lon="1.5768517367541790008544921875">
        <ele>164.600006103515625</ele>
        <time>2026-08-13T09:37:50.000Z</time>
        <extensions>
          <ns3:TrackPointExtension>
            <ns3:hr>94</ns3:hr>
            <ns3:cad>46</ns3:cad>
          </ns3:TrackPointExtension>
        </extensions>
      </trkpt>
      <trkpt lat="43.76753359101712703704833984375" lon="1.57685902900993824005126953125">
        <ele>164.600006103515625</ele>
        <time>2026-08-13T09:37:51.000Z</time>
        <extensions>
          <ns3:TrackPointExtension>
            <ns3:hr>95</ns3:hr>
            <ns3:cad>47</ns3:cad>
          </ns3:TrackPointExtension>
        </extensions>
      </trkpt>
      <trkpt lat="43.76752269454300403594970703125" lon="1.57687277533113956451416015625">
        <ele>164.600006103515625</ele>
        <time>2026-08-13T09:37:52.000Z</time>
        <extensions>
          <ns3:TrackPointExtension>
            <ns3:hr>95</ns3:hr>
            <ns3:cad>47</ns3:cad>
          </ns3:TrackPointExtension>
        </extensions>
      </trkpt>
      <trkpt lat="43.76751087605953216552734375" lon="1.57688668929040431976318359375">
        <ele>164.600006103515625</ele>
        <time>2026-08-13T09:37:53.000Z</time>
        <extensions>
          <ns3:TrackPointExtension>
            <ns3:hr>94</ns3:hr>
            <ns3:cad>47</ns3:cad>
          </ns3:TrackPointExtension>
        </extensions>
      </trkpt>
      <trkpt lat="43.7675048410892486572265625" lon="1.57689825631678104400634765625">
        <ele>164.600006103515625</ele>
        <time>2026-08-13T09:37:54.000Z</time>
        <extensions>
          <ns3:TrackPointExtension>
            <ns3:hr>94</ns3:hr>
            <ns3:cad>47</ns3:cad>
          </ns3:TrackPointExtension>
        </extensions>
      </trkpt>
      <trkpt lat="43.76750014722347259521484375" lon="1.57690613530576229095458984375">
        <ele>164.8000030517578125</ele>
        <time>2026-08-13T09:37:55.000Z</time>
        <extensions>
          <ns3:TrackPointExtension>
            <ns3:hr>94</ns3:hr>
            <ns3:cad>47</ns3:cad>
          </ns3:TrackPointExtension>
        </extensions>
      </trkpt>
      <trkpt lat="43.76749620772898197174072265625" lon="1.57691116444766521453857421875">
        <ele>164.8000030517578125</ele>
        <time>2026-08-13T09:37:56.000Z</time>
        <extensions>
          <ns3:TrackPointExtension>
            <ns3:hr>95</ns3:hr>
            <ns3:cad>47</ns3:cad>
          </ns3:TrackPointExtension>
        </extensions>
      </trkpt>
      <trkpt lat="43.76748405396938323974609375" lon="1.57692390494048595428466796875">
        <ele>164.8000030517578125</ele>
        <time>2026-08-13T09:37:57.000Z</time>
        <extensions>
          <ns3:TrackPointExtension>
            <ns3:hr>95</ns3:hr>
            <ns3:cad>47</ns3:cad>
          </ns3:TrackPointExtension>
        </extensions>
      </trkpt>
      <trkpt lat="43.76747122965753078460693359375" lon="1.576936058700084686279296875">
        <ele>164.8000030517578125</ele>
        <time>2026-08-13T09:37:58.000Z</time>
        <extensions>
          <ns3:TrackPointExtension>
            <ns3:hr>94</ns3:hr>
            <ns3:cad>47</ns3:cad>
          </ns3:TrackPointExtension>
        </extensions>
      </trkpt>
      <trkpt lat="43.76746125519275665283203125" lon="1.57694645226001739501953125">
        <ele>164.8000030517578125</ele>
        <time>2026-08-13T09:37:59.000Z</time>
        <extensions>
          <ns3:TrackPointExtension>
            <ns3:hr>94</ns3:hr>
            <ns3:cad>48</ns3:cad>
          </ns3:TrackPointExtension>
        </extensions>
      </trkpt>
      <trkpt lat="43.76745362766087055206298828125" lon="1.57695315778255462646484375">
        <ele>164.8000030517578125</ele>
        <time>2026-08-13T09:38:00.000Z</time>
        <extensions>
          <ns3:TrackPointExtension>
            <ns3:hr>95</ns3:hr>
            <ns3:cad>49</ns3:cad>
          </ns3:TrackPointExtension>
        </extensions>
      </trkpt>
      <trkpt lat="43.76744641922414302825927734375" lon="1.576959192752838134765625">
        <ele>164.600006103515625</ele>
        <time>2026-08-13T09:38:01.000Z</time>
        <extensions>
          <ns3:TrackPointExtension>
            <ns3:hr>95</ns3:hr>
            <ns3:cad>49</ns3:cad>
          </ns3:TrackPointExtension>
        </extensions>
      </trkpt>
      <trkpt lat="43.7674376182258129119873046875" lon="1.5769658982753753662109375">
        <ele>164.600006103515625</ele>
        <time>2026-08-13T09:38:02.000Z</time>
        <extensions>
          <ns3:TrackPointExtension>
            <ns3:hr>95</ns3:hr>
            <ns3:cad>49</ns3:cad>
          </ns3:TrackPointExtension>
        </extensions>
      </trkpt>
      <trkpt lat="43.767426721751689910888671875" lon="1.576980650424957275390625">
        <ele>164.8000030517578125</ele>
        <time>2026-08-13T09:38:03.000Z</time>
        <extensions>
          <ns3:TrackPointExtension>
            <ns3:hr>95</ns3:hr>
            <ns3:cad>48</ns3:cad>
          </ns3:TrackPointExtension>
        </extensions>
      </trkpt>
      <trkpt lat="43.76741892658174037933349609375" lon="1.5769902057945728302001953125">
        <ele>164.8000030517578125</ele>
        <time>2026-08-13T09:38:04.000Z</time>
        <extensions>
          <ns3:TrackPointExtension>
            <ns3:hr>96</ns3:hr>
            <ns3:cad>48</ns3:cad>
          </ns3:TrackPointExtension>
        </extensions>
      </trkpt>
      <trkpt lat="43.76741289161145687103271484375" lon="1.57699070870876312255859375">
        <ele>164.8000030517578125</ele>
        <time>2026-08-13T09:38:05.000Z</time>
        <extensions>
          <ns3:TrackPointExtension>
            <ns3:hr>95</ns3:hr>
            <ns3:cad>48</ns3:cad>
          </ns3:TrackPointExtension>
        </extensions>
      </trkpt>
      <trkpt lat="43.76739948056638240814208984375" lon="1.57700185663998126983642578125">
        <ele>164.8000030517578125</ele>
        <time>2026-08-13T09:38:06.000Z</time>
        <extensions>
          <ns3:TrackPointExtension>
            <ns3:hr>94</ns3:hr>
            <ns3:cad>48</ns3:cad>
          </ns3:TrackPointExtension>
        </extensions>
      </trkpt>
      <trkpt lat="43.76739461906254291534423828125" lon="1.57701275311410427093505859375">
        <ele>164.8000030517578125</ele>
        <time>2026-08-13T09:38:07.000Z</time>
        <extensions>
          <ns3:TrackPointExtension>
            <ns3:hr>93</ns3:hr>
            <ns3:cad>48</ns3:cad>
          </ns3:TrackPointExtension>
        </extensions>
      </trkpt>
      <trkpt lat="43.76738623715937137603759765625" lon="1.57702281139791011810302734375">
        <ele>164.8000030517578125</ele>
        <time>2026-08-13T09:38:08.000Z</time>
        <extensions>
          <ns3:TrackPointExtension>
            <ns3:hr>92</ns3:hr>
            <ns3:cad>48</ns3:cad>
          </ns3:TrackPointExtension>
        </extensions>
      </trkpt>
      <trkpt lat="43.76737408339977264404296875" lon="1.5770354680716991424560546875">
        <ele>164.8000030517578125</ele>
        <time>2026-08-13T09:38:09.000Z</time>
        <extensions>
          <ns3:TrackPointExtension>
            <ns3:hr>92</ns3:hr>
            <ns3:cad>48</ns3:cad>
          </ns3:TrackPointExtension>
        </extensions>
      </trkpt>
      <trkpt lat="43.76736310310661792755126953125" lon="1.57704041339457035064697265625">
        <ele>164.8000030517578125</ele>
        <time>2026-08-13T09:38:10.000Z</time>
        <extensions>
          <ns3:TrackPointExtension>
            <ns3:hr>92</ns3:hr>
            <ns3:cad>47</ns3:cad>
          </ns3:TrackPointExtension>
        </extensions>
      </trkpt>
      <trkpt lat="43.76734851859509944915771484375" lon="1.57704778946936130523681640625">
        <ele>165</ele>
        <time>2026-08-13T09:38:11.000Z</time>
        <extensions>
          <ns3:TrackPointExtension>
            <ns3:hr>91</ns3:hr>
            <ns3:cad>47</ns3:cad>
          </ns3:TrackPointExtension>
        </extensions>
      </trkpt>
      <trkpt lat="43.7673350237309932708740234375" lon="1.57706069760024547576904296875">
        <ele>164.8000030517578125</ele>
        <time>2026-08-13T09:38:12.000Z</time>
        <extensions>
          <ns3:TrackPointExtension>
            <ns3:hr>91</ns3:hr>
            <ns3:cad>47</ns3:cad>
          </ns3:TrackPointExtension>
        </extensions>
      </trkpt>
      <trkpt lat="43.7673253007233142852783203125" lon="1.5770713426172733306884765625">
        <ele>165</ele>
        <time>2026-08-13T09:38:13.000Z</time>
        <extensions>
          <ns3:TrackPointExtension>
            <ns3:hr>91</ns3:hr>
            <ns3:cad>0</ns3:cad>
          </ns3:TrackPointExtension>
        </extensions>
      </trkpt>
      <trkpt lat="43.7673192657530307769775390625" lon="1.57707385718822479248046875">
        <ele>165</ele>
        <time>2026-08-13T09:38:14.000Z</time>
        <extensions>
          <ns3:TrackPointExtension>
            <ns3:hr>91</ns3:hr>
            <ns3:cad>0</ns3:cad>
          </ns3:TrackPointExtension>
        </extensions>
      </trkpt>
      <trkpt lat="43.76731364987790584564208984375" lon="1.5770726837217807769775390625">
        <ele>165</ele>
        <time>2026-08-13T09:38:15.000Z</time>
        <extensions>
          <ns3:TrackPointExtension>
            <ns3:hr>91</ns3:hr>
            <ns3:cad>0</ns3:cad>
          </ns3:TrackPointExtension>
        </extensions>
      </trkpt>
      <trkpt lat="43.76731046475470066070556640625" lon="1.577071510255336761474609375">
        <ele>165.1999969482421875</ele>
        <time>2026-08-13T09:38:16.000Z</time>
        <extensions>
          <ns3:TrackPointExtension>
            <ns3:hr>91</ns3:hr>
            <ns3:cad>0</ns3:cad>
          </ns3:TrackPointExtension>
        </extensions>
      </trkpt>
      <trkpt lat="43.76731147058308124542236328125" lon="1.5770689956843852996826171875">
        <ele>165.1999969482421875</ele>
        <time>2026-08-13T09:38:17.000Z</time>
        <extensions>
          <ns3:TrackPointExtension>
            <ns3:hr>91</ns3:hr>
            <ns3:cad>0</ns3:cad>
          </ns3:TrackPointExtension>
        </extensions>
      </trkpt>
      <trkpt lat="43.76731432043015956878662109375" lon="1.5770666487514972686767578125">
        <ele>165.1999969482421875</ele>
        <time>2026-08-13T09:38:18.000Z</time>
        <extensions>
          <ns3:TrackPointExtension>
            <ns3:hr>92</ns3:hr>
            <ns3:cad>0</ns3:cad>
          </ns3:TrackPointExtension>
        </extensions>
      </trkpt>
      <trkpt lat="43.76731348223984241485595703125" lon="1.57706589438021183013916015625">
        <ele>165</ele>
        <time>2026-08-13T09:38:19.000Z</time>
        <extensions>
          <ns3:TrackPointExtension>
            <ns3:hr>92</ns3:hr>
            <ns3:cad>0</ns3:cad>
          </ns3:TrackPointExtension>
        </extensions>
      </trkpt>
      <trkpt lat="43.7673125602304935455322265625" lon="1.57706723548471927642822265625">
        <ele>165</ele>
        <time>2026-08-13T09:38:20.000Z</time>
        <extensions>
          <ns3:TrackPointExtension>
            <ns3:hr>91</ns3:hr>
            <ns3:cad>0</ns3:cad>
          </ns3:TrackPointExtension>
        </extensions>
      </trkpt>
      <trkpt lat="43.7673068605363368988037109375" lon="1.57706388272345066070556640625">
        <ele>165</ele>
        <time>2026-08-13T09:38:21.000Z</time>
        <extensions>
          <ns3:TrackPointExtension>
            <ns3:hr>91</ns3:hr>
            <ns3:cad>0</ns3:cad>
          </ns3:TrackPointExtension>
        </extensions>
      </trkpt>
      <trkpt lat="43.7673128955066204071044921875" lon="1.5770669840276241302490234375">
        <ele>165</ele>
        <time>2026-08-13T09:38:22.000Z</time>
        <extensions>
          <ns3:TrackPointExtension>
            <ns3:hr>91</ns3:hr>
            <ns3:cad>0</ns3:cad>
          </ns3:TrackPointExtension>
        </extensions>
      </trkpt>
      <trkpt lat="43.7673132307827472686767578125" lon="1.57706874422729015350341796875">
        <ele>165</ele>
        <time>2026-08-13T09:38:23.000Z</time>
        <extensions>
          <ns3:TrackPointExtension>
            <ns3:hr>91</ns3:hr>
            <ns3:cad>0</ns3:cad>
          </ns3:TrackPointExtension>
        </extensions>
      </trkpt>
      <trkpt lat="43.7673105485737323760986328125" lon="1.57706304453313350677490234375">
        <ele>165</ele>
        <time>2026-08-13T09:38:24.000Z</time>
        <extensions>
          <ns3:TrackPointExtension>
            <ns3:hr>90</ns3:hr>
            <ns3:cad>0</ns3:cad>
          </ns3:TrackPointExtension>
        </extensions>
      </trkpt>
      <trkpt lat="43.76730660907924175262451171875" lon="1.57707544974982738494873046875">
        <ele>165</ele>
        <time>2026-08-13T09:38:25.000Z</time>
        <extensions>
          <ns3:TrackPointExtension>
            <ns3:hr>90</ns3:hr>
            <ns3:cad>0</ns3:cad>
          </ns3:TrackPointExtension>
        </extensions>
      </trkpt>
      <trkpt lat="43.7673009932041168212890625" lon="1.57707779668271541595458984375">
        <ele>165</ele>
        <time>2026-08-13T09:38:26.000Z</time>
        <extensions>
          <ns3:TrackPointExtension>
            <ns3:hr>87</ns3:hr>
            <ns3:cad>0</ns3:cad>
          </ns3:TrackPointExtension>
        </extensions>
      </trkpt>
      <trkpt lat="43.76728691160678863525390625" lon="1.5770877711474895477294921875">
        <ele>165</ele>
        <time>2026-08-13T09:38:27.000Z</time>
        <extensions>
          <ns3:TrackPointExtension>
            <ns3:hr>85</ns3:hr>
            <ns3:cad>0</ns3:cad>
          </ns3:TrackPointExtension>
        </extensions>
      </trkpt>
      <trkpt lat="43.767275847494602203369140625" lon="1.5770961530506610870361328125">
        <ele>165</ele>
        <time>2026-08-13T09:38:28.000Z</time>
        <extensions>
          <ns3:TrackPointExtension>
            <ns3:hr>85</ns3:hr>
            <ns3:cad>46</ns3:cad>
          </ns3:TrackPointExtension>
        </extensions>
      </trkpt>
      <trkpt lat="43.76726671122014522552490234375" lon="1.5771025232970714569091796875">
        <ele>165</ele>
        <time>2026-08-13T09:38:29.000Z</time>
        <extensions>
          <ns3:TrackPointExtension>
            <ns3:hr>84</ns3:hr>
            <ns3:cad>46</ns3:cad>
          </ns3:TrackPointExtension>
        </extensions>
      </trkpt>
      <trkpt lat="43.7672580778598785400390625" lon="1.577109061181545257568359375">
        <ele>165.1999969482421875</ele>
        <time>2026-08-13T09:38:30.000Z</time>
        <extensions>
          <ns3:TrackPointExtension>
            <ns3:hr>84</ns3:hr>
            <ns3:cad>46</ns3:cad>
          </ns3:TrackPointExtension>
        </extensions>
      </trkpt>
      <trkpt lat="43.76724609173834323883056640625" lon="1.57712020911276340484619140625">
        <ele>165.1999969482421875</ele>
        <time>2026-08-13T09:38:31.000Z</time>
        <extensions>
          <ns3:TrackPointExtension>
            <ns3:hr>84</ns3:hr>
            <ns3:cad>47</ns3:cad>
          </ns3:TrackPointExtension>
        </extensions>
      </trkpt>
      <trkpt lat="43.76723469235002994537353515625" lon="1.577131859958171844482421875">
        <ele>165.1999969482421875</ele>
        <time>2026-08-13T09:38:32.000Z</time>
        <extensions>
          <ns3:TrackPointExtension>
            <ns3:hr>85</ns3:hr>
            <ns3:cad>46</ns3:cad>
          </ns3:TrackPointExtension>
        </extensions>
      </trkpt>
      <trkpt lat="43.7672294117510318756103515625" lon="1.57713353633880615234375">
        <ele>165.1999969482421875</ele>
        <time>2026-08-13T09:38:33.000Z</time>
        <extensions>
          <ns3:TrackPointExtension>
            <ns3:hr>85</ns3:hr>
            <ns3:cad>46</ns3:cad>
          </ns3:TrackPointExtension>
        </extensions>
      </trkpt>
      <trkpt lat="43.76721926964819431304931640625" lon="1.57713353633880615234375">
        <ele>165.1999969482421875</ele>
        <time>2026-08-13T09:38:34.000Z</time>
        <extensions>
          <ns3:TrackPointExtension>
            <ns3:hr>85</ns3:hr>
            <ns3:cad>46</ns3:cad>
          </ns3:TrackPointExtension>
        </extensions>
      </trkpt>
      <trkpt lat="43.76722279004752635955810546875" lon="1.577139236032962799072265625">
        <ele>165.1999969482421875</ele>
        <time>2026-08-13T09:38:35.000Z</time>
        <extensions>
          <ns3:TrackPointExtension>
            <ns3:hr>85</ns3:hr>
            <ns3:cad>46</ns3:cad>
          </ns3:TrackPointExtension>
        </extensions>
      </trkpt>
      <trkpt lat="43.76722362823784351348876953125" lon="1.5771417506039142608642578125">
        <ele>165.1999969482421875</ele>
        <time>2026-08-13T09:38:36.000Z</time>
        <extensions>
          <ns3:TrackPointExtension>
            <ns3:hr>86</ns3:hr>
            <ns3:cad>46</ns3:cad>
          </ns3:TrackPointExtension>
        </extensions>
      </trkpt>
      <trkpt lat="43.767224214971065521240234375" lon="1.5771429240703582763671875">
        <ele>165.1999969482421875</ele>
        <time>2026-08-13T09:38:37.000Z</time>
        <extensions>
          <ns3:TrackPointExtension>
            <ns3:hr>85</ns3:hr>
            <ns3:cad>0</ns3:cad>
          </ns3:TrackPointExtension>
        </extensions>
      </trkpt>
      <trkpt lat="43.7672240473330020904541015625" lon="1.57713948749005794525146484375">
        <ele>165.1999969482421875</ele>
        <time>2026-08-13T09:38:38.000Z</time>
        <extensions>
          <ns3:TrackPointExtension>
            <ns3:hr>85</ns3:hr>
            <ns3:cad>0</ns3:cad>
          </ns3:TrackPointExtension>
        </extensions>
      </trkpt>
      <trkpt lat="43.76722446642816066741943359375" lon="1.57713881693780422210693359375">
        <ele>165.1999969482421875</ele>
        <time>2026-08-13T09:38:39.000Z</time>
        <extensions>
          <ns3:TrackPointExtension>
            <ns3:hr>85</ns3:hr>
            <ns3:cad>0</ns3:cad>
          </ns3:TrackPointExtension>
        </extensions>
      </trkpt>
      <trkpt lat="43.76722446642816066741943359375" lon="1.57713881693780422210693359375">
        <ele>165.1999969482421875</ele>
        <time>2026-08-13T09:38:40.000Z</time>
        <extensions>
          <ns3:TrackPointExtension>
            <ns3:hr>85</ns3:hr>
            <ns3:cad>0</ns3:cad>
          </ns3:TrackPointExtension>
        </extensions>
      </trkpt>
      <trkpt lat="43.76722446642816066741943359375" lon="1.57713881693780422210693359375">
        <ele>165.1999969482421875</ele>
        <time>2026-08-13T09:38:41.000Z</time>
        <extensions>
          <ns3:TrackPointExtension>
            <ns3:hr>85</ns3:hr>
            <ns3:cad>0</ns3:cad>
          </ns3:TrackPointExtension>
        </extensions>
      </trkpt>
      <trkpt lat="43.76722446642816066741943359375" lon="1.57713881693780422210693359375">
        <ele>165.399993896484375</ele>
        <time>2026-08-13T09:38:42.000Z</time>
        <extensions>
          <ns3:TrackPointExtension>
            <ns3:hr>85</ns3:hr>
            <ns3:cad>0</ns3:cad>
          </ns3:TrackPointExtension>
        </extensions>
      </trkpt>
      <trkpt lat="43.76722446642816066741943359375" lon="1.57713881693780422210693359375">
        <ele>165.399993896484375</ele>
        <time>2026-08-13T09:38:43.000Z</time>
        <extensions>
          <ns3:TrackPointExtension>
            <ns3:hr>85</ns3:hr>
            <ns3:cad>0</ns3:cad>
          </ns3:TrackPointExtension>
        </extensions>
      </trkpt>
      <trkpt lat="43.76722446642816066741943359375" lon="1.57713881693780422210693359375">
        <ele>165.399993896484375</ele>
        <time>2026-08-13T09:38:44.000Z</time>
        <extensions>
          <ns3:TrackPointExtension>
            <ns3:hr>85</ns3:hr>
            <ns3:cad>0</ns3:cad>
          </ns3:TrackPointExtension>
        </extensions>
      </trkpt>
      <trkpt lat="43.76722446642816066741943359375" lon="1.57713881693780422210693359375">
        <ele>165.399993896484375</ele>
        <time>2026-08-13T09:38:45.000Z</time>
        <extensions>
          <ns3:TrackPointExtension>
            <ns3:hr>85</ns3:hr>
            <ns3:cad>0</ns3:cad>
          </ns3:TrackPointExtension>
        </extensions>
      </trkpt>
      <trkpt lat="43.76722446642816066741943359375" lon="1.57713881693780422210693359375">
        <ele>165.399993896484375</ele>
        <time>2026-08-13T09:38:46.000Z</time>
        <extensions>
          <ns3:TrackPointExtension>
            <ns3:hr>86</ns3:hr>
            <ns3:cad>0</ns3:cad>
          </ns3:TrackPointExtension>
        </extensions>
      </trkpt>
      <trkpt lat="43.76722446642816066741943359375" lon="1.57713881693780422210693359375">
        <ele>165.399993896484375</ele>
        <time>2026-08-13T09:38:47.000Z</time>
        <extensions>
          <ns3:TrackPointExtension>
            <ns3:hr>85</ns3:hr>
            <ns3:cad>0</ns3:cad>
          </ns3:TrackPointExtension>
        </extensions>
      </trkpt>
      <trkpt lat="43.76722446642816066741943359375" lon="1.57713881693780422210693359375">
        <ele>165.399993896484375</ele>
        <time>2026-08-13T09:38:48.000Z</time>
        <extensions>
          <ns3:TrackPointExtension>
            <ns3:hr>85</ns3:hr>
            <ns3:cad>0</ns3:cad>
          </ns3:TrackPointExtension>
        </extensions>
      </trkpt>
      <trkpt lat="43.76722446642816066741943359375" lon="1.57713881693780422210693359375">
        <ele>165.399993896484375</ele>
        <time>2026-08-13T09:38:49.000Z</time>
        <extensions>
          <ns3:TrackPointExtension>
            <ns3:hr>86</ns3:hr>
            <ns3:cad>0</ns3:cad>
          </ns3:TrackPointExtension>
        </extensions>
      </trkpt>
      <trkpt lat="43.76722446642816066741943359375" lon="1.57713881693780422210693359375">
        <ele>165.399993896484375</ele>
        <time>2026-08-13T09:38:50.000Z</time>
        <extensions>
          <ns3:TrackPointExtension>
            <ns3:hr>85</ns3:hr>
            <ns3:cad>0</ns3:cad>
          </ns3:TrackPointExtension>
        </extensions>
      </trkpt>
      <trkpt lat="43.76722379587590694427490234375" lon="1.57713554799556732177734375">
        <ele>165.399993896484375</ele>
        <time>2026-08-13T09:38:51.000Z</time>
        <extensions>
          <ns3:TrackPointExtension>
            <ns3:hr>85</ns3:hr>
            <ns3:cad>0</ns3:cad>
          </ns3:TrackPointExtension>
        </extensions>
      </trkpt>
      <trkpt lat="43.76722656190395355224609375" lon="1.5771367214620113372802734375">
        <ele>165.399993896484375</ele>
        <time>2026-08-13T09:38:52.000Z</time>
        <extensions>
          <ns3:TrackPointExtension>
            <ns3:hr>84</ns3:hr>
            <ns3:cad>0</ns3:cad>
          </ns3:TrackPointExtension>
        </extensions>
      </trkpt>
      <trkpt lat="43.76722647808492183685302734375" lon="1.57713554799556732177734375">
        <ele>165.399993896484375</ele>
        <time>2026-08-13T09:38:53.000Z</time>
        <extensions>
          <ns3:TrackPointExtension>
            <ns3:hr>81</ns3:hr>
            <ns3:cad>0</ns3:cad>
          </ns3:TrackPointExtension>
        </extensions>
      </trkpt>
      <trkpt lat="43.7672277353703975677490234375" lon="1.577134542167186737060546875">
        <ele>165.399993896484375</ele>
        <time>2026-08-13T09:38:54.000Z</time>
        <extensions>
          <ns3:TrackPointExtension>
            <ns3:hr>79</ns3:hr>
            <ns3:cad>0</ns3:cad>
          </ns3:TrackPointExtension>
        </extensions>
      </trkpt>
      <trkpt lat="43.76722714863717555999755859375" lon="1.57713529653847217559814453125">
        <ele>165.399993896484375</ele>
        <time>2026-08-13T09:38:55.000Z</time>
        <extensions>
          <ns3:TrackPointExtension>
            <ns3:hr>78</ns3:hr>
            <ns3:cad>0</ns3:cad>
          </ns3:TrackPointExtension>
        </extensions>
      </trkpt>
      <trkpt lat="43.7672253884375095367431640625" lon="1.57713412307202816009521484375">
        <ele>165.399993896484375</ele>
        <time>2026-08-13T09:38:56.000Z</time>
        <extensions>
          <ns3:TrackPointExtension>
            <ns3:hr>78</ns3:hr>
            <ns3:cad>0</ns3:cad>
          </ns3:TrackPointExtension>
        </extensions>
      </trkpt>
      <trkpt lat="43.76722396351397037506103515625" lon="1.5771337039768695831298828125">
        <ele>165.399993896484375</ele>
        <time>2026-08-13T09:38:57.000Z</time>
        <extensions>
          <ns3:TrackPointExtension>
            <ns3:hr>78</ns3:hr>
            <ns3:cad>0</ns3:cad>
          </ns3:TrackPointExtension>
        </extensions>
      </trkpt>
      <trkpt lat="43.767222203314304351806640625" lon="1.5771323628723621368408203125">
        <ele>165.399993896484375</ele>
        <time>2026-08-13T09:38:58.000Z</time>
        <extensions>
          <ns3:TrackPointExtension>
            <ns3:hr>78</ns3:hr>
            <ns3:cad>0</ns3:cad>
          </ns3:TrackPointExtension>
        </extensions>
      </trkpt>
      <trkpt lat="43.76722119748592376708984375" lon="1.57713227905333042144775390625">
        <ele>165.399993896484375</ele>
        <time>2026-08-13T09:38:59.000Z</time>
        <extensions>
          <ns3:TrackPointExtension>
            <ns3:hr>78</ns3:hr>
            <ns3:cad>0</ns3:cad>
          </ns3:TrackPointExtension>
        </extensions>
      </trkpt>
      <trkpt lat="43.76722144894301891326904296875" lon="1.5771310217678546905517578125">
        <ele>165.399993896484375</ele>
        <time>2026-08-13T09:39:00.000Z</time>
        <extensions>
          <ns3:TrackPointExtension>
            <ns3:hr>78</ns3:hr>
            <ns3:cad>0</ns3:cad>
          </ns3:TrackPointExtension>
        </extensions>
      </trkpt>
      <trkpt lat="43.7672223709523677825927734375" lon="1.57713261432945728302001953125">
        <ele>165.1999969482421875</ele>
        <time>2026-08-13T09:39:01.000Z</time>
        <extensions>
          <ns3:TrackPointExtension>
            <ns3:hr>78</ns3:hr>
            <ns3:cad>0</ns3:cad>
          </ns3:TrackPointExtension>
        </extensions>
      </trkpt>
      <trkpt lat="43.76722245477139949798583984375" lon="1.577134542167186737060546875">
        <ele>165.1999969482421875</ele>
        <time>2026-08-13T09:39:02.000Z</time>
        <extensions>
          <ns3:TrackPointExtension>
            <ns3:hr>77</ns3:hr>
            <ns3:cad>0</ns3:cad>
          </ns3:TrackPointExtension>
        </extensions>
      </trkpt>
      <trkpt lat="43.7672245502471923828125" lon="1.5771434269845485687255859375">
        <ele>165.1999969482421875</ele>
        <time>2026-08-13T09:39:03.000Z</time>
        <extensions>
          <ns3:TrackPointExtension>
            <ns3:hr>77</ns3:hr>
            <ns3:cad>0</ns3:cad>
          </ns3:TrackPointExtension>
        </extensions>
      </trkpt>
      <trkpt lat="43.76722530461847782135009765625" lon="1.5771491266787052154541015625">
        <ele>165.1999969482421875</ele>
        <time>2026-08-13T09:39:04.000Z</time>
        <extensions>
          <ns3:TrackPointExtension>
            <ns3:hr>77</ns3:hr>
            <ns3:cad>0</ns3:cad>
          </ns3:TrackPointExtension>
        </extensions>
      </trkpt>
      <trkpt lat="43.767224214971065521240234375" lon="1.577151976525783538818359375">
        <ele>165.1999969482421875</ele>
        <time>2026-08-13T09:39:05.000Z</time>
        <extensions>
          <ns3:TrackPointExtension>
            <ns3:hr>77</ns3:hr>
            <ns3:cad>0</ns3:cad>
          </ns3:TrackPointExtension>
        </extensions>
      </trkpt>
      <trkpt lat="43.767224214971065521240234375" lon="1.5771496295928955078125">
        <ele>165.1999969482421875</ele>
        <time>2026-08-13T09:39:06.000Z</time>
        <extensions>
          <ns3:TrackPointExtension>
            <ns3:hr>77</ns3:hr>
            <ns3:cad>0</ns3:cad>
          </ns3:TrackPointExtension>
        </extensions>
      </trkpt>
      <trkpt lat="43.7672223709523677825927734375" lon="1.57714921049773693084716796875">
        <ele>165.1999969482421875</ele>
        <time>2026-08-13T09:39:07.000Z</time>
        <extensions>
          <ns3:TrackPointExtension>
            <ns3:hr>77</ns3:hr>
            <ns3:cad>0</ns3:cad>
          </ns3:TrackPointExtension>
        </extensions>
      </trkpt>
      <trkpt lat="43.76722061075270175933837890625" lon="1.577147953212261199951171875">
        <ele>165.1999969482421875</ele>
        <time>2026-08-13T09:39:08.000Z</time>
        <extensions>
          <ns3:TrackPointExtension>
            <ns3:hr>77</ns3:hr>
            <ns3:cad>0</ns3:cad>
          </ns3:TrackPointExtension>
        </extensions>
      </trkpt>
      <trkpt lat="43.76722446642816066741943359375" lon="1.57713881693780422210693359375">
        <ele>165.1999969482421875</ele>
        <time>2026-08-13T09:39:09.000Z</time>
        <extensions>
          <ns3:TrackPointExtension>
            <ns3:hr>77</ns3:hr>
            <ns3:cad>0</ns3:cad>
          </ns3:TrackPointExtension>
        </extensions>
      </trkpt>
      <trkpt lat="43.76722446642816066741943359375" lon="1.57713881693780422210693359375">
        <ele>165.1999969482421875</ele>
        <time>2026-08-13T09:39:10.000Z</time>
        <extensions>
          <ns3:TrackPointExtension>
            <ns3:hr>76</ns3:hr>
            <ns3:cad>0</ns3:cad>
          </ns3:TrackPointExtension>
        </extensions>
      </trkpt>
      <trkpt lat="43.76722446642816066741943359375" lon="1.57713881693780422210693359375">
        <ele>165.1999969482421875</ele>
        <time>2026-08-13T09:39:11.000Z</time>
        <extensions>
          <ns3:TrackPointExtension>
            <ns3:hr>77</ns3:hr>
            <ns3:cad>0</ns3:cad>
          </ns3:TrackPointExtension>
        </extensions>
      </trkpt>
      <trkpt lat="43.76722061075270175933837890625" lon="1.5771457739174365997314453125">
        <ele>165.1999969482421875</ele>
        <time>2026-08-13T09:39:12.000Z</time>
        <extensions>
          <ns3:TrackPointExtension>
            <ns3:hr>76</ns3:hr>
            <ns3:cad>0</ns3:cad>
          </ns3:TrackPointExtension>
        </extensions>
      </trkpt>
      <trkpt lat="43.76722144894301891326904296875" lon="1.57714761793613433837890625">
        <ele>165.1999969482421875</ele>
        <time>2026-08-13T09:39:13.000Z</time>
        <extensions>
          <ns3:TrackPointExtension>
            <ns3:hr>75</ns3:hr>
            <ns3:cad>0</ns3:cad>
          </ns3:TrackPointExtension>
        </extensions>
      </trkpt>
      <trkpt lat="43.76721692271530628204345703125" lon="1.5771548263728618621826171875">
        <ele>165.1999969482421875</ele>
        <time>2026-08-13T09:39:14.000Z</time>
        <extensions>
          <ns3:TrackPointExtension>
            <ns3:hr>71</ns3:hr>
            <ns3:cad>0</ns3:cad>
          </ns3:TrackPointExtension>
        </extensions>
      </trkpt>
      <trkpt lat="43.7672149948775768280029296875" lon="1.57715558074414730072021484375">
        <ele>165.1999969482421875</ele>
        <time>2026-08-13T09:39:15.000Z</time>
        <extensions>
          <ns3:TrackPointExtension>
            <ns3:hr>71</ns3:hr>
            <ns3:cad>0</ns3:cad>
          </ns3:TrackPointExtension>
        </extensions>
      </trkpt>
      <trkpt lat="43.76720887608826160430908203125" lon="1.5771598555147647857666015625">
        <ele>165.1999969482421875</ele>
        <time>2026-08-13T09:39:16.000Z</time>
        <extensions>
          <ns3:TrackPointExtension>
            <ns3:hr>71</ns3:hr>
            <ns3:cad>0</ns3:cad>
          </ns3:TrackPointExtension>
        </extensions>
      </trkpt>
      <trkpt lat="43.76719680614769458770751953125" lon="1.5771705843508243560791015625">
        <ele>165.1999969482421875</ele>
        <time>2026-08-13T09:39:17.000Z</time>
        <extensions>
          <ns3:TrackPointExtension>
            <ns3:hr>72</ns3:hr>
            <ns3:cad>0</ns3:cad>
          </ns3:TrackPointExtension>
        </extensions>
      </trkpt>
      <trkpt lat="43.7671885080635547637939453125" lon="1.57717670314013957977294921875">
        <ele>165.1999969482421875</ele>
        <time>2026-08-13T09:39:18.000Z</time>
        <extensions>
          <ns3:TrackPointExtension>
            <ns3:hr>73</ns3:hr>
            <ns3:cad>0</ns3:cad>
          </ns3:TrackPointExtension>
        </extensions>
      </trkpt>
      <trkpt lat="43.76718305982649326324462890625" lon="1.57717603258788585662841796875">
        <ele>165.1999969482421875</ele>
        <time>2026-08-13T09:39:19.000Z</time>
        <extensions>
          <ns3:TrackPointExtension>
            <ns3:hr>74</ns3:hr>
            <ns3:cad>0</ns3:cad>
          </ns3:TrackPointExtension>
        </extensions>
      </trkpt>
      <trkpt lat="43.76717484556138515472412109375" lon="1.5771806426346302032470703125">
        <ele>165.1999969482421875</ele>
        <time>2026-08-13T09:39:20.000Z</time>
        <extensions>
          <ns3:TrackPointExtension>
            <ns3:hr>75</ns3:hr>
            <ns3:cad>0</ns3:cad>
          </ns3:TrackPointExtension>
        </extensions>
      </trkpt>
      <trkpt lat="43.76716629602015018463134765625" lon="1.577192209661006927490234375">
        <ele>165.1999969482421875</ele>
        <time>2026-08-13T09:39:21.000Z</time>
        <extensions>
          <ns3:TrackPointExtension>
            <ns3:hr>75</ns3:hr>
            <ns3:cad>44</ns3:cad>
          </ns3:TrackPointExtension>
        </extensions>
      </trkpt>
      <trkpt lat="43.76715942285954952239990234375" lon="1.5772057883441448211669921875">
        <ele>165.1999969482421875</ele>
        <time>2026-08-13T09:39:22.000Z</time>
        <extensions>
          <ns3:TrackPointExtension>
            <ns3:hr>75</ns3:hr>
            <ns3:cad>44</ns3:cad>
          </ns3:TrackPointExtension>
        </extensions>
      </trkpt>
      <trkpt lat="43.7671529687941074371337890625" lon="1.577218361198902130126953125">
        <ele>165.1999969482421875</ele>
        <time>2026-08-13T09:39:23.000Z</time>
        <extensions>
          <ns3:TrackPointExtension>
            <ns3:hr>76</ns3:hr>
            <ns3:cad>44</ns3:cad>
          </ns3:TrackPointExtension>
        </extensions>
      </trkpt>
      <trkpt lat="43.76714752055704593658447265625" lon="1.5772279165685176849365234375">
        <ele>165.1999969482421875</ele>
        <time>2026-08-13T09:39:24.000Z</time>
        <extensions>
          <ns3:TrackPointExtension>
            <ns3:hr>77</ns3:hr>
            <ns3:cad>44</ns3:cad>
          </ns3:TrackPointExtension>
        </extensions>
      </trkpt>
      <trkpt lat="43.76714081503450870513916015625" lon="1.57723604701459407806396484375">
        <ele>165.1999969482421875</ele>
        <time>2026-08-13T09:39:25.000Z</time>
        <extensions>
          <ns3:TrackPointExtension>
            <ns3:hr>77</ns3:hr>
            <ns3:cad>45</ns3:cad>
          </ns3:TrackPointExtension>
        </extensions>
      </trkpt>
      <trkpt lat="43.76713528297841548919677734375" lon="1.5772433392703533172607421875">
        <ele>165.1999969482421875</ele>
        <time>2026-08-13T09:39:26.000Z</time>
        <extensions>
          <ns3:TrackPointExtension>
            <ns3:hr>77</ns3:hr>
            <ns3:cad>45</ns3:cad>
          </ns3:TrackPointExtension>
        </extensions>
      </trkpt>
      <trkpt lat="43.76712924800813198089599609375" lon="1.5772421658039093017578125">
        <ele>165.399993896484375</ele>
        <time>2026-08-13T09:39:27.000Z</time>
        <extensions>
          <ns3:TrackPointExtension>
            <ns3:hr>77</ns3:hr>
            <ns3:cad>45</ns3:cad>
          </ns3:TrackPointExtension>
        </extensions>
      </trkpt>
      <trkpt lat="43.76712690107524394989013671875" lon="1.57724945805966854095458984375">
        <ele>165.399993896484375</ele>
        <time>2026-08-13T09:39:28.000Z</time>
        <extensions>
          <ns3:TrackPointExtension>
            <ns3:hr>78</ns3:hr>
            <ns3:cad>46</ns3:cad>
          </ns3:TrackPointExtension>
        </extensions>
      </trkpt>
      <trkpt lat="43.767113573849201202392578125" lon="1.5772641263902187347412109375">
        <ele>165.399993896484375</ele>
        <time>2026-08-13T09:39:29.000Z</time>
        <extensions>
          <ns3:TrackPointExtension>
            <ns3:hr>78</ns3:hr>
            <ns3:cad>46</ns3:cad>
          </ns3:TrackPointExtension>
        </extensions>
      </trkpt>
      <trkpt lat="43.76710343174636363983154296875" lon="1.57727904617786407470703125">
        <ele>165.399993896484375</ele>
        <time>2026-08-13T09:39:30.000Z</time>
        <extensions>
          <ns3:TrackPointExtension>
            <ns3:hr>78</ns3:hr>
            <ns3:cad>46</ns3:cad>
          </ns3:TrackPointExtension>
        </extensions>
      </trkpt>
      <trkpt lat="43.76708985306322574615478515625" lon="1.57728851772844791412353515625">
        <ele>165.399993896484375</ele>
        <time>2026-08-13T09:39:31.000Z</time>
        <extensions>
          <ns3:TrackPointExtension>
            <ns3:hr>78</ns3:hr>
            <ns3:cad>46</ns3:cad>
          </ns3:TrackPointExtension>
        </extensions>
      </trkpt>
      <trkpt lat="43.76708080060780048370361328125" lon="1.57729807309806346893310546875">
        <ele>165.399993896484375</ele>
        <time>2026-08-13T09:39:32.000Z</time>
        <extensions>
          <ns3:TrackPointExtension>
            <ns3:hr>78</ns3:hr>
            <ns3:cad>46</ns3:cad>
          </ns3:TrackPointExtension>
        </extensions>
      </trkpt>
      <trkpt lat="43.76707660965621471405029296875" lon="1.57730444334447383880615234375">
        <ele>165.399993896484375</ele>
        <time>2026-08-13T09:39:33.000Z</time>
        <extensions>
          <ns3:TrackPointExtension>
            <ns3:hr>78</ns3:hr>
            <ns3:cad>46</ns3:cad>
          </ns3:TrackPointExtension>
        </extensions>
      </trkpt>
      <trkpt lat="43.7670597620308399200439453125" lon="1.57731684856116771697998046875">
        <ele>165.600006103515625</ele>
        <time>2026-08-13T09:39:34.000Z</time>
        <extensions>
          <ns3:TrackPointExtension>
            <ns3:hr>78</ns3:hr>
            <ns3:cad>48</ns3:cad>
          </ns3:TrackPointExtension>
        </extensions>
      </trkpt>
      <trkpt lat="43.76704978756606578826904296875" lon="1.57732573337852954864501953125">
        <ele>165.600006103515625</ele>
        <time>2026-08-13T09:39:35.000Z</time>
        <extensions>
          <ns3:TrackPointExtension>
            <ns3:hr>79</ns3:hr>
            <ns3:cad>48</ns3:cad>
          </ns3:TrackPointExtension>
        </extensions>
      </trkpt>
      <trkpt lat="43.76704123802483081817626953125" lon="1.5773301757872104644775390625">
        <ele>165.600006103515625</ele>
        <time>2026-08-13T09:39:36.000Z</time>
        <extensions>
          <ns3:TrackPointExtension>
            <ns3:hr>79</ns3:hr>
            <ns3:cad>48</ns3:cad>
          </ns3:TrackPointExtension>
        </extensions>
      </trkpt>
      <trkpt lat="43.7670329399406909942626953125" lon="1.5773358754813671112060546875">
        <ele>165.600006103515625</ele>
        <time>2026-08-13T09:39:37.000Z</time>
        <extensions>
          <ns3:TrackPointExtension>
            <ns3:hr>79</ns3:hr>
            <ns3:cad>48</ns3:cad>
          </ns3:TrackPointExtension>
        </extensions>
      </trkpt>
      <trkpt lat="43.76702095381915569305419921875" lon="1.5773440897464752197265625">
        <ele>165.600006103515625</ele>
        <time>2026-08-13T09:39:38.000Z</time>
        <extensions>
          <ns3:TrackPointExtension>
            <ns3:hr>80</ns3:hr>
            <ns3:cad>48</ns3:cad>
          </ns3:TrackPointExtension>
        </extensions>
      </trkpt>
      <trkpt lat="43.7670081295073032379150390625" lon="1.5773506276309490203857421875">
        <ele>165.600006103515625</ele>
        <time>2026-08-13T09:39:39.000Z</time>
        <extensions>
          <ns3:TrackPointExtension>
            <ns3:hr>81</ns3:hr>
            <ns3:cad>47</ns3:cad>
          </ns3:TrackPointExtension>
        </extensions>
      </trkpt>
      <trkpt lat="43.766998238861560821533203125" lon="1.57736278139054775238037109375">
        <ele>165.600006103515625</ele>
        <time>2026-08-13T09:39:40.000Z</time>
        <extensions>
          <ns3:TrackPointExtension>
            <ns3:hr>81</ns3:hr>
            <ns3:cad>47</ns3:cad>
          </ns3:TrackPointExtension>
        </extensions>
      </trkpt>
      <trkpt lat="43.76699262298643589019775390625" lon="1.57736646942794322967529296875">
        <ele>165.600006103515625</ele>
        <time>2026-08-13T09:39:41.000Z</time>
        <extensions>
          <ns3:TrackPointExtension>
            <ns3:hr>82</ns3:hr>
            <ns3:cad>47</ns3:cad>
          </ns3:TrackPointExtension>
        </extensions>
      </trkpt>
      <trkpt lat="43.7669863365590572357177734375" lon="1.57737166620790958404541015625">
        <ele>165.600006103515625</ele>
        <time>2026-08-13T09:39:42.000Z</time>
        <extensions>
          <ns3:TrackPointExtension>
            <ns3:hr>83</ns3:hr>
            <ns3:cad>47</ns3:cad>
          </ns3:TrackPointExtension>
        </extensions>
      </trkpt>
      <trkpt lat="43.76697175204753875732421875" lon="1.57738356851041316986083984375">
        <ele>165.600006103515625</ele>
        <time>2026-08-13T09:39:43.000Z</time>
        <extensions>
          <ns3:TrackPointExtension>
            <ns3:hr>84</ns3:hr>
            <ns3:cad>47</ns3:cad>
          </ns3:TrackPointExtension>
        </extensions>
      </trkpt>
      <trkpt lat="43.76696093939244747161865234375" lon="1.5773955546319484710693359375">
        <ele>165.600006103515625</ele>
        <time>2026-08-13T09:39:44.000Z</time>
        <extensions>
          <ns3:TrackPointExtension>
            <ns3:hr>84</ns3:hr>
            <ns3:cad>47</ns3:cad>
          </ns3:TrackPointExtension>
        </extensions>
      </trkpt>
      <trkpt lat="43.76695272512733936309814453125" lon="1.57740402035415172576904296875">
        <ele>165.600006103515625</ele>
        <time>2026-08-13T09:39:45.000Z</time>
        <extensions>
          <ns3:TrackPointExtension>
            <ns3:hr>84</ns3:hr>
            <ns3:cad>47</ns3:cad>
          </ns3:TrackPointExtension>
        </extensions>
      </trkpt>
      <trkpt lat="43.76694635488092899322509765625" lon="1.57740904949605464935302734375">
        <ele>165.600006103515625</ele>
        <time>2026-08-13T09:39:46.000Z</time>
        <extensions>
          <ns3:TrackPointExtension>
            <ns3:hr>83</ns3:hr>
            <ns3:cad>47</ns3:cad>
          </ns3:TrackPointExtension>
        </extensions>
      </trkpt>
      <trkpt lat="43.7669350393116474151611328125" lon="1.577408127486705780029296875">
        <ele>165.600006103515625</ele>
        <time>2026-08-13T09:39:47.000Z</time>
        <extensions>
          <ns3:TrackPointExtension>
            <ns3:hr>83</ns3:hr>
            <ns3:cad>47</ns3:cad>
          </ns3:TrackPointExtension>
        </extensions>
      </trkpt>
      <trkpt lat="43.76692238263785839080810546875" lon="1.5774139948189258575439453125">
        <ele>165.600006103515625</ele>
        <time>2026-08-13T09:39:48.000Z</time>
        <extensions>
          <ns3:TrackPointExtension>
            <ns3:hr>84</ns3:hr>
            <ns3:cad>47</ns3:cad>
          </ns3:TrackPointExtension>
        </extensions>
      </trkpt>
      <trkpt lat="43.76691467128694057464599609375" lon="1.5774245560169219970703125">
        <ele>165.600006103515625</ele>
        <time>2026-08-13T09:39:49.000Z</time>
        <extensions>
          <ns3:TrackPointExtension>
            <ns3:hr>84</ns3:hr>
            <ns3:cad>0</ns3:cad>
          </ns3:TrackPointExtension>
        </extensions>
      </trkpt>
      <trkpt lat="43.766909055411815643310546875" lon="1.57742849551141262054443359375">
        <ele>165.600006103515625</ele>
        <time>2026-08-13T09:39:50.000Z</time>
        <extensions>
          <ns3:TrackPointExtension>
            <ns3:hr>84</ns3:hr>
            <ns3:cad>0</ns3:cad>
          </ns3:TrackPointExtension>
        </extensions>
      </trkpt>
      <trkpt lat="43.766904361546039581298828125" lon="1.57743117772042751312255859375">
        <ele>165.600006103515625</ele>
        <time>2026-08-13T09:39:51.000Z</time>
        <extensions>
          <ns3:TrackPointExtension>
            <ns3:hr>84</ns3:hr>
            <ns3:cad>0</ns3:cad>
          </ns3:TrackPointExtension>
        </extensions>
      </trkpt>
      <trkpt lat="43.76689706929028034210205078125" lon="1.57743771560490131378173828125">
        <ele>165.600006103515625</ele>
        <time>2026-08-13T09:39:52.000Z</time>
        <extensions>
          <ns3:TrackPointExtension>
            <ns3:hr>84</ns3:hr>
            <ns3:cad>0</ns3:cad>
          </ns3:TrackPointExtension>
        </extensions>
      </trkpt>
      <trkpt lat="43.76688751392066478729248046875" lon="1.57744861207902431488037109375">
        <ele>165.600006103515625</ele>
        <time>2026-08-13T09:39:53.000Z</time>
        <extensions>
          <ns3:TrackPointExtension>
            <ns3:hr>84</ns3:hr>
            <ns3:cad>0</ns3:cad>
          </ns3:TrackPointExtension>
        </extensions>
      </trkpt>
      <trkpt lat="43.766878880560398101806640625" lon="1.57745850272476673126220703125">
        <ele>165.600006103515625</ele>
        <time>2026-08-13T09:39:54.000Z</time>
        <extensions>
          <ns3:TrackPointExtension>
            <ns3:hr>83</ns3:hr>
            <ns3:cad>0</ns3:cad>
          </ns3:TrackPointExtension>
        </extensions>
      </trkpt>
      <trkpt lat="43.7668691575527191162109375" lon="1.57746621407568454742431640625">
        <ele>165.600006103515625</ele>
        <time>2026-08-13T09:39:55.000Z</time>
        <extensions>
          <ns3:TrackPointExtension>
            <ns3:hr>84</ns3:hr>
            <ns3:cad>44</ns3:cad>
          </ns3:TrackPointExtension>
        </extensions>
      </trkpt>
      <trkpt lat="43.76685365103185176849365234375" lon="1.57747409306466579437255859375">
        <ele>165.600006103515625</ele>
        <time>2026-08-13T09:39:56.000Z</time>
        <extensions>
          <ns3:TrackPointExtension>
            <ns3:hr>83</ns3:hr>
            <ns3:cad>46</ns3:cad>
          </ns3:TrackPointExtension>
        </extensions>
      </trkpt>
      <trkpt lat="43.76684241928160190582275390625" lon="1.5774822235107421875">
        <ele>165.600006103515625</ele>
        <time>2026-08-13T09:39:57.000Z</time>
        <extensions>
          <ns3:TrackPointExtension>
            <ns3:hr>83</ns3:hr>
            <ns3:cad>46</ns3:cad>
          </ns3:TrackPointExtension>
        </extensions>
      </trkpt>
      <trkpt lat="43.766829259693622589111328125" lon="1.577495969831943511962890625">
        <ele>165.600006103515625</ele>
        <time>2026-08-13T09:39:58.000Z</time>
        <extensions>
          <ns3:TrackPointExtension>
            <ns3:hr>83</ns3:hr>
            <ns3:cad>47</ns3:cad>
          </ns3:TrackPointExtension>
        </extensions>
      </trkpt>
      <trkpt lat="43.7668213807046413421630859375" lon="1.57750192098319530487060546875">
        <ele>165.600006103515625</ele>
        <time>2026-08-13T09:39:59.000Z</time>
        <extensions>
          <ns3:TrackPointExtension>
            <ns3:hr>82</ns3:hr>
            <ns3:cad>48</ns3:cad>
          </ns3:TrackPointExtension>
        </extensions>
      </trkpt>
      <trkpt lat="43.7668146751821041107177734375" lon="1.57749974168837070465087890625">
        <ele>165.600006103515625</ele>
        <time>2026-08-13T09:40:00.000Z</time>
        <extensions>
          <ns3:TrackPointExtension>
            <ns3:hr>82</ns3:hr>
            <ns3:cad>48</ns3:cad>
          </ns3:TrackPointExtension>
        </extensions>
      </trkpt>
      <trkpt lat="43.76681459136307239532470703125" lon="1.5775098837912082672119140625">
        <ele>165.600006103515625</ele>
        <time>2026-08-13T09:40:01.000Z</time>
        <extensions>
          <ns3:TrackPointExtension>
            <ns3:hr>82</ns3:hr>
            <ns3:cad>48</ns3:cad>
          </ns3:TrackPointExtension>
        </extensions>
      </trkpt>
      <trkpt lat="43.76680989749729633331298828125" lon="1.57752312719821929931640625">
        <ele>165.600006103515625</ele>
        <time>2026-08-13T09:40:02.000Z</time>
        <extensions>
          <ns3:TrackPointExtension>
            <ns3:hr>83</ns3:hr>
            <ns3:cad>48</ns3:cad>
          </ns3:TrackPointExtension>
        </extensions>
      </trkpt>
      <trkpt lat="43.76680436544120311737060546875" lon="1.57752958126366138458251953125">
        <ele>165.600006103515625</ele>
        <time>2026-08-13T09:40:03.000Z</time>
        <extensions>
          <ns3:TrackPointExtension>
            <ns3:hr>83</ns3:hr>
            <ns3:cad>0</ns3:cad>
          </ns3:TrackPointExtension>
        </extensions>
      </trkpt>
      <trkpt lat="43.76680118031799793243408203125" lon="1.57753109000623226165771484375">
        <ele>165.600006103515625</ele>
        <time>2026-08-13T09:40:04.000Z</time>
        <extensions>
          <ns3:TrackPointExtension>
            <ns3:hr>84</ns3:hr>
            <ns3:cad>0</ns3:cad>
          </ns3:TrackPointExtension>
        </extensions>
      </trkpt>
      <trkpt lat="43.76679112203419208526611328125" lon="1.5775383822619915008544921875">
        <ele>165.600006103515625</ele>
        <time>2026-08-13T09:40:05.000Z</time>
        <extensions>
          <ns3:TrackPointExtension>
            <ns3:hr>84</ns3:hr>
            <ns3:cad>0</ns3:cad>
          </ns3:TrackPointExtension>
        </extensions>
      </trkpt>
      <trkpt lat="43.76678039319813251495361328125" lon="1.57754969783127307891845703125">
        <ele>165.600006103515625</ele>
        <time>2026-08-13T09:40:06.000Z</time>
        <extensions>
          <ns3:TrackPointExtension>
            <ns3:hr>84</ns3:hr>
            <ns3:cad>0</ns3:cad>
          </ns3:TrackPointExtension>
        </extensions>
      </trkpt>
      <trkpt lat="43.7667725980281829833984375" lon="1.5775559842586517333984375">
        <ele>165.600006103515625</ele>
        <time>2026-08-13T09:40:07.000Z</time>
        <extensions>
          <ns3:TrackPointExtension>
            <ns3:hr>84</ns3:hr>
            <ns3:cad>0</ns3:cad>
          </ns3:TrackPointExtension>
        </extensions>
      </trkpt>
      <trkpt lat="43.76676497049629688262939453125" lon="1.5775608457624912261962890625">
        <ele>165.600006103515625</ele>
        <time>2026-08-13T09:40:08.000Z</time>
        <extensions>
          <ns3:TrackPointExtension>
            <ns3:hr>85</ns3:hr>
            <ns3:cad>0</ns3:cad>
          </ns3:TrackPointExtension>
        </extensions>
      </trkpt>
      <trkpt lat="43.766757510602474212646484375" lon="1.57756679691374301910400390625">
        <ele>165.600006103515625</ele>
        <time>2026-08-13T09:40:09.000Z</time>
        <extensions>
          <ns3:TrackPointExtension>
            <ns3:hr>85</ns3:hr>
            <ns3:cad>46</ns3:cad>
          </ns3:TrackPointExtension>
        </extensions>
      </trkpt>
      <trkpt lat="43.7667482905089855194091796875" lon="1.577577106654644012451171875">
        <ele>165.600006103515625</ele>
        <time>2026-08-13T09:40:10.000Z</time>
        <extensions>
          <ns3:TrackPointExtension>
            <ns3:hr>86</ns3:hr>
            <ns3:cad>46</ns3:cad>
          </ns3:TrackPointExtension>
        </extensions>
      </trkpt>
      <trkpt lat="43.7667419202625751495361328125" lon="1.577586494386196136474609375">
        <ele>165.600006103515625</ele>
        <time>2026-08-13T09:40:11.000Z</time>
        <extensions>
          <ns3:TrackPointExtension>
            <ns3:hr>86</ns3:hr>
            <ns3:cad>46</ns3:cad>
          </ns3:TrackPointExtension>
        </extensions>
      </trkpt>
      <trkpt lat="43.76673638820648193359375" lon="1.57759127207100391387939453125">
        <ele>165.600006103515625</ele>
        <time>2026-08-13T09:40:12.000Z</time>
        <extensions>
          <ns3:TrackPointExtension>
            <ns3:hr>87</ns3:hr>
            <ns3:cad>45</ns3:cad>
          </ns3:TrackPointExtension>
        </extensions>
      </trkpt>
      <trkpt lat="43.7667285092175006866455078125" lon="1.577599234879016876220703125">
        <ele>165.600006103515625</ele>
        <time>2026-08-13T09:40:13.000Z</time>
        <extensions>
          <ns3:TrackPointExtension>
            <ns3:hr>86</ns3:hr>
            <ns3:cad>45</ns3:cad>
          </ns3:TrackPointExtension>
        </extensions>
      </trkpt>
      <trkpt lat="43.7667144276201725006103515625" lon="1.5776121430099010467529296875">
        <ele>165.600006103515625</ele>
        <time>2026-08-13T09:40:14.000Z</time>
        <extensions>
          <ns3:TrackPointExtension>
            <ns3:hr>86</ns3:hr>
            <ns3:cad>44</ns3:cad>
          </ns3:TrackPointExtension>
        </extensions>
      </trkpt>
      <trkpt lat="43.76670889556407928466796875" lon="1.5776225365698337554931640625">
        <ele>165.600006103515625</ele>
        <time>2026-08-13T09:40:15.000Z</time>
        <extensions>
          <ns3:TrackPointExtension>
            <ns3:hr>86</ns3:hr>
            <ns3:cad>44</ns3:cad>
          </ns3:TrackPointExtension>
        </extensions>
      </trkpt>
      <trkpt lat="43.76670110039412975311279296875" lon="1.5776279009878635406494140625">
        <ele>165.600006103515625</ele>
        <time>2026-08-13T09:40:16.000Z</time>
        <extensions>
          <ns3:TrackPointExtension>
            <ns3:hr>85</ns3:hr>
            <ns3:cad>44</ns3:cad>
          </ns3:TrackPointExtension>
        </extensions>
      </trkpt>
      <trkpt lat="43.766690455377101898193359375" lon="1.5776336006820201873779296875">
        <ele>165.600006103515625</ele>
        <time>2026-08-13T09:40:17.000Z</time>
        <extensions>
          <ns3:TrackPointExtension>
            <ns3:hr>85</ns3:hr>
            <ns3:cad>43</ns3:cad>
          </ns3:TrackPointExtension>
        </extensions>
      </trkpt>
      <trkpt lat="43.7666768766939640045166015625" lon="1.5776419825851917266845703125">
        <ele>165.600006103515625</ele>
        <time>2026-08-13T09:40:18.000Z</time>
        <extensions>
          <ns3:TrackPointExtension>
            <ns3:hr>85</ns3:hr>
            <ns3:cad>43</ns3:cad>
          </ns3:TrackPointExtension>
        </extensions>
      </trkpt>
      <trkpt lat="43.7666666507720947265625" lon="1.57764650881290435791015625">
        <ele>165.600006103515625</ele>
        <time>2026-08-13T09:40:19.000Z</time>
        <extensions>
          <ns3:TrackPointExtension>
            <ns3:hr>85</ns3:hr>
            <ns3:cad>43</ns3:cad>
          </ns3:TrackPointExtension>
        </extensions>
      </trkpt>
      <trkpt lat="43.76665902324020862579345703125" lon="1.57764977775514125823974609375">
        <ele>165.600006103515625</ele>
        <time>2026-08-13T09:40:20.000Z</time>
        <extensions>
          <ns3:TrackPointExtension>
            <ns3:hr>85</ns3:hr>
            <ns3:cad>46</ns3:cad>
          </ns3:TrackPointExtension>
        </extensions>
      </trkpt>
      <trkpt lat="43.7666545808315277099609375" lon="1.57765380106866359710693359375">
        <ele>165.600006103515625</ele>
        <time>2026-08-13T09:40:21.000Z</time>
        <extensions>
          <ns3:TrackPointExtension>
            <ns3:hr>85</ns3:hr>
            <ns3:cad>47</ns3:cad>
          </ns3:TrackPointExtension>
        </extensions>
      </trkpt>
      <trkpt lat="43.76664075069129467010498046875" lon="1.57766603864729404449462890625">
        <ele>165.600006103515625</ele>
        <time>2026-08-13T09:40:22.000Z</time>
        <extensions>
          <ns3:TrackPointExtension>
            <ns3:hr>85</ns3:hr>
            <ns3:cad>46</ns3:cad>
          </ns3:TrackPointExtension>
        </extensions>
      </trkpt>
      <trkpt lat="43.766628764569759368896484375" lon="1.57767559401690959930419921875">
        <ele>165.600006103515625</ele>
        <time>2026-08-13T09:40:23.000Z</time>
        <extensions>
          <ns3:TrackPointExtension>
            <ns3:hr>85</ns3:hr>
            <ns3:cad>46</ns3:cad>
          </ns3:TrackPointExtension>
        </extensions>
      </trkpt>
      <trkpt lat="43.76661962829530239105224609375" lon="1.577684395015239715576171875">
        <ele>165.600006103515625</ele>
        <time>2026-08-13T09:40:24.000Z</time>
        <extensions>
          <ns3:TrackPointExtension>
            <ns3:hr>84</ns3:hr>
            <ns3:cad>46</ns3:cad>
          </ns3:TrackPointExtension>
        </extensions>
      </trkpt>
      <trkpt lat="43.766614012420177459716796875" lon="1.5776895917952060699462890625">
        <ele>165.600006103515625</ele>
        <time>2026-08-13T09:40:25.000Z</time>
        <extensions>
          <ns3:TrackPointExtension>
            <ns3:hr>84</ns3:hr>
            <ns3:cad>47</ns3:cad>
          </ns3:TrackPointExtension>
        </extensions>
      </trkpt>
      <trkpt lat="43.76660705544054508209228515625" lon="1.5776962973177433013916015625">
        <ele>165.600006103515625</ele>
        <time>2026-08-13T09:40:26.000Z</time>
        <extensions>
          <ns3:TrackPointExtension>
            <ns3:hr>84</ns3:hr>
            <ns3:cad>47</ns3:cad>
          </ns3:TrackPointExtension>
        </extensions>
      </trkpt>
      <trkpt lat="43.7665930576622486114501953125" lon="1.57770819962024688720703125">
        <ele>165.600006103515625</ele>
        <time>2026-08-13T09:40:27.000Z</time>
        <extensions>
          <ns3:TrackPointExtension>
            <ns3:hr>84</ns3:hr>
            <ns3:cad>46</ns3:cad>
          </ns3:TrackPointExtension>
        </extensions>
      </trkpt>
      <trkpt lat="43.76658425666391849517822265625" lon="1.5777201019227504730224609375">
        <ele>165.600006103515625</ele>
        <time>2026-08-13T09:40:28.000Z</time>
        <extensions>
          <ns3:TrackPointExtension>
            <ns3:hr>83</ns3:hr>
            <ns3:cad>46</ns3:cad>
          </ns3:TrackPointExtension>
        </extensions>
      </trkpt>
      <trkpt lat="43.76657956279814243316650390625" lon="1.5777308307588100433349609375">
        <ele>165.600006103515625</ele>
        <time>2026-08-13T09:40:29.000Z</time>
        <extensions>
          <ns3:TrackPointExtension>
            <ns3:hr>83</ns3:hr>
            <ns3:cad>46</ns3:cad>
          </ns3:TrackPointExtension>
        </extensions>
      </trkpt>
      <trkpt lat="43.76657336018979549407958984375" lon="1.57774231396615505218505859375">
        <ele>165.600006103515625</ele>
        <time>2026-08-13T09:40:30.000Z</time>
        <extensions>
          <ns3:TrackPointExtension>
            <ns3:hr>83</ns3:hr>
            <ns3:cad>48</ns3:cad>
          </ns3:TrackPointExtension>
        </extensions>
      </trkpt>
      <trkpt lat="43.76656548120081424713134765625" lon="1.57775119878351688385009765625">
        <ele>165.600006103515625</ele>
        <time>2026-08-13T09:40:31.000Z</time>
        <extensions>
          <ns3:TrackPointExtension>
            <ns3:hr>82</ns3:hr>
            <ns3:cad>48</ns3:cad>
          </ns3:TrackPointExtension>
        </extensions>
      </trkpt>
      <trkpt lat="43.76655139960348606109619140625" lon="1.57776326872408390045166015625">
        <ele>165.600006103515625</ele>
        <time>2026-08-13T09:40:32.000Z</time>
        <extensions>
          <ns3:TrackPointExtension>
            <ns3:hr>83</ns3:hr>
            <ns3:cad>48</ns3:cad>
          </ns3:TrackPointExtension>
        </extensions>
      </trkpt>
      <trkpt lat="43.7665417604148387908935546875" lon="1.5777707286179065704345703125">
        <ele>165.600006103515625</ele>
        <time>2026-08-13T09:40:33.000Z</time>
        <extensions>
          <ns3:TrackPointExtension>
            <ns3:hr>83</ns3:hr>
            <ns3:cad>48</ns3:cad>
          </ns3:TrackPointExtension>
        </extensions>
      </trkpt>
      <trkpt lat="43.7665337137877941131591796875" lon="1.57777818851172924041748046875">
        <ele>165.600006103515625</ele>
        <time>2026-08-13T09:40:34.000Z</time>
        <extensions>
          <ns3:TrackPointExtension>
            <ns3:hr>83</ns3:hr>
            <ns3:cad>47</ns3:cad>
          </ns3:TrackPointExtension>
        </extensions>
      </trkpt>
      <trkpt lat="43.76652675680816173553466796875" lon="1.57777852378785610198974609375">
        <ele>165.600006103515625</ele>
        <time>2026-08-13T09:40:35.000Z</time>
        <extensions>
          <ns3:TrackPointExtension>
            <ns3:hr>83</ns3:hr>
            <ns3:cad>47</ns3:cad>
          </ns3:TrackPointExtension>
        </extensions>
      </trkpt>
      <trkpt lat="43.766513429582118988037109375" lon="1.57778355292975902557373046875">
        <ele>165.600006103515625</ele>
        <time>2026-08-13T09:40:36.000Z</time>
        <extensions>
          <ns3:TrackPointExtension>
            <ns3:hr>83</ns3:hr>
            <ns3:cad>49</ns3:cad>
          </ns3:TrackPointExtension>
        </extensions>
      </trkpt>
      <trkpt lat="43.7665018625557422637939453125" lon="1.57779025845229625701904296875">
        <ele>165.600006103515625</ele>
        <time>2026-08-13T09:40:37.000Z</time>
        <extensions>
          <ns3:TrackPointExtension>
            <ns3:hr>83</ns3:hr>
            <ns3:cad>49</ns3:cad>
          </ns3:TrackPointExtension>
        </extensions>
      </trkpt>
      <trkpt lat="43.7664941512048244476318359375" lon="1.5777921862900257110595703125">
        <ele>165.600006103515625</ele>
        <time>2026-08-13T09:40:38.000Z</time>
        <extensions>
          <ns3:TrackPointExtension>
            <ns3:hr>84</ns3:hr>
            <ns3:cad>49</ns3:cad>
          </ns3:TrackPointExtension>
        </extensions>
      </trkpt>
      <trkpt lat="43.76649104990065097808837890625" lon="1.577801071107387542724609375">
        <ele>165.600006103515625</ele>
        <time>2026-08-13T09:40:39.000Z</time>
        <extensions>
          <ns3:TrackPointExtension>
            <ns3:hr>84</ns3:hr>
            <ns3:cad>47</ns3:cad>
          </ns3:TrackPointExtension>
        </extensions>
      </trkpt>
      <trkpt lat="43.76648300327360630035400390625" lon="1.5778082795441150665283203125">
        <ele>165.600006103515625</ele>
        <time>2026-08-13T09:40:40.000Z</time>
        <extensions>
          <ns3:TrackPointExtension>
            <ns3:hr>84</ns3:hr>
            <ns3:cad>47</ns3:cad>
          </ns3:TrackPointExtension>
        </extensions>
      </trkpt>
      <trkpt lat="43.76646892167627811431884765625" lon="1.57781590707600116729736328125">
        <ele>165.8000030517578125</ele>
        <time>2026-08-13T09:40:41.000Z</time>
        <extensions>
          <ns3:TrackPointExtension>
            <ns3:hr>85</ns3:hr>
            <ns3:cad>47</ns3:cad>
          </ns3:TrackPointExtension>
        </extensions>
      </trkpt>
      <trkpt lat="43.76645986922085285186767578125" lon="1.57782621681690216064453125">
        <ele>165.8000030517578125</ele>
        <time>2026-08-13T09:40:42.000Z</time>
        <extensions>
          <ns3:TrackPointExtension>
            <ns3:hr>84</ns3:hr>
            <ns3:cad>47</ns3:cad>
          </ns3:TrackPointExtension>
        </extensions>
      </trkpt>
      <trkpt lat="43.766455091536045074462890625" lon="1.5778294019401073455810546875">
        <ele>165.8000030517578125</ele>
        <time>2026-08-13T09:40:43.000Z</time>
        <extensions>
          <ns3:TrackPointExtension>
            <ns3:hr>84</ns3:hr>
            <ns3:cad>47</ns3:cad>
          </ns3:TrackPointExtension>
        </extensions>
      </trkpt>
      <trkpt lat="43.76645366661250591278076171875" lon="1.57783602364361286163330078125">
        <ele>165.8000030517578125</ele>
        <time>2026-08-13T09:40:44.000Z</time>
        <extensions>
          <ns3:TrackPointExtension>
            <ns3:hr>85</ns3:hr>
            <ns3:cad>47</ns3:cad>
          </ns3:TrackPointExtension>
        </extensions>
      </trkpt>
      <trkpt lat="43.7664411775767803192138671875" lon="1.57784692011773586273193359375">
        <ele>165.600006103515625</ele>
        <time>2026-08-13T09:40:45.000Z</time>
        <extensions>
          <ns3:TrackPointExtension>
            <ns3:hr>84</ns3:hr>
            <ns3:cad>47</ns3:cad>
          </ns3:TrackPointExtension>
        </extensions>
      </trkpt>
      <trkpt lat="43.7664371542632579803466796875" lon="1.5778542123734951019287109375">
        <ele>165.600006103515625</ele>
        <time>2026-08-13T09:40:46.000Z</time>
        <extensions>
          <ns3:TrackPointExtension>
            <ns3:hr>84</ns3:hr>
            <ns3:cad>0</ns3:cad>
          </ns3:TrackPointExtension>
        </extensions>
      </trkpt>
      <trkpt lat="43.76643254421651363372802734375" lon="1.57786033116281032562255859375">
        <ele>165.600006103515625</ele>
        <time>2026-08-13T09:40:47.000Z</time>
        <extensions>
          <ns3:TrackPointExtension>
            <ns3:hr>85</ns3:hr>
            <ns3:cad>0</ns3:cad>
          </ns3:TrackPointExtension>
        </extensions>
      </trkpt>
      <trkpt lat="43.76641628332436084747314453125" lon="1.57787390984594821929931640625">
        <ele>165.600006103515625</ele>
        <time>2026-08-13T09:40:48.000Z</time>
        <extensions>
          <ns3:TrackPointExtension>
            <ns3:hr>85</ns3:hr>
            <ns3:cad>0</ns3:cad>
          </ns3:TrackPointExtension>
        </extensions>
      </trkpt>
      <trkpt lat="43.76640848815441131591796875" lon="1.57788162119686603546142578125">
        <ele>165.600006103515625</ele>
        <time>2026-08-13T09:40:49.000Z</time>
        <extensions>
          <ns3:TrackPointExtension>
            <ns3:hr>85</ns3:hr>
            <ns3:cad>0</ns3:cad>
          </ns3:TrackPointExtension>
        </extensions>
      </trkpt>
      <trkpt lat="43.76640337519347667694091796875" lon="1.57788916490972042083740234375">
        <ele>165.600006103515625</ele>
        <time>2026-08-13T09:40:50.000Z</time>
        <extensions>
          <ns3:TrackPointExtension>
            <ns3:hr>85</ns3:hr>
            <ns3:cad>0</ns3:cad>
          </ns3:TrackPointExtension>
        </extensions>
      </trkpt>
      <trkpt lat="43.76639817841351032257080078125" lon="1.57789335586130619049072265625">
        <ele>165.600006103515625</ele>
        <time>2026-08-13T09:40:51.000Z</time>
        <extensions>
          <ns3:TrackPointExtension>
            <ns3:hr>86</ns3:hr>
            <ns3:cad>0</ns3:cad>
          </ns3:TrackPointExtension>
        </extensions>
      </trkpt>
      <trkpt lat="43.7663885392248630523681640625" lon="1.57790039665997028350830078125">
        <ele>165.8000030517578125</ele>
        <time>2026-08-13T09:40:52.000Z</time>
        <extensions>
          <ns3:TrackPointExtension>
            <ns3:hr>86</ns3:hr>
            <ns3:cad>0</ns3:cad>
          </ns3:TrackPointExtension>
        </extensions>
      </trkpt>
      <trkpt lat="43.76637990586459636688232421875" lon="1.5779138915240764617919921875">
        <ele>165.8000030517578125</ele>
        <time>2026-08-13T09:40:53.000Z</time>
        <extensions>
          <ns3:TrackPointExtension>
            <ns3:hr>86</ns3:hr>
            <ns3:cad>0</ns3:cad>
          </ns3:TrackPointExtension>
        </extensions>
      </trkpt>
      <trkpt lat="43.766372613608837127685546875" lon="1.5779279731214046478271484375">
        <ele>165.8000030517578125</ele>
        <time>2026-08-13T09:40:54.000Z</time>
        <extensions>
          <ns3:TrackPointExtension>
            <ns3:hr>86</ns3:hr>
            <ns3:cad>0</ns3:cad>
          </ns3:TrackPointExtension>
        </extensions>
      </trkpt>
      <trkpt lat="43.7663657404482364654541015625" lon="1.57793375663459300994873046875">
        <ele>166</ele>
        <time>2026-08-13T09:40:55.000Z</time>
        <extensions>
          <ns3:TrackPointExtension>
            <ns3:hr>85</ns3:hr>
            <ns3:cad>0</ns3:cad>
          </ns3:TrackPointExtension>
        </extensions>
      </trkpt>
      <trkpt lat="43.76635358668863773345947265625" lon="1.5779420547187328338623046875">
        <ele>166</ele>
        <time>2026-08-13T09:40:56.000Z</time>
        <extensions>
          <ns3:TrackPointExtension>
            <ns3:hr>86</ns3:hr>
            <ns3:cad>48</ns3:cad>
          </ns3:TrackPointExtension>
        </extensions>
      </trkpt>
      <trkpt lat="43.766343779861927032470703125" lon="1.5779501013457775115966796875">
        <ele>166</ele>
        <time>2026-08-13T09:40:57.000Z</time>
        <extensions>
          <ns3:TrackPointExtension>
            <ns3:hr>86</ns3:hr>
            <ns3:cad>48</ns3:cad>
          </ns3:TrackPointExtension>
        </extensions>
      </trkpt>
      <trkpt lat="43.7663345597684383392333984375" lon="1.57795906998217105865478515625">
        <ele>166</ele>
        <time>2026-08-13T09:40:58.000Z</time>
        <extensions>
          <ns3:TrackPointExtension>
            <ns3:hr>86</ns3:hr>
            <ns3:cad>48</ns3:cad>
          </ns3:TrackPointExtension>
        </extensions>
      </trkpt>
      <trkpt lat="43.7663261778652667999267578125" lon="1.5779668651521205902099609375">
        <ele>166</ele>
        <time>2026-08-13T09:40:59.000Z</time>
        <extensions>
          <ns3:TrackPointExtension>
            <ns3:hr>86</ns3:hr>
            <ns3:cad>48</ns3:cad>
          </ns3:TrackPointExtension>
        </extensions>
      </trkpt>
      <trkpt lat="43.76631905324757099151611328125" lon="1.577972732484340667724609375">
        <ele>165.8000030517578125</ele>
        <time>2026-08-13T09:41:00.000Z</time>
        <extensions>
          <ns3:TrackPointExtension>
            <ns3:hr>86</ns3:hr>
            <ns3:cad>0</ns3:cad>
          </ns3:TrackPointExtension>
        </extensions>
      </trkpt>
      <trkpt lat="43.7663104198873043060302734375" lon="1.57797851599752902984619140625">
        <ele>165.8000030517578125</ele>
        <time>2026-08-13T09:41:01.000Z</time>
        <extensions>
          <ns3:TrackPointExtension>
            <ns3:hr>87</ns3:hr>
            <ns3:cad>0</ns3:cad>
          </ns3:TrackPointExtension>
        </extensions>
      </trkpt>
      <trkpt lat="43.766300193965435028076171875" lon="1.5779849700629711151123046875">
        <ele>165.600006103515625</ele>
        <time>2026-08-13T09:41:02.000Z</time>
        <extensions>
          <ns3:TrackPointExtension>
            <ns3:hr>87</ns3:hr>
            <ns3:cad>49</ns3:cad>
          </ns3:TrackPointExtension>
        </extensions>
      </trkpt>
      <trkpt lat="43.7662929855287075042724609375" lon="1.577989496290683746337890625">
        <ele>165.600006103515625</ele>
        <time>2026-08-13T09:41:03.000Z</time>
        <extensions>
          <ns3:TrackPointExtension>
            <ns3:hr>88</ns3:hr>
            <ns3:cad>49</ns3:cad>
          </ns3:TrackPointExtension>
        </extensions>
      </trkpt>
      <trkpt lat="43.7662872858345508575439453125" lon="1.57799326814711093902587890625">
        <ele>165.600006103515625</ele>
        <time>2026-08-13T09:41:04.000Z</time>
        <extensions>
          <ns3:TrackPointExtension>
            <ns3:hr>88</ns3:hr>
            <ns3:cad>49</ns3:cad>
          </ns3:TrackPointExtension>
        </extensions>
      </trkpt>
      <trkpt lat="43.7662809155881404876708984375" lon="1.5779960341751575469970703125">
        <ele>165.600006103515625</ele>
        <time>2026-08-13T09:41:05.000Z</time>
        <extensions>
          <ns3:TrackPointExtension>
            <ns3:hr>88</ns3:hr>
            <ns3:cad>49</ns3:cad>
          </ns3:TrackPointExtension>
        </extensions>
      </trkpt>
      <trkpt lat="43.76626775600016117095947265625" lon="1.5780039131641387939453125">
        <ele>165.600006103515625</ele>
        <time>2026-08-13T09:41:06.000Z</time>
        <extensions>
          <ns3:TrackPointExtension>
            <ns3:hr>88</ns3:hr>
            <ns3:cad>48</ns3:cad>
          </ns3:TrackPointExtension>
        </extensions>
      </trkpt>
      <trkpt lat="43.766248226165771484375" lon="1.578016318380832672119140625">
        <ele>165.600006103515625</ele>
        <time>2026-08-13T09:41:07.000Z</time>
        <extensions>
          <ns3:TrackPointExtension>
            <ns3:hr>87</ns3:hr>
            <ns3:cad>48</ns3:cad>
          </ns3:TrackPointExtension>
        </extensions>
      </trkpt>
      <trkpt lat="43.76623858697712421417236328125" lon="1.578021012246608734130859375">
        <ele>165.600006103515625</ele>
        <time>2026-08-13T09:41:08.000Z</time>
        <extensions>
          <ns3:TrackPointExtension>
            <ns3:hr>85</ns3:hr>
            <ns3:cad>47</ns3:cad>
          </ns3:TrackPointExtension>
        </extensions>
      </trkpt>
      <trkpt lat="43.76623204909265041351318359375" lon="1.57801941968500614166259765625">
        <ele>165.8000030517578125</ele>
        <time>2026-08-13T09:41:09.000Z</time>
        <extensions>
          <ns3:TrackPointExtension>
            <ns3:hr>82</ns3:hr>
            <ns3:cad>47</ns3:cad>
          </ns3:TrackPointExtension>
        </extensions>
      </trkpt>
      <trkpt lat="43.76622098498046398162841796875" lon="1.5780262090265750885009765625">
        <ele>165.8000030517578125</ele>
        <time>2026-08-13T09:41:10.000Z</time>
        <extensions>
          <ns3:TrackPointExtension>
            <ns3:hr>82</ns3:hr>
            <ns3:cad>47</ns3:cad>
          </ns3:TrackPointExtension>
        </extensions>
      </trkpt>
      <trkpt lat="43.76620640046894550323486328125" lon="1.578039787709712982177734375">
        <ele>165.8000030517578125</ele>
        <time>2026-08-13T09:41:11.000Z</time>
        <extensions>
          <ns3:TrackPointExtension>
            <ns3:hr>82</ns3:hr>
            <ns3:cad>47</ns3:cad>
          </ns3:TrackPointExtension>
        </extensions>
      </trkpt>
      <trkpt lat="43.7661970965564250946044921875" lon="1.57804808579385280609130859375">
        <ele>165.8000030517578125</ele>
        <time>2026-08-13T09:41:12.000Z</time>
        <extensions>
          <ns3:TrackPointExtension>
            <ns3:hr>81</ns3:hr>
            <ns3:cad>47</ns3:cad>
          </ns3:TrackPointExtension>
        </extensions>
      </trkpt>
      <trkpt lat="43.76618829555809497833251953125" lon="1.5780526958405971527099609375">
        <ele>165.8000030517578125</ele>
        <time>2026-08-13T09:41:13.000Z</time>
        <extensions>
          <ns3:TrackPointExtension>
            <ns3:hr>82</ns3:hr>
            <ns3:cad>46</ns3:cad>
          </ns3:TrackPointExtension>
        </extensions>
      </trkpt>
      <trkpt lat="43.76618008129298686981201171875" lon="1.5780548751354217529296875">
        <ele>165.8000030517578125</ele>
        <time>2026-08-13T09:41:14.000Z</time>
        <extensions>
          <ns3:TrackPointExtension>
            <ns3:hr>82</ns3:hr>
            <ns3:cad>46</ns3:cad>
          </ns3:TrackPointExtension>
        </extensions>
      </trkpt>
      <trkpt lat="43.76617019064724445343017578125" lon="1.5780657716095447540283203125">
        <ele>165.8000030517578125</ele>
        <time>2026-08-13T09:41:15.000Z</time>
        <extensions>
          <ns3:TrackPointExtension>
            <ns3:hr>83</ns3:hr>
            <ns3:cad>47</ns3:cad>
          </ns3:TrackPointExtension>
        </extensions>
      </trkpt>
      <trkpt lat="43.76615493558347225189208984375" lon="1.57808345742523670196533203125">
        <ele>165.8000030517578125</ele>
        <time>2026-08-13T09:41:16.000Z</time>
        <extensions>
          <ns3:TrackPointExtension>
            <ns3:hr>84</ns3:hr>
            <ns3:cad>47</ns3:cad>
          </ns3:TrackPointExtension>
        </extensions>
      </trkpt>
      <trkpt lat="43.76614672131836414337158203125" lon="1.5780952759087085723876953125">
        <ele>165.8000030517578125</ele>
        <time>2026-08-13T09:41:17.000Z</time>
        <extensions>
          <ns3:TrackPointExtension>
            <ns3:hr>84</ns3:hr>
            <ns3:cad>47</ns3:cad>
          </ns3:TrackPointExtension>
        </extensions>
      </trkpt>
      <trkpt lat="43.7661397643387317657470703125" lon="1.5781029872596263885498046875">
        <ele>165.8000030517578125</ele>
        <time>2026-08-13T09:41:18.000Z</time>
        <extensions>
          <ns3:TrackPointExtension>
            <ns3:hr>85</ns3:hr>
            <ns3:cad>47</ns3:cad>
          </ns3:TrackPointExtension>
        </extensions>
      </trkpt>
      <trkpt lat="43.76613213680684566497802734375" lon="1.57810558564960956573486328125">
        <ele>165.8000030517578125</ele>
        <time>2026-08-13T09:41:19.000Z</time>
        <extensions>
          <ns3:TrackPointExtension>
            <ns3:hr>85</ns3:hr>
            <ns3:cad>47</ns3:cad>
          </ns3:TrackPointExtension>
        </extensions>
      </trkpt>
      <trkpt lat="43.7661209888756275177001953125" lon="1.57811564393341541290283203125">
        <ele>165.8000030517578125</ele>
        <time>2026-08-13T09:41:20.000Z</time>
        <extensions>
          <ns3:TrackPointExtension>
            <ns3:hr>85</ns3:hr>
            <ns3:cad>47</ns3:cad>
          </ns3:TrackPointExtension>
        </extensions>
      </trkpt>
      <trkpt lat="43.76611000858247280120849609375" lon="1.57812989316880702972412109375">
        <ele>165.8000030517578125</ele>
        <time>2026-08-13T09:41:21.000Z</time>
        <extensions>
          <ns3:TrackPointExtension>
            <ns3:hr>85</ns3:hr>
            <ns3:cad>47</ns3:cad>
          </ns3:TrackPointExtension>
        </extensions>
      </trkpt>
      <trkpt lat="43.76610296778380870819091796875" lon="1.5781388618052005767822265625">
        <ele>165.8000030517578125</ele>
        <time>2026-08-13T09:41:22.000Z</time>
        <extensions>
          <ns3:TrackPointExtension>
            <ns3:hr>86</ns3:hr>
            <ns3:cad>47</ns3:cad>
          </ns3:TrackPointExtension>
        </extensions>
      </trkpt>
      <trkpt lat="43.76609525643289089202880859375" lon="1.5781425498425960540771484375">
        <ele>165.8000030517578125</ele>
        <time>2026-08-13T09:41:23.000Z</time>
        <extensions>
          <ns3:TrackPointExtension>
            <ns3:hr>87</ns3:hr>
            <ns3:cad>47</ns3:cad>
          </ns3:TrackPointExtension>
        </extensions>
      </trkpt>
      <trkpt lat="43.766089640557765960693359375" lon="1.5781489200890064239501953125">
        <ele>165.8000030517578125</ele>
        <time>2026-08-13T09:41:24.000Z</time>
        <extensions>
          <ns3:TrackPointExtension>
            <ns3:hr>87</ns3:hr>
            <ns3:cad>49</ns3:cad>
          </ns3:TrackPointExtension>
        </extensions>
      </trkpt>
      <trkpt lat="43.76607681624591350555419921875" lon="1.5781599842011928558349609375">
        <ele>165.8000030517578125</ele>
        <time>2026-08-13T09:41:25.000Z</time>
        <extensions>
          <ns3:TrackPointExtension>
            <ns3:hr>87</ns3:hr>
            <ns3:cad>49</ns3:cad>
          </ns3:TrackPointExtension>
        </extensions>
      </trkpt>
      <trkpt lat="43.76606541685760021209716796875" lon="1.57817113213241100311279296875">
        <ele>165.8000030517578125</ele>
        <time>2026-08-13T09:41:26.000Z</time>
        <extensions>
          <ns3:TrackPointExtension>
            <ns3:hr>87</ns3:hr>
            <ns3:cad>48</ns3:cad>
          </ns3:TrackPointExtension>
        </extensions>
      </trkpt>
      <trkpt lat="43.766056112945079803466796875" lon="1.578179933130741119384765625">
        <ele>165.8000030517578125</ele>
        <time>2026-08-13T09:41:27.000Z</time>
        <extensions>
          <ns3:TrackPointExtension>
            <ns3:hr>87</ns3:hr>
            <ns3:cad>47</ns3:cad>
          </ns3:TrackPointExtension>
        </extensions>
      </trkpt>
      <trkpt lat="43.76604815013706684112548828125" lon="1.57818789593875408172607421875">
        <ele>166</ele>
        <time>2026-08-13T09:41:28.000Z</time>
        <extensions>
          <ns3:TrackPointExtension>
            <ns3:hr>86</ns3:hr>
            <ns3:cad>47</ns3:cad>
          </ns3:TrackPointExtension>
        </extensions>
      </trkpt>
      <trkpt lat="43.7660368345677852630615234375" lon="1.5781915001571178436279296875">
        <ele>166</ele>
        <time>2026-08-13T09:41:29.000Z</time>
        <extensions>
          <ns3:TrackPointExtension>
            <ns3:hr>86</ns3:hr>
            <ns3:cad>47</ns3:cad>
          </ns3:TrackPointExtension>
        </extensions>
      </trkpt>
      <trkpt lat="43.76603004522621631622314453125" lon="1.578198373317718505859375">
        <ele>166</ele>
        <time>2026-08-13T09:41:30.000Z</time>
        <extensions>
          <ns3:TrackPointExtension>
            <ns3:hr>85</ns3:hr>
            <ns3:cad>47</ns3:cad>
          </ns3:TrackPointExtension>
        </extensions>
      </trkpt>
      <trkpt lat="43.7660180591046810150146484375" lon="1.57820650376379489898681640625">
        <ele>166</ele>
        <time>2026-08-13T09:41:31.000Z</time>
        <extensions>
          <ns3:TrackPointExtension>
            <ns3:hr>85</ns3:hr>
            <ns3:cad>47</ns3:cad>
          </ns3:TrackPointExtension>
        </extensions>
      </trkpt>
      <trkpt lat="43.76601244322955608367919921875" lon="1.57821153290569782257080078125">
        <ele>166</ele>
        <time>2026-08-13T09:41:32.000Z</time>
        <extensions>
          <ns3:TrackPointExtension>
            <ns3:hr>85</ns3:hr>
            <ns3:cad>47</ns3:cad>
          </ns3:TrackPointExtension>
        </extensions>
      </trkpt>
      <trkpt lat="43.76600481569766998291015625" lon="1.5782184898853302001953125">
        <ele>166</ele>
        <time>2026-08-13T09:41:33.000Z</time>
        <extensions>
          <ns3:TrackPointExtension>
            <ns3:hr>85</ns3:hr>
            <ns3:cad>47</ns3:cad>
          </ns3:TrackPointExtension>
        </extensions>
      </trkpt>
      <trkpt lat="43.7659945897758007049560546875" lon="1.578226201236248016357421875">
        <ele>166</ele>
        <time>2026-08-13T09:41:34.000Z</time>
        <extensions>
          <ns3:TrackPointExtension>
            <ns3:hr>85</ns3:hr>
            <ns3:cad>43</ns3:cad>
          </ns3:TrackPointExtension>
        </extensions>
      </trkpt>
      <trkpt lat="43.76598176546394824981689453125" lon="1.578237600624561309814453125">
        <ele>166</ele>
        <time>2026-08-13T09:41:35.000Z</time>
        <extensions>
          <ns3:TrackPointExtension>
            <ns3:hr>85</ns3:hr>
            <ns3:cad>43</ns3:cad>
          </ns3:TrackPointExtension>
        </extensions>
      </trkpt>
      <trkpt lat="43.76597128808498382568359375" lon="1.57825109548866748809814453125">
        <ele>166</ele>
        <time>2026-08-13T09:41:36.000Z</time>
        <extensions>
          <ns3:TrackPointExtension>
            <ns3:hr>85</ns3:hr>
            <ns3:cad>43</ns3:cad>
          </ns3:TrackPointExtension>
        </extensions>
      </trkpt>
      <trkpt lat="43.76596265472471714019775390625" lon="1.57825361005961894989013671875">
        <ele>166</ele>
        <time>2026-08-13T09:41:37.000Z</time>
        <extensions>
          <ns3:TrackPointExtension>
            <ns3:hr>85</ns3:hr>
            <ns3:cad>43</ns3:cad>
          </ns3:TrackPointExtension>
        </extensions>
      </trkpt>
      <trkpt lat="43.76596198417246341705322265625" lon="1.578259058296680450439453125">
        <ele>166</ele>
        <time>2026-08-13T09:41:38.000Z</time>
        <extensions>
          <ns3:TrackPointExtension>
            <ns3:hr>85</ns3:hr>
            <ns3:cad>0</ns3:cad>
          </ns3:TrackPointExtension>
        </extensions>
      </trkpt>
      <trkpt lat="43.765950836241245269775390625" lon="1.57826802693307399749755859375">
        <ele>166</ele>
        <time>2026-08-13T09:41:39.000Z</time>
        <extensions>
          <ns3:TrackPointExtension>
            <ns3:hr>85</ns3:hr>
            <ns3:cad>0</ns3:cad>
          </ns3:TrackPointExtension>
        </extensions>
      </trkpt>
      <trkpt lat="43.76593667082488536834716796875" lon="1.57827992923557758331298828125">
        <ele>166</ele>
        <time>2026-08-13T09:41:40.000Z</time>
        <extensions>
          <ns3:TrackPointExtension>
            <ns3:hr>85</ns3:hr>
            <ns3:cad>49</ns3:cad>
          </ns3:TrackPointExtension>
        </extensions>
      </trkpt>
      <trkpt lat="43.7659285403788089752197265625" lon="1.5782883949577808380126953125">
        <ele>166</ele>
        <time>2026-08-13T09:41:41.000Z</time>
        <extensions>
          <ns3:TrackPointExtension>
            <ns3:hr>85</ns3:hr>
            <ns3:cad>49</ns3:cad>
          </ns3:TrackPointExtension>
        </extensions>
      </trkpt>
      <trkpt lat="43.765919320285320281982421875" lon="1.57829468138515949249267578125">
        <ele>166</ele>
        <time>2026-08-13T09:41:42.000Z</time>
        <extensions>
          <ns3:TrackPointExtension>
            <ns3:hr>86</ns3:hr>
            <ns3:cad>49</ns3:cad>
          </ns3:TrackPointExtension>
        </extensions>
      </trkpt>
      <trkpt lat="43.7659114412963390350341796875" lon="1.5783038176596164703369140625">
        <ele>166</ele>
        <time>2026-08-13T09:41:43.000Z</time>
        <extensions>
          <ns3:TrackPointExtension>
            <ns3:hr>86</ns3:hr>
            <ns3:cad>0</ns3:cad>
          </ns3:TrackPointExtension>
        </extensions>
      </trkpt>
      <trkpt lat="43.765901215374469757080078125" lon="1.5783138759434223175048828125">
        <ele>166</ele>
        <time>2026-08-13T09:41:44.000Z</time>
        <extensions>
          <ns3:TrackPointExtension>
            <ns3:hr>86</ns3:hr>
            <ns3:cad>0</ns3:cad>
          </ns3:TrackPointExtension>
        </extensions>
      </trkpt>
      <trkpt lat="43.7658913247287273406982421875" lon="1.578321754932403564453125">
        <ele>166</ele>
        <time>2026-08-13T09:41:45.000Z</time>
        <extensions>
          <ns3:TrackPointExtension>
            <ns3:hr>86</ns3:hr>
            <ns3:cad>0</ns3:cad>
          </ns3:TrackPointExtension>
        </extensions>
      </trkpt>
      <trkpt lat="43.76588411629199981689453125" lon="1.57832938246428966522216796875">
        <ele>166</ele>
        <time>2026-08-13T09:41:46.000Z</time>
        <extensions>
          <ns3:TrackPointExtension>
            <ns3:hr>86</ns3:hr>
            <ns3:cad>49</ns3:cad>
          </ns3:TrackPointExtension>
        </extensions>
      </trkpt>
      <trkpt lat="43.7658775784075260162353515625" lon="1.5783356688916683197021484375">
        <ele>166</ele>
        <time>2026-08-13T09:41:47.000Z</time>
        <extensions>
          <ns3:TrackPointExtension>
            <ns3:hr>87</ns3:hr>
            <ns3:cad>49</ns3:cad>
          </ns3:TrackPointExtension>
        </extensions>
      </trkpt>
      <trkpt lat="43.765867017209529876708984375" lon="1.57834279350936412811279296875">
        <ele>166</ele>
        <time>2026-08-13T09:41:48.000Z</time>
        <extensions>
          <ns3:TrackPointExtension>
            <ns3:hr>87</ns3:hr>
            <ns3:cad>49</ns3:cad>
          </ns3:TrackPointExtension>
        </extensions>
      </trkpt>
      <trkpt lat="43.7658544443547725677490234375" lon="1.5783524326980113983154296875">
        <ele>165.8000030517578125</ele>
        <time>2026-08-13T09:41:49.000Z</time>
        <extensions>
          <ns3:TrackPointExtension>
            <ns3:hr>87</ns3:hr>
            <ns3:cad>49</ns3:cad>
          </ns3:TrackPointExtension>
        </extensions>
      </trkpt>
      <trkpt lat="43.76584631390869617462158203125" lon="1.5783611498773097991943359375">
        <ele>165.8000030517578125</ele>
        <time>2026-08-13T09:41:50.000Z</time>
        <extensions>
          <ns3:TrackPointExtension>
            <ns3:hr>87</ns3:hr>
            <ns3:cad>48</ns3:cad>
          </ns3:TrackPointExtension>
        </extensions>
      </trkpt>
      <trkpt lat="43.7658336572349071502685546875" lon="1.57837213017046451568603515625">
        <ele>165.8000030517578125</ele>
        <time>2026-08-13T09:41:51.000Z</time>
        <extensions>
          <ns3:TrackPointExtension>
            <ns3:hr>87</ns3:hr>
            <ns3:cad>48</ns3:cad>
          </ns3:TrackPointExtension>
        </extensions>
      </trkpt>
      <trkpt lat="43.7658257782459259033203125" lon="1.5783779136836528778076171875">
        <ele>165.8000030517578125</ele>
        <time>2026-08-13T09:41:52.000Z</time>
        <extensions>
          <ns3:TrackPointExtension>
            <ns3:hr>87</ns3:hr>
            <ns3:cad>48</ns3:cad>
          </ns3:TrackPointExtension>
        </extensions>
      </trkpt>
      <trkpt lat="43.76581161282956600189208984375" lon="1.5783812664449214935302734375">
        <ele>165.8000030517578125</ele>
        <time>2026-08-13T09:41:53.000Z</time>
        <extensions>
          <ns3:TrackPointExtension>
            <ns3:hr>87</ns3:hr>
            <ns3:cad>49</ns3:cad>
          </ns3:TrackPointExtension>
        </extensions>
      </trkpt>
      <trkpt lat="43.76580792479217052459716796875" lon="1.57839476130902767181396484375">
        <ele>165.8000030517578125</ele>
        <time>2026-08-13T09:41:54.000Z</time>
        <extensions>
          <ns3:TrackPointExtension>
            <ns3:hr>87</ns3:hr>
            <ns3:cad>49</ns3:cad>
          </ns3:TrackPointExtension>
        </extensions>
      </trkpt>
      <trkpt lat="43.7657962739467620849609375" lon="1.57841093838214874267578125">
        <ele>165.8000030517578125</ele>
        <time>2026-08-13T09:41:55.000Z</time>
        <extensions>
          <ns3:TrackPointExtension>
            <ns3:hr>87</ns3:hr>
            <ns3:cad>49</ns3:cad>
          </ns3:TrackPointExtension>
        </extensions>
      </trkpt>
      <trkpt lat="43.76579023897647857666015625" lon="1.578417979180812835693359375">
        <ele>165.8000030517578125</ele>
        <time>2026-08-13T09:41:56.000Z</time>
        <extensions>
          <ns3:TrackPointExtension>
            <ns3:hr>87</ns3:hr>
            <ns3:cad>49</ns3:cad>
          </ns3:TrackPointExtension>
        </extensions>
      </trkpt>
      <trkpt lat="43.7657853774726390838623046875" lon="1.578426696360111236572265625">
        <ele>165.8000030517578125</ele>
        <time>2026-08-13T09:41:57.000Z</time>
        <extensions>
          <ns3:TrackPointExtension>
            <ns3:hr>87</ns3:hr>
            <ns3:cad>49</ns3:cad>
          </ns3:TrackPointExtension>
        </extensions>
      </trkpt>
      <trkpt lat="43.76577816903591156005859375" lon="1.57843415625393390655517578125">
        <ele>165.8000030517578125</ele>
        <time>2026-08-13T09:41:58.000Z</time>
        <extensions>
          <ns3:TrackPointExtension>
            <ns3:hr>87</ns3:hr>
            <ns3:cad>0</ns3:cad>
          </ns3:TrackPointExtension>
        </extensions>
      </trkpt>
      <trkpt lat="43.76576551236212253570556640625" lon="1.5784385986626148223876953125">
        <ele>165.8000030517578125</ele>
        <time>2026-08-13T09:41:59.000Z</time>
        <extensions>
          <ns3:TrackPointExtension>
            <ns3:hr>87</ns3:hr>
            <ns3:cad>0</ns3:cad>
          </ns3:TrackPointExtension>
        </extensions>
      </trkpt>
      <trkpt lat="43.7657562084496021270751953125" lon="1.5784437954425811767578125">
        <ele>165.8000030517578125</ele>
        <time>2026-08-13T09:42:00.000Z</time>
        <extensions>
          <ns3:TrackPointExtension>
            <ns3:hr>88</ns3:hr>
            <ns3:cad>0</ns3:cad>
          </ns3:TrackPointExtension>
        </extensions>
      </trkpt>
      <trkpt lat="43.76574925146996974945068359375" lon="1.5784493274986743927001953125">
        <ele>165.8000030517578125</ele>
        <time>2026-08-13T09:42:01.000Z</time>
        <extensions>
          <ns3:TrackPointExtension>
            <ns3:hr>88</ns3:hr>
            <ns3:cad>0</ns3:cad>
          </ns3:TrackPointExtension>
        </extensions>
      </trkpt>
      <trkpt lat="43.76573936082422733306884765625" lon="1.57845787703990936279296875">
        <ele>165.8000030517578125</ele>
        <time>2026-08-13T09:42:02.000Z</time>
        <extensions>
          <ns3:TrackPointExtension>
            <ns3:hr>88</ns3:hr>
            <ns3:cad>0</ns3:cad>
          </ns3:TrackPointExtension>
        </extensions>
      </trkpt>
      <trkpt lat="43.76572829671204090118408203125" lon="1.57846868969500064849853515625">
        <ele>165.8000030517578125</ele>
        <time>2026-08-13T09:42:03.000Z</time>
        <extensions>
          <ns3:TrackPointExtension>
            <ns3:hr>88</ns3:hr>
            <ns3:cad>46</ns3:cad>
          </ns3:TrackPointExtension>
        </extensions>
      </trkpt>
      <trkpt lat="43.76571857370436191558837890625" lon="1.57847891561686992645263671875">
        <ele>165.8000030517578125</ele>
        <time>2026-08-13T09:42:04.000Z</time>
        <extensions>
          <ns3:TrackPointExtension>
            <ns3:hr>89</ns3:hr>
            <ns3:cad>46</ns3:cad>
          </ns3:TrackPointExtension>
        </extensions>
      </trkpt>
      <trkpt lat="43.765712790191173553466796875" lon="1.57848444767296314239501953125">
        <ele>165.8000030517578125</ele>
        <time>2026-08-13T09:42:05.000Z</time>
        <extensions>
          <ns3:TrackPointExtension>
            <ns3:hr>89</ns3:hr>
            <ns3:cad>46</ns3:cad>
          </ns3:TrackPointExtension>
        </extensions>
      </trkpt>
      <trkpt lat="43.765708766877651214599609375" lon="1.57848612405359745025634765625">
        <ele>165.8000030517578125</ele>
        <time>2026-08-13T09:42:06.000Z</time>
        <extensions>
          <ns3:TrackPointExtension>
            <ns3:hr>90</ns3:hr>
            <ns3:cad>45</ns3:cad>
          </ns3:TrackPointExtension>
        </extensions>
      </trkpt>
      <trkpt lat="43.76569904386997222900390625" lon="1.5784922428429126739501953125">
        <ele>165.8000030517578125</ele>
        <time>2026-08-13T09:42:07.000Z</time>
        <extensions>
          <ns3:TrackPointExtension>
            <ns3:hr>90</ns3:hr>
            <ns3:cad>45</ns3:cad>
          </ns3:TrackPointExtension>
        </extensions>
      </trkpt>
      <trkpt lat="43.76568487845361232757568359375" lon="1.57850087620317935943603515625">
        <ele>165.8000030517578125</ele>
        <time>2026-08-13T09:42:08.000Z</time>
        <extensions>
          <ns3:TrackPointExtension>
            <ns3:hr>90</ns3:hr>
            <ns3:cad>45</ns3:cad>
          </ns3:TrackPointExtension>
        </extensions>
      </trkpt>
      <trkpt lat="43.7656740657985210418701171875" lon="1.57850607298314571380615234375">
        <ele>165.8000030517578125</ele>
        <time>2026-08-13T09:42:09.000Z</time>
        <extensions>
          <ns3:TrackPointExtension>
            <ns3:hr>90</ns3:hr>
            <ns3:cad>45</ns3:cad>
          </ns3:TrackPointExtension>
        </extensions>
      </trkpt>
      <trkpt lat="43.7656673602759838104248046875" lon="1.578515209257602691650390625">
        <ele>165.8000030517578125</ele>
        <time>2026-08-13T09:42:10.000Z</time>
        <extensions>
          <ns3:TrackPointExtension>
            <ns3:hr>91</ns3:hr>
            <ns3:cad>45</ns3:cad>
          </ns3:TrackPointExtension>
        </extensions>
      </trkpt>
      <trkpt lat="43.7656660191714763641357421875" lon="1.57852283678948879241943359375">
        <ele>165.8000030517578125</ele>
        <time>2026-08-13T09:42:11.000Z</time>
        <extensions>
          <ns3:TrackPointExtension>
            <ns3:hr>91</ns3:hr>
            <ns3:cad>46</ns3:cad>
          </ns3:TrackPointExtension>
        </extensions>
      </trkpt>
      <trkpt lat="43.76565277576446533203125" lon="1.5785324759781360626220703125">
        <ele>165.8000030517578125</ele>
        <time>2026-08-13T09:42:12.000Z</time>
        <extensions>
          <ns3:TrackPointExtension>
            <ns3:hr>91</ns3:hr>
            <ns3:cad>48</ns3:cad>
          </ns3:TrackPointExtension>
        </extensions>
      </trkpt>
      <trkpt lat="43.7656398676335811614990234375" lon="1.5785458870232105255126953125">
        <ele>165.8000030517578125</ele>
        <time>2026-08-13T09:42:13.000Z</time>
        <extensions>
          <ns3:TrackPointExtension>
            <ns3:hr>91</ns3:hr>
            <ns3:cad>48</ns3:cad>
          </ns3:TrackPointExtension>
        </extensions>
      </trkpt>
      <trkpt lat="43.7656277976930141448974609375" lon="1.57855602912604808807373046875">
        <ele>165.8000030517578125</ele>
        <time>2026-08-13T09:42:14.000Z</time>
        <extensions>
          <ns3:TrackPointExtension>
            <ns3:hr>91</ns3:hr>
            <ns3:cad>48</ns3:cad>
          </ns3:TrackPointExtension>
        </extensions>
      </trkpt>
      <trkpt lat="43.76562100835144519805908203125" lon="1.5785686857998371124267578125">
        <ele>165.8000030517578125</ele>
        <time>2026-08-13T09:42:15.000Z</time>
        <extensions>
          <ns3:TrackPointExtension>
            <ns3:hr>91</ns3:hr>
            <ns3:cad>47</ns3:cad>
          </ns3:TrackPointExtension>
        </extensions>
      </trkpt>
      <trkpt lat="43.76561312936246395111083984375" lon="1.57857748679816722869873046875">
        <ele>165.8000030517578125</ele>
        <time>2026-08-13T09:42:16.000Z</time>
        <extensions>
          <ns3:TrackPointExtension>
            <ns3:hr>92</ns3:hr>
            <ns3:cad>47</ns3:cad>
          </ns3:TrackPointExtension>
        </extensions>
      </trkpt>
      <trkpt lat="43.7656023167073726654052734375" lon="1.57858586870133876800537109375">
        <ele>165.8000030517578125</ele>
        <time>2026-08-13T09:42:17.000Z</time>
        <extensions>
          <ns3:TrackPointExtension>
            <ns3:hr>92</ns3:hr>
            <ns3:cad>47</ns3:cad>
          </ns3:TrackPointExtension>
        </extensions>
      </trkpt>
      <trkpt lat="43.76559301279485225677490234375" lon="1.578593663871288299560546875">
        <ele>165.8000030517578125</ele>
        <time>2026-08-13T09:42:18.000Z</time>
        <extensions>
          <ns3:TrackPointExtension>
            <ns3:hr>92</ns3:hr>
            <ns3:cad>47</ns3:cad>
          </ns3:TrackPointExtension>
        </extensions>
      </trkpt>
      <trkpt lat="43.76558412797749042510986328125" lon="1.57860380597412586212158203125">
        <ele>166</ele>
        <time>2026-08-13T09:42:19.000Z</time>
        <extensions>
          <ns3:TrackPointExtension>
            <ns3:hr>92</ns3:hr>
            <ns3:cad>47</ns3:cad>
          </ns3:TrackPointExtension>
        </extensions>
      </trkpt>
      <trkpt lat="43.7655822001397609710693359375" lon="1.57860833220183849334716796875">
        <ele>166</ele>
        <time>2026-08-13T09:42:20.000Z</time>
        <extensions>
          <ns3:TrackPointExtension>
            <ns3:hr>92</ns3:hr>
            <ns3:cad>47</ns3:cad>
          </ns3:TrackPointExtension>
        </extensions>
      </trkpt>
      <trkpt lat="43.76557859592139720916748046875" lon="1.57861185260117053985595703125">
        <ele>165.8000030517578125</ele>
        <time>2026-08-13T09:42:21.000Z</time>
        <extensions>
          <ns3:TrackPointExtension>
            <ns3:hr>92</ns3:hr>
            <ns3:cad>47</ns3:cad>
          </ns3:TrackPointExtension>
        </extensions>
      </trkpt>
      <trkpt lat="43.765564262866973876953125" lon="1.578622162342071533203125">
        <ele>165.8000030517578125</ele>
        <time>2026-08-13T09:42:22.000Z</time>
        <extensions>
          <ns3:TrackPointExtension>
            <ns3:hr>91</ns3:hr>
            <ns3:cad>47</ns3:cad>
          </ns3:TrackPointExtension>
        </extensions>
      </trkpt>
      <trkpt lat="43.7655523605644702911376953125" lon="1.578635238111019134521484375">
        <ele>165.8000030517578125</ele>
        <time>2026-08-13T09:42:23.000Z</time>
        <extensions>
          <ns3:TrackPointExtension>
            <ns3:hr>91</ns3:hr>
            <ns3:cad>47</ns3:cad>
          </ns3:TrackPointExtension>
        </extensions>
      </trkpt>
      <trkpt lat="43.7655459903180599212646484375" lon="1.57864437438547611236572265625">
        <ele>165.8000030517578125</ele>
        <time>2026-08-13T09:42:24.000Z</time>
        <extensions>
          <ns3:TrackPointExtension>
            <ns3:hr>91</ns3:hr>
            <ns3:cad>47</ns3:cad>
          </ns3:TrackPointExtension>
        </extensions>
      </trkpt>
      <trkpt lat="43.76553987152874469757080078125" lon="1.578648649156093597412109375">
        <ele>165.8000030517578125</ele>
        <time>2026-08-13T09:42:25.000Z</time>
        <extensions>
          <ns3:TrackPointExtension>
            <ns3:hr>90</ns3:hr>
            <ns3:cad>47</ns3:cad>
          </ns3:TrackPointExtension>
        </extensions>
      </trkpt>
      <trkpt lat="43.7655305676162242889404296875" lon="1.5786548517644405364990234375">
        <ele>165.8000030517578125</ele>
        <time>2026-08-13T09:42:26.000Z</time>
        <extensions>
          <ns3:TrackPointExtension>
            <ns3:hr>89</ns3:hr>
            <ns3:cad>46</ns3:cad>
          </ns3:TrackPointExtension>
        </extensions>
      </trkpt>
      <trkpt lat="43.765517659485340118408203125" lon="1.57866172492504119873046875">
        <ele>165.8000030517578125</ele>
        <time>2026-08-13T09:42:27.000Z</time>
        <extensions>
          <ns3:TrackPointExtension>
            <ns3:hr>88</ns3:hr>
            <ns3:cad>45</ns3:cad>
          </ns3:TrackPointExtension>
        </extensions>
      </trkpt>
      <trkpt lat="43.76550718210637569427490234375" lon="1.5786731243133544921875">
        <ele>165.8000030517578125</ele>
        <time>2026-08-13T09:42:28.000Z</time>
        <extensions>
          <ns3:TrackPointExtension>
            <ns3:hr>88</ns3:hr>
            <ns3:cad>45</ns3:cad>
          </ns3:TrackPointExtension>
        </extensions>
      </trkpt>
      <trkpt lat="43.76549947075545787811279296875" lon="1.578679494559764862060546875">
        <ele>165.8000030517578125</ele>
        <time>2026-08-13T09:42:29.000Z</time>
        <extensions>
          <ns3:TrackPointExtension>
            <ns3:hr>87</ns3:hr>
            <ns3:cad>48</ns3:cad>
          </ns3:TrackPointExtension>
        </extensions>
      </trkpt>
      <trkpt lat="43.76549075357615947723388671875" lon="1.57868427224457263946533203125">
        <ele>165.600006103515625</ele>
        <time>2026-08-13T09:42:30.000Z</time>
        <extensions>
          <ns3:TrackPointExtension>
            <ns3:hr>87</ns3:hr>
            <ns3:cad>48</ns3:cad>
          </ns3:TrackPointExtension>
        </extensions>
      </trkpt>
      <trkpt lat="43.76547968946397304534912109375" lon="1.5786905586719512939453125">
        <ele>165.600006103515625</ele>
        <time>2026-08-13T09:42:31.000Z</time>
        <extensions>
          <ns3:TrackPointExtension>
            <ns3:hr>87</ns3:hr>
            <ns3:cad>48</ns3:cad>
          </ns3:TrackPointExtension>
        </extensions>
      </trkpt>
      <trkpt lat="43.765473067760467529296875" lon="1.57870187424123287200927734375">
        <ele>165.600006103515625</ele>
        <time>2026-08-13T09:42:32.000Z</time>
        <extensions>
          <ns3:TrackPointExtension>
            <ns3:hr>87</ns3:hr>
            <ns3:cad>48</ns3:cad>
          </ns3:TrackPointExtension>
        </extensions>
      </trkpt>
      <trkpt lat="43.76546259038150310516357421875" lon="1.57870992086827754974365234375">
        <ele>165.600006103515625</ele>
        <time>2026-08-13T09:42:33.000Z</time>
        <extensions>
          <ns3:TrackPointExtension>
            <ns3:hr>87</ns3:hr>
            <ns3:cad>48</ns3:cad>
          </ns3:TrackPointExtension>
        </extensions>
      </trkpt>
      <trkpt lat="43.76545630395412445068359375" lon="1.57871059142053127288818359375">
        <ele>165.600006103515625</ele>
        <time>2026-08-13T09:42:34.000Z</time>
        <extensions>
          <ns3:TrackPointExtension>
            <ns3:hr>86</ns3:hr>
            <ns3:cad>48</ns3:cad>
          </ns3:TrackPointExtension>
        </extensions>
      </trkpt>
      <trkpt lat="43.7654502689838409423828125" lon="1.57871914096176624298095703125">
        <ele>165.600006103515625</ele>
        <time>2026-08-13T09:42:35.000Z</time>
        <extensions>
          <ns3:TrackPointExtension>
            <ns3:hr>87</ns3:hr>
            <ns3:cad>48</ns3:cad>
          </ns3:TrackPointExtension>
        </extensions>
      </trkpt>
      <trkpt lat="43.7654376961290836334228515625" lon="1.5787319652736186981201171875">
        <ele>165.600006103515625</ele>
        <time>2026-08-13T09:42:36.000Z</time>
        <extensions>
          <ns3:TrackPointExtension>
            <ns3:hr>87</ns3:hr>
            <ns3:cad>47</ns3:cad>
          </ns3:TrackPointExtension>
        </extensions>
      </trkpt>
      <trkpt lat="43.76542772166430950164794921875" lon="1.57874579541385173797607421875">
        <ele>165.600006103515625</ele>
        <time>2026-08-13T09:42:37.000Z</time>
        <extensions>
          <ns3:TrackPointExtension>
            <ns3:hr>86</ns3:hr>
            <ns3:cad>47</ns3:cad>
          </ns3:TrackPointExtension>
        </extensions>
      </trkpt>
      <trkpt lat="43.7654209323227405548095703125" lon="1.578752584755420684814453125">
        <ele>165.600006103515625</ele>
        <time>2026-08-13T09:42:38.000Z</time>
        <extensions>
          <ns3:TrackPointExtension>
            <ns3:hr>86</ns3:hr>
            <ns3:cad>47</ns3:cad>
          </ns3:TrackPointExtension>
        </extensions>
      </trkpt>
      <trkpt lat="43.76541296951472759246826171875" lon="1.57875853590667247772216796875">
        <ele>165.8000030517578125</ele>
        <time>2026-08-13T09:42:39.000Z</time>
        <extensions>
          <ns3:TrackPointExtension>
            <ns3:hr>86</ns3:hr>
            <ns3:cad>45</ns3:cad>
          </ns3:TrackPointExtension>
        </extensions>
      </trkpt>
      <trkpt lat="43.76540307886898517608642578125" lon="1.578767001628875732421875">
        <ele>165.8000030517578125</ele>
        <time>2026-08-13T09:42:40.000Z</time>
        <extensions>
          <ns3:TrackPointExtension>
            <ns3:hr>86</ns3:hr>
            <ns3:cad>47</ns3:cad>
          </ns3:TrackPointExtension>
        </extensions>
      </trkpt>
      <trkpt lat="43.76539452932775020599365234375" lon="1.57877496443688869476318359375">
        <ele>165.8000030517578125</ele>
        <time>2026-08-13T09:42:41.000Z</time>
        <extensions>
          <ns3:TrackPointExtension>
            <ns3:hr>87</ns3:hr>
            <ns3:cad>47</ns3:cad>
          </ns3:TrackPointExtension>
        </extensions>
      </trkpt>
      <trkpt lat="43.76538388431072235107421875" lon="1.57878401689231395721435546875">
        <ele>165.8000030517578125</ele>
        <time>2026-08-13T09:42:42.000Z</time>
        <extensions>
          <ns3:TrackPointExtension>
            <ns3:hr>86</ns3:hr>
            <ns3:cad>47</ns3:cad>
          </ns3:TrackPointExtension>
        </extensions>
      </trkpt>
      <trkpt lat="43.76537525095045566558837890625" lon="1.57879239879548549652099609375">
        <ele>166</ele>
        <time>2026-08-13T09:42:43.000Z</time>
        <extensions>
          <ns3:TrackPointExtension>
            <ns3:hr>86</ns3:hr>
            <ns3:cad>48</ns3:cad>
          </ns3:TrackPointExtension>
        </extensions>
      </trkpt>
      <trkpt lat="43.76536921598017215728759765625" lon="1.5788037143647670745849609375">
        <ele>166</ele>
        <time>2026-08-13T09:42:44.000Z</time>
        <extensions>
          <ns3:TrackPointExtension>
            <ns3:hr>86</ns3:hr>
            <ns3:cad>48</ns3:cad>
          </ns3:TrackPointExtension>
        </extensions>
      </trkpt>
      <trkpt lat="43.76535798422992229461669921875" lon="1.57880933023989200592041015625">
        <ele>165.8000030517578125</ele>
        <time>2026-08-13T09:42:45.000Z</time>
        <extensions>
          <ns3:TrackPointExtension>
            <ns3:hr>86</ns3:hr>
            <ns3:cad>48</ns3:cad>
          </ns3:TrackPointExtension>
        </extensions>
      </trkpt>
      <trkpt lat="43.76534926705062389373779296875" lon="1.5788184665143489837646484375">
        <ele>165.8000030517578125</ele>
        <time>2026-08-13T09:42:46.000Z</time>
        <extensions>
          <ns3:TrackPointExtension>
            <ns3:hr>85</ns3:hr>
            <ns3:cad>48</ns3:cad>
          </ns3:TrackPointExtension>
        </extensions>
      </trkpt>
      <trkpt lat="43.76534096896648406982421875" lon="1.578827016055583953857421875">
        <ele>165.8000030517578125</ele>
        <time>2026-08-13T09:42:47.000Z</time>
        <extensions>
          <ns3:TrackPointExtension>
            <ns3:hr>86</ns3:hr>
            <ns3:cad>47</ns3:cad>
          </ns3:TrackPointExtension>
        </extensions>
      </trkpt>
      <trkpt lat="43.76533426344394683837890625" lon="1.57883338630199432373046875">
        <ele>165.600006103515625</ele>
        <time>2026-08-13T09:42:48.000Z</time>
        <extensions>
          <ns3:TrackPointExtension>
            <ns3:hr>86</ns3:hr>
            <ns3:cad>47</ns3:cad>
          </ns3:TrackPointExtension>
        </extensions>
      </trkpt>
      <trkpt lat="43.76532512716948986053466796875" lon="1.57883598469197750091552734375">
        <ele>165.600006103515625</ele>
        <time>2026-08-13T09:42:49.000Z</time>
        <extensions>
          <ns3:TrackPointExtension>
            <ns3:hr>86</ns3:hr>
            <ns3:cad>47</ns3:cad>
          </ns3:TrackPointExtension>
        </extensions>
      </trkpt>
      <trkpt lat="43.76531540416181087493896484375" lon="1.5788419358432292938232421875">
        <ele>165.600006103515625</ele>
        <time>2026-08-13T09:42:50.000Z</time>
        <extensions>
          <ns3:TrackPointExtension>
            <ns3:hr>86</ns3:hr>
            <ns3:cad>47</ns3:cad>
          </ns3:TrackPointExtension>
        </extensions>
      </trkpt>
      <trkpt lat="43.765301406383514404296875" lon="1.578853838145732879638671875">
        <ele>165.600006103515625</ele>
        <time>2026-08-13T09:42:51.000Z</time>
        <extensions>
          <ns3:TrackPointExtension>
            <ns3:hr>86</ns3:hr>
            <ns3:cad>47</ns3:cad>
          </ns3:TrackPointExtension>
        </extensions>
      </trkpt>
      <trkpt lat="43.76529327593743801116943359375" lon="1.57886431552469730377197265625">
        <ele>165.600006103515625</ele>
        <time>2026-08-13T09:42:52.000Z</time>
        <extensions>
          <ns3:TrackPointExtension>
            <ns3:hr>86</ns3:hr>
            <ns3:cad>47</ns3:cad>
          </ns3:TrackPointExtension>
        </extensions>
      </trkpt>
      <trkpt lat="43.7652841396629810333251953125" lon="1.57887051813304424285888671875">
        <ele>165.399993896484375</ele>
        <time>2026-08-13T09:42:53.000Z</time>
        <extensions>
          <ns3:TrackPointExtension>
            <ns3:hr>86</ns3:hr>
            <ns3:cad>47</ns3:cad>
          </ns3:TrackPointExtension>
        </extensions>
      </trkpt>
      <trkpt lat="43.7652824632823467254638671875" lon="1.57887990586459636688232421875">
        <ele>165.600006103515625</ele>
        <time>2026-08-13T09:42:54.000Z</time>
        <extensions>
          <ns3:TrackPointExtension>
            <ns3:hr>86</ns3:hr>
            <ns3:cad>45</ns3:cad>
          </ns3:TrackPointExtension>
        </extensions>
      </trkpt>
      <trkpt lat="43.76527248881757259368896484375" lon="1.57889306545257568359375">
        <ele>165.600006103515625</ele>
        <time>2026-08-13T09:42:55.000Z</time>
        <extensions>
          <ns3:TrackPointExtension>
            <ns3:hr>86</ns3:hr>
            <ns3:cad>45</ns3:cad>
          </ns3:TrackPointExtension>
        </extensions>
      </trkpt>
      <trkpt lat="43.76525891013443470001220703125" lon="1.57890890724956989288330078125">
        <ele>165.600006103515625</ele>
        <time>2026-08-13T09:42:56.000Z</time>
        <extensions>
          <ns3:TrackPointExtension>
            <ns3:hr>86</ns3:hr>
            <ns3:cad>47</ns3:cad>
          </ns3:TrackPointExtension>
        </extensions>
      </trkpt>
      <trkpt lat="43.76524767838418483734130859375" lon="1.57891695387661457061767578125">
        <ele>165.600006103515625</ele>
        <time>2026-08-13T09:42:57.000Z</time>
        <extensions>
          <ns3:TrackPointExtension>
            <ns3:hr>87</ns3:hr>
            <ns3:cad>47</ns3:cad>
          </ns3:TrackPointExtension>
        </extensions>
      </trkpt>
      <trkpt lat="43.7652382068336009979248046875" lon="1.57891896553337574005126953125">
        <ele>165.600006103515625</ele>
        <time>2026-08-13T09:42:58.000Z</time>
        <extensions>
          <ns3:TrackPointExtension>
            <ns3:hr>87</ns3:hr>
            <ns3:cad>47</ns3:cad>
          </ns3:TrackPointExtension>
        </extensions>
      </trkpt>
      <trkpt lat="43.7652289867401123046875" lon="1.578924246132373809814453125">
        <ele>165.600006103515625</ele>
        <time>2026-08-13T09:42:59.000Z</time>
        <extensions>
          <ns3:TrackPointExtension>
            <ns3:hr>87</ns3:hr>
            <ns3:cad>47</ns3:cad>
          </ns3:TrackPointExtension>
        </extensions>
      </trkpt>
      <trkpt lat="43.7652194313704967498779296875" lon="1.57893128693103790283203125">
        <ele>165.600006103515625</ele>
        <time>2026-08-13T09:43:00.000Z</time>
        <extensions>
          <ns3:TrackPointExtension>
            <ns3:hr>88</ns3:hr>
            <ns3:cad>0</ns3:cad>
          </ns3:TrackPointExtension>
        </extensions>
      </trkpt>
      <trkpt lat="43.76520979218184947967529296875" lon="1.57894545234739780426025390625">
        <ele>165.600006103515625</ele>
        <time>2026-08-13T09:43:01.000Z</time>
        <extensions>
          <ns3:TrackPointExtension>
            <ns3:hr>88</ns3:hr>
            <ns3:cad>0</ns3:cad>
          </ns3:TrackPointExtension>
        </extensions>
      </trkpt>
      <trkpt lat="43.765203841030597686767578125" lon="1.5789529122412204742431640625">
        <ele>165.600006103515625</ele>
        <time>2026-08-13T09:43:02.000Z</time>
        <extensions>
          <ns3:TrackPointExtension>
            <ns3:hr>88</ns3:hr>
            <ns3:cad>45</ns3:cad>
          </ns3:TrackPointExtension>
        </extensions>
      </trkpt>
      <trkpt lat="43.76520015299320220947265625" lon="1.578960120677947998046875">
        <ele>165.600006103515625</ele>
        <time>2026-08-13T09:43:03.000Z</time>
        <extensions>
          <ns3:TrackPointExtension>
            <ns3:hr>88</ns3:hr>
            <ns3:cad>45</ns3:cad>
          </ns3:TrackPointExtension>
        </extensions>
      </trkpt>
      <trkpt lat="43.76518850214779376983642578125" lon="1.57897126860916614532470703125">
        <ele>165.600006103515625</ele>
        <time>2026-08-13T09:43:04.000Z</time>
        <extensions>
          <ns3:TrackPointExtension>
            <ns3:hr>88</ns3:hr>
            <ns3:cad>45</ns3:cad>
          </ns3:TrackPointExtension>
        </extensions>
      </trkpt>
      <trkpt lat="43.76517735421657562255859375" lon="1.578986942768096923828125">
        <ele>165.600006103515625</ele>
        <time>2026-08-13T09:43:05.000Z</time>
        <extensions>
          <ns3:TrackPointExtension>
            <ns3:hr>89</ns3:hr>
            <ns3:cad>45</ns3:cad>
          </ns3:TrackPointExtension>
        </extensions>
      </trkpt>
      <trkpt lat="43.765167631208896636962890625" lon="1.579002030193805694580078125">
        <ele>165.600006103515625</ele>
        <time>2026-08-13T09:43:06.000Z</time>
        <extensions>
          <ns3:TrackPointExtension>
            <ns3:hr>88</ns3:hr>
            <ns3:cad>45</ns3:cad>
          </ns3:TrackPointExtension>
        </extensions>
      </trkpt>
      <trkpt lat="43.7651604227721691131591796875" lon="1.5790082328021526336669921875">
        <ele>165.600006103515625</ele>
        <time>2026-08-13T09:43:07.000Z</time>
        <extensions>
          <ns3:TrackPointExtension>
            <ns3:hr>88</ns3:hr>
            <ns3:cad>45</ns3:cad>
          </ns3:TrackPointExtension>
        </extensions>
      </trkpt>
      <trkpt lat="43.765158243477344512939453125" lon="1.5790109150111675262451171875">
        <ele>165.600006103515625</ele>
        <time>2026-08-13T09:43:08.000Z</time>
        <extensions>
          <ns3:TrackPointExtension>
            <ns3:hr>89</ns3:hr>
            <ns3:cad>46</ns3:cad>
          </ns3:TrackPointExtension>
        </extensions>
      </trkpt>
      <trkpt lat="43.76514525152742862701416015625" lon="1.57902172766625881195068359375">
        <ele>165.600006103515625</ele>
        <time>2026-08-13T09:43:09.000Z</time>
        <extensions>
          <ns3:TrackPointExtension>
            <ns3:hr>89</ns3:hr>
            <ns3:cad>46</ns3:cad>
          </ns3:TrackPointExtension>
        </extensions>
      </trkpt>
      <trkpt lat="43.76513116993010044097900390625" lon="1.57903212122619152069091796875">
        <ele>165.600006103515625</ele>
        <time>2026-08-13T09:43:10.000Z</time>
        <extensions>
          <ns3:TrackPointExtension>
            <ns3:hr>89</ns3:hr>
            <ns3:cad>46</ns3:cad>
          </ns3:TrackPointExtension>
        </extensions>
      </trkpt>
      <trkpt lat="43.76512077637016773223876953125" lon="1.57904536463320255279541015625">
        <ele>165.600006103515625</ele>
        <time>2026-08-13T09:43:11.000Z</time>
        <extensions>
          <ns3:TrackPointExtension>
            <ns3:hr>89</ns3:hr>
            <ns3:cad>46</ns3:cad>
          </ns3:TrackPointExtension>
        </extensions>
      </trkpt>
      <trkpt lat="43.7651141546666622161865234375" lon="1.57905223779380321502685546875">
        <ele>165.600006103515625</ele>
        <time>2026-08-13T09:43:12.000Z</time>
        <extensions>
          <ns3:TrackPointExtension>
            <ns3:hr>89</ns3:hr>
            <ns3:cad>46</ns3:cad>
          </ns3:TrackPointExtension>
        </extensions>
      </trkpt>
      <trkpt lat="43.7651040963828563690185546875" lon="1.5790553390979766845703125">
        <ele>165.600006103515625</ele>
        <time>2026-08-13T09:43:13.000Z</time>
        <extensions>
          <ns3:TrackPointExtension>
            <ns3:hr>88</ns3:hr>
            <ns3:cad>47</ns3:cad>
          </ns3:TrackPointExtension>
        </extensions>
      </trkpt>
      <trkpt lat="43.76509127207100391387939453125" lon="1.57906129024922847747802734375">
        <ele>165.600006103515625</ele>
        <time>2026-08-13T09:43:14.000Z</time>
        <extensions>
          <ns3:TrackPointExtension>
            <ns3:hr>89</ns3:hr>
            <ns3:cad>49</ns3:cad>
          </ns3:TrackPointExtension>
        </extensions>
      </trkpt>
      <trkpt lat="43.765086494386196136474609375" lon="1.57906548120081424713134765625">
        <ele>165.600006103515625</ele>
        <time>2026-08-13T09:43:15.000Z</time>
        <extensions>
          <ns3:TrackPointExtension>
            <ns3:hr>89</ns3:hr>
            <ns3:cad>49</ns3:cad>
          </ns3:TrackPointExtension>
        </extensions>
      </trkpt>
      <trkpt lat="43.765075094997882843017578125" lon="1.5790752880275249481201171875">
        <ele>165.600006103515625</ele>
        <time>2026-08-13T09:43:16.000Z</time>
        <extensions>
          <ns3:TrackPointExtension>
            <ns3:hr>89</ns3:hr>
            <ns3:cad>48</ns3:cad>
          </ns3:TrackPointExtension>
        </extensions>
      </trkpt>
      <trkpt lat="43.765070736408233642578125" lon="1.579077132046222686767578125">
        <ele>165.600006103515625</ele>
        <time>2026-08-13T09:43:17.000Z</time>
        <extensions>
          <ns3:TrackPointExtension>
            <ns3:hr>88</ns3:hr>
            <ns3:cad>48</ns3:cad>
          </ns3:TrackPointExtension>
        </extensions>
      </trkpt>
      <trkpt lat="43.76506076194345951080322265625" lon="1.5790823288261890411376953125">
        <ele>165.399993896484375</ele>
        <time>2026-08-13T09:43:18.000Z</time>
        <extensions>
          <ns3:TrackPointExtension>
            <ns3:hr>88</ns3:hr>
            <ns3:cad>0</ns3:cad>
          </ns3:TrackPointExtension>
        </extensions>
      </trkpt>
      <trkpt lat="43.76505405642092227935791015625" lon="1.57908962108194828033447265625">
        <ele>165.399993896484375</ele>
        <time>2026-08-13T09:43:19.000Z</time>
        <extensions>
          <ns3:TrackPointExtension>
            <ns3:hr>88</ns3:hr>
            <ns3:cad>0</ns3:cad>
          </ns3:TrackPointExtension>
        </extensions>
      </trkpt>
      <trkpt lat="43.76504634507000446319580078125" lon="1.5790920518338680267333984375">
        <ele>165.399993896484375</ele>
        <time>2026-08-13T09:43:20.000Z</time>
        <extensions>
          <ns3:TrackPointExtension>
            <ns3:hr>88</ns3:hr>
            <ns3:cad>44</ns3:cad>
          </ns3:TrackPointExtension>
        </extensions>
      </trkpt>
      <trkpt lat="43.76503863371908664703369140625" lon="1.5791027806699275970458984375">
        <ele>165.399993896484375</ele>
        <time>2026-08-13T09:43:21.000Z</time>
        <extensions>
          <ns3:TrackPointExtension>
            <ns3:hr>87</ns3:hr>
            <ns3:cad>44</ns3:cad>
          </ns3:TrackPointExtension>
        </extensions>
      </trkpt>
      <trkpt lat="43.76503251492977142333984375" lon="1.5791104920208454132080078125">
        <ele>165.399993896484375</ele>
        <time>2026-08-13T09:43:22.000Z</time>
        <extensions>
          <ns3:TrackPointExtension>
            <ns3:hr>87</ns3:hr>
            <ns3:cad>44</ns3:cad>
          </ns3:TrackPointExtension>
        </extensions>
      </trkpt>
      <trkpt lat="43.7650243006646633148193359375" lon="1.5791197121143341064453125">
        <ele>165.399993896484375</ele>
        <time>2026-08-13T09:43:23.000Z</time>
        <extensions>
          <ns3:TrackPointExtension>
            <ns3:hr>87</ns3:hr>
            <ns3:cad>44</ns3:cad>
          </ns3:TrackPointExtension>
        </extensions>
      </trkpt>
      <trkpt lat="43.7650162540376186370849609375" lon="1.57912566326558589935302734375">
        <ele>165.399993896484375</ele>
        <time>2026-08-13T09:43:24.000Z</time>
        <extensions>
          <ns3:TrackPointExtension>
            <ns3:hr>87</ns3:hr>
            <ns3:cad>44</ns3:cad>
          </ns3:TrackPointExtension>
        </extensions>
      </trkpt>
      <trkpt lat="43.76501315273344516754150390625" lon="1.57913102768361568450927734375">
        <ele>165.399993896484375</ele>
        <time>2026-08-13T09:43:25.000Z</time>
        <extensions>
          <ns3:TrackPointExtension>
            <ns3:hr>87</ns3:hr>
            <ns3:cad>44</ns3:cad>
          </ns3:TrackPointExtension>
        </extensions>
      </trkpt>
      <trkpt lat="43.7650018371641635894775390625" lon="1.57913991250097751617431640625">
        <ele>165.399993896484375</ele>
        <time>2026-08-13T09:43:26.000Z</time>
        <extensions>
          <ns3:TrackPointExtension>
            <ns3:hr>87</ns3:hr>
            <ns3:cad>44</ns3:cad>
          </ns3:TrackPointExtension>
        </extensions>
      </trkpt>
      <trkpt lat="43.7649916112422943115234375" lon="1.5791463665664196014404296875">
        <ele>165.399993896484375</ele>
        <time>2026-08-13T09:43:27.000Z</time>
        <extensions>
          <ns3:TrackPointExtension>
            <ns3:hr>87</ns3:hr>
            <ns3:cad>45</ns3:cad>
          </ns3:TrackPointExtension>
        </extensions>
      </trkpt>
      <trkpt lat="43.76498398371040821075439453125" lon="1.5791545808315277099609375">
        <ele>165.399993896484375</ele>
        <time>2026-08-13T09:43:28.000Z</time>
        <extensions>
          <ns3:TrackPointExtension>
            <ns3:hr>87</ns3:hr>
            <ns3:cad>45</ns3:cad>
          </ns3:TrackPointExtension>
        </extensions>
      </trkpt>
      <trkpt lat="43.76497945748269557952880859375" lon="1.5791604481637477874755859375">
        <ele>165.399993896484375</ele>
        <time>2026-08-13T09:43:29.000Z</time>
        <extensions>
          <ns3:TrackPointExtension>
            <ns3:hr>88</ns3:hr>
            <ns3:cad>46</ns3:cad>
          </ns3:TrackPointExtension>
        </extensions>
      </trkpt>
      <trkpt lat="43.7649679742753505706787109375" lon="1.57917260192334651947021484375">
        <ele>165.399993896484375</ele>
        <time>2026-08-13T09:43:30.000Z</time>
        <extensions>
          <ns3:TrackPointExtension>
            <ns3:hr>87</ns3:hr>
            <ns3:cad>46</ns3:cad>
          </ns3:TrackPointExtension>
        </extensions>
      </trkpt>
      <trkpt lat="43.7649632804095745086669921875" lon="1.5791812352836132049560546875">
        <ele>165.399993896484375</ele>
        <time>2026-08-13T09:43:31.000Z</time>
        <extensions>
          <ns3:TrackPointExtension>
            <ns3:hr>87</ns3:hr>
            <ns3:cad>44</ns3:cad>
          </ns3:TrackPointExtension>
        </extensions>
      </trkpt>
      <trkpt lat="43.76496721990406513214111328125" lon="1.5791802294552326202392578125">
        <ele>165.399993896484375</ele>
        <time>2026-08-13T09:43:32.000Z</time>
        <extensions>
          <ns3:TrackPointExtension>
            <ns3:hr>87</ns3:hr>
            <ns3:cad>44</ns3:cad>
          </ns3:TrackPointExtension>
        </extensions>
      </trkpt>
      <trkpt lat="43.7649673037230968475341796875" lon="1.5791829116642475128173828125">
        <ele>165.399993896484375</ele>
        <time>2026-08-13T09:43:33.000Z</time>
        <extensions>
          <ns3:TrackPointExtension>
            <ns3:hr>87</ns3:hr>
            <ns3:cad>0</ns3:cad>
          </ns3:TrackPointExtension>
        </extensions>
      </trkpt>
      <trkpt lat="43.76496671698987483978271484375" lon="1.579189784824848175048828125">
        <ele>165.399993896484375</ele>
        <time>2026-08-13T09:43:34.000Z</time>
        <extensions>
          <ns3:TrackPointExtension>
            <ns3:hr>87</ns3:hr>
            <ns3:cad>0</ns3:cad>
          </ns3:TrackPointExtension>
        </extensions>
      </trkpt>
      <trkpt lat="43.76496152020990848541259765625" lon="1.57919305376708507537841796875">
        <ele>165.399993896484375</ele>
        <time>2026-08-13T09:43:35.000Z</time>
        <extensions>
          <ns3:TrackPointExtension>
            <ns3:hr>86</ns3:hr>
            <ns3:cad>0</ns3:cad>
          </ns3:TrackPointExtension>
        </extensions>
      </trkpt>
      <trkpt lat="43.764957748353481292724609375" lon="1.57919414341449737548828125">
        <ele>165.399993896484375</ele>
        <time>2026-08-13T09:43:36.000Z</time>
        <extensions>
          <ns3:TrackPointExtension>
            <ns3:hr>86</ns3:hr>
            <ns3:cad>0</ns3:cad>
          </ns3:TrackPointExtension>
        </extensions>
      </trkpt>
      <trkpt lat="43.76495196484029293060302734375" lon="1.5791974961757659912109375">
        <ele>165.399993896484375</ele>
        <time>2026-08-13T09:43:37.000Z</time>
        <extensions>
          <ns3:TrackPointExtension>
            <ns3:hr>86</ns3:hr>
            <ns3:cad>0</ns3:cad>
          </ns3:TrackPointExtension>
        </extensions>
      </trkpt>
      <trkpt lat="43.7649438343942165374755859375" lon="1.5792050398886203765869140625">
        <ele>165.399993896484375</ele>
        <time>2026-08-13T09:43:38.000Z</time>
        <extensions>
          <ns3:TrackPointExtension>
            <ns3:hr>85</ns3:hr>
            <ns3:cad>0</ns3:cad>
          </ns3:TrackPointExtension>
        </extensions>
      </trkpt>
      <trkpt lat="43.764939643442630767822265625" lon="1.5792104043066501617431640625">
        <ele>165.399993896484375</ele>
        <time>2026-08-13T09:43:39.000Z</time>
        <extensions>
          <ns3:TrackPointExtension>
            <ns3:hr>85</ns3:hr>
            <ns3:cad>0</ns3:cad>
          </ns3:TrackPointExtension>
        </extensions>
      </trkpt>
      <trkpt lat="43.76493704505264759063720703125" lon="1.57921149395406246185302734375">
        <ele>165.399993896484375</ele>
        <time>2026-08-13T09:43:40.000Z</time>
        <extensions>
          <ns3:TrackPointExtension>
            <ns3:hr>85</ns3:hr>
            <ns3:cad>0</ns3:cad>
          </ns3:TrackPointExtension>
        </extensions>
      </trkpt>
      <trkpt lat="43.76492111943662166595458984375" lon="1.5792157687246799468994140625">
        <ele>165.399993896484375</ele>
        <time>2026-08-13T09:43:41.000Z</time>
        <extensions>
          <ns3:TrackPointExtension>
            <ns3:hr>86</ns3:hr>
            <ns3:cad>0</ns3:cad>
          </ns3:TrackPointExtension>
        </extensions>
      </trkpt>
      <trkpt lat="43.76491449773311614990234375" lon="1.57921828329563140869140625">
        <ele>165.399993896484375</ele>
        <time>2026-08-13T09:43:42.000Z</time>
        <extensions>
          <ns3:TrackPointExtension>
            <ns3:hr>85</ns3:hr>
            <ns3:cad>0</ns3:cad>
          </ns3:TrackPointExtension>
        </extensions>
      </trkpt>
      <trkpt lat="43.7649086304008960723876953125" lon="1.579220294952392578125">
        <ele>165.399993896484375</ele>
        <time>2026-08-13T09:43:43.000Z</time>
        <extensions>
          <ns3:TrackPointExtension>
            <ns3:hr>85</ns3:hr>
            <ns3:cad>0</ns3:cad>
          </ns3:TrackPointExtension>
        </extensions>
      </trkpt>
      <trkpt lat="43.76489949412643909454345703125" lon="1.57922591082751750946044921875">
        <ele>165.399993896484375</ele>
        <time>2026-08-13T09:43:44.000Z</time>
        <extensions>
          <ns3:TrackPointExtension>
            <ns3:hr>84</ns3:hr>
            <ns3:cad>0</ns3:cad>
          </ns3:TrackPointExtension>
        </extensions>
      </trkpt>
      <trkpt lat="43.76489094458520412445068359375" lon="1.579234711825847625732421875">
        <ele>165.399993896484375</ele>
        <time>2026-08-13T09:43:45.000Z</time>
        <extensions>
          <ns3:TrackPointExtension>
            <ns3:hr>84</ns3:hr>
            <ns3:cad>0</ns3:cad>
          </ns3:TrackPointExtension>
        </extensions>
      </trkpt>
      <trkpt lat="43.7648824788630008697509765625" lon="1.579238735139369964599609375">
        <ele>165.399993896484375</ele>
        <time>2026-08-13T09:43:46.000Z</time>
        <extensions>
          <ns3:TrackPointExtension>
            <ns3:hr>83</ns3:hr>
            <ns3:cad>0</ns3:cad>
          </ns3:TrackPointExtension>
        </extensions>
      </trkpt>
      <trkpt lat="43.764873258769512176513671875" lon="1.57924451865255832672119140625">
        <ele>165.399993896484375</ele>
        <time>2026-08-13T09:43:47.000Z</time>
        <extensions>
          <ns3:TrackPointExtension>
            <ns3:hr>82</ns3:hr>
            <ns3:cad>0</ns3:cad>
          </ns3:TrackPointExtension>
        </extensions>
      </trkpt>
      <trkpt lat="43.7648616917431354522705078125" lon="1.5792516432702541351318359375">
        <ele>165.399993896484375</ele>
        <time>2026-08-13T09:43:48.000Z</time>
        <extensions>
          <ns3:TrackPointExtension>
            <ns3:hr>82</ns3:hr>
            <ns3:cad>0</ns3:cad>
          </ns3:TrackPointExtension>
        </extensions>
      </trkpt>
      <trkpt lat="43.764845430850982666015625" lon="1.57926522195339202880859375">
        <ele>165.399993896484375</ele>
        <time>2026-08-13T09:43:49.000Z</time>
        <extensions>
          <ns3:TrackPointExtension>
            <ns3:hr>82</ns3:hr>
            <ns3:cad>0</ns3:cad>
          </ns3:TrackPointExtension>
        </extensions>
      </trkpt>
      <trkpt lat="43.7648378871381282806396484375" lon="1.57927460968494415283203125">
        <ele>165.399993896484375</ele>
        <time>2026-08-13T09:43:50.000Z</time>
        <extensions>
          <ns3:TrackPointExtension>
            <ns3:hr>82</ns3:hr>
            <ns3:cad>0</ns3:cad>
          </ns3:TrackPointExtension>
        </extensions>
      </trkpt>
      <trkpt lat="43.76483160071074962615966796875" lon="1.579280309379100799560546875">
        <ele>165.399993896484375</ele>
        <time>2026-08-13T09:43:51.000Z</time>
        <extensions>
          <ns3:TrackPointExtension>
            <ns3:hr>82</ns3:hr>
            <ns3:cad>0</ns3:cad>
          </ns3:TrackPointExtension>
        </extensions>
      </trkpt>
      <trkpt lat="43.7648241408169269561767578125" lon="1.5792868472635746002197265625">
        <ele>165.399993896484375</ele>
        <time>2026-08-13T09:43:52.000Z</time>
        <extensions>
          <ns3:TrackPointExtension>
            <ns3:hr>82</ns3:hr>
            <ns3:cad>0</ns3:cad>
          </ns3:TrackPointExtension>
        </extensions>
      </trkpt>
      <trkpt lat="43.76481517218053340911865234375" lon="1.57929682172834873199462890625">
        <ele>165.399993896484375</ele>
        <time>2026-08-13T09:43:53.000Z</time>
        <extensions>
          <ns3:TrackPointExtension>
            <ns3:hr>82</ns3:hr>
            <ns3:cad>0</ns3:cad>
          </ns3:TrackPointExtension>
        </extensions>
      </trkpt>
      <trkpt lat="43.76480343751609325408935546875" lon="1.57930822111666202545166015625">
        <ele>165.399993896484375</ele>
        <time>2026-08-13T09:43:54.000Z</time>
        <extensions>
          <ns3:TrackPointExtension>
            <ns3:hr>82</ns3:hr>
            <ns3:cad>0</ns3:cad>
          </ns3:TrackPointExtension>
        </extensions>
      </trkpt>
      <trkpt lat="43.76479270868003368377685546875" lon="1.57931962050497531890869140625">
        <ele>165.399993896484375</ele>
        <time>2026-08-13T09:43:55.000Z</time>
        <extensions>
          <ns3:TrackPointExtension>
            <ns3:hr>82</ns3:hr>
            <ns3:cad>0</ns3:cad>
          </ns3:TrackPointExtension>
        </extensions>
      </trkpt>
      <trkpt lat="43.7647839076817035675048828125" lon="1.57932532019913196563720703125">
        <ele>165.399993896484375</ele>
        <time>2026-08-13T09:43:56.000Z</time>
        <extensions>
          <ns3:TrackPointExtension>
            <ns3:hr>82</ns3:hr>
            <ns3:cad>48</ns3:cad>
          </ns3:TrackPointExtension>
        </extensions>
      </trkpt>
      <trkpt lat="43.76477594487369060516357421875" lon="1.57933093607425689697265625">
        <ele>165.399993896484375</ele>
        <time>2026-08-13T09:43:57.000Z</time>
        <extensions>
          <ns3:TrackPointExtension>
            <ns3:hr>82</ns3:hr>
            <ns3:cad>48</ns3:cad>
          </ns3:TrackPointExtension>
        </extensions>
      </trkpt>
      <trkpt lat="43.7647634558379650115966796875" lon="1.57933956943452358245849609375">
        <ele>165.399993896484375</ele>
        <time>2026-08-13T09:43:58.000Z</time>
        <extensions>
          <ns3:TrackPointExtension>
            <ns3:hr>82</ns3:hr>
            <ns3:cad>47</ns3:cad>
          </ns3:TrackPointExtension>
        </extensions>
      </trkpt>
      <trkpt lat="43.76475264318287372589111328125" lon="1.57934929244220256805419921875">
        <ele>165.399993896484375</ele>
        <time>2026-08-13T09:43:59.000Z</time>
        <extensions>
          <ns3:TrackPointExtension>
            <ns3:hr>82</ns3:hr>
            <ns3:cad>47</ns3:cad>
          </ns3:TrackPointExtension>
        </extensions>
      </trkpt>
      <trkpt lat="43.7647389806807041168212890625" lon="1.579361446201801300048828125">
        <ele>165.399993896484375</ele>
        <time>2026-08-13T09:44:00.000Z</time>
        <extensions>
          <ns3:TrackPointExtension>
            <ns3:hr>82</ns3:hr>
            <ns3:cad>47</ns3:cad>
          </ns3:TrackPointExtension>
        </extensions>
      </trkpt>
      <trkpt lat="43.76472548581659793853759765625" lon="1.57937359996140003204345703125">
        <ele>165.399993896484375</ele>
        <time>2026-08-13T09:44:01.000Z</time>
        <extensions>
          <ns3:TrackPointExtension>
            <ns3:hr>81</ns3:hr>
            <ns3:cad>48</ns3:cad>
          </ns3:TrackPointExtension>
        </extensions>
      </trkpt>
      <trkpt lat="43.764715678989887237548828125" lon="1.57937963493168354034423828125">
        <ele>165.399993896484375</ele>
        <time>2026-08-13T09:44:02.000Z</time>
        <extensions>
          <ns3:TrackPointExtension>
            <ns3:hr>82</ns3:hr>
            <ns3:cad>48</ns3:cad>
          </ns3:TrackPointExtension>
        </extensions>
      </trkpt>
      <trkpt lat="43.76471291296184062957763671875" lon="1.5793911181390285491943359375">
        <ele>165.399993896484375</ele>
        <time>2026-08-13T09:44:03.000Z</time>
        <extensions>
          <ns3:TrackPointExtension>
            <ns3:hr>82</ns3:hr>
            <ns3:cad>49</ns3:cad>
          </ns3:TrackPointExtension>
        </extensions>
      </trkpt>
      <trkpt lat="43.76470436342060565948486328125" lon="1.579398997128009796142578125">
        <ele>165.399993896484375</ele>
        <time>2026-08-13T09:44:04.000Z</time>
        <extensions>
          <ns3:TrackPointExtension>
            <ns3:hr>83</ns3:hr>
            <ns3:cad>49</ns3:cad>
          </ns3:TrackPointExtension>
        </extensions>
      </trkpt>
      <trkpt lat="43.7646938860416412353515625" lon="1.57940729521214962005615234375">
        <ele>165.399993896484375</ele>
        <time>2026-08-13T09:44:05.000Z</time>
        <extensions>
          <ns3:TrackPointExtension>
            <ns3:hr>84</ns3:hr>
            <ns3:cad>49</ns3:cad>
          </ns3:TrackPointExtension>
        </extensions>
      </trkpt>
      <trkpt lat="43.76468206755816936492919921875" lon="1.57941886223852634429931640625">
        <ele>165.399993896484375</ele>
        <time>2026-08-13T09:44:06.000Z</time>
        <extensions>
          <ns3:TrackPointExtension>
            <ns3:hr>84</ns3:hr>
            <ns3:cad>49</ns3:cad>
          </ns3:TrackPointExtension>
        </extensions>
      </trkpt>
      <trkpt lat="43.7646712549030780792236328125" lon="1.5794310159981250762939453125">
        <ele>165.399993896484375</ele>
        <time>2026-08-13T09:44:07.000Z</time>
        <extensions>
          <ns3:TrackPointExtension>
            <ns3:hr>84</ns3:hr>
            <ns3:cad>50</ns3:cad>
          </ns3:TrackPointExtension>
        </extensions>
      </trkpt>
      <trkpt lat="43.76465993933379650115966796875" lon="1.57943881116807460784912109375">
        <ele>165.399993896484375</ele>
        <time>2026-08-13T09:44:08.000Z</time>
        <extensions>
          <ns3:TrackPointExtension>
            <ns3:hr>84</ns3:hr>
            <ns3:cad>50</ns3:cad>
          </ns3:TrackPointExtension>
        </extensions>
      </trkpt>
      <trkpt lat="43.76465256325900554656982421875" lon="1.57944601960480213165283203125">
        <ele>165.399993896484375</ele>
        <time>2026-08-13T09:44:09.000Z</time>
        <extensions>
          <ns3:TrackPointExtension>
            <ns3:hr>85</ns3:hr>
            <ns3:cad>50</ns3:cad>
          </ns3:TrackPointExtension>
        </extensions>
      </trkpt>
      <trkpt lat="43.76463999040424823760986328125" lon="1.5794549882411956787109375">
        <ele>165.399993896484375</ele>
        <time>2026-08-13T09:44:10.000Z</time>
        <extensions>
          <ns3:TrackPointExtension>
            <ns3:hr>85</ns3:hr>
            <ns3:cad>49</ns3:cad>
          </ns3:TrackPointExtension>
        </extensions>
      </trkpt>
      <trkpt lat="43.764627166092395782470703125" lon="1.5794642083346843719482421875">
        <ele>165.399993896484375</ele>
        <time>2026-08-13T09:44:11.000Z</time>
        <extensions>
          <ns3:TrackPointExtension>
            <ns3:hr>85</ns3:hr>
            <ns3:cad>48</ns3:cad>
          </ns3:TrackPointExtension>
        </extensions>
      </trkpt>
      <trkpt lat="43.764617107808589935302734375" lon="1.57947284169495105743408203125">
        <ele>165.600006103515625</ele>
        <time>2026-08-13T09:44:12.000Z</time>
        <extensions>
          <ns3:TrackPointExtension>
            <ns3:hr>86</ns3:hr>
            <ns3:cad>48</ns3:cad>
          </ns3:TrackPointExtension>
        </extensions>
      </trkpt>
      <trkpt lat="43.76460746861994266510009765625" lon="1.579477787017822265625">
        <ele>165.600006103515625</ele>
        <time>2026-08-13T09:44:13.000Z</time>
        <extensions>
          <ns3:TrackPointExtension>
            <ns3:hr>86</ns3:hr>
            <ns3:cad>48</ns3:cad>
          </ns3:TrackPointExtension>
        </extensions>
      </trkpt>
      <trkpt lat="43.76459975726902484893798828125" lon="1.57947870902717113494873046875">
        <ele>165.600006103515625</ele>
        <time>2026-08-13T09:44:14.000Z</time>
        <extensions>
          <ns3:TrackPointExtension>
            <ns3:hr>86</ns3:hr>
            <ns3:cad>50</ns3:cad>
          </ns3:TrackPointExtension>
        </extensions>
      </trkpt>
      <trkpt lat="43.764592297375202178955078125" lon="1.57948516309261322021484375">
        <ele>165.600006103515625</ele>
        <time>2026-08-13T09:44:15.000Z</time>
        <extensions>
          <ns3:TrackPointExtension>
            <ns3:hr>86</ns3:hr>
            <ns3:cad>50</ns3:cad>
          </ns3:TrackPointExtension>
        </extensions>
      </trkpt>
      <trkpt lat="43.76458383165299892425537109375" lon="1.579492874443531036376953125">
        <ele>165.600006103515625</ele>
        <time>2026-08-13T09:44:16.000Z</time>
        <extensions>
          <ns3:TrackPointExtension>
            <ns3:hr>86</ns3:hr>
            <ns3:cad>50</ns3:cad>
          </ns3:TrackPointExtension>
        </extensions>
      </trkpt>
      <trkpt lat="43.76457092352211475372314453125" lon="1.5795061178505420684814453125">
        <ele>165.600006103515625</ele>
        <time>2026-08-13T09:44:17.000Z</time>
        <extensions>
          <ns3:TrackPointExtension>
            <ns3:hr>86</ns3:hr>
            <ns3:cad>50</ns3:cad>
          </ns3:TrackPointExtension>
        </extensions>
      </trkpt>
      <trkpt lat="43.7645651400089263916015625" lon="1.5795252285897731781005859375">
        <ele>165.600006103515625</ele>
        <time>2026-08-13T09:44:18.000Z</time>
        <extensions>
          <ns3:TrackPointExtension>
            <ns3:hr>87</ns3:hr>
            <ns3:cad>50</ns3:cad>
          </ns3:TrackPointExtension>
        </extensions>
      </trkpt>
      <trkpt lat="43.76455508172512054443359375" lon="1.5795369632542133331298828125">
        <ele>165.600006103515625</ele>
        <time>2026-08-13T09:44:19.000Z</time>
        <extensions>
          <ns3:TrackPointExtension>
            <ns3:hr>87</ns3:hr>
            <ns3:cad>50</ns3:cad>
          </ns3:TrackPointExtension>
        </extensions>
      </trkpt>
      <trkpt lat="43.76454929821193218231201171875" lon="1.57954677008092403411865234375">
        <ele>165.8000030517578125</ele>
        <time>2026-08-13T09:44:20.000Z</time>
        <extensions>
          <ns3:TrackPointExtension>
            <ns3:hr>87</ns3:hr>
            <ns3:cad>49</ns3:cad>
          </ns3:TrackPointExtension>
        </extensions>
      </trkpt>
      <trkpt lat="43.76453588716685771942138671875" lon="1.57955917529761791229248046875">
        <ele>165.8000030517578125</ele>
        <time>2026-08-13T09:44:21.000Z</time>
        <extensions>
          <ns3:TrackPointExtension>
            <ns3:hr>88</ns3:hr>
            <ns3:cad>49</ns3:cad>
          </ns3:TrackPointExtension>
        </extensions>
      </trkpt>
      <trkpt lat="43.76452733762562274932861328125" lon="1.579572670161724090576171875">
        <ele>165.8000030517578125</ele>
        <time>2026-08-13T09:44:22.000Z</time>
        <extensions>
          <ns3:TrackPointExtension>
            <ns3:hr>88</ns3:hr>
            <ns3:cad>49</ns3:cad>
          </ns3:TrackPointExtension>
        </extensions>
      </trkpt>
      <trkpt lat="43.7645203806459903717041015625" lon="1.5795828960835933685302734375">
        <ele>165.600006103515625</ele>
        <time>2026-08-13T09:44:23.000Z</time>
        <extensions>
          <ns3:TrackPointExtension>
            <ns3:hr>88</ns3:hr>
            <ns3:cad>49</ns3:cad>
          </ns3:TrackPointExtension>
        </extensions>
      </trkpt>
      <trkpt lat="43.7645136751234531402587890625" lon="1.57959002070128917694091796875">
        <ele>165.600006103515625</ele>
        <time>2026-08-13T09:44:24.000Z</time>
        <extensions>
          <ns3:TrackPointExtension>
            <ns3:hr>88</ns3:hr>
            <ns3:cad>49</ns3:cad>
          </ns3:TrackPointExtension>
        </extensions>
      </trkpt>
      <trkpt lat="43.7645046226680278778076171875" lon="1.5795949660241603851318359375">
        <ele>165.600006103515625</ele>
        <time>2026-08-13T09:44:25.000Z</time>
        <extensions>
          <ns3:TrackPointExtension>
            <ns3:hr>88</ns3:hr>
            <ns3:cad>49</ns3:cad>
          </ns3:TrackPointExtension>
        </extensions>
      </trkpt>
      <trkpt lat="43.76449045725166797637939453125" lon="1.57960762269794940948486328125">
        <ele>165.600006103515625</ele>
        <time>2026-08-13T09:44:26.000Z</time>
        <extensions>
          <ns3:TrackPointExtension>
            <ns3:hr>88</ns3:hr>
            <ns3:cad>48</ns3:cad>
          </ns3:TrackPointExtension>
        </extensions>
      </trkpt>
      <trkpt lat="43.76447805203497409820556640625" lon="1.579620279371738433837890625">
        <ele>165.600006103515625</ele>
        <time>2026-08-13T09:44:27.000Z</time>
        <extensions>
          <ns3:TrackPointExtension>
            <ns3:hr>88</ns3:hr>
            <ns3:cad>48</ns3:cad>
          </ns3:TrackPointExtension>
        </extensions>
      </trkpt>
      <trkpt lat="43.76446925103664398193359375" lon="1.57962773926556110382080078125">
        <ele>165.8000030517578125</ele>
        <time>2026-08-13T09:44:28.000Z</time>
        <extensions>
          <ns3:TrackPointExtension>
            <ns3:hr>88</ns3:hr>
            <ns3:cad>48</ns3:cad>
          </ns3:TrackPointExtension>
        </extensions>
      </trkpt>
      <trkpt lat="43.76446430571377277374267578125" lon="1.5796293318271636962890625">
        <ele>165.8000030517578125</ele>
        <time>2026-08-13T09:44:29.000Z</time>
        <extensions>
          <ns3:TrackPointExtension>
            <ns3:hr>88</ns3:hr>
            <ns3:cad>49</ns3:cad>
          </ns3:TrackPointExtension>
        </extensions>
      </trkpt>
      <trkpt lat="43.76445642672479152679443359375" lon="1.5796321816742420196533203125">
        <ele>165.8000030517578125</ele>
        <time>2026-08-13T09:44:30.000Z</time>
        <extensions>
          <ns3:TrackPointExtension>
            <ns3:hr>88</ns3:hr>
            <ns3:cad>49</ns3:cad>
          </ns3:TrackPointExtension>
        </extensions>
      </trkpt>
      <trkpt lat="43.76444452442228794097900390625" lon="1.5796445868909358978271484375">
        <ele>165.8000030517578125</ele>
        <time>2026-08-13T09:44:31.000Z</time>
        <extensions>
          <ns3:TrackPointExtension>
            <ns3:hr>88</ns3:hr>
            <ns3:cad>49</ns3:cad>
          </ns3:TrackPointExtension>
        </extensions>
      </trkpt>
      <trkpt lat="43.76442977227270603179931640625" lon="1.5796593390405178070068359375">
        <ele>165.8000030517578125</ele>
        <time>2026-08-13T09:44:32.000Z</time>
        <extensions>
          <ns3:TrackPointExtension>
            <ns3:hr>87</ns3:hr>
            <ns3:cad>50</ns3:cad>
          </ns3:TrackPointExtension>
        </extensions>
      </trkpt>
      <trkpt lat="43.76441803760826587677001953125" lon="1.57966847531497478485107421875">
        <ele>165.8000030517578125</ele>
        <time>2026-08-13T09:44:33.000Z</time>
        <extensions>
          <ns3:TrackPointExtension>
            <ns3:hr>86</ns3:hr>
            <ns3:cad>50</ns3:cad>
          </ns3:TrackPointExtension>
        </extensions>
      </trkpt>
      <trkpt lat="43.764417283236980438232421875" lon="1.57967417500913143157958984375">
        <ele>165.8000030517578125</ele>
        <time>2026-08-13T09:44:34.000Z</time>
        <extensions>
          <ns3:TrackPointExtension>
            <ns3:hr>86</ns3:hr>
            <ns3:cad>50</ns3:cad>
          </ns3:TrackPointExtension>
        </extensions>
      </trkpt>
      <trkpt lat="43.76440881751477718353271484375" lon="1.57967953942716121673583984375">
        <ele>165.8000030517578125</ele>
        <time>2026-08-13T09:44:35.000Z</time>
        <extensions>
          <ns3:TrackPointExtension>
            <ns3:hr>86</ns3:hr>
            <ns3:cad>48</ns3:cad>
          </ns3:TrackPointExtension>
        </extensions>
      </trkpt>
      <trkpt lat="43.764390461146831512451171875" lon="1.57968406565487384796142578125">
        <ele>166</ele>
        <time>2026-08-13T09:44:36.000Z</time>
        <extensions>
          <ns3:TrackPointExtension>
            <ns3:hr>86</ns3:hr>
            <ns3:cad>46</ns3:cad>
          </ns3:TrackPointExtension>
        </extensions>
      </trkpt>
      <trkpt lat="43.76438300125300884246826171875" lon="1.57969060353934764862060546875">
        <ele>166</ele>
        <time>2026-08-13T09:44:37.000Z</time>
        <extensions>
          <ns3:TrackPointExtension>
            <ns3:hr>86</ns3:hr>
            <ns3:cad>46</ns3:cad>
          </ns3:TrackPointExtension>
        </extensions>
      </trkpt>
      <trkpt lat="43.76436741091310977935791015625" lon="1.57969999127089977264404296875">
        <ele>166</ele>
        <time>2026-08-13T09:44:38.000Z</time>
        <extensions>
          <ns3:TrackPointExtension>
            <ns3:hr>86</ns3:hr>
            <ns3:cad>46</ns3:cad>
          </ns3:TrackPointExtension>
        </extensions>
      </trkpt>
      <trkpt lat="43.764362633228302001953125" lon="1.57970166765153408050537109375">
        <ele>166</ele>
        <time>2026-08-13T09:44:39.000Z</time>
        <extensions>
          <ns3:TrackPointExtension>
            <ns3:hr>87</ns3:hr>
            <ns3:cad>0</ns3:cad>
          </ns3:TrackPointExtension>
        </extensions>
      </trkpt>
      <trkpt lat="43.7643507309257984161376953125" lon="1.57971189357340335845947265625">
        <ele>166</ele>
        <time>2026-08-13T09:44:40.000Z</time>
        <extensions>
          <ns3:TrackPointExtension>
            <ns3:hr>87</ns3:hr>
            <ns3:cad>0</ns3:cad>
          </ns3:TrackPointExtension>
        </extensions>
      </trkpt>
      <trkpt lat="43.7643416784703731536865234375" lon="1.57971893437206745147705078125">
        <ele>166</ele>
        <time>2026-08-13T09:44:41.000Z</time>
        <extensions>
          <ns3:TrackPointExtension>
            <ns3:hr>87</ns3:hr>
            <ns3:cad>0</ns3:cad>
          </ns3:TrackPointExtension>
        </extensions>
      </trkpt>
      <trkpt lat="43.764330446720123291015625" lon="1.57972916029393672943115234375">
        <ele>165.8000030517578125</ele>
        <time>2026-08-13T09:44:42.000Z</time>
        <extensions>
          <ns3:TrackPointExtension>
            <ns3:hr>87</ns3:hr>
            <ns3:cad>0</ns3:cad>
          </ns3:TrackPointExtension>
        </extensions>
      </trkpt>
      <trkpt lat="43.76431946642696857452392578125" lon="1.5797401405870914459228515625">
        <ele>165.8000030517578125</ele>
        <time>2026-08-13T09:44:43.000Z</time>
        <extensions>
          <ns3:TrackPointExtension>
            <ns3:hr>87</ns3:hr>
            <ns3:cad>48</ns3:cad>
          </ns3:TrackPointExtension>
        </extensions>
      </trkpt>
      <trkpt lat="43.7643128447234630584716796875" lon="1.57974667847156524658203125">
        <ele>165.8000030517578125</ele>
        <time>2026-08-13T09:44:44.000Z</time>
        <extensions>
          <ns3:TrackPointExtension>
            <ns3:hr>87</ns3:hr>
            <ns3:cad>48</ns3:cad>
          </ns3:TrackPointExtension>
        </extensions>
      </trkpt>
      <trkpt lat="43.7643049657344818115234375" lon="1.579752378165721893310546875">
        <ele>165.8000030517578125</ele>
        <time>2026-08-13T09:44:45.000Z</time>
        <extensions>
          <ns3:TrackPointExtension>
            <ns3:hr>87</ns3:hr>
            <ns3:cad>48</ns3:cad>
          </ns3:TrackPointExtension>
        </extensions>
      </trkpt>
      <trkpt lat="43.76429465599358081817626953125" lon="1.57976000569760799407958984375">
        <ele>165.8000030517578125</ele>
        <time>2026-08-13T09:44:46.000Z</time>
        <extensions>
          <ns3:TrackPointExtension>
            <ns3:hr>87</ns3:hr>
            <ns3:cad>48</ns3:cad>
          </ns3:TrackPointExtension>
        </extensions>
      </trkpt>
      <trkpt lat="43.76428191550076007843017578125" lon="1.57977039925754070281982421875">
        <ele>165.8000030517578125</ele>
        <time>2026-08-13T09:44:47.000Z</time>
        <extensions>
          <ns3:TrackPointExtension>
            <ns3:hr>87</ns3:hr>
            <ns3:cad>48</ns3:cad>
          </ns3:TrackPointExtension>
        </extensions>
      </trkpt>
      <trkpt lat="43.76426951028406620025634765625" lon="1.5797786973416805267333984375">
        <ele>165.8000030517578125</ele>
        <time>2026-08-13T09:44:48.000Z</time>
        <extensions>
          <ns3:TrackPointExtension>
            <ns3:hr>88</ns3:hr>
            <ns3:cad>47</ns3:cad>
          </ns3:TrackPointExtension>
        </extensions>
      </trkpt>
      <trkpt lat="43.7642605416476726531982421875" lon="1.5797837264835834503173828125">
        <ele>165.8000030517578125</ele>
        <time>2026-08-13T09:44:49.000Z</time>
        <extensions>
          <ns3:TrackPointExtension>
            <ns3:hr>89</ns3:hr>
            <ns3:cad>48</ns3:cad>
          </ns3:TrackPointExtension>
        </extensions>
      </trkpt>
      <trkpt lat="43.764252997934818267822265625" lon="1.5797904320061206817626953125">
        <ele>165.8000030517578125</ele>
        <time>2026-08-13T09:44:50.000Z</time>
        <extensions>
          <ns3:TrackPointExtension>
            <ns3:hr>89</ns3:hr>
            <ns3:cad>48</ns3:cad>
          </ns3:TrackPointExtension>
        </extensions>
      </trkpt>
      <trkpt lat="43.7642431072890758514404296875" lon="1.5798009932041168212890625">
        <ele>165.8000030517578125</ele>
        <time>2026-08-13T09:44:51.000Z</time>
        <extensions>
          <ns3:TrackPointExtension>
            <ns3:hr>90</ns3:hr>
            <ns3:cad>48</ns3:cad>
          </ns3:TrackPointExtension>
        </extensions>
      </trkpt>
      <trkpt lat="43.76423011533915996551513671875" lon="1.57981130294501781463623046875">
        <ele>165.8000030517578125</ele>
        <time>2026-08-13T09:44:52.000Z</time>
        <extensions>
          <ns3:TrackPointExtension>
            <ns3:hr>90</ns3:hr>
            <ns3:cad>49</ns3:cad>
          </ns3:TrackPointExtension>
        </extensions>
      </trkpt>
      <trkpt lat="43.76422424800693988800048828125" lon="1.57982446253299713134765625">
        <ele>165.8000030517578125</ele>
        <time>2026-08-13T09:44:53.000Z</time>
        <extensions>
          <ns3:TrackPointExtension>
            <ns3:hr>90</ns3:hr>
            <ns3:cad>49</ns3:cad>
          </ns3:TrackPointExtension>
        </extensions>
      </trkpt>
      <trkpt lat="43.76421318389475345611572265625" lon="1.57983292825520038604736328125">
        <ele>165.8000030517578125</ele>
        <time>2026-08-13T09:44:54.000Z</time>
        <extensions>
          <ns3:TrackPointExtension>
            <ns3:hr>90</ns3:hr>
            <ns3:cad>48</ns3:cad>
          </ns3:TrackPointExtension>
        </extensions>
      </trkpt>
      <trkpt lat="43.76420379616320133209228515625" lon="1.5798400528728961944580078125">
        <ele>165.8000030517578125</ele>
        <time>2026-08-13T09:44:55.000Z</time>
        <extensions>
          <ns3:TrackPointExtension>
            <ns3:hr>90</ns3:hr>
            <ns3:cad>48</ns3:cad>
          </ns3:TrackPointExtension>
        </extensions>
      </trkpt>
      <trkpt lat="43.76419893465936183929443359375" lon="1.579846926033496856689453125">
        <ele>165.8000030517578125</ele>
        <time>2026-08-13T09:44:56.000Z</time>
        <extensions>
          <ns3:TrackPointExtension>
            <ns3:hr>90</ns3:hr>
            <ns3:cad>48</ns3:cad>
          </ns3:TrackPointExtension>
        </extensions>
      </trkpt>
      <trkpt lat="43.76418669708073139190673828125" lon="1.57985572703182697296142578125">
        <ele>165.8000030517578125</ele>
        <time>2026-08-13T09:44:57.000Z</time>
        <extensions>
          <ns3:TrackPointExtension>
            <ns3:hr>90</ns3:hr>
            <ns3:cad>48</ns3:cad>
          </ns3:TrackPointExtension>
        </extensions>
      </trkpt>
      <trkpt lat="43.76417362131178379058837890625" lon="1.57986871898174285888671875">
        <ele>165.8000030517578125</ele>
        <time>2026-08-13T09:44:58.000Z</time>
        <extensions>
          <ns3:TrackPointExtension>
            <ns3:hr>90</ns3:hr>
            <ns3:cad>48</ns3:cad>
          </ns3:TrackPointExtension>
        </extensions>
      </trkpt>
      <trkpt lat="43.76416658051311969757080078125" lon="1.57987902872264385223388671875">
        <ele>165.8000030517578125</ele>
        <time>2026-08-13T09:44:59.000Z</time>
        <extensions>
          <ns3:TrackPointExtension>
            <ns3:hr>91</ns3:hr>
            <ns3:cad>48</ns3:cad>
          </ns3:TrackPointExtension>
        </extensions>
      </trkpt>
      <trkpt lat="43.764160461723804473876953125" lon="1.57987852580845355987548828125">
        <ele>165.600006103515625</ele>
        <time>2026-08-13T09:45:00.000Z</time>
        <extensions>
          <ns3:TrackPointExtension>
            <ns3:hr>90</ns3:hr>
            <ns3:cad>0</ns3:cad>
          </ns3:TrackPointExtension>
        </extensions>
      </trkpt>
      <trkpt lat="43.76415752805769443511962890625" lon="1.57987684942781925201416015625">
        <ele>165.600006103515625</ele>
        <time>2026-08-13T09:45:01.000Z</time>
        <extensions>
          <ns3:TrackPointExtension>
            <ns3:hr>91</ns3:hr>
            <ns3:cad>0</ns3:cad>
          </ns3:TrackPointExtension>
        </extensions>
      </trkpt>
      <trkpt lat="43.7641579471528530120849609375" lon="1.57987684942781925201416015625">
        <ele>165.600006103515625</ele>
        <time>2026-08-13T09:45:02.000Z</time>
        <extensions>
          <ns3:TrackPointExtension>
            <ns3:hr>92</ns3:hr>
            <ns3:cad>0</ns3:cad>
          </ns3:TrackPointExtension>
        </extensions>
      </trkpt>
      <trkpt lat="43.7641579471528530120849609375" lon="1.57987684942781925201416015625">
        <ele>165.600006103515625</ele>
        <time>2026-08-13T09:45:03.000Z</time>
        <extensions>
          <ns3:TrackPointExtension>
            <ns3:hr>93</ns3:hr>
            <ns3:cad>0</ns3:cad>
          </ns3:TrackPointExtension>
        </extensions>
      </trkpt>
      <trkpt lat="43.7641579471528530120849609375" lon="1.57987684942781925201416015625">
        <ele>165.600006103515625</ele>
        <time>2026-08-13T09:45:04.000Z</time>
        <extensions>
          <ns3:TrackPointExtension>
            <ns3:hr>93</ns3:hr>
            <ns3:cad>0</ns3:cad>
          </ns3:TrackPointExtension>
        </extensions>
      </trkpt>
      <trkpt lat="43.7641579471528530120849609375" lon="1.57987684942781925201416015625">
        <ele>165.600006103515625</ele>
        <time>2026-08-13T09:45:05.000Z</time>
        <extensions>
          <ns3:TrackPointExtension>
            <ns3:hr>93</ns3:hr>
            <ns3:cad>0</ns3:cad>
          </ns3:TrackPointExtension>
        </extensions>
      </trkpt>
      <trkpt lat="43.7641579471528530120849609375" lon="1.57987684942781925201416015625">
        <ele>165.8000030517578125</ele>
        <time>2026-08-13T09:45:06.000Z</time>
        <extensions>
          <ns3:TrackPointExtension>
            <ns3:hr>92</ns3:hr>
            <ns3:cad>0</ns3:cad>
          </ns3:TrackPointExtension>
        </extensions>
      </trkpt>
      <trkpt lat="43.7641579471528530120849609375" lon="1.57987684942781925201416015625">
        <ele>165.8000030517578125</ele>
        <time>2026-08-13T09:45:07.000Z</time>
        <extensions>
          <ns3:TrackPointExtension>
            <ns3:hr>91</ns3:hr>
            <ns3:cad>0</ns3:cad>
          </ns3:TrackPointExtension>
        </extensions>
      </trkpt>
      <trkpt lat="43.7641579471528530120849609375" lon="1.57987684942781925201416015625">
        <ele>165.8000030517578125</ele>
        <time>2026-08-13T09:45:08.000Z</time>
        <extensions>
          <ns3:TrackPointExtension>
            <ns3:hr>91</ns3:hr>
            <ns3:cad>0</ns3:cad>
          </ns3:TrackPointExtension>
        </extensions>
      </trkpt>
      <trkpt lat="43.7641579471528530120849609375" lon="1.57987684942781925201416015625">
        <ele>165.8000030517578125</ele>
        <time>2026-08-13T09:45:09.000Z</time>
        <extensions>
          <ns3:TrackPointExtension>
            <ns3:hr>91</ns3:hr>
            <ns3:cad>0</ns3:cad>
          </ns3:TrackPointExtension>
        </extensions>
      </trkpt>
      <trkpt lat="43.7641579471528530120849609375" lon="1.57987684942781925201416015625">
        <ele>165.8000030517578125</ele>
        <time>2026-08-13T09:45:10.000Z</time>
        <extensions>
          <ns3:TrackPointExtension>
            <ns3:hr>91</ns3:hr>
            <ns3:cad>0</ns3:cad>
          </ns3:TrackPointExtension>
        </extensions>
      </trkpt>
      <trkpt lat="43.7641579471528530120849609375" lon="1.57987684942781925201416015625">
        <ele>165.8000030517578125</ele>
        <time>2026-08-13T09:45:11.000Z</time>
        <extensions>
          <ns3:TrackPointExtension>
            <ns3:hr>91</ns3:hr>
            <ns3:cad>0</ns3:cad>
          </ns3:TrackPointExtension>
        </extensions>
      </trkpt>
      <trkpt lat="43.7641579471528530120849609375" lon="1.57987684942781925201416015625">
        <ele>165.8000030517578125</ele>
        <time>2026-08-13T09:45:12.000Z</time>
        <extensions>
          <ns3:TrackPointExtension>
            <ns3:hr>91</ns3:hr>
            <ns3:cad>0</ns3:cad>
          </ns3:TrackPointExtension>
        </extensions>
      </trkpt>
      <trkpt lat="43.7641586177051067352294921875" lon="1.57987550832331180572509765625">
        <ele>165.8000030517578125</ele>
        <time>2026-08-13T09:45:13.000Z</time>
        <extensions>
          <ns3:TrackPointExtension>
            <ns3:hr>91</ns3:hr>
            <ns3:cad>0</ns3:cad>
          </ns3:TrackPointExtension>
        </extensions>
      </trkpt>
      <trkpt lat="43.76415819860994815826416015625" lon="1.57987408339977264404296875">
        <ele>165.8000030517578125</ele>
        <time>2026-08-13T09:45:14.000Z</time>
        <extensions>
          <ns3:TrackPointExtension>
            <ns3:hr>91</ns3:hr>
            <ns3:cad>0</ns3:cad>
          </ns3:TrackPointExtension>
        </extensions>
      </trkpt>
      <trkpt lat="43.76415534876286983489990234375" lon="1.57987617887556552886962890625">
        <ele>165.8000030517578125</ele>
        <time>2026-08-13T09:45:15.000Z</time>
        <extensions>
          <ns3:TrackPointExtension>
            <ns3:hr>91</ns3:hr>
            <ns3:cad>0</ns3:cad>
          </ns3:TrackPointExtension>
        </extensions>
      </trkpt>
      <trkpt lat="43.76415065489709377288818359375" lon="1.57987517304718494415283203125">
        <ele>165.8000030517578125</ele>
        <time>2026-08-13T09:45:16.000Z</time>
        <extensions>
          <ns3:TrackPointExtension>
            <ns3:hr>90</ns3:hr>
            <ns3:cad>0</ns3:cad>
          </ns3:TrackPointExtension>
        </extensions>
      </trkpt>
      <trkpt lat="43.76415300182998180389404296875" lon="1.57987810671329498291015625">
        <ele>165.8000030517578125</ele>
        <time>2026-08-13T09:45:17.000Z</time>
        <extensions>
          <ns3:TrackPointExtension>
            <ns3:hr>86</ns3:hr>
            <ns3:cad>0</ns3:cad>
          </ns3:TrackPointExtension>
        </extensions>
      </trkpt>
      <trkpt lat="43.7641428597271442413330078125" lon="1.57989042811095714569091796875">
        <ele>165.8000030517578125</ele>
        <time>2026-08-13T09:45:18.000Z</time>
        <extensions>
          <ns3:TrackPointExtension>
            <ns3:hr>84</ns3:hr>
            <ns3:cad>0</ns3:cad>
          </ns3:TrackPointExtension>
        </extensions>
      </trkpt>
      <trkpt lat="43.76413439400494098663330078125" lon="1.5798967145383358001708984375">
        <ele>165.8000030517578125</ele>
        <time>2026-08-13T09:45:19.000Z</time>
        <extensions>
          <ns3:TrackPointExtension>
            <ns3:hr>84</ns3:hr>
            <ns3:cad>0</ns3:cad>
          </ns3:TrackPointExtension>
        </extensions>
      </trkpt>
      <trkpt lat="43.76412768848240375518798828125" lon="1.579902581870555877685546875">
        <ele>165.8000030517578125</ele>
        <time>2026-08-13T09:45:20.000Z</time>
        <extensions>
          <ns3:TrackPointExtension>
            <ns3:hr>84</ns3:hr>
            <ns3:cad>0</ns3:cad>
          </ns3:TrackPointExtension>
        </extensions>
      </trkpt>
      <trkpt lat="43.76412081532180309295654296875" lon="1.5799111314117908477783203125">
        <ele>165.600006103515625</ele>
        <time>2026-08-13T09:45:21.000Z</time>
        <extensions>
          <ns3:TrackPointExtension>
            <ns3:hr>85</ns3:hr>
            <ns3:cad>0</ns3:cad>
          </ns3:TrackPointExtension>
        </extensions>
      </trkpt>
      <trkpt lat="43.7641123495995998382568359375" lon="1.5799262188374996185302734375">
        <ele>165.600006103515625</ele>
        <time>2026-08-13T09:45:22.000Z</time>
        <extensions>
          <ns3:TrackPointExtension>
            <ns3:hr>87</ns3:hr>
            <ns3:cad>0</ns3:cad>
          </ns3:TrackPointExtension>
        </extensions>
      </trkpt>
      <trkpt lat="43.76410589553415775299072265625" lon="1.579938121140003204345703125">
        <ele>165.600006103515625</ele>
        <time>2026-08-13T09:45:23.000Z</time>
        <extensions>
          <ns3:TrackPointExtension>
            <ns3:hr>88</ns3:hr>
            <ns3:cad>0</ns3:cad>
          </ns3:TrackPointExtension>
        </extensions>
      </trkpt>
      <trkpt lat="43.7640962563455104827880859375" lon="1.57994558103382587432861328125">
        <ele>165.399993896484375</ele>
        <time>2026-08-13T09:45:24.000Z</time>
        <extensions>
          <ns3:TrackPointExtension>
            <ns3:hr>88</ns3:hr>
            <ns3:cad>47</ns3:cad>
          </ns3:TrackPointExtension>
        </extensions>
      </trkpt>
      <trkpt lat="43.7640861980617046356201171875" lon="1.5799520350992679595947265625">
        <ele>165.399993896484375</ele>
        <time>2026-08-13T09:45:25.000Z</time>
        <extensions>
          <ns3:TrackPointExtension>
            <ns3:hr>89</ns3:hr>
            <ns3:cad>48</ns3:cad>
          </ns3:TrackPointExtension>
        </extensions>
      </trkpt>
      <trkpt lat="43.76407630741596221923828125" lon="1.57995899207890033721923828125">
        <ele>165.399993896484375</ele>
        <time>2026-08-13T09:45:26.000Z</time>
        <extensions>
          <ns3:TrackPointExtension>
            <ns3:hr>89</ns3:hr>
            <ns3:cad>48</ns3:cad>
          </ns3:TrackPointExtension>
        </extensions>
      </trkpt>
      <trkpt lat="43.7640650756657123565673828125" lon="1.579967625439167022705078125">
        <ele>165.399993896484375</ele>
        <time>2026-08-13T09:45:27.000Z</time>
        <extensions>
          <ns3:TrackPointExtension>
            <ns3:hr>90</ns3:hr>
            <ns3:cad>48</ns3:cad>
          </ns3:TrackPointExtension>
        </extensions>
      </trkpt>
      <trkpt lat="43.76405191607773303985595703125" lon="1.57997910864651203155517578125">
        <ele>165.399993896484375</ele>
        <time>2026-08-13T09:45:28.000Z</time>
        <extensions>
          <ns3:TrackPointExtension>
            <ns3:hr>89</ns3:hr>
            <ns3:cad>48</ns3:cad>
          </ns3:TrackPointExtension>
        </extensions>
      </trkpt>
      <trkpt lat="43.76404009759426116943359375" lon="1.57998933456838130950927734375">
        <ele>165.399993896484375</ele>
        <time>2026-08-13T09:45:29.000Z</time>
        <extensions>
          <ns3:TrackPointExtension>
            <ns3:hr>90</ns3:hr>
            <ns3:cad>48</ns3:cad>
          </ns3:TrackPointExtension>
        </extensions>
      </trkpt>
      <trkpt lat="43.76403012312948703765869140625" lon="1.579995118081569671630859375">
        <ele>165.399993896484375</ele>
        <time>2026-08-13T09:45:30.000Z</time>
        <extensions>
          <ns3:TrackPointExtension>
            <ns3:hr>89</ns3:hr>
            <ns3:cad>52</ns3:cad>
          </ns3:TrackPointExtension>
        </extensions>
      </trkpt>
      <trkpt lat="43.7640255130827426910400390625" lon="1.5799967944622039794921875">
        <ele>165.399993896484375</ele>
        <time>2026-08-13T09:45:31.000Z</time>
        <extensions>
          <ns3:TrackPointExtension>
            <ns3:hr>88</ns3:hr>
            <ns3:cad>52</ns3:cad>
          </ns3:TrackPointExtension>
        </extensions>
      </trkpt>
      <trkpt lat="43.764017634093761444091796875" lon="1.5799939446151256561279296875">
        <ele>165.399993896484375</ele>
        <time>2026-08-13T09:45:32.000Z</time>
        <extensions>
          <ns3:TrackPointExtension>
            <ns3:hr>86</ns3:hr>
            <ns3:cad>49</ns3:cad>
          </ns3:TrackPointExtension>
        </extensions>
      </trkpt>
      <trkpt lat="43.76400833018124103546142578125" lon="1.5799996443092823028564453125">
        <ele>165.399993896484375</ele>
        <time>2026-08-13T09:45:33.000Z</time>
        <extensions>
          <ns3:TrackPointExtension>
            <ns3:hr>84</ns3:hr>
            <ns3:cad>49</ns3:cad>
          </ns3:TrackPointExtension>
        </extensions>
      </trkpt>
      <trkpt lat="43.7639966793358325958251953125" lon="1.58000978641211986541748046875">
        <ele>165.1999969482421875</ele>
        <time>2026-08-13T09:45:34.000Z</time>
        <extensions>
          <ns3:TrackPointExtension>
            <ns3:hr>83</ns3:hr>
            <ns3:cad>49</ns3:cad>
          </ns3:TrackPointExtension>
        </extensions>
      </trkpt>
      <trkpt lat="43.76398787833750247955322265625" lon="1.58001758158206939697265625">
        <ele>165.1999969482421875</ele>
        <time>2026-08-13T09:45:35.000Z</time>
        <extensions>
          <ns3:TrackPointExtension>
            <ns3:hr>82</ns3:hr>
            <ns3:cad>50</ns3:cad>
          </ns3:TrackPointExtension>
        </extensions>
      </trkpt>
      <trkpt lat="43.7639809213578701019287109375" lon="1.580019928514957427978515625">
        <ele>165.1999969482421875</ele>
        <time>2026-08-13T09:45:36.000Z</time>
        <extensions>
          <ns3:TrackPointExtension>
            <ns3:hr>82</ns3:hr>
            <ns3:cad>50</ns3:cad>
          </ns3:TrackPointExtension>
        </extensions>
      </trkpt>
      <trkpt lat="43.76397304236888885498046875" lon="1.58002772368490695953369140625">
        <ele>165.1999969482421875</ele>
        <time>2026-08-13T09:45:37.000Z</time>
        <extensions>
          <ns3:TrackPointExtension>
            <ns3:hr>81</ns3:hr>
            <ns3:cad>50</ns3:cad>
          </ns3:TrackPointExtension>
        </extensions>
      </trkpt>
      <trkpt lat="43.76396139152348041534423828125" lon="1.58004230819642543792724609375">
        <ele>165.1999969482421875</ele>
        <time>2026-08-13T09:45:38.000Z</time>
        <extensions>
          <ns3:TrackPointExtension>
            <ns3:hr>81</ns3:hr>
            <ns3:cad>49</ns3:cad>
          </ns3:TrackPointExtension>
        </extensions>
      </trkpt>
      <trkpt lat="43.7639540992677211761474609375" lon="1.58005236648023128509521484375">
        <ele>165.1999969482421875</ele>
        <time>2026-08-13T09:45:39.000Z</time>
        <extensions>
          <ns3:TrackPointExtension>
            <ns3:hr>81</ns3:hr>
            <ns3:cad>47</ns3:cad>
          </ns3:TrackPointExtension>
        </extensions>
      </trkpt>
      <trkpt lat="43.76394781284034252166748046875" lon="1.580060161650180816650390625">
        <ele>165</ele>
        <time>2026-08-13T09:45:40.000Z</time>
        <extensions>
          <ns3:TrackPointExtension>
            <ns3:hr>81</ns3:hr>
            <ns3:cad>46</ns3:cad>
          </ns3:TrackPointExtension>
        </extensions>
      </trkpt>
      <trkpt lat="43.76394228078424930572509765625" lon="1.58006929792463779449462890625">
        <ele>165</ele>
        <time>2026-08-13T09:45:41.000Z</time>
        <extensions>
          <ns3:TrackPointExtension>
            <ns3:hr>81</ns3:hr>
            <ns3:cad>46</ns3:cad>
          </ns3:TrackPointExtension>
        </extensions>
      </trkpt>
      <trkpt lat="43.763931132853031158447265625" lon="1.580078601837158203125">
        <ele>165</ele>
        <time>2026-08-13T09:45:42.000Z</time>
        <extensions>
          <ns3:TrackPointExtension>
            <ns3:hr>81</ns3:hr>
            <ns3:cad>47</ns3:cad>
          </ns3:TrackPointExtension>
        </extensions>
      </trkpt>
      <trkpt lat="43.7639187276363372802734375" lon="1.58008958213031291961669921875">
        <ele>165</ele>
        <time>2026-08-13T09:45:43.000Z</time>
        <extensions>
          <ns3:TrackPointExtension>
            <ns3:hr>81</ns3:hr>
            <ns3:cad>47</ns3:cad>
          </ns3:TrackPointExtension>
        </extensions>
      </trkpt>
      <trkpt lat="43.76390724442899227142333984375" lon="1.5801025740802288055419921875">
        <ele>165</ele>
        <time>2026-08-13T09:45:44.000Z</time>
        <extensions>
          <ns3:TrackPointExtension>
            <ns3:hr>79</ns3:hr>
            <ns3:cad>47</ns3:cad>
          </ns3:TrackPointExtension>
        </extensions>
      </trkpt>
      <trkpt lat="43.76389651559293270111083984375" lon="1.58010751940310001373291015625">
        <ele>165</ele>
        <time>2026-08-13T09:45:45.000Z</time>
        <extensions>
          <ns3:TrackPointExtension>
            <ns3:hr>78</ns3:hr>
            <ns3:cad>47</ns3:cad>
          </ns3:TrackPointExtension>
        </extensions>
      </trkpt>
      <trkpt lat="43.76388729549944400787353515625" lon="1.5801096148788928985595703125">
        <ele>165</ele>
        <time>2026-08-13T09:45:46.000Z</time>
        <extensions>
          <ns3:TrackPointExtension>
            <ns3:hr>79</ns3:hr>
            <ns3:cad>48</ns3:cad>
          </ns3:TrackPointExtension>
        </extensions>
      </trkpt>
      <trkpt lat="43.7638776563107967376708984375" lon="1.58011682331562042236328125">
        <ele>165</ele>
        <time>2026-08-13T09:45:47.000Z</time>
        <extensions>
          <ns3:TrackPointExtension>
            <ns3:hr>79</ns3:hr>
            <ns3:cad>48</ns3:cad>
          </ns3:TrackPointExtension>
        </extensions>
      </trkpt>
      <trkpt lat="43.7638686038553714752197265625" lon="1.5801335871219635009765625">
        <ele>165</ele>
        <time>2026-08-13T09:45:48.000Z</time>
        <extensions>
          <ns3:TrackPointExtension>
            <ns3:hr>79</ns3:hr>
            <ns3:cad>49</ns3:cad>
          </ns3:TrackPointExtension>
        </extensions>
      </trkpt>
      <trkpt lat="43.76385326497256755828857421875" lon="1.5801464952528476715087890625">
        <ele>165</ele>
        <time>2026-08-13T09:45:49.000Z</time>
        <extensions>
          <ns3:TrackPointExtension>
            <ns3:hr>78</ns3:hr>
            <ns3:cad>49</ns3:cad>
          </ns3:TrackPointExtension>
        </extensions>
      </trkpt>
      <trkpt lat="43.76384119503200054168701171875" lon="1.5801585651934146881103515625">
        <ele>164.8000030517578125</ele>
        <time>2026-08-13T09:45:50.000Z</time>
        <extensions>
          <ns3:TrackPointExtension>
            <ns3:hr>79</ns3:hr>
            <ns3:cad>50</ns3:cad>
          </ns3:TrackPointExtension>
        </extensions>
      </trkpt>
      <trkpt lat="43.76383130438625812530517578125" lon="1.580166108906269073486328125">
        <ele>164.8000030517578125</ele>
        <time>2026-08-13T09:45:51.000Z</time>
        <extensions>
          <ns3:TrackPointExtension>
            <ns3:hr>79</ns3:hr>
            <ns3:cad>50</ns3:cad>
          </ns3:TrackPointExtension>
        </extensions>
      </trkpt>
      <trkpt lat="43.7638230063021183013916015625" lon="1.58016736619174480438232421875">
        <ele>164.8000030517578125</ele>
        <time>2026-08-13T09:45:52.000Z</time>
        <extensions>
          <ns3:TrackPointExtension>
            <ns3:hr>79</ns3:hr>
            <ns3:cad>49</ns3:cad>
          </ns3:TrackPointExtension>
        </extensions>
      </trkpt>
      <trkpt lat="43.76381487585604190826416015625" lon="1.5801711380481719970703125">
        <ele>164.8000030517578125</ele>
        <time>2026-08-13T09:45:53.000Z</time>
        <extensions>
          <ns3:TrackPointExtension>
            <ns3:hr>79</ns3:hr>
            <ns3:cad>49</ns3:cad>
          </ns3:TrackPointExtension>
        </extensions>
      </trkpt>
      <trkpt lat="43.763803727924823760986328125" lon="1.580181531608104705810546875">
        <ele>164.8000030517578125</ele>
        <time>2026-08-13T09:45:54.000Z</time>
        <extensions>
          <ns3:TrackPointExtension>
            <ns3:hr>80</ns3:hr>
            <ns3:cad>49</ns3:cad>
          </ns3:TrackPointExtension>
        </extensions>
      </trkpt>
      <trkpt lat="43.76379341818392276763916015625" lon="1.58019125461578369140625">
        <ele>164.8000030517578125</ele>
        <time>2026-08-13T09:45:55.000Z</time>
        <extensions>
          <ns3:TrackPointExtension>
            <ns3:hr>80</ns3:hr>
            <ns3:cad>49</ns3:cad>
          </ns3:TrackPointExtension>
        </extensions>
      </trkpt>
      <trkpt lat="43.76378503628075122833251953125" lon="1.5801994688808917999267578125">
        <ele>164.600006103515625</ele>
        <time>2026-08-13T09:45:56.000Z</time>
        <extensions>
          <ns3:TrackPointExtension>
            <ns3:hr>80</ns3:hr>
            <ns3:cad>49</ns3:cad>
          </ns3:TrackPointExtension>
        </extensions>
      </trkpt>
      <trkpt lat="43.7637794204056262969970703125" lon="1.5802065096795558929443359375">
        <ele>164.600006103515625</ele>
        <time>2026-08-13T09:45:57.000Z</time>
        <extensions>
          <ns3:TrackPointExtension>
            <ns3:hr>81</ns3:hr>
            <ns3:cad>49</ns3:cad>
          </ns3:TrackPointExtension>
        </extensions>
      </trkpt>
      <trkpt lat="43.7637712061405181884765625" lon="1.58021464012563228607177734375">
        <ele>164.600006103515625</ele>
        <time>2026-08-13T09:45:58.000Z</time>
        <extensions>
          <ns3:TrackPointExtension>
            <ns3:hr>81</ns3:hr>
            <ns3:cad>49</ns3:cad>
          </ns3:TrackPointExtension>
        </extensions>
      </trkpt>
      <trkpt lat="43.76376357860863208770751953125" lon="1.5802249498665332794189453125">
        <ele>164.600006103515625</ele>
        <time>2026-08-13T09:45:59.000Z</time>
        <extensions>
          <ns3:TrackPointExtension>
            <ns3:hr>81</ns3:hr>
            <ns3:cad>49</ns3:cad>
          </ns3:TrackPointExtension>
        </extensions>
      </trkpt>
      <trkpt lat="43.76375368796288967132568359375" lon="1.5802336670458316802978515625">
        <ele>164.600006103515625</ele>
        <time>2026-08-13T09:46:00.000Z</time>
        <extensions>
          <ns3:TrackPointExtension>
            <ns3:hr>80</ns3:hr>
            <ns3:cad>49</ns3:cad>
          </ns3:TrackPointExtension>
        </extensions>
      </trkpt>
      <trkpt lat="43.7637445516884326934814453125" lon="1.58023626543581485748291015625">
        <ele>164.600006103515625</ele>
        <time>2026-08-13T09:46:01.000Z</time>
        <extensions>
          <ns3:TrackPointExtension>
            <ns3:hr>81</ns3:hr>
            <ns3:cad>48</ns3:cad>
          </ns3:TrackPointExtension>
        </extensions>
      </trkpt>
      <trkpt lat="43.7637401930987834930419921875" lon="1.5802433900535106658935546875">
        <ele>164.600006103515625</ele>
        <time>2026-08-13T09:46:02.000Z</time>
        <extensions>
          <ns3:TrackPointExtension>
            <ns3:hr>81</ns3:hr>
            <ns3:cad>47</ns3:cad>
          </ns3:TrackPointExtension>
        </extensions>
      </trkpt>
      <trkpt lat="43.7637311406433582305908203125" lon="1.58025101758539676666259765625">
        <ele>164.600006103515625</ele>
        <time>2026-08-13T09:46:03.000Z</time>
        <extensions>
          <ns3:TrackPointExtension>
            <ns3:hr>81</ns3:hr>
            <ns3:cad>47</ns3:cad>
          </ns3:TrackPointExtension>
        </extensions>
      </trkpt>
      <trkpt lat="43.7637224234640598297119140625" lon="1.58026459626853466033935546875">
        <ele>164.600006103515625</ele>
        <time>2026-08-13T09:46:04.000Z</time>
        <extensions>
          <ns3:TrackPointExtension>
            <ns3:hr>81</ns3:hr>
            <ns3:cad>47</ns3:cad>
          </ns3:TrackPointExtension>
        </extensions>
      </trkpt>
      <trkpt lat="43.76371110789477825164794921875" lon="1.58027700148522853851318359375">
        <ele>164.600006103515625</ele>
        <time>2026-08-13T09:46:05.000Z</time>
        <extensions>
          <ns3:TrackPointExtension>
            <ns3:hr>81</ns3:hr>
            <ns3:cad>48</ns3:cad>
          </ns3:TrackPointExtension>
        </extensions>
      </trkpt>
      <trkpt lat="43.7637009657919406890869140625" lon="1.58028940670192241668701171875">
        <ele>164.600006103515625</ele>
        <time>2026-08-13T09:46:06.000Z</time>
        <extensions>
          <ns3:TrackPointExtension>
            <ns3:hr>81</ns3:hr>
            <ns3:cad>48</ns3:cad>
          </ns3:TrackPointExtension>
        </extensions>
      </trkpt>
      <trkpt lat="43.76369233243167400360107421875" lon="1.5802972018718719482421875">
        <ele>164.600006103515625</ele>
        <time>2026-08-13T09:46:07.000Z</time>
        <extensions>
          <ns3:TrackPointExtension>
            <ns3:hr>81</ns3:hr>
            <ns3:cad>48</ns3:cad>
          </ns3:TrackPointExtension>
        </extensions>
      </trkpt>
      <trkpt lat="43.76368713565170764923095703125" lon="1.58029678277671337127685546875">
        <ele>164.600006103515625</ele>
        <time>2026-08-13T09:46:08.000Z</time>
        <extensions>
          <ns3:TrackPointExtension>
            <ns3:hr>81</ns3:hr>
            <ns3:cad>48</ns3:cad>
          </ns3:TrackPointExtension>
        </extensions>
      </trkpt>
      <trkpt lat="43.76367808319628238677978515625" lon="1.58030265010893344879150390625">
        <ele>164.399993896484375</ele>
        <time>2026-08-13T09:46:09.000Z</time>
        <extensions>
          <ns3:TrackPointExtension>
            <ns3:hr>81</ns3:hr>
            <ns3:cad>50</ns3:cad>
          </ns3:TrackPointExtension>
        </extensions>
      </trkpt>
      <trkpt lat="43.76366819255053997039794921875" lon="1.5803141333162784576416015625">
        <ele>164.399993896484375</ele>
        <time>2026-08-13T09:46:10.000Z</time>
        <extensions>
          <ns3:TrackPointExtension>
            <ns3:hr>81</ns3:hr>
            <ns3:cad>50</ns3:cad>
          </ns3:TrackPointExtension>
        </extensions>
      </trkpt>
      <trkpt lat="43.7636570446193218231201171875" lon="1.5803240239620208740234375">
        <ele>164.399993896484375</ele>
        <time>2026-08-13T09:46:11.000Z</time>
        <extensions>
          <ns3:TrackPointExtension>
            <ns3:hr>81</ns3:hr>
            <ns3:cad>50</ns3:cad>
          </ns3:TrackPointExtension>
        </extensions>
      </trkpt>
      <trkpt lat="43.76364841125905513763427734375" lon="1.5803308971226215362548828125">
        <ele>164.399993896484375</ele>
        <time>2026-08-13T09:46:12.000Z</time>
        <extensions>
          <ns3:TrackPointExtension>
            <ns3:hr>81</ns3:hr>
            <ns3:cad>50</ns3:cad>
          </ns3:TrackPointExtension>
        </extensions>
      </trkpt>
      <trkpt lat="43.76364237628877162933349609375" lon="1.580337099730968475341796875">
        <ele>164.399993896484375</ele>
        <time>2026-08-13T09:46:13.000Z</time>
        <extensions>
          <ns3:TrackPointExtension>
            <ns3:hr>81</ns3:hr>
            <ns3:cad>50</ns3:cad>
          </ns3:TrackPointExtension>
        </extensions>
      </trkpt>
      <trkpt lat="43.7636344134807586669921875" lon="1.5803476609289646148681640625">
        <ele>164.399993896484375</ele>
        <time>2026-08-13T09:46:14.000Z</time>
        <extensions>
          <ns3:TrackPointExtension>
            <ns3:hr>81</ns3:hr>
            <ns3:cad>49</ns3:cad>
          </ns3:TrackPointExtension>
        </extensions>
      </trkpt>
      <trkpt lat="43.763622008264064788818359375" lon="1.58036333508789539337158203125">
        <ele>164.399993896484375</ele>
        <time>2026-08-13T09:46:15.000Z</time>
        <extensions>
          <ns3:TrackPointExtension>
            <ns3:hr>81</ns3:hr>
            <ns3:cad>49</ns3:cad>
          </ns3:TrackPointExtension>
        </extensions>
      </trkpt>
      <trkpt lat="43.7636131234467029571533203125" lon="1.58037154935300350189208984375">
        <ele>164.1999969482421875</ele>
        <time>2026-08-13T09:46:16.000Z</time>
        <extensions>
          <ns3:TrackPointExtension>
            <ns3:hr>81</ns3:hr>
            <ns3:cad>49</ns3:cad>
          </ns3:TrackPointExtension>
        </extensions>
      </trkpt>
      <trkpt lat="43.763605915009975433349609375" lon="1.580378673970699310302734375">
        <ele>164.1999969482421875</ele>
        <time>2026-08-13T09:46:17.000Z</time>
        <extensions>
          <ns3:TrackPointExtension>
            <ns3:hr>82</ns3:hr>
            <ns3:cad>48</ns3:cad>
          </ns3:TrackPointExtension>
        </extensions>
      </trkpt>
      <trkpt lat="43.7635983712971210479736328125" lon="1.58038278110325336456298828125">
        <ele>164.1999969482421875</ele>
        <time>2026-08-13T09:46:18.000Z</time>
        <extensions>
          <ns3:TrackPointExtension>
            <ns3:hr>83</ns3:hr>
            <ns3:cad>48</ns3:cad>
          </ns3:TrackPointExtension>
        </extensions>
      </trkpt>
      <trkpt lat="43.7635876424610614776611328125" lon="1.58039250411093235015869140625">
        <ele>164</ele>
        <time>2026-08-13T09:46:19.000Z</time>
        <extensions>
          <ns3:TrackPointExtension>
            <ns3:hr>84</ns3:hr>
            <ns3:cad>48</ns3:cad>
          </ns3:TrackPointExtension>
        </extensions>
      </trkpt>
      <trkpt lat="43.76357381232082843780517578125" lon="1.58040490932762622833251953125">
        <ele>164</ele>
        <time>2026-08-13T09:46:20.000Z</time>
        <extensions>
          <ns3:TrackPointExtension>
            <ns3:hr>85</ns3:hr>
            <ns3:cad>47</ns3:cad>
          </ns3:TrackPointExtension>
        </extensions>
      </trkpt>
      <trkpt lat="43.763565681874752044677734375" lon="1.58041714690625667572021484375">
        <ele>164</ele>
        <time>2026-08-13T09:46:21.000Z</time>
        <extensions>
          <ns3:TrackPointExtension>
            <ns3:hr>86</ns3:hr>
            <ns3:cad>47</ns3:cad>
          </ns3:TrackPointExtension>
        </extensions>
      </trkpt>
      <trkpt lat="43.7635547854006290435791015625" lon="1.58042795956134796142578125">
        <ele>164</ele>
        <time>2026-08-13T09:46:22.000Z</time>
        <extensions>
          <ns3:TrackPointExtension>
            <ns3:hr>86</ns3:hr>
            <ns3:cad>47</ns3:cad>
          </ns3:TrackPointExtension>
        </extensions>
      </trkpt>
      <trkpt lat="43.7635470740497112274169921875" lon="1.580432988703250885009765625">
        <ele>163.8000030517578125</ele>
        <time>2026-08-13T09:46:23.000Z</time>
        <extensions>
          <ns3:TrackPointExtension>
            <ns3:hr>86</ns3:hr>
            <ns3:cad>48</ns3:cad>
          </ns3:TrackPointExtension>
        </extensions>
      </trkpt>
      <trkpt lat="43.763540200889110565185546875" lon="1.5804368443787097930908203125">
        <ele>163.8000030517578125</ele>
        <time>2026-08-13T09:46:24.000Z</time>
        <extensions>
          <ns3:TrackPointExtension>
            <ns3:hr>86</ns3:hr>
            <ns3:cad>48</ns3:cad>
          </ns3:TrackPointExtension>
        </extensions>
      </trkpt>
      <trkpt lat="43.76352838240563869476318359375" lon="1.58044874668121337890625">
        <ele>163.8000030517578125</ele>
        <time>2026-08-13T09:46:25.000Z</time>
        <extensions>
          <ns3:TrackPointExtension>
            <ns3:hr>86</ns3:hr>
            <ns3:cad>48</ns3:cad>
          </ns3:TrackPointExtension>
        </extensions>
      </trkpt>
      <trkpt lat="43.76351840794086456298828125" lon="1.58046123571693897247314453125">
        <ele>163.8000030517578125</ele>
        <time>2026-08-13T09:46:26.000Z</time>
        <extensions>
          <ns3:TrackPointExtension>
            <ns3:hr>85</ns3:hr>
            <ns3:cad>48</ns3:cad>
          </ns3:TrackPointExtension>
        </extensions>
      </trkpt>
      <trkpt lat="43.7635098583996295928955078125" lon="1.58046978525817394256591796875">
        <ele>163.8000030517578125</ele>
        <time>2026-08-13T09:46:27.000Z</time>
        <extensions>
          <ns3:TrackPointExtension>
            <ns3:hr>85</ns3:hr>
            <ns3:cad>49</ns3:cad>
          </ns3:TrackPointExtension>
        </extensions>
      </trkpt>
      <trkpt lat="43.76350005157291889190673828125" lon="1.580477245151996612548828125">
        <ele>163.600006103515625</ele>
        <time>2026-08-13T09:46:28.000Z</time>
        <extensions>
          <ns3:TrackPointExtension>
            <ns3:hr>84</ns3:hr>
            <ns3:cad>50</ns3:cad>
          </ns3:TrackPointExtension>
        </extensions>
      </trkpt>
      <trkpt lat="43.76349158585071563720703125" lon="1.58048286102712154388427734375">
        <ele>163.600006103515625</ele>
        <time>2026-08-13T09:46:29.000Z</time>
        <extensions>
          <ns3:TrackPointExtension>
            <ns3:hr>84</ns3:hr>
            <ns3:cad>50</ns3:cad>
          </ns3:TrackPointExtension>
        </extensions>
      </trkpt>
      <trkpt lat="43.76348353922367095947265625" lon="1.58049593679606914520263671875">
        <ele>163.600006103515625</ele>
        <time>2026-08-13T09:46:30.000Z</time>
        <extensions>
          <ns3:TrackPointExtension>
            <ns3:hr>83</ns3:hr>
            <ns3:cad>48</ns3:cad>
          </ns3:TrackPointExtension>
        </extensions>
      </trkpt>
      <trkpt lat="43.7634743191301822662353515625" lon="1.5805099345743656158447265625">
        <ele>163.600006103515625</ele>
        <time>2026-08-13T09:46:31.000Z</time>
        <extensions>
          <ns3:TrackPointExtension>
            <ns3:hr>82</ns3:hr>
            <ns3:cad>48</ns3:cad>
          </ns3:TrackPointExtension>
        </extensions>
      </trkpt>
      <trkpt lat="43.76346434466540813446044921875" lon="1.5805152989923954010009765625">
        <ele>163.399993896484375</ele>
        <time>2026-08-13T09:46:32.000Z</time>
        <extensions>
          <ns3:TrackPointExtension>
            <ns3:hr>81</ns3:hr>
            <ns3:cad>48</ns3:cad>
          </ns3:TrackPointExtension>
        </extensions>
      </trkpt>
      <trkpt lat="43.76345478929579257965087890625" lon="1.5805216692388057708740234375">
        <ele>163.399993896484375</ele>
        <time>2026-08-13T09:46:33.000Z</time>
        <extensions>
          <ns3:TrackPointExtension>
            <ns3:hr>80</ns3:hr>
            <ns3:cad>50</ns3:cad>
          </ns3:TrackPointExtension>
        </extensions>
      </trkpt>
      <trkpt lat="43.76344540156424045562744140625" lon="1.580530889332294464111328125">
        <ele>163.399993896484375</ele>
        <time>2026-08-13T09:46:34.000Z</time>
        <extensions>
          <ns3:TrackPointExtension>
            <ns3:hr>79</ns3:hr>
            <ns3:cad>50</ns3:cad>
          </ns3:TrackPointExtension>
        </extensions>
      </trkpt>
      <trkpt lat="43.7634374387562274932861328125" lon="1.5805377624928951263427734375">
        <ele>163.1999969482421875</ele>
        <time>2026-08-13T09:46:35.000Z</time>
        <extensions>
          <ns3:TrackPointExtension>
            <ns3:hr>79</ns3:hr>
            <ns3:cad>50</ns3:cad>
          </ns3:TrackPointExtension>
        </extensions>
      </trkpt>
      <trkpt lat="43.76342779956758022308349609375" lon="1.5805454738438129425048828125">
        <ele>163.1999969482421875</ele>
        <time>2026-08-13T09:46:36.000Z</time>
        <extensions>
          <ns3:TrackPointExtension>
            <ns3:hr>79</ns3:hr>
            <ns3:cad>50</ns3:cad>
          </ns3:TrackPointExtension>
        </extensions>
      </trkpt>
      <trkpt lat="43.7634159810841083526611328125" lon="1.580553688108921051025390625">
        <ele>163.1999969482421875</ele>
        <time>2026-08-13T09:46:37.000Z</time>
        <extensions>
          <ns3:TrackPointExtension>
            <ns3:hr>80</ns3:hr>
            <ns3:cad>50</ns3:cad>
          </ns3:TrackPointExtension>
        </extensions>
      </trkpt>
      <trkpt lat="43.7634062580764293670654296875" lon="1.5805619023740291595458984375">
        <ele>163</ele>
        <time>2026-08-13T09:46:38.000Z</time>
        <extensions>
          <ns3:TrackPointExtension>
            <ns3:hr>80</ns3:hr>
            <ns3:cad>50</ns3:cad>
          </ns3:TrackPointExtension>
        </extensions>
      </trkpt>
      <trkpt lat="43.7633982114493846893310546875" lon="1.58057288266718387603759765625">
        <ele>163</ele>
        <time>2026-08-13T09:46:39.000Z</time>
        <extensions>
          <ns3:TrackPointExtension>
            <ns3:hr>80</ns3:hr>
            <ns3:cad>50</ns3:cad>
          </ns3:TrackPointExtension>
        </extensions>
      </trkpt>
      <trkpt lat="43.76338974572718143463134765625" lon="1.58057640306651592254638671875">
        <ele>163</ele>
        <time>2026-08-13T09:46:40.000Z</time>
        <extensions>
          <ns3:TrackPointExtension>
            <ns3:hr>80</ns3:hr>
            <ns3:cad>49</ns3:cad>
          </ns3:TrackPointExtension>
        </extensions>
      </trkpt>
      <trkpt lat="43.76338287256658077239990234375" lon="1.5805803425610065460205078125">
        <ele>162.8000030517578125</ele>
        <time>2026-08-13T09:46:41.000Z</time>
        <extensions>
          <ns3:TrackPointExtension>
            <ns3:hr>79</ns3:hr>
            <ns3:cad>49</ns3:cad>
          </ns3:TrackPointExtension>
        </extensions>
      </trkpt>
      <trkpt lat="43.763371892273426055908203125" lon="1.5805850364267826080322265625">
        <ele>162.8000030517578125</ele>
        <time>2026-08-13T09:46:42.000Z</time>
        <extensions>
          <ns3:TrackPointExtension>
            <ns3:hr>80</ns3:hr>
            <ns3:cad>49</ns3:cad>
          </ns3:TrackPointExtension>
        </extensions>
      </trkpt>
      <trkpt lat="43.7633680365979671478271484375" lon="1.58058444969356060028076171875">
        <ele>162.8000030517578125</ele>
        <time>2026-08-13T09:46:43.000Z</time>
        <extensions>
          <ns3:TrackPointExtension>
            <ns3:hr>80</ns3:hr>
            <ns3:cad>49</ns3:cad>
          </ns3:TrackPointExtension>
        </extensions>
      </trkpt>
      <trkpt lat="43.76336962915956974029541015625" lon="1.5805897302925586700439453125">
        <ele>162.600006103515625</ele>
        <time>2026-08-13T09:46:44.000Z</time>
        <extensions>
          <ns3:TrackPointExtension>
            <ns3:hr>80</ns3:hr>
            <ns3:cad>48</ns3:cad>
          </ns3:TrackPointExtension>
        </extensions>
      </trkpt>
      <trkpt lat="43.763367868959903717041015625" lon="1.580599285662174224853515625">
        <ele>162.600006103515625</ele>
        <time>2026-08-13T09:46:45.000Z</time>
        <extensions>
          <ns3:TrackPointExtension>
            <ns3:hr>80</ns3:hr>
            <ns3:cad>0</ns3:cad>
          </ns3:TrackPointExtension>
        </extensions>
      </trkpt>
      <trkpt lat="43.76336376182734966278076171875" lon="1.580607332289218902587890625">
        <ele>162.600006103515625</ele>
        <time>2026-08-13T09:46:46.000Z</time>
        <extensions>
          <ns3:TrackPointExtension>
            <ns3:hr>79</ns3:hr>
            <ns3:cad>0</ns3:cad>
          </ns3:TrackPointExtension>
        </extensions>
      </trkpt>
      <trkpt lat="43.7633573077619075775146484375" lon="1.58061462454497814178466796875">
        <ele>162.600006103515625</ele>
        <time>2026-08-13T09:46:47.000Z</time>
        <extensions>
          <ns3:TrackPointExtension>
            <ns3:hr>79</ns3:hr>
            <ns3:cad>0</ns3:cad>
          </ns3:TrackPointExtension>
        </extensions>
      </trkpt>
      <trkpt lat="43.76334833912551403045654296875" lon="1.58062233589589595794677734375">
        <ele>162.399993896484375</ele>
        <time>2026-08-13T09:46:48.000Z</time>
        <extensions>
          <ns3:TrackPointExtension>
            <ns3:hr>79</ns3:hr>
            <ns3:cad>0</ns3:cad>
          </ns3:TrackPointExtension>
        </extensions>
      </trkpt>
      <trkpt lat="43.76333895139396190643310546875" lon="1.58063138835132122039794921875">
        <ele>162.399993896484375</ele>
        <time>2026-08-13T09:46:49.000Z</time>
        <extensions>
          <ns3:TrackPointExtension>
            <ns3:hr>79</ns3:hr>
            <ns3:cad>0</ns3:cad>
          </ns3:TrackPointExtension>
        </extensions>
      </trkpt>
      <trkpt lat="43.76332839019596576690673828125" lon="1.5806420333683490753173828125">
        <ele>162.399993896484375</ele>
        <time>2026-08-13T09:46:50.000Z</time>
        <extensions>
          <ns3:TrackPointExtension>
            <ns3:hr>78</ns3:hr>
            <ns3:cad>0</ns3:cad>
          </ns3:TrackPointExtension>
        </extensions>
      </trkpt>
      <trkpt lat="43.76331833191215991973876953125" lon="1.58065351657569408416748046875">
        <ele>162.1999969482421875</ele>
        <time>2026-08-13T09:46:51.000Z</time>
        <extensions>
          <ns3:TrackPointExtension>
            <ns3:hr>78</ns3:hr>
            <ns3:cad>0</ns3:cad>
          </ns3:TrackPointExtension>
        </extensions>
      </trkpt>
      <trkpt lat="43.7633083574473857879638671875" lon="1.5806634910404682159423828125">
        <ele>162.1999969482421875</ele>
        <time>2026-08-13T09:46:52.000Z</time>
        <extensions>
          <ns3:TrackPointExtension>
            <ns3:hr>78</ns3:hr>
            <ns3:cad>48</ns3:cad>
          </ns3:TrackPointExtension>
        </extensions>
      </trkpt>
      <trkpt lat="43.7632976286113262176513671875" lon="1.58066977746784687042236328125">
        <ele>162.1999969482421875</ele>
        <time>2026-08-13T09:46:53.000Z</time>
        <extensions>
          <ns3:TrackPointExtension>
            <ns3:hr>78</ns3:hr>
            <ns3:cad>48</ns3:cad>
          </ns3:TrackPointExtension>
        </extensions>
      </trkpt>
      <trkpt lat="43.76328748650848865509033203125" lon="1.58067598007619380950927734375">
        <ele>162.1999969482421875</ele>
        <time>2026-08-13T09:46:54.000Z</time>
        <extensions>
          <ns3:TrackPointExtension>
            <ns3:hr>78</ns3:hr>
            <ns3:cad>49</ns3:cad>
          </ns3:TrackPointExtension>
        </extensions>
      </trkpt>
      <trkpt lat="43.76327893696725368499755859375" lon="1.580682098865509033203125">
        <ele>162</ele>
        <time>2026-08-13T09:46:55.000Z</time>
        <extensions>
          <ns3:TrackPointExtension>
            <ns3:hr>77</ns3:hr>
            <ns3:cad>50</ns3:cad>
          </ns3:TrackPointExtension>
        </extensions>
      </trkpt>
      <trkpt lat="43.76326762139797210693359375" lon="1.58069224096834659576416015625">
        <ele>162</ele>
        <time>2026-08-13T09:46:56.000Z</time>
        <extensions>
          <ns3:TrackPointExtension>
            <ns3:hr>77</ns3:hr>
            <ns3:cad>50</ns3:cad>
          </ns3:TrackPointExtension>
        </extensions>
      </trkpt>
      <trkpt lat="43.76325747929513454437255859375" lon="1.5807027183473110198974609375">
        <ele>162</ele>
        <time>2026-08-13T09:46:57.000Z</time>
        <extensions>
          <ns3:TrackPointExtension>
            <ns3:hr>77</ns3:hr>
            <ns3:cad>50</ns3:cad>
          </ns3:TrackPointExtension>
        </extensions>
      </trkpt>
      <trkpt lat="43.7632503546774387359619140625" lon="1.58070984296500682830810546875">
        <ele>161.8000030517578125</ele>
        <time>2026-08-13T09:46:58.000Z</time>
        <extensions>
          <ns3:TrackPointExtension>
            <ns3:hr>77</ns3:hr>
            <ns3:cad>49</ns3:cad>
          </ns3:TrackPointExtension>
        </extensions>
      </trkpt>
      <trkpt lat="43.76324272714555263519287109375" lon="1.58071856014430522918701171875">
        <ele>161.8000030517578125</ele>
        <time>2026-08-13T09:46:59.000Z</time>
        <extensions>
          <ns3:TrackPointExtension>
            <ns3:hr>77</ns3:hr>
            <ns3:cad>49</ns3:cad>
          </ns3:TrackPointExtension>
        </extensions>
      </trkpt>
      <trkpt lat="43.7632374465465545654296875" lon="1.58072425983846187591552734375">
        <ele>161.8000030517578125</ele>
        <time>2026-08-13T09:47:00.000Z</time>
        <extensions>
          <ns3:TrackPointExtension>
            <ns3:hr>77</ns3:hr>
            <ns3:cad>49</ns3:cad>
          </ns3:TrackPointExtension>
        </extensions>
      </trkpt>
      <trkpt lat="43.7632267177104949951171875" lon="1.58073616214096546173095703125">
        <ele>161.8000030517578125</ele>
        <time>2026-08-13T09:47:01.000Z</time>
        <extensions>
          <ns3:TrackPointExtension>
            <ns3:hr>77</ns3:hr>
            <ns3:cad>49</ns3:cad>
          </ns3:TrackPointExtension>
        </extensions>
      </trkpt>
      <trkpt lat="43.76321624033153057098388671875" lon="1.58074923790991306304931640625">
        <ele>161.8000030517578125</ele>
        <time>2026-08-13T09:47:02.000Z</time>
        <extensions>
          <ns3:TrackPointExtension>
            <ns3:hr>78</ns3:hr>
            <ns3:cad>49</ns3:cad>
          </ns3:TrackPointExtension>
        </extensions>
      </trkpt>
      <trkpt lat="43.7632077746093273162841796875" lon="1.5807563625276088714599609375">
        <ele>161.600006103515625</ele>
        <time>2026-08-13T09:47:03.000Z</time>
        <extensions>
          <ns3:TrackPointExtension>
            <ns3:hr>78</ns3:hr>
            <ns3:cad>49</ns3:cad>
          </ns3:TrackPointExtension>
        </extensions>
      </trkpt>
      <trkpt lat="43.763198554515838623046875" lon="1.58076130785048007965087890625">
        <ele>161.600006103515625</ele>
        <time>2026-08-13T09:47:04.000Z</time>
        <extensions>
          <ns3:TrackPointExtension>
            <ns3:hr>78</ns3:hr>
            <ns3:cad>49</ns3:cad>
          </ns3:TrackPointExtension>
        </extensions>
      </trkpt>
      <trkpt lat="43.76319679431617259979248046875" lon="1.58075829036533832550048828125">
        <ele>161.600006103515625</ele>
        <time>2026-08-13T09:47:05.000Z</time>
        <extensions>
          <ns3:TrackPointExtension>
            <ns3:hr>78</ns3:hr>
            <ns3:cad>48</ns3:cad>
          </ns3:TrackPointExtension>
        </extensions>
      </trkpt>
      <trkpt lat="43.76319528557360172271728515625" lon="1.580756865441799163818359375">
        <ele>161.600006103515625</ele>
        <time>2026-08-13T09:47:06.000Z</time>
        <extensions>
          <ns3:TrackPointExtension>
            <ns3:hr>78</ns3:hr>
            <ns3:cad>48</ns3:cad>
          </ns3:TrackPointExtension>
        </extensions>
      </trkpt>
      <trkpt lat="43.76319562084972858428955078125" lon="1.5807566978037357330322265625">
        <ele>161.600006103515625</ele>
        <time>2026-08-13T09:47:07.000Z</time>
        <extensions>
          <ns3:TrackPointExtension>
            <ns3:hr>77</ns3:hr>
            <ns3:cad>48</ns3:cad>
          </ns3:TrackPointExtension>
        </extensions>
      </trkpt>
      <trkpt lat="43.76319914124906063079833984375" lon="1.5807558596134185791015625">
        <ele>161.600006103515625</ele>
        <time>2026-08-13T09:47:08.000Z</time>
        <extensions>
          <ns3:TrackPointExtension>
            <ns3:hr>77</ns3:hr>
            <ns3:cad>0</ns3:cad>
          </ns3:TrackPointExtension>
        </extensions>
      </trkpt>
      <trkpt lat="43.76320190727710723876953125" lon="1.5807556919753551483154296875">
        <ele>161.600006103515625</ele>
        <time>2026-08-13T09:47:09.000Z</time>
        <extensions>
          <ns3:TrackPointExtension>
            <ns3:hr>77</ns3:hr>
            <ns3:cad>0</ns3:cad>
          </ns3:TrackPointExtension>
        </extensions>
      </trkpt>
      <trkpt lat="43.7632040865719318389892578125" lon="1.5807545185089111328125">
        <ele>161.600006103515625</ele>
        <time>2026-08-13T09:47:10.000Z</time>
        <extensions>
          <ns3:TrackPointExtension>
            <ns3:hr>77</ns3:hr>
            <ns3:cad>0</ns3:cad>
          </ns3:TrackPointExtension>
        </extensions>
      </trkpt>
      <trkpt lat="43.76320584677159786224365234375" lon="1.580753512680530548095703125">
        <ele>161.600006103515625</ele>
        <time>2026-08-13T09:47:11.000Z</time>
        <extensions>
          <ns3:TrackPointExtension>
            <ns3:hr>78</ns3:hr>
            <ns3:cad>0</ns3:cad>
          </ns3:TrackPointExtension>
        </extensions>
      </trkpt>
      <trkpt lat="43.7632057629525661468505859375" lon="1.580753512680530548095703125">
        <ele>161.600006103515625</ele>
        <time>2026-08-13T09:47:12.000Z</time>
        <extensions>
          <ns3:TrackPointExtension>
            <ns3:hr>78</ns3:hr>
            <ns3:cad>0</ns3:cad>
          </ns3:TrackPointExtension>
        </extensions>
      </trkpt>
      <trkpt lat="43.7632044218480587005615234375" lon="1.58075409941375255584716796875">
        <ele>161.600006103515625</ele>
        <time>2026-08-13T09:47:13.000Z</time>
        <extensions>
          <ns3:TrackPointExtension>
            <ns3:hr>77</ns3:hr>
            <ns3:cad>0</ns3:cad>
          </ns3:TrackPointExtension>
        </extensions>
      </trkpt>
      <trkpt lat="43.76320433802902698516845703125" lon="1.58075326122343540191650390625">
        <ele>161.600006103515625</ele>
        <time>2026-08-13T09:47:14.000Z</time>
        <extensions>
          <ns3:TrackPointExtension>
            <ns3:hr>77</ns3:hr>
            <ns3:cad>0</ns3:cad>
          </ns3:TrackPointExtension>
        </extensions>
      </trkpt>
      <trkpt lat="43.76320266164839267730712890625" lon="1.5807533450424671173095703125">
        <ele>161.600006103515625</ele>
        <time>2026-08-13T09:47:15.000Z</time>
        <extensions>
          <ns3:TrackPointExtension>
            <ns3:hr>77</ns3:hr>
            <ns3:cad>0</ns3:cad>
          </ns3:TrackPointExtension>
        </extensions>
      </trkpt>
      <trkpt lat="43.763201236724853515625" lon="1.5807553566992282867431640625">
        <ele>161.600006103515625</ele>
        <time>2026-08-13T09:47:16.000Z</time>
        <extensions>
          <ns3:TrackPointExtension>
            <ns3:hr>76</ns3:hr>
            <ns3:cad>0</ns3:cad>
          </ns3:TrackPointExtension>
        </extensions>
      </trkpt>
      <trkpt lat="43.7631990574300289154052734375" lon="1.5807627327740192413330078125">
        <ele>161.600006103515625</ele>
        <time>2026-08-13T09:47:17.000Z</time>
        <extensions>
          <ns3:TrackPointExtension>
            <ns3:hr>76</ns3:hr>
            <ns3:cad>0</ns3:cad>
          </ns3:TrackPointExtension>
        </extensions>
      </trkpt>
      <trkpt lat="43.76318941824138164520263671875" lon="1.58077220432460308074951171875">
        <ele>161.600006103515625</ele>
        <time>2026-08-13T09:47:18.000Z</time>
        <extensions>
          <ns3:TrackPointExtension>
            <ns3:hr>76</ns3:hr>
            <ns3:cad>0</ns3:cad>
          </ns3:TrackPointExtension>
        </extensions>
      </trkpt>
      <trkpt lat="43.7631811201572418212890625" lon="1.5807798318564891815185546875">
        <ele>161.600006103515625</ele>
        <time>2026-08-13T09:47:19.000Z</time>
        <extensions>
          <ns3:TrackPointExtension>
            <ns3:hr>76</ns3:hr>
            <ns3:cad>0</ns3:cad>
          </ns3:TrackPointExtension>
        </extensions>
      </trkpt>
      <trkpt lat="43.7631678767502307891845703125" lon="1.5807862021028995513916015625">
        <ele>161.600006103515625</ele>
        <time>2026-08-13T09:47:20.000Z</time>
        <extensions>
          <ns3:TrackPointExtension>
            <ns3:hr>75</ns3:hr>
            <ns3:cad>0</ns3:cad>
          </ns3:TrackPointExtension>
        </extensions>
      </trkpt>
      <trkpt lat="43.76315639354288578033447265625" lon="1.580798439681529998779296875">
        <ele>161.600006103515625</ele>
        <time>2026-08-13T09:47:21.000Z</time>
        <extensions>
          <ns3:TrackPointExtension>
            <ns3:hr>75</ns3:hr>
            <ns3:cad>0</ns3:cad>
          </ns3:TrackPointExtension>
        </extensions>
      </trkpt>
      <trkpt lat="43.7631501071155071258544921875" lon="1.58081017434597015380859375">
        <ele>161.399993896484375</ele>
        <time>2026-08-13T09:47:22.000Z</time>
        <extensions>
          <ns3:TrackPointExtension>
            <ns3:hr>74</ns3:hr>
            <ns3:cad>0</ns3:cad>
          </ns3:TrackPointExtension>
        </extensions>
      </trkpt>
      <trkpt lat="43.76314155757427215576171875" lon="1.58081696368753910064697265625">
        <ele>161.399993896484375</ele>
        <time>2026-08-13T09:47:23.000Z</time>
        <extensions>
          <ns3:TrackPointExtension>
            <ns3:hr>73</ns3:hr>
            <ns3:cad>0</ns3:cad>
          </ns3:TrackPointExtension>
        </extensions>
      </trkpt>
      <trkpt lat="43.76313359476625919342041015625" lon="1.5808254294097423553466796875">
        <ele>161.399993896484375</ele>
        <time>2026-08-13T09:47:24.000Z</time>
        <extensions>
          <ns3:TrackPointExtension>
            <ns3:hr>73</ns3:hr>
            <ns3:cad>0</ns3:cad>
          </ns3:TrackPointExtension>
        </extensions>
      </trkpt>
      <trkpt lat="43.763127811253070831298828125" lon="1.58083498477935791015625">
        <ele>161.399993896484375</ele>
        <time>2026-08-13T09:47:25.000Z</time>
        <extensions>
          <ns3:TrackPointExtension>
            <ns3:hr>73</ns3:hr>
            <ns3:cad>0</ns3:cad>
          </ns3:TrackPointExtension>
        </extensions>
      </trkpt>
      <trkpt lat="43.763120435178279876708984375" lon="1.58084814436733722686767578125">
        <ele>161.399993896484375</ele>
        <time>2026-08-13T09:47:26.000Z</time>
        <extensions>
          <ns3:TrackPointExtension>
            <ns3:hr>73</ns3:hr>
            <ns3:cad>46</ns3:cad>
          </ns3:TrackPointExtension>
        </extensions>
      </trkpt>
      <trkpt lat="43.76311498694121837615966796875" lon="1.580857448279857635498046875">
        <ele>161.399993896484375</ele>
        <time>2026-08-13T09:47:27.000Z</time>
        <extensions>
          <ns3:TrackPointExtension>
            <ns3:hr>74</ns3:hr>
            <ns3:cad>48</ns3:cad>
          </ns3:TrackPointExtension>
        </extensions>
      </trkpt>
      <trkpt lat="43.7631108798086643218994140625" lon="1.5808646567165851593017578125">
        <ele>161.399993896484375</ele>
        <time>2026-08-13T09:47:28.000Z</time>
        <extensions>
          <ns3:TrackPointExtension>
            <ns3:hr>74</ns3:hr>
            <ns3:cad>48</ns3:cad>
          </ns3:TrackPointExtension>
        </extensions>
      </trkpt>
      <trkpt lat="43.76310895197093486785888671875" lon="1.580871529877185821533203125">
        <ele>161.399993896484375</ele>
        <time>2026-08-13T09:47:29.000Z</time>
        <extensions>
          <ns3:TrackPointExtension>
            <ns3:hr>74</ns3:hr>
            <ns3:cad>48</ns3:cad>
          </ns3:TrackPointExtension>
        </extensions>
      </trkpt>
      <trkpt lat="43.7631071917712688446044921875" lon="1.58087857067584991455078125">
        <ele>161.399993896484375</ele>
        <time>2026-08-13T09:47:30.000Z</time>
        <extensions>
          <ns3:TrackPointExtension>
            <ns3:hr>74</ns3:hr>
            <ns3:cad>48</ns3:cad>
          </ns3:TrackPointExtension>
        </extensions>
      </trkpt>
      <trkpt lat="43.76310911960899829864501953125" lon="1.58088116906583309173583984375">
        <ele>161.399993896484375</ele>
        <time>2026-08-13T09:47:31.000Z</time>
        <extensions>
          <ns3:TrackPointExtension>
            <ns3:hr>75</ns3:hr>
            <ns3:cad>0</ns3:cad>
          </ns3:TrackPointExtension>
        </extensions>
      </trkpt>
      <trkpt lat="43.763112388551235198974609375" lon="1.5808884613215923309326171875">
        <ele>161.399993896484375</ele>
        <time>2026-08-13T09:47:32.000Z</time>
        <extensions>
          <ns3:TrackPointExtension>
            <ns3:hr>76</ns3:hr>
            <ns3:cad>0</ns3:cad>
          </ns3:TrackPointExtension>
        </extensions>
      </trkpt>
      <trkpt lat="43.763113729655742645263671875" lon="1.58089340664446353912353515625">
        <ele>161.399993896484375</ele>
        <time>2026-08-13T09:47:33.000Z</time>
        <extensions>
          <ns3:TrackPointExtension>
            <ns3:hr>77</ns3:hr>
            <ns3:cad>0</ns3:cad>
          </ns3:TrackPointExtension>
        </extensions>
      </trkpt>
      <trkpt lat="43.763111717998981475830078125" lon="1.580905728042125701904296875">
        <ele>161.399993896484375</ele>
        <time>2026-08-13T09:47:34.000Z</time>
        <extensions>
          <ns3:TrackPointExtension>
            <ns3:hr>78</ns3:hr>
            <ns3:cad>0</ns3:cad>
          </ns3:TrackPointExtension>
        </extensions>
      </trkpt>
      <trkpt lat="43.7631075270473957061767578125" lon="1.58092626370489597320556640625">
        <ele>161.399993896484375</ele>
        <time>2026-08-13T09:47:35.000Z</time>
        <extensions>
          <ns3:TrackPointExtension>
            <ns3:hr>77</ns3:hr>
            <ns3:cad>0</ns3:cad>
          </ns3:TrackPointExtension>
        </extensions>
      </trkpt>
      <trkpt lat="43.76310928724706172943115234375" lon="1.58093699254095554351806640625">
        <ele>161.399993896484375</ele>
        <time>2026-08-13T09:47:36.000Z</time>
        <extensions>
          <ns3:TrackPointExtension>
            <ns3:hr>77</ns3:hr>
            <ns3:cad>0</ns3:cad>
          </ns3:TrackPointExtension>
        </extensions>
      </trkpt>
      <trkpt lat="43.76311004161834716796875" lon="1.5809501521289348602294921875">
        <ele>161.600006103515625</ele>
        <time>2026-08-13T09:47:37.000Z</time>
        <extensions>
          <ns3:TrackPointExtension>
            <ns3:hr>77</ns3:hr>
            <ns3:cad>0</ns3:cad>
          </ns3:TrackPointExtension>
        </extensions>
      </trkpt>
      <trkpt lat="43.7631078623235225677490234375" lon="1.5809632278978824615478515625">
        <ele>161.600006103515625</ele>
        <time>2026-08-13T09:47:38.000Z</time>
        <extensions>
          <ns3:TrackPointExtension>
            <ns3:hr>76</ns3:hr>
            <ns3:cad>0</ns3:cad>
          </ns3:TrackPointExtension>
        </extensions>
      </trkpt>
      <trkpt lat="43.76311062835156917572021484375" lon="1.58097739331424236297607421875">
        <ele>161.8000030517578125</ele>
        <time>2026-08-13T09:47:39.000Z</time>
        <extensions>
          <ns3:TrackPointExtension>
            <ns3:hr>75</ns3:hr>
            <ns3:cad>44</ns3:cad>
          </ns3:TrackPointExtension>
        </extensions>
      </trkpt>
      <trkpt lat="43.7631108798086643218994140625" lon="1.58099080435931682586669921875">
        <ele>161.8000030517578125</ele>
        <time>2026-08-13T09:47:40.000Z</time>
        <extensions>
          <ns3:TrackPointExtension>
            <ns3:hr>75</ns3:hr>
            <ns3:cad>44</ns3:cad>
          </ns3:TrackPointExtension>
        </extensions>
      </trkpt>
      <trkpt lat="43.76311071217060089111328125" lon="1.58100388012826442718505859375">
        <ele>161.8000030517578125</ele>
        <time>2026-08-13T09:47:41.000Z</time>
        <extensions>
          <ns3:TrackPointExtension>
            <ns3:hr>75</ns3:hr>
            <ns3:cad>44</ns3:cad>
          </ns3:TrackPointExtension>
        </extensions>
      </trkpt>
      <trkpt lat="43.76311297528445720672607421875" lon="1.58101762644946575164794921875">
        <ele>161.600006103515625</ele>
        <time>2026-08-13T09:47:42.000Z</time>
        <extensions>
          <ns3:TrackPointExtension>
            <ns3:hr>74</ns3:hr>
            <ns3:cad>46</ns3:cad>
          </ns3:TrackPointExtension>
        </extensions>
      </trkpt>
    </trkseg>
  </trk>
</gpx>
